<?xml version="1.0" encoding="UTF-8" standalone="no" ?>
<gpx xmlns="http://www.topografix.com/GPX/1/1" xmlns:xsi="http://www.w3.org/2001/XMLSchema-instance" xsi:schemaLocation="http://www.topografix.com/GPX/1/1 http://www.topografix.com/GPX/1/1/gpx.xsd" version="1.1" creator="VisuGPX - https://www.visugpx.com">
  <metadata>
    <name>TA653 - Ronan PIERRE</name>
    <desc><![CDATA[De Toulouse  à St Jacques pour le GR 653, chemin de St Jacques dans le cadre de la TA653.]]></desc>
  </metadata>
  <trk>
    <name><![CDATA[Move]]></name>
    <trkseg>
      <trkpt lat="43.59971" lon="1.44039">
        <ele>144.60000610352</ele>
        <time>2020-10-03T05:57:21.000Z</time>
      </trkpt>
      <trkpt lat="43.59975" lon="1.4404">
        <ele>145</ele>
        <time>2020-10-03T05:57:46.000Z</time>
      </trkpt>
      <trkpt lat="43.59977" lon="1.44039">
        <ele>145.42708</ele>
        <time>2020-10-03T05:57:47.000Z</time>
      </trkpt>
      <trkpt lat="43.59979" lon="1.44038">
        <ele>146</ele>
        <time>2020-10-03T05:57:48.000Z</time>
      </trkpt>
      <trkpt lat="43.59981" lon="1.44036">
        <ele>146</ele>
        <time>2020-10-03T05:57:49.000Z</time>
      </trkpt>
      <trkpt lat="43.59983" lon="1.44034">
        <ele>145.65094430759</ele>
        <time>2020-10-03T05:57:50.000Z</time>
      </trkpt>
      <trkpt lat="43.59986" lon="1.44032">
        <ele>145</ele>
        <time>2020-10-03T05:57:51.000Z</time>
      </trkpt>
      <trkpt lat="43.59988" lon="1.4403">
        <ele>145</ele>
        <time>2020-10-03T05:57:52.000Z</time>
      </trkpt>
      <trkpt lat="43.59996" lon="1.44022">
        <ele>144</ele>
        <time>2020-10-03T05:57:56.000Z</time>
      </trkpt>
      <trkpt lat="43.60005" lon="1.44013">
        <ele>144</ele>
        <time>2020-10-03T05:58:00.000Z</time>
      </trkpt>
      <trkpt lat="43.60013" lon="1.44003">
        <ele>142.7163114129</ele>
        <time>2020-10-03T05:58:04.000Z</time>
      </trkpt>
      <trkpt lat="43.60018" lon="1.43996">
        <ele>141.68674048486</ele>
        <time>2020-10-03T05:58:07.000Z</time>
      </trkpt>
      <trkpt lat="43.60019" lon="1.43993">
        <ele>141</ele>
        <time>2020-10-03T05:58:08.000Z</time>
      </trkpt>
      <trkpt lat="43.60021" lon="1.43991">
        <ele>141</ele>
        <time>2020-10-03T05:58:09.000Z</time>
      </trkpt>
      <trkpt lat="43.60025" lon="1.43985">
        <ele>141</ele>
        <time>2020-10-03T05:58:11.000Z</time>
      </trkpt>
      <trkpt lat="43.60027" lon="1.43983">
        <ele>141</ele>
        <time>2020-10-03T05:58:12.000Z</time>
      </trkpt>
      <trkpt lat="43.60029" lon="1.4398">
        <ele>141</ele>
        <time>2020-10-03T05:58:13.000Z</time>
      </trkpt>
      <trkpt lat="43.60033" lon="1.43975">
        <ele>141</ele>
        <time>2020-10-03T05:58:15.000Z</time>
      </trkpt>
      <trkpt lat="43.60041" lon="1.43967">
        <ele>141</ele>
        <time>2020-10-03T05:58:19.000Z</time>
      </trkpt>
      <trkpt lat="43.6005" lon="1.43958">
        <ele>141</ele>
        <time>2020-10-03T05:58:23.000Z</time>
      </trkpt>
      <trkpt lat="43.60054" lon="1.43953">
        <ele>141</ele>
        <time>2020-10-03T05:58:25.000Z</time>
      </trkpt>
      <trkpt lat="43.60056" lon="1.43951">
        <ele>140</ele>
        <time>2020-10-03T05:58:26.000Z</time>
      </trkpt>
      <trkpt lat="43.60058" lon="1.43949">
        <ele>140</ele>
        <time>2020-10-03T05:58:27.000Z</time>
      </trkpt>
      <trkpt lat="43.6006" lon="1.43946">
        <ele>139.61606857143</ele>
        <time>2020-10-03T05:58:28.000Z</time>
      </trkpt>
      <trkpt lat="43.60066" lon="1.43941">
        <ele>139</ele>
        <time>2020-10-03T05:58:30.000Z</time>
      </trkpt>
      <trkpt lat="43.6007" lon="1.43938">
        <ele>139</ele>
        <time>2020-10-03T05:58:32.000Z</time>
      </trkpt>
      <trkpt lat="43.60075" lon="1.43934">
        <ele>139</ele>
        <time>2020-10-03T05:58:34.000Z</time>
      </trkpt>
      <trkpt lat="43.60084" lon="1.43925">
        <ele>140</ele>
        <time>2020-10-03T05:58:38.000Z</time>
      </trkpt>
      <trkpt lat="43.60092" lon="1.43922">
        <ele>140</ele>
        <time>2020-10-03T05:58:41.000Z</time>
      </trkpt>
      <trkpt lat="43.60095" lon="1.43923">
        <ele>140</ele>
        <time>2020-10-03T05:58:42.000Z</time>
      </trkpt>
      <trkpt lat="43.60101" lon="1.43926">
        <ele>140</ele>
        <time>2020-10-03T05:58:44.000Z</time>
      </trkpt>
      <trkpt lat="43.60103" lon="1.43929">
        <ele>140</ele>
        <time>2020-10-03T05:58:45.000Z</time>
      </trkpt>
      <trkpt lat="43.60105" lon="1.43932">
        <ele>140</ele>
        <time>2020-10-03T05:58:46.000Z</time>
      </trkpt>
      <trkpt lat="43.60107" lon="1.43934">
        <ele>140</ele>
        <time>2020-10-03T05:58:47.000Z</time>
      </trkpt>
      <trkpt lat="43.60108" lon="1.43936">
        <ele>140</ele>
        <time>2020-10-03T05:58:48.000Z</time>
      </trkpt>
      <trkpt lat="43.6011" lon="1.43938">
        <ele>140</ele>
        <time>2020-10-03T05:58:49.000Z</time>
      </trkpt>
      <trkpt lat="43.60112" lon="1.4394">
        <ele>140</ele>
        <time>2020-10-03T05:58:50.000Z</time>
      </trkpt>
      <trkpt lat="43.60114" lon="1.43941">
        <ele>140</ele>
        <time>2020-10-03T05:58:51.000Z</time>
      </trkpt>
      <trkpt lat="43.60116" lon="1.43943">
        <ele>140</ele>
        <time>2020-10-03T05:58:52.000Z</time>
      </trkpt>
      <trkpt lat="43.60116" lon="1.4394">
        <ele>140.6016296543</ele>
        <time>2020-10-03T05:58:57.000Z</time>
      </trkpt>
      <trkpt lat="43.60116" lon="1.43937">
        <ele>138.57141986408</ele>
        <time>2020-10-03T05:59:00.000Z</time>
      </trkpt>
      <trkpt lat="43.60115" lon="1.43935">
        <ele>136</ele>
        <time>2020-10-03T05:59:02.000Z</time>
      </trkpt>
      <trkpt lat="43.60114" lon="1.43933">
        <ele>136</ele>
        <time>2020-10-03T05:59:04.000Z</time>
      </trkpt>
      <trkpt lat="43.60112" lon="1.43929">
        <ele>135</ele>
        <time>2020-10-03T05:59:06.000Z</time>
      </trkpt>
      <trkpt lat="43.60111" lon="1.43927">
        <ele>135</ele>
        <time>2020-10-03T05:59:07.000Z</time>
      </trkpt>
      <trkpt lat="43.60109" lon="1.43926">
        <ele>134.63063457835</ele>
        <time>2020-10-03T05:59:08.000Z</time>
      </trkpt>
      <trkpt lat="43.60108" lon="1.43924">
        <ele>134</ele>
        <time>2020-10-03T05:59:09.000Z</time>
      </trkpt>
      <trkpt lat="43.60107" lon="1.43921">
        <ele>134</ele>
        <time>2020-10-03T05:59:10.000Z</time>
      </trkpt>
      <trkpt lat="43.60105" lon="1.43918">
        <ele>133.61061836635</ele>
        <time>2020-10-03T05:59:11.000Z</time>
      </trkpt>
      <trkpt lat="43.60104" lon="1.43914">
        <ele>133</ele>
        <time>2020-10-03T05:59:12.000Z</time>
      </trkpt>
      <trkpt lat="43.60104" lon="1.4391">
        <ele>133</ele>
        <time>2020-10-03T05:59:13.000Z</time>
      </trkpt>
      <trkpt lat="43.60104" lon="1.43906">
        <ele>132.21051719824</ele>
        <time>2020-10-03T05:59:14.000Z</time>
      </trkpt>
      <trkpt lat="43.60104" lon="1.43902">
        <ele>130</ele>
        <time>2020-10-03T05:59:15.000Z</time>
      </trkpt>
      <trkpt lat="43.60105" lon="1.43899">
        <ele>130</ele>
        <time>2020-10-03T05:59:16.000Z</time>
      </trkpt>
      <trkpt lat="43.60107" lon="1.43896">
        <ele>129.3962300605</ele>
        <time>2020-10-03T05:59:17.000Z</time>
      </trkpt>
      <trkpt lat="43.60108" lon="1.43893">
        <ele>128</ele>
        <time>2020-10-03T05:59:18.000Z</time>
      </trkpt>
      <trkpt lat="43.60109" lon="1.4389">
        <ele>128</ele>
        <time>2020-10-03T05:59:19.000Z</time>
      </trkpt>
      <trkpt lat="43.60111" lon="1.43887">
        <ele>128</ele>
        <time>2020-10-03T05:59:20.000Z</time>
      </trkpt>
      <trkpt lat="43.60113" lon="1.43884">
        <ele>128</ele>
        <time>2020-10-03T05:59:21.000Z</time>
      </trkpt>
      <trkpt lat="43.60114" lon="1.43882">
        <ele>128</ele>
        <time>2020-10-03T05:59:22.000Z</time>
      </trkpt>
      <trkpt lat="43.60116" lon="1.43879">
        <ele>128</ele>
        <time>2020-10-03T05:59:23.000Z</time>
      </trkpt>
      <trkpt lat="43.60118" lon="1.43876">
        <ele>128</ele>
        <time>2020-10-03T05:59:24.000Z</time>
      </trkpt>
      <trkpt lat="43.60121" lon="1.43874">
        <ele>128</ele>
        <time>2020-10-03T05:59:25.000Z</time>
      </trkpt>
      <trkpt lat="43.60123" lon="1.43872">
        <ele>128</ele>
        <time>2020-10-03T05:59:26.000Z</time>
      </trkpt>
      <trkpt lat="43.60125" lon="1.4387">
        <ele>128</ele>
        <time>2020-10-03T05:59:27.000Z</time>
      </trkpt>
      <trkpt lat="43.60126" lon="1.43867">
        <ele>128</ele>
        <time>2020-10-03T05:59:28.000Z</time>
      </trkpt>
      <trkpt lat="43.60128" lon="1.43865">
        <ele>128.71626037283</ele>
        <time>2020-10-03T05:59:29.000Z</time>
      </trkpt>
      <trkpt lat="43.6013" lon="1.43864">
        <ele>130</ele>
        <time>2020-10-03T05:59:30.000Z</time>
      </trkpt>
      <trkpt lat="43.60132" lon="1.43862">
        <ele>130.55856271405</ele>
        <time>2020-10-03T05:59:33.000Z</time>
      </trkpt>
      <trkpt lat="43.60134" lon="1.43862">
        <ele>132</ele>
        <time>2020-10-03T05:59:36.000Z</time>
      </trkpt>
      <trkpt lat="43.60135" lon="1.4386">
        <ele>132</ele>
        <time>2020-10-03T05:59:37.000Z</time>
      </trkpt>
      <trkpt lat="43.60137" lon="1.43858">
        <ele>132</ele>
        <time>2020-10-03T05:59:38.000Z</time>
      </trkpt>
      <trkpt lat="43.60139" lon="1.43855">
        <ele>132</ele>
        <time>2020-10-03T05:59:39.000Z</time>
      </trkpt>
      <trkpt lat="43.60142" lon="1.43853">
        <ele>132</ele>
        <time>2020-10-03T05:59:40.000Z</time>
      </trkpt>
      <trkpt lat="43.60144" lon="1.4385">
        <ele>132</ele>
        <time>2020-10-03T05:59:41.000Z</time>
      </trkpt>
      <trkpt lat="43.60146" lon="1.43848">
        <ele>132</ele>
        <time>2020-10-03T05:59:42.000Z</time>
      </trkpt>
      <trkpt lat="43.60148" lon="1.43845">
        <ele>131.65555444939</ele>
        <time>2020-10-03T05:59:43.000Z</time>
      </trkpt>
      <trkpt lat="43.6015" lon="1.43842">
        <ele>131</ele>
        <time>2020-10-03T05:59:44.000Z</time>
      </trkpt>
      <trkpt lat="43.60152" lon="1.43839">
        <ele>131</ele>
        <time>2020-10-03T05:59:45.000Z</time>
      </trkpt>
      <trkpt lat="43.60154" lon="1.43837">
        <ele>132.01204429091</ele>
        <time>2020-10-03T05:59:46.000Z</time>
      </trkpt>
      <trkpt lat="43.60156" lon="1.43834">
        <ele>134</ele>
        <time>2020-10-03T05:59:47.000Z</time>
      </trkpt>
      <trkpt lat="43.60158" lon="1.43831">
        <ele>134</ele>
        <time>2020-10-03T05:59:48.000Z</time>
      </trkpt>
      <trkpt lat="43.60159" lon="1.43829">
        <ele>134</ele>
        <time>2020-10-03T05:59:49.000Z</time>
      </trkpt>
      <trkpt lat="43.60158" lon="1.43827">
        <ele>133</ele>
        <time>2020-10-03T05:59:55.000Z</time>
      </trkpt>
      <trkpt lat="43.60159" lon="1.43824">
        <ele>133</ele>
        <time>2020-10-03T05:59:56.000Z</time>
      </trkpt>
      <trkpt lat="43.60161" lon="1.43821">
        <ele>133</ele>
        <time>2020-10-03T05:59:57.000Z</time>
      </trkpt>
      <trkpt lat="43.60162" lon="1.43818">
        <ele>134</ele>
        <time>2020-10-03T05:59:58.000Z</time>
      </trkpt>
      <trkpt lat="43.60164" lon="1.43815">
        <ele>134</ele>
        <time>2020-10-03T05:59:59.000Z</time>
      </trkpt>
      <trkpt lat="43.60166" lon="1.43812">
        <ele>134</ele>
        <time>2020-10-03T06:00:00.000Z</time>
      </trkpt>
      <trkpt lat="43.60169" lon="1.4381">
        <ele>134</ele>
        <time>2020-10-03T06:00:01.000Z</time>
      </trkpt>
      <trkpt lat="43.60171" lon="1.43807">
        <ele>134</ele>
        <time>2020-10-03T06:00:02.000Z</time>
      </trkpt>
      <trkpt lat="43.60173" lon="1.43803">
        <ele>134</ele>
        <time>2020-10-03T06:00:03.000Z</time>
      </trkpt>
      <trkpt lat="43.60175" lon="1.438">
        <ele>133.66666666667</ele>
        <time>2020-10-03T06:00:04.000Z</time>
      </trkpt>
      <trkpt lat="43.60177" lon="1.43797">
        <ele>133</ele>
        <time>2020-10-03T06:00:05.000Z</time>
      </trkpt>
      <trkpt lat="43.60178" lon="1.43794">
        <ele>133</ele>
        <time>2020-10-03T06:00:06.000Z</time>
      </trkpt>
      <trkpt lat="43.6018" lon="1.43791">
        <ele>133</ele>
        <time>2020-10-03T06:00:07.000Z</time>
      </trkpt>
      <trkpt lat="43.60181" lon="1.43787">
        <ele>133</ele>
        <time>2020-10-03T06:00:08.000Z</time>
      </trkpt>
      <trkpt lat="43.60183" lon="1.43784">
        <ele>133.34233953735</ele>
        <time>2020-10-03T06:00:09.000Z</time>
      </trkpt>
      <trkpt lat="43.60185" lon="1.43781">
        <ele>134</ele>
        <time>2020-10-03T06:00:10.000Z</time>
      </trkpt>
      <trkpt lat="43.60187" lon="1.43777">
        <ele>134</ele>
        <time>2020-10-03T06:00:11.000Z</time>
      </trkpt>
      <trkpt lat="43.60189" lon="1.43775">
        <ele>133.85332969246</ele>
        <time>2020-10-03T06:00:12.000Z</time>
      </trkpt>
      <trkpt lat="43.6019" lon="1.43773">
        <ele>133</ele>
        <time>2020-10-03T06:00:13.000Z</time>
      </trkpt>
      <trkpt lat="43.60192" lon="1.4377">
        <ele>133</ele>
        <time>2020-10-03T06:00:14.000Z</time>
      </trkpt>
      <trkpt lat="43.60193" lon="1.43768">
        <ele>133</ele>
        <time>2020-10-03T06:00:15.000Z</time>
      </trkpt>
      <trkpt lat="43.60196" lon="1.43763">
        <ele>133</ele>
        <time>2020-10-03T06:00:17.000Z</time>
      </trkpt>
      <trkpt lat="43.60201" lon="1.4375">
        <ele>133</ele>
        <time>2020-10-03T06:00:21.000Z</time>
      </trkpt>
      <trkpt lat="43.60203" lon="1.43747">
        <ele>133</ele>
        <time>2020-10-03T06:00:22.000Z</time>
      </trkpt>
      <trkpt lat="43.60205" lon="1.43744">
        <ele>133</ele>
        <time>2020-10-03T06:00:23.000Z</time>
      </trkpt>
      <trkpt lat="43.60206" lon="1.43741">
        <ele>133</ele>
        <time>2020-10-03T06:00:24.000Z</time>
      </trkpt>
      <trkpt lat="43.60208" lon="1.43738">
        <ele>133</ele>
        <time>2020-10-03T06:00:25.000Z</time>
      </trkpt>
      <trkpt lat="43.60209" lon="1.43735">
        <ele>133</ele>
        <time>2020-10-03T06:00:26.000Z</time>
      </trkpt>
      <trkpt lat="43.60213" lon="1.4373">
        <ele>131</ele>
        <time>2020-10-03T06:00:28.000Z</time>
      </trkpt>
      <trkpt lat="43.60214" lon="1.43728">
        <ele>131</ele>
        <time>2020-10-03T06:00:29.000Z</time>
      </trkpt>
      <trkpt lat="43.60216" lon="1.43725">
        <ele>131</ele>
        <time>2020-10-03T06:00:30.000Z</time>
      </trkpt>
      <trkpt lat="43.60218" lon="1.43723">
        <ele>131</ele>
        <time>2020-10-03T06:00:31.000Z</time>
      </trkpt>
      <trkpt lat="43.6022" lon="1.4372">
        <ele>131</ele>
        <time>2020-10-03T06:00:32.000Z</time>
      </trkpt>
      <trkpt lat="43.60221" lon="1.43718">
        <ele>131</ele>
        <time>2020-10-03T06:00:33.000Z</time>
      </trkpt>
      <trkpt lat="43.60224" lon="1.43716">
        <ele>131</ele>
        <time>2020-10-03T06:00:34.000Z</time>
      </trkpt>
      <trkpt lat="43.60226" lon="1.43713">
        <ele>131.35714416325</ele>
        <time>2020-10-03T06:00:35.000Z</time>
      </trkpt>
      <trkpt lat="43.60228" lon="1.43711">
        <ele>132</ele>
        <time>2020-10-03T06:00:36.000Z</time>
      </trkpt>
      <trkpt lat="43.6023" lon="1.43708">
        <ele>132</ele>
        <time>2020-10-03T06:00:37.000Z</time>
      </trkpt>
      <trkpt lat="43.60233" lon="1.43705">
        <ele>131.67415972732</ele>
        <time>2020-10-03T06:00:38.000Z</time>
      </trkpt>
      <trkpt lat="43.60235" lon="1.43702">
        <ele>131</ele>
        <time>2020-10-03T06:00:39.000Z</time>
      </trkpt>
      <trkpt lat="43.60237" lon="1.437">
        <ele>131</ele>
        <time>2020-10-03T06:00:40.000Z</time>
      </trkpt>
      <trkpt lat="43.6024" lon="1.43697">
        <ele>130.69512347413</ele>
        <time>2020-10-03T06:00:41.000Z</time>
      </trkpt>
      <trkpt lat="43.60242" lon="1.43695">
        <ele>130</ele>
        <time>2020-10-03T06:00:42.000Z</time>
      </trkpt>
      <trkpt lat="43.60244" lon="1.43692">
        <ele>130</ele>
        <time>2020-10-03T06:00:43.000Z</time>
      </trkpt>
      <trkpt lat="43.60246" lon="1.43688">
        <ele>130.35454630082</ele>
        <time>2020-10-03T06:00:44.000Z</time>
      </trkpt>
      <trkpt lat="43.60247" lon="1.43684">
        <ele>131</ele>
        <time>2020-10-03T06:00:45.000Z</time>
      </trkpt>
      <trkpt lat="43.60248" lon="1.4368">
        <ele>131</ele>
        <time>2020-10-03T06:00:46.000Z</time>
      </trkpt>
      <trkpt lat="43.60249" lon="1.43676">
        <ele>131.40697743645</ele>
        <time>2020-10-03T06:00:47.000Z</time>
      </trkpt>
      <trkpt lat="43.60251" lon="1.43672">
        <ele>132</ele>
        <time>2020-10-03T06:00:48.000Z</time>
      </trkpt>
      <trkpt lat="43.60253" lon="1.43669">
        <ele>132</ele>
        <time>2020-10-03T06:00:49.000Z</time>
      </trkpt>
      <trkpt lat="43.60256" lon="1.43662">
        <ele>132</ele>
        <time>2020-10-03T06:00:51.000Z</time>
      </trkpt>
      <trkpt lat="43.60258" lon="1.43659">
        <ele>132.07575346185</ele>
        <time>2020-10-03T06:00:52.000Z</time>
      </trkpt>
      <trkpt lat="43.6026" lon="1.43656">
        <ele>133</ele>
        <time>2020-10-03T06:00:53.000Z</time>
      </trkpt>
      <trkpt lat="43.60262" lon="1.43652">
        <ele>133</ele>
        <time>2020-10-03T06:00:54.000Z</time>
      </trkpt>
      <trkpt lat="43.60264" lon="1.43649">
        <ele>133</ele>
        <time>2020-10-03T06:00:55.000Z</time>
      </trkpt>
      <trkpt lat="43.60266" lon="1.43646">
        <ele>133</ele>
        <time>2020-10-03T06:00:56.000Z</time>
      </trkpt>
      <trkpt lat="43.60267" lon="1.43642">
        <ele>133</ele>
        <time>2020-10-03T06:00:57.000Z</time>
      </trkpt>
      <trkpt lat="43.60269" lon="1.43639">
        <ele>133</ele>
        <time>2020-10-03T06:00:58.000Z</time>
      </trkpt>
      <trkpt lat="43.60271" lon="1.43636">
        <ele>132.69317818182</ele>
        <time>2020-10-03T06:00:59.000Z</time>
      </trkpt>
      <trkpt lat="43.60273" lon="1.43633">
        <ele>132</ele>
        <time>2020-10-03T06:01:00.000Z</time>
      </trkpt>
      <trkpt lat="43.60274" lon="1.4363">
        <ele>132.32966677451</ele>
        <time>2020-10-03T06:01:01.000Z</time>
      </trkpt>
      <trkpt lat="43.60275" lon="1.43626">
        <ele>133</ele>
        <time>2020-10-03T06:01:02.000Z</time>
      </trkpt>
      <trkpt lat="43.60277" lon="1.43623">
        <ele>133</ele>
        <time>2020-10-03T06:01:03.000Z</time>
      </trkpt>
      <trkpt lat="43.60278" lon="1.4362">
        <ele>132.64545369918</ele>
        <time>2020-10-03T06:01:04.000Z</time>
      </trkpt>
      <trkpt lat="43.6028" lon="1.43617">
        <ele>132</ele>
        <time>2020-10-03T06:01:05.000Z</time>
      </trkpt>
      <trkpt lat="43.60282" lon="1.43613">
        <ele>132</ele>
        <time>2020-10-03T06:01:06.000Z</time>
      </trkpt>
      <trkpt lat="43.60284" lon="1.4361">
        <ele>132</ele>
        <time>2020-10-03T06:01:07.000Z</time>
      </trkpt>
      <trkpt lat="43.60285" lon="1.43607">
        <ele>131.75862068966</ele>
        <time>2020-10-03T06:01:08.000Z</time>
      </trkpt>
      <trkpt lat="43.60287" lon="1.43604">
        <ele>131</ele>
        <time>2020-10-03T06:01:09.000Z</time>
      </trkpt>
      <trkpt lat="43.60288" lon="1.43601">
        <ele>131</ele>
        <time>2020-10-03T06:01:10.000Z</time>
      </trkpt>
      <trkpt lat="43.60289" lon="1.43597">
        <ele>131</ele>
        <time>2020-10-03T06:01:11.000Z</time>
      </trkpt>
      <trkpt lat="43.60291" lon="1.43594">
        <ele>131</ele>
        <time>2020-10-03T06:01:12.000Z</time>
      </trkpt>
      <trkpt lat="43.60293" lon="1.4359">
        <ele>131</ele>
        <time>2020-10-03T06:01:13.000Z</time>
      </trkpt>
      <trkpt lat="43.60294" lon="1.43586">
        <ele>131</ele>
        <time>2020-10-03T06:01:14.000Z</time>
      </trkpt>
      <trkpt lat="43.60296" lon="1.43583">
        <ele>131.29069611681</ele>
        <time>2020-10-03T06:01:15.000Z</time>
      </trkpt>
      <trkpt lat="43.60298" lon="1.43579">
        <ele>132</ele>
        <time>2020-10-03T06:01:16.000Z</time>
      </trkpt>
      <trkpt lat="43.60299" lon="1.43576">
        <ele>132</ele>
        <time>2020-10-03T06:01:17.000Z</time>
      </trkpt>
      <trkpt lat="43.60301" lon="1.43574">
        <ele>132</ele>
        <time>2020-10-03T06:01:18.000Z</time>
      </trkpt>
      <trkpt lat="43.60308" lon="1.43562">
        <ele>132</ele>
        <time>2020-10-03T06:01:22.000Z</time>
      </trkpt>
      <trkpt lat="43.60308" lon="1.43559">
        <ele>132</ele>
        <time>2020-10-03T06:01:23.000Z</time>
      </trkpt>
      <trkpt lat="43.60309" lon="1.43555">
        <ele>132.25547499813</ele>
        <time>2020-10-03T06:01:24.000Z</time>
      </trkpt>
      <trkpt lat="43.6031" lon="1.43551">
        <ele>132.98539689065</ele>
        <time>2020-10-03T06:01:25.000Z</time>
      </trkpt>
      <trkpt lat="43.60312" lon="1.43547">
        <ele>133</ele>
        <time>2020-10-03T06:01:26.000Z</time>
      </trkpt>
      <trkpt lat="43.60314" lon="1.43543">
        <ele>133</ele>
        <time>2020-10-03T06:01:27.000Z</time>
      </trkpt>
      <trkpt lat="43.60316" lon="1.43538">
        <ele>132.73770354205</ele>
        <time>2020-10-03T06:01:28.000Z</time>
      </trkpt>
      <trkpt lat="43.60318" lon="1.43534">
        <ele>131</ele>
        <time>2020-10-03T06:01:29.000Z</time>
      </trkpt>
      <trkpt lat="43.60319" lon="1.43531">
        <ele>131</ele>
        <time>2020-10-03T06:01:30.000Z</time>
      </trkpt>
      <trkpt lat="43.60321" lon="1.43529">
        <ele>131</ele>
        <time>2020-10-03T06:01:31.000Z</time>
      </trkpt>
      <trkpt lat="43.60327" lon="1.43526">
        <ele>131</ele>
        <time>2020-10-03T06:01:35.000Z</time>
      </trkpt>
      <trkpt lat="43.60329" lon="1.43528">
        <ele>131.3180255699</ele>
        <time>2020-10-03T06:01:37.000Z</time>
      </trkpt>
      <trkpt lat="43.60331" lon="1.43532">
        <ele>132</ele>
        <time>2020-10-03T06:01:39.000Z</time>
      </trkpt>
      <trkpt lat="43.60333" lon="1.43534">
        <ele>134</ele>
        <time>2020-10-03T06:01:41.000Z</time>
      </trkpt>
      <trkpt lat="43.60335" lon="1.43537">
        <ele>134</ele>
        <time>2020-10-03T06:01:43.000Z</time>
      </trkpt>
      <trkpt lat="43.60338" lon="1.43539">
        <ele>135</ele>
        <time>2020-10-03T06:01:46.000Z</time>
      </trkpt>
      <trkpt lat="43.6034" lon="1.43541">
        <ele>135.33644759193</ele>
        <time>2020-10-03T06:01:48.000Z</time>
      </trkpt>
      <trkpt lat="43.60342" lon="1.43543">
        <ele>136</ele>
        <time>2020-10-03T06:01:50.000Z</time>
      </trkpt>
      <trkpt lat="43.60343" lon="1.43544">
        <ele>139</ele>
        <time>2020-10-03T06:01:52.000Z</time>
      </trkpt>
      <trkpt lat="43.60346" lon="1.43543">
        <ele>139.42202050331</ele>
        <time>2020-10-03T06:01:54.000Z</time>
      </trkpt>
      <trkpt lat="43.60348" lon="1.43541">
        <ele>140</ele>
        <time>2020-10-03T06:01:55.000Z</time>
      </trkpt>
      <trkpt lat="43.60349" lon="1.43539">
        <ele>140</ele>
        <time>2020-10-03T06:01:56.000Z</time>
      </trkpt>
      <trkpt lat="43.6035" lon="1.43537">
        <ele>140</ele>
        <time>2020-10-03T06:01:57.000Z</time>
      </trkpt>
      <trkpt lat="43.6035" lon="1.43534">
        <ele>140</ele>
        <time>2020-10-03T06:01:58.000Z</time>
      </trkpt>
      <trkpt lat="43.6035" lon="1.43531">
        <ele>140</ele>
        <time>2020-10-03T06:01:59.000Z</time>
      </trkpt>
      <trkpt lat="43.6035" lon="1.43527">
        <ele>140.47169492344</ele>
        <time>2020-10-03T06:02:00.000Z</time>
      </trkpt>
      <trkpt lat="43.60349" lon="1.43524">
        <ele>141</ele>
        <time>2020-10-03T06:02:01.000Z</time>
      </trkpt>
      <trkpt lat="43.60349" lon="1.43519">
        <ele>141</ele>
        <time>2020-10-03T06:02:02.000Z</time>
      </trkpt>
      <trkpt lat="43.60349" lon="1.43516">
        <ele>141</ele>
        <time>2020-10-03T06:02:03.000Z</time>
      </trkpt>
      <trkpt lat="43.60349" lon="1.43512">
        <ele>141</ele>
        <time>2020-10-03T06:02:04.000Z</time>
      </trkpt>
      <trkpt lat="43.60348" lon="1.43509">
        <ele>141</ele>
        <time>2020-10-03T06:02:05.000Z</time>
      </trkpt>
      <trkpt lat="43.60349" lon="1.43502">
        <ele>141</ele>
        <time>2020-10-03T06:02:07.000Z</time>
      </trkpt>
      <trkpt lat="43.60349" lon="1.43499">
        <ele>141</ele>
        <time>2020-10-03T06:02:08.000Z</time>
      </trkpt>
      <trkpt lat="43.6035" lon="1.43495">
        <ele>141</ele>
        <time>2020-10-03T06:02:09.000Z</time>
      </trkpt>
      <trkpt lat="43.60351" lon="1.43492">
        <ele>141</ele>
        <time>2020-10-03T06:02:10.000Z</time>
      </trkpt>
      <trkpt lat="43.60352" lon="1.43488">
        <ele>141</ele>
        <time>2020-10-03T06:02:11.000Z</time>
      </trkpt>
      <trkpt lat="43.60353" lon="1.43484">
        <ele>141</ele>
        <time>2020-10-03T06:02:12.000Z</time>
      </trkpt>
      <trkpt lat="43.60354" lon="1.4348">
        <ele>141</ele>
        <time>2020-10-03T06:02:13.000Z</time>
      </trkpt>
      <trkpt lat="43.60355" lon="1.43476">
        <ele>140.65853925043</ele>
        <time>2020-10-03T06:02:14.000Z</time>
      </trkpt>
      <trkpt lat="43.60356" lon="1.43474">
        <ele>140</ele>
        <time>2020-10-03T06:02:15.000Z</time>
      </trkpt>
      <trkpt lat="43.60358" lon="1.43471">
        <ele>140</ele>
        <time>2020-10-03T06:02:16.000Z</time>
      </trkpt>
      <trkpt lat="43.60359" lon="1.43468">
        <ele>140</ele>
        <time>2020-10-03T06:02:17.000Z</time>
      </trkpt>
      <trkpt lat="43.6036" lon="1.43465">
        <ele>139.54955141954</ele>
        <time>2020-10-03T06:02:18.000Z</time>
      </trkpt>
      <trkpt lat="43.60362" lon="1.43462">
        <ele>139</ele>
        <time>2020-10-03T06:02:19.000Z</time>
      </trkpt>
      <trkpt lat="43.60364" lon="1.4346">
        <ele>139</ele>
        <time>2020-10-03T06:02:20.000Z</time>
      </trkpt>
      <trkpt lat="43.60365" lon="1.43456">
        <ele>139</ele>
        <time>2020-10-03T06:02:21.000Z</time>
      </trkpt>
      <trkpt lat="43.60366" lon="1.43453">
        <ele>138.65714181224</ele>
        <time>2020-10-03T06:02:22.000Z</time>
      </trkpt>
      <trkpt lat="43.60367" lon="1.4345">
        <ele>138</ele>
        <time>2020-10-03T06:02:23.000Z</time>
      </trkpt>
      <trkpt lat="43.60369" lon="1.43447">
        <ele>138.30434976181</ele>
        <time>2020-10-03T06:02:24.000Z</time>
      </trkpt>
      <trkpt lat="43.60371" lon="1.43444">
        <ele>139</ele>
        <time>2020-10-03T06:02:25.000Z</time>
      </trkpt>
      <trkpt lat="43.60372" lon="1.43442">
        <ele>139</ele>
        <time>2020-10-03T06:02:26.000Z</time>
      </trkpt>
      <trkpt lat="43.60374" lon="1.43439">
        <ele>139</ele>
        <time>2020-10-03T06:02:27.000Z</time>
      </trkpt>
      <trkpt lat="43.60376" lon="1.43437">
        <ele>139</ele>
        <time>2020-10-03T06:02:28.000Z</time>
      </trkpt>
      <trkpt lat="43.60379" lon="1.43436">
        <ele>139</ele>
        <time>2020-10-03T06:02:29.000Z</time>
      </trkpt>
      <trkpt lat="43.60381" lon="1.43436">
        <ele>139</ele>
        <time>2020-10-03T06:02:30.000Z</time>
      </trkpt>
      <trkpt lat="43.60383" lon="1.43436">
        <ele>139</ele>
        <time>2020-10-03T06:02:31.000Z</time>
      </trkpt>
      <trkpt lat="43.60386" lon="1.43437">
        <ele>139</ele>
        <time>2020-10-03T06:02:32.000Z</time>
      </trkpt>
      <trkpt lat="43.60388" lon="1.43438">
        <ele>139</ele>
        <time>2020-10-03T06:02:33.000Z</time>
      </trkpt>
      <trkpt lat="43.6039" lon="1.43439">
        <ele>139</ele>
        <time>2020-10-03T06:02:34.000Z</time>
      </trkpt>
      <trkpt lat="43.60393" lon="1.43439">
        <ele>139</ele>
        <time>2020-10-03T06:02:35.000Z</time>
      </trkpt>
      <trkpt lat="43.60394" lon="1.43438">
        <ele>139</ele>
        <time>2020-10-03T06:02:37.000Z</time>
      </trkpt>
      <trkpt lat="43.60396" lon="1.43435">
        <ele>139</ele>
        <time>2020-10-03T06:02:39.000Z</time>
      </trkpt>
      <trkpt lat="43.60399" lon="1.43434">
        <ele>137</ele>
        <time>2020-10-03T06:02:41.000Z</time>
      </trkpt>
      <trkpt lat="43.60401" lon="1.43433">
        <ele>136</ele>
        <time>2020-10-03T06:02:51.000Z</time>
      </trkpt>
      <trkpt lat="43.60404" lon="1.43433">
        <ele>136</ele>
        <time>2020-10-03T06:02:53.000Z</time>
      </trkpt>
      <trkpt lat="43.60407" lon="1.43433">
        <ele>136</ele>
        <time>2020-10-03T06:02:55.000Z</time>
      </trkpt>
      <trkpt lat="43.60409" lon="1.43434">
        <ele>136</ele>
        <time>2020-10-03T06:02:56.000Z</time>
      </trkpt>
      <trkpt lat="43.60411" lon="1.43435">
        <ele>136</ele>
        <time>2020-10-03T06:02:57.000Z</time>
      </trkpt>
      <trkpt lat="43.60413" lon="1.43437">
        <ele>136</ele>
        <time>2020-10-03T06:02:58.000Z</time>
      </trkpt>
      <trkpt lat="43.60415" lon="1.43438">
        <ele>135.65060222383</ele>
        <time>2020-10-03T06:02:59.000Z</time>
      </trkpt>
      <trkpt lat="43.60417" lon="1.43439">
        <ele>135</ele>
        <time>2020-10-03T06:03:00.000Z</time>
      </trkpt>
      <trkpt lat="43.60419" lon="1.4344">
        <ele>134.56249333333</ele>
        <time>2020-10-03T06:03:01.000Z</time>
      </trkpt>
      <trkpt lat="43.60421" lon="1.43441">
        <ele>134</ele>
        <time>2020-10-03T06:03:02.000Z</time>
      </trkpt>
      <trkpt lat="43.60424" lon="1.43442">
        <ele>134.36</ele>
        <time>2020-10-03T06:03:04.000Z</time>
      </trkpt>
      <trkpt lat="43.60426" lon="1.43443">
        <ele>135</ele>
        <time>2020-10-03T06:03:05.000Z</time>
      </trkpt>
      <trkpt lat="43.60428" lon="1.43445">
        <ele>135</ele>
        <time>2020-10-03T06:03:06.000Z</time>
      </trkpt>
      <trkpt lat="43.6043" lon="1.43445">
        <ele>135</ele>
        <time>2020-10-03T06:03:07.000Z</time>
      </trkpt>
      <trkpt lat="43.60433" lon="1.43446">
        <ele>135</ele>
        <time>2020-10-03T06:03:08.000Z</time>
      </trkpt>
      <trkpt lat="43.60435" lon="1.43448">
        <ele>135</ele>
        <time>2020-10-03T06:03:09.000Z</time>
      </trkpt>
      <trkpt lat="43.60437" lon="1.4345">
        <ele>135</ele>
        <time>2020-10-03T06:03:10.000Z</time>
      </trkpt>
      <trkpt lat="43.6044" lon="1.43451">
        <ele>135.33813102013</ele>
        <time>2020-10-03T06:03:11.000Z</time>
      </trkpt>
      <trkpt lat="43.60443" lon="1.43452">
        <ele>136</ele>
        <time>2020-10-03T06:03:12.000Z</time>
      </trkpt>
      <trkpt lat="43.60445" lon="1.43452">
        <ele>136</ele>
        <time>2020-10-03T06:03:13.000Z</time>
      </trkpt>
      <trkpt lat="43.60448" lon="1.43451">
        <ele>136</ele>
        <time>2020-10-03T06:03:14.000Z</time>
      </trkpt>
      <trkpt lat="43.6045" lon="1.43451">
        <ele>136</ele>
        <time>2020-10-03T06:03:15.000Z</time>
      </trkpt>
      <trkpt lat="43.60453" lon="1.43449">
        <ele>136</ele>
        <time>2020-10-03T06:03:16.000Z</time>
      </trkpt>
      <trkpt lat="43.60455" lon="1.43448">
        <ele>136</ele>
        <time>2020-10-03T06:03:17.000Z</time>
      </trkpt>
      <trkpt lat="43.60457" lon="1.43447">
        <ele>136</ele>
        <time>2020-10-03T06:03:18.000Z</time>
      </trkpt>
      <trkpt lat="43.60459" lon="1.43446">
        <ele>136</ele>
        <time>2020-10-03T06:03:19.000Z</time>
      </trkpt>
      <trkpt lat="43.60461" lon="1.43444">
        <ele>136</ele>
        <time>2020-10-03T06:03:20.000Z</time>
      </trkpt>
      <trkpt lat="43.60463" lon="1.43443">
        <ele>136</ele>
        <time>2020-10-03T06:03:21.000Z</time>
      </trkpt>
      <trkpt lat="43.60465" lon="1.43442">
        <ele>135.82432712932</ele>
        <time>2020-10-03T06:03:22.000Z</time>
      </trkpt>
      <trkpt lat="43.60467" lon="1.4344">
        <ele>135</ele>
        <time>2020-10-03T06:03:23.000Z</time>
      </trkpt>
      <trkpt lat="43.60469" lon="1.4344">
        <ele>135</ele>
        <time>2020-10-03T06:03:24.000Z</time>
      </trkpt>
      <trkpt lat="43.60471" lon="1.43439">
        <ele>134.5575202193</ele>
        <time>2020-10-03T06:03:25.000Z</time>
      </trkpt>
      <trkpt lat="43.60474" lon="1.43438">
        <ele>134</ele>
        <time>2020-10-03T06:03:26.000Z</time>
      </trkpt>
      <trkpt lat="43.60477" lon="1.43438">
        <ele>134</ele>
        <time>2020-10-03T06:03:27.000Z</time>
      </trkpt>
      <trkpt lat="43.60479" lon="1.43437">
        <ele>134</ele>
        <time>2020-10-03T06:03:28.000Z</time>
      </trkpt>
      <trkpt lat="43.60482" lon="1.43435">
        <ele>134</ele>
        <time>2020-10-03T06:03:29.000Z</time>
      </trkpt>
      <trkpt lat="43.60485" lon="1.43434">
        <ele>133.624992</ele>
        <time>2020-10-03T06:03:30.000Z</time>
      </trkpt>
      <trkpt lat="43.60487" lon="1.43432">
        <ele>133</ele>
        <time>2020-10-03T06:03:31.000Z</time>
      </trkpt>
      <trkpt lat="43.60489" lon="1.43431">
        <ele>133</ele>
        <time>2020-10-03T06:03:32.000Z</time>
      </trkpt>
      <trkpt lat="43.60492" lon="1.43429">
        <ele>133</ele>
        <time>2020-10-03T06:03:33.000Z</time>
      </trkpt>
      <trkpt lat="43.60495" lon="1.43428">
        <ele>133</ele>
        <time>2020-10-03T06:03:34.000Z</time>
      </trkpt>
      <trkpt lat="43.60497" lon="1.43427">
        <ele>133</ele>
        <time>2020-10-03T06:03:35.000Z</time>
      </trkpt>
      <trkpt lat="43.605" lon="1.43425">
        <ele>133.78845538461</ele>
        <time>2020-10-03T06:03:36.000Z</time>
      </trkpt>
      <trkpt lat="43.60502" lon="1.43423">
        <ele>135</ele>
        <time>2020-10-03T06:03:37.000Z</time>
      </trkpt>
      <trkpt lat="43.60504" lon="1.43421">
        <ele>135</ele>
        <time>2020-10-03T06:03:38.000Z</time>
      </trkpt>
      <trkpt lat="43.60506" lon="1.43418">
        <ele>135</ele>
        <time>2020-10-03T06:03:39.000Z</time>
      </trkpt>
      <trkpt lat="43.60508" lon="1.43417">
        <ele>135</ele>
        <time>2020-10-03T06:03:40.000Z</time>
      </trkpt>
      <trkpt lat="43.6051" lon="1.43415">
        <ele>135</ele>
        <time>2020-10-03T06:03:41.000Z</time>
      </trkpt>
      <trkpt lat="43.60512" lon="1.43413">
        <ele>135</ele>
        <time>2020-10-03T06:03:42.000Z</time>
      </trkpt>
      <trkpt lat="43.60514" lon="1.4341">
        <ele>135</ele>
        <time>2020-10-03T06:03:43.000Z</time>
      </trkpt>
      <trkpt lat="43.60515" lon="1.43408">
        <ele>135</ele>
        <time>2020-10-03T06:03:44.000Z</time>
      </trkpt>
      <trkpt lat="43.60517" lon="1.43407">
        <ele>135</ele>
        <time>2020-10-03T06:03:45.000Z</time>
      </trkpt>
      <trkpt lat="43.60519" lon="1.43405">
        <ele>135</ele>
        <time>2020-10-03T06:03:46.000Z</time>
      </trkpt>
      <trkpt lat="43.6052" lon="1.43403">
        <ele>135</ele>
        <time>2020-10-03T06:03:47.000Z</time>
      </trkpt>
      <trkpt lat="43.60521" lon="1.434">
        <ele>135</ele>
        <time>2020-10-03T06:03:48.000Z</time>
      </trkpt>
      <trkpt lat="43.60523" lon="1.43398">
        <ele>135</ele>
        <time>2020-10-03T06:03:49.000Z</time>
      </trkpt>
      <trkpt lat="43.60524" lon="1.43394">
        <ele>135</ele>
        <time>2020-10-03T06:03:50.000Z</time>
      </trkpt>
      <trkpt lat="43.60525" lon="1.43391">
        <ele>135</ele>
        <time>2020-10-03T06:03:51.000Z</time>
      </trkpt>
      <trkpt lat="43.60526" lon="1.43388">
        <ele>135</ele>
        <time>2020-10-03T06:03:52.000Z</time>
      </trkpt>
      <trkpt lat="43.60528" lon="1.43385">
        <ele>135.43518814815</ele>
        <time>2020-10-03T06:03:53.000Z</time>
      </trkpt>
      <trkpt lat="43.60529" lon="1.43382">
        <ele>136</ele>
        <time>2020-10-03T06:03:54.000Z</time>
      </trkpt>
      <trkpt lat="43.6053" lon="1.43378">
        <ele>136</ele>
        <time>2020-10-03T06:03:55.000Z</time>
      </trkpt>
      <trkpt lat="43.60532" lon="1.43374">
        <ele>136</ele>
        <time>2020-10-03T06:03:56.000Z</time>
      </trkpt>
      <trkpt lat="43.60533" lon="1.4337">
        <ele>136</ele>
        <time>2020-10-03T06:03:57.000Z</time>
      </trkpt>
      <trkpt lat="43.60534" lon="1.43366">
        <ele>136</ele>
        <time>2020-10-03T06:03:58.000Z</time>
      </trkpt>
      <trkpt lat="43.60536" lon="1.43362">
        <ele>136</ele>
        <time>2020-10-03T06:03:59.000Z</time>
      </trkpt>
      <trkpt lat="43.60537" lon="1.43358">
        <ele>136</ele>
        <time>2020-10-03T06:04:00.000Z</time>
      </trkpt>
      <trkpt lat="43.60538" lon="1.43355">
        <ele>136</ele>
        <time>2020-10-03T06:04:01.000Z</time>
      </trkpt>
      <trkpt lat="43.60539" lon="1.43351">
        <ele>135.62832319525</ele>
        <time>2020-10-03T06:04:02.000Z</time>
      </trkpt>
      <trkpt lat="43.6054" lon="1.43347">
        <ele>135</ele>
        <time>2020-10-03T06:04:03.000Z</time>
      </trkpt>
      <trkpt lat="43.60541" lon="1.43343">
        <ele>135</ele>
        <time>2020-10-03T06:04:04.000Z</time>
      </trkpt>
      <trkpt lat="43.60544" lon="1.43329">
        <ele>135</ele>
        <time>2020-10-03T06:04:07.000Z</time>
      </trkpt>
      <trkpt lat="43.60545" lon="1.43322">
        <ele>135</ele>
        <time>2020-10-03T06:04:09.000Z</time>
      </trkpt>
      <trkpt lat="43.60545" lon="1.43319">
        <ele>135</ele>
        <time>2020-10-03T06:04:10.000Z</time>
      </trkpt>
      <trkpt lat="43.6055" lon="1.43311">
        <ele>135</ele>
        <time>2020-10-03T06:04:14.000Z</time>
      </trkpt>
      <trkpt lat="43.60551" lon="1.43309">
        <ele>135</ele>
        <time>2020-10-03T06:04:15.000Z</time>
      </trkpt>
      <trkpt lat="43.60553" lon="1.43307">
        <ele>135</ele>
        <time>2020-10-03T06:04:16.000Z</time>
      </trkpt>
      <trkpt lat="43.60554" lon="1.43304">
        <ele>134.81632119953</ele>
        <time>2020-10-03T06:04:17.000Z</time>
      </trkpt>
      <trkpt lat="43.60555" lon="1.43301">
        <ele>134</ele>
        <time>2020-10-03T06:04:18.000Z</time>
      </trkpt>
      <trkpt lat="43.60555" lon="1.43298">
        <ele>134</ele>
        <time>2020-10-03T06:04:19.000Z</time>
      </trkpt>
      <trkpt lat="43.60556" lon="1.43295">
        <ele>134</ele>
        <time>2020-10-03T06:04:20.000Z</time>
      </trkpt>
      <trkpt lat="43.60557" lon="1.43292">
        <ele>134</ele>
        <time>2020-10-03T06:04:21.000Z</time>
      </trkpt>
      <trkpt lat="43.60559" lon="1.43289">
        <ele>134</ele>
        <time>2020-10-03T06:04:22.000Z</time>
      </trkpt>
      <trkpt lat="43.6056" lon="1.43286">
        <ele>134</ele>
        <time>2020-10-03T06:04:23.000Z</time>
      </trkpt>
      <trkpt lat="43.60561" lon="1.43283">
        <ele>134</ele>
        <time>2020-10-03T06:04:24.000Z</time>
      </trkpt>
      <trkpt lat="43.60562" lon="1.4328">
        <ele>133.56818909091</ele>
        <time>2020-10-03T06:04:25.000Z</time>
      </trkpt>
      <trkpt lat="43.60564" lon="1.43277">
        <ele>133</ele>
        <time>2020-10-03T06:04:26.000Z</time>
      </trkpt>
      <trkpt lat="43.60565" lon="1.43274">
        <ele>133</ele>
        <time>2020-10-03T06:04:27.000Z</time>
      </trkpt>
      <trkpt lat="43.60566" lon="1.43271">
        <ele>133</ele>
        <time>2020-10-03T06:04:28.000Z</time>
      </trkpt>
      <trkpt lat="43.60567" lon="1.43268">
        <ele>133</ele>
        <time>2020-10-03T06:04:29.000Z</time>
      </trkpt>
      <trkpt lat="43.60568" lon="1.43265">
        <ele>133</ele>
        <time>2020-10-03T06:04:30.000Z</time>
      </trkpt>
      <trkpt lat="43.60569" lon="1.43262">
        <ele>133</ele>
        <time>2020-10-03T06:04:31.000Z</time>
      </trkpt>
      <trkpt lat="43.6057" lon="1.4326">
        <ele>133</ele>
        <time>2020-10-03T06:04:32.000Z</time>
      </trkpt>
      <trkpt lat="43.60571" lon="1.43256">
        <ele>133</ele>
        <time>2020-10-03T06:04:33.000Z</time>
      </trkpt>
      <trkpt lat="43.60572" lon="1.43253">
        <ele>133</ele>
        <time>2020-10-03T06:04:34.000Z</time>
      </trkpt>
      <trkpt lat="43.60573" lon="1.4325">
        <ele>133</ele>
        <time>2020-10-03T06:04:35.000Z</time>
      </trkpt>
      <trkpt lat="43.60574" lon="1.43246">
        <ele>133</ele>
        <time>2020-10-03T06:04:36.000Z</time>
      </trkpt>
      <trkpt lat="43.60575" lon="1.43242">
        <ele>133</ele>
        <time>2020-10-03T06:04:37.000Z</time>
      </trkpt>
      <trkpt lat="43.60576" lon="1.43237">
        <ele>133</ele>
        <time>2020-10-03T06:04:38.000Z</time>
      </trkpt>
      <trkpt lat="43.60577" lon="1.43234">
        <ele>133</ele>
        <time>2020-10-03T06:04:39.000Z</time>
      </trkpt>
      <trkpt lat="43.60578" lon="1.43232">
        <ele>133</ele>
        <time>2020-10-03T06:04:40.000Z</time>
      </trkpt>
      <trkpt lat="43.60579" lon="1.43229">
        <ele>133</ele>
        <time>2020-10-03T06:04:41.000Z</time>
      </trkpt>
      <trkpt lat="43.6058" lon="1.43225">
        <ele>133</ele>
        <time>2020-10-03T06:04:42.000Z</time>
      </trkpt>
      <trkpt lat="43.6058" lon="1.43222">
        <ele>133</ele>
        <time>2020-10-03T06:04:43.000Z</time>
      </trkpt>
      <trkpt lat="43.60581" lon="1.43219">
        <ele>133.37037388199</ele>
        <time>2020-10-03T06:04:44.000Z</time>
      </trkpt>
      <trkpt lat="43.60582" lon="1.43216">
        <ele>134</ele>
        <time>2020-10-03T06:04:45.000Z</time>
      </trkpt>
      <trkpt lat="43.60583" lon="1.43212">
        <ele>134</ele>
        <time>2020-10-03T06:04:46.000Z</time>
      </trkpt>
      <trkpt lat="43.60584" lon="1.43208">
        <ele>134</ele>
        <time>2020-10-03T06:04:47.000Z</time>
      </trkpt>
      <trkpt lat="43.60585" lon="1.43204">
        <ele>134</ele>
        <time>2020-10-03T06:04:48.000Z</time>
      </trkpt>
      <trkpt lat="43.60586" lon="1.43201">
        <ele>134</ele>
        <time>2020-10-03T06:04:49.000Z</time>
      </trkpt>
      <trkpt lat="43.60587" lon="1.43198">
        <ele>134</ele>
        <time>2020-10-03T06:04:50.000Z</time>
      </trkpt>
      <trkpt lat="43.60588" lon="1.43195">
        <ele>134</ele>
        <time>2020-10-03T06:04:51.000Z</time>
      </trkpt>
      <trkpt lat="43.60589" lon="1.43191">
        <ele>133.63636575205</ele>
        <time>2020-10-03T06:04:52.000Z</time>
      </trkpt>
      <trkpt lat="43.6059" lon="1.43188">
        <ele>133</ele>
        <time>2020-10-03T06:04:53.000Z</time>
      </trkpt>
      <trkpt lat="43.60592" lon="1.43184">
        <ele>133</ele>
        <time>2020-10-03T06:04:54.000Z</time>
      </trkpt>
      <trkpt lat="43.60593" lon="1.43182">
        <ele>133</ele>
        <time>2020-10-03T06:04:55.000Z</time>
      </trkpt>
      <trkpt lat="43.60594" lon="1.43178">
        <ele>133</ele>
        <time>2020-10-03T06:04:56.000Z</time>
      </trkpt>
      <trkpt lat="43.60595" lon="1.43173">
        <ele>133</ele>
        <time>2020-10-03T06:04:57.000Z</time>
      </trkpt>
      <trkpt lat="43.60596" lon="1.4317">
        <ele>133</ele>
        <time>2020-10-03T06:04:58.000Z</time>
      </trkpt>
      <trkpt lat="43.60597" lon="1.43167">
        <ele>133.40000243807</ele>
        <time>2020-10-03T06:04:59.000Z</time>
      </trkpt>
      <trkpt lat="43.60598" lon="1.43164">
        <ele>134</ele>
        <time>2020-10-03T06:05:00.000Z</time>
      </trkpt>
      <trkpt lat="43.606" lon="1.43161">
        <ele>134.43749714286</ele>
        <time>2020-10-03T06:05:01.000Z</time>
      </trkpt>
      <trkpt lat="43.60602" lon="1.43158">
        <ele>135</ele>
        <time>2020-10-03T06:05:02.000Z</time>
      </trkpt>
      <trkpt lat="43.60603" lon="1.43155">
        <ele>135</ele>
        <time>2020-10-03T06:05:03.000Z</time>
      </trkpt>
      <trkpt lat="43.60604" lon="1.43152">
        <ele>135</ele>
        <time>2020-10-03T06:05:04.000Z</time>
      </trkpt>
      <trkpt lat="43.60605" lon="1.43148">
        <ele>135</ele>
        <time>2020-10-03T06:05:05.000Z</time>
      </trkpt>
      <trkpt lat="43.60606" lon="1.43145">
        <ele>135</ele>
        <time>2020-10-03T06:05:06.000Z</time>
      </trkpt>
      <trkpt lat="43.60608" lon="1.43142">
        <ele>135</ele>
        <time>2020-10-03T06:05:07.000Z</time>
      </trkpt>
      <trkpt lat="43.60609" lon="1.43139">
        <ele>135</ele>
        <time>2020-10-03T06:05:08.000Z</time>
      </trkpt>
      <trkpt lat="43.6061" lon="1.43136">
        <ele>135</ele>
        <time>2020-10-03T06:05:09.000Z</time>
      </trkpt>
      <trkpt lat="43.60611" lon="1.43133">
        <ele>135</ele>
        <time>2020-10-03T06:05:10.000Z</time>
      </trkpt>
      <trkpt lat="43.60612" lon="1.4313">
        <ele>135</ele>
        <time>2020-10-03T06:05:11.000Z</time>
      </trkpt>
      <trkpt lat="43.60614" lon="1.43128">
        <ele>134.66363731571</ele>
        <time>2020-10-03T06:05:12.000Z</time>
      </trkpt>
      <trkpt lat="43.60615" lon="1.43125">
        <ele>134</ele>
        <time>2020-10-03T06:05:13.000Z</time>
      </trkpt>
      <trkpt lat="43.60619" lon="1.43114">
        <ele>133.83117228539</ele>
        <time>2020-10-03T06:05:16.000Z</time>
      </trkpt>
      <trkpt lat="43.60624" lon="1.43102">
        <ele>133</ele>
        <time>2020-10-03T06:05:19.000Z</time>
      </trkpt>
      <trkpt lat="43.60625" lon="1.43099">
        <ele>133</ele>
        <time>2020-10-03T06:05:20.000Z</time>
      </trkpt>
      <trkpt lat="43.60625" lon="1.43096">
        <ele>133.45454862808</ele>
        <time>2020-10-03T06:05:21.000Z</time>
      </trkpt>
      <trkpt lat="43.6063" lon="1.43083">
        <ele>134</ele>
        <time>2020-10-03T06:05:25.000Z</time>
      </trkpt>
      <trkpt lat="43.60634" lon="1.43072">
        <ele>134</ele>
        <time>2020-10-03T06:05:28.000Z</time>
      </trkpt>
      <trkpt lat="43.60638" lon="1.43058">
        <ele>133.56817454546</ele>
        <time>2020-10-03T06:05:32.000Z</time>
      </trkpt>
      <trkpt lat="43.6064" lon="1.43054">
        <ele>133</ele>
        <time>2020-10-03T06:05:33.000Z</time>
      </trkpt>
      <trkpt lat="43.60641" lon="1.4305">
        <ele>133</ele>
        <time>2020-10-03T06:05:34.000Z</time>
      </trkpt>
      <trkpt lat="43.60642" lon="1.43047">
        <ele>133</ele>
        <time>2020-10-03T06:05:35.000Z</time>
      </trkpt>
      <trkpt lat="43.60642" lon="1.43044">
        <ele>132</ele>
        <time>2020-10-03T06:05:38.000Z</time>
      </trkpt>
      <trkpt lat="43.60643" lon="1.43028">
        <ele>132</ele>
        <time>2020-10-03T06:05:43.000Z</time>
      </trkpt>
      <trkpt lat="43.6065" lon="1.43019">
        <ele>132</ele>
        <time>2020-10-03T06:05:46.000Z</time>
      </trkpt>
      <trkpt lat="43.60657" lon="1.43009">
        <ele>133</ele>
        <time>2020-10-03T06:05:50.000Z</time>
      </trkpt>
      <trkpt lat="43.60661" lon="1.43002">
        <ele>134</ele>
        <time>2020-10-03T06:05:52.000Z</time>
      </trkpt>
      <trkpt lat="43.60662" lon="1.42998">
        <ele>134</ele>
        <time>2020-10-03T06:05:53.000Z</time>
      </trkpt>
      <trkpt lat="43.60664" lon="1.42995">
        <ele>134</ele>
        <time>2020-10-03T06:05:54.000Z</time>
      </trkpt>
      <trkpt lat="43.60665" lon="1.42992">
        <ele>134</ele>
        <time>2020-10-03T06:05:55.000Z</time>
      </trkpt>
      <trkpt lat="43.60669" lon="1.4298">
        <ele>134</ele>
        <time>2020-10-03T06:05:59.000Z</time>
      </trkpt>
      <trkpt lat="43.60673" lon="1.42967">
        <ele>135</ele>
        <time>2020-10-03T06:06:03.000Z</time>
      </trkpt>
      <trkpt lat="43.60674" lon="1.42963">
        <ele>135</ele>
        <time>2020-10-03T06:06:05.000Z</time>
      </trkpt>
      <trkpt lat="43.60675" lon="1.42961">
        <ele>135</ele>
        <time>2020-10-03T06:06:06.000Z</time>
      </trkpt>
      <trkpt lat="43.60676" lon="1.42958">
        <ele>135</ele>
        <time>2020-10-03T06:06:07.000Z</time>
      </trkpt>
      <trkpt lat="43.60678" lon="1.42954">
        <ele>135</ele>
        <time>2020-10-03T06:06:09.000Z</time>
      </trkpt>
      <trkpt lat="43.60679" lon="1.42951">
        <ele>135</ele>
        <time>2020-10-03T06:06:10.000Z</time>
      </trkpt>
      <trkpt lat="43.6068" lon="1.42947">
        <ele>135</ele>
        <time>2020-10-03T06:06:11.000Z</time>
      </trkpt>
      <trkpt lat="43.60682" lon="1.42944">
        <ele>135</ele>
        <time>2020-10-03T06:06:12.000Z</time>
      </trkpt>
      <trkpt lat="43.60683" lon="1.4294">
        <ele>135</ele>
        <time>2020-10-03T06:06:13.000Z</time>
      </trkpt>
      <trkpt lat="43.60684" lon="1.42937">
        <ele>135</ele>
        <time>2020-10-03T06:06:14.000Z</time>
      </trkpt>
      <trkpt lat="43.60685" lon="1.42933">
        <ele>135</ele>
        <time>2020-10-03T06:06:15.000Z</time>
      </trkpt>
      <trkpt lat="43.60686" lon="1.4293">
        <ele>135</ele>
        <time>2020-10-03T06:06:16.000Z</time>
      </trkpt>
      <trkpt lat="43.60687" lon="1.42928">
        <ele>135</ele>
        <time>2020-10-03T06:06:17.000Z</time>
      </trkpt>
      <trkpt lat="43.60688" lon="1.42925">
        <ele>135</ele>
        <time>2020-10-03T06:06:18.000Z</time>
      </trkpt>
      <trkpt lat="43.60689" lon="1.42922">
        <ele>135</ele>
        <time>2020-10-03T06:06:19.000Z</time>
      </trkpt>
      <trkpt lat="43.6069" lon="1.42919">
        <ele>135</ele>
        <time>2020-10-03T06:06:20.000Z</time>
      </trkpt>
      <trkpt lat="43.60691" lon="1.42917">
        <ele>135</ele>
        <time>2020-10-03T06:06:21.000Z</time>
      </trkpt>
      <trkpt lat="43.60692" lon="1.42915">
        <ele>135</ele>
        <time>2020-10-03T06:06:22.000Z</time>
      </trkpt>
      <trkpt lat="43.60694" lon="1.42912">
        <ele>135</ele>
        <time>2020-10-03T06:06:23.000Z</time>
      </trkpt>
      <trkpt lat="43.60695" lon="1.42909">
        <ele>135</ele>
        <time>2020-10-03T06:06:24.000Z</time>
      </trkpt>
      <trkpt lat="43.60696" lon="1.42906">
        <ele>135</ele>
        <time>2020-10-03T06:06:25.000Z</time>
      </trkpt>
      <trkpt lat="43.60698" lon="1.42903">
        <ele>135</ele>
        <time>2020-10-03T06:06:26.000Z</time>
      </trkpt>
      <trkpt lat="43.60699" lon="1.429">
        <ele>135</ele>
        <time>2020-10-03T06:06:27.000Z</time>
      </trkpt>
      <trkpt lat="43.607" lon="1.42897">
        <ele>135</ele>
        <time>2020-10-03T06:06:28.000Z</time>
      </trkpt>
      <trkpt lat="43.60701" lon="1.42894">
        <ele>135</ele>
        <time>2020-10-03T06:06:29.000Z</time>
      </trkpt>
      <trkpt lat="43.60703" lon="1.4289">
        <ele>135</ele>
        <time>2020-10-03T06:06:30.000Z</time>
      </trkpt>
      <trkpt lat="43.60704" lon="1.42887">
        <ele>135</ele>
        <time>2020-10-03T06:06:31.000Z</time>
      </trkpt>
      <trkpt lat="43.60706" lon="1.42883">
        <ele>134.76316232694</ele>
        <time>2020-10-03T06:06:32.000Z</time>
      </trkpt>
      <trkpt lat="43.60707" lon="1.42879">
        <ele>134</ele>
        <time>2020-10-03T06:06:33.000Z</time>
      </trkpt>
      <trkpt lat="43.60709" lon="1.42875">
        <ele>134</ele>
        <time>2020-10-03T06:06:34.000Z</time>
      </trkpt>
      <trkpt lat="43.60711" lon="1.42871">
        <ele>134</ele>
        <time>2020-10-03T06:06:35.000Z</time>
      </trkpt>
      <trkpt lat="43.60713" lon="1.42867">
        <ele>134.42424007344</ele>
        <time>2020-10-03T06:06:36.000Z</time>
      </trkpt>
      <trkpt lat="43.60715" lon="1.42863">
        <ele>135</ele>
        <time>2020-10-03T06:06:37.000Z</time>
      </trkpt>
      <trkpt lat="43.60716" lon="1.4286">
        <ele>135</ele>
        <time>2020-10-03T06:06:38.000Z</time>
      </trkpt>
      <trkpt lat="43.60716" lon="1.42856">
        <ele>135</ele>
        <time>2020-10-03T06:06:39.000Z</time>
      </trkpt>
      <trkpt lat="43.60716" lon="1.42852">
        <ele>134.55555555556</ele>
        <time>2020-10-03T06:06:40.000Z</time>
      </trkpt>
      <trkpt lat="43.60716" lon="1.42848">
        <ele>134</ele>
        <time>2020-10-03T06:06:41.000Z</time>
      </trkpt>
      <trkpt lat="43.60717" lon="1.42844">
        <ele>134</ele>
        <time>2020-10-03T06:06:42.000Z</time>
      </trkpt>
      <trkpt lat="43.60717" lon="1.42841">
        <ele>133.57142656202</ele>
        <time>2020-10-03T06:06:43.000Z</time>
      </trkpt>
      <trkpt lat="43.60718" lon="1.42838">
        <ele>133</ele>
        <time>2020-10-03T06:06:44.000Z</time>
      </trkpt>
      <trkpt lat="43.60723" lon="1.42812">
        <ele>134</ele>
        <time>2020-10-03T06:06:52.000Z</time>
      </trkpt>
      <trkpt lat="43.60726" lon="1.42796">
        <ele>134</ele>
        <time>2020-10-03T06:06:53.000Z</time>
      </trkpt>
      <trkpt lat="43.60736" lon="1.4279">
        <ele>133</ele>
        <time>2020-10-03T06:06:57.000Z</time>
      </trkpt>
      <trkpt lat="43.60741" lon="1.42784">
        <ele>134</ele>
        <time>2020-10-03T06:07:00.000Z</time>
      </trkpt>
      <trkpt lat="43.60744" lon="1.42782">
        <ele>134</ele>
        <time>2020-10-03T06:07:02.000Z</time>
      </trkpt>
      <trkpt lat="43.60745" lon="1.42778">
        <ele>134.15116019468</ele>
        <time>2020-10-03T06:07:03.000Z</time>
      </trkpt>
      <trkpt lat="43.60747" lon="1.42776">
        <ele>135</ele>
        <time>2020-10-03T06:07:04.000Z</time>
      </trkpt>
      <trkpt lat="43.60748" lon="1.42773">
        <ele>135</ele>
        <time>2020-10-03T06:07:05.000Z</time>
      </trkpt>
      <trkpt lat="43.60749" lon="1.4277">
        <ele>135</ele>
        <time>2020-10-03T06:07:06.000Z</time>
      </trkpt>
      <trkpt lat="43.6075" lon="1.42768">
        <ele>135</ele>
        <time>2020-10-03T06:07:07.000Z</time>
      </trkpt>
      <trkpt lat="43.60752" lon="1.42765">
        <ele>135</ele>
        <time>2020-10-03T06:07:08.000Z</time>
      </trkpt>
      <trkpt lat="43.60753" lon="1.42763">
        <ele>135.26666603457</ele>
        <time>2020-10-03T06:07:09.000Z</time>
      </trkpt>
      <trkpt lat="43.60753" lon="1.4276">
        <ele>136</ele>
        <time>2020-10-03T06:07:10.000Z</time>
      </trkpt>
      <trkpt lat="43.60754" lon="1.42757">
        <ele>136</ele>
        <time>2020-10-03T06:07:11.000Z</time>
      </trkpt>
      <trkpt lat="43.60755" lon="1.42755">
        <ele>136</ele>
        <time>2020-10-03T06:07:12.000Z</time>
      </trkpt>
      <trkpt lat="43.60757" lon="1.42751">
        <ele>136</ele>
        <time>2020-10-03T06:07:13.000Z</time>
      </trkpt>
      <trkpt lat="43.60758" lon="1.42748">
        <ele>136</ele>
        <time>2020-10-03T06:07:14.000Z</time>
      </trkpt>
      <trkpt lat="43.60759" lon="1.42744">
        <ele>136</ele>
        <time>2020-10-03T06:07:16.000Z</time>
      </trkpt>
      <trkpt lat="43.60759" lon="1.42741">
        <ele>136</ele>
        <time>2020-10-03T06:07:17.000Z</time>
      </trkpt>
      <trkpt lat="43.6076" lon="1.42738">
        <ele>136</ele>
        <time>2020-10-03T06:07:18.000Z</time>
      </trkpt>
      <trkpt lat="43.60761" lon="1.42735">
        <ele>136</ele>
        <time>2020-10-03T06:07:19.000Z</time>
      </trkpt>
      <trkpt lat="43.60762" lon="1.42732">
        <ele>136</ele>
        <time>2020-10-03T06:07:20.000Z</time>
      </trkpt>
      <trkpt lat="43.60763" lon="1.42729">
        <ele>136</ele>
        <time>2020-10-03T06:07:21.000Z</time>
      </trkpt>
      <trkpt lat="43.60764" lon="1.42726">
        <ele>136</ele>
        <time>2020-10-03T06:07:22.000Z</time>
      </trkpt>
      <trkpt lat="43.60765" lon="1.42723">
        <ele>136</ele>
        <time>2020-10-03T06:07:23.000Z</time>
      </trkpt>
      <trkpt lat="43.60767" lon="1.4272">
        <ele>136</ele>
        <time>2020-10-03T06:07:24.000Z</time>
      </trkpt>
      <trkpt lat="43.60768" lon="1.42717">
        <ele>136</ele>
        <time>2020-10-03T06:07:25.000Z</time>
      </trkpt>
      <trkpt lat="43.60769" lon="1.42713">
        <ele>136</ele>
        <time>2020-10-03T06:07:26.000Z</time>
      </trkpt>
      <trkpt lat="43.6077" lon="1.4271">
        <ele>136</ele>
        <time>2020-10-03T06:07:27.000Z</time>
      </trkpt>
      <trkpt lat="43.60771" lon="1.42707">
        <ele>136</ele>
        <time>2020-10-03T06:07:28.000Z</time>
      </trkpt>
      <trkpt lat="43.60773" lon="1.427">
        <ele>135.54255290177</ele>
        <time>2020-10-03T06:07:30.000Z</time>
      </trkpt>
      <trkpt lat="43.60773" lon="1.42696">
        <ele>135</ele>
        <time>2020-10-03T06:07:31.000Z</time>
      </trkpt>
      <trkpt lat="43.60774" lon="1.42693">
        <ele>135</ele>
        <time>2020-10-03T06:07:32.000Z</time>
      </trkpt>
      <trkpt lat="43.60774" lon="1.4269">
        <ele>135</ele>
        <time>2020-10-03T06:07:33.000Z</time>
      </trkpt>
      <trkpt lat="43.60774" lon="1.42687">
        <ele>134.56817454546</ele>
        <time>2020-10-03T06:07:34.000Z</time>
      </trkpt>
      <trkpt lat="43.60775" lon="1.42684">
        <ele>134</ele>
        <time>2020-10-03T06:07:35.000Z</time>
      </trkpt>
      <trkpt lat="43.60776" lon="1.42682">
        <ele>134</ele>
        <time>2020-10-03T06:07:36.000Z</time>
      </trkpt>
      <trkpt lat="43.60777" lon="1.42679">
        <ele>134</ele>
        <time>2020-10-03T06:07:37.000Z</time>
      </trkpt>
      <trkpt lat="43.60778" lon="1.42676">
        <ele>134</ele>
        <time>2020-10-03T06:07:38.000Z</time>
      </trkpt>
      <trkpt lat="43.60779" lon="1.42674">
        <ele>134</ele>
        <time>2020-10-03T06:07:39.000Z</time>
      </trkpt>
      <trkpt lat="43.6078" lon="1.42671">
        <ele>134</ele>
        <time>2020-10-03T06:07:40.000Z</time>
      </trkpt>
      <trkpt lat="43.60781" lon="1.42668">
        <ele>134</ele>
        <time>2020-10-03T06:07:41.000Z</time>
      </trkpt>
      <trkpt lat="43.60782" lon="1.42665">
        <ele>134</ele>
        <time>2020-10-03T06:07:42.000Z</time>
      </trkpt>
      <trkpt lat="43.60784" lon="1.42662">
        <ele>134</ele>
        <time>2020-10-03T06:07:43.000Z</time>
      </trkpt>
      <trkpt lat="43.60786" lon="1.42659">
        <ele>134</ele>
        <time>2020-10-03T06:07:44.000Z</time>
      </trkpt>
      <trkpt lat="43.60787" lon="1.42656">
        <ele>134</ele>
        <time>2020-10-03T06:07:45.000Z</time>
      </trkpt>
      <trkpt lat="43.60788" lon="1.42652">
        <ele>134</ele>
        <time>2020-10-03T06:07:46.000Z</time>
      </trkpt>
      <trkpt lat="43.60789" lon="1.42649">
        <ele>134</ele>
        <time>2020-10-03T06:07:47.000Z</time>
      </trkpt>
      <trkpt lat="43.6079" lon="1.42645">
        <ele>134</ele>
        <time>2020-10-03T06:07:48.000Z</time>
      </trkpt>
      <trkpt lat="43.60791" lon="1.42642">
        <ele>134</ele>
        <time>2020-10-03T06:07:49.000Z</time>
      </trkpt>
      <trkpt lat="43.60793" lon="1.42639">
        <ele>134</ele>
        <time>2020-10-03T06:07:50.000Z</time>
      </trkpt>
      <trkpt lat="43.60794" lon="1.42635">
        <ele>134</ele>
        <time>2020-10-03T06:07:51.000Z</time>
      </trkpt>
      <trkpt lat="43.60795" lon="1.42631">
        <ele>134</ele>
        <time>2020-10-03T06:07:52.000Z</time>
      </trkpt>
      <trkpt lat="43.60796" lon="1.42627">
        <ele>134</ele>
        <time>2020-10-03T06:07:53.000Z</time>
      </trkpt>
      <trkpt lat="43.60797" lon="1.42624">
        <ele>134</ele>
        <time>2020-10-03T06:07:54.000Z</time>
      </trkpt>
      <trkpt lat="43.60798" lon="1.42621">
        <ele>134</ele>
        <time>2020-10-03T06:07:55.000Z</time>
      </trkpt>
      <trkpt lat="43.60799" lon="1.42617">
        <ele>134</ele>
        <time>2020-10-03T06:07:56.000Z</time>
      </trkpt>
      <trkpt lat="43.60801" lon="1.42613">
        <ele>134</ele>
        <time>2020-10-03T06:07:57.000Z</time>
      </trkpt>
      <trkpt lat="43.60802" lon="1.4261">
        <ele>134</ele>
        <time>2020-10-03T06:07:58.000Z</time>
      </trkpt>
      <trkpt lat="43.60804" lon="1.42608">
        <ele>134</ele>
        <time>2020-10-03T06:07:59.000Z</time>
      </trkpt>
      <trkpt lat="43.60805" lon="1.42606">
        <ele>134</ele>
        <time>2020-10-03T06:08:00.000Z</time>
      </trkpt>
      <trkpt lat="43.60807" lon="1.42601">
        <ele>134.30630318965</ele>
        <time>2020-10-03T06:08:02.000Z</time>
      </trkpt>
      <trkpt lat="43.60809" lon="1.42598">
        <ele>135</ele>
        <time>2020-10-03T06:08:03.000Z</time>
      </trkpt>
      <trkpt lat="43.6081" lon="1.42595">
        <ele>135</ele>
        <time>2020-10-03T06:08:04.000Z</time>
      </trkpt>
      <trkpt lat="43.60811" lon="1.42592">
        <ele>135</ele>
        <time>2020-10-03T06:08:05.000Z</time>
      </trkpt>
      <trkpt lat="43.60813" lon="1.42588">
        <ele>135</ele>
        <time>2020-10-03T06:08:06.000Z</time>
      </trkpt>
      <trkpt lat="43.60814" lon="1.42585">
        <ele>135</ele>
        <time>2020-10-03T06:08:07.000Z</time>
      </trkpt>
      <trkpt lat="43.60815" lon="1.42582">
        <ele>135</ele>
        <time>2020-10-03T06:08:08.000Z</time>
      </trkpt>
      <trkpt lat="43.60816" lon="1.4258">
        <ele>135</ele>
        <time>2020-10-03T06:08:09.000Z</time>
      </trkpt>
      <trkpt lat="43.60817" lon="1.42577">
        <ele>135</ele>
        <time>2020-10-03T06:08:10.000Z</time>
      </trkpt>
      <trkpt lat="43.60818" lon="1.42574">
        <ele>135</ele>
        <time>2020-10-03T06:08:11.000Z</time>
      </trkpt>
      <trkpt lat="43.60819" lon="1.42571">
        <ele>135</ele>
        <time>2020-10-03T06:08:12.000Z</time>
      </trkpt>
      <trkpt lat="43.6082" lon="1.42568">
        <ele>135</ele>
        <time>2020-10-03T06:08:13.000Z</time>
      </trkpt>
      <trkpt lat="43.60821" lon="1.42565">
        <ele>134.69892369522</ele>
        <time>2020-10-03T06:08:14.000Z</time>
      </trkpt>
      <trkpt lat="43.60821" lon="1.42562">
        <ele>134</ele>
        <time>2020-10-03T06:08:15.000Z</time>
      </trkpt>
      <trkpt lat="43.60822" lon="1.42559">
        <ele>134</ele>
        <time>2020-10-03T06:08:16.000Z</time>
      </trkpt>
      <trkpt lat="43.60823" lon="1.42557">
        <ele>134.6545416463</ele>
        <time>2020-10-03T06:08:17.000Z</time>
      </trkpt>
      <trkpt lat="43.60824" lon="1.42553">
        <ele>136</ele>
        <time>2020-10-03T06:08:19.000Z</time>
      </trkpt>
      <trkpt lat="43.60824" lon="1.4255">
        <ele>135.69047909301</ele>
        <time>2020-10-03T06:08:20.000Z</time>
      </trkpt>
      <trkpt lat="43.60827" lon="1.42536">
        <ele>135</ele>
        <time>2020-10-03T06:08:23.000Z</time>
      </trkpt>
      <trkpt lat="43.60831" lon="1.42524">
        <ele>134</ele>
        <time>2020-10-03T06:08:26.000Z</time>
      </trkpt>
      <trkpt lat="43.60835" lon="1.42518">
        <ele>134</ele>
        <time>2020-10-03T06:08:29.000Z</time>
      </trkpt>
      <trkpt lat="43.60837" lon="1.42515">
        <ele>134</ele>
        <time>2020-10-03T06:08:30.000Z</time>
      </trkpt>
      <trkpt lat="43.60839" lon="1.42511">
        <ele>134</ele>
        <time>2020-10-03T06:08:31.000Z</time>
      </trkpt>
      <trkpt lat="43.6084" lon="1.42507">
        <ele>134</ele>
        <time>2020-10-03T06:08:32.000Z</time>
      </trkpt>
      <trkpt lat="43.60841" lon="1.42504">
        <ele>134</ele>
        <time>2020-10-03T06:08:33.000Z</time>
      </trkpt>
      <trkpt lat="43.60841" lon="1.42501">
        <ele>134</ele>
        <time>2020-10-03T06:08:34.000Z</time>
      </trkpt>
      <trkpt lat="43.60842" lon="1.42498">
        <ele>134</ele>
        <time>2020-10-03T06:08:35.000Z</time>
      </trkpt>
      <trkpt lat="43.60844" lon="1.42495">
        <ele>134</ele>
        <time>2020-10-03T06:08:36.000Z</time>
      </trkpt>
      <trkpt lat="43.60845" lon="1.42492">
        <ele>134</ele>
        <time>2020-10-03T06:08:37.000Z</time>
      </trkpt>
      <trkpt lat="43.60846" lon="1.42489">
        <ele>134.45044858046</ele>
        <time>2020-10-03T06:08:38.000Z</time>
      </trkpt>
      <trkpt lat="43.60847" lon="1.42486">
        <ele>135</ele>
        <time>2020-10-03T06:08:39.000Z</time>
      </trkpt>
      <trkpt lat="43.60849" lon="1.42484">
        <ele>135</ele>
        <time>2020-10-03T06:08:40.000Z</time>
      </trkpt>
      <trkpt lat="43.6085" lon="1.42482">
        <ele>135</ele>
        <time>2020-10-03T06:08:41.000Z</time>
      </trkpt>
      <trkpt lat="43.60852" lon="1.42479">
        <ele>135</ele>
        <time>2020-10-03T06:08:42.000Z</time>
      </trkpt>
      <trkpt lat="43.60853" lon="1.42477">
        <ele>135</ele>
        <time>2020-10-03T06:08:43.000Z</time>
      </trkpt>
      <trkpt lat="43.60854" lon="1.42475">
        <ele>135</ele>
        <time>2020-10-03T06:08:44.000Z</time>
      </trkpt>
      <trkpt lat="43.60855" lon="1.42471">
        <ele>135</ele>
        <time>2020-10-03T06:08:45.000Z</time>
      </trkpt>
      <trkpt lat="43.60856" lon="1.42468">
        <ele>135</ele>
        <time>2020-10-03T06:08:46.000Z</time>
      </trkpt>
      <trkpt lat="43.60858" lon="1.42465">
        <ele>135</ele>
        <time>2020-10-03T06:08:47.000Z</time>
      </trkpt>
      <trkpt lat="43.60859" lon="1.42461">
        <ele>134.55357714286</ele>
        <time>2020-10-03T06:08:48.000Z</time>
      </trkpt>
      <trkpt lat="43.60861" lon="1.42458">
        <ele>134.41757978985</ele>
        <time>2020-10-03T06:08:49.000Z</time>
      </trkpt>
      <trkpt lat="43.60862" lon="1.42455">
        <ele>135</ele>
        <time>2020-10-03T06:08:50.000Z</time>
      </trkpt>
      <trkpt lat="43.60863" lon="1.42452">
        <ele>135</ele>
        <time>2020-10-03T06:08:51.000Z</time>
      </trkpt>
      <trkpt lat="43.60864" lon="1.42449">
        <ele>135</ele>
        <time>2020-10-03T06:08:52.000Z</time>
      </trkpt>
      <trkpt lat="43.60866" lon="1.42446">
        <ele>135</ele>
        <time>2020-10-03T06:08:53.000Z</time>
      </trkpt>
      <trkpt lat="43.60867" lon="1.42443">
        <ele>135</ele>
        <time>2020-10-03T06:08:54.000Z</time>
      </trkpt>
      <trkpt lat="43.60868" lon="1.4244">
        <ele>135</ele>
        <time>2020-10-03T06:08:55.000Z</time>
      </trkpt>
      <trkpt lat="43.6087" lon="1.42437">
        <ele>134.58762750557</ele>
        <time>2020-10-03T06:08:56.000Z</time>
      </trkpt>
      <trkpt lat="43.60871" lon="1.42433">
        <ele>134</ele>
        <time>2020-10-03T06:08:57.000Z</time>
      </trkpt>
      <trkpt lat="43.60873" lon="1.4243">
        <ele>134</ele>
        <time>2020-10-03T06:08:58.000Z</time>
      </trkpt>
      <trkpt lat="43.60876" lon="1.42423">
        <ele>133</ele>
        <time>2020-10-03T06:09:00.000Z</time>
      </trkpt>
      <trkpt lat="43.60877" lon="1.4242">
        <ele>133</ele>
        <time>2020-10-03T06:09:01.000Z</time>
      </trkpt>
      <trkpt lat="43.60882" lon="1.42409">
        <ele>132</ele>
        <time>2020-10-03T06:09:04.000Z</time>
      </trkpt>
      <trkpt lat="43.60882" lon="1.42406">
        <ele>133.25580460797</ele>
        <time>2020-10-03T06:09:05.000Z</time>
      </trkpt>
      <trkpt lat="43.60879" lon="1.42404">
        <ele>135</ele>
        <time>2020-10-03T06:09:07.000Z</time>
      </trkpt>
      <trkpt lat="43.60877" lon="1.42405">
        <ele>136</ele>
        <time>2020-10-03T06:09:09.000Z</time>
      </trkpt>
      <trkpt lat="43.60874" lon="1.42405">
        <ele>136</ele>
        <time>2020-10-03T06:09:11.000Z</time>
      </trkpt>
      <trkpt lat="43.60873" lon="1.42404">
        <ele>136</ele>
        <time>2020-10-03T06:09:12.000Z</time>
      </trkpt>
      <trkpt lat="43.60871" lon="1.42402">
        <ele>136</ele>
        <time>2020-10-03T06:09:13.000Z</time>
      </trkpt>
      <trkpt lat="43.60869" lon="1.42401">
        <ele>136</ele>
        <time>2020-10-03T06:09:14.000Z</time>
      </trkpt>
      <trkpt lat="43.60868" lon="1.42398">
        <ele>136</ele>
        <time>2020-10-03T06:09:15.000Z</time>
      </trkpt>
      <trkpt lat="43.60866" lon="1.42396">
        <ele>136</ele>
        <time>2020-10-03T06:09:16.000Z</time>
      </trkpt>
      <trkpt lat="43.60864" lon="1.42394">
        <ele>136</ele>
        <time>2020-10-03T06:09:17.000Z</time>
      </trkpt>
      <trkpt lat="43.60862" lon="1.42393">
        <ele>136</ele>
        <time>2020-10-03T06:09:18.000Z</time>
      </trkpt>
      <trkpt lat="43.6086" lon="1.42391">
        <ele>136</ele>
        <time>2020-10-03T06:09:19.000Z</time>
      </trkpt>
      <trkpt lat="43.6086" lon="1.42388">
        <ele>136</ele>
        <time>2020-10-03T06:09:21.000Z</time>
      </trkpt>
      <trkpt lat="43.60861" lon="1.42385">
        <ele>136</ele>
        <time>2020-10-03T06:09:22.000Z</time>
      </trkpt>
      <trkpt lat="43.60863" lon="1.42381">
        <ele>136</ele>
        <time>2020-10-03T06:09:23.000Z</time>
      </trkpt>
      <trkpt lat="43.60866" lon="1.42377">
        <ele>136</ele>
        <time>2020-10-03T06:09:24.000Z</time>
      </trkpt>
      <trkpt lat="43.60868" lon="1.42373">
        <ele>136</ele>
        <time>2020-10-03T06:09:25.000Z</time>
      </trkpt>
      <trkpt lat="43.60871" lon="1.42369">
        <ele>136</ele>
        <time>2020-10-03T06:09:26.000Z</time>
      </trkpt>
      <trkpt lat="43.60874" lon="1.42361">
        <ele>136</ele>
        <time>2020-10-03T06:09:28.000Z</time>
      </trkpt>
      <trkpt lat="43.60876" lon="1.42356">
        <ele>135.64706502424</ele>
        <time>2020-10-03T06:09:29.000Z</time>
      </trkpt>
      <trkpt lat="43.60878" lon="1.42344">
        <ele>135</ele>
        <time>2020-10-03T06:09:31.000Z</time>
      </trkpt>
      <trkpt lat="43.60879" lon="1.42339">
        <ele>135</ele>
        <time>2020-10-03T06:09:32.000Z</time>
      </trkpt>
      <trkpt lat="43.60881" lon="1.42335">
        <ele>134.58064027747</ele>
        <time>2020-10-03T06:09:33.000Z</time>
      </trkpt>
      <trkpt lat="43.60881" lon="1.42331">
        <ele>134</ele>
        <time>2020-10-03T06:09:34.000Z</time>
      </trkpt>
      <trkpt lat="43.60883" lon="1.42327">
        <ele>134</ele>
        <time>2020-10-03T06:09:35.000Z</time>
      </trkpt>
      <trkpt lat="43.60884" lon="1.42323">
        <ele>134</ele>
        <time>2020-10-03T06:09:36.000Z</time>
      </trkpt>
      <trkpt lat="43.60885" lon="1.4232">
        <ele>134</ele>
        <time>2020-10-03T06:09:37.000Z</time>
      </trkpt>
      <trkpt lat="43.60886" lon="1.42317">
        <ele>134</ele>
        <time>2020-10-03T06:09:38.000Z</time>
      </trkpt>
      <trkpt lat="43.60887" lon="1.42314">
        <ele>134</ele>
        <time>2020-10-03T06:09:40.000Z</time>
      </trkpt>
      <trkpt lat="43.60888" lon="1.42311">
        <ele>134.27108345478</ele>
        <time>2020-10-03T06:09:41.000Z</time>
      </trkpt>
      <trkpt lat="43.60889" lon="1.42308">
        <ele>134.87349541589</ele>
        <time>2020-10-03T06:09:42.000Z</time>
      </trkpt>
      <trkpt lat="43.60891" lon="1.42304">
        <ele>135</ele>
        <time>2020-10-03T06:09:43.000Z</time>
      </trkpt>
      <trkpt lat="43.60892" lon="1.42301">
        <ele>135</ele>
        <time>2020-10-03T06:09:44.000Z</time>
      </trkpt>
      <trkpt lat="43.60893" lon="1.42298">
        <ele>135</ele>
        <time>2020-10-03T06:09:45.000Z</time>
      </trkpt>
      <trkpt lat="43.60894" lon="1.42295">
        <ele>135</ele>
        <time>2020-10-03T06:09:46.000Z</time>
      </trkpt>
      <trkpt lat="43.60895" lon="1.42292">
        <ele>135</ele>
        <time>2020-10-03T06:09:47.000Z</time>
      </trkpt>
      <trkpt lat="43.60896" lon="1.42289">
        <ele>135</ele>
        <time>2020-10-03T06:09:48.000Z</time>
      </trkpt>
      <trkpt lat="43.60897" lon="1.42286">
        <ele>135</ele>
        <time>2020-10-03T06:09:49.000Z</time>
      </trkpt>
      <trkpt lat="43.60898" lon="1.42282">
        <ele>135</ele>
        <time>2020-10-03T06:09:50.000Z</time>
      </trkpt>
      <trkpt lat="43.60899" lon="1.42278">
        <ele>135</ele>
        <time>2020-10-03T06:09:51.000Z</time>
      </trkpt>
      <trkpt lat="43.60901" lon="1.42274">
        <ele>135</ele>
        <time>2020-10-03T06:09:52.000Z</time>
      </trkpt>
      <trkpt lat="43.60902" lon="1.42271">
        <ele>135</ele>
        <time>2020-10-03T06:09:53.000Z</time>
      </trkpt>
      <trkpt lat="43.60903" lon="1.42266">
        <ele>135</ele>
        <time>2020-10-03T06:09:54.000Z</time>
      </trkpt>
      <trkpt lat="43.60905" lon="1.42262">
        <ele>135</ele>
        <time>2020-10-03T06:09:55.000Z</time>
      </trkpt>
      <trkpt lat="43.60907" lon="1.42258">
        <ele>135</ele>
        <time>2020-10-03T06:09:56.000Z</time>
      </trkpt>
      <trkpt lat="43.60909" lon="1.42255">
        <ele>135</ele>
        <time>2020-10-03T06:09:57.000Z</time>
      </trkpt>
      <trkpt lat="43.6091" lon="1.42251">
        <ele>135</ele>
        <time>2020-10-03T06:09:58.000Z</time>
      </trkpt>
      <trkpt lat="43.60912" lon="1.42248">
        <ele>134.91357732056</ele>
        <time>2020-10-03T06:09:59.000Z</time>
      </trkpt>
      <trkpt lat="43.60913" lon="1.42245">
        <ele>134</ele>
        <time>2020-10-03T06:10:00.000Z</time>
      </trkpt>
      <trkpt lat="43.60914" lon="1.42238">
        <ele>134</ele>
        <time>2020-10-03T06:10:02.000Z</time>
      </trkpt>
      <trkpt lat="43.60915" lon="1.42235">
        <ele>133.53191808056</ele>
        <time>2020-10-03T06:10:03.000Z</time>
      </trkpt>
      <trkpt lat="43.60916" lon="1.42233">
        <ele>133</ele>
        <time>2020-10-03T06:10:04.000Z</time>
      </trkpt>
      <trkpt lat="43.60917" lon="1.4223">
        <ele>133.3521155961</ele>
        <time>2020-10-03T06:10:05.000Z</time>
      </trkpt>
      <trkpt lat="43.60919" lon="1.42225">
        <ele>134</ele>
        <time>2020-10-03T06:10:07.000Z</time>
      </trkpt>
      <trkpt lat="43.6092" lon="1.42221">
        <ele>134</ele>
        <time>2020-10-03T06:10:08.000Z</time>
      </trkpt>
      <trkpt lat="43.60921" lon="1.42218">
        <ele>134</ele>
        <time>2020-10-03T06:10:09.000Z</time>
      </trkpt>
      <trkpt lat="43.60922" lon="1.42215">
        <ele>134</ele>
        <time>2020-10-03T06:10:10.000Z</time>
      </trkpt>
      <trkpt lat="43.60924" lon="1.42211">
        <ele>134</ele>
        <time>2020-10-03T06:10:11.000Z</time>
      </trkpt>
      <trkpt lat="43.60925" lon="1.42208">
        <ele>134</ele>
        <time>2020-10-03T06:10:12.000Z</time>
      </trkpt>
      <trkpt lat="43.60926" lon="1.42205">
        <ele>134</ele>
        <time>2020-10-03T06:10:13.000Z</time>
      </trkpt>
      <trkpt lat="43.60927" lon="1.42202">
        <ele>134</ele>
        <time>2020-10-03T06:10:14.000Z</time>
      </trkpt>
      <trkpt lat="43.60929" lon="1.42199">
        <ele>134</ele>
        <time>2020-10-03T06:10:15.000Z</time>
      </trkpt>
      <trkpt lat="43.6093" lon="1.42197">
        <ele>134</ele>
        <time>2020-10-03T06:10:16.000Z</time>
      </trkpt>
      <trkpt lat="43.60931" lon="1.42194">
        <ele>134</ele>
        <time>2020-10-03T06:10:17.000Z</time>
      </trkpt>
      <trkpt lat="43.60933" lon="1.4219">
        <ele>133.69672234346</ele>
        <time>2020-10-03T06:10:18.000Z</time>
      </trkpt>
      <trkpt lat="43.60934" lon="1.42187">
        <ele>133</ele>
        <time>2020-10-03T06:10:19.000Z</time>
      </trkpt>
      <trkpt lat="43.60935" lon="1.42185">
        <ele>133</ele>
        <time>2020-10-03T06:10:20.000Z</time>
      </trkpt>
      <trkpt lat="43.60936" lon="1.42182">
        <ele>133</ele>
        <time>2020-10-03T06:10:21.000Z</time>
      </trkpt>
      <trkpt lat="43.60937" lon="1.42179">
        <ele>133.30769382249</ele>
        <time>2020-10-03T06:10:22.000Z</time>
      </trkpt>
      <trkpt lat="43.60938" lon="1.42175">
        <ele>134</ele>
        <time>2020-10-03T06:10:23.000Z</time>
      </trkpt>
      <trkpt lat="43.60939" lon="1.42172">
        <ele>134.26829839377</ele>
        <time>2020-10-03T06:10:24.000Z</time>
      </trkpt>
      <trkpt lat="43.6094" lon="1.42168">
        <ele>135</ele>
        <time>2020-10-03T06:10:25.000Z</time>
      </trkpt>
      <trkpt lat="43.60941" lon="1.42165">
        <ele>135</ele>
        <time>2020-10-03T06:10:26.000Z</time>
      </trkpt>
      <trkpt lat="43.60942" lon="1.42161">
        <ele>134.55356571429</ele>
        <time>2020-10-03T06:10:27.000Z</time>
      </trkpt>
      <trkpt lat="43.60943" lon="1.42159">
        <ele>134</ele>
        <time>2020-10-03T06:10:28.000Z</time>
      </trkpt>
      <trkpt lat="43.60944" lon="1.42155">
        <ele>134</ele>
        <time>2020-10-03T06:10:29.000Z</time>
      </trkpt>
      <trkpt lat="43.60945" lon="1.42152">
        <ele>133.59574062474</ele>
        <time>2020-10-03T06:10:30.000Z</time>
      </trkpt>
      <trkpt lat="43.60946" lon="1.42148">
        <ele>133</ele>
        <time>2020-10-03T06:10:31.000Z</time>
      </trkpt>
      <trkpt lat="43.60947" lon="1.42144">
        <ele>133</ele>
        <time>2020-10-03T06:10:32.000Z</time>
      </trkpt>
      <trkpt lat="43.60949" lon="1.42141">
        <ele>133</ele>
        <time>2020-10-03T06:10:33.000Z</time>
      </trkpt>
      <trkpt lat="43.60951" lon="1.42138">
        <ele>133</ele>
        <time>2020-10-03T06:10:34.000Z</time>
      </trkpt>
      <trkpt lat="43.60953" lon="1.42135">
        <ele>133</ele>
        <time>2020-10-03T06:10:35.000Z</time>
      </trkpt>
      <trkpt lat="43.60954" lon="1.42131">
        <ele>133.44444760496</ele>
        <time>2020-10-03T06:10:36.000Z</time>
      </trkpt>
      <trkpt lat="43.60955" lon="1.42128">
        <ele>134</ele>
        <time>2020-10-03T06:10:37.000Z</time>
      </trkpt>
      <trkpt lat="43.60956" lon="1.42124">
        <ele>134</ele>
        <time>2020-10-03T06:10:38.000Z</time>
      </trkpt>
      <trkpt lat="43.60959" lon="1.42117">
        <ele>135</ele>
        <time>2020-10-03T06:10:40.000Z</time>
      </trkpt>
      <trkpt lat="43.6096" lon="1.42114">
        <ele>135</ele>
        <time>2020-10-03T06:10:41.000Z</time>
      </trkpt>
      <trkpt lat="43.60961" lon="1.42111">
        <ele>135</ele>
        <time>2020-10-03T06:10:42.000Z</time>
      </trkpt>
      <trkpt lat="43.60963" lon="1.42108">
        <ele>135</ele>
        <time>2020-10-03T06:10:43.000Z</time>
      </trkpt>
      <trkpt lat="43.60964" lon="1.42105">
        <ele>135</ele>
        <time>2020-10-03T06:10:44.000Z</time>
      </trkpt>
      <trkpt lat="43.60966" lon="1.42102">
        <ele>135</ele>
        <time>2020-10-03T06:10:45.000Z</time>
      </trkpt>
      <trkpt lat="43.60967" lon="1.42099">
        <ele>135</ele>
        <time>2020-10-03T06:10:46.000Z</time>
      </trkpt>
      <trkpt lat="43.60968" lon="1.42095">
        <ele>135</ele>
        <time>2020-10-03T06:10:47.000Z</time>
      </trkpt>
      <trkpt lat="43.60969" lon="1.42092">
        <ele>135</ele>
        <time>2020-10-03T06:10:48.000Z</time>
      </trkpt>
      <trkpt lat="43.6097" lon="1.42089">
        <ele>135</ele>
        <time>2020-10-03T06:10:49.000Z</time>
      </trkpt>
      <trkpt lat="43.60971" lon="1.42085">
        <ele>135.5</ele>
        <time>2020-10-03T06:10:50.000Z</time>
      </trkpt>
      <trkpt lat="43.60972" lon="1.42082">
        <ele>136</ele>
        <time>2020-10-03T06:10:51.000Z</time>
      </trkpt>
      <trkpt lat="43.60973" lon="1.42078">
        <ele>136</ele>
        <time>2020-10-03T06:10:52.000Z</time>
      </trkpt>
      <trkpt lat="43.60974" lon="1.42075">
        <ele>136</ele>
        <time>2020-10-03T06:10:53.000Z</time>
      </trkpt>
      <trkpt lat="43.60975" lon="1.42072">
        <ele>136</ele>
        <time>2020-10-03T06:10:54.000Z</time>
      </trkpt>
      <trkpt lat="43.60976" lon="1.42069">
        <ele>136</ele>
        <time>2020-10-03T06:10:55.000Z</time>
      </trkpt>
      <trkpt lat="43.60977" lon="1.42065">
        <ele>135.63709935484</ele>
        <time>2020-10-03T06:10:56.000Z</time>
      </trkpt>
      <trkpt lat="43.60978" lon="1.42062">
        <ele>135</ele>
        <time>2020-10-03T06:10:57.000Z</time>
      </trkpt>
      <trkpt lat="43.6098" lon="1.42059">
        <ele>135</ele>
        <time>2020-10-03T06:10:58.000Z</time>
      </trkpt>
      <trkpt lat="43.60981" lon="1.42056">
        <ele>135</ele>
        <time>2020-10-03T06:10:59.000Z</time>
      </trkpt>
      <trkpt lat="43.60982" lon="1.42053">
        <ele>135</ele>
        <time>2020-10-03T06:11:00.000Z</time>
      </trkpt>
      <trkpt lat="43.60983" lon="1.4205">
        <ele>135</ele>
        <time>2020-10-03T06:11:01.000Z</time>
      </trkpt>
      <trkpt lat="43.60984" lon="1.42046">
        <ele>135</ele>
        <time>2020-10-03T06:11:02.000Z</time>
      </trkpt>
      <trkpt lat="43.60985" lon="1.42043">
        <ele>135.40350542319</ele>
        <time>2020-10-03T06:11:03.000Z</time>
      </trkpt>
      <trkpt lat="43.60986" lon="1.42041">
        <ele>136</ele>
        <time>2020-10-03T06:11:04.000Z</time>
      </trkpt>
      <trkpt lat="43.60987" lon="1.42038">
        <ele>136</ele>
        <time>2020-10-03T06:11:05.000Z</time>
      </trkpt>
      <trkpt lat="43.60988" lon="1.42035">
        <ele>136</ele>
        <time>2020-10-03T06:11:06.000Z</time>
      </trkpt>
      <trkpt lat="43.60989" lon="1.42032">
        <ele>136</ele>
        <time>2020-10-03T06:11:07.000Z</time>
      </trkpt>
      <trkpt lat="43.6099" lon="1.42029">
        <ele>136</ele>
        <time>2020-10-03T06:11:08.000Z</time>
      </trkpt>
      <trkpt lat="43.60991" lon="1.42026">
        <ele>136</ele>
        <time>2020-10-03T06:11:09.000Z</time>
      </trkpt>
      <trkpt lat="43.60992" lon="1.42023">
        <ele>136</ele>
        <time>2020-10-03T06:11:10.000Z</time>
      </trkpt>
      <trkpt lat="43.60994" lon="1.42019">
        <ele>136</ele>
        <time>2020-10-03T06:11:11.000Z</time>
      </trkpt>
      <trkpt lat="43.60995" lon="1.42016">
        <ele>136</ele>
        <time>2020-10-03T06:11:12.000Z</time>
      </trkpt>
      <trkpt lat="43.60996" lon="1.42013">
        <ele>136</ele>
        <time>2020-10-03T06:11:13.000Z</time>
      </trkpt>
      <trkpt lat="43.60998" lon="1.42009">
        <ele>136</ele>
        <time>2020-10-03T06:11:14.000Z</time>
      </trkpt>
      <trkpt lat="43.60999" lon="1.42006">
        <ele>136</ele>
        <time>2020-10-03T06:11:15.000Z</time>
      </trkpt>
      <trkpt lat="43.61001" lon="1.42002">
        <ele>136</ele>
        <time>2020-10-03T06:11:16.000Z</time>
      </trkpt>
      <trkpt lat="43.61002" lon="1.41999">
        <ele>136</ele>
        <time>2020-10-03T06:11:17.000Z</time>
      </trkpt>
      <trkpt lat="43.61003" lon="1.41996">
        <ele>136</ele>
        <time>2020-10-03T06:11:18.000Z</time>
      </trkpt>
      <trkpt lat="43.61004" lon="1.41992">
        <ele>135.712496</ele>
        <time>2020-10-03T06:11:19.000Z</time>
      </trkpt>
      <trkpt lat="43.61006" lon="1.41989">
        <ele>135</ele>
        <time>2020-10-03T06:11:20.000Z</time>
      </trkpt>
      <trkpt lat="43.61007" lon="1.41985">
        <ele>135</ele>
        <time>2020-10-03T06:11:21.000Z</time>
      </trkpt>
      <trkpt lat="43.61008" lon="1.41982">
        <ele>135</ele>
        <time>2020-10-03T06:11:22.000Z</time>
      </trkpt>
      <trkpt lat="43.61009" lon="1.41978">
        <ele>135.34545073717</ele>
        <time>2020-10-03T06:11:23.000Z</time>
      </trkpt>
      <trkpt lat="43.61011" lon="1.41975">
        <ele>136</ele>
        <time>2020-10-03T06:11:24.000Z</time>
      </trkpt>
      <trkpt lat="43.61012" lon="1.41971">
        <ele>136</ele>
        <time>2020-10-03T06:11:25.000Z</time>
      </trkpt>
      <trkpt lat="43.61013" lon="1.41968">
        <ele>136</ele>
        <time>2020-10-03T06:11:26.000Z</time>
      </trkpt>
      <trkpt lat="43.61014" lon="1.41965">
        <ele>136</ele>
        <time>2020-10-03T06:11:27.000Z</time>
      </trkpt>
      <trkpt lat="43.61015" lon="1.41962">
        <ele>136</ele>
        <time>2020-10-03T06:11:28.000Z</time>
      </trkpt>
      <trkpt lat="43.61017" lon="1.41958">
        <ele>136</ele>
        <time>2020-10-03T06:11:29.000Z</time>
      </trkpt>
      <trkpt lat="43.61018" lon="1.41955">
        <ele>136</ele>
        <time>2020-10-03T06:11:30.000Z</time>
      </trkpt>
      <trkpt lat="43.61019" lon="1.41952">
        <ele>136</ele>
        <time>2020-10-03T06:11:31.000Z</time>
      </trkpt>
      <trkpt lat="43.6102" lon="1.41949">
        <ele>136</ele>
        <time>2020-10-03T06:11:32.000Z</time>
      </trkpt>
      <trkpt lat="43.61021" lon="1.41945">
        <ele>136</ele>
        <time>2020-10-03T06:11:33.000Z</time>
      </trkpt>
      <trkpt lat="43.61022" lon="1.41941">
        <ele>136</ele>
        <time>2020-10-03T06:11:34.000Z</time>
      </trkpt>
      <trkpt lat="43.61022" lon="1.41938">
        <ele>135.86139203609</ele>
        <time>2020-10-03T06:11:35.000Z</time>
      </trkpt>
      <trkpt lat="43.61025" lon="1.41932">
        <ele>135</ele>
        <time>2020-10-03T06:11:37.000Z</time>
      </trkpt>
      <trkpt lat="43.61026" lon="1.41929">
        <ele>135</ele>
        <time>2020-10-03T06:11:38.000Z</time>
      </trkpt>
      <trkpt lat="43.61026" lon="1.41926">
        <ele>135.3613462552</ele>
        <time>2020-10-03T06:11:39.000Z</time>
      </trkpt>
      <trkpt lat="43.61027" lon="1.41924">
        <ele>136</ele>
        <time>2020-10-03T06:11:40.000Z</time>
      </trkpt>
      <trkpt lat="43.61029" lon="1.41921">
        <ele>136</ele>
        <time>2020-10-03T06:11:41.000Z</time>
      </trkpt>
      <trkpt lat="43.6103" lon="1.41918">
        <ele>136</ele>
        <time>2020-10-03T06:11:42.000Z</time>
      </trkpt>
      <trkpt lat="43.61031" lon="1.41914">
        <ele>136</ele>
        <time>2020-10-03T06:11:43.000Z</time>
      </trkpt>
      <trkpt lat="43.6103" lon="1.41912">
        <ele>136</ele>
        <time>2020-10-03T06:11:45.000Z</time>
      </trkpt>
      <trkpt lat="43.61029" lon="1.41909">
        <ele>136</ele>
        <time>2020-10-03T06:11:47.000Z</time>
      </trkpt>
      <trkpt lat="43.6103" lon="1.41907">
        <ele>136</ele>
        <time>2020-10-03T06:11:48.000Z</time>
      </trkpt>
      <trkpt lat="43.61032" lon="1.41904">
        <ele>136</ele>
        <time>2020-10-03T06:11:49.000Z</time>
      </trkpt>
      <trkpt lat="43.61033" lon="1.41902">
        <ele>136</ele>
        <time>2020-10-03T06:11:50.000Z</time>
      </trkpt>
      <trkpt lat="43.61035" lon="1.419">
        <ele>136</ele>
        <time>2020-10-03T06:11:51.000Z</time>
      </trkpt>
      <trkpt lat="43.61037" lon="1.41896">
        <ele>136</ele>
        <time>2020-10-03T06:11:52.000Z</time>
      </trkpt>
      <trkpt lat="43.61039" lon="1.41893">
        <ele>136</ele>
        <time>2020-10-03T06:11:53.000Z</time>
      </trkpt>
      <trkpt lat="43.6104" lon="1.4189">
        <ele>136</ele>
        <time>2020-10-03T06:11:54.000Z</time>
      </trkpt>
      <trkpt lat="43.61042" lon="1.41884">
        <ele>136</ele>
        <time>2020-10-03T06:11:56.000Z</time>
      </trkpt>
      <trkpt lat="43.61044" lon="1.41881">
        <ele>136</ele>
        <time>2020-10-03T06:11:57.000Z</time>
      </trkpt>
      <trkpt lat="43.61045" lon="1.41879">
        <ele>136</ele>
        <time>2020-10-03T06:11:58.000Z</time>
      </trkpt>
      <trkpt lat="43.61045" lon="1.41876">
        <ele>136</ele>
        <time>2020-10-03T06:11:59.000Z</time>
      </trkpt>
      <trkpt lat="43.61047" lon="1.41872">
        <ele>136</ele>
        <time>2020-10-03T06:12:01.000Z</time>
      </trkpt>
      <trkpt lat="43.61048" lon="1.41869">
        <ele>136</ele>
        <time>2020-10-03T06:12:02.000Z</time>
      </trkpt>
      <trkpt lat="43.6105" lon="1.41867">
        <ele>136</ele>
        <time>2020-10-03T06:12:03.000Z</time>
      </trkpt>
      <trkpt lat="43.61051" lon="1.41865">
        <ele>136</ele>
        <time>2020-10-03T06:12:04.000Z</time>
      </trkpt>
      <trkpt lat="43.61053" lon="1.41864">
        <ele>136</ele>
        <time>2020-10-03T06:12:05.000Z</time>
      </trkpt>
      <trkpt lat="43.61056" lon="1.41864">
        <ele>135.66412295787</ele>
        <time>2020-10-03T06:12:06.000Z</time>
      </trkpt>
      <trkpt lat="43.61057" lon="1.41865">
        <ele>135</ele>
        <time>2020-10-03T06:12:07.000Z</time>
      </trkpt>
      <trkpt lat="43.6106" lon="1.41865">
        <ele>135</ele>
        <time>2020-10-03T06:12:09.000Z</time>
      </trkpt>
      <trkpt lat="43.61062" lon="1.41863">
        <ele>134.36507614007</ele>
        <time>2020-10-03T06:12:11.000Z</time>
      </trkpt>
      <trkpt lat="43.61064" lon="1.4186">
        <ele>133</ele>
        <time>2020-10-03T06:12:12.000Z</time>
      </trkpt>
      <trkpt lat="43.61065" lon="1.41857">
        <ele>133</ele>
        <time>2020-10-03T06:12:13.000Z</time>
      </trkpt>
      <trkpt lat="43.61063" lon="1.41852">
        <ele>132</ele>
        <time>2020-10-03T06:12:15.000Z</time>
      </trkpt>
      <trkpt lat="43.61062" lon="1.4185">
        <ele>132</ele>
        <time>2020-10-03T06:12:16.000Z</time>
      </trkpt>
      <trkpt lat="43.6106" lon="1.41845">
        <ele>132</ele>
        <time>2020-10-03T06:12:18.000Z</time>
      </trkpt>
      <trkpt lat="43.6106" lon="1.41842">
        <ele>132</ele>
        <time>2020-10-03T06:12:19.000Z</time>
      </trkpt>
      <trkpt lat="43.61059" lon="1.4184">
        <ele>132</ele>
        <time>2020-10-03T06:12:20.000Z</time>
      </trkpt>
      <trkpt lat="43.61059" lon="1.41837">
        <ele>131.64178933392</ele>
        <time>2020-10-03T06:12:21.000Z</time>
      </trkpt>
      <trkpt lat="43.61059" lon="1.41834">
        <ele>131</ele>
        <time>2020-10-03T06:12:22.000Z</time>
      </trkpt>
      <trkpt lat="43.61058" lon="1.41831">
        <ele>131.8807365306</ele>
        <time>2020-10-03T06:12:24.000Z</time>
      </trkpt>
      <trkpt lat="43.61056" lon="1.41827">
        <ele>133</ele>
        <time>2020-10-03T06:12:26.000Z</time>
      </trkpt>
      <trkpt lat="43.61055" lon="1.41825">
        <ele>133</ele>
        <time>2020-10-03T06:12:27.000Z</time>
      </trkpt>
      <trkpt lat="43.61055" lon="1.41822">
        <ele>133</ele>
        <time>2020-10-03T06:12:28.000Z</time>
      </trkpt>
      <trkpt lat="43.61055" lon="1.4182">
        <ele>133</ele>
        <time>2020-10-03T06:12:29.000Z</time>
      </trkpt>
      <trkpt lat="43.61055" lon="1.41815">
        <ele>133</ele>
        <time>2020-10-03T06:12:31.000Z</time>
      </trkpt>
      <trkpt lat="43.61054" lon="1.41813">
        <ele>133</ele>
        <time>2020-10-03T06:12:32.000Z</time>
      </trkpt>
      <trkpt lat="43.61053" lon="1.4181">
        <ele>133</ele>
        <time>2020-10-03T06:12:34.000Z</time>
      </trkpt>
      <trkpt lat="43.61051" lon="1.41814">
        <ele>134</ele>
        <time>2020-10-03T06:12:36.000Z</time>
      </trkpt>
      <trkpt lat="43.6105" lon="1.41817">
        <ele>134</ele>
        <time>2020-10-03T06:12:38.000Z</time>
      </trkpt>
      <trkpt lat="43.6105" lon="1.41814">
        <ele>134</ele>
        <time>2020-10-03T06:12:39.000Z</time>
      </trkpt>
      <trkpt lat="43.6105" lon="1.41811">
        <ele>134</ele>
        <time>2020-10-03T06:12:40.000Z</time>
      </trkpt>
      <trkpt lat="43.6105" lon="1.41807">
        <ele>134</ele>
        <time>2020-10-03T06:12:41.000Z</time>
      </trkpt>
      <trkpt lat="43.6105" lon="1.41803">
        <ele>134.3274317237</ele>
        <time>2020-10-03T06:12:42.000Z</time>
      </trkpt>
      <trkpt lat="43.61049" lon="1.41799">
        <ele>135</ele>
        <time>2020-10-03T06:12:43.000Z</time>
      </trkpt>
      <trkpt lat="43.61049" lon="1.41795">
        <ele>135</ele>
        <time>2020-10-03T06:12:44.000Z</time>
      </trkpt>
      <trkpt lat="43.61049" lon="1.41792">
        <ele>133</ele>
        <time>2020-10-03T06:12:46.000Z</time>
      </trkpt>
      <trkpt lat="43.6105" lon="1.41794">
        <ele>133</ele>
        <time>2020-10-03T06:12:48.000Z</time>
      </trkpt>
      <trkpt lat="43.61051" lon="1.41797">
        <ele>133</ele>
        <time>2020-10-03T06:12:49.000Z</time>
      </trkpt>
      <trkpt lat="43.61051" lon="1.41799">
        <ele>132</ele>
        <time>2020-10-03T06:12:50.000Z</time>
      </trkpt>
      <trkpt lat="43.61052" lon="1.41803">
        <ele>132</ele>
        <time>2020-10-03T06:12:51.000Z</time>
      </trkpt>
      <trkpt lat="43.61053" lon="1.41806">
        <ele>132</ele>
        <time>2020-10-03T06:12:52.000Z</time>
      </trkpt>
      <trkpt lat="43.61054" lon="1.4181">
        <ele>132</ele>
        <time>2020-10-03T06:12:53.000Z</time>
      </trkpt>
      <trkpt lat="43.61054" lon="1.41814">
        <ele>132</ele>
        <time>2020-10-03T06:12:54.000Z</time>
      </trkpt>
      <trkpt lat="43.61053" lon="1.41817">
        <ele>132</ele>
        <time>2020-10-03T06:12:55.000Z</time>
      </trkpt>
      <trkpt lat="43.61053" lon="1.4182">
        <ele>132</ele>
        <time>2020-10-03T06:12:56.000Z</time>
      </trkpt>
      <trkpt lat="43.61053" lon="1.41823">
        <ele>132</ele>
        <time>2020-10-03T06:12:57.000Z</time>
      </trkpt>
      <trkpt lat="43.61045" lon="1.41832">
        <ele>132</ele>
        <time>2020-10-03T06:13:01.000Z</time>
      </trkpt>
      <trkpt lat="43.61045" lon="1.41836">
        <ele>133</ele>
        <time>2020-10-03T06:13:03.000Z</time>
      </trkpt>
      <trkpt lat="43.61044" lon="1.4184">
        <ele>133.87640223207</ele>
        <time>2020-10-03T06:13:05.000Z</time>
      </trkpt>
      <trkpt lat="43.61045" lon="1.41845">
        <ele>135.41304226841</ele>
        <time>2020-10-03T06:13:07.000Z</time>
      </trkpt>
      <trkpt lat="43.61045" lon="1.41848">
        <ele>136</ele>
        <time>2020-10-03T06:13:09.000Z</time>
      </trkpt>
      <trkpt lat="43.61045" lon="1.41853">
        <ele>136</ele>
        <time>2020-10-03T06:13:11.000Z</time>
      </trkpt>
      <trkpt lat="43.61046" lon="1.41855">
        <ele>136</ele>
        <time>2020-10-03T06:13:12.000Z</time>
      </trkpt>
      <trkpt lat="43.61045" lon="1.41859">
        <ele>136</ele>
        <time>2020-10-03T06:13:13.000Z</time>
      </trkpt>
      <trkpt lat="43.61044" lon="1.41861">
        <ele>136.30281779012</ele>
        <time>2020-10-03T06:13:14.000Z</time>
      </trkpt>
      <trkpt lat="43.61043" lon="1.41865">
        <ele>137</ele>
        <time>2020-10-03T06:13:15.000Z</time>
      </trkpt>
      <trkpt lat="43.61043" lon="1.41868">
        <ele>137</ele>
        <time>2020-10-03T06:13:16.000Z</time>
      </trkpt>
      <trkpt lat="43.61041" lon="1.41871">
        <ele>137</ele>
        <time>2020-10-03T06:13:17.000Z</time>
      </trkpt>
      <trkpt lat="43.6104" lon="1.41874">
        <ele>137</ele>
        <time>2020-10-03T06:13:18.000Z</time>
      </trkpt>
      <trkpt lat="43.61039" lon="1.41877">
        <ele>137</ele>
        <time>2020-10-03T06:13:19.000Z</time>
      </trkpt>
      <trkpt lat="43.61037" lon="1.4188">
        <ele>137</ele>
        <time>2020-10-03T06:13:20.000Z</time>
      </trkpt>
      <trkpt lat="43.61035" lon="1.41883">
        <ele>137</ele>
        <time>2020-10-03T06:13:21.000Z</time>
      </trkpt>
      <trkpt lat="43.61034" lon="1.41885">
        <ele>137</ele>
        <time>2020-10-03T06:13:22.000Z</time>
      </trkpt>
      <trkpt lat="43.61033" lon="1.41888">
        <ele>137</ele>
        <time>2020-10-03T06:13:23.000Z</time>
      </trkpt>
      <trkpt lat="43.61032" lon="1.41892">
        <ele>137</ele>
        <time>2020-10-03T06:13:24.000Z</time>
      </trkpt>
      <trkpt lat="43.6103" lon="1.41895">
        <ele>137</ele>
        <time>2020-10-03T06:13:25.000Z</time>
      </trkpt>
      <trkpt lat="43.6103" lon="1.41898">
        <ele>137</ele>
        <time>2020-10-03T06:13:26.000Z</time>
      </trkpt>
      <trkpt lat="43.61029" lon="1.41902">
        <ele>136.654319622</ele>
        <time>2020-10-03T06:13:27.000Z</time>
      </trkpt>
      <trkpt lat="43.61028" lon="1.41905">
        <ele>136</ele>
        <time>2020-10-03T06:13:28.000Z</time>
      </trkpt>
      <trkpt lat="43.61027" lon="1.41908">
        <ele>136</ele>
        <time>2020-10-03T06:13:29.000Z</time>
      </trkpt>
      <trkpt lat="43.61025" lon="1.4191">
        <ele>136</ele>
        <time>2020-10-03T06:13:30.000Z</time>
      </trkpt>
      <trkpt lat="43.61024" lon="1.41912">
        <ele>136</ele>
        <time>2020-10-03T06:13:31.000Z</time>
      </trkpt>
      <trkpt lat="43.61021" lon="1.41914">
        <ele>136</ele>
        <time>2020-10-03T06:13:32.000Z</time>
      </trkpt>
      <trkpt lat="43.61019" lon="1.41914">
        <ele>136</ele>
        <time>2020-10-03T06:13:33.000Z</time>
      </trkpt>
      <trkpt lat="43.61017" lon="1.41913">
        <ele>136</ele>
        <time>2020-10-03T06:13:34.000Z</time>
      </trkpt>
      <trkpt lat="43.61016" lon="1.41911">
        <ele>136</ele>
        <time>2020-10-03T06:13:35.000Z</time>
      </trkpt>
      <trkpt lat="43.61017" lon="1.41908">
        <ele>136</ele>
        <time>2020-10-03T06:13:37.000Z</time>
      </trkpt>
      <trkpt lat="43.61015" lon="1.41906">
        <ele>135.60714285714</ele>
        <time>2020-10-03T06:13:41.000Z</time>
      </trkpt>
      <trkpt lat="43.61012" lon="1.41905">
        <ele>134.70588501039</ele>
        <time>2020-10-03T06:13:43.000Z</time>
      </trkpt>
      <trkpt lat="43.61009" lon="1.41905">
        <ele>134</ele>
        <time>2020-10-03T06:13:45.000Z</time>
      </trkpt>
      <trkpt lat="43.61007" lon="1.41905">
        <ele>133.55237654058</ele>
        <time>2020-10-03T06:13:46.000Z</time>
      </trkpt>
      <trkpt lat="43.61005" lon="1.41904">
        <ele>133</ele>
        <time>2020-10-03T06:13:47.000Z</time>
      </trkpt>
      <trkpt lat="43.61003" lon="1.41902">
        <ele>133</ele>
        <time>2020-10-03T06:13:48.000Z</time>
      </trkpt>
      <trkpt lat="43.60999" lon="1.419">
        <ele>133</ele>
        <time>2020-10-03T06:13:50.000Z</time>
      </trkpt>
      <trkpt lat="43.60997" lon="1.41898">
        <ele>133</ele>
        <time>2020-10-03T06:13:51.000Z</time>
      </trkpt>
      <trkpt lat="43.60996" lon="1.41895">
        <ele>133</ele>
        <time>2020-10-03T06:13:52.000Z</time>
      </trkpt>
      <trkpt lat="43.60995" lon="1.41893">
        <ele>133</ele>
        <time>2020-10-03T06:13:53.000Z</time>
      </trkpt>
      <trkpt lat="43.60993" lon="1.4189">
        <ele>133</ele>
        <time>2020-10-03T06:13:54.000Z</time>
      </trkpt>
      <trkpt lat="43.60992" lon="1.41887">
        <ele>133</ele>
        <time>2020-10-03T06:13:55.000Z</time>
      </trkpt>
      <trkpt lat="43.6099" lon="1.41884">
        <ele>133</ele>
        <time>2020-10-03T06:13:56.000Z</time>
      </trkpt>
      <trkpt lat="43.6099" lon="1.4188">
        <ele>133</ele>
        <time>2020-10-03T06:13:57.000Z</time>
      </trkpt>
      <trkpt lat="43.60988" lon="1.41877">
        <ele>132.53762937679</ele>
        <time>2020-10-03T06:13:58.000Z</time>
      </trkpt>
      <trkpt lat="43.60987" lon="1.41874">
        <ele>132</ele>
        <time>2020-10-03T06:13:59.000Z</time>
      </trkpt>
      <trkpt lat="43.60986" lon="1.41872">
        <ele>132</ele>
        <time>2020-10-03T06:14:00.000Z</time>
      </trkpt>
      <trkpt lat="43.60984" lon="1.4187">
        <ele>132.45454862808</ele>
        <time>2020-10-03T06:14:01.000Z</time>
      </trkpt>
      <trkpt lat="43.60983" lon="1.41866">
        <ele>133</ele>
        <time>2020-10-03T06:14:02.000Z</time>
      </trkpt>
      <trkpt lat="43.60981" lon="1.41863">
        <ele>133</ele>
        <time>2020-10-03T06:14:03.000Z</time>
      </trkpt>
      <trkpt lat="43.60979" lon="1.4186">
        <ele>133</ele>
        <time>2020-10-03T06:14:04.000Z</time>
      </trkpt>
      <trkpt lat="43.60978" lon="1.41857">
        <ele>133</ele>
        <time>2020-10-03T06:14:05.000Z</time>
      </trkpt>
      <trkpt lat="43.60976" lon="1.41854">
        <ele>133.45454228097</ele>
        <time>2020-10-03T06:14:06.000Z</time>
      </trkpt>
      <trkpt lat="43.60975" lon="1.41851">
        <ele>134</ele>
        <time>2020-10-03T06:14:07.000Z</time>
      </trkpt>
      <trkpt lat="43.60973" lon="1.41848">
        <ele>134</ele>
        <time>2020-10-03T06:14:08.000Z</time>
      </trkpt>
      <trkpt lat="43.60972" lon="1.41845">
        <ele>134</ele>
        <time>2020-10-03T06:14:09.000Z</time>
      </trkpt>
      <trkpt lat="43.60971" lon="1.41842">
        <ele>134</ele>
        <time>2020-10-03T06:14:10.000Z</time>
      </trkpt>
      <trkpt lat="43.6097" lon="1.41838">
        <ele>134</ele>
        <time>2020-10-03T06:14:11.000Z</time>
      </trkpt>
      <trkpt lat="43.60969" lon="1.41836">
        <ele>134</ele>
        <time>2020-10-03T06:14:12.000Z</time>
      </trkpt>
      <trkpt lat="43.60967" lon="1.41833">
        <ele>134</ele>
        <time>2020-10-03T06:14:13.000Z</time>
      </trkpt>
      <trkpt lat="43.60965" lon="1.41831">
        <ele>134</ele>
        <time>2020-10-03T06:14:14.000Z</time>
      </trkpt>
      <trkpt lat="43.60963" lon="1.41829">
        <ele>134</ele>
        <time>2020-10-03T06:14:15.000Z</time>
      </trkpt>
      <trkpt lat="43.60962" lon="1.41826">
        <ele>134</ele>
        <time>2020-10-03T06:14:16.000Z</time>
      </trkpt>
      <trkpt lat="43.6096" lon="1.41824">
        <ele>134</ele>
        <time>2020-10-03T06:14:17.000Z</time>
      </trkpt>
      <trkpt lat="43.60959" lon="1.41821">
        <ele>134</ele>
        <time>2020-10-03T06:14:18.000Z</time>
      </trkpt>
      <trkpt lat="43.60958" lon="1.41819">
        <ele>134</ele>
        <time>2020-10-03T06:14:19.000Z</time>
      </trkpt>
      <trkpt lat="43.60957" lon="1.41815">
        <ele>134</ele>
        <time>2020-10-03T06:14:20.000Z</time>
      </trkpt>
      <trkpt lat="43.60956" lon="1.41812">
        <ele>134</ele>
        <time>2020-10-03T06:14:21.000Z</time>
      </trkpt>
      <trkpt lat="43.60955" lon="1.41808">
        <ele>134</ele>
        <time>2020-10-03T06:14:22.000Z</time>
      </trkpt>
      <trkpt lat="43.60953" lon="1.41805">
        <ele>134</ele>
        <time>2020-10-03T06:14:23.000Z</time>
      </trkpt>
      <trkpt lat="43.60951" lon="1.41802">
        <ele>134</ele>
        <time>2020-10-03T06:14:24.000Z</time>
      </trkpt>
      <trkpt lat="43.6095" lon="1.41799">
        <ele>134</ele>
        <time>2020-10-03T06:14:25.000Z</time>
      </trkpt>
      <trkpt lat="43.60948" lon="1.41796">
        <ele>133.66321951865</ele>
        <time>2020-10-03T06:14:26.000Z</time>
      </trkpt>
      <trkpt lat="43.60947" lon="1.41793">
        <ele>133</ele>
        <time>2020-10-03T06:14:27.000Z</time>
      </trkpt>
      <trkpt lat="43.60945" lon="1.4179">
        <ele>133</ele>
        <time>2020-10-03T06:14:28.000Z</time>
      </trkpt>
      <trkpt lat="43.60943" lon="1.41786">
        <ele>133.44444300786</ele>
        <time>2020-10-03T06:14:29.000Z</time>
      </trkpt>
      <trkpt lat="43.60942" lon="1.41783">
        <ele>134</ele>
        <time>2020-10-03T06:14:30.000Z</time>
      </trkpt>
      <trkpt lat="43.60941" lon="1.4178">
        <ele>134</ele>
        <time>2020-10-03T06:14:31.000Z</time>
      </trkpt>
      <trkpt lat="43.60939" lon="1.41777">
        <ele>134</ele>
        <time>2020-10-03T06:14:32.000Z</time>
      </trkpt>
      <trkpt lat="43.60938" lon="1.41774">
        <ele>134</ele>
        <time>2020-10-03T06:14:33.000Z</time>
      </trkpt>
      <trkpt lat="43.60936" lon="1.41771">
        <ele>134</ele>
        <time>2020-10-03T06:14:34.000Z</time>
      </trkpt>
      <trkpt lat="43.60935" lon="1.41767">
        <ele>134</ele>
        <time>2020-10-03T06:14:35.000Z</time>
      </trkpt>
      <trkpt lat="43.60933" lon="1.41764">
        <ele>134</ele>
        <time>2020-10-03T06:14:36.000Z</time>
      </trkpt>
      <trkpt lat="43.60931" lon="1.41761">
        <ele>134</ele>
        <time>2020-10-03T06:14:37.000Z</time>
      </trkpt>
      <trkpt lat="43.6093" lon="1.41758">
        <ele>134</ele>
        <time>2020-10-03T06:14:38.000Z</time>
      </trkpt>
      <trkpt lat="43.60928" lon="1.41755">
        <ele>134</ele>
        <time>2020-10-03T06:14:39.000Z</time>
      </trkpt>
      <trkpt lat="43.60926" lon="1.41751">
        <ele>134</ele>
        <time>2020-10-03T06:14:40.000Z</time>
      </trkpt>
      <trkpt lat="43.60925" lon="1.41748">
        <ele>134</ele>
        <time>2020-10-03T06:14:41.000Z</time>
      </trkpt>
      <trkpt lat="43.60923" lon="1.41745">
        <ele>134</ele>
        <time>2020-10-03T06:14:42.000Z</time>
      </trkpt>
      <trkpt lat="43.60922" lon="1.41742">
        <ele>134</ele>
        <time>2020-10-03T06:14:43.000Z</time>
      </trkpt>
      <trkpt lat="43.6092" lon="1.41739">
        <ele>134</ele>
        <time>2020-10-03T06:14:44.000Z</time>
      </trkpt>
      <trkpt lat="43.60919" lon="1.41737">
        <ele>134</ele>
        <time>2020-10-03T06:14:45.000Z</time>
      </trkpt>
      <trkpt lat="43.60918" lon="1.41734">
        <ele>134</ele>
        <time>2020-10-03T06:14:46.000Z</time>
      </trkpt>
      <trkpt lat="43.60917" lon="1.41731">
        <ele>134</ele>
        <time>2020-10-03T06:14:47.000Z</time>
      </trkpt>
      <trkpt lat="43.60915" lon="1.41728">
        <ele>134</ele>
        <time>2020-10-03T06:14:48.000Z</time>
      </trkpt>
      <trkpt lat="43.60913" lon="1.41725">
        <ele>134</ele>
        <time>2020-10-03T06:14:49.000Z</time>
      </trkpt>
      <trkpt lat="43.60912" lon="1.41722">
        <ele>134</ele>
        <time>2020-10-03T06:14:50.000Z</time>
      </trkpt>
      <trkpt lat="43.6091" lon="1.4172">
        <ele>134</ele>
        <time>2020-10-03T06:14:51.000Z</time>
      </trkpt>
      <trkpt lat="43.60909" lon="1.41717">
        <ele>134</ele>
        <time>2020-10-03T06:14:52.000Z</time>
      </trkpt>
      <trkpt lat="43.60907" lon="1.41713">
        <ele>134</ele>
        <time>2020-10-03T06:14:53.000Z</time>
      </trkpt>
      <trkpt lat="43.60906" lon="1.4171">
        <ele>134</ele>
        <time>2020-10-03T06:14:54.000Z</time>
      </trkpt>
      <trkpt lat="43.60904" lon="1.41708">
        <ele>133.58695773159</ele>
        <time>2020-10-03T06:14:55.000Z</time>
      </trkpt>
      <trkpt lat="43.60903" lon="1.41705">
        <ele>133</ele>
        <time>2020-10-03T06:14:56.000Z</time>
      </trkpt>
      <trkpt lat="43.60902" lon="1.41702">
        <ele>133</ele>
        <time>2020-10-03T06:14:57.000Z</time>
      </trkpt>
      <trkpt lat="43.609" lon="1.41699">
        <ele>133</ele>
        <time>2020-10-03T06:14:58.000Z</time>
      </trkpt>
      <trkpt lat="43.60899" lon="1.41696">
        <ele>133</ele>
        <time>2020-10-03T06:14:59.000Z</time>
      </trkpt>
      <trkpt lat="43.60896" lon="1.4169">
        <ele>133</ele>
        <time>2020-10-03T06:15:01.000Z</time>
      </trkpt>
      <trkpt lat="43.60895" lon="1.41687">
        <ele>133</ele>
        <time>2020-10-03T06:15:02.000Z</time>
      </trkpt>
      <trkpt lat="43.60894" lon="1.41685">
        <ele>133</ele>
        <time>2020-10-03T06:15:03.000Z</time>
      </trkpt>
      <trkpt lat="43.60893" lon="1.41681">
        <ele>133</ele>
        <time>2020-10-03T06:15:04.000Z</time>
      </trkpt>
      <trkpt lat="43.60891" lon="1.41678">
        <ele>133</ele>
        <time>2020-10-03T06:15:05.000Z</time>
      </trkpt>
      <trkpt lat="43.6089" lon="1.41675">
        <ele>133</ele>
        <time>2020-10-03T06:15:06.000Z</time>
      </trkpt>
      <trkpt lat="43.60888" lon="1.41672">
        <ele>133</ele>
        <time>2020-10-03T06:15:07.000Z</time>
      </trkpt>
      <trkpt lat="43.60887" lon="1.41669">
        <ele>133</ele>
        <time>2020-10-03T06:15:08.000Z</time>
      </trkpt>
      <trkpt lat="43.60886" lon="1.41666">
        <ele>133</ele>
        <time>2020-10-03T06:15:09.000Z</time>
      </trkpt>
      <trkpt lat="43.60885" lon="1.41663">
        <ele>133</ele>
        <time>2020-10-03T06:15:10.000Z</time>
      </trkpt>
      <trkpt lat="43.60884" lon="1.4166">
        <ele>133</ele>
        <time>2020-10-03T06:15:11.000Z</time>
      </trkpt>
      <trkpt lat="43.60882" lon="1.41657">
        <ele>133</ele>
        <time>2020-10-03T06:15:12.000Z</time>
      </trkpt>
      <trkpt lat="43.6088" lon="1.41655">
        <ele>133</ele>
        <time>2020-10-03T06:15:13.000Z</time>
      </trkpt>
      <trkpt lat="43.60879" lon="1.41653">
        <ele>133</ele>
        <time>2020-10-03T06:15:14.000Z</time>
      </trkpt>
      <trkpt lat="43.60878" lon="1.41651">
        <ele>135</ele>
        <time>2020-10-03T06:15:35.000Z</time>
      </trkpt>
      <trkpt lat="43.60876" lon="1.41648">
        <ele>133</ele>
        <time>2020-10-03T06:15:55.000Z</time>
      </trkpt>
      <trkpt lat="43.60875" lon="1.41645">
        <ele>133</ele>
        <time>2020-10-03T06:15:56.000Z</time>
      </trkpt>
      <trkpt lat="43.60874" lon="1.41642">
        <ele>133</ele>
        <time>2020-10-03T06:15:57.000Z</time>
      </trkpt>
      <trkpt lat="43.60873" lon="1.41638">
        <ele>133</ele>
        <time>2020-10-03T06:15:58.000Z</time>
      </trkpt>
      <trkpt lat="43.60872" lon="1.41634">
        <ele>133</ele>
        <time>2020-10-03T06:15:59.000Z</time>
      </trkpt>
      <trkpt lat="43.60871" lon="1.41631">
        <ele>133</ele>
        <time>2020-10-03T06:16:00.000Z</time>
      </trkpt>
      <trkpt lat="43.60869" lon="1.41628">
        <ele>133</ele>
        <time>2020-10-03T06:16:01.000Z</time>
      </trkpt>
      <trkpt lat="43.60867" lon="1.41625">
        <ele>133</ele>
        <time>2020-10-03T06:16:02.000Z</time>
      </trkpt>
      <trkpt lat="43.60866" lon="1.41623">
        <ele>133</ele>
        <time>2020-10-03T06:16:03.000Z</time>
      </trkpt>
      <trkpt lat="43.60864" lon="1.4162">
        <ele>133</ele>
        <time>2020-10-03T06:16:04.000Z</time>
      </trkpt>
      <trkpt lat="43.60865" lon="1.41617">
        <ele>133</ele>
        <time>2020-10-03T06:16:05.000Z</time>
      </trkpt>
      <trkpt lat="43.60867" lon="1.41614">
        <ele>133</ele>
        <time>2020-10-03T06:16:06.000Z</time>
      </trkpt>
      <trkpt lat="43.60868" lon="1.41611">
        <ele>133</ele>
        <time>2020-10-03T06:16:07.000Z</time>
      </trkpt>
      <trkpt lat="43.6087" lon="1.41608">
        <ele>133.34234712116</ele>
        <time>2020-10-03T06:16:08.000Z</time>
      </trkpt>
      <trkpt lat="43.60872" lon="1.41606">
        <ele>134</ele>
        <time>2020-10-03T06:16:09.000Z</time>
      </trkpt>
      <trkpt lat="43.60874" lon="1.41603">
        <ele>134</ele>
        <time>2020-10-03T06:16:10.000Z</time>
      </trkpt>
      <trkpt lat="43.60876" lon="1.416">
        <ele>134</ele>
        <time>2020-10-03T06:16:11.000Z</time>
      </trkpt>
      <trkpt lat="43.60878" lon="1.41598">
        <ele>134</ele>
        <time>2020-10-03T06:16:12.000Z</time>
      </trkpt>
      <trkpt lat="43.6088" lon="1.41595">
        <ele>134</ele>
        <time>2020-10-03T06:16:13.000Z</time>
      </trkpt>
      <trkpt lat="43.60882" lon="1.41593">
        <ele>134</ele>
        <time>2020-10-03T06:16:14.000Z</time>
      </trkpt>
      <trkpt lat="43.60884" lon="1.4159">
        <ele>134</ele>
        <time>2020-10-03T06:16:15.000Z</time>
      </trkpt>
      <trkpt lat="43.60886" lon="1.41587">
        <ele>134</ele>
        <time>2020-10-03T06:16:16.000Z</time>
      </trkpt>
      <trkpt lat="43.60884" lon="1.41587">
        <ele>134</ele>
        <time>2020-10-03T06:16:20.000Z</time>
      </trkpt>
      <trkpt lat="43.60886" lon="1.41584">
        <ele>133</ele>
        <time>2020-10-03T06:16:23.000Z</time>
      </trkpt>
      <trkpt lat="43.60887" lon="1.41581">
        <ele>133</ele>
        <time>2020-10-03T06:16:25.000Z</time>
      </trkpt>
      <trkpt lat="43.60886" lon="1.41579">
        <ele>133</ele>
        <time>2020-10-03T06:16:27.000Z</time>
      </trkpt>
      <trkpt lat="43.60882" lon="1.41574">
        <ele>133</ele>
        <time>2020-10-03T06:16:29.000Z</time>
      </trkpt>
      <trkpt lat="43.60881" lon="1.41571">
        <ele>133</ele>
        <time>2020-10-03T06:16:30.000Z</time>
      </trkpt>
      <trkpt lat="43.6088" lon="1.41568">
        <ele>133</ele>
        <time>2020-10-03T06:16:31.000Z</time>
      </trkpt>
      <trkpt lat="43.60878" lon="1.41564">
        <ele>133</ele>
        <time>2020-10-03T06:16:32.000Z</time>
      </trkpt>
      <trkpt lat="43.60877" lon="1.41561">
        <ele>133</ele>
        <time>2020-10-03T06:16:33.000Z</time>
      </trkpt>
      <trkpt lat="43.60876" lon="1.41557">
        <ele>133</ele>
        <time>2020-10-03T06:16:34.000Z</time>
      </trkpt>
      <trkpt lat="43.60875" lon="1.41553">
        <ele>133</ele>
        <time>2020-10-03T06:16:35.000Z</time>
      </trkpt>
      <trkpt lat="43.60873" lon="1.4155">
        <ele>132.5377360769</ele>
        <time>2020-10-03T06:16:36.000Z</time>
      </trkpt>
      <trkpt lat="43.60872" lon="1.41546">
        <ele>132</ele>
        <time>2020-10-03T06:16:37.000Z</time>
      </trkpt>
      <trkpt lat="43.6087" lon="1.41544">
        <ele>132</ele>
        <time>2020-10-03T06:16:38.000Z</time>
      </trkpt>
      <trkpt lat="43.60868" lon="1.41541">
        <ele>132</ele>
        <time>2020-10-03T06:16:39.000Z</time>
      </trkpt>
      <trkpt lat="43.60866" lon="1.41539">
        <ele>132</ele>
        <time>2020-10-03T06:16:40.000Z</time>
      </trkpt>
      <trkpt lat="43.60863" lon="1.41537">
        <ele>132</ele>
        <time>2020-10-03T06:16:41.000Z</time>
      </trkpt>
      <trkpt lat="43.60861" lon="1.41535">
        <ele>132</ele>
        <time>2020-10-03T06:16:42.000Z</time>
      </trkpt>
      <trkpt lat="43.60858" lon="1.41533">
        <ele>132</ele>
        <time>2020-10-03T06:16:43.000Z</time>
      </trkpt>
      <trkpt lat="43.60856" lon="1.41532">
        <ele>132</ele>
        <time>2020-10-03T06:16:44.000Z</time>
      </trkpt>
      <trkpt lat="43.60853" lon="1.4153">
        <ele>132</ele>
        <time>2020-10-03T06:16:45.000Z</time>
      </trkpt>
      <trkpt lat="43.60851" lon="1.41529">
        <ele>132</ele>
        <time>2020-10-03T06:16:46.000Z</time>
      </trkpt>
      <trkpt lat="43.60848" lon="1.41527">
        <ele>132</ele>
        <time>2020-10-03T06:16:47.000Z</time>
      </trkpt>
      <trkpt lat="43.60846" lon="1.41525">
        <ele>132</ele>
        <time>2020-10-03T06:16:48.000Z</time>
      </trkpt>
      <trkpt lat="43.60843" lon="1.41523">
        <ele>131.64912477684</ele>
        <time>2020-10-03T06:16:49.000Z</time>
      </trkpt>
      <trkpt lat="43.60841" lon="1.41521">
        <ele>131</ele>
        <time>2020-10-03T06:16:50.000Z</time>
      </trkpt>
      <trkpt lat="43.60838" lon="1.4152">
        <ele>131</ele>
        <time>2020-10-03T06:16:51.000Z</time>
      </trkpt>
      <trkpt lat="43.60836" lon="1.41518">
        <ele>131</ele>
        <time>2020-10-03T06:16:52.000Z</time>
      </trkpt>
      <trkpt lat="43.60833" lon="1.41517">
        <ele>131</ele>
        <time>2020-10-03T06:16:53.000Z</time>
      </trkpt>
      <trkpt lat="43.6083" lon="1.41516">
        <ele>131</ele>
        <time>2020-10-03T06:16:54.000Z</time>
      </trkpt>
      <trkpt lat="43.60828" lon="1.41514">
        <ele>131</ele>
        <time>2020-10-03T06:16:55.000Z</time>
      </trkpt>
      <trkpt lat="43.60826" lon="1.41512">
        <ele>131</ele>
        <time>2020-10-03T06:16:57.000Z</time>
      </trkpt>
      <trkpt lat="43.60824" lon="1.4151">
        <ele>132.93056</ele>
        <time>2020-10-03T06:16:59.000Z</time>
      </trkpt>
      <trkpt lat="43.60823" lon="1.41505">
        <ele>133</ele>
        <time>2020-10-03T06:17:01.000Z</time>
      </trkpt>
      <trkpt lat="43.60824" lon="1.41502">
        <ele>134.44228923077</ele>
        <time>2020-10-03T06:17:02.000Z</time>
      </trkpt>
      <trkpt lat="43.60825" lon="1.415">
        <ele>136</ele>
        <time>2020-10-03T06:17:03.000Z</time>
      </trkpt>
      <trkpt lat="43.60829" lon="1.41496">
        <ele>136</ele>
        <time>2020-10-03T06:17:05.000Z</time>
      </trkpt>
      <trkpt lat="43.6083" lon="1.41495">
        <ele>136</ele>
        <time>2020-10-03T06:17:06.000Z</time>
      </trkpt>
      <trkpt lat="43.60832" lon="1.41492">
        <ele>135.5</ele>
        <time>2020-10-03T06:17:07.000Z</time>
      </trkpt>
      <trkpt lat="43.60833" lon="1.41489">
        <ele>135.48543520406</ele>
        <time>2020-10-03T06:17:08.000Z</time>
      </trkpt>
      <trkpt lat="43.60834" lon="1.41486">
        <ele>136</ele>
        <time>2020-10-03T06:17:09.000Z</time>
      </trkpt>
      <trkpt lat="43.60836" lon="1.41483">
        <ele>136</ele>
        <time>2020-10-03T06:17:10.000Z</time>
      </trkpt>
      <trkpt lat="43.60837" lon="1.4148">
        <ele>136</ele>
        <time>2020-10-03T06:17:11.000Z</time>
      </trkpt>
      <trkpt lat="43.60839" lon="1.41478">
        <ele>136</ele>
        <time>2020-10-03T06:17:12.000Z</time>
      </trkpt>
      <trkpt lat="43.6084" lon="1.41475">
        <ele>136</ele>
        <time>2020-10-03T06:17:13.000Z</time>
      </trkpt>
      <trkpt lat="43.60841" lon="1.41471">
        <ele>136</ele>
        <time>2020-10-03T06:17:14.000Z</time>
      </trkpt>
      <trkpt lat="43.60843" lon="1.41468">
        <ele>136</ele>
        <time>2020-10-03T06:17:15.000Z</time>
      </trkpt>
      <trkpt lat="43.60844" lon="1.41465">
        <ele>136</ele>
        <time>2020-10-03T06:17:16.000Z</time>
      </trkpt>
      <trkpt lat="43.60846" lon="1.41462">
        <ele>136</ele>
        <time>2020-10-03T06:17:17.000Z</time>
      </trkpt>
      <trkpt lat="43.60848" lon="1.4146">
        <ele>136</ele>
        <time>2020-10-03T06:17:18.000Z</time>
      </trkpt>
      <trkpt lat="43.6085" lon="1.41457">
        <ele>136</ele>
        <time>2020-10-03T06:17:19.000Z</time>
      </trkpt>
      <trkpt lat="43.60852" lon="1.41454">
        <ele>136</ele>
        <time>2020-10-03T06:17:20.000Z</time>
      </trkpt>
      <trkpt lat="43.60854" lon="1.41452">
        <ele>136</ele>
        <time>2020-10-03T06:17:21.000Z</time>
      </trkpt>
      <trkpt lat="43.60855" lon="1.41449">
        <ele>136</ele>
        <time>2020-10-03T06:17:22.000Z</time>
      </trkpt>
      <trkpt lat="43.60857" lon="1.41446">
        <ele>136.30973822227</ele>
        <time>2020-10-03T06:17:23.000Z</time>
      </trkpt>
      <trkpt lat="43.60859" lon="1.41443">
        <ele>137</ele>
        <time>2020-10-03T06:17:24.000Z</time>
      </trkpt>
      <trkpt lat="43.6086" lon="1.4144">
        <ele>137</ele>
        <time>2020-10-03T06:17:25.000Z</time>
      </trkpt>
      <trkpt lat="43.60862" lon="1.41436">
        <ele>136.57142857143</ele>
        <time>2020-10-03T06:17:26.000Z</time>
      </trkpt>
      <trkpt lat="43.60864" lon="1.41433">
        <ele>136</ele>
        <time>2020-10-03T06:17:27.000Z</time>
      </trkpt>
      <trkpt lat="43.60865" lon="1.4143">
        <ele>136</ele>
        <time>2020-10-03T06:17:28.000Z</time>
      </trkpt>
      <trkpt lat="43.60867" lon="1.41427">
        <ele>136</ele>
        <time>2020-10-03T06:17:29.000Z</time>
      </trkpt>
      <trkpt lat="43.60868" lon="1.41423">
        <ele>136</ele>
        <time>2020-10-03T06:17:30.000Z</time>
      </trkpt>
      <trkpt lat="43.6087" lon="1.4142">
        <ele>136</ele>
        <time>2020-10-03T06:17:31.000Z</time>
      </trkpt>
      <trkpt lat="43.60872" lon="1.41417">
        <ele>136</ele>
        <time>2020-10-03T06:17:32.000Z</time>
      </trkpt>
      <trkpt lat="43.60874" lon="1.41414">
        <ele>136</ele>
        <time>2020-10-03T06:17:33.000Z</time>
      </trkpt>
      <trkpt lat="43.60876" lon="1.41411">
        <ele>136</ele>
        <time>2020-10-03T06:17:34.000Z</time>
      </trkpt>
      <trkpt lat="43.60877" lon="1.41408">
        <ele>136</ele>
        <time>2020-10-03T06:17:35.000Z</time>
      </trkpt>
      <trkpt lat="43.60879" lon="1.41405">
        <ele>136</ele>
        <time>2020-10-03T06:17:36.000Z</time>
      </trkpt>
      <trkpt lat="43.60881" lon="1.41402">
        <ele>136</ele>
        <time>2020-10-03T06:17:37.000Z</time>
      </trkpt>
      <trkpt lat="43.60882" lon="1.41399">
        <ele>136</ele>
        <time>2020-10-03T06:17:38.000Z</time>
      </trkpt>
      <trkpt lat="43.60884" lon="1.41396">
        <ele>136</ele>
        <time>2020-10-03T06:17:39.000Z</time>
      </trkpt>
      <trkpt lat="43.60886" lon="1.41393">
        <ele>136</ele>
        <time>2020-10-03T06:17:40.000Z</time>
      </trkpt>
      <trkpt lat="43.60887" lon="1.4139">
        <ele>136</ele>
        <time>2020-10-03T06:17:41.000Z</time>
      </trkpt>
      <trkpt lat="43.60888" lon="1.41388">
        <ele>136</ele>
        <time>2020-10-03T06:17:42.000Z</time>
      </trkpt>
      <trkpt lat="43.6089" lon="1.41385">
        <ele>135.71276450884</ele>
        <time>2020-10-03T06:17:43.000Z</time>
      </trkpt>
      <trkpt lat="43.60891" lon="1.41383">
        <ele>135</ele>
        <time>2020-10-03T06:17:44.000Z</time>
      </trkpt>
      <trkpt lat="43.60893" lon="1.4138">
        <ele>135</ele>
        <time>2020-10-03T06:17:45.000Z</time>
      </trkpt>
      <trkpt lat="43.60894" lon="1.41378">
        <ele>135</ele>
        <time>2020-10-03T06:17:46.000Z</time>
      </trkpt>
      <trkpt lat="43.60896" lon="1.41377">
        <ele>135.42857343798</ele>
        <time>2020-10-03T06:17:47.000Z</time>
      </trkpt>
      <trkpt lat="43.60897" lon="1.41375">
        <ele>136</ele>
        <time>2020-10-03T06:17:48.000Z</time>
      </trkpt>
      <trkpt lat="43.60899" lon="1.41373">
        <ele>136</ele>
        <time>2020-10-03T06:17:49.000Z</time>
      </trkpt>
      <trkpt lat="43.60901" lon="1.41369">
        <ele>136</ele>
        <time>2020-10-03T06:17:51.000Z</time>
      </trkpt>
      <trkpt lat="43.60902" lon="1.41366">
        <ele>136</ele>
        <time>2020-10-03T06:17:52.000Z</time>
      </trkpt>
      <trkpt lat="43.60903" lon="1.41364">
        <ele>136</ele>
        <time>2020-10-03T06:17:53.000Z</time>
      </trkpt>
      <trkpt lat="43.60904" lon="1.41361">
        <ele>136</ele>
        <time>2020-10-03T06:17:54.000Z</time>
      </trkpt>
      <trkpt lat="43.60906" lon="1.41358">
        <ele>136</ele>
        <time>2020-10-03T06:17:55.000Z</time>
      </trkpt>
      <trkpt lat="43.60908" lon="1.41355">
        <ele>136</ele>
        <time>2020-10-03T06:17:56.000Z</time>
      </trkpt>
      <trkpt lat="43.6091" lon="1.41352">
        <ele>136</ele>
        <time>2020-10-03T06:17:57.000Z</time>
      </trkpt>
      <trkpt lat="43.60911" lon="1.41349">
        <ele>136</ele>
        <time>2020-10-03T06:17:58.000Z</time>
      </trkpt>
      <trkpt lat="43.60913" lon="1.41346">
        <ele>135.5699968</ele>
        <time>2020-10-03T06:17:59.000Z</time>
      </trkpt>
      <trkpt lat="43.60915" lon="1.41344">
        <ele>135</ele>
        <time>2020-10-03T06:18:00.000Z</time>
      </trkpt>
      <trkpt lat="43.60916" lon="1.41341">
        <ele>135</ele>
        <time>2020-10-03T06:18:01.000Z</time>
      </trkpt>
      <trkpt lat="43.60918" lon="1.41338">
        <ele>135.22131293737</ele>
        <time>2020-10-03T06:18:02.000Z</time>
      </trkpt>
      <trkpt lat="43.60919" lon="1.41336">
        <ele>136</ele>
        <time>2020-10-03T06:18:03.000Z</time>
      </trkpt>
      <trkpt lat="43.60921" lon="1.41333">
        <ele>136</ele>
        <time>2020-10-03T06:18:04.000Z</time>
      </trkpt>
      <trkpt lat="43.60923" lon="1.4133">
        <ele>136</ele>
        <time>2020-10-03T06:18:05.000Z</time>
      </trkpt>
      <trkpt lat="43.60924" lon="1.41326">
        <ele>136</ele>
        <time>2020-10-03T06:18:06.000Z</time>
      </trkpt>
      <trkpt lat="43.60925" lon="1.41323">
        <ele>136</ele>
        <time>2020-10-03T06:18:07.000Z</time>
      </trkpt>
      <trkpt lat="43.60927" lon="1.41321">
        <ele>136</ele>
        <time>2020-10-03T06:18:09.000Z</time>
      </trkpt>
      <trkpt lat="43.60928" lon="1.41316">
        <ele>136</ele>
        <time>2020-10-03T06:18:24.000Z</time>
      </trkpt>
      <trkpt lat="43.60929" lon="1.41313">
        <ele>136</ele>
        <time>2020-10-03T06:18:25.000Z</time>
      </trkpt>
      <trkpt lat="43.60931" lon="1.41309">
        <ele>136</ele>
        <time>2020-10-03T06:18:26.000Z</time>
      </trkpt>
      <trkpt lat="43.60933" lon="1.41306">
        <ele>136</ele>
        <time>2020-10-03T06:18:27.000Z</time>
      </trkpt>
      <trkpt lat="43.60934" lon="1.41303">
        <ele>136</ele>
        <time>2020-10-03T06:18:28.000Z</time>
      </trkpt>
      <trkpt lat="43.60936" lon="1.41299">
        <ele>136</ele>
        <time>2020-10-03T06:18:29.000Z</time>
      </trkpt>
      <trkpt lat="43.60938" lon="1.41296">
        <ele>136</ele>
        <time>2020-10-03T06:18:30.000Z</time>
      </trkpt>
      <trkpt lat="43.6094" lon="1.41292">
        <ele>136</ele>
        <time>2020-10-03T06:18:31.000Z</time>
      </trkpt>
      <trkpt lat="43.60946" lon="1.4128">
        <ele>136</ele>
        <time>2020-10-03T06:18:35.000Z</time>
      </trkpt>
      <trkpt lat="43.6095" lon="1.41263">
        <ele>136</ele>
        <time>2020-10-03T06:18:38.000Z</time>
      </trkpt>
      <trkpt lat="43.60956" lon="1.41253">
        <ele>136</ele>
        <time>2020-10-03T06:18:40.000Z</time>
      </trkpt>
      <trkpt lat="43.60957" lon="1.41249">
        <ele>136</ele>
        <time>2020-10-03T06:18:41.000Z</time>
      </trkpt>
      <trkpt lat="43.6096" lon="1.41246">
        <ele>136</ele>
        <time>2020-10-03T06:18:42.000Z</time>
      </trkpt>
      <trkpt lat="43.60966" lon="1.41241">
        <ele>136</ele>
        <time>2020-10-03T06:18:44.000Z</time>
      </trkpt>
      <trkpt lat="43.60968" lon="1.41238">
        <ele>136</ele>
        <time>2020-10-03T06:18:45.000Z</time>
      </trkpt>
      <trkpt lat="43.6097" lon="1.41235">
        <ele>136</ele>
        <time>2020-10-03T06:18:46.000Z</time>
      </trkpt>
      <trkpt lat="43.60973" lon="1.41231">
        <ele>136</ele>
        <time>2020-10-03T06:18:47.000Z</time>
      </trkpt>
      <trkpt lat="43.60974" lon="1.41228">
        <ele>136</ele>
        <time>2020-10-03T06:18:48.000Z</time>
      </trkpt>
      <trkpt lat="43.60976" lon="1.41224">
        <ele>136</ele>
        <time>2020-10-03T06:18:49.000Z</time>
      </trkpt>
      <trkpt lat="43.60978" lon="1.41221">
        <ele>136</ele>
        <time>2020-10-03T06:18:50.000Z</time>
      </trkpt>
      <trkpt lat="43.6098" lon="1.41217">
        <ele>136</ele>
        <time>2020-10-03T06:18:51.000Z</time>
      </trkpt>
      <trkpt lat="43.60982" lon="1.41214">
        <ele>136</ele>
        <time>2020-10-03T06:18:52.000Z</time>
      </trkpt>
      <trkpt lat="43.60984" lon="1.4121">
        <ele>136</ele>
        <time>2020-10-03T06:18:53.000Z</time>
      </trkpt>
      <trkpt lat="43.60987" lon="1.41207">
        <ele>136</ele>
        <time>2020-10-03T06:18:54.000Z</time>
      </trkpt>
      <trkpt lat="43.60988" lon="1.41204">
        <ele>136</ele>
        <time>2020-10-03T06:18:55.000Z</time>
      </trkpt>
      <trkpt lat="43.60991" lon="1.412">
        <ele>136</ele>
        <time>2020-10-03T06:18:56.000Z</time>
      </trkpt>
      <trkpt lat="43.60993" lon="1.41197">
        <ele>136</ele>
        <time>2020-10-03T06:18:57.000Z</time>
      </trkpt>
      <trkpt lat="43.60995" lon="1.41193">
        <ele>136</ele>
        <time>2020-10-03T06:18:58.000Z</time>
      </trkpt>
      <trkpt lat="43.60997" lon="1.4119">
        <ele>136</ele>
        <time>2020-10-03T06:18:59.000Z</time>
      </trkpt>
      <trkpt lat="43.60999" lon="1.41187">
        <ele>136</ele>
        <time>2020-10-03T06:19:00.000Z</time>
      </trkpt>
      <trkpt lat="43.61001" lon="1.41184">
        <ele>136</ele>
        <time>2020-10-03T06:19:01.000Z</time>
      </trkpt>
      <trkpt lat="43.61003" lon="1.4118">
        <ele>136</ele>
        <time>2020-10-03T06:19:02.000Z</time>
      </trkpt>
      <trkpt lat="43.61005" lon="1.41177">
        <ele>135.72662142127</ele>
        <time>2020-10-03T06:19:03.000Z</time>
      </trkpt>
      <trkpt lat="43.61007" lon="1.41174">
        <ele>135.00719199212</ele>
        <time>2020-10-03T06:19:04.000Z</time>
      </trkpt>
      <trkpt lat="43.61009" lon="1.41171">
        <ele>135</ele>
        <time>2020-10-03T06:19:05.000Z</time>
      </trkpt>
      <trkpt lat="43.6101" lon="1.41168">
        <ele>135</ele>
        <time>2020-10-03T06:19:06.000Z</time>
      </trkpt>
      <trkpt lat="43.61012" lon="1.41164">
        <ele>135</ele>
        <time>2020-10-03T06:19:07.000Z</time>
      </trkpt>
      <trkpt lat="43.61014" lon="1.41161">
        <ele>135</ele>
        <time>2020-10-03T06:19:08.000Z</time>
      </trkpt>
      <trkpt lat="43.61017" lon="1.41158">
        <ele>135</ele>
        <time>2020-10-03T06:19:09.000Z</time>
      </trkpt>
      <trkpt lat="43.61019" lon="1.41155">
        <ele>135.31395487289</ele>
        <time>2020-10-03T06:19:10.000Z</time>
      </trkpt>
      <trkpt lat="43.61021" lon="1.41151">
        <ele>136</ele>
        <time>2020-10-03T06:19:11.000Z</time>
      </trkpt>
      <trkpt lat="43.61022" lon="1.41147">
        <ele>136</ele>
        <time>2020-10-03T06:19:12.000Z</time>
      </trkpt>
      <trkpt lat="43.61024" lon="1.41144">
        <ele>136</ele>
        <time>2020-10-03T06:19:13.000Z</time>
      </trkpt>
      <trkpt lat="43.61026" lon="1.41141">
        <ele>136</ele>
        <time>2020-10-03T06:19:14.000Z</time>
      </trkpt>
      <trkpt lat="43.61028" lon="1.41138">
        <ele>136</ele>
        <time>2020-10-03T06:19:15.000Z</time>
      </trkpt>
      <trkpt lat="43.6103" lon="1.41135">
        <ele>136</ele>
        <time>2020-10-03T06:19:16.000Z</time>
      </trkpt>
      <trkpt lat="43.61032" lon="1.41132">
        <ele>136</ele>
        <time>2020-10-03T06:19:17.000Z</time>
      </trkpt>
      <trkpt lat="43.61033" lon="1.4113">
        <ele>136</ele>
        <time>2020-10-03T06:19:18.000Z</time>
      </trkpt>
      <trkpt lat="43.61035" lon="1.41127">
        <ele>136</ele>
        <time>2020-10-03T06:19:19.000Z</time>
      </trkpt>
      <trkpt lat="43.61037" lon="1.41124">
        <ele>136</ele>
        <time>2020-10-03T06:19:20.000Z</time>
      </trkpt>
      <trkpt lat="43.61039" lon="1.41121">
        <ele>136</ele>
        <time>2020-10-03T06:19:21.000Z</time>
      </trkpt>
      <trkpt lat="43.61041" lon="1.41118">
        <ele>136</ele>
        <time>2020-10-03T06:19:22.000Z</time>
      </trkpt>
      <trkpt lat="43.61043" lon="1.41116">
        <ele>136</ele>
        <time>2020-10-03T06:19:23.000Z</time>
      </trkpt>
      <trkpt lat="43.61045" lon="1.41113">
        <ele>136</ele>
        <time>2020-10-03T06:19:24.000Z</time>
      </trkpt>
      <trkpt lat="43.61047" lon="1.4111">
        <ele>136</ele>
        <time>2020-10-03T06:19:25.000Z</time>
      </trkpt>
      <trkpt lat="43.61049" lon="1.41107">
        <ele>136</ele>
        <time>2020-10-03T06:19:26.000Z</time>
      </trkpt>
      <trkpt lat="43.61051" lon="1.41105">
        <ele>136</ele>
        <time>2020-10-03T06:19:27.000Z</time>
      </trkpt>
      <trkpt lat="43.61053" lon="1.41102">
        <ele>135.63393142857</ele>
        <time>2020-10-03T06:19:28.000Z</time>
      </trkpt>
      <trkpt lat="43.61055" lon="1.411">
        <ele>135</ele>
        <time>2020-10-03T06:19:29.000Z</time>
      </trkpt>
      <trkpt lat="43.61056" lon="1.41097">
        <ele>135</ele>
        <time>2020-10-03T06:19:30.000Z</time>
      </trkpt>
      <trkpt lat="43.61058" lon="1.41094">
        <ele>134.85897141357</ele>
        <time>2020-10-03T06:19:31.000Z</time>
      </trkpt>
      <trkpt lat="43.61059" lon="1.41092">
        <ele>134</ele>
        <time>2020-10-03T06:19:32.000Z</time>
      </trkpt>
      <trkpt lat="43.61061" lon="1.41089">
        <ele>134</ele>
        <time>2020-10-03T06:19:33.000Z</time>
      </trkpt>
      <trkpt lat="43.61063" lon="1.41086">
        <ele>134</ele>
        <time>2020-10-03T06:19:34.000Z</time>
      </trkpt>
      <trkpt lat="43.61065" lon="1.41083">
        <ele>134</ele>
        <time>2020-10-03T06:19:35.000Z</time>
      </trkpt>
      <trkpt lat="43.61066" lon="1.41081">
        <ele>134</ele>
        <time>2020-10-03T06:19:36.000Z</time>
      </trkpt>
      <trkpt lat="43.61068" lon="1.41078">
        <ele>134</ele>
        <time>2020-10-03T06:19:37.000Z</time>
      </trkpt>
      <trkpt lat="43.6107" lon="1.41075">
        <ele>134</ele>
        <time>2020-10-03T06:19:38.000Z</time>
      </trkpt>
      <trkpt lat="43.61072" lon="1.41072">
        <ele>134</ele>
        <time>2020-10-03T06:19:39.000Z</time>
      </trkpt>
      <trkpt lat="43.61074" lon="1.41069">
        <ele>134</ele>
        <time>2020-10-03T06:19:40.000Z</time>
      </trkpt>
      <trkpt lat="43.61076" lon="1.41067">
        <ele>134</ele>
        <time>2020-10-03T06:19:41.000Z</time>
      </trkpt>
      <trkpt lat="43.61078" lon="1.41065">
        <ele>134.35514510611</ele>
        <time>2020-10-03T06:19:42.000Z</time>
      </trkpt>
      <trkpt lat="43.6108" lon="1.41062">
        <ele>135</ele>
        <time>2020-10-03T06:19:43.000Z</time>
      </trkpt>
      <trkpt lat="43.61082" lon="1.4106">
        <ele>135</ele>
        <time>2020-10-03T06:19:44.000Z</time>
      </trkpt>
      <trkpt lat="43.61084" lon="1.41058">
        <ele>135.31395487289</ele>
        <time>2020-10-03T06:19:45.000Z</time>
      </trkpt>
      <trkpt lat="43.61086" lon="1.41055">
        <ele>136</ele>
        <time>2020-10-03T06:19:46.000Z</time>
      </trkpt>
      <trkpt lat="43.61088" lon="1.41053">
        <ele>136</ele>
        <time>2020-10-03T06:19:47.000Z</time>
      </trkpt>
      <trkpt lat="43.6109" lon="1.41051">
        <ele>136</ele>
        <time>2020-10-03T06:19:48.000Z</time>
      </trkpt>
      <trkpt lat="43.61092" lon="1.41048">
        <ele>136</ele>
        <time>2020-10-03T06:19:49.000Z</time>
      </trkpt>
      <trkpt lat="43.61094" lon="1.41046">
        <ele>136</ele>
        <time>2020-10-03T06:19:50.000Z</time>
      </trkpt>
      <trkpt lat="43.61096" lon="1.41043">
        <ele>136</ele>
        <time>2020-10-03T06:19:51.000Z</time>
      </trkpt>
      <trkpt lat="43.61098" lon="1.41041">
        <ele>136</ele>
        <time>2020-10-03T06:19:52.000Z</time>
      </trkpt>
      <trkpt lat="43.611" lon="1.41038">
        <ele>136</ele>
        <time>2020-10-03T06:19:53.000Z</time>
      </trkpt>
      <trkpt lat="43.61102" lon="1.41035">
        <ele>136</ele>
        <time>2020-10-03T06:19:54.000Z</time>
      </trkpt>
      <trkpt lat="43.61104" lon="1.41032">
        <ele>136</ele>
        <time>2020-10-03T06:19:55.000Z</time>
      </trkpt>
      <trkpt lat="43.61106" lon="1.4103">
        <ele>136</ele>
        <time>2020-10-03T06:19:56.000Z</time>
      </trkpt>
      <trkpt lat="43.61108" lon="1.41027">
        <ele>136</ele>
        <time>2020-10-03T06:19:57.000Z</time>
      </trkpt>
      <trkpt lat="43.61111" lon="1.41024">
        <ele>136</ele>
        <time>2020-10-03T06:19:58.000Z</time>
      </trkpt>
      <trkpt lat="43.61113" lon="1.41022">
        <ele>136</ele>
        <time>2020-10-03T06:19:59.000Z</time>
      </trkpt>
      <trkpt lat="43.61115" lon="1.41019">
        <ele>136</ele>
        <time>2020-10-03T06:20:00.000Z</time>
      </trkpt>
      <trkpt lat="43.61117" lon="1.41017">
        <ele>136</ele>
        <time>2020-10-03T06:20:01.000Z</time>
      </trkpt>
      <trkpt lat="43.61118" lon="1.41014">
        <ele>136</ele>
        <time>2020-10-03T06:20:02.000Z</time>
      </trkpt>
      <trkpt lat="43.6112" lon="1.41012">
        <ele>136</ele>
        <time>2020-10-03T06:20:03.000Z</time>
      </trkpt>
      <trkpt lat="43.61122" lon="1.4101">
        <ele>136</ele>
        <time>2020-10-03T06:20:04.000Z</time>
      </trkpt>
      <trkpt lat="43.61124" lon="1.41007">
        <ele>136</ele>
        <time>2020-10-03T06:20:05.000Z</time>
      </trkpt>
      <trkpt lat="43.61126" lon="1.41005">
        <ele>136</ele>
        <time>2020-10-03T06:20:06.000Z</time>
      </trkpt>
      <trkpt lat="43.61128" lon="1.41003">
        <ele>135.55555871603</ele>
        <time>2020-10-03T06:20:07.000Z</time>
      </trkpt>
      <trkpt lat="43.6113" lon="1.41001">
        <ele>135</ele>
        <time>2020-10-03T06:20:08.000Z</time>
      </trkpt>
      <trkpt lat="43.61132" lon="1.40998">
        <ele>135</ele>
        <time>2020-10-03T06:20:09.000Z</time>
      </trkpt>
      <trkpt lat="43.61134" lon="1.40996">
        <ele>135.29591703456</ele>
        <time>2020-10-03T06:20:10.000Z</time>
      </trkpt>
      <trkpt lat="43.61136" lon="1.40994">
        <ele>136</ele>
        <time>2020-10-03T06:20:11.000Z</time>
      </trkpt>
      <trkpt lat="43.61139" lon="1.40991">
        <ele>136</ele>
        <time>2020-10-03T06:20:12.000Z</time>
      </trkpt>
      <trkpt lat="43.61141" lon="1.40988">
        <ele>136</ele>
        <time>2020-10-03T06:20:13.000Z</time>
      </trkpt>
      <trkpt lat="43.61143" lon="1.40985">
        <ele>136</ele>
        <time>2020-10-03T06:20:14.000Z</time>
      </trkpt>
      <trkpt lat="43.61145" lon="1.40983">
        <ele>136</ele>
        <time>2020-10-03T06:20:15.000Z</time>
      </trkpt>
      <trkpt lat="43.61147" lon="1.4098">
        <ele>136</ele>
        <time>2020-10-03T06:20:16.000Z</time>
      </trkpt>
      <trkpt lat="43.61149" lon="1.40978">
        <ele>136</ele>
        <time>2020-10-03T06:20:17.000Z</time>
      </trkpt>
      <trkpt lat="43.61151" lon="1.40975">
        <ele>136</ele>
        <time>2020-10-03T06:20:18.000Z</time>
      </trkpt>
      <trkpt lat="43.61153" lon="1.40973">
        <ele>136</ele>
        <time>2020-10-03T06:20:19.000Z</time>
      </trkpt>
      <trkpt lat="43.61155" lon="1.4097">
        <ele>136</ele>
        <time>2020-10-03T06:20:20.000Z</time>
      </trkpt>
      <trkpt lat="43.61158" lon="1.40968">
        <ele>135.67592296296</ele>
        <time>2020-10-03T06:20:21.000Z</time>
      </trkpt>
      <trkpt lat="43.6116" lon="1.40965">
        <ele>135</ele>
        <time>2020-10-03T06:20:22.000Z</time>
      </trkpt>
      <trkpt lat="43.61163" lon="1.40962">
        <ele>135</ele>
        <time>2020-10-03T06:20:23.000Z</time>
      </trkpt>
      <trkpt lat="43.61165" lon="1.4096">
        <ele>135</ele>
        <time>2020-10-03T06:20:24.000Z</time>
      </trkpt>
      <trkpt lat="43.61167" lon="1.40958">
        <ele>135</ele>
        <time>2020-10-03T06:20:25.000Z</time>
      </trkpt>
      <trkpt lat="43.61169" lon="1.40955">
        <ele>135</ele>
        <time>2020-10-03T06:20:26.000Z</time>
      </trkpt>
      <trkpt lat="43.61172" lon="1.40952">
        <ele>135</ele>
        <time>2020-10-03T06:20:27.000Z</time>
      </trkpt>
      <trkpt lat="43.61174" lon="1.4095">
        <ele>135</ele>
        <time>2020-10-03T06:20:28.000Z</time>
      </trkpt>
      <trkpt lat="43.61176" lon="1.40947">
        <ele>135</ele>
        <time>2020-10-03T06:20:29.000Z</time>
      </trkpt>
      <trkpt lat="43.61178" lon="1.40945">
        <ele>135</ele>
        <time>2020-10-03T06:20:30.000Z</time>
      </trkpt>
      <trkpt lat="43.6118" lon="1.40942">
        <ele>135.33333739684</ele>
        <time>2020-10-03T06:20:31.000Z</time>
      </trkpt>
      <trkpt lat="43.61182" lon="1.4094">
        <ele>136</ele>
        <time>2020-10-03T06:20:32.000Z</time>
      </trkpt>
      <trkpt lat="43.61184" lon="1.40937">
        <ele>136</ele>
        <time>2020-10-03T06:20:33.000Z</time>
      </trkpt>
      <trkpt lat="43.61187" lon="1.40935">
        <ele>136</ele>
        <time>2020-10-03T06:20:34.000Z</time>
      </trkpt>
      <trkpt lat="43.61189" lon="1.40932">
        <ele>136</ele>
        <time>2020-10-03T06:20:35.000Z</time>
      </trkpt>
      <trkpt lat="43.61191" lon="1.4093">
        <ele>136</ele>
        <time>2020-10-03T06:20:36.000Z</time>
      </trkpt>
      <trkpt lat="43.61193" lon="1.40928">
        <ele>136</ele>
        <time>2020-10-03T06:20:37.000Z</time>
      </trkpt>
      <trkpt lat="43.61195" lon="1.40925">
        <ele>136</ele>
        <time>2020-10-03T06:20:38.000Z</time>
      </trkpt>
      <trkpt lat="43.61197" lon="1.40923">
        <ele>136</ele>
        <time>2020-10-03T06:20:39.000Z</time>
      </trkpt>
      <trkpt lat="43.61199" lon="1.40921">
        <ele>136</ele>
        <time>2020-10-03T06:20:40.000Z</time>
      </trkpt>
      <trkpt lat="43.61201" lon="1.40918">
        <ele>136</ele>
        <time>2020-10-03T06:20:41.000Z</time>
      </trkpt>
      <trkpt lat="43.61204" lon="1.40916">
        <ele>136</ele>
        <time>2020-10-03T06:20:42.000Z</time>
      </trkpt>
      <trkpt lat="43.61206" lon="1.40913">
        <ele>136</ele>
        <time>2020-10-03T06:20:43.000Z</time>
      </trkpt>
      <trkpt lat="43.61208" lon="1.40911">
        <ele>136</ele>
        <time>2020-10-03T06:20:44.000Z</time>
      </trkpt>
      <trkpt lat="43.6121" lon="1.40909">
        <ele>136</ele>
        <time>2020-10-03T06:20:45.000Z</time>
      </trkpt>
      <trkpt lat="43.61213" lon="1.40906">
        <ele>136</ele>
        <time>2020-10-03T06:20:46.000Z</time>
      </trkpt>
      <trkpt lat="43.61214" lon="1.40904">
        <ele>136</ele>
        <time>2020-10-03T06:20:47.000Z</time>
      </trkpt>
      <trkpt lat="43.61216" lon="1.40901">
        <ele>136</ele>
        <time>2020-10-03T06:20:48.000Z</time>
      </trkpt>
      <trkpt lat="43.61218" lon="1.40899">
        <ele>136</ele>
        <time>2020-10-03T06:20:49.000Z</time>
      </trkpt>
      <trkpt lat="43.61221" lon="1.40897">
        <ele>136</ele>
        <time>2020-10-03T06:20:50.000Z</time>
      </trkpt>
      <trkpt lat="43.61223" lon="1.40895">
        <ele>136</ele>
        <time>2020-10-03T06:20:51.000Z</time>
      </trkpt>
      <trkpt lat="43.61225" lon="1.40892">
        <ele>136</ele>
        <time>2020-10-03T06:20:52.000Z</time>
      </trkpt>
      <trkpt lat="43.61227" lon="1.4089">
        <ele>136</ele>
        <time>2020-10-03T06:20:53.000Z</time>
      </trkpt>
      <trkpt lat="43.61229" lon="1.40887">
        <ele>136</ele>
        <time>2020-10-03T06:20:54.000Z</time>
      </trkpt>
      <trkpt lat="43.61232" lon="1.40885">
        <ele>136</ele>
        <time>2020-10-03T06:20:55.000Z</time>
      </trkpt>
      <trkpt lat="43.61234" lon="1.40883">
        <ele>136</ele>
        <time>2020-10-03T06:20:56.000Z</time>
      </trkpt>
      <trkpt lat="43.61236" lon="1.4088">
        <ele>136</ele>
        <time>2020-10-03T06:20:57.000Z</time>
      </trkpt>
      <trkpt lat="43.61238" lon="1.40878">
        <ele>136</ele>
        <time>2020-10-03T06:20:58.000Z</time>
      </trkpt>
      <trkpt lat="43.6124" lon="1.40875">
        <ele>136</ele>
        <time>2020-10-03T06:20:59.000Z</time>
      </trkpt>
      <trkpt lat="43.61242" lon="1.40873">
        <ele>136</ele>
        <time>2020-10-03T06:21:00.000Z</time>
      </trkpt>
      <trkpt lat="43.61244" lon="1.4087">
        <ele>136</ele>
        <time>2020-10-03T06:21:01.000Z</time>
      </trkpt>
      <trkpt lat="43.61246" lon="1.40867">
        <ele>136</ele>
        <time>2020-10-03T06:21:02.000Z</time>
      </trkpt>
      <trkpt lat="43.61248" lon="1.40865">
        <ele>136</ele>
        <time>2020-10-03T06:21:03.000Z</time>
      </trkpt>
      <trkpt lat="43.6125" lon="1.40862">
        <ele>136</ele>
        <time>2020-10-03T06:21:04.000Z</time>
      </trkpt>
      <trkpt lat="43.61252" lon="1.4086">
        <ele>136</ele>
        <time>2020-10-03T06:21:05.000Z</time>
      </trkpt>
      <trkpt lat="43.61255" lon="1.40857">
        <ele>136</ele>
        <time>2020-10-03T06:21:06.000Z</time>
      </trkpt>
      <trkpt lat="43.61257" lon="1.40855">
        <ele>136</ele>
        <time>2020-10-03T06:21:07.000Z</time>
      </trkpt>
      <trkpt lat="43.61259" lon="1.40852">
        <ele>136</ele>
        <time>2020-10-03T06:21:08.000Z</time>
      </trkpt>
      <trkpt lat="43.61261" lon="1.4085">
        <ele>136</ele>
        <time>2020-10-03T06:21:09.000Z</time>
      </trkpt>
      <trkpt lat="43.61263" lon="1.40848">
        <ele>136</ele>
        <time>2020-10-03T06:21:10.000Z</time>
      </trkpt>
      <trkpt lat="43.61266" lon="1.40845">
        <ele>136</ele>
        <time>2020-10-03T06:21:11.000Z</time>
      </trkpt>
      <trkpt lat="43.61268" lon="1.40843">
        <ele>136</ele>
        <time>2020-10-03T06:21:12.000Z</time>
      </trkpt>
      <trkpt lat="43.61271" lon="1.4084">
        <ele>136</ele>
        <time>2020-10-03T06:21:13.000Z</time>
      </trkpt>
      <trkpt lat="43.61273" lon="1.40838">
        <ele>136</ele>
        <time>2020-10-03T06:21:14.000Z</time>
      </trkpt>
      <trkpt lat="43.61275" lon="1.40836">
        <ele>136</ele>
        <time>2020-10-03T06:21:15.000Z</time>
      </trkpt>
      <trkpt lat="43.61277" lon="1.40834">
        <ele>136</ele>
        <time>2020-10-03T06:21:16.000Z</time>
      </trkpt>
      <trkpt lat="43.61279" lon="1.40831">
        <ele>136</ele>
        <time>2020-10-03T06:21:17.000Z</time>
      </trkpt>
      <trkpt lat="43.61281" lon="1.40829">
        <ele>136</ele>
        <time>2020-10-03T06:21:18.000Z</time>
      </trkpt>
      <trkpt lat="43.61283" lon="1.40827">
        <ele>136</ele>
        <time>2020-10-03T06:21:19.000Z</time>
      </trkpt>
      <trkpt lat="43.61285" lon="1.40824">
        <ele>136</ele>
        <time>2020-10-03T06:21:20.000Z</time>
      </trkpt>
      <trkpt lat="43.61287" lon="1.40822">
        <ele>136</ele>
        <time>2020-10-03T06:21:21.000Z</time>
      </trkpt>
      <trkpt lat="43.61289" lon="1.40819">
        <ele>136</ele>
        <time>2020-10-03T06:21:22.000Z</time>
      </trkpt>
      <trkpt lat="43.61292" lon="1.40817">
        <ele>136</ele>
        <time>2020-10-03T06:21:23.000Z</time>
      </trkpt>
      <trkpt lat="43.61294" lon="1.40815">
        <ele>136</ele>
        <time>2020-10-03T06:21:24.000Z</time>
      </trkpt>
      <trkpt lat="43.61296" lon="1.40812">
        <ele>136</ele>
        <time>2020-10-03T06:21:25.000Z</time>
      </trkpt>
      <trkpt lat="43.61297" lon="1.4081">
        <ele>136</ele>
        <time>2020-10-03T06:21:26.000Z</time>
      </trkpt>
      <trkpt lat="43.61299" lon="1.40808">
        <ele>136</ele>
        <time>2020-10-03T06:21:27.000Z</time>
      </trkpt>
      <trkpt lat="43.61302" lon="1.40805">
        <ele>136</ele>
        <time>2020-10-03T06:21:28.000Z</time>
      </trkpt>
      <trkpt lat="43.61304" lon="1.40803">
        <ele>136</ele>
        <time>2020-10-03T06:21:29.000Z</time>
      </trkpt>
      <trkpt lat="43.61306" lon="1.40801">
        <ele>136</ele>
        <time>2020-10-03T06:21:30.000Z</time>
      </trkpt>
      <trkpt lat="43.61308" lon="1.40799">
        <ele>136</ele>
        <time>2020-10-03T06:21:31.000Z</time>
      </trkpt>
      <trkpt lat="43.61311" lon="1.40797">
        <ele>136</ele>
        <time>2020-10-03T06:21:32.000Z</time>
      </trkpt>
      <trkpt lat="43.61313" lon="1.40795">
        <ele>136</ele>
        <time>2020-10-03T06:21:33.000Z</time>
      </trkpt>
      <trkpt lat="43.61315" lon="1.40792">
        <ele>136</ele>
        <time>2020-10-03T06:21:34.000Z</time>
      </trkpt>
      <trkpt lat="43.61317" lon="1.4079">
        <ele>136</ele>
        <time>2020-10-03T06:21:35.000Z</time>
      </trkpt>
      <trkpt lat="43.61319" lon="1.40787">
        <ele>136</ele>
        <time>2020-10-03T06:21:36.000Z</time>
      </trkpt>
      <trkpt lat="43.61322" lon="1.40785">
        <ele>135.57292</ele>
        <time>2020-10-03T06:21:37.000Z</time>
      </trkpt>
      <trkpt lat="43.61324" lon="1.40782">
        <ele>135</ele>
        <time>2020-10-03T06:21:38.000Z</time>
      </trkpt>
      <trkpt lat="43.61326" lon="1.4078">
        <ele>135</ele>
        <time>2020-10-03T06:21:39.000Z</time>
      </trkpt>
      <trkpt lat="43.61328" lon="1.40777">
        <ele>135</ele>
        <time>2020-10-03T06:21:40.000Z</time>
      </trkpt>
      <trkpt lat="43.6133" lon="1.40774">
        <ele>135</ele>
        <time>2020-10-03T06:21:41.000Z</time>
      </trkpt>
      <trkpt lat="43.61333" lon="1.40772">
        <ele>135</ele>
        <time>2020-10-03T06:21:42.000Z</time>
      </trkpt>
      <trkpt lat="43.61335" lon="1.4077">
        <ele>135.29496104757</ele>
        <time>2020-10-03T06:21:43.000Z</time>
      </trkpt>
      <trkpt lat="43.61337" lon="1.40768">
        <ele>136</ele>
        <time>2020-10-03T06:21:44.000Z</time>
      </trkpt>
      <trkpt lat="43.61339" lon="1.40765">
        <ele>136</ele>
        <time>2020-10-03T06:21:45.000Z</time>
      </trkpt>
      <trkpt lat="43.61341" lon="1.40763">
        <ele>136</ele>
        <time>2020-10-03T06:21:46.000Z</time>
      </trkpt>
      <trkpt lat="43.61343" lon="1.4076">
        <ele>136</ele>
        <time>2020-10-03T06:21:47.000Z</time>
      </trkpt>
      <trkpt lat="43.61346" lon="1.40757">
        <ele>136</ele>
        <time>2020-10-03T06:21:48.000Z</time>
      </trkpt>
      <trkpt lat="43.61348" lon="1.40755">
        <ele>136</ele>
        <time>2020-10-03T06:21:49.000Z</time>
      </trkpt>
      <trkpt lat="43.6135" lon="1.40752">
        <ele>136</ele>
        <time>2020-10-03T06:21:50.000Z</time>
      </trkpt>
      <trkpt lat="43.61353" lon="1.4075">
        <ele>136</ele>
        <time>2020-10-03T06:21:51.000Z</time>
      </trkpt>
      <trkpt lat="43.61355" lon="1.40747">
        <ele>136</ele>
        <time>2020-10-03T06:21:52.000Z</time>
      </trkpt>
      <trkpt lat="43.61357" lon="1.40745">
        <ele>136</ele>
        <time>2020-10-03T06:21:53.000Z</time>
      </trkpt>
      <trkpt lat="43.61359" lon="1.40742">
        <ele>136</ele>
        <time>2020-10-03T06:21:54.000Z</time>
      </trkpt>
      <trkpt lat="43.61361" lon="1.4074">
        <ele>136</ele>
        <time>2020-10-03T06:21:55.000Z</time>
      </trkpt>
      <trkpt lat="43.61363" lon="1.40738">
        <ele>136</ele>
        <time>2020-10-03T06:21:56.000Z</time>
      </trkpt>
      <trkpt lat="43.61365" lon="1.40736">
        <ele>136</ele>
        <time>2020-10-03T06:21:57.000Z</time>
      </trkpt>
      <trkpt lat="43.61367" lon="1.40733">
        <ele>136</ele>
        <time>2020-10-03T06:21:58.000Z</time>
      </trkpt>
      <trkpt lat="43.61369" lon="1.40731">
        <ele>136</ele>
        <time>2020-10-03T06:21:59.000Z</time>
      </trkpt>
      <trkpt lat="43.61371" lon="1.40729">
        <ele>136</ele>
        <time>2020-10-03T06:22:00.000Z</time>
      </trkpt>
      <trkpt lat="43.61373" lon="1.40727">
        <ele>136</ele>
        <time>2020-10-03T06:22:01.000Z</time>
      </trkpt>
      <trkpt lat="43.61375" lon="1.40724">
        <ele>136</ele>
        <time>2020-10-03T06:22:02.000Z</time>
      </trkpt>
      <trkpt lat="43.61378" lon="1.40722">
        <ele>136</ele>
        <time>2020-10-03T06:22:03.000Z</time>
      </trkpt>
      <trkpt lat="43.6138" lon="1.4072">
        <ele>136.33333642511</ele>
        <time>2020-10-03T06:22:04.000Z</time>
      </trkpt>
      <trkpt lat="43.61382" lon="1.40717">
        <ele>137</ele>
        <time>2020-10-03T06:22:05.000Z</time>
      </trkpt>
      <trkpt lat="43.61384" lon="1.40715">
        <ele>137</ele>
        <time>2020-10-03T06:22:06.000Z</time>
      </trkpt>
      <trkpt lat="43.61386" lon="1.40712">
        <ele>137</ele>
        <time>2020-10-03T06:22:07.000Z</time>
      </trkpt>
      <trkpt lat="43.61388" lon="1.4071">
        <ele>137</ele>
        <time>2020-10-03T06:22:08.000Z</time>
      </trkpt>
      <trkpt lat="43.6139" lon="1.40708">
        <ele>137</ele>
        <time>2020-10-03T06:22:09.000Z</time>
      </trkpt>
      <trkpt lat="43.61392" lon="1.40705">
        <ele>137</ele>
        <time>2020-10-03T06:22:10.000Z</time>
      </trkpt>
      <trkpt lat="43.61394" lon="1.40703">
        <ele>136.57522003602</ele>
        <time>2020-10-03T06:22:11.000Z</time>
      </trkpt>
      <trkpt lat="43.61396" lon="1.40701">
        <ele>136</ele>
        <time>2020-10-03T06:22:12.000Z</time>
      </trkpt>
      <trkpt lat="43.61398" lon="1.40698">
        <ele>136</ele>
        <time>2020-10-03T06:22:13.000Z</time>
      </trkpt>
      <trkpt lat="43.614" lon="1.40695">
        <ele>136</ele>
        <time>2020-10-03T06:22:14.000Z</time>
      </trkpt>
      <trkpt lat="43.61402" lon="1.40693">
        <ele>136</ele>
        <time>2020-10-03T06:22:15.000Z</time>
      </trkpt>
      <trkpt lat="43.61404" lon="1.4069">
        <ele>136</ele>
        <time>2020-10-03T06:22:16.000Z</time>
      </trkpt>
      <trkpt lat="43.61406" lon="1.40688">
        <ele>136</ele>
        <time>2020-10-03T06:22:17.000Z</time>
      </trkpt>
      <trkpt lat="43.61409" lon="1.40686">
        <ele>136</ele>
        <time>2020-10-03T06:22:18.000Z</time>
      </trkpt>
      <trkpt lat="43.61411" lon="1.40683">
        <ele>136</ele>
        <time>2020-10-03T06:22:19.000Z</time>
      </trkpt>
      <trkpt lat="43.61413" lon="1.40681">
        <ele>136</ele>
        <time>2020-10-03T06:22:20.000Z</time>
      </trkpt>
      <trkpt lat="43.61415" lon="1.40678">
        <ele>136</ele>
        <time>2020-10-03T06:22:21.000Z</time>
      </trkpt>
      <trkpt lat="43.61417" lon="1.40676">
        <ele>136</ele>
        <time>2020-10-03T06:22:22.000Z</time>
      </trkpt>
      <trkpt lat="43.61419" lon="1.40673">
        <ele>136</ele>
        <time>2020-10-03T06:22:23.000Z</time>
      </trkpt>
      <trkpt lat="43.61421" lon="1.40671">
        <ele>136</ele>
        <time>2020-10-03T06:22:24.000Z</time>
      </trkpt>
      <trkpt lat="43.61424" lon="1.40668">
        <ele>136</ele>
        <time>2020-10-03T06:22:25.000Z</time>
      </trkpt>
      <trkpt lat="43.61426" lon="1.40666">
        <ele>136</ele>
        <time>2020-10-03T06:22:26.000Z</time>
      </trkpt>
      <trkpt lat="43.61429" lon="1.40663">
        <ele>136</ele>
        <time>2020-10-03T06:22:27.000Z</time>
      </trkpt>
      <trkpt lat="43.61431" lon="1.4066">
        <ele>136</ele>
        <time>2020-10-03T06:22:28.000Z</time>
      </trkpt>
      <trkpt lat="43.61433" lon="1.40658">
        <ele>136</ele>
        <time>2020-10-03T06:22:29.000Z</time>
      </trkpt>
      <trkpt lat="43.61435" lon="1.40656">
        <ele>136</ele>
        <time>2020-10-03T06:22:30.000Z</time>
      </trkpt>
      <trkpt lat="43.61437" lon="1.40654">
        <ele>136</ele>
        <time>2020-10-03T06:22:31.000Z</time>
      </trkpt>
      <trkpt lat="43.61439" lon="1.40652">
        <ele>136</ele>
        <time>2020-10-03T06:22:32.000Z</time>
      </trkpt>
      <trkpt lat="43.61441" lon="1.4065">
        <ele>136</ele>
        <time>2020-10-03T06:22:33.000Z</time>
      </trkpt>
      <trkpt lat="43.61444" lon="1.40648">
        <ele>136</ele>
        <time>2020-10-03T06:22:34.000Z</time>
      </trkpt>
      <trkpt lat="43.61446" lon="1.40645">
        <ele>136</ele>
        <time>2020-10-03T06:22:35.000Z</time>
      </trkpt>
      <trkpt lat="43.61448" lon="1.40642">
        <ele>136</ele>
        <time>2020-10-03T06:22:36.000Z</time>
      </trkpt>
      <trkpt lat="43.6145" lon="1.4064">
        <ele>136</ele>
        <time>2020-10-03T06:22:37.000Z</time>
      </trkpt>
      <trkpt lat="43.61452" lon="1.40637">
        <ele>136</ele>
        <time>2020-10-03T06:22:38.000Z</time>
      </trkpt>
      <trkpt lat="43.61454" lon="1.40635">
        <ele>136</ele>
        <time>2020-10-03T06:22:39.000Z</time>
      </trkpt>
      <trkpt lat="43.61456" lon="1.40632">
        <ele>136</ele>
        <time>2020-10-03T06:22:40.000Z</time>
      </trkpt>
      <trkpt lat="43.61461" lon="1.40627">
        <ele>136</ele>
        <time>2020-10-03T06:22:42.000Z</time>
      </trkpt>
      <trkpt lat="43.61463" lon="1.40625">
        <ele>136</ele>
        <time>2020-10-03T06:22:43.000Z</time>
      </trkpt>
      <trkpt lat="43.61465" lon="1.40622">
        <ele>136</ele>
        <time>2020-10-03T06:22:44.000Z</time>
      </trkpt>
      <trkpt lat="43.61467" lon="1.4062">
        <ele>136</ele>
        <time>2020-10-03T06:22:45.000Z</time>
      </trkpt>
      <trkpt lat="43.61469" lon="1.40618">
        <ele>135.54545771903</ele>
        <time>2020-10-03T06:22:46.000Z</time>
      </trkpt>
      <trkpt lat="43.61471" lon="1.40615">
        <ele>135.44444128397</ele>
        <time>2020-10-03T06:22:47.000Z</time>
      </trkpt>
      <trkpt lat="43.61474" lon="1.40612">
        <ele>136</ele>
        <time>2020-10-03T06:22:48.000Z</time>
      </trkpt>
      <trkpt lat="43.61476" lon="1.40609">
        <ele>136</ele>
        <time>2020-10-03T06:22:49.000Z</time>
      </trkpt>
      <trkpt lat="43.61478" lon="1.40607">
        <ele>136</ele>
        <time>2020-10-03T06:22:50.000Z</time>
      </trkpt>
      <trkpt lat="43.6148" lon="1.40605">
        <ele>136</ele>
        <time>2020-10-03T06:22:51.000Z</time>
      </trkpt>
      <trkpt lat="43.61483" lon="1.40603">
        <ele>136</ele>
        <time>2020-10-03T06:22:52.000Z</time>
      </trkpt>
      <trkpt lat="43.61485" lon="1.40601">
        <ele>136</ele>
        <time>2020-10-03T06:22:53.000Z</time>
      </trkpt>
      <trkpt lat="43.61487" lon="1.40599">
        <ele>136</ele>
        <time>2020-10-03T06:22:54.000Z</time>
      </trkpt>
      <trkpt lat="43.61489" lon="1.40597">
        <ele>135.5699968</ele>
        <time>2020-10-03T06:22:55.000Z</time>
      </trkpt>
      <trkpt lat="43.61491" lon="1.40595">
        <ele>135</ele>
        <time>2020-10-03T06:22:56.000Z</time>
      </trkpt>
      <trkpt lat="43.61493" lon="1.40593">
        <ele>135</ele>
        <time>2020-10-03T06:22:57.000Z</time>
      </trkpt>
      <trkpt lat="43.61495" lon="1.40591">
        <ele>135</ele>
        <time>2020-10-03T06:22:58.000Z</time>
      </trkpt>
      <trkpt lat="43.61497" lon="1.40588">
        <ele>135.51388444444</ele>
        <time>2020-10-03T06:22:59.000Z</time>
      </trkpt>
      <trkpt lat="43.61499" lon="1.40585">
        <ele>136.90277333333</ele>
        <time>2020-10-03T06:23:00.000Z</time>
      </trkpt>
      <trkpt lat="43.61501" lon="1.40583">
        <ele>137</ele>
        <time>2020-10-03T06:23:01.000Z</time>
      </trkpt>
      <trkpt lat="43.61503" lon="1.40581">
        <ele>137</ele>
        <time>2020-10-03T06:23:02.000Z</time>
      </trkpt>
      <trkpt lat="43.61505" lon="1.40578">
        <ele>136.12244817993</ele>
        <time>2020-10-03T06:23:03.000Z</time>
      </trkpt>
      <trkpt lat="43.61508" lon="1.40576">
        <ele>135</ele>
        <time>2020-10-03T06:23:04.000Z</time>
      </trkpt>
      <trkpt lat="43.6151" lon="1.40574">
        <ele>135</ele>
        <time>2020-10-03T06:23:05.000Z</time>
      </trkpt>
      <trkpt lat="43.61512" lon="1.40572">
        <ele>134.09091543805</ele>
        <time>2020-10-03T06:23:06.000Z</time>
      </trkpt>
      <trkpt lat="43.61514" lon="1.4057">
        <ele>133</ele>
        <time>2020-10-03T06:23:07.000Z</time>
      </trkpt>
      <trkpt lat="43.61516" lon="1.40567">
        <ele>133.45454228097</ele>
        <time>2020-10-03T06:23:08.000Z</time>
      </trkpt>
      <trkpt lat="43.61519" lon="1.40565">
        <ele>134</ele>
        <time>2020-10-03T06:23:09.000Z</time>
      </trkpt>
      <trkpt lat="43.61521" lon="1.40563">
        <ele>134.44642285714</ele>
        <time>2020-10-03T06:23:10.000Z</time>
      </trkpt>
      <trkpt lat="43.61523" lon="1.40561">
        <ele>135</ele>
        <time>2020-10-03T06:23:11.000Z</time>
      </trkpt>
      <trkpt lat="43.61525" lon="1.40559">
        <ele>135.5</ele>
        <time>2020-10-03T06:23:12.000Z</time>
      </trkpt>
      <trkpt lat="43.61528" lon="1.40557">
        <ele>136</ele>
        <time>2020-10-03T06:23:13.000Z</time>
      </trkpt>
      <trkpt lat="43.6153" lon="1.40555">
        <ele>136</ele>
        <time>2020-10-03T06:23:14.000Z</time>
      </trkpt>
      <trkpt lat="43.61533" lon="1.40553">
        <ele>136</ele>
        <time>2020-10-03T06:23:15.000Z</time>
      </trkpt>
      <trkpt lat="43.61535" lon="1.40551">
        <ele>136</ele>
        <time>2020-10-03T06:23:16.000Z</time>
      </trkpt>
      <trkpt lat="43.61537" lon="1.40549">
        <ele>136</ele>
        <time>2020-10-03T06:23:17.000Z</time>
      </trkpt>
      <trkpt lat="43.6154" lon="1.40547">
        <ele>136</ele>
        <time>2020-10-03T06:23:18.000Z</time>
      </trkpt>
      <trkpt lat="43.61542" lon="1.40545">
        <ele>136</ele>
        <time>2020-10-03T06:23:19.000Z</time>
      </trkpt>
      <trkpt lat="43.61545" lon="1.40543">
        <ele>136</ele>
        <time>2020-10-03T06:23:20.000Z</time>
      </trkpt>
      <trkpt lat="43.61547" lon="1.40541">
        <ele>136</ele>
        <time>2020-10-03T06:23:21.000Z</time>
      </trkpt>
      <trkpt lat="43.61549" lon="1.40538">
        <ele>136</ele>
        <time>2020-10-03T06:23:22.000Z</time>
      </trkpt>
      <trkpt lat="43.61551" lon="1.40536">
        <ele>136</ele>
        <time>2020-10-03T06:23:23.000Z</time>
      </trkpt>
      <trkpt lat="43.61554" lon="1.40534">
        <ele>136</ele>
        <time>2020-10-03T06:23:24.000Z</time>
      </trkpt>
      <trkpt lat="43.61556" lon="1.40532">
        <ele>135.63094857143</ele>
        <time>2020-10-03T06:23:25.000Z</time>
      </trkpt>
      <trkpt lat="43.61559" lon="1.40531">
        <ele>135</ele>
        <time>2020-10-03T06:23:26.000Z</time>
      </trkpt>
      <trkpt lat="43.61561" lon="1.40529">
        <ele>135</ele>
        <time>2020-10-03T06:23:27.000Z</time>
      </trkpt>
      <trkpt lat="43.61564" lon="1.40527">
        <ele>135</ele>
        <time>2020-10-03T06:23:28.000Z</time>
      </trkpt>
      <trkpt lat="43.61567" lon="1.40525">
        <ele>135</ele>
        <time>2020-10-03T06:23:29.000Z</time>
      </trkpt>
      <trkpt lat="43.61569" lon="1.40523">
        <ele>135</ele>
        <time>2020-10-03T06:23:30.000Z</time>
      </trkpt>
      <trkpt lat="43.61572" lon="1.4052">
        <ele>135</ele>
        <time>2020-10-03T06:23:31.000Z</time>
      </trkpt>
      <trkpt lat="43.61574" lon="1.40518">
        <ele>135</ele>
        <time>2020-10-03T06:23:32.000Z</time>
      </trkpt>
      <trkpt lat="43.61577" lon="1.40516">
        <ele>135</ele>
        <time>2020-10-03T06:23:33.000Z</time>
      </trkpt>
      <trkpt lat="43.61579" lon="1.40514">
        <ele>134.45132021613</ele>
        <time>2020-10-03T06:23:34.000Z</time>
      </trkpt>
      <trkpt lat="43.61582" lon="1.40513">
        <ele>133</ele>
        <time>2020-10-03T06:23:35.000Z</time>
      </trkpt>
      <trkpt lat="43.61584" lon="1.4051">
        <ele>133</ele>
        <time>2020-10-03T06:23:36.000Z</time>
      </trkpt>
      <trkpt lat="43.61586" lon="1.40508">
        <ele>133</ele>
        <time>2020-10-03T06:23:37.000Z</time>
      </trkpt>
      <trkpt lat="43.61588" lon="1.40506">
        <ele>133</ele>
        <time>2020-10-03T06:23:38.000Z</time>
      </trkpt>
      <trkpt lat="43.61591" lon="1.40504">
        <ele>133</ele>
        <time>2020-10-03T06:23:39.000Z</time>
      </trkpt>
      <trkpt lat="43.61593" lon="1.40501">
        <ele>133</ele>
        <time>2020-10-03T06:23:40.000Z</time>
      </trkpt>
      <trkpt lat="43.61596" lon="1.40499">
        <ele>133</ele>
        <time>2020-10-03T06:23:41.000Z</time>
      </trkpt>
      <trkpt lat="43.61598" lon="1.40497">
        <ele>133</ele>
        <time>2020-10-03T06:23:42.000Z</time>
      </trkpt>
      <trkpt lat="43.61601" lon="1.40496">
        <ele>133</ele>
        <time>2020-10-03T06:23:43.000Z</time>
      </trkpt>
      <trkpt lat="43.61603" lon="1.40494">
        <ele>133</ele>
        <time>2020-10-03T06:23:44.000Z</time>
      </trkpt>
      <trkpt lat="43.61606" lon="1.40492">
        <ele>133</ele>
        <time>2020-10-03T06:23:45.000Z</time>
      </trkpt>
      <trkpt lat="43.61608" lon="1.4049">
        <ele>133</ele>
        <time>2020-10-03T06:23:46.000Z</time>
      </trkpt>
      <trkpt lat="43.6161" lon="1.40488">
        <ele>133</ele>
        <time>2020-10-03T06:23:47.000Z</time>
      </trkpt>
      <trkpt lat="43.61613" lon="1.40486">
        <ele>133</ele>
        <time>2020-10-03T06:23:48.000Z</time>
      </trkpt>
      <trkpt lat="43.61616" lon="1.40484">
        <ele>133</ele>
        <time>2020-10-03T06:23:49.000Z</time>
      </trkpt>
      <trkpt lat="43.61618" lon="1.40482">
        <ele>133</ele>
        <time>2020-10-03T06:23:50.000Z</time>
      </trkpt>
      <trkpt lat="43.61621" lon="1.4048">
        <ele>133</ele>
        <time>2020-10-03T06:23:51.000Z</time>
      </trkpt>
      <trkpt lat="43.61623" lon="1.40479">
        <ele>133</ele>
        <time>2020-10-03T06:23:52.000Z</time>
      </trkpt>
      <trkpt lat="43.61626" lon="1.40477">
        <ele>133</ele>
        <time>2020-10-03T06:23:53.000Z</time>
      </trkpt>
      <trkpt lat="43.61628" lon="1.40475">
        <ele>133</ele>
        <time>2020-10-03T06:23:54.000Z</time>
      </trkpt>
      <trkpt lat="43.61631" lon="1.40473">
        <ele>133</ele>
        <time>2020-10-03T06:23:55.000Z</time>
      </trkpt>
      <trkpt lat="43.61634" lon="1.40471">
        <ele>133</ele>
        <time>2020-10-03T06:23:56.000Z</time>
      </trkpt>
      <trkpt lat="43.61638" lon="1.40467">
        <ele>133</ele>
        <time>2020-10-03T06:23:58.000Z</time>
      </trkpt>
      <trkpt lat="43.61641" lon="1.40465">
        <ele>133</ele>
        <time>2020-10-03T06:23:59.000Z</time>
      </trkpt>
      <trkpt lat="43.61644" lon="1.40463">
        <ele>133</ele>
        <time>2020-10-03T06:24:00.000Z</time>
      </trkpt>
      <trkpt lat="43.61646" lon="1.40461">
        <ele>133</ele>
        <time>2020-10-03T06:24:01.000Z</time>
      </trkpt>
      <trkpt lat="43.61649" lon="1.4046">
        <ele>133.36697355442</ele>
        <time>2020-10-03T06:24:02.000Z</time>
      </trkpt>
      <trkpt lat="43.61651" lon="1.40459">
        <ele>134</ele>
        <time>2020-10-03T06:24:03.000Z</time>
      </trkpt>
      <trkpt lat="43.61653" lon="1.40457">
        <ele>134</ele>
        <time>2020-10-03T06:24:04.000Z</time>
      </trkpt>
      <trkpt lat="43.61655" lon="1.40455">
        <ele>134.36471102009</ele>
        <time>2020-10-03T06:24:05.000Z</time>
      </trkpt>
      <trkpt lat="43.61657" lon="1.40453">
        <ele>135</ele>
        <time>2020-10-03T06:24:06.000Z</time>
      </trkpt>
      <trkpt lat="43.6166" lon="1.40452">
        <ele>135</ele>
        <time>2020-10-03T06:24:07.000Z</time>
      </trkpt>
      <trkpt lat="43.61663" lon="1.4045">
        <ele>135</ele>
        <time>2020-10-03T06:24:08.000Z</time>
      </trkpt>
      <trkpt lat="43.61666" lon="1.40448">
        <ele>135</ele>
        <time>2020-10-03T06:24:09.000Z</time>
      </trkpt>
      <trkpt lat="43.61668" lon="1.40447">
        <ele>135</ele>
        <time>2020-10-03T06:24:10.000Z</time>
      </trkpt>
      <trkpt lat="43.61671" lon="1.40445">
        <ele>135</ele>
        <time>2020-10-03T06:24:11.000Z</time>
      </trkpt>
      <trkpt lat="43.61673" lon="1.40444">
        <ele>135</ele>
        <time>2020-10-03T06:24:12.000Z</time>
      </trkpt>
      <trkpt lat="43.61676" lon="1.40442">
        <ele>135</ele>
        <time>2020-10-03T06:24:13.000Z</time>
      </trkpt>
      <trkpt lat="43.61678" lon="1.40441">
        <ele>135.29524204264</ele>
        <time>2020-10-03T06:24:14.000Z</time>
      </trkpt>
      <trkpt lat="43.6168" lon="1.40439">
        <ele>136</ele>
        <time>2020-10-03T06:24:15.000Z</time>
      </trkpt>
      <trkpt lat="43.61683" lon="1.40437">
        <ele>136</ele>
        <time>2020-10-03T06:24:16.000Z</time>
      </trkpt>
      <trkpt lat="43.61685" lon="1.40436">
        <ele>136</ele>
        <time>2020-10-03T06:24:17.000Z</time>
      </trkpt>
      <trkpt lat="43.61687" lon="1.40434">
        <ele>136</ele>
        <time>2020-10-03T06:24:18.000Z</time>
      </trkpt>
      <trkpt lat="43.61689" lon="1.40433">
        <ele>135.62727346777</ele>
        <time>2020-10-03T06:24:19.000Z</time>
      </trkpt>
      <trkpt lat="43.61692" lon="1.40432">
        <ele>135</ele>
        <time>2020-10-03T06:24:20.000Z</time>
      </trkpt>
      <trkpt lat="43.61694" lon="1.4043">
        <ele>135</ele>
        <time>2020-10-03T06:24:21.000Z</time>
      </trkpt>
      <trkpt lat="43.61697" lon="1.40428">
        <ele>134.63888592593</ele>
        <time>2020-10-03T06:24:22.000Z</time>
      </trkpt>
      <trkpt lat="43.61699" lon="1.40427">
        <ele>134</ele>
        <time>2020-10-03T06:24:23.000Z</time>
      </trkpt>
      <trkpt lat="43.61702" lon="1.40426">
        <ele>134</ele>
        <time>2020-10-03T06:24:24.000Z</time>
      </trkpt>
      <trkpt lat="43.61704" lon="1.40425">
        <ele>133.66964571429</ele>
        <time>2020-10-03T06:24:25.000Z</time>
      </trkpt>
      <trkpt lat="43.61707" lon="1.40423">
        <ele>133</ele>
        <time>2020-10-03T06:24:26.000Z</time>
      </trkpt>
      <trkpt lat="43.61709" lon="1.40422">
        <ele>133</ele>
        <time>2020-10-03T06:24:27.000Z</time>
      </trkpt>
      <trkpt lat="43.61712" lon="1.4042">
        <ele>133</ele>
        <time>2020-10-03T06:24:28.000Z</time>
      </trkpt>
      <trkpt lat="43.61715" lon="1.40419">
        <ele>133</ele>
        <time>2020-10-03T06:24:29.000Z</time>
      </trkpt>
      <trkpt lat="43.61717" lon="1.40417">
        <ele>133</ele>
        <time>2020-10-03T06:24:30.000Z</time>
      </trkpt>
      <trkpt lat="43.6172" lon="1.40416">
        <ele>133</ele>
        <time>2020-10-03T06:24:31.000Z</time>
      </trkpt>
      <trkpt lat="43.61722" lon="1.40414">
        <ele>133</ele>
        <time>2020-10-03T06:24:32.000Z</time>
      </trkpt>
      <trkpt lat="43.61725" lon="1.40413">
        <ele>133</ele>
        <time>2020-10-03T06:24:33.000Z</time>
      </trkpt>
      <trkpt lat="43.61728" lon="1.40411">
        <ele>133</ele>
        <time>2020-10-03T06:24:34.000Z</time>
      </trkpt>
      <trkpt lat="43.61732" lon="1.40409">
        <ele>133</ele>
        <time>2020-10-03T06:24:36.000Z</time>
      </trkpt>
      <trkpt lat="43.61735" lon="1.40407">
        <ele>133</ele>
        <time>2020-10-03T06:24:37.000Z</time>
      </trkpt>
      <trkpt lat="43.61738" lon="1.40406">
        <ele>133</ele>
        <time>2020-10-03T06:24:38.000Z</time>
      </trkpt>
      <trkpt lat="43.6174" lon="1.40404">
        <ele>133</ele>
        <time>2020-10-03T06:24:39.000Z</time>
      </trkpt>
      <trkpt lat="43.61743" lon="1.40403">
        <ele>133</ele>
        <time>2020-10-03T06:24:40.000Z</time>
      </trkpt>
      <trkpt lat="43.61745" lon="1.40401">
        <ele>133</ele>
        <time>2020-10-03T06:24:41.000Z</time>
      </trkpt>
      <trkpt lat="43.61748" lon="1.404">
        <ele>133</ele>
        <time>2020-10-03T06:24:42.000Z</time>
      </trkpt>
      <trkpt lat="43.61751" lon="1.40399">
        <ele>133.48077538461</ele>
        <time>2020-10-03T06:24:43.000Z</time>
      </trkpt>
      <trkpt lat="43.61754" lon="1.40397">
        <ele>134</ele>
        <time>2020-10-03T06:24:44.000Z</time>
      </trkpt>
      <trkpt lat="43.61756" lon="1.40395">
        <ele>134</ele>
        <time>2020-10-03T06:24:45.000Z</time>
      </trkpt>
      <trkpt lat="43.61759" lon="1.40394">
        <ele>134</ele>
        <time>2020-10-03T06:24:46.000Z</time>
      </trkpt>
      <trkpt lat="43.61762" lon="1.40393">
        <ele>134</ele>
        <time>2020-10-03T06:24:47.000Z</time>
      </trkpt>
      <trkpt lat="43.61765" lon="1.40392">
        <ele>134</ele>
        <time>2020-10-03T06:24:48.000Z</time>
      </trkpt>
      <trkpt lat="43.61767" lon="1.40391">
        <ele>134</ele>
        <time>2020-10-03T06:24:49.000Z</time>
      </trkpt>
      <trkpt lat="43.61769" lon="1.4039">
        <ele>133.66304</ele>
        <time>2020-10-03T06:24:50.000Z</time>
      </trkpt>
      <trkpt lat="43.61771" lon="1.40389">
        <ele>133</ele>
        <time>2020-10-03T06:24:51.000Z</time>
      </trkpt>
      <trkpt lat="43.61774" lon="1.40388">
        <ele>133</ele>
        <time>2020-10-03T06:24:52.000Z</time>
      </trkpt>
      <trkpt lat="43.61776" lon="1.40387">
        <ele>133</ele>
        <time>2020-10-03T06:24:53.000Z</time>
      </trkpt>
      <trkpt lat="43.61778" lon="1.40386">
        <ele>133</ele>
        <time>2020-10-03T06:24:54.000Z</time>
      </trkpt>
      <trkpt lat="43.6178" lon="1.40385">
        <ele>133</ele>
        <time>2020-10-03T06:24:55.000Z</time>
      </trkpt>
      <trkpt lat="43.61783" lon="1.40384">
        <ele>133</ele>
        <time>2020-10-03T06:24:56.000Z</time>
      </trkpt>
      <trkpt lat="43.61785" lon="1.40383">
        <ele>133</ele>
        <time>2020-10-03T06:24:57.000Z</time>
      </trkpt>
      <trkpt lat="43.61788" lon="1.40382">
        <ele>133</ele>
        <time>2020-10-03T06:24:58.000Z</time>
      </trkpt>
      <trkpt lat="43.6179" lon="1.40381">
        <ele>133</ele>
        <time>2020-10-03T06:24:59.000Z</time>
      </trkpt>
      <trkpt lat="43.61793" lon="1.40379">
        <ele>133</ele>
        <time>2020-10-03T06:25:00.000Z</time>
      </trkpt>
      <trkpt lat="43.61795" lon="1.40378">
        <ele>133</ele>
        <time>2020-10-03T06:25:01.000Z</time>
      </trkpt>
      <trkpt lat="43.61798" lon="1.40377">
        <ele>133</ele>
        <time>2020-10-03T06:25:02.000Z</time>
      </trkpt>
      <trkpt lat="43.618" lon="1.40376">
        <ele>133</ele>
        <time>2020-10-03T06:25:03.000Z</time>
      </trkpt>
      <trkpt lat="43.61803" lon="1.40375">
        <ele>133</ele>
        <time>2020-10-03T06:25:04.000Z</time>
      </trkpt>
      <trkpt lat="43.61805" lon="1.40374">
        <ele>133</ele>
        <time>2020-10-03T06:25:05.000Z</time>
      </trkpt>
      <trkpt lat="43.61808" lon="1.40373">
        <ele>133.35293864556</ele>
        <time>2020-10-03T06:25:06.000Z</time>
      </trkpt>
      <trkpt lat="43.6181" lon="1.40372">
        <ele>134</ele>
        <time>2020-10-03T06:25:07.000Z</time>
      </trkpt>
      <trkpt lat="43.61813" lon="1.40371">
        <ele>134</ele>
        <time>2020-10-03T06:25:08.000Z</time>
      </trkpt>
      <trkpt lat="43.61815" lon="1.4037">
        <ele>134</ele>
        <time>2020-10-03T06:25:09.000Z</time>
      </trkpt>
      <trkpt lat="43.61818" lon="1.40369">
        <ele>134</ele>
        <time>2020-10-03T06:25:10.000Z</time>
      </trkpt>
      <trkpt lat="43.61821" lon="1.40368">
        <ele>134</ele>
        <time>2020-10-03T06:25:11.000Z</time>
      </trkpt>
      <trkpt lat="43.61824" lon="1.40367">
        <ele>134</ele>
        <time>2020-10-03T06:25:12.000Z</time>
      </trkpt>
      <trkpt lat="43.61827" lon="1.40366">
        <ele>134</ele>
        <time>2020-10-03T06:25:13.000Z</time>
      </trkpt>
      <trkpt lat="43.61829" lon="1.40365">
        <ele>134</ele>
        <time>2020-10-03T06:25:14.000Z</time>
      </trkpt>
      <trkpt lat="43.61832" lon="1.40364">
        <ele>134</ele>
        <time>2020-10-03T06:25:15.000Z</time>
      </trkpt>
      <trkpt lat="43.61835" lon="1.40363">
        <ele>134</ele>
        <time>2020-10-03T06:25:16.000Z</time>
      </trkpt>
      <trkpt lat="43.61838" lon="1.40363">
        <ele>134</ele>
        <time>2020-10-03T06:25:17.000Z</time>
      </trkpt>
      <trkpt lat="43.61841" lon="1.40362">
        <ele>134</ele>
        <time>2020-10-03T06:25:18.000Z</time>
      </trkpt>
      <trkpt lat="43.61843" lon="1.40361">
        <ele>134</ele>
        <time>2020-10-03T06:25:19.000Z</time>
      </trkpt>
      <trkpt lat="43.61846" lon="1.4036">
        <ele>133.54545771903</ele>
        <time>2020-10-03T06:25:20.000Z</time>
      </trkpt>
      <trkpt lat="43.61848" lon="1.40359">
        <ele>133</ele>
        <time>2020-10-03T06:25:21.000Z</time>
      </trkpt>
      <trkpt lat="43.61851" lon="1.40358">
        <ele>133</ele>
        <time>2020-10-03T06:25:22.000Z</time>
      </trkpt>
      <trkpt lat="43.61853" lon="1.40357">
        <ele>133</ele>
        <time>2020-10-03T06:25:23.000Z</time>
      </trkpt>
      <trkpt lat="43.61856" lon="1.40356">
        <ele>132.77777203144</ele>
        <time>2020-10-03T06:25:24.000Z</time>
      </trkpt>
      <trkpt lat="43.61858" lon="1.40354">
        <ele>132</ele>
        <time>2020-10-03T06:25:25.000Z</time>
      </trkpt>
      <trkpt lat="43.61861" lon="1.40353">
        <ele>132</ele>
        <time>2020-10-03T06:25:26.000Z</time>
      </trkpt>
      <trkpt lat="43.61863" lon="1.40351">
        <ele>132.39535333691</ele>
        <time>2020-10-03T06:25:27.000Z</time>
      </trkpt>
      <trkpt lat="43.61865" lon="1.4035">
        <ele>133</ele>
        <time>2020-10-03T06:25:28.000Z</time>
      </trkpt>
      <trkpt lat="43.61868" lon="1.40349">
        <ele>133</ele>
        <time>2020-10-03T06:25:29.000Z</time>
      </trkpt>
      <trkpt lat="43.6187" lon="1.40348">
        <ele>133</ele>
        <time>2020-10-03T06:25:30.000Z</time>
      </trkpt>
      <trkpt lat="43.61873" lon="1.40347">
        <ele>133</ele>
        <time>2020-10-03T06:25:31.000Z</time>
      </trkpt>
      <trkpt lat="43.61876" lon="1.40347">
        <ele>133</ele>
        <time>2020-10-03T06:25:32.000Z</time>
      </trkpt>
      <trkpt lat="43.61878" lon="1.40346">
        <ele>133</ele>
        <time>2020-10-03T06:25:33.000Z</time>
      </trkpt>
      <trkpt lat="43.61881" lon="1.40345">
        <ele>133</ele>
        <time>2020-10-03T06:25:34.000Z</time>
      </trkpt>
      <trkpt lat="43.61883" lon="1.40344">
        <ele>132.55555871603</ele>
        <time>2020-10-03T06:25:35.000Z</time>
      </trkpt>
      <trkpt lat="43.61886" lon="1.40343">
        <ele>132</ele>
        <time>2020-10-03T06:25:36.000Z</time>
      </trkpt>
      <trkpt lat="43.61889" lon="1.40342">
        <ele>132</ele>
        <time>2020-10-03T06:25:37.000Z</time>
      </trkpt>
      <trkpt lat="43.61892" lon="1.40341">
        <ele>132</ele>
        <time>2020-10-03T06:25:38.000Z</time>
      </trkpt>
      <trkpt lat="43.61895" lon="1.4034">
        <ele>132</ele>
        <time>2020-10-03T06:25:39.000Z</time>
      </trkpt>
      <trkpt lat="43.61897" lon="1.4034">
        <ele>132</ele>
        <time>2020-10-03T06:25:40.000Z</time>
      </trkpt>
      <trkpt lat="43.619" lon="1.40339">
        <ele>132</ele>
        <time>2020-10-03T06:25:41.000Z</time>
      </trkpt>
      <trkpt lat="43.61903" lon="1.40338">
        <ele>132</ele>
        <time>2020-10-03T06:25:42.000Z</time>
      </trkpt>
      <trkpt lat="43.61905" lon="1.40338">
        <ele>132</ele>
        <time>2020-10-03T06:25:43.000Z</time>
      </trkpt>
      <trkpt lat="43.61908" lon="1.40337">
        <ele>132</ele>
        <time>2020-10-03T06:25:44.000Z</time>
      </trkpt>
      <trkpt lat="43.6191" lon="1.40336">
        <ele>132</ele>
        <time>2020-10-03T06:25:45.000Z</time>
      </trkpt>
      <trkpt lat="43.61913" lon="1.40336">
        <ele>132</ele>
        <time>2020-10-03T06:25:46.000Z</time>
      </trkpt>
      <trkpt lat="43.61916" lon="1.40335">
        <ele>132</ele>
        <time>2020-10-03T06:25:47.000Z</time>
      </trkpt>
      <trkpt lat="43.61918" lon="1.40334">
        <ele>132</ele>
        <time>2020-10-03T06:25:48.000Z</time>
      </trkpt>
      <trkpt lat="43.61921" lon="1.40333">
        <ele>132</ele>
        <time>2020-10-03T06:25:49.000Z</time>
      </trkpt>
      <trkpt lat="43.61924" lon="1.40332">
        <ele>132</ele>
        <time>2020-10-03T06:25:50.000Z</time>
      </trkpt>
      <trkpt lat="43.61926" lon="1.40331">
        <ele>132</ele>
        <time>2020-10-03T06:25:51.000Z</time>
      </trkpt>
      <trkpt lat="43.61929" lon="1.4033">
        <ele>132</ele>
        <time>2020-10-03T06:25:52.000Z</time>
      </trkpt>
      <trkpt lat="43.61932" lon="1.40329">
        <ele>132</ele>
        <time>2020-10-03T06:25:53.000Z</time>
      </trkpt>
      <trkpt lat="43.61934" lon="1.40328">
        <ele>132</ele>
        <time>2020-10-03T06:25:54.000Z</time>
      </trkpt>
      <trkpt lat="43.61937" lon="1.40327">
        <ele>132</ele>
        <time>2020-10-03T06:25:55.000Z</time>
      </trkpt>
      <trkpt lat="43.6194" lon="1.40326">
        <ele>132</ele>
        <time>2020-10-03T06:25:56.000Z</time>
      </trkpt>
      <trkpt lat="43.61943" lon="1.40325">
        <ele>132</ele>
        <time>2020-10-03T06:25:57.000Z</time>
      </trkpt>
      <trkpt lat="43.61945" lon="1.40324">
        <ele>132.33035428571</ele>
        <time>2020-10-03T06:25:58.000Z</time>
      </trkpt>
      <trkpt lat="43.61948" lon="1.40323">
        <ele>133</ele>
        <time>2020-10-03T06:25:59.000Z</time>
      </trkpt>
      <trkpt lat="43.61951" lon="1.40323">
        <ele>133</ele>
        <time>2020-10-03T06:26:00.000Z</time>
      </trkpt>
      <trkpt lat="43.61954" lon="1.40322">
        <ele>132.92647529412</ele>
        <time>2020-10-03T06:26:01.000Z</time>
      </trkpt>
      <trkpt lat="43.61956" lon="1.40321">
        <ele>132</ele>
        <time>2020-10-03T06:26:02.000Z</time>
      </trkpt>
      <trkpt lat="43.61959" lon="1.4032">
        <ele>132</ele>
        <time>2020-10-03T06:26:03.000Z</time>
      </trkpt>
      <trkpt lat="43.61962" lon="1.40319">
        <ele>132</ele>
        <time>2020-10-03T06:26:04.000Z</time>
      </trkpt>
      <trkpt lat="43.61964" lon="1.40317">
        <ele>132</ele>
        <time>2020-10-03T06:26:05.000Z</time>
      </trkpt>
      <trkpt lat="43.61967" lon="1.40316">
        <ele>132</ele>
        <time>2020-10-03T06:26:06.000Z</time>
      </trkpt>
      <trkpt lat="43.61969" lon="1.40315">
        <ele>132</ele>
        <time>2020-10-03T06:26:07.000Z</time>
      </trkpt>
      <trkpt lat="43.61972" lon="1.40314">
        <ele>132</ele>
        <time>2020-10-03T06:26:08.000Z</time>
      </trkpt>
      <trkpt lat="43.61974" lon="1.40313">
        <ele>132</ele>
        <time>2020-10-03T06:26:09.000Z</time>
      </trkpt>
      <trkpt lat="43.61977" lon="1.40312">
        <ele>132</ele>
        <time>2020-10-03T06:26:10.000Z</time>
      </trkpt>
      <trkpt lat="43.61979" lon="1.40311">
        <ele>132</ele>
        <time>2020-10-03T06:26:11.000Z</time>
      </trkpt>
      <trkpt lat="43.61982" lon="1.4031">
        <ele>132</ele>
        <time>2020-10-03T06:26:12.000Z</time>
      </trkpt>
      <trkpt lat="43.61984" lon="1.40309">
        <ele>132</ele>
        <time>2020-10-03T06:26:13.000Z</time>
      </trkpt>
      <trkpt lat="43.61987" lon="1.40308">
        <ele>132</ele>
        <time>2020-10-03T06:26:14.000Z</time>
      </trkpt>
      <trkpt lat="43.6199" lon="1.40307">
        <ele>132</ele>
        <time>2020-10-03T06:26:15.000Z</time>
      </trkpt>
      <trkpt lat="43.61992" lon="1.40306">
        <ele>132</ele>
        <time>2020-10-03T06:26:16.000Z</time>
      </trkpt>
      <trkpt lat="43.61995" lon="1.40305">
        <ele>132</ele>
        <time>2020-10-03T06:26:17.000Z</time>
      </trkpt>
      <trkpt lat="43.61997" lon="1.40304">
        <ele>132</ele>
        <time>2020-10-03T06:26:18.000Z</time>
      </trkpt>
      <trkpt lat="43.62" lon="1.40303">
        <ele>132</ele>
        <time>2020-10-03T06:26:19.000Z</time>
      </trkpt>
      <trkpt lat="43.62003" lon="1.40303">
        <ele>132</ele>
        <time>2020-10-03T06:26:20.000Z</time>
      </trkpt>
      <trkpt lat="43.62005" lon="1.40302">
        <ele>132</ele>
        <time>2020-10-03T06:26:21.000Z</time>
      </trkpt>
      <trkpt lat="43.62008" lon="1.40301">
        <ele>132</ele>
        <time>2020-10-03T06:26:22.000Z</time>
      </trkpt>
      <trkpt lat="43.62011" lon="1.403">
        <ele>132</ele>
        <time>2020-10-03T06:26:23.000Z</time>
      </trkpt>
      <trkpt lat="43.62013" lon="1.40299">
        <ele>132</ele>
        <time>2020-10-03T06:26:24.000Z</time>
      </trkpt>
      <trkpt lat="43.62016" lon="1.40298">
        <ele>132</ele>
        <time>2020-10-03T06:26:25.000Z</time>
      </trkpt>
      <trkpt lat="43.62018" lon="1.40297">
        <ele>132</ele>
        <time>2020-10-03T06:26:26.000Z</time>
      </trkpt>
      <trkpt lat="43.62021" lon="1.40296">
        <ele>132</ele>
        <time>2020-10-03T06:26:27.000Z</time>
      </trkpt>
      <trkpt lat="43.62024" lon="1.40295">
        <ele>132</ele>
        <time>2020-10-03T06:26:28.000Z</time>
      </trkpt>
      <trkpt lat="43.62026" lon="1.40294">
        <ele>132</ele>
        <time>2020-10-03T06:26:29.000Z</time>
      </trkpt>
      <trkpt lat="43.62029" lon="1.40293">
        <ele>132</ele>
        <time>2020-10-03T06:26:30.000Z</time>
      </trkpt>
      <trkpt lat="43.62031" lon="1.40292">
        <ele>132</ele>
        <time>2020-10-03T06:26:31.000Z</time>
      </trkpt>
      <trkpt lat="43.62033" lon="1.40291">
        <ele>132</ele>
        <time>2020-10-03T06:26:32.000Z</time>
      </trkpt>
      <trkpt lat="43.62036" lon="1.4029">
        <ele>132</ele>
        <time>2020-10-03T06:26:33.000Z</time>
      </trkpt>
      <trkpt lat="43.62038" lon="1.40289">
        <ele>132</ele>
        <time>2020-10-03T06:26:34.000Z</time>
      </trkpt>
      <trkpt lat="43.62041" lon="1.40288">
        <ele>132</ele>
        <time>2020-10-03T06:26:35.000Z</time>
      </trkpt>
      <trkpt lat="43.62044" lon="1.40287">
        <ele>132</ele>
        <time>2020-10-03T06:26:36.000Z</time>
      </trkpt>
      <trkpt lat="43.62046" lon="1.40287">
        <ele>132</ele>
        <time>2020-10-03T06:26:37.000Z</time>
      </trkpt>
      <trkpt lat="43.62049" lon="1.40286">
        <ele>132</ele>
        <time>2020-10-03T06:26:38.000Z</time>
      </trkpt>
      <trkpt lat="43.62051" lon="1.40285">
        <ele>132</ele>
        <time>2020-10-03T06:26:39.000Z</time>
      </trkpt>
      <trkpt lat="43.62054" lon="1.40283">
        <ele>132</ele>
        <time>2020-10-03T06:26:40.000Z</time>
      </trkpt>
      <trkpt lat="43.62056" lon="1.40282">
        <ele>132.42342508562</ele>
        <time>2020-10-03T06:26:41.000Z</time>
      </trkpt>
      <trkpt lat="43.62059" lon="1.40281">
        <ele>133</ele>
        <time>2020-10-03T06:26:42.000Z</time>
      </trkpt>
      <trkpt lat="43.62062" lon="1.4028">
        <ele>133</ele>
        <time>2020-10-03T06:26:43.000Z</time>
      </trkpt>
      <trkpt lat="43.62065" lon="1.40279">
        <ele>133</ele>
        <time>2020-10-03T06:26:44.000Z</time>
      </trkpt>
      <trkpt lat="43.62067" lon="1.40278">
        <ele>133</ele>
        <time>2020-10-03T06:26:45.000Z</time>
      </trkpt>
      <trkpt lat="43.6207" lon="1.40277">
        <ele>133.39604085874</ele>
        <time>2020-10-03T06:26:46.000Z</time>
      </trkpt>
      <trkpt lat="43.62072" lon="1.40276">
        <ele>134</ele>
        <time>2020-10-03T06:26:47.000Z</time>
      </trkpt>
      <trkpt lat="43.62075" lon="1.40275">
        <ele>134</ele>
        <time>2020-10-03T06:26:48.000Z</time>
      </trkpt>
      <trkpt lat="43.62077" lon="1.40274">
        <ele>134</ele>
        <time>2020-10-03T06:26:49.000Z</time>
      </trkpt>
      <trkpt lat="43.62079" lon="1.40273">
        <ele>134</ele>
        <time>2020-10-03T06:26:50.000Z</time>
      </trkpt>
      <trkpt lat="43.62082" lon="1.40273">
        <ele>134</ele>
        <time>2020-10-03T06:26:51.000Z</time>
      </trkpt>
      <trkpt lat="43.62084" lon="1.40272">
        <ele>133.64893718425</ele>
        <time>2020-10-03T06:26:52.000Z</time>
      </trkpt>
      <trkpt lat="43.62087" lon="1.40271">
        <ele>133</ele>
        <time>2020-10-03T06:26:53.000Z</time>
      </trkpt>
      <trkpt lat="43.6209" lon="1.40271">
        <ele>132.66304</ele>
        <time>2020-10-03T06:26:54.000Z</time>
      </trkpt>
      <trkpt lat="43.62093" lon="1.4027">
        <ele>132</ele>
        <time>2020-10-03T06:26:55.000Z</time>
      </trkpt>
      <trkpt lat="43.62095" lon="1.4027">
        <ele>132.26446350932</ele>
        <time>2020-10-03T06:26:56.000Z</time>
      </trkpt>
      <trkpt lat="43.62098" lon="1.40269">
        <ele>133</ele>
        <time>2020-10-03T06:26:57.000Z</time>
      </trkpt>
      <trkpt lat="43.621" lon="1.40268">
        <ele>133</ele>
        <time>2020-10-03T06:26:58.000Z</time>
      </trkpt>
      <trkpt lat="43.62102" lon="1.40267">
        <ele>133</ele>
        <time>2020-10-03T06:26:59.000Z</time>
      </trkpt>
      <trkpt lat="43.62105" lon="1.40266">
        <ele>133</ele>
        <time>2020-10-03T06:27:00.000Z</time>
      </trkpt>
      <trkpt lat="43.62108" lon="1.40265">
        <ele>132.66666260316</ele>
        <time>2020-10-03T06:27:01.000Z</time>
      </trkpt>
      <trkpt lat="43.6211" lon="1.40264">
        <ele>132</ele>
        <time>2020-10-03T06:27:02.000Z</time>
      </trkpt>
      <trkpt lat="43.62113" lon="1.40263">
        <ele>132</ele>
        <time>2020-10-03T06:27:03.000Z</time>
      </trkpt>
      <trkpt lat="43.62116" lon="1.40262">
        <ele>132</ele>
        <time>2020-10-03T06:27:04.000Z</time>
      </trkpt>
      <trkpt lat="43.62118" lon="1.40261">
        <ele>132</ele>
        <time>2020-10-03T06:27:05.000Z</time>
      </trkpt>
      <trkpt lat="43.62121" lon="1.4026">
        <ele>131.62121329661</ele>
        <time>2020-10-03T06:27:06.000Z</time>
      </trkpt>
      <trkpt lat="43.62123" lon="1.40259">
        <ele>131</ele>
        <time>2020-10-03T06:27:07.000Z</time>
      </trkpt>
      <trkpt lat="43.62126" lon="1.40258">
        <ele>131</ele>
        <time>2020-10-03T06:27:08.000Z</time>
      </trkpt>
      <trkpt lat="43.62128" lon="1.40257">
        <ele>131.36584870906</ele>
        <time>2020-10-03T06:27:09.000Z</time>
      </trkpt>
      <trkpt lat="43.62131" lon="1.40256">
        <ele>132</ele>
        <time>2020-10-03T06:27:10.000Z</time>
      </trkpt>
      <trkpt lat="43.62134" lon="1.40255">
        <ele>132.26315375806</ele>
        <time>2020-10-03T06:27:11.000Z</time>
      </trkpt>
      <trkpt lat="43.62136" lon="1.40255">
        <ele>133</ele>
        <time>2020-10-03T06:27:12.000Z</time>
      </trkpt>
      <trkpt lat="43.62139" lon="1.40254">
        <ele>133.42857516033</ele>
        <time>2020-10-03T06:27:13.000Z</time>
      </trkpt>
      <trkpt lat="43.62141" lon="1.40253">
        <ele>134</ele>
        <time>2020-10-03T06:27:14.000Z</time>
      </trkpt>
      <trkpt lat="43.62144" lon="1.40252">
        <ele>133.23663331509</ele>
        <time>2020-10-03T06:27:15.000Z</time>
      </trkpt>
      <trkpt lat="43.62147" lon="1.40251">
        <ele>132</ele>
        <time>2020-10-03T06:27:16.000Z</time>
      </trkpt>
      <trkpt lat="43.62149" lon="1.4025">
        <ele>132</ele>
        <time>2020-10-03T06:27:17.000Z</time>
      </trkpt>
      <trkpt lat="43.62152" lon="1.4025">
        <ele>132</ele>
        <time>2020-10-03T06:27:18.000Z</time>
      </trkpt>
      <trkpt lat="43.62155" lon="1.40249">
        <ele>132</ele>
        <time>2020-10-03T06:27:19.000Z</time>
      </trkpt>
      <trkpt lat="43.62157" lon="1.40248">
        <ele>132</ele>
        <time>2020-10-03T06:27:20.000Z</time>
      </trkpt>
      <trkpt lat="43.6216" lon="1.40247">
        <ele>132</ele>
        <time>2020-10-03T06:27:21.000Z</time>
      </trkpt>
      <trkpt lat="43.62162" lon="1.40246">
        <ele>132</ele>
        <time>2020-10-03T06:27:22.000Z</time>
      </trkpt>
      <trkpt lat="43.62165" lon="1.40246">
        <ele>132</ele>
        <time>2020-10-03T06:27:23.000Z</time>
      </trkpt>
      <trkpt lat="43.62168" lon="1.40245">
        <ele>132</ele>
        <time>2020-10-03T06:27:24.000Z</time>
      </trkpt>
      <trkpt lat="43.6217" lon="1.40244">
        <ele>132</ele>
        <time>2020-10-03T06:27:25.000Z</time>
      </trkpt>
      <trkpt lat="43.62176" lon="1.40243">
        <ele>132</ele>
        <time>2020-10-03T06:27:27.000Z</time>
      </trkpt>
      <trkpt lat="43.62179" lon="1.40242">
        <ele>132</ele>
        <time>2020-10-03T06:27:28.000Z</time>
      </trkpt>
      <trkpt lat="43.62181" lon="1.40241">
        <ele>132</ele>
        <time>2020-10-03T06:27:29.000Z</time>
      </trkpt>
      <trkpt lat="43.62184" lon="1.4024">
        <ele>132</ele>
        <time>2020-10-03T06:27:30.000Z</time>
      </trkpt>
      <trkpt lat="43.62186" lon="1.4024">
        <ele>132</ele>
        <time>2020-10-03T06:27:31.000Z</time>
      </trkpt>
      <trkpt lat="43.62189" lon="1.40239">
        <ele>132</ele>
        <time>2020-10-03T06:27:32.000Z</time>
      </trkpt>
      <trkpt lat="43.62191" lon="1.40238">
        <ele>132</ele>
        <time>2020-10-03T06:27:33.000Z</time>
      </trkpt>
      <trkpt lat="43.62194" lon="1.40238">
        <ele>132</ele>
        <time>2020-10-03T06:27:34.000Z</time>
      </trkpt>
      <trkpt lat="43.62197" lon="1.40237">
        <ele>132</ele>
        <time>2020-10-03T06:27:36.000Z</time>
      </trkpt>
      <trkpt lat="43.62199" lon="1.40236">
        <ele>132</ele>
        <time>2020-10-03T06:27:37.000Z</time>
      </trkpt>
      <trkpt lat="43.62202" lon="1.40236">
        <ele>132</ele>
        <time>2020-10-03T06:27:38.000Z</time>
      </trkpt>
      <trkpt lat="43.62205" lon="1.40235">
        <ele>132</ele>
        <time>2020-10-03T06:27:39.000Z</time>
      </trkpt>
      <trkpt lat="43.62208" lon="1.40234">
        <ele>132</ele>
        <time>2020-10-03T06:27:40.000Z</time>
      </trkpt>
      <trkpt lat="43.62211" lon="1.40233">
        <ele>132</ele>
        <time>2020-10-03T06:27:41.000Z</time>
      </trkpt>
      <trkpt lat="43.62214" lon="1.40232">
        <ele>132</ele>
        <time>2020-10-03T06:27:42.000Z</time>
      </trkpt>
      <trkpt lat="43.62217" lon="1.4023">
        <ele>132</ele>
        <time>2020-10-03T06:27:43.000Z</time>
      </trkpt>
      <trkpt lat="43.62219" lon="1.4023">
        <ele>132</ele>
        <time>2020-10-03T06:27:44.000Z</time>
      </trkpt>
      <trkpt lat="43.62223" lon="1.4023">
        <ele>132</ele>
        <time>2020-10-03T06:27:45.000Z</time>
      </trkpt>
      <trkpt lat="43.62226" lon="1.40229">
        <ele>132</ele>
        <time>2020-10-03T06:27:46.000Z</time>
      </trkpt>
      <trkpt lat="43.62229" lon="1.40229">
        <ele>132</ele>
        <time>2020-10-03T06:27:47.000Z</time>
      </trkpt>
      <trkpt lat="43.62232" lon="1.40229">
        <ele>132</ele>
        <time>2020-10-03T06:27:48.000Z</time>
      </trkpt>
      <trkpt lat="43.62235" lon="1.40228">
        <ele>132</ele>
        <time>2020-10-03T06:27:49.000Z</time>
      </trkpt>
      <trkpt lat="43.62237" lon="1.40228">
        <ele>132</ele>
        <time>2020-10-03T06:27:50.000Z</time>
      </trkpt>
      <trkpt lat="43.6224" lon="1.40227">
        <ele>132</ele>
        <time>2020-10-03T06:27:51.000Z</time>
      </trkpt>
      <trkpt lat="43.62243" lon="1.40227">
        <ele>132</ele>
        <time>2020-10-03T06:27:52.000Z</time>
      </trkpt>
      <trkpt lat="43.62246" lon="1.40227">
        <ele>132</ele>
        <time>2020-10-03T06:27:53.000Z</time>
      </trkpt>
      <trkpt lat="43.62249" lon="1.40226">
        <ele>132</ele>
        <time>2020-10-03T06:27:54.000Z</time>
      </trkpt>
      <trkpt lat="43.62251" lon="1.40226">
        <ele>132</ele>
        <time>2020-10-03T06:27:55.000Z</time>
      </trkpt>
      <trkpt lat="43.62254" lon="1.40226">
        <ele>132</ele>
        <time>2020-10-03T06:27:56.000Z</time>
      </trkpt>
      <trkpt lat="43.62257" lon="1.40225">
        <ele>132</ele>
        <time>2020-10-03T06:27:57.000Z</time>
      </trkpt>
      <trkpt lat="43.62259" lon="1.40225">
        <ele>132</ele>
        <time>2020-10-03T06:27:58.000Z</time>
      </trkpt>
      <trkpt lat="43.62262" lon="1.40224">
        <ele>132</ele>
        <time>2020-10-03T06:27:59.000Z</time>
      </trkpt>
      <trkpt lat="43.62265" lon="1.40224">
        <ele>132</ele>
        <time>2020-10-03T06:28:00.000Z</time>
      </trkpt>
      <trkpt lat="43.62268" lon="1.40223">
        <ele>132</ele>
        <time>2020-10-03T06:28:01.000Z</time>
      </trkpt>
      <trkpt lat="43.62271" lon="1.40223">
        <ele>132</ele>
        <time>2020-10-03T06:28:02.000Z</time>
      </trkpt>
      <trkpt lat="43.62274" lon="1.40222">
        <ele>132</ele>
        <time>2020-10-03T06:28:03.000Z</time>
      </trkpt>
      <trkpt lat="43.62277" lon="1.40222">
        <ele>132</ele>
        <time>2020-10-03T06:28:04.000Z</time>
      </trkpt>
      <trkpt lat="43.6228" lon="1.40222">
        <ele>132</ele>
        <time>2020-10-03T06:28:05.000Z</time>
      </trkpt>
      <trkpt lat="43.62283" lon="1.40222">
        <ele>131.62727346777</ele>
        <time>2020-10-03T06:28:06.000Z</time>
      </trkpt>
      <trkpt lat="43.62286" lon="1.40222">
        <ele>131</ele>
        <time>2020-10-03T06:28:07.000Z</time>
      </trkpt>
      <trkpt lat="43.62288" lon="1.40222">
        <ele>131.41818520329</ele>
        <time>2020-10-03T06:28:08.000Z</time>
      </trkpt>
      <trkpt lat="43.62291" lon="1.40222">
        <ele>132</ele>
        <time>2020-10-03T06:28:09.000Z</time>
      </trkpt>
      <trkpt lat="43.62294" lon="1.40222">
        <ele>132</ele>
        <time>2020-10-03T06:28:10.000Z</time>
      </trkpt>
      <trkpt lat="43.62297" lon="1.40222">
        <ele>132</ele>
        <time>2020-10-03T06:28:11.000Z</time>
      </trkpt>
      <trkpt lat="43.62299" lon="1.40222">
        <ele>132</ele>
        <time>2020-10-03T06:28:12.000Z</time>
      </trkpt>
      <trkpt lat="43.62302" lon="1.40222">
        <ele>132</ele>
        <time>2020-10-03T06:28:13.000Z</time>
      </trkpt>
      <trkpt lat="43.62305" lon="1.40222">
        <ele>132.5</ele>
        <time>2020-10-03T06:28:14.000Z</time>
      </trkpt>
      <trkpt lat="43.62308" lon="1.40222">
        <ele>133</ele>
        <time>2020-10-03T06:28:15.000Z</time>
      </trkpt>
      <trkpt lat="43.6231" lon="1.40222">
        <ele>133.5</ele>
        <time>2020-10-03T06:28:16.000Z</time>
      </trkpt>
      <trkpt lat="43.62313" lon="1.40222">
        <ele>134</ele>
        <time>2020-10-03T06:28:17.000Z</time>
      </trkpt>
      <trkpt lat="43.62319" lon="1.40222">
        <ele>134</ele>
        <time>2020-10-03T06:28:19.000Z</time>
      </trkpt>
      <trkpt lat="43.62322" lon="1.40222">
        <ele>134</ele>
        <time>2020-10-03T06:28:20.000Z</time>
      </trkpt>
      <trkpt lat="43.62325" lon="1.40222">
        <ele>134</ele>
        <time>2020-10-03T06:28:21.000Z</time>
      </trkpt>
      <trkpt lat="43.62327" lon="1.40221">
        <ele>133.65040481196</ele>
        <time>2020-10-03T06:28:22.000Z</time>
      </trkpt>
      <trkpt lat="43.6233" lon="1.40221">
        <ele>133</ele>
        <time>2020-10-03T06:28:23.000Z</time>
      </trkpt>
      <trkpt lat="43.62333" lon="1.40221">
        <ele>133</ele>
        <time>2020-10-03T06:28:24.000Z</time>
      </trkpt>
      <trkpt lat="43.62336" lon="1.40221">
        <ele>133</ele>
        <time>2020-10-03T06:28:25.000Z</time>
      </trkpt>
      <trkpt lat="43.62339" lon="1.40221">
        <ele>132.64485489389</ele>
        <time>2020-10-03T06:28:26.000Z</time>
      </trkpt>
      <trkpt lat="43.62341" lon="1.40222">
        <ele>132</ele>
        <time>2020-10-03T06:28:27.000Z</time>
      </trkpt>
      <trkpt lat="43.62344" lon="1.40222">
        <ele>132</ele>
        <time>2020-10-03T06:28:28.000Z</time>
      </trkpt>
      <trkpt lat="43.62347" lon="1.40222">
        <ele>132</ele>
        <time>2020-10-03T06:28:29.000Z</time>
      </trkpt>
      <trkpt lat="43.6235" lon="1.40221">
        <ele>132</ele>
        <time>2020-10-03T06:28:30.000Z</time>
      </trkpt>
      <trkpt lat="43.62352" lon="1.40221">
        <ele>132</ele>
        <time>2020-10-03T06:28:31.000Z</time>
      </trkpt>
      <trkpt lat="43.62355" lon="1.40221">
        <ele>132</ele>
        <time>2020-10-03T06:28:32.000Z</time>
      </trkpt>
      <trkpt lat="43.62358" lon="1.40221">
        <ele>132</ele>
        <time>2020-10-03T06:28:33.000Z</time>
      </trkpt>
      <trkpt lat="43.62361" lon="1.40222">
        <ele>132</ele>
        <time>2020-10-03T06:28:34.000Z</time>
      </trkpt>
      <trkpt lat="43.62364" lon="1.40222">
        <ele>132</ele>
        <time>2020-10-03T06:28:35.000Z</time>
      </trkpt>
      <trkpt lat="43.62366" lon="1.40222">
        <ele>132</ele>
        <time>2020-10-03T06:28:36.000Z</time>
      </trkpt>
      <trkpt lat="43.62369" lon="1.40222">
        <ele>132</ele>
        <time>2020-10-03T06:28:37.000Z</time>
      </trkpt>
      <trkpt lat="43.62372" lon="1.40221">
        <ele>132</ele>
        <time>2020-10-03T06:28:38.000Z</time>
      </trkpt>
      <trkpt lat="43.62375" lon="1.40221">
        <ele>132</ele>
        <time>2020-10-03T06:28:39.000Z</time>
      </trkpt>
      <trkpt lat="43.62377" lon="1.40222">
        <ele>132</ele>
        <time>2020-10-03T06:28:40.000Z</time>
      </trkpt>
      <trkpt lat="43.6238" lon="1.40222">
        <ele>132</ele>
        <time>2020-10-03T06:28:41.000Z</time>
      </trkpt>
      <trkpt lat="43.62385" lon="1.40223">
        <ele>132</ele>
        <time>2020-10-03T06:28:43.000Z</time>
      </trkpt>
      <trkpt lat="43.62388" lon="1.40223">
        <ele>132</ele>
        <time>2020-10-03T06:28:44.000Z</time>
      </trkpt>
      <trkpt lat="43.62391" lon="1.40223">
        <ele>132</ele>
        <time>2020-10-03T06:28:45.000Z</time>
      </trkpt>
      <trkpt lat="43.62394" lon="1.40223">
        <ele>132</ele>
        <time>2020-10-03T06:28:46.000Z</time>
      </trkpt>
      <trkpt lat="43.62396" lon="1.40224">
        <ele>132</ele>
        <time>2020-10-03T06:28:47.000Z</time>
      </trkpt>
      <trkpt lat="43.62399" lon="1.40224">
        <ele>132</ele>
        <time>2020-10-03T06:28:48.000Z</time>
      </trkpt>
      <trkpt lat="43.62402" lon="1.40224">
        <ele>131.26189714286</ele>
        <time>2020-10-03T06:28:49.000Z</time>
      </trkpt>
      <trkpt lat="43.62405" lon="1.40224">
        <ele>130</ele>
        <time>2020-10-03T06:28:50.000Z</time>
      </trkpt>
      <trkpt lat="43.62408" lon="1.40224">
        <ele>130</ele>
        <time>2020-10-03T06:28:51.000Z</time>
      </trkpt>
      <trkpt lat="43.62411" lon="1.40225">
        <ele>130</ele>
        <time>2020-10-03T06:28:52.000Z</time>
      </trkpt>
      <trkpt lat="43.62413" lon="1.40225">
        <ele>130</ele>
        <time>2020-10-03T06:28:53.000Z</time>
      </trkpt>
      <trkpt lat="43.62416" lon="1.40226">
        <ele>130</ele>
        <time>2020-10-03T06:28:54.000Z</time>
      </trkpt>
      <trkpt lat="43.62419" lon="1.40226">
        <ele>130.43636617522</ele>
        <time>2020-10-03T06:28:55.000Z</time>
      </trkpt>
      <trkpt lat="43.62422" lon="1.40226">
        <ele>131</ele>
        <time>2020-10-03T06:28:56.000Z</time>
      </trkpt>
      <trkpt lat="43.62425" lon="1.40226">
        <ele>131</ele>
        <time>2020-10-03T06:28:57.000Z</time>
      </trkpt>
      <trkpt lat="43.62427" lon="1.40227">
        <ele>131</ele>
        <time>2020-10-03T06:28:58.000Z</time>
      </trkpt>
      <trkpt lat="43.6243" lon="1.40227">
        <ele>131</ele>
        <time>2020-10-03T06:28:59.000Z</time>
      </trkpt>
      <trkpt lat="43.62433" lon="1.40227">
        <ele>131</ele>
        <time>2020-10-03T06:29:00.000Z</time>
      </trkpt>
      <trkpt lat="43.62436" lon="1.40227">
        <ele>131</ele>
        <time>2020-10-03T06:29:01.000Z</time>
      </trkpt>
      <trkpt lat="43.62438" lon="1.40228">
        <ele>131</ele>
        <time>2020-10-03T06:29:02.000Z</time>
      </trkpt>
      <trkpt lat="43.62441" lon="1.40229">
        <ele>131</ele>
        <time>2020-10-03T06:29:03.000Z</time>
      </trkpt>
      <trkpt lat="43.62444" lon="1.4023">
        <ele>131</ele>
        <time>2020-10-03T06:29:04.000Z</time>
      </trkpt>
      <trkpt lat="43.62446" lon="1.40232">
        <ele>131</ele>
        <time>2020-10-03T06:29:05.000Z</time>
      </trkpt>
      <trkpt lat="43.62447" lon="1.40235">
        <ele>131</ele>
        <time>2020-10-03T06:29:06.000Z</time>
      </trkpt>
      <trkpt lat="43.62449" lon="1.40238">
        <ele>131</ele>
        <time>2020-10-03T06:29:07.000Z</time>
      </trkpt>
      <trkpt lat="43.6245" lon="1.40241">
        <ele>131</ele>
        <time>2020-10-03T06:29:08.000Z</time>
      </trkpt>
      <trkpt lat="43.62451" lon="1.40244">
        <ele>131</ele>
        <time>2020-10-03T06:29:09.000Z</time>
      </trkpt>
      <trkpt lat="43.62452" lon="1.40247">
        <ele>131</ele>
        <time>2020-10-03T06:29:10.000Z</time>
      </trkpt>
      <trkpt lat="43.62453" lon="1.40251">
        <ele>131.33332959062</ele>
        <time>2020-10-03T06:29:11.000Z</time>
      </trkpt>
      <trkpt lat="43.62453" lon="1.40255">
        <ele>132</ele>
        <time>2020-10-03T06:29:12.000Z</time>
      </trkpt>
      <trkpt lat="43.62454" lon="1.40259">
        <ele>132</ele>
        <time>2020-10-03T06:29:13.000Z</time>
      </trkpt>
      <trkpt lat="43.62455" lon="1.40263">
        <ele>132</ele>
        <time>2020-10-03T06:29:14.000Z</time>
      </trkpt>
      <trkpt lat="43.62456" lon="1.40266">
        <ele>132</ele>
        <time>2020-10-03T06:29:15.000Z</time>
      </trkpt>
      <trkpt lat="43.62457" lon="1.40269">
        <ele>132</ele>
        <time>2020-10-03T06:29:16.000Z</time>
      </trkpt>
      <trkpt lat="43.6246" lon="1.4027">
        <ele>132</ele>
        <time>2020-10-03T06:29:18.000Z</time>
      </trkpt>
      <trkpt lat="43.62463" lon="1.40268">
        <ele>131.64705882353</ele>
        <time>2020-10-03T06:29:19.000Z</time>
      </trkpt>
      <trkpt lat="43.62465" lon="1.40266">
        <ele>131</ele>
        <time>2020-10-03T06:29:20.000Z</time>
      </trkpt>
      <trkpt lat="43.62467" lon="1.40263">
        <ele>131</ele>
        <time>2020-10-03T06:29:21.000Z</time>
      </trkpt>
      <trkpt lat="43.62468" lon="1.4026">
        <ele>131</ele>
        <time>2020-10-03T06:29:22.000Z</time>
      </trkpt>
      <trkpt lat="43.62468" lon="1.40257">
        <ele>131</ele>
        <time>2020-10-03T06:29:23.000Z</time>
      </trkpt>
      <trkpt lat="43.62468" lon="1.40253">
        <ele>131</ele>
        <time>2020-10-03T06:29:24.000Z</time>
      </trkpt>
      <trkpt lat="43.62468" lon="1.40249">
        <ele>131</ele>
        <time>2020-10-03T06:29:25.000Z</time>
      </trkpt>
      <trkpt lat="43.62468" lon="1.40245">
        <ele>131</ele>
        <time>2020-10-03T06:29:26.000Z</time>
      </trkpt>
      <trkpt lat="43.62468" lon="1.40242">
        <ele>131.43859964295</ele>
        <time>2020-10-03T06:29:27.000Z</time>
      </trkpt>
      <trkpt lat="43.62468" lon="1.40238">
        <ele>132</ele>
        <time>2020-10-03T06:29:28.000Z</time>
      </trkpt>
      <trkpt lat="43.62468" lon="1.40235">
        <ele>132</ele>
        <time>2020-10-03T06:29:29.000Z</time>
      </trkpt>
      <trkpt lat="43.62469" lon="1.40231">
        <ele>132</ele>
        <time>2020-10-03T06:29:30.000Z</time>
      </trkpt>
      <trkpt lat="43.62469" lon="1.40227">
        <ele>132</ele>
        <time>2020-10-03T06:29:31.000Z</time>
      </trkpt>
      <trkpt lat="43.62469" lon="1.40224">
        <ele>132</ele>
        <time>2020-10-03T06:29:32.000Z</time>
      </trkpt>
      <trkpt lat="43.62469" lon="1.40221">
        <ele>132</ele>
        <time>2020-10-03T06:29:33.000Z</time>
      </trkpt>
      <trkpt lat="43.62469" lon="1.40217">
        <ele>132</ele>
        <time>2020-10-03T06:29:34.000Z</time>
      </trkpt>
      <trkpt lat="43.62469" lon="1.40213">
        <ele>132</ele>
        <time>2020-10-03T06:29:35.000Z</time>
      </trkpt>
      <trkpt lat="43.62469" lon="1.40209">
        <ele>132.43182545454</ele>
        <time>2020-10-03T06:29:36.000Z</time>
      </trkpt>
      <trkpt lat="43.6247" lon="1.40206">
        <ele>133</ele>
        <time>2020-10-03T06:29:37.000Z</time>
      </trkpt>
      <trkpt lat="43.6247" lon="1.40202">
        <ele>133</ele>
        <time>2020-10-03T06:29:38.000Z</time>
      </trkpt>
      <trkpt lat="43.6247" lon="1.40195">
        <ele>133</ele>
        <time>2020-10-03T06:29:40.000Z</time>
      </trkpt>
      <trkpt lat="43.62471" lon="1.40191">
        <ele>133</ele>
        <time>2020-10-03T06:29:41.000Z</time>
      </trkpt>
      <trkpt lat="43.62471" lon="1.40187">
        <ele>133</ele>
        <time>2020-10-03T06:29:42.000Z</time>
      </trkpt>
      <trkpt lat="43.62471" lon="1.40184">
        <ele>133</ele>
        <time>2020-10-03T06:29:43.000Z</time>
      </trkpt>
      <trkpt lat="43.62471" lon="1.4018">
        <ele>133</ele>
        <time>2020-10-03T06:29:44.000Z</time>
      </trkpt>
      <trkpt lat="43.62471" lon="1.40176">
        <ele>132.56190952201</ele>
        <time>2020-10-03T06:29:45.000Z</time>
      </trkpt>
      <trkpt lat="43.62471" lon="1.40173">
        <ele>132</ele>
        <time>2020-10-03T06:29:46.000Z</time>
      </trkpt>
      <trkpt lat="43.62472" lon="1.40169">
        <ele>132</ele>
        <time>2020-10-03T06:29:47.000Z</time>
      </trkpt>
      <trkpt lat="43.62472" lon="1.40166">
        <ele>132</ele>
        <time>2020-10-03T06:29:48.000Z</time>
      </trkpt>
      <trkpt lat="43.62472" lon="1.40161">
        <ele>134</ele>
        <time>2020-10-03T06:29:50.000Z</time>
      </trkpt>
      <trkpt lat="43.62472" lon="1.40158">
        <ele>134</ele>
        <time>2020-10-03T06:29:51.000Z</time>
      </trkpt>
      <trkpt lat="43.62472" lon="1.40154">
        <ele>134</ele>
        <time>2020-10-03T06:29:52.000Z</time>
      </trkpt>
      <trkpt lat="43.62472" lon="1.4015">
        <ele>133.5666661926</ele>
        <time>2020-10-03T06:29:53.000Z</time>
      </trkpt>
      <trkpt lat="43.62472" lon="1.40146">
        <ele>133</ele>
        <time>2020-10-03T06:29:54.000Z</time>
      </trkpt>
      <trkpt lat="43.62472" lon="1.40142">
        <ele>133</ele>
        <time>2020-10-03T06:29:55.000Z</time>
      </trkpt>
      <trkpt lat="43.62472" lon="1.40138">
        <ele>133</ele>
        <time>2020-10-03T06:29:56.000Z</time>
      </trkpt>
      <trkpt lat="43.62472" lon="1.40134">
        <ele>133</ele>
        <time>2020-10-03T06:29:57.000Z</time>
      </trkpt>
      <trkpt lat="43.62472" lon="1.4013">
        <ele>133</ele>
        <time>2020-10-03T06:29:58.000Z</time>
      </trkpt>
      <trkpt lat="43.62472" lon="1.40127">
        <ele>132.64444697282</ele>
        <time>2020-10-03T06:29:59.000Z</time>
      </trkpt>
      <trkpt lat="43.62473" lon="1.40123">
        <ele>132</ele>
        <time>2020-10-03T06:30:00.000Z</time>
      </trkpt>
      <trkpt lat="43.62473" lon="1.40119">
        <ele>132</ele>
        <time>2020-10-03T06:30:01.000Z</time>
      </trkpt>
      <trkpt lat="43.62473" lon="1.40116">
        <ele>132.10256326102</ele>
        <time>2020-10-03T06:30:02.000Z</time>
      </trkpt>
      <trkpt lat="43.62473" lon="1.40112">
        <ele>133.2970243074</ele>
        <time>2020-10-03T06:30:03.000Z</time>
      </trkpt>
      <trkpt lat="43.62473" lon="1.40108">
        <ele>134</ele>
        <time>2020-10-03T06:30:04.000Z</time>
      </trkpt>
      <trkpt lat="43.62474" lon="1.40104">
        <ele>134</ele>
        <time>2020-10-03T06:30:05.000Z</time>
      </trkpt>
      <trkpt lat="43.62474" lon="1.40101">
        <ele>134.46874666667</ele>
        <time>2020-10-03T06:30:06.000Z</time>
      </trkpt>
      <trkpt lat="43.62474" lon="1.40097">
        <ele>135</ele>
        <time>2020-10-03T06:30:07.000Z</time>
      </trkpt>
      <trkpt lat="43.62474" lon="1.40093">
        <ele>135</ele>
        <time>2020-10-03T06:30:08.000Z</time>
      </trkpt>
      <trkpt lat="43.62474" lon="1.40089">
        <ele>134.5377360769</ele>
        <time>2020-10-03T06:30:09.000Z</time>
      </trkpt>
      <trkpt lat="43.62474" lon="1.40085">
        <ele>134</ele>
        <time>2020-10-03T06:30:10.000Z</time>
      </trkpt>
      <trkpt lat="43.62475" lon="1.40081">
        <ele>134</ele>
        <time>2020-10-03T06:30:11.000Z</time>
      </trkpt>
      <trkpt lat="43.62475" lon="1.40078">
        <ele>134</ele>
        <time>2020-10-03T06:30:12.000Z</time>
      </trkpt>
      <trkpt lat="43.62475" lon="1.40074">
        <ele>134</ele>
        <time>2020-10-03T06:30:13.000Z</time>
      </trkpt>
      <trkpt lat="43.62475" lon="1.4007">
        <ele>134</ele>
        <time>2020-10-03T06:30:14.000Z</time>
      </trkpt>
      <trkpt lat="43.62476" lon="1.40066">
        <ele>134.4622639231</ele>
        <time>2020-10-03T06:30:15.000Z</time>
      </trkpt>
      <trkpt lat="43.62476" lon="1.40062">
        <ele>135</ele>
        <time>2020-10-03T06:30:16.000Z</time>
      </trkpt>
      <trkpt lat="43.62476" lon="1.40058">
        <ele>135</ele>
        <time>2020-10-03T06:30:17.000Z</time>
      </trkpt>
      <trkpt lat="43.62476" lon="1.40054">
        <ele>135.39815111111</ele>
        <time>2020-10-03T06:30:18.000Z</time>
      </trkpt>
      <trkpt lat="43.62476" lon="1.4005">
        <ele>136</ele>
        <time>2020-10-03T06:30:19.000Z</time>
      </trkpt>
      <trkpt lat="43.62476" lon="1.40046">
        <ele>136</ele>
        <time>2020-10-03T06:30:20.000Z</time>
      </trkpt>
      <trkpt lat="43.62476" lon="1.40042">
        <ele>136</ele>
        <time>2020-10-03T06:30:21.000Z</time>
      </trkpt>
      <trkpt lat="43.62477" lon="1.40038">
        <ele>136</ele>
        <time>2020-10-03T06:30:22.000Z</time>
      </trkpt>
      <trkpt lat="43.62477" lon="1.40034">
        <ele>136</ele>
        <time>2020-10-03T06:30:23.000Z</time>
      </trkpt>
      <trkpt lat="43.62477" lon="1.4003">
        <ele>135.09091543805</ele>
        <time>2020-10-03T06:30:24.000Z</time>
      </trkpt>
      <trkpt lat="43.62477" lon="1.40026">
        <ele>134</ele>
        <time>2020-10-03T06:30:25.000Z</time>
      </trkpt>
      <trkpt lat="43.62477" lon="1.40022">
        <ele>133.54545771903</ele>
        <time>2020-10-03T06:30:26.000Z</time>
      </trkpt>
      <trkpt lat="43.62477" lon="1.40018">
        <ele>133</ele>
        <time>2020-10-03T06:30:27.000Z</time>
      </trkpt>
      <trkpt lat="43.62477" lon="1.40014">
        <ele>133</ele>
        <time>2020-10-03T06:30:28.000Z</time>
      </trkpt>
      <trkpt lat="43.62478" lon="1.4001">
        <ele>133</ele>
        <time>2020-10-03T06:30:29.000Z</time>
      </trkpt>
      <trkpt lat="43.62478" lon="1.40006">
        <ele>133</ele>
        <time>2020-10-03T06:30:30.000Z</time>
      </trkpt>
      <trkpt lat="43.62478" lon="1.40002">
        <ele>133</ele>
        <time>2020-10-03T06:30:31.000Z</time>
      </trkpt>
      <trkpt lat="43.62478" lon="1.39997">
        <ele>133.45055068713</ele>
        <time>2020-10-03T06:30:32.000Z</time>
      </trkpt>
      <trkpt lat="43.62479" lon="1.39993">
        <ele>134</ele>
        <time>2020-10-03T06:30:33.000Z</time>
      </trkpt>
      <trkpt lat="43.62479" lon="1.39989">
        <ele>134</ele>
        <time>2020-10-03T06:30:34.000Z</time>
      </trkpt>
      <trkpt lat="43.62479" lon="1.39986">
        <ele>134</ele>
        <time>2020-10-03T06:30:35.000Z</time>
      </trkpt>
      <trkpt lat="43.62479" lon="1.39982">
        <ele>134</ele>
        <time>2020-10-03T06:30:36.000Z</time>
      </trkpt>
      <trkpt lat="43.6248" lon="1.39978">
        <ele>134</ele>
        <time>2020-10-03T06:30:37.000Z</time>
      </trkpt>
      <trkpt lat="43.6248" lon="1.39974">
        <ele>134</ele>
        <time>2020-10-03T06:30:38.000Z</time>
      </trkpt>
      <trkpt lat="43.62481" lon="1.3997">
        <ele>133.55660343183</ele>
        <time>2020-10-03T06:30:39.000Z</time>
      </trkpt>
      <trkpt lat="43.62482" lon="1.39966">
        <ele>133</ele>
        <time>2020-10-03T06:30:40.000Z</time>
      </trkpt>
      <trkpt lat="43.62482" lon="1.39963">
        <ele>132.56074598655</ele>
        <time>2020-10-03T06:30:41.000Z</time>
      </trkpt>
      <trkpt lat="43.62483" lon="1.3996">
        <ele>132</ele>
        <time>2020-10-03T06:30:42.000Z</time>
      </trkpt>
      <trkpt lat="43.62485" lon="1.39961">
        <ele>131</ele>
        <time>2020-10-03T06:30:44.000Z</time>
      </trkpt>
      <trkpt lat="43.62485" lon="1.39964">
        <ele>131.43859964295</ele>
        <time>2020-10-03T06:30:45.000Z</time>
      </trkpt>
      <trkpt lat="43.62485" lon="1.39968">
        <ele>132</ele>
        <time>2020-10-03T06:30:46.000Z</time>
      </trkpt>
      <trkpt lat="43.62485" lon="1.39972">
        <ele>132</ele>
        <time>2020-10-03T06:30:47.000Z</time>
      </trkpt>
      <trkpt lat="43.62485" lon="1.39975">
        <ele>132</ele>
        <time>2020-10-03T06:30:48.000Z</time>
      </trkpt>
      <trkpt lat="43.62484" lon="1.39979">
        <ele>132</ele>
        <time>2020-10-03T06:30:49.000Z</time>
      </trkpt>
      <trkpt lat="43.62484" lon="1.39982">
        <ele>132</ele>
        <time>2020-10-03T06:30:50.000Z</time>
      </trkpt>
      <trkpt lat="43.62484" lon="1.39986">
        <ele>131.57575248242</ele>
        <time>2020-10-03T06:30:51.000Z</time>
      </trkpt>
      <trkpt lat="43.62484" lon="1.39989">
        <ele>131</ele>
        <time>2020-10-03T06:30:52.000Z</time>
      </trkpt>
      <trkpt lat="43.62484" lon="1.39993">
        <ele>130.583328</ele>
        <time>2020-10-03T06:30:53.000Z</time>
      </trkpt>
      <trkpt lat="43.62484" lon="1.39997">
        <ele>130</ele>
        <time>2020-10-03T06:30:54.000Z</time>
      </trkpt>
      <trkpt lat="43.62484" lon="1.40002">
        <ele>129.74999652174</ele>
        <time>2020-10-03T06:30:55.000Z</time>
      </trkpt>
      <trkpt lat="43.62485" lon="1.40006">
        <ele>129</ele>
        <time>2020-10-03T06:30:56.000Z</time>
      </trkpt>
      <trkpt lat="43.62485" lon="1.4001">
        <ele>129</ele>
        <time>2020-10-03T06:30:57.000Z</time>
      </trkpt>
      <trkpt lat="43.62487" lon="1.40012">
        <ele>128.70588501039</ele>
        <time>2020-10-03T06:30:58.000Z</time>
      </trkpt>
      <trkpt lat="43.62489" lon="1.40013">
        <ele>128</ele>
        <time>2020-10-03T06:30:59.000Z</time>
      </trkpt>
      <trkpt lat="43.62491" lon="1.40013">
        <ele>128</ele>
        <time>2020-10-03T06:31:00.000Z</time>
      </trkpt>
      <trkpt lat="43.62494" lon="1.40013">
        <ele>126.65714599181</ele>
        <time>2020-10-03T06:31:01.000Z</time>
      </trkpt>
      <trkpt lat="43.62496" lon="1.40013">
        <ele>125</ele>
        <time>2020-10-03T06:31:02.000Z</time>
      </trkpt>
      <trkpt lat="43.62499" lon="1.40012">
        <ele>125.43925401345</ele>
        <time>2020-10-03T06:31:03.000Z</time>
      </trkpt>
      <trkpt lat="43.62501" lon="1.40012">
        <ele>126</ele>
        <time>2020-10-03T06:31:04.000Z</time>
      </trkpt>
      <trkpt lat="43.62504" lon="1.40012">
        <ele>126</ele>
        <time>2020-10-03T06:31:05.000Z</time>
      </trkpt>
      <trkpt lat="43.62506" lon="1.40012">
        <ele>126</ele>
        <time>2020-10-03T06:31:06.000Z</time>
      </trkpt>
      <trkpt lat="43.62509" lon="1.40012">
        <ele>126</ele>
        <time>2020-10-03T06:31:07.000Z</time>
      </trkpt>
      <trkpt lat="43.62512" lon="1.40012">
        <ele>126</ele>
        <time>2020-10-03T06:31:08.000Z</time>
      </trkpt>
      <trkpt lat="43.62515" lon="1.40012">
        <ele>126</ele>
        <time>2020-10-03T06:31:09.000Z</time>
      </trkpt>
      <trkpt lat="43.62518" lon="1.40012">
        <ele>126</ele>
        <time>2020-10-03T06:31:10.000Z</time>
      </trkpt>
      <trkpt lat="43.62521" lon="1.40013">
        <ele>126</ele>
        <time>2020-10-03T06:31:11.000Z</time>
      </trkpt>
      <trkpt lat="43.62525" lon="1.40014">
        <ele>126</ele>
        <time>2020-10-03T06:31:12.000Z</time>
      </trkpt>
      <trkpt lat="43.62528" lon="1.40014">
        <ele>126</ele>
        <time>2020-10-03T06:31:13.000Z</time>
      </trkpt>
      <trkpt lat="43.62531" lon="1.40014">
        <ele>126</ele>
        <time>2020-10-03T06:31:14.000Z</time>
      </trkpt>
      <trkpt lat="43.62534" lon="1.40014">
        <ele>126</ele>
        <time>2020-10-03T06:31:15.000Z</time>
      </trkpt>
      <trkpt lat="43.62537" lon="1.40015">
        <ele>126</ele>
        <time>2020-10-03T06:31:16.000Z</time>
      </trkpt>
      <trkpt lat="43.6254" lon="1.40015">
        <ele>126</ele>
        <time>2020-10-03T06:31:17.000Z</time>
      </trkpt>
      <trkpt lat="43.62543" lon="1.40016">
        <ele>126</ele>
        <time>2020-10-03T06:31:18.000Z</time>
      </trkpt>
      <trkpt lat="43.62546" lon="1.40016">
        <ele>126.34258962963</ele>
        <time>2020-10-03T06:31:19.000Z</time>
      </trkpt>
      <trkpt lat="43.62549" lon="1.40017">
        <ele>127</ele>
        <time>2020-10-03T06:31:20.000Z</time>
      </trkpt>
      <trkpt lat="43.62551" lon="1.40017">
        <ele>127</ele>
        <time>2020-10-03T06:31:21.000Z</time>
      </trkpt>
      <trkpt lat="43.62554" lon="1.40017">
        <ele>127.32222095802</ele>
        <time>2020-10-03T06:31:22.000Z</time>
      </trkpt>
      <trkpt lat="43.62556" lon="1.40017">
        <ele>128</ele>
        <time>2020-10-03T06:31:23.000Z</time>
      </trkpt>
      <trkpt lat="43.62559" lon="1.40018">
        <ele>128</ele>
        <time>2020-10-03T06:31:24.000Z</time>
      </trkpt>
      <trkpt lat="43.62562" lon="1.40018">
        <ele>128</ele>
        <time>2020-10-03T06:31:25.000Z</time>
      </trkpt>
      <trkpt lat="43.62564" lon="1.40019">
        <ele>128</ele>
        <time>2020-10-03T06:31:26.000Z</time>
      </trkpt>
      <trkpt lat="43.62566" lon="1.40019">
        <ele>128</ele>
        <time>2020-10-03T06:31:27.000Z</time>
      </trkpt>
      <trkpt lat="43.62569" lon="1.40019">
        <ele>127.67777904198</ele>
        <time>2020-10-03T06:31:28.000Z</time>
      </trkpt>
      <trkpt lat="43.62572" lon="1.40019">
        <ele>127</ele>
        <time>2020-10-03T06:31:29.000Z</time>
      </trkpt>
      <trkpt lat="43.62575" lon="1.40019">
        <ele>127</ele>
        <time>2020-10-03T06:31:30.000Z</time>
      </trkpt>
      <trkpt lat="43.62577" lon="1.4002">
        <ele>127</ele>
        <time>2020-10-03T06:31:31.000Z</time>
      </trkpt>
      <trkpt lat="43.6258" lon="1.4002">
        <ele>127</ele>
        <time>2020-10-03T06:31:32.000Z</time>
      </trkpt>
      <trkpt lat="43.62583" lon="1.40022">
        <ele>127</ele>
        <time>2020-10-03T06:31:33.000Z</time>
      </trkpt>
      <trkpt lat="43.62587" lon="1.40023">
        <ele>127</ele>
        <time>2020-10-03T06:31:34.000Z</time>
      </trkpt>
      <trkpt lat="43.6259" lon="1.40024">
        <ele>128</ele>
        <time>2020-10-03T06:31:35.000Z</time>
      </trkpt>
      <trkpt lat="43.62592" lon="1.40025">
        <ele>128</ele>
        <time>2020-10-03T06:31:36.000Z</time>
      </trkpt>
      <trkpt lat="43.62595" lon="1.40025">
        <ele>128</ele>
        <time>2020-10-03T06:31:37.000Z</time>
      </trkpt>
      <trkpt lat="43.62598" lon="1.40025">
        <ele>128</ele>
        <time>2020-10-03T06:31:38.000Z</time>
      </trkpt>
      <trkpt lat="43.626" lon="1.40026">
        <ele>128</ele>
        <time>2020-10-03T06:31:39.000Z</time>
      </trkpt>
      <trkpt lat="43.62603" lon="1.40026">
        <ele>128</ele>
        <time>2020-10-03T06:31:40.000Z</time>
      </trkpt>
      <trkpt lat="43.62605" lon="1.40027">
        <ele>128</ele>
        <time>2020-10-03T06:31:41.000Z</time>
      </trkpt>
      <trkpt lat="43.62608" lon="1.40027">
        <ele>128</ele>
        <time>2020-10-03T06:31:42.000Z</time>
      </trkpt>
      <trkpt lat="43.6261" lon="1.40027">
        <ele>128</ele>
        <time>2020-10-03T06:31:43.000Z</time>
      </trkpt>
      <trkpt lat="43.62612" lon="1.40027">
        <ele>128</ele>
        <time>2020-10-03T06:31:44.000Z</time>
      </trkpt>
      <trkpt lat="43.62615" lon="1.40028">
        <ele>127.57142656202</ele>
        <time>2020-10-03T06:31:45.000Z</time>
      </trkpt>
      <trkpt lat="43.62618" lon="1.40028">
        <ele>127</ele>
        <time>2020-10-03T06:31:46.000Z</time>
      </trkpt>
      <trkpt lat="43.6262" lon="1.40028">
        <ele>127</ele>
        <time>2020-10-03T06:31:47.000Z</time>
      </trkpt>
      <trkpt lat="43.62623" lon="1.40029">
        <ele>127</ele>
        <time>2020-10-03T06:31:48.000Z</time>
      </trkpt>
      <trkpt lat="43.62625" lon="1.40029">
        <ele>127</ele>
        <time>2020-10-03T06:31:49.000Z</time>
      </trkpt>
      <trkpt lat="43.62628" lon="1.40029">
        <ele>127.45044858046</ele>
        <time>2020-10-03T06:31:50.000Z</time>
      </trkpt>
      <trkpt lat="43.62631" lon="1.4003">
        <ele>128</ele>
        <time>2020-10-03T06:31:51.000Z</time>
      </trkpt>
      <trkpt lat="43.62634" lon="1.4003">
        <ele>128</ele>
        <time>2020-10-03T06:31:52.000Z</time>
      </trkpt>
      <trkpt lat="43.62637" lon="1.4003">
        <ele>128</ele>
        <time>2020-10-03T06:31:53.000Z</time>
      </trkpt>
      <trkpt lat="43.62639" lon="1.4003">
        <ele>128</ele>
        <time>2020-10-03T06:31:54.000Z</time>
      </trkpt>
      <trkpt lat="43.62642" lon="1.4003">
        <ele>127.59999795202</ele>
        <time>2020-10-03T06:31:55.000Z</time>
      </trkpt>
      <trkpt lat="43.62644" lon="1.40029">
        <ele>127</ele>
        <time>2020-10-03T06:31:56.000Z</time>
      </trkpt>
      <trkpt lat="43.62647" lon="1.40029">
        <ele>127</ele>
        <time>2020-10-03T06:31:57.000Z</time>
      </trkpt>
      <trkpt lat="43.62649" lon="1.4003">
        <ele>127</ele>
        <time>2020-10-03T06:31:58.000Z</time>
      </trkpt>
      <trkpt lat="43.62652" lon="1.4003">
        <ele>127</ele>
        <time>2020-10-03T06:31:59.000Z</time>
      </trkpt>
      <trkpt lat="43.62656" lon="1.40031">
        <ele>127</ele>
        <time>2020-10-03T06:32:00.000Z</time>
      </trkpt>
      <trkpt lat="43.62658" lon="1.40031">
        <ele>127</ele>
        <time>2020-10-03T06:32:01.000Z</time>
      </trkpt>
      <trkpt lat="43.62661" lon="1.4003">
        <ele>127</ele>
        <time>2020-10-03T06:32:02.000Z</time>
      </trkpt>
      <trkpt lat="43.62663" lon="1.4003">
        <ele>127</ele>
        <time>2020-10-03T06:32:03.000Z</time>
      </trkpt>
      <trkpt lat="43.62666" lon="1.4003">
        <ele>127</ele>
        <time>2020-10-03T06:32:04.000Z</time>
      </trkpt>
      <trkpt lat="43.62669" lon="1.4003">
        <ele>127</ele>
        <time>2020-10-03T06:32:05.000Z</time>
      </trkpt>
      <trkpt lat="43.62672" lon="1.4003">
        <ele>127</ele>
        <time>2020-10-03T06:32:06.000Z</time>
      </trkpt>
      <trkpt lat="43.62674" lon="1.4003">
        <ele>127</ele>
        <time>2020-10-03T06:32:07.000Z</time>
      </trkpt>
      <trkpt lat="43.62677" lon="1.40031">
        <ele>127</ele>
        <time>2020-10-03T06:32:08.000Z</time>
      </trkpt>
      <trkpt lat="43.62679" lon="1.40031">
        <ele>127</ele>
        <time>2020-10-03T06:32:09.000Z</time>
      </trkpt>
      <trkpt lat="43.62682" lon="1.40032">
        <ele>126.98676853406</ele>
        <time>2020-10-03T06:32:10.000Z</time>
      </trkpt>
      <trkpt lat="43.62685" lon="1.40032">
        <ele>126</ele>
        <time>2020-10-03T06:32:11.000Z</time>
      </trkpt>
      <trkpt lat="43.62687" lon="1.40032">
        <ele>126</ele>
        <time>2020-10-03T06:32:12.000Z</time>
      </trkpt>
      <trkpt lat="43.6269" lon="1.40032">
        <ele>126</ele>
        <time>2020-10-03T06:32:13.000Z</time>
      </trkpt>
      <trkpt lat="43.62692" lon="1.40032">
        <ele>126.41446353256</ele>
        <time>2020-10-03T06:32:14.000Z</time>
      </trkpt>
      <trkpt lat="43.62694" lon="1.40032">
        <ele>127</ele>
        <time>2020-10-03T06:32:15.000Z</time>
      </trkpt>
      <trkpt lat="43.62697" lon="1.40032">
        <ele>127</ele>
        <time>2020-10-03T06:32:16.000Z</time>
      </trkpt>
      <trkpt lat="43.62699" lon="1.40032">
        <ele>127</ele>
        <time>2020-10-03T06:32:17.000Z</time>
      </trkpt>
      <trkpt lat="43.62702" lon="1.40032">
        <ele>127</ele>
        <time>2020-10-03T06:32:18.000Z</time>
      </trkpt>
      <trkpt lat="43.62705" lon="1.40033">
        <ele>127</ele>
        <time>2020-10-03T06:32:19.000Z</time>
      </trkpt>
      <trkpt lat="43.62708" lon="1.40033">
        <ele>127</ele>
        <time>2020-10-03T06:32:20.000Z</time>
      </trkpt>
      <trkpt lat="43.62711" lon="1.40034">
        <ele>126.648149904</ele>
        <time>2020-10-03T06:32:21.000Z</time>
      </trkpt>
      <trkpt lat="43.62714" lon="1.40035">
        <ele>126</ele>
        <time>2020-10-03T06:32:22.000Z</time>
      </trkpt>
      <trkpt lat="43.62717" lon="1.40035">
        <ele>126.38596707911</ele>
        <time>2020-10-03T06:32:23.000Z</time>
      </trkpt>
      <trkpt lat="43.6272" lon="1.40036">
        <ele>127</ele>
        <time>2020-10-03T06:32:24.000Z</time>
      </trkpt>
      <trkpt lat="43.62723" lon="1.40037">
        <ele>127</ele>
        <time>2020-10-03T06:32:25.000Z</time>
      </trkpt>
      <trkpt lat="43.62726" lon="1.40037">
        <ele>127</ele>
        <time>2020-10-03T06:32:26.000Z</time>
      </trkpt>
      <trkpt lat="43.62729" lon="1.40037">
        <ele>127</ele>
        <time>2020-10-03T06:32:27.000Z</time>
      </trkpt>
      <trkpt lat="43.62732" lon="1.40038">
        <ele>127</ele>
        <time>2020-10-03T06:32:28.000Z</time>
      </trkpt>
      <trkpt lat="43.62735" lon="1.40038">
        <ele>127</ele>
        <time>2020-10-03T06:32:29.000Z</time>
      </trkpt>
      <trkpt lat="43.62737" lon="1.40038">
        <ele>127</ele>
        <time>2020-10-03T06:32:30.000Z</time>
      </trkpt>
      <trkpt lat="43.62739" lon="1.40039">
        <ele>127</ele>
        <time>2020-10-03T06:32:31.000Z</time>
      </trkpt>
      <trkpt lat="43.62742" lon="1.40039">
        <ele>127</ele>
        <time>2020-10-03T06:32:32.000Z</time>
      </trkpt>
      <trkpt lat="43.62744" lon="1.40039">
        <ele>127</ele>
        <time>2020-10-03T06:32:33.000Z</time>
      </trkpt>
      <trkpt lat="43.62747" lon="1.4004">
        <ele>127</ele>
        <time>2020-10-03T06:32:34.000Z</time>
      </trkpt>
      <trkpt lat="43.6275" lon="1.4004">
        <ele>127</ele>
        <time>2020-10-03T06:32:35.000Z</time>
      </trkpt>
      <trkpt lat="43.62752" lon="1.4004">
        <ele>127</ele>
        <time>2020-10-03T06:32:36.000Z</time>
      </trkpt>
      <trkpt lat="43.62754" lon="1.4004">
        <ele>126.71951048187</ele>
        <time>2020-10-03T06:32:37.000Z</time>
      </trkpt>
      <trkpt lat="43.62757" lon="1.4004">
        <ele>126</ele>
        <time>2020-10-03T06:32:38.000Z</time>
      </trkpt>
      <trkpt lat="43.6276" lon="1.40041">
        <ele>126</ele>
        <time>2020-10-03T06:32:39.000Z</time>
      </trkpt>
      <trkpt lat="43.62762" lon="1.40041">
        <ele>126</ele>
        <time>2020-10-03T06:32:40.000Z</time>
      </trkpt>
      <trkpt lat="43.62764" lon="1.40041">
        <ele>126</ele>
        <time>2020-10-03T06:32:41.000Z</time>
      </trkpt>
      <trkpt lat="43.62767" lon="1.40042">
        <ele>126</ele>
        <time>2020-10-03T06:32:42.000Z</time>
      </trkpt>
      <trkpt lat="43.6277" lon="1.40042">
        <ele>126</ele>
        <time>2020-10-03T06:32:43.000Z</time>
      </trkpt>
      <trkpt lat="43.62772" lon="1.40042">
        <ele>126</ele>
        <time>2020-10-03T06:32:44.000Z</time>
      </trkpt>
      <trkpt lat="43.62775" lon="1.40041">
        <ele>125.62264378781</ele>
        <time>2020-10-03T06:32:45.000Z</time>
      </trkpt>
      <trkpt lat="43.62777" lon="1.40041">
        <ele>125</ele>
        <time>2020-10-03T06:32:46.000Z</time>
      </trkpt>
      <trkpt lat="43.62779" lon="1.40041">
        <ele>125</ele>
        <time>2020-10-03T06:32:47.000Z</time>
      </trkpt>
      <trkpt lat="43.62782" lon="1.40042">
        <ele>125</ele>
        <time>2020-10-03T06:32:48.000Z</time>
      </trkpt>
      <trkpt lat="43.62784" lon="1.40042">
        <ele>125</ele>
        <time>2020-10-03T06:32:49.000Z</time>
      </trkpt>
      <trkpt lat="43.62786" lon="1.40042">
        <ele>125</ele>
        <time>2020-10-03T06:32:50.000Z</time>
      </trkpt>
      <trkpt lat="43.62789" lon="1.40042">
        <ele>125</ele>
        <time>2020-10-03T06:32:51.000Z</time>
      </trkpt>
      <trkpt lat="43.62791" lon="1.40042">
        <ele>125</ele>
        <time>2020-10-03T06:32:52.000Z</time>
      </trkpt>
      <trkpt lat="43.62794" lon="1.40042">
        <ele>125</ele>
        <time>2020-10-03T06:32:53.000Z</time>
      </trkpt>
      <trkpt lat="43.62797" lon="1.40042">
        <ele>125</ele>
        <time>2020-10-03T06:32:54.000Z</time>
      </trkpt>
      <trkpt lat="43.628" lon="1.40043">
        <ele>125</ele>
        <time>2020-10-03T06:32:55.000Z</time>
      </trkpt>
      <trkpt lat="43.62802" lon="1.40043">
        <ele>125</ele>
        <time>2020-10-03T06:32:56.000Z</time>
      </trkpt>
      <trkpt lat="43.62805" lon="1.40043">
        <ele>125.36471102009</ele>
        <time>2020-10-03T06:32:57.000Z</time>
      </trkpt>
      <trkpt lat="43.62808" lon="1.40043">
        <ele>126</ele>
        <time>2020-10-03T06:32:58.000Z</time>
      </trkpt>
      <trkpt lat="43.6281" lon="1.40043">
        <ele>126</ele>
        <time>2020-10-03T06:32:59.000Z</time>
      </trkpt>
      <trkpt lat="43.62812" lon="1.40043">
        <ele>126</ele>
        <time>2020-10-03T06:33:00.000Z</time>
      </trkpt>
      <trkpt lat="43.62815" lon="1.40043">
        <ele>126</ele>
        <time>2020-10-03T06:33:01.000Z</time>
      </trkpt>
      <trkpt lat="43.62818" lon="1.40044">
        <ele>126</ele>
        <time>2020-10-03T06:33:02.000Z</time>
      </trkpt>
      <trkpt lat="43.6282" lon="1.40044">
        <ele>126</ele>
        <time>2020-10-03T06:33:03.000Z</time>
      </trkpt>
      <trkpt lat="43.62823" lon="1.40044">
        <ele>126</ele>
        <time>2020-10-03T06:33:04.000Z</time>
      </trkpt>
      <trkpt lat="43.62825" lon="1.40043">
        <ele>125.63528897991</ele>
        <time>2020-10-03T06:33:05.000Z</time>
      </trkpt>
      <trkpt lat="43.62828" lon="1.40043">
        <ele>125</ele>
        <time>2020-10-03T06:33:06.000Z</time>
      </trkpt>
      <trkpt lat="43.62832" lon="1.40043">
        <ele>125</ele>
        <time>2020-10-03T06:33:07.000Z</time>
      </trkpt>
      <trkpt lat="43.62835" lon="1.40044">
        <ele>125</ele>
        <time>2020-10-03T06:33:08.000Z</time>
      </trkpt>
      <trkpt lat="43.62838" lon="1.40044">
        <ele>126</ele>
        <time>2020-10-03T06:33:09.000Z</time>
      </trkpt>
      <trkpt lat="43.62841" lon="1.40045">
        <ele>126</ele>
        <time>2020-10-03T06:33:10.000Z</time>
      </trkpt>
      <trkpt lat="43.62844" lon="1.40045">
        <ele>126</ele>
        <time>2020-10-03T06:33:11.000Z</time>
      </trkpt>
      <trkpt lat="43.62846" lon="1.40046">
        <ele>126</ele>
        <time>2020-10-03T06:33:12.000Z</time>
      </trkpt>
      <trkpt lat="43.62849" lon="1.40047">
        <ele>126</ele>
        <time>2020-10-03T06:33:13.000Z</time>
      </trkpt>
      <trkpt lat="43.62851" lon="1.40048">
        <ele>126</ele>
        <time>2020-10-03T06:33:14.000Z</time>
      </trkpt>
      <trkpt lat="43.62853" lon="1.40049">
        <ele>126</ele>
        <time>2020-10-03T06:33:15.000Z</time>
      </trkpt>
      <trkpt lat="43.62856" lon="1.4005">
        <ele>126.36111407407</ele>
        <time>2020-10-03T06:33:16.000Z</time>
      </trkpt>
      <trkpt lat="43.62859" lon="1.4005">
        <ele>127</ele>
        <time>2020-10-03T06:33:17.000Z</time>
      </trkpt>
      <trkpt lat="43.62861" lon="1.40051">
        <ele>127</ele>
        <time>2020-10-03T06:33:18.000Z</time>
      </trkpt>
      <trkpt lat="43.62864" lon="1.40051">
        <ele>127</ele>
        <time>2020-10-03T06:33:19.000Z</time>
      </trkpt>
      <trkpt lat="43.62866" lon="1.40052">
        <ele>127</ele>
        <time>2020-10-03T06:33:20.000Z</time>
      </trkpt>
      <trkpt lat="43.6287" lon="1.40053">
        <ele>127</ele>
        <time>2020-10-03T06:33:21.000Z</time>
      </trkpt>
      <trkpt lat="43.62873" lon="1.40053">
        <ele>127</ele>
        <time>2020-10-03T06:33:22.000Z</time>
      </trkpt>
      <trkpt lat="43.62876" lon="1.40054">
        <ele>127</ele>
        <time>2020-10-03T06:33:23.000Z</time>
      </trkpt>
      <trkpt lat="43.62879" lon="1.40055">
        <ele>127</ele>
        <time>2020-10-03T06:33:24.000Z</time>
      </trkpt>
      <trkpt lat="43.62883" lon="1.40056">
        <ele>127</ele>
        <time>2020-10-03T06:33:25.000Z</time>
      </trkpt>
      <trkpt lat="43.62886" lon="1.40056">
        <ele>127</ele>
        <time>2020-10-03T06:33:26.000Z</time>
      </trkpt>
      <trkpt lat="43.62889" lon="1.40058">
        <ele>127</ele>
        <time>2020-10-03T06:33:27.000Z</time>
      </trkpt>
      <trkpt lat="43.62892" lon="1.40058">
        <ele>127</ele>
        <time>2020-10-03T06:33:28.000Z</time>
      </trkpt>
      <trkpt lat="43.62894" lon="1.40059">
        <ele>127</ele>
        <time>2020-10-03T06:33:29.000Z</time>
      </trkpt>
      <trkpt lat="43.62897" lon="1.4006">
        <ele>127</ele>
        <time>2020-10-03T06:33:30.000Z</time>
      </trkpt>
      <trkpt lat="43.62899" lon="1.4006">
        <ele>126.62727346777</ele>
        <time>2020-10-03T06:33:31.000Z</time>
      </trkpt>
      <trkpt lat="43.62902" lon="1.40061">
        <ele>126</ele>
        <time>2020-10-03T06:33:32.000Z</time>
      </trkpt>
      <trkpt lat="43.62905" lon="1.40061">
        <ele>126</ele>
        <time>2020-10-03T06:33:33.000Z</time>
      </trkpt>
      <trkpt lat="43.62908" lon="1.40062">
        <ele>126</ele>
        <time>2020-10-03T06:33:34.000Z</time>
      </trkpt>
      <trkpt lat="43.6291" lon="1.40062">
        <ele>126</ele>
        <time>2020-10-03T06:33:35.000Z</time>
      </trkpt>
      <trkpt lat="43.62913" lon="1.40063">
        <ele>126</ele>
        <time>2020-10-03T06:33:36.000Z</time>
      </trkpt>
      <trkpt lat="43.62915" lon="1.40064">
        <ele>126</ele>
        <time>2020-10-03T06:33:37.000Z</time>
      </trkpt>
      <trkpt lat="43.62918" lon="1.40065">
        <ele>126</ele>
        <time>2020-10-03T06:33:38.000Z</time>
      </trkpt>
      <trkpt lat="43.62921" lon="1.40065">
        <ele>126</ele>
        <time>2020-10-03T06:33:39.000Z</time>
      </trkpt>
      <trkpt lat="43.62923" lon="1.40065">
        <ele>126</ele>
        <time>2020-10-03T06:33:40.000Z</time>
      </trkpt>
      <trkpt lat="43.62925" lon="1.40066">
        <ele>126</ele>
        <time>2020-10-03T06:33:41.000Z</time>
      </trkpt>
      <trkpt lat="43.6293" lon="1.40067">
        <ele>126</ele>
        <time>2020-10-03T06:33:43.000Z</time>
      </trkpt>
      <trkpt lat="43.62933" lon="1.40067">
        <ele>126</ele>
        <time>2020-10-03T06:33:44.000Z</time>
      </trkpt>
      <trkpt lat="43.62935" lon="1.40067">
        <ele>126.68376255388</ele>
        <time>2020-10-03T06:33:45.000Z</time>
      </trkpt>
      <trkpt lat="43.62937" lon="1.40067">
        <ele>128</ele>
        <time>2020-10-03T06:33:46.000Z</time>
      </trkpt>
      <trkpt lat="43.62939" lon="1.40067">
        <ele>128</ele>
        <time>2020-10-03T06:33:47.000Z</time>
      </trkpt>
      <trkpt lat="43.62941" lon="1.40068">
        <ele>128.5</ele>
        <time>2020-10-03T06:33:48.000Z</time>
      </trkpt>
      <trkpt lat="43.62943" lon="1.40068">
        <ele>129.34246863575</ele>
        <time>2020-10-03T06:33:49.000Z</time>
      </trkpt>
      <trkpt lat="43.62946" lon="1.40068">
        <ele>130</ele>
        <time>2020-10-03T06:33:50.000Z</time>
      </trkpt>
      <trkpt lat="43.62949" lon="1.40068">
        <ele>130</ele>
        <time>2020-10-03T06:33:51.000Z</time>
      </trkpt>
      <trkpt lat="43.62952" lon="1.40069">
        <ele>130</ele>
        <time>2020-10-03T06:33:52.000Z</time>
      </trkpt>
      <trkpt lat="43.62956" lon="1.4007">
        <ele>130</ele>
        <time>2020-10-03T06:33:53.000Z</time>
      </trkpt>
      <trkpt lat="43.62958" lon="1.40071">
        <ele>130</ele>
        <time>2020-10-03T06:33:54.000Z</time>
      </trkpt>
      <trkpt lat="43.62961" lon="1.40071">
        <ele>130</ele>
        <time>2020-10-03T06:33:55.000Z</time>
      </trkpt>
      <trkpt lat="43.62964" lon="1.40072">
        <ele>130</ele>
        <time>2020-10-03T06:33:56.000Z</time>
      </trkpt>
      <trkpt lat="43.62967" lon="1.40072">
        <ele>130</ele>
        <time>2020-10-03T06:33:57.000Z</time>
      </trkpt>
      <trkpt lat="43.62969" lon="1.40072">
        <ele>130</ele>
        <time>2020-10-03T06:33:58.000Z</time>
      </trkpt>
      <trkpt lat="43.62972" lon="1.40072">
        <ele>130</ele>
        <time>2020-10-03T06:33:59.000Z</time>
      </trkpt>
      <trkpt lat="43.62975" lon="1.40073">
        <ele>130</ele>
        <time>2020-10-03T06:34:00.000Z</time>
      </trkpt>
      <trkpt lat="43.62977" lon="1.40073">
        <ele>130</ele>
        <time>2020-10-03T06:34:01.000Z</time>
      </trkpt>
      <trkpt lat="43.6298" lon="1.40074">
        <ele>130</ele>
        <time>2020-10-03T06:34:02.000Z</time>
      </trkpt>
      <trkpt lat="43.62982" lon="1.40075">
        <ele>130</ele>
        <time>2020-10-03T06:34:03.000Z</time>
      </trkpt>
      <trkpt lat="43.62985" lon="1.40076">
        <ele>129.71681335735</ele>
        <time>2020-10-03T06:34:04.000Z</time>
      </trkpt>
      <trkpt lat="43.62987" lon="1.40077">
        <ele>129</ele>
        <time>2020-10-03T06:34:05.000Z</time>
      </trkpt>
      <trkpt lat="43.62989" lon="1.40077">
        <ele>129</ele>
        <time>2020-10-03T06:34:06.000Z</time>
      </trkpt>
      <trkpt lat="43.62992" lon="1.40078">
        <ele>129</ele>
        <time>2020-10-03T06:34:07.000Z</time>
      </trkpt>
      <trkpt lat="43.62994" lon="1.40079">
        <ele>129</ele>
        <time>2020-10-03T06:34:08.000Z</time>
      </trkpt>
      <trkpt lat="43.62997" lon="1.40079">
        <ele>129</ele>
        <time>2020-10-03T06:34:09.000Z</time>
      </trkpt>
      <trkpt lat="43.62999" lon="1.40079">
        <ele>129</ele>
        <time>2020-10-03T06:34:10.000Z</time>
      </trkpt>
      <trkpt lat="43.63002" lon="1.40079">
        <ele>129</ele>
        <time>2020-10-03T06:34:11.000Z</time>
      </trkpt>
      <trkpt lat="43.63005" lon="1.4008">
        <ele>129</ele>
        <time>2020-10-03T06:34:12.000Z</time>
      </trkpt>
      <trkpt lat="43.63007" lon="1.40081">
        <ele>129</ele>
        <time>2020-10-03T06:34:13.000Z</time>
      </trkpt>
      <trkpt lat="43.6301" lon="1.40081">
        <ele>129</ele>
        <time>2020-10-03T06:34:14.000Z</time>
      </trkpt>
      <trkpt lat="43.63012" lon="1.40081">
        <ele>129</ele>
        <time>2020-10-03T06:34:15.000Z</time>
      </trkpt>
      <trkpt lat="43.63015" lon="1.40081">
        <ele>129</ele>
        <time>2020-10-03T06:34:16.000Z</time>
      </trkpt>
      <trkpt lat="43.63018" lon="1.40082">
        <ele>129</ele>
        <time>2020-10-03T06:34:17.000Z</time>
      </trkpt>
      <trkpt lat="43.6302" lon="1.40082">
        <ele>129</ele>
        <time>2020-10-03T06:34:18.000Z</time>
      </trkpt>
      <trkpt lat="43.63023" lon="1.40083">
        <ele>129</ele>
        <time>2020-10-03T06:34:19.000Z</time>
      </trkpt>
      <trkpt lat="43.63026" lon="1.40083">
        <ele>129</ele>
        <time>2020-10-03T06:34:20.000Z</time>
      </trkpt>
      <trkpt lat="43.63029" lon="1.40084">
        <ele>129</ele>
        <time>2020-10-03T06:34:21.000Z</time>
      </trkpt>
      <trkpt lat="43.63032" lon="1.40084">
        <ele>129</ele>
        <time>2020-10-03T06:34:22.000Z</time>
      </trkpt>
      <trkpt lat="43.63035" lon="1.40085">
        <ele>129</ele>
        <time>2020-10-03T06:34:23.000Z</time>
      </trkpt>
      <trkpt lat="43.63041" lon="1.40086">
        <ele>129</ele>
        <time>2020-10-03T06:34:25.000Z</time>
      </trkpt>
      <trkpt lat="43.63044" lon="1.40088">
        <ele>129</ele>
        <time>2020-10-03T06:34:26.000Z</time>
      </trkpt>
      <trkpt lat="43.63047" lon="1.40089">
        <ele>129</ele>
        <time>2020-10-03T06:34:27.000Z</time>
      </trkpt>
      <trkpt lat="43.6305" lon="1.4009">
        <ele>129</ele>
        <time>2020-10-03T06:34:28.000Z</time>
      </trkpt>
      <trkpt lat="43.63052" lon="1.40091">
        <ele>129</ele>
        <time>2020-10-03T06:34:29.000Z</time>
      </trkpt>
      <trkpt lat="43.63055" lon="1.40091">
        <ele>129</ele>
        <time>2020-10-03T06:34:30.000Z</time>
      </trkpt>
      <trkpt lat="43.63058" lon="1.40092">
        <ele>129</ele>
        <time>2020-10-03T06:34:31.000Z</time>
      </trkpt>
      <trkpt lat="43.63061" lon="1.40093">
        <ele>129</ele>
        <time>2020-10-03T06:34:32.000Z</time>
      </trkpt>
      <trkpt lat="43.63064" lon="1.40093">
        <ele>129</ele>
        <time>2020-10-03T06:34:33.000Z</time>
      </trkpt>
      <trkpt lat="43.63066" lon="1.40094">
        <ele>129</ele>
        <time>2020-10-03T06:34:34.000Z</time>
      </trkpt>
      <trkpt lat="43.63069" lon="1.40095">
        <ele>129</ele>
        <time>2020-10-03T06:34:35.000Z</time>
      </trkpt>
      <trkpt lat="43.63072" lon="1.40096">
        <ele>129</ele>
        <time>2020-10-03T06:34:36.000Z</time>
      </trkpt>
      <trkpt lat="43.63075" lon="1.40097">
        <ele>129</ele>
        <time>2020-10-03T06:34:37.000Z</time>
      </trkpt>
      <trkpt lat="43.63078" lon="1.40098">
        <ele>129</ele>
        <time>2020-10-03T06:34:38.000Z</time>
      </trkpt>
      <trkpt lat="43.63081" lon="1.40098">
        <ele>129</ele>
        <time>2020-10-03T06:34:39.000Z</time>
      </trkpt>
      <trkpt lat="43.63084" lon="1.40099">
        <ele>129</ele>
        <time>2020-10-03T06:34:40.000Z</time>
      </trkpt>
      <trkpt lat="43.63087" lon="1.401">
        <ele>129</ele>
        <time>2020-10-03T06:34:41.000Z</time>
      </trkpt>
      <trkpt lat="43.63089" lon="1.40101">
        <ele>129</ele>
        <time>2020-10-03T06:34:42.000Z</time>
      </trkpt>
      <trkpt lat="43.63092" lon="1.40101">
        <ele>129</ele>
        <time>2020-10-03T06:34:43.000Z</time>
      </trkpt>
      <trkpt lat="43.63094" lon="1.40102">
        <ele>129</ele>
        <time>2020-10-03T06:34:44.000Z</time>
      </trkpt>
      <trkpt lat="43.63097" lon="1.40102">
        <ele>128.54954508239</ele>
        <time>2020-10-03T06:34:45.000Z</time>
      </trkpt>
      <trkpt lat="43.631" lon="1.40103">
        <ele>128</ele>
        <time>2020-10-03T06:34:46.000Z</time>
      </trkpt>
      <trkpt lat="43.63103" lon="1.40104">
        <ele>128</ele>
        <time>2020-10-03T06:34:47.000Z</time>
      </trkpt>
      <trkpt lat="43.63106" lon="1.40104">
        <ele>128</ele>
        <time>2020-10-03T06:34:48.000Z</time>
      </trkpt>
      <trkpt lat="43.63108" lon="1.40105">
        <ele>128</ele>
        <time>2020-10-03T06:34:49.000Z</time>
      </trkpt>
      <trkpt lat="43.63111" lon="1.40105">
        <ele>128</ele>
        <time>2020-10-03T06:34:50.000Z</time>
      </trkpt>
      <trkpt lat="43.63114" lon="1.40105">
        <ele>128.37349639134</ele>
        <time>2020-10-03T06:34:51.000Z</time>
      </trkpt>
      <trkpt lat="43.63117" lon="1.40106">
        <ele>129</ele>
        <time>2020-10-03T06:34:52.000Z</time>
      </trkpt>
      <trkpt lat="43.6312" lon="1.40107">
        <ele>129</ele>
        <time>2020-10-03T06:34:53.000Z</time>
      </trkpt>
      <trkpt lat="43.63123" lon="1.40107">
        <ele>129</ele>
        <time>2020-10-03T06:34:54.000Z</time>
      </trkpt>
      <trkpt lat="43.63126" lon="1.40108">
        <ele>129</ele>
        <time>2020-10-03T06:34:55.000Z</time>
      </trkpt>
      <trkpt lat="43.63128" lon="1.40109">
        <ele>129</ele>
        <time>2020-10-03T06:34:56.000Z</time>
      </trkpt>
      <trkpt lat="43.63131" lon="1.4011">
        <ele>129</ele>
        <time>2020-10-03T06:34:57.000Z</time>
      </trkpt>
      <trkpt lat="43.63133" lon="1.40111">
        <ele>129.31395487289</ele>
        <time>2020-10-03T06:34:58.000Z</time>
      </trkpt>
      <trkpt lat="43.63136" lon="1.40112">
        <ele>130</ele>
        <time>2020-10-03T06:34:59.000Z</time>
      </trkpt>
      <trkpt lat="43.63138" lon="1.40113">
        <ele>130</ele>
        <time>2020-10-03T06:35:00.000Z</time>
      </trkpt>
      <trkpt lat="43.63141" lon="1.40115">
        <ele>130</ele>
        <time>2020-10-03T06:35:01.000Z</time>
      </trkpt>
      <trkpt lat="43.63143" lon="1.40116">
        <ele>130</ele>
        <time>2020-10-03T06:35:02.000Z</time>
      </trkpt>
      <trkpt lat="43.63146" lon="1.40117">
        <ele>130</ele>
        <time>2020-10-03T06:35:03.000Z</time>
      </trkpt>
      <trkpt lat="43.63149" lon="1.40118">
        <ele>130</ele>
        <time>2020-10-03T06:35:04.000Z</time>
      </trkpt>
      <trkpt lat="43.63152" lon="1.40119">
        <ele>130</ele>
        <time>2020-10-03T06:35:05.000Z</time>
      </trkpt>
      <trkpt lat="43.63154" lon="1.4012">
        <ele>130</ele>
        <time>2020-10-03T06:35:06.000Z</time>
      </trkpt>
      <trkpt lat="43.63157" lon="1.40121">
        <ele>130</ele>
        <time>2020-10-03T06:35:07.000Z</time>
      </trkpt>
      <trkpt lat="43.63159" lon="1.40122">
        <ele>130</ele>
        <time>2020-10-03T06:35:08.000Z</time>
      </trkpt>
      <trkpt lat="43.63162" lon="1.40123">
        <ele>130</ele>
        <time>2020-10-03T06:35:09.000Z</time>
      </trkpt>
      <trkpt lat="43.63164" lon="1.40124">
        <ele>130</ele>
        <time>2020-10-03T06:35:10.000Z</time>
      </trkpt>
      <trkpt lat="43.63167" lon="1.40125">
        <ele>130</ele>
        <time>2020-10-03T06:35:11.000Z</time>
      </trkpt>
      <trkpt lat="43.63169" lon="1.40126">
        <ele>130</ele>
        <time>2020-10-03T06:35:12.000Z</time>
      </trkpt>
      <trkpt lat="43.63172" lon="1.40127">
        <ele>130</ele>
        <time>2020-10-03T06:35:13.000Z</time>
      </trkpt>
      <trkpt lat="43.63174" lon="1.40127">
        <ele>130</ele>
        <time>2020-10-03T06:35:14.000Z</time>
      </trkpt>
      <trkpt lat="43.63176" lon="1.40128">
        <ele>130</ele>
        <time>2020-10-03T06:35:15.000Z</time>
      </trkpt>
      <trkpt lat="43.63178" lon="1.40129">
        <ele>130</ele>
        <time>2020-10-03T06:35:16.000Z</time>
      </trkpt>
      <trkpt lat="43.63181" lon="1.4013">
        <ele>130</ele>
        <time>2020-10-03T06:35:17.000Z</time>
      </trkpt>
      <trkpt lat="43.63184" lon="1.40131">
        <ele>130</ele>
        <time>2020-10-03T06:35:18.000Z</time>
      </trkpt>
      <trkpt lat="43.63186" lon="1.40132">
        <ele>130</ele>
        <time>2020-10-03T06:35:19.000Z</time>
      </trkpt>
      <trkpt lat="43.63189" lon="1.40133">
        <ele>130</ele>
        <time>2020-10-03T06:35:20.000Z</time>
      </trkpt>
      <trkpt lat="43.63192" lon="1.40134">
        <ele>130</ele>
        <time>2020-10-03T06:35:21.000Z</time>
      </trkpt>
      <trkpt lat="43.63195" lon="1.40135">
        <ele>130</ele>
        <time>2020-10-03T06:35:22.000Z</time>
      </trkpt>
      <trkpt lat="43.63197" lon="1.40136">
        <ele>130</ele>
        <time>2020-10-03T06:35:23.000Z</time>
      </trkpt>
      <trkpt lat="43.632" lon="1.40137">
        <ele>130</ele>
        <time>2020-10-03T06:35:24.000Z</time>
      </trkpt>
      <trkpt lat="43.63203" lon="1.40138">
        <ele>130</ele>
        <time>2020-10-03T06:35:25.000Z</time>
      </trkpt>
      <trkpt lat="43.63206" lon="1.40139">
        <ele>130</ele>
        <time>2020-10-03T06:35:26.000Z</time>
      </trkpt>
      <trkpt lat="43.63208" lon="1.40141">
        <ele>130</ele>
        <time>2020-10-03T06:35:27.000Z</time>
      </trkpt>
      <trkpt lat="43.63211" lon="1.40141">
        <ele>129.68084642828</ele>
        <time>2020-10-03T06:35:28.000Z</time>
      </trkpt>
      <trkpt lat="43.63214" lon="1.40143">
        <ele>129</ele>
        <time>2020-10-03T06:35:29.000Z</time>
      </trkpt>
      <trkpt lat="43.63216" lon="1.40144">
        <ele>129</ele>
        <time>2020-10-03T06:35:30.000Z</time>
      </trkpt>
      <trkpt lat="43.63219" lon="1.40145">
        <ele>129</ele>
        <time>2020-10-03T06:35:31.000Z</time>
      </trkpt>
      <trkpt lat="43.63221" lon="1.40146">
        <ele>129</ele>
        <time>2020-10-03T06:35:32.000Z</time>
      </trkpt>
      <trkpt lat="43.63224" lon="1.40147">
        <ele>129</ele>
        <time>2020-10-03T06:35:33.000Z</time>
      </trkpt>
      <trkpt lat="43.63226" lon="1.40148">
        <ele>129</ele>
        <time>2020-10-03T06:35:34.000Z</time>
      </trkpt>
      <trkpt lat="43.63229" lon="1.40148">
        <ele>129</ele>
        <time>2020-10-03T06:35:35.000Z</time>
      </trkpt>
      <trkpt lat="43.63232" lon="1.40149">
        <ele>129.44444444444</ele>
        <time>2020-10-03T06:35:36.000Z</time>
      </trkpt>
      <trkpt lat="43.63235" lon="1.40149">
        <ele>130</ele>
        <time>2020-10-03T06:35:37.000Z</time>
      </trkpt>
      <trkpt lat="43.63237" lon="1.4015">
        <ele>130</ele>
        <time>2020-10-03T06:35:38.000Z</time>
      </trkpt>
      <trkpt lat="43.6324" lon="1.40151">
        <ele>130</ele>
        <time>2020-10-03T06:35:39.000Z</time>
      </trkpt>
      <trkpt lat="43.63245" lon="1.40153">
        <ele>130</ele>
        <time>2020-10-03T06:35:41.000Z</time>
      </trkpt>
      <trkpt lat="43.63248" lon="1.40154">
        <ele>130</ele>
        <time>2020-10-03T06:35:42.000Z</time>
      </trkpt>
      <trkpt lat="43.63249" lon="1.40155">
        <ele>130</ele>
        <time>2020-10-03T06:35:44.000Z</time>
      </trkpt>
      <trkpt lat="43.63251" lon="1.40155">
        <ele>130</ele>
        <time>2020-10-03T06:35:45.000Z</time>
      </trkpt>
      <trkpt lat="43.63254" lon="1.40156">
        <ele>130</ele>
        <time>2020-10-03T06:35:46.000Z</time>
      </trkpt>
      <trkpt lat="43.63257" lon="1.40158">
        <ele>130</ele>
        <time>2020-10-03T06:35:47.000Z</time>
      </trkpt>
      <trkpt lat="43.6326" lon="1.40158">
        <ele>129.60000602355</ele>
        <time>2020-10-03T06:35:48.000Z</time>
      </trkpt>
      <trkpt lat="43.63263" lon="1.40159">
        <ele>129</ele>
        <time>2020-10-03T06:35:49.000Z</time>
      </trkpt>
      <trkpt lat="43.63266" lon="1.4016">
        <ele>129</ele>
        <time>2020-10-03T06:35:50.000Z</time>
      </trkpt>
      <trkpt lat="43.63269" lon="1.40161">
        <ele>129</ele>
        <time>2020-10-03T06:35:51.000Z</time>
      </trkpt>
      <trkpt lat="43.63271" lon="1.40162">
        <ele>128.83145647265</ele>
        <time>2020-10-03T06:35:52.000Z</time>
      </trkpt>
      <trkpt lat="43.63274" lon="1.40163">
        <ele>128</ele>
        <time>2020-10-03T06:35:53.000Z</time>
      </trkpt>
      <trkpt lat="43.63277" lon="1.40164">
        <ele>128</ele>
        <time>2020-10-03T06:35:54.000Z</time>
      </trkpt>
      <trkpt lat="43.6328" lon="1.40165">
        <ele>128</ele>
        <time>2020-10-03T06:35:55.000Z</time>
      </trkpt>
      <trkpt lat="43.63283" lon="1.40166">
        <ele>128</ele>
        <time>2020-10-03T06:35:56.000Z</time>
      </trkpt>
      <trkpt lat="43.63286" lon="1.40167">
        <ele>128</ele>
        <time>2020-10-03T06:35:57.000Z</time>
      </trkpt>
      <trkpt lat="43.63288" lon="1.40168">
        <ele>128</ele>
        <time>2020-10-03T06:35:58.000Z</time>
      </trkpt>
      <trkpt lat="43.63294" lon="1.40171">
        <ele>128</ele>
        <time>2020-10-03T06:36:00.000Z</time>
      </trkpt>
      <trkpt lat="43.63297" lon="1.40172">
        <ele>127.30233527319</ele>
        <time>2020-10-03T06:36:01.000Z</time>
      </trkpt>
      <trkpt lat="43.633" lon="1.40174">
        <ele>126</ele>
        <time>2020-10-03T06:36:02.000Z</time>
      </trkpt>
      <trkpt lat="43.63303" lon="1.40175">
        <ele>126.83333333333</ele>
        <time>2020-10-03T06:36:03.000Z</time>
      </trkpt>
      <trkpt lat="43.63306" lon="1.40176">
        <ele>128</ele>
        <time>2020-10-03T06:36:04.000Z</time>
      </trkpt>
      <trkpt lat="43.63309" lon="1.40177">
        <ele>128</ele>
        <time>2020-10-03T06:36:05.000Z</time>
      </trkpt>
      <trkpt lat="43.63312" lon="1.40178">
        <ele>128.44660676782</ele>
        <time>2020-10-03T06:36:06.000Z</time>
      </trkpt>
      <trkpt lat="43.63314" lon="1.40179">
        <ele>129</ele>
        <time>2020-10-03T06:36:07.000Z</time>
      </trkpt>
      <trkpt lat="43.63317" lon="1.40181">
        <ele>129</ele>
        <time>2020-10-03T06:36:08.000Z</time>
      </trkpt>
      <trkpt lat="43.6332" lon="1.40181">
        <ele>129</ele>
        <time>2020-10-03T06:36:09.000Z</time>
      </trkpt>
      <trkpt lat="43.63322" lon="1.40182">
        <ele>129</ele>
        <time>2020-10-03T06:36:10.000Z</time>
      </trkpt>
      <trkpt lat="43.63324" lon="1.40183">
        <ele>129</ele>
        <time>2020-10-03T06:36:11.000Z</time>
      </trkpt>
      <trkpt lat="43.63326" lon="1.40181">
        <ele>129</ele>
        <time>2020-10-03T06:36:13.000Z</time>
      </trkpt>
      <trkpt lat="43.63326" lon="1.40177">
        <ele>128.31819636364</ele>
        <time>2020-10-03T06:36:15.000Z</time>
      </trkpt>
      <trkpt lat="43.63327" lon="1.40174">
        <ele>127</ele>
        <time>2020-10-03T06:36:16.000Z</time>
      </trkpt>
      <trkpt lat="43.63327" lon="1.40171">
        <ele>127</ele>
        <time>2020-10-03T06:36:17.000Z</time>
      </trkpt>
      <trkpt lat="43.63328" lon="1.40168">
        <ele>126.64555485345</ele>
        <time>2020-10-03T06:36:18.000Z</time>
      </trkpt>
      <trkpt lat="43.63328" lon="1.40164">
        <ele>125.36842318005</ele>
        <time>2020-10-03T06:36:19.000Z</time>
      </trkpt>
      <trkpt lat="43.63328" lon="1.40161">
        <ele>126</ele>
        <time>2020-10-03T06:36:20.000Z</time>
      </trkpt>
      <trkpt lat="43.63329" lon="1.40157">
        <ele>126</ele>
        <time>2020-10-03T06:36:21.000Z</time>
      </trkpt>
      <trkpt lat="43.63329" lon="1.40153">
        <ele>126</ele>
        <time>2020-10-03T06:36:22.000Z</time>
      </trkpt>
      <trkpt lat="43.63329" lon="1.40149">
        <ele>126</ele>
        <time>2020-10-03T06:36:23.000Z</time>
      </trkpt>
      <trkpt lat="43.63329" lon="1.40145">
        <ele>126</ele>
        <time>2020-10-03T06:36:24.000Z</time>
      </trkpt>
      <trkpt lat="43.63329" lon="1.40141">
        <ele>126</ele>
        <time>2020-10-03T06:36:25.000Z</time>
      </trkpt>
      <trkpt lat="43.63329" lon="1.40137">
        <ele>126</ele>
        <time>2020-10-03T06:36:26.000Z</time>
      </trkpt>
      <trkpt lat="43.63329" lon="1.40133">
        <ele>126</ele>
        <time>2020-10-03T06:36:27.000Z</time>
      </trkpt>
      <trkpt lat="43.63329" lon="1.4013">
        <ele>126.47169492344</ele>
        <time>2020-10-03T06:36:28.000Z</time>
      </trkpt>
      <trkpt lat="43.6333" lon="1.40126">
        <ele>127</ele>
        <time>2020-10-03T06:36:29.000Z</time>
      </trkpt>
      <trkpt lat="43.6333" lon="1.40122">
        <ele>127</ele>
        <time>2020-10-03T06:36:30.000Z</time>
      </trkpt>
      <trkpt lat="43.6333" lon="1.40118">
        <ele>127</ele>
        <time>2020-10-03T06:36:31.000Z</time>
      </trkpt>
      <trkpt lat="43.63331" lon="1.40114">
        <ele>127.38888967901</ele>
        <time>2020-10-03T06:36:32.000Z</time>
      </trkpt>
      <trkpt lat="43.63331" lon="1.4011">
        <ele>128</ele>
        <time>2020-10-03T06:36:33.000Z</time>
      </trkpt>
      <trkpt lat="43.63331" lon="1.40106">
        <ele>128</ele>
        <time>2020-10-03T06:36:34.000Z</time>
      </trkpt>
      <trkpt lat="43.63331" lon="1.40102">
        <ele>128</ele>
        <time>2020-10-03T06:36:35.000Z</time>
      </trkpt>
      <trkpt lat="43.63332" lon="1.40098">
        <ele>127.37499428571</ele>
        <time>2020-10-03T06:36:36.000Z</time>
      </trkpt>
      <trkpt lat="43.63332" lon="1.40095">
        <ele>126</ele>
        <time>2020-10-03T06:36:37.000Z</time>
      </trkpt>
      <trkpt lat="43.63332" lon="1.40091">
        <ele>126</ele>
        <time>2020-10-03T06:36:38.000Z</time>
      </trkpt>
      <trkpt lat="43.63333" lon="1.40087">
        <ele>126</ele>
        <time>2020-10-03T06:36:39.000Z</time>
      </trkpt>
      <trkpt lat="43.63333" lon="1.40083">
        <ele>126</ele>
        <time>2020-10-03T06:36:40.000Z</time>
      </trkpt>
      <trkpt lat="43.63334" lon="1.40079">
        <ele>126.45161512311</ele>
        <time>2020-10-03T06:36:41.000Z</time>
      </trkpt>
      <trkpt lat="43.63334" lon="1.40075">
        <ele>127</ele>
        <time>2020-10-03T06:36:42.000Z</time>
      </trkpt>
      <trkpt lat="43.63334" lon="1.40071">
        <ele>127</ele>
        <time>2020-10-03T06:36:43.000Z</time>
      </trkpt>
      <trkpt lat="43.63335" lon="1.40068">
        <ele>127</ele>
        <time>2020-10-03T06:36:44.000Z</time>
      </trkpt>
      <trkpt lat="43.63335" lon="1.40064">
        <ele>127</ele>
        <time>2020-10-03T06:36:45.000Z</time>
      </trkpt>
      <trkpt lat="43.63336" lon="1.4006">
        <ele>127</ele>
        <time>2020-10-03T06:36:46.000Z</time>
      </trkpt>
      <trkpt lat="43.63336" lon="1.40057">
        <ele>127</ele>
        <time>2020-10-03T06:36:47.000Z</time>
      </trkpt>
      <trkpt lat="43.63336" lon="1.40053">
        <ele>127</ele>
        <time>2020-10-03T06:36:48.000Z</time>
      </trkpt>
      <trkpt lat="43.63337" lon="1.40049">
        <ele>127.37962666667</ele>
        <time>2020-10-03T06:36:49.000Z</time>
      </trkpt>
      <trkpt lat="43.63337" lon="1.40046">
        <ele>128</ele>
        <time>2020-10-03T06:36:50.000Z</time>
      </trkpt>
      <trkpt lat="43.63337" lon="1.40043">
        <ele>128</ele>
        <time>2020-10-03T06:36:51.000Z</time>
      </trkpt>
      <trkpt lat="43.63338" lon="1.4004">
        <ele>128.40230104901</ele>
        <time>2020-10-03T06:36:52.000Z</time>
      </trkpt>
      <trkpt lat="43.63339" lon="1.40037">
        <ele>129</ele>
        <time>2020-10-03T06:36:53.000Z</time>
      </trkpt>
      <trkpt lat="43.63339" lon="1.40034">
        <ele>129</ele>
        <time>2020-10-03T06:36:54.000Z</time>
      </trkpt>
      <trkpt lat="43.6334" lon="1.40031">
        <ele>129.67143314286</ele>
        <time>2020-10-03T06:36:55.000Z</time>
      </trkpt>
      <trkpt lat="43.6334" lon="1.40028">
        <ele>131</ele>
        <time>2020-10-03T06:36:57.000Z</time>
      </trkpt>
      <trkpt lat="43.63341" lon="1.40025">
        <ele>131</ele>
        <time>2020-10-03T06:37:00.000Z</time>
      </trkpt>
      <trkpt lat="43.63342" lon="1.40021">
        <ele>131</ele>
        <time>2020-10-03T06:37:02.000Z</time>
      </trkpt>
      <trkpt lat="43.63342" lon="1.40019">
        <ele>131</ele>
        <time>2020-10-03T06:37:03.000Z</time>
      </trkpt>
      <trkpt lat="43.63342" lon="1.40016">
        <ele>131</ele>
        <time>2020-10-03T06:37:04.000Z</time>
      </trkpt>
      <trkpt lat="43.63342" lon="1.40013">
        <ele>131.43103524375</ele>
        <time>2020-10-03T06:37:05.000Z</time>
      </trkpt>
      <trkpt lat="43.63343" lon="1.4001">
        <ele>132</ele>
        <time>2020-10-03T06:37:06.000Z</time>
      </trkpt>
      <trkpt lat="43.63343" lon="1.40007">
        <ele>132</ele>
        <time>2020-10-03T06:37:07.000Z</time>
      </trkpt>
      <trkpt lat="43.63344" lon="1.40005">
        <ele>132.40476045349</ele>
        <time>2020-10-03T06:37:08.000Z</time>
      </trkpt>
      <trkpt lat="43.63345" lon="1.40003">
        <ele>133</ele>
        <time>2020-10-03T06:37:10.000Z</time>
      </trkpt>
      <trkpt lat="43.63345" lon="1.4">
        <ele>135</ele>
        <time>2020-10-03T06:37:12.000Z</time>
      </trkpt>
      <trkpt lat="43.63348" lon="1.39998">
        <ele>135</ele>
        <time>2020-10-03T06:37:14.000Z</time>
      </trkpt>
      <trkpt lat="43.63352" lon="1.39996">
        <ele>135</ele>
        <time>2020-10-03T06:37:16.000Z</time>
      </trkpt>
      <trkpt lat="43.63354" lon="1.39995">
        <ele>135</ele>
        <time>2020-10-03T06:37:17.000Z</time>
      </trkpt>
      <trkpt lat="43.63357" lon="1.39994">
        <ele>135</ele>
        <time>2020-10-03T06:37:18.000Z</time>
      </trkpt>
      <trkpt lat="43.63359" lon="1.39992">
        <ele>135</ele>
        <time>2020-10-03T06:37:19.000Z</time>
      </trkpt>
      <trkpt lat="43.63362" lon="1.39991">
        <ele>135</ele>
        <time>2020-10-03T06:37:20.000Z</time>
      </trkpt>
      <trkpt lat="43.63365" lon="1.3999">
        <ele>135</ele>
        <time>2020-10-03T06:37:21.000Z</time>
      </trkpt>
      <trkpt lat="43.63367" lon="1.3999">
        <ele>135</ele>
        <time>2020-10-03T06:37:22.000Z</time>
      </trkpt>
      <trkpt lat="43.6337" lon="1.39988">
        <ele>135</ele>
        <time>2020-10-03T06:37:23.000Z</time>
      </trkpt>
      <trkpt lat="43.63372" lon="1.39987">
        <ele>135.32222095802</ele>
        <time>2020-10-03T06:37:24.000Z</time>
      </trkpt>
      <trkpt lat="43.63374" lon="1.39986">
        <ele>136</ele>
        <time>2020-10-03T06:37:25.000Z</time>
      </trkpt>
      <trkpt lat="43.63377" lon="1.39984">
        <ele>136</ele>
        <time>2020-10-03T06:37:26.000Z</time>
      </trkpt>
      <trkpt lat="43.63379" lon="1.39983">
        <ele>136</ele>
        <time>2020-10-03T06:37:27.000Z</time>
      </trkpt>
      <trkpt lat="43.63381" lon="1.39983">
        <ele>136</ele>
        <time>2020-10-03T06:37:28.000Z</time>
      </trkpt>
      <trkpt lat="43.63384" lon="1.39984">
        <ele>136</ele>
        <time>2020-10-03T06:37:29.000Z</time>
      </trkpt>
      <trkpt lat="43.63387" lon="1.39986">
        <ele>136</ele>
        <time>2020-10-03T06:37:30.000Z</time>
      </trkpt>
      <trkpt lat="43.6339" lon="1.39987">
        <ele>136</ele>
        <time>2020-10-03T06:37:31.000Z</time>
      </trkpt>
      <trkpt lat="43.63392" lon="1.39989">
        <ele>136</ele>
        <time>2020-10-03T06:37:32.000Z</time>
      </trkpt>
      <trkpt lat="43.63395" lon="1.39991">
        <ele>136</ele>
        <time>2020-10-03T06:37:33.000Z</time>
      </trkpt>
      <trkpt lat="43.63398" lon="1.39993">
        <ele>136</ele>
        <time>2020-10-03T06:37:34.000Z</time>
      </trkpt>
      <trkpt lat="43.634" lon="1.39994">
        <ele>136</ele>
        <time>2020-10-03T06:37:35.000Z</time>
      </trkpt>
      <trkpt lat="43.63403" lon="1.39995">
        <ele>136</ele>
        <time>2020-10-03T06:37:36.000Z</time>
      </trkpt>
      <trkpt lat="43.63406" lon="1.39994">
        <ele>136</ele>
        <time>2020-10-03T06:37:37.000Z</time>
      </trkpt>
      <trkpt lat="43.63409" lon="1.39994">
        <ele>136</ele>
        <time>2020-10-03T06:37:38.000Z</time>
      </trkpt>
      <trkpt lat="43.63412" lon="1.39993">
        <ele>136</ele>
        <time>2020-10-03T06:37:39.000Z</time>
      </trkpt>
      <trkpt lat="43.63415" lon="1.39993">
        <ele>136</ele>
        <time>2020-10-03T06:37:40.000Z</time>
      </trkpt>
      <trkpt lat="43.63417" lon="1.39992">
        <ele>136</ele>
        <time>2020-10-03T06:37:41.000Z</time>
      </trkpt>
      <trkpt lat="43.6342" lon="1.39991">
        <ele>136</ele>
        <time>2020-10-03T06:37:42.000Z</time>
      </trkpt>
      <trkpt lat="43.63422" lon="1.3999">
        <ele>136</ele>
        <time>2020-10-03T06:37:43.000Z</time>
      </trkpt>
      <trkpt lat="43.63425" lon="1.39989">
        <ele>136</ele>
        <time>2020-10-03T06:37:44.000Z</time>
      </trkpt>
      <trkpt lat="43.63427" lon="1.39987">
        <ele>136</ele>
        <time>2020-10-03T06:37:45.000Z</time>
      </trkpt>
      <trkpt lat="43.6343" lon="1.39986">
        <ele>136</ele>
        <time>2020-10-03T06:37:46.000Z</time>
      </trkpt>
      <trkpt lat="43.63433" lon="1.39985">
        <ele>136</ele>
        <time>2020-10-03T06:37:47.000Z</time>
      </trkpt>
      <trkpt lat="43.63436" lon="1.39984">
        <ele>136</ele>
        <time>2020-10-03T06:37:48.000Z</time>
      </trkpt>
      <trkpt lat="43.63438" lon="1.39982">
        <ele>136</ele>
        <time>2020-10-03T06:37:49.000Z</time>
      </trkpt>
      <trkpt lat="43.6344" lon="1.3998">
        <ele>136</ele>
        <time>2020-10-03T06:37:50.000Z</time>
      </trkpt>
      <trkpt lat="43.63442" lon="1.39978">
        <ele>136</ele>
        <time>2020-10-03T06:37:51.000Z</time>
      </trkpt>
      <trkpt lat="43.63445" lon="1.39977">
        <ele>136</ele>
        <time>2020-10-03T06:37:52.000Z</time>
      </trkpt>
      <trkpt lat="43.63447" lon="1.39976">
        <ele>136</ele>
        <time>2020-10-03T06:37:53.000Z</time>
      </trkpt>
      <trkpt lat="43.6345" lon="1.39974">
        <ele>136</ele>
        <time>2020-10-03T06:37:54.000Z</time>
      </trkpt>
      <trkpt lat="43.63453" lon="1.39972">
        <ele>136</ele>
        <time>2020-10-03T06:37:55.000Z</time>
      </trkpt>
      <trkpt lat="43.63455" lon="1.39972">
        <ele>136</ele>
        <time>2020-10-03T06:37:56.000Z</time>
      </trkpt>
      <trkpt lat="43.63458" lon="1.39971">
        <ele>136</ele>
        <time>2020-10-03T06:37:57.000Z</time>
      </trkpt>
      <trkpt lat="43.63461" lon="1.3997">
        <ele>136</ele>
        <time>2020-10-03T06:37:58.000Z</time>
      </trkpt>
      <trkpt lat="43.63463" lon="1.3997">
        <ele>135.53703659808</ele>
        <time>2020-10-03T06:37:59.000Z</time>
      </trkpt>
      <trkpt lat="43.63466" lon="1.39969">
        <ele>135</ele>
        <time>2020-10-03T06:38:00.000Z</time>
      </trkpt>
      <trkpt lat="43.63469" lon="1.39968">
        <ele>135</ele>
        <time>2020-10-03T06:38:01.000Z</time>
      </trkpt>
      <trkpt lat="43.63472" lon="1.39968">
        <ele>135</ele>
        <time>2020-10-03T06:38:02.000Z</time>
      </trkpt>
      <trkpt lat="43.63474" lon="1.39966">
        <ele>135</ele>
        <time>2020-10-03T06:38:03.000Z</time>
      </trkpt>
      <trkpt lat="43.63474" lon="1.39963">
        <ele>135</ele>
        <time>2020-10-03T06:38:04.000Z</time>
      </trkpt>
      <trkpt lat="43.63473" lon="1.3996">
        <ele>135</ele>
        <time>2020-10-03T06:38:05.000Z</time>
      </trkpt>
      <trkpt lat="43.63472" lon="1.39957">
        <ele>135</ele>
        <time>2020-10-03T06:38:06.000Z</time>
      </trkpt>
      <trkpt lat="43.63471" lon="1.39954">
        <ele>134.56880313777</ele>
        <time>2020-10-03T06:38:07.000Z</time>
      </trkpt>
      <trkpt lat="43.6347" lon="1.39951">
        <ele>134</ele>
        <time>2020-10-03T06:38:08.000Z</time>
      </trkpt>
      <trkpt lat="43.63469" lon="1.39947">
        <ele>134</ele>
        <time>2020-10-03T06:38:09.000Z</time>
      </trkpt>
      <trkpt lat="43.63469" lon="1.39945">
        <ele>134</ele>
        <time>2020-10-03T06:38:10.000Z</time>
      </trkpt>
      <trkpt lat="43.63468" lon="1.39941">
        <ele>134</ele>
        <time>2020-10-03T06:38:11.000Z</time>
      </trkpt>
      <trkpt lat="43.63467" lon="1.39938">
        <ele>134</ele>
        <time>2020-10-03T06:38:12.000Z</time>
      </trkpt>
      <trkpt lat="43.63467" lon="1.39935">
        <ele>134</ele>
        <time>2020-10-03T06:38:13.000Z</time>
      </trkpt>
      <trkpt lat="43.63466" lon="1.39931">
        <ele>134</ele>
        <time>2020-10-03T06:38:14.000Z</time>
      </trkpt>
      <trkpt lat="43.63466" lon="1.39928">
        <ele>134</ele>
        <time>2020-10-03T06:38:15.000Z</time>
      </trkpt>
      <trkpt lat="43.63465" lon="1.39924">
        <ele>134</ele>
        <time>2020-10-03T06:38:16.000Z</time>
      </trkpt>
      <trkpt lat="43.63464" lon="1.39921">
        <ele>134.41111047901</ele>
        <time>2020-10-03T06:38:17.000Z</time>
      </trkpt>
      <trkpt lat="43.63463" lon="1.39918">
        <ele>135</ele>
        <time>2020-10-03T06:38:18.000Z</time>
      </trkpt>
      <trkpt lat="43.63462" lon="1.39914">
        <ele>135</ele>
        <time>2020-10-03T06:38:19.000Z</time>
      </trkpt>
      <trkpt lat="43.6346" lon="1.39911">
        <ele>135</ele>
        <time>2020-10-03T06:38:20.000Z</time>
      </trkpt>
      <trkpt lat="43.63459" lon="1.39907">
        <ele>135</ele>
        <time>2020-10-03T06:38:21.000Z</time>
      </trkpt>
      <trkpt lat="43.63458" lon="1.39903">
        <ele>135</ele>
        <time>2020-10-03T06:38:22.000Z</time>
      </trkpt>
      <trkpt lat="43.63457" lon="1.399">
        <ele>135</ele>
        <time>2020-10-03T06:38:23.000Z</time>
      </trkpt>
      <trkpt lat="43.63455" lon="1.39897">
        <ele>135</ele>
        <time>2020-10-03T06:38:24.000Z</time>
      </trkpt>
      <trkpt lat="43.63453" lon="1.39894">
        <ele>135</ele>
        <time>2020-10-03T06:38:25.000Z</time>
      </trkpt>
      <trkpt lat="43.63451" lon="1.39892">
        <ele>135</ele>
        <time>2020-10-03T06:38:26.000Z</time>
      </trkpt>
      <trkpt lat="43.63447" lon="1.3989">
        <ele>135</ele>
        <time>2020-10-03T06:38:27.000Z</time>
      </trkpt>
      <trkpt lat="43.63445" lon="1.39887">
        <ele>135</ele>
        <time>2020-10-03T06:38:28.000Z</time>
      </trkpt>
      <trkpt lat="43.63443" lon="1.39883">
        <ele>135</ele>
        <time>2020-10-03T06:38:29.000Z</time>
      </trkpt>
      <trkpt lat="43.63442" lon="1.3988">
        <ele>135</ele>
        <time>2020-10-03T06:38:30.000Z</time>
      </trkpt>
      <trkpt lat="43.63442" lon="1.39876">
        <ele>135</ele>
        <time>2020-10-03T06:38:31.000Z</time>
      </trkpt>
      <trkpt lat="43.63441" lon="1.39873">
        <ele>135</ele>
        <time>2020-10-03T06:38:32.000Z</time>
      </trkpt>
      <trkpt lat="43.6344" lon="1.3987">
        <ele>135</ele>
        <time>2020-10-03T06:38:33.000Z</time>
      </trkpt>
      <trkpt lat="43.63439" lon="1.39867">
        <ele>135</ele>
        <time>2020-10-03T06:38:35.000Z</time>
      </trkpt>
      <trkpt lat="43.63438" lon="1.39863">
        <ele>135</ele>
        <time>2020-10-03T06:38:37.000Z</time>
      </trkpt>
      <trkpt lat="43.63438" lon="1.39859">
        <ele>135</ele>
        <time>2020-10-03T06:38:38.000Z</time>
      </trkpt>
      <trkpt lat="43.63438" lon="1.3985">
        <ele>135</ele>
        <time>2020-10-03T06:38:40.000Z</time>
      </trkpt>
      <trkpt lat="43.63438" lon="1.39846">
        <ele>135</ele>
        <time>2020-10-03T06:38:41.000Z</time>
      </trkpt>
      <trkpt lat="43.63438" lon="1.39841">
        <ele>135</ele>
        <time>2020-10-03T06:38:42.000Z</time>
      </trkpt>
      <trkpt lat="43.63438" lon="1.39837">
        <ele>135</ele>
        <time>2020-10-03T06:38:43.000Z</time>
      </trkpt>
      <trkpt lat="43.63439" lon="1.39832">
        <ele>135</ele>
        <time>2020-10-03T06:38:44.000Z</time>
      </trkpt>
      <trkpt lat="43.6344" lon="1.39828">
        <ele>135</ele>
        <time>2020-10-03T06:38:45.000Z</time>
      </trkpt>
      <trkpt lat="43.6344" lon="1.39824">
        <ele>135</ele>
        <time>2020-10-03T06:38:46.000Z</time>
      </trkpt>
      <trkpt lat="43.63441" lon="1.3982">
        <ele>135</ele>
        <time>2020-10-03T06:38:47.000Z</time>
      </trkpt>
      <trkpt lat="43.63441" lon="1.39816">
        <ele>135</ele>
        <time>2020-10-03T06:38:48.000Z</time>
      </trkpt>
      <trkpt lat="43.63442" lon="1.39812">
        <ele>135</ele>
        <time>2020-10-03T06:38:49.000Z</time>
      </trkpt>
      <trkpt lat="43.63442" lon="1.39808">
        <ele>135</ele>
        <time>2020-10-03T06:38:50.000Z</time>
      </trkpt>
      <trkpt lat="43.63443" lon="1.39804">
        <ele>135</ele>
        <time>2020-10-03T06:38:51.000Z</time>
      </trkpt>
      <trkpt lat="43.63444" lon="1.398">
        <ele>135</ele>
        <time>2020-10-03T06:38:52.000Z</time>
      </trkpt>
      <trkpt lat="43.63444" lon="1.39796">
        <ele>135</ele>
        <time>2020-10-03T06:38:53.000Z</time>
      </trkpt>
      <trkpt lat="43.63444" lon="1.39792">
        <ele>135</ele>
        <time>2020-10-03T06:38:54.000Z</time>
      </trkpt>
      <trkpt lat="43.63445" lon="1.39789">
        <ele>135</ele>
        <time>2020-10-03T06:38:55.000Z</time>
      </trkpt>
      <trkpt lat="43.63445" lon="1.39786">
        <ele>135</ele>
        <time>2020-10-03T06:38:56.000Z</time>
      </trkpt>
      <trkpt lat="43.63446" lon="1.39783">
        <ele>135</ele>
        <time>2020-10-03T06:38:57.000Z</time>
      </trkpt>
      <trkpt lat="43.63446" lon="1.39779">
        <ele>135</ele>
        <time>2020-10-03T06:38:58.000Z</time>
      </trkpt>
      <trkpt lat="43.63446" lon="1.39776">
        <ele>135</ele>
        <time>2020-10-03T06:38:59.000Z</time>
      </trkpt>
      <trkpt lat="43.63446" lon="1.39772">
        <ele>135</ele>
        <time>2020-10-03T06:39:00.000Z</time>
      </trkpt>
      <trkpt lat="43.63446" lon="1.39768">
        <ele>135</ele>
        <time>2020-10-03T06:39:01.000Z</time>
      </trkpt>
      <trkpt lat="43.63446" lon="1.39764">
        <ele>135</ele>
        <time>2020-10-03T06:39:02.000Z</time>
      </trkpt>
      <trkpt lat="43.63446" lon="1.3976">
        <ele>135</ele>
        <time>2020-10-03T06:39:03.000Z</time>
      </trkpt>
      <trkpt lat="43.63446" lon="1.39756">
        <ele>135</ele>
        <time>2020-10-03T06:39:04.000Z</time>
      </trkpt>
      <trkpt lat="43.63446" lon="1.39752">
        <ele>135</ele>
        <time>2020-10-03T06:39:05.000Z</time>
      </trkpt>
      <trkpt lat="43.63447" lon="1.39749">
        <ele>135</ele>
        <time>2020-10-03T06:39:06.000Z</time>
      </trkpt>
      <trkpt lat="43.63448" lon="1.39745">
        <ele>135</ele>
        <time>2020-10-03T06:39:07.000Z</time>
      </trkpt>
      <trkpt lat="43.63449" lon="1.39741">
        <ele>135</ele>
        <time>2020-10-03T06:39:08.000Z</time>
      </trkpt>
      <trkpt lat="43.63449" lon="1.39738">
        <ele>135</ele>
        <time>2020-10-03T06:39:09.000Z</time>
      </trkpt>
      <trkpt lat="43.6345" lon="1.39734">
        <ele>135</ele>
        <time>2020-10-03T06:39:10.000Z</time>
      </trkpt>
      <trkpt lat="43.63451" lon="1.39731">
        <ele>135</ele>
        <time>2020-10-03T06:39:11.000Z</time>
      </trkpt>
      <trkpt lat="43.63451" lon="1.39727">
        <ele>135.43434526272</ele>
        <time>2020-10-03T06:39:12.000Z</time>
      </trkpt>
      <trkpt lat="43.63451" lon="1.39724">
        <ele>136</ele>
        <time>2020-10-03T06:39:13.000Z</time>
      </trkpt>
      <trkpt lat="43.63451" lon="1.3972">
        <ele>136</ele>
        <time>2020-10-03T06:39:14.000Z</time>
      </trkpt>
      <trkpt lat="43.63451" lon="1.39716">
        <ele>136</ele>
        <time>2020-10-03T06:39:15.000Z</time>
      </trkpt>
      <trkpt lat="43.63451" lon="1.39712">
        <ele>136</ele>
        <time>2020-10-03T06:39:16.000Z</time>
      </trkpt>
      <trkpt lat="43.63452" lon="1.39709">
        <ele>136</ele>
        <time>2020-10-03T06:39:17.000Z</time>
      </trkpt>
      <trkpt lat="43.63452" lon="1.39705">
        <ele>136</ele>
        <time>2020-10-03T06:39:18.000Z</time>
      </trkpt>
      <trkpt lat="43.63453" lon="1.39702">
        <ele>136</ele>
        <time>2020-10-03T06:39:19.000Z</time>
      </trkpt>
      <trkpt lat="43.63453" lon="1.39698">
        <ele>136</ele>
        <time>2020-10-03T06:39:20.000Z</time>
      </trkpt>
      <trkpt lat="43.63455" lon="1.39696">
        <ele>136</ele>
        <time>2020-10-03T06:39:21.000Z</time>
      </trkpt>
      <trkpt lat="43.63457" lon="1.39693">
        <ele>136</ele>
        <time>2020-10-03T06:39:22.000Z</time>
      </trkpt>
      <trkpt lat="43.63459" lon="1.39691">
        <ele>136</ele>
        <time>2020-10-03T06:39:23.000Z</time>
      </trkpt>
      <trkpt lat="43.63461" lon="1.39689">
        <ele>136</ele>
        <time>2020-10-03T06:39:24.000Z</time>
      </trkpt>
      <trkpt lat="43.63463" lon="1.39686">
        <ele>136</ele>
        <time>2020-10-03T06:39:25.000Z</time>
      </trkpt>
      <trkpt lat="43.63465" lon="1.39678">
        <ele>136</ele>
        <time>2020-10-03T06:39:27.000Z</time>
      </trkpt>
      <trkpt lat="43.63466" lon="1.39674">
        <ele>136</ele>
        <time>2020-10-03T06:39:28.000Z</time>
      </trkpt>
      <trkpt lat="43.63466" lon="1.3967">
        <ele>136</ele>
        <time>2020-10-03T06:39:29.000Z</time>
      </trkpt>
      <trkpt lat="43.63467" lon="1.39666">
        <ele>136</ele>
        <time>2020-10-03T06:39:30.000Z</time>
      </trkpt>
      <trkpt lat="43.63467" lon="1.39662">
        <ele>136</ele>
        <time>2020-10-03T06:39:31.000Z</time>
      </trkpt>
      <trkpt lat="43.63467" lon="1.39658">
        <ele>136</ele>
        <time>2020-10-03T06:39:32.000Z</time>
      </trkpt>
      <trkpt lat="43.63467" lon="1.39654">
        <ele>136</ele>
        <time>2020-10-03T06:39:33.000Z</time>
      </trkpt>
      <trkpt lat="43.63468" lon="1.39651">
        <ele>136</ele>
        <time>2020-10-03T06:39:34.000Z</time>
      </trkpt>
      <trkpt lat="43.63468" lon="1.39647">
        <ele>136</ele>
        <time>2020-10-03T06:39:35.000Z</time>
      </trkpt>
      <trkpt lat="43.63469" lon="1.39643">
        <ele>136</ele>
        <time>2020-10-03T06:39:36.000Z</time>
      </trkpt>
      <trkpt lat="43.63469" lon="1.3964">
        <ele>136</ele>
        <time>2020-10-03T06:39:37.000Z</time>
      </trkpt>
      <trkpt lat="43.63469" lon="1.39636">
        <ele>136</ele>
        <time>2020-10-03T06:39:38.000Z</time>
      </trkpt>
      <trkpt lat="43.63469" lon="1.39632">
        <ele>136</ele>
        <time>2020-10-03T06:39:39.000Z</time>
      </trkpt>
      <trkpt lat="43.63469" lon="1.39628">
        <ele>136</ele>
        <time>2020-10-03T06:39:40.000Z</time>
      </trkpt>
      <trkpt lat="43.63469" lon="1.39624">
        <ele>135.55555871603</ele>
        <time>2020-10-03T06:39:41.000Z</time>
      </trkpt>
      <trkpt lat="43.63468" lon="1.3962">
        <ele>135</ele>
        <time>2020-10-03T06:39:42.000Z</time>
      </trkpt>
      <trkpt lat="43.63469" lon="1.39617">
        <ele>135</ele>
        <time>2020-10-03T06:39:43.000Z</time>
      </trkpt>
      <trkpt lat="43.63469" lon="1.39613">
        <ele>135</ele>
        <time>2020-10-03T06:39:44.000Z</time>
      </trkpt>
      <trkpt lat="43.63469" lon="1.39609">
        <ele>135</ele>
        <time>2020-10-03T06:39:45.000Z</time>
      </trkpt>
      <trkpt lat="43.6347" lon="1.39605">
        <ele>135</ele>
        <time>2020-10-03T06:39:46.000Z</time>
      </trkpt>
      <trkpt lat="43.6347" lon="1.39602">
        <ele>135</ele>
        <time>2020-10-03T06:39:47.000Z</time>
      </trkpt>
      <trkpt lat="43.63469" lon="1.39598">
        <ele>135</ele>
        <time>2020-10-03T06:39:48.000Z</time>
      </trkpt>
      <trkpt lat="43.63469" lon="1.39595">
        <ele>135</ele>
        <time>2020-10-03T06:39:49.000Z</time>
      </trkpt>
      <trkpt lat="43.63468" lon="1.39592">
        <ele>135</ele>
        <time>2020-10-03T06:39:50.000Z</time>
      </trkpt>
      <trkpt lat="43.63468" lon="1.39588">
        <ele>135</ele>
        <time>2020-10-03T06:39:52.000Z</time>
      </trkpt>
      <trkpt lat="43.63469" lon="1.39584">
        <ele>135</ele>
        <time>2020-10-03T06:39:53.000Z</time>
      </trkpt>
      <trkpt lat="43.63468" lon="1.3958">
        <ele>135</ele>
        <time>2020-10-03T06:39:54.000Z</time>
      </trkpt>
      <trkpt lat="43.63468" lon="1.39577">
        <ele>135</ele>
        <time>2020-10-03T06:39:55.000Z</time>
      </trkpt>
      <trkpt lat="43.63469" lon="1.39574">
        <ele>135</ele>
        <time>2020-10-03T06:39:56.000Z</time>
      </trkpt>
      <trkpt lat="43.6347" lon="1.3957">
        <ele>135</ele>
        <time>2020-10-03T06:39:57.000Z</time>
      </trkpt>
      <trkpt lat="43.6347" lon="1.39567">
        <ele>135</ele>
        <time>2020-10-03T06:39:58.000Z</time>
      </trkpt>
      <trkpt lat="43.6347" lon="1.39563">
        <ele>135</ele>
        <time>2020-10-03T06:39:59.000Z</time>
      </trkpt>
      <trkpt lat="43.63469" lon="1.3956">
        <ele>135</ele>
        <time>2020-10-03T06:40:00.000Z</time>
      </trkpt>
      <trkpt lat="43.63469" lon="1.39556">
        <ele>135</ele>
        <time>2020-10-03T06:40:01.000Z</time>
      </trkpt>
      <trkpt lat="43.63468" lon="1.39553">
        <ele>135</ele>
        <time>2020-10-03T06:40:02.000Z</time>
      </trkpt>
      <trkpt lat="43.63468" lon="1.39549">
        <ele>135</ele>
        <time>2020-10-03T06:40:03.000Z</time>
      </trkpt>
      <trkpt lat="43.63468" lon="1.39545">
        <ele>135</ele>
        <time>2020-10-03T06:40:04.000Z</time>
      </trkpt>
      <trkpt lat="43.63467" lon="1.39541">
        <ele>135</ele>
        <time>2020-10-03T06:40:05.000Z</time>
      </trkpt>
      <trkpt lat="43.63467" lon="1.39537">
        <ele>135</ele>
        <time>2020-10-03T06:40:06.000Z</time>
      </trkpt>
      <trkpt lat="43.63466" lon="1.39533">
        <ele>135</ele>
        <time>2020-10-03T06:40:07.000Z</time>
      </trkpt>
      <trkpt lat="43.63466" lon="1.39529">
        <ele>135</ele>
        <time>2020-10-03T06:40:08.000Z</time>
      </trkpt>
      <trkpt lat="43.63466" lon="1.39526">
        <ele>135</ele>
        <time>2020-10-03T06:40:09.000Z</time>
      </trkpt>
      <trkpt lat="43.63466" lon="1.39523">
        <ele>135</ele>
        <time>2020-10-03T06:40:10.000Z</time>
      </trkpt>
      <trkpt lat="43.63464" lon="1.3952">
        <ele>135</ele>
        <time>2020-10-03T06:40:11.000Z</time>
      </trkpt>
      <trkpt lat="43.63464" lon="1.39516">
        <ele>135</ele>
        <time>2020-10-03T06:40:12.000Z</time>
      </trkpt>
      <trkpt lat="43.63463" lon="1.39511">
        <ele>135</ele>
        <time>2020-10-03T06:40:13.000Z</time>
      </trkpt>
      <trkpt lat="43.63462" lon="1.39508">
        <ele>135</ele>
        <time>2020-10-03T06:40:14.000Z</time>
      </trkpt>
      <trkpt lat="43.63462" lon="1.39504">
        <ele>135</ele>
        <time>2020-10-03T06:40:15.000Z</time>
      </trkpt>
      <trkpt lat="43.63463" lon="1.39501">
        <ele>135</ele>
        <time>2020-10-03T06:40:16.000Z</time>
      </trkpt>
      <trkpt lat="43.63464" lon="1.39497">
        <ele>135.38053488293</ele>
        <time>2020-10-03T06:40:17.000Z</time>
      </trkpt>
      <trkpt lat="43.63464" lon="1.39494">
        <ele>136</ele>
        <time>2020-10-03T06:40:18.000Z</time>
      </trkpt>
      <trkpt lat="43.63464" lon="1.3949">
        <ele>136.42156911957</ele>
        <time>2020-10-03T06:40:19.000Z</time>
      </trkpt>
      <trkpt lat="43.63464" lon="1.39487">
        <ele>137</ele>
        <time>2020-10-03T06:40:20.000Z</time>
      </trkpt>
      <trkpt lat="43.63463" lon="1.39484">
        <ele>137</ele>
        <time>2020-10-03T06:40:21.000Z</time>
      </trkpt>
      <trkpt lat="43.63463" lon="1.39481">
        <ele>137</ele>
        <time>2020-10-03T06:40:22.000Z</time>
      </trkpt>
      <trkpt lat="43.63461" lon="1.39477">
        <ele>137</ele>
        <time>2020-10-03T06:40:23.000Z</time>
      </trkpt>
      <trkpt lat="43.6346" lon="1.39473">
        <ele>137</ele>
        <time>2020-10-03T06:40:24.000Z</time>
      </trkpt>
      <trkpt lat="43.6346" lon="1.3947">
        <ele>137</ele>
        <time>2020-10-03T06:40:25.000Z</time>
      </trkpt>
      <trkpt lat="43.6346" lon="1.39466">
        <ele>137</ele>
        <time>2020-10-03T06:40:26.000Z</time>
      </trkpt>
      <trkpt lat="43.63459" lon="1.39462">
        <ele>136.63953384533</ele>
        <time>2020-10-03T06:40:27.000Z</time>
      </trkpt>
      <trkpt lat="43.63459" lon="1.39459">
        <ele>136</ele>
        <time>2020-10-03T06:40:28.000Z</time>
      </trkpt>
      <trkpt lat="43.63459" lon="1.39456">
        <ele>136</ele>
        <time>2020-10-03T06:40:29.000Z</time>
      </trkpt>
      <trkpt lat="43.63458" lon="1.39452">
        <ele>136</ele>
        <time>2020-10-03T06:40:30.000Z</time>
      </trkpt>
      <trkpt lat="43.63458" lon="1.39449">
        <ele>136</ele>
        <time>2020-10-03T06:40:31.000Z</time>
      </trkpt>
      <trkpt lat="43.63458" lon="1.39446">
        <ele>136.35294471968</ele>
        <time>2020-10-03T06:40:32.000Z</time>
      </trkpt>
      <trkpt lat="43.63457" lon="1.39442">
        <ele>137</ele>
        <time>2020-10-03T06:40:33.000Z</time>
      </trkpt>
      <trkpt lat="43.63457" lon="1.39439">
        <ele>137</ele>
        <time>2020-10-03T06:40:34.000Z</time>
      </trkpt>
      <trkpt lat="43.63457" lon="1.39435">
        <ele>137.45793956504</ele>
        <time>2020-10-03T06:40:35.000Z</time>
      </trkpt>
      <trkpt lat="43.63457" lon="1.39431">
        <ele>138</ele>
        <time>2020-10-03T06:40:36.000Z</time>
      </trkpt>
      <trkpt lat="43.63457" lon="1.39427">
        <ele>138</ele>
        <time>2020-10-03T06:40:37.000Z</time>
      </trkpt>
      <trkpt lat="43.63457" lon="1.39424">
        <ele>138</ele>
        <time>2020-10-03T06:40:38.000Z</time>
      </trkpt>
      <trkpt lat="43.63456" lon="1.3942">
        <ele>138</ele>
        <time>2020-10-03T06:40:39.000Z</time>
      </trkpt>
      <trkpt lat="43.63456" lon="1.39416">
        <ele>138</ele>
        <time>2020-10-03T06:40:40.000Z</time>
      </trkpt>
      <trkpt lat="43.63456" lon="1.39413">
        <ele>137.69368881099</ele>
        <time>2020-10-03T06:40:41.000Z</time>
      </trkpt>
      <trkpt lat="43.63456" lon="1.3941">
        <ele>137</ele>
        <time>2020-10-03T06:40:42.000Z</time>
      </trkpt>
      <trkpt lat="43.63456" lon="1.39406">
        <ele>137.22321142857</ele>
        <time>2020-10-03T06:40:43.000Z</time>
      </trkpt>
      <trkpt lat="43.63457" lon="1.39403">
        <ele>138</ele>
        <time>2020-10-03T06:40:44.000Z</time>
      </trkpt>
      <trkpt lat="43.63456" lon="1.39399">
        <ele>138</ele>
        <time>2020-10-03T06:40:45.000Z</time>
      </trkpt>
      <trkpt lat="43.63456" lon="1.39395">
        <ele>138</ele>
        <time>2020-10-03T06:40:46.000Z</time>
      </trkpt>
      <trkpt lat="43.63456" lon="1.3939">
        <ele>138.41860153599</ele>
        <time>2020-10-03T06:40:47.000Z</time>
      </trkpt>
      <trkpt lat="43.63455" lon="1.39384">
        <ele>139</ele>
        <time>2020-10-03T06:40:48.000Z</time>
      </trkpt>
      <trkpt lat="43.63456" lon="1.3938">
        <ele>139</ele>
        <time>2020-10-03T06:40:49.000Z</time>
      </trkpt>
      <trkpt lat="43.63456" lon="1.39376">
        <ele>139</ele>
        <time>2020-10-03T06:40:50.000Z</time>
      </trkpt>
      <trkpt lat="43.63455" lon="1.39371">
        <ele>139</ele>
        <time>2020-10-03T06:40:51.000Z</time>
      </trkpt>
      <trkpt lat="43.63455" lon="1.39367">
        <ele>139</ele>
        <time>2020-10-03T06:40:52.000Z</time>
      </trkpt>
      <trkpt lat="43.63455" lon="1.39362">
        <ele>139.25301111916</ele>
        <time>2020-10-03T06:40:53.000Z</time>
      </trkpt>
      <trkpt lat="43.63454" lon="1.39358">
        <ele>140</ele>
        <time>2020-10-03T06:40:54.000Z</time>
      </trkpt>
      <trkpt lat="43.63454" lon="1.39355">
        <ele>140</ele>
        <time>2020-10-03T06:40:55.000Z</time>
      </trkpt>
      <trkpt lat="43.63454" lon="1.39351">
        <ele>139.61052574847</ele>
        <time>2020-10-03T06:40:56.000Z</time>
      </trkpt>
      <trkpt lat="43.63454" lon="1.39347">
        <ele>139</ele>
        <time>2020-10-03T06:40:57.000Z</time>
      </trkpt>
      <trkpt lat="43.63454" lon="1.39343">
        <ele>139</ele>
        <time>2020-10-03T06:40:58.000Z</time>
      </trkpt>
      <trkpt lat="43.63454" lon="1.3934">
        <ele>139.24691455571</ele>
        <time>2020-10-03T06:40:59.000Z</time>
      </trkpt>
      <trkpt lat="43.63453" lon="1.39336">
        <ele>140</ele>
        <time>2020-10-03T06:41:00.000Z</time>
      </trkpt>
      <trkpt lat="43.63453" lon="1.39333">
        <ele>140</ele>
        <time>2020-10-03T06:41:01.000Z</time>
      </trkpt>
      <trkpt lat="43.63453" lon="1.39329">
        <ele>139.69421671198</ele>
        <time>2020-10-03T06:41:02.000Z</time>
      </trkpt>
      <trkpt lat="43.63453" lon="1.39326">
        <ele>139</ele>
        <time>2020-10-03T06:41:03.000Z</time>
      </trkpt>
      <trkpt lat="43.63453" lon="1.39322">
        <ele>139</ele>
        <time>2020-10-03T06:41:04.000Z</time>
      </trkpt>
      <trkpt lat="43.63453" lon="1.39319">
        <ele>139</ele>
        <time>2020-10-03T06:41:05.000Z</time>
      </trkpt>
      <trkpt lat="43.63453" lon="1.39316">
        <ele>139</ele>
        <time>2020-10-03T06:41:06.000Z</time>
      </trkpt>
      <trkpt lat="43.63454" lon="1.39313">
        <ele>139</ele>
        <time>2020-10-03T06:41:07.000Z</time>
      </trkpt>
      <trkpt lat="43.63454" lon="1.39309">
        <ele>139.36781473907</ele>
        <time>2020-10-03T06:41:08.000Z</time>
      </trkpt>
      <trkpt lat="43.63454" lon="1.39306">
        <ele>140</ele>
        <time>2020-10-03T06:41:09.000Z</time>
      </trkpt>
      <trkpt lat="43.63454" lon="1.39302">
        <ele>140.36606857143</ele>
        <time>2020-10-03T06:41:10.000Z</time>
      </trkpt>
      <trkpt lat="43.63453" lon="1.39299">
        <ele>141</ele>
        <time>2020-10-03T06:41:11.000Z</time>
      </trkpt>
      <trkpt lat="43.63453" lon="1.39295">
        <ele>141</ele>
        <time>2020-10-03T06:41:12.000Z</time>
      </trkpt>
      <trkpt lat="43.63453" lon="1.39292">
        <ele>141</ele>
        <time>2020-10-03T06:41:13.000Z</time>
      </trkpt>
      <trkpt lat="43.63452" lon="1.39289">
        <ele>141</ele>
        <time>2020-10-03T06:41:14.000Z</time>
      </trkpt>
      <trkpt lat="43.63452" lon="1.39285">
        <ele>141</ele>
        <time>2020-10-03T06:41:15.000Z</time>
      </trkpt>
      <trkpt lat="43.63452" lon="1.39281">
        <ele>141</ele>
        <time>2020-10-03T06:41:16.000Z</time>
      </trkpt>
      <trkpt lat="43.63452" lon="1.39277">
        <ele>141</ele>
        <time>2020-10-03T06:41:17.000Z</time>
      </trkpt>
      <trkpt lat="43.63452" lon="1.39274">
        <ele>141</ele>
        <time>2020-10-03T06:41:18.000Z</time>
      </trkpt>
      <trkpt lat="43.63451" lon="1.3927">
        <ele>141.42982416743</ele>
        <time>2020-10-03T06:41:19.000Z</time>
      </trkpt>
      <trkpt lat="43.63451" lon="1.39267">
        <ele>142</ele>
        <time>2020-10-03T06:41:20.000Z</time>
      </trkpt>
      <trkpt lat="43.63451" lon="1.39263">
        <ele>142</ele>
        <time>2020-10-03T06:41:21.000Z</time>
      </trkpt>
      <trkpt lat="43.63451" lon="1.39259">
        <ele>142</ele>
        <time>2020-10-03T06:41:22.000Z</time>
      </trkpt>
      <trkpt lat="43.63451" lon="1.39256">
        <ele>142</ele>
        <time>2020-10-03T06:41:23.000Z</time>
      </trkpt>
      <trkpt lat="43.6345" lon="1.39252">
        <ele>142</ele>
        <time>2020-10-03T06:41:24.000Z</time>
      </trkpt>
      <trkpt lat="43.6345" lon="1.39248">
        <ele>142</ele>
        <time>2020-10-03T06:41:25.000Z</time>
      </trkpt>
      <trkpt lat="43.63451" lon="1.39244">
        <ele>142</ele>
        <time>2020-10-03T06:41:26.000Z</time>
      </trkpt>
      <trkpt lat="43.63451" lon="1.3924">
        <ele>142</ele>
        <time>2020-10-03T06:41:27.000Z</time>
      </trkpt>
      <trkpt lat="43.63451" lon="1.39237">
        <ele>142</ele>
        <time>2020-10-03T06:41:28.000Z</time>
      </trkpt>
      <trkpt lat="43.63451" lon="1.39233">
        <ele>142</ele>
        <time>2020-10-03T06:41:29.000Z</time>
      </trkpt>
      <trkpt lat="43.63451" lon="1.39229">
        <ele>142</ele>
        <time>2020-10-03T06:41:30.000Z</time>
      </trkpt>
      <trkpt lat="43.63451" lon="1.39225">
        <ele>142</ele>
        <time>2020-10-03T06:41:31.000Z</time>
      </trkpt>
      <trkpt lat="43.63451" lon="1.39222">
        <ele>142</ele>
        <time>2020-10-03T06:41:32.000Z</time>
      </trkpt>
      <trkpt lat="43.63451" lon="1.39218">
        <ele>142</ele>
        <time>2020-10-03T06:41:33.000Z</time>
      </trkpt>
      <trkpt lat="43.63451" lon="1.39214">
        <ele>142</ele>
        <time>2020-10-03T06:41:34.000Z</time>
      </trkpt>
      <trkpt lat="43.6345" lon="1.3921">
        <ele>142</ele>
        <time>2020-10-03T06:41:35.000Z</time>
      </trkpt>
      <trkpt lat="43.6345" lon="1.39206">
        <ele>142</ele>
        <time>2020-10-03T06:41:36.000Z</time>
      </trkpt>
      <trkpt lat="43.6345" lon="1.39203">
        <ele>142</ele>
        <time>2020-10-03T06:41:37.000Z</time>
      </trkpt>
      <trkpt lat="43.6345" lon="1.39199">
        <ele>142</ele>
        <time>2020-10-03T06:41:38.000Z</time>
      </trkpt>
      <trkpt lat="43.6345" lon="1.39196">
        <ele>142</ele>
        <time>2020-10-03T06:41:39.000Z</time>
      </trkpt>
      <trkpt lat="43.6345" lon="1.39192">
        <ele>142</ele>
        <time>2020-10-03T06:41:40.000Z</time>
      </trkpt>
      <trkpt lat="43.63449" lon="1.39188">
        <ele>142</ele>
        <time>2020-10-03T06:41:41.000Z</time>
      </trkpt>
      <trkpt lat="43.63449" lon="1.39185">
        <ele>142</ele>
        <time>2020-10-03T06:41:42.000Z</time>
      </trkpt>
      <trkpt lat="43.63448" lon="1.39181">
        <ele>142</ele>
        <time>2020-10-03T06:41:43.000Z</time>
      </trkpt>
      <trkpt lat="43.63448" lon="1.39178">
        <ele>142.8695613459</ele>
        <time>2020-10-03T06:41:44.000Z</time>
      </trkpt>
      <trkpt lat="43.63447" lon="1.39174">
        <ele>144</ele>
        <time>2020-10-03T06:41:45.000Z</time>
      </trkpt>
      <trkpt lat="43.63446" lon="1.3917">
        <ele>144</ele>
        <time>2020-10-03T06:41:46.000Z</time>
      </trkpt>
      <trkpt lat="43.63445" lon="1.39167">
        <ele>144</ele>
        <time>2020-10-03T06:41:47.000Z</time>
      </trkpt>
      <trkpt lat="43.63445" lon="1.39163">
        <ele>144</ele>
        <time>2020-10-03T06:41:48.000Z</time>
      </trkpt>
      <trkpt lat="43.63444" lon="1.39159">
        <ele>144</ele>
        <time>2020-10-03T06:41:49.000Z</time>
      </trkpt>
      <trkpt lat="43.63444" lon="1.39155">
        <ele>144</ele>
        <time>2020-10-03T06:41:50.000Z</time>
      </trkpt>
      <trkpt lat="43.63443" lon="1.39152">
        <ele>144</ele>
        <time>2020-10-03T06:41:51.000Z</time>
      </trkpt>
      <trkpt lat="43.63442" lon="1.39148">
        <ele>144</ele>
        <time>2020-10-03T06:41:52.000Z</time>
      </trkpt>
      <trkpt lat="43.6344" lon="1.39144">
        <ele>144</ele>
        <time>2020-10-03T06:41:53.000Z</time>
      </trkpt>
      <trkpt lat="43.63439" lon="1.39139">
        <ele>143.63704026776</ele>
        <time>2020-10-03T06:41:54.000Z</time>
      </trkpt>
      <trkpt lat="43.63438" lon="1.39135">
        <ele>143</ele>
        <time>2020-10-03T06:41:55.000Z</time>
      </trkpt>
      <trkpt lat="43.63436" lon="1.39132">
        <ele>143</ele>
        <time>2020-10-03T06:41:56.000Z</time>
      </trkpt>
      <trkpt lat="43.63435" lon="1.39128">
        <ele>142.58139846401</ele>
        <time>2020-10-03T06:41:57.000Z</time>
      </trkpt>
      <trkpt lat="43.63434" lon="1.39124">
        <ele>142</ele>
        <time>2020-10-03T06:41:58.000Z</time>
      </trkpt>
      <trkpt lat="43.63434" lon="1.39121">
        <ele>142.33620965517</ele>
        <time>2020-10-03T06:41:59.000Z</time>
      </trkpt>
      <trkpt lat="43.63434" lon="1.39118">
        <ele>143</ele>
        <time>2020-10-03T06:42:00.000Z</time>
      </trkpt>
      <trkpt lat="43.63434" lon="1.39114">
        <ele>143</ele>
        <time>2020-10-03T06:42:01.000Z</time>
      </trkpt>
      <trkpt lat="43.63435" lon="1.39111">
        <ele>143</ele>
        <time>2020-10-03T06:42:02.000Z</time>
      </trkpt>
      <trkpt lat="43.63437" lon="1.39108">
        <ele>143</ele>
        <time>2020-10-03T06:42:03.000Z</time>
      </trkpt>
      <trkpt lat="43.63435" lon="1.39104">
        <ele>143</ele>
        <time>2020-10-03T06:42:05.000Z</time>
      </trkpt>
      <trkpt lat="43.63434" lon="1.39103">
        <ele>143</ele>
        <time>2020-10-03T06:42:06.000Z</time>
      </trkpt>
      <trkpt lat="43.63432" lon="1.39102">
        <ele>143.87640223207</ele>
        <time>2020-10-03T06:42:07.000Z</time>
      </trkpt>
      <trkpt lat="43.6343" lon="1.391">
        <ele>145</ele>
        <time>2020-10-03T06:42:08.000Z</time>
      </trkpt>
      <trkpt lat="43.63428" lon="1.39099">
        <ele>145</ele>
        <time>2020-10-03T06:42:09.000Z</time>
      </trkpt>
      <trkpt lat="43.63426" lon="1.39098">
        <ele>145</ele>
        <time>2020-10-03T06:42:10.000Z</time>
      </trkpt>
      <trkpt lat="43.63424" lon="1.39096">
        <ele>145</ele>
        <time>2020-10-03T06:42:11.000Z</time>
      </trkpt>
      <trkpt lat="43.63423" lon="1.39094">
        <ele>145.45044858046</ele>
        <time>2020-10-03T06:42:12.000Z</time>
      </trkpt>
      <trkpt lat="43.63422" lon="1.3909">
        <ele>146</ele>
        <time>2020-10-03T06:42:13.000Z</time>
      </trkpt>
      <trkpt lat="43.63422" lon="1.39087">
        <ele>146</ele>
        <time>2020-10-03T06:42:14.000Z</time>
      </trkpt>
      <trkpt lat="43.63421" lon="1.39084">
        <ele>146</ele>
        <time>2020-10-03T06:42:15.000Z</time>
      </trkpt>
      <trkpt lat="43.6342" lon="1.3908">
        <ele>146</ele>
        <time>2020-10-03T06:42:16.000Z</time>
      </trkpt>
      <trkpt lat="43.63419" lon="1.39077">
        <ele>146</ele>
        <time>2020-10-03T06:42:17.000Z</time>
      </trkpt>
      <trkpt lat="43.63418" lon="1.39074">
        <ele>146</ele>
        <time>2020-10-03T06:42:18.000Z</time>
      </trkpt>
      <trkpt lat="43.63418" lon="1.3907">
        <ele>146</ele>
        <time>2020-10-03T06:42:19.000Z</time>
      </trkpt>
      <trkpt lat="43.63417" lon="1.39067">
        <ele>146</ele>
        <time>2020-10-03T06:42:20.000Z</time>
      </trkpt>
      <trkpt lat="43.63417" lon="1.39063">
        <ele>146</ele>
        <time>2020-10-03T06:42:21.000Z</time>
      </trkpt>
      <trkpt lat="43.63418" lon="1.3906">
        <ele>146</ele>
        <time>2020-10-03T06:42:22.000Z</time>
      </trkpt>
      <trkpt lat="43.63419" lon="1.39056">
        <ele>146</ele>
        <time>2020-10-03T06:42:23.000Z</time>
      </trkpt>
      <trkpt lat="43.63421" lon="1.39053">
        <ele>146</ele>
        <time>2020-10-03T06:42:24.000Z</time>
      </trkpt>
      <trkpt lat="43.63423" lon="1.3905">
        <ele>146</ele>
        <time>2020-10-03T06:42:25.000Z</time>
      </trkpt>
      <trkpt lat="43.63425" lon="1.39047">
        <ele>146</ele>
        <time>2020-10-03T06:42:26.000Z</time>
      </trkpt>
      <trkpt lat="43.63426" lon="1.39044">
        <ele>146</ele>
        <time>2020-10-03T06:42:27.000Z</time>
      </trkpt>
      <trkpt lat="43.63428" lon="1.3904">
        <ele>146</ele>
        <time>2020-10-03T06:42:28.000Z</time>
      </trkpt>
      <trkpt lat="43.6343" lon="1.39038">
        <ele>146</ele>
        <time>2020-10-03T06:42:29.000Z</time>
      </trkpt>
      <trkpt lat="43.63432" lon="1.39036">
        <ele>146</ele>
        <time>2020-10-03T06:42:30.000Z</time>
      </trkpt>
      <trkpt lat="43.63434" lon="1.39034">
        <ele>145.54954508239</ele>
        <time>2020-10-03T06:42:31.000Z</time>
      </trkpt>
      <trkpt lat="43.63436" lon="1.39032">
        <ele>145</ele>
        <time>2020-10-03T06:42:32.000Z</time>
      </trkpt>
      <trkpt lat="43.63438" lon="1.39029">
        <ele>145</ele>
        <time>2020-10-03T06:42:33.000Z</time>
      </trkpt>
      <trkpt lat="43.63439" lon="1.39025">
        <ele>145</ele>
        <time>2020-10-03T06:42:34.000Z</time>
      </trkpt>
      <trkpt lat="43.6344" lon="1.39022">
        <ele>145</ele>
        <time>2020-10-03T06:42:35.000Z</time>
      </trkpt>
      <trkpt lat="43.63442" lon="1.39019">
        <ele>145</ele>
        <time>2020-10-03T06:42:36.000Z</time>
      </trkpt>
      <trkpt lat="43.63444" lon="1.39016">
        <ele>145</ele>
        <time>2020-10-03T06:42:37.000Z</time>
      </trkpt>
      <trkpt lat="43.63446" lon="1.39014">
        <ele>145</ele>
        <time>2020-10-03T06:42:38.000Z</time>
      </trkpt>
      <trkpt lat="43.63448" lon="1.39011">
        <ele>145</ele>
        <time>2020-10-03T06:42:39.000Z</time>
      </trkpt>
      <trkpt lat="43.6345" lon="1.39009">
        <ele>145</ele>
        <time>2020-10-03T06:42:40.000Z</time>
      </trkpt>
      <trkpt lat="43.63452" lon="1.39006">
        <ele>145</ele>
        <time>2020-10-03T06:42:41.000Z</time>
      </trkpt>
      <trkpt lat="43.63453" lon="1.39002">
        <ele>144.53333495873</ele>
        <time>2020-10-03T06:42:42.000Z</time>
      </trkpt>
      <trkpt lat="43.63454" lon="1.38999">
        <ele>144</ele>
        <time>2020-10-03T06:42:43.000Z</time>
      </trkpt>
      <trkpt lat="43.63455" lon="1.38995">
        <ele>144.5</ele>
        <time>2020-10-03T06:42:44.000Z</time>
      </trkpt>
      <trkpt lat="43.63456" lon="1.38991">
        <ele>145</ele>
        <time>2020-10-03T06:42:45.000Z</time>
      </trkpt>
      <trkpt lat="43.63456" lon="1.38988">
        <ele>145</ele>
        <time>2020-10-03T06:42:46.000Z</time>
      </trkpt>
      <trkpt lat="43.63457" lon="1.38984">
        <ele>145</ele>
        <time>2020-10-03T06:42:47.000Z</time>
      </trkpt>
      <trkpt lat="43.63458" lon="1.3898">
        <ele>145</ele>
        <time>2020-10-03T06:42:48.000Z</time>
      </trkpt>
      <trkpt lat="43.63459" lon="1.38976">
        <ele>145</ele>
        <time>2020-10-03T06:42:49.000Z</time>
      </trkpt>
      <trkpt lat="43.6346" lon="1.38973">
        <ele>145</ele>
        <time>2020-10-03T06:42:50.000Z</time>
      </trkpt>
      <trkpt lat="43.63461" lon="1.3897">
        <ele>144.63503438224</ele>
        <time>2020-10-03T06:42:51.000Z</time>
      </trkpt>
      <trkpt lat="43.63462" lon="1.38966">
        <ele>144</ele>
        <time>2020-10-03T06:42:52.000Z</time>
      </trkpt>
      <trkpt lat="43.63463" lon="1.38963">
        <ele>144</ele>
        <time>2020-10-03T06:42:53.000Z</time>
      </trkpt>
      <trkpt lat="43.63464" lon="1.38959">
        <ele>144</ele>
        <time>2020-10-03T06:42:54.000Z</time>
      </trkpt>
      <trkpt lat="43.63464" lon="1.38955">
        <ele>144.44444128397</ele>
        <time>2020-10-03T06:42:55.000Z</time>
      </trkpt>
      <trkpt lat="43.63463" lon="1.38951">
        <ele>145</ele>
        <time>2020-10-03T06:42:56.000Z</time>
      </trkpt>
      <trkpt lat="43.63463" lon="1.38947">
        <ele>145</ele>
        <time>2020-10-03T06:42:57.000Z</time>
      </trkpt>
      <trkpt lat="43.63462" lon="1.38943">
        <ele>145</ele>
        <time>2020-10-03T06:42:58.000Z</time>
      </trkpt>
      <trkpt lat="43.63461" lon="1.38939">
        <ele>145</ele>
        <time>2020-10-03T06:42:59.000Z</time>
      </trkpt>
      <trkpt lat="43.6346" lon="1.38936">
        <ele>145</ele>
        <time>2020-10-03T06:43:00.000Z</time>
      </trkpt>
      <trkpt lat="43.63459" lon="1.38932">
        <ele>145</ele>
        <time>2020-10-03T06:43:01.000Z</time>
      </trkpt>
      <trkpt lat="43.63458" lon="1.38929">
        <ele>145</ele>
        <time>2020-10-03T06:43:02.000Z</time>
      </trkpt>
      <trkpt lat="43.63457" lon="1.38925">
        <ele>145</ele>
        <time>2020-10-03T06:43:03.000Z</time>
      </trkpt>
      <trkpt lat="43.63456" lon="1.38922">
        <ele>144.65516632583</ele>
        <time>2020-10-03T06:43:04.000Z</time>
      </trkpt>
      <trkpt lat="43.63455" lon="1.38919">
        <ele>144</ele>
        <time>2020-10-03T06:43:05.000Z</time>
      </trkpt>
      <trkpt lat="43.63454" lon="1.38916">
        <ele>144.45055068713</ele>
        <time>2020-10-03T06:43:06.000Z</time>
      </trkpt>
      <trkpt lat="43.63452" lon="1.38912">
        <ele>145</ele>
        <time>2020-10-03T06:43:07.000Z</time>
      </trkpt>
      <trkpt lat="43.63451" lon="1.38909">
        <ele>145.41818520329</ele>
        <time>2020-10-03T06:43:08.000Z</time>
      </trkpt>
      <trkpt lat="43.6345" lon="1.38905">
        <ele>146</ele>
        <time>2020-10-03T06:43:09.000Z</time>
      </trkpt>
      <trkpt lat="43.63449" lon="1.38902">
        <ele>146</ele>
        <time>2020-10-03T06:43:10.000Z</time>
      </trkpt>
      <trkpt lat="43.63448" lon="1.38898">
        <ele>146</ele>
        <time>2020-10-03T06:43:11.000Z</time>
      </trkpt>
      <trkpt lat="43.63447" lon="1.38895">
        <ele>146</ele>
        <time>2020-10-03T06:43:12.000Z</time>
      </trkpt>
      <trkpt lat="43.63446" lon="1.38892">
        <ele>146</ele>
        <time>2020-10-03T06:43:13.000Z</time>
      </trkpt>
      <trkpt lat="43.63445" lon="1.38888">
        <ele>146</ele>
        <time>2020-10-03T06:43:14.000Z</time>
      </trkpt>
      <trkpt lat="43.63445" lon="1.38885">
        <ele>146</ele>
        <time>2020-10-03T06:43:15.000Z</time>
      </trkpt>
      <trkpt lat="43.63444" lon="1.38882">
        <ele>146</ele>
        <time>2020-10-03T06:43:16.000Z</time>
      </trkpt>
      <trkpt lat="43.63443" lon="1.38878">
        <ele>146</ele>
        <time>2020-10-03T06:43:17.000Z</time>
      </trkpt>
      <trkpt lat="43.63441" lon="1.38875">
        <ele>146</ele>
        <time>2020-10-03T06:43:18.000Z</time>
      </trkpt>
      <trkpt lat="43.6344" lon="1.38872">
        <ele>146</ele>
        <time>2020-10-03T06:43:19.000Z</time>
      </trkpt>
      <trkpt lat="43.63439" lon="1.38868">
        <ele>146</ele>
        <time>2020-10-03T06:43:20.000Z</time>
      </trkpt>
      <trkpt lat="43.63438" lon="1.38865">
        <ele>146</ele>
        <time>2020-10-03T06:43:21.000Z</time>
      </trkpt>
      <trkpt lat="43.63436" lon="1.38862">
        <ele>146</ele>
        <time>2020-10-03T06:43:22.000Z</time>
      </trkpt>
      <trkpt lat="43.63435" lon="1.38859">
        <ele>146</ele>
        <time>2020-10-03T06:43:23.000Z</time>
      </trkpt>
      <trkpt lat="43.63434" lon="1.38856">
        <ele>146</ele>
        <time>2020-10-03T06:43:24.000Z</time>
      </trkpt>
      <trkpt lat="43.63433" lon="1.38853">
        <ele>146</ele>
        <time>2020-10-03T06:43:25.000Z</time>
      </trkpt>
      <trkpt lat="43.63431" lon="1.38849">
        <ele>146</ele>
        <time>2020-10-03T06:43:26.000Z</time>
      </trkpt>
      <trkpt lat="43.63431" lon="1.38846">
        <ele>146</ele>
        <time>2020-10-03T06:43:27.000Z</time>
      </trkpt>
      <trkpt lat="43.63431" lon="1.38842">
        <ele>146</ele>
        <time>2020-10-03T06:43:28.000Z</time>
      </trkpt>
      <trkpt lat="43.6343" lon="1.38839">
        <ele>146.29870669592</ele>
        <time>2020-10-03T06:43:29.000Z</time>
      </trkpt>
      <trkpt lat="43.6343" lon="1.38835">
        <ele>147</ele>
        <time>2020-10-03T06:43:30.000Z</time>
      </trkpt>
      <trkpt lat="43.6343" lon="1.38831">
        <ele>147</ele>
        <time>2020-10-03T06:43:31.000Z</time>
      </trkpt>
      <trkpt lat="43.63429" lon="1.38827">
        <ele>147</ele>
        <time>2020-10-03T06:43:32.000Z</time>
      </trkpt>
      <trkpt lat="43.63429" lon="1.38822">
        <ele>147</ele>
        <time>2020-10-03T06:43:33.000Z</time>
      </trkpt>
      <trkpt lat="43.63429" lon="1.38819">
        <ele>146.73450986611</ele>
        <time>2020-10-03T06:43:34.000Z</time>
      </trkpt>
      <trkpt lat="43.63429" lon="1.38815">
        <ele>146</ele>
        <time>2020-10-03T06:43:35.000Z</time>
      </trkpt>
      <trkpt lat="43.63429" lon="1.38811">
        <ele>146</ele>
        <time>2020-10-03T06:43:36.000Z</time>
      </trkpt>
      <trkpt lat="43.63429" lon="1.38807">
        <ele>146</ele>
        <time>2020-10-03T06:43:37.000Z</time>
      </trkpt>
      <trkpt lat="43.63428" lon="1.38803">
        <ele>146</ele>
        <time>2020-10-03T06:43:38.000Z</time>
      </trkpt>
      <trkpt lat="43.63428" lon="1.38799">
        <ele>146</ele>
        <time>2020-10-03T06:43:39.000Z</time>
      </trkpt>
      <trkpt lat="43.63427" lon="1.38795">
        <ele>146</ele>
        <time>2020-10-03T06:43:40.000Z</time>
      </trkpt>
      <trkpt lat="43.63427" lon="1.38791">
        <ele>145.6511676366</ele>
        <time>2020-10-03T06:43:41.000Z</time>
      </trkpt>
      <trkpt lat="43.63427" lon="1.38787">
        <ele>145</ele>
        <time>2020-10-03T06:43:42.000Z</time>
      </trkpt>
      <trkpt lat="43.63427" lon="1.38784">
        <ele>145</ele>
        <time>2020-10-03T06:43:43.000Z</time>
      </trkpt>
      <trkpt lat="43.63427" lon="1.3878">
        <ele>145.423725688</ele>
        <time>2020-10-03T06:43:44.000Z</time>
      </trkpt>
      <trkpt lat="43.63426" lon="1.38777">
        <ele>146</ele>
        <time>2020-10-03T06:43:45.000Z</time>
      </trkpt>
      <trkpt lat="43.63426" lon="1.38773">
        <ele>146</ele>
        <time>2020-10-03T06:43:46.000Z</time>
      </trkpt>
      <trkpt lat="43.63426" lon="1.38769">
        <ele>146</ele>
        <time>2020-10-03T06:43:47.000Z</time>
      </trkpt>
      <trkpt lat="43.63425" lon="1.38765">
        <ele>146</ele>
        <time>2020-10-03T06:43:48.000Z</time>
      </trkpt>
      <trkpt lat="43.63425" lon="1.38761">
        <ele>146</ele>
        <time>2020-10-03T06:43:49.000Z</time>
      </trkpt>
      <trkpt lat="43.63424" lon="1.38757">
        <ele>146</ele>
        <time>2020-10-03T06:43:50.000Z</time>
      </trkpt>
      <trkpt lat="43.63424" lon="1.38753">
        <ele>146</ele>
        <time>2020-10-03T06:43:51.000Z</time>
      </trkpt>
      <trkpt lat="43.63424" lon="1.3875">
        <ele>146</ele>
        <time>2020-10-03T06:43:52.000Z</time>
      </trkpt>
      <trkpt lat="43.63423" lon="1.38746">
        <ele>146.31666133333</ele>
        <time>2020-10-03T06:43:53.000Z</time>
      </trkpt>
      <trkpt lat="43.63423" lon="1.38742">
        <ele>147</ele>
        <time>2020-10-03T06:43:54.000Z</time>
      </trkpt>
      <trkpt lat="43.63423" lon="1.38738">
        <ele>147</ele>
        <time>2020-10-03T06:43:55.000Z</time>
      </trkpt>
      <trkpt lat="43.63423" lon="1.38735">
        <ele>147</ele>
        <time>2020-10-03T06:43:56.000Z</time>
      </trkpt>
      <trkpt lat="43.63423" lon="1.38731">
        <ele>147.29787031237</ele>
        <time>2020-10-03T06:43:57.000Z</time>
      </trkpt>
      <trkpt lat="43.63422" lon="1.38727">
        <ele>148</ele>
        <time>2020-10-03T06:43:58.000Z</time>
      </trkpt>
      <trkpt lat="43.63422" lon="1.38724">
        <ele>148</ele>
        <time>2020-10-03T06:43:59.000Z</time>
      </trkpt>
      <trkpt lat="43.63421" lon="1.38721">
        <ele>148</ele>
        <time>2020-10-03T06:44:00.000Z</time>
      </trkpt>
      <trkpt lat="43.6342" lon="1.38718">
        <ele>148</ele>
        <time>2020-10-03T06:44:01.000Z</time>
      </trkpt>
      <trkpt lat="43.6342" lon="1.38714">
        <ele>148</ele>
        <time>2020-10-03T06:44:02.000Z</time>
      </trkpt>
      <trkpt lat="43.63419" lon="1.3871">
        <ele>147.6511676366</ele>
        <time>2020-10-03T06:44:03.000Z</time>
      </trkpt>
      <trkpt lat="43.63419" lon="1.38705">
        <ele>147</ele>
        <time>2020-10-03T06:44:04.000Z</time>
      </trkpt>
      <trkpt lat="43.63419" lon="1.387">
        <ele>146.69566185269</ele>
        <time>2020-10-03T06:44:05.000Z</time>
      </trkpt>
      <trkpt lat="43.63418" lon="1.38696">
        <ele>145</ele>
        <time>2020-10-03T06:44:06.000Z</time>
      </trkpt>
      <trkpt lat="43.63417" lon="1.38691">
        <ele>145</ele>
        <time>2020-10-03T06:44:07.000Z</time>
      </trkpt>
      <trkpt lat="43.63417" lon="1.38687">
        <ele>144.61240710054</ele>
        <time>2020-10-03T06:44:08.000Z</time>
      </trkpt>
      <trkpt lat="43.63416" lon="1.38683">
        <ele>144</ele>
        <time>2020-10-03T06:44:09.000Z</time>
      </trkpt>
      <trkpt lat="43.63416" lon="1.38679">
        <ele>144</ele>
        <time>2020-10-03T06:44:10.000Z</time>
      </trkpt>
      <trkpt lat="43.63416" lon="1.38674">
        <ele>144</ele>
        <time>2020-10-03T06:44:11.000Z</time>
      </trkpt>
      <trkpt lat="43.63415" lon="1.3867">
        <ele>144.31933225054</ele>
        <time>2020-10-03T06:44:12.000Z</time>
      </trkpt>
      <trkpt lat="43.63415" lon="1.38667">
        <ele>145</ele>
        <time>2020-10-03T06:44:13.000Z</time>
      </trkpt>
      <trkpt lat="43.63414" lon="1.38663">
        <ele>145</ele>
        <time>2020-10-03T06:44:14.000Z</time>
      </trkpt>
      <trkpt lat="43.63413" lon="1.38659">
        <ele>145</ele>
        <time>2020-10-03T06:44:15.000Z</time>
      </trkpt>
      <trkpt lat="43.63413" lon="1.38655">
        <ele>145.45160757542</ele>
        <time>2020-10-03T06:44:16.000Z</time>
      </trkpt>
      <trkpt lat="43.63412" lon="1.38651">
        <ele>146</ele>
        <time>2020-10-03T06:44:17.000Z</time>
      </trkpt>
      <trkpt lat="43.63411" lon="1.38648">
        <ele>146</ele>
        <time>2020-10-03T06:44:18.000Z</time>
      </trkpt>
      <trkpt lat="43.6341" lon="1.38644">
        <ele>146</ele>
        <time>2020-10-03T06:44:19.000Z</time>
      </trkpt>
      <trkpt lat="43.63408" lon="1.38641">
        <ele>146</ele>
        <time>2020-10-03T06:44:20.000Z</time>
      </trkpt>
      <trkpt lat="43.63406" lon="1.38639">
        <ele>146</ele>
        <time>2020-10-03T06:44:21.000Z</time>
      </trkpt>
      <trkpt lat="43.63404" lon="1.38637">
        <ele>146</ele>
        <time>2020-10-03T06:44:22.000Z</time>
      </trkpt>
      <trkpt lat="43.63402" lon="1.38635">
        <ele>146</ele>
        <time>2020-10-03T06:44:23.000Z</time>
      </trkpt>
      <trkpt lat="43.634" lon="1.38633">
        <ele>146</ele>
        <time>2020-10-03T06:44:24.000Z</time>
      </trkpt>
      <trkpt lat="43.63398" lon="1.38631">
        <ele>145.55356571429</ele>
        <time>2020-10-03T06:44:25.000Z</time>
      </trkpt>
      <trkpt lat="43.63395" lon="1.38629">
        <ele>145</ele>
        <time>2020-10-03T06:44:26.000Z</time>
      </trkpt>
      <trkpt lat="43.63392" lon="1.38627">
        <ele>145</ele>
        <time>2020-10-03T06:44:27.000Z</time>
      </trkpt>
      <trkpt lat="43.63389" lon="1.38625">
        <ele>145</ele>
        <time>2020-10-03T06:44:28.000Z</time>
      </trkpt>
      <trkpt lat="43.63387" lon="1.38623">
        <ele>145</ele>
        <time>2020-10-03T06:44:29.000Z</time>
      </trkpt>
      <trkpt lat="43.63384" lon="1.38621">
        <ele>145</ele>
        <time>2020-10-03T06:44:30.000Z</time>
      </trkpt>
      <trkpt lat="43.63382" lon="1.38619">
        <ele>144.80734181972</ele>
        <time>2020-10-03T06:44:31.000Z</time>
      </trkpt>
      <trkpt lat="43.63379" lon="1.38618">
        <ele>144</ele>
        <time>2020-10-03T06:44:32.000Z</time>
      </trkpt>
      <trkpt lat="43.63376" lon="1.38616">
        <ele>144</ele>
        <time>2020-10-03T06:44:33.000Z</time>
      </trkpt>
      <trkpt lat="43.63374" lon="1.38616">
        <ele>144</ele>
        <time>2020-10-03T06:44:34.000Z</time>
      </trkpt>
      <trkpt lat="43.63372" lon="1.38615">
        <ele>144.44761800273</ele>
        <time>2020-10-03T06:44:35.000Z</time>
      </trkpt>
      <trkpt lat="43.63369" lon="1.38615">
        <ele>145</ele>
        <time>2020-10-03T06:44:36.000Z</time>
      </trkpt>
      <trkpt lat="43.63367" lon="1.38615">
        <ele>145.42307692308</ele>
        <time>2020-10-03T06:44:37.000Z</time>
      </trkpt>
      <trkpt lat="43.63365" lon="1.38615">
        <ele>146</ele>
        <time>2020-10-03T06:44:38.000Z</time>
      </trkpt>
      <trkpt lat="43.63363" lon="1.38616">
        <ele>146</ele>
        <time>2020-10-03T06:44:39.000Z</time>
      </trkpt>
      <trkpt lat="43.6336" lon="1.38616">
        <ele>146.31081244703</ele>
        <time>2020-10-03T06:44:40.000Z</time>
      </trkpt>
      <trkpt lat="43.63357" lon="1.38616">
        <ele>147</ele>
        <time>2020-10-03T06:44:41.000Z</time>
      </trkpt>
      <trkpt lat="43.63355" lon="1.38615">
        <ele>147</ele>
        <time>2020-10-03T06:44:42.000Z</time>
      </trkpt>
      <trkpt lat="43.63353" lon="1.38613">
        <ele>147.48544159863</ele>
        <time>2020-10-03T06:44:43.000Z</time>
      </trkpt>
      <trkpt lat="43.63351" lon="1.38611">
        <ele>148</ele>
        <time>2020-10-03T06:44:44.000Z</time>
      </trkpt>
      <trkpt lat="43.6335" lon="1.38608">
        <ele>147.57471788609</ele>
        <time>2020-10-03T06:44:45.000Z</time>
      </trkpt>
      <trkpt lat="43.63348" lon="1.38604">
        <ele>147</ele>
        <time>2020-10-03T06:44:46.000Z</time>
      </trkpt>
      <trkpt lat="43.63347" lon="1.38601">
        <ele>147</ele>
        <time>2020-10-03T06:44:47.000Z</time>
      </trkpt>
      <trkpt lat="43.63345" lon="1.38597">
        <ele>146.65516632583</ele>
        <time>2020-10-03T06:44:48.000Z</time>
      </trkpt>
      <trkpt lat="43.63344" lon="1.38593">
        <ele>146</ele>
        <time>2020-10-03T06:44:49.000Z</time>
      </trkpt>
      <trkpt lat="43.63343" lon="1.38589">
        <ele>146</ele>
        <time>2020-10-03T06:44:50.000Z</time>
      </trkpt>
      <trkpt lat="43.63342" lon="1.38586">
        <ele>146</ele>
        <time>2020-10-03T06:44:51.000Z</time>
      </trkpt>
      <trkpt lat="43.63341" lon="1.38582">
        <ele>146</ele>
        <time>2020-10-03T06:44:52.000Z</time>
      </trkpt>
      <trkpt lat="43.63339" lon="1.38579">
        <ele>146</ele>
        <time>2020-10-03T06:44:53.000Z</time>
      </trkpt>
      <trkpt lat="43.63338" lon="1.38575">
        <ele>145.54944931287</ele>
        <time>2020-10-03T06:44:54.000Z</time>
      </trkpt>
      <trkpt lat="43.63337" lon="1.38571">
        <ele>145</ele>
        <time>2020-10-03T06:44:55.000Z</time>
      </trkpt>
      <trkpt lat="43.63336" lon="1.38567">
        <ele>145</ele>
        <time>2020-10-03T06:44:56.000Z</time>
      </trkpt>
      <trkpt lat="43.63335" lon="1.38563">
        <ele>145</ele>
        <time>2020-10-03T06:44:57.000Z</time>
      </trkpt>
      <trkpt lat="43.63334" lon="1.38559">
        <ele>145</ele>
        <time>2020-10-03T06:44:58.000Z</time>
      </trkpt>
      <trkpt lat="43.63334" lon="1.38555">
        <ele>145</ele>
        <time>2020-10-03T06:44:59.000Z</time>
      </trkpt>
      <trkpt lat="43.63333" lon="1.38552">
        <ele>144.73913043478</ele>
        <time>2020-10-03T06:45:00.000Z</time>
      </trkpt>
      <trkpt lat="43.63332" lon="1.38549">
        <ele>144</ele>
        <time>2020-10-03T06:45:01.000Z</time>
      </trkpt>
      <trkpt lat="43.6333" lon="1.38545">
        <ele>144</ele>
        <time>2020-10-03T06:45:02.000Z</time>
      </trkpt>
      <trkpt lat="43.63329" lon="1.38541">
        <ele>144.48077538461</ele>
        <time>2020-10-03T06:45:03.000Z</time>
      </trkpt>
      <trkpt lat="43.63328" lon="1.38537">
        <ele>145</ele>
        <time>2020-10-03T06:45:04.000Z</time>
      </trkpt>
      <trkpt lat="43.63327" lon="1.38533">
        <ele>145</ele>
        <time>2020-10-03T06:45:05.000Z</time>
      </trkpt>
      <trkpt lat="43.63327" lon="1.38529">
        <ele>145</ele>
        <time>2020-10-03T06:45:06.000Z</time>
      </trkpt>
      <trkpt lat="43.63326" lon="1.38525">
        <ele>145</ele>
        <time>2020-10-03T06:45:07.000Z</time>
      </trkpt>
      <trkpt lat="43.63324" lon="1.38522">
        <ele>145</ele>
        <time>2020-10-03T06:45:08.000Z</time>
      </trkpt>
      <trkpt lat="43.63323" lon="1.38518">
        <ele>145</ele>
        <time>2020-10-03T06:45:09.000Z</time>
      </trkpt>
      <trkpt lat="43.63322" lon="1.38515">
        <ele>145</ele>
        <time>2020-10-03T06:45:10.000Z</time>
      </trkpt>
      <trkpt lat="43.63321" lon="1.38511">
        <ele>145</ele>
        <time>2020-10-03T06:45:11.000Z</time>
      </trkpt>
      <trkpt lat="43.6332" lon="1.38507">
        <ele>145</ele>
        <time>2020-10-03T06:45:12.000Z</time>
      </trkpt>
      <trkpt lat="43.63319" lon="1.38503">
        <ele>145</ele>
        <time>2020-10-03T06:45:13.000Z</time>
      </trkpt>
      <trkpt lat="43.63318" lon="1.38499">
        <ele>145</ele>
        <time>2020-10-03T06:45:14.000Z</time>
      </trkpt>
      <trkpt lat="43.63316" lon="1.38495">
        <ele>145</ele>
        <time>2020-10-03T06:45:15.000Z</time>
      </trkpt>
      <trkpt lat="43.63315" lon="1.38492">
        <ele>145</ele>
        <time>2020-10-03T06:45:16.000Z</time>
      </trkpt>
      <trkpt lat="43.63314" lon="1.38488">
        <ele>145</ele>
        <time>2020-10-03T06:45:17.000Z</time>
      </trkpt>
      <trkpt lat="43.63313" lon="1.38484">
        <ele>145</ele>
        <time>2020-10-03T06:45:18.000Z</time>
      </trkpt>
      <trkpt lat="43.63313" lon="1.3848">
        <ele>145</ele>
        <time>2020-10-03T06:45:19.000Z</time>
      </trkpt>
      <trkpt lat="43.63312" lon="1.38476">
        <ele>145</ele>
        <time>2020-10-03T06:45:20.000Z</time>
      </trkpt>
      <trkpt lat="43.63311" lon="1.38472">
        <ele>145</ele>
        <time>2020-10-03T06:45:21.000Z</time>
      </trkpt>
      <trkpt lat="43.6331" lon="1.38469">
        <ele>145</ele>
        <time>2020-10-03T06:45:22.000Z</time>
      </trkpt>
      <trkpt lat="43.6331" lon="1.38465">
        <ele>145</ele>
        <time>2020-10-03T06:45:23.000Z</time>
      </trkpt>
      <trkpt lat="43.6331" lon="1.38462">
        <ele>145</ele>
        <time>2020-10-03T06:45:24.000Z</time>
      </trkpt>
      <trkpt lat="43.63309" lon="1.38458">
        <ele>145</ele>
        <time>2020-10-03T06:45:25.000Z</time>
      </trkpt>
      <trkpt lat="43.63309" lon="1.38455">
        <ele>145</ele>
        <time>2020-10-03T06:45:26.000Z</time>
      </trkpt>
      <trkpt lat="43.63309" lon="1.38452">
        <ele>145.64367579338</ele>
        <time>2020-10-03T06:45:27.000Z</time>
      </trkpt>
      <trkpt lat="43.63309" lon="1.38449">
        <ele>147</ele>
        <time>2020-10-03T06:45:28.000Z</time>
      </trkpt>
      <trkpt lat="43.63309" lon="1.38445">
        <ele>147</ele>
        <time>2020-10-03T06:45:29.000Z</time>
      </trkpt>
      <trkpt lat="43.63309" lon="1.38441">
        <ele>147</ele>
        <time>2020-10-03T06:45:30.000Z</time>
      </trkpt>
      <trkpt lat="43.63309" lon="1.38437">
        <ele>147</ele>
        <time>2020-10-03T06:45:31.000Z</time>
      </trkpt>
      <trkpt lat="43.6331" lon="1.38433">
        <ele>147</ele>
        <time>2020-10-03T06:45:32.000Z</time>
      </trkpt>
      <trkpt lat="43.6331" lon="1.38429">
        <ele>147</ele>
        <time>2020-10-03T06:45:33.000Z</time>
      </trkpt>
      <trkpt lat="43.63311" lon="1.38426">
        <ele>147</ele>
        <time>2020-10-03T06:45:34.000Z</time>
      </trkpt>
      <trkpt lat="43.63311" lon="1.38422">
        <ele>147</ele>
        <time>2020-10-03T06:45:35.000Z</time>
      </trkpt>
      <trkpt lat="43.63311" lon="1.38418">
        <ele>147</ele>
        <time>2020-10-03T06:45:36.000Z</time>
      </trkpt>
      <trkpt lat="43.63311" lon="1.38414">
        <ele>147</ele>
        <time>2020-10-03T06:45:37.000Z</time>
      </trkpt>
      <trkpt lat="43.63311" lon="1.3841">
        <ele>147</ele>
        <time>2020-10-03T06:45:38.000Z</time>
      </trkpt>
      <trkpt lat="43.6331" lon="1.38406">
        <ele>147.35398330332</ele>
        <time>2020-10-03T06:45:39.000Z</time>
      </trkpt>
      <trkpt lat="43.63309" lon="1.38403">
        <ele>148</ele>
        <time>2020-10-03T06:45:40.000Z</time>
      </trkpt>
      <trkpt lat="43.63308" lon="1.384">
        <ele>148</ele>
        <time>2020-10-03T06:45:41.000Z</time>
      </trkpt>
      <trkpt lat="43.63306" lon="1.38396">
        <ele>148</ele>
        <time>2020-10-03T06:45:42.000Z</time>
      </trkpt>
      <trkpt lat="43.63305" lon="1.38393">
        <ele>148</ele>
        <time>2020-10-03T06:45:43.000Z</time>
      </trkpt>
      <trkpt lat="43.63303" lon="1.3839">
        <ele>148</ele>
        <time>2020-10-03T06:45:44.000Z</time>
      </trkpt>
      <trkpt lat="43.63301" lon="1.38387">
        <ele>148</ele>
        <time>2020-10-03T06:45:45.000Z</time>
      </trkpt>
      <trkpt lat="43.63299" lon="1.38385">
        <ele>147.6434780673</ele>
        <time>2020-10-03T06:45:46.000Z</time>
      </trkpt>
      <trkpt lat="43.63297" lon="1.38382">
        <ele>147</ele>
        <time>2020-10-03T06:45:47.000Z</time>
      </trkpt>
      <trkpt lat="43.63296" lon="1.3838">
        <ele>147</ele>
        <time>2020-10-03T06:45:48.000Z</time>
      </trkpt>
      <trkpt lat="43.63294" lon="1.38377">
        <ele>147</ele>
        <time>2020-10-03T06:45:49.000Z</time>
      </trkpt>
      <trkpt lat="43.63291" lon="1.38375">
        <ele>147</ele>
        <time>2020-10-03T06:45:50.000Z</time>
      </trkpt>
      <trkpt lat="43.63289" lon="1.38372">
        <ele>146.81944888889</ele>
        <time>2020-10-03T06:45:51.000Z</time>
      </trkpt>
      <trkpt lat="43.63288" lon="1.3837">
        <ele>146</ele>
        <time>2020-10-03T06:45:52.000Z</time>
      </trkpt>
      <trkpt lat="43.63286" lon="1.38367">
        <ele>146</ele>
        <time>2020-10-03T06:45:53.000Z</time>
      </trkpt>
      <trkpt lat="43.63284" lon="1.38365">
        <ele>146</ele>
        <time>2020-10-03T06:45:54.000Z</time>
      </trkpt>
      <trkpt lat="43.63282" lon="1.38362">
        <ele>146</ele>
        <time>2020-10-03T06:45:55.000Z</time>
      </trkpt>
      <trkpt lat="43.63281" lon="1.38359">
        <ele>146</ele>
        <time>2020-10-03T06:45:56.000Z</time>
      </trkpt>
      <trkpt lat="43.63279" lon="1.38356">
        <ele>146</ele>
        <time>2020-10-03T06:45:57.000Z</time>
      </trkpt>
      <trkpt lat="43.63278" lon="1.38352">
        <ele>146</ele>
        <time>2020-10-03T06:45:58.000Z</time>
      </trkpt>
      <trkpt lat="43.63277" lon="1.38349">
        <ele>146</ele>
        <time>2020-10-03T06:45:59.000Z</time>
      </trkpt>
      <trkpt lat="43.63276" lon="1.38345">
        <ele>146</ele>
        <time>2020-10-03T06:46:00.000Z</time>
      </trkpt>
      <trkpt lat="43.63275" lon="1.38342">
        <ele>146</ele>
        <time>2020-10-03T06:46:01.000Z</time>
      </trkpt>
      <trkpt lat="43.63274" lon="1.38339">
        <ele>146.28421293739</ele>
        <time>2020-10-03T06:46:02.000Z</time>
      </trkpt>
      <trkpt lat="43.63273" lon="1.38336">
        <ele>147</ele>
        <time>2020-10-03T06:46:03.000Z</time>
      </trkpt>
      <trkpt lat="43.63273" lon="1.38333">
        <ele>147</ele>
        <time>2020-10-03T06:46:04.000Z</time>
      </trkpt>
      <trkpt lat="43.63272" lon="1.38329">
        <ele>147</ele>
        <time>2020-10-03T06:46:05.000Z</time>
      </trkpt>
      <trkpt lat="43.63271" lon="1.38326">
        <ele>147</ele>
        <time>2020-10-03T06:46:06.000Z</time>
      </trkpt>
      <trkpt lat="43.6327" lon="1.38319">
        <ele>147</ele>
        <time>2020-10-03T06:46:08.000Z</time>
      </trkpt>
      <trkpt lat="43.6327" lon="1.38316">
        <ele>147</ele>
        <time>2020-10-03T06:46:09.000Z</time>
      </trkpt>
      <trkpt lat="43.6327" lon="1.38312">
        <ele>147</ele>
        <time>2020-10-03T06:46:10.000Z</time>
      </trkpt>
      <trkpt lat="43.6327" lon="1.38308">
        <ele>147</ele>
        <time>2020-10-03T06:46:11.000Z</time>
      </trkpt>
      <trkpt lat="43.6327" lon="1.38305">
        <ele>147</ele>
        <time>2020-10-03T06:46:12.000Z</time>
      </trkpt>
      <trkpt lat="43.6327" lon="1.38301">
        <ele>147</ele>
        <time>2020-10-03T06:46:13.000Z</time>
      </trkpt>
      <trkpt lat="43.6327" lon="1.38297">
        <ele>147</ele>
        <time>2020-10-03T06:46:14.000Z</time>
      </trkpt>
      <trkpt lat="43.6327" lon="1.38293">
        <ele>147</ele>
        <time>2020-10-03T06:46:15.000Z</time>
      </trkpt>
      <trkpt lat="43.6327" lon="1.38289">
        <ele>147</ele>
        <time>2020-10-03T06:46:16.000Z</time>
      </trkpt>
      <trkpt lat="43.6327" lon="1.38285">
        <ele>147</ele>
        <time>2020-10-03T06:46:17.000Z</time>
      </trkpt>
      <trkpt lat="43.6327" lon="1.38281">
        <ele>147</ele>
        <time>2020-10-03T06:46:18.000Z</time>
      </trkpt>
      <trkpt lat="43.6327" lon="1.38277">
        <ele>147</ele>
        <time>2020-10-03T06:46:19.000Z</time>
      </trkpt>
      <trkpt lat="43.63271" lon="1.38273">
        <ele>147</ele>
        <time>2020-10-03T06:46:20.000Z</time>
      </trkpt>
      <trkpt lat="43.63271" lon="1.38269">
        <ele>147</ele>
        <time>2020-10-03T06:46:21.000Z</time>
      </trkpt>
      <trkpt lat="43.63271" lon="1.38265">
        <ele>147</ele>
        <time>2020-10-03T06:46:22.000Z</time>
      </trkpt>
      <trkpt lat="43.63272" lon="1.38261">
        <ele>147</ele>
        <time>2020-10-03T06:46:23.000Z</time>
      </trkpt>
      <trkpt lat="43.63272" lon="1.38257">
        <ele>147</ele>
        <time>2020-10-03T06:46:24.000Z</time>
      </trkpt>
      <trkpt lat="43.63272" lon="1.38253">
        <ele>147</ele>
        <time>2020-10-03T06:46:25.000Z</time>
      </trkpt>
      <trkpt lat="43.63272" lon="1.38249">
        <ele>147</ele>
        <time>2020-10-03T06:46:26.000Z</time>
      </trkpt>
      <trkpt lat="43.63272" lon="1.38246">
        <ele>147</ele>
        <time>2020-10-03T06:46:27.000Z</time>
      </trkpt>
      <trkpt lat="43.63273" lon="1.38242">
        <ele>147</ele>
        <time>2020-10-03T06:46:28.000Z</time>
      </trkpt>
      <trkpt lat="43.63273" lon="1.38238">
        <ele>147</ele>
        <time>2020-10-03T06:46:29.000Z</time>
      </trkpt>
      <trkpt lat="43.63273" lon="1.38234">
        <ele>146.67021160707</ele>
        <time>2020-10-03T06:46:30.000Z</time>
      </trkpt>
      <trkpt lat="43.63274" lon="1.3823">
        <ele>146</ele>
        <time>2020-10-03T06:46:31.000Z</time>
      </trkpt>
      <trkpt lat="43.63274" lon="1.38227">
        <ele>146</ele>
        <time>2020-10-03T06:46:32.000Z</time>
      </trkpt>
      <trkpt lat="43.63274" lon="1.38223">
        <ele>146.34545073717</ele>
        <time>2020-10-03T06:46:33.000Z</time>
      </trkpt>
      <trkpt lat="43.63274" lon="1.38219">
        <ele>147</ele>
        <time>2020-10-03T06:46:34.000Z</time>
      </trkpt>
      <trkpt lat="43.63274" lon="1.38216">
        <ele>147</ele>
        <time>2020-10-03T06:46:35.000Z</time>
      </trkpt>
      <trkpt lat="43.63275" lon="1.38212">
        <ele>147</ele>
        <time>2020-10-03T06:46:36.000Z</time>
      </trkpt>
      <trkpt lat="43.63275" lon="1.38208">
        <ele>147</ele>
        <time>2020-10-03T06:46:37.000Z</time>
      </trkpt>
      <trkpt lat="43.63275" lon="1.38204">
        <ele>147</ele>
        <time>2020-10-03T06:46:38.000Z</time>
      </trkpt>
      <trkpt lat="43.63275" lon="1.382">
        <ele>147</ele>
        <time>2020-10-03T06:46:39.000Z</time>
      </trkpt>
      <trkpt lat="43.63276" lon="1.38196">
        <ele>147</ele>
        <time>2020-10-03T06:46:40.000Z</time>
      </trkpt>
      <trkpt lat="43.63276" lon="1.38192">
        <ele>147</ele>
        <time>2020-10-03T06:46:41.000Z</time>
      </trkpt>
      <trkpt lat="43.63276" lon="1.38188">
        <ele>147.32608937615</ele>
        <time>2020-10-03T06:46:42.000Z</time>
      </trkpt>
      <trkpt lat="43.63277" lon="1.38184">
        <ele>148</ele>
        <time>2020-10-03T06:46:43.000Z</time>
      </trkpt>
      <trkpt lat="43.63277" lon="1.3818">
        <ele>148</ele>
        <time>2020-10-03T06:46:44.000Z</time>
      </trkpt>
      <trkpt lat="43.63278" lon="1.38174">
        <ele>148</ele>
        <time>2020-10-03T06:46:46.000Z</time>
      </trkpt>
      <trkpt lat="43.63279" lon="1.3817">
        <ele>148</ele>
        <time>2020-10-03T06:46:47.000Z</time>
      </trkpt>
      <trkpt lat="43.6328" lon="1.38167">
        <ele>148</ele>
        <time>2020-10-03T06:46:48.000Z</time>
      </trkpt>
      <trkpt lat="43.63281" lon="1.38163">
        <ele>148</ele>
        <time>2020-10-03T06:46:49.000Z</time>
      </trkpt>
      <trkpt lat="43.63282" lon="1.38159">
        <ele>148.41739014291</ele>
        <time>2020-10-03T06:46:50.000Z</time>
      </trkpt>
      <trkpt lat="43.63282" lon="1.38155">
        <ele>149</ele>
        <time>2020-10-03T06:46:51.000Z</time>
      </trkpt>
      <trkpt lat="43.63283" lon="1.38152">
        <ele>149</ele>
        <time>2020-10-03T06:46:52.000Z</time>
      </trkpt>
      <trkpt lat="43.63284" lon="1.38148">
        <ele>149</ele>
        <time>2020-10-03T06:46:53.000Z</time>
      </trkpt>
      <trkpt lat="43.63285" lon="1.38144">
        <ele>149</ele>
        <time>2020-10-03T06:46:54.000Z</time>
      </trkpt>
      <trkpt lat="43.63286" lon="1.38141">
        <ele>149</ele>
        <time>2020-10-03T06:46:55.000Z</time>
      </trkpt>
      <trkpt lat="43.63287" lon="1.38137">
        <ele>149</ele>
        <time>2020-10-03T06:46:56.000Z</time>
      </trkpt>
      <trkpt lat="43.63288" lon="1.38134">
        <ele>149</ele>
        <time>2020-10-03T06:46:57.000Z</time>
      </trkpt>
      <trkpt lat="43.63289" lon="1.38131">
        <ele>149</ele>
        <time>2020-10-03T06:46:58.000Z</time>
      </trkpt>
      <trkpt lat="43.6329" lon="1.38128">
        <ele>149.47367924655</ele>
        <time>2020-10-03T06:46:59.000Z</time>
      </trkpt>
      <trkpt lat="43.63292" lon="1.38125">
        <ele>150</ele>
        <time>2020-10-03T06:47:00.000Z</time>
      </trkpt>
      <trkpt lat="43.63293" lon="1.38123">
        <ele>150</ele>
        <time>2020-10-03T06:47:01.000Z</time>
      </trkpt>
      <trkpt lat="43.63295" lon="1.3812">
        <ele>150</ele>
        <time>2020-10-03T06:47:02.000Z</time>
      </trkpt>
      <trkpt lat="43.63296" lon="1.38117">
        <ele>150</ele>
        <time>2020-10-03T06:47:03.000Z</time>
      </trkpt>
      <trkpt lat="43.63298" lon="1.38113">
        <ele>150</ele>
        <time>2020-10-03T06:47:04.000Z</time>
      </trkpt>
      <trkpt lat="43.63299" lon="1.3811">
        <ele>150</ele>
        <time>2020-10-03T06:47:05.000Z</time>
      </trkpt>
      <trkpt lat="43.633" lon="1.38106">
        <ele>150</ele>
        <time>2020-10-03T06:47:06.000Z</time>
      </trkpt>
      <trkpt lat="43.63301" lon="1.38103">
        <ele>150</ele>
        <time>2020-10-03T06:47:07.000Z</time>
      </trkpt>
      <trkpt lat="43.633" lon="1.38099">
        <ele>150</ele>
        <time>2020-10-03T06:47:08.000Z</time>
      </trkpt>
      <trkpt lat="43.633" lon="1.38094">
        <ele>150</ele>
        <time>2020-10-03T06:47:09.000Z</time>
      </trkpt>
      <trkpt lat="43.63302" lon="1.3809">
        <ele>150</ele>
        <time>2020-10-03T06:47:10.000Z</time>
      </trkpt>
      <trkpt lat="43.63304" lon="1.38088">
        <ele>149.55669626951</ele>
        <time>2020-10-03T06:47:11.000Z</time>
      </trkpt>
      <trkpt lat="43.63306" lon="1.38085">
        <ele>149</ele>
        <time>2020-10-03T06:47:12.000Z</time>
      </trkpt>
      <trkpt lat="43.63308" lon="1.38082">
        <ele>149</ele>
        <time>2020-10-03T06:47:13.000Z</time>
      </trkpt>
      <trkpt lat="43.6331" lon="1.3808">
        <ele>149</ele>
        <time>2020-10-03T06:47:14.000Z</time>
      </trkpt>
      <trkpt lat="43.63313" lon="1.38078">
        <ele>149</ele>
        <time>2020-10-03T06:47:15.000Z</time>
      </trkpt>
      <trkpt lat="43.63315" lon="1.38076">
        <ele>149</ele>
        <time>2020-10-03T06:47:16.000Z</time>
      </trkpt>
      <trkpt lat="43.63318" lon="1.38074">
        <ele>149.47367924655</ele>
        <time>2020-10-03T06:47:17.000Z</time>
      </trkpt>
      <trkpt lat="43.6332" lon="1.38072">
        <ele>150</ele>
        <time>2020-10-03T06:47:18.000Z</time>
      </trkpt>
      <trkpt lat="43.63323" lon="1.3807">
        <ele>150</ele>
        <time>2020-10-03T06:47:19.000Z</time>
      </trkpt>
      <trkpt lat="43.63325" lon="1.38068">
        <ele>150</ele>
        <time>2020-10-03T06:47:20.000Z</time>
      </trkpt>
      <trkpt lat="43.63327" lon="1.38066">
        <ele>150</ele>
        <time>2020-10-03T06:47:21.000Z</time>
      </trkpt>
      <trkpt lat="43.63329" lon="1.38064">
        <ele>150</ele>
        <time>2020-10-03T06:47:22.000Z</time>
      </trkpt>
      <trkpt lat="43.63332" lon="1.38061">
        <ele>150</ele>
        <time>2020-10-03T06:47:23.000Z</time>
      </trkpt>
      <trkpt lat="43.63334" lon="1.3806">
        <ele>149.62263923103</ele>
        <time>2020-10-03T06:47:24.000Z</time>
      </trkpt>
      <trkpt lat="43.63337" lon="1.38058">
        <ele>149</ele>
        <time>2020-10-03T06:47:25.000Z</time>
      </trkpt>
      <trkpt lat="43.63339" lon="1.38055">
        <ele>149</ele>
        <time>2020-10-03T06:47:26.000Z</time>
      </trkpt>
      <trkpt lat="43.63341" lon="1.38053">
        <ele>149</ele>
        <time>2020-10-03T06:47:27.000Z</time>
      </trkpt>
      <trkpt lat="43.63343" lon="1.38051">
        <ele>149</ele>
        <time>2020-10-03T06:47:28.000Z</time>
      </trkpt>
      <trkpt lat="43.63345" lon="1.38049">
        <ele>149</ele>
        <time>2020-10-03T06:47:29.000Z</time>
      </trkpt>
      <trkpt lat="43.63348" lon="1.38046">
        <ele>149</ele>
        <time>2020-10-03T06:47:30.000Z</time>
      </trkpt>
      <trkpt lat="43.6335" lon="1.38044">
        <ele>149</ele>
        <time>2020-10-03T06:47:31.000Z</time>
      </trkpt>
      <trkpt lat="43.63353" lon="1.38042">
        <ele>149</ele>
        <time>2020-10-03T06:47:32.000Z</time>
      </trkpt>
      <trkpt lat="43.63355" lon="1.3804">
        <ele>149</ele>
        <time>2020-10-03T06:47:33.000Z</time>
      </trkpt>
      <trkpt lat="43.63358" lon="1.38038">
        <ele>149</ele>
        <time>2020-10-03T06:47:34.000Z</time>
      </trkpt>
      <trkpt lat="43.6336" lon="1.38036">
        <ele>149</ele>
        <time>2020-10-03T06:47:35.000Z</time>
      </trkpt>
      <trkpt lat="43.63363" lon="1.38034">
        <ele>149</ele>
        <time>2020-10-03T06:47:36.000Z</time>
      </trkpt>
      <trkpt lat="43.63365" lon="1.38032">
        <ele>149</ele>
        <time>2020-10-03T06:47:37.000Z</time>
      </trkpt>
      <trkpt lat="43.63368" lon="1.38031">
        <ele>149</ele>
        <time>2020-10-03T06:47:38.000Z</time>
      </trkpt>
      <trkpt lat="43.6337" lon="1.3803">
        <ele>149</ele>
        <time>2020-10-03T06:47:39.000Z</time>
      </trkpt>
      <trkpt lat="43.63372" lon="1.38029">
        <ele>149</ele>
        <time>2020-10-03T06:47:40.000Z</time>
      </trkpt>
      <trkpt lat="43.63375" lon="1.38027">
        <ele>149</ele>
        <time>2020-10-03T06:47:41.000Z</time>
      </trkpt>
      <trkpt lat="43.63377" lon="1.38025">
        <ele>149</ele>
        <time>2020-10-03T06:47:42.000Z</time>
      </trkpt>
      <trkpt lat="43.6338" lon="1.38024">
        <ele>149</ele>
        <time>2020-10-03T06:47:43.000Z</time>
      </trkpt>
      <trkpt lat="43.63382" lon="1.38024">
        <ele>149</ele>
        <time>2020-10-03T06:47:44.000Z</time>
      </trkpt>
      <trkpt lat="43.63384" lon="1.38023">
        <ele>149</ele>
        <time>2020-10-03T06:47:45.000Z</time>
      </trkpt>
      <trkpt lat="43.63386" lon="1.38022">
        <ele>149</ele>
        <time>2020-10-03T06:47:46.000Z</time>
      </trkpt>
      <trkpt lat="43.63388" lon="1.38022">
        <ele>149</ele>
        <time>2020-10-03T06:47:47.000Z</time>
      </trkpt>
      <trkpt lat="43.6339" lon="1.3802">
        <ele>149</ele>
        <time>2020-10-03T06:47:48.000Z</time>
      </trkpt>
      <trkpt lat="43.63392" lon="1.38019">
        <ele>149</ele>
        <time>2020-10-03T06:47:49.000Z</time>
      </trkpt>
      <trkpt lat="43.63394" lon="1.38016">
        <ele>149</ele>
        <time>2020-10-03T06:47:50.000Z</time>
      </trkpt>
      <trkpt lat="43.63396" lon="1.38013">
        <ele>148.72092815574</ele>
        <time>2020-10-03T06:47:51.000Z</time>
      </trkpt>
      <trkpt lat="43.63399" lon="1.3801">
        <ele>148</ele>
        <time>2020-10-03T06:47:52.000Z</time>
      </trkpt>
      <trkpt lat="43.63402" lon="1.38007">
        <ele>148</ele>
        <time>2020-10-03T06:47:53.000Z</time>
      </trkpt>
      <trkpt lat="43.63405" lon="1.38004">
        <ele>148</ele>
        <time>2020-10-03T06:47:54.000Z</time>
      </trkpt>
      <trkpt lat="43.63408" lon="1.38002">
        <ele>148</ele>
        <time>2020-10-03T06:47:55.000Z</time>
      </trkpt>
      <trkpt lat="43.6341" lon="1.38001">
        <ele>148</ele>
        <time>2020-10-03T06:47:56.000Z</time>
      </trkpt>
      <trkpt lat="43.63413" lon="1.38">
        <ele>148</ele>
        <time>2020-10-03T06:47:57.000Z</time>
      </trkpt>
      <trkpt lat="43.63415" lon="1.37998">
        <ele>147.41007247244</ele>
        <time>2020-10-03T06:47:58.000Z</time>
      </trkpt>
      <trkpt lat="43.63417" lon="1.37996">
        <ele>146</ele>
        <time>2020-10-03T06:47:59.000Z</time>
      </trkpt>
      <trkpt lat="43.63419" lon="1.37994">
        <ele>146</ele>
        <time>2020-10-03T06:48:00.000Z</time>
      </trkpt>
      <trkpt lat="43.63424" lon="1.3799">
        <ele>146</ele>
        <time>2020-10-03T06:48:02.000Z</time>
      </trkpt>
      <trkpt lat="43.63426" lon="1.37988">
        <ele>146</ele>
        <time>2020-10-03T06:48:03.000Z</time>
      </trkpt>
      <trkpt lat="43.63429" lon="1.37986">
        <ele>146</ele>
        <time>2020-10-03T06:48:04.000Z</time>
      </trkpt>
      <trkpt lat="43.63431" lon="1.37984">
        <ele>146</ele>
        <time>2020-10-03T06:48:05.000Z</time>
      </trkpt>
      <trkpt lat="43.63434" lon="1.37982">
        <ele>146.36606857143</ele>
        <time>2020-10-03T06:48:06.000Z</time>
      </trkpt>
      <trkpt lat="43.63437" lon="1.37979">
        <ele>147</ele>
        <time>2020-10-03T06:48:07.000Z</time>
      </trkpt>
      <trkpt lat="43.6344" lon="1.37977">
        <ele>147</ele>
        <time>2020-10-03T06:48:08.000Z</time>
      </trkpt>
      <trkpt lat="43.63443" lon="1.37975">
        <ele>147</ele>
        <time>2020-10-03T06:48:09.000Z</time>
      </trkpt>
      <trkpt lat="43.63446" lon="1.37972">
        <ele>147</ele>
        <time>2020-10-03T06:48:10.000Z</time>
      </trkpt>
      <trkpt lat="43.63448" lon="1.3797">
        <ele>147</ele>
        <time>2020-10-03T06:48:11.000Z</time>
      </trkpt>
      <trkpt lat="43.63451" lon="1.37968">
        <ele>147</ele>
        <time>2020-10-03T06:48:12.000Z</time>
      </trkpt>
      <trkpt lat="43.63454" lon="1.37966">
        <ele>147</ele>
        <time>2020-10-03T06:48:13.000Z</time>
      </trkpt>
      <trkpt lat="43.63457" lon="1.37964">
        <ele>147</ele>
        <time>2020-10-03T06:48:14.000Z</time>
      </trkpt>
      <trkpt lat="43.6346" lon="1.37961">
        <ele>147</ele>
        <time>2020-10-03T06:48:15.000Z</time>
      </trkpt>
      <trkpt lat="43.63463" lon="1.37959">
        <ele>147</ele>
        <time>2020-10-03T06:48:16.000Z</time>
      </trkpt>
      <trkpt lat="43.63466" lon="1.37957">
        <ele>147</ele>
        <time>2020-10-03T06:48:17.000Z</time>
      </trkpt>
      <trkpt lat="43.63468" lon="1.37955">
        <ele>147</ele>
        <time>2020-10-03T06:48:18.000Z</time>
      </trkpt>
      <trkpt lat="43.63471" lon="1.37953">
        <ele>146.75862068966</ele>
        <time>2020-10-03T06:48:19.000Z</time>
      </trkpt>
      <trkpt lat="43.63474" lon="1.37951">
        <ele>146</ele>
        <time>2020-10-03T06:48:20.000Z</time>
      </trkpt>
      <trkpt lat="43.63476" lon="1.37949">
        <ele>146</ele>
        <time>2020-10-03T06:48:21.000Z</time>
      </trkpt>
      <trkpt lat="43.63478" lon="1.37946">
        <ele>146</ele>
        <time>2020-10-03T06:48:22.000Z</time>
      </trkpt>
      <trkpt lat="43.63481" lon="1.37944">
        <ele>146</ele>
        <time>2020-10-03T06:48:23.000Z</time>
      </trkpt>
      <trkpt lat="43.63483" lon="1.37941">
        <ele>146</ele>
        <time>2020-10-03T06:48:24.000Z</time>
      </trkpt>
      <trkpt lat="43.63486" lon="1.37939">
        <ele>146</ele>
        <time>2020-10-03T06:48:25.000Z</time>
      </trkpt>
      <trkpt lat="43.63488" lon="1.37937">
        <ele>146</ele>
        <time>2020-10-03T06:48:26.000Z</time>
      </trkpt>
      <trkpt lat="43.63491" lon="1.37935">
        <ele>146</ele>
        <time>2020-10-03T06:48:27.000Z</time>
      </trkpt>
      <trkpt lat="43.63494" lon="1.37933">
        <ele>146</ele>
        <time>2020-10-03T06:48:28.000Z</time>
      </trkpt>
      <trkpt lat="43.63496" lon="1.37932">
        <ele>146</ele>
        <time>2020-10-03T06:48:29.000Z</time>
      </trkpt>
      <trkpt lat="43.63499" lon="1.3793">
        <ele>146.37349639134</ele>
        <time>2020-10-03T06:48:30.000Z</time>
      </trkpt>
      <trkpt lat="43.63501" lon="1.37928">
        <ele>147</ele>
        <time>2020-10-03T06:48:31.000Z</time>
      </trkpt>
      <trkpt lat="43.63504" lon="1.37926">
        <ele>147</ele>
        <time>2020-10-03T06:48:32.000Z</time>
      </trkpt>
      <trkpt lat="43.63506" lon="1.37924">
        <ele>147</ele>
        <time>2020-10-03T06:48:33.000Z</time>
      </trkpt>
      <trkpt lat="43.63508" lon="1.37922">
        <ele>147</ele>
        <time>2020-10-03T06:48:34.000Z</time>
      </trkpt>
      <trkpt lat="43.63511" lon="1.3792">
        <ele>147</ele>
        <time>2020-10-03T06:48:35.000Z</time>
      </trkpt>
      <trkpt lat="43.63513" lon="1.37917">
        <ele>147</ele>
        <time>2020-10-03T06:48:36.000Z</time>
      </trkpt>
      <trkpt lat="43.63516" lon="1.37916">
        <ele>147</ele>
        <time>2020-10-03T06:48:37.000Z</time>
      </trkpt>
      <trkpt lat="43.63518" lon="1.37914">
        <ele>147</ele>
        <time>2020-10-03T06:48:38.000Z</time>
      </trkpt>
      <trkpt lat="43.63521" lon="1.37912">
        <ele>147</ele>
        <time>2020-10-03T06:48:39.000Z</time>
      </trkpt>
      <trkpt lat="43.63523" lon="1.3791">
        <ele>147</ele>
        <time>2020-10-03T06:48:40.000Z</time>
      </trkpt>
      <trkpt lat="43.63526" lon="1.37908">
        <ele>147</ele>
        <time>2020-10-03T06:48:41.000Z</time>
      </trkpt>
      <trkpt lat="43.63529" lon="1.37907">
        <ele>147</ele>
        <time>2020-10-03T06:48:42.000Z</time>
      </trkpt>
      <trkpt lat="43.63532" lon="1.37905">
        <ele>147</ele>
        <time>2020-10-03T06:48:43.000Z</time>
      </trkpt>
      <trkpt lat="43.63534" lon="1.37903">
        <ele>147</ele>
        <time>2020-10-03T06:48:44.000Z</time>
      </trkpt>
      <trkpt lat="43.63536" lon="1.37901">
        <ele>147.31395487289</ele>
        <time>2020-10-03T06:48:45.000Z</time>
      </trkpt>
      <trkpt lat="43.63538" lon="1.37899">
        <ele>148</ele>
        <time>2020-10-03T06:48:46.000Z</time>
      </trkpt>
      <trkpt lat="43.6354" lon="1.37897">
        <ele>148</ele>
        <time>2020-10-03T06:48:47.000Z</time>
      </trkpt>
      <trkpt lat="43.63542" lon="1.37895">
        <ele>148</ele>
        <time>2020-10-03T06:48:48.000Z</time>
      </trkpt>
      <trkpt lat="43.63544" lon="1.37892">
        <ele>148</ele>
        <time>2020-10-03T06:48:49.000Z</time>
      </trkpt>
      <trkpt lat="43.63547" lon="1.37889">
        <ele>148</ele>
        <time>2020-10-03T06:48:50.000Z</time>
      </trkpt>
      <trkpt lat="43.63549" lon="1.37887">
        <ele>148</ele>
        <time>2020-10-03T06:48:51.000Z</time>
      </trkpt>
      <trkpt lat="43.63552" lon="1.37885">
        <ele>148</ele>
        <time>2020-10-03T06:48:52.000Z</time>
      </trkpt>
      <trkpt lat="43.63555" lon="1.37882">
        <ele>148</ele>
        <time>2020-10-03T06:48:53.000Z</time>
      </trkpt>
      <trkpt lat="43.63557" lon="1.3788">
        <ele>147.61176700901</ele>
        <time>2020-10-03T06:48:54.000Z</time>
      </trkpt>
      <trkpt lat="43.6356" lon="1.37878">
        <ele>147</ele>
        <time>2020-10-03T06:48:55.000Z</time>
      </trkpt>
      <trkpt lat="43.63563" lon="1.37875">
        <ele>147</ele>
        <time>2020-10-03T06:48:56.000Z</time>
      </trkpt>
      <trkpt lat="43.63566" lon="1.37873">
        <ele>147</ele>
        <time>2020-10-03T06:48:57.000Z</time>
      </trkpt>
      <trkpt lat="43.63568" lon="1.37871">
        <ele>147</ele>
        <time>2020-10-03T06:48:58.000Z</time>
      </trkpt>
      <trkpt lat="43.63571" lon="1.37869">
        <ele>147</ele>
        <time>2020-10-03T06:48:59.000Z</time>
      </trkpt>
      <trkpt lat="43.63573" lon="1.37868">
        <ele>147</ele>
        <time>2020-10-03T06:49:00.000Z</time>
      </trkpt>
      <trkpt lat="43.63576" lon="1.37866">
        <ele>147.41176382008</ele>
        <time>2020-10-03T06:49:01.000Z</time>
      </trkpt>
      <trkpt lat="43.63578" lon="1.37864">
        <ele>148</ele>
        <time>2020-10-03T06:49:02.000Z</time>
      </trkpt>
      <trkpt lat="43.63581" lon="1.37862">
        <ele>148</ele>
        <time>2020-10-03T06:49:03.000Z</time>
      </trkpt>
      <trkpt lat="43.63583" lon="1.3786">
        <ele>148</ele>
        <time>2020-10-03T06:49:04.000Z</time>
      </trkpt>
      <trkpt lat="43.63586" lon="1.37858">
        <ele>148</ele>
        <time>2020-10-03T06:49:05.000Z</time>
      </trkpt>
      <trkpt lat="43.63588" lon="1.37856">
        <ele>148</ele>
        <time>2020-10-03T06:49:06.000Z</time>
      </trkpt>
      <trkpt lat="43.63591" lon="1.37854">
        <ele>148</ele>
        <time>2020-10-03T06:49:07.000Z</time>
      </trkpt>
      <trkpt lat="43.63594" lon="1.37852">
        <ele>148</ele>
        <time>2020-10-03T06:49:08.000Z</time>
      </trkpt>
      <trkpt lat="43.63597" lon="1.3785">
        <ele>148</ele>
        <time>2020-10-03T06:49:09.000Z</time>
      </trkpt>
      <trkpt lat="43.636" lon="1.37849">
        <ele>148</ele>
        <time>2020-10-03T06:49:10.000Z</time>
      </trkpt>
      <trkpt lat="43.63602" lon="1.37847">
        <ele>148</ele>
        <time>2020-10-03T06:49:11.000Z</time>
      </trkpt>
      <trkpt lat="43.63605" lon="1.37845">
        <ele>148</ele>
        <time>2020-10-03T06:49:12.000Z</time>
      </trkpt>
      <trkpt lat="43.63607" lon="1.37843">
        <ele>148</ele>
        <time>2020-10-03T06:49:13.000Z</time>
      </trkpt>
      <trkpt lat="43.6361" lon="1.37841">
        <ele>148</ele>
        <time>2020-10-03T06:49:14.000Z</time>
      </trkpt>
      <trkpt lat="43.63613" lon="1.37839">
        <ele>147.68888667653</ele>
        <time>2020-10-03T06:49:15.000Z</time>
      </trkpt>
      <trkpt lat="43.63615" lon="1.37837">
        <ele>147</ele>
        <time>2020-10-03T06:49:16.000Z</time>
      </trkpt>
      <trkpt lat="43.63621" lon="1.37833">
        <ele>147</ele>
        <time>2020-10-03T06:49:18.000Z</time>
      </trkpt>
      <trkpt lat="43.63623" lon="1.37832">
        <ele>147</ele>
        <time>2020-10-03T06:49:19.000Z</time>
      </trkpt>
      <trkpt lat="43.63626" lon="1.3783">
        <ele>147</ele>
        <time>2020-10-03T06:49:20.000Z</time>
      </trkpt>
      <trkpt lat="43.63629" lon="1.37828">
        <ele>147</ele>
        <time>2020-10-03T06:49:21.000Z</time>
      </trkpt>
      <trkpt lat="43.63632" lon="1.37827">
        <ele>147</ele>
        <time>2020-10-03T06:49:22.000Z</time>
      </trkpt>
      <trkpt lat="43.63634" lon="1.37825">
        <ele>147</ele>
        <time>2020-10-03T06:49:23.000Z</time>
      </trkpt>
      <trkpt lat="43.63637" lon="1.37823">
        <ele>147</ele>
        <time>2020-10-03T06:49:24.000Z</time>
      </trkpt>
      <trkpt lat="43.63639" lon="1.37822">
        <ele>147</ele>
        <time>2020-10-03T06:49:25.000Z</time>
      </trkpt>
      <trkpt lat="43.63641" lon="1.3782">
        <ele>147.3486266543</ele>
        <time>2020-10-03T06:49:26.000Z</time>
      </trkpt>
      <trkpt lat="43.63644" lon="1.37818">
        <ele>148</ele>
        <time>2020-10-03T06:49:27.000Z</time>
      </trkpt>
      <trkpt lat="43.63646" lon="1.37816">
        <ele>148</ele>
        <time>2020-10-03T06:49:28.000Z</time>
      </trkpt>
      <trkpt lat="43.63649" lon="1.37814">
        <ele>148</ele>
        <time>2020-10-03T06:49:29.000Z</time>
      </trkpt>
      <trkpt lat="43.63651" lon="1.37813">
        <ele>148</ele>
        <time>2020-10-03T06:49:30.000Z</time>
      </trkpt>
      <trkpt lat="43.63653" lon="1.37811">
        <ele>148</ele>
        <time>2020-10-03T06:49:31.000Z</time>
      </trkpt>
      <trkpt lat="43.63656" lon="1.3781">
        <ele>147.63716994597</ele>
        <time>2020-10-03T06:49:32.000Z</time>
      </trkpt>
      <trkpt lat="43.63658" lon="1.37808">
        <ele>147</ele>
        <time>2020-10-03T06:49:33.000Z</time>
      </trkpt>
      <trkpt lat="43.63661" lon="1.37806">
        <ele>147</ele>
        <time>2020-10-03T06:49:34.000Z</time>
      </trkpt>
      <trkpt lat="43.63663" lon="1.37804">
        <ele>147</ele>
        <time>2020-10-03T06:49:35.000Z</time>
      </trkpt>
      <trkpt lat="43.63665" lon="1.37803">
        <ele>147</ele>
        <time>2020-10-03T06:49:36.000Z</time>
      </trkpt>
      <trkpt lat="43.63668" lon="1.37801">
        <ele>147</ele>
        <time>2020-10-03T06:49:37.000Z</time>
      </trkpt>
      <trkpt lat="43.6367" lon="1.37799">
        <ele>147</ele>
        <time>2020-10-03T06:49:38.000Z</time>
      </trkpt>
      <trkpt lat="43.63673" lon="1.37798">
        <ele>147</ele>
        <time>2020-10-03T06:49:39.000Z</time>
      </trkpt>
      <trkpt lat="43.63676" lon="1.37795">
        <ele>147</ele>
        <time>2020-10-03T06:49:40.000Z</time>
      </trkpt>
      <trkpt lat="43.63678" lon="1.37793">
        <ele>147</ele>
        <time>2020-10-03T06:49:41.000Z</time>
      </trkpt>
      <trkpt lat="43.63681" lon="1.37791">
        <ele>147</ele>
        <time>2020-10-03T06:49:42.000Z</time>
      </trkpt>
      <trkpt lat="43.63683" lon="1.3779">
        <ele>147</ele>
        <time>2020-10-03T06:49:43.000Z</time>
      </trkpt>
      <trkpt lat="43.63686" lon="1.37788">
        <ele>147</ele>
        <time>2020-10-03T06:49:44.000Z</time>
      </trkpt>
      <trkpt lat="43.63688" lon="1.37786">
        <ele>147</ele>
        <time>2020-10-03T06:49:45.000Z</time>
      </trkpt>
      <trkpt lat="43.63691" lon="1.37785">
        <ele>147</ele>
        <time>2020-10-03T06:49:46.000Z</time>
      </trkpt>
      <trkpt lat="43.63693" lon="1.37783">
        <ele>147</ele>
        <time>2020-10-03T06:49:47.000Z</time>
      </trkpt>
      <trkpt lat="43.63696" lon="1.37781">
        <ele>147</ele>
        <time>2020-10-03T06:49:48.000Z</time>
      </trkpt>
      <trkpt lat="43.63698" lon="1.37779">
        <ele>147</ele>
        <time>2020-10-03T06:49:49.000Z</time>
      </trkpt>
      <trkpt lat="43.637" lon="1.37777">
        <ele>147</ele>
        <time>2020-10-03T06:49:50.000Z</time>
      </trkpt>
      <trkpt lat="43.63703" lon="1.37776">
        <ele>147</ele>
        <time>2020-10-03T06:49:51.000Z</time>
      </trkpt>
      <trkpt lat="43.63705" lon="1.37774">
        <ele>147</ele>
        <time>2020-10-03T06:49:52.000Z</time>
      </trkpt>
      <trkpt lat="43.63707" lon="1.37772">
        <ele>147</ele>
        <time>2020-10-03T06:49:53.000Z</time>
      </trkpt>
      <trkpt lat="43.6371" lon="1.3777">
        <ele>147</ele>
        <time>2020-10-03T06:49:54.000Z</time>
      </trkpt>
      <trkpt lat="43.63715" lon="1.37766">
        <ele>147</ele>
        <time>2020-10-03T06:49:56.000Z</time>
      </trkpt>
      <trkpt lat="43.63718" lon="1.37764">
        <ele>147</ele>
        <time>2020-10-03T06:49:57.000Z</time>
      </trkpt>
      <trkpt lat="43.63721" lon="1.37764">
        <ele>147</ele>
        <time>2020-10-03T06:49:58.000Z</time>
      </trkpt>
      <trkpt lat="43.63723" lon="1.37766">
        <ele>146.94339121405</ele>
        <time>2020-10-03T06:49:59.000Z</time>
      </trkpt>
      <trkpt lat="43.63725" lon="1.37769">
        <ele>146</ele>
        <time>2020-10-03T06:50:00.000Z</time>
      </trkpt>
      <trkpt lat="43.63727" lon="1.37773">
        <ele>146</ele>
        <time>2020-10-03T06:50:01.000Z</time>
      </trkpt>
      <trkpt lat="43.63729" lon="1.37777">
        <ele>146</ele>
        <time>2020-10-03T06:50:02.000Z</time>
      </trkpt>
      <trkpt lat="43.63731" lon="1.3778">
        <ele>146</ele>
        <time>2020-10-03T06:50:03.000Z</time>
      </trkpt>
      <trkpt lat="43.63732" lon="1.37784">
        <ele>146</ele>
        <time>2020-10-03T06:50:04.000Z</time>
      </trkpt>
      <trkpt lat="43.63734" lon="1.37787">
        <ele>146</ele>
        <time>2020-10-03T06:50:05.000Z</time>
      </trkpt>
      <trkpt lat="43.63735" lon="1.37791">
        <ele>146</ele>
        <time>2020-10-03T06:50:06.000Z</time>
      </trkpt>
      <trkpt lat="43.63736" lon="1.37795">
        <ele>146</ele>
        <time>2020-10-03T06:50:07.000Z</time>
      </trkpt>
      <trkpt lat="43.63737" lon="1.37798">
        <ele>146</ele>
        <time>2020-10-03T06:50:08.000Z</time>
      </trkpt>
      <trkpt lat="43.63739" lon="1.378">
        <ele>146</ele>
        <time>2020-10-03T06:50:09.000Z</time>
      </trkpt>
      <trkpt lat="43.6374" lon="1.378">
        <ele>146</ele>
        <time>2020-10-03T06:50:10.000Z</time>
      </trkpt>
      <trkpt lat="43.63743" lon="1.37799">
        <ele>146</ele>
        <time>2020-10-03T06:50:11.000Z</time>
      </trkpt>
      <trkpt lat="43.63746" lon="1.37798">
        <ele>146</ele>
        <time>2020-10-03T06:50:12.000Z</time>
      </trkpt>
      <trkpt lat="43.63749" lon="1.37798">
        <ele>146</ele>
        <time>2020-10-03T06:50:13.000Z</time>
      </trkpt>
      <trkpt lat="43.63751" lon="1.37799">
        <ele>146</ele>
        <time>2020-10-03T06:50:14.000Z</time>
      </trkpt>
      <trkpt lat="43.63754" lon="1.37799">
        <ele>146</ele>
        <time>2020-10-03T06:50:15.000Z</time>
      </trkpt>
      <trkpt lat="43.63757" lon="1.37799">
        <ele>146</ele>
        <time>2020-10-03T06:50:16.000Z</time>
      </trkpt>
      <trkpt lat="43.63763" lon="1.378">
        <ele>146</ele>
        <time>2020-10-03T06:50:18.000Z</time>
      </trkpt>
      <trkpt lat="43.63766" lon="1.37801">
        <ele>145.56818909091</ele>
        <time>2020-10-03T06:50:19.000Z</time>
      </trkpt>
      <trkpt lat="43.6377" lon="1.37801">
        <ele>145</ele>
        <time>2020-10-03T06:50:20.000Z</time>
      </trkpt>
      <trkpt lat="43.63773" lon="1.378">
        <ele>145</ele>
        <time>2020-10-03T06:50:21.000Z</time>
      </trkpt>
      <trkpt lat="43.63775" lon="1.37798">
        <ele>145</ele>
        <time>2020-10-03T06:50:22.000Z</time>
      </trkpt>
      <trkpt lat="43.63777" lon="1.37795">
        <ele>145.5</ele>
        <time>2020-10-03T06:50:23.000Z</time>
      </trkpt>
      <trkpt lat="43.63778" lon="1.37792">
        <ele>146</ele>
        <time>2020-10-03T06:50:24.000Z</time>
      </trkpt>
      <trkpt lat="43.63779" lon="1.37789">
        <ele>146</ele>
        <time>2020-10-03T06:50:25.000Z</time>
      </trkpt>
      <trkpt lat="43.63779" lon="1.37785">
        <ele>146</ele>
        <time>2020-10-03T06:50:26.000Z</time>
      </trkpt>
      <trkpt lat="43.63779" lon="1.37781">
        <ele>146</ele>
        <time>2020-10-03T06:50:27.000Z</time>
      </trkpt>
      <trkpt lat="43.6378" lon="1.37777">
        <ele>146</ele>
        <time>2020-10-03T06:50:28.000Z</time>
      </trkpt>
      <trkpt lat="43.6378" lon="1.37773">
        <ele>146</ele>
        <time>2020-10-03T06:50:29.000Z</time>
      </trkpt>
      <trkpt lat="43.6378" lon="1.37769">
        <ele>146</ele>
        <time>2020-10-03T06:50:30.000Z</time>
      </trkpt>
      <trkpt lat="43.63781" lon="1.37765">
        <ele>145.5967731946</ele>
        <time>2020-10-03T06:50:31.000Z</time>
      </trkpt>
      <trkpt lat="43.63781" lon="1.37761">
        <ele>145</ele>
        <time>2020-10-03T06:50:32.000Z</time>
      </trkpt>
      <trkpt lat="43.63782" lon="1.37757">
        <ele>145</ele>
        <time>2020-10-03T06:50:33.000Z</time>
      </trkpt>
      <trkpt lat="43.63782" lon="1.37754">
        <ele>145</ele>
        <time>2020-10-03T06:50:34.000Z</time>
      </trkpt>
      <trkpt lat="43.63783" lon="1.3775">
        <ele>145.43268923077</ele>
        <time>2020-10-03T06:50:35.000Z</time>
      </trkpt>
      <trkpt lat="43.63783" lon="1.37746">
        <ele>146</ele>
        <time>2020-10-03T06:50:36.000Z</time>
      </trkpt>
      <trkpt lat="43.63784" lon="1.37742">
        <ele>146</ele>
        <time>2020-10-03T06:50:37.000Z</time>
      </trkpt>
      <trkpt lat="43.63784" lon="1.37739">
        <ele>146</ele>
        <time>2020-10-03T06:50:38.000Z</time>
      </trkpt>
      <trkpt lat="43.63785" lon="1.37735">
        <ele>146</ele>
        <time>2020-10-03T06:50:39.000Z</time>
      </trkpt>
      <trkpt lat="43.63786" lon="1.37733">
        <ele>146</ele>
        <time>2020-10-03T06:50:40.000Z</time>
      </trkpt>
      <trkpt lat="43.63786" lon="1.37729">
        <ele>146</ele>
        <time>2020-10-03T06:50:42.000Z</time>
      </trkpt>
      <trkpt lat="43.63787" lon="1.37727">
        <ele>145.43243118578</ele>
        <time>2020-10-03T06:50:55.000Z</time>
      </trkpt>
      <trkpt lat="43.6379" lon="1.37726">
        <ele>146</ele>
        <time>2020-10-03T06:51:39.000Z</time>
      </trkpt>
      <trkpt lat="43.63791" lon="1.37724">
        <ele>146</ele>
        <time>2020-10-03T06:51:41.000Z</time>
      </trkpt>
      <trkpt lat="43.63792" lon="1.37721">
        <ele>146</ele>
        <time>2020-10-03T06:51:43.000Z</time>
      </trkpt>
      <trkpt lat="43.63792" lon="1.37718">
        <ele>146</ele>
        <time>2020-10-03T06:51:45.000Z</time>
      </trkpt>
      <trkpt lat="43.63794" lon="1.37713">
        <ele>146</ele>
        <time>2020-10-03T06:51:47.000Z</time>
      </trkpt>
      <trkpt lat="43.63796" lon="1.3771">
        <ele>146</ele>
        <time>2020-10-03T06:51:49.000Z</time>
      </trkpt>
      <trkpt lat="43.63799" lon="1.37712">
        <ele>144</ele>
        <time>2020-10-03T06:51:51.000Z</time>
      </trkpt>
      <trkpt lat="43.638" lon="1.37713">
        <ele>143.58181479671</ele>
        <time>2020-10-03T06:51:52.000Z</time>
      </trkpt>
      <trkpt lat="43.63802" lon="1.37716">
        <ele>143</ele>
        <time>2020-10-03T06:51:53.000Z</time>
      </trkpt>
      <trkpt lat="43.63803" lon="1.37718">
        <ele>143</ele>
        <time>2020-10-03T06:51:54.000Z</time>
      </trkpt>
      <trkpt lat="43.63805" lon="1.3772">
        <ele>142.66153679526</ele>
        <time>2020-10-03T06:51:55.000Z</time>
      </trkpt>
      <trkpt lat="43.63807" lon="1.37722">
        <ele>142</ele>
        <time>2020-10-03T06:51:56.000Z</time>
      </trkpt>
      <trkpt lat="43.63808" lon="1.37725">
        <ele>142</ele>
        <time>2020-10-03T06:51:57.000Z</time>
      </trkpt>
      <trkpt lat="43.6381" lon="1.37727">
        <ele>142</ele>
        <time>2020-10-03T06:51:58.000Z</time>
      </trkpt>
      <trkpt lat="43.63813" lon="1.37729">
        <ele>142</ele>
        <time>2020-10-03T06:51:59.000Z</time>
      </trkpt>
      <trkpt lat="43.63815" lon="1.3773">
        <ele>142</ele>
        <time>2020-10-03T06:52:00.000Z</time>
      </trkpt>
      <trkpt lat="43.63817" lon="1.37732">
        <ele>142</ele>
        <time>2020-10-03T06:52:01.000Z</time>
      </trkpt>
      <trkpt lat="43.63819" lon="1.37735">
        <ele>142.37037037037</ele>
        <time>2020-10-03T06:52:02.000Z</time>
      </trkpt>
      <trkpt lat="43.63822" lon="1.37737">
        <ele>143</ele>
        <time>2020-10-03T06:52:03.000Z</time>
      </trkpt>
      <trkpt lat="43.63824" lon="1.37739">
        <ele>143.35514510611</ele>
        <time>2020-10-03T06:52:04.000Z</time>
      </trkpt>
      <trkpt lat="43.63827" lon="1.37741">
        <ele>144</ele>
        <time>2020-10-03T06:52:05.000Z</time>
      </trkpt>
      <trkpt lat="43.6383" lon="1.37744">
        <ele>144</ele>
        <time>2020-10-03T06:52:06.000Z</time>
      </trkpt>
      <trkpt lat="43.63833" lon="1.37746">
        <ele>144</ele>
        <time>2020-10-03T06:52:07.000Z</time>
      </trkpt>
      <trkpt lat="43.63836" lon="1.37749">
        <ele>144</ele>
        <time>2020-10-03T06:52:08.000Z</time>
      </trkpt>
      <trkpt lat="43.63839" lon="1.37751">
        <ele>144</ele>
        <time>2020-10-03T06:52:09.000Z</time>
      </trkpt>
      <trkpt lat="43.63841" lon="1.37753">
        <ele>144</ele>
        <time>2020-10-03T06:52:10.000Z</time>
      </trkpt>
      <trkpt lat="43.63844" lon="1.37755">
        <ele>144.36363847935</ele>
        <time>2020-10-03T06:52:11.000Z</time>
      </trkpt>
      <trkpt lat="43.63846" lon="1.37758">
        <ele>145</ele>
        <time>2020-10-03T06:52:12.000Z</time>
      </trkpt>
      <trkpt lat="43.63849" lon="1.3776">
        <ele>145</ele>
        <time>2020-10-03T06:52:13.000Z</time>
      </trkpt>
      <trkpt lat="43.63852" lon="1.37763">
        <ele>145.46874666667</ele>
        <time>2020-10-03T06:52:14.000Z</time>
      </trkpt>
      <trkpt lat="43.63855" lon="1.37765">
        <ele>146</ele>
        <time>2020-10-03T06:52:15.000Z</time>
      </trkpt>
      <trkpt lat="43.63858" lon="1.37767">
        <ele>146</ele>
        <time>2020-10-03T06:52:16.000Z</time>
      </trkpt>
      <trkpt lat="43.6386" lon="1.37769">
        <ele>146</ele>
        <time>2020-10-03T06:52:17.000Z</time>
      </trkpt>
      <trkpt lat="43.63864" lon="1.37771">
        <ele>146</ele>
        <time>2020-10-03T06:52:18.000Z</time>
      </trkpt>
      <trkpt lat="43.63866" lon="1.37772">
        <ele>145.53333495873</ele>
        <time>2020-10-03T06:52:19.000Z</time>
      </trkpt>
      <trkpt lat="43.63869" lon="1.37772">
        <ele>145</ele>
        <time>2020-10-03T06:52:20.000Z</time>
      </trkpt>
      <trkpt lat="43.63873" lon="1.3777">
        <ele>145</ele>
        <time>2020-10-03T06:52:21.000Z</time>
      </trkpt>
      <trkpt lat="43.63876" lon="1.37769">
        <ele>145</ele>
        <time>2020-10-03T06:52:22.000Z</time>
      </trkpt>
      <trkpt lat="43.63879" lon="1.37767">
        <ele>145</ele>
        <time>2020-10-03T06:52:23.000Z</time>
      </trkpt>
      <trkpt lat="43.63882" lon="1.37765">
        <ele>145</ele>
        <time>2020-10-03T06:52:24.000Z</time>
      </trkpt>
      <trkpt lat="43.63885" lon="1.37765">
        <ele>144.59523664401</ele>
        <time>2020-10-03T06:52:25.000Z</time>
      </trkpt>
      <trkpt lat="43.63888" lon="1.37765">
        <ele>144</ele>
        <time>2020-10-03T06:52:26.000Z</time>
      </trkpt>
      <trkpt lat="43.6389" lon="1.37766">
        <ele>144.15189811889</ele>
        <time>2020-10-03T06:52:27.000Z</time>
      </trkpt>
      <trkpt lat="43.63893" lon="1.37767">
        <ele>145</ele>
        <time>2020-10-03T06:52:28.000Z</time>
      </trkpt>
      <trkpt lat="43.63896" lon="1.37768">
        <ele>145</ele>
        <time>2020-10-03T06:52:29.000Z</time>
      </trkpt>
      <trkpt lat="43.63899" lon="1.37769">
        <ele>145</ele>
        <time>2020-10-03T06:52:30.000Z</time>
      </trkpt>
      <trkpt lat="43.63902" lon="1.3777">
        <ele>145</ele>
        <time>2020-10-03T06:52:31.000Z</time>
      </trkpt>
      <trkpt lat="43.63905" lon="1.3777">
        <ele>145</ele>
        <time>2020-10-03T06:52:32.000Z</time>
      </trkpt>
      <trkpt lat="43.63908" lon="1.37769">
        <ele>145</ele>
        <time>2020-10-03T06:52:33.000Z</time>
      </trkpt>
      <trkpt lat="43.6391" lon="1.37767">
        <ele>145</ele>
        <time>2020-10-03T06:52:34.000Z</time>
      </trkpt>
      <trkpt lat="43.63912" lon="1.37766">
        <ele>145</ele>
        <time>2020-10-03T06:52:35.000Z</time>
      </trkpt>
      <trkpt lat="43.63915" lon="1.37764">
        <ele>145</ele>
        <time>2020-10-03T06:52:36.000Z</time>
      </trkpt>
      <trkpt lat="43.63917" lon="1.37762">
        <ele>145</ele>
        <time>2020-10-03T06:52:37.000Z</time>
      </trkpt>
      <trkpt lat="43.6392" lon="1.3776">
        <ele>145</ele>
        <time>2020-10-03T06:52:38.000Z</time>
      </trkpt>
      <trkpt lat="43.63922" lon="1.3776">
        <ele>144.53684366537</ele>
        <time>2020-10-03T06:52:39.000Z</time>
      </trkpt>
      <trkpt lat="43.63925" lon="1.37761">
        <ele>144</ele>
        <time>2020-10-03T06:52:40.000Z</time>
      </trkpt>
      <trkpt lat="43.63927" lon="1.37763">
        <ele>144</ele>
        <time>2020-10-03T06:52:41.000Z</time>
      </trkpt>
      <trkpt lat="43.6393" lon="1.37766">
        <ele>144</ele>
        <time>2020-10-03T06:52:42.000Z</time>
      </trkpt>
      <trkpt lat="43.63932" lon="1.37769">
        <ele>144</ele>
        <time>2020-10-03T06:52:43.000Z</time>
      </trkpt>
      <trkpt lat="43.63934" lon="1.37772">
        <ele>144</ele>
        <time>2020-10-03T06:52:44.000Z</time>
      </trkpt>
      <trkpt lat="43.63936" lon="1.37774">
        <ele>144</ele>
        <time>2020-10-03T06:52:45.000Z</time>
      </trkpt>
      <trkpt lat="43.63939" lon="1.37776">
        <ele>144</ele>
        <time>2020-10-03T06:52:46.000Z</time>
      </trkpt>
      <trkpt lat="43.63941" lon="1.37777">
        <ele>144</ele>
        <time>2020-10-03T06:52:47.000Z</time>
      </trkpt>
      <trkpt lat="43.63944" lon="1.37779">
        <ele>144</ele>
        <time>2020-10-03T06:52:48.000Z</time>
      </trkpt>
      <trkpt lat="43.63946" lon="1.3778">
        <ele>144</ele>
        <time>2020-10-03T06:52:49.000Z</time>
      </trkpt>
      <trkpt lat="43.63948" lon="1.37781">
        <ele>144</ele>
        <time>2020-10-03T06:52:50.000Z</time>
      </trkpt>
      <trkpt lat="43.63951" lon="1.37781">
        <ele>144</ele>
        <time>2020-10-03T06:52:51.000Z</time>
      </trkpt>
      <trkpt lat="43.63953" lon="1.37781">
        <ele>144</ele>
        <time>2020-10-03T06:52:52.000Z</time>
      </trkpt>
      <trkpt lat="43.63956" lon="1.37781">
        <ele>144</ele>
        <time>2020-10-03T06:52:53.000Z</time>
      </trkpt>
      <trkpt lat="43.63958" lon="1.3778">
        <ele>144</ele>
        <time>2020-10-03T06:52:54.000Z</time>
      </trkpt>
      <trkpt lat="43.6396" lon="1.3778">
        <ele>144</ele>
        <time>2020-10-03T06:52:55.000Z</time>
      </trkpt>
      <trkpt lat="43.63963" lon="1.37779">
        <ele>144</ele>
        <time>2020-10-03T06:52:56.000Z</time>
      </trkpt>
      <trkpt lat="43.63965" lon="1.37777">
        <ele>144</ele>
        <time>2020-10-03T06:52:57.000Z</time>
      </trkpt>
      <trkpt lat="43.63968" lon="1.37775">
        <ele>144</ele>
        <time>2020-10-03T06:52:58.000Z</time>
      </trkpt>
      <trkpt lat="43.6397" lon="1.37772">
        <ele>144</ele>
        <time>2020-10-03T06:52:59.000Z</time>
      </trkpt>
      <trkpt lat="43.63972" lon="1.37769">
        <ele>144</ele>
        <time>2020-10-03T06:53:00.000Z</time>
      </trkpt>
      <trkpt lat="43.63973" lon="1.37765">
        <ele>144</ele>
        <time>2020-10-03T06:53:01.000Z</time>
      </trkpt>
      <trkpt lat="43.63974" lon="1.37761">
        <ele>144.4210549954</ele>
        <time>2020-10-03T06:53:02.000Z</time>
      </trkpt>
      <trkpt lat="43.63976" lon="1.37757">
        <ele>145</ele>
        <time>2020-10-03T06:53:03.000Z</time>
      </trkpt>
      <trkpt lat="43.63976" lon="1.37754">
        <ele>145</ele>
        <time>2020-10-03T06:53:04.000Z</time>
      </trkpt>
      <trkpt lat="43.63977" lon="1.3775">
        <ele>145</ele>
        <time>2020-10-03T06:53:05.000Z</time>
      </trkpt>
      <trkpt lat="43.63978" lon="1.37747">
        <ele>145</ele>
        <time>2020-10-03T06:53:06.000Z</time>
      </trkpt>
      <trkpt lat="43.63979" lon="1.37742">
        <ele>145</ele>
        <time>2020-10-03T06:53:07.000Z</time>
      </trkpt>
      <trkpt lat="43.63979" lon="1.37738">
        <ele>145</ele>
        <time>2020-10-03T06:53:08.000Z</time>
      </trkpt>
      <trkpt lat="43.6398" lon="1.37734">
        <ele>145.44230153846</ele>
        <time>2020-10-03T06:53:09.000Z</time>
      </trkpt>
      <trkpt lat="43.63981" lon="1.37729">
        <ele>146</ele>
        <time>2020-10-03T06:53:10.000Z</time>
      </trkpt>
      <trkpt lat="43.63981" lon="1.37726">
        <ele>146</ele>
        <time>2020-10-03T06:53:11.000Z</time>
      </trkpt>
      <trkpt lat="43.63982" lon="1.37722">
        <ele>146</ele>
        <time>2020-10-03T06:53:12.000Z</time>
      </trkpt>
      <trkpt lat="43.63984" lon="1.37718">
        <ele>146</ele>
        <time>2020-10-03T06:53:13.000Z</time>
      </trkpt>
      <trkpt lat="43.63986" lon="1.37716">
        <ele>146</ele>
        <time>2020-10-03T06:53:14.000Z</time>
      </trkpt>
      <trkpt lat="43.63989" lon="1.37713">
        <ele>146</ele>
        <time>2020-10-03T06:53:15.000Z</time>
      </trkpt>
      <trkpt lat="43.63991" lon="1.3771">
        <ele>146</ele>
        <time>2020-10-03T06:53:16.000Z</time>
      </trkpt>
      <trkpt lat="43.63994" lon="1.37707">
        <ele>146</ele>
        <time>2020-10-03T06:53:17.000Z</time>
      </trkpt>
      <trkpt lat="43.63996" lon="1.37704">
        <ele>146</ele>
        <time>2020-10-03T06:53:18.000Z</time>
      </trkpt>
      <trkpt lat="43.63998" lon="1.37701">
        <ele>146</ele>
        <time>2020-10-03T06:53:19.000Z</time>
      </trkpt>
      <trkpt lat="43.64" lon="1.37697">
        <ele>146</ele>
        <time>2020-10-03T06:53:20.000Z</time>
      </trkpt>
      <trkpt lat="43.64002" lon="1.37694">
        <ele>146</ele>
        <time>2020-10-03T06:53:21.000Z</time>
      </trkpt>
      <trkpt lat="43.64004" lon="1.3769">
        <ele>146</ele>
        <time>2020-10-03T06:53:22.000Z</time>
      </trkpt>
      <trkpt lat="43.64005" lon="1.37686">
        <ele>146</ele>
        <time>2020-10-03T06:53:23.000Z</time>
      </trkpt>
      <trkpt lat="43.64007" lon="1.37683">
        <ele>146</ele>
        <time>2020-10-03T06:53:24.000Z</time>
      </trkpt>
      <trkpt lat="43.64008" lon="1.37679">
        <ele>146</ele>
        <time>2020-10-03T06:53:25.000Z</time>
      </trkpt>
      <trkpt lat="43.6401" lon="1.37676">
        <ele>146</ele>
        <time>2020-10-03T06:53:26.000Z</time>
      </trkpt>
      <trkpt lat="43.64012" lon="1.37673">
        <ele>146</ele>
        <time>2020-10-03T06:53:27.000Z</time>
      </trkpt>
      <trkpt lat="43.64014" lon="1.3767">
        <ele>146</ele>
        <time>2020-10-03T06:53:28.000Z</time>
      </trkpt>
      <trkpt lat="43.64015" lon="1.37666">
        <ele>145.66667140744</ele>
        <time>2020-10-03T06:53:29.000Z</time>
      </trkpt>
      <trkpt lat="43.64017" lon="1.37663">
        <ele>145</ele>
        <time>2020-10-03T06:53:30.000Z</time>
      </trkpt>
      <trkpt lat="43.64018" lon="1.37659">
        <ele>145</ele>
        <time>2020-10-03T06:53:31.000Z</time>
      </trkpt>
      <trkpt lat="43.6402" lon="1.37656">
        <ele>145</ele>
        <time>2020-10-03T06:53:32.000Z</time>
      </trkpt>
      <trkpt lat="43.64021" lon="1.37652">
        <ele>145</ele>
        <time>2020-10-03T06:53:33.000Z</time>
      </trkpt>
      <trkpt lat="43.64023" lon="1.37649">
        <ele>145</ele>
        <time>2020-10-03T06:53:34.000Z</time>
      </trkpt>
      <trkpt lat="43.64025" lon="1.37645">
        <ele>145</ele>
        <time>2020-10-03T06:53:35.000Z</time>
      </trkpt>
      <trkpt lat="43.64027" lon="1.37642">
        <ele>145.43820741827</ele>
        <time>2020-10-03T06:53:36.000Z</time>
      </trkpt>
      <trkpt lat="43.64028" lon="1.37639">
        <ele>146</ele>
        <time>2020-10-03T06:53:37.000Z</time>
      </trkpt>
      <trkpt lat="43.6403" lon="1.37635">
        <ele>146</ele>
        <time>2020-10-03T06:53:38.000Z</time>
      </trkpt>
      <trkpt lat="43.64032" lon="1.37632">
        <ele>146</ele>
        <time>2020-10-03T06:53:39.000Z</time>
      </trkpt>
      <trkpt lat="43.64035" lon="1.37629">
        <ele>146</ele>
        <time>2020-10-03T06:53:40.000Z</time>
      </trkpt>
      <trkpt lat="43.64036" lon="1.37626">
        <ele>146</ele>
        <time>2020-10-03T06:53:41.000Z</time>
      </trkpt>
      <trkpt lat="43.64038" lon="1.37623">
        <ele>146</ele>
        <time>2020-10-03T06:53:42.000Z</time>
      </trkpt>
      <trkpt lat="43.6404" lon="1.37619">
        <ele>146</ele>
        <time>2020-10-03T06:53:43.000Z</time>
      </trkpt>
      <trkpt lat="43.64042" lon="1.37616">
        <ele>146</ele>
        <time>2020-10-03T06:53:44.000Z</time>
      </trkpt>
      <trkpt lat="43.64044" lon="1.37613">
        <ele>146</ele>
        <time>2020-10-03T06:53:45.000Z</time>
      </trkpt>
      <trkpt lat="43.64046" lon="1.3761">
        <ele>146</ele>
        <time>2020-10-03T06:53:46.000Z</time>
      </trkpt>
      <trkpt lat="43.64047" lon="1.37606">
        <ele>146</ele>
        <time>2020-10-03T06:53:47.000Z</time>
      </trkpt>
      <trkpt lat="43.64049" lon="1.37603">
        <ele>146</ele>
        <time>2020-10-03T06:53:48.000Z</time>
      </trkpt>
      <trkpt lat="43.6405" lon="1.376">
        <ele>146</ele>
        <time>2020-10-03T06:53:49.000Z</time>
      </trkpt>
      <trkpt lat="43.64052" lon="1.37597">
        <ele>146</ele>
        <time>2020-10-03T06:53:50.000Z</time>
      </trkpt>
      <trkpt lat="43.64054" lon="1.37593">
        <ele>146</ele>
        <time>2020-10-03T06:53:51.000Z</time>
      </trkpt>
      <trkpt lat="43.64056" lon="1.3759">
        <ele>146</ele>
        <time>2020-10-03T06:53:52.000Z</time>
      </trkpt>
      <trkpt lat="43.64058" lon="1.37587">
        <ele>146</ele>
        <time>2020-10-03T06:53:53.000Z</time>
      </trkpt>
      <trkpt lat="43.64059" lon="1.37584">
        <ele>146</ele>
        <time>2020-10-03T06:53:54.000Z</time>
      </trkpt>
      <trkpt lat="43.64061" lon="1.3758">
        <ele>146</ele>
        <time>2020-10-03T06:53:55.000Z</time>
      </trkpt>
      <trkpt lat="43.64063" lon="1.37577">
        <ele>146</ele>
        <time>2020-10-03T06:53:56.000Z</time>
      </trkpt>
      <trkpt lat="43.64065" lon="1.37575">
        <ele>146</ele>
        <time>2020-10-03T06:53:57.000Z</time>
      </trkpt>
      <trkpt lat="43.64068" lon="1.37574">
        <ele>146</ele>
        <time>2020-10-03T06:53:58.000Z</time>
      </trkpt>
      <trkpt lat="43.64071" lon="1.37575">
        <ele>146</ele>
        <time>2020-10-03T06:53:59.000Z</time>
      </trkpt>
      <trkpt lat="43.64074" lon="1.37576">
        <ele>146</ele>
        <time>2020-10-03T06:54:00.000Z</time>
      </trkpt>
      <trkpt lat="43.64076" lon="1.37578">
        <ele>146</ele>
        <time>2020-10-03T06:54:01.000Z</time>
      </trkpt>
      <trkpt lat="43.64082" lon="1.37582">
        <ele>146</ele>
        <time>2020-10-03T06:54:03.000Z</time>
      </trkpt>
      <trkpt lat="43.64085" lon="1.37584">
        <ele>146</ele>
        <time>2020-10-03T06:54:04.000Z</time>
      </trkpt>
      <trkpt lat="43.64088" lon="1.37586">
        <ele>146</ele>
        <time>2020-10-03T06:54:05.000Z</time>
      </trkpt>
      <trkpt lat="43.64091" lon="1.37588">
        <ele>146</ele>
        <time>2020-10-03T06:54:06.000Z</time>
      </trkpt>
      <trkpt lat="43.64094" lon="1.37589">
        <ele>146</ele>
        <time>2020-10-03T06:54:07.000Z</time>
      </trkpt>
      <trkpt lat="43.64097" lon="1.37591">
        <ele>145.53684366537</ele>
        <time>2020-10-03T06:54:08.000Z</time>
      </trkpt>
      <trkpt lat="43.641" lon="1.37592">
        <ele>145</ele>
        <time>2020-10-03T06:54:09.000Z</time>
      </trkpt>
      <trkpt lat="43.64102" lon="1.37594">
        <ele>145</ele>
        <time>2020-10-03T06:54:10.000Z</time>
      </trkpt>
      <trkpt lat="43.64105" lon="1.37595">
        <ele>145</ele>
        <time>2020-10-03T06:54:11.000Z</time>
      </trkpt>
      <trkpt lat="43.64108" lon="1.37597">
        <ele>145</ele>
        <time>2020-10-03T06:54:12.000Z</time>
      </trkpt>
      <trkpt lat="43.64111" lon="1.37598">
        <ele>145</ele>
        <time>2020-10-03T06:54:13.000Z</time>
      </trkpt>
      <trkpt lat="43.64113" lon="1.37599">
        <ele>145</ele>
        <time>2020-10-03T06:54:14.000Z</time>
      </trkpt>
      <trkpt lat="43.64116" lon="1.37601">
        <ele>145</ele>
        <time>2020-10-03T06:54:15.000Z</time>
      </trkpt>
      <trkpt lat="43.64119" lon="1.37602">
        <ele>145</ele>
        <time>2020-10-03T06:54:16.000Z</time>
      </trkpt>
      <trkpt lat="43.64121" lon="1.37603">
        <ele>145</ele>
        <time>2020-10-03T06:54:17.000Z</time>
      </trkpt>
      <trkpt lat="43.64124" lon="1.37604">
        <ele>145</ele>
        <time>2020-10-03T06:54:18.000Z</time>
      </trkpt>
      <trkpt lat="43.64127" lon="1.37606">
        <ele>145</ele>
        <time>2020-10-03T06:54:19.000Z</time>
      </trkpt>
      <trkpt lat="43.64129" lon="1.37607">
        <ele>145</ele>
        <time>2020-10-03T06:54:20.000Z</time>
      </trkpt>
      <trkpt lat="43.64132" lon="1.37609">
        <ele>145</ele>
        <time>2020-10-03T06:54:21.000Z</time>
      </trkpt>
      <trkpt lat="43.64135" lon="1.3761">
        <ele>145</ele>
        <time>2020-10-03T06:54:22.000Z</time>
      </trkpt>
      <trkpt lat="43.64137" lon="1.37612">
        <ele>145</ele>
        <time>2020-10-03T06:54:23.000Z</time>
      </trkpt>
      <trkpt lat="43.6414" lon="1.37613">
        <ele>145</ele>
        <time>2020-10-03T06:54:24.000Z</time>
      </trkpt>
      <trkpt lat="43.64143" lon="1.37615">
        <ele>145</ele>
        <time>2020-10-03T06:54:25.000Z</time>
      </trkpt>
      <trkpt lat="43.64145" lon="1.37617">
        <ele>145</ele>
        <time>2020-10-03T06:54:26.000Z</time>
      </trkpt>
      <trkpt lat="43.64148" lon="1.37619">
        <ele>145</ele>
        <time>2020-10-03T06:54:27.000Z</time>
      </trkpt>
      <trkpt lat="43.6415" lon="1.37621">
        <ele>144.85185126657</ele>
        <time>2020-10-03T06:54:28.000Z</time>
      </trkpt>
      <trkpt lat="43.64153" lon="1.37624">
        <ele>144</ele>
        <time>2020-10-03T06:54:29.000Z</time>
      </trkpt>
      <trkpt lat="43.64154" lon="1.37627">
        <ele>144</ele>
        <time>2020-10-03T06:54:30.000Z</time>
      </trkpt>
      <trkpt lat="43.64155" lon="1.37631">
        <ele>144</ele>
        <time>2020-10-03T06:54:31.000Z</time>
      </trkpt>
      <trkpt lat="43.64155" lon="1.37635">
        <ele>144</ele>
        <time>2020-10-03T06:54:32.000Z</time>
      </trkpt>
      <trkpt lat="43.64155" lon="1.37638">
        <ele>144</ele>
        <time>2020-10-03T06:54:33.000Z</time>
      </trkpt>
      <trkpt lat="43.64154" lon="1.37641">
        <ele>144</ele>
        <time>2020-10-03T06:54:34.000Z</time>
      </trkpt>
      <trkpt lat="43.64154" lon="1.37644">
        <ele>144</ele>
        <time>2020-10-03T06:54:35.000Z</time>
      </trkpt>
      <trkpt lat="43.64155" lon="1.37647">
        <ele>144</ele>
        <time>2020-10-03T06:54:36.000Z</time>
      </trkpt>
      <trkpt lat="43.64156" lon="1.3765">
        <ele>144</ele>
        <time>2020-10-03T06:54:37.000Z</time>
      </trkpt>
      <trkpt lat="43.64156" lon="1.37653">
        <ele>144</ele>
        <time>2020-10-03T06:54:38.000Z</time>
      </trkpt>
      <trkpt lat="43.64158" lon="1.37656">
        <ele>144</ele>
        <time>2020-10-03T06:54:39.000Z</time>
      </trkpt>
      <trkpt lat="43.64158" lon="1.37659">
        <ele>144</ele>
        <time>2020-10-03T06:54:40.000Z</time>
      </trkpt>
      <trkpt lat="43.6416" lon="1.37661">
        <ele>144</ele>
        <time>2020-10-03T06:54:41.000Z</time>
      </trkpt>
      <trkpt lat="43.64161" lon="1.37663">
        <ele>144</ele>
        <time>2020-10-03T06:54:42.000Z</time>
      </trkpt>
      <trkpt lat="43.64163" lon="1.37665">
        <ele>144</ele>
        <time>2020-10-03T06:54:43.000Z</time>
      </trkpt>
      <trkpt lat="43.64166" lon="1.37666">
        <ele>144</ele>
        <time>2020-10-03T06:54:44.000Z</time>
      </trkpt>
      <trkpt lat="43.64168" lon="1.37668">
        <ele>144</ele>
        <time>2020-10-03T06:54:45.000Z</time>
      </trkpt>
      <trkpt lat="43.64171" lon="1.37669">
        <ele>144</ele>
        <time>2020-10-03T06:54:46.000Z</time>
      </trkpt>
      <trkpt lat="43.64173" lon="1.37672">
        <ele>144</ele>
        <time>2020-10-03T06:54:47.000Z</time>
      </trkpt>
      <trkpt lat="43.64176" lon="1.37674">
        <ele>144</ele>
        <time>2020-10-03T06:54:48.000Z</time>
      </trkpt>
      <trkpt lat="43.64179" lon="1.37676">
        <ele>144</ele>
        <time>2020-10-03T06:54:49.000Z</time>
      </trkpt>
      <trkpt lat="43.64181" lon="1.37679">
        <ele>144</ele>
        <time>2020-10-03T06:54:50.000Z</time>
      </trkpt>
      <trkpt lat="43.64184" lon="1.37682">
        <ele>144.43268923077</ele>
        <time>2020-10-03T06:54:51.000Z</time>
      </trkpt>
      <trkpt lat="43.64186" lon="1.37685">
        <ele>145</ele>
        <time>2020-10-03T06:54:52.000Z</time>
      </trkpt>
      <trkpt lat="43.64189" lon="1.3769">
        <ele>145</ele>
        <time>2020-10-03T06:54:53.000Z</time>
      </trkpt>
      <trkpt lat="43.64191" lon="1.37694">
        <ele>145</ele>
        <time>2020-10-03T06:54:54.000Z</time>
      </trkpt>
      <trkpt lat="43.64192" lon="1.37698">
        <ele>145</ele>
        <time>2020-10-03T06:54:55.000Z</time>
      </trkpt>
      <trkpt lat="43.64193" lon="1.37702">
        <ele>145</ele>
        <time>2020-10-03T06:54:56.000Z</time>
      </trkpt>
      <trkpt lat="43.64195" lon="1.37706">
        <ele>144.63157540168</ele>
        <time>2020-10-03T06:54:57.000Z</time>
      </trkpt>
      <trkpt lat="43.64196" lon="1.3771">
        <ele>144</ele>
        <time>2020-10-03T06:54:58.000Z</time>
      </trkpt>
      <trkpt lat="43.64197" lon="1.37714">
        <ele>144</ele>
        <time>2020-10-03T06:54:59.000Z</time>
      </trkpt>
      <trkpt lat="43.64198" lon="1.37718">
        <ele>144</ele>
        <time>2020-10-03T06:55:00.000Z</time>
      </trkpt>
      <trkpt lat="43.642" lon="1.37721">
        <ele>144</ele>
        <time>2020-10-03T06:55:01.000Z</time>
      </trkpt>
      <trkpt lat="43.64201" lon="1.37725">
        <ele>144</ele>
        <time>2020-10-03T06:55:02.000Z</time>
      </trkpt>
      <trkpt lat="43.64202" lon="1.37729">
        <ele>144</ele>
        <time>2020-10-03T06:55:03.000Z</time>
      </trkpt>
      <trkpt lat="43.64203" lon="1.37733">
        <ele>144</ele>
        <time>2020-10-03T06:55:04.000Z</time>
      </trkpt>
      <trkpt lat="43.64203" lon="1.37737">
        <ele>144</ele>
        <time>2020-10-03T06:55:05.000Z</time>
      </trkpt>
      <trkpt lat="43.64203" lon="1.37741">
        <ele>144.45044858046</ele>
        <time>2020-10-03T06:55:06.000Z</time>
      </trkpt>
      <trkpt lat="43.64203" lon="1.37745">
        <ele>145</ele>
        <time>2020-10-03T06:55:07.000Z</time>
      </trkpt>
      <trkpt lat="43.64202" lon="1.37749">
        <ele>145</ele>
        <time>2020-10-03T06:55:08.000Z</time>
      </trkpt>
      <trkpt lat="43.64201" lon="1.37753">
        <ele>145</ele>
        <time>2020-10-03T06:55:09.000Z</time>
      </trkpt>
      <trkpt lat="43.642" lon="1.37757">
        <ele>145</ele>
        <time>2020-10-03T06:55:10.000Z</time>
      </trkpt>
      <trkpt lat="43.64199" lon="1.3776">
        <ele>145</ele>
        <time>2020-10-03T06:55:11.000Z</time>
      </trkpt>
      <trkpt lat="43.64199" lon="1.37764">
        <ele>145</ele>
        <time>2020-10-03T06:55:12.000Z</time>
      </trkpt>
      <trkpt lat="43.642" lon="1.37767">
        <ele>145</ele>
        <time>2020-10-03T06:55:13.000Z</time>
      </trkpt>
      <trkpt lat="43.64201" lon="1.37771">
        <ele>145</ele>
        <time>2020-10-03T06:55:14.000Z</time>
      </trkpt>
      <trkpt lat="43.64201" lon="1.37775">
        <ele>145</ele>
        <time>2020-10-03T06:55:15.000Z</time>
      </trkpt>
      <trkpt lat="43.64202" lon="1.37779">
        <ele>145</ele>
        <time>2020-10-03T06:55:16.000Z</time>
      </trkpt>
      <trkpt lat="43.64203" lon="1.37783">
        <ele>145</ele>
        <time>2020-10-03T06:55:17.000Z</time>
      </trkpt>
      <trkpt lat="43.64204" lon="1.37786">
        <ele>145</ele>
        <time>2020-10-03T06:55:18.000Z</time>
      </trkpt>
      <trkpt lat="43.64205" lon="1.37789">
        <ele>145</ele>
        <time>2020-10-03T06:55:19.000Z</time>
      </trkpt>
      <trkpt lat="43.64206" lon="1.37792">
        <ele>145</ele>
        <time>2020-10-03T06:55:20.000Z</time>
      </trkpt>
      <trkpt lat="43.64207" lon="1.37794">
        <ele>145</ele>
        <time>2020-10-03T06:55:21.000Z</time>
      </trkpt>
      <trkpt lat="43.64209" lon="1.37796">
        <ele>145</ele>
        <time>2020-10-03T06:55:22.000Z</time>
      </trkpt>
      <trkpt lat="43.64211" lon="1.37798">
        <ele>145</ele>
        <time>2020-10-03T06:55:23.000Z</time>
      </trkpt>
      <trkpt lat="43.64214" lon="1.37799">
        <ele>145</ele>
        <time>2020-10-03T06:55:24.000Z</time>
      </trkpt>
      <trkpt lat="43.64217" lon="1.378">
        <ele>145</ele>
        <time>2020-10-03T06:55:25.000Z</time>
      </trkpt>
      <trkpt lat="43.6422" lon="1.37799">
        <ele>145</ele>
        <time>2020-10-03T06:55:26.000Z</time>
      </trkpt>
      <trkpt lat="43.64222" lon="1.37797">
        <ele>145</ele>
        <time>2020-10-03T06:55:27.000Z</time>
      </trkpt>
      <trkpt lat="43.64225" lon="1.37796">
        <ele>145</ele>
        <time>2020-10-03T06:55:28.000Z</time>
      </trkpt>
      <trkpt lat="43.64228" lon="1.37795">
        <ele>144.54255290177</ele>
        <time>2020-10-03T06:55:29.000Z</time>
      </trkpt>
      <trkpt lat="43.6423" lon="1.37794">
        <ele>144</ele>
        <time>2020-10-03T06:55:30.000Z</time>
      </trkpt>
      <trkpt lat="43.64232" lon="1.37793">
        <ele>144</ele>
        <time>2020-10-03T06:55:31.000Z</time>
      </trkpt>
      <trkpt lat="43.64235" lon="1.37792">
        <ele>144</ele>
        <time>2020-10-03T06:55:32.000Z</time>
      </trkpt>
      <trkpt lat="43.64237" lon="1.37791">
        <ele>144</ele>
        <time>2020-10-03T06:55:33.000Z</time>
      </trkpt>
      <trkpt lat="43.64239" lon="1.3779">
        <ele>144</ele>
        <time>2020-10-03T06:55:34.000Z</time>
      </trkpt>
      <trkpt lat="43.64242" lon="1.37788">
        <ele>144</ele>
        <time>2020-10-03T06:55:35.000Z</time>
      </trkpt>
      <trkpt lat="43.64245" lon="1.37787">
        <ele>144</ele>
        <time>2020-10-03T06:55:36.000Z</time>
      </trkpt>
      <trkpt lat="43.64247" lon="1.37785">
        <ele>144</ele>
        <time>2020-10-03T06:55:37.000Z</time>
      </trkpt>
      <trkpt lat="43.64249" lon="1.37784">
        <ele>144</ele>
        <time>2020-10-03T06:55:38.000Z</time>
      </trkpt>
      <trkpt lat="43.64251" lon="1.37783">
        <ele>144</ele>
        <time>2020-10-03T06:55:39.000Z</time>
      </trkpt>
      <trkpt lat="43.64254" lon="1.37781">
        <ele>144</ele>
        <time>2020-10-03T06:55:40.000Z</time>
      </trkpt>
      <trkpt lat="43.64256" lon="1.37779">
        <ele>143</ele>
        <time>2020-10-03T06:55:41.000Z</time>
      </trkpt>
      <trkpt lat="43.64259" lon="1.37778">
        <ele>143</ele>
        <time>2020-10-03T06:55:42.000Z</time>
      </trkpt>
      <trkpt lat="43.64262" lon="1.37776">
        <ele>143</ele>
        <time>2020-10-03T06:55:43.000Z</time>
      </trkpt>
      <trkpt lat="43.64265" lon="1.37775">
        <ele>143</ele>
        <time>2020-10-03T06:55:44.000Z</time>
      </trkpt>
      <trkpt lat="43.64268" lon="1.37773">
        <ele>143</ele>
        <time>2020-10-03T06:55:45.000Z</time>
      </trkpt>
      <trkpt lat="43.6427" lon="1.37772">
        <ele>143</ele>
        <time>2020-10-03T06:55:46.000Z</time>
      </trkpt>
      <trkpt lat="43.64273" lon="1.37771">
        <ele>143</ele>
        <time>2020-10-03T06:55:47.000Z</time>
      </trkpt>
      <trkpt lat="43.64275" lon="1.37769">
        <ele>143</ele>
        <time>2020-10-03T06:55:48.000Z</time>
      </trkpt>
      <trkpt lat="43.64278" lon="1.37768">
        <ele>142.58427176367</ele>
        <time>2020-10-03T06:55:49.000Z</time>
      </trkpt>
      <trkpt lat="43.64281" lon="1.37766">
        <ele>142</ele>
        <time>2020-10-03T06:55:50.000Z</time>
      </trkpt>
      <trkpt lat="43.64284" lon="1.37765">
        <ele>142</ele>
        <time>2020-10-03T06:55:51.000Z</time>
      </trkpt>
      <trkpt lat="43.64287" lon="1.37764">
        <ele>142</ele>
        <time>2020-10-03T06:55:52.000Z</time>
      </trkpt>
      <trkpt lat="43.6429" lon="1.37763">
        <ele>142</ele>
        <time>2020-10-03T06:55:53.000Z</time>
      </trkpt>
      <trkpt lat="43.64293" lon="1.37761">
        <ele>142</ele>
        <time>2020-10-03T06:55:54.000Z</time>
      </trkpt>
      <trkpt lat="43.64296" lon="1.3776">
        <ele>142</ele>
        <time>2020-10-03T06:55:55.000Z</time>
      </trkpt>
      <trkpt lat="43.64299" lon="1.37758">
        <ele>142</ele>
        <time>2020-10-03T06:55:56.000Z</time>
      </trkpt>
      <trkpt lat="43.64302" lon="1.37756">
        <ele>142</ele>
        <time>2020-10-03T06:55:57.000Z</time>
      </trkpt>
      <trkpt lat="43.64305" lon="1.37755">
        <ele>142</ele>
        <time>2020-10-03T06:55:58.000Z</time>
      </trkpt>
      <trkpt lat="43.64308" lon="1.37754">
        <ele>142</ele>
        <time>2020-10-03T06:55:59.000Z</time>
      </trkpt>
      <trkpt lat="43.64311" lon="1.37752">
        <ele>142</ele>
        <time>2020-10-03T06:56:00.000Z</time>
      </trkpt>
      <trkpt lat="43.64315" lon="1.37751">
        <ele>142</ele>
        <time>2020-10-03T06:56:01.000Z</time>
      </trkpt>
      <trkpt lat="43.64318" lon="1.37751">
        <ele>142</ele>
        <time>2020-10-03T06:56:02.000Z</time>
      </trkpt>
      <trkpt lat="43.64322" lon="1.37752">
        <ele>142</ele>
        <time>2020-10-03T06:56:03.000Z</time>
      </trkpt>
      <trkpt lat="43.64325" lon="1.37754">
        <ele>142</ele>
        <time>2020-10-03T06:56:04.000Z</time>
      </trkpt>
      <trkpt lat="43.64328" lon="1.37756">
        <ele>142</ele>
        <time>2020-10-03T06:56:05.000Z</time>
      </trkpt>
      <trkpt lat="43.64332" lon="1.37758">
        <ele>142</ele>
        <time>2020-10-03T06:56:06.000Z</time>
      </trkpt>
      <trkpt lat="43.64334" lon="1.37761">
        <ele>142</ele>
        <time>2020-10-03T06:56:07.000Z</time>
      </trkpt>
      <trkpt lat="43.64336" lon="1.37765">
        <ele>142.45370074074</ele>
        <time>2020-10-03T06:56:08.000Z</time>
      </trkpt>
      <trkpt lat="43.64339" lon="1.37768">
        <ele>143</ele>
        <time>2020-10-03T06:56:09.000Z</time>
      </trkpt>
      <trkpt lat="43.64341" lon="1.37771">
        <ele>143</ele>
        <time>2020-10-03T06:56:10.000Z</time>
      </trkpt>
      <trkpt lat="43.64343" lon="1.37775">
        <ele>143</ele>
        <time>2020-10-03T06:56:11.000Z</time>
      </trkpt>
      <trkpt lat="43.64344" lon="1.37779">
        <ele>142.75789218394</ele>
        <time>2020-10-03T06:56:12.000Z</time>
      </trkpt>
      <trkpt lat="43.64346" lon="1.37782">
        <ele>142</ele>
        <time>2020-10-03T06:56:13.000Z</time>
      </trkpt>
      <trkpt lat="43.64348" lon="1.37786">
        <ele>142</ele>
        <time>2020-10-03T06:56:14.000Z</time>
      </trkpt>
      <trkpt lat="43.64349" lon="1.37789">
        <ele>142</ele>
        <time>2020-10-03T06:56:15.000Z</time>
      </trkpt>
      <trkpt lat="43.64351" lon="1.37792">
        <ele>142</ele>
        <time>2020-10-03T06:56:16.000Z</time>
      </trkpt>
      <trkpt lat="43.64354" lon="1.37794">
        <ele>142</ele>
        <time>2020-10-03T06:56:17.000Z</time>
      </trkpt>
      <trkpt lat="43.64357" lon="1.37795">
        <ele>142</ele>
        <time>2020-10-03T06:56:18.000Z</time>
      </trkpt>
      <trkpt lat="43.6436" lon="1.37795">
        <ele>142</ele>
        <time>2020-10-03T06:56:19.000Z</time>
      </trkpt>
      <trkpt lat="43.64362" lon="1.37796">
        <ele>142.35294471968</ele>
        <time>2020-10-03T06:56:20.000Z</time>
      </trkpt>
      <trkpt lat="43.64365" lon="1.37796">
        <ele>143</ele>
        <time>2020-10-03T06:56:21.000Z</time>
      </trkpt>
      <trkpt lat="43.64368" lon="1.37797">
        <ele>143</ele>
        <time>2020-10-03T06:56:22.000Z</time>
      </trkpt>
      <trkpt lat="43.64371" lon="1.37797">
        <ele>143</ele>
        <time>2020-10-03T06:56:23.000Z</time>
      </trkpt>
      <trkpt lat="43.64373" lon="1.37798">
        <ele>143</ele>
        <time>2020-10-03T06:56:24.000Z</time>
      </trkpt>
      <trkpt lat="43.64376" lon="1.37798">
        <ele>142.66667040938</ele>
        <time>2020-10-03T06:56:25.000Z</time>
      </trkpt>
      <trkpt lat="43.64379" lon="1.37798">
        <ele>142</ele>
        <time>2020-10-03T06:56:26.000Z</time>
      </trkpt>
      <trkpt lat="43.64382" lon="1.37799">
        <ele>142</ele>
        <time>2020-10-03T06:56:27.000Z</time>
      </trkpt>
      <trkpt lat="43.64385" lon="1.37799">
        <ele>142</ele>
        <time>2020-10-03T06:56:28.000Z</time>
      </trkpt>
      <trkpt lat="43.64391" lon="1.378">
        <ele>142</ele>
        <time>2020-10-03T06:56:30.000Z</time>
      </trkpt>
      <trkpt lat="43.64394" lon="1.37801">
        <ele>142</ele>
        <time>2020-10-03T06:56:31.000Z</time>
      </trkpt>
      <trkpt lat="43.64397" lon="1.37801">
        <ele>141.5</ele>
        <time>2020-10-03T06:56:32.000Z</time>
      </trkpt>
      <trkpt lat="43.644" lon="1.37802">
        <ele>141.37594194809</ele>
        <time>2020-10-03T06:56:33.000Z</time>
      </trkpt>
      <trkpt lat="43.64403" lon="1.37802">
        <ele>142</ele>
        <time>2020-10-03T06:56:34.000Z</time>
      </trkpt>
      <trkpt lat="43.64406" lon="1.37803">
        <ele>142</ele>
        <time>2020-10-03T06:56:35.000Z</time>
      </trkpt>
      <trkpt lat="43.64409" lon="1.37804">
        <ele>142</ele>
        <time>2020-10-03T06:56:36.000Z</time>
      </trkpt>
      <trkpt lat="43.64412" lon="1.37804">
        <ele>142</ele>
        <time>2020-10-03T06:56:37.000Z</time>
      </trkpt>
      <trkpt lat="43.64415" lon="1.37805">
        <ele>142</ele>
        <time>2020-10-03T06:56:38.000Z</time>
      </trkpt>
      <trkpt lat="43.64418" lon="1.37806">
        <ele>142</ele>
        <time>2020-10-03T06:56:39.000Z</time>
      </trkpt>
      <trkpt lat="43.64421" lon="1.37806">
        <ele>142</ele>
        <time>2020-10-03T06:56:40.000Z</time>
      </trkpt>
      <trkpt lat="43.64424" lon="1.37807">
        <ele>141.58762750557</ele>
        <time>2020-10-03T06:56:41.000Z</time>
      </trkpt>
      <trkpt lat="43.64427" lon="1.37808">
        <ele>141</ele>
        <time>2020-10-03T06:56:42.000Z</time>
      </trkpt>
      <trkpt lat="43.64429" lon="1.37809">
        <ele>141</ele>
        <time>2020-10-03T06:56:43.000Z</time>
      </trkpt>
      <trkpt lat="43.64432" lon="1.37811">
        <ele>141</ele>
        <time>2020-10-03T06:56:44.000Z</time>
      </trkpt>
      <trkpt lat="43.64435" lon="1.37812">
        <ele>141</ele>
        <time>2020-10-03T06:56:45.000Z</time>
      </trkpt>
      <trkpt lat="43.64437" lon="1.37814">
        <ele>141</ele>
        <time>2020-10-03T06:56:46.000Z</time>
      </trkpt>
      <trkpt lat="43.6444" lon="1.37816">
        <ele>141</ele>
        <time>2020-10-03T06:56:47.000Z</time>
      </trkpt>
      <trkpt lat="43.64442" lon="1.37817">
        <ele>140.62244977926</ele>
        <time>2020-10-03T06:56:48.000Z</time>
      </trkpt>
      <trkpt lat="43.64444" lon="1.37818">
        <ele>140</ele>
        <time>2020-10-03T06:56:49.000Z</time>
      </trkpt>
      <trkpt lat="43.64447" lon="1.37819">
        <ele>140.44444444444</ele>
        <time>2020-10-03T06:56:50.000Z</time>
      </trkpt>
      <trkpt lat="43.64449" lon="1.3782">
        <ele>141</ele>
        <time>2020-10-03T06:56:51.000Z</time>
      </trkpt>
      <trkpt lat="43.64452" lon="1.3782">
        <ele>141</ele>
        <time>2020-10-03T06:56:52.000Z</time>
      </trkpt>
      <trkpt lat="43.64455" lon="1.37822">
        <ele>141</ele>
        <time>2020-10-03T06:56:53.000Z</time>
      </trkpt>
      <trkpt lat="43.64458" lon="1.37825">
        <ele>141</ele>
        <time>2020-10-03T06:56:54.000Z</time>
      </trkpt>
      <trkpt lat="43.6446" lon="1.37826">
        <ele>141</ele>
        <time>2020-10-03T06:56:55.000Z</time>
      </trkpt>
      <trkpt lat="43.64462" lon="1.37828">
        <ele>141</ele>
        <time>2020-10-03T06:56:56.000Z</time>
      </trkpt>
      <trkpt lat="43.64464" lon="1.37831">
        <ele>141</ele>
        <time>2020-10-03T06:56:57.000Z</time>
      </trkpt>
      <trkpt lat="43.64466" lon="1.37833">
        <ele>141</ele>
        <time>2020-10-03T06:56:58.000Z</time>
      </trkpt>
      <trkpt lat="43.64469" lon="1.37835">
        <ele>141</ele>
        <time>2020-10-03T06:56:59.000Z</time>
      </trkpt>
      <trkpt lat="43.64472" lon="1.37837">
        <ele>141</ele>
        <time>2020-10-03T06:57:00.000Z</time>
      </trkpt>
      <trkpt lat="43.64475" lon="1.37839">
        <ele>141</ele>
        <time>2020-10-03T06:57:01.000Z</time>
      </trkpt>
      <trkpt lat="43.64478" lon="1.37841">
        <ele>141</ele>
        <time>2020-10-03T06:57:02.000Z</time>
      </trkpt>
      <trkpt lat="43.64481" lon="1.37844">
        <ele>141</ele>
        <time>2020-10-03T06:57:03.000Z</time>
      </trkpt>
      <trkpt lat="43.64483" lon="1.37846">
        <ele>141</ele>
        <time>2020-10-03T06:57:04.000Z</time>
      </trkpt>
      <trkpt lat="43.64485" lon="1.37848">
        <ele>141</ele>
        <time>2020-10-03T06:57:05.000Z</time>
      </trkpt>
      <trkpt lat="43.64488" lon="1.3785">
        <ele>141</ele>
        <time>2020-10-03T06:57:06.000Z</time>
      </trkpt>
      <trkpt lat="43.64491" lon="1.37852">
        <ele>141</ele>
        <time>2020-10-03T06:57:07.000Z</time>
      </trkpt>
      <trkpt lat="43.64493" lon="1.37853">
        <ele>141</ele>
        <time>2020-10-03T06:57:08.000Z</time>
      </trkpt>
      <trkpt lat="43.64496" lon="1.37854">
        <ele>141</ele>
        <time>2020-10-03T06:57:09.000Z</time>
      </trkpt>
      <trkpt lat="43.64499" lon="1.37855">
        <ele>141</ele>
        <time>2020-10-03T06:57:10.000Z</time>
      </trkpt>
      <trkpt lat="43.64502" lon="1.37856">
        <ele>141.25640548761</ele>
        <time>2020-10-03T06:57:11.000Z</time>
      </trkpt>
      <trkpt lat="43.64504" lon="1.37858">
        <ele>142</ele>
        <time>2020-10-03T06:57:12.000Z</time>
      </trkpt>
      <trkpt lat="43.64507" lon="1.3786">
        <ele>142</ele>
        <time>2020-10-03T06:57:13.000Z</time>
      </trkpt>
      <trkpt lat="43.64509" lon="1.37862">
        <ele>142</ele>
        <time>2020-10-03T06:57:14.000Z</time>
      </trkpt>
      <trkpt lat="43.64511" lon="1.37864">
        <ele>142</ele>
        <time>2020-10-03T06:57:15.000Z</time>
      </trkpt>
      <trkpt lat="43.64513" lon="1.37865">
        <ele>142</ele>
        <time>2020-10-03T06:57:16.000Z</time>
      </trkpt>
      <trkpt lat="43.64515" lon="1.37866">
        <ele>141.65909818182</ele>
        <time>2020-10-03T06:57:17.000Z</time>
      </trkpt>
      <trkpt lat="43.64517" lon="1.37867">
        <ele>141</ele>
        <time>2020-10-03T06:57:18.000Z</time>
      </trkpt>
      <trkpt lat="43.64519" lon="1.37868">
        <ele>141.32584027268</ele>
        <time>2020-10-03T06:57:19.000Z</time>
      </trkpt>
      <trkpt lat="43.64522" lon="1.37868">
        <ele>142</ele>
        <time>2020-10-03T06:57:20.000Z</time>
      </trkpt>
      <trkpt lat="43.64525" lon="1.37868">
        <ele>142</ele>
        <time>2020-10-03T06:57:21.000Z</time>
      </trkpt>
      <trkpt lat="43.64528" lon="1.37868">
        <ele>142</ele>
        <time>2020-10-03T06:57:22.000Z</time>
      </trkpt>
      <trkpt lat="43.64531" lon="1.37867">
        <ele>142</ele>
        <time>2020-10-03T06:57:23.000Z</time>
      </trkpt>
      <trkpt lat="43.64534" lon="1.37867">
        <ele>141.54128892855</ele>
        <time>2020-10-03T06:57:24.000Z</time>
      </trkpt>
      <trkpt lat="43.64537" lon="1.37866">
        <ele>141</ele>
        <time>2020-10-03T06:57:25.000Z</time>
      </trkpt>
      <trkpt lat="43.6454" lon="1.37865">
        <ele>141.34483367417</ele>
        <time>2020-10-03T06:57:26.000Z</time>
      </trkpt>
      <trkpt lat="43.64543" lon="1.37864">
        <ele>142</ele>
        <time>2020-10-03T06:57:27.000Z</time>
      </trkpt>
      <trkpt lat="43.64547" lon="1.37863">
        <ele>142</ele>
        <time>2020-10-03T06:57:28.000Z</time>
      </trkpt>
      <trkpt lat="43.64549" lon="1.37862">
        <ele>142</ele>
        <time>2020-10-03T06:57:29.000Z</time>
      </trkpt>
      <trkpt lat="43.64552" lon="1.37862">
        <ele>142</ele>
        <time>2020-10-03T06:57:30.000Z</time>
      </trkpt>
      <trkpt lat="43.64558" lon="1.37861">
        <ele>142</ele>
        <time>2020-10-03T06:57:32.000Z</time>
      </trkpt>
      <trkpt lat="43.64561" lon="1.37861">
        <ele>142</ele>
        <time>2020-10-03T06:57:33.000Z</time>
      </trkpt>
      <trkpt lat="43.64564" lon="1.37861">
        <ele>142</ele>
        <time>2020-10-03T06:57:34.000Z</time>
      </trkpt>
      <trkpt lat="43.64567" lon="1.37861">
        <ele>142</ele>
        <time>2020-10-03T06:57:35.000Z</time>
      </trkpt>
      <trkpt lat="43.6457" lon="1.37861">
        <ele>142</ele>
        <time>2020-10-03T06:57:36.000Z</time>
      </trkpt>
      <trkpt lat="43.64573" lon="1.3786">
        <ele>142</ele>
        <time>2020-10-03T06:57:37.000Z</time>
      </trkpt>
      <trkpt lat="43.64576" lon="1.3786">
        <ele>142</ele>
        <time>2020-10-03T06:57:38.000Z</time>
      </trkpt>
      <trkpt lat="43.64579" lon="1.3786">
        <ele>142.40187094768</ele>
        <time>2020-10-03T06:57:39.000Z</time>
      </trkpt>
      <trkpt lat="43.64581" lon="1.3786">
        <ele>143</ele>
        <time>2020-10-03T06:57:40.000Z</time>
      </trkpt>
      <trkpt lat="43.64585" lon="1.3786">
        <ele>143</ele>
        <time>2020-10-03T06:57:41.000Z</time>
      </trkpt>
      <trkpt lat="43.64588" lon="1.37859">
        <ele>142.53333495873</ele>
        <time>2020-10-03T06:57:42.000Z</time>
      </trkpt>
      <trkpt lat="43.64591" lon="1.37859">
        <ele>142</ele>
        <time>2020-10-03T06:57:43.000Z</time>
      </trkpt>
      <trkpt lat="43.64594" lon="1.3786">
        <ele>141.51923692308</ele>
        <time>2020-10-03T06:57:44.000Z</time>
      </trkpt>
      <trkpt lat="43.64597" lon="1.37861">
        <ele>141</ele>
        <time>2020-10-03T06:57:45.000Z</time>
      </trkpt>
      <trkpt lat="43.64599" lon="1.37862">
        <ele>141</ele>
        <time>2020-10-03T06:57:46.000Z</time>
      </trkpt>
      <trkpt lat="43.64601" lon="1.37864">
        <ele>141</ele>
        <time>2020-10-03T06:57:47.000Z</time>
      </trkpt>
      <trkpt lat="43.64604" lon="1.37866">
        <ele>141</ele>
        <time>2020-10-03T06:57:48.000Z</time>
      </trkpt>
      <trkpt lat="43.64606" lon="1.37867">
        <ele>141</ele>
        <time>2020-10-03T06:57:49.000Z</time>
      </trkpt>
      <trkpt lat="43.64609" lon="1.37868">
        <ele>141</ele>
        <time>2020-10-03T06:57:50.000Z</time>
      </trkpt>
      <trkpt lat="43.64612" lon="1.37869">
        <ele>141</ele>
        <time>2020-10-03T06:57:51.000Z</time>
      </trkpt>
      <trkpt lat="43.64615" lon="1.3787">
        <ele>141</ele>
        <time>2020-10-03T06:57:52.000Z</time>
      </trkpt>
      <trkpt lat="43.64618" lon="1.3787">
        <ele>141</ele>
        <time>2020-10-03T06:57:53.000Z</time>
      </trkpt>
      <trkpt lat="43.64621" lon="1.37871">
        <ele>141</ele>
        <time>2020-10-03T06:57:54.000Z</time>
      </trkpt>
      <trkpt lat="43.64624" lon="1.37871">
        <ele>141</ele>
        <time>2020-10-03T06:57:55.000Z</time>
      </trkpt>
      <trkpt lat="43.64627" lon="1.37871">
        <ele>141</ele>
        <time>2020-10-03T06:57:56.000Z</time>
      </trkpt>
      <trkpt lat="43.6463" lon="1.37871">
        <ele>141</ele>
        <time>2020-10-03T06:57:57.000Z</time>
      </trkpt>
      <trkpt lat="43.64632" lon="1.37871">
        <ele>141</ele>
        <time>2020-10-03T06:57:58.000Z</time>
      </trkpt>
      <trkpt lat="43.64635" lon="1.37871">
        <ele>141</ele>
        <time>2020-10-03T06:57:59.000Z</time>
      </trkpt>
      <trkpt lat="43.64638" lon="1.37872">
        <ele>141</ele>
        <time>2020-10-03T06:58:00.000Z</time>
      </trkpt>
      <trkpt lat="43.64641" lon="1.37872">
        <ele>141</ele>
        <time>2020-10-03T06:58:01.000Z</time>
      </trkpt>
      <trkpt lat="43.64644" lon="1.37872">
        <ele>141</ele>
        <time>2020-10-03T06:58:02.000Z</time>
      </trkpt>
      <trkpt lat="43.64647" lon="1.37873">
        <ele>141</ele>
        <time>2020-10-03T06:58:03.000Z</time>
      </trkpt>
      <trkpt lat="43.6465" lon="1.37873">
        <ele>141</ele>
        <time>2020-10-03T06:58:04.000Z</time>
      </trkpt>
      <trkpt lat="43.64653" lon="1.37874">
        <ele>141</ele>
        <time>2020-10-03T06:58:05.000Z</time>
      </trkpt>
      <trkpt lat="43.64656" lon="1.37874">
        <ele>141</ele>
        <time>2020-10-03T06:58:06.000Z</time>
      </trkpt>
      <trkpt lat="43.64659" lon="1.37874">
        <ele>141</ele>
        <time>2020-10-03T06:58:07.000Z</time>
      </trkpt>
      <trkpt lat="43.64662" lon="1.37874">
        <ele>141</ele>
        <time>2020-10-03T06:58:08.000Z</time>
      </trkpt>
      <trkpt lat="43.64668" lon="1.37875">
        <ele>141</ele>
        <time>2020-10-03T06:58:10.000Z</time>
      </trkpt>
      <trkpt lat="43.64671" lon="1.37875">
        <ele>141</ele>
        <time>2020-10-03T06:58:11.000Z</time>
      </trkpt>
      <trkpt lat="43.64674" lon="1.37875">
        <ele>141</ele>
        <time>2020-10-03T06:58:12.000Z</time>
      </trkpt>
      <trkpt lat="43.64677" lon="1.37875">
        <ele>141</ele>
        <time>2020-10-03T06:58:13.000Z</time>
      </trkpt>
      <trkpt lat="43.6468" lon="1.37875">
        <ele>141</ele>
        <time>2020-10-03T06:58:14.000Z</time>
      </trkpt>
      <trkpt lat="43.64683" lon="1.37875">
        <ele>141</ele>
        <time>2020-10-03T06:58:15.000Z</time>
      </trkpt>
      <trkpt lat="43.64686" lon="1.37875">
        <ele>141</ele>
        <time>2020-10-03T06:58:16.000Z</time>
      </trkpt>
      <trkpt lat="43.64688" lon="1.37875">
        <ele>141</ele>
        <time>2020-10-03T06:58:17.000Z</time>
      </trkpt>
      <trkpt lat="43.64691" lon="1.37875">
        <ele>141</ele>
        <time>2020-10-03T06:58:18.000Z</time>
      </trkpt>
      <trkpt lat="43.64695" lon="1.37875">
        <ele>141</ele>
        <time>2020-10-03T06:58:19.000Z</time>
      </trkpt>
      <trkpt lat="43.64697" lon="1.37875">
        <ele>141</ele>
        <time>2020-10-03T06:58:20.000Z</time>
      </trkpt>
      <trkpt lat="43.64701" lon="1.37875">
        <ele>141</ele>
        <time>2020-10-03T06:58:21.000Z</time>
      </trkpt>
      <trkpt lat="43.64704" lon="1.37875">
        <ele>141</ele>
        <time>2020-10-03T06:58:22.000Z</time>
      </trkpt>
      <trkpt lat="43.64706" lon="1.37875">
        <ele>141.45370074074</ele>
        <time>2020-10-03T06:58:23.000Z</time>
      </trkpt>
      <trkpt lat="43.64709" lon="1.37874">
        <ele>142</ele>
        <time>2020-10-03T06:58:24.000Z</time>
      </trkpt>
      <trkpt lat="43.64712" lon="1.37874">
        <ele>142</ele>
        <time>2020-10-03T06:58:25.000Z</time>
      </trkpt>
      <trkpt lat="43.64715" lon="1.37874">
        <ele>141.63636575205</ele>
        <time>2020-10-03T06:58:26.000Z</time>
      </trkpt>
      <trkpt lat="43.64718" lon="1.37873">
        <ele>141</ele>
        <time>2020-10-03T06:58:27.000Z</time>
      </trkpt>
      <trkpt lat="43.6472" lon="1.37873">
        <ele>141</ele>
        <time>2020-10-03T06:58:28.000Z</time>
      </trkpt>
      <trkpt lat="43.64723" lon="1.37873">
        <ele>141</ele>
        <time>2020-10-03T06:58:29.000Z</time>
      </trkpt>
      <trkpt lat="43.64725" lon="1.37872">
        <ele>141.36153914319</ele>
        <time>2020-10-03T06:58:30.000Z</time>
      </trkpt>
      <trkpt lat="43.64729" lon="1.37871">
        <ele>142</ele>
        <time>2020-10-03T06:58:31.000Z</time>
      </trkpt>
      <trkpt lat="43.64732" lon="1.37871">
        <ele>142</ele>
        <time>2020-10-03T06:58:32.000Z</time>
      </trkpt>
      <trkpt lat="43.64734" lon="1.37871">
        <ele>142</ele>
        <time>2020-10-03T06:58:33.000Z</time>
      </trkpt>
      <trkpt lat="43.64736" lon="1.3787">
        <ele>142</ele>
        <time>2020-10-03T06:58:34.000Z</time>
      </trkpt>
      <trkpt lat="43.64738" lon="1.37869">
        <ele>142</ele>
        <time>2020-10-03T06:58:35.000Z</time>
      </trkpt>
      <trkpt lat="43.64741" lon="1.37869">
        <ele>142</ele>
        <time>2020-10-03T06:58:36.000Z</time>
      </trkpt>
      <trkpt lat="43.64743" lon="1.37868">
        <ele>142</ele>
        <time>2020-10-03T06:58:37.000Z</time>
      </trkpt>
      <trkpt lat="43.64746" lon="1.37867">
        <ele>142</ele>
        <time>2020-10-03T06:58:38.000Z</time>
      </trkpt>
      <trkpt lat="43.64748" lon="1.37866">
        <ele>141.6511676366</ele>
        <time>2020-10-03T06:58:39.000Z</time>
      </trkpt>
      <trkpt lat="43.64751" lon="1.37865">
        <ele>141</ele>
        <time>2020-10-03T06:58:40.000Z</time>
      </trkpt>
      <trkpt lat="43.64753" lon="1.37863">
        <ele>141</ele>
        <time>2020-10-03T06:58:41.000Z</time>
      </trkpt>
      <trkpt lat="43.64756" lon="1.37862">
        <ele>140.54629925926</ele>
        <time>2020-10-03T06:58:42.000Z</time>
      </trkpt>
      <trkpt lat="43.64757" lon="1.37859">
        <ele>140</ele>
        <time>2020-10-03T06:58:43.000Z</time>
      </trkpt>
      <trkpt lat="43.64758" lon="1.37856">
        <ele>140</ele>
        <time>2020-10-03T06:58:44.000Z</time>
      </trkpt>
      <trkpt lat="43.64758" lon="1.37852">
        <ele>140.7272769587</ele>
        <time>2020-10-03T06:58:45.000Z</time>
      </trkpt>
      <trkpt lat="43.64757" lon="1.37849">
        <ele>142</ele>
        <time>2020-10-03T06:58:46.000Z</time>
      </trkpt>
      <trkpt lat="43.64757" lon="1.37846">
        <ele>142</ele>
        <time>2020-10-03T06:58:47.000Z</time>
      </trkpt>
      <trkpt lat="43.64756" lon="1.37842">
        <ele>142</ele>
        <time>2020-10-03T06:58:48.000Z</time>
      </trkpt>
      <trkpt lat="43.64756" lon="1.37838">
        <ele>142.21917904298</ele>
        <time>2020-10-03T06:58:49.000Z</time>
      </trkpt>
      <trkpt lat="43.64757" lon="1.37835">
        <ele>143</ele>
        <time>2020-10-03T06:58:50.000Z</time>
      </trkpt>
      <trkpt lat="43.64757" lon="1.37833">
        <ele>143</ele>
        <time>2020-10-03T06:58:51.000Z</time>
      </trkpt>
      <trkpt lat="43.64758" lon="1.37831">
        <ele>143</ele>
        <time>2020-10-03T06:58:52.000Z</time>
      </trkpt>
      <trkpt lat="43.6476" lon="1.37826">
        <ele>143.42202050331</ele>
        <time>2020-10-03T06:58:54.000Z</time>
      </trkpt>
      <trkpt lat="43.64761" lon="1.37823">
        <ele>144</ele>
        <time>2020-10-03T06:58:55.000Z</time>
      </trkpt>
      <trkpt lat="43.64762" lon="1.3782">
        <ele>144</ele>
        <time>2020-10-03T06:58:56.000Z</time>
      </trkpt>
      <trkpt lat="43.64764" lon="1.37819">
        <ele>143.30231588974</ele>
        <time>2020-10-03T06:58:58.000Z</time>
      </trkpt>
      <trkpt lat="43.64766" lon="1.37817">
        <ele>142</ele>
        <time>2020-10-03T06:58:59.000Z</time>
      </trkpt>
      <trkpt lat="43.64768" lon="1.37814">
        <ele>142</ele>
        <time>2020-10-03T06:59:00.000Z</time>
      </trkpt>
      <trkpt lat="43.64771" lon="1.37812">
        <ele>142</ele>
        <time>2020-10-03T06:59:01.000Z</time>
      </trkpt>
      <trkpt lat="43.64774" lon="1.37811">
        <ele>142</ele>
        <time>2020-10-03T06:59:02.000Z</time>
      </trkpt>
      <trkpt lat="43.64777" lon="1.37809">
        <ele>142</ele>
        <time>2020-10-03T06:59:03.000Z</time>
      </trkpt>
      <trkpt lat="43.64779" lon="1.37806">
        <ele>142</ele>
        <time>2020-10-03T06:59:04.000Z</time>
      </trkpt>
      <trkpt lat="43.64781" lon="1.37803">
        <ele>142</ele>
        <time>2020-10-03T06:59:05.000Z</time>
      </trkpt>
      <trkpt lat="43.64783" lon="1.378">
        <ele>142.28205717286</ele>
        <time>2020-10-03T06:59:06.000Z</time>
      </trkpt>
      <trkpt lat="43.64785" lon="1.37797">
        <ele>143</ele>
        <time>2020-10-03T06:59:07.000Z</time>
      </trkpt>
      <trkpt lat="43.64787" lon="1.37793">
        <ele>143</ele>
        <time>2020-10-03T06:59:08.000Z</time>
      </trkpt>
      <trkpt lat="43.64788" lon="1.3779">
        <ele>143.18181818182</ele>
        <time>2020-10-03T06:59:09.000Z</time>
      </trkpt>
      <trkpt lat="43.6479" lon="1.37787">
        <ele>144</ele>
        <time>2020-10-03T06:59:10.000Z</time>
      </trkpt>
      <trkpt lat="43.64791" lon="1.37783">
        <ele>144</ele>
        <time>2020-10-03T06:59:11.000Z</time>
      </trkpt>
      <trkpt lat="43.64793" lon="1.3778">
        <ele>143.08410991351</ele>
        <time>2020-10-03T06:59:12.000Z</time>
      </trkpt>
      <trkpt lat="43.64794" lon="1.37776">
        <ele>142</ele>
        <time>2020-10-03T06:59:13.000Z</time>
      </trkpt>
      <trkpt lat="43.64796" lon="1.37772">
        <ele>141.54629925926</ele>
        <time>2020-10-03T06:59:14.000Z</time>
      </trkpt>
      <trkpt lat="43.64797" lon="1.37769">
        <ele>141</ele>
        <time>2020-10-03T06:59:15.000Z</time>
      </trkpt>
      <trkpt lat="43.64799" lon="1.37765">
        <ele>141.34483367417</ele>
        <time>2020-10-03T06:59:16.000Z</time>
      </trkpt>
      <trkpt lat="43.648" lon="1.37762">
        <ele>142</ele>
        <time>2020-10-03T06:59:17.000Z</time>
      </trkpt>
      <trkpt lat="43.64802" lon="1.37758">
        <ele>141.63063457835</ele>
        <time>2020-10-03T06:59:18.000Z</time>
      </trkpt>
      <trkpt lat="43.64804" lon="1.37755">
        <ele>141</ele>
        <time>2020-10-03T06:59:19.000Z</time>
      </trkpt>
      <trkpt lat="43.64805" lon="1.37751">
        <ele>141.45055068713</ele>
        <time>2020-10-03T06:59:20.000Z</time>
      </trkpt>
      <trkpt lat="43.64807" lon="1.37747">
        <ele>142</ele>
        <time>2020-10-03T06:59:21.000Z</time>
      </trkpt>
      <trkpt lat="43.64809" lon="1.37743">
        <ele>142</ele>
        <time>2020-10-03T06:59:22.000Z</time>
      </trkpt>
      <trkpt lat="43.6481" lon="1.3774">
        <ele>142</ele>
        <time>2020-10-03T06:59:23.000Z</time>
      </trkpt>
      <trkpt lat="43.64812" lon="1.37737">
        <ele>142</ele>
        <time>2020-10-03T06:59:24.000Z</time>
      </trkpt>
      <trkpt lat="43.64814" lon="1.37734">
        <ele>142</ele>
        <time>2020-10-03T06:59:25.000Z</time>
      </trkpt>
      <trkpt lat="43.64816" lon="1.3773">
        <ele>142.10666621156</ele>
        <time>2020-10-03T06:59:26.000Z</time>
      </trkpt>
      <trkpt lat="43.64817" lon="1.37727">
        <ele>143</ele>
        <time>2020-10-03T06:59:27.000Z</time>
      </trkpt>
      <trkpt lat="43.64819" lon="1.37724">
        <ele>143</ele>
        <time>2020-10-03T06:59:28.000Z</time>
      </trkpt>
      <trkpt lat="43.64821" lon="1.37721">
        <ele>143</ele>
        <time>2020-10-03T06:59:29.000Z</time>
      </trkpt>
      <trkpt lat="43.64822" lon="1.37718">
        <ele>143</ele>
        <time>2020-10-03T06:59:30.000Z</time>
      </trkpt>
      <trkpt lat="43.64824" lon="1.37715">
        <ele>143</ele>
        <time>2020-10-03T06:59:31.000Z</time>
      </trkpt>
      <trkpt lat="43.64826" lon="1.37712">
        <ele>143</ele>
        <time>2020-10-03T06:59:32.000Z</time>
      </trkpt>
      <trkpt lat="43.64827" lon="1.37709">
        <ele>143</ele>
        <time>2020-10-03T06:59:33.000Z</time>
      </trkpt>
      <trkpt lat="43.64829" lon="1.37706">
        <ele>142.574711629</ele>
        <time>2020-10-03T06:59:34.000Z</time>
      </trkpt>
      <trkpt lat="43.64831" lon="1.37703">
        <ele>142</ele>
        <time>2020-10-03T06:59:35.000Z</time>
      </trkpt>
      <trkpt lat="43.64833" lon="1.377">
        <ele>142</ele>
        <time>2020-10-03T06:59:36.000Z</time>
      </trkpt>
      <trkpt lat="43.64835" lon="1.37696">
        <ele>142.39535333691</ele>
        <time>2020-10-03T06:59:37.000Z</time>
      </trkpt>
      <trkpt lat="43.64837" lon="1.37693">
        <ele>143</ele>
        <time>2020-10-03T06:59:38.000Z</time>
      </trkpt>
      <trkpt lat="43.64839" lon="1.3769">
        <ele>143</ele>
        <time>2020-10-03T06:59:39.000Z</time>
      </trkpt>
      <trkpt lat="43.6484" lon="1.37687">
        <ele>143</ele>
        <time>2020-10-03T06:59:40.000Z</time>
      </trkpt>
      <trkpt lat="43.64842" lon="1.37684">
        <ele>143</ele>
        <time>2020-10-03T06:59:41.000Z</time>
      </trkpt>
      <trkpt lat="43.64844" lon="1.37681">
        <ele>143</ele>
        <time>2020-10-03T06:59:42.000Z</time>
      </trkpt>
      <trkpt lat="43.64846" lon="1.37679">
        <ele>143</ele>
        <time>2020-10-03T06:59:43.000Z</time>
      </trkpt>
      <trkpt lat="43.64848" lon="1.37677">
        <ele>143</ele>
        <time>2020-10-03T06:59:44.000Z</time>
      </trkpt>
      <trkpt lat="43.6485" lon="1.37674">
        <ele>143</ele>
        <time>2020-10-03T06:59:45.000Z</time>
      </trkpt>
      <trkpt lat="43.64852" lon="1.37671">
        <ele>143</ele>
        <time>2020-10-03T06:59:46.000Z</time>
      </trkpt>
      <trkpt lat="43.64854" lon="1.37667">
        <ele>143</ele>
        <time>2020-10-03T06:59:47.000Z</time>
      </trkpt>
      <trkpt lat="43.64856" lon="1.37664">
        <ele>143</ele>
        <time>2020-10-03T06:59:48.000Z</time>
      </trkpt>
      <trkpt lat="43.64858" lon="1.37661">
        <ele>143</ele>
        <time>2020-10-03T06:59:49.000Z</time>
      </trkpt>
      <trkpt lat="43.6486" lon="1.37658">
        <ele>143</ele>
        <time>2020-10-03T06:59:50.000Z</time>
      </trkpt>
      <trkpt lat="43.64862" lon="1.37656">
        <ele>143</ele>
        <time>2020-10-03T06:59:51.000Z</time>
      </trkpt>
      <trkpt lat="43.64865" lon="1.37654">
        <ele>143</ele>
        <time>2020-10-03T06:59:52.000Z</time>
      </trkpt>
      <trkpt lat="43.64867" lon="1.37652">
        <ele>143</ele>
        <time>2020-10-03T06:59:53.000Z</time>
      </trkpt>
      <trkpt lat="43.64869" lon="1.3765">
        <ele>143</ele>
        <time>2020-10-03T06:59:54.000Z</time>
      </trkpt>
      <trkpt lat="43.64871" lon="1.37649">
        <ele>143</ele>
        <time>2020-10-03T06:59:55.000Z</time>
      </trkpt>
      <trkpt lat="43.64874" lon="1.37647">
        <ele>143</ele>
        <time>2020-10-03T06:59:56.000Z</time>
      </trkpt>
      <trkpt lat="43.64877" lon="1.37645">
        <ele>143</ele>
        <time>2020-10-03T06:59:57.000Z</time>
      </trkpt>
      <trkpt lat="43.6488" lon="1.37644">
        <ele>143</ele>
        <time>2020-10-03T06:59:58.000Z</time>
      </trkpt>
      <trkpt lat="43.64883" lon="1.37642">
        <ele>143</ele>
        <time>2020-10-03T06:59:59.000Z</time>
      </trkpt>
      <trkpt lat="43.64886" lon="1.37636">
        <ele>143</ele>
        <time>2020-10-03T07:00:01.000Z</time>
      </trkpt>
      <trkpt lat="43.64888" lon="1.37633">
        <ele>143</ele>
        <time>2020-10-03T07:00:02.000Z</time>
      </trkpt>
      <trkpt lat="43.6489" lon="1.37626">
        <ele>144</ele>
        <time>2020-10-03T07:00:04.000Z</time>
      </trkpt>
      <trkpt lat="43.64892" lon="1.37623">
        <ele>144</ele>
        <time>2020-10-03T07:00:05.000Z</time>
      </trkpt>
      <trkpt lat="43.64893" lon="1.3762">
        <ele>144</ele>
        <time>2020-10-03T07:00:06.000Z</time>
      </trkpt>
      <trkpt lat="43.64894" lon="1.37617">
        <ele>144</ele>
        <time>2020-10-03T07:00:07.000Z</time>
      </trkpt>
      <trkpt lat="43.64896" lon="1.37613">
        <ele>144</ele>
        <time>2020-10-03T07:00:08.000Z</time>
      </trkpt>
      <trkpt lat="43.64897" lon="1.37609">
        <ele>144</ele>
        <time>2020-10-03T07:00:09.000Z</time>
      </trkpt>
      <trkpt lat="43.64898" lon="1.37606">
        <ele>144</ele>
        <time>2020-10-03T07:00:10.000Z</time>
      </trkpt>
      <trkpt lat="43.649" lon="1.37603">
        <ele>144</ele>
        <time>2020-10-03T07:00:11.000Z</time>
      </trkpt>
      <trkpt lat="43.64901" lon="1.37599">
        <ele>144</ele>
        <time>2020-10-03T07:00:12.000Z</time>
      </trkpt>
      <trkpt lat="43.64902" lon="1.37596">
        <ele>144.37614495749</ele>
        <time>2020-10-03T07:00:13.000Z</time>
      </trkpt>
      <trkpt lat="43.64903" lon="1.37593">
        <ele>145</ele>
        <time>2020-10-03T07:00:14.000Z</time>
      </trkpt>
      <trkpt lat="43.64904" lon="1.37589">
        <ele>145</ele>
        <time>2020-10-03T07:00:15.000Z</time>
      </trkpt>
      <trkpt lat="43.64905" lon="1.37586">
        <ele>145</ele>
        <time>2020-10-03T07:00:16.000Z</time>
      </trkpt>
      <trkpt lat="43.64906" lon="1.37583">
        <ele>145</ele>
        <time>2020-10-03T07:00:17.000Z</time>
      </trkpt>
      <trkpt lat="43.64907" lon="1.3758">
        <ele>145</ele>
        <time>2020-10-03T07:00:18.000Z</time>
      </trkpt>
      <trkpt lat="43.64909" lon="1.37577">
        <ele>145</ele>
        <time>2020-10-03T07:00:19.000Z</time>
      </trkpt>
      <trkpt lat="43.6491" lon="1.37574">
        <ele>145</ele>
        <time>2020-10-03T07:00:20.000Z</time>
      </trkpt>
      <trkpt lat="43.64911" lon="1.3757">
        <ele>145</ele>
        <time>2020-10-03T07:00:21.000Z</time>
      </trkpt>
      <trkpt lat="43.64912" lon="1.37567">
        <ele>145</ele>
        <time>2020-10-03T07:00:22.000Z</time>
      </trkpt>
      <trkpt lat="43.64913" lon="1.37563">
        <ele>145</ele>
        <time>2020-10-03T07:00:23.000Z</time>
      </trkpt>
      <trkpt lat="43.64915" lon="1.3756">
        <ele>145</ele>
        <time>2020-10-03T07:00:24.000Z</time>
      </trkpt>
      <trkpt lat="43.64916" lon="1.37556">
        <ele>144.63528897991</ele>
        <time>2020-10-03T07:00:25.000Z</time>
      </trkpt>
      <trkpt lat="43.64918" lon="1.37552">
        <ele>144</ele>
        <time>2020-10-03T07:00:26.000Z</time>
      </trkpt>
      <trkpt lat="43.6492" lon="1.37548">
        <ele>144</ele>
        <time>2020-10-03T07:00:27.000Z</time>
      </trkpt>
      <trkpt lat="43.64922" lon="1.37545">
        <ele>144</ele>
        <time>2020-10-03T07:00:28.000Z</time>
      </trkpt>
      <trkpt lat="43.64925" lon="1.37543">
        <ele>144</ele>
        <time>2020-10-03T07:00:29.000Z</time>
      </trkpt>
      <trkpt lat="43.64927" lon="1.37541">
        <ele>144</ele>
        <time>2020-10-03T07:00:30.000Z</time>
      </trkpt>
      <trkpt lat="43.6493" lon="1.37539">
        <ele>144</ele>
        <time>2020-10-03T07:00:31.000Z</time>
      </trkpt>
      <trkpt lat="43.64933" lon="1.37538">
        <ele>144.35514510611</ele>
        <time>2020-10-03T07:00:32.000Z</time>
      </trkpt>
      <trkpt lat="43.64935" lon="1.37536">
        <ele>145</ele>
        <time>2020-10-03T07:00:33.000Z</time>
      </trkpt>
      <trkpt lat="43.64937" lon="1.37533">
        <ele>145</ele>
        <time>2020-10-03T07:00:34.000Z</time>
      </trkpt>
      <trkpt lat="43.64939" lon="1.37531">
        <ele>145.28889057448</ele>
        <time>2020-10-03T07:00:35.000Z</time>
      </trkpt>
      <trkpt lat="43.64941" lon="1.37528">
        <ele>146</ele>
        <time>2020-10-03T07:00:36.000Z</time>
      </trkpt>
      <trkpt lat="43.64943" lon="1.37526">
        <ele>146</ele>
        <time>2020-10-03T07:00:37.000Z</time>
      </trkpt>
      <trkpt lat="43.64946" lon="1.37523">
        <ele>146</ele>
        <time>2020-10-03T07:00:38.000Z</time>
      </trkpt>
      <trkpt lat="43.64948" lon="1.37522">
        <ele>146</ele>
        <time>2020-10-03T07:00:39.000Z</time>
      </trkpt>
      <trkpt lat="43.64951" lon="1.3752">
        <ele>146</ele>
        <time>2020-10-03T07:00:40.000Z</time>
      </trkpt>
      <trkpt lat="43.64956" lon="1.37518">
        <ele>143</ele>
        <time>2020-10-03T07:00:42.000Z</time>
      </trkpt>
      <trkpt lat="43.64959" lon="1.37517">
        <ele>143</ele>
        <time>2020-10-03T07:00:43.000Z</time>
      </trkpt>
      <trkpt lat="43.64962" lon="1.37515">
        <ele>143</ele>
        <time>2020-10-03T07:00:44.000Z</time>
      </trkpt>
      <trkpt lat="43.64965" lon="1.37514">
        <ele>143.33696</ele>
        <time>2020-10-03T07:00:45.000Z</time>
      </trkpt>
      <trkpt lat="43.64968" lon="1.37513">
        <ele>144</ele>
        <time>2020-10-03T07:00:46.000Z</time>
      </trkpt>
      <trkpt lat="43.6497" lon="1.37511">
        <ele>144</ele>
        <time>2020-10-03T07:00:47.000Z</time>
      </trkpt>
      <trkpt lat="43.64973" lon="1.3751">
        <ele>144.33620965517</ele>
        <time>2020-10-03T07:00:48.000Z</time>
      </trkpt>
      <trkpt lat="43.64976" lon="1.37509">
        <ele>145</ele>
        <time>2020-10-03T07:00:49.000Z</time>
      </trkpt>
      <trkpt lat="43.64979" lon="1.37508">
        <ele>145</ele>
        <time>2020-10-03T07:00:50.000Z</time>
      </trkpt>
      <trkpt lat="43.64982" lon="1.37506">
        <ele>145</ele>
        <time>2020-10-03T07:00:51.000Z</time>
      </trkpt>
      <trkpt lat="43.64984" lon="1.37504">
        <ele>145</ele>
        <time>2020-10-03T07:00:52.000Z</time>
      </trkpt>
      <trkpt lat="43.64987" lon="1.37503">
        <ele>145</ele>
        <time>2020-10-03T07:00:53.000Z</time>
      </trkpt>
      <trkpt lat="43.6499" lon="1.37502">
        <ele>145</ele>
        <time>2020-10-03T07:00:54.000Z</time>
      </trkpt>
      <trkpt lat="43.64993" lon="1.37501">
        <ele>145</ele>
        <time>2020-10-03T07:00:55.000Z</time>
      </trkpt>
      <trkpt lat="43.64997" lon="1.375">
        <ele>144.10891440448</ele>
        <time>2020-10-03T07:00:56.000Z</time>
      </trkpt>
      <trkpt lat="43.65" lon="1.37498">
        <ele>143</ele>
        <time>2020-10-03T07:00:57.000Z</time>
      </trkpt>
      <trkpt lat="43.65003" lon="1.37497">
        <ele>143</ele>
        <time>2020-10-03T07:00:58.000Z</time>
      </trkpt>
      <trkpt lat="43.65006" lon="1.37496">
        <ele>143</ele>
        <time>2020-10-03T07:00:59.000Z</time>
      </trkpt>
      <trkpt lat="43.65009" lon="1.37495">
        <ele>143.22221519888</ele>
        <time>2020-10-03T07:01:00.000Z</time>
      </trkpt>
      <trkpt lat="43.65012" lon="1.37494">
        <ele>144</ele>
        <time>2020-10-03T07:01:01.000Z</time>
      </trkpt>
      <trkpt lat="43.65014" lon="1.37493">
        <ele>144</ele>
        <time>2020-10-03T07:01:02.000Z</time>
      </trkpt>
      <trkpt lat="43.65017" lon="1.37492">
        <ele>144</ele>
        <time>2020-10-03T07:01:03.000Z</time>
      </trkpt>
      <trkpt lat="43.6502" lon="1.37491">
        <ele>144</ele>
        <time>2020-10-03T07:01:04.000Z</time>
      </trkpt>
      <trkpt lat="43.65023" lon="1.3749">
        <ele>144</ele>
        <time>2020-10-03T07:01:05.000Z</time>
      </trkpt>
      <trkpt lat="43.65027" lon="1.37489">
        <ele>144</ele>
        <time>2020-10-03T07:01:06.000Z</time>
      </trkpt>
      <trkpt lat="43.6503" lon="1.37487">
        <ele>144</ele>
        <time>2020-10-03T07:01:07.000Z</time>
      </trkpt>
      <trkpt lat="43.65033" lon="1.37486">
        <ele>144</ele>
        <time>2020-10-03T07:01:08.000Z</time>
      </trkpt>
      <trkpt lat="43.65036" lon="1.37484">
        <ele>144</ele>
        <time>2020-10-03T07:01:09.000Z</time>
      </trkpt>
      <trkpt lat="43.65038" lon="1.37483">
        <ele>144</ele>
        <time>2020-10-03T07:01:10.000Z</time>
      </trkpt>
      <trkpt lat="43.65041" lon="1.37482">
        <ele>144</ele>
        <time>2020-10-03T07:01:11.000Z</time>
      </trkpt>
      <trkpt lat="43.65044" lon="1.37481">
        <ele>144</ele>
        <time>2020-10-03T07:01:12.000Z</time>
      </trkpt>
      <trkpt lat="43.65046" lon="1.3748">
        <ele>144</ele>
        <time>2020-10-03T07:01:13.000Z</time>
      </trkpt>
      <trkpt lat="43.65049" lon="1.37479">
        <ele>144</ele>
        <time>2020-10-03T07:01:14.000Z</time>
      </trkpt>
      <trkpt lat="43.65051" lon="1.37477">
        <ele>144</ele>
        <time>2020-10-03T07:01:15.000Z</time>
      </trkpt>
      <trkpt lat="43.65054" lon="1.37476">
        <ele>144</ele>
        <time>2020-10-03T07:01:16.000Z</time>
      </trkpt>
      <trkpt lat="43.65057" lon="1.37475">
        <ele>144</ele>
        <time>2020-10-03T07:01:17.000Z</time>
      </trkpt>
      <trkpt lat="43.65059" lon="1.37474">
        <ele>144</ele>
        <time>2020-10-03T07:01:18.000Z</time>
      </trkpt>
      <trkpt lat="43.65062" lon="1.37473">
        <ele>144</ele>
        <time>2020-10-03T07:01:19.000Z</time>
      </trkpt>
      <trkpt lat="43.65065" lon="1.37472">
        <ele>144</ele>
        <time>2020-10-03T07:01:20.000Z</time>
      </trkpt>
      <trkpt lat="43.65068" lon="1.3747">
        <ele>144</ele>
        <time>2020-10-03T07:01:21.000Z</time>
      </trkpt>
      <trkpt lat="43.65071" lon="1.37469">
        <ele>144</ele>
        <time>2020-10-03T07:01:22.000Z</time>
      </trkpt>
      <trkpt lat="43.65074" lon="1.37468">
        <ele>144</ele>
        <time>2020-10-03T07:01:23.000Z</time>
      </trkpt>
      <trkpt lat="43.65076" lon="1.37466">
        <ele>144</ele>
        <time>2020-10-03T07:01:24.000Z</time>
      </trkpt>
      <trkpt lat="43.65079" lon="1.37465">
        <ele>144</ele>
        <time>2020-10-03T07:01:25.000Z</time>
      </trkpt>
      <trkpt lat="43.65082" lon="1.37464">
        <ele>144</ele>
        <time>2020-10-03T07:01:26.000Z</time>
      </trkpt>
      <trkpt lat="43.65085" lon="1.37462">
        <ele>144.05556082298</ele>
        <time>2020-10-03T07:01:27.000Z</time>
      </trkpt>
      <trkpt lat="43.65088" lon="1.37461">
        <ele>145</ele>
        <time>2020-10-03T07:01:28.000Z</time>
      </trkpt>
      <trkpt lat="43.6509" lon="1.3746">
        <ele>145</ele>
        <time>2020-10-03T07:01:29.000Z</time>
      </trkpt>
      <trkpt lat="43.65093" lon="1.37459">
        <ele>145</ele>
        <time>2020-10-03T07:01:30.000Z</time>
      </trkpt>
      <trkpt lat="43.65096" lon="1.37457">
        <ele>145</ele>
        <time>2020-10-03T07:01:31.000Z</time>
      </trkpt>
      <trkpt lat="43.65099" lon="1.37456">
        <ele>145</ele>
        <time>2020-10-03T07:01:32.000Z</time>
      </trkpt>
      <trkpt lat="43.65102" lon="1.37455">
        <ele>145</ele>
        <time>2020-10-03T07:01:33.000Z</time>
      </trkpt>
      <trkpt lat="43.65105" lon="1.37455">
        <ele>145</ele>
        <time>2020-10-03T07:01:34.000Z</time>
      </trkpt>
      <trkpt lat="43.65107" lon="1.37454">
        <ele>145</ele>
        <time>2020-10-03T07:01:35.000Z</time>
      </trkpt>
      <trkpt lat="43.65111" lon="1.37453">
        <ele>145.33708220675</ele>
        <time>2020-10-03T07:01:36.000Z</time>
      </trkpt>
      <trkpt lat="43.65114" lon="1.37452">
        <ele>146</ele>
        <time>2020-10-03T07:01:37.000Z</time>
      </trkpt>
      <trkpt lat="43.65119" lon="1.37449">
        <ele>146</ele>
        <time>2020-10-03T07:01:39.000Z</time>
      </trkpt>
      <trkpt lat="43.65122" lon="1.37448">
        <ele>146</ele>
        <time>2020-10-03T07:01:40.000Z</time>
      </trkpt>
      <trkpt lat="43.65125" lon="1.37448">
        <ele>146</ele>
        <time>2020-10-03T07:01:41.000Z</time>
      </trkpt>
      <trkpt lat="43.65127" lon="1.37447">
        <ele>146</ele>
        <time>2020-10-03T07:01:42.000Z</time>
      </trkpt>
      <trkpt lat="43.65133" lon="1.37446">
        <ele>146</ele>
        <time>2020-10-03T07:01:44.000Z</time>
      </trkpt>
      <trkpt lat="43.65136" lon="1.37446">
        <ele>146</ele>
        <time>2020-10-03T07:01:45.000Z</time>
      </trkpt>
      <trkpt lat="43.65139" lon="1.37446">
        <ele>146</ele>
        <time>2020-10-03T07:01:46.000Z</time>
      </trkpt>
      <trkpt lat="43.65142" lon="1.37445">
        <ele>146</ele>
        <time>2020-10-03T07:01:47.000Z</time>
      </trkpt>
      <trkpt lat="43.65145" lon="1.37444">
        <ele>146</ele>
        <time>2020-10-03T07:01:48.000Z</time>
      </trkpt>
      <trkpt lat="43.65148" lon="1.37444">
        <ele>146.5</ele>
        <time>2020-10-03T07:01:49.000Z</time>
      </trkpt>
      <trkpt lat="43.6515" lon="1.37443">
        <ele>147</ele>
        <time>2020-10-03T07:01:50.000Z</time>
      </trkpt>
      <trkpt lat="43.65153" lon="1.37443">
        <ele>147</ele>
        <time>2020-10-03T07:01:51.000Z</time>
      </trkpt>
      <trkpt lat="43.65158" lon="1.37442">
        <ele>147</ele>
        <time>2020-10-03T07:01:53.000Z</time>
      </trkpt>
      <trkpt lat="43.65161" lon="1.37442">
        <ele>147</ele>
        <time>2020-10-03T07:01:54.000Z</time>
      </trkpt>
      <trkpt lat="43.65163" lon="1.37441">
        <ele>147</ele>
        <time>2020-10-03T07:01:55.000Z</time>
      </trkpt>
      <trkpt lat="43.65166" lon="1.37441">
        <ele>147</ele>
        <time>2020-10-03T07:01:56.000Z</time>
      </trkpt>
      <trkpt lat="43.65169" lon="1.3744">
        <ele>146.81818937429</ele>
        <time>2020-10-03T07:01:57.000Z</time>
      </trkpt>
      <trkpt lat="43.65171" lon="1.3744">
        <ele>146</ele>
        <time>2020-10-03T07:01:58.000Z</time>
      </trkpt>
      <trkpt lat="43.65175" lon="1.37439">
        <ele>146</ele>
        <time>2020-10-03T07:01:59.000Z</time>
      </trkpt>
      <trkpt lat="43.65177" lon="1.37439">
        <ele>146</ele>
        <time>2020-10-03T07:02:00.000Z</time>
      </trkpt>
      <trkpt lat="43.6518" lon="1.37439">
        <ele>146</ele>
        <time>2020-10-03T07:02:01.000Z</time>
      </trkpt>
      <trkpt lat="43.65183" lon="1.37439">
        <ele>146</ele>
        <time>2020-10-03T07:02:02.000Z</time>
      </trkpt>
      <trkpt lat="43.65186" lon="1.37439">
        <ele>146</ele>
        <time>2020-10-03T07:02:03.000Z</time>
      </trkpt>
      <trkpt lat="43.65189" lon="1.37439">
        <ele>146</ele>
        <time>2020-10-03T07:02:04.000Z</time>
      </trkpt>
      <trkpt lat="43.65192" lon="1.37439">
        <ele>146</ele>
        <time>2020-10-03T07:02:05.000Z</time>
      </trkpt>
      <trkpt lat="43.65195" lon="1.37439">
        <ele>146</ele>
        <time>2020-10-03T07:02:06.000Z</time>
      </trkpt>
      <trkpt lat="43.65198" lon="1.37439">
        <ele>146</ele>
        <time>2020-10-03T07:02:07.000Z</time>
      </trkpt>
      <trkpt lat="43.65201" lon="1.37439">
        <ele>146</ele>
        <time>2020-10-03T07:02:08.000Z</time>
      </trkpt>
      <trkpt lat="43.65204" lon="1.37439">
        <ele>146</ele>
        <time>2020-10-03T07:02:09.000Z</time>
      </trkpt>
      <trkpt lat="43.65207" lon="1.37439">
        <ele>146</ele>
        <time>2020-10-03T07:02:10.000Z</time>
      </trkpt>
      <trkpt lat="43.6521" lon="1.37439">
        <ele>146</ele>
        <time>2020-10-03T07:02:11.000Z</time>
      </trkpt>
      <trkpt lat="43.65213" lon="1.3744">
        <ele>146</ele>
        <time>2020-10-03T07:02:12.000Z</time>
      </trkpt>
      <trkpt lat="43.65216" lon="1.3744">
        <ele>146</ele>
        <time>2020-10-03T07:02:13.000Z</time>
      </trkpt>
      <trkpt lat="43.65219" lon="1.37441">
        <ele>146</ele>
        <time>2020-10-03T07:02:14.000Z</time>
      </trkpt>
      <trkpt lat="43.65222" lon="1.37441">
        <ele>146</ele>
        <time>2020-10-03T07:02:15.000Z</time>
      </trkpt>
      <trkpt lat="43.65224" lon="1.37442">
        <ele>146</ele>
        <time>2020-10-03T07:02:16.000Z</time>
      </trkpt>
      <trkpt lat="43.65228" lon="1.37442">
        <ele>146</ele>
        <time>2020-10-03T07:02:17.000Z</time>
      </trkpt>
      <trkpt lat="43.65231" lon="1.37443">
        <ele>146</ele>
        <time>2020-10-03T07:02:18.000Z</time>
      </trkpt>
      <trkpt lat="43.65233" lon="1.37443">
        <ele>146</ele>
        <time>2020-10-03T07:02:19.000Z</time>
      </trkpt>
      <trkpt lat="43.65237" lon="1.37444">
        <ele>146</ele>
        <time>2020-10-03T07:02:20.000Z</time>
      </trkpt>
      <trkpt lat="43.6524" lon="1.37445">
        <ele>146</ele>
        <time>2020-10-03T07:02:21.000Z</time>
      </trkpt>
      <trkpt lat="43.65243" lon="1.37446">
        <ele>146</ele>
        <time>2020-10-03T07:02:22.000Z</time>
      </trkpt>
      <trkpt lat="43.65246" lon="1.37447">
        <ele>146</ele>
        <time>2020-10-03T07:02:23.000Z</time>
      </trkpt>
      <trkpt lat="43.65249" lon="1.37448">
        <ele>146</ele>
        <time>2020-10-03T07:02:24.000Z</time>
      </trkpt>
      <trkpt lat="43.65252" lon="1.37449">
        <ele>146</ele>
        <time>2020-10-03T07:02:25.000Z</time>
      </trkpt>
      <trkpt lat="43.65255" lon="1.3745">
        <ele>146</ele>
        <time>2020-10-03T07:02:26.000Z</time>
      </trkpt>
      <trkpt lat="43.65258" lon="1.37451">
        <ele>145.63094857143</ele>
        <time>2020-10-03T07:02:27.000Z</time>
      </trkpt>
      <trkpt lat="43.6526" lon="1.37451">
        <ele>145</ele>
        <time>2020-10-03T07:02:28.000Z</time>
      </trkpt>
      <trkpt lat="43.65263" lon="1.37452">
        <ele>145</ele>
        <time>2020-10-03T07:02:29.000Z</time>
      </trkpt>
      <trkpt lat="43.65265" lon="1.37452">
        <ele>145</ele>
        <time>2020-10-03T07:02:30.000Z</time>
      </trkpt>
      <trkpt lat="43.65268" lon="1.37452">
        <ele>145</ele>
        <time>2020-10-03T07:02:31.000Z</time>
      </trkpt>
      <trkpt lat="43.65271" lon="1.37453">
        <ele>145</ele>
        <time>2020-10-03T07:02:32.000Z</time>
      </trkpt>
      <trkpt lat="43.65273" lon="1.37453">
        <ele>145</ele>
        <time>2020-10-03T07:02:33.000Z</time>
      </trkpt>
      <trkpt lat="43.65276" lon="1.37453">
        <ele>145</ele>
        <time>2020-10-03T07:02:34.000Z</time>
      </trkpt>
      <trkpt lat="43.6528" lon="1.37454">
        <ele>145</ele>
        <time>2020-10-03T07:02:35.000Z</time>
      </trkpt>
      <trkpt lat="43.65283" lon="1.37455">
        <ele>145</ele>
        <time>2020-10-03T07:02:36.000Z</time>
      </trkpt>
      <trkpt lat="43.65286" lon="1.37455">
        <ele>145</ele>
        <time>2020-10-03T07:02:37.000Z</time>
      </trkpt>
      <trkpt lat="43.65289" lon="1.37456">
        <ele>145</ele>
        <time>2020-10-03T07:02:38.000Z</time>
      </trkpt>
      <trkpt lat="43.65293" lon="1.37456">
        <ele>145</ele>
        <time>2020-10-03T07:02:39.000Z</time>
      </trkpt>
      <trkpt lat="43.65296" lon="1.37456">
        <ele>145</ele>
        <time>2020-10-03T07:02:40.000Z</time>
      </trkpt>
      <trkpt lat="43.653" lon="1.37456">
        <ele>145</ele>
        <time>2020-10-03T07:02:41.000Z</time>
      </trkpt>
      <trkpt lat="43.65303" lon="1.37456">
        <ele>145</ele>
        <time>2020-10-03T07:02:42.000Z</time>
      </trkpt>
      <trkpt lat="43.65306" lon="1.37456">
        <ele>145</ele>
        <time>2020-10-03T07:02:43.000Z</time>
      </trkpt>
      <trkpt lat="43.65309" lon="1.37456">
        <ele>145</ele>
        <time>2020-10-03T07:02:44.000Z</time>
      </trkpt>
      <trkpt lat="43.65312" lon="1.37456">
        <ele>145</ele>
        <time>2020-10-03T07:02:45.000Z</time>
      </trkpt>
      <trkpt lat="43.65315" lon="1.37456">
        <ele>145</ele>
        <time>2020-10-03T07:02:46.000Z</time>
      </trkpt>
      <trkpt lat="43.65318" lon="1.37456">
        <ele>145</ele>
        <time>2020-10-03T07:02:47.000Z</time>
      </trkpt>
      <trkpt lat="43.65321" lon="1.37455">
        <ele>145</ele>
        <time>2020-10-03T07:02:48.000Z</time>
      </trkpt>
      <trkpt lat="43.65324" lon="1.37455">
        <ele>145</ele>
        <time>2020-10-03T07:02:49.000Z</time>
      </trkpt>
      <trkpt lat="43.65327" lon="1.37455">
        <ele>145.27678857143</ele>
        <time>2020-10-03T07:02:50.000Z</time>
      </trkpt>
      <trkpt lat="43.6533" lon="1.37455">
        <ele>146</ele>
        <time>2020-10-03T07:02:51.000Z</time>
      </trkpt>
      <trkpt lat="43.65334" lon="1.37454">
        <ele>146</ele>
        <time>2020-10-03T07:02:52.000Z</time>
      </trkpt>
      <trkpt lat="43.65337" lon="1.37453">
        <ele>146</ele>
        <time>2020-10-03T07:02:53.000Z</time>
      </trkpt>
      <trkpt lat="43.6534" lon="1.37451">
        <ele>146</ele>
        <time>2020-10-03T07:02:54.000Z</time>
      </trkpt>
      <trkpt lat="43.65343" lon="1.3745">
        <ele>146</ele>
        <time>2020-10-03T07:02:55.000Z</time>
      </trkpt>
      <trkpt lat="43.65346" lon="1.37449">
        <ele>145.61061836635</ele>
        <time>2020-10-03T07:02:56.000Z</time>
      </trkpt>
      <trkpt lat="43.65349" lon="1.37448">
        <ele>145</ele>
        <time>2020-10-03T07:02:57.000Z</time>
      </trkpt>
      <trkpt lat="43.65352" lon="1.37447">
        <ele>145.42991123765</ele>
        <time>2020-10-03T07:02:58.000Z</time>
      </trkpt>
      <trkpt lat="43.65355" lon="1.37446">
        <ele>146</ele>
        <time>2020-10-03T07:02:59.000Z</time>
      </trkpt>
      <trkpt lat="43.65358" lon="1.37444">
        <ele>146</ele>
        <time>2020-10-03T07:03:00.000Z</time>
      </trkpt>
      <trkpt lat="43.65361" lon="1.37443">
        <ele>146</ele>
        <time>2020-10-03T07:03:01.000Z</time>
      </trkpt>
      <trkpt lat="43.65364" lon="1.37441">
        <ele>146</ele>
        <time>2020-10-03T07:03:02.000Z</time>
      </trkpt>
      <trkpt lat="43.65367" lon="1.3744">
        <ele>146</ele>
        <time>2020-10-03T07:03:03.000Z</time>
      </trkpt>
      <trkpt lat="43.6537" lon="1.37439">
        <ele>146</ele>
        <time>2020-10-03T07:03:04.000Z</time>
      </trkpt>
      <trkpt lat="43.65373" lon="1.37437">
        <ele>146</ele>
        <time>2020-10-03T07:03:05.000Z</time>
      </trkpt>
      <trkpt lat="43.65376" lon="1.37436">
        <ele>146</ele>
        <time>2020-10-03T07:03:06.000Z</time>
      </trkpt>
      <trkpt lat="43.65379" lon="1.37435">
        <ele>146</ele>
        <time>2020-10-03T07:03:07.000Z</time>
      </trkpt>
      <trkpt lat="43.65382" lon="1.37433">
        <ele>146</ele>
        <time>2020-10-03T07:03:08.000Z</time>
      </trkpt>
      <trkpt lat="43.65386" lon="1.37432">
        <ele>146</ele>
        <time>2020-10-03T07:03:09.000Z</time>
      </trkpt>
      <trkpt lat="43.65389" lon="1.3743">
        <ele>145.55856271405</ele>
        <time>2020-10-03T07:03:10.000Z</time>
      </trkpt>
      <trkpt lat="43.65392" lon="1.37428">
        <ele>145</ele>
        <time>2020-10-03T07:03:11.000Z</time>
      </trkpt>
      <trkpt lat="43.65394" lon="1.37427">
        <ele>145</ele>
        <time>2020-10-03T07:03:12.000Z</time>
      </trkpt>
      <trkpt lat="43.65397" lon="1.37425">
        <ele>145</ele>
        <time>2020-10-03T07:03:13.000Z</time>
      </trkpt>
      <trkpt lat="43.654" lon="1.37423">
        <ele>145</ele>
        <time>2020-10-03T07:03:14.000Z</time>
      </trkpt>
      <trkpt lat="43.65403" lon="1.37421">
        <ele>145</ele>
        <time>2020-10-03T07:03:15.000Z</time>
      </trkpt>
      <trkpt lat="43.65406" lon="1.3742">
        <ele>145</ele>
        <time>2020-10-03T07:03:16.000Z</time>
      </trkpt>
      <trkpt lat="43.65409" lon="1.37418">
        <ele>145</ele>
        <time>2020-10-03T07:03:17.000Z</time>
      </trkpt>
      <trkpt lat="43.65412" lon="1.37417">
        <ele>145</ele>
        <time>2020-10-03T07:03:18.000Z</time>
      </trkpt>
      <trkpt lat="43.65415" lon="1.37415">
        <ele>145</ele>
        <time>2020-10-03T07:03:19.000Z</time>
      </trkpt>
      <trkpt lat="43.65417" lon="1.37414">
        <ele>145</ele>
        <time>2020-10-03T07:03:20.000Z</time>
      </trkpt>
      <trkpt lat="43.6542" lon="1.37413">
        <ele>145</ele>
        <time>2020-10-03T07:03:21.000Z</time>
      </trkpt>
      <trkpt lat="43.65422" lon="1.37411">
        <ele>145</ele>
        <time>2020-10-03T07:03:22.000Z</time>
      </trkpt>
      <trkpt lat="43.65425" lon="1.37409">
        <ele>145</ele>
        <time>2020-10-03T07:03:23.000Z</time>
      </trkpt>
      <trkpt lat="43.65427" lon="1.37407">
        <ele>145</ele>
        <time>2020-10-03T07:03:24.000Z</time>
      </trkpt>
      <trkpt lat="43.6543" lon="1.37405">
        <ele>145</ele>
        <time>2020-10-03T07:03:25.000Z</time>
      </trkpt>
      <trkpt lat="43.65432" lon="1.37403">
        <ele>145</ele>
        <time>2020-10-03T07:03:26.000Z</time>
      </trkpt>
      <trkpt lat="43.65435" lon="1.37401">
        <ele>145</ele>
        <time>2020-10-03T07:03:27.000Z</time>
      </trkpt>
      <trkpt lat="43.65438" lon="1.374">
        <ele>144.56701547881</ele>
        <time>2020-10-03T07:03:28.000Z</time>
      </trkpt>
      <trkpt lat="43.65441" lon="1.37398">
        <ele>144.42856968707</ele>
        <time>2020-10-03T07:03:29.000Z</time>
      </trkpt>
      <trkpt lat="43.65443" lon="1.37396">
        <ele>145</ele>
        <time>2020-10-03T07:03:30.000Z</time>
      </trkpt>
      <trkpt lat="43.65446" lon="1.37394">
        <ele>145</ele>
        <time>2020-10-03T07:03:31.000Z</time>
      </trkpt>
      <trkpt lat="43.65448" lon="1.37392">
        <ele>145</ele>
        <time>2020-10-03T07:03:32.000Z</time>
      </trkpt>
      <trkpt lat="43.6545" lon="1.3739">
        <ele>145</ele>
        <time>2020-10-03T07:03:33.000Z</time>
      </trkpt>
      <trkpt lat="43.65453" lon="1.37388">
        <ele>145</ele>
        <time>2020-10-03T07:03:34.000Z</time>
      </trkpt>
      <trkpt lat="43.65456" lon="1.37387">
        <ele>145</ele>
        <time>2020-10-03T07:03:35.000Z</time>
      </trkpt>
      <trkpt lat="43.65459" lon="1.37387">
        <ele>145</ele>
        <time>2020-10-03T07:03:36.000Z</time>
      </trkpt>
      <trkpt lat="43.65461" lon="1.37387">
        <ele>145</ele>
        <time>2020-10-03T07:03:37.000Z</time>
      </trkpt>
      <trkpt lat="43.65464" lon="1.37386">
        <ele>145</ele>
        <time>2020-10-03T07:03:38.000Z</time>
      </trkpt>
      <trkpt lat="43.65467" lon="1.37384">
        <ele>145</ele>
        <time>2020-10-03T07:03:39.000Z</time>
      </trkpt>
      <trkpt lat="43.6547" lon="1.37383">
        <ele>145</ele>
        <time>2020-10-03T07:03:40.000Z</time>
      </trkpt>
      <trkpt lat="43.65472" lon="1.3738">
        <ele>145</ele>
        <time>2020-10-03T07:03:41.000Z</time>
      </trkpt>
      <trkpt lat="43.65475" lon="1.37378">
        <ele>145</ele>
        <time>2020-10-03T07:03:42.000Z</time>
      </trkpt>
      <trkpt lat="43.65478" lon="1.37375">
        <ele>145</ele>
        <time>2020-10-03T07:03:43.000Z</time>
      </trkpt>
      <trkpt lat="43.65481" lon="1.37374">
        <ele>145</ele>
        <time>2020-10-03T07:03:44.000Z</time>
      </trkpt>
      <trkpt lat="43.65484" lon="1.37372">
        <ele>145</ele>
        <time>2020-10-03T07:03:45.000Z</time>
      </trkpt>
      <trkpt lat="43.65486" lon="1.37371">
        <ele>144.57143230323</ele>
        <time>2020-10-03T07:03:46.000Z</time>
      </trkpt>
      <trkpt lat="43.65488" lon="1.37369">
        <ele>144</ele>
        <time>2020-10-03T07:03:47.000Z</time>
      </trkpt>
      <trkpt lat="43.65491" lon="1.37367">
        <ele>144</ele>
        <time>2020-10-03T07:03:48.000Z</time>
      </trkpt>
      <trkpt lat="43.65493" lon="1.37364">
        <ele>144</ele>
        <time>2020-10-03T07:03:49.000Z</time>
      </trkpt>
      <trkpt lat="43.65495" lon="1.37362">
        <ele>144</ele>
        <time>2020-10-03T07:03:50.000Z</time>
      </trkpt>
      <trkpt lat="43.65499" lon="1.3736">
        <ele>144.22785527957</ele>
        <time>2020-10-03T07:03:51.000Z</time>
      </trkpt>
      <trkpt lat="43.65502" lon="1.37357">
        <ele>145</ele>
        <time>2020-10-03T07:03:52.000Z</time>
      </trkpt>
      <trkpt lat="43.65504" lon="1.37355">
        <ele>145</ele>
        <time>2020-10-03T07:03:53.000Z</time>
      </trkpt>
      <trkpt lat="43.65507" lon="1.37354">
        <ele>145</ele>
        <time>2020-10-03T07:03:54.000Z</time>
      </trkpt>
      <trkpt lat="43.6551" lon="1.37351">
        <ele>145</ele>
        <time>2020-10-03T07:03:55.000Z</time>
      </trkpt>
      <trkpt lat="43.65513" lon="1.37349">
        <ele>145</ele>
        <time>2020-10-03T07:03:56.000Z</time>
      </trkpt>
      <trkpt lat="43.65515" lon="1.37348">
        <ele>144.55555871603</ele>
        <time>2020-10-03T07:03:57.000Z</time>
      </trkpt>
      <trkpt lat="43.65518" lon="1.37346">
        <ele>144</ele>
        <time>2020-10-03T07:03:58.000Z</time>
      </trkpt>
      <trkpt lat="43.6552" lon="1.37343">
        <ele>144</ele>
        <time>2020-10-03T07:03:59.000Z</time>
      </trkpt>
      <trkpt lat="43.65523" lon="1.37341">
        <ele>144</ele>
        <time>2020-10-03T07:04:00.000Z</time>
      </trkpt>
      <trkpt lat="43.65526" lon="1.37339">
        <ele>144</ele>
        <time>2020-10-03T07:04:01.000Z</time>
      </trkpt>
      <trkpt lat="43.65529" lon="1.37337">
        <ele>144</ele>
        <time>2020-10-03T07:04:02.000Z</time>
      </trkpt>
      <trkpt lat="43.65531" lon="1.37334">
        <ele>144</ele>
        <time>2020-10-03T07:04:03.000Z</time>
      </trkpt>
      <trkpt lat="43.65533" lon="1.37332">
        <ele>144</ele>
        <time>2020-10-03T07:04:04.000Z</time>
      </trkpt>
      <trkpt lat="43.65536" lon="1.3733">
        <ele>144</ele>
        <time>2020-10-03T07:04:05.000Z</time>
      </trkpt>
      <trkpt lat="43.65539" lon="1.37328">
        <ele>144</ele>
        <time>2020-10-03T07:04:06.000Z</time>
      </trkpt>
      <trkpt lat="43.65542" lon="1.37326">
        <ele>144</ele>
        <time>2020-10-03T07:04:07.000Z</time>
      </trkpt>
      <trkpt lat="43.65545" lon="1.37324">
        <ele>144</ele>
        <time>2020-10-03T07:04:08.000Z</time>
      </trkpt>
      <trkpt lat="43.65547" lon="1.37322">
        <ele>144</ele>
        <time>2020-10-03T07:04:09.000Z</time>
      </trkpt>
      <trkpt lat="43.65549" lon="1.3732">
        <ele>144</ele>
        <time>2020-10-03T07:04:10.000Z</time>
      </trkpt>
      <trkpt lat="43.65552" lon="1.37318">
        <ele>144</ele>
        <time>2020-10-03T07:04:11.000Z</time>
      </trkpt>
      <trkpt lat="43.65554" lon="1.37316">
        <ele>144.24999724138</ele>
        <time>2020-10-03T07:04:12.000Z</time>
      </trkpt>
      <trkpt lat="43.65557" lon="1.37315">
        <ele>145</ele>
        <time>2020-10-03T07:04:13.000Z</time>
      </trkpt>
      <trkpt lat="43.65559" lon="1.37313">
        <ele>145</ele>
        <time>2020-10-03T07:04:14.000Z</time>
      </trkpt>
      <trkpt lat="43.65562" lon="1.37311">
        <ele>145</ele>
        <time>2020-10-03T07:04:15.000Z</time>
      </trkpt>
      <trkpt lat="43.65566" lon="1.37309">
        <ele>145</ele>
        <time>2020-10-03T07:04:16.000Z</time>
      </trkpt>
      <trkpt lat="43.65568" lon="1.37306">
        <ele>144.54838487689</ele>
        <time>2020-10-03T07:04:17.000Z</time>
      </trkpt>
      <trkpt lat="43.6557" lon="1.37304">
        <ele>144</ele>
        <time>2020-10-03T07:04:18.000Z</time>
      </trkpt>
      <trkpt lat="43.65573" lon="1.37302">
        <ele>144</ele>
        <time>2020-10-03T07:04:19.000Z</time>
      </trkpt>
      <trkpt lat="43.65576" lon="1.37301">
        <ele>144</ele>
        <time>2020-10-03T07:04:20.000Z</time>
      </trkpt>
      <trkpt lat="43.65578" lon="1.37299">
        <ele>144</ele>
        <time>2020-10-03T07:04:21.000Z</time>
      </trkpt>
      <trkpt lat="43.65581" lon="1.37298">
        <ele>144.46666504127</ele>
        <time>2020-10-03T07:04:22.000Z</time>
      </trkpt>
      <trkpt lat="43.65583" lon="1.37296">
        <ele>145</ele>
        <time>2020-10-03T07:04:23.000Z</time>
      </trkpt>
      <trkpt lat="43.65586" lon="1.37294">
        <ele>145</ele>
        <time>2020-10-03T07:04:24.000Z</time>
      </trkpt>
      <trkpt lat="43.65588" lon="1.37294">
        <ele>145</ele>
        <time>2020-10-03T07:04:25.000Z</time>
      </trkpt>
      <trkpt lat="43.6559" lon="1.37293">
        <ele>145</ele>
        <time>2020-10-03T07:04:27.000Z</time>
      </trkpt>
      <trkpt lat="43.65592" lon="1.37292">
        <ele>145.225008</ele>
        <time>2020-10-03T07:04:29.000Z</time>
      </trkpt>
      <trkpt lat="43.65595" lon="1.37291">
        <ele>146</ele>
        <time>2020-10-03T07:04:30.000Z</time>
      </trkpt>
      <trkpt lat="43.65597" lon="1.37289">
        <ele>145.73239766714</ele>
        <time>2020-10-03T07:04:31.000Z</time>
      </trkpt>
      <trkpt lat="43.656" lon="1.37287">
        <ele>145.02816914104</ele>
        <time>2020-10-03T07:04:32.000Z</time>
      </trkpt>
      <trkpt lat="43.65602" lon="1.37285">
        <ele>145</ele>
        <time>2020-10-03T07:04:33.000Z</time>
      </trkpt>
      <trkpt lat="43.65605" lon="1.37284">
        <ele>144.53125333333</ele>
        <time>2020-10-03T07:04:34.000Z</time>
      </trkpt>
      <trkpt lat="43.65608" lon="1.37282">
        <ele>144</ele>
        <time>2020-10-03T07:04:35.000Z</time>
      </trkpt>
      <trkpt lat="43.65611" lon="1.3728">
        <ele>144</ele>
        <time>2020-10-03T07:04:36.000Z</time>
      </trkpt>
      <trkpt lat="43.65613" lon="1.37278">
        <ele>144</ele>
        <time>2020-10-03T07:04:37.000Z</time>
      </trkpt>
      <trkpt lat="43.65616" lon="1.37276">
        <ele>144</ele>
        <time>2020-10-03T07:04:38.000Z</time>
      </trkpt>
      <trkpt lat="43.6562" lon="1.37274">
        <ele>144.94230153846</ele>
        <time>2020-10-03T07:04:39.000Z</time>
      </trkpt>
      <trkpt lat="43.65623" lon="1.37271">
        <ele>146</ele>
        <time>2020-10-03T07:04:40.000Z</time>
      </trkpt>
      <trkpt lat="43.65625" lon="1.37269">
        <ele>146</ele>
        <time>2020-10-03T07:04:41.000Z</time>
      </trkpt>
      <trkpt lat="43.65628" lon="1.37267">
        <ele>146</ele>
        <time>2020-10-03T07:04:42.000Z</time>
      </trkpt>
      <trkpt lat="43.65631" lon="1.37265">
        <ele>146</ele>
        <time>2020-10-03T07:04:43.000Z</time>
      </trkpt>
      <trkpt lat="43.65634" lon="1.37263">
        <ele>146</ele>
        <time>2020-10-03T07:04:44.000Z</time>
      </trkpt>
      <trkpt lat="43.65636" lon="1.3726">
        <ele>146</ele>
        <time>2020-10-03T07:04:45.000Z</time>
      </trkpt>
      <trkpt lat="43.65639" lon="1.37258">
        <ele>146</ele>
        <time>2020-10-03T07:04:46.000Z</time>
      </trkpt>
      <trkpt lat="43.65642" lon="1.37256">
        <ele>145.63158046696</ele>
        <time>2020-10-03T07:04:47.000Z</time>
      </trkpt>
      <trkpt lat="43.65644" lon="1.37254">
        <ele>145</ele>
        <time>2020-10-03T07:04:48.000Z</time>
      </trkpt>
      <trkpt lat="43.65647" lon="1.37252">
        <ele>145</ele>
        <time>2020-10-03T07:04:49.000Z</time>
      </trkpt>
      <trkpt lat="43.65649" lon="1.37249">
        <ele>144.64210838341</ele>
        <time>2020-10-03T07:04:50.000Z</time>
      </trkpt>
      <trkpt lat="43.65652" lon="1.37247">
        <ele>144</ele>
        <time>2020-10-03T07:04:51.000Z</time>
      </trkpt>
      <trkpt lat="43.65655" lon="1.37245">
        <ele>144.45044858046</ele>
        <time>2020-10-03T07:04:52.000Z</time>
      </trkpt>
      <trkpt lat="43.65657" lon="1.37243">
        <ele>145</ele>
        <time>2020-10-03T07:04:53.000Z</time>
      </trkpt>
      <trkpt lat="43.6566" lon="1.37241">
        <ele>145</ele>
        <time>2020-10-03T07:04:54.000Z</time>
      </trkpt>
      <trkpt lat="43.65663" lon="1.37238">
        <ele>145</ele>
        <time>2020-10-03T07:04:55.000Z</time>
      </trkpt>
      <trkpt lat="43.65666" lon="1.37236">
        <ele>145.4454542281</ele>
        <time>2020-10-03T07:04:56.000Z</time>
      </trkpt>
      <trkpt lat="43.65669" lon="1.37235">
        <ele>146</ele>
        <time>2020-10-03T07:04:57.000Z</time>
      </trkpt>
      <trkpt lat="43.65672" lon="1.37233">
        <ele>146</ele>
        <time>2020-10-03T07:04:58.000Z</time>
      </trkpt>
      <trkpt lat="43.65675" lon="1.37231">
        <ele>146</ele>
        <time>2020-10-03T07:04:59.000Z</time>
      </trkpt>
      <trkpt lat="43.65678" lon="1.37229">
        <ele>146</ele>
        <time>2020-10-03T07:05:00.000Z</time>
      </trkpt>
      <trkpt lat="43.65681" lon="1.37227">
        <ele>146</ele>
        <time>2020-10-03T07:05:01.000Z</time>
      </trkpt>
      <trkpt lat="43.65684" lon="1.37225">
        <ele>146</ele>
        <time>2020-10-03T07:05:02.000Z</time>
      </trkpt>
      <trkpt lat="43.65687" lon="1.37223">
        <ele>146.37984342287</ele>
        <time>2020-10-03T07:05:03.000Z</time>
      </trkpt>
      <trkpt lat="43.65689" lon="1.37221">
        <ele>147</ele>
        <time>2020-10-03T07:05:04.000Z</time>
      </trkpt>
      <trkpt lat="43.65692" lon="1.3722">
        <ele>147</ele>
        <time>2020-10-03T07:05:05.000Z</time>
      </trkpt>
      <trkpt lat="43.65695" lon="1.37218">
        <ele>146.68085260903</ele>
        <time>2020-10-03T07:05:06.000Z</time>
      </trkpt>
      <trkpt lat="43.65698" lon="1.37216">
        <ele>146</ele>
        <time>2020-10-03T07:05:07.000Z</time>
      </trkpt>
      <trkpt lat="43.657" lon="1.37214">
        <ele>146</ele>
        <time>2020-10-03T07:05:08.000Z</time>
      </trkpt>
      <trkpt lat="43.65703" lon="1.37212">
        <ele>146</ele>
        <time>2020-10-03T07:05:09.000Z</time>
      </trkpt>
      <trkpt lat="43.65706" lon="1.3721">
        <ele>145.54807384615</ele>
        <time>2020-10-03T07:05:10.000Z</time>
      </trkpt>
      <trkpt lat="43.65709" lon="1.37208">
        <ele>145</ele>
        <time>2020-10-03T07:05:11.000Z</time>
      </trkpt>
      <trkpt lat="43.65711" lon="1.37206">
        <ele>145</ele>
        <time>2020-10-03T07:05:12.000Z</time>
      </trkpt>
      <trkpt lat="43.65714" lon="1.37204">
        <ele>145</ele>
        <time>2020-10-03T07:05:13.000Z</time>
      </trkpt>
      <trkpt lat="43.65717" lon="1.37202">
        <ele>144.58139223362</ele>
        <time>2020-10-03T07:05:14.000Z</time>
      </trkpt>
      <trkpt lat="43.6572" lon="1.372">
        <ele>144</ele>
        <time>2020-10-03T07:05:15.000Z</time>
      </trkpt>
      <trkpt lat="43.65722" lon="1.37198">
        <ele>144.46874666667</ele>
        <time>2020-10-03T07:05:16.000Z</time>
      </trkpt>
      <trkpt lat="43.65725" lon="1.37196">
        <ele>145</ele>
        <time>2020-10-03T07:05:17.000Z</time>
      </trkpt>
      <trkpt lat="43.65728" lon="1.37194">
        <ele>145</ele>
        <time>2020-10-03T07:05:18.000Z</time>
      </trkpt>
      <trkpt lat="43.6573" lon="1.37192">
        <ele>145</ele>
        <time>2020-10-03T07:05:19.000Z</time>
      </trkpt>
      <trkpt lat="43.65733" lon="1.3719">
        <ele>145</ele>
        <time>2020-10-03T07:05:20.000Z</time>
      </trkpt>
      <trkpt lat="43.65736" lon="1.37188">
        <ele>145</ele>
        <time>2020-10-03T07:05:21.000Z</time>
      </trkpt>
      <trkpt lat="43.65738" lon="1.37186">
        <ele>145</ele>
        <time>2020-10-03T07:05:22.000Z</time>
      </trkpt>
      <trkpt lat="43.65741" lon="1.37185">
        <ele>145</ele>
        <time>2020-10-03T07:05:23.000Z</time>
      </trkpt>
      <trkpt lat="43.65744" lon="1.37183">
        <ele>145</ele>
        <time>2020-10-03T07:05:24.000Z</time>
      </trkpt>
      <trkpt lat="43.65746" lon="1.37181">
        <ele>145</ele>
        <time>2020-10-03T07:05:25.000Z</time>
      </trkpt>
      <trkpt lat="43.65749" lon="1.37179">
        <ele>145</ele>
        <time>2020-10-03T07:05:26.000Z</time>
      </trkpt>
      <trkpt lat="43.65751" lon="1.37177">
        <ele>145</ele>
        <time>2020-10-03T07:05:27.000Z</time>
      </trkpt>
      <trkpt lat="43.65754" lon="1.37175">
        <ele>145</ele>
        <time>2020-10-03T07:05:28.000Z</time>
      </trkpt>
      <trkpt lat="43.65756" lon="1.37174">
        <ele>145</ele>
        <time>2020-10-03T07:05:29.000Z</time>
      </trkpt>
      <trkpt lat="43.65759" lon="1.37172">
        <ele>145</ele>
        <time>2020-10-03T07:05:30.000Z</time>
      </trkpt>
      <trkpt lat="43.65761" lon="1.3717">
        <ele>145</ele>
        <time>2020-10-03T07:05:31.000Z</time>
      </trkpt>
      <trkpt lat="43.65764" lon="1.37168">
        <ele>145</ele>
        <time>2020-10-03T07:05:32.000Z</time>
      </trkpt>
      <trkpt lat="43.65767" lon="1.37166">
        <ele>145</ele>
        <time>2020-10-03T07:05:33.000Z</time>
      </trkpt>
      <trkpt lat="43.65769" lon="1.37163">
        <ele>145</ele>
        <time>2020-10-03T07:05:34.000Z</time>
      </trkpt>
      <trkpt lat="43.65772" lon="1.37161">
        <ele>144.62790420766</ele>
        <time>2020-10-03T07:05:35.000Z</time>
      </trkpt>
      <trkpt lat="43.65775" lon="1.3716">
        <ele>144</ele>
        <time>2020-10-03T07:05:36.000Z</time>
      </trkpt>
      <trkpt lat="43.65778" lon="1.37158">
        <ele>144.17241683709</ele>
        <time>2020-10-03T07:05:37.000Z</time>
      </trkpt>
      <trkpt lat="43.6578" lon="1.37156">
        <ele>145</ele>
        <time>2020-10-03T07:05:38.000Z</time>
      </trkpt>
      <trkpt lat="43.65783" lon="1.37154">
        <ele>145</ele>
        <time>2020-10-03T07:05:39.000Z</time>
      </trkpt>
      <trkpt lat="43.65786" lon="1.37152">
        <ele>145</ele>
        <time>2020-10-03T07:05:40.000Z</time>
      </trkpt>
      <trkpt lat="43.65789" lon="1.3715">
        <ele>145</ele>
        <time>2020-10-03T07:05:41.000Z</time>
      </trkpt>
      <trkpt lat="43.65791" lon="1.37148">
        <ele>145.43031275444</ele>
        <time>2020-10-03T07:05:42.000Z</time>
      </trkpt>
      <trkpt lat="43.65793" lon="1.37146">
        <ele>146</ele>
        <time>2020-10-03T07:05:43.000Z</time>
      </trkpt>
      <trkpt lat="43.65796" lon="1.37144">
        <ele>146</ele>
        <time>2020-10-03T07:05:44.000Z</time>
      </trkpt>
      <trkpt lat="43.65798" lon="1.37142">
        <ele>146</ele>
        <time>2020-10-03T07:05:45.000Z</time>
      </trkpt>
      <trkpt lat="43.658" lon="1.3714">
        <ele>146</ele>
        <time>2020-10-03T07:05:46.000Z</time>
      </trkpt>
      <trkpt lat="43.65803" lon="1.37139">
        <ele>146</ele>
        <time>2020-10-03T07:05:47.000Z</time>
      </trkpt>
      <trkpt lat="43.65805" lon="1.37137">
        <ele>146</ele>
        <time>2020-10-03T07:05:48.000Z</time>
      </trkpt>
      <trkpt lat="43.65807" lon="1.37135">
        <ele>145.63964067851</ele>
        <time>2020-10-03T07:05:49.000Z</time>
      </trkpt>
      <trkpt lat="43.65809" lon="1.37133">
        <ele>145</ele>
        <time>2020-10-03T07:05:50.000Z</time>
      </trkpt>
      <trkpt lat="43.65812" lon="1.37131">
        <ele>145</ele>
        <time>2020-10-03T07:05:51.000Z</time>
      </trkpt>
      <trkpt lat="43.65814" lon="1.37129">
        <ele>145</ele>
        <time>2020-10-03T07:05:52.000Z</time>
      </trkpt>
      <trkpt lat="43.65815" lon="1.37126">
        <ele>145</ele>
        <time>2020-10-03T07:05:53.000Z</time>
      </trkpt>
      <trkpt lat="43.65816" lon="1.37123">
        <ele>145</ele>
        <time>2020-10-03T07:05:54.000Z</time>
      </trkpt>
      <trkpt lat="43.65816" lon="1.3712">
        <ele>145</ele>
        <time>2020-10-03T07:05:55.000Z</time>
      </trkpt>
      <trkpt lat="43.65816" lon="1.37116">
        <ele>145</ele>
        <time>2020-10-03T07:05:56.000Z</time>
      </trkpt>
      <trkpt lat="43.65816" lon="1.37112">
        <ele>145</ele>
        <time>2020-10-03T07:05:57.000Z</time>
      </trkpt>
      <trkpt lat="43.65816" lon="1.37108">
        <ele>145</ele>
        <time>2020-10-03T07:05:58.000Z</time>
      </trkpt>
      <trkpt lat="43.65816" lon="1.37105">
        <ele>145</ele>
        <time>2020-10-03T07:05:59.000Z</time>
      </trkpt>
      <trkpt lat="43.65816" lon="1.37101">
        <ele>145</ele>
        <time>2020-10-03T07:06:00.000Z</time>
      </trkpt>
      <trkpt lat="43.65815" lon="1.37097">
        <ele>145</ele>
        <time>2020-10-03T07:06:01.000Z</time>
      </trkpt>
      <trkpt lat="43.65814" lon="1.37094">
        <ele>145</ele>
        <time>2020-10-03T07:06:02.000Z</time>
      </trkpt>
      <trkpt lat="43.65813" lon="1.3709">
        <ele>145</ele>
        <time>2020-10-03T07:06:03.000Z</time>
      </trkpt>
      <trkpt lat="43.65812" lon="1.37084">
        <ele>145</ele>
        <time>2020-10-03T07:06:05.000Z</time>
      </trkpt>
      <trkpt lat="43.65811" lon="1.37081">
        <ele>145</ele>
        <time>2020-10-03T07:06:06.000Z</time>
      </trkpt>
      <trkpt lat="43.65809" lon="1.37079">
        <ele>145</ele>
        <time>2020-10-03T07:06:07.000Z</time>
      </trkpt>
      <trkpt lat="43.65808" lon="1.37076">
        <ele>145</ele>
        <time>2020-10-03T07:06:08.000Z</time>
      </trkpt>
      <trkpt lat="43.65808" lon="1.37074">
        <ele>145</ele>
        <time>2020-10-03T07:06:09.000Z</time>
      </trkpt>
      <trkpt lat="43.65807" lon="1.37072">
        <ele>145</ele>
        <time>2020-10-03T07:06:10.000Z</time>
      </trkpt>
      <trkpt lat="43.65805" lon="1.37069">
        <ele>145</ele>
        <time>2020-10-03T07:06:11.000Z</time>
      </trkpt>
      <trkpt lat="43.65804" lon="1.37066">
        <ele>145.43182545454</ele>
        <time>2020-10-03T07:06:12.000Z</time>
      </trkpt>
      <trkpt lat="43.65803" lon="1.37063">
        <ele>146</ele>
        <time>2020-10-03T07:06:13.000Z</time>
      </trkpt>
      <trkpt lat="43.65802" lon="1.3706">
        <ele>146.26570933016</ele>
        <time>2020-10-03T07:06:14.000Z</time>
      </trkpt>
      <trkpt lat="43.65801" lon="1.37057">
        <ele>147</ele>
        <time>2020-10-03T07:06:15.000Z</time>
      </trkpt>
      <trkpt lat="43.658" lon="1.37054">
        <ele>147</ele>
        <time>2020-10-03T07:06:16.000Z</time>
      </trkpt>
      <trkpt lat="43.65799" lon="1.3705">
        <ele>147</ele>
        <time>2020-10-03T07:06:17.000Z</time>
      </trkpt>
      <trkpt lat="43.65798" lon="1.37046">
        <ele>147</ele>
        <time>2020-10-03T07:06:18.000Z</time>
      </trkpt>
      <trkpt lat="43.65797" lon="1.37043">
        <ele>147</ele>
        <time>2020-10-03T07:06:19.000Z</time>
      </trkpt>
      <trkpt lat="43.65795" lon="1.3704">
        <ele>147</ele>
        <time>2020-10-03T07:06:20.000Z</time>
      </trkpt>
      <trkpt lat="43.65794" lon="1.37038">
        <ele>147</ele>
        <time>2020-10-03T07:06:21.000Z</time>
      </trkpt>
      <trkpt lat="43.65792" lon="1.37035">
        <ele>146.73450986611</ele>
        <time>2020-10-03T07:06:22.000Z</time>
      </trkpt>
      <trkpt lat="43.65789" lon="1.37033">
        <ele>146</ele>
        <time>2020-10-03T07:06:23.000Z</time>
      </trkpt>
      <trkpt lat="43.65787" lon="1.37031">
        <ele>146</ele>
        <time>2020-10-03T07:06:24.000Z</time>
      </trkpt>
      <trkpt lat="43.65785" lon="1.37029">
        <ele>146</ele>
        <time>2020-10-03T07:06:25.000Z</time>
      </trkpt>
      <trkpt lat="43.65783" lon="1.37027">
        <ele>146</ele>
        <time>2020-10-03T07:06:26.000Z</time>
      </trkpt>
      <trkpt lat="43.65781" lon="1.37025">
        <ele>146</ele>
        <time>2020-10-03T07:06:27.000Z</time>
      </trkpt>
      <trkpt lat="43.65778" lon="1.37023">
        <ele>145.52082666667</ele>
        <time>2020-10-03T07:06:28.000Z</time>
      </trkpt>
      <trkpt lat="43.65775" lon="1.37021">
        <ele>145</ele>
        <time>2020-10-03T07:06:29.000Z</time>
      </trkpt>
      <trkpt lat="43.65773" lon="1.37019">
        <ele>145</ele>
        <time>2020-10-03T07:06:30.000Z</time>
      </trkpt>
      <trkpt lat="43.6577" lon="1.37018">
        <ele>145</ele>
        <time>2020-10-03T07:06:31.000Z</time>
      </trkpt>
      <trkpt lat="43.65768" lon="1.37015">
        <ele>145</ele>
        <time>2020-10-03T07:06:32.000Z</time>
      </trkpt>
      <trkpt lat="43.65766" lon="1.37013">
        <ele>145</ele>
        <time>2020-10-03T07:06:33.000Z</time>
      </trkpt>
      <trkpt lat="43.65764" lon="1.3701">
        <ele>145</ele>
        <time>2020-10-03T07:06:34.000Z</time>
      </trkpt>
      <trkpt lat="43.65761" lon="1.37008">
        <ele>145</ele>
        <time>2020-10-03T07:06:35.000Z</time>
      </trkpt>
      <trkpt lat="43.65759" lon="1.37006">
        <ele>145.4347826087</ele>
        <time>2020-10-03T07:06:36.000Z</time>
      </trkpt>
      <trkpt lat="43.65757" lon="1.37004">
        <ele>146</ele>
        <time>2020-10-03T07:06:37.000Z</time>
      </trkpt>
      <trkpt lat="43.65755" lon="1.37001">
        <ele>146.37024</ele>
        <time>2020-10-03T07:06:38.000Z</time>
      </trkpt>
      <trkpt lat="43.65753" lon="1.36998">
        <ele>147</ele>
        <time>2020-10-03T07:06:39.000Z</time>
      </trkpt>
      <trkpt lat="43.65751" lon="1.36996">
        <ele>147</ele>
        <time>2020-10-03T07:06:40.000Z</time>
      </trkpt>
      <trkpt lat="43.65749" lon="1.36993">
        <ele>147</ele>
        <time>2020-10-03T07:06:41.000Z</time>
      </trkpt>
      <trkpt lat="43.65747" lon="1.36991">
        <ele>147</ele>
        <time>2020-10-03T07:06:42.000Z</time>
      </trkpt>
      <trkpt lat="43.65745" lon="1.36989">
        <ele>146.64321053433</ele>
        <time>2020-10-03T07:06:43.000Z</time>
      </trkpt>
      <trkpt lat="43.65743" lon="1.36986">
        <ele>146</ele>
        <time>2020-10-03T07:06:44.000Z</time>
      </trkpt>
      <trkpt lat="43.6574" lon="1.36983">
        <ele>146</ele>
        <time>2020-10-03T07:06:45.000Z</time>
      </trkpt>
      <trkpt lat="43.65738" lon="1.36981">
        <ele>146</ele>
        <time>2020-10-03T07:06:46.000Z</time>
      </trkpt>
      <trkpt lat="43.65736" lon="1.36978">
        <ele>146</ele>
        <time>2020-10-03T07:06:47.000Z</time>
      </trkpt>
      <trkpt lat="43.65734" lon="1.36976">
        <ele>146</ele>
        <time>2020-10-03T07:06:48.000Z</time>
      </trkpt>
      <trkpt lat="43.65733" lon="1.36972">
        <ele>146</ele>
        <time>2020-10-03T07:06:49.000Z</time>
      </trkpt>
      <trkpt lat="43.65732" lon="1.36968">
        <ele>146</ele>
        <time>2020-10-03T07:06:50.000Z</time>
      </trkpt>
      <trkpt lat="43.65731" lon="1.36964">
        <ele>146</ele>
        <time>2020-10-03T07:06:51.000Z</time>
      </trkpt>
      <trkpt lat="43.65731" lon="1.36955">
        <ele>146</ele>
        <time>2020-10-03T07:06:53.000Z</time>
      </trkpt>
      <trkpt lat="43.65731" lon="1.3695">
        <ele>146</ele>
        <time>2020-10-03T07:06:54.000Z</time>
      </trkpt>
      <trkpt lat="43.65732" lon="1.36946">
        <ele>146.41860153599</ele>
        <time>2020-10-03T07:06:55.000Z</time>
      </trkpt>
      <trkpt lat="43.65732" lon="1.36942">
        <ele>147</ele>
        <time>2020-10-03T07:06:56.000Z</time>
      </trkpt>
      <trkpt lat="43.65732" lon="1.36938">
        <ele>147</ele>
        <time>2020-10-03T07:06:57.000Z</time>
      </trkpt>
      <trkpt lat="43.65731" lon="1.36934">
        <ele>147</ele>
        <time>2020-10-03T07:06:58.000Z</time>
      </trkpt>
      <trkpt lat="43.65731" lon="1.3693">
        <ele>146.62092055082</ele>
        <time>2020-10-03T07:06:59.000Z</time>
      </trkpt>
      <trkpt lat="43.65732" lon="1.36926">
        <ele>146</ele>
        <time>2020-10-03T07:07:00.000Z</time>
      </trkpt>
      <trkpt lat="43.65732" lon="1.36922">
        <ele>146</ele>
        <time>2020-10-03T07:07:01.000Z</time>
      </trkpt>
      <trkpt lat="43.65733" lon="1.36918">
        <ele>146</ele>
        <time>2020-10-03T07:07:02.000Z</time>
      </trkpt>
      <trkpt lat="43.65734" lon="1.36915">
        <ele>146</ele>
        <time>2020-10-03T07:07:03.000Z</time>
      </trkpt>
      <trkpt lat="43.65735" lon="1.36911">
        <ele>146</ele>
        <time>2020-10-03T07:07:04.000Z</time>
      </trkpt>
      <trkpt lat="43.65736" lon="1.36908">
        <ele>146</ele>
        <time>2020-10-03T07:07:05.000Z</time>
      </trkpt>
      <trkpt lat="43.65737" lon="1.36906">
        <ele>146</ele>
        <time>2020-10-03T07:07:06.000Z</time>
      </trkpt>
      <trkpt lat="43.65738" lon="1.36904">
        <ele>146</ele>
        <time>2020-10-03T07:07:07.000Z</time>
      </trkpt>
      <trkpt lat="43.65739" lon="1.369">
        <ele>145.73666355971</ele>
        <time>2020-10-03T07:07:09.000Z</time>
      </trkpt>
      <trkpt lat="43.65741" lon="1.36895">
        <ele>145</ele>
        <time>2020-10-03T07:07:11.000Z</time>
      </trkpt>
      <trkpt lat="43.65743" lon="1.36893">
        <ele>145</ele>
        <time>2020-10-03T07:07:12.000Z</time>
      </trkpt>
      <trkpt lat="43.65744" lon="1.36889">
        <ele>145</ele>
        <time>2020-10-03T07:07:13.000Z</time>
      </trkpt>
      <trkpt lat="43.65745" lon="1.36886">
        <ele>145</ele>
        <time>2020-10-03T07:07:14.000Z</time>
      </trkpt>
      <trkpt lat="43.65747" lon="1.36883">
        <ele>145</ele>
        <time>2020-10-03T07:07:15.000Z</time>
      </trkpt>
      <trkpt lat="43.65749" lon="1.3688">
        <ele>145.35964833487</ele>
        <time>2020-10-03T07:07:16.000Z</time>
      </trkpt>
      <trkpt lat="43.6575" lon="1.36876">
        <ele>146</ele>
        <time>2020-10-03T07:07:17.000Z</time>
      </trkpt>
      <trkpt lat="43.65752" lon="1.36873">
        <ele>146</ele>
        <time>2020-10-03T07:07:18.000Z</time>
      </trkpt>
      <trkpt lat="43.65753" lon="1.3687">
        <ele>146</ele>
        <time>2020-10-03T07:07:19.000Z</time>
      </trkpt>
      <trkpt lat="43.65755" lon="1.36866">
        <ele>146</ele>
        <time>2020-10-03T07:07:20.000Z</time>
      </trkpt>
      <trkpt lat="43.65756" lon="1.36863">
        <ele>146</ele>
        <time>2020-10-03T07:07:21.000Z</time>
      </trkpt>
      <trkpt lat="43.65758" lon="1.3686">
        <ele>146</ele>
        <time>2020-10-03T07:07:22.000Z</time>
      </trkpt>
      <trkpt lat="43.6576" lon="1.36857">
        <ele>146</ele>
        <time>2020-10-03T07:07:23.000Z</time>
      </trkpt>
      <trkpt lat="43.65761" lon="1.36853">
        <ele>146</ele>
        <time>2020-10-03T07:07:24.000Z</time>
      </trkpt>
      <trkpt lat="43.65763" lon="1.3685">
        <ele>146</ele>
        <time>2020-10-03T07:07:25.000Z</time>
      </trkpt>
      <trkpt lat="43.65764" lon="1.36846">
        <ele>146</ele>
        <time>2020-10-03T07:07:26.000Z</time>
      </trkpt>
      <trkpt lat="43.65765" lon="1.36843">
        <ele>146</ele>
        <time>2020-10-03T07:07:27.000Z</time>
      </trkpt>
      <trkpt lat="43.65767" lon="1.3684">
        <ele>146</ele>
        <time>2020-10-03T07:07:28.000Z</time>
      </trkpt>
      <trkpt lat="43.65768" lon="1.36836">
        <ele>146</ele>
        <time>2020-10-03T07:07:29.000Z</time>
      </trkpt>
      <trkpt lat="43.6577" lon="1.36832">
        <ele>146</ele>
        <time>2020-10-03T07:07:30.000Z</time>
      </trkpt>
      <trkpt lat="43.65771" lon="1.36829">
        <ele>146</ele>
        <time>2020-10-03T07:07:31.000Z</time>
      </trkpt>
      <trkpt lat="43.65772" lon="1.36826">
        <ele>146</ele>
        <time>2020-10-03T07:07:32.000Z</time>
      </trkpt>
      <trkpt lat="43.65774" lon="1.36823">
        <ele>146</ele>
        <time>2020-10-03T07:07:33.000Z</time>
      </trkpt>
      <trkpt lat="43.65775" lon="1.3682">
        <ele>146</ele>
        <time>2020-10-03T07:07:34.000Z</time>
      </trkpt>
      <trkpt lat="43.65777" lon="1.36817">
        <ele>145.61176700901</ele>
        <time>2020-10-03T07:07:35.000Z</time>
      </trkpt>
      <trkpt lat="43.65779" lon="1.36814">
        <ele>145</ele>
        <time>2020-10-03T07:07:36.000Z</time>
      </trkpt>
      <trkpt lat="43.6578" lon="1.36811">
        <ele>145</ele>
        <time>2020-10-03T07:07:37.000Z</time>
      </trkpt>
      <trkpt lat="43.65781" lon="1.36808">
        <ele>145</ele>
        <time>2020-10-03T07:07:38.000Z</time>
      </trkpt>
      <trkpt lat="43.65783" lon="1.36804">
        <ele>145</ele>
        <time>2020-10-03T07:07:39.000Z</time>
      </trkpt>
      <trkpt lat="43.65784" lon="1.36801">
        <ele>145</ele>
        <time>2020-10-03T07:07:40.000Z</time>
      </trkpt>
      <trkpt lat="43.65785" lon="1.36798">
        <ele>145</ele>
        <time>2020-10-03T07:07:41.000Z</time>
      </trkpt>
      <trkpt lat="43.65786" lon="1.36795">
        <ele>145</ele>
        <time>2020-10-03T07:07:42.000Z</time>
      </trkpt>
      <trkpt lat="43.65788" lon="1.36791">
        <ele>145</ele>
        <time>2020-10-03T07:07:43.000Z</time>
      </trkpt>
      <trkpt lat="43.65789" lon="1.36788">
        <ele>145</ele>
        <time>2020-10-03T07:07:44.000Z</time>
      </trkpt>
      <trkpt lat="43.65791" lon="1.36785">
        <ele>145</ele>
        <time>2020-10-03T07:07:45.000Z</time>
      </trkpt>
      <trkpt lat="43.65792" lon="1.36782">
        <ele>145</ele>
        <time>2020-10-03T07:07:46.000Z</time>
      </trkpt>
      <trkpt lat="43.65794" lon="1.36779">
        <ele>145</ele>
        <time>2020-10-03T07:07:47.000Z</time>
      </trkpt>
      <trkpt lat="43.65795" lon="1.36776">
        <ele>145</ele>
        <time>2020-10-03T07:07:48.000Z</time>
      </trkpt>
      <trkpt lat="43.65797" lon="1.36772">
        <ele>145</ele>
        <time>2020-10-03T07:07:49.000Z</time>
      </trkpt>
      <trkpt lat="43.65798" lon="1.36769">
        <ele>145</ele>
        <time>2020-10-03T07:07:50.000Z</time>
      </trkpt>
      <trkpt lat="43.658" lon="1.36766">
        <ele>145</ele>
        <time>2020-10-03T07:07:51.000Z</time>
      </trkpt>
      <trkpt lat="43.65802" lon="1.36762">
        <ele>145</ele>
        <time>2020-10-03T07:07:52.000Z</time>
      </trkpt>
      <trkpt lat="43.65803" lon="1.3676">
        <ele>145</ele>
        <time>2020-10-03T07:07:53.000Z</time>
      </trkpt>
      <trkpt lat="43.65805" lon="1.36757">
        <ele>145</ele>
        <time>2020-10-03T07:07:54.000Z</time>
      </trkpt>
      <trkpt lat="43.65807" lon="1.36753">
        <ele>145</ele>
        <time>2020-10-03T07:07:55.000Z</time>
      </trkpt>
      <trkpt lat="43.65808" lon="1.36749">
        <ele>145</ele>
        <time>2020-10-03T07:07:56.000Z</time>
      </trkpt>
      <trkpt lat="43.6581" lon="1.36746">
        <ele>145</ele>
        <time>2020-10-03T07:07:57.000Z</time>
      </trkpt>
      <trkpt lat="43.65811" lon="1.36743">
        <ele>145</ele>
        <time>2020-10-03T07:07:58.000Z</time>
      </trkpt>
      <trkpt lat="43.65813" lon="1.36739">
        <ele>145</ele>
        <time>2020-10-03T07:07:59.000Z</time>
      </trkpt>
      <trkpt lat="43.65814" lon="1.36736">
        <ele>145</ele>
        <time>2020-10-03T07:08:00.000Z</time>
      </trkpt>
      <trkpt lat="43.65815" lon="1.36733">
        <ele>145</ele>
        <time>2020-10-03T07:08:01.000Z</time>
      </trkpt>
      <trkpt lat="43.65816" lon="1.36729">
        <ele>145</ele>
        <time>2020-10-03T07:08:02.000Z</time>
      </trkpt>
      <trkpt lat="43.65818" lon="1.36726">
        <ele>145</ele>
        <time>2020-10-03T07:08:03.000Z</time>
      </trkpt>
      <trkpt lat="43.65819" lon="1.36723">
        <ele>145</ele>
        <time>2020-10-03T07:08:04.000Z</time>
      </trkpt>
      <trkpt lat="43.65821" lon="1.3672">
        <ele>145</ele>
        <time>2020-10-03T07:08:05.000Z</time>
      </trkpt>
      <trkpt lat="43.65823" lon="1.36716">
        <ele>145</ele>
        <time>2020-10-03T07:08:06.000Z</time>
      </trkpt>
      <trkpt lat="43.65824" lon="1.36712">
        <ele>145</ele>
        <time>2020-10-03T07:08:07.000Z</time>
      </trkpt>
      <trkpt lat="43.65826" lon="1.36709">
        <ele>145</ele>
        <time>2020-10-03T07:08:08.000Z</time>
      </trkpt>
      <trkpt lat="43.65827" lon="1.36705">
        <ele>145</ele>
        <time>2020-10-03T07:08:09.000Z</time>
      </trkpt>
      <trkpt lat="43.65829" lon="1.36702">
        <ele>145</ele>
        <time>2020-10-03T07:08:10.000Z</time>
      </trkpt>
      <trkpt lat="43.6583" lon="1.36699">
        <ele>144.62264378781</ele>
        <time>2020-10-03T07:08:11.000Z</time>
      </trkpt>
      <trkpt lat="43.65832" lon="1.36696">
        <ele>144</ele>
        <time>2020-10-03T07:08:12.000Z</time>
      </trkpt>
      <trkpt lat="43.65834" lon="1.36693">
        <ele>144</ele>
        <time>2020-10-03T07:08:13.000Z</time>
      </trkpt>
      <trkpt lat="43.65835" lon="1.3669">
        <ele>144</ele>
        <time>2020-10-03T07:08:14.000Z</time>
      </trkpt>
      <trkpt lat="43.65836" lon="1.36687">
        <ele>144</ele>
        <time>2020-10-03T07:08:15.000Z</time>
      </trkpt>
      <trkpt lat="43.65836" lon="1.36683">
        <ele>144</ele>
        <time>2020-10-03T07:08:17.000Z</time>
      </trkpt>
      <trkpt lat="43.65835" lon="1.36681">
        <ele>144</ele>
        <time>2020-10-03T07:08:18.000Z</time>
      </trkpt>
      <trkpt lat="43.65834" lon="1.36678">
        <ele>144</ele>
        <time>2020-10-03T07:08:19.000Z</time>
      </trkpt>
      <trkpt lat="43.65835" lon="1.36675">
        <ele>144</ele>
        <time>2020-10-03T07:08:20.000Z</time>
      </trkpt>
      <trkpt lat="43.65836" lon="1.36671">
        <ele>144</ele>
        <time>2020-10-03T07:08:21.000Z</time>
      </trkpt>
      <trkpt lat="43.65837" lon="1.36668">
        <ele>144</ele>
        <time>2020-10-03T07:08:22.000Z</time>
      </trkpt>
      <trkpt lat="43.65839" lon="1.36665">
        <ele>144</ele>
        <time>2020-10-03T07:08:23.000Z</time>
      </trkpt>
      <trkpt lat="43.65842" lon="1.36662">
        <ele>144</ele>
        <time>2020-10-03T07:08:24.000Z</time>
      </trkpt>
      <trkpt lat="43.65845" lon="1.3666">
        <ele>144</ele>
        <time>2020-10-03T07:08:25.000Z</time>
      </trkpt>
      <trkpt lat="43.65847" lon="1.36659">
        <ele>144</ele>
        <time>2020-10-03T07:08:26.000Z</time>
      </trkpt>
      <trkpt lat="43.6585" lon="1.36657">
        <ele>144</ele>
        <time>2020-10-03T07:08:27.000Z</time>
      </trkpt>
      <trkpt lat="43.65852" lon="1.36655">
        <ele>144</ele>
        <time>2020-10-03T07:08:28.000Z</time>
      </trkpt>
      <trkpt lat="43.65855" lon="1.36653">
        <ele>144.46236425947</ele>
        <time>2020-10-03T07:08:29.000Z</time>
      </trkpt>
      <trkpt lat="43.65858" lon="1.36651">
        <ele>145</ele>
        <time>2020-10-03T07:08:30.000Z</time>
      </trkpt>
      <trkpt lat="43.65861" lon="1.36649">
        <ele>145</ele>
        <time>2020-10-03T07:08:31.000Z</time>
      </trkpt>
      <trkpt lat="43.65864" lon="1.36648">
        <ele>145</ele>
        <time>2020-10-03T07:08:32.000Z</time>
      </trkpt>
      <trkpt lat="43.65866" lon="1.36646">
        <ele>145</ele>
        <time>2020-10-03T07:08:33.000Z</time>
      </trkpt>
      <trkpt lat="43.65869" lon="1.36644">
        <ele>145</ele>
        <time>2020-10-03T07:08:34.000Z</time>
      </trkpt>
      <trkpt lat="43.65872" lon="1.36642">
        <ele>144.65693437477</ele>
        <time>2020-10-03T07:08:35.000Z</time>
      </trkpt>
      <trkpt lat="43.65875" lon="1.36641">
        <ele>144</ele>
        <time>2020-10-03T07:08:36.000Z</time>
      </trkpt>
      <trkpt lat="43.65877" lon="1.36639">
        <ele>144</ele>
        <time>2020-10-03T07:08:37.000Z</time>
      </trkpt>
      <trkpt lat="43.6588" lon="1.36638">
        <ele>144</ele>
        <time>2020-10-03T07:08:38.000Z</time>
      </trkpt>
      <trkpt lat="43.65882" lon="1.36636">
        <ele>143.54545137192</ele>
        <time>2020-10-03T07:08:39.000Z</time>
      </trkpt>
      <trkpt lat="43.65885" lon="1.36635">
        <ele>143</ele>
        <time>2020-10-03T07:08:40.000Z</time>
      </trkpt>
      <trkpt lat="43.65887" lon="1.36633">
        <ele>143</ele>
        <time>2020-10-03T07:08:41.000Z</time>
      </trkpt>
      <trkpt lat="43.65888" lon="1.36631">
        <ele>143</ele>
        <time>2020-10-03T07:08:42.000Z</time>
      </trkpt>
      <trkpt lat="43.65889" lon="1.36628">
        <ele>143.68517925926</ele>
        <time>2020-10-03T07:08:43.000Z</time>
      </trkpt>
      <trkpt lat="43.65888" lon="1.36625">
        <ele>145</ele>
        <time>2020-10-03T07:08:44.000Z</time>
      </trkpt>
      <trkpt lat="43.65886" lon="1.36622">
        <ele>145</ele>
        <time>2020-10-03T07:08:45.000Z</time>
      </trkpt>
      <trkpt lat="43.65885" lon="1.36619">
        <ele>145</ele>
        <time>2020-10-03T07:08:46.000Z</time>
      </trkpt>
      <trkpt lat="43.65884" lon="1.36616">
        <ele>145</ele>
        <time>2020-10-03T07:08:47.000Z</time>
      </trkpt>
      <trkpt lat="43.65883" lon="1.36612">
        <ele>145</ele>
        <time>2020-10-03T07:08:48.000Z</time>
      </trkpt>
      <trkpt lat="43.65882" lon="1.36608">
        <ele>145</ele>
        <time>2020-10-03T07:08:49.000Z</time>
      </trkpt>
      <trkpt lat="43.65881" lon="1.36604">
        <ele>145</ele>
        <time>2020-10-03T07:08:50.000Z</time>
      </trkpt>
      <trkpt lat="43.6588" lon="1.36601">
        <ele>145</ele>
        <time>2020-10-03T07:08:51.000Z</time>
      </trkpt>
      <trkpt lat="43.65879" lon="1.36597">
        <ele>145.46237062321</ele>
        <time>2020-10-03T07:08:52.000Z</time>
      </trkpt>
      <trkpt lat="43.65878" lon="1.36594">
        <ele>146</ele>
        <time>2020-10-03T07:08:53.000Z</time>
      </trkpt>
      <trkpt lat="43.65877" lon="1.3659">
        <ele>146</ele>
        <time>2020-10-03T07:08:54.000Z</time>
      </trkpt>
      <trkpt lat="43.65874" lon="1.36583">
        <ele>146</ele>
        <time>2020-10-03T07:08:56.000Z</time>
      </trkpt>
      <trkpt lat="43.65873" lon="1.3658">
        <ele>146</ele>
        <time>2020-10-03T07:08:57.000Z</time>
      </trkpt>
      <trkpt lat="43.65872" lon="1.36577">
        <ele>146</ele>
        <time>2020-10-03T07:08:58.000Z</time>
      </trkpt>
      <trkpt lat="43.65871" lon="1.36574">
        <ele>146</ele>
        <time>2020-10-03T07:08:59.000Z</time>
      </trkpt>
      <trkpt lat="43.6587" lon="1.3657">
        <ele>146</ele>
        <time>2020-10-03T07:09:00.000Z</time>
      </trkpt>
      <trkpt lat="43.65869" lon="1.36567">
        <ele>146</ele>
        <time>2020-10-03T07:09:01.000Z</time>
      </trkpt>
      <trkpt lat="43.65868" lon="1.36563">
        <ele>146</ele>
        <time>2020-10-03T07:09:02.000Z</time>
      </trkpt>
      <trkpt lat="43.65867" lon="1.3656">
        <ele>147.29473982053</ele>
        <time>2020-10-03T07:09:03.000Z</time>
      </trkpt>
      <trkpt lat="43.65866" lon="1.36557">
        <ele>149</ele>
        <time>2020-10-03T07:09:04.000Z</time>
      </trkpt>
      <trkpt lat="43.65865" lon="1.36553">
        <ele>149</ele>
        <time>2020-10-03T07:09:05.000Z</time>
      </trkpt>
      <trkpt lat="43.65864" lon="1.3655">
        <ele>148.05661015312</ele>
        <time>2020-10-03T07:09:06.000Z</time>
      </trkpt>
      <trkpt lat="43.65863" lon="1.36546">
        <ele>147</ele>
        <time>2020-10-03T07:09:07.000Z</time>
      </trkpt>
      <trkpt lat="43.65863" lon="1.36544">
        <ele>147</ele>
        <time>2020-10-03T07:09:08.000Z</time>
      </trkpt>
      <trkpt lat="43.65862" lon="1.3654">
        <ele>148</ele>
        <time>2020-10-03T07:09:10.000Z</time>
      </trkpt>
      <trkpt lat="43.6586" lon="1.36537">
        <ele>148</ele>
        <time>2020-10-03T07:09:12.000Z</time>
      </trkpt>
      <trkpt lat="43.6586" lon="1.36533">
        <ele>148</ele>
        <time>2020-10-03T07:09:14.000Z</time>
      </trkpt>
      <trkpt lat="43.65859" lon="1.3653">
        <ele>148</ele>
        <time>2020-10-03T07:09:16.000Z</time>
      </trkpt>
      <trkpt lat="43.65858" lon="1.36527">
        <ele>148</ele>
        <time>2020-10-03T07:09:17.000Z</time>
      </trkpt>
      <trkpt lat="43.65857" lon="1.36524">
        <ele>148</ele>
        <time>2020-10-03T07:09:18.000Z</time>
      </trkpt>
      <trkpt lat="43.65856" lon="1.36521">
        <ele>148</ele>
        <time>2020-10-03T07:09:19.000Z</time>
      </trkpt>
      <trkpt lat="43.65856" lon="1.36517">
        <ele>148</ele>
        <time>2020-10-03T07:09:20.000Z</time>
      </trkpt>
      <trkpt lat="43.65854" lon="1.36513">
        <ele>148</ele>
        <time>2020-10-03T07:09:21.000Z</time>
      </trkpt>
      <trkpt lat="43.65853" lon="1.3651">
        <ele>148</ele>
        <time>2020-10-03T07:09:22.000Z</time>
      </trkpt>
      <trkpt lat="43.65852" lon="1.36506">
        <ele>148</ele>
        <time>2020-10-03T07:09:23.000Z</time>
      </trkpt>
      <trkpt lat="43.65851" lon="1.36502">
        <ele>148</ele>
        <time>2020-10-03T07:09:24.000Z</time>
      </trkpt>
      <trkpt lat="43.6585" lon="1.36498">
        <ele>148</ele>
        <time>2020-10-03T07:09:25.000Z</time>
      </trkpt>
      <trkpt lat="43.65849" lon="1.36494">
        <ele>148</ele>
        <time>2020-10-03T07:09:26.000Z</time>
      </trkpt>
      <trkpt lat="43.65847" lon="1.36491">
        <ele>147.57142656202</ele>
        <time>2020-10-03T07:09:27.000Z</time>
      </trkpt>
      <trkpt lat="43.65846" lon="1.36487">
        <ele>147</ele>
        <time>2020-10-03T07:09:28.000Z</time>
      </trkpt>
      <trkpt lat="43.65845" lon="1.36483">
        <ele>147</ele>
        <time>2020-10-03T07:09:29.000Z</time>
      </trkpt>
      <trkpt lat="43.65844" lon="1.3648">
        <ele>147</ele>
        <time>2020-10-03T07:09:30.000Z</time>
      </trkpt>
      <trkpt lat="43.65843" lon="1.36477">
        <ele>147</ele>
        <time>2020-10-03T07:09:31.000Z</time>
      </trkpt>
      <trkpt lat="43.65842" lon="1.36473">
        <ele>147</ele>
        <time>2020-10-03T07:09:32.000Z</time>
      </trkpt>
      <trkpt lat="43.65841" lon="1.36469">
        <ele>147.15189811889</ele>
        <time>2020-10-03T07:09:33.000Z</time>
      </trkpt>
      <trkpt lat="43.6584" lon="1.36466">
        <ele>148</ele>
        <time>2020-10-03T07:09:34.000Z</time>
      </trkpt>
      <trkpt lat="43.65839" lon="1.36462">
        <ele>148</ele>
        <time>2020-10-03T07:09:35.000Z</time>
      </trkpt>
      <trkpt lat="43.65838" lon="1.36458">
        <ele>148</ele>
        <time>2020-10-03T07:09:36.000Z</time>
      </trkpt>
      <trkpt lat="43.65836" lon="1.36455">
        <ele>148.38095238095</ele>
        <time>2020-10-03T07:09:37.000Z</time>
      </trkpt>
      <trkpt lat="43.65835" lon="1.36451">
        <ele>149</ele>
        <time>2020-10-03T07:09:38.000Z</time>
      </trkpt>
      <trkpt lat="43.65834" lon="1.36447">
        <ele>149</ele>
        <time>2020-10-03T07:09:39.000Z</time>
      </trkpt>
      <trkpt lat="43.65834" lon="1.36444">
        <ele>149.27397380372</ele>
        <time>2020-10-03T07:09:40.000Z</time>
      </trkpt>
      <trkpt lat="43.65833" lon="1.3644">
        <ele>150</ele>
        <time>2020-10-03T07:09:41.000Z</time>
      </trkpt>
      <trkpt lat="43.65832" lon="1.36437">
        <ele>150</ele>
        <time>2020-10-03T07:09:42.000Z</time>
      </trkpt>
      <trkpt lat="43.65832" lon="1.36433">
        <ele>150</ele>
        <time>2020-10-03T07:09:43.000Z</time>
      </trkpt>
      <trkpt lat="43.65831" lon="1.3643">
        <ele>150.43955889386</ele>
        <time>2020-10-03T07:09:44.000Z</time>
      </trkpt>
      <trkpt lat="43.65831" lon="1.36428">
        <ele>151</ele>
        <time>2020-10-03T07:09:45.000Z</time>
      </trkpt>
      <trkpt lat="43.6583" lon="1.36425">
        <ele>151</ele>
        <time>2020-10-03T07:09:46.000Z</time>
      </trkpt>
      <trkpt lat="43.65829" lon="1.36422">
        <ele>151</ele>
        <time>2020-10-03T07:09:47.000Z</time>
      </trkpt>
      <trkpt lat="43.65828" lon="1.36419">
        <ele>151</ele>
        <time>2020-10-03T07:09:48.000Z</time>
      </trkpt>
      <trkpt lat="43.65828" lon="1.36417">
        <ele>151</ele>
        <time>2020-10-03T07:09:49.000Z</time>
      </trkpt>
      <trkpt lat="43.65827" lon="1.36414">
        <ele>151.4347826087</ele>
        <time>2020-10-03T07:09:50.000Z</time>
      </trkpt>
      <trkpt lat="43.65825" lon="1.36411">
        <ele>152</ele>
        <time>2020-10-03T07:09:51.000Z</time>
      </trkpt>
      <trkpt lat="43.65824" lon="1.36407">
        <ele>152</ele>
        <time>2020-10-03T07:09:52.000Z</time>
      </trkpt>
      <trkpt lat="43.65823" lon="1.36404">
        <ele>152</ele>
        <time>2020-10-03T07:09:53.000Z</time>
      </trkpt>
      <trkpt lat="43.65823" lon="1.364">
        <ele>152</ele>
        <time>2020-10-03T07:09:54.000Z</time>
      </trkpt>
      <trkpt lat="43.65822" lon="1.36397">
        <ele>152</ele>
        <time>2020-10-03T07:09:55.000Z</time>
      </trkpt>
      <trkpt lat="43.6582" lon="1.36393">
        <ele>152</ele>
        <time>2020-10-03T07:09:56.000Z</time>
      </trkpt>
      <trkpt lat="43.65819" lon="1.36389">
        <ele>152.40869729754</ele>
        <time>2020-10-03T07:09:57.000Z</time>
      </trkpt>
      <trkpt lat="43.65818" lon="1.36386">
        <ele>153</ele>
        <time>2020-10-03T07:09:58.000Z</time>
      </trkpt>
      <trkpt lat="43.65817" lon="1.36382">
        <ele>153</ele>
        <time>2020-10-03T07:09:59.000Z</time>
      </trkpt>
      <trkpt lat="43.65816" lon="1.36379">
        <ele>153</ele>
        <time>2020-10-03T07:10:00.000Z</time>
      </trkpt>
      <trkpt lat="43.65815" lon="1.36376">
        <ele>153</ele>
        <time>2020-10-03T07:10:01.000Z</time>
      </trkpt>
      <trkpt lat="43.65815" lon="1.36373">
        <ele>153</ele>
        <time>2020-10-03T07:10:02.000Z</time>
      </trkpt>
      <trkpt lat="43.65814" lon="1.36371">
        <ele>152</ele>
        <time>2020-10-03T07:10:07.000Z</time>
      </trkpt>
      <trkpt lat="43.65813" lon="1.36367">
        <ele>152.42708</ele>
        <time>2020-10-03T07:10:09.000Z</time>
      </trkpt>
      <trkpt lat="43.65812" lon="1.3636">
        <ele>153</ele>
        <time>2020-10-03T07:10:12.000Z</time>
      </trkpt>
      <trkpt lat="43.65811" lon="1.36356">
        <ele>153</ele>
        <time>2020-10-03T07:10:14.000Z</time>
      </trkpt>
      <trkpt lat="43.6581" lon="1.36353">
        <ele>153</ele>
        <time>2020-10-03T07:10:15.000Z</time>
      </trkpt>
      <trkpt lat="43.65808" lon="1.3635">
        <ele>153</ele>
        <time>2020-10-03T07:10:16.000Z</time>
      </trkpt>
      <trkpt lat="43.65808" lon="1.36346">
        <ele>153</ele>
        <time>2020-10-03T07:10:17.000Z</time>
      </trkpt>
      <trkpt lat="43.65807" lon="1.36344">
        <ele>152.55555555556</ele>
        <time>2020-10-03T07:10:18.000Z</time>
      </trkpt>
      <trkpt lat="43.65806" lon="1.3634">
        <ele>152.4333338074</ele>
        <time>2020-10-03T07:10:21.000Z</time>
      </trkpt>
      <trkpt lat="43.65804" lon="1.36335">
        <ele>153</ele>
        <time>2020-10-03T07:10:23.000Z</time>
      </trkpt>
      <trkpt lat="43.65803" lon="1.36332">
        <ele>153</ele>
        <time>2020-10-03T07:10:24.000Z</time>
      </trkpt>
      <trkpt lat="43.65802" lon="1.36329">
        <ele>153</ele>
        <time>2020-10-03T07:10:25.000Z</time>
      </trkpt>
      <trkpt lat="43.65801" lon="1.36325">
        <ele>153</ele>
        <time>2020-10-03T07:10:26.000Z</time>
      </trkpt>
      <trkpt lat="43.658" lon="1.36322">
        <ele>153</ele>
        <time>2020-10-03T07:10:27.000Z</time>
      </trkpt>
      <trkpt lat="43.65798" lon="1.36318">
        <ele>153</ele>
        <time>2020-10-03T07:10:28.000Z</time>
      </trkpt>
      <trkpt lat="43.65797" lon="1.36314">
        <ele>153</ele>
        <time>2020-10-03T07:10:29.000Z</time>
      </trkpt>
      <trkpt lat="43.65796" lon="1.3631">
        <ele>153</ele>
        <time>2020-10-03T07:10:30.000Z</time>
      </trkpt>
      <trkpt lat="43.65795" lon="1.36306">
        <ele>152</ele>
        <time>2020-10-03T07:10:31.000Z</time>
      </trkpt>
      <trkpt lat="43.65794" lon="1.36301">
        <ele>152</ele>
        <time>2020-10-03T07:10:32.000Z</time>
      </trkpt>
      <trkpt lat="43.65794" lon="1.36297">
        <ele>152</ele>
        <time>2020-10-03T07:10:33.000Z</time>
      </trkpt>
      <trkpt lat="43.65793" lon="1.36292">
        <ele>151.69767961064</ele>
        <time>2020-10-03T07:10:34.000Z</time>
      </trkpt>
      <trkpt lat="43.65793" lon="1.36288">
        <ele>151</ele>
        <time>2020-10-03T07:10:35.000Z</time>
      </trkpt>
      <trkpt lat="43.65794" lon="1.36283">
        <ele>151</ele>
        <time>2020-10-03T07:10:36.000Z</time>
      </trkpt>
      <trkpt lat="43.65794" lon="1.36279">
        <ele>151</ele>
        <time>2020-10-03T07:10:37.000Z</time>
      </trkpt>
      <trkpt lat="43.65793" lon="1.36275">
        <ele>151</ele>
        <time>2020-10-03T07:10:38.000Z</time>
      </trkpt>
      <trkpt lat="43.65793" lon="1.3627">
        <ele>151</ele>
        <time>2020-10-03T07:10:39.000Z</time>
      </trkpt>
      <trkpt lat="43.65793" lon="1.36266">
        <ele>151</ele>
        <time>2020-10-03T07:10:40.000Z</time>
      </trkpt>
      <trkpt lat="43.65793" lon="1.36261">
        <ele>151</ele>
        <time>2020-10-03T07:10:41.000Z</time>
      </trkpt>
      <trkpt lat="43.65793" lon="1.36257">
        <ele>150.56989099317</ele>
        <time>2020-10-03T07:10:42.000Z</time>
      </trkpt>
      <trkpt lat="43.65793" lon="1.36252">
        <ele>150</ele>
        <time>2020-10-03T07:10:43.000Z</time>
      </trkpt>
      <trkpt lat="43.65793" lon="1.36248">
        <ele>150</ele>
        <time>2020-10-03T07:10:44.000Z</time>
      </trkpt>
      <trkpt lat="43.65792" lon="1.36244">
        <ele>150</ele>
        <time>2020-10-03T07:10:45.000Z</time>
      </trkpt>
      <trkpt lat="43.65792" lon="1.3624">
        <ele>149.66666666667</ele>
        <time>2020-10-03T07:10:46.000Z</time>
      </trkpt>
      <trkpt lat="43.65792" lon="1.36236">
        <ele>149</ele>
        <time>2020-10-03T07:10:47.000Z</time>
      </trkpt>
      <trkpt lat="43.65792" lon="1.36232">
        <ele>149</ele>
        <time>2020-10-03T07:10:48.000Z</time>
      </trkpt>
      <trkpt lat="43.65792" lon="1.36228">
        <ele>149</ele>
        <time>2020-10-03T07:10:49.000Z</time>
      </trkpt>
      <trkpt lat="43.65792" lon="1.36224">
        <ele>148</ele>
        <time>2020-10-03T07:10:50.000Z</time>
      </trkpt>
      <trkpt lat="43.65792" lon="1.3622">
        <ele>148</ele>
        <time>2020-10-03T07:10:51.000Z</time>
      </trkpt>
      <trkpt lat="43.65792" lon="1.36216">
        <ele>148</ele>
        <time>2020-10-03T07:10:52.000Z</time>
      </trkpt>
      <trkpt lat="43.65792" lon="1.36212">
        <ele>147.54902305269</ele>
        <time>2020-10-03T07:10:53.000Z</time>
      </trkpt>
      <trkpt lat="43.65792" lon="1.36208">
        <ele>147</ele>
        <time>2020-10-03T07:10:54.000Z</time>
      </trkpt>
      <trkpt lat="43.65792" lon="1.36203">
        <ele>147</ele>
        <time>2020-10-03T07:10:55.000Z</time>
      </trkpt>
      <trkpt lat="43.65791" lon="1.36199">
        <ele>147</ele>
        <time>2020-10-03T07:10:56.000Z</time>
      </trkpt>
      <trkpt lat="43.65791" lon="1.36195">
        <ele>147</ele>
        <time>2020-10-03T07:10:57.000Z</time>
      </trkpt>
      <trkpt lat="43.65791" lon="1.36191">
        <ele>147</ele>
        <time>2020-10-03T07:10:58.000Z</time>
      </trkpt>
      <trkpt lat="43.65791" lon="1.36187">
        <ele>147</ele>
        <time>2020-10-03T07:10:59.000Z</time>
      </trkpt>
      <trkpt lat="43.65791" lon="1.36183">
        <ele>147</ele>
        <time>2020-10-03T07:11:00.000Z</time>
      </trkpt>
      <trkpt lat="43.6579" lon="1.36179">
        <ele>146.74790250409</ele>
        <time>2020-10-03T07:11:01.000Z</time>
      </trkpt>
      <trkpt lat="43.6579" lon="1.36175">
        <ele>146</ele>
        <time>2020-10-03T07:11:02.000Z</time>
      </trkpt>
      <trkpt lat="43.6579" lon="1.3617">
        <ele>146</ele>
        <time>2020-10-03T07:11:03.000Z</time>
      </trkpt>
      <trkpt lat="43.6579" lon="1.36166">
        <ele>146</ele>
        <time>2020-10-03T07:11:04.000Z</time>
      </trkpt>
      <trkpt lat="43.6579" lon="1.36162">
        <ele>146</ele>
        <time>2020-10-03T07:11:05.000Z</time>
      </trkpt>
      <trkpt lat="43.6579" lon="1.36157">
        <ele>146</ele>
        <time>2020-10-03T07:11:06.000Z</time>
      </trkpt>
      <trkpt lat="43.6579" lon="1.36153">
        <ele>146</ele>
        <time>2020-10-03T07:11:07.000Z</time>
      </trkpt>
      <trkpt lat="43.6579" lon="1.36149">
        <ele>146</ele>
        <time>2020-10-03T07:11:08.000Z</time>
      </trkpt>
      <trkpt lat="43.6579" lon="1.36145">
        <ele>146</ele>
        <time>2020-10-03T07:11:09.000Z</time>
      </trkpt>
      <trkpt lat="43.6579" lon="1.36141">
        <ele>146</ele>
        <time>2020-10-03T07:11:10.000Z</time>
      </trkpt>
      <trkpt lat="43.6579" lon="1.36137">
        <ele>146</ele>
        <time>2020-10-03T07:11:11.000Z</time>
      </trkpt>
      <trkpt lat="43.65791" lon="1.36133">
        <ele>146</ele>
        <time>2020-10-03T07:11:12.000Z</time>
      </trkpt>
      <trkpt lat="43.65793" lon="1.36129">
        <ele>146</ele>
        <time>2020-10-03T07:11:13.000Z</time>
      </trkpt>
      <trkpt lat="43.65794" lon="1.36125">
        <ele>146</ele>
        <time>2020-10-03T07:11:14.000Z</time>
      </trkpt>
      <trkpt lat="43.65796" lon="1.36122">
        <ele>146</ele>
        <time>2020-10-03T07:11:15.000Z</time>
      </trkpt>
      <trkpt lat="43.65798" lon="1.36119">
        <ele>146</ele>
        <time>2020-10-03T07:11:16.000Z</time>
      </trkpt>
      <trkpt lat="43.658" lon="1.36116">
        <ele>146</ele>
        <time>2020-10-03T07:11:17.000Z</time>
      </trkpt>
      <trkpt lat="43.65802" lon="1.36113">
        <ele>146</ele>
        <time>2020-10-03T07:11:18.000Z</time>
      </trkpt>
      <trkpt lat="43.65804" lon="1.3611">
        <ele>146</ele>
        <time>2020-10-03T07:11:19.000Z</time>
      </trkpt>
      <trkpt lat="43.65807" lon="1.36107">
        <ele>146</ele>
        <time>2020-10-03T07:11:20.000Z</time>
      </trkpt>
      <trkpt lat="43.65809" lon="1.36104">
        <ele>146.45454862808</ele>
        <time>2020-10-03T07:11:21.000Z</time>
      </trkpt>
      <trkpt lat="43.6581" lon="1.36101">
        <ele>147</ele>
        <time>2020-10-03T07:11:22.000Z</time>
      </trkpt>
      <trkpt lat="43.65813" lon="1.36098">
        <ele>147</ele>
        <time>2020-10-03T07:11:23.000Z</time>
      </trkpt>
      <trkpt lat="43.65815" lon="1.36096">
        <ele>147</ele>
        <time>2020-10-03T07:11:24.000Z</time>
      </trkpt>
      <trkpt lat="43.65816" lon="1.36093">
        <ele>147</ele>
        <time>2020-10-03T07:11:25.000Z</time>
      </trkpt>
      <trkpt lat="43.65818" lon="1.3609">
        <ele>147</ele>
        <time>2020-10-03T07:11:26.000Z</time>
      </trkpt>
      <trkpt lat="43.65821" lon="1.36087">
        <ele>147</ele>
        <time>2020-10-03T07:11:27.000Z</time>
      </trkpt>
      <trkpt lat="43.65823" lon="1.36084">
        <ele>147</ele>
        <time>2020-10-03T07:11:28.000Z</time>
      </trkpt>
      <trkpt lat="43.65824" lon="1.36081">
        <ele>147</ele>
        <time>2020-10-03T07:11:29.000Z</time>
      </trkpt>
      <trkpt lat="43.65826" lon="1.36078">
        <ele>147</ele>
        <time>2020-10-03T07:11:30.000Z</time>
      </trkpt>
      <trkpt lat="43.65828" lon="1.36076">
        <ele>147</ele>
        <time>2020-10-03T07:11:31.000Z</time>
      </trkpt>
      <trkpt lat="43.6583" lon="1.36073">
        <ele>147</ele>
        <time>2020-10-03T07:11:32.000Z</time>
      </trkpt>
      <trkpt lat="43.65833" lon="1.36071">
        <ele>147</ele>
        <time>2020-10-03T07:11:33.000Z</time>
      </trkpt>
      <trkpt lat="43.65835" lon="1.36068">
        <ele>147</ele>
        <time>2020-10-03T07:11:34.000Z</time>
      </trkpt>
      <trkpt lat="43.65837" lon="1.36066">
        <ele>147</ele>
        <time>2020-10-03T07:11:35.000Z</time>
      </trkpt>
      <trkpt lat="43.65839" lon="1.36064">
        <ele>147</ele>
        <time>2020-10-03T07:11:36.000Z</time>
      </trkpt>
      <trkpt lat="43.65841" lon="1.36061">
        <ele>147</ele>
        <time>2020-10-03T07:11:37.000Z</time>
      </trkpt>
      <trkpt lat="43.65843" lon="1.36057">
        <ele>147</ele>
        <time>2020-10-03T07:11:38.000Z</time>
      </trkpt>
      <trkpt lat="43.65845" lon="1.36054">
        <ele>146.69411357236</ele>
        <time>2020-10-03T07:11:39.000Z</time>
      </trkpt>
      <trkpt lat="43.65846" lon="1.36051">
        <ele>146</ele>
        <time>2020-10-03T07:11:40.000Z</time>
      </trkpt>
      <trkpt lat="43.65847" lon="1.36048">
        <ele>146</ele>
        <time>2020-10-03T07:11:41.000Z</time>
      </trkpt>
      <trkpt lat="43.65849" lon="1.36045">
        <ele>146</ele>
        <time>2020-10-03T07:11:42.000Z</time>
      </trkpt>
      <trkpt lat="43.65851" lon="1.36042">
        <ele>146</ele>
        <time>2020-10-03T07:11:43.000Z</time>
      </trkpt>
      <trkpt lat="43.65852" lon="1.36039">
        <ele>146</ele>
        <time>2020-10-03T07:11:44.000Z</time>
      </trkpt>
      <trkpt lat="43.65854" lon="1.36036">
        <ele>146</ele>
        <time>2020-10-03T07:11:45.000Z</time>
      </trkpt>
      <trkpt lat="43.65856" lon="1.36032">
        <ele>146</ele>
        <time>2020-10-03T07:11:46.000Z</time>
      </trkpt>
      <trkpt lat="43.65858" lon="1.36028">
        <ele>146</ele>
        <time>2020-10-03T07:11:47.000Z</time>
      </trkpt>
      <trkpt lat="43.65859" lon="1.36024">
        <ele>146</ele>
        <time>2020-10-03T07:11:48.000Z</time>
      </trkpt>
      <trkpt lat="43.65861" lon="1.36021">
        <ele>146</ele>
        <time>2020-10-03T07:11:49.000Z</time>
      </trkpt>
      <trkpt lat="43.65862" lon="1.36017">
        <ele>146</ele>
        <time>2020-10-03T07:11:50.000Z</time>
      </trkpt>
      <trkpt lat="43.65864" lon="1.36014">
        <ele>146</ele>
        <time>2020-10-03T07:11:51.000Z</time>
      </trkpt>
      <trkpt lat="43.65865" lon="1.36012">
        <ele>146</ele>
        <time>2020-10-03T07:11:52.000Z</time>
      </trkpt>
      <trkpt lat="43.65867" lon="1.36012">
        <ele>146</ele>
        <time>2020-10-03T07:11:54.000Z</time>
      </trkpt>
      <trkpt lat="43.65868" lon="1.36014">
        <ele>146</ele>
        <time>2020-10-03T07:11:55.000Z</time>
      </trkpt>
      <trkpt lat="43.65869" lon="1.36018">
        <ele>146</ele>
        <time>2020-10-03T07:11:56.000Z</time>
      </trkpt>
      <trkpt lat="43.65871" lon="1.36022">
        <ele>146</ele>
        <time>2020-10-03T07:11:57.000Z</time>
      </trkpt>
      <trkpt lat="43.65872" lon="1.36025">
        <ele>146</ele>
        <time>2020-10-03T07:11:58.000Z</time>
      </trkpt>
      <trkpt lat="43.65874" lon="1.36028">
        <ele>146</ele>
        <time>2020-10-03T07:11:59.000Z</time>
      </trkpt>
      <trkpt lat="43.65876" lon="1.36031">
        <ele>146</ele>
        <time>2020-10-03T07:12:00.000Z</time>
      </trkpt>
      <trkpt lat="43.65879" lon="1.36033">
        <ele>146</ele>
        <time>2020-10-03T07:12:01.000Z</time>
      </trkpt>
      <trkpt lat="43.65881" lon="1.36034">
        <ele>146</ele>
        <time>2020-10-03T07:12:02.000Z</time>
      </trkpt>
      <trkpt lat="43.65884" lon="1.36035">
        <ele>145.62727346777</ele>
        <time>2020-10-03T07:12:03.000Z</time>
      </trkpt>
      <trkpt lat="43.65886" lon="1.36036">
        <ele>145</ele>
        <time>2020-10-03T07:12:04.000Z</time>
      </trkpt>
      <trkpt lat="43.65889" lon="1.36038">
        <ele>145</ele>
        <time>2020-10-03T07:12:05.000Z</time>
      </trkpt>
      <trkpt lat="43.65892" lon="1.36039">
        <ele>145</ele>
        <time>2020-10-03T07:12:06.000Z</time>
      </trkpt>
      <trkpt lat="43.65895" lon="1.3604">
        <ele>145</ele>
        <time>2020-10-03T07:12:07.000Z</time>
      </trkpt>
      <trkpt lat="43.65897" lon="1.3604">
        <ele>145</ele>
        <time>2020-10-03T07:12:08.000Z</time>
      </trkpt>
      <trkpt lat="43.65899" lon="1.36041">
        <ele>145</ele>
        <time>2020-10-03T07:12:09.000Z</time>
      </trkpt>
      <trkpt lat="43.65901" lon="1.36041">
        <ele>145</ele>
        <time>2020-10-03T07:12:10.000Z</time>
      </trkpt>
      <trkpt lat="43.65904" lon="1.36043">
        <ele>145</ele>
        <time>2020-10-03T07:12:12.000Z</time>
      </trkpt>
      <trkpt lat="43.65906" lon="1.36045">
        <ele>145</ele>
        <time>2020-10-03T07:12:14.000Z</time>
      </trkpt>
      <trkpt lat="43.65908" lon="1.36048">
        <ele>144</ele>
        <time>2020-10-03T07:12:16.000Z</time>
      </trkpt>
      <trkpt lat="43.6591" lon="1.36049">
        <ele>145</ele>
        <time>2020-10-03T07:12:19.000Z</time>
      </trkpt>
      <trkpt lat="43.65905" lon="1.36046">
        <ele>144</ele>
        <time>2020-10-03T07:12:44.000Z</time>
      </trkpt>
      <trkpt lat="43.65902" lon="1.36044">
        <ele>144</ele>
        <time>2020-10-03T07:12:45.000Z</time>
      </trkpt>
      <trkpt lat="43.659" lon="1.36042">
        <ele>144</ele>
        <time>2020-10-03T07:12:46.000Z</time>
      </trkpt>
      <trkpt lat="43.65898" lon="1.3604">
        <ele>144.35780215135</ele>
        <time>2020-10-03T07:12:47.000Z</time>
      </trkpt>
      <trkpt lat="43.65895" lon="1.36039">
        <ele>145</ele>
        <time>2020-10-03T07:12:48.000Z</time>
      </trkpt>
      <trkpt lat="43.65892" lon="1.36038">
        <ele>145</ele>
        <time>2020-10-03T07:12:49.000Z</time>
      </trkpt>
      <trkpt lat="43.6589" lon="1.36036">
        <ele>145.31867668158</ele>
        <time>2020-10-03T07:12:50.000Z</time>
      </trkpt>
      <trkpt lat="43.65887" lon="1.36035">
        <ele>146</ele>
        <time>2020-10-03T07:12:51.000Z</time>
      </trkpt>
      <trkpt lat="43.65885" lon="1.36034">
        <ele>146</ele>
        <time>2020-10-03T07:12:52.000Z</time>
      </trkpt>
      <trkpt lat="43.65882" lon="1.36032">
        <ele>146</ele>
        <time>2020-10-03T07:12:53.000Z</time>
      </trkpt>
      <trkpt lat="43.65879" lon="1.3603">
        <ele>146</ele>
        <time>2020-10-03T07:12:54.000Z</time>
      </trkpt>
      <trkpt lat="43.65877" lon="1.36028">
        <ele>146</ele>
        <time>2020-10-03T07:12:55.000Z</time>
      </trkpt>
      <trkpt lat="43.65874" lon="1.36026">
        <ele>146.32608937615</ele>
        <time>2020-10-03T07:12:56.000Z</time>
      </trkpt>
      <trkpt lat="43.65871" lon="1.36024">
        <ele>147</ele>
        <time>2020-10-03T07:12:57.000Z</time>
      </trkpt>
      <trkpt lat="43.65869" lon="1.36022">
        <ele>147</ele>
        <time>2020-10-03T07:12:58.000Z</time>
      </trkpt>
      <trkpt lat="43.65865" lon="1.36016">
        <ele>146</ele>
        <time>2020-10-03T07:13:00.000Z</time>
      </trkpt>
      <trkpt lat="43.65863" lon="1.36012">
        <ele>146</ele>
        <time>2020-10-03T07:13:01.000Z</time>
      </trkpt>
      <trkpt lat="43.65862" lon="1.36008">
        <ele>145.67567287068</ele>
        <time>2020-10-03T07:13:02.000Z</time>
      </trkpt>
      <trkpt lat="43.65861" lon="1.36004">
        <ele>145</ele>
        <time>2020-10-03T07:13:03.000Z</time>
      </trkpt>
      <trkpt lat="43.6586" lon="1.36001">
        <ele>145</ele>
        <time>2020-10-03T07:13:04.000Z</time>
      </trkpt>
      <trkpt lat="43.65859" lon="1.35998">
        <ele>145</ele>
        <time>2020-10-03T07:13:05.000Z</time>
      </trkpt>
      <trkpt lat="43.65857" lon="1.35995">
        <ele>145</ele>
        <time>2020-10-03T07:13:06.000Z</time>
      </trkpt>
      <trkpt lat="43.65855" lon="1.35993">
        <ele>145.18182405875</ele>
        <time>2020-10-03T07:13:07.000Z</time>
      </trkpt>
      <trkpt lat="43.65853" lon="1.35991">
        <ele>146</ele>
        <time>2020-10-03T07:13:08.000Z</time>
      </trkpt>
      <trkpt lat="43.65851" lon="1.35989">
        <ele>146</ele>
        <time>2020-10-03T07:13:09.000Z</time>
      </trkpt>
      <trkpt lat="43.65848" lon="1.35986">
        <ele>146</ele>
        <time>2020-10-03T07:13:10.000Z</time>
      </trkpt>
      <trkpt lat="43.65846" lon="1.35984">
        <ele>146</ele>
        <time>2020-10-03T07:13:11.000Z</time>
      </trkpt>
      <trkpt lat="43.65844" lon="1.35982">
        <ele>146</ele>
        <time>2020-10-03T07:13:12.000Z</time>
      </trkpt>
      <trkpt lat="43.65841" lon="1.35979">
        <ele>146</ele>
        <time>2020-10-03T07:13:13.000Z</time>
      </trkpt>
      <trkpt lat="43.65839" lon="1.35977">
        <ele>145.55555239504</ele>
        <time>2020-10-03T07:13:14.000Z</time>
      </trkpt>
      <trkpt lat="43.65837" lon="1.35975">
        <ele>145</ele>
        <time>2020-10-03T07:13:15.000Z</time>
      </trkpt>
      <trkpt lat="43.65834" lon="1.35973">
        <ele>145</ele>
        <time>2020-10-03T07:13:16.000Z</time>
      </trkpt>
      <trkpt lat="43.65832" lon="1.35971">
        <ele>145</ele>
        <time>2020-10-03T07:13:17.000Z</time>
      </trkpt>
      <trkpt lat="43.65829" lon="1.35969">
        <ele>145.33720809085</ele>
        <time>2020-10-03T07:13:18.000Z</time>
      </trkpt>
      <trkpt lat="43.65827" lon="1.35967">
        <ele>146</ele>
        <time>2020-10-03T07:13:19.000Z</time>
      </trkpt>
      <trkpt lat="43.65824" lon="1.35965">
        <ele>146</ele>
        <time>2020-10-03T07:13:20.000Z</time>
      </trkpt>
      <trkpt lat="43.65822" lon="1.35962">
        <ele>146</ele>
        <time>2020-10-03T07:13:21.000Z</time>
      </trkpt>
      <trkpt lat="43.6582" lon="1.35959">
        <ele>146</ele>
        <time>2020-10-03T07:13:22.000Z</time>
      </trkpt>
      <trkpt lat="43.65818" lon="1.35956">
        <ele>146</ele>
        <time>2020-10-03T07:13:23.000Z</time>
      </trkpt>
      <trkpt lat="43.65816" lon="1.35953">
        <ele>146</ele>
        <time>2020-10-03T07:13:24.000Z</time>
      </trkpt>
      <trkpt lat="43.65814" lon="1.35951">
        <ele>146</ele>
        <time>2020-10-03T07:13:25.000Z</time>
      </trkpt>
      <trkpt lat="43.65811" lon="1.35948">
        <ele>146</ele>
        <time>2020-10-03T07:13:26.000Z</time>
      </trkpt>
      <trkpt lat="43.65809" lon="1.35945">
        <ele>146</ele>
        <time>2020-10-03T07:13:27.000Z</time>
      </trkpt>
      <trkpt lat="43.65806" lon="1.35942">
        <ele>146</ele>
        <time>2020-10-03T07:13:28.000Z</time>
      </trkpt>
      <trkpt lat="43.65804" lon="1.35939">
        <ele>146</ele>
        <time>2020-10-03T07:13:29.000Z</time>
      </trkpt>
      <trkpt lat="43.65803" lon="1.35937">
        <ele>146</ele>
        <time>2020-10-03T07:13:30.000Z</time>
      </trkpt>
      <trkpt lat="43.65802" lon="1.35933">
        <ele>146</ele>
        <time>2020-10-03T07:13:31.000Z</time>
      </trkpt>
      <trkpt lat="43.65801" lon="1.35929">
        <ele>146</ele>
        <time>2020-10-03T07:13:32.000Z</time>
      </trkpt>
      <trkpt lat="43.65801" lon="1.35926">
        <ele>145.63234823529</ele>
        <time>2020-10-03T07:13:33.000Z</time>
      </trkpt>
      <trkpt lat="43.65801" lon="1.35922">
        <ele>145</ele>
        <time>2020-10-03T07:13:34.000Z</time>
      </trkpt>
      <trkpt lat="43.65801" lon="1.35918">
        <ele>145</ele>
        <time>2020-10-03T07:13:35.000Z</time>
      </trkpt>
      <trkpt lat="43.658" lon="1.35914">
        <ele>144.54347886579</ele>
        <time>2020-10-03T07:13:36.000Z</time>
      </trkpt>
      <trkpt lat="43.65801" lon="1.3591">
        <ele>144</ele>
        <time>2020-10-03T07:13:37.000Z</time>
      </trkpt>
      <trkpt lat="43.65801" lon="1.35906">
        <ele>144</ele>
        <time>2020-10-03T07:13:38.000Z</time>
      </trkpt>
      <trkpt lat="43.65802" lon="1.35902">
        <ele>144</ele>
        <time>2020-10-03T07:13:39.000Z</time>
      </trkpt>
      <trkpt lat="43.65803" lon="1.35898">
        <ele>144</ele>
        <time>2020-10-03T07:13:40.000Z</time>
      </trkpt>
      <trkpt lat="43.65805" lon="1.35894">
        <ele>144.45871742781</ele>
        <time>2020-10-03T07:13:41.000Z</time>
      </trkpt>
      <trkpt lat="43.65806" lon="1.35891">
        <ele>145</ele>
        <time>2020-10-03T07:13:42.000Z</time>
      </trkpt>
      <trkpt lat="43.65808" lon="1.35888">
        <ele>145</ele>
        <time>2020-10-03T07:13:43.000Z</time>
      </trkpt>
      <trkpt lat="43.6581" lon="1.35884">
        <ele>145</ele>
        <time>2020-10-03T07:13:44.000Z</time>
      </trkpt>
      <trkpt lat="43.65812" lon="1.35881">
        <ele>145.33027619898</ele>
        <time>2020-10-03T07:13:45.000Z</time>
      </trkpt>
      <trkpt lat="43.65813" lon="1.35878">
        <ele>146</ele>
        <time>2020-10-03T07:13:46.000Z</time>
      </trkpt>
      <trkpt lat="43.65815" lon="1.35874">
        <ele>146</ele>
        <time>2020-10-03T07:13:47.000Z</time>
      </trkpt>
      <trkpt lat="43.65817" lon="1.35871">
        <ele>146</ele>
        <time>2020-10-03T07:13:48.000Z</time>
      </trkpt>
      <trkpt lat="43.6582" lon="1.35868">
        <ele>146</ele>
        <time>2020-10-03T07:13:49.000Z</time>
      </trkpt>
      <trkpt lat="43.65822" lon="1.35866">
        <ele>146</ele>
        <time>2020-10-03T07:13:50.000Z</time>
      </trkpt>
      <trkpt lat="43.65824" lon="1.35863">
        <ele>145.63888592593</ele>
        <time>2020-10-03T07:13:51.000Z</time>
      </trkpt>
      <trkpt lat="43.65826" lon="1.35861">
        <ele>145</ele>
        <time>2020-10-03T07:13:52.000Z</time>
      </trkpt>
      <trkpt lat="43.65829" lon="1.35859">
        <ele>145</ele>
        <time>2020-10-03T07:13:53.000Z</time>
      </trkpt>
      <trkpt lat="43.65831" lon="1.35858">
        <ele>145</ele>
        <time>2020-10-03T07:13:54.000Z</time>
      </trkpt>
      <trkpt lat="43.65834" lon="1.35857">
        <ele>145</ele>
        <time>2020-10-03T07:13:55.000Z</time>
      </trkpt>
      <trkpt lat="43.65837" lon="1.35857">
        <ele>145</ele>
        <time>2020-10-03T07:13:56.000Z</time>
      </trkpt>
      <trkpt lat="43.6584" lon="1.35856">
        <ele>145</ele>
        <time>2020-10-03T07:13:57.000Z</time>
      </trkpt>
      <trkpt lat="43.65843" lon="1.35856">
        <ele>145</ele>
        <time>2020-10-03T07:13:58.000Z</time>
      </trkpt>
      <trkpt lat="43.65846" lon="1.35856">
        <ele>144.77777619752</ele>
        <time>2020-10-03T07:13:59.000Z</time>
      </trkpt>
      <trkpt lat="43.65849" lon="1.35855">
        <ele>144</ele>
        <time>2020-10-03T07:14:00.000Z</time>
      </trkpt>
      <trkpt lat="43.65852" lon="1.35855">
        <ele>144</ele>
        <time>2020-10-03T07:14:01.000Z</time>
      </trkpt>
      <trkpt lat="43.65855" lon="1.35855">
        <ele>144</ele>
        <time>2020-10-03T07:14:02.000Z</time>
      </trkpt>
      <trkpt lat="43.65858" lon="1.35854">
        <ele>144</ele>
        <time>2020-10-03T07:14:03.000Z</time>
      </trkpt>
      <trkpt lat="43.65861" lon="1.35854">
        <ele>143.62832319525</ele>
        <time>2020-10-03T07:14:04.000Z</time>
      </trkpt>
      <trkpt lat="43.65864" lon="1.35854">
        <ele>143</ele>
        <time>2020-10-03T07:14:05.000Z</time>
      </trkpt>
      <trkpt lat="43.65866" lon="1.35853">
        <ele>143</ele>
        <time>2020-10-03T07:14:06.000Z</time>
      </trkpt>
      <trkpt lat="43.65869" lon="1.35853">
        <ele>143.25438458602</ele>
        <time>2020-10-03T07:14:07.000Z</time>
      </trkpt>
      <trkpt lat="43.65872" lon="1.35854">
        <ele>144</ele>
        <time>2020-10-03T07:14:08.000Z</time>
      </trkpt>
      <trkpt lat="43.65875" lon="1.35854">
        <ele>144</ele>
        <time>2020-10-03T07:14:09.000Z</time>
      </trkpt>
      <trkpt lat="43.65878" lon="1.35853">
        <ele>144</ele>
        <time>2020-10-03T07:14:10.000Z</time>
      </trkpt>
      <trkpt lat="43.6588" lon="1.35853">
        <ele>144.46315633463</ele>
        <time>2020-10-03T07:14:11.000Z</time>
      </trkpt>
      <trkpt lat="43.65883" lon="1.35853">
        <ele>145</ele>
        <time>2020-10-03T07:14:12.000Z</time>
      </trkpt>
      <trkpt lat="43.65886" lon="1.35852">
        <ele>145</ele>
        <time>2020-10-03T07:14:13.000Z</time>
      </trkpt>
      <trkpt lat="43.65889" lon="1.35852">
        <ele>145</ele>
        <time>2020-10-03T07:14:14.000Z</time>
      </trkpt>
      <trkpt lat="43.65891" lon="1.35852">
        <ele>145</ele>
        <time>2020-10-03T07:14:15.000Z</time>
      </trkpt>
      <trkpt lat="43.65894" lon="1.35851">
        <ele>145</ele>
        <time>2020-10-03T07:14:16.000Z</time>
      </trkpt>
      <trkpt lat="43.65896" lon="1.3585">
        <ele>144.66406</ele>
        <time>2020-10-03T07:14:17.000Z</time>
      </trkpt>
      <trkpt lat="43.65898" lon="1.35849">
        <ele>144</ele>
        <time>2020-10-03T07:14:18.000Z</time>
      </trkpt>
      <trkpt lat="43.659" lon="1.35849">
        <ele>144</ele>
        <time>2020-10-03T07:14:19.000Z</time>
      </trkpt>
      <trkpt lat="43.65903" lon="1.35849">
        <ele>144</ele>
        <time>2020-10-03T07:14:20.000Z</time>
      </trkpt>
      <trkpt lat="43.65906" lon="1.35849">
        <ele>144</ele>
        <time>2020-10-03T07:14:21.000Z</time>
      </trkpt>
      <trkpt lat="43.65909" lon="1.35849">
        <ele>144</ele>
        <time>2020-10-03T07:14:22.000Z</time>
      </trkpt>
      <trkpt lat="43.65911" lon="1.35852">
        <ele>143.19047909301</ele>
        <time>2020-10-03T07:14:24.000Z</time>
      </trkpt>
      <trkpt lat="43.65912" lon="1.35854">
        <ele>142</ele>
        <time>2020-10-03T07:14:25.000Z</time>
      </trkpt>
      <trkpt lat="43.65914" lon="1.35855">
        <ele>143</ele>
        <time>2020-10-03T07:14:30.000Z</time>
      </trkpt>
      <trkpt lat="43.6592" lon="1.35852">
        <ele>143</ele>
        <time>2020-10-03T07:14:32.000Z</time>
      </trkpt>
      <trkpt lat="43.65922" lon="1.35851">
        <ele>143</ele>
        <time>2020-10-03T07:14:33.000Z</time>
      </trkpt>
      <trkpt lat="43.65925" lon="1.35849">
        <ele>143</ele>
        <time>2020-10-03T07:14:34.000Z</time>
      </trkpt>
      <trkpt lat="43.65928" lon="1.35848">
        <ele>143.4336267147</ele>
        <time>2020-10-03T07:14:35.000Z</time>
      </trkpt>
      <trkpt lat="43.65931" lon="1.35847">
        <ele>144</ele>
        <time>2020-10-03T07:14:36.000Z</time>
      </trkpt>
      <trkpt lat="43.65938" lon="1.35846">
        <ele>144</ele>
        <time>2020-10-03T07:14:38.000Z</time>
      </trkpt>
      <trkpt lat="43.65941" lon="1.35845">
        <ele>144</ele>
        <time>2020-10-03T07:14:39.000Z</time>
      </trkpt>
      <trkpt lat="43.65945" lon="1.35845">
        <ele>144</ele>
        <time>2020-10-03T07:14:40.000Z</time>
      </trkpt>
      <trkpt lat="43.65948" lon="1.35844">
        <ele>144</ele>
        <time>2020-10-03T07:14:41.000Z</time>
      </trkpt>
      <trkpt lat="43.65951" lon="1.35844">
        <ele>144</ele>
        <time>2020-10-03T07:14:42.000Z</time>
      </trkpt>
      <trkpt lat="43.65954" lon="1.35844">
        <ele>144</ele>
        <time>2020-10-03T07:14:43.000Z</time>
      </trkpt>
      <trkpt lat="43.65958" lon="1.35844">
        <ele>144</ele>
        <time>2020-10-03T07:14:44.000Z</time>
      </trkpt>
      <trkpt lat="43.65961" lon="1.35843">
        <ele>143.06383616112</ele>
        <time>2020-10-03T07:14:45.000Z</time>
      </trkpt>
      <trkpt lat="43.65964" lon="1.35843">
        <ele>142</ele>
        <time>2020-10-03T07:14:46.000Z</time>
      </trkpt>
      <trkpt lat="43.65968" lon="1.35842">
        <ele>142</ele>
        <time>2020-10-03T07:14:47.000Z</time>
      </trkpt>
      <trkpt lat="43.65971" lon="1.35841">
        <ele>142</ele>
        <time>2020-10-03T07:14:48.000Z</time>
      </trkpt>
      <trkpt lat="43.65974" lon="1.35841">
        <ele>142</ele>
        <time>2020-10-03T07:14:49.000Z</time>
      </trkpt>
      <trkpt lat="43.65978" lon="1.3584">
        <ele>142.38372006489</ele>
        <time>2020-10-03T07:14:50.000Z</time>
      </trkpt>
      <trkpt lat="43.65981" lon="1.35839">
        <ele>143</ele>
        <time>2020-10-03T07:14:51.000Z</time>
      </trkpt>
      <trkpt lat="43.65984" lon="1.35838">
        <ele>143</ele>
        <time>2020-10-03T07:14:52.000Z</time>
      </trkpt>
      <trkpt lat="43.65988" lon="1.35838">
        <ele>143.45454862808</ele>
        <time>2020-10-03T07:14:53.000Z</time>
      </trkpt>
      <trkpt lat="43.65991" lon="1.35837">
        <ele>144</ele>
        <time>2020-10-03T07:14:54.000Z</time>
      </trkpt>
      <trkpt lat="43.65994" lon="1.35836">
        <ele>144</ele>
        <time>2020-10-03T07:14:55.000Z</time>
      </trkpt>
      <trkpt lat="43.65997" lon="1.35836">
        <ele>144</ele>
        <time>2020-10-03T07:14:56.000Z</time>
      </trkpt>
      <trkpt lat="43.66" lon="1.35835">
        <ele>144</ele>
        <time>2020-10-03T07:14:57.000Z</time>
      </trkpt>
      <trkpt lat="43.66004" lon="1.35835">
        <ele>144</ele>
        <time>2020-10-03T07:14:58.000Z</time>
      </trkpt>
      <trkpt lat="43.66007" lon="1.35834">
        <ele>143.5811981708</ele>
        <time>2020-10-03T07:14:59.000Z</time>
      </trkpt>
      <trkpt lat="43.6601" lon="1.35834">
        <ele>143</ele>
        <time>2020-10-03T07:15:00.000Z</time>
      </trkpt>
      <trkpt lat="43.66013" lon="1.35834">
        <ele>143</ele>
        <time>2020-10-03T07:15:01.000Z</time>
      </trkpt>
      <trkpt lat="43.66016" lon="1.35834">
        <ele>143</ele>
        <time>2020-10-03T07:15:02.000Z</time>
      </trkpt>
      <trkpt lat="43.66019" lon="1.35833">
        <ele>143.30337547281</ele>
        <time>2020-10-03T07:15:03.000Z</time>
      </trkpt>
      <trkpt lat="43.66022" lon="1.35833">
        <ele>144</ele>
        <time>2020-10-03T07:15:04.000Z</time>
      </trkpt>
      <trkpt lat="43.66025" lon="1.35832">
        <ele>144</ele>
        <time>2020-10-03T07:15:05.000Z</time>
      </trkpt>
      <trkpt lat="43.66028" lon="1.35832">
        <ele>144</ele>
        <time>2020-10-03T07:15:06.000Z</time>
      </trkpt>
      <trkpt lat="43.66031" lon="1.35831">
        <ele>143.68539212725</ele>
        <time>2020-10-03T07:15:07.000Z</time>
      </trkpt>
      <trkpt lat="43.66034" lon="1.35831">
        <ele>143</ele>
        <time>2020-10-03T07:15:08.000Z</time>
      </trkpt>
      <trkpt lat="43.66037" lon="1.3583">
        <ele>143</ele>
        <time>2020-10-03T07:15:09.000Z</time>
      </trkpt>
      <trkpt lat="43.6604" lon="1.3583">
        <ele>143</ele>
        <time>2020-10-03T07:15:10.000Z</time>
      </trkpt>
      <trkpt lat="43.66043" lon="1.35829">
        <ele>143</ele>
        <time>2020-10-03T07:15:11.000Z</time>
      </trkpt>
      <trkpt lat="43.66046" lon="1.35829">
        <ele>143</ele>
        <time>2020-10-03T07:15:12.000Z</time>
      </trkpt>
      <trkpt lat="43.66049" lon="1.35828">
        <ele>142.68888667653</ele>
        <time>2020-10-03T07:15:13.000Z</time>
      </trkpt>
      <trkpt lat="43.66052" lon="1.35828">
        <ele>142</ele>
        <time>2020-10-03T07:15:14.000Z</time>
      </trkpt>
      <trkpt lat="43.66055" lon="1.35828">
        <ele>142</ele>
        <time>2020-10-03T07:15:15.000Z</time>
      </trkpt>
      <trkpt lat="43.66058" lon="1.35828">
        <ele>142</ele>
        <time>2020-10-03T07:15:16.000Z</time>
      </trkpt>
      <trkpt lat="43.66061" lon="1.35827">
        <ele>142</ele>
        <time>2020-10-03T07:15:17.000Z</time>
      </trkpt>
      <trkpt lat="43.66063" lon="1.35827">
        <ele>142</ele>
        <time>2020-10-03T07:15:18.000Z</time>
      </trkpt>
      <trkpt lat="43.66066" lon="1.35827">
        <ele>142</ele>
        <time>2020-10-03T07:15:19.000Z</time>
      </trkpt>
      <trkpt lat="43.66069" lon="1.35827">
        <ele>142</ele>
        <time>2020-10-03T07:15:20.000Z</time>
      </trkpt>
      <trkpt lat="43.66072" lon="1.35826">
        <ele>142</ele>
        <time>2020-10-03T07:15:21.000Z</time>
      </trkpt>
      <trkpt lat="43.66075" lon="1.35826">
        <ele>142</ele>
        <time>2020-10-03T07:15:22.000Z</time>
      </trkpt>
      <trkpt lat="43.66077" lon="1.35825">
        <ele>142.40350542319</ele>
        <time>2020-10-03T07:15:23.000Z</time>
      </trkpt>
      <trkpt lat="43.6608" lon="1.35825">
        <ele>143</ele>
        <time>2020-10-03T07:15:24.000Z</time>
      </trkpt>
      <trkpt lat="43.66083" lon="1.35824">
        <ele>143</ele>
        <time>2020-10-03T07:15:25.000Z</time>
      </trkpt>
      <trkpt lat="43.66086" lon="1.35824">
        <ele>143</ele>
        <time>2020-10-03T07:15:26.000Z</time>
      </trkpt>
      <trkpt lat="43.66089" lon="1.35823">
        <ele>143</ele>
        <time>2020-10-03T07:15:27.000Z</time>
      </trkpt>
      <trkpt lat="43.66092" lon="1.35823">
        <ele>143</ele>
        <time>2020-10-03T07:15:28.000Z</time>
      </trkpt>
      <trkpt lat="43.66094" lon="1.35823">
        <ele>143</ele>
        <time>2020-10-03T07:15:29.000Z</time>
      </trkpt>
      <trkpt lat="43.66097" lon="1.35822">
        <ele>143</ele>
        <time>2020-10-03T07:15:30.000Z</time>
      </trkpt>
      <trkpt lat="43.661" lon="1.35822">
        <ele>143</ele>
        <time>2020-10-03T07:15:31.000Z</time>
      </trkpt>
      <trkpt lat="43.66102" lon="1.35821">
        <ele>143</ele>
        <time>2020-10-03T07:15:32.000Z</time>
      </trkpt>
      <trkpt lat="43.66105" lon="1.3582">
        <ele>143</ele>
        <time>2020-10-03T07:15:33.000Z</time>
      </trkpt>
      <trkpt lat="43.66107" lon="1.35819">
        <ele>143</ele>
        <time>2020-10-03T07:15:34.000Z</time>
      </trkpt>
      <trkpt lat="43.66109" lon="1.35818">
        <ele>143</ele>
        <time>2020-10-03T07:15:35.000Z</time>
      </trkpt>
      <trkpt lat="43.66112" lon="1.35816">
        <ele>143</ele>
        <time>2020-10-03T07:15:36.000Z</time>
      </trkpt>
      <trkpt lat="43.66114" lon="1.35814">
        <ele>143</ele>
        <time>2020-10-03T07:15:37.000Z</time>
      </trkpt>
      <trkpt lat="43.66116" lon="1.35811">
        <ele>143</ele>
        <time>2020-10-03T07:15:38.000Z</time>
      </trkpt>
      <trkpt lat="43.66118" lon="1.35808">
        <ele>143</ele>
        <time>2020-10-03T07:15:39.000Z</time>
      </trkpt>
      <trkpt lat="43.66119" lon="1.35805">
        <ele>143</ele>
        <time>2020-10-03T07:15:40.000Z</time>
      </trkpt>
      <trkpt lat="43.66121" lon="1.35802">
        <ele>143</ele>
        <time>2020-10-03T07:15:41.000Z</time>
      </trkpt>
      <trkpt lat="43.66123" lon="1.35799">
        <ele>142.60784559783</ele>
        <time>2020-10-03T07:15:42.000Z</time>
      </trkpt>
      <trkpt lat="43.66124" lon="1.35796">
        <ele>142</ele>
        <time>2020-10-03T07:15:43.000Z</time>
      </trkpt>
      <trkpt lat="43.66126" lon="1.35792">
        <ele>142</ele>
        <time>2020-10-03T07:15:44.000Z</time>
      </trkpt>
      <trkpt lat="43.66127" lon="1.35789">
        <ele>142.71560430269</ele>
        <time>2020-10-03T07:15:45.000Z</time>
      </trkpt>
      <trkpt lat="43.66128" lon="1.35785">
        <ele>144</ele>
        <time>2020-10-03T07:15:46.000Z</time>
      </trkpt>
      <trkpt lat="43.6613" lon="1.35782">
        <ele>144</ele>
        <time>2020-10-03T07:15:47.000Z</time>
      </trkpt>
      <trkpt lat="43.66131" lon="1.35779">
        <ele>144</ele>
        <time>2020-10-03T07:15:48.000Z</time>
      </trkpt>
      <trkpt lat="43.66132" lon="1.35776">
        <ele>144</ele>
        <time>2020-10-03T07:15:49.000Z</time>
      </trkpt>
      <trkpt lat="43.66133" lon="1.35773">
        <ele>144</ele>
        <time>2020-10-03T07:15:50.000Z</time>
      </trkpt>
      <trkpt lat="43.66134" lon="1.3577">
        <ele>143.56179888397</ele>
        <time>2020-10-03T07:15:51.000Z</time>
      </trkpt>
      <trkpt lat="43.66135" lon="1.35767">
        <ele>143</ele>
        <time>2020-10-03T07:15:52.000Z</time>
      </trkpt>
      <trkpt lat="43.66136" lon="1.35763">
        <ele>143</ele>
        <time>2020-10-03T07:15:53.000Z</time>
      </trkpt>
      <trkpt lat="43.66137" lon="1.3576">
        <ele>143</ele>
        <time>2020-10-03T07:15:54.000Z</time>
      </trkpt>
      <trkpt lat="43.66139" lon="1.35757">
        <ele>143.33898488941</ele>
        <time>2020-10-03T07:15:55.000Z</time>
      </trkpt>
      <trkpt lat="43.6614" lon="1.35753">
        <ele>144</ele>
        <time>2020-10-03T07:15:56.000Z</time>
      </trkpt>
      <trkpt lat="43.66141" lon="1.3575">
        <ele>144</ele>
        <time>2020-10-03T07:15:57.000Z</time>
      </trkpt>
      <trkpt lat="43.66142" lon="1.35747">
        <ele>144</ele>
        <time>2020-10-03T07:15:58.000Z</time>
      </trkpt>
      <trkpt lat="43.66143" lon="1.35743">
        <ele>144</ele>
        <time>2020-10-03T07:15:59.000Z</time>
      </trkpt>
      <trkpt lat="43.66144" lon="1.3574">
        <ele>144</ele>
        <time>2020-10-03T07:16:00.000Z</time>
      </trkpt>
      <trkpt lat="43.66146" lon="1.35737">
        <ele>143.27102423619</ele>
        <time>2020-10-03T07:16:01.000Z</time>
      </trkpt>
      <trkpt lat="43.66147" lon="1.35735">
        <ele>142</ele>
        <time>2020-10-03T07:16:02.000Z</time>
      </trkpt>
      <trkpt lat="43.66149" lon="1.35732">
        <ele>142</ele>
        <time>2020-10-03T07:16:03.000Z</time>
      </trkpt>
      <trkpt lat="43.6615" lon="1.35729">
        <ele>142.38372006489</ele>
        <time>2020-10-03T07:16:04.000Z</time>
      </trkpt>
      <trkpt lat="43.66152" lon="1.35726">
        <ele>143</ele>
        <time>2020-10-03T07:16:05.000Z</time>
      </trkpt>
      <trkpt lat="43.66154" lon="1.35723">
        <ele>143</ele>
        <time>2020-10-03T07:16:06.000Z</time>
      </trkpt>
      <trkpt lat="43.66156" lon="1.35719">
        <ele>142.37930527152</ele>
        <time>2020-10-03T07:16:07.000Z</time>
      </trkpt>
      <trkpt lat="43.66157" lon="1.35716">
        <ele>141</ele>
        <time>2020-10-03T07:16:08.000Z</time>
      </trkpt>
      <trkpt lat="43.66159" lon="1.35713">
        <ele>141</ele>
        <time>2020-10-03T07:16:09.000Z</time>
      </trkpt>
      <trkpt lat="43.6616" lon="1.3571">
        <ele>141.43119179868</ele>
        <time>2020-10-03T07:16:10.000Z</time>
      </trkpt>
      <trkpt lat="43.66161" lon="1.35707">
        <ele>142</ele>
        <time>2020-10-03T07:16:11.000Z</time>
      </trkpt>
      <trkpt lat="43.66161" lon="1.35703">
        <ele>142</ele>
        <time>2020-10-03T07:16:12.000Z</time>
      </trkpt>
      <trkpt lat="43.6616" lon="1.357">
        <ele>142</ele>
        <time>2020-10-03T07:16:13.000Z</time>
      </trkpt>
      <trkpt lat="43.66159" lon="1.35696">
        <ele>142</ele>
        <time>2020-10-03T07:16:14.000Z</time>
      </trkpt>
      <trkpt lat="43.66158" lon="1.35692">
        <ele>142.43010900683</ele>
        <time>2020-10-03T07:16:15.000Z</time>
      </trkpt>
      <trkpt lat="43.66158" lon="1.35689">
        <ele>144</ele>
        <time>2020-10-03T07:16:16.000Z</time>
      </trkpt>
      <trkpt lat="43.66159" lon="1.35684">
        <ele>144</ele>
        <time>2020-10-03T07:16:18.000Z</time>
      </trkpt>
      <trkpt lat="43.66161" lon="1.35682">
        <ele>144</ele>
        <time>2020-10-03T07:16:19.000Z</time>
      </trkpt>
      <trkpt lat="43.66163" lon="1.3568">
        <ele>144</ele>
        <time>2020-10-03T07:16:20.000Z</time>
      </trkpt>
      <trkpt lat="43.66164" lon="1.35677">
        <ele>144</ele>
        <time>2020-10-03T07:16:21.000Z</time>
      </trkpt>
      <trkpt lat="43.66166" lon="1.35675">
        <ele>143.6261693423</ele>
        <time>2020-10-03T07:16:22.000Z</time>
      </trkpt>
      <trkpt lat="43.66168" lon="1.35673">
        <ele>143</ele>
        <time>2020-10-03T07:16:23.000Z</time>
      </trkpt>
      <trkpt lat="43.66169" lon="1.3567">
        <ele>143</ele>
        <time>2020-10-03T07:16:24.000Z</time>
      </trkpt>
      <trkpt lat="43.66167" lon="1.3567">
        <ele>144</ele>
        <time>2020-10-03T07:16:27.000Z</time>
      </trkpt>
      <trkpt lat="43.66165" lon="1.35673">
        <ele>144</ele>
        <time>2020-10-03T07:16:28.000Z</time>
      </trkpt>
      <trkpt lat="43.66163" lon="1.35676">
        <ele>144.86598400676</ele>
        <time>2020-10-03T07:16:29.000Z</time>
      </trkpt>
      <trkpt lat="43.66161" lon="1.35679">
        <ele>146</ele>
        <time>2020-10-03T07:16:30.000Z</time>
      </trkpt>
      <trkpt lat="43.66157" lon="1.35684">
        <ele>146.37499428571</ele>
        <time>2020-10-03T07:16:32.000Z</time>
      </trkpt>
      <trkpt lat="43.66155" lon="1.35686">
        <ele>147</ele>
        <time>2020-10-03T07:16:33.000Z</time>
      </trkpt>
      <trkpt lat="43.66153" lon="1.35687">
        <ele>147</ele>
        <time>2020-10-03T07:16:34.000Z</time>
      </trkpt>
      <trkpt lat="43.66151" lon="1.35688">
        <ele>147</ele>
        <time>2020-10-03T07:16:35.000Z</time>
      </trkpt>
      <trkpt lat="43.66148" lon="1.35688">
        <ele>147</ele>
        <time>2020-10-03T07:16:36.000Z</time>
      </trkpt>
      <trkpt lat="43.6615" lon="1.35685">
        <ele>146.42342508562</ele>
        <time>2020-10-03T07:16:39.000Z</time>
      </trkpt>
      <trkpt lat="43.6615" lon="1.35682">
        <ele>145</ele>
        <time>2020-10-03T07:16:40.000Z</time>
      </trkpt>
      <trkpt lat="43.66149" lon="1.35679">
        <ele>145</ele>
        <time>2020-10-03T07:16:41.000Z</time>
      </trkpt>
      <trkpt lat="43.66148" lon="1.35676">
        <ele>145</ele>
        <time>2020-10-03T07:16:42.000Z</time>
      </trkpt>
      <trkpt lat="43.66146" lon="1.35673">
        <ele>145</ele>
        <time>2020-10-03T07:16:43.000Z</time>
      </trkpt>
      <trkpt lat="43.66144" lon="1.3567">
        <ele>145</ele>
        <time>2020-10-03T07:16:44.000Z</time>
      </trkpt>
      <trkpt lat="43.66143" lon="1.35667">
        <ele>145</ele>
        <time>2020-10-03T07:16:45.000Z</time>
      </trkpt>
      <trkpt lat="43.66141" lon="1.35663">
        <ele>145</ele>
        <time>2020-10-03T07:16:46.000Z</time>
      </trkpt>
      <trkpt lat="43.66139" lon="1.3566">
        <ele>145</ele>
        <time>2020-10-03T07:16:47.000Z</time>
      </trkpt>
      <trkpt lat="43.66137" lon="1.35657">
        <ele>145</ele>
        <time>2020-10-03T07:16:48.000Z</time>
      </trkpt>
      <trkpt lat="43.66135" lon="1.35654">
        <ele>145</ele>
        <time>2020-10-03T07:16:49.000Z</time>
      </trkpt>
      <trkpt lat="43.66134" lon="1.3565">
        <ele>145</ele>
        <time>2020-10-03T07:16:50.000Z</time>
      </trkpt>
      <trkpt lat="43.66132" lon="1.35647">
        <ele>145</ele>
        <time>2020-10-03T07:16:51.000Z</time>
      </trkpt>
      <trkpt lat="43.6613" lon="1.35644">
        <ele>145</ele>
        <time>2020-10-03T07:16:52.000Z</time>
      </trkpt>
      <trkpt lat="43.66128" lon="1.35641">
        <ele>145</ele>
        <time>2020-10-03T07:16:53.000Z</time>
      </trkpt>
      <trkpt lat="43.66126" lon="1.35638">
        <ele>145</ele>
        <time>2020-10-03T07:16:54.000Z</time>
      </trkpt>
      <trkpt lat="43.66124" lon="1.35635">
        <ele>145</ele>
        <time>2020-10-03T07:16:55.000Z</time>
      </trkpt>
      <trkpt lat="43.66122" lon="1.35632">
        <ele>145</ele>
        <time>2020-10-03T07:16:56.000Z</time>
      </trkpt>
      <trkpt lat="43.66121" lon="1.35628">
        <ele>145</ele>
        <time>2020-10-03T07:16:57.000Z</time>
      </trkpt>
      <trkpt lat="43.66119" lon="1.35625">
        <ele>145</ele>
        <time>2020-10-03T07:16:58.000Z</time>
      </trkpt>
      <trkpt lat="43.66117" lon="1.35622">
        <ele>145</ele>
        <time>2020-10-03T07:16:59.000Z</time>
      </trkpt>
      <trkpt lat="43.66115" lon="1.35619">
        <ele>144.64545369918</ele>
        <time>2020-10-03T07:17:00.000Z</time>
      </trkpt>
      <trkpt lat="43.66114" lon="1.35616">
        <ele>144</ele>
        <time>2020-10-03T07:17:01.000Z</time>
      </trkpt>
      <trkpt lat="43.66112" lon="1.35613">
        <ele>144</ele>
        <time>2020-10-03T07:17:02.000Z</time>
      </trkpt>
      <trkpt lat="43.6611" lon="1.35612">
        <ele>144</ele>
        <time>2020-10-03T07:17:03.000Z</time>
      </trkpt>
      <trkpt lat="43.66107" lon="1.3561">
        <ele>143.53191170663</ele>
        <time>2020-10-03T07:17:04.000Z</time>
      </trkpt>
      <trkpt lat="43.66104" lon="1.35608">
        <ele>143</ele>
        <time>2020-10-03T07:17:05.000Z</time>
      </trkpt>
      <trkpt lat="43.66103" lon="1.35604">
        <ele>143</ele>
        <time>2020-10-03T07:17:06.000Z</time>
      </trkpt>
      <trkpt lat="43.66102" lon="1.35601">
        <ele>143</ele>
        <time>2020-10-03T07:17:07.000Z</time>
      </trkpt>
      <trkpt lat="43.661" lon="1.35597">
        <ele>143</ele>
        <time>2020-10-03T07:17:08.000Z</time>
      </trkpt>
      <trkpt lat="43.66099" lon="1.35594">
        <ele>143</ele>
        <time>2020-10-03T07:17:09.000Z</time>
      </trkpt>
      <trkpt lat="43.66097" lon="1.3559">
        <ele>143</ele>
        <time>2020-10-03T07:17:10.000Z</time>
      </trkpt>
      <trkpt lat="43.66096" lon="1.35587">
        <ele>143</ele>
        <time>2020-10-03T07:17:11.000Z</time>
      </trkpt>
      <trkpt lat="43.66095" lon="1.35584">
        <ele>143.35714285714</ele>
        <time>2020-10-03T07:17:12.000Z</time>
      </trkpt>
      <trkpt lat="43.66095" lon="1.35581">
        <ele>144</ele>
        <time>2020-10-03T07:17:13.000Z</time>
      </trkpt>
      <trkpt lat="43.66096" lon="1.35578">
        <ele>144</ele>
        <time>2020-10-03T07:17:14.000Z</time>
      </trkpt>
      <trkpt lat="43.66097" lon="1.35575">
        <ele>144</ele>
        <time>2020-10-03T07:17:15.000Z</time>
      </trkpt>
      <trkpt lat="43.66097" lon="1.35571">
        <ele>144</ele>
        <time>2020-10-03T07:17:16.000Z</time>
      </trkpt>
      <trkpt lat="43.66096" lon="1.35567">
        <ele>144</ele>
        <time>2020-10-03T07:17:17.000Z</time>
      </trkpt>
      <trkpt lat="43.66095" lon="1.35563">
        <ele>144</ele>
        <time>2020-10-03T07:17:18.000Z</time>
      </trkpt>
      <trkpt lat="43.66093" lon="1.3556">
        <ele>144</ele>
        <time>2020-10-03T07:17:19.000Z</time>
      </trkpt>
      <trkpt lat="43.66092" lon="1.35556">
        <ele>144</ele>
        <time>2020-10-03T07:17:20.000Z</time>
      </trkpt>
      <trkpt lat="43.66091" lon="1.35553">
        <ele>144</ele>
        <time>2020-10-03T07:17:21.000Z</time>
      </trkpt>
      <trkpt lat="43.6609" lon="1.35549">
        <ele>144</ele>
        <time>2020-10-03T07:17:22.000Z</time>
      </trkpt>
      <trkpt lat="43.66089" lon="1.35545">
        <ele>144</ele>
        <time>2020-10-03T07:17:23.000Z</time>
      </trkpt>
      <trkpt lat="43.66088" lon="1.35542">
        <ele>144</ele>
        <time>2020-10-03T07:17:24.000Z</time>
      </trkpt>
      <trkpt lat="43.66087" lon="1.35538">
        <ele>143.69411357236</ele>
        <time>2020-10-03T07:17:25.000Z</time>
      </trkpt>
      <trkpt lat="43.66086" lon="1.35534">
        <ele>143</ele>
        <time>2020-10-03T07:17:26.000Z</time>
      </trkpt>
      <trkpt lat="43.66085" lon="1.35531">
        <ele>143</ele>
        <time>2020-10-03T07:17:27.000Z</time>
      </trkpt>
      <trkpt lat="43.66084" lon="1.35527">
        <ele>143</ele>
        <time>2020-10-03T07:17:28.000Z</time>
      </trkpt>
      <trkpt lat="43.66083" lon="1.35524">
        <ele>143</ele>
        <time>2020-10-03T07:17:29.000Z</time>
      </trkpt>
      <trkpt lat="43.66082" lon="1.3552">
        <ele>143.45871107145</ele>
        <time>2020-10-03T07:17:30.000Z</time>
      </trkpt>
      <trkpt lat="43.66081" lon="1.35517">
        <ele>144</ele>
        <time>2020-10-03T07:17:31.000Z</time>
      </trkpt>
      <trkpt lat="43.6608" lon="1.35513">
        <ele>144</ele>
        <time>2020-10-03T07:17:32.000Z</time>
      </trkpt>
      <trkpt lat="43.66079" lon="1.3551">
        <ele>144</ele>
        <time>2020-10-03T07:17:33.000Z</time>
      </trkpt>
      <trkpt lat="43.66078" lon="1.35507">
        <ele>144</ele>
        <time>2020-10-03T07:17:34.000Z</time>
      </trkpt>
      <trkpt lat="43.66078" lon="1.35504">
        <ele>144</ele>
        <time>2020-10-03T07:17:35.000Z</time>
      </trkpt>
      <trkpt lat="43.66076" lon="1.35501">
        <ele>144.31395487289</ele>
        <time>2020-10-03T07:17:36.000Z</time>
      </trkpt>
      <trkpt lat="43.66075" lon="1.35498">
        <ele>145</ele>
        <time>2020-10-03T07:17:37.000Z</time>
      </trkpt>
      <trkpt lat="43.66075" lon="1.35494">
        <ele>145</ele>
        <time>2020-10-03T07:17:38.000Z</time>
      </trkpt>
      <trkpt lat="43.66074" lon="1.35491">
        <ele>145</ele>
        <time>2020-10-03T07:17:39.000Z</time>
      </trkpt>
      <trkpt lat="43.66073" lon="1.35487">
        <ele>145</ele>
        <time>2020-10-03T07:17:40.000Z</time>
      </trkpt>
      <trkpt lat="43.66072" lon="1.35483">
        <ele>145</ele>
        <time>2020-10-03T07:17:41.000Z</time>
      </trkpt>
      <trkpt lat="43.66072" lon="1.35479">
        <ele>144.54736657729</ele>
        <time>2020-10-03T07:17:42.000Z</time>
      </trkpt>
      <trkpt lat="43.66071" lon="1.35475">
        <ele>144</ele>
        <time>2020-10-03T07:17:43.000Z</time>
      </trkpt>
      <trkpt lat="43.6607" lon="1.35472">
        <ele>144</ele>
        <time>2020-10-03T07:17:44.000Z</time>
      </trkpt>
      <trkpt lat="43.66069" lon="1.35468">
        <ele>144.31521391304</ele>
        <time>2020-10-03T07:17:45.000Z</time>
      </trkpt>
      <trkpt lat="43.66068" lon="1.35464">
        <ele>145</ele>
        <time>2020-10-03T07:17:46.000Z</time>
      </trkpt>
      <trkpt lat="43.66067" lon="1.35461">
        <ele>145</ele>
        <time>2020-10-03T07:17:47.000Z</time>
      </trkpt>
      <trkpt lat="43.66066" lon="1.35457">
        <ele>145</ele>
        <time>2020-10-03T07:17:48.000Z</time>
      </trkpt>
      <trkpt lat="43.66066" lon="1.35453">
        <ele>145</ele>
        <time>2020-10-03T07:17:49.000Z</time>
      </trkpt>
      <trkpt lat="43.66065" lon="1.3545">
        <ele>145</ele>
        <time>2020-10-03T07:17:50.000Z</time>
      </trkpt>
      <trkpt lat="43.66064" lon="1.35446">
        <ele>145</ele>
        <time>2020-10-03T07:17:51.000Z</time>
      </trkpt>
      <trkpt lat="43.66063" lon="1.35442">
        <ele>145</ele>
        <time>2020-10-03T07:17:52.000Z</time>
      </trkpt>
      <trkpt lat="43.66062" lon="1.35438">
        <ele>145</ele>
        <time>2020-10-03T07:17:53.000Z</time>
      </trkpt>
      <trkpt lat="43.66062" lon="1.35435">
        <ele>145</ele>
        <time>2020-10-03T07:17:54.000Z</time>
      </trkpt>
      <trkpt lat="43.66061" lon="1.35431">
        <ele>145</ele>
        <time>2020-10-03T07:17:55.000Z</time>
      </trkpt>
      <trkpt lat="43.66061" lon="1.35427">
        <ele>145</ele>
        <time>2020-10-03T07:17:56.000Z</time>
      </trkpt>
      <trkpt lat="43.6606" lon="1.35423">
        <ele>144.68888667653</ele>
        <time>2020-10-03T07:17:57.000Z</time>
      </trkpt>
      <trkpt lat="43.6606" lon="1.3542">
        <ele>144</ele>
        <time>2020-10-03T07:17:58.000Z</time>
      </trkpt>
      <trkpt lat="43.66059" lon="1.35416">
        <ele>144</ele>
        <time>2020-10-03T07:17:59.000Z</time>
      </trkpt>
      <trkpt lat="43.66059" lon="1.35413">
        <ele>144</ele>
        <time>2020-10-03T07:18:00.000Z</time>
      </trkpt>
      <trkpt lat="43.66059" lon="1.35409">
        <ele>144</ele>
        <time>2020-10-03T07:18:01.000Z</time>
      </trkpt>
      <trkpt lat="43.66058" lon="1.35405">
        <ele>144</ele>
        <time>2020-10-03T07:18:02.000Z</time>
      </trkpt>
      <trkpt lat="43.66057" lon="1.35402">
        <ele>144</ele>
        <time>2020-10-03T07:18:03.000Z</time>
      </trkpt>
      <trkpt lat="43.66057" lon="1.35398">
        <ele>144</ele>
        <time>2020-10-03T07:18:04.000Z</time>
      </trkpt>
      <trkpt lat="43.66056" lon="1.35395">
        <ele>144</ele>
        <time>2020-10-03T07:18:05.000Z</time>
      </trkpt>
      <trkpt lat="43.66056" lon="1.35392">
        <ele>144</ele>
        <time>2020-10-03T07:18:06.000Z</time>
      </trkpt>
      <trkpt lat="43.66055" lon="1.35388">
        <ele>144</ele>
        <time>2020-10-03T07:18:07.000Z</time>
      </trkpt>
      <trkpt lat="43.66055" lon="1.35385">
        <ele>144</ele>
        <time>2020-10-03T07:18:08.000Z</time>
      </trkpt>
      <trkpt lat="43.66054" lon="1.35381">
        <ele>144</ele>
        <time>2020-10-03T07:18:09.000Z</time>
      </trkpt>
      <trkpt lat="43.66054" lon="1.35378">
        <ele>144</ele>
        <time>2020-10-03T07:18:10.000Z</time>
      </trkpt>
      <trkpt lat="43.66053" lon="1.35375">
        <ele>144</ele>
        <time>2020-10-03T07:18:11.000Z</time>
      </trkpt>
      <trkpt lat="43.66053" lon="1.35371">
        <ele>144</ele>
        <time>2020-10-03T07:18:12.000Z</time>
      </trkpt>
      <trkpt lat="43.66052" lon="1.35367">
        <ele>144</ele>
        <time>2020-10-03T07:18:13.000Z</time>
      </trkpt>
      <trkpt lat="43.66052" lon="1.35364">
        <ele>144</ele>
        <time>2020-10-03T07:18:14.000Z</time>
      </trkpt>
      <trkpt lat="43.66051" lon="1.3536">
        <ele>144</ele>
        <time>2020-10-03T07:18:15.000Z</time>
      </trkpt>
      <trkpt lat="43.66051" lon="1.35356">
        <ele>144</ele>
        <time>2020-10-03T07:18:16.000Z</time>
      </trkpt>
      <trkpt lat="43.66051" lon="1.35352">
        <ele>144</ele>
        <time>2020-10-03T07:18:17.000Z</time>
      </trkpt>
      <trkpt lat="43.6605" lon="1.35349">
        <ele>144</ele>
        <time>2020-10-03T07:18:18.000Z</time>
      </trkpt>
      <trkpt lat="43.6605" lon="1.35345">
        <ele>144</ele>
        <time>2020-10-03T07:18:19.000Z</time>
      </trkpt>
      <trkpt lat="43.6605" lon="1.35342">
        <ele>144</ele>
        <time>2020-10-03T07:18:20.000Z</time>
      </trkpt>
      <trkpt lat="43.66049" lon="1.35338">
        <ele>144</ele>
        <time>2020-10-03T07:18:21.000Z</time>
      </trkpt>
      <trkpt lat="43.66049" lon="1.35334">
        <ele>144</ele>
        <time>2020-10-03T07:18:22.000Z</time>
      </trkpt>
      <trkpt lat="43.66049" lon="1.35331">
        <ele>144</ele>
        <time>2020-10-03T07:18:23.000Z</time>
      </trkpt>
      <trkpt lat="43.66048" lon="1.35327">
        <ele>143.73213714286</ele>
        <time>2020-10-03T07:18:24.000Z</time>
      </trkpt>
      <trkpt lat="43.66048" lon="1.35323">
        <ele>143</ele>
        <time>2020-10-03T07:18:25.000Z</time>
      </trkpt>
      <trkpt lat="43.66048" lon="1.35319">
        <ele>143</ele>
        <time>2020-10-03T07:18:26.000Z</time>
      </trkpt>
      <trkpt lat="43.66047" lon="1.35315">
        <ele>143</ele>
        <time>2020-10-03T07:18:27.000Z</time>
      </trkpt>
      <trkpt lat="43.66047" lon="1.35307">
        <ele>143</ele>
        <time>2020-10-03T07:18:29.000Z</time>
      </trkpt>
      <trkpt lat="43.66047" lon="1.35303">
        <ele>143</ele>
        <time>2020-10-03T07:18:30.000Z</time>
      </trkpt>
      <trkpt lat="43.66046" lon="1.35299">
        <ele>143</ele>
        <time>2020-10-03T07:18:31.000Z</time>
      </trkpt>
      <trkpt lat="43.66046" lon="1.35295">
        <ele>143.44247346541</ele>
        <time>2020-10-03T07:18:32.000Z</time>
      </trkpt>
      <trkpt lat="43.66046" lon="1.35291">
        <ele>144</ele>
        <time>2020-10-03T07:18:33.000Z</time>
      </trkpt>
      <trkpt lat="43.66045" lon="1.35287">
        <ele>144</ele>
        <time>2020-10-03T07:18:34.000Z</time>
      </trkpt>
      <trkpt lat="43.66045" lon="1.35283">
        <ele>143.62121094583</ele>
        <time>2020-10-03T07:18:35.000Z</time>
      </trkpt>
      <trkpt lat="43.66044" lon="1.35279">
        <ele>143</ele>
        <time>2020-10-03T07:18:36.000Z</time>
      </trkpt>
      <trkpt lat="43.66044" lon="1.35275">
        <ele>143</ele>
        <time>2020-10-03T07:18:37.000Z</time>
      </trkpt>
      <trkpt lat="43.66044" lon="1.35271">
        <ele>143</ele>
        <time>2020-10-03T07:18:38.000Z</time>
      </trkpt>
      <trkpt lat="43.66043" lon="1.35267">
        <ele>143</ele>
        <time>2020-10-03T07:18:39.000Z</time>
      </trkpt>
      <trkpt lat="43.66043" lon="1.35264">
        <ele>143</ele>
        <time>2020-10-03T07:18:40.000Z</time>
      </trkpt>
      <trkpt lat="43.66043" lon="1.3526">
        <ele>143</ele>
        <time>2020-10-03T07:18:41.000Z</time>
      </trkpt>
      <trkpt lat="43.66042" lon="1.35256">
        <ele>143</ele>
        <time>2020-10-03T07:18:42.000Z</time>
      </trkpt>
      <trkpt lat="43.66042" lon="1.35252">
        <ele>143</ele>
        <time>2020-10-03T07:18:43.000Z</time>
      </trkpt>
      <trkpt lat="43.66041" lon="1.35248">
        <ele>143</ele>
        <time>2020-10-03T07:18:44.000Z</time>
      </trkpt>
      <trkpt lat="43.6604" lon="1.35244">
        <ele>143</ele>
        <time>2020-10-03T07:18:45.000Z</time>
      </trkpt>
      <trkpt lat="43.6604" lon="1.3524">
        <ele>142.98182410575</ele>
        <time>2020-10-03T07:18:46.000Z</time>
      </trkpt>
      <trkpt lat="43.6604" lon="1.35237">
        <ele>142</ele>
        <time>2020-10-03T07:18:47.000Z</time>
      </trkpt>
      <trkpt lat="43.66039" lon="1.35233">
        <ele>142</ele>
        <time>2020-10-03T07:18:48.000Z</time>
      </trkpt>
      <trkpt lat="43.66039" lon="1.35229">
        <ele>142</ele>
        <time>2020-10-03T07:18:49.000Z</time>
      </trkpt>
      <trkpt lat="43.66039" lon="1.35225">
        <ele>142</ele>
        <time>2020-10-03T07:18:50.000Z</time>
      </trkpt>
      <trkpt lat="43.66038" lon="1.35221">
        <ele>142</ele>
        <time>2020-10-03T07:18:51.000Z</time>
      </trkpt>
      <trkpt lat="43.66038" lon="1.35217">
        <ele>142</ele>
        <time>2020-10-03T07:18:52.000Z</time>
      </trkpt>
      <trkpt lat="43.66037" lon="1.35213">
        <ele>142</ele>
        <time>2020-10-03T07:18:53.000Z</time>
      </trkpt>
      <trkpt lat="43.66037" lon="1.3521">
        <ele>142</ele>
        <time>2020-10-03T07:18:54.000Z</time>
      </trkpt>
      <trkpt lat="43.66037" lon="1.35206">
        <ele>142</ele>
        <time>2020-10-03T07:18:55.000Z</time>
      </trkpt>
      <trkpt lat="43.66036" lon="1.35202">
        <ele>142</ele>
        <time>2020-10-03T07:18:56.000Z</time>
      </trkpt>
      <trkpt lat="43.66036" lon="1.35198">
        <ele>142</ele>
        <time>2020-10-03T07:18:57.000Z</time>
      </trkpt>
      <trkpt lat="43.66035" lon="1.35195">
        <ele>142</ele>
        <time>2020-10-03T07:18:58.000Z</time>
      </trkpt>
      <trkpt lat="43.66035" lon="1.35191">
        <ele>142</ele>
        <time>2020-10-03T07:18:59.000Z</time>
      </trkpt>
      <trkpt lat="43.66035" lon="1.35188">
        <ele>142</ele>
        <time>2020-10-03T07:19:00.000Z</time>
      </trkpt>
      <trkpt lat="43.66034" lon="1.35184">
        <ele>142</ele>
        <time>2020-10-03T07:19:01.000Z</time>
      </trkpt>
      <trkpt lat="43.66034" lon="1.3518">
        <ele>142</ele>
        <time>2020-10-03T07:19:02.000Z</time>
      </trkpt>
      <trkpt lat="43.66033" lon="1.35176">
        <ele>142</ele>
        <time>2020-10-03T07:19:03.000Z</time>
      </trkpt>
      <trkpt lat="43.66033" lon="1.35172">
        <ele>142</ele>
        <time>2020-10-03T07:19:04.000Z</time>
      </trkpt>
      <trkpt lat="43.66033" lon="1.35168">
        <ele>142</ele>
        <time>2020-10-03T07:19:05.000Z</time>
      </trkpt>
      <trkpt lat="43.66033" lon="1.35164">
        <ele>142</ele>
        <time>2020-10-03T07:19:06.000Z</time>
      </trkpt>
      <trkpt lat="43.66032" lon="1.3516">
        <ele>142</ele>
        <time>2020-10-03T07:19:07.000Z</time>
      </trkpt>
      <trkpt lat="43.66032" lon="1.35156">
        <ele>142</ele>
        <time>2020-10-03T07:19:08.000Z</time>
      </trkpt>
      <trkpt lat="43.66032" lon="1.35152">
        <ele>142</ele>
        <time>2020-10-03T07:19:09.000Z</time>
      </trkpt>
      <trkpt lat="43.66031" lon="1.35148">
        <ele>142</ele>
        <time>2020-10-03T07:19:10.000Z</time>
      </trkpt>
      <trkpt lat="43.66031" lon="1.35144">
        <ele>142</ele>
        <time>2020-10-03T07:19:11.000Z</time>
      </trkpt>
      <trkpt lat="43.66031" lon="1.3514">
        <ele>141.52884923077</ele>
        <time>2020-10-03T07:19:12.000Z</time>
      </trkpt>
      <trkpt lat="43.66031" lon="1.35136">
        <ele>141</ele>
        <time>2020-10-03T07:19:13.000Z</time>
      </trkpt>
      <trkpt lat="43.6603" lon="1.35132">
        <ele>141</ele>
        <time>2020-10-03T07:19:14.000Z</time>
      </trkpt>
      <trkpt lat="43.6603" lon="1.35128">
        <ele>141</ele>
        <time>2020-10-03T07:19:15.000Z</time>
      </trkpt>
      <trkpt lat="43.6603" lon="1.35124">
        <ele>141</ele>
        <time>2020-10-03T07:19:16.000Z</time>
      </trkpt>
      <trkpt lat="43.6603" lon="1.3512">
        <ele>141</ele>
        <time>2020-10-03T07:19:17.000Z</time>
      </trkpt>
      <trkpt lat="43.6603" lon="1.35116">
        <ele>140.53333495873</ele>
        <time>2020-10-03T07:19:18.000Z</time>
      </trkpt>
      <trkpt lat="43.66029" lon="1.35112">
        <ele>140</ele>
        <time>2020-10-03T07:19:19.000Z</time>
      </trkpt>
      <trkpt lat="43.66029" lon="1.35108">
        <ele>140</ele>
        <time>2020-10-03T07:19:20.000Z</time>
      </trkpt>
      <trkpt lat="43.66029" lon="1.35105">
        <ele>140.14049359469</ele>
        <time>2020-10-03T07:19:21.000Z</time>
      </trkpt>
      <trkpt lat="43.66028" lon="1.35101">
        <ele>140.96694206133</ele>
        <time>2020-10-03T07:19:22.000Z</time>
      </trkpt>
      <trkpt lat="43.66028" lon="1.35097">
        <ele>141</ele>
        <time>2020-10-03T07:19:23.000Z</time>
      </trkpt>
      <trkpt lat="43.66028" lon="1.35093">
        <ele>141</ele>
        <time>2020-10-03T07:19:24.000Z</time>
      </trkpt>
      <trkpt lat="43.66027" lon="1.3509">
        <ele>141</ele>
        <time>2020-10-03T07:19:25.000Z</time>
      </trkpt>
      <trkpt lat="43.66027" lon="1.35086">
        <ele>141</ele>
        <time>2020-10-03T07:19:26.000Z</time>
      </trkpt>
      <trkpt lat="43.66026" lon="1.35082">
        <ele>141.36035932149</ele>
        <time>2020-10-03T07:19:27.000Z</time>
      </trkpt>
      <trkpt lat="43.66026" lon="1.35079">
        <ele>142</ele>
        <time>2020-10-03T07:19:28.000Z</time>
      </trkpt>
      <trkpt lat="43.66026" lon="1.35075">
        <ele>142</ele>
        <time>2020-10-03T07:19:29.000Z</time>
      </trkpt>
      <trkpt lat="43.66026" lon="1.35071">
        <ele>142</ele>
        <time>2020-10-03T07:19:30.000Z</time>
      </trkpt>
      <trkpt lat="43.66026" lon="1.35068">
        <ele>142</ele>
        <time>2020-10-03T07:19:31.000Z</time>
      </trkpt>
      <trkpt lat="43.66025" lon="1.35064">
        <ele>142</ele>
        <time>2020-10-03T07:19:32.000Z</time>
      </trkpt>
      <trkpt lat="43.66025" lon="1.3506">
        <ele>142</ele>
        <time>2020-10-03T07:19:33.000Z</time>
      </trkpt>
      <trkpt lat="43.66025" lon="1.35056">
        <ele>142</ele>
        <time>2020-10-03T07:19:34.000Z</time>
      </trkpt>
      <trkpt lat="43.66025" lon="1.35053">
        <ele>142</ele>
        <time>2020-10-03T07:19:35.000Z</time>
      </trkpt>
      <trkpt lat="43.66025" lon="1.3505">
        <ele>142</ele>
        <time>2020-10-03T07:19:36.000Z</time>
      </trkpt>
      <trkpt lat="43.66025" lon="1.35046">
        <ele>142</ele>
        <time>2020-10-03T07:19:37.000Z</time>
      </trkpt>
      <trkpt lat="43.66024" lon="1.35043">
        <ele>142</ele>
        <time>2020-10-03T07:19:38.000Z</time>
      </trkpt>
      <trkpt lat="43.66024" lon="1.3504">
        <ele>142</ele>
        <time>2020-10-03T07:19:39.000Z</time>
      </trkpt>
      <trkpt lat="43.66024" lon="1.35036">
        <ele>142</ele>
        <time>2020-10-03T07:19:40.000Z</time>
      </trkpt>
      <trkpt lat="43.66023" lon="1.35032">
        <ele>142</ele>
        <time>2020-10-03T07:19:41.000Z</time>
      </trkpt>
      <trkpt lat="43.66023" lon="1.35028">
        <ele>142</ele>
        <time>2020-10-03T07:19:42.000Z</time>
      </trkpt>
      <trkpt lat="43.66023" lon="1.35024">
        <ele>142</ele>
        <time>2020-10-03T07:19:43.000Z</time>
      </trkpt>
      <trkpt lat="43.66023" lon="1.35021">
        <ele>142</ele>
        <time>2020-10-03T07:19:44.000Z</time>
      </trkpt>
      <trkpt lat="43.66022" lon="1.35017">
        <ele>142</ele>
        <time>2020-10-03T07:19:45.000Z</time>
      </trkpt>
      <trkpt lat="43.66022" lon="1.35013">
        <ele>142</ele>
        <time>2020-10-03T07:19:46.000Z</time>
      </trkpt>
      <trkpt lat="43.66022" lon="1.35009">
        <ele>141.61403292089</ele>
        <time>2020-10-03T07:19:47.000Z</time>
      </trkpt>
      <trkpt lat="43.66021" lon="1.35005">
        <ele>141</ele>
        <time>2020-10-03T07:19:48.000Z</time>
      </trkpt>
      <trkpt lat="43.66021" lon="1.35001">
        <ele>141</ele>
        <time>2020-10-03T07:19:49.000Z</time>
      </trkpt>
      <trkpt lat="43.66021" lon="1.34997">
        <ele>141.36470552803</ele>
        <time>2020-10-03T07:19:50.000Z</time>
      </trkpt>
      <trkpt lat="43.66021" lon="1.34993">
        <ele>142</ele>
        <time>2020-10-03T07:19:51.000Z</time>
      </trkpt>
      <trkpt lat="43.66021" lon="1.34989">
        <ele>142</ele>
        <time>2020-10-03T07:19:52.000Z</time>
      </trkpt>
      <trkpt lat="43.66021" lon="1.34986">
        <ele>142</ele>
        <time>2020-10-03T07:19:53.000Z</time>
      </trkpt>
      <trkpt lat="43.66021" lon="1.34982">
        <ele>142</ele>
        <time>2020-10-03T07:19:54.000Z</time>
      </trkpt>
      <trkpt lat="43.66021" lon="1.34978">
        <ele>142</ele>
        <time>2020-10-03T07:19:55.000Z</time>
      </trkpt>
      <trkpt lat="43.66021" lon="1.34975">
        <ele>141.42168897662</ele>
        <time>2020-10-03T07:19:56.000Z</time>
      </trkpt>
      <trkpt lat="43.66021" lon="1.34971">
        <ele>140</ele>
        <time>2020-10-03T07:19:57.000Z</time>
      </trkpt>
      <trkpt lat="43.66022" lon="1.34968">
        <ele>140</ele>
        <time>2020-10-03T07:19:58.000Z</time>
      </trkpt>
      <trkpt lat="43.66023" lon="1.34965">
        <ele>140</ele>
        <time>2020-10-03T07:19:59.000Z</time>
      </trkpt>
      <trkpt lat="43.66025" lon="1.34957">
        <ele>140</ele>
        <time>2020-10-03T07:20:01.000Z</time>
      </trkpt>
      <trkpt lat="43.66026" lon="1.34953">
        <ele>140</ele>
        <time>2020-10-03T07:20:02.000Z</time>
      </trkpt>
      <trkpt lat="43.66027" lon="1.34949">
        <ele>140</ele>
        <time>2020-10-03T07:20:03.000Z</time>
      </trkpt>
      <trkpt lat="43.66028" lon="1.34945">
        <ele>140</ele>
        <time>2020-10-03T07:20:04.000Z</time>
      </trkpt>
      <trkpt lat="43.66028" lon="1.34942">
        <ele>140</ele>
        <time>2020-10-03T07:20:05.000Z</time>
      </trkpt>
      <trkpt lat="43.66029" lon="1.34938">
        <ele>140</ele>
        <time>2020-10-03T07:20:06.000Z</time>
      </trkpt>
      <trkpt lat="43.66029" lon="1.34934">
        <ele>140.73810285714</ele>
        <time>2020-10-03T07:20:07.000Z</time>
      </trkpt>
      <trkpt lat="43.6603" lon="1.3493">
        <ele>142</ele>
        <time>2020-10-03T07:20:08.000Z</time>
      </trkpt>
      <trkpt lat="43.66031" lon="1.34926">
        <ele>142</ele>
        <time>2020-10-03T07:20:09.000Z</time>
      </trkpt>
      <trkpt lat="43.66032" lon="1.34922">
        <ele>142</ele>
        <time>2020-10-03T07:20:10.000Z</time>
      </trkpt>
      <trkpt lat="43.66033" lon="1.34919">
        <ele>142</ele>
        <time>2020-10-03T07:20:11.000Z</time>
      </trkpt>
      <trkpt lat="43.66034" lon="1.34915">
        <ele>142</ele>
        <time>2020-10-03T07:20:12.000Z</time>
      </trkpt>
      <trkpt lat="43.66034" lon="1.34911">
        <ele>141.63094857143</ele>
        <time>2020-10-03T07:20:13.000Z</time>
      </trkpt>
      <trkpt lat="43.66035" lon="1.34907">
        <ele>141</ele>
        <time>2020-10-03T07:20:14.000Z</time>
      </trkpt>
      <trkpt lat="43.66036" lon="1.34903">
        <ele>141</ele>
        <time>2020-10-03T07:20:15.000Z</time>
      </trkpt>
      <trkpt lat="43.66036" lon="1.349">
        <ele>141</ele>
        <time>2020-10-03T07:20:16.000Z</time>
      </trkpt>
      <trkpt lat="43.66036" lon="1.34896">
        <ele>141</ele>
        <time>2020-10-03T07:20:17.000Z</time>
      </trkpt>
      <trkpt lat="43.66037" lon="1.34893">
        <ele>141</ele>
        <time>2020-10-03T07:20:18.000Z</time>
      </trkpt>
      <trkpt lat="43.66037" lon="1.34889">
        <ele>141</ele>
        <time>2020-10-03T07:20:19.000Z</time>
      </trkpt>
      <trkpt lat="43.66036" lon="1.34886">
        <ele>141</ele>
        <time>2020-10-03T07:20:20.000Z</time>
      </trkpt>
      <trkpt lat="43.66036" lon="1.34882">
        <ele>141</ele>
        <time>2020-10-03T07:20:21.000Z</time>
      </trkpt>
      <trkpt lat="43.66035" lon="1.34878">
        <ele>141.36470552803</ele>
        <time>2020-10-03T07:20:22.000Z</time>
      </trkpt>
      <trkpt lat="43.66035" lon="1.34874">
        <ele>142</ele>
        <time>2020-10-03T07:20:23.000Z</time>
      </trkpt>
      <trkpt lat="43.66034" lon="1.3487">
        <ele>142.4468047442</ele>
        <time>2020-10-03T07:20:24.000Z</time>
      </trkpt>
      <trkpt lat="43.66034" lon="1.34866">
        <ele>143</ele>
        <time>2020-10-03T07:20:25.000Z</time>
      </trkpt>
      <trkpt lat="43.66033" lon="1.34863">
        <ele>143</ele>
        <time>2020-10-03T07:20:26.000Z</time>
      </trkpt>
      <trkpt lat="43.66032" lon="1.34859">
        <ele>143</ele>
        <time>2020-10-03T07:20:27.000Z</time>
      </trkpt>
      <trkpt lat="43.66032" lon="1.34855">
        <ele>143</ele>
        <time>2020-10-03T07:20:28.000Z</time>
      </trkpt>
      <trkpt lat="43.66031" lon="1.34852">
        <ele>143</ele>
        <time>2020-10-03T07:20:29.000Z</time>
      </trkpt>
      <trkpt lat="43.66031" lon="1.34848">
        <ele>143</ele>
        <time>2020-10-03T07:20:30.000Z</time>
      </trkpt>
      <trkpt lat="43.66031" lon="1.34844">
        <ele>143</ele>
        <time>2020-10-03T07:20:31.000Z</time>
      </trkpt>
      <trkpt lat="43.66032" lon="1.3484">
        <ele>143</ele>
        <time>2020-10-03T07:20:32.000Z</time>
      </trkpt>
      <trkpt lat="43.66032" lon="1.34837">
        <ele>143</ele>
        <time>2020-10-03T07:20:33.000Z</time>
      </trkpt>
      <trkpt lat="43.66032" lon="1.34833">
        <ele>143</ele>
        <time>2020-10-03T07:20:34.000Z</time>
      </trkpt>
      <trkpt lat="43.66033" lon="1.34829">
        <ele>143</ele>
        <time>2020-10-03T07:20:35.000Z</time>
      </trkpt>
      <trkpt lat="43.66034" lon="1.34825">
        <ele>143</ele>
        <time>2020-10-03T07:20:36.000Z</time>
      </trkpt>
      <trkpt lat="43.66034" lon="1.34822">
        <ele>143</ele>
        <time>2020-10-03T07:20:37.000Z</time>
      </trkpt>
      <trkpt lat="43.66034" lon="1.34819">
        <ele>143</ele>
        <time>2020-10-03T07:20:38.000Z</time>
      </trkpt>
      <trkpt lat="43.66032" lon="1.34815">
        <ele>143</ele>
        <time>2020-10-03T07:20:39.000Z</time>
      </trkpt>
      <trkpt lat="43.66032" lon="1.34812">
        <ele>143</ele>
        <time>2020-10-03T07:20:40.000Z</time>
      </trkpt>
      <trkpt lat="43.66031" lon="1.34809">
        <ele>143</ele>
        <time>2020-10-03T07:20:41.000Z</time>
      </trkpt>
      <trkpt lat="43.66029" lon="1.34805">
        <ele>143.37272653223</ele>
        <time>2020-10-03T07:20:42.000Z</time>
      </trkpt>
      <trkpt lat="43.66028" lon="1.34802">
        <ele>144</ele>
        <time>2020-10-03T07:20:43.000Z</time>
      </trkpt>
      <trkpt lat="43.66027" lon="1.34799">
        <ele>144</ele>
        <time>2020-10-03T07:20:44.000Z</time>
      </trkpt>
      <trkpt lat="43.66026" lon="1.34796">
        <ele>144</ele>
        <time>2020-10-03T07:20:45.000Z</time>
      </trkpt>
      <trkpt lat="43.66025" lon="1.34792">
        <ele>144</ele>
        <time>2020-10-03T07:20:46.000Z</time>
      </trkpt>
      <trkpt lat="43.66025" lon="1.34788">
        <ele>144</ele>
        <time>2020-10-03T07:20:47.000Z</time>
      </trkpt>
      <trkpt lat="43.66025" lon="1.34784">
        <ele>144</ele>
        <time>2020-10-03T07:20:48.000Z</time>
      </trkpt>
      <trkpt lat="43.66026" lon="1.3478">
        <ele>143.63953384533</ele>
        <time>2020-10-03T07:20:49.000Z</time>
      </trkpt>
      <trkpt lat="43.66027" lon="1.34776">
        <ele>143</ele>
        <time>2020-10-03T07:20:50.000Z</time>
      </trkpt>
      <trkpt lat="43.66028" lon="1.34773">
        <ele>143</ele>
        <time>2020-10-03T07:20:51.000Z</time>
      </trkpt>
      <trkpt lat="43.66029" lon="1.34769">
        <ele>143</ele>
        <time>2020-10-03T07:20:52.000Z</time>
      </trkpt>
      <trkpt lat="43.6603" lon="1.34765">
        <ele>143</ele>
        <time>2020-10-03T07:20:53.000Z</time>
      </trkpt>
      <trkpt lat="43.66031" lon="1.34762">
        <ele>143</ele>
        <time>2020-10-03T07:20:54.000Z</time>
      </trkpt>
      <trkpt lat="43.66032" lon="1.34758">
        <ele>143</ele>
        <time>2020-10-03T07:20:55.000Z</time>
      </trkpt>
      <trkpt lat="43.66034" lon="1.34754">
        <ele>143.33824</ele>
        <time>2020-10-03T07:20:56.000Z</time>
      </trkpt>
      <trkpt lat="43.66035" lon="1.3475">
        <ele>144</ele>
        <time>2020-10-03T07:20:57.000Z</time>
      </trkpt>
      <trkpt lat="43.66036" lon="1.34746">
        <ele>144</ele>
        <time>2020-10-03T07:20:58.000Z</time>
      </trkpt>
      <trkpt lat="43.66037" lon="1.34743">
        <ele>144</ele>
        <time>2020-10-03T07:20:59.000Z</time>
      </trkpt>
      <trkpt lat="43.66038" lon="1.34739">
        <ele>144</ele>
        <time>2020-10-03T07:21:00.000Z</time>
      </trkpt>
      <trkpt lat="43.66039" lon="1.34735">
        <ele>144</ele>
        <time>2020-10-03T07:21:01.000Z</time>
      </trkpt>
      <trkpt lat="43.66039" lon="1.34731">
        <ele>144</ele>
        <time>2020-10-03T07:21:02.000Z</time>
      </trkpt>
      <trkpt lat="43.66039" lon="1.34728">
        <ele>144</ele>
        <time>2020-10-03T07:21:03.000Z</time>
      </trkpt>
      <trkpt lat="43.66039" lon="1.34724">
        <ele>144</ele>
        <time>2020-10-03T07:21:04.000Z</time>
      </trkpt>
      <trkpt lat="43.66039" lon="1.3472">
        <ele>144.36111407407</ele>
        <time>2020-10-03T07:21:05.000Z</time>
      </trkpt>
      <trkpt lat="43.66038" lon="1.34716">
        <ele>145</ele>
        <time>2020-10-03T07:21:06.000Z</time>
      </trkpt>
      <trkpt lat="43.66038" lon="1.34713">
        <ele>145</ele>
        <time>2020-10-03T07:21:07.000Z</time>
      </trkpt>
      <trkpt lat="43.66037" lon="1.34709">
        <ele>145</ele>
        <time>2020-10-03T07:21:08.000Z</time>
      </trkpt>
      <trkpt lat="43.66036" lon="1.34705">
        <ele>145</ele>
        <time>2020-10-03T07:21:09.000Z</time>
      </trkpt>
      <trkpt lat="43.66036" lon="1.34701">
        <ele>145</ele>
        <time>2020-10-03T07:21:10.000Z</time>
      </trkpt>
      <trkpt lat="43.66035" lon="1.34697">
        <ele>145</ele>
        <time>2020-10-03T07:21:11.000Z</time>
      </trkpt>
      <trkpt lat="43.66035" lon="1.34694">
        <ele>145</ele>
        <time>2020-10-03T07:21:12.000Z</time>
      </trkpt>
      <trkpt lat="43.66034" lon="1.3469">
        <ele>145</ele>
        <time>2020-10-03T07:21:13.000Z</time>
      </trkpt>
      <trkpt lat="43.66034" lon="1.34686">
        <ele>145</ele>
        <time>2020-10-03T07:21:14.000Z</time>
      </trkpt>
      <trkpt lat="43.66033" lon="1.34682">
        <ele>145</ele>
        <time>2020-10-03T07:21:15.000Z</time>
      </trkpt>
      <trkpt lat="43.66033" lon="1.34678">
        <ele>145</ele>
        <time>2020-10-03T07:21:16.000Z</time>
      </trkpt>
      <trkpt lat="43.66032" lon="1.34674">
        <ele>145</ele>
        <time>2020-10-03T07:21:17.000Z</time>
      </trkpt>
      <trkpt lat="43.66032" lon="1.3467">
        <ele>145</ele>
        <time>2020-10-03T07:21:18.000Z</time>
      </trkpt>
      <trkpt lat="43.66031" lon="1.34666">
        <ele>145</ele>
        <time>2020-10-03T07:21:19.000Z</time>
      </trkpt>
      <trkpt lat="43.66031" lon="1.34663">
        <ele>145</ele>
        <time>2020-10-03T07:21:20.000Z</time>
      </trkpt>
      <trkpt lat="43.6603" lon="1.34659">
        <ele>145</ele>
        <time>2020-10-03T07:21:21.000Z</time>
      </trkpt>
      <trkpt lat="43.6603" lon="1.34655">
        <ele>145</ele>
        <time>2020-10-03T07:21:22.000Z</time>
      </trkpt>
      <trkpt lat="43.66029" lon="1.34651">
        <ele>145</ele>
        <time>2020-10-03T07:21:23.000Z</time>
      </trkpt>
      <trkpt lat="43.66029" lon="1.34647">
        <ele>145</ele>
        <time>2020-10-03T07:21:24.000Z</time>
      </trkpt>
      <trkpt lat="43.66028" lon="1.34643">
        <ele>145</ele>
        <time>2020-10-03T07:21:25.000Z</time>
      </trkpt>
      <trkpt lat="43.66028" lon="1.34639">
        <ele>145</ele>
        <time>2020-10-03T07:21:26.000Z</time>
      </trkpt>
      <trkpt lat="43.66027" lon="1.34635">
        <ele>145</ele>
        <time>2020-10-03T07:21:27.000Z</time>
      </trkpt>
      <trkpt lat="43.66027" lon="1.34632">
        <ele>145</ele>
        <time>2020-10-03T07:21:28.000Z</time>
      </trkpt>
      <trkpt lat="43.66026" lon="1.34628">
        <ele>145</ele>
        <time>2020-10-03T07:21:29.000Z</time>
      </trkpt>
      <trkpt lat="43.66025" lon="1.34624">
        <ele>145</ele>
        <time>2020-10-03T07:21:30.000Z</time>
      </trkpt>
      <trkpt lat="43.66024" lon="1.3462">
        <ele>145</ele>
        <time>2020-10-03T07:21:31.000Z</time>
      </trkpt>
      <trkpt lat="43.66023" lon="1.34617">
        <ele>145</ele>
        <time>2020-10-03T07:21:32.000Z</time>
      </trkpt>
      <trkpt lat="43.66023" lon="1.34613">
        <ele>145</ele>
        <time>2020-10-03T07:21:33.000Z</time>
      </trkpt>
      <trkpt lat="43.66022" lon="1.34609">
        <ele>145</ele>
        <time>2020-10-03T07:21:34.000Z</time>
      </trkpt>
      <trkpt lat="43.66021" lon="1.34605">
        <ele>145</ele>
        <time>2020-10-03T07:21:35.000Z</time>
      </trkpt>
      <trkpt lat="43.6602" lon="1.34601">
        <ele>146</ele>
        <time>2020-10-03T07:21:36.000Z</time>
      </trkpt>
      <trkpt lat="43.66019" lon="1.34598">
        <ele>146</ele>
        <time>2020-10-03T07:21:37.000Z</time>
      </trkpt>
      <trkpt lat="43.66018" lon="1.34594">
        <ele>146</ele>
        <time>2020-10-03T07:21:38.000Z</time>
      </trkpt>
      <trkpt lat="43.66017" lon="1.3459">
        <ele>146</ele>
        <time>2020-10-03T07:21:39.000Z</time>
      </trkpt>
      <trkpt lat="43.66016" lon="1.34586">
        <ele>146</ele>
        <time>2020-10-03T07:21:40.000Z</time>
      </trkpt>
      <trkpt lat="43.66015" lon="1.34583">
        <ele>146</ele>
        <time>2020-10-03T07:21:41.000Z</time>
      </trkpt>
      <trkpt lat="43.66013" lon="1.34579">
        <ele>146</ele>
        <time>2020-10-03T07:21:42.000Z</time>
      </trkpt>
      <trkpt lat="43.66012" lon="1.34575">
        <ele>146</ele>
        <time>2020-10-03T07:21:43.000Z</time>
      </trkpt>
      <trkpt lat="43.66011" lon="1.34571">
        <ele>146</ele>
        <time>2020-10-03T07:21:44.000Z</time>
      </trkpt>
      <trkpt lat="43.6601" lon="1.34568">
        <ele>146</ele>
        <time>2020-10-03T07:21:45.000Z</time>
      </trkpt>
      <trkpt lat="43.66009" lon="1.34564">
        <ele>145.58474622235</ele>
        <time>2020-10-03T07:21:46.000Z</time>
      </trkpt>
      <trkpt lat="43.66007" lon="1.34561">
        <ele>145</ele>
        <time>2020-10-03T07:21:47.000Z</time>
      </trkpt>
      <trkpt lat="43.66006" lon="1.34557">
        <ele>145.39285333333</ele>
        <time>2020-10-03T07:21:48.000Z</time>
      </trkpt>
      <trkpt lat="43.66005" lon="1.34554">
        <ele>146</ele>
        <time>2020-10-03T07:21:49.000Z</time>
      </trkpt>
      <trkpt lat="43.66003" lon="1.3455">
        <ele>146</ele>
        <time>2020-10-03T07:21:50.000Z</time>
      </trkpt>
      <trkpt lat="43.66002" lon="1.34546">
        <ele>146</ele>
        <time>2020-10-03T07:21:51.000Z</time>
      </trkpt>
      <trkpt lat="43.66" lon="1.34543">
        <ele>146</ele>
        <time>2020-10-03T07:21:52.000Z</time>
      </trkpt>
      <trkpt lat="43.65999" lon="1.34539">
        <ele>145.72566321561</ele>
        <time>2020-10-03T07:21:53.000Z</time>
      </trkpt>
      <trkpt lat="43.65998" lon="1.34536">
        <ele>145</ele>
        <time>2020-10-03T07:21:54.000Z</time>
      </trkpt>
      <trkpt lat="43.65996" lon="1.34532">
        <ele>145</ele>
        <time>2020-10-03T07:21:55.000Z</time>
      </trkpt>
      <trkpt lat="43.65995" lon="1.34529">
        <ele>145.28915551169</ele>
        <time>2020-10-03T07:21:56.000Z</time>
      </trkpt>
      <trkpt lat="43.65993" lon="1.34525">
        <ele>146</ele>
        <time>2020-10-03T07:21:57.000Z</time>
      </trkpt>
      <trkpt lat="43.65992" lon="1.34522">
        <ele>146</ele>
        <time>2020-10-03T07:21:58.000Z</time>
      </trkpt>
      <trkpt lat="43.6599" lon="1.34518">
        <ele>146</ele>
        <time>2020-10-03T07:21:59.000Z</time>
      </trkpt>
      <trkpt lat="43.65988" lon="1.34515">
        <ele>146</ele>
        <time>2020-10-03T07:22:00.000Z</time>
      </trkpt>
      <trkpt lat="43.65987" lon="1.34512">
        <ele>146</ele>
        <time>2020-10-03T07:22:01.000Z</time>
      </trkpt>
      <trkpt lat="43.65985" lon="1.34508">
        <ele>145.80303324153</ele>
        <time>2020-10-03T07:22:02.000Z</time>
      </trkpt>
      <trkpt lat="43.65983" lon="1.34505">
        <ele>145</ele>
        <time>2020-10-03T07:22:03.000Z</time>
      </trkpt>
      <trkpt lat="43.65981" lon="1.34502">
        <ele>145</ele>
        <time>2020-10-03T07:22:04.000Z</time>
      </trkpt>
      <trkpt lat="43.65979" lon="1.34499">
        <ele>144.54128257219</ele>
        <time>2020-10-03T07:22:05.000Z</time>
      </trkpt>
      <trkpt lat="43.65978" lon="1.34496">
        <ele>144</ele>
        <time>2020-10-03T07:22:06.000Z</time>
      </trkpt>
      <trkpt lat="43.65976" lon="1.34493">
        <ele>144</ele>
        <time>2020-10-03T07:22:07.000Z</time>
      </trkpt>
      <trkpt lat="43.65974" lon="1.3449">
        <ele>144</ele>
        <time>2020-10-03T07:22:08.000Z</time>
      </trkpt>
      <trkpt lat="43.65971" lon="1.34487">
        <ele>144</ele>
        <time>2020-10-03T07:22:09.000Z</time>
      </trkpt>
      <trkpt lat="43.6597" lon="1.34484">
        <ele>144</ele>
        <time>2020-10-03T07:22:10.000Z</time>
      </trkpt>
      <trkpt lat="43.65968" lon="1.34481">
        <ele>144</ele>
        <time>2020-10-03T07:22:11.000Z</time>
      </trkpt>
      <trkpt lat="43.65965" lon="1.34478">
        <ele>144</ele>
        <time>2020-10-03T07:22:12.000Z</time>
      </trkpt>
      <trkpt lat="43.65963" lon="1.34475">
        <ele>144</ele>
        <time>2020-10-03T07:22:13.000Z</time>
      </trkpt>
      <trkpt lat="43.65961" lon="1.34473">
        <ele>144</ele>
        <time>2020-10-03T07:22:14.000Z</time>
      </trkpt>
      <trkpt lat="43.65959" lon="1.3447">
        <ele>144</ele>
        <time>2020-10-03T07:22:15.000Z</time>
      </trkpt>
      <trkpt lat="43.65957" lon="1.34467">
        <ele>144.34444555061</ele>
        <time>2020-10-03T07:22:16.000Z</time>
      </trkpt>
      <trkpt lat="43.65954" lon="1.34465">
        <ele>145</ele>
        <time>2020-10-03T07:22:17.000Z</time>
      </trkpt>
      <trkpt lat="43.65952" lon="1.34462">
        <ele>145</ele>
        <time>2020-10-03T07:22:18.000Z</time>
      </trkpt>
      <trkpt lat="43.6595" lon="1.3446">
        <ele>145</ele>
        <time>2020-10-03T07:22:19.000Z</time>
      </trkpt>
      <trkpt lat="43.65948" lon="1.34457">
        <ele>145</ele>
        <time>2020-10-03T07:22:20.000Z</time>
      </trkpt>
      <trkpt lat="43.65945" lon="1.34455">
        <ele>145</ele>
        <time>2020-10-03T07:22:21.000Z</time>
      </trkpt>
      <trkpt lat="43.65943" lon="1.34453">
        <ele>145</ele>
        <time>2020-10-03T07:22:22.000Z</time>
      </trkpt>
      <trkpt lat="43.6594" lon="1.3445">
        <ele>145</ele>
        <time>2020-10-03T07:22:23.000Z</time>
      </trkpt>
      <trkpt lat="43.65937" lon="1.34448">
        <ele>145</ele>
        <time>2020-10-03T07:22:24.000Z</time>
      </trkpt>
      <trkpt lat="43.65935" lon="1.34446">
        <ele>145</ele>
        <time>2020-10-03T07:22:25.000Z</time>
      </trkpt>
      <trkpt lat="43.65932" lon="1.34444">
        <ele>145</ele>
        <time>2020-10-03T07:22:26.000Z</time>
      </trkpt>
      <trkpt lat="43.6593" lon="1.34441">
        <ele>145</ele>
        <time>2020-10-03T07:22:27.000Z</time>
      </trkpt>
      <trkpt lat="43.65927" lon="1.34439">
        <ele>144.71428571429</ele>
        <time>2020-10-03T07:22:28.000Z</time>
      </trkpt>
      <trkpt lat="43.65925" lon="1.34437">
        <ele>144</ele>
        <time>2020-10-03T07:22:29.000Z</time>
      </trkpt>
      <trkpt lat="43.65922" lon="1.34435">
        <ele>144</ele>
        <time>2020-10-03T07:22:30.000Z</time>
      </trkpt>
      <trkpt lat="43.6592" lon="1.34433">
        <ele>144</ele>
        <time>2020-10-03T07:22:31.000Z</time>
      </trkpt>
      <trkpt lat="43.65917" lon="1.3443">
        <ele>144</ele>
        <time>2020-10-03T07:22:32.000Z</time>
      </trkpt>
      <trkpt lat="43.65915" lon="1.34428">
        <ele>144</ele>
        <time>2020-10-03T07:22:33.000Z</time>
      </trkpt>
      <trkpt lat="43.65912" lon="1.34426">
        <ele>144</ele>
        <time>2020-10-03T07:22:34.000Z</time>
      </trkpt>
      <trkpt lat="43.6591" lon="1.34423">
        <ele>144</ele>
        <time>2020-10-03T07:22:35.000Z</time>
      </trkpt>
      <trkpt lat="43.65907" lon="1.34421">
        <ele>144</ele>
        <time>2020-10-03T07:22:36.000Z</time>
      </trkpt>
      <trkpt lat="43.65905" lon="1.34418">
        <ele>144</ele>
        <time>2020-10-03T07:22:37.000Z</time>
      </trkpt>
      <trkpt lat="43.65902" lon="1.34416">
        <ele>144</ele>
        <time>2020-10-03T07:22:38.000Z</time>
      </trkpt>
      <trkpt lat="43.65899" lon="1.34414">
        <ele>144</ele>
        <time>2020-10-03T07:22:39.000Z</time>
      </trkpt>
      <trkpt lat="43.65897" lon="1.34412">
        <ele>144</ele>
        <time>2020-10-03T07:22:40.000Z</time>
      </trkpt>
      <trkpt lat="43.65894" lon="1.3441">
        <ele>144</ele>
        <time>2020-10-03T07:22:41.000Z</time>
      </trkpt>
      <trkpt lat="43.65891" lon="1.34408">
        <ele>144</ele>
        <time>2020-10-03T07:22:42.000Z</time>
      </trkpt>
      <trkpt lat="43.65888" lon="1.34406">
        <ele>144</ele>
        <time>2020-10-03T07:22:43.000Z</time>
      </trkpt>
      <trkpt lat="43.65886" lon="1.34403">
        <ele>144</ele>
        <time>2020-10-03T07:22:44.000Z</time>
      </trkpt>
      <trkpt lat="43.65883" lon="1.34401">
        <ele>144</ele>
        <time>2020-10-03T07:22:45.000Z</time>
      </trkpt>
      <trkpt lat="43.6588" lon="1.34399">
        <ele>144</ele>
        <time>2020-10-03T07:22:46.000Z</time>
      </trkpt>
      <trkpt lat="43.65878" lon="1.34396">
        <ele>144</ele>
        <time>2020-10-03T07:22:47.000Z</time>
      </trkpt>
      <trkpt lat="43.65875" lon="1.34394">
        <ele>144</ele>
        <time>2020-10-03T07:22:48.000Z</time>
      </trkpt>
      <trkpt lat="43.65872" lon="1.34391">
        <ele>144</ele>
        <time>2020-10-03T07:22:49.000Z</time>
      </trkpt>
      <trkpt lat="43.6587" lon="1.34389">
        <ele>143.66896478668</ele>
        <time>2020-10-03T07:22:50.000Z</time>
      </trkpt>
      <trkpt lat="43.65867" lon="1.34387">
        <ele>143</ele>
        <time>2020-10-03T07:22:51.000Z</time>
      </trkpt>
      <trkpt lat="43.65865" lon="1.34384">
        <ele>143</ele>
        <time>2020-10-03T07:22:52.000Z</time>
      </trkpt>
      <trkpt lat="43.65862" lon="1.34382">
        <ele>143</ele>
        <time>2020-10-03T07:22:53.000Z</time>
      </trkpt>
      <trkpt lat="43.6586" lon="1.3438">
        <ele>143</ele>
        <time>2020-10-03T07:22:54.000Z</time>
      </trkpt>
      <trkpt lat="43.65857" lon="1.34378">
        <ele>143</ele>
        <time>2020-10-03T07:22:55.000Z</time>
      </trkpt>
      <trkpt lat="43.65855" lon="1.34375">
        <ele>142.64485489389</ele>
        <time>2020-10-03T07:22:56.000Z</time>
      </trkpt>
      <trkpt lat="43.65852" lon="1.34373">
        <ele>142</ele>
        <time>2020-10-03T07:22:57.000Z</time>
      </trkpt>
      <trkpt lat="43.6585" lon="1.34371">
        <ele>142</ele>
        <time>2020-10-03T07:22:58.000Z</time>
      </trkpt>
      <trkpt lat="43.65847" lon="1.34368">
        <ele>142</ele>
        <time>2020-10-03T07:22:59.000Z</time>
      </trkpt>
      <trkpt lat="43.65845" lon="1.34365">
        <ele>142</ele>
        <time>2020-10-03T07:23:00.000Z</time>
      </trkpt>
      <trkpt lat="43.65843" lon="1.34363">
        <ele>142</ele>
        <time>2020-10-03T07:23:01.000Z</time>
      </trkpt>
      <trkpt lat="43.65841" lon="1.3436">
        <ele>142</ele>
        <time>2020-10-03T07:23:02.000Z</time>
      </trkpt>
      <trkpt lat="43.65839" lon="1.34357">
        <ele>142</ele>
        <time>2020-10-03T07:23:03.000Z</time>
      </trkpt>
      <trkpt lat="43.65837" lon="1.34353">
        <ele>142</ele>
        <time>2020-10-03T07:23:04.000Z</time>
      </trkpt>
      <trkpt lat="43.65836" lon="1.3435">
        <ele>142</ele>
        <time>2020-10-03T07:23:05.000Z</time>
      </trkpt>
      <trkpt lat="43.65834" lon="1.34347">
        <ele>142</ele>
        <time>2020-10-03T07:23:06.000Z</time>
      </trkpt>
      <trkpt lat="43.65832" lon="1.34343">
        <ele>142</ele>
        <time>2020-10-03T07:23:07.000Z</time>
      </trkpt>
      <trkpt lat="43.6583" lon="1.3434">
        <ele>141.74999652174</ele>
        <time>2020-10-03T07:23:08.000Z</time>
      </trkpt>
      <trkpt lat="43.65828" lon="1.34336">
        <ele>141</ele>
        <time>2020-10-03T07:23:09.000Z</time>
      </trkpt>
      <trkpt lat="43.65827" lon="1.34332">
        <ele>141</ele>
        <time>2020-10-03T07:23:10.000Z</time>
      </trkpt>
      <trkpt lat="43.65825" lon="1.34329">
        <ele>141</ele>
        <time>2020-10-03T07:23:11.000Z</time>
      </trkpt>
      <trkpt lat="43.65824" lon="1.34325">
        <ele>141.462962524</ele>
        <time>2020-10-03T07:23:12.000Z</time>
      </trkpt>
      <trkpt lat="43.65822" lon="1.34322">
        <ele>142</ele>
        <time>2020-10-03T07:23:13.000Z</time>
      </trkpt>
      <trkpt lat="43.6582" lon="1.34319">
        <ele>142</ele>
        <time>2020-10-03T07:23:14.000Z</time>
      </trkpt>
      <trkpt lat="43.65819" lon="1.34315">
        <ele>142</ele>
        <time>2020-10-03T07:23:15.000Z</time>
      </trkpt>
      <trkpt lat="43.65817" lon="1.34312">
        <ele>142</ele>
        <time>2020-10-03T07:23:16.000Z</time>
      </trkpt>
      <trkpt lat="43.65816" lon="1.34308">
        <ele>142</ele>
        <time>2020-10-03T07:23:17.000Z</time>
      </trkpt>
      <trkpt lat="43.65814" lon="1.34305">
        <ele>142</ele>
        <time>2020-10-03T07:23:18.000Z</time>
      </trkpt>
      <trkpt lat="43.65813" lon="1.34301">
        <ele>142.28168887126</ele>
        <time>2020-10-03T07:23:19.000Z</time>
      </trkpt>
      <trkpt lat="43.65812" lon="1.34298">
        <ele>143</ele>
        <time>2020-10-03T07:23:20.000Z</time>
      </trkpt>
      <trkpt lat="43.6581" lon="1.34294">
        <ele>143</ele>
        <time>2020-10-03T07:23:21.000Z</time>
      </trkpt>
      <trkpt lat="43.65809" lon="1.3429">
        <ele>143</ele>
        <time>2020-10-03T07:23:22.000Z</time>
      </trkpt>
      <trkpt lat="43.65808" lon="1.34287">
        <ele>143</ele>
        <time>2020-10-03T07:23:23.000Z</time>
      </trkpt>
      <trkpt lat="43.65807" lon="1.34283">
        <ele>143</ele>
        <time>2020-10-03T07:23:24.000Z</time>
      </trkpt>
      <trkpt lat="43.65806" lon="1.34279">
        <ele>142.72463687462</ele>
        <time>2020-10-03T07:23:25.000Z</time>
      </trkpt>
      <trkpt lat="43.65805" lon="1.34276">
        <ele>142</ele>
        <time>2020-10-03T07:23:26.000Z</time>
      </trkpt>
      <trkpt lat="43.65804" lon="1.34272">
        <ele>142</ele>
        <time>2020-10-03T07:23:27.000Z</time>
      </trkpt>
      <trkpt lat="43.65803" lon="1.34268">
        <ele>142</ele>
        <time>2020-10-03T07:23:28.000Z</time>
      </trkpt>
      <trkpt lat="43.65802" lon="1.34264">
        <ele>142</ele>
        <time>2020-10-03T07:23:29.000Z</time>
      </trkpt>
      <trkpt lat="43.65801" lon="1.3426">
        <ele>142</ele>
        <time>2020-10-03T07:23:30.000Z</time>
      </trkpt>
      <trkpt lat="43.65801" lon="1.34256">
        <ele>142</ele>
        <time>2020-10-03T07:23:31.000Z</time>
      </trkpt>
      <trkpt lat="43.658" lon="1.34252">
        <ele>142</ele>
        <time>2020-10-03T07:23:32.000Z</time>
      </trkpt>
      <trkpt lat="43.65799" lon="1.34247">
        <ele>142</ele>
        <time>2020-10-03T07:23:33.000Z</time>
      </trkpt>
      <trkpt lat="43.65799" lon="1.34243">
        <ele>142.43749333333</ele>
        <time>2020-10-03T07:23:34.000Z</time>
      </trkpt>
      <trkpt lat="43.65798" lon="1.34239">
        <ele>143</ele>
        <time>2020-10-03T07:23:35.000Z</time>
      </trkpt>
      <trkpt lat="43.65798" lon="1.34235">
        <ele>143</ele>
        <time>2020-10-03T07:23:36.000Z</time>
      </trkpt>
      <trkpt lat="43.65797" lon="1.34231">
        <ele>143</ele>
        <time>2020-10-03T07:23:37.000Z</time>
      </trkpt>
      <trkpt lat="43.65797" lon="1.34227">
        <ele>143</ele>
        <time>2020-10-03T07:23:38.000Z</time>
      </trkpt>
      <trkpt lat="43.65796" lon="1.34223">
        <ele>143</ele>
        <time>2020-10-03T07:23:39.000Z</time>
      </trkpt>
      <trkpt lat="43.65796" lon="1.34219">
        <ele>143</ele>
        <time>2020-10-03T07:23:40.000Z</time>
      </trkpt>
      <trkpt lat="43.65795" lon="1.34216">
        <ele>143</ele>
        <time>2020-10-03T07:23:41.000Z</time>
      </trkpt>
      <trkpt lat="43.65794" lon="1.34208">
        <ele>143</ele>
        <time>2020-10-03T07:23:43.000Z</time>
      </trkpt>
      <trkpt lat="43.65794" lon="1.342">
        <ele>143</ele>
        <time>2020-10-03T07:23:45.000Z</time>
      </trkpt>
      <trkpt lat="43.65793" lon="1.34197">
        <ele>143.44642285714</ele>
        <time>2020-10-03T07:23:46.000Z</time>
      </trkpt>
      <trkpt lat="43.65793" lon="1.34192">
        <ele>144</ele>
        <time>2020-10-03T07:23:47.000Z</time>
      </trkpt>
      <trkpt lat="43.65793" lon="1.34188">
        <ele>144</ele>
        <time>2020-10-03T07:23:48.000Z</time>
      </trkpt>
      <trkpt lat="43.65792" lon="1.34184">
        <ele>144</ele>
        <time>2020-10-03T07:23:49.000Z</time>
      </trkpt>
      <trkpt lat="43.65792" lon="1.3418">
        <ele>144</ele>
        <time>2020-10-03T07:23:50.000Z</time>
      </trkpt>
      <trkpt lat="43.65792" lon="1.34177">
        <ele>144</ele>
        <time>2020-10-03T07:23:51.000Z</time>
      </trkpt>
      <trkpt lat="43.65791" lon="1.34173">
        <ele>144</ele>
        <time>2020-10-03T07:23:52.000Z</time>
      </trkpt>
      <trkpt lat="43.65791" lon="1.34169">
        <ele>144</ele>
        <time>2020-10-03T07:23:53.000Z</time>
      </trkpt>
      <trkpt lat="43.65791" lon="1.34165">
        <ele>143.67415972732</ele>
        <time>2020-10-03T07:23:54.000Z</time>
      </trkpt>
      <trkpt lat="43.6579" lon="1.34161">
        <ele>143</ele>
        <time>2020-10-03T07:23:55.000Z</time>
      </trkpt>
      <trkpt lat="43.6579" lon="1.34157">
        <ele>143</ele>
        <time>2020-10-03T07:23:56.000Z</time>
      </trkpt>
      <trkpt lat="43.65789" lon="1.34153">
        <ele>143</ele>
        <time>2020-10-03T07:23:57.000Z</time>
      </trkpt>
      <trkpt lat="43.65789" lon="1.3415">
        <ele>143</ele>
        <time>2020-10-03T07:23:58.000Z</time>
      </trkpt>
      <trkpt lat="43.65789" lon="1.34146">
        <ele>143</ele>
        <time>2020-10-03T07:23:59.000Z</time>
      </trkpt>
      <trkpt lat="43.65788" lon="1.34142">
        <ele>143</ele>
        <time>2020-10-03T07:24:00.000Z</time>
      </trkpt>
      <trkpt lat="43.65788" lon="1.34138">
        <ele>143</ele>
        <time>2020-10-03T07:24:01.000Z</time>
      </trkpt>
      <trkpt lat="43.65787" lon="1.34134">
        <ele>143</ele>
        <time>2020-10-03T07:24:02.000Z</time>
      </trkpt>
      <trkpt lat="43.65787" lon="1.3413">
        <ele>143</ele>
        <time>2020-10-03T07:24:03.000Z</time>
      </trkpt>
      <trkpt lat="43.65786" lon="1.34126">
        <ele>143</ele>
        <time>2020-10-03T07:24:04.000Z</time>
      </trkpt>
      <trkpt lat="43.65786" lon="1.34122">
        <ele>143.44444128397</ele>
        <time>2020-10-03T07:24:05.000Z</time>
      </trkpt>
      <trkpt lat="43.65786" lon="1.34119">
        <ele>144</ele>
        <time>2020-10-03T07:24:06.000Z</time>
      </trkpt>
      <trkpt lat="43.65785" lon="1.34115">
        <ele>143.95237611492</ele>
        <time>2020-10-03T07:24:07.000Z</time>
      </trkpt>
      <trkpt lat="43.65785" lon="1.34112">
        <ele>143</ele>
        <time>2020-10-03T07:24:08.000Z</time>
      </trkpt>
      <trkpt lat="43.65784" lon="1.34108">
        <ele>143</ele>
        <time>2020-10-03T07:24:09.000Z</time>
      </trkpt>
      <trkpt lat="43.65784" lon="1.34104">
        <ele>143.33333807404</ele>
        <time>2020-10-03T07:24:10.000Z</time>
      </trkpt>
      <trkpt lat="43.65784" lon="1.34101">
        <ele>144</ele>
        <time>2020-10-03T07:24:11.000Z</time>
      </trkpt>
      <trkpt lat="43.65783" lon="1.34097">
        <ele>144</ele>
        <time>2020-10-03T07:24:12.000Z</time>
      </trkpt>
      <trkpt lat="43.65783" lon="1.34093">
        <ele>144</ele>
        <time>2020-10-03T07:24:13.000Z</time>
      </trkpt>
      <trkpt lat="43.65782" lon="1.34089">
        <ele>144</ele>
        <time>2020-10-03T07:24:14.000Z</time>
      </trkpt>
      <trkpt lat="43.65782" lon="1.34085">
        <ele>143.60317153945</ele>
        <time>2020-10-03T07:24:15.000Z</time>
      </trkpt>
      <trkpt lat="43.65782" lon="1.34081">
        <ele>143</ele>
        <time>2020-10-03T07:24:16.000Z</time>
      </trkpt>
      <trkpt lat="43.65781" lon="1.34077">
        <ele>143</ele>
        <time>2020-10-03T07:24:17.000Z</time>
      </trkpt>
      <trkpt lat="43.65781" lon="1.34073">
        <ele>143</ele>
        <time>2020-10-03T07:24:18.000Z</time>
      </trkpt>
      <trkpt lat="43.6578" lon="1.34069">
        <ele>143</ele>
        <time>2020-10-03T07:24:19.000Z</time>
      </trkpt>
      <trkpt lat="43.6578" lon="1.34065">
        <ele>143</ele>
        <time>2020-10-03T07:24:20.000Z</time>
      </trkpt>
      <trkpt lat="43.65779" lon="1.34061">
        <ele>143</ele>
        <time>2020-10-03T07:24:21.000Z</time>
      </trkpt>
      <trkpt lat="43.65778" lon="1.34057">
        <ele>143</ele>
        <time>2020-10-03T07:24:22.000Z</time>
      </trkpt>
      <trkpt lat="43.65778" lon="1.34053">
        <ele>143</ele>
        <time>2020-10-03T07:24:23.000Z</time>
      </trkpt>
      <trkpt lat="43.65777" lon="1.34049">
        <ele>143</ele>
        <time>2020-10-03T07:24:24.000Z</time>
      </trkpt>
      <trkpt lat="43.65777" lon="1.34045">
        <ele>143</ele>
        <time>2020-10-03T07:24:25.000Z</time>
      </trkpt>
      <trkpt lat="43.65777" lon="1.34041">
        <ele>143</ele>
        <time>2020-10-03T07:24:26.000Z</time>
      </trkpt>
      <trkpt lat="43.65776" lon="1.34037">
        <ele>143</ele>
        <time>2020-10-03T07:24:27.000Z</time>
      </trkpt>
      <trkpt lat="43.65776" lon="1.34032">
        <ele>142.72288877922</ele>
        <time>2020-10-03T07:24:28.000Z</time>
      </trkpt>
      <trkpt lat="43.65776" lon="1.34028">
        <ele>142</ele>
        <time>2020-10-03T07:24:29.000Z</time>
      </trkpt>
      <trkpt lat="43.65775" lon="1.34024">
        <ele>142</ele>
        <time>2020-10-03T07:24:30.000Z</time>
      </trkpt>
      <trkpt lat="43.65775" lon="1.34021">
        <ele>142</ele>
        <time>2020-10-03T07:24:31.000Z</time>
      </trkpt>
      <trkpt lat="43.65775" lon="1.34017">
        <ele>142</ele>
        <time>2020-10-03T07:24:32.000Z</time>
      </trkpt>
      <trkpt lat="43.65774" lon="1.34013">
        <ele>142</ele>
        <time>2020-10-03T07:24:33.000Z</time>
      </trkpt>
      <trkpt lat="43.65774" lon="1.34009">
        <ele>142</ele>
        <time>2020-10-03T07:24:34.000Z</time>
      </trkpt>
      <trkpt lat="43.65774" lon="1.34006">
        <ele>141.85713502048</ele>
        <time>2020-10-03T07:24:35.000Z</time>
      </trkpt>
      <trkpt lat="43.65774" lon="1.34002">
        <ele>141</ele>
        <time>2020-10-03T07:24:36.000Z</time>
      </trkpt>
      <trkpt lat="43.65773" lon="1.33998">
        <ele>141</ele>
        <time>2020-10-03T07:24:37.000Z</time>
      </trkpt>
      <trkpt lat="43.65773" lon="1.33995">
        <ele>141</ele>
        <time>2020-10-03T07:24:38.000Z</time>
      </trkpt>
      <trkpt lat="43.65772" lon="1.33991">
        <ele>141</ele>
        <time>2020-10-03T07:24:39.000Z</time>
      </trkpt>
      <trkpt lat="43.65772" lon="1.33988">
        <ele>141</ele>
        <time>2020-10-03T07:24:40.000Z</time>
      </trkpt>
      <trkpt lat="43.65772" lon="1.33985">
        <ele>141</ele>
        <time>2020-10-03T07:24:41.000Z</time>
      </trkpt>
      <trkpt lat="43.65771" lon="1.33981">
        <ele>141.42856968707</ele>
        <time>2020-10-03T07:24:42.000Z</time>
      </trkpt>
      <trkpt lat="43.65771" lon="1.33978">
        <ele>142</ele>
        <time>2020-10-03T07:24:43.000Z</time>
      </trkpt>
      <trkpt lat="43.65771" lon="1.33975">
        <ele>142</ele>
        <time>2020-10-03T07:24:44.000Z</time>
      </trkpt>
      <trkpt lat="43.65771" lon="1.33971">
        <ele>142</ele>
        <time>2020-10-03T07:24:45.000Z</time>
      </trkpt>
      <trkpt lat="43.6577" lon="1.33968">
        <ele>142</ele>
        <time>2020-10-03T07:24:46.000Z</time>
      </trkpt>
      <trkpt lat="43.6577" lon="1.33964">
        <ele>142</ele>
        <time>2020-10-03T07:24:47.000Z</time>
      </trkpt>
      <trkpt lat="43.65769" lon="1.3396">
        <ele>142</ele>
        <time>2020-10-03T07:24:48.000Z</time>
      </trkpt>
      <trkpt lat="43.65769" lon="1.33957">
        <ele>142</ele>
        <time>2020-10-03T07:24:49.000Z</time>
      </trkpt>
      <trkpt lat="43.65769" lon="1.33953">
        <ele>142</ele>
        <time>2020-10-03T07:24:50.000Z</time>
      </trkpt>
      <trkpt lat="43.65768" lon="1.33949">
        <ele>142</ele>
        <time>2020-10-03T07:24:51.000Z</time>
      </trkpt>
      <trkpt lat="43.65768" lon="1.33945">
        <ele>142</ele>
        <time>2020-10-03T07:24:52.000Z</time>
      </trkpt>
      <trkpt lat="43.65768" lon="1.33942">
        <ele>142</ele>
        <time>2020-10-03T07:24:53.000Z</time>
      </trkpt>
      <trkpt lat="43.65767" lon="1.33938">
        <ele>142</ele>
        <time>2020-10-03T07:24:54.000Z</time>
      </trkpt>
      <trkpt lat="43.65767" lon="1.33934">
        <ele>142</ele>
        <time>2020-10-03T07:24:55.000Z</time>
      </trkpt>
      <trkpt lat="43.65767" lon="1.33931">
        <ele>142</ele>
        <time>2020-10-03T07:24:56.000Z</time>
      </trkpt>
      <trkpt lat="43.65767" lon="1.33927">
        <ele>142</ele>
        <time>2020-10-03T07:24:57.000Z</time>
      </trkpt>
      <trkpt lat="43.65766" lon="1.33924">
        <ele>142</ele>
        <time>2020-10-03T07:24:58.000Z</time>
      </trkpt>
      <trkpt lat="43.65766" lon="1.3392">
        <ele>142</ele>
        <time>2020-10-03T07:24:59.000Z</time>
      </trkpt>
      <trkpt lat="43.65766" lon="1.33916">
        <ele>142</ele>
        <time>2020-10-03T07:25:00.000Z</time>
      </trkpt>
      <trkpt lat="43.65765" lon="1.33913">
        <ele>142</ele>
        <time>2020-10-03T07:25:01.000Z</time>
      </trkpt>
      <trkpt lat="43.65765" lon="1.33909">
        <ele>142</ele>
        <time>2020-10-03T07:25:02.000Z</time>
      </trkpt>
      <trkpt lat="43.65765" lon="1.33905">
        <ele>142</ele>
        <time>2020-10-03T07:25:03.000Z</time>
      </trkpt>
      <trkpt lat="43.65764" lon="1.33902">
        <ele>142</ele>
        <time>2020-10-03T07:25:04.000Z</time>
      </trkpt>
      <trkpt lat="43.65764" lon="1.33898">
        <ele>142</ele>
        <time>2020-10-03T07:25:05.000Z</time>
      </trkpt>
      <trkpt lat="43.65764" lon="1.33894">
        <ele>142</ele>
        <time>2020-10-03T07:25:06.000Z</time>
      </trkpt>
      <trkpt lat="43.65763" lon="1.3389">
        <ele>142</ele>
        <time>2020-10-03T07:25:07.000Z</time>
      </trkpt>
      <trkpt lat="43.65763" lon="1.33887">
        <ele>142</ele>
        <time>2020-10-03T07:25:08.000Z</time>
      </trkpt>
      <trkpt lat="43.65763" lon="1.33883">
        <ele>142</ele>
        <time>2020-10-03T07:25:09.000Z</time>
      </trkpt>
      <trkpt lat="43.65762" lon="1.3388">
        <ele>142</ele>
        <time>2020-10-03T07:25:10.000Z</time>
      </trkpt>
      <trkpt lat="43.65762" lon="1.33876">
        <ele>142</ele>
        <time>2020-10-03T07:25:11.000Z</time>
      </trkpt>
      <trkpt lat="43.65762" lon="1.33873">
        <ele>142</ele>
        <time>2020-10-03T07:25:12.000Z</time>
      </trkpt>
      <trkpt lat="43.65762" lon="1.33869">
        <ele>142</ele>
        <time>2020-10-03T07:25:13.000Z</time>
      </trkpt>
      <trkpt lat="43.65762" lon="1.33866">
        <ele>142</ele>
        <time>2020-10-03T07:25:14.000Z</time>
      </trkpt>
      <trkpt lat="43.65761" lon="1.33862">
        <ele>142</ele>
        <time>2020-10-03T07:25:15.000Z</time>
      </trkpt>
      <trkpt lat="43.65761" lon="1.33858">
        <ele>142</ele>
        <time>2020-10-03T07:25:16.000Z</time>
      </trkpt>
      <trkpt lat="43.65761" lon="1.33854">
        <ele>142</ele>
        <time>2020-10-03T07:25:17.000Z</time>
      </trkpt>
      <trkpt lat="43.65761" lon="1.3385">
        <ele>142</ele>
        <time>2020-10-03T07:25:18.000Z</time>
      </trkpt>
      <trkpt lat="43.6576" lon="1.33847">
        <ele>142.79591970012</ele>
        <time>2020-10-03T07:25:19.000Z</time>
      </trkpt>
      <trkpt lat="43.6576" lon="1.33843">
        <ele>144</ele>
        <time>2020-10-03T07:25:20.000Z</time>
      </trkpt>
      <trkpt lat="43.6576" lon="1.33839">
        <ele>144</ele>
        <time>2020-10-03T07:25:21.000Z</time>
      </trkpt>
      <trkpt lat="43.6576" lon="1.33835">
        <ele>144</ele>
        <time>2020-10-03T07:25:22.000Z</time>
      </trkpt>
      <trkpt lat="43.6576" lon="1.33831">
        <ele>144</ele>
        <time>2020-10-03T07:25:23.000Z</time>
      </trkpt>
      <trkpt lat="43.65759" lon="1.33827">
        <ele>144.4693912203</ele>
        <time>2020-10-03T07:25:24.000Z</time>
      </trkpt>
      <trkpt lat="43.65759" lon="1.33823">
        <ele>145</ele>
        <time>2020-10-03T07:25:25.000Z</time>
      </trkpt>
      <trkpt lat="43.65759" lon="1.3382">
        <ele>145</ele>
        <time>2020-10-03T07:25:26.000Z</time>
      </trkpt>
      <trkpt lat="43.65759" lon="1.33816">
        <ele>145</ele>
        <time>2020-10-03T07:25:27.000Z</time>
      </trkpt>
      <trkpt lat="43.65759" lon="1.33812">
        <ele>145</ele>
        <time>2020-10-03T07:25:28.000Z</time>
      </trkpt>
      <trkpt lat="43.65759" lon="1.33807">
        <ele>145</ele>
        <time>2020-10-03T07:25:29.000Z</time>
      </trkpt>
      <trkpt lat="43.65759" lon="1.33804">
        <ele>144.66949060615</ele>
        <time>2020-10-03T07:25:30.000Z</time>
      </trkpt>
      <trkpt lat="43.65759" lon="1.338">
        <ele>144</ele>
        <time>2020-10-03T07:25:31.000Z</time>
      </trkpt>
      <trkpt lat="43.6576" lon="1.33796">
        <ele>144</ele>
        <time>2020-10-03T07:25:32.000Z</time>
      </trkpt>
      <trkpt lat="43.6576" lon="1.33792">
        <ele>144</ele>
        <time>2020-10-03T07:25:33.000Z</time>
      </trkpt>
      <trkpt lat="43.6576" lon="1.33789">
        <ele>143.56363890246</ele>
        <time>2020-10-03T07:25:34.000Z</time>
      </trkpt>
      <trkpt lat="43.6576" lon="1.33785">
        <ele>143</ele>
        <time>2020-10-03T07:25:35.000Z</time>
      </trkpt>
      <trkpt lat="43.6576" lon="1.33782">
        <ele>142.54128892855</ele>
        <time>2020-10-03T07:25:36.000Z</time>
      </trkpt>
      <trkpt lat="43.65761" lon="1.33778">
        <ele>142</ele>
        <time>2020-10-03T07:25:37.000Z</time>
      </trkpt>
      <trkpt lat="43.65761" lon="1.33774">
        <ele>141.63529447197</ele>
        <time>2020-10-03T07:25:38.000Z</time>
      </trkpt>
      <trkpt lat="43.65761" lon="1.3377">
        <ele>141</ele>
        <time>2020-10-03T07:25:39.000Z</time>
      </trkpt>
      <trkpt lat="43.65761" lon="1.33766">
        <ele>141.88171658225</ele>
        <time>2020-10-03T07:25:40.000Z</time>
      </trkpt>
      <trkpt lat="43.65761" lon="1.33762">
        <ele>143</ele>
        <time>2020-10-03T07:25:41.000Z</time>
      </trkpt>
      <trkpt lat="43.65762" lon="1.33758">
        <ele>143</ele>
        <time>2020-10-03T07:25:42.000Z</time>
      </trkpt>
      <trkpt lat="43.65762" lon="1.33754">
        <ele>143</ele>
        <time>2020-10-03T07:25:43.000Z</time>
      </trkpt>
      <trkpt lat="43.65762" lon="1.33751">
        <ele>143</ele>
        <time>2020-10-03T07:25:44.000Z</time>
      </trkpt>
      <trkpt lat="43.65763" lon="1.33747">
        <ele>143</ele>
        <time>2020-10-03T07:25:45.000Z</time>
      </trkpt>
      <trkpt lat="43.65763" lon="1.33743">
        <ele>143</ele>
        <time>2020-10-03T07:25:46.000Z</time>
      </trkpt>
      <trkpt lat="43.65764" lon="1.33739">
        <ele>143</ele>
        <time>2020-10-03T07:25:47.000Z</time>
      </trkpt>
      <trkpt lat="43.65764" lon="1.33735">
        <ele>143</ele>
        <time>2020-10-03T07:25:48.000Z</time>
      </trkpt>
      <trkpt lat="43.65765" lon="1.33731">
        <ele>143</ele>
        <time>2020-10-03T07:25:49.000Z</time>
      </trkpt>
      <trkpt lat="43.65765" lon="1.33727">
        <ele>143</ele>
        <time>2020-10-03T07:25:50.000Z</time>
      </trkpt>
      <trkpt lat="43.65766" lon="1.33723">
        <ele>143</ele>
        <time>2020-10-03T07:25:51.000Z</time>
      </trkpt>
      <trkpt lat="43.65767" lon="1.3372">
        <ele>143</ele>
        <time>2020-10-03T07:25:52.000Z</time>
      </trkpt>
      <trkpt lat="43.65768" lon="1.33716">
        <ele>143</ele>
        <time>2020-10-03T07:25:53.000Z</time>
      </trkpt>
      <trkpt lat="43.65769" lon="1.33712">
        <ele>143</ele>
        <time>2020-10-03T07:25:54.000Z</time>
      </trkpt>
      <trkpt lat="43.65769" lon="1.33708">
        <ele>143</ele>
        <time>2020-10-03T07:25:55.000Z</time>
      </trkpt>
      <trkpt lat="43.6577" lon="1.33704">
        <ele>143</ele>
        <time>2020-10-03T07:25:56.000Z</time>
      </trkpt>
      <trkpt lat="43.65771" lon="1.337">
        <ele>143</ele>
        <time>2020-10-03T07:25:57.000Z</time>
      </trkpt>
      <trkpt lat="43.65772" lon="1.33697">
        <ele>143</ele>
        <time>2020-10-03T07:25:58.000Z</time>
      </trkpt>
      <trkpt lat="43.65773" lon="1.33694">
        <ele>143</ele>
        <time>2020-10-03T07:25:59.000Z</time>
      </trkpt>
      <trkpt lat="43.65774" lon="1.33691">
        <ele>143.29411764706</ele>
        <time>2020-10-03T07:26:00.000Z</time>
      </trkpt>
      <trkpt lat="43.65775" lon="1.33688">
        <ele>144</ele>
        <time>2020-10-03T07:26:01.000Z</time>
      </trkpt>
      <trkpt lat="43.65776" lon="1.33684">
        <ele>144</ele>
        <time>2020-10-03T07:26:02.000Z</time>
      </trkpt>
      <trkpt lat="43.65777" lon="1.33681">
        <ele>144</ele>
        <time>2020-10-03T07:26:03.000Z</time>
      </trkpt>
      <trkpt lat="43.65778" lon="1.33677">
        <ele>144</ele>
        <time>2020-10-03T07:26:04.000Z</time>
      </trkpt>
      <trkpt lat="43.65779" lon="1.33674">
        <ele>144</ele>
        <time>2020-10-03T07:26:05.000Z</time>
      </trkpt>
      <trkpt lat="43.65781" lon="1.3367">
        <ele>144</ele>
        <time>2020-10-03T07:26:06.000Z</time>
      </trkpt>
      <trkpt lat="43.65782" lon="1.33667">
        <ele>144</ele>
        <time>2020-10-03T07:26:07.000Z</time>
      </trkpt>
      <trkpt lat="43.65783" lon="1.33664">
        <ele>143.6219502677</ele>
        <time>2020-10-03T07:26:08.000Z</time>
      </trkpt>
      <trkpt lat="43.65785" lon="1.33661">
        <ele>143</ele>
        <time>2020-10-03T07:26:09.000Z</time>
      </trkpt>
      <trkpt lat="43.65786" lon="1.33657">
        <ele>143</ele>
        <time>2020-10-03T07:26:10.000Z</time>
      </trkpt>
      <trkpt lat="43.65788" lon="1.33654">
        <ele>143</ele>
        <time>2020-10-03T07:26:11.000Z</time>
      </trkpt>
      <trkpt lat="43.65789" lon="1.33651">
        <ele>143</ele>
        <time>2020-10-03T07:26:12.000Z</time>
      </trkpt>
      <trkpt lat="43.65791" lon="1.33647">
        <ele>143</ele>
        <time>2020-10-03T07:26:13.000Z</time>
      </trkpt>
      <trkpt lat="43.65792" lon="1.33644">
        <ele>143</ele>
        <time>2020-10-03T07:26:14.000Z</time>
      </trkpt>
      <trkpt lat="43.65794" lon="1.33641">
        <ele>143</ele>
        <time>2020-10-03T07:26:15.000Z</time>
      </trkpt>
      <trkpt lat="43.65796" lon="1.33638">
        <ele>143.36046615467</ele>
        <time>2020-10-03T07:26:16.000Z</time>
      </trkpt>
      <trkpt lat="43.65798" lon="1.33635">
        <ele>144</ele>
        <time>2020-10-03T07:26:17.000Z</time>
      </trkpt>
      <trkpt lat="43.65799" lon="1.33632">
        <ele>143.56250666667</ele>
        <time>2020-10-03T07:26:18.000Z</time>
      </trkpt>
      <trkpt lat="43.65801" lon="1.33629">
        <ele>143</ele>
        <time>2020-10-03T07:26:19.000Z</time>
      </trkpt>
      <trkpt lat="43.65803" lon="1.33626">
        <ele>143</ele>
        <time>2020-10-03T07:26:20.000Z</time>
      </trkpt>
      <trkpt lat="43.65805" lon="1.33623">
        <ele>143</ele>
        <time>2020-10-03T07:26:21.000Z</time>
      </trkpt>
      <trkpt lat="43.65807" lon="1.3362">
        <ele>143</ele>
        <time>2020-10-03T07:26:22.000Z</time>
      </trkpt>
      <trkpt lat="43.65809" lon="1.33617">
        <ele>143</ele>
        <time>2020-10-03T07:26:23.000Z</time>
      </trkpt>
      <trkpt lat="43.65811" lon="1.33615">
        <ele>143</ele>
        <time>2020-10-03T07:26:24.000Z</time>
      </trkpt>
      <trkpt lat="43.65812" lon="1.33612">
        <ele>143</ele>
        <time>2020-10-03T07:26:25.000Z</time>
      </trkpt>
      <trkpt lat="43.65814" lon="1.33609">
        <ele>143</ele>
        <time>2020-10-03T07:26:26.000Z</time>
      </trkpt>
      <trkpt lat="43.65816" lon="1.33606">
        <ele>143</ele>
        <time>2020-10-03T07:26:27.000Z</time>
      </trkpt>
      <trkpt lat="43.65817" lon="1.33603">
        <ele>143.43478067295</ele>
        <time>2020-10-03T07:26:28.000Z</time>
      </trkpt>
      <trkpt lat="43.65819" lon="1.336">
        <ele>144</ele>
        <time>2020-10-03T07:26:29.000Z</time>
      </trkpt>
      <trkpt lat="43.6582" lon="1.33597">
        <ele>144</ele>
        <time>2020-10-03T07:26:30.000Z</time>
      </trkpt>
      <trkpt lat="43.65822" lon="1.33593">
        <ele>144</ele>
        <time>2020-10-03T07:26:31.000Z</time>
      </trkpt>
      <trkpt lat="43.65824" lon="1.3359">
        <ele>144</ele>
        <time>2020-10-03T07:26:32.000Z</time>
      </trkpt>
      <trkpt lat="43.65826" lon="1.33588">
        <ele>144</ele>
        <time>2020-10-03T07:26:33.000Z</time>
      </trkpt>
      <trkpt lat="43.65827" lon="1.33585">
        <ele>144</ele>
        <time>2020-10-03T07:26:34.000Z</time>
      </trkpt>
      <trkpt lat="43.65829" lon="1.33581">
        <ele>144</ele>
        <time>2020-10-03T07:26:35.000Z</time>
      </trkpt>
      <trkpt lat="43.65831" lon="1.33578">
        <ele>144</ele>
        <time>2020-10-03T07:26:36.000Z</time>
      </trkpt>
      <trkpt lat="43.65832" lon="1.33575">
        <ele>144.34579450432</ele>
        <time>2020-10-03T07:26:37.000Z</time>
      </trkpt>
      <trkpt lat="43.65834" lon="1.33572">
        <ele>145</ele>
        <time>2020-10-03T07:26:38.000Z</time>
      </trkpt>
      <trkpt lat="43.65835" lon="1.33568">
        <ele>144.79487011175</ele>
        <time>2020-10-03T07:26:39.000Z</time>
      </trkpt>
      <trkpt lat="43.65837" lon="1.33565">
        <ele>144</ele>
        <time>2020-10-03T07:26:40.000Z</time>
      </trkpt>
      <trkpt lat="43.65838" lon="1.33562">
        <ele>144</ele>
        <time>2020-10-03T07:26:41.000Z</time>
      </trkpt>
      <trkpt lat="43.6584" lon="1.33559">
        <ele>144</ele>
        <time>2020-10-03T07:26:42.000Z</time>
      </trkpt>
      <trkpt lat="43.65841" lon="1.33556">
        <ele>144</ele>
        <time>2020-10-03T07:26:43.000Z</time>
      </trkpt>
      <trkpt lat="43.65842" lon="1.33553">
        <ele>144</ele>
        <time>2020-10-03T07:26:44.000Z</time>
      </trkpt>
      <trkpt lat="43.65844" lon="1.3355">
        <ele>144</ele>
        <time>2020-10-03T07:26:45.000Z</time>
      </trkpt>
      <trkpt lat="43.65845" lon="1.33546">
        <ele>144</ele>
        <time>2020-10-03T07:26:46.000Z</time>
      </trkpt>
      <trkpt lat="43.65846" lon="1.33543">
        <ele>144</ele>
        <time>2020-10-03T07:26:47.000Z</time>
      </trkpt>
      <trkpt lat="43.65847" lon="1.33539">
        <ele>144</ele>
        <time>2020-10-03T07:26:48.000Z</time>
      </trkpt>
      <trkpt lat="43.65849" lon="1.33536">
        <ele>144</ele>
        <time>2020-10-03T07:26:49.000Z</time>
      </trkpt>
      <trkpt lat="43.6585" lon="1.33532">
        <ele>144</ele>
        <time>2020-10-03T07:26:50.000Z</time>
      </trkpt>
      <trkpt lat="43.65851" lon="1.33529">
        <ele>144</ele>
        <time>2020-10-03T07:26:51.000Z</time>
      </trkpt>
      <trkpt lat="43.65852" lon="1.33525">
        <ele>144</ele>
        <time>2020-10-03T07:26:52.000Z</time>
      </trkpt>
      <trkpt lat="43.65853" lon="1.33523">
        <ele>144</ele>
        <time>2020-10-03T07:26:53.000Z</time>
      </trkpt>
      <trkpt lat="43.65853" lon="1.3352">
        <ele>144</ele>
        <time>2020-10-03T07:26:55.000Z</time>
      </trkpt>
      <trkpt lat="43.65851" lon="1.33519">
        <ele>144</ele>
        <time>2020-10-03T07:27:05.000Z</time>
      </trkpt>
      <trkpt lat="43.65849" lon="1.33517">
        <ele>143</ele>
        <time>2020-10-03T07:27:11.000Z</time>
      </trkpt>
      <trkpt lat="43.65847" lon="1.33515">
        <ele>143</ele>
        <time>2020-10-03T07:27:13.000Z</time>
      </trkpt>
      <trkpt lat="43.65845" lon="1.33514">
        <ele>143</ele>
        <time>2020-10-03T07:27:14.000Z</time>
      </trkpt>
      <trkpt lat="43.65842" lon="1.33512">
        <ele>143.42528211391</ele>
        <time>2020-10-03T07:27:15.000Z</time>
      </trkpt>
      <trkpt lat="43.6584" lon="1.33511">
        <ele>144</ele>
        <time>2020-10-03T07:27:16.000Z</time>
      </trkpt>
      <trkpt lat="43.65837" lon="1.33509">
        <ele>144</ele>
        <time>2020-10-03T07:27:17.000Z</time>
      </trkpt>
      <trkpt lat="43.65834" lon="1.33508">
        <ele>144</ele>
        <time>2020-10-03T07:27:18.000Z</time>
      </trkpt>
      <trkpt lat="43.65831" lon="1.33506">
        <ele>144</ele>
        <time>2020-10-03T07:27:19.000Z</time>
      </trkpt>
      <trkpt lat="43.65828" lon="1.33505">
        <ele>144</ele>
        <time>2020-10-03T07:27:20.000Z</time>
      </trkpt>
      <trkpt lat="43.65826" lon="1.33503">
        <ele>144</ele>
        <time>2020-10-03T07:27:21.000Z</time>
      </trkpt>
      <trkpt lat="43.65823" lon="1.33502">
        <ele>144</ele>
        <time>2020-10-03T07:27:22.000Z</time>
      </trkpt>
      <trkpt lat="43.6582" lon="1.335">
        <ele>144</ele>
        <time>2020-10-03T07:27:23.000Z</time>
      </trkpt>
      <trkpt lat="43.65817" lon="1.33499">
        <ele>143.63636575205</ele>
        <time>2020-10-03T07:27:24.000Z</time>
      </trkpt>
      <trkpt lat="43.65815" lon="1.33497">
        <ele>143</ele>
        <time>2020-10-03T07:27:25.000Z</time>
      </trkpt>
      <trkpt lat="43.65812" lon="1.33495">
        <ele>143</ele>
        <time>2020-10-03T07:27:26.000Z</time>
      </trkpt>
      <trkpt lat="43.65809" lon="1.33494">
        <ele>143.34090181818</ele>
        <time>2020-10-03T07:27:27.000Z</time>
      </trkpt>
      <trkpt lat="43.65806" lon="1.33492">
        <ele>144</ele>
        <time>2020-10-03T07:27:28.000Z</time>
      </trkpt>
      <trkpt lat="43.65803" lon="1.3349">
        <ele>144</ele>
        <time>2020-10-03T07:27:29.000Z</time>
      </trkpt>
      <trkpt lat="43.658" lon="1.33489">
        <ele>144</ele>
        <time>2020-10-03T07:27:30.000Z</time>
      </trkpt>
      <trkpt lat="43.65797" lon="1.33487">
        <ele>143.65517596516</ele>
        <time>2020-10-03T07:27:31.000Z</time>
      </trkpt>
      <trkpt lat="43.65795" lon="1.33485">
        <ele>143</ele>
        <time>2020-10-03T07:27:32.000Z</time>
      </trkpt>
      <trkpt lat="43.65792" lon="1.33483">
        <ele>143.35227636364</ele>
        <time>2020-10-03T07:27:33.000Z</time>
      </trkpt>
      <trkpt lat="43.65789" lon="1.33481">
        <ele>144</ele>
        <time>2020-10-03T07:27:34.000Z</time>
      </trkpt>
      <trkpt lat="43.65787" lon="1.3348">
        <ele>144</ele>
        <time>2020-10-03T07:27:35.000Z</time>
      </trkpt>
      <trkpt lat="43.65784" lon="1.33478">
        <ele>144</ele>
        <time>2020-10-03T07:27:36.000Z</time>
      </trkpt>
      <trkpt lat="43.65781" lon="1.33477">
        <ele>144</ele>
        <time>2020-10-03T07:27:37.000Z</time>
      </trkpt>
      <trkpt lat="43.65779" lon="1.33475">
        <ele>144</ele>
        <time>2020-10-03T07:27:38.000Z</time>
      </trkpt>
      <trkpt lat="43.65776" lon="1.33473">
        <ele>144</ele>
        <time>2020-10-03T07:27:39.000Z</time>
      </trkpt>
      <trkpt lat="43.65773" lon="1.33472">
        <ele>144</ele>
        <time>2020-10-03T07:27:40.000Z</time>
      </trkpt>
      <trkpt lat="43.6577" lon="1.3347">
        <ele>144</ele>
        <time>2020-10-03T07:27:41.000Z</time>
      </trkpt>
      <trkpt lat="43.65768" lon="1.33468">
        <ele>144</ele>
        <time>2020-10-03T07:27:42.000Z</time>
      </trkpt>
      <trkpt lat="43.65765" lon="1.33467">
        <ele>144</ele>
        <time>2020-10-03T07:27:43.000Z</time>
      </trkpt>
      <trkpt lat="43.65762" lon="1.33465">
        <ele>144</ele>
        <time>2020-10-03T07:27:44.000Z</time>
      </trkpt>
      <trkpt lat="43.65759" lon="1.33463">
        <ele>144</ele>
        <time>2020-10-03T07:27:45.000Z</time>
      </trkpt>
      <trkpt lat="43.65757" lon="1.33462">
        <ele>144</ele>
        <time>2020-10-03T07:27:46.000Z</time>
      </trkpt>
      <trkpt lat="43.65754" lon="1.3346">
        <ele>143.61445931775</ele>
        <time>2020-10-03T07:27:47.000Z</time>
      </trkpt>
      <trkpt lat="43.65751" lon="1.33458">
        <ele>143.44143728595</ele>
        <time>2020-10-03T07:27:48.000Z</time>
      </trkpt>
      <trkpt lat="43.65749" lon="1.33457">
        <ele>144</ele>
        <time>2020-10-03T07:27:49.000Z</time>
      </trkpt>
      <trkpt lat="43.65746" lon="1.33455">
        <ele>144</ele>
        <time>2020-10-03T07:27:50.000Z</time>
      </trkpt>
      <trkpt lat="43.65744" lon="1.33454">
        <ele>144</ele>
        <time>2020-10-03T07:27:51.000Z</time>
      </trkpt>
      <trkpt lat="43.65741" lon="1.33452">
        <ele>144</ele>
        <time>2020-10-03T07:27:52.000Z</time>
      </trkpt>
      <trkpt lat="43.65739" lon="1.33451">
        <ele>144</ele>
        <time>2020-10-03T07:27:53.000Z</time>
      </trkpt>
      <trkpt lat="43.65737" lon="1.33449">
        <ele>144</ele>
        <time>2020-10-03T07:27:54.000Z</time>
      </trkpt>
      <trkpt lat="43.65734" lon="1.33448">
        <ele>144</ele>
        <time>2020-10-03T07:27:55.000Z</time>
      </trkpt>
      <trkpt lat="43.65731" lon="1.33446">
        <ele>144.47959197001</ele>
        <time>2020-10-03T07:27:56.000Z</time>
      </trkpt>
      <trkpt lat="43.65728" lon="1.33444">
        <ele>145</ele>
        <time>2020-10-03T07:27:57.000Z</time>
      </trkpt>
      <trkpt lat="43.65726" lon="1.33443">
        <ele>145</ele>
        <time>2020-10-03T07:27:58.000Z</time>
      </trkpt>
      <trkpt lat="43.65723" lon="1.33441">
        <ele>145</ele>
        <time>2020-10-03T07:27:59.000Z</time>
      </trkpt>
      <trkpt lat="43.65721" lon="1.3344">
        <ele>145</ele>
        <time>2020-10-03T07:28:00.000Z</time>
      </trkpt>
      <trkpt lat="43.65718" lon="1.33439">
        <ele>145</ele>
        <time>2020-10-03T07:28:01.000Z</time>
      </trkpt>
      <trkpt lat="43.65715" lon="1.33437">
        <ele>145</ele>
        <time>2020-10-03T07:28:02.000Z</time>
      </trkpt>
      <trkpt lat="43.65713" lon="1.33436">
        <ele>145</ele>
        <time>2020-10-03T07:28:03.000Z</time>
      </trkpt>
      <trkpt lat="43.6571" lon="1.33435">
        <ele>145</ele>
        <time>2020-10-03T07:28:04.000Z</time>
      </trkpt>
      <trkpt lat="43.65707" lon="1.33433">
        <ele>144.5377360769</ele>
        <time>2020-10-03T07:28:05.000Z</time>
      </trkpt>
      <trkpt lat="43.65704" lon="1.33432">
        <ele>144</ele>
        <time>2020-10-03T07:28:06.000Z</time>
      </trkpt>
      <trkpt lat="43.65702" lon="1.3343">
        <ele>144</ele>
        <time>2020-10-03T07:28:07.000Z</time>
      </trkpt>
      <trkpt lat="43.657" lon="1.33428">
        <ele>144</ele>
        <time>2020-10-03T07:28:08.000Z</time>
      </trkpt>
      <trkpt lat="43.65697" lon="1.33427">
        <ele>144</ele>
        <time>2020-10-03T07:28:09.000Z</time>
      </trkpt>
      <trkpt lat="43.65695" lon="1.33425">
        <ele>144</ele>
        <time>2020-10-03T07:28:10.000Z</time>
      </trkpt>
      <trkpt lat="43.65692" lon="1.33424">
        <ele>144</ele>
        <time>2020-10-03T07:28:11.000Z</time>
      </trkpt>
      <trkpt lat="43.6569" lon="1.33422">
        <ele>144</ele>
        <time>2020-10-03T07:28:12.000Z</time>
      </trkpt>
      <trkpt lat="43.65687" lon="1.33421">
        <ele>144</ele>
        <time>2020-10-03T07:28:13.000Z</time>
      </trkpt>
      <trkpt lat="43.65685" lon="1.3342">
        <ele>144</ele>
        <time>2020-10-03T07:28:14.000Z</time>
      </trkpt>
      <trkpt lat="43.65682" lon="1.33418">
        <ele>144</ele>
        <time>2020-10-03T07:28:15.000Z</time>
      </trkpt>
      <trkpt lat="43.6568" lon="1.33416">
        <ele>144</ele>
        <time>2020-10-03T07:28:16.000Z</time>
      </trkpt>
      <trkpt lat="43.65677" lon="1.33415">
        <ele>144</ele>
        <time>2020-10-03T07:28:17.000Z</time>
      </trkpt>
      <trkpt lat="43.65674" lon="1.33414">
        <ele>144</ele>
        <time>2020-10-03T07:28:18.000Z</time>
      </trkpt>
      <trkpt lat="43.65671" lon="1.33412">
        <ele>144</ele>
        <time>2020-10-03T07:28:19.000Z</time>
      </trkpt>
      <trkpt lat="43.65668" lon="1.3341">
        <ele>144</ele>
        <time>2020-10-03T07:28:20.000Z</time>
      </trkpt>
      <trkpt lat="43.65665" lon="1.33408">
        <ele>144</ele>
        <time>2020-10-03T07:28:21.000Z</time>
      </trkpt>
      <trkpt lat="43.65663" lon="1.33407">
        <ele>144</ele>
        <time>2020-10-03T07:28:22.000Z</time>
      </trkpt>
      <trkpt lat="43.6566" lon="1.33405">
        <ele>144</ele>
        <time>2020-10-03T07:28:23.000Z</time>
      </trkpt>
      <trkpt lat="43.65657" lon="1.33404">
        <ele>144</ele>
        <time>2020-10-03T07:28:24.000Z</time>
      </trkpt>
      <trkpt lat="43.65654" lon="1.33402">
        <ele>144</ele>
        <time>2020-10-03T07:28:25.000Z</time>
      </trkpt>
      <trkpt lat="43.65651" lon="1.33401">
        <ele>144</ele>
        <time>2020-10-03T07:28:26.000Z</time>
      </trkpt>
      <trkpt lat="43.65648" lon="1.334">
        <ele>144</ele>
        <time>2020-10-03T07:28:27.000Z</time>
      </trkpt>
      <trkpt lat="43.65646" lon="1.33398">
        <ele>144</ele>
        <time>2020-10-03T07:28:28.000Z</time>
      </trkpt>
      <trkpt lat="43.65643" lon="1.33396">
        <ele>144</ele>
        <time>2020-10-03T07:28:29.000Z</time>
      </trkpt>
      <trkpt lat="43.6564" lon="1.33394">
        <ele>144</ele>
        <time>2020-10-03T07:28:30.000Z</time>
      </trkpt>
      <trkpt lat="43.65638" lon="1.33393">
        <ele>144</ele>
        <time>2020-10-03T07:28:31.000Z</time>
      </trkpt>
      <trkpt lat="43.65635" lon="1.33391">
        <ele>144</ele>
        <time>2020-10-03T07:28:32.000Z</time>
      </trkpt>
      <trkpt lat="43.65632" lon="1.3339">
        <ele>144.27847629541</ele>
        <time>2020-10-03T07:28:33.000Z</time>
      </trkpt>
      <trkpt lat="43.6563" lon="1.33388">
        <ele>145</ele>
        <time>2020-10-03T07:28:34.000Z</time>
      </trkpt>
      <trkpt lat="43.65627" lon="1.33387">
        <ele>145</ele>
        <time>2020-10-03T07:28:35.000Z</time>
      </trkpt>
      <trkpt lat="43.65625" lon="1.33385">
        <ele>145</ele>
        <time>2020-10-03T07:28:36.000Z</time>
      </trkpt>
      <trkpt lat="43.65622" lon="1.33384">
        <ele>145</ele>
        <time>2020-10-03T07:28:37.000Z</time>
      </trkpt>
      <trkpt lat="43.6562" lon="1.33383">
        <ele>145</ele>
        <time>2020-10-03T07:28:38.000Z</time>
      </trkpt>
      <trkpt lat="43.65617" lon="1.33381">
        <ele>144.58823466139</ele>
        <time>2020-10-03T07:28:39.000Z</time>
      </trkpt>
      <trkpt lat="43.65615" lon="1.33379">
        <ele>144</ele>
        <time>2020-10-03T07:28:40.000Z</time>
      </trkpt>
      <trkpt lat="43.65612" lon="1.33378">
        <ele>144</ele>
        <time>2020-10-03T07:28:41.000Z</time>
      </trkpt>
      <trkpt lat="43.65609" lon="1.33376">
        <ele>144</ele>
        <time>2020-10-03T07:28:42.000Z</time>
      </trkpt>
      <trkpt lat="43.65607" lon="1.33374">
        <ele>144</ele>
        <time>2020-10-03T07:28:43.000Z</time>
      </trkpt>
      <trkpt lat="43.65604" lon="1.33373">
        <ele>144</ele>
        <time>2020-10-03T07:28:44.000Z</time>
      </trkpt>
      <trkpt lat="43.65602" lon="1.33371">
        <ele>144</ele>
        <time>2020-10-03T07:28:45.000Z</time>
      </trkpt>
      <trkpt lat="43.65599" lon="1.3337">
        <ele>144</ele>
        <time>2020-10-03T07:28:46.000Z</time>
      </trkpt>
      <trkpt lat="43.65597" lon="1.33368">
        <ele>144</ele>
        <time>2020-10-03T07:28:47.000Z</time>
      </trkpt>
      <trkpt lat="43.65594" lon="1.33366">
        <ele>144</ele>
        <time>2020-10-03T07:28:48.000Z</time>
      </trkpt>
      <trkpt lat="43.65591" lon="1.33364">
        <ele>144</ele>
        <time>2020-10-03T07:28:49.000Z</time>
      </trkpt>
      <trkpt lat="43.65589" lon="1.33363">
        <ele>144</ele>
        <time>2020-10-03T07:28:50.000Z</time>
      </trkpt>
      <trkpt lat="43.65586" lon="1.33361">
        <ele>144</ele>
        <time>2020-10-03T07:28:51.000Z</time>
      </trkpt>
      <trkpt lat="43.65583" lon="1.3336">
        <ele>144</ele>
        <time>2020-10-03T07:28:52.000Z</time>
      </trkpt>
      <trkpt lat="43.6558" lon="1.33358">
        <ele>144</ele>
        <time>2020-10-03T07:28:53.000Z</time>
      </trkpt>
      <trkpt lat="43.65578" lon="1.33356">
        <ele>144</ele>
        <time>2020-10-03T07:28:54.000Z</time>
      </trkpt>
      <trkpt lat="43.65575" lon="1.33354">
        <ele>144</ele>
        <time>2020-10-03T07:28:55.000Z</time>
      </trkpt>
      <trkpt lat="43.65573" lon="1.33353">
        <ele>144.36606857143</ele>
        <time>2020-10-03T07:28:56.000Z</time>
      </trkpt>
      <trkpt lat="43.6557" lon="1.33351">
        <ele>145</ele>
        <time>2020-10-03T07:28:57.000Z</time>
      </trkpt>
      <trkpt lat="43.65567" lon="1.33349">
        <ele>145</ele>
        <time>2020-10-03T07:28:58.000Z</time>
      </trkpt>
      <trkpt lat="43.65565" lon="1.33347">
        <ele>145</ele>
        <time>2020-10-03T07:28:59.000Z</time>
      </trkpt>
      <trkpt lat="43.65562" lon="1.33346">
        <ele>145</ele>
        <time>2020-10-03T07:29:00.000Z</time>
      </trkpt>
      <trkpt lat="43.65559" lon="1.33344">
        <ele>145</ele>
        <time>2020-10-03T07:29:01.000Z</time>
      </trkpt>
      <trkpt lat="43.65557" lon="1.33343">
        <ele>145</ele>
        <time>2020-10-03T07:29:02.000Z</time>
      </trkpt>
      <trkpt lat="43.65554" lon="1.33341">
        <ele>145</ele>
        <time>2020-10-03T07:29:03.000Z</time>
      </trkpt>
      <trkpt lat="43.65551" lon="1.33339">
        <ele>145</ele>
        <time>2020-10-03T07:29:04.000Z</time>
      </trkpt>
      <trkpt lat="43.65548" lon="1.33338">
        <ele>145</ele>
        <time>2020-10-03T07:29:05.000Z</time>
      </trkpt>
      <trkpt lat="43.65546" lon="1.33336">
        <ele>145</ele>
        <time>2020-10-03T07:29:06.000Z</time>
      </trkpt>
      <trkpt lat="43.65543" lon="1.33335">
        <ele>145</ele>
        <time>2020-10-03T07:29:07.000Z</time>
      </trkpt>
      <trkpt lat="43.65541" lon="1.33333">
        <ele>144.65115794487</ele>
        <time>2020-10-03T07:29:08.000Z</time>
      </trkpt>
      <trkpt lat="43.65538" lon="1.33332">
        <ele>144</ele>
        <time>2020-10-03T07:29:09.000Z</time>
      </trkpt>
      <trkpt lat="43.65535" lon="1.3333">
        <ele>144</ele>
        <time>2020-10-03T07:29:10.000Z</time>
      </trkpt>
      <trkpt lat="43.65533" lon="1.33329">
        <ele>144</ele>
        <time>2020-10-03T07:29:11.000Z</time>
      </trkpt>
      <trkpt lat="43.6553" lon="1.33328">
        <ele>144</ele>
        <time>2020-10-03T07:29:12.000Z</time>
      </trkpt>
      <trkpt lat="43.65527" lon="1.33326">
        <ele>144</ele>
        <time>2020-10-03T07:29:13.000Z</time>
      </trkpt>
      <trkpt lat="43.65524" lon="1.33324">
        <ele>143.65420963227</ele>
        <time>2020-10-03T07:29:14.000Z</time>
      </trkpt>
      <trkpt lat="43.65522" lon="1.33322">
        <ele>143</ele>
        <time>2020-10-03T07:29:15.000Z</time>
      </trkpt>
      <trkpt lat="43.65519" lon="1.33321">
        <ele>143</ele>
        <time>2020-10-03T07:29:16.000Z</time>
      </trkpt>
      <trkpt lat="43.65516" lon="1.33319">
        <ele>143.41420575471</ele>
        <time>2020-10-03T07:29:17.000Z</time>
      </trkpt>
      <trkpt lat="43.65513" lon="1.33318">
        <ele>144.59763994819</ele>
        <time>2020-10-03T07:29:18.000Z</time>
      </trkpt>
      <trkpt lat="43.65511" lon="1.33316">
        <ele>145</ele>
        <time>2020-10-03T07:29:19.000Z</time>
      </trkpt>
      <trkpt lat="43.65508" lon="1.33315">
        <ele>145</ele>
        <time>2020-10-03T07:29:20.000Z</time>
      </trkpt>
      <trkpt lat="43.65505" lon="1.33314">
        <ele>145</ele>
        <time>2020-10-03T07:29:21.000Z</time>
      </trkpt>
      <trkpt lat="43.65502" lon="1.33312">
        <ele>145</ele>
        <time>2020-10-03T07:29:22.000Z</time>
      </trkpt>
      <trkpt lat="43.65499" lon="1.33311">
        <ele>145</ele>
        <time>2020-10-03T07:29:23.000Z</time>
      </trkpt>
      <trkpt lat="43.65496" lon="1.33309">
        <ele>145</ele>
        <time>2020-10-03T07:29:24.000Z</time>
      </trkpt>
      <trkpt lat="43.65493" lon="1.33307">
        <ele>145</ele>
        <time>2020-10-03T07:29:25.000Z</time>
      </trkpt>
      <trkpt lat="43.65491" lon="1.33306">
        <ele>145</ele>
        <time>2020-10-03T07:29:26.000Z</time>
      </trkpt>
      <trkpt lat="43.65486" lon="1.33304">
        <ele>145</ele>
        <time>2020-10-03T07:29:28.000Z</time>
      </trkpt>
      <trkpt lat="43.65483" lon="1.33303">
        <ele>145</ele>
        <time>2020-10-03T07:29:29.000Z</time>
      </trkpt>
      <trkpt lat="43.6548" lon="1.33302">
        <ele>145</ele>
        <time>2020-10-03T07:29:30.000Z</time>
      </trkpt>
      <trkpt lat="43.65478" lon="1.333">
        <ele>145</ele>
        <time>2020-10-03T07:29:31.000Z</time>
      </trkpt>
      <trkpt lat="43.65475" lon="1.33299">
        <ele>145</ele>
        <time>2020-10-03T07:29:32.000Z</time>
      </trkpt>
      <trkpt lat="43.65472" lon="1.33297">
        <ele>145.41379158146</ele>
        <time>2020-10-03T07:29:33.000Z</time>
      </trkpt>
      <trkpt lat="43.6547" lon="1.33296">
        <ele>146</ele>
        <time>2020-10-03T07:29:34.000Z</time>
      </trkpt>
      <trkpt lat="43.65467" lon="1.33294">
        <ele>146</ele>
        <time>2020-10-03T07:29:35.000Z</time>
      </trkpt>
      <trkpt lat="43.65464" lon="1.33292">
        <ele>146</ele>
        <time>2020-10-03T07:29:36.000Z</time>
      </trkpt>
      <trkpt lat="43.65462" lon="1.33291">
        <ele>146</ele>
        <time>2020-10-03T07:29:37.000Z</time>
      </trkpt>
      <trkpt lat="43.65459" lon="1.3329">
        <ele>146</ele>
        <time>2020-10-03T07:29:38.000Z</time>
      </trkpt>
      <trkpt lat="43.65457" lon="1.33289">
        <ele>146</ele>
        <time>2020-10-03T07:29:39.000Z</time>
      </trkpt>
      <trkpt lat="43.65454" lon="1.33288">
        <ele>146</ele>
        <time>2020-10-03T07:29:40.000Z</time>
      </trkpt>
      <trkpt lat="43.65451" lon="1.33286">
        <ele>146</ele>
        <time>2020-10-03T07:29:41.000Z</time>
      </trkpt>
      <trkpt lat="43.65448" lon="1.33285">
        <ele>146</ele>
        <time>2020-10-03T07:29:42.000Z</time>
      </trkpt>
      <trkpt lat="43.65445" lon="1.33283">
        <ele>146</ele>
        <time>2020-10-03T07:29:43.000Z</time>
      </trkpt>
      <trkpt lat="43.65443" lon="1.33281">
        <ele>146</ele>
        <time>2020-10-03T07:29:44.000Z</time>
      </trkpt>
      <trkpt lat="43.6544" lon="1.3328">
        <ele>146</ele>
        <time>2020-10-03T07:29:45.000Z</time>
      </trkpt>
      <trkpt lat="43.65437" lon="1.33278">
        <ele>146</ele>
        <time>2020-10-03T07:29:46.000Z</time>
      </trkpt>
      <trkpt lat="43.65434" lon="1.33278">
        <ele>146</ele>
        <time>2020-10-03T07:29:47.000Z</time>
      </trkpt>
      <trkpt lat="43.65432" lon="1.33277">
        <ele>146</ele>
        <time>2020-10-03T07:29:48.000Z</time>
      </trkpt>
      <trkpt lat="43.65429" lon="1.33275">
        <ele>146</ele>
        <time>2020-10-03T07:29:49.000Z</time>
      </trkpt>
      <trkpt lat="43.65426" lon="1.33274">
        <ele>146</ele>
        <time>2020-10-03T07:29:50.000Z</time>
      </trkpt>
      <trkpt lat="43.65424" lon="1.33272">
        <ele>146.4454542281</ele>
        <time>2020-10-03T07:29:51.000Z</time>
      </trkpt>
      <trkpt lat="43.65421" lon="1.33271">
        <ele>147</ele>
        <time>2020-10-03T07:29:52.000Z</time>
      </trkpt>
      <trkpt lat="43.65418" lon="1.33269">
        <ele>147</ele>
        <time>2020-10-03T07:29:53.000Z</time>
      </trkpt>
      <trkpt lat="43.65415" lon="1.33268">
        <ele>147</ele>
        <time>2020-10-03T07:29:54.000Z</time>
      </trkpt>
      <trkpt lat="43.65412" lon="1.33267">
        <ele>147</ele>
        <time>2020-10-03T07:29:55.000Z</time>
      </trkpt>
      <trkpt lat="43.65409" lon="1.33266">
        <ele>147</ele>
        <time>2020-10-03T07:29:56.000Z</time>
      </trkpt>
      <trkpt lat="43.65406" lon="1.33265">
        <ele>147</ele>
        <time>2020-10-03T07:29:57.000Z</time>
      </trkpt>
      <trkpt lat="43.65404" lon="1.33264">
        <ele>147</ele>
        <time>2020-10-03T07:29:58.000Z</time>
      </trkpt>
      <trkpt lat="43.65401" lon="1.33263">
        <ele>146.5377360769</ele>
        <time>2020-10-03T07:29:59.000Z</time>
      </trkpt>
      <trkpt lat="43.65398" lon="1.33262">
        <ele>146</ele>
        <time>2020-10-03T07:30:00.000Z</time>
      </trkpt>
      <trkpt lat="43.65396" lon="1.33261">
        <ele>146</ele>
        <time>2020-10-03T07:30:01.000Z</time>
      </trkpt>
      <trkpt lat="43.65393" lon="1.3326">
        <ele>146</ele>
        <time>2020-10-03T07:30:02.000Z</time>
      </trkpt>
      <trkpt lat="43.6539" lon="1.33258">
        <ele>146</ele>
        <time>2020-10-03T07:30:03.000Z</time>
      </trkpt>
      <trkpt lat="43.65387" lon="1.33257">
        <ele>146</ele>
        <time>2020-10-03T07:30:04.000Z</time>
      </trkpt>
      <trkpt lat="43.65385" lon="1.33255">
        <ele>146</ele>
        <time>2020-10-03T07:30:05.000Z</time>
      </trkpt>
      <trkpt lat="43.65382" lon="1.33254">
        <ele>146</ele>
        <time>2020-10-03T07:30:06.000Z</time>
      </trkpt>
      <trkpt lat="43.65379" lon="1.33252">
        <ele>146</ele>
        <time>2020-10-03T07:30:07.000Z</time>
      </trkpt>
      <trkpt lat="43.65376" lon="1.3325">
        <ele>146</ele>
        <time>2020-10-03T07:30:08.000Z</time>
      </trkpt>
      <trkpt lat="43.65374" lon="1.33249">
        <ele>146</ele>
        <time>2020-10-03T07:30:09.000Z</time>
      </trkpt>
      <trkpt lat="43.65371" lon="1.33248">
        <ele>146</ele>
        <time>2020-10-03T07:30:10.000Z</time>
      </trkpt>
      <trkpt lat="43.65369" lon="1.33246">
        <ele>146.35790026813</ele>
        <time>2020-10-03T07:30:11.000Z</time>
      </trkpt>
      <trkpt lat="43.65366" lon="1.33245">
        <ele>147</ele>
        <time>2020-10-03T07:30:12.000Z</time>
      </trkpt>
      <trkpt lat="43.65363" lon="1.33244">
        <ele>147</ele>
        <time>2020-10-03T07:30:13.000Z</time>
      </trkpt>
      <trkpt lat="43.65361" lon="1.33242">
        <ele>147</ele>
        <time>2020-10-03T07:30:14.000Z</time>
      </trkpt>
      <trkpt lat="43.65358" lon="1.33241">
        <ele>147</ele>
        <time>2020-10-03T07:30:15.000Z</time>
      </trkpt>
      <trkpt lat="43.65355" lon="1.33239">
        <ele>147</ele>
        <time>2020-10-03T07:30:16.000Z</time>
      </trkpt>
      <trkpt lat="43.65353" lon="1.33238">
        <ele>146.67391546317</ele>
        <time>2020-10-03T07:30:17.000Z</time>
      </trkpt>
      <trkpt lat="43.6535" lon="1.33237">
        <ele>146</ele>
        <time>2020-10-03T07:30:18.000Z</time>
      </trkpt>
      <trkpt lat="43.65348" lon="1.33236">
        <ele>146</ele>
        <time>2020-10-03T07:30:19.000Z</time>
      </trkpt>
      <trkpt lat="43.65345" lon="1.33234">
        <ele>146</ele>
        <time>2020-10-03T07:30:20.000Z</time>
      </trkpt>
      <trkpt lat="43.65343" lon="1.33233">
        <ele>146</ele>
        <time>2020-10-03T07:30:21.000Z</time>
      </trkpt>
      <trkpt lat="43.6534" lon="1.33232">
        <ele>146</ele>
        <time>2020-10-03T07:30:22.000Z</time>
      </trkpt>
      <trkpt lat="43.65338" lon="1.33231">
        <ele>146</ele>
        <time>2020-10-03T07:30:23.000Z</time>
      </trkpt>
      <trkpt lat="43.65336" lon="1.3323">
        <ele>146</ele>
        <time>2020-10-03T07:30:24.000Z</time>
      </trkpt>
      <trkpt lat="43.65334" lon="1.33229">
        <ele>146</ele>
        <time>2020-10-03T07:30:25.000Z</time>
      </trkpt>
      <trkpt lat="43.65332" lon="1.33228">
        <ele>146</ele>
        <time>2020-10-03T07:30:26.000Z</time>
      </trkpt>
      <trkpt lat="43.65329" lon="1.33227">
        <ele>146</ele>
        <time>2020-10-03T07:30:27.000Z</time>
      </trkpt>
      <trkpt lat="43.65326" lon="1.33227">
        <ele>146</ele>
        <time>2020-10-03T07:30:28.000Z</time>
      </trkpt>
      <trkpt lat="43.65324" lon="1.33226">
        <ele>146</ele>
        <time>2020-10-03T07:30:29.000Z</time>
      </trkpt>
      <trkpt lat="43.65321" lon="1.33225">
        <ele>146</ele>
        <time>2020-10-03T07:30:30.000Z</time>
      </trkpt>
      <trkpt lat="43.65318" lon="1.33224">
        <ele>146</ele>
        <time>2020-10-03T07:30:31.000Z</time>
      </trkpt>
      <trkpt lat="43.65316" lon="1.33223">
        <ele>146.31867668158</ele>
        <time>2020-10-03T07:30:32.000Z</time>
      </trkpt>
      <trkpt lat="43.65313" lon="1.33222">
        <ele>147</ele>
        <time>2020-10-03T07:30:33.000Z</time>
      </trkpt>
      <trkpt lat="43.65311" lon="1.3322">
        <ele>147</ele>
        <time>2020-10-03T07:30:34.000Z</time>
      </trkpt>
      <trkpt lat="43.65308" lon="1.33219">
        <ele>147</ele>
        <time>2020-10-03T07:30:35.000Z</time>
      </trkpt>
      <trkpt lat="43.65305" lon="1.33218">
        <ele>147</ele>
        <time>2020-10-03T07:30:36.000Z</time>
      </trkpt>
      <trkpt lat="43.65302" lon="1.33217">
        <ele>147</ele>
        <time>2020-10-03T07:30:37.000Z</time>
      </trkpt>
      <trkpt lat="43.65299" lon="1.33215">
        <ele>147</ele>
        <time>2020-10-03T07:30:38.000Z</time>
      </trkpt>
      <trkpt lat="43.65297" lon="1.33214">
        <ele>147</ele>
        <time>2020-10-03T07:30:39.000Z</time>
      </trkpt>
      <trkpt lat="43.65295" lon="1.33212">
        <ele>146.69565217391</ele>
        <time>2020-10-03T07:30:40.000Z</time>
      </trkpt>
      <trkpt lat="43.65293" lon="1.3321">
        <ele>146</ele>
        <time>2020-10-03T07:30:41.000Z</time>
      </trkpt>
      <trkpt lat="43.6529" lon="1.33209">
        <ele>146</ele>
        <time>2020-10-03T07:30:42.000Z</time>
      </trkpt>
      <trkpt lat="43.65288" lon="1.33207">
        <ele>146</ele>
        <time>2020-10-03T07:30:43.000Z</time>
      </trkpt>
      <trkpt lat="43.65285" lon="1.33206">
        <ele>146</ele>
        <time>2020-10-03T07:30:44.000Z</time>
      </trkpt>
      <trkpt lat="43.65282" lon="1.33205">
        <ele>146</ele>
        <time>2020-10-03T07:30:45.000Z</time>
      </trkpt>
      <trkpt lat="43.65276" lon="1.33203">
        <ele>146</ele>
        <time>2020-10-03T07:30:47.000Z</time>
      </trkpt>
      <trkpt lat="43.65274" lon="1.33202">
        <ele>146.19834763199</ele>
        <time>2020-10-03T07:30:48.000Z</time>
      </trkpt>
      <trkpt lat="43.65271" lon="1.33201">
        <ele>147</ele>
        <time>2020-10-03T07:30:49.000Z</time>
      </trkpt>
      <trkpt lat="43.65268" lon="1.332">
        <ele>147</ele>
        <time>2020-10-03T07:30:50.000Z</time>
      </trkpt>
      <trkpt lat="43.65265" lon="1.332">
        <ele>147.45714425034</ele>
        <time>2020-10-03T07:30:51.000Z</time>
      </trkpt>
      <trkpt lat="43.65263" lon="1.33198">
        <ele>148</ele>
        <time>2020-10-03T07:30:52.000Z</time>
      </trkpt>
      <trkpt lat="43.6526" lon="1.33196">
        <ele>148</ele>
        <time>2020-10-03T07:30:53.000Z</time>
      </trkpt>
      <trkpt lat="43.65261" lon="1.33194">
        <ele>148</ele>
        <time>2020-10-03T07:30:55.000Z</time>
      </trkpt>
      <trkpt lat="43.65263" lon="1.33193">
        <ele>148</ele>
        <time>2020-10-03T07:30:56.000Z</time>
      </trkpt>
      <trkpt lat="43.65265" lon="1.33191">
        <ele>148</ele>
        <time>2020-10-03T07:30:57.000Z</time>
      </trkpt>
      <trkpt lat="43.65268" lon="1.33189">
        <ele>148</ele>
        <time>2020-10-03T07:30:58.000Z</time>
      </trkpt>
      <trkpt lat="43.6527" lon="1.33188">
        <ele>148</ele>
        <time>2020-10-03T07:30:59.000Z</time>
      </trkpt>
      <trkpt lat="43.65272" lon="1.33188">
        <ele>148</ele>
        <time>2020-10-03T07:31:00.000Z</time>
      </trkpt>
      <trkpt lat="43.65274" lon="1.33187">
        <ele>147.57303936374</ele>
        <time>2020-10-03T07:31:01.000Z</time>
      </trkpt>
      <trkpt lat="43.65276" lon="1.33186">
        <ele>147</ele>
        <time>2020-10-03T07:31:02.000Z</time>
      </trkpt>
      <trkpt lat="43.65278" lon="1.33185">
        <ele>147</ele>
        <time>2020-10-03T07:31:03.000Z</time>
      </trkpt>
      <trkpt lat="43.6528" lon="1.33184">
        <ele>147</ele>
        <time>2020-10-03T07:31:04.000Z</time>
      </trkpt>
      <trkpt lat="43.65282" lon="1.33182">
        <ele>147</ele>
        <time>2020-10-03T07:31:05.000Z</time>
      </trkpt>
      <trkpt lat="43.65284" lon="1.3318">
        <ele>147</ele>
        <time>2020-10-03T07:31:06.000Z</time>
      </trkpt>
      <trkpt lat="43.65286" lon="1.33178">
        <ele>147</ele>
        <time>2020-10-03T07:31:07.000Z</time>
      </trkpt>
      <trkpt lat="43.65289" lon="1.33176">
        <ele>146.76922471003</ele>
        <time>2020-10-03T07:31:08.000Z</time>
      </trkpt>
      <trkpt lat="43.65291" lon="1.33174">
        <ele>146</ele>
        <time>2020-10-03T07:31:09.000Z</time>
      </trkpt>
      <trkpt lat="43.65294" lon="1.33172">
        <ele>146</ele>
        <time>2020-10-03T07:31:10.000Z</time>
      </trkpt>
      <trkpt lat="43.65296" lon="1.3317">
        <ele>146</ele>
        <time>2020-10-03T07:31:11.000Z</time>
      </trkpt>
      <trkpt lat="43.65299" lon="1.33168">
        <ele>146</ele>
        <time>2020-10-03T07:31:12.000Z</time>
      </trkpt>
      <trkpt lat="43.65301" lon="1.33167">
        <ele>145.55555871603</ele>
        <time>2020-10-03T07:31:13.000Z</time>
      </trkpt>
      <trkpt lat="43.65303" lon="1.33165">
        <ele>145</ele>
        <time>2020-10-03T07:31:14.000Z</time>
      </trkpt>
      <trkpt lat="43.65306" lon="1.33163">
        <ele>145</ele>
        <time>2020-10-03T07:31:15.000Z</time>
      </trkpt>
      <trkpt lat="43.65308" lon="1.33161">
        <ele>145</ele>
        <time>2020-10-03T07:31:16.000Z</time>
      </trkpt>
      <trkpt lat="43.6531" lon="1.33159">
        <ele>145</ele>
        <time>2020-10-03T07:31:17.000Z</time>
      </trkpt>
      <trkpt lat="43.65312" lon="1.33156">
        <ele>145</ele>
        <time>2020-10-03T07:31:18.000Z</time>
      </trkpt>
      <trkpt lat="43.65314" lon="1.33154">
        <ele>145</ele>
        <time>2020-10-03T07:31:19.000Z</time>
      </trkpt>
      <trkpt lat="43.65317" lon="1.33152">
        <ele>145</ele>
        <time>2020-10-03T07:31:20.000Z</time>
      </trkpt>
      <trkpt lat="43.65319" lon="1.33151">
        <ele>145.48077538461</ele>
        <time>2020-10-03T07:31:21.000Z</time>
      </trkpt>
      <trkpt lat="43.65322" lon="1.33149">
        <ele>146</ele>
        <time>2020-10-03T07:31:22.000Z</time>
      </trkpt>
      <trkpt lat="43.65325" lon="1.33148">
        <ele>146.35294560552</ele>
        <time>2020-10-03T07:31:23.000Z</time>
      </trkpt>
      <trkpt lat="43.65327" lon="1.33146">
        <ele>147</ele>
        <time>2020-10-03T07:31:24.000Z</time>
      </trkpt>
      <trkpt lat="43.6533" lon="1.33144">
        <ele>147</ele>
        <time>2020-10-03T07:31:25.000Z</time>
      </trkpt>
      <trkpt lat="43.65332" lon="1.33142">
        <ele>147</ele>
        <time>2020-10-03T07:31:26.000Z</time>
      </trkpt>
      <trkpt lat="43.65335" lon="1.3314">
        <ele>147</ele>
        <time>2020-10-03T07:31:27.000Z</time>
      </trkpt>
      <trkpt lat="43.65338" lon="1.33138">
        <ele>147</ele>
        <time>2020-10-03T07:31:28.000Z</time>
      </trkpt>
      <trkpt lat="43.6534" lon="1.33136">
        <ele>146.55356571429</ele>
        <time>2020-10-03T07:31:29.000Z</time>
      </trkpt>
      <trkpt lat="43.65343" lon="1.33135">
        <ele>146</ele>
        <time>2020-10-03T07:31:30.000Z</time>
      </trkpt>
      <trkpt lat="43.65345" lon="1.33133">
        <ele>145.63528897991</ele>
        <time>2020-10-03T07:31:31.000Z</time>
      </trkpt>
      <trkpt lat="43.65347" lon="1.33131">
        <ele>145</ele>
        <time>2020-10-03T07:31:32.000Z</time>
      </trkpt>
      <trkpt lat="43.6535" lon="1.33129">
        <ele>145</ele>
        <time>2020-10-03T07:31:33.000Z</time>
      </trkpt>
      <trkpt lat="43.65352" lon="1.33128">
        <ele>145</ele>
        <time>2020-10-03T07:31:34.000Z</time>
      </trkpt>
      <trkpt lat="43.65354" lon="1.33126">
        <ele>145</ele>
        <time>2020-10-03T07:31:35.000Z</time>
      </trkpt>
      <trkpt lat="43.65356" lon="1.33123">
        <ele>145</ele>
        <time>2020-10-03T07:31:36.000Z</time>
      </trkpt>
      <trkpt lat="43.65359" lon="1.33121">
        <ele>145</ele>
        <time>2020-10-03T07:31:37.000Z</time>
      </trkpt>
      <trkpt lat="43.65361" lon="1.33118">
        <ele>145</ele>
        <time>2020-10-03T07:31:38.000Z</time>
      </trkpt>
      <trkpt lat="43.65363" lon="1.33116">
        <ele>145</ele>
        <time>2020-10-03T07:31:39.000Z</time>
      </trkpt>
      <trkpt lat="43.65366" lon="1.33113">
        <ele>145</ele>
        <time>2020-10-03T07:31:40.000Z</time>
      </trkpt>
      <trkpt lat="43.65368" lon="1.33111">
        <ele>144.55356571429</ele>
        <time>2020-10-03T07:31:41.000Z</time>
      </trkpt>
      <trkpt lat="43.6537" lon="1.33108">
        <ele>144</ele>
        <time>2020-10-03T07:31:42.000Z</time>
      </trkpt>
      <trkpt lat="43.65373" lon="1.33105">
        <ele>144</ele>
        <time>2020-10-03T07:31:43.000Z</time>
      </trkpt>
      <trkpt lat="43.65375" lon="1.33102">
        <ele>144</ele>
        <time>2020-10-03T07:31:44.000Z</time>
      </trkpt>
      <trkpt lat="43.65378" lon="1.33099">
        <ele>144</ele>
        <time>2020-10-03T07:31:45.000Z</time>
      </trkpt>
      <trkpt lat="43.6538" lon="1.33097">
        <ele>143.59090909091</ele>
        <time>2020-10-03T07:31:46.000Z</time>
      </trkpt>
      <trkpt lat="43.65382" lon="1.33094">
        <ele>143</ele>
        <time>2020-10-03T07:31:47.000Z</time>
      </trkpt>
      <trkpt lat="43.65384" lon="1.33091">
        <ele>143</ele>
        <time>2020-10-03T07:31:48.000Z</time>
      </trkpt>
      <trkpt lat="43.65387" lon="1.33088">
        <ele>143</ele>
        <time>2020-10-03T07:31:49.000Z</time>
      </trkpt>
      <trkpt lat="43.65389" lon="1.33085">
        <ele>143</ele>
        <time>2020-10-03T07:31:50.000Z</time>
      </trkpt>
      <trkpt lat="43.65391" lon="1.33082">
        <ele>143</ele>
        <time>2020-10-03T07:31:51.000Z</time>
      </trkpt>
      <trkpt lat="43.65393" lon="1.33078">
        <ele>143</ele>
        <time>2020-10-03T07:31:52.000Z</time>
      </trkpt>
      <trkpt lat="43.65395" lon="1.33075">
        <ele>142.33334281488</ele>
        <time>2020-10-03T07:31:53.000Z</time>
      </trkpt>
      <trkpt lat="43.65397" lon="1.33072">
        <ele>141</ele>
        <time>2020-10-03T07:31:54.000Z</time>
      </trkpt>
      <trkpt lat="43.654" lon="1.33069">
        <ele>141</ele>
        <time>2020-10-03T07:31:55.000Z</time>
      </trkpt>
      <trkpt lat="43.65402" lon="1.33065">
        <ele>141</ele>
        <time>2020-10-03T07:31:56.000Z</time>
      </trkpt>
      <trkpt lat="43.65403" lon="1.33062">
        <ele>141</ele>
        <time>2020-10-03T07:31:57.000Z</time>
      </trkpt>
      <trkpt lat="43.65405" lon="1.33059">
        <ele>141</ele>
        <time>2020-10-03T07:31:58.000Z</time>
      </trkpt>
      <trkpt lat="43.65407" lon="1.33056">
        <ele>141</ele>
        <time>2020-10-03T07:31:59.000Z</time>
      </trkpt>
      <trkpt lat="43.65408" lon="1.33052">
        <ele>141</ele>
        <time>2020-10-03T07:32:00.000Z</time>
      </trkpt>
      <trkpt lat="43.6541" lon="1.33049">
        <ele>141</ele>
        <time>2020-10-03T07:32:01.000Z</time>
      </trkpt>
      <trkpt lat="43.65411" lon="1.33046">
        <ele>141</ele>
        <time>2020-10-03T07:32:02.000Z</time>
      </trkpt>
      <trkpt lat="43.65413" lon="1.33042">
        <ele>141</ele>
        <time>2020-10-03T07:32:03.000Z</time>
      </trkpt>
      <trkpt lat="43.65414" lon="1.33039">
        <ele>140.60240889533</ele>
        <time>2020-10-03T07:32:04.000Z</time>
      </trkpt>
      <trkpt lat="43.65416" lon="1.33036">
        <ele>140</ele>
        <time>2020-10-03T07:32:05.000Z</time>
      </trkpt>
      <trkpt lat="43.65417" lon="1.33032">
        <ele>139.63302644558</ele>
        <time>2020-10-03T07:32:06.000Z</time>
      </trkpt>
      <trkpt lat="43.65418" lon="1.33028">
        <ele>139</ele>
        <time>2020-10-03T07:32:07.000Z</time>
      </trkpt>
      <trkpt lat="43.6542" lon="1.33025">
        <ele>139</ele>
        <time>2020-10-03T07:32:08.000Z</time>
      </trkpt>
      <trkpt lat="43.65421" lon="1.33021">
        <ele>139</ele>
        <time>2020-10-03T07:32:09.000Z</time>
      </trkpt>
      <trkpt lat="43.65423" lon="1.33018">
        <ele>139</ele>
        <time>2020-10-03T07:32:10.000Z</time>
      </trkpt>
      <trkpt lat="43.65424" lon="1.33014">
        <ele>139</ele>
        <time>2020-10-03T07:32:11.000Z</time>
      </trkpt>
      <trkpt lat="43.65425" lon="1.3301">
        <ele>139</ele>
        <time>2020-10-03T07:32:12.000Z</time>
      </trkpt>
      <trkpt lat="43.65426" lon="1.33007">
        <ele>139</ele>
        <time>2020-10-03T07:32:13.000Z</time>
      </trkpt>
      <trkpt lat="43.65427" lon="1.33003">
        <ele>139.44210299388</ele>
        <time>2020-10-03T07:32:14.000Z</time>
      </trkpt>
      <trkpt lat="43.65428" lon="1.32999">
        <ele>140</ele>
        <time>2020-10-03T07:32:15.000Z</time>
      </trkpt>
      <trkpt lat="43.65429" lon="1.32996">
        <ele>140</ele>
        <time>2020-10-03T07:32:16.000Z</time>
      </trkpt>
      <trkpt lat="43.65431" lon="1.32992">
        <ele>140</ele>
        <time>2020-10-03T07:32:17.000Z</time>
      </trkpt>
      <trkpt lat="43.65432" lon="1.32988">
        <ele>140</ele>
        <time>2020-10-03T07:32:18.000Z</time>
      </trkpt>
      <trkpt lat="43.65433" lon="1.32985">
        <ele>140</ele>
        <time>2020-10-03T07:32:19.000Z</time>
      </trkpt>
      <trkpt lat="43.65434" lon="1.32982">
        <ele>140</ele>
        <time>2020-10-03T07:32:20.000Z</time>
      </trkpt>
      <trkpt lat="43.65435" lon="1.32979">
        <ele>139.77528009089</ele>
        <time>2020-10-03T07:32:21.000Z</time>
      </trkpt>
      <trkpt lat="43.65437" lon="1.32975">
        <ele>139</ele>
        <time>2020-10-03T07:32:22.000Z</time>
      </trkpt>
      <trkpt lat="43.65438" lon="1.32971">
        <ele>139</ele>
        <time>2020-10-03T07:32:23.000Z</time>
      </trkpt>
      <trkpt lat="43.65439" lon="1.32967">
        <ele>139</ele>
        <time>2020-10-03T07:32:24.000Z</time>
      </trkpt>
      <trkpt lat="43.65441" lon="1.32963">
        <ele>139</ele>
        <time>2020-10-03T07:32:25.000Z</time>
      </trkpt>
      <trkpt lat="43.65442" lon="1.32959">
        <ele>139</ele>
        <time>2020-10-03T07:32:26.000Z</time>
      </trkpt>
      <trkpt lat="43.65443" lon="1.32955">
        <ele>139</ele>
        <time>2020-10-03T07:32:27.000Z</time>
      </trkpt>
      <trkpt lat="43.65445" lon="1.32951">
        <ele>139</ele>
        <time>2020-10-03T07:32:28.000Z</time>
      </trkpt>
      <trkpt lat="43.65446" lon="1.32948">
        <ele>139</ele>
        <time>2020-10-03T07:32:29.000Z</time>
      </trkpt>
      <trkpt lat="43.65447" lon="1.32944">
        <ele>139</ele>
        <time>2020-10-03T07:32:30.000Z</time>
      </trkpt>
      <trkpt lat="43.65448" lon="1.3294">
        <ele>139</ele>
        <time>2020-10-03T07:32:31.000Z</time>
      </trkpt>
      <trkpt lat="43.65449" lon="1.32937">
        <ele>139</ele>
        <time>2020-10-03T07:32:32.000Z</time>
      </trkpt>
      <trkpt lat="43.65451" lon="1.32933">
        <ele>139</ele>
        <time>2020-10-03T07:32:33.000Z</time>
      </trkpt>
      <trkpt lat="43.65452" lon="1.32929">
        <ele>139</ele>
        <time>2020-10-03T07:32:34.000Z</time>
      </trkpt>
      <trkpt lat="43.65453" lon="1.32925">
        <ele>139</ele>
        <time>2020-10-03T07:32:35.000Z</time>
      </trkpt>
      <trkpt lat="43.65455" lon="1.32921">
        <ele>139</ele>
        <time>2020-10-03T07:32:36.000Z</time>
      </trkpt>
      <trkpt lat="43.65456" lon="1.32918">
        <ele>139</ele>
        <time>2020-10-03T07:32:37.000Z</time>
      </trkpt>
      <trkpt lat="43.65457" lon="1.32914">
        <ele>139</ele>
        <time>2020-10-03T07:32:38.000Z</time>
      </trkpt>
      <trkpt lat="43.65459" lon="1.3291">
        <ele>138.69783781793</ele>
        <time>2020-10-03T07:32:39.000Z</time>
      </trkpt>
      <trkpt lat="43.6546" lon="1.32907">
        <ele>138</ele>
        <time>2020-10-03T07:32:40.000Z</time>
      </trkpt>
      <trkpt lat="43.65462" lon="1.32903">
        <ele>138</ele>
        <time>2020-10-03T07:32:41.000Z</time>
      </trkpt>
      <trkpt lat="43.65463" lon="1.329">
        <ele>138</ele>
        <time>2020-10-03T07:32:42.000Z</time>
      </trkpt>
      <trkpt lat="43.65464" lon="1.32897">
        <ele>138</ele>
        <time>2020-10-03T07:32:43.000Z</time>
      </trkpt>
      <trkpt lat="43.65465" lon="1.32893">
        <ele>138</ele>
        <time>2020-10-03T07:32:44.000Z</time>
      </trkpt>
      <trkpt lat="43.65467" lon="1.3289">
        <ele>138</ele>
        <time>2020-10-03T07:32:45.000Z</time>
      </trkpt>
      <trkpt lat="43.65468" lon="1.32887">
        <ele>138</ele>
        <time>2020-10-03T07:32:46.000Z</time>
      </trkpt>
      <trkpt lat="43.6547" lon="1.32884">
        <ele>138</ele>
        <time>2020-10-03T07:32:47.000Z</time>
      </trkpt>
      <trkpt lat="43.65472" lon="1.32881">
        <ele>138</ele>
        <time>2020-10-03T07:32:48.000Z</time>
      </trkpt>
      <trkpt lat="43.65473" lon="1.32878">
        <ele>138</ele>
        <time>2020-10-03T07:32:49.000Z</time>
      </trkpt>
      <trkpt lat="43.65475" lon="1.32875">
        <ele>138</ele>
        <time>2020-10-03T07:32:50.000Z</time>
      </trkpt>
      <trkpt lat="43.65477" lon="1.32872">
        <ele>138</ele>
        <time>2020-10-03T07:32:51.000Z</time>
      </trkpt>
      <trkpt lat="43.65478" lon="1.3287">
        <ele>138</ele>
        <time>2020-10-03T07:32:52.000Z</time>
      </trkpt>
      <trkpt lat="43.6548" lon="1.32866">
        <ele>138</ele>
        <time>2020-10-03T07:32:53.000Z</time>
      </trkpt>
      <trkpt lat="43.65483" lon="1.32863">
        <ele>138</ele>
        <time>2020-10-03T07:32:54.000Z</time>
      </trkpt>
      <trkpt lat="43.65485" lon="1.3286">
        <ele>138</ele>
        <time>2020-10-03T07:32:55.000Z</time>
      </trkpt>
      <trkpt lat="43.65487" lon="1.32857">
        <ele>138</ele>
        <time>2020-10-03T07:32:56.000Z</time>
      </trkpt>
      <trkpt lat="43.65489" lon="1.32854">
        <ele>138</ele>
        <time>2020-10-03T07:32:57.000Z</time>
      </trkpt>
      <trkpt lat="43.65491" lon="1.32851">
        <ele>138.26786285714</ele>
        <time>2020-10-03T07:32:58.000Z</time>
      </trkpt>
      <trkpt lat="43.65493" lon="1.32849">
        <ele>139</ele>
        <time>2020-10-03T07:32:59.000Z</time>
      </trkpt>
      <trkpt lat="43.65496" lon="1.32847">
        <ele>139</ele>
        <time>2020-10-03T07:33:00.000Z</time>
      </trkpt>
      <trkpt lat="43.65498" lon="1.32844">
        <ele>139</ele>
        <time>2020-10-03T07:33:01.000Z</time>
      </trkpt>
      <trkpt lat="43.655" lon="1.32841">
        <ele>139</ele>
        <time>2020-10-03T07:33:02.000Z</time>
      </trkpt>
      <trkpt lat="43.65502" lon="1.32839">
        <ele>139</ele>
        <time>2020-10-03T07:33:03.000Z</time>
      </trkpt>
      <trkpt lat="43.65505" lon="1.32836">
        <ele>139</ele>
        <time>2020-10-03T07:33:04.000Z</time>
      </trkpt>
      <trkpt lat="43.65507" lon="1.32833">
        <ele>138.6511676366</ele>
        <time>2020-10-03T07:33:05.000Z</time>
      </trkpt>
      <trkpt lat="43.65509" lon="1.32831">
        <ele>138</ele>
        <time>2020-10-03T07:33:06.000Z</time>
      </trkpt>
      <trkpt lat="43.65511" lon="1.32828">
        <ele>138</ele>
        <time>2020-10-03T07:33:07.000Z</time>
      </trkpt>
      <trkpt lat="43.65514" lon="1.32826">
        <ele>138</ele>
        <time>2020-10-03T07:33:08.000Z</time>
      </trkpt>
      <trkpt lat="43.65516" lon="1.32823">
        <ele>138</ele>
        <time>2020-10-03T07:33:09.000Z</time>
      </trkpt>
      <trkpt lat="43.65519" lon="1.32821">
        <ele>138.41176090955</ele>
        <time>2020-10-03T07:33:10.000Z</time>
      </trkpt>
      <trkpt lat="43.65521" lon="1.32819">
        <ele>139</ele>
        <time>2020-10-03T07:33:11.000Z</time>
      </trkpt>
      <trkpt lat="43.65524" lon="1.32816">
        <ele>139</ele>
        <time>2020-10-03T07:33:12.000Z</time>
      </trkpt>
      <trkpt lat="43.65526" lon="1.32814">
        <ele>139</ele>
        <time>2020-10-03T07:33:13.000Z</time>
      </trkpt>
      <trkpt lat="43.65529" lon="1.32812">
        <ele>138.574711629</ele>
        <time>2020-10-03T07:33:14.000Z</time>
      </trkpt>
      <trkpt lat="43.65531" lon="1.3281">
        <ele>138</ele>
        <time>2020-10-03T07:33:15.000Z</time>
      </trkpt>
      <trkpt lat="43.65534" lon="1.32809">
        <ele>138</ele>
        <time>2020-10-03T07:33:16.000Z</time>
      </trkpt>
      <trkpt lat="43.65536" lon="1.32807">
        <ele>138</ele>
        <time>2020-10-03T07:33:17.000Z</time>
      </trkpt>
      <trkpt lat="43.65539" lon="1.32805">
        <ele>138</ele>
        <time>2020-10-03T07:33:18.000Z</time>
      </trkpt>
      <trkpt lat="43.65541" lon="1.32804">
        <ele>138</ele>
        <time>2020-10-03T07:33:19.000Z</time>
      </trkpt>
      <trkpt lat="43.65544" lon="1.32802">
        <ele>138</ele>
        <time>2020-10-03T07:33:20.000Z</time>
      </trkpt>
      <trkpt lat="43.65547" lon="1.32801">
        <ele>138.43299200338</ele>
        <time>2020-10-03T07:33:21.000Z</time>
      </trkpt>
      <trkpt lat="43.65549" lon="1.32799">
        <ele>139</ele>
        <time>2020-10-03T07:33:22.000Z</time>
      </trkpt>
      <trkpt lat="43.65552" lon="1.32798">
        <ele>139</ele>
        <time>2020-10-03T07:33:23.000Z</time>
      </trkpt>
      <trkpt lat="43.65555" lon="1.32797">
        <ele>139</ele>
        <time>2020-10-03T07:33:24.000Z</time>
      </trkpt>
      <trkpt lat="43.65558" lon="1.32795">
        <ele>139</ele>
        <time>2020-10-03T07:33:25.000Z</time>
      </trkpt>
      <trkpt lat="43.6556" lon="1.32793">
        <ele>139</ele>
        <time>2020-10-03T07:33:26.000Z</time>
      </trkpt>
      <trkpt lat="43.65563" lon="1.32791">
        <ele>139</ele>
        <time>2020-10-03T07:33:27.000Z</time>
      </trkpt>
      <trkpt lat="43.65565" lon="1.3279">
        <ele>139</ele>
        <time>2020-10-03T07:33:28.000Z</time>
      </trkpt>
      <trkpt lat="43.65568" lon="1.32789">
        <ele>139</ele>
        <time>2020-10-03T07:33:29.000Z</time>
      </trkpt>
      <trkpt lat="43.65571" lon="1.32787">
        <ele>139</ele>
        <time>2020-10-03T07:33:30.000Z</time>
      </trkpt>
      <trkpt lat="43.65573" lon="1.32785">
        <ele>139</ele>
        <time>2020-10-03T07:33:31.000Z</time>
      </trkpt>
      <trkpt lat="43.65576" lon="1.32784">
        <ele>138.57143031293</ele>
        <time>2020-10-03T07:33:32.000Z</time>
      </trkpt>
      <trkpt lat="43.65579" lon="1.32782">
        <ele>138</ele>
        <time>2020-10-03T07:33:33.000Z</time>
      </trkpt>
      <trkpt lat="43.65582" lon="1.32781">
        <ele>138</ele>
        <time>2020-10-03T07:33:34.000Z</time>
      </trkpt>
      <trkpt lat="43.65585" lon="1.32779">
        <ele>138.36606857143</ele>
        <time>2020-10-03T07:33:35.000Z</time>
      </trkpt>
      <trkpt lat="43.65587" lon="1.32778">
        <ele>139</ele>
        <time>2020-10-03T07:33:36.000Z</time>
      </trkpt>
      <trkpt lat="43.6559" lon="1.32777">
        <ele>139</ele>
        <time>2020-10-03T07:33:37.000Z</time>
      </trkpt>
      <trkpt lat="43.65593" lon="1.32776">
        <ele>139</ele>
        <time>2020-10-03T07:33:38.000Z</time>
      </trkpt>
      <trkpt lat="43.65596" lon="1.32775">
        <ele>139</ele>
        <time>2020-10-03T07:33:39.000Z</time>
      </trkpt>
      <trkpt lat="43.65598" lon="1.32774">
        <ele>138.65516632583</ele>
        <time>2020-10-03T07:33:40.000Z</time>
      </trkpt>
      <trkpt lat="43.65601" lon="1.32772">
        <ele>138</ele>
        <time>2020-10-03T07:33:41.000Z</time>
      </trkpt>
      <trkpt lat="43.65604" lon="1.32771">
        <ele>138</ele>
        <time>2020-10-03T07:33:42.000Z</time>
      </trkpt>
      <trkpt lat="43.65606" lon="1.32769">
        <ele>138</ele>
        <time>2020-10-03T07:33:43.000Z</time>
      </trkpt>
      <trkpt lat="43.65609" lon="1.32768">
        <ele>138</ele>
        <time>2020-10-03T07:33:44.000Z</time>
      </trkpt>
      <trkpt lat="43.65612" lon="1.32766">
        <ele>138</ele>
        <time>2020-10-03T07:33:45.000Z</time>
      </trkpt>
      <trkpt lat="43.65615" lon="1.32764">
        <ele>138</ele>
        <time>2020-10-03T07:33:46.000Z</time>
      </trkpt>
      <trkpt lat="43.65617" lon="1.32763">
        <ele>138</ele>
        <time>2020-10-03T07:33:47.000Z</time>
      </trkpt>
      <trkpt lat="43.6562" lon="1.32762">
        <ele>138</ele>
        <time>2020-10-03T07:33:48.000Z</time>
      </trkpt>
      <trkpt lat="43.65622" lon="1.3276">
        <ele>138</ele>
        <time>2020-10-03T07:33:49.000Z</time>
      </trkpt>
      <trkpt lat="43.65625" lon="1.32759">
        <ele>138.38053057248</ele>
        <time>2020-10-03T07:33:50.000Z</time>
      </trkpt>
      <trkpt lat="43.65627" lon="1.32757">
        <ele>139</ele>
        <time>2020-10-03T07:33:51.000Z</time>
      </trkpt>
      <trkpt lat="43.65629" lon="1.32756">
        <ele>139</ele>
        <time>2020-10-03T07:33:52.000Z</time>
      </trkpt>
      <trkpt lat="43.65632" lon="1.32755">
        <ele>139</ele>
        <time>2020-10-03T07:33:53.000Z</time>
      </trkpt>
      <trkpt lat="43.65634" lon="1.32754">
        <ele>139</ele>
        <time>2020-10-03T07:33:54.000Z</time>
      </trkpt>
      <trkpt lat="43.65637" lon="1.32753">
        <ele>139</ele>
        <time>2020-10-03T07:33:55.000Z</time>
      </trkpt>
      <trkpt lat="43.6564" lon="1.32752">
        <ele>139</ele>
        <time>2020-10-03T07:33:56.000Z</time>
      </trkpt>
      <trkpt lat="43.65644" lon="1.32751">
        <ele>139</ele>
        <time>2020-10-03T07:33:57.000Z</time>
      </trkpt>
      <trkpt lat="43.65647" lon="1.3275">
        <ele>139</ele>
        <time>2020-10-03T07:33:58.000Z</time>
      </trkpt>
      <trkpt lat="43.6565" lon="1.32748">
        <ele>139</ele>
        <time>2020-10-03T07:33:59.000Z</time>
      </trkpt>
      <trkpt lat="43.65652" lon="1.32746">
        <ele>139</ele>
        <time>2020-10-03T07:34:00.000Z</time>
      </trkpt>
      <trkpt lat="43.65655" lon="1.32744">
        <ele>139</ele>
        <time>2020-10-03T07:34:01.000Z</time>
      </trkpt>
      <trkpt lat="43.65656" lon="1.32741">
        <ele>138.56363890246</ele>
        <time>2020-10-03T07:34:02.000Z</time>
      </trkpt>
      <trkpt lat="43.65657" lon="1.32737">
        <ele>138</ele>
        <time>2020-10-03T07:34:03.000Z</time>
      </trkpt>
      <trkpt lat="43.65656" lon="1.32733">
        <ele>138</ele>
        <time>2020-10-03T07:34:04.000Z</time>
      </trkpt>
      <trkpt lat="43.65654" lon="1.3273">
        <ele>138</ele>
        <time>2020-10-03T07:34:05.000Z</time>
      </trkpt>
      <trkpt lat="43.65652" lon="1.32728">
        <ele>138</ele>
        <time>2020-10-03T07:34:06.000Z</time>
      </trkpt>
      <trkpt lat="43.65649" lon="1.32727">
        <ele>138</ele>
        <time>2020-10-03T07:34:07.000Z</time>
      </trkpt>
      <trkpt lat="43.65646" lon="1.32725">
        <ele>137.6261693423</ele>
        <time>2020-10-03T07:34:08.000Z</time>
      </trkpt>
      <trkpt lat="43.65644" lon="1.32724">
        <ele>137</ele>
        <time>2020-10-03T07:34:09.000Z</time>
      </trkpt>
      <trkpt lat="43.65641" lon="1.32723">
        <ele>137.43809732787</ele>
        <time>2020-10-03T07:34:10.000Z</time>
      </trkpt>
      <trkpt lat="43.65638" lon="1.32722">
        <ele>138</ele>
        <time>2020-10-03T07:34:11.000Z</time>
      </trkpt>
      <trkpt lat="43.65635" lon="1.32721">
        <ele>138</ele>
        <time>2020-10-03T07:34:12.000Z</time>
      </trkpt>
      <trkpt lat="43.65632" lon="1.32719">
        <ele>138</ele>
        <time>2020-10-03T07:34:13.000Z</time>
      </trkpt>
      <trkpt lat="43.65629" lon="1.32718">
        <ele>137.2481281158</ele>
        <time>2020-10-03T07:34:14.000Z</time>
      </trkpt>
      <trkpt lat="43.65627" lon="1.32717">
        <ele>136</ele>
        <time>2020-10-03T07:34:15.000Z</time>
      </trkpt>
      <trkpt lat="43.65624" lon="1.32716">
        <ele>136</ele>
        <time>2020-10-03T07:34:16.000Z</time>
      </trkpt>
      <trkpt lat="43.65621" lon="1.32715">
        <ele>136</ele>
        <time>2020-10-03T07:34:17.000Z</time>
      </trkpt>
      <trkpt lat="43.65618" lon="1.32714">
        <ele>136</ele>
        <time>2020-10-03T07:34:18.000Z</time>
      </trkpt>
      <trkpt lat="43.65615" lon="1.32714">
        <ele>136</ele>
        <time>2020-10-03T07:34:19.000Z</time>
      </trkpt>
      <trkpt lat="43.65613" lon="1.32712">
        <ele>136</ele>
        <time>2020-10-03T07:34:20.000Z</time>
      </trkpt>
      <trkpt lat="43.6561" lon="1.32711">
        <ele>136</ele>
        <time>2020-10-03T07:34:21.000Z</time>
      </trkpt>
      <trkpt lat="43.65607" lon="1.3271">
        <ele>136</ele>
        <time>2020-10-03T07:34:22.000Z</time>
      </trkpt>
      <trkpt lat="43.65604" lon="1.32709">
        <ele>136</ele>
        <time>2020-10-03T07:34:23.000Z</time>
      </trkpt>
      <trkpt lat="43.65601" lon="1.32708">
        <ele>136</ele>
        <time>2020-10-03T07:34:24.000Z</time>
      </trkpt>
      <trkpt lat="43.65599" lon="1.32706">
        <ele>136</ele>
        <time>2020-10-03T07:34:25.000Z</time>
      </trkpt>
      <trkpt lat="43.65596" lon="1.32705">
        <ele>136.71428571429</ele>
        <time>2020-10-03T07:34:26.000Z</time>
      </trkpt>
      <trkpt lat="43.65593" lon="1.32704">
        <ele>138</ele>
        <time>2020-10-03T07:34:27.000Z</time>
      </trkpt>
      <trkpt lat="43.6559" lon="1.32703">
        <ele>138</ele>
        <time>2020-10-03T07:34:28.000Z</time>
      </trkpt>
      <trkpt lat="43.65588" lon="1.32702">
        <ele>138.30434782609</ele>
        <time>2020-10-03T07:34:29.000Z</time>
      </trkpt>
      <trkpt lat="43.65585" lon="1.32701">
        <ele>139</ele>
        <time>2020-10-03T07:34:30.000Z</time>
      </trkpt>
      <trkpt lat="43.65582" lon="1.327">
        <ele>139</ele>
        <time>2020-10-03T07:34:31.000Z</time>
      </trkpt>
      <trkpt lat="43.6558" lon="1.32699">
        <ele>139</ele>
        <time>2020-10-03T07:34:32.000Z</time>
      </trkpt>
      <trkpt lat="43.65577" lon="1.32698">
        <ele>139</ele>
        <time>2020-10-03T07:34:33.000Z</time>
      </trkpt>
      <trkpt lat="43.65574" lon="1.32698">
        <ele>139</ele>
        <time>2020-10-03T07:34:34.000Z</time>
      </trkpt>
      <trkpt lat="43.65568" lon="1.32696">
        <ele>139</ele>
        <time>2020-10-03T07:34:36.000Z</time>
      </trkpt>
      <trkpt lat="43.65566" lon="1.32695">
        <ele>139</ele>
        <time>2020-10-03T07:34:37.000Z</time>
      </trkpt>
      <trkpt lat="43.65563" lon="1.32694">
        <ele>138.52082666667</ele>
        <time>2020-10-03T07:34:38.000Z</time>
      </trkpt>
      <trkpt lat="43.6556" lon="1.32694">
        <ele>138</ele>
        <time>2020-10-03T07:34:39.000Z</time>
      </trkpt>
      <trkpt lat="43.65557" lon="1.32693">
        <ele>138</ele>
        <time>2020-10-03T07:34:40.000Z</time>
      </trkpt>
      <trkpt lat="43.65554" lon="1.32692">
        <ele>138</ele>
        <time>2020-10-03T07:34:41.000Z</time>
      </trkpt>
      <trkpt lat="43.65552" lon="1.32691">
        <ele>138</ele>
        <time>2020-10-03T07:34:42.000Z</time>
      </trkpt>
      <trkpt lat="43.65549" lon="1.32691">
        <ele>138</ele>
        <time>2020-10-03T07:34:43.000Z</time>
      </trkpt>
      <trkpt lat="43.65546" lon="1.3269">
        <ele>138</ele>
        <time>2020-10-03T07:34:44.000Z</time>
      </trkpt>
      <trkpt lat="43.65543" lon="1.3269">
        <ele>138</ele>
        <time>2020-10-03T07:34:45.000Z</time>
      </trkpt>
      <trkpt lat="43.6554" lon="1.32689">
        <ele>138</ele>
        <time>2020-10-03T07:34:46.000Z</time>
      </trkpt>
      <trkpt lat="43.65538" lon="1.32689">
        <ele>138</ele>
        <time>2020-10-03T07:34:47.000Z</time>
      </trkpt>
      <trkpt lat="43.65535" lon="1.32688">
        <ele>138</ele>
        <time>2020-10-03T07:34:48.000Z</time>
      </trkpt>
      <trkpt lat="43.65532" lon="1.32687">
        <ele>138</ele>
        <time>2020-10-03T07:34:49.000Z</time>
      </trkpt>
      <trkpt lat="43.65529" lon="1.32686">
        <ele>138</ele>
        <time>2020-10-03T07:34:50.000Z</time>
      </trkpt>
      <trkpt lat="43.65527" lon="1.32685">
        <ele>137.71681335735</ele>
        <time>2020-10-03T07:34:51.000Z</time>
      </trkpt>
      <trkpt lat="43.65524" lon="1.32684">
        <ele>137</ele>
        <time>2020-10-03T07:34:52.000Z</time>
      </trkpt>
      <trkpt lat="43.65519" lon="1.32682">
        <ele>137</ele>
        <time>2020-10-03T07:34:54.000Z</time>
      </trkpt>
      <trkpt lat="43.65516" lon="1.3268">
        <ele>137</ele>
        <time>2020-10-03T07:34:55.000Z</time>
      </trkpt>
      <trkpt lat="43.65513" lon="1.32679">
        <ele>137.33765542922</ele>
        <time>2020-10-03T07:34:56.000Z</time>
      </trkpt>
      <trkpt lat="43.6551" lon="1.32677">
        <ele>138</ele>
        <time>2020-10-03T07:34:57.000Z</time>
      </trkpt>
      <trkpt lat="43.65507" lon="1.32676">
        <ele>138</ele>
        <time>2020-10-03T07:34:58.000Z</time>
      </trkpt>
      <trkpt lat="43.65505" lon="1.32675">
        <ele>138.45282745463</ele>
        <time>2020-10-03T07:34:59.000Z</time>
      </trkpt>
      <trkpt lat="43.65502" lon="1.32674">
        <ele>139</ele>
        <time>2020-10-03T07:35:00.000Z</time>
      </trkpt>
      <trkpt lat="43.65499" lon="1.32672">
        <ele>139</ele>
        <time>2020-10-03T07:35:01.000Z</time>
      </trkpt>
      <trkpt lat="43.65496" lon="1.32671">
        <ele>139</ele>
        <time>2020-10-03T07:35:02.000Z</time>
      </trkpt>
      <trkpt lat="43.65493" lon="1.3267">
        <ele>139</ele>
        <time>2020-10-03T07:35:03.000Z</time>
      </trkpt>
      <trkpt lat="43.65491" lon="1.32668">
        <ele>139</ele>
        <time>2020-10-03T07:35:04.000Z</time>
      </trkpt>
      <trkpt lat="43.65488" lon="1.32667">
        <ele>139.35293497576</ele>
        <time>2020-10-03T07:35:05.000Z</time>
      </trkpt>
      <trkpt lat="43.65485" lon="1.32666">
        <ele>140</ele>
        <time>2020-10-03T07:35:06.000Z</time>
      </trkpt>
      <trkpt lat="43.65482" lon="1.32664">
        <ele>140</ele>
        <time>2020-10-03T07:35:07.000Z</time>
      </trkpt>
      <trkpt lat="43.65479" lon="1.32663">
        <ele>140</ele>
        <time>2020-10-03T07:35:08.000Z</time>
      </trkpt>
      <trkpt lat="43.65477" lon="1.32662">
        <ele>140</ele>
        <time>2020-10-03T07:35:09.000Z</time>
      </trkpt>
      <trkpt lat="43.65474" lon="1.3266">
        <ele>140</ele>
        <time>2020-10-03T07:35:10.000Z</time>
      </trkpt>
      <trkpt lat="43.65471" lon="1.32659">
        <ele>140</ele>
        <time>2020-10-03T07:35:11.000Z</time>
      </trkpt>
      <trkpt lat="43.65468" lon="1.32657">
        <ele>140</ele>
        <time>2020-10-03T07:35:12.000Z</time>
      </trkpt>
      <trkpt lat="43.65466" lon="1.32656">
        <ele>140</ele>
        <time>2020-10-03T07:35:13.000Z</time>
      </trkpt>
      <trkpt lat="43.65463" lon="1.32654">
        <ele>140</ele>
        <time>2020-10-03T07:35:14.000Z</time>
      </trkpt>
      <trkpt lat="43.6546" lon="1.32653">
        <ele>140</ele>
        <time>2020-10-03T07:35:15.000Z</time>
      </trkpt>
      <trkpt lat="43.65458" lon="1.32651">
        <ele>140</ele>
        <time>2020-10-03T07:35:16.000Z</time>
      </trkpt>
      <trkpt lat="43.65455" lon="1.3265">
        <ele>140</ele>
        <time>2020-10-03T07:35:17.000Z</time>
      </trkpt>
      <trkpt lat="43.65452" lon="1.32648">
        <ele>140.45454228097</ele>
        <time>2020-10-03T07:35:18.000Z</time>
      </trkpt>
      <trkpt lat="43.65449" lon="1.32646">
        <ele>141</ele>
        <time>2020-10-03T07:35:19.000Z</time>
      </trkpt>
      <trkpt lat="43.65447" lon="1.32644">
        <ele>141</ele>
        <time>2020-10-03T07:35:20.000Z</time>
      </trkpt>
      <trkpt lat="43.65444" lon="1.32642">
        <ele>141</ele>
        <time>2020-10-03T07:35:21.000Z</time>
      </trkpt>
      <trkpt lat="43.65441" lon="1.3264">
        <ele>141.44444760496</ele>
        <time>2020-10-03T07:35:22.000Z</time>
      </trkpt>
      <trkpt lat="43.65439" lon="1.32638">
        <ele>142</ele>
        <time>2020-10-03T07:35:23.000Z</time>
      </trkpt>
      <trkpt lat="43.65436" lon="1.32636">
        <ele>142</ele>
        <time>2020-10-03T07:35:24.000Z</time>
      </trkpt>
      <trkpt lat="43.65433" lon="1.32634">
        <ele>142</ele>
        <time>2020-10-03T07:35:25.000Z</time>
      </trkpt>
      <trkpt lat="43.65431" lon="1.32631">
        <ele>142</ele>
        <time>2020-10-03T07:35:26.000Z</time>
      </trkpt>
      <trkpt lat="43.65429" lon="1.32629">
        <ele>142</ele>
        <time>2020-10-03T07:35:27.000Z</time>
      </trkpt>
      <trkpt lat="43.65426" lon="1.32626">
        <ele>142</ele>
        <time>2020-10-03T07:35:28.000Z</time>
      </trkpt>
      <trkpt lat="43.65424" lon="1.32624">
        <ele>141.6511676366</ele>
        <time>2020-10-03T07:35:29.000Z</time>
      </trkpt>
      <trkpt lat="43.65422" lon="1.32621">
        <ele>141</ele>
        <time>2020-10-03T07:35:30.000Z</time>
      </trkpt>
      <trkpt lat="43.6542" lon="1.32618">
        <ele>141</ele>
        <time>2020-10-03T07:35:31.000Z</time>
      </trkpt>
      <trkpt lat="43.65418" lon="1.32616">
        <ele>141</ele>
        <time>2020-10-03T07:35:32.000Z</time>
      </trkpt>
      <trkpt lat="43.65417" lon="1.32613">
        <ele>141</ele>
        <time>2020-10-03T07:35:33.000Z</time>
      </trkpt>
      <trkpt lat="43.65415" lon="1.3261">
        <ele>141.38372006489</ele>
        <time>2020-10-03T07:35:34.000Z</time>
      </trkpt>
      <trkpt lat="43.65413" lon="1.32608">
        <ele>142</ele>
        <time>2020-10-03T07:35:35.000Z</time>
      </trkpt>
      <trkpt lat="43.65411" lon="1.32605">
        <ele>142</ele>
        <time>2020-10-03T07:35:36.000Z</time>
      </trkpt>
      <trkpt lat="43.6541" lon="1.32602">
        <ele>142</ele>
        <time>2020-10-03T07:35:37.000Z</time>
      </trkpt>
      <trkpt lat="43.65409" lon="1.32598">
        <ele>142</ele>
        <time>2020-10-03T07:35:38.000Z</time>
      </trkpt>
      <trkpt lat="43.65408" lon="1.32594">
        <ele>142</ele>
        <time>2020-10-03T07:35:39.000Z</time>
      </trkpt>
      <trkpt lat="43.65407" lon="1.3259">
        <ele>142</ele>
        <time>2020-10-03T07:35:40.000Z</time>
      </trkpt>
      <trkpt lat="43.65406" lon="1.32586">
        <ele>142</ele>
        <time>2020-10-03T07:35:41.000Z</time>
      </trkpt>
      <trkpt lat="43.65405" lon="1.32582">
        <ele>142</ele>
        <time>2020-10-03T07:35:42.000Z</time>
      </trkpt>
      <trkpt lat="43.65404" lon="1.32578">
        <ele>142</ele>
        <time>2020-10-03T07:35:43.000Z</time>
      </trkpt>
      <trkpt lat="43.65404" lon="1.32574">
        <ele>142</ele>
        <time>2020-10-03T07:35:44.000Z</time>
      </trkpt>
      <trkpt lat="43.65403" lon="1.32571">
        <ele>142</ele>
        <time>2020-10-03T07:35:45.000Z</time>
      </trkpt>
      <trkpt lat="43.65402" lon="1.32567">
        <ele>142</ele>
        <time>2020-10-03T07:35:46.000Z</time>
      </trkpt>
      <trkpt lat="43.65402" lon="1.32563">
        <ele>142</ele>
        <time>2020-10-03T07:35:47.000Z</time>
      </trkpt>
      <trkpt lat="43.65401" lon="1.32559">
        <ele>142</ele>
        <time>2020-10-03T07:35:48.000Z</time>
      </trkpt>
      <trkpt lat="43.65401" lon="1.32555">
        <ele>142</ele>
        <time>2020-10-03T07:35:49.000Z</time>
      </trkpt>
      <trkpt lat="43.654" lon="1.32552">
        <ele>142</ele>
        <time>2020-10-03T07:35:50.000Z</time>
      </trkpt>
      <trkpt lat="43.65398" lon="1.32548">
        <ele>142</ele>
        <time>2020-10-03T07:35:51.000Z</time>
      </trkpt>
      <trkpt lat="43.65397" lon="1.32545">
        <ele>142</ele>
        <time>2020-10-03T07:35:52.000Z</time>
      </trkpt>
      <trkpt lat="43.65396" lon="1.32541">
        <ele>142</ele>
        <time>2020-10-03T07:35:53.000Z</time>
      </trkpt>
      <trkpt lat="43.65395" lon="1.32537">
        <ele>142</ele>
        <time>2020-10-03T07:35:54.000Z</time>
      </trkpt>
      <trkpt lat="43.65393" lon="1.32534">
        <ele>142</ele>
        <time>2020-10-03T07:35:55.000Z</time>
      </trkpt>
      <trkpt lat="43.65392" lon="1.3253">
        <ele>142</ele>
        <time>2020-10-03T07:35:56.000Z</time>
      </trkpt>
      <trkpt lat="43.65391" lon="1.32526">
        <ele>142</ele>
        <time>2020-10-03T07:35:57.000Z</time>
      </trkpt>
      <trkpt lat="43.6539" lon="1.32523">
        <ele>142</ele>
        <time>2020-10-03T07:35:58.000Z</time>
      </trkpt>
      <trkpt lat="43.65389" lon="1.32521">
        <ele>142</ele>
        <time>2020-10-03T07:35:59.000Z</time>
      </trkpt>
      <trkpt lat="43.65388" lon="1.32518">
        <ele>142</ele>
        <time>2020-10-03T07:36:00.000Z</time>
      </trkpt>
      <trkpt lat="43.65387" lon="1.32514">
        <ele>142</ele>
        <time>2020-10-03T07:36:01.000Z</time>
      </trkpt>
      <trkpt lat="43.65385" lon="1.32511">
        <ele>142</ele>
        <time>2020-10-03T07:36:02.000Z</time>
      </trkpt>
      <trkpt lat="43.65384" lon="1.32507">
        <ele>142.31818181818</ele>
        <time>2020-10-03T07:36:03.000Z</time>
      </trkpt>
      <trkpt lat="43.65383" lon="1.32504">
        <ele>143</ele>
        <time>2020-10-03T07:36:04.000Z</time>
      </trkpt>
      <trkpt lat="43.65381" lon="1.325">
        <ele>143</ele>
        <time>2020-10-03T07:36:05.000Z</time>
      </trkpt>
      <trkpt lat="43.6538" lon="1.32497">
        <ele>143</ele>
        <time>2020-10-03T07:36:06.000Z</time>
      </trkpt>
      <trkpt lat="43.65379" lon="1.32494">
        <ele>143</ele>
        <time>2020-10-03T07:36:07.000Z</time>
      </trkpt>
      <trkpt lat="43.65378" lon="1.3249">
        <ele>143</ele>
        <time>2020-10-03T07:36:08.000Z</time>
      </trkpt>
      <trkpt lat="43.65377" lon="1.32484">
        <ele>142</ele>
        <time>2020-10-03T07:36:10.000Z</time>
      </trkpt>
      <trkpt lat="43.65376" lon="1.3248">
        <ele>142</ele>
        <time>2020-10-03T07:36:11.000Z</time>
      </trkpt>
      <trkpt lat="43.65375" lon="1.32477">
        <ele>142</ele>
        <time>2020-10-03T07:36:12.000Z</time>
      </trkpt>
      <trkpt lat="43.65374" lon="1.32474">
        <ele>142</ele>
        <time>2020-10-03T07:36:13.000Z</time>
      </trkpt>
      <trkpt lat="43.65373" lon="1.32471">
        <ele>142</ele>
        <time>2020-10-03T07:36:14.000Z</time>
      </trkpt>
      <trkpt lat="43.65372" lon="1.32467">
        <ele>142</ele>
        <time>2020-10-03T07:36:15.000Z</time>
      </trkpt>
      <trkpt lat="43.65371" lon="1.32464">
        <ele>142</ele>
        <time>2020-10-03T07:36:16.000Z</time>
      </trkpt>
      <trkpt lat="43.6537" lon="1.3246">
        <ele>142</ele>
        <time>2020-10-03T07:36:17.000Z</time>
      </trkpt>
      <trkpt lat="43.65368" lon="1.32457">
        <ele>142</ele>
        <time>2020-10-03T07:36:18.000Z</time>
      </trkpt>
      <trkpt lat="43.65367" lon="1.32454">
        <ele>142</ele>
        <time>2020-10-03T07:36:19.000Z</time>
      </trkpt>
      <trkpt lat="43.65366" lon="1.3245">
        <ele>142</ele>
        <time>2020-10-03T07:36:20.000Z</time>
      </trkpt>
      <trkpt lat="43.65365" lon="1.32447">
        <ele>142</ele>
        <time>2020-10-03T07:36:21.000Z</time>
      </trkpt>
      <trkpt lat="43.65364" lon="1.32443">
        <ele>142</ele>
        <time>2020-10-03T07:36:22.000Z</time>
      </trkpt>
      <trkpt lat="43.65363" lon="1.3244">
        <ele>142</ele>
        <time>2020-10-03T07:36:23.000Z</time>
      </trkpt>
      <trkpt lat="43.65361" lon="1.32437">
        <ele>142</ele>
        <time>2020-10-03T07:36:24.000Z</time>
      </trkpt>
      <trkpt lat="43.6536" lon="1.32433">
        <ele>142</ele>
        <time>2020-10-03T07:36:25.000Z</time>
      </trkpt>
      <trkpt lat="43.65359" lon="1.3243">
        <ele>142</ele>
        <time>2020-10-03T07:36:26.000Z</time>
      </trkpt>
      <trkpt lat="43.65358" lon="1.32427">
        <ele>142</ele>
        <time>2020-10-03T07:36:27.000Z</time>
      </trkpt>
      <trkpt lat="43.65357" lon="1.32423">
        <ele>141.85</ele>
        <time>2020-10-03T07:36:28.000Z</time>
      </trkpt>
      <trkpt lat="43.65356" lon="1.3242">
        <ele>141</ele>
        <time>2020-10-03T07:36:29.000Z</time>
      </trkpt>
      <trkpt lat="43.65354" lon="1.32416">
        <ele>141</ele>
        <time>2020-10-03T07:36:30.000Z</time>
      </trkpt>
      <trkpt lat="43.65353" lon="1.32413">
        <ele>141</ele>
        <time>2020-10-03T07:36:31.000Z</time>
      </trkpt>
      <trkpt lat="43.65351" lon="1.32409">
        <ele>141.45833333333</ele>
        <time>2020-10-03T07:36:32.000Z</time>
      </trkpt>
      <trkpt lat="43.6535" lon="1.32406">
        <ele>142</ele>
        <time>2020-10-03T07:36:33.000Z</time>
      </trkpt>
      <trkpt lat="43.65348" lon="1.32402">
        <ele>142</ele>
        <time>2020-10-03T07:36:34.000Z</time>
      </trkpt>
      <trkpt lat="43.65347" lon="1.32399">
        <ele>142</ele>
        <time>2020-10-03T07:36:35.000Z</time>
      </trkpt>
      <trkpt lat="43.65346" lon="1.32396">
        <ele>142</ele>
        <time>2020-10-03T07:36:36.000Z</time>
      </trkpt>
      <trkpt lat="43.65344" lon="1.32393">
        <ele>142</ele>
        <time>2020-10-03T07:36:37.000Z</time>
      </trkpt>
      <trkpt lat="43.65343" lon="1.3239">
        <ele>142</ele>
        <time>2020-10-03T07:36:38.000Z</time>
      </trkpt>
      <trkpt lat="43.65342" lon="1.32386">
        <ele>142</ele>
        <time>2020-10-03T07:36:39.000Z</time>
      </trkpt>
      <trkpt lat="43.6534" lon="1.32383">
        <ele>142</ele>
        <time>2020-10-03T07:36:40.000Z</time>
      </trkpt>
      <trkpt lat="43.65339" lon="1.3238">
        <ele>142</ele>
        <time>2020-10-03T07:36:41.000Z</time>
      </trkpt>
      <trkpt lat="43.65338" lon="1.32376">
        <ele>142</ele>
        <time>2020-10-03T07:36:42.000Z</time>
      </trkpt>
      <trkpt lat="43.65337" lon="1.32373">
        <ele>142</ele>
        <time>2020-10-03T07:36:43.000Z</time>
      </trkpt>
      <trkpt lat="43.65335" lon="1.3237">
        <ele>142</ele>
        <time>2020-10-03T07:36:44.000Z</time>
      </trkpt>
      <trkpt lat="43.65334" lon="1.32366">
        <ele>142</ele>
        <time>2020-10-03T07:36:45.000Z</time>
      </trkpt>
      <trkpt lat="43.65333" lon="1.32364">
        <ele>141.65811872306</ele>
        <time>2020-10-03T07:36:46.000Z</time>
      </trkpt>
      <trkpt lat="43.65331" lon="1.32363">
        <ele>141</ele>
        <time>2020-10-03T07:36:47.000Z</time>
      </trkpt>
      <trkpt lat="43.65328" lon="1.32362">
        <ele>141</ele>
        <time>2020-10-03T07:36:48.000Z</time>
      </trkpt>
      <trkpt lat="43.65326" lon="1.32362">
        <ele>141</ele>
        <time>2020-10-03T07:36:49.000Z</time>
      </trkpt>
      <trkpt lat="43.65323" lon="1.32363">
        <ele>141.37209025421</ele>
        <time>2020-10-03T07:36:50.000Z</time>
      </trkpt>
      <trkpt lat="43.6532" lon="1.32364">
        <ele>142</ele>
        <time>2020-10-03T07:36:51.000Z</time>
      </trkpt>
      <trkpt lat="43.65318" lon="1.32365">
        <ele>142</ele>
        <time>2020-10-03T07:36:52.000Z</time>
      </trkpt>
      <trkpt lat="43.65316" lon="1.32367">
        <ele>142</ele>
        <time>2020-10-03T07:36:53.000Z</time>
      </trkpt>
      <trkpt lat="43.65314" lon="1.32369">
        <ele>142</ele>
        <time>2020-10-03T07:36:54.000Z</time>
      </trkpt>
      <trkpt lat="43.65312" lon="1.32371">
        <ele>142</ele>
        <time>2020-10-03T07:36:55.000Z</time>
      </trkpt>
      <trkpt lat="43.6531" lon="1.32373">
        <ele>141.66386645011</ele>
        <time>2020-10-03T07:36:56.000Z</time>
      </trkpt>
      <trkpt lat="43.65308" lon="1.32375">
        <ele>141</ele>
        <time>2020-10-03T07:36:57.000Z</time>
      </trkpt>
      <trkpt lat="43.65305" lon="1.32377">
        <ele>141</ele>
        <time>2020-10-03T07:36:58.000Z</time>
      </trkpt>
      <trkpt lat="43.65303" lon="1.32379">
        <ele>140.57017583257</ele>
        <time>2020-10-03T07:36:59.000Z</time>
      </trkpt>
      <trkpt lat="43.65301" lon="1.32381">
        <ele>140</ele>
        <time>2020-10-03T07:37:00.000Z</time>
      </trkpt>
      <trkpt lat="43.65299" lon="1.32383">
        <ele>140</ele>
        <time>2020-10-03T07:37:01.000Z</time>
      </trkpt>
      <trkpt lat="43.65296" lon="1.32385">
        <ele>140</ele>
        <time>2020-10-03T07:37:02.000Z</time>
      </trkpt>
      <trkpt lat="43.65294" lon="1.32387">
        <ele>140</ele>
        <time>2020-10-03T07:37:03.000Z</time>
      </trkpt>
      <trkpt lat="43.65292" lon="1.3239">
        <ele>140</ele>
        <time>2020-10-03T07:37:04.000Z</time>
      </trkpt>
      <trkpt lat="43.6529" lon="1.32392">
        <ele>140.36296317366</ele>
        <time>2020-10-03T07:37:05.000Z</time>
      </trkpt>
      <trkpt lat="43.65287" lon="1.32394">
        <ele>141</ele>
        <time>2020-10-03T07:37:06.000Z</time>
      </trkpt>
      <trkpt lat="43.65285" lon="1.32396">
        <ele>141</ele>
        <time>2020-10-03T07:37:07.000Z</time>
      </trkpt>
      <trkpt lat="43.65283" lon="1.32398">
        <ele>141</ele>
        <time>2020-10-03T07:37:08.000Z</time>
      </trkpt>
      <trkpt lat="43.65281" lon="1.324">
        <ele>141</ele>
        <time>2020-10-03T07:37:09.000Z</time>
      </trkpt>
      <trkpt lat="43.65278" lon="1.32401">
        <ele>141</ele>
        <time>2020-10-03T07:37:10.000Z</time>
      </trkpt>
      <trkpt lat="43.65276" lon="1.32403">
        <ele>141</ele>
        <time>2020-10-03T07:37:11.000Z</time>
      </trkpt>
      <trkpt lat="43.65274" lon="1.32406">
        <ele>140.55435130435</ele>
        <time>2020-10-03T07:37:12.000Z</time>
      </trkpt>
      <trkpt lat="43.65272" lon="1.32408">
        <ele>140</ele>
        <time>2020-10-03T07:37:13.000Z</time>
      </trkpt>
      <trkpt lat="43.65269" lon="1.3241">
        <ele>140</ele>
        <time>2020-10-03T07:37:14.000Z</time>
      </trkpt>
      <trkpt lat="43.65267" lon="1.32412">
        <ele>140</ele>
        <time>2020-10-03T07:37:15.000Z</time>
      </trkpt>
      <trkpt lat="43.65264" lon="1.32414">
        <ele>140</ele>
        <time>2020-10-03T07:37:16.000Z</time>
      </trkpt>
      <trkpt lat="43.65261" lon="1.32416">
        <ele>140</ele>
        <time>2020-10-03T07:37:17.000Z</time>
      </trkpt>
      <trkpt lat="43.65259" lon="1.32418">
        <ele>140</ele>
        <time>2020-10-03T07:37:18.000Z</time>
      </trkpt>
      <trkpt lat="43.65256" lon="1.32419">
        <ele>140</ele>
        <time>2020-10-03T07:37:19.000Z</time>
      </trkpt>
      <trkpt lat="43.65254" lon="1.32421">
        <ele>140</ele>
        <time>2020-10-03T07:37:20.000Z</time>
      </trkpt>
      <trkpt lat="43.65251" lon="1.32423">
        <ele>139.55555555556</ele>
        <time>2020-10-03T07:37:21.000Z</time>
      </trkpt>
      <trkpt lat="43.65249" lon="1.32424">
        <ele>139</ele>
        <time>2020-10-03T07:37:22.000Z</time>
      </trkpt>
      <trkpt lat="43.65247" lon="1.32426">
        <ele>139</ele>
        <time>2020-10-03T07:37:23.000Z</time>
      </trkpt>
      <trkpt lat="43.65245" lon="1.32426">
        <ele>139</ele>
        <time>2020-10-03T07:37:24.000Z</time>
      </trkpt>
      <trkpt lat="43.65242" lon="1.32426">
        <ele>139</ele>
        <time>2020-10-03T07:37:25.000Z</time>
      </trkpt>
      <trkpt lat="43.65239" lon="1.32425">
        <ele>139</ele>
        <time>2020-10-03T07:37:26.000Z</time>
      </trkpt>
      <trkpt lat="43.65236" lon="1.32424">
        <ele>139</ele>
        <time>2020-10-03T07:37:27.000Z</time>
      </trkpt>
      <trkpt lat="43.65234" lon="1.32423">
        <ele>139</ele>
        <time>2020-10-03T07:37:28.000Z</time>
      </trkpt>
      <trkpt lat="43.65231" lon="1.32422">
        <ele>139</ele>
        <time>2020-10-03T07:37:29.000Z</time>
      </trkpt>
      <trkpt lat="43.65228" lon="1.3242">
        <ele>139</ele>
        <time>2020-10-03T07:37:30.000Z</time>
      </trkpt>
      <trkpt lat="43.65226" lon="1.32419">
        <ele>139</ele>
        <time>2020-10-03T07:37:31.000Z</time>
      </trkpt>
      <trkpt lat="43.65224" lon="1.32418">
        <ele>139</ele>
        <time>2020-10-03T07:37:32.000Z</time>
      </trkpt>
      <trkpt lat="43.65221" lon="1.32417">
        <ele>138.78260869565</ele>
        <time>2020-10-03T07:37:33.000Z</time>
      </trkpt>
      <trkpt lat="43.65218" lon="1.32415">
        <ele>138</ele>
        <time>2020-10-03T07:37:34.000Z</time>
      </trkpt>
      <trkpt lat="43.65215" lon="1.32414">
        <ele>138</ele>
        <time>2020-10-03T07:37:35.000Z</time>
      </trkpt>
      <trkpt lat="43.65211" lon="1.32414">
        <ele>138</ele>
        <time>2020-10-03T07:37:36.000Z</time>
      </trkpt>
      <trkpt lat="43.65208" lon="1.32414">
        <ele>137.648149904</ele>
        <time>2020-10-03T07:37:37.000Z</time>
      </trkpt>
      <trkpt lat="43.65206" lon="1.32414">
        <ele>137</ele>
        <time>2020-10-03T07:37:38.000Z</time>
      </trkpt>
      <trkpt lat="43.65203" lon="1.32415">
        <ele>137</ele>
        <time>2020-10-03T07:37:39.000Z</time>
      </trkpt>
      <trkpt lat="43.652" lon="1.32415">
        <ele>137</ele>
        <time>2020-10-03T07:37:40.000Z</time>
      </trkpt>
      <trkpt lat="43.65197" lon="1.32416">
        <ele>137</ele>
        <time>2020-10-03T07:37:41.000Z</time>
      </trkpt>
      <trkpt lat="43.65194" lon="1.32415">
        <ele>137</ele>
        <time>2020-10-03T07:37:42.000Z</time>
      </trkpt>
      <trkpt lat="43.65191" lon="1.32414">
        <ele>137</ele>
        <time>2020-10-03T07:37:43.000Z</time>
      </trkpt>
      <trkpt lat="43.65189" lon="1.32413">
        <ele>137</ele>
        <time>2020-10-03T07:37:44.000Z</time>
      </trkpt>
      <trkpt lat="43.65187" lon="1.3241">
        <ele>137</ele>
        <time>2020-10-03T07:37:45.000Z</time>
      </trkpt>
      <trkpt lat="43.65186" lon="1.32408">
        <ele>137</ele>
        <time>2020-10-03T07:37:46.000Z</time>
      </trkpt>
      <trkpt lat="43.65184" lon="1.32405">
        <ele>137.351850096</ele>
        <time>2020-10-03T07:37:47.000Z</time>
      </trkpt>
      <trkpt lat="43.65182" lon="1.32403">
        <ele>138</ele>
        <time>2020-10-03T07:37:48.000Z</time>
      </trkpt>
      <trkpt lat="43.6518" lon="1.32399">
        <ele>138</ele>
        <time>2020-10-03T07:37:49.000Z</time>
      </trkpt>
      <trkpt lat="43.65178" lon="1.32396">
        <ele>138</ele>
        <time>2020-10-03T07:37:50.000Z</time>
      </trkpt>
      <trkpt lat="43.65176" lon="1.32393">
        <ele>138</ele>
        <time>2020-10-03T07:37:51.000Z</time>
      </trkpt>
      <trkpt lat="43.65174" lon="1.3239">
        <ele>138</ele>
        <time>2020-10-03T07:37:52.000Z</time>
      </trkpt>
      <trkpt lat="43.65172" lon="1.32387">
        <ele>138</ele>
        <time>2020-10-03T07:37:53.000Z</time>
      </trkpt>
      <trkpt lat="43.6517" lon="1.32384">
        <ele>138</ele>
        <time>2020-10-03T07:37:54.000Z</time>
      </trkpt>
      <trkpt lat="43.65169" lon="1.32381">
        <ele>138</ele>
        <time>2020-10-03T07:37:55.000Z</time>
      </trkpt>
      <trkpt lat="43.65167" lon="1.32378">
        <ele>138</ele>
        <time>2020-10-03T07:37:56.000Z</time>
      </trkpt>
      <trkpt lat="43.65165" lon="1.32376">
        <ele>138</ele>
        <time>2020-10-03T07:37:57.000Z</time>
      </trkpt>
      <trkpt lat="43.65163" lon="1.32373">
        <ele>138</ele>
        <time>2020-10-03T07:37:58.000Z</time>
      </trkpt>
      <trkpt lat="43.65162" lon="1.32371">
        <ele>138</ele>
        <time>2020-10-03T07:37:59.000Z</time>
      </trkpt>
      <trkpt lat="43.6516" lon="1.32368">
        <ele>138</ele>
        <time>2020-10-03T07:38:00.000Z</time>
      </trkpt>
      <trkpt lat="43.65158" lon="1.32365">
        <ele>138</ele>
        <time>2020-10-03T07:38:01.000Z</time>
      </trkpt>
      <trkpt lat="43.65157" lon="1.32361">
        <ele>138</ele>
        <time>2020-10-03T07:38:02.000Z</time>
      </trkpt>
      <trkpt lat="43.65156" lon="1.32353">
        <ele>138</ele>
        <time>2020-10-03T07:38:04.000Z</time>
      </trkpt>
      <trkpt lat="43.65155" lon="1.32349">
        <ele>138</ele>
        <time>2020-10-03T07:38:05.000Z</time>
      </trkpt>
      <trkpt lat="43.65154" lon="1.32345">
        <ele>138</ele>
        <time>2020-10-03T07:38:06.000Z</time>
      </trkpt>
      <trkpt lat="43.65153" lon="1.32341">
        <ele>138</ele>
        <time>2020-10-03T07:38:07.000Z</time>
      </trkpt>
      <trkpt lat="43.65152" lon="1.32338">
        <ele>138</ele>
        <time>2020-10-03T07:38:08.000Z</time>
      </trkpt>
      <trkpt lat="43.6515" lon="1.32334">
        <ele>138</ele>
        <time>2020-10-03T07:38:09.000Z</time>
      </trkpt>
      <trkpt lat="43.65148" lon="1.3233">
        <ele>137.68965263576</ele>
        <time>2020-10-03T07:38:10.000Z</time>
      </trkpt>
      <trkpt lat="43.65146" lon="1.32327">
        <ele>137</ele>
        <time>2020-10-03T07:38:11.000Z</time>
      </trkpt>
      <trkpt lat="43.65144" lon="1.32323">
        <ele>137</ele>
        <time>2020-10-03T07:38:12.000Z</time>
      </trkpt>
      <trkpt lat="43.65142" lon="1.3232">
        <ele>137</ele>
        <time>2020-10-03T07:38:13.000Z</time>
      </trkpt>
      <trkpt lat="43.65141" lon="1.32316">
        <ele>137</ele>
        <time>2020-10-03T07:38:14.000Z</time>
      </trkpt>
      <trkpt lat="43.65139" lon="1.32313">
        <ele>137</ele>
        <time>2020-10-03T07:38:15.000Z</time>
      </trkpt>
      <trkpt lat="43.65137" lon="1.32309">
        <ele>137</ele>
        <time>2020-10-03T07:38:16.000Z</time>
      </trkpt>
      <trkpt lat="43.65135" lon="1.32305">
        <ele>137</ele>
        <time>2020-10-03T07:38:17.000Z</time>
      </trkpt>
      <trkpt lat="43.65134" lon="1.32302">
        <ele>137</ele>
        <time>2020-10-03T07:38:18.000Z</time>
      </trkpt>
      <trkpt lat="43.65132" lon="1.32298">
        <ele>137</ele>
        <time>2020-10-03T07:38:19.000Z</time>
      </trkpt>
      <trkpt lat="43.65131" lon="1.32295">
        <ele>137</ele>
        <time>2020-10-03T07:38:20.000Z</time>
      </trkpt>
      <trkpt lat="43.65129" lon="1.32291">
        <ele>137</ele>
        <time>2020-10-03T07:38:21.000Z</time>
      </trkpt>
      <trkpt lat="43.65127" lon="1.32287">
        <ele>137</ele>
        <time>2020-10-03T07:38:22.000Z</time>
      </trkpt>
      <trkpt lat="43.65126" lon="1.32283">
        <ele>137</ele>
        <time>2020-10-03T07:38:23.000Z</time>
      </trkpt>
      <trkpt lat="43.65125" lon="1.3228">
        <ele>137</ele>
        <time>2020-10-03T07:38:24.000Z</time>
      </trkpt>
      <trkpt lat="43.65125" lon="1.32276">
        <ele>137</ele>
        <time>2020-10-03T07:38:25.000Z</time>
      </trkpt>
      <trkpt lat="43.65124" lon="1.32272">
        <ele>137</ele>
        <time>2020-10-03T07:38:26.000Z</time>
      </trkpt>
      <trkpt lat="43.65123" lon="1.32268">
        <ele>137</ele>
        <time>2020-10-03T07:38:27.000Z</time>
      </trkpt>
      <trkpt lat="43.65123" lon="1.32264">
        <ele>137.42856769677</ele>
        <time>2020-10-03T07:38:28.000Z</time>
      </trkpt>
      <trkpt lat="43.65122" lon="1.3226">
        <ele>138</ele>
        <time>2020-10-03T07:38:29.000Z</time>
      </trkpt>
      <trkpt lat="43.65121" lon="1.32256">
        <ele>138</ele>
        <time>2020-10-03T07:38:30.000Z</time>
      </trkpt>
      <trkpt lat="43.6512" lon="1.32252">
        <ele>138</ele>
        <time>2020-10-03T07:38:31.000Z</time>
      </trkpt>
      <trkpt lat="43.65119" lon="1.32249">
        <ele>138</ele>
        <time>2020-10-03T07:38:32.000Z</time>
      </trkpt>
      <trkpt lat="43.65118" lon="1.32245">
        <ele>138</ele>
        <time>2020-10-03T07:38:33.000Z</time>
      </trkpt>
      <trkpt lat="43.65117" lon="1.32242">
        <ele>138</ele>
        <time>2020-10-03T07:38:34.000Z</time>
      </trkpt>
      <trkpt lat="43.65115" lon="1.32239">
        <ele>138</ele>
        <time>2020-10-03T07:38:35.000Z</time>
      </trkpt>
      <trkpt lat="43.65113" lon="1.32236">
        <ele>138</ele>
        <time>2020-10-03T07:38:36.000Z</time>
      </trkpt>
      <trkpt lat="43.65111" lon="1.32234">
        <ele>138</ele>
        <time>2020-10-03T07:38:37.000Z</time>
      </trkpt>
      <trkpt lat="43.65109" lon="1.32231">
        <ele>138</ele>
        <time>2020-10-03T07:38:38.000Z</time>
      </trkpt>
      <trkpt lat="43.65107" lon="1.32229">
        <ele>138</ele>
        <time>2020-10-03T07:38:39.000Z</time>
      </trkpt>
      <trkpt lat="43.65105" lon="1.32228">
        <ele>138</ele>
        <time>2020-10-03T07:38:40.000Z</time>
      </trkpt>
      <trkpt lat="43.65102" lon="1.32226">
        <ele>138</ele>
        <time>2020-10-03T07:38:41.000Z</time>
      </trkpt>
      <trkpt lat="43.65099" lon="1.32225">
        <ele>138</ele>
        <time>2020-10-03T07:38:42.000Z</time>
      </trkpt>
      <trkpt lat="43.65096" lon="1.32224">
        <ele>138</ele>
        <time>2020-10-03T07:38:43.000Z</time>
      </trkpt>
      <trkpt lat="43.65094" lon="1.32222">
        <ele>138</ele>
        <time>2020-10-03T07:38:44.000Z</time>
      </trkpt>
      <trkpt lat="43.65091" lon="1.32221">
        <ele>138</ele>
        <time>2020-10-03T07:38:45.000Z</time>
      </trkpt>
      <trkpt lat="43.65088" lon="1.32219">
        <ele>138</ele>
        <time>2020-10-03T07:38:46.000Z</time>
      </trkpt>
      <trkpt lat="43.65086" lon="1.32216">
        <ele>138</ele>
        <time>2020-10-03T07:38:47.000Z</time>
      </trkpt>
      <trkpt lat="43.65085" lon="1.32212">
        <ele>138</ele>
        <time>2020-10-03T07:38:48.000Z</time>
      </trkpt>
      <trkpt lat="43.65085" lon="1.32208">
        <ele>138</ele>
        <time>2020-10-03T07:38:49.000Z</time>
      </trkpt>
      <trkpt lat="43.65085" lon="1.32204">
        <ele>138</ele>
        <time>2020-10-03T07:38:50.000Z</time>
      </trkpt>
      <trkpt lat="43.65084" lon="1.322">
        <ele>138</ele>
        <time>2020-10-03T07:38:51.000Z</time>
      </trkpt>
      <trkpt lat="43.65083" lon="1.32197">
        <ele>138</ele>
        <time>2020-10-03T07:38:52.000Z</time>
      </trkpt>
      <trkpt lat="43.65082" lon="1.32193">
        <ele>138</ele>
        <time>2020-10-03T07:38:53.000Z</time>
      </trkpt>
      <trkpt lat="43.6508" lon="1.3219">
        <ele>138</ele>
        <time>2020-10-03T07:38:54.000Z</time>
      </trkpt>
      <trkpt lat="43.65078" lon="1.32188">
        <ele>138</ele>
        <time>2020-10-03T07:38:55.000Z</time>
      </trkpt>
      <trkpt lat="43.65075" lon="1.32185">
        <ele>138</ele>
        <time>2020-10-03T07:38:56.000Z</time>
      </trkpt>
      <trkpt lat="43.65073" lon="1.32182">
        <ele>138</ele>
        <time>2020-10-03T07:38:57.000Z</time>
      </trkpt>
      <trkpt lat="43.65071" lon="1.3218">
        <ele>138</ele>
        <time>2020-10-03T07:38:58.000Z</time>
      </trkpt>
      <trkpt lat="43.65069" lon="1.32177">
        <ele>138</ele>
        <time>2020-10-03T07:38:59.000Z</time>
      </trkpt>
      <trkpt lat="43.65067" lon="1.32174">
        <ele>138</ele>
        <time>2020-10-03T07:39:00.000Z</time>
      </trkpt>
      <trkpt lat="43.65065" lon="1.32172">
        <ele>138</ele>
        <time>2020-10-03T07:39:01.000Z</time>
      </trkpt>
      <trkpt lat="43.65063" lon="1.32171">
        <ele>138</ele>
        <time>2020-10-03T07:39:02.000Z</time>
      </trkpt>
      <trkpt lat="43.6506" lon="1.32171">
        <ele>138</ele>
        <time>2020-10-03T07:39:03.000Z</time>
      </trkpt>
      <trkpt lat="43.65057" lon="1.32171">
        <ele>138</ele>
        <time>2020-10-03T07:39:04.000Z</time>
      </trkpt>
      <trkpt lat="43.65054" lon="1.3217">
        <ele>138.41964571429</ele>
        <time>2020-10-03T07:39:05.000Z</time>
      </trkpt>
      <trkpt lat="43.65052" lon="1.3217">
        <ele>139</ele>
        <time>2020-10-03T07:39:06.000Z</time>
      </trkpt>
      <trkpt lat="43.65049" lon="1.32169">
        <ele>139</ele>
        <time>2020-10-03T07:39:07.000Z</time>
      </trkpt>
      <trkpt lat="43.65046" lon="1.32167">
        <ele>139</ele>
        <time>2020-10-03T07:39:08.000Z</time>
      </trkpt>
      <trkpt lat="43.65043" lon="1.32165">
        <ele>139</ele>
        <time>2020-10-03T07:39:09.000Z</time>
      </trkpt>
      <trkpt lat="43.65041" lon="1.32163">
        <ele>139</ele>
        <time>2020-10-03T07:39:10.000Z</time>
      </trkpt>
      <trkpt lat="43.65038" lon="1.32162">
        <ele>139</ele>
        <time>2020-10-03T07:39:11.000Z</time>
      </trkpt>
      <trkpt lat="43.65035" lon="1.32162">
        <ele>139</ele>
        <time>2020-10-03T07:39:12.000Z</time>
      </trkpt>
      <trkpt lat="43.65032" lon="1.32161">
        <ele>139</ele>
        <time>2020-10-03T07:39:13.000Z</time>
      </trkpt>
      <trkpt lat="43.65029" lon="1.32161">
        <ele>139</ele>
        <time>2020-10-03T07:39:14.000Z</time>
      </trkpt>
      <trkpt lat="43.65027" lon="1.32162">
        <ele>139</ele>
        <time>2020-10-03T07:39:15.000Z</time>
      </trkpt>
      <trkpt lat="43.65024" lon="1.32163">
        <ele>139</ele>
        <time>2020-10-03T07:39:16.000Z</time>
      </trkpt>
      <trkpt lat="43.65021" lon="1.32163">
        <ele>139.31579124655</ele>
        <time>2020-10-03T07:39:17.000Z</time>
      </trkpt>
      <trkpt lat="43.65018" lon="1.32163">
        <ele>140</ele>
        <time>2020-10-03T07:39:18.000Z</time>
      </trkpt>
      <trkpt lat="43.65015" lon="1.32163">
        <ele>140</ele>
        <time>2020-10-03T07:39:19.000Z</time>
      </trkpt>
      <trkpt lat="43.65012" lon="1.32163">
        <ele>140</ele>
        <time>2020-10-03T07:39:20.000Z</time>
      </trkpt>
      <trkpt lat="43.6501" lon="1.32162">
        <ele>140</ele>
        <time>2020-10-03T07:39:21.000Z</time>
      </trkpt>
      <trkpt lat="43.65007" lon="1.32162">
        <ele>140</ele>
        <time>2020-10-03T07:39:22.000Z</time>
      </trkpt>
      <trkpt lat="43.65005" lon="1.32162">
        <ele>140</ele>
        <time>2020-10-03T07:39:23.000Z</time>
      </trkpt>
      <trkpt lat="43.65002" lon="1.32164">
        <ele>139.57272684959</ele>
        <time>2020-10-03T07:39:24.000Z</time>
      </trkpt>
      <trkpt lat="43.64999" lon="1.32165">
        <ele>139</ele>
        <time>2020-10-03T07:39:25.000Z</time>
      </trkpt>
      <trkpt lat="43.64997" lon="1.32165">
        <ele>139</ele>
        <time>2020-10-03T07:39:26.000Z</time>
      </trkpt>
      <trkpt lat="43.64994" lon="1.32164">
        <ele>139</ele>
        <time>2020-10-03T07:39:27.000Z</time>
      </trkpt>
      <trkpt lat="43.64992" lon="1.32164">
        <ele>139</ele>
        <time>2020-10-03T07:39:28.000Z</time>
      </trkpt>
      <trkpt lat="43.6499" lon="1.32165">
        <ele>139</ele>
        <time>2020-10-03T07:39:29.000Z</time>
      </trkpt>
      <trkpt lat="43.64987" lon="1.32165">
        <ele>139.41379158146</ele>
        <time>2020-10-03T07:39:30.000Z</time>
      </trkpt>
      <trkpt lat="43.64985" lon="1.32166">
        <ele>140</ele>
        <time>2020-10-03T07:39:31.000Z</time>
      </trkpt>
      <trkpt lat="43.64983" lon="1.32168">
        <ele>140</ele>
        <time>2020-10-03T07:39:32.000Z</time>
      </trkpt>
      <trkpt lat="43.6498" lon="1.32169">
        <ele>140</ele>
        <time>2020-10-03T07:39:33.000Z</time>
      </trkpt>
      <trkpt lat="43.64978" lon="1.32171">
        <ele>140</ele>
        <time>2020-10-03T07:39:34.000Z</time>
      </trkpt>
      <trkpt lat="43.64976" lon="1.32173">
        <ele>140</ele>
        <time>2020-10-03T07:39:35.000Z</time>
      </trkpt>
      <trkpt lat="43.64973" lon="1.32175">
        <ele>140</ele>
        <time>2020-10-03T07:39:36.000Z</time>
      </trkpt>
      <trkpt lat="43.64971" lon="1.32178">
        <ele>140</ele>
        <time>2020-10-03T07:39:37.000Z</time>
      </trkpt>
      <trkpt lat="43.64968" lon="1.3218">
        <ele>140</ele>
        <time>2020-10-03T07:39:38.000Z</time>
      </trkpt>
      <trkpt lat="43.64967" lon="1.32183">
        <ele>140</ele>
        <time>2020-10-03T07:39:39.000Z</time>
      </trkpt>
      <trkpt lat="43.64965" lon="1.32186">
        <ele>140</ele>
        <time>2020-10-03T07:39:40.000Z</time>
      </trkpt>
      <trkpt lat="43.64963" lon="1.32189">
        <ele>140</ele>
        <time>2020-10-03T07:39:41.000Z</time>
      </trkpt>
      <trkpt lat="43.64962" lon="1.32193">
        <ele>140</ele>
        <time>2020-10-03T07:39:42.000Z</time>
      </trkpt>
      <trkpt lat="43.64961" lon="1.32196">
        <ele>140</ele>
        <time>2020-10-03T07:39:43.000Z</time>
      </trkpt>
      <trkpt lat="43.6496" lon="1.322">
        <ele>140.44859678924</ele>
        <time>2020-10-03T07:39:44.000Z</time>
      </trkpt>
      <trkpt lat="43.64959" lon="1.32204">
        <ele>141</ele>
        <time>2020-10-03T07:39:45.000Z</time>
      </trkpt>
      <trkpt lat="43.64959" lon="1.32208">
        <ele>141</ele>
        <time>2020-10-03T07:39:46.000Z</time>
      </trkpt>
      <trkpt lat="43.64958" lon="1.32212">
        <ele>141</ele>
        <time>2020-10-03T07:39:47.000Z</time>
      </trkpt>
      <trkpt lat="43.64957" lon="1.32215">
        <ele>141</ele>
        <time>2020-10-03T07:39:48.000Z</time>
      </trkpt>
      <trkpt lat="43.64957" lon="1.32219">
        <ele>141</ele>
        <time>2020-10-03T07:39:49.000Z</time>
      </trkpt>
      <trkpt lat="43.64956" lon="1.32223">
        <ele>141</ele>
        <time>2020-10-03T07:39:50.000Z</time>
      </trkpt>
      <trkpt lat="43.64956" lon="1.32226">
        <ele>141</ele>
        <time>2020-10-03T07:39:51.000Z</time>
      </trkpt>
      <trkpt lat="43.64955" lon="1.3223">
        <ele>141</ele>
        <time>2020-10-03T07:39:52.000Z</time>
      </trkpt>
      <trkpt lat="43.64955" lon="1.32234">
        <ele>141</ele>
        <time>2020-10-03T07:39:53.000Z</time>
      </trkpt>
      <trkpt lat="43.64954" lon="1.32238">
        <ele>141</ele>
        <time>2020-10-03T07:39:54.000Z</time>
      </trkpt>
      <trkpt lat="43.64952" lon="1.32246">
        <ele>141</ele>
        <time>2020-10-03T07:39:56.000Z</time>
      </trkpt>
      <trkpt lat="43.6495" lon="1.32249">
        <ele>141</ele>
        <time>2020-10-03T07:39:57.000Z</time>
      </trkpt>
      <trkpt lat="43.64949" lon="1.32252">
        <ele>141</ele>
        <time>2020-10-03T07:39:58.000Z</time>
      </trkpt>
      <trkpt lat="43.64946" lon="1.32255">
        <ele>140.5</ele>
        <time>2020-10-03T07:39:59.000Z</time>
      </trkpt>
      <trkpt lat="43.64944" lon="1.32257">
        <ele>140</ele>
        <time>2020-10-03T07:40:00.000Z</time>
      </trkpt>
      <trkpt lat="43.64942" lon="1.3226">
        <ele>140</ele>
        <time>2020-10-03T07:40:01.000Z</time>
      </trkpt>
      <trkpt lat="43.6494" lon="1.32263">
        <ele>140</ele>
        <time>2020-10-03T07:40:02.000Z</time>
      </trkpt>
      <trkpt lat="43.64937" lon="1.32267">
        <ele>140</ele>
        <time>2020-10-03T07:40:03.000Z</time>
      </trkpt>
      <trkpt lat="43.64935" lon="1.3227">
        <ele>140</ele>
        <time>2020-10-03T07:40:04.000Z</time>
      </trkpt>
      <trkpt lat="43.64934" lon="1.32272">
        <ele>140</ele>
        <time>2020-10-03T07:40:05.000Z</time>
      </trkpt>
      <trkpt lat="43.64931" lon="1.32275">
        <ele>140</ele>
        <time>2020-10-03T07:40:06.000Z</time>
      </trkpt>
      <trkpt lat="43.64929" lon="1.32278">
        <ele>140</ele>
        <time>2020-10-03T07:40:07.000Z</time>
      </trkpt>
      <trkpt lat="43.64926" lon="1.3228">
        <ele>140</ele>
        <time>2020-10-03T07:40:08.000Z</time>
      </trkpt>
      <trkpt lat="43.64924" lon="1.32281">
        <ele>140</ele>
        <time>2020-10-03T07:40:09.000Z</time>
      </trkpt>
      <trkpt lat="43.64921" lon="1.32282">
        <ele>140</ele>
        <time>2020-10-03T07:40:10.000Z</time>
      </trkpt>
      <trkpt lat="43.64918" lon="1.32282">
        <ele>139.76041333333</ele>
        <time>2020-10-03T07:40:11.000Z</time>
      </trkpt>
      <trkpt lat="43.64915" lon="1.32282">
        <ele>139</ele>
        <time>2020-10-03T07:40:12.000Z</time>
      </trkpt>
      <trkpt lat="43.64912" lon="1.32283">
        <ele>139</ele>
        <time>2020-10-03T07:40:13.000Z</time>
      </trkpt>
      <trkpt lat="43.64909" lon="1.32283">
        <ele>139.44564869565</ele>
        <time>2020-10-03T07:40:14.000Z</time>
      </trkpt>
      <trkpt lat="43.64906" lon="1.32283">
        <ele>140</ele>
        <time>2020-10-03T07:40:15.000Z</time>
      </trkpt>
      <trkpt lat="43.64904" lon="1.32283">
        <ele>140</ele>
        <time>2020-10-03T07:40:16.000Z</time>
      </trkpt>
      <trkpt lat="43.64901" lon="1.32284">
        <ele>140</ele>
        <time>2020-10-03T07:40:17.000Z</time>
      </trkpt>
      <trkpt lat="43.64898" lon="1.32284">
        <ele>140</ele>
        <time>2020-10-03T07:40:18.000Z</time>
      </trkpt>
      <trkpt lat="43.64895" lon="1.32284">
        <ele>140</ele>
        <time>2020-10-03T07:40:19.000Z</time>
      </trkpt>
      <trkpt lat="43.64892" lon="1.32284">
        <ele>139.67777904198</ele>
        <time>2020-10-03T07:40:20.000Z</time>
      </trkpt>
      <trkpt lat="43.64889" lon="1.32285">
        <ele>139</ele>
        <time>2020-10-03T07:40:21.000Z</time>
      </trkpt>
      <trkpt lat="43.64886" lon="1.32285">
        <ele>139</ele>
        <time>2020-10-03T07:40:22.000Z</time>
      </trkpt>
      <trkpt lat="43.64883" lon="1.32286">
        <ele>139</ele>
        <time>2020-10-03T07:40:23.000Z</time>
      </trkpt>
      <trkpt lat="43.6488" lon="1.32287">
        <ele>139.32584027268</ele>
        <time>2020-10-03T07:40:24.000Z</time>
      </trkpt>
      <trkpt lat="43.64878" lon="1.32289">
        <ele>140</ele>
        <time>2020-10-03T07:40:25.000Z</time>
      </trkpt>
      <trkpt lat="43.64876" lon="1.32292">
        <ele>140</ele>
        <time>2020-10-03T07:40:26.000Z</time>
      </trkpt>
      <trkpt lat="43.64874" lon="1.32295">
        <ele>140</ele>
        <time>2020-10-03T07:40:27.000Z</time>
      </trkpt>
      <trkpt lat="43.64872" lon="1.32298">
        <ele>140</ele>
        <time>2020-10-03T07:40:28.000Z</time>
      </trkpt>
      <trkpt lat="43.64871" lon="1.32301">
        <ele>140</ele>
        <time>2020-10-03T07:40:29.000Z</time>
      </trkpt>
      <trkpt lat="43.64869" lon="1.32304">
        <ele>140</ele>
        <time>2020-10-03T07:40:30.000Z</time>
      </trkpt>
      <trkpt lat="43.64868" lon="1.32307">
        <ele>140</ele>
        <time>2020-10-03T07:40:31.000Z</time>
      </trkpt>
      <trkpt lat="43.64866" lon="1.3231">
        <ele>140</ele>
        <time>2020-10-03T07:40:32.000Z</time>
      </trkpt>
      <trkpt lat="43.64865" lon="1.32313">
        <ele>140</ele>
        <time>2020-10-03T07:40:33.000Z</time>
      </trkpt>
      <trkpt lat="43.64864" lon="1.32316">
        <ele>140</ele>
        <time>2020-10-03T07:40:34.000Z</time>
      </trkpt>
      <trkpt lat="43.64862" lon="1.32319">
        <ele>140</ele>
        <time>2020-10-03T07:40:35.000Z</time>
      </trkpt>
      <trkpt lat="43.64861" lon="1.32322">
        <ele>140</ele>
        <time>2020-10-03T07:40:36.000Z</time>
      </trkpt>
      <trkpt lat="43.6486" lon="1.32326">
        <ele>140.33636268429</ele>
        <time>2020-10-03T07:40:37.000Z</time>
      </trkpt>
      <trkpt lat="43.64858" lon="1.32329">
        <ele>141</ele>
        <time>2020-10-03T07:40:38.000Z</time>
      </trkpt>
      <trkpt lat="43.64857" lon="1.32332">
        <ele>141</ele>
        <time>2020-10-03T07:40:39.000Z</time>
      </trkpt>
      <trkpt lat="43.64855" lon="1.32335">
        <ele>141</ele>
        <time>2020-10-03T07:40:40.000Z</time>
      </trkpt>
      <trkpt lat="43.64853" lon="1.32338">
        <ele>141</ele>
        <time>2020-10-03T07:40:41.000Z</time>
      </trkpt>
      <trkpt lat="43.6485" lon="1.32341">
        <ele>141</ele>
        <time>2020-10-03T07:40:42.000Z</time>
      </trkpt>
      <trkpt lat="43.64848" lon="1.32343">
        <ele>141</ele>
        <time>2020-10-03T07:40:43.000Z</time>
      </trkpt>
      <trkpt lat="43.64845" lon="1.32345">
        <ele>141</ele>
        <time>2020-10-03T07:40:44.000Z</time>
      </trkpt>
      <trkpt lat="43.64843" lon="1.32347">
        <ele>141</ele>
        <time>2020-10-03T07:40:45.000Z</time>
      </trkpt>
      <trkpt lat="43.64841" lon="1.3235">
        <ele>141</ele>
        <time>2020-10-03T07:40:46.000Z</time>
      </trkpt>
      <trkpt lat="43.64839" lon="1.32352">
        <ele>141</ele>
        <time>2020-10-03T07:40:47.000Z</time>
      </trkpt>
      <trkpt lat="43.64838" lon="1.32355">
        <ele>141</ele>
        <time>2020-10-03T07:40:48.000Z</time>
      </trkpt>
      <trkpt lat="43.64836" lon="1.32358">
        <ele>141</ele>
        <time>2020-10-03T07:40:49.000Z</time>
      </trkpt>
      <trkpt lat="43.64834" lon="1.32361">
        <ele>141</ele>
        <time>2020-10-03T07:40:50.000Z</time>
      </trkpt>
      <trkpt lat="43.64831" lon="1.32364">
        <ele>141</ele>
        <time>2020-10-03T07:40:51.000Z</time>
      </trkpt>
      <trkpt lat="43.64829" lon="1.32366">
        <ele>140.53125333333</ele>
        <time>2020-10-03T07:40:52.000Z</time>
      </trkpt>
      <trkpt lat="43.64827" lon="1.32368">
        <ele>140</ele>
        <time>2020-10-03T07:40:53.000Z</time>
      </trkpt>
      <trkpt lat="43.64825" lon="1.32371">
        <ele>140</ele>
        <time>2020-10-03T07:40:54.000Z</time>
      </trkpt>
      <trkpt lat="43.64822" lon="1.32374">
        <ele>140</ele>
        <time>2020-10-03T07:40:55.000Z</time>
      </trkpt>
      <trkpt lat="43.6482" lon="1.32377">
        <ele>140</ele>
        <time>2020-10-03T07:40:56.000Z</time>
      </trkpt>
      <trkpt lat="43.64819" lon="1.3238">
        <ele>140</ele>
        <time>2020-10-03T07:40:57.000Z</time>
      </trkpt>
      <trkpt lat="43.64817" lon="1.32383">
        <ele>140</ele>
        <time>2020-10-03T07:40:58.000Z</time>
      </trkpt>
      <trkpt lat="43.64816" lon="1.32386">
        <ele>140</ele>
        <time>2020-10-03T07:40:59.000Z</time>
      </trkpt>
      <trkpt lat="43.64814" lon="1.32389">
        <ele>139.5545457719</ele>
        <time>2020-10-03T07:41:00.000Z</time>
      </trkpt>
      <trkpt lat="43.64813" lon="1.32392">
        <ele>139</ele>
        <time>2020-10-03T07:41:01.000Z</time>
      </trkpt>
      <trkpt lat="43.64811" lon="1.32395">
        <ele>139</ele>
        <time>2020-10-03T07:41:02.000Z</time>
      </trkpt>
      <trkpt lat="43.6481" lon="1.32398">
        <ele>139</ele>
        <time>2020-10-03T07:41:03.000Z</time>
      </trkpt>
      <trkpt lat="43.64809" lon="1.32401">
        <ele>139</ele>
        <time>2020-10-03T07:41:04.000Z</time>
      </trkpt>
      <trkpt lat="43.64808" lon="1.32404">
        <ele>139</ele>
        <time>2020-10-03T07:41:05.000Z</time>
      </trkpt>
      <trkpt lat="43.64807" lon="1.32408">
        <ele>139</ele>
        <time>2020-10-03T07:41:06.000Z</time>
      </trkpt>
      <trkpt lat="43.64805" lon="1.32411">
        <ele>139</ele>
        <time>2020-10-03T07:41:07.000Z</time>
      </trkpt>
      <trkpt lat="43.64804" lon="1.32414">
        <ele>139.425288371</ele>
        <time>2020-10-03T07:41:08.000Z</time>
      </trkpt>
      <trkpt lat="43.64803" lon="1.32417">
        <ele>140</ele>
        <time>2020-10-03T07:41:09.000Z</time>
      </trkpt>
      <trkpt lat="43.64803" lon="1.3242">
        <ele>140.39759110467</ele>
        <time>2020-10-03T07:41:10.000Z</time>
      </trkpt>
      <trkpt lat="43.64802" lon="1.32424">
        <ele>141</ele>
        <time>2020-10-03T07:41:11.000Z</time>
      </trkpt>
      <trkpt lat="43.64801" lon="1.32428">
        <ele>141</ele>
        <time>2020-10-03T07:41:12.000Z</time>
      </trkpt>
      <trkpt lat="43.648" lon="1.32431">
        <ele>141</ele>
        <time>2020-10-03T07:41:13.000Z</time>
      </trkpt>
      <trkpt lat="43.64799" lon="1.32434">
        <ele>141</ele>
        <time>2020-10-03T07:41:14.000Z</time>
      </trkpt>
      <trkpt lat="43.64799" lon="1.32438">
        <ele>141</ele>
        <time>2020-10-03T07:41:15.000Z</time>
      </trkpt>
      <trkpt lat="43.64799" lon="1.32441">
        <ele>141.92631266926</ele>
        <time>2020-10-03T07:41:16.000Z</time>
      </trkpt>
      <trkpt lat="43.64798" lon="1.32444">
        <ele>143</ele>
        <time>2020-10-03T07:41:17.000Z</time>
      </trkpt>
      <trkpt lat="43.64798" lon="1.32447">
        <ele>143</ele>
        <time>2020-10-03T07:41:18.000Z</time>
      </trkpt>
      <trkpt lat="43.64797" lon="1.32451">
        <ele>143</ele>
        <time>2020-10-03T07:41:19.000Z</time>
      </trkpt>
      <trkpt lat="43.64796" lon="1.32454">
        <ele>143</ele>
        <time>2020-10-03T07:41:20.000Z</time>
      </trkpt>
      <trkpt lat="43.64796" lon="1.32458">
        <ele>143.47170130294</ele>
        <time>2020-10-03T07:41:21.000Z</time>
      </trkpt>
      <trkpt lat="43.64795" lon="1.32461">
        <ele>144</ele>
        <time>2020-10-03T07:41:22.000Z</time>
      </trkpt>
      <trkpt lat="43.64795" lon="1.32464">
        <ele>144</ele>
        <time>2020-10-03T07:41:23.000Z</time>
      </trkpt>
      <trkpt lat="43.64795" lon="1.32467">
        <ele>144</ele>
        <time>2020-10-03T07:41:24.000Z</time>
      </trkpt>
      <trkpt lat="43.64794" lon="1.32471">
        <ele>144</ele>
        <time>2020-10-03T07:41:25.000Z</time>
      </trkpt>
      <trkpt lat="43.64794" lon="1.32474">
        <ele>144</ele>
        <time>2020-10-03T07:41:26.000Z</time>
      </trkpt>
      <trkpt lat="43.64794" lon="1.32477">
        <ele>144</ele>
        <time>2020-10-03T07:41:27.000Z</time>
      </trkpt>
      <trkpt lat="43.64794" lon="1.32481">
        <ele>144</ele>
        <time>2020-10-03T07:41:28.000Z</time>
      </trkpt>
      <trkpt lat="43.64794" lon="1.32484">
        <ele>144</ele>
        <time>2020-10-03T07:41:29.000Z</time>
      </trkpt>
      <trkpt lat="43.64794" lon="1.32488">
        <ele>144</ele>
        <time>2020-10-03T07:41:30.000Z</time>
      </trkpt>
      <trkpt lat="43.64793" lon="1.32492">
        <ele>144.37878905417</ele>
        <time>2020-10-03T07:41:31.000Z</time>
      </trkpt>
      <trkpt lat="43.64793" lon="1.32495">
        <ele>145</ele>
        <time>2020-10-03T07:41:32.000Z</time>
      </trkpt>
      <trkpt lat="43.64792" lon="1.32498">
        <ele>145</ele>
        <time>2020-10-03T07:41:33.000Z</time>
      </trkpt>
      <trkpt lat="43.64791" lon="1.32502">
        <ele>145</ele>
        <time>2020-10-03T07:41:34.000Z</time>
      </trkpt>
      <trkpt lat="43.6479" lon="1.32506">
        <ele>145</ele>
        <time>2020-10-03T07:41:35.000Z</time>
      </trkpt>
      <trkpt lat="43.6479" lon="1.3251">
        <ele>144.54944931287</ele>
        <time>2020-10-03T07:41:36.000Z</time>
      </trkpt>
      <trkpt lat="43.64788" lon="1.32513">
        <ele>144</ele>
        <time>2020-10-03T07:41:37.000Z</time>
      </trkpt>
      <trkpt lat="43.64786" lon="1.32514">
        <ele>144</ele>
        <time>2020-10-03T07:41:38.000Z</time>
      </trkpt>
      <trkpt lat="43.64784" lon="1.32515">
        <ele>143.583328</ele>
        <time>2020-10-03T07:41:39.000Z</time>
      </trkpt>
      <trkpt lat="43.64782" lon="1.32515">
        <ele>143</ele>
        <time>2020-10-03T07:41:40.000Z</time>
      </trkpt>
      <trkpt lat="43.64778" lon="1.32514">
        <ele>142.63636152065</ele>
        <time>2020-10-03T07:41:41.000Z</time>
      </trkpt>
      <trkpt lat="43.64775" lon="1.32513">
        <ele>142</ele>
        <time>2020-10-03T07:41:42.000Z</time>
      </trkpt>
      <trkpt lat="43.64772" lon="1.32513">
        <ele>141.67857371429</ele>
        <time>2020-10-03T07:41:43.000Z</time>
      </trkpt>
      <trkpt lat="43.64768" lon="1.32513">
        <ele>141</ele>
        <time>2020-10-03T07:41:44.000Z</time>
      </trkpt>
      <trkpt lat="43.64765" lon="1.32513">
        <ele>141</ele>
        <time>2020-10-03T07:41:45.000Z</time>
      </trkpt>
      <trkpt lat="43.64762" lon="1.32512">
        <ele>141</ele>
        <time>2020-10-03T07:41:46.000Z</time>
      </trkpt>
      <trkpt lat="43.64759" lon="1.32512">
        <ele>141</ele>
        <time>2020-10-03T07:41:47.000Z</time>
      </trkpt>
      <trkpt lat="43.64756" lon="1.32511">
        <ele>141</ele>
        <time>2020-10-03T07:41:48.000Z</time>
      </trkpt>
      <trkpt lat="43.64753" lon="1.3251">
        <ele>140.55555871603</ele>
        <time>2020-10-03T07:41:49.000Z</time>
      </trkpt>
      <trkpt lat="43.6475" lon="1.32509">
        <ele>140</ele>
        <time>2020-10-03T07:41:50.000Z</time>
      </trkpt>
      <trkpt lat="43.64747" lon="1.32509">
        <ele>140</ele>
        <time>2020-10-03T07:41:51.000Z</time>
      </trkpt>
      <trkpt lat="43.64744" lon="1.32509">
        <ele>140</ele>
        <time>2020-10-03T07:41:52.000Z</time>
      </trkpt>
      <trkpt lat="43.64742" lon="1.32508">
        <ele>140</ele>
        <time>2020-10-03T07:41:53.000Z</time>
      </trkpt>
      <trkpt lat="43.64739" lon="1.32507">
        <ele>140</ele>
        <time>2020-10-03T07:41:54.000Z</time>
      </trkpt>
      <trkpt lat="43.64737" lon="1.32506">
        <ele>140</ele>
        <time>2020-10-03T07:41:55.000Z</time>
      </trkpt>
      <trkpt lat="43.64734" lon="1.32505">
        <ele>140</ele>
        <time>2020-10-03T07:41:56.000Z</time>
      </trkpt>
      <trkpt lat="43.64731" lon="1.32503">
        <ele>140</ele>
        <time>2020-10-03T07:41:57.000Z</time>
      </trkpt>
      <trkpt lat="43.64729" lon="1.325">
        <ele>140</ele>
        <time>2020-10-03T07:41:58.000Z</time>
      </trkpt>
      <trkpt lat="43.64727" lon="1.32496">
        <ele>140</ele>
        <time>2020-10-03T07:41:59.000Z</time>
      </trkpt>
      <trkpt lat="43.64725" lon="1.32492">
        <ele>140</ele>
        <time>2020-10-03T07:42:00.000Z</time>
      </trkpt>
      <trkpt lat="43.64723" lon="1.32488">
        <ele>140</ele>
        <time>2020-10-03T07:42:01.000Z</time>
      </trkpt>
      <trkpt lat="43.64721" lon="1.32484">
        <ele>140</ele>
        <time>2020-10-03T07:42:02.000Z</time>
      </trkpt>
      <trkpt lat="43.64718" lon="1.32482">
        <ele>139.5</ele>
        <time>2020-10-03T07:42:03.000Z</time>
      </trkpt>
      <trkpt lat="43.64716" lon="1.32479">
        <ele>139.45454228097</ele>
        <time>2020-10-03T07:42:04.000Z</time>
      </trkpt>
      <trkpt lat="43.64713" lon="1.32477">
        <ele>140</ele>
        <time>2020-10-03T07:42:05.000Z</time>
      </trkpt>
      <trkpt lat="43.64711" lon="1.32475">
        <ele>140</ele>
        <time>2020-10-03T07:42:06.000Z</time>
      </trkpt>
      <trkpt lat="43.64708" lon="1.32473">
        <ele>140</ele>
        <time>2020-10-03T07:42:07.000Z</time>
      </trkpt>
      <trkpt lat="43.64706" lon="1.32472">
        <ele>140</ele>
        <time>2020-10-03T07:42:08.000Z</time>
      </trkpt>
      <trkpt lat="43.64703" lon="1.3247">
        <ele>140</ele>
        <time>2020-10-03T07:42:09.000Z</time>
      </trkpt>
      <trkpt lat="43.647" lon="1.32468">
        <ele>140</ele>
        <time>2020-10-03T07:42:10.000Z</time>
      </trkpt>
      <trkpt lat="43.64698" lon="1.32466">
        <ele>140</ele>
        <time>2020-10-03T07:42:11.000Z</time>
      </trkpt>
      <trkpt lat="43.64695" lon="1.32465">
        <ele>140</ele>
        <time>2020-10-03T07:42:12.000Z</time>
      </trkpt>
      <trkpt lat="43.64693" lon="1.32463">
        <ele>140</ele>
        <time>2020-10-03T07:42:13.000Z</time>
      </trkpt>
      <trkpt lat="43.6469" lon="1.32461">
        <ele>140</ele>
        <time>2020-10-03T07:42:14.000Z</time>
      </trkpt>
      <trkpt lat="43.64688" lon="1.3246">
        <ele>140</ele>
        <time>2020-10-03T07:42:15.000Z</time>
      </trkpt>
      <trkpt lat="43.64685" lon="1.32458">
        <ele>140</ele>
        <time>2020-10-03T07:42:16.000Z</time>
      </trkpt>
      <trkpt lat="43.64683" lon="1.32457">
        <ele>140</ele>
        <time>2020-10-03T07:42:17.000Z</time>
      </trkpt>
      <trkpt lat="43.6468" lon="1.32455">
        <ele>140</ele>
        <time>2020-10-03T07:42:18.000Z</time>
      </trkpt>
      <trkpt lat="43.64678" lon="1.32453">
        <ele>140</ele>
        <time>2020-10-03T07:42:19.000Z</time>
      </trkpt>
      <trkpt lat="43.64675" lon="1.32451">
        <ele>140.45454228097</ele>
        <time>2020-10-03T07:42:20.000Z</time>
      </trkpt>
      <trkpt lat="43.64673" lon="1.32449">
        <ele>141</ele>
        <time>2020-10-03T07:42:21.000Z</time>
      </trkpt>
      <trkpt lat="43.6467" lon="1.32448">
        <ele>141</ele>
        <time>2020-10-03T07:42:22.000Z</time>
      </trkpt>
      <trkpt lat="43.64667" lon="1.32446">
        <ele>141</ele>
        <time>2020-10-03T07:42:23.000Z</time>
      </trkpt>
      <trkpt lat="43.64665" lon="1.32444">
        <ele>141</ele>
        <time>2020-10-03T07:42:24.000Z</time>
      </trkpt>
      <trkpt lat="43.64662" lon="1.32442">
        <ele>141</ele>
        <time>2020-10-03T07:42:25.000Z</time>
      </trkpt>
      <trkpt lat="43.64659" lon="1.32441">
        <ele>141</ele>
        <time>2020-10-03T07:42:26.000Z</time>
      </trkpt>
      <trkpt lat="43.64657" lon="1.32439">
        <ele>141</ele>
        <time>2020-10-03T07:42:27.000Z</time>
      </trkpt>
      <trkpt lat="43.64655" lon="1.32437">
        <ele>141</ele>
        <time>2020-10-03T07:42:28.000Z</time>
      </trkpt>
      <trkpt lat="43.64652" lon="1.32436">
        <ele>140.812496</ele>
        <time>2020-10-03T07:42:29.000Z</time>
      </trkpt>
      <trkpt lat="43.64649" lon="1.32434">
        <ele>140</ele>
        <time>2020-10-03T07:42:30.000Z</time>
      </trkpt>
      <trkpt lat="43.64646" lon="1.32433">
        <ele>140</ele>
        <time>2020-10-03T07:42:31.000Z</time>
      </trkpt>
      <trkpt lat="43.64644" lon="1.32431">
        <ele>140</ele>
        <time>2020-10-03T07:42:32.000Z</time>
      </trkpt>
      <trkpt lat="43.64642" lon="1.32429">
        <ele>140</ele>
        <time>2020-10-03T07:42:33.000Z</time>
      </trkpt>
      <trkpt lat="43.64639" lon="1.32427">
        <ele>140</ele>
        <time>2020-10-03T07:42:34.000Z</time>
      </trkpt>
      <trkpt lat="43.64637" lon="1.32425">
        <ele>140</ele>
        <time>2020-10-03T07:42:35.000Z</time>
      </trkpt>
      <trkpt lat="43.64635" lon="1.32424">
        <ele>140.40425937526</ele>
        <time>2020-10-03T07:42:36.000Z</time>
      </trkpt>
      <trkpt lat="43.64632" lon="1.32422">
        <ele>141</ele>
        <time>2020-10-03T07:42:37.000Z</time>
      </trkpt>
      <trkpt lat="43.64629" lon="1.3242">
        <ele>141</ele>
        <time>2020-10-03T07:42:38.000Z</time>
      </trkpt>
      <trkpt lat="43.64626" lon="1.32419">
        <ele>141</ele>
        <time>2020-10-03T07:42:39.000Z</time>
      </trkpt>
      <trkpt lat="43.64624" lon="1.32417">
        <ele>141</ele>
        <time>2020-10-03T07:42:40.000Z</time>
      </trkpt>
      <trkpt lat="43.64621" lon="1.32416">
        <ele>141</ele>
        <time>2020-10-03T07:42:41.000Z</time>
      </trkpt>
      <trkpt lat="43.64619" lon="1.32414">
        <ele>140.64035166513</ele>
        <time>2020-10-03T07:42:42.000Z</time>
      </trkpt>
      <trkpt lat="43.64617" lon="1.3241">
        <ele>140</ele>
        <time>2020-10-03T07:42:44.000Z</time>
      </trkpt>
      <trkpt lat="43.64615" lon="1.32408">
        <ele>140.87499428571</ele>
        <time>2020-10-03T07:42:45.000Z</time>
      </trkpt>
      <trkpt lat="43.64613" lon="1.32406">
        <ele>142</ele>
        <time>2020-10-03T07:42:46.000Z</time>
      </trkpt>
      <trkpt lat="43.64611" lon="1.32404">
        <ele>141.65625</ele>
        <time>2020-10-03T07:42:47.000Z</time>
      </trkpt>
      <trkpt lat="43.64609" lon="1.32402">
        <ele>141</ele>
        <time>2020-10-03T07:42:48.000Z</time>
      </trkpt>
      <trkpt lat="43.64606" lon="1.324">
        <ele>141</ele>
        <time>2020-10-03T07:42:49.000Z</time>
      </trkpt>
      <trkpt lat="43.64604" lon="1.32398">
        <ele>140.64601669668</ele>
        <time>2020-10-03T07:42:50.000Z</time>
      </trkpt>
      <trkpt lat="43.64602" lon="1.32395">
        <ele>140</ele>
        <time>2020-10-03T07:42:51.000Z</time>
      </trkpt>
      <trkpt lat="43.646" lon="1.32393">
        <ele>140</ele>
        <time>2020-10-03T07:42:52.000Z</time>
      </trkpt>
      <trkpt lat="43.64598" lon="1.3239">
        <ele>140</ele>
        <time>2020-10-03T07:42:53.000Z</time>
      </trkpt>
      <trkpt lat="43.64596" lon="1.32388">
        <ele>140</ele>
        <time>2020-10-03T07:42:54.000Z</time>
      </trkpt>
      <trkpt lat="43.64593" lon="1.32386">
        <ele>140</ele>
        <time>2020-10-03T07:42:55.000Z</time>
      </trkpt>
      <trkpt lat="43.64591" lon="1.32384">
        <ele>140</ele>
        <time>2020-10-03T07:42:56.000Z</time>
      </trkpt>
      <trkpt lat="43.64589" lon="1.32382">
        <ele>140</ele>
        <time>2020-10-03T07:42:57.000Z</time>
      </trkpt>
      <trkpt lat="43.64586" lon="1.3238">
        <ele>140</ele>
        <time>2020-10-03T07:42:58.000Z</time>
      </trkpt>
      <trkpt lat="43.64583" lon="1.32378">
        <ele>140</ele>
        <time>2020-10-03T07:42:59.000Z</time>
      </trkpt>
      <trkpt lat="43.6458" lon="1.32376">
        <ele>140</ele>
        <time>2020-10-03T07:43:00.000Z</time>
      </trkpt>
      <trkpt lat="43.64577" lon="1.32375">
        <ele>140</ele>
        <time>2020-10-03T07:43:01.000Z</time>
      </trkpt>
      <trkpt lat="43.64573" lon="1.32373">
        <ele>140</ele>
        <time>2020-10-03T07:43:02.000Z</time>
      </trkpt>
      <trkpt lat="43.6457" lon="1.32372">
        <ele>140</ele>
        <time>2020-10-03T07:43:03.000Z</time>
      </trkpt>
      <trkpt lat="43.64567" lon="1.3237">
        <ele>140</ele>
        <time>2020-10-03T07:43:04.000Z</time>
      </trkpt>
      <trkpt lat="43.64564" lon="1.32367">
        <ele>140</ele>
        <time>2020-10-03T07:43:05.000Z</time>
      </trkpt>
      <trkpt lat="43.6456" lon="1.32365">
        <ele>140</ele>
        <time>2020-10-03T07:43:06.000Z</time>
      </trkpt>
      <trkpt lat="43.64557" lon="1.32363">
        <ele>140.29870669592</ele>
        <time>2020-10-03T07:43:07.000Z</time>
      </trkpt>
      <trkpt lat="43.64554" lon="1.32362">
        <ele>141</ele>
        <time>2020-10-03T07:43:08.000Z</time>
      </trkpt>
      <trkpt lat="43.64551" lon="1.3236">
        <ele>141</ele>
        <time>2020-10-03T07:43:09.000Z</time>
      </trkpt>
      <trkpt lat="43.64548" lon="1.32359">
        <ele>141</ele>
        <time>2020-10-03T07:43:10.000Z</time>
      </trkpt>
      <trkpt lat="43.64546" lon="1.32357">
        <ele>141</ele>
        <time>2020-10-03T07:43:11.000Z</time>
      </trkpt>
      <trkpt lat="43.64543" lon="1.32356">
        <ele>141</ele>
        <time>2020-10-03T07:43:12.000Z</time>
      </trkpt>
      <trkpt lat="43.6454" lon="1.32354">
        <ele>141</ele>
        <time>2020-10-03T07:43:13.000Z</time>
      </trkpt>
      <trkpt lat="43.64538" lon="1.32352">
        <ele>141</ele>
        <time>2020-10-03T07:43:14.000Z</time>
      </trkpt>
      <trkpt lat="43.64536" lon="1.32351">
        <ele>141</ele>
        <time>2020-10-03T07:43:15.000Z</time>
      </trkpt>
      <trkpt lat="43.64533" lon="1.32349">
        <ele>141</ele>
        <time>2020-10-03T07:43:16.000Z</time>
      </trkpt>
      <trkpt lat="43.64531" lon="1.32348">
        <ele>141</ele>
        <time>2020-10-03T07:43:17.000Z</time>
      </trkpt>
      <trkpt lat="43.64528" lon="1.32346">
        <ele>141</ele>
        <time>2020-10-03T07:43:18.000Z</time>
      </trkpt>
      <trkpt lat="43.64525" lon="1.32345">
        <ele>141</ele>
        <time>2020-10-03T07:43:19.000Z</time>
      </trkpt>
      <trkpt lat="43.64522" lon="1.32344">
        <ele>141.34831945463</ele>
        <time>2020-10-03T07:43:20.000Z</time>
      </trkpt>
      <trkpt lat="43.6452" lon="1.32342">
        <ele>142</ele>
        <time>2020-10-03T07:43:21.000Z</time>
      </trkpt>
      <trkpt lat="43.64517" lon="1.3234">
        <ele>142</ele>
        <time>2020-10-03T07:43:22.000Z</time>
      </trkpt>
      <trkpt lat="43.64514" lon="1.32338">
        <ele>142</ele>
        <time>2020-10-03T07:43:23.000Z</time>
      </trkpt>
      <trkpt lat="43.6451" lon="1.32337">
        <ele>142</ele>
        <time>2020-10-03T07:43:24.000Z</time>
      </trkpt>
      <trkpt lat="43.64507" lon="1.32336">
        <ele>142</ele>
        <time>2020-10-03T07:43:25.000Z</time>
      </trkpt>
      <trkpt lat="43.64504" lon="1.32334">
        <ele>142</ele>
        <time>2020-10-03T07:43:26.000Z</time>
      </trkpt>
      <trkpt lat="43.64501" lon="1.32333">
        <ele>142</ele>
        <time>2020-10-03T07:43:27.000Z</time>
      </trkpt>
      <trkpt lat="43.64498" lon="1.32331">
        <ele>142</ele>
        <time>2020-10-03T07:43:28.000Z</time>
      </trkpt>
      <trkpt lat="43.64495" lon="1.32329">
        <ele>142.33707267262</ele>
        <time>2020-10-03T07:43:29.000Z</time>
      </trkpt>
      <trkpt lat="43.64492" lon="1.32327">
        <ele>143</ele>
        <time>2020-10-03T07:43:30.000Z</time>
      </trkpt>
      <trkpt lat="43.64489" lon="1.32326">
        <ele>143</ele>
        <time>2020-10-03T07:43:31.000Z</time>
      </trkpt>
      <trkpt lat="43.64486" lon="1.32324">
        <ele>143</ele>
        <time>2020-10-03T07:43:32.000Z</time>
      </trkpt>
      <trkpt lat="43.64484" lon="1.32322">
        <ele>143</ele>
        <time>2020-10-03T07:43:33.000Z</time>
      </trkpt>
      <trkpt lat="43.64481" lon="1.3232">
        <ele>142.6899968</ele>
        <time>2020-10-03T07:43:34.000Z</time>
      </trkpt>
      <trkpt lat="43.64478" lon="1.32319">
        <ele>142</ele>
        <time>2020-10-03T07:43:35.000Z</time>
      </trkpt>
      <trkpt lat="43.64476" lon="1.32317">
        <ele>142</ele>
        <time>2020-10-03T07:43:36.000Z</time>
      </trkpt>
      <trkpt lat="43.64473" lon="1.32316">
        <ele>142</ele>
        <time>2020-10-03T07:43:37.000Z</time>
      </trkpt>
      <trkpt lat="43.64471" lon="1.32314">
        <ele>142</ele>
        <time>2020-10-03T07:43:38.000Z</time>
      </trkpt>
      <trkpt lat="43.64468" lon="1.32312">
        <ele>142</ele>
        <time>2020-10-03T07:43:39.000Z</time>
      </trkpt>
      <trkpt lat="43.64465" lon="1.32311">
        <ele>142</ele>
        <time>2020-10-03T07:43:40.000Z</time>
      </trkpt>
      <trkpt lat="43.64462" lon="1.32309">
        <ele>142</ele>
        <time>2020-10-03T07:43:41.000Z</time>
      </trkpt>
      <trkpt lat="43.6446" lon="1.32307">
        <ele>142</ele>
        <time>2020-10-03T07:43:42.000Z</time>
      </trkpt>
      <trkpt lat="43.64457" lon="1.32305">
        <ele>142</ele>
        <time>2020-10-03T07:43:43.000Z</time>
      </trkpt>
      <trkpt lat="43.64454" lon="1.32303">
        <ele>142</ele>
        <time>2020-10-03T07:43:44.000Z</time>
      </trkpt>
      <trkpt lat="43.64452" lon="1.32301">
        <ele>142</ele>
        <time>2020-10-03T07:43:45.000Z</time>
      </trkpt>
      <trkpt lat="43.64449" lon="1.32299">
        <ele>142</ele>
        <time>2020-10-03T07:43:46.000Z</time>
      </trkpt>
      <trkpt lat="43.64447" lon="1.32296">
        <ele>142.43395884654</ele>
        <time>2020-10-03T07:43:47.000Z</time>
      </trkpt>
      <trkpt lat="43.64444" lon="1.32293">
        <ele>143</ele>
        <time>2020-10-03T07:43:48.000Z</time>
      </trkpt>
      <trkpt lat="43.64441" lon="1.32291">
        <ele>143</ele>
        <time>2020-10-03T07:43:49.000Z</time>
      </trkpt>
      <trkpt lat="43.64439" lon="1.32288">
        <ele>143</ele>
        <time>2020-10-03T07:43:50.000Z</time>
      </trkpt>
      <trkpt lat="43.64436" lon="1.32285">
        <ele>143</ele>
        <time>2020-10-03T07:43:51.000Z</time>
      </trkpt>
      <trkpt lat="43.64434" lon="1.32282">
        <ele>143</ele>
        <time>2020-10-03T07:43:52.000Z</time>
      </trkpt>
      <trkpt lat="43.64432" lon="1.32279">
        <ele>143</ele>
        <time>2020-10-03T07:43:53.000Z</time>
      </trkpt>
      <trkpt lat="43.6443" lon="1.32277">
        <ele>143</ele>
        <time>2020-10-03T07:43:54.000Z</time>
      </trkpt>
      <trkpt lat="43.64427" lon="1.32274">
        <ele>143</ele>
        <time>2020-10-03T07:43:55.000Z</time>
      </trkpt>
      <trkpt lat="43.64425" lon="1.32271">
        <ele>143</ele>
        <time>2020-10-03T07:43:56.000Z</time>
      </trkpt>
      <trkpt lat="43.64423" lon="1.32268">
        <ele>143</ele>
        <time>2020-10-03T07:43:57.000Z</time>
      </trkpt>
      <trkpt lat="43.64421" lon="1.32265">
        <ele>143</ele>
        <time>2020-10-03T07:43:58.000Z</time>
      </trkpt>
      <trkpt lat="43.64419" lon="1.32262">
        <ele>143</ele>
        <time>2020-10-03T07:43:59.000Z</time>
      </trkpt>
      <trkpt lat="43.64418" lon="1.32259">
        <ele>143</ele>
        <time>2020-10-03T07:44:00.000Z</time>
      </trkpt>
      <trkpt lat="43.64416" lon="1.32256">
        <ele>143</ele>
        <time>2020-10-03T07:44:01.000Z</time>
      </trkpt>
      <trkpt lat="43.64414" lon="1.32253">
        <ele>143.41025753233</ele>
        <time>2020-10-03T07:44:02.000Z</time>
      </trkpt>
      <trkpt lat="43.64412" lon="1.3225">
        <ele>144</ele>
        <time>2020-10-03T07:44:03.000Z</time>
      </trkpt>
      <trkpt lat="43.6441" lon="1.32247">
        <ele>144</ele>
        <time>2020-10-03T07:44:04.000Z</time>
      </trkpt>
      <trkpt lat="43.64408" lon="1.32244">
        <ele>144</ele>
        <time>2020-10-03T07:44:05.000Z</time>
      </trkpt>
      <trkpt lat="43.64407" lon="1.32241">
        <ele>144</ele>
        <time>2020-10-03T07:44:06.000Z</time>
      </trkpt>
      <trkpt lat="43.64405" lon="1.32238">
        <ele>143.65555444939</ele>
        <time>2020-10-03T07:44:07.000Z</time>
      </trkpt>
      <trkpt lat="43.64403" lon="1.32235">
        <ele>143</ele>
        <time>2020-10-03T07:44:08.000Z</time>
      </trkpt>
      <trkpt lat="43.64401" lon="1.32232">
        <ele>143</ele>
        <time>2020-10-03T07:44:09.000Z</time>
      </trkpt>
      <trkpt lat="43.64399" lon="1.32229">
        <ele>143.42991123765</ele>
        <time>2020-10-03T07:44:10.000Z</time>
      </trkpt>
      <trkpt lat="43.64398" lon="1.32226">
        <ele>144</ele>
        <time>2020-10-03T07:44:11.000Z</time>
      </trkpt>
      <trkpt lat="43.64396" lon="1.32223">
        <ele>144</ele>
        <time>2020-10-03T07:44:12.000Z</time>
      </trkpt>
      <trkpt lat="43.64394" lon="1.3222">
        <ele>144</ele>
        <time>2020-10-03T07:44:13.000Z</time>
      </trkpt>
      <trkpt lat="43.64393" lon="1.32217">
        <ele>144</ele>
        <time>2020-10-03T07:44:14.000Z</time>
      </trkpt>
      <trkpt lat="43.64391" lon="1.32214">
        <ele>144</ele>
        <time>2020-10-03T07:44:15.000Z</time>
      </trkpt>
      <trkpt lat="43.64389" lon="1.32211">
        <ele>144</ele>
        <time>2020-10-03T07:44:16.000Z</time>
      </trkpt>
      <trkpt lat="43.64387" lon="1.32208">
        <ele>144</ele>
        <time>2020-10-03T07:44:17.000Z</time>
      </trkpt>
      <trkpt lat="43.64385" lon="1.32205">
        <ele>144.74545306445</ele>
        <time>2020-10-03T07:44:18.000Z</time>
      </trkpt>
      <trkpt lat="43.64384" lon="1.32202">
        <ele>146</ele>
        <time>2020-10-03T07:44:19.000Z</time>
      </trkpt>
      <trkpt lat="43.64382" lon="1.32199">
        <ele>146</ele>
        <time>2020-10-03T07:44:20.000Z</time>
      </trkpt>
      <trkpt lat="43.6438" lon="1.32196">
        <ele>146</ele>
        <time>2020-10-03T07:44:21.000Z</time>
      </trkpt>
      <trkpt lat="43.64378" lon="1.32193">
        <ele>146</ele>
        <time>2020-10-03T07:44:22.000Z</time>
      </trkpt>
      <trkpt lat="43.64377" lon="1.3219">
        <ele>146</ele>
        <time>2020-10-03T07:44:23.000Z</time>
      </trkpt>
      <trkpt lat="43.64376" lon="1.32187">
        <ele>146</ele>
        <time>2020-10-03T07:44:24.000Z</time>
      </trkpt>
      <trkpt lat="43.64374" lon="1.32184">
        <ele>146</ele>
        <time>2020-10-03T07:44:25.000Z</time>
      </trkpt>
      <trkpt lat="43.64373" lon="1.32181">
        <ele>146</ele>
        <time>2020-10-03T07:44:26.000Z</time>
      </trkpt>
      <trkpt lat="43.64371" lon="1.32177">
        <ele>146.32183789669</ele>
        <time>2020-10-03T07:44:27.000Z</time>
      </trkpt>
      <trkpt lat="43.6437" lon="1.32175">
        <ele>147</ele>
        <time>2020-10-03T07:44:28.000Z</time>
      </trkpt>
      <trkpt lat="43.64368" lon="1.32171">
        <ele>147</ele>
        <time>2020-10-03T07:44:29.000Z</time>
      </trkpt>
      <trkpt lat="43.64366" lon="1.32168">
        <ele>147</ele>
        <time>2020-10-03T07:44:30.000Z</time>
      </trkpt>
      <trkpt lat="43.64365" lon="1.32165">
        <ele>147</ele>
        <time>2020-10-03T07:44:31.000Z</time>
      </trkpt>
      <trkpt lat="43.64363" lon="1.32162">
        <ele>146.62962962963</ele>
        <time>2020-10-03T07:44:32.000Z</time>
      </trkpt>
      <trkpt lat="43.64361" lon="1.32158">
        <ele>146</ele>
        <time>2020-10-03T07:44:33.000Z</time>
      </trkpt>
      <trkpt lat="43.64359" lon="1.32156">
        <ele>146</ele>
        <time>2020-10-03T07:44:34.000Z</time>
      </trkpt>
      <trkpt lat="43.64358" lon="1.32153">
        <ele>146.33962469207</ele>
        <time>2020-10-03T07:44:35.000Z</time>
      </trkpt>
      <trkpt lat="43.64356" lon="1.3215">
        <ele>147</ele>
        <time>2020-10-03T07:44:36.000Z</time>
      </trkpt>
      <trkpt lat="43.64354" lon="1.32147">
        <ele>147.35593569662</ele>
        <time>2020-10-03T07:44:37.000Z</time>
      </trkpt>
      <trkpt lat="43.64352" lon="1.32143">
        <ele>148</ele>
        <time>2020-10-03T07:44:38.000Z</time>
      </trkpt>
      <trkpt lat="43.64351" lon="1.3214">
        <ele>148</ele>
        <time>2020-10-03T07:44:39.000Z</time>
      </trkpt>
      <trkpt lat="43.64349" lon="1.32137">
        <ele>148</ele>
        <time>2020-10-03T07:44:40.000Z</time>
      </trkpt>
      <trkpt lat="43.64348" lon="1.32134">
        <ele>148</ele>
        <time>2020-10-03T07:44:41.000Z</time>
      </trkpt>
      <trkpt lat="43.64346" lon="1.32131">
        <ele>148</ele>
        <time>2020-10-03T07:44:42.000Z</time>
      </trkpt>
      <trkpt lat="43.64345" lon="1.32128">
        <ele>148</ele>
        <time>2020-10-03T07:44:43.000Z</time>
      </trkpt>
      <trkpt lat="43.64343" lon="1.32125">
        <ele>148</ele>
        <time>2020-10-03T07:44:44.000Z</time>
      </trkpt>
      <trkpt lat="43.64341" lon="1.32122">
        <ele>148</ele>
        <time>2020-10-03T07:44:45.000Z</time>
      </trkpt>
      <trkpt lat="43.6434" lon="1.32118">
        <ele>148</ele>
        <time>2020-10-03T07:44:46.000Z</time>
      </trkpt>
      <trkpt lat="43.64338" lon="1.32115">
        <ele>148</ele>
        <time>2020-10-03T07:44:47.000Z</time>
      </trkpt>
      <trkpt lat="43.64336" lon="1.32111">
        <ele>148</ele>
        <time>2020-10-03T07:44:48.000Z</time>
      </trkpt>
      <trkpt lat="43.64335" lon="1.32108">
        <ele>148</ele>
        <time>2020-10-03T07:44:49.000Z</time>
      </trkpt>
      <trkpt lat="43.64333" lon="1.32105">
        <ele>148</ele>
        <time>2020-10-03T07:44:50.000Z</time>
      </trkpt>
      <trkpt lat="43.64332" lon="1.32102">
        <ele>148</ele>
        <time>2020-10-03T07:44:51.000Z</time>
      </trkpt>
      <trkpt lat="43.6433" lon="1.32099">
        <ele>148</ele>
        <time>2020-10-03T07:44:52.000Z</time>
      </trkpt>
      <trkpt lat="43.64329" lon="1.32095">
        <ele>148</ele>
        <time>2020-10-03T07:44:53.000Z</time>
      </trkpt>
      <trkpt lat="43.64327" lon="1.32091">
        <ele>148</ele>
        <time>2020-10-03T07:44:54.000Z</time>
      </trkpt>
      <trkpt lat="43.64326" lon="1.32088">
        <ele>148</ele>
        <time>2020-10-03T07:44:55.000Z</time>
      </trkpt>
      <trkpt lat="43.64324" lon="1.32085">
        <ele>148</ele>
        <time>2020-10-03T07:44:56.000Z</time>
      </trkpt>
      <trkpt lat="43.64323" lon="1.32081">
        <ele>148</ele>
        <time>2020-10-03T07:44:57.000Z</time>
      </trkpt>
      <trkpt lat="43.64321" lon="1.32078">
        <ele>148</ele>
        <time>2020-10-03T07:44:58.000Z</time>
      </trkpt>
      <trkpt lat="43.6432" lon="1.32075">
        <ele>148</ele>
        <time>2020-10-03T07:44:59.000Z</time>
      </trkpt>
      <trkpt lat="43.64319" lon="1.32071">
        <ele>148</ele>
        <time>2020-10-03T07:45:00.000Z</time>
      </trkpt>
      <trkpt lat="43.64316" lon="1.32065">
        <ele>148</ele>
        <time>2020-10-03T07:45:02.000Z</time>
      </trkpt>
      <trkpt lat="43.64315" lon="1.32061">
        <ele>148</ele>
        <time>2020-10-03T07:45:03.000Z</time>
      </trkpt>
      <trkpt lat="43.64314" lon="1.32058">
        <ele>148</ele>
        <time>2020-10-03T07:45:04.000Z</time>
      </trkpt>
      <trkpt lat="43.64313" lon="1.32054">
        <ele>148</ele>
        <time>2020-10-03T07:45:05.000Z</time>
      </trkpt>
      <trkpt lat="43.64312" lon="1.3205">
        <ele>148</ele>
        <time>2020-10-03T07:45:06.000Z</time>
      </trkpt>
      <trkpt lat="43.64311" lon="1.32047">
        <ele>148</ele>
        <time>2020-10-03T07:45:07.000Z</time>
      </trkpt>
      <trkpt lat="43.64309" lon="1.32043">
        <ele>148</ele>
        <time>2020-10-03T07:45:08.000Z</time>
      </trkpt>
      <trkpt lat="43.64307" lon="1.32037">
        <ele>148</ele>
        <time>2020-10-03T07:45:10.000Z</time>
      </trkpt>
      <trkpt lat="43.64306" lon="1.32033">
        <ele>148</ele>
        <time>2020-10-03T07:45:11.000Z</time>
      </trkpt>
      <trkpt lat="43.64305" lon="1.32029">
        <ele>148.44642285714</ele>
        <time>2020-10-03T07:45:12.000Z</time>
      </trkpt>
      <trkpt lat="43.64303" lon="1.32026">
        <ele>149</ele>
        <time>2020-10-03T07:45:13.000Z</time>
      </trkpt>
      <trkpt lat="43.64302" lon="1.32022">
        <ele>149</ele>
        <time>2020-10-03T07:45:14.000Z</time>
      </trkpt>
      <trkpt lat="43.64301" lon="1.32018">
        <ele>149</ele>
        <time>2020-10-03T07:45:15.000Z</time>
      </trkpt>
      <trkpt lat="43.643" lon="1.32015">
        <ele>148.683328</ele>
        <time>2020-10-03T07:45:16.000Z</time>
      </trkpt>
      <trkpt lat="43.64299" lon="1.32012">
        <ele>148</ele>
        <time>2020-10-03T07:45:17.000Z</time>
      </trkpt>
      <trkpt lat="43.64298" lon="1.32008">
        <ele>148</ele>
        <time>2020-10-03T07:45:18.000Z</time>
      </trkpt>
      <trkpt lat="43.64297" lon="1.32005">
        <ele>148</ele>
        <time>2020-10-03T07:45:19.000Z</time>
      </trkpt>
      <trkpt lat="43.64297" lon="1.32001">
        <ele>148</ele>
        <time>2020-10-03T07:45:20.000Z</time>
      </trkpt>
      <trkpt lat="43.64295" lon="1.31998">
        <ele>148</ele>
        <time>2020-10-03T07:45:21.000Z</time>
      </trkpt>
      <trkpt lat="43.64294" lon="1.31995">
        <ele>148</ele>
        <time>2020-10-03T07:45:22.000Z</time>
      </trkpt>
      <trkpt lat="43.64293" lon="1.31991">
        <ele>148</ele>
        <time>2020-10-03T07:45:23.000Z</time>
      </trkpt>
      <trkpt lat="43.64291" lon="1.31988">
        <ele>148</ele>
        <time>2020-10-03T07:45:24.000Z</time>
      </trkpt>
      <trkpt lat="43.6429" lon="1.31985">
        <ele>148</ele>
        <time>2020-10-03T07:45:25.000Z</time>
      </trkpt>
      <trkpt lat="43.64288" lon="1.31981">
        <ele>148</ele>
        <time>2020-10-03T07:45:26.000Z</time>
      </trkpt>
      <trkpt lat="43.64287" lon="1.31977">
        <ele>148</ele>
        <time>2020-10-03T07:45:27.000Z</time>
      </trkpt>
      <trkpt lat="43.64285" lon="1.31973">
        <ele>148</ele>
        <time>2020-10-03T07:45:28.000Z</time>
      </trkpt>
      <trkpt lat="43.64284" lon="1.3197">
        <ele>148</ele>
        <time>2020-10-03T07:45:29.000Z</time>
      </trkpt>
      <trkpt lat="43.64283" lon="1.31966">
        <ele>148</ele>
        <time>2020-10-03T07:45:30.000Z</time>
      </trkpt>
      <trkpt lat="43.64282" lon="1.31962">
        <ele>148</ele>
        <time>2020-10-03T07:45:31.000Z</time>
      </trkpt>
      <trkpt lat="43.64281" lon="1.31958">
        <ele>148</ele>
        <time>2020-10-03T07:45:32.000Z</time>
      </trkpt>
      <trkpt lat="43.6428" lon="1.31954">
        <ele>148</ele>
        <time>2020-10-03T07:45:33.000Z</time>
      </trkpt>
      <trkpt lat="43.64279" lon="1.31951">
        <ele>148</ele>
        <time>2020-10-03T07:45:34.000Z</time>
      </trkpt>
      <trkpt lat="43.64279" lon="1.31947">
        <ele>148</ele>
        <time>2020-10-03T07:45:35.000Z</time>
      </trkpt>
      <trkpt lat="43.64278" lon="1.31944">
        <ele>148</ele>
        <time>2020-10-03T07:45:36.000Z</time>
      </trkpt>
      <trkpt lat="43.64277" lon="1.31941">
        <ele>148</ele>
        <time>2020-10-03T07:45:37.000Z</time>
      </trkpt>
      <trkpt lat="43.64276" lon="1.31938">
        <ele>148</ele>
        <time>2020-10-03T07:45:38.000Z</time>
      </trkpt>
      <trkpt lat="43.64274" lon="1.31935">
        <ele>148</ele>
        <time>2020-10-03T07:45:40.000Z</time>
      </trkpt>
      <trkpt lat="43.64271" lon="1.31933">
        <ele>148</ele>
        <time>2020-10-03T07:45:42.000Z</time>
      </trkpt>
      <trkpt lat="43.64268" lon="1.31931">
        <ele>147</ele>
        <time>2020-10-03T07:45:44.000Z</time>
      </trkpt>
      <trkpt lat="43.64266" lon="1.31932">
        <ele>146</ele>
        <time>2020-10-03T07:45:46.000Z</time>
      </trkpt>
      <trkpt lat="43.64263" lon="1.31929">
        <ele>145</ele>
        <time>2020-10-03T07:46:20.000Z</time>
      </trkpt>
      <trkpt lat="43.64262" lon="1.31926">
        <ele>145</ele>
        <time>2020-10-03T07:46:21.000Z</time>
      </trkpt>
      <trkpt lat="43.64257" lon="1.31922">
        <ele>145</ele>
        <time>2020-10-03T07:46:23.000Z</time>
      </trkpt>
      <trkpt lat="43.64254" lon="1.3192">
        <ele>145</ele>
        <time>2020-10-03T07:46:24.000Z</time>
      </trkpt>
      <trkpt lat="43.64252" lon="1.31918">
        <ele>144.63528897991</ele>
        <time>2020-10-03T07:46:25.000Z</time>
      </trkpt>
      <trkpt lat="43.64249" lon="1.31915">
        <ele>144</ele>
        <time>2020-10-03T07:46:26.000Z</time>
      </trkpt>
      <trkpt lat="43.64246" lon="1.31914">
        <ele>144</ele>
        <time>2020-10-03T07:46:27.000Z</time>
      </trkpt>
      <trkpt lat="43.64243" lon="1.31912">
        <ele>144</ele>
        <time>2020-10-03T07:46:28.000Z</time>
      </trkpt>
      <trkpt lat="43.64241" lon="1.31909">
        <ele>144</ele>
        <time>2020-10-03T07:46:29.000Z</time>
      </trkpt>
      <trkpt lat="43.64238" lon="1.31907">
        <ele>144</ele>
        <time>2020-10-03T07:46:30.000Z</time>
      </trkpt>
      <trkpt lat="43.64236" lon="1.31905">
        <ele>144</ele>
        <time>2020-10-03T07:46:31.000Z</time>
      </trkpt>
      <trkpt lat="43.64234" lon="1.31903">
        <ele>144</ele>
        <time>2020-10-03T07:46:32.000Z</time>
      </trkpt>
      <trkpt lat="43.64231" lon="1.31901">
        <ele>143.662496</ele>
        <time>2020-10-03T07:46:33.000Z</time>
      </trkpt>
      <trkpt lat="43.64228" lon="1.31899">
        <ele>143</ele>
        <time>2020-10-03T07:46:34.000Z</time>
      </trkpt>
      <trkpt lat="43.64226" lon="1.31897">
        <ele>143</ele>
        <time>2020-10-03T07:46:35.000Z</time>
      </trkpt>
      <trkpt lat="43.64222" lon="1.31896">
        <ele>143</ele>
        <time>2020-10-03T07:46:36.000Z</time>
      </trkpt>
      <trkpt lat="43.64219" lon="1.31894">
        <ele>143</ele>
        <time>2020-10-03T07:46:37.000Z</time>
      </trkpt>
      <trkpt lat="43.64216" lon="1.31892">
        <ele>143</ele>
        <time>2020-10-03T07:46:38.000Z</time>
      </trkpt>
      <trkpt lat="43.64213" lon="1.31891">
        <ele>143</ele>
        <time>2020-10-03T07:46:39.000Z</time>
      </trkpt>
      <trkpt lat="43.6421" lon="1.31889">
        <ele>143</ele>
        <time>2020-10-03T07:46:40.000Z</time>
      </trkpt>
      <trkpt lat="43.64208" lon="1.31887">
        <ele>143</ele>
        <time>2020-10-03T07:46:41.000Z</time>
      </trkpt>
      <trkpt lat="43.64205" lon="1.31884">
        <ele>142.62727346777</ele>
        <time>2020-10-03T07:46:42.000Z</time>
      </trkpt>
      <trkpt lat="43.64203" lon="1.31882">
        <ele>142</ele>
        <time>2020-10-03T07:46:43.000Z</time>
      </trkpt>
      <trkpt lat="43.64201" lon="1.3188">
        <ele>142</ele>
        <time>2020-10-03T07:46:44.000Z</time>
      </trkpt>
      <trkpt lat="43.64198" lon="1.31878">
        <ele>142</ele>
        <time>2020-10-03T07:46:45.000Z</time>
      </trkpt>
      <trkpt lat="43.64196" lon="1.31876">
        <ele>142</ele>
        <time>2020-10-03T07:46:46.000Z</time>
      </trkpt>
      <trkpt lat="43.64193" lon="1.31874">
        <ele>142</ele>
        <time>2020-10-03T07:46:47.000Z</time>
      </trkpt>
      <trkpt lat="43.64191" lon="1.31873">
        <ele>142</ele>
        <time>2020-10-03T07:46:48.000Z</time>
      </trkpt>
      <trkpt lat="43.64188" lon="1.31872">
        <ele>142</ele>
        <time>2020-10-03T07:46:49.000Z</time>
      </trkpt>
      <trkpt lat="43.64185" lon="1.31871">
        <ele>142</ele>
        <time>2020-10-03T07:46:50.000Z</time>
      </trkpt>
      <trkpt lat="43.64183" lon="1.3187">
        <ele>142.36905142857</ele>
        <time>2020-10-03T07:46:51.000Z</time>
      </trkpt>
      <trkpt lat="43.6418" lon="1.31869">
        <ele>143</ele>
        <time>2020-10-03T07:46:52.000Z</time>
      </trkpt>
      <trkpt lat="43.64176" lon="1.31868">
        <ele>143</ele>
        <time>2020-10-03T07:46:53.000Z</time>
      </trkpt>
      <trkpt lat="43.64174" lon="1.31867">
        <ele>143</ele>
        <time>2020-10-03T07:46:54.000Z</time>
      </trkpt>
      <trkpt lat="43.64171" lon="1.31866">
        <ele>143</ele>
        <time>2020-10-03T07:46:55.000Z</time>
      </trkpt>
      <trkpt lat="43.64168" lon="1.31865">
        <ele>143</ele>
        <time>2020-10-03T07:46:56.000Z</time>
      </trkpt>
      <trkpt lat="43.64166" lon="1.31864">
        <ele>143</ele>
        <time>2020-10-03T07:46:57.000Z</time>
      </trkpt>
      <trkpt lat="43.64163" lon="1.31863">
        <ele>142.62727346777</ele>
        <time>2020-10-03T07:46:58.000Z</time>
      </trkpt>
      <trkpt lat="43.6416" lon="1.31862">
        <ele>142</ele>
        <time>2020-10-03T07:46:59.000Z</time>
      </trkpt>
      <trkpt lat="43.64157" lon="1.31861">
        <ele>142</ele>
        <time>2020-10-03T07:47:00.000Z</time>
      </trkpt>
      <trkpt lat="43.64155" lon="1.3186">
        <ele>142</ele>
        <time>2020-10-03T07:47:01.000Z</time>
      </trkpt>
      <trkpt lat="43.64152" lon="1.31859">
        <ele>142</ele>
        <time>2020-10-03T07:47:02.000Z</time>
      </trkpt>
      <trkpt lat="43.6415" lon="1.31858">
        <ele>142</ele>
        <time>2020-10-03T07:47:03.000Z</time>
      </trkpt>
      <trkpt lat="43.64147" lon="1.31856">
        <ele>142</ele>
        <time>2020-10-03T07:47:04.000Z</time>
      </trkpt>
      <trkpt lat="43.64144" lon="1.31855">
        <ele>142</ele>
        <time>2020-10-03T07:47:05.000Z</time>
      </trkpt>
      <trkpt lat="43.64141" lon="1.31854">
        <ele>141.63888592593</ele>
        <time>2020-10-03T07:47:06.000Z</time>
      </trkpt>
      <trkpt lat="43.64139" lon="1.31852">
        <ele>141</ele>
        <time>2020-10-03T07:47:07.000Z</time>
      </trkpt>
      <trkpt lat="43.64136" lon="1.31851">
        <ele>141.43119179868</ele>
        <time>2020-10-03T07:47:08.000Z</time>
      </trkpt>
      <trkpt lat="43.64134" lon="1.3185">
        <ele>142</ele>
        <time>2020-10-03T07:47:09.000Z</time>
      </trkpt>
      <trkpt lat="43.64132" lon="1.31848">
        <ele>142</ele>
        <time>2020-10-03T07:47:10.000Z</time>
      </trkpt>
      <trkpt lat="43.64129" lon="1.31846">
        <ele>142</ele>
        <time>2020-10-03T07:47:11.000Z</time>
      </trkpt>
      <trkpt lat="43.64127" lon="1.31845">
        <ele>141.55789700612</ele>
        <time>2020-10-03T07:47:12.000Z</time>
      </trkpt>
      <trkpt lat="43.64124" lon="1.31844">
        <ele>141</ele>
        <time>2020-10-03T07:47:13.000Z</time>
      </trkpt>
      <trkpt lat="43.64122" lon="1.31842">
        <ele>141</ele>
        <time>2020-10-03T07:47:14.000Z</time>
      </trkpt>
      <trkpt lat="43.64119" lon="1.31841">
        <ele>142</ele>
        <time>2020-10-03T07:47:15.000Z</time>
      </trkpt>
      <trkpt lat="43.64117" lon="1.3184">
        <ele>142</ele>
        <time>2020-10-03T07:47:16.000Z</time>
      </trkpt>
      <trkpt lat="43.64114" lon="1.31838">
        <ele>141.54347765596</ele>
        <time>2020-10-03T07:47:17.000Z</time>
      </trkpt>
      <trkpt lat="43.64112" lon="1.31836">
        <ele>141</ele>
        <time>2020-10-03T07:47:18.000Z</time>
      </trkpt>
      <trkpt lat="43.64108" lon="1.31834">
        <ele>141</ele>
        <time>2020-10-03T07:47:19.000Z</time>
      </trkpt>
      <trkpt lat="43.64105" lon="1.31833">
        <ele>141</ele>
        <time>2020-10-03T07:47:20.000Z</time>
      </trkpt>
      <trkpt lat="43.64103" lon="1.31831">
        <ele>141</ele>
        <time>2020-10-03T07:47:21.000Z</time>
      </trkpt>
      <trkpt lat="43.641" lon="1.31828">
        <ele>141</ele>
        <time>2020-10-03T07:47:22.000Z</time>
      </trkpt>
      <trkpt lat="43.64097" lon="1.31827">
        <ele>141</ele>
        <time>2020-10-03T07:47:23.000Z</time>
      </trkpt>
      <trkpt lat="43.64095" lon="1.31825">
        <ele>141</ele>
        <time>2020-10-03T07:47:24.000Z</time>
      </trkpt>
      <trkpt lat="43.64093" lon="1.31824">
        <ele>141</ele>
        <time>2020-10-03T07:47:25.000Z</time>
      </trkpt>
      <trkpt lat="43.6409" lon="1.31823">
        <ele>141</ele>
        <time>2020-10-03T07:47:26.000Z</time>
      </trkpt>
      <trkpt lat="43.64088" lon="1.31821">
        <ele>141</ele>
        <time>2020-10-03T07:47:27.000Z</time>
      </trkpt>
      <trkpt lat="43.64085" lon="1.31819">
        <ele>141</ele>
        <time>2020-10-03T07:47:28.000Z</time>
      </trkpt>
      <trkpt lat="43.64083" lon="1.31818">
        <ele>141</ele>
        <time>2020-10-03T07:47:29.000Z</time>
      </trkpt>
      <trkpt lat="43.6408" lon="1.31816">
        <ele>141</ele>
        <time>2020-10-03T07:47:30.000Z</time>
      </trkpt>
      <trkpt lat="43.64077" lon="1.31814">
        <ele>141</ele>
        <time>2020-10-03T07:47:31.000Z</time>
      </trkpt>
      <trkpt lat="43.64074" lon="1.31812">
        <ele>141</ele>
        <time>2020-10-03T07:47:32.000Z</time>
      </trkpt>
      <trkpt lat="43.64071" lon="1.3181">
        <ele>141</ele>
        <time>2020-10-03T07:47:33.000Z</time>
      </trkpt>
      <trkpt lat="43.64069" lon="1.31809">
        <ele>141</ele>
        <time>2020-10-03T07:47:34.000Z</time>
      </trkpt>
      <trkpt lat="43.64066" lon="1.31807">
        <ele>141</ele>
        <time>2020-10-03T07:47:35.000Z</time>
      </trkpt>
      <trkpt lat="43.64064" lon="1.31806">
        <ele>141</ele>
        <time>2020-10-03T07:47:36.000Z</time>
      </trkpt>
      <trkpt lat="43.64061" lon="1.31804">
        <ele>141</ele>
        <time>2020-10-03T07:47:37.000Z</time>
      </trkpt>
      <trkpt lat="43.64058" lon="1.31802">
        <ele>141</ele>
        <time>2020-10-03T07:47:38.000Z</time>
      </trkpt>
      <trkpt lat="43.64055" lon="1.31801">
        <ele>141</ele>
        <time>2020-10-03T07:47:39.000Z</time>
      </trkpt>
      <trkpt lat="43.64052" lon="1.318">
        <ele>141</ele>
        <time>2020-10-03T07:47:40.000Z</time>
      </trkpt>
      <trkpt lat="43.64049" lon="1.31798">
        <ele>141</ele>
        <time>2020-10-03T07:47:41.000Z</time>
      </trkpt>
      <trkpt lat="43.64046" lon="1.31796">
        <ele>141</ele>
        <time>2020-10-03T07:47:42.000Z</time>
      </trkpt>
      <trkpt lat="43.64042" lon="1.31794">
        <ele>141</ele>
        <time>2020-10-03T07:47:43.000Z</time>
      </trkpt>
      <trkpt lat="43.64039" lon="1.31793">
        <ele>141</ele>
        <time>2020-10-03T07:47:44.000Z</time>
      </trkpt>
      <trkpt lat="43.64037" lon="1.31791">
        <ele>141</ele>
        <time>2020-10-03T07:47:45.000Z</time>
      </trkpt>
      <trkpt lat="43.64035" lon="1.31789">
        <ele>141</ele>
        <time>2020-10-03T07:47:46.000Z</time>
      </trkpt>
      <trkpt lat="43.64032" lon="1.31788">
        <ele>141</ele>
        <time>2020-10-03T07:47:47.000Z</time>
      </trkpt>
      <trkpt lat="43.6403" lon="1.31787">
        <ele>141</ele>
        <time>2020-10-03T07:47:48.000Z</time>
      </trkpt>
      <trkpt lat="43.64027" lon="1.31785">
        <ele>141</ele>
        <time>2020-10-03T07:47:49.000Z</time>
      </trkpt>
      <trkpt lat="43.64025" lon="1.31784">
        <ele>141</ele>
        <time>2020-10-03T07:47:50.000Z</time>
      </trkpt>
      <trkpt lat="43.64022" lon="1.31782">
        <ele>141</ele>
        <time>2020-10-03T07:47:51.000Z</time>
      </trkpt>
      <trkpt lat="43.64017" lon="1.31779">
        <ele>141</ele>
        <time>2020-10-03T07:47:53.000Z</time>
      </trkpt>
      <trkpt lat="43.64014" lon="1.31777">
        <ele>141</ele>
        <time>2020-10-03T07:47:54.000Z</time>
      </trkpt>
      <trkpt lat="43.64011" lon="1.31776">
        <ele>141</ele>
        <time>2020-10-03T07:47:55.000Z</time>
      </trkpt>
      <trkpt lat="43.64008" lon="1.31774">
        <ele>141</ele>
        <time>2020-10-03T07:47:56.000Z</time>
      </trkpt>
      <trkpt lat="43.64006" lon="1.31773">
        <ele>141</ele>
        <time>2020-10-03T07:47:57.000Z</time>
      </trkpt>
      <trkpt lat="43.64003" lon="1.31772">
        <ele>141</ele>
        <time>2020-10-03T07:47:58.000Z</time>
      </trkpt>
      <trkpt lat="43.64001" lon="1.3177">
        <ele>141</ele>
        <time>2020-10-03T07:47:59.000Z</time>
      </trkpt>
      <trkpt lat="43.63997" lon="1.31769">
        <ele>141</ele>
        <time>2020-10-03T07:48:00.000Z</time>
      </trkpt>
      <trkpt lat="43.63994" lon="1.31768">
        <ele>141</ele>
        <time>2020-10-03T07:48:01.000Z</time>
      </trkpt>
      <trkpt lat="43.63991" lon="1.31767">
        <ele>141</ele>
        <time>2020-10-03T07:48:02.000Z</time>
      </trkpt>
      <trkpt lat="43.63988" lon="1.31765">
        <ele>141</ele>
        <time>2020-10-03T07:48:03.000Z</time>
      </trkpt>
      <trkpt lat="43.63985" lon="1.31764">
        <ele>141</ele>
        <time>2020-10-03T07:48:04.000Z</time>
      </trkpt>
      <trkpt lat="43.63982" lon="1.31762">
        <ele>141</ele>
        <time>2020-10-03T07:48:05.000Z</time>
      </trkpt>
      <trkpt lat="43.6398" lon="1.31761">
        <ele>141.48979911705</ele>
        <time>2020-10-03T07:48:06.000Z</time>
      </trkpt>
      <trkpt lat="43.63977" lon="1.3176">
        <ele>142</ele>
        <time>2020-10-03T07:48:07.000Z</time>
      </trkpt>
      <trkpt lat="43.63974" lon="1.31759">
        <ele>142</ele>
        <time>2020-10-03T07:48:08.000Z</time>
      </trkpt>
      <trkpt lat="43.63971" lon="1.31757">
        <ele>142</ele>
        <time>2020-10-03T07:48:09.000Z</time>
      </trkpt>
      <trkpt lat="43.63969" lon="1.31756">
        <ele>142</ele>
        <time>2020-10-03T07:48:10.000Z</time>
      </trkpt>
      <trkpt lat="43.63966" lon="1.31755">
        <ele>141.83117228539</ele>
        <time>2020-10-03T07:48:11.000Z</time>
      </trkpt>
      <trkpt lat="43.63963" lon="1.31753">
        <ele>141</ele>
        <time>2020-10-03T07:48:12.000Z</time>
      </trkpt>
      <trkpt lat="43.6396" lon="1.3175">
        <ele>141</ele>
        <time>2020-10-03T07:48:13.000Z</time>
      </trkpt>
      <trkpt lat="43.63958" lon="1.31749">
        <ele>141.37037388199</ele>
        <time>2020-10-03T07:48:14.000Z</time>
      </trkpt>
      <trkpt lat="43.63955" lon="1.31747">
        <ele>142</ele>
        <time>2020-10-03T07:48:15.000Z</time>
      </trkpt>
      <trkpt lat="43.63952" lon="1.31745">
        <ele>142</ele>
        <time>2020-10-03T07:48:16.000Z</time>
      </trkpt>
      <trkpt lat="43.6395" lon="1.31743">
        <ele>142</ele>
        <time>2020-10-03T07:48:17.000Z</time>
      </trkpt>
      <trkpt lat="43.63947" lon="1.31741">
        <ele>141.51456479594</ele>
        <time>2020-10-03T07:48:18.000Z</time>
      </trkpt>
      <trkpt lat="43.63945" lon="1.31739">
        <ele>141</ele>
        <time>2020-10-03T07:48:19.000Z</time>
      </trkpt>
      <trkpt lat="43.63942" lon="1.31737">
        <ele>141</ele>
        <time>2020-10-03T07:48:20.000Z</time>
      </trkpt>
      <trkpt lat="43.6394" lon="1.31735">
        <ele>141</ele>
        <time>2020-10-03T07:48:21.000Z</time>
      </trkpt>
      <trkpt lat="43.63938" lon="1.31733">
        <ele>141</ele>
        <time>2020-10-03T07:48:22.000Z</time>
      </trkpt>
      <trkpt lat="43.63935" lon="1.31731">
        <ele>141</ele>
        <time>2020-10-03T07:48:23.000Z</time>
      </trkpt>
      <trkpt lat="43.63932" lon="1.31728">
        <ele>141</ele>
        <time>2020-10-03T07:48:24.000Z</time>
      </trkpt>
      <trkpt lat="43.6393" lon="1.31726">
        <ele>141</ele>
        <time>2020-10-03T07:48:25.000Z</time>
      </trkpt>
      <trkpt lat="43.63927" lon="1.31724">
        <ele>141</ele>
        <time>2020-10-03T07:48:26.000Z</time>
      </trkpt>
      <trkpt lat="43.63924" lon="1.31721">
        <ele>141</ele>
        <time>2020-10-03T07:48:27.000Z</time>
      </trkpt>
      <trkpt lat="43.63921" lon="1.31719">
        <ele>141</ele>
        <time>2020-10-03T07:48:28.000Z</time>
      </trkpt>
      <trkpt lat="43.63919" lon="1.31717">
        <ele>141.28676705882</ele>
        <time>2020-10-03T07:48:29.000Z</time>
      </trkpt>
      <trkpt lat="43.63916" lon="1.31715">
        <ele>142</ele>
        <time>2020-10-03T07:48:30.000Z</time>
      </trkpt>
      <trkpt lat="43.63914" lon="1.31713">
        <ele>142</ele>
        <time>2020-10-03T07:48:31.000Z</time>
      </trkpt>
      <trkpt lat="43.63911" lon="1.3171">
        <ele>142</ele>
        <time>2020-10-03T07:48:32.000Z</time>
      </trkpt>
      <trkpt lat="43.63908" lon="1.31708">
        <ele>142</ele>
        <time>2020-10-03T07:48:33.000Z</time>
      </trkpt>
      <trkpt lat="43.63906" lon="1.31706">
        <ele>142</ele>
        <time>2020-10-03T07:48:34.000Z</time>
      </trkpt>
      <trkpt lat="43.63903" lon="1.31704">
        <ele>142</ele>
        <time>2020-10-03T07:48:35.000Z</time>
      </trkpt>
      <trkpt lat="43.639" lon="1.31702">
        <ele>141.624992</ele>
        <time>2020-10-03T07:48:36.000Z</time>
      </trkpt>
      <trkpt lat="43.63898" lon="1.31699">
        <ele>141</ele>
        <time>2020-10-03T07:48:37.000Z</time>
      </trkpt>
      <trkpt lat="43.63895" lon="1.31698">
        <ele>141</ele>
        <time>2020-10-03T07:48:38.000Z</time>
      </trkpt>
      <trkpt lat="43.63893" lon="1.31696">
        <ele>141</ele>
        <time>2020-10-03T07:48:39.000Z</time>
      </trkpt>
      <trkpt lat="43.6389" lon="1.31693">
        <ele>141</ele>
        <time>2020-10-03T07:48:40.000Z</time>
      </trkpt>
      <trkpt lat="43.63888" lon="1.31691">
        <ele>141</ele>
        <time>2020-10-03T07:48:41.000Z</time>
      </trkpt>
      <trkpt lat="43.63886" lon="1.31689">
        <ele>141</ele>
        <time>2020-10-03T07:48:42.000Z</time>
      </trkpt>
      <trkpt lat="43.63883" lon="1.31686">
        <ele>141</ele>
        <time>2020-10-03T07:48:43.000Z</time>
      </trkpt>
      <trkpt lat="43.63881" lon="1.31684">
        <ele>141</ele>
        <time>2020-10-03T07:48:44.000Z</time>
      </trkpt>
      <trkpt lat="43.63879" lon="1.31682">
        <ele>141</ele>
        <time>2020-10-03T07:48:45.000Z</time>
      </trkpt>
      <trkpt lat="43.63877" lon="1.31679">
        <ele>141</ele>
        <time>2020-10-03T07:48:46.000Z</time>
      </trkpt>
      <trkpt lat="43.63875" lon="1.31677">
        <ele>141</ele>
        <time>2020-10-03T07:48:47.000Z</time>
      </trkpt>
      <trkpt lat="43.63873" lon="1.31675">
        <ele>141</ele>
        <time>2020-10-03T07:48:48.000Z</time>
      </trkpt>
      <trkpt lat="43.63871" lon="1.31672">
        <ele>141</ele>
        <time>2020-10-03T07:48:49.000Z</time>
      </trkpt>
      <trkpt lat="43.63868" lon="1.3167">
        <ele>141</ele>
        <time>2020-10-03T07:48:50.000Z</time>
      </trkpt>
      <trkpt lat="43.63866" lon="1.31668">
        <ele>141</ele>
        <time>2020-10-03T07:48:51.000Z</time>
      </trkpt>
      <trkpt lat="43.63864" lon="1.31666">
        <ele>141</ele>
        <time>2020-10-03T07:48:52.000Z</time>
      </trkpt>
      <trkpt lat="43.63862" lon="1.31663">
        <ele>141</ele>
        <time>2020-10-03T07:48:53.000Z</time>
      </trkpt>
      <trkpt lat="43.63859" lon="1.31661">
        <ele>141</ele>
        <time>2020-10-03T07:48:54.000Z</time>
      </trkpt>
      <trkpt lat="43.63856" lon="1.31659">
        <ele>141</ele>
        <time>2020-10-03T07:48:55.000Z</time>
      </trkpt>
      <trkpt lat="43.63853" lon="1.31657">
        <ele>141</ele>
        <time>2020-10-03T07:48:56.000Z</time>
      </trkpt>
      <trkpt lat="43.63851" lon="1.31655">
        <ele>141</ele>
        <time>2020-10-03T07:48:57.000Z</time>
      </trkpt>
      <trkpt lat="43.63849" lon="1.31653">
        <ele>141</ele>
        <time>2020-10-03T07:48:58.000Z</time>
      </trkpt>
      <trkpt lat="43.63847" lon="1.3165">
        <ele>141</ele>
        <time>2020-10-03T07:48:59.000Z</time>
      </trkpt>
      <trkpt lat="43.63846" lon="1.31648">
        <ele>141</ele>
        <time>2020-10-03T07:49:00.000Z</time>
      </trkpt>
      <trkpt lat="43.63844" lon="1.31646">
        <ele>141</ele>
        <time>2020-10-03T07:49:02.000Z</time>
      </trkpt>
      <trkpt lat="43.63842" lon="1.31645">
        <ele>141</ele>
        <time>2020-10-03T07:49:04.000Z</time>
      </trkpt>
      <trkpt lat="43.6384" lon="1.31641">
        <ele>141</ele>
        <time>2020-10-03T07:49:06.000Z</time>
      </trkpt>
      <trkpt lat="43.63838" lon="1.31639">
        <ele>140.8899968</ele>
        <time>2020-10-03T07:49:07.000Z</time>
      </trkpt>
      <trkpt lat="43.63836" lon="1.31636">
        <ele>140</ele>
        <time>2020-10-03T07:49:08.000Z</time>
      </trkpt>
      <trkpt lat="43.63834" lon="1.31633">
        <ele>140</ele>
        <time>2020-10-03T07:49:09.000Z</time>
      </trkpt>
      <trkpt lat="43.63833" lon="1.3163">
        <ele>140.44642285714</ele>
        <time>2020-10-03T07:49:10.000Z</time>
      </trkpt>
      <trkpt lat="43.63831" lon="1.31627">
        <ele>141</ele>
        <time>2020-10-03T07:49:11.000Z</time>
      </trkpt>
      <trkpt lat="43.63829" lon="1.31624">
        <ele>141</ele>
        <time>2020-10-03T07:49:12.000Z</time>
      </trkpt>
      <trkpt lat="43.63827" lon="1.3162">
        <ele>141</ele>
        <time>2020-10-03T07:49:13.000Z</time>
      </trkpt>
      <trkpt lat="43.63825" lon="1.31617">
        <ele>141</ele>
        <time>2020-10-03T07:49:14.000Z</time>
      </trkpt>
      <trkpt lat="43.63823" lon="1.31614">
        <ele>141</ele>
        <time>2020-10-03T07:49:15.000Z</time>
      </trkpt>
      <trkpt lat="43.63821" lon="1.31611">
        <ele>141</ele>
        <time>2020-10-03T07:49:16.000Z</time>
      </trkpt>
      <trkpt lat="43.63819" lon="1.31607">
        <ele>141</ele>
        <time>2020-10-03T07:49:17.000Z</time>
      </trkpt>
      <trkpt lat="43.63818" lon="1.31603">
        <ele>141</ele>
        <time>2020-10-03T07:49:18.000Z</time>
      </trkpt>
      <trkpt lat="43.63816" lon="1.316">
        <ele>141</ele>
        <time>2020-10-03T07:49:19.000Z</time>
      </trkpt>
      <trkpt lat="43.63815" lon="1.31597">
        <ele>141</ele>
        <time>2020-10-03T07:49:20.000Z</time>
      </trkpt>
      <trkpt lat="43.63813" lon="1.31593">
        <ele>141</ele>
        <time>2020-10-03T07:49:21.000Z</time>
      </trkpt>
      <trkpt lat="43.63812" lon="1.3159">
        <ele>141</ele>
        <time>2020-10-03T07:49:22.000Z</time>
      </trkpt>
      <trkpt lat="43.63811" lon="1.31586">
        <ele>141</ele>
        <time>2020-10-03T07:49:23.000Z</time>
      </trkpt>
      <trkpt lat="43.63809" lon="1.31583">
        <ele>141</ele>
        <time>2020-10-03T07:49:24.000Z</time>
      </trkpt>
      <trkpt lat="43.63808" lon="1.3158">
        <ele>141</ele>
        <time>2020-10-03T07:49:25.000Z</time>
      </trkpt>
      <trkpt lat="43.63806" lon="1.31577">
        <ele>141</ele>
        <time>2020-10-03T07:49:26.000Z</time>
      </trkpt>
      <trkpt lat="43.63804" lon="1.31574">
        <ele>141</ele>
        <time>2020-10-03T07:49:27.000Z</time>
      </trkpt>
      <trkpt lat="43.63803" lon="1.3157">
        <ele>141</ele>
        <time>2020-10-03T07:49:28.000Z</time>
      </trkpt>
      <trkpt lat="43.63802" lon="1.31567">
        <ele>141</ele>
        <time>2020-10-03T07:49:29.000Z</time>
      </trkpt>
      <trkpt lat="43.638" lon="1.31564">
        <ele>141</ele>
        <time>2020-10-03T07:49:30.000Z</time>
      </trkpt>
      <trkpt lat="43.63798" lon="1.31561">
        <ele>141</ele>
        <time>2020-10-03T07:49:31.000Z</time>
      </trkpt>
      <trkpt lat="43.63797" lon="1.31558">
        <ele>141</ele>
        <time>2020-10-03T07:49:32.000Z</time>
      </trkpt>
      <trkpt lat="43.63795" lon="1.31555">
        <ele>141</ele>
        <time>2020-10-03T07:49:33.000Z</time>
      </trkpt>
      <trkpt lat="43.63793" lon="1.31552">
        <ele>141</ele>
        <time>2020-10-03T07:49:34.000Z</time>
      </trkpt>
      <trkpt lat="43.63791" lon="1.31549">
        <ele>141</ele>
        <time>2020-10-03T07:49:35.000Z</time>
      </trkpt>
      <trkpt lat="43.6379" lon="1.31545">
        <ele>141</ele>
        <time>2020-10-03T07:49:36.000Z</time>
      </trkpt>
      <trkpt lat="43.63788" lon="1.31541">
        <ele>141</ele>
        <time>2020-10-03T07:49:37.000Z</time>
      </trkpt>
      <trkpt lat="43.63787" lon="1.31538">
        <ele>141</ele>
        <time>2020-10-03T07:49:38.000Z</time>
      </trkpt>
      <trkpt lat="43.63785" lon="1.31535">
        <ele>141</ele>
        <time>2020-10-03T07:49:39.000Z</time>
      </trkpt>
      <trkpt lat="43.63784" lon="1.31531">
        <ele>141</ele>
        <time>2020-10-03T07:49:40.000Z</time>
      </trkpt>
      <trkpt lat="43.63783" lon="1.31528">
        <ele>141</ele>
        <time>2020-10-03T07:49:41.000Z</time>
      </trkpt>
      <trkpt lat="43.63781" lon="1.31525">
        <ele>141</ele>
        <time>2020-10-03T07:49:42.000Z</time>
      </trkpt>
      <trkpt lat="43.63779" lon="1.31522">
        <ele>141</ele>
        <time>2020-10-03T07:49:43.000Z</time>
      </trkpt>
      <trkpt lat="43.63778" lon="1.31518">
        <ele>141</ele>
        <time>2020-10-03T07:49:44.000Z</time>
      </trkpt>
      <trkpt lat="43.63776" lon="1.31515">
        <ele>141</ele>
        <time>2020-10-03T07:49:45.000Z</time>
      </trkpt>
      <trkpt lat="43.63775" lon="1.31512">
        <ele>141</ele>
        <time>2020-10-03T07:49:46.000Z</time>
      </trkpt>
      <trkpt lat="43.63773" lon="1.31509">
        <ele>141</ele>
        <time>2020-10-03T07:49:47.000Z</time>
      </trkpt>
      <trkpt lat="43.63771" lon="1.31505">
        <ele>141</ele>
        <time>2020-10-03T07:49:48.000Z</time>
      </trkpt>
      <trkpt lat="43.63769" lon="1.31502">
        <ele>141.43859964295</ele>
        <time>2020-10-03T07:49:49.000Z</time>
      </trkpt>
      <trkpt lat="43.63768" lon="1.31499">
        <ele>142</ele>
        <time>2020-10-03T07:49:50.000Z</time>
      </trkpt>
      <trkpt lat="43.63766" lon="1.31495">
        <ele>142</ele>
        <time>2020-10-03T07:49:51.000Z</time>
      </trkpt>
      <trkpt lat="43.63764" lon="1.31492">
        <ele>142</ele>
        <time>2020-10-03T07:49:52.000Z</time>
      </trkpt>
      <trkpt lat="43.63763" lon="1.31489">
        <ele>142</ele>
        <time>2020-10-03T07:49:53.000Z</time>
      </trkpt>
      <trkpt lat="43.63761" lon="1.31486">
        <ele>142</ele>
        <time>2020-10-03T07:49:54.000Z</time>
      </trkpt>
      <trkpt lat="43.63759" lon="1.31483">
        <ele>142</ele>
        <time>2020-10-03T07:49:55.000Z</time>
      </trkpt>
      <trkpt lat="43.63757" lon="1.3148">
        <ele>142</ele>
        <time>2020-10-03T07:49:56.000Z</time>
      </trkpt>
      <trkpt lat="43.63756" lon="1.31477">
        <ele>142.45871742781</ele>
        <time>2020-10-03T07:49:57.000Z</time>
      </trkpt>
      <trkpt lat="43.63754" lon="1.31474">
        <ele>143</ele>
        <time>2020-10-03T07:49:58.000Z</time>
      </trkpt>
      <trkpt lat="43.63752" lon="1.31471">
        <ele>143</ele>
        <time>2020-10-03T07:49:59.000Z</time>
      </trkpt>
      <trkpt lat="43.6375" lon="1.31468">
        <ele>143</ele>
        <time>2020-10-03T07:50:00.000Z</time>
      </trkpt>
      <trkpt lat="43.63749" lon="1.31465">
        <ele>143</ele>
        <time>2020-10-03T07:50:01.000Z</time>
      </trkpt>
      <trkpt lat="43.63747" lon="1.31461">
        <ele>143</ele>
        <time>2020-10-03T07:50:02.000Z</time>
      </trkpt>
      <trkpt lat="43.63746" lon="1.31458">
        <ele>143</ele>
        <time>2020-10-03T07:50:03.000Z</time>
      </trkpt>
      <trkpt lat="43.63744" lon="1.31455">
        <ele>143.30714514286</ele>
        <time>2020-10-03T07:50:04.000Z</time>
      </trkpt>
      <trkpt lat="43.63743" lon="1.31451">
        <ele>144</ele>
        <time>2020-10-03T07:50:05.000Z</time>
      </trkpt>
      <trkpt lat="43.63741" lon="1.31447">
        <ele>144</ele>
        <time>2020-10-03T07:50:06.000Z</time>
      </trkpt>
      <trkpt lat="43.6374" lon="1.31444">
        <ele>144</ele>
        <time>2020-10-03T07:50:07.000Z</time>
      </trkpt>
      <trkpt lat="43.63738" lon="1.31441">
        <ele>144</ele>
        <time>2020-10-03T07:50:08.000Z</time>
      </trkpt>
      <trkpt lat="43.63737" lon="1.31437">
        <ele>144</ele>
        <time>2020-10-03T07:50:09.000Z</time>
      </trkpt>
      <trkpt lat="43.63736" lon="1.31434">
        <ele>144</ele>
        <time>2020-10-03T07:50:10.000Z</time>
      </trkpt>
      <trkpt lat="43.63734" lon="1.3143">
        <ele>144</ele>
        <time>2020-10-03T07:50:11.000Z</time>
      </trkpt>
      <trkpt lat="43.63732" lon="1.31427">
        <ele>144</ele>
        <time>2020-10-03T07:50:12.000Z</time>
      </trkpt>
      <trkpt lat="43.63731" lon="1.31424">
        <ele>144</ele>
        <time>2020-10-03T07:50:13.000Z</time>
      </trkpt>
      <trkpt lat="43.63729" lon="1.31421">
        <ele>144</ele>
        <time>2020-10-03T07:50:14.000Z</time>
      </trkpt>
      <trkpt lat="43.63728" lon="1.31418">
        <ele>143.63528897991</ele>
        <time>2020-10-03T07:50:15.000Z</time>
      </trkpt>
      <trkpt lat="43.63727" lon="1.31415">
        <ele>143</ele>
        <time>2020-10-03T07:50:16.000Z</time>
      </trkpt>
      <trkpt lat="43.63726" lon="1.31412">
        <ele>143</ele>
        <time>2020-10-03T07:50:18.000Z</time>
      </trkpt>
      <trkpt lat="43.63724" lon="1.3141">
        <ele>143</ele>
        <time>2020-10-03T07:50:21.000Z</time>
      </trkpt>
      <trkpt lat="43.63724" lon="1.31408">
        <ele>142.27272425028</ele>
        <time>2020-10-03T07:50:30.000Z</time>
      </trkpt>
      <trkpt lat="43.63723" lon="1.31407">
        <ele>144</ele>
        <time>2020-10-03T07:50:37.000Z</time>
      </trkpt>
      <trkpt lat="43.63721" lon="1.31405">
        <ele>143</ele>
        <time>2020-10-03T07:50:44.000Z</time>
      </trkpt>
      <trkpt lat="43.63722" lon="1.31407">
        <ele>143</ele>
        <time>2020-10-03T07:51:14.000Z</time>
      </trkpt>
      <trkpt lat="43.63722" lon="1.31405">
        <ele>144</ele>
        <time>2020-10-03T07:51:29.000Z</time>
      </trkpt>
      <trkpt lat="43.63721" lon="1.31401">
        <ele>144</ele>
        <time>2020-10-03T07:51:31.000Z</time>
      </trkpt>
      <trkpt lat="43.6372" lon="1.31398">
        <ele>143.86112</ele>
        <time>2020-10-03T07:51:32.000Z</time>
      </trkpt>
      <trkpt lat="43.63719" lon="1.31396">
        <ele>143</ele>
        <time>2020-10-03T07:51:33.000Z</time>
      </trkpt>
      <trkpt lat="43.63719" lon="1.31393">
        <ele>143</ele>
        <time>2020-10-03T07:51:34.000Z</time>
      </trkpt>
      <trkpt lat="43.63718" lon="1.31391">
        <ele>143</ele>
        <time>2020-10-03T07:51:35.000Z</time>
      </trkpt>
      <trkpt lat="43.63717" lon="1.31388">
        <ele>143</ele>
        <time>2020-10-03T07:51:36.000Z</time>
      </trkpt>
      <trkpt lat="43.63716" lon="1.31384">
        <ele>143</ele>
        <time>2020-10-03T07:51:37.000Z</time>
      </trkpt>
      <trkpt lat="43.63715" lon="1.3138">
        <ele>143</ele>
        <time>2020-10-03T07:51:38.000Z</time>
      </trkpt>
      <trkpt lat="43.63713" lon="1.31377">
        <ele>143</ele>
        <time>2020-10-03T07:51:39.000Z</time>
      </trkpt>
      <trkpt lat="43.63712" lon="1.31373">
        <ele>143</ele>
        <time>2020-10-03T07:51:40.000Z</time>
      </trkpt>
      <trkpt lat="43.63711" lon="1.31369">
        <ele>143.33962469207</ele>
        <time>2020-10-03T07:51:41.000Z</time>
      </trkpt>
      <trkpt lat="43.6371" lon="1.31366">
        <ele>144</ele>
        <time>2020-10-03T07:51:42.000Z</time>
      </trkpt>
      <trkpt lat="43.63709" lon="1.31362">
        <ele>144</ele>
        <time>2020-10-03T07:51:43.000Z</time>
      </trkpt>
      <trkpt lat="43.63708" lon="1.31358">
        <ele>144</ele>
        <time>2020-10-03T07:51:44.000Z</time>
      </trkpt>
      <trkpt lat="43.63707" lon="1.31354">
        <ele>144</ele>
        <time>2020-10-03T07:51:45.000Z</time>
      </trkpt>
      <trkpt lat="43.63706" lon="1.31351">
        <ele>144</ele>
        <time>2020-10-03T07:51:46.000Z</time>
      </trkpt>
      <trkpt lat="43.63705" lon="1.31346">
        <ele>144</ele>
        <time>2020-10-03T07:51:47.000Z</time>
      </trkpt>
      <trkpt lat="43.63704" lon="1.31343">
        <ele>144</ele>
        <time>2020-10-03T07:51:48.000Z</time>
      </trkpt>
      <trkpt lat="43.63703" lon="1.31339">
        <ele>144</ele>
        <time>2020-10-03T07:51:49.000Z</time>
      </trkpt>
      <trkpt lat="43.63702" lon="1.31335">
        <ele>144</ele>
        <time>2020-10-03T07:51:50.000Z</time>
      </trkpt>
      <trkpt lat="43.63701" lon="1.31331">
        <ele>144</ele>
        <time>2020-10-03T07:51:51.000Z</time>
      </trkpt>
      <trkpt lat="43.637" lon="1.31326">
        <ele>144</ele>
        <time>2020-10-03T07:51:52.000Z</time>
      </trkpt>
      <trkpt lat="43.63699" lon="1.31322">
        <ele>144</ele>
        <time>2020-10-03T07:51:53.000Z</time>
      </trkpt>
      <trkpt lat="43.63698" lon="1.31318">
        <ele>144</ele>
        <time>2020-10-03T07:51:54.000Z</time>
      </trkpt>
      <trkpt lat="43.63697" lon="1.31314">
        <ele>144</ele>
        <time>2020-10-03T07:51:55.000Z</time>
      </trkpt>
      <trkpt lat="43.63696" lon="1.3131">
        <ele>144</ele>
        <time>2020-10-03T07:51:56.000Z</time>
      </trkpt>
      <trkpt lat="43.63695" lon="1.31306">
        <ele>143.70000256003</ele>
        <time>2020-10-03T07:51:57.000Z</time>
      </trkpt>
      <trkpt lat="43.63694" lon="1.31303">
        <ele>143</ele>
        <time>2020-10-03T07:51:58.000Z</time>
      </trkpt>
      <trkpt lat="43.63693" lon="1.31299">
        <ele>143.20634307889</ele>
        <time>2020-10-03T07:51:59.000Z</time>
      </trkpt>
      <trkpt lat="43.63692" lon="1.31295">
        <ele>144</ele>
        <time>2020-10-03T07:52:00.000Z</time>
      </trkpt>
      <trkpt lat="43.63691" lon="1.31291">
        <ele>144</ele>
        <time>2020-10-03T07:52:01.000Z</time>
      </trkpt>
      <trkpt lat="43.6369" lon="1.31287">
        <ele>144</ele>
        <time>2020-10-03T07:52:02.000Z</time>
      </trkpt>
      <trkpt lat="43.63689" lon="1.31283">
        <ele>144</ele>
        <time>2020-10-03T07:52:03.000Z</time>
      </trkpt>
      <trkpt lat="43.63688" lon="1.31279">
        <ele>144</ele>
        <time>2020-10-03T07:52:04.000Z</time>
      </trkpt>
      <trkpt lat="43.63687" lon="1.31275">
        <ele>144</ele>
        <time>2020-10-03T07:52:05.000Z</time>
      </trkpt>
      <trkpt lat="43.63686" lon="1.31271">
        <ele>144</ele>
        <time>2020-10-03T07:52:06.000Z</time>
      </trkpt>
      <trkpt lat="43.63684" lon="1.31267">
        <ele>144</ele>
        <time>2020-10-03T07:52:07.000Z</time>
      </trkpt>
      <trkpt lat="43.63683" lon="1.31264">
        <ele>144</ele>
        <time>2020-10-03T07:52:08.000Z</time>
      </trkpt>
      <trkpt lat="43.63682" lon="1.3126">
        <ele>144</ele>
        <time>2020-10-03T07:52:09.000Z</time>
      </trkpt>
      <trkpt lat="43.6368" lon="1.31252">
        <ele>144</ele>
        <time>2020-10-03T07:52:11.000Z</time>
      </trkpt>
      <trkpt lat="43.63678" lon="1.31249">
        <ele>144</ele>
        <time>2020-10-03T07:52:12.000Z</time>
      </trkpt>
      <trkpt lat="43.63677" lon="1.31245">
        <ele>144</ele>
        <time>2020-10-03T07:52:13.000Z</time>
      </trkpt>
      <trkpt lat="43.63675" lon="1.31242">
        <ele>144</ele>
        <time>2020-10-03T07:52:14.000Z</time>
      </trkpt>
      <trkpt lat="43.63673" lon="1.31239">
        <ele>144</ele>
        <time>2020-10-03T07:52:15.000Z</time>
      </trkpt>
      <trkpt lat="43.63671" lon="1.31236">
        <ele>144</ele>
        <time>2020-10-03T07:52:16.000Z</time>
      </trkpt>
      <trkpt lat="43.6367" lon="1.31233">
        <ele>144</ele>
        <time>2020-10-03T07:52:17.000Z</time>
      </trkpt>
      <trkpt lat="43.63666" lon="1.31227">
        <ele>144</ele>
        <time>2020-10-03T07:52:19.000Z</time>
      </trkpt>
      <trkpt lat="43.63663" lon="1.31225">
        <ele>144</ele>
        <time>2020-10-03T07:52:20.000Z</time>
      </trkpt>
      <trkpt lat="43.63661" lon="1.31222">
        <ele>144</ele>
        <time>2020-10-03T07:52:21.000Z</time>
      </trkpt>
      <trkpt lat="43.63659" lon="1.31219">
        <ele>144</ele>
        <time>2020-10-03T07:52:22.000Z</time>
      </trkpt>
      <trkpt lat="43.63658" lon="1.31216">
        <ele>144</ele>
        <time>2020-10-03T07:52:23.000Z</time>
      </trkpt>
      <trkpt lat="43.63656" lon="1.31214">
        <ele>144</ele>
        <time>2020-10-03T07:52:24.000Z</time>
      </trkpt>
      <trkpt lat="43.63654" lon="1.31211">
        <ele>144.36471102009</ele>
        <time>2020-10-03T07:52:25.000Z</time>
      </trkpt>
      <trkpt lat="43.63652" lon="1.31208">
        <ele>145</ele>
        <time>2020-10-03T07:52:26.000Z</time>
      </trkpt>
      <trkpt lat="43.6365" lon="1.31204">
        <ele>145</ele>
        <time>2020-10-03T07:52:27.000Z</time>
      </trkpt>
      <trkpt lat="43.63649" lon="1.31201">
        <ele>145</ele>
        <time>2020-10-03T07:52:28.000Z</time>
      </trkpt>
      <trkpt lat="43.63647" lon="1.31197">
        <ele>145</ele>
        <time>2020-10-03T07:52:29.000Z</time>
      </trkpt>
      <trkpt lat="43.63646" lon="1.31193">
        <ele>145</ele>
        <time>2020-10-03T07:52:30.000Z</time>
      </trkpt>
      <trkpt lat="43.63645" lon="1.3119">
        <ele>144.65555444939</ele>
        <time>2020-10-03T07:52:31.000Z</time>
      </trkpt>
      <trkpt lat="43.63643" lon="1.31186">
        <ele>144</ele>
        <time>2020-10-03T07:52:32.000Z</time>
      </trkpt>
      <trkpt lat="43.63641" lon="1.31183">
        <ele>144</ele>
        <time>2020-10-03T07:52:33.000Z</time>
      </trkpt>
      <trkpt lat="43.63639" lon="1.3118">
        <ele>144</ele>
        <time>2020-10-03T07:52:34.000Z</time>
      </trkpt>
      <trkpt lat="43.63638" lon="1.31177">
        <ele>144</ele>
        <time>2020-10-03T07:52:35.000Z</time>
      </trkpt>
      <trkpt lat="43.63636" lon="1.31173">
        <ele>144</ele>
        <time>2020-10-03T07:52:36.000Z</time>
      </trkpt>
      <trkpt lat="43.63635" lon="1.3117">
        <ele>144</ele>
        <time>2020-10-03T07:52:37.000Z</time>
      </trkpt>
      <trkpt lat="43.63633" lon="1.31166">
        <ele>144</ele>
        <time>2020-10-03T07:52:38.000Z</time>
      </trkpt>
      <trkpt lat="43.63632" lon="1.31163">
        <ele>144</ele>
        <time>2020-10-03T07:52:39.000Z</time>
      </trkpt>
      <trkpt lat="43.6363" lon="1.31159">
        <ele>144</ele>
        <time>2020-10-03T07:52:40.000Z</time>
      </trkpt>
      <trkpt lat="43.63629" lon="1.31155">
        <ele>144</ele>
        <time>2020-10-03T07:52:41.000Z</time>
      </trkpt>
      <trkpt lat="43.63628" lon="1.31151">
        <ele>144</ele>
        <time>2020-10-03T07:52:42.000Z</time>
      </trkpt>
      <trkpt lat="43.63627" lon="1.31148">
        <ele>144</ele>
        <time>2020-10-03T07:52:43.000Z</time>
      </trkpt>
      <trkpt lat="43.63626" lon="1.31145">
        <ele>144</ele>
        <time>2020-10-03T07:52:44.000Z</time>
      </trkpt>
      <trkpt lat="43.63625" lon="1.31143">
        <ele>144</ele>
        <time>2020-10-03T07:52:45.000Z</time>
      </trkpt>
      <trkpt lat="43.63624" lon="1.31139">
        <ele>144</ele>
        <time>2020-10-03T07:52:46.000Z</time>
      </trkpt>
      <trkpt lat="43.63622" lon="1.31136">
        <ele>144</ele>
        <time>2020-10-03T07:52:47.000Z</time>
      </trkpt>
      <trkpt lat="43.63621" lon="1.31132">
        <ele>144</ele>
        <time>2020-10-03T07:52:48.000Z</time>
      </trkpt>
      <trkpt lat="43.6362" lon="1.31129">
        <ele>144</ele>
        <time>2020-10-03T07:52:49.000Z</time>
      </trkpt>
      <trkpt lat="43.63619" lon="1.31126">
        <ele>144</ele>
        <time>2020-10-03T07:52:50.000Z</time>
      </trkpt>
      <trkpt lat="43.63617" lon="1.31124">
        <ele>144</ele>
        <time>2020-10-03T07:52:51.000Z</time>
      </trkpt>
      <trkpt lat="43.63615" lon="1.31121">
        <ele>144</ele>
        <time>2020-10-03T07:52:52.000Z</time>
      </trkpt>
      <trkpt lat="43.63613" lon="1.31118">
        <ele>144</ele>
        <time>2020-10-03T07:52:53.000Z</time>
      </trkpt>
      <trkpt lat="43.63611" lon="1.31115">
        <ele>144</ele>
        <time>2020-10-03T07:52:54.000Z</time>
      </trkpt>
      <trkpt lat="43.63608" lon="1.31112">
        <ele>144</ele>
        <time>2020-10-03T07:52:55.000Z</time>
      </trkpt>
      <trkpt lat="43.63606" lon="1.31109">
        <ele>144</ele>
        <time>2020-10-03T07:52:56.000Z</time>
      </trkpt>
      <trkpt lat="43.63604" lon="1.31106">
        <ele>144</ele>
        <time>2020-10-03T07:52:57.000Z</time>
      </trkpt>
      <trkpt lat="43.63602" lon="1.31103">
        <ele>144</ele>
        <time>2020-10-03T07:52:58.000Z</time>
      </trkpt>
      <trkpt lat="43.63601" lon="1.31101">
        <ele>144</ele>
        <time>2020-10-03T07:52:59.000Z</time>
      </trkpt>
      <trkpt lat="43.63599" lon="1.31099">
        <ele>144</ele>
        <time>2020-10-03T07:53:00.000Z</time>
      </trkpt>
      <trkpt lat="43.63597" lon="1.31096">
        <ele>144</ele>
        <time>2020-10-03T07:53:01.000Z</time>
      </trkpt>
      <trkpt lat="43.63595" lon="1.31093">
        <ele>144</ele>
        <time>2020-10-03T07:53:02.000Z</time>
      </trkpt>
      <trkpt lat="43.63592" lon="1.3109">
        <ele>144</ele>
        <time>2020-10-03T07:53:03.000Z</time>
      </trkpt>
      <trkpt lat="43.6359" lon="1.31087">
        <ele>144</ele>
        <time>2020-10-03T07:53:04.000Z</time>
      </trkpt>
      <trkpt lat="43.63588" lon="1.31084">
        <ele>144</ele>
        <time>2020-10-03T07:53:05.000Z</time>
      </trkpt>
      <trkpt lat="43.63585" lon="1.31081">
        <ele>144</ele>
        <time>2020-10-03T07:53:06.000Z</time>
      </trkpt>
      <trkpt lat="43.63583" lon="1.31077">
        <ele>144</ele>
        <time>2020-10-03T07:53:07.000Z</time>
      </trkpt>
      <trkpt lat="43.63581" lon="1.31075">
        <ele>144</ele>
        <time>2020-10-03T07:53:08.000Z</time>
      </trkpt>
      <trkpt lat="43.63579" lon="1.31072">
        <ele>144</ele>
        <time>2020-10-03T07:53:09.000Z</time>
      </trkpt>
      <trkpt lat="43.63578" lon="1.31069">
        <ele>144</ele>
        <time>2020-10-03T07:53:10.000Z</time>
      </trkpt>
      <trkpt lat="43.63576" lon="1.31066">
        <ele>144</ele>
        <time>2020-10-03T07:53:11.000Z</time>
      </trkpt>
      <trkpt lat="43.63574" lon="1.31063">
        <ele>144</ele>
        <time>2020-10-03T07:53:12.000Z</time>
      </trkpt>
      <trkpt lat="43.63571" lon="1.31059">
        <ele>144</ele>
        <time>2020-10-03T07:53:13.000Z</time>
      </trkpt>
      <trkpt lat="43.6357" lon="1.31055">
        <ele>144</ele>
        <time>2020-10-03T07:53:14.000Z</time>
      </trkpt>
      <trkpt lat="43.63567" lon="1.31052">
        <ele>144</ele>
        <time>2020-10-03T07:53:15.000Z</time>
      </trkpt>
      <trkpt lat="43.63566" lon="1.31048">
        <ele>144</ele>
        <time>2020-10-03T07:53:16.000Z</time>
      </trkpt>
      <trkpt lat="43.63564" lon="1.31045">
        <ele>144</ele>
        <time>2020-10-03T07:53:17.000Z</time>
      </trkpt>
      <trkpt lat="43.63562" lon="1.31041">
        <ele>144</ele>
        <time>2020-10-03T07:53:18.000Z</time>
      </trkpt>
      <trkpt lat="43.63561" lon="1.31038">
        <ele>144</ele>
        <time>2020-10-03T07:53:19.000Z</time>
      </trkpt>
      <trkpt lat="43.63559" lon="1.31035">
        <ele>144</ele>
        <time>2020-10-03T07:53:20.000Z</time>
      </trkpt>
      <trkpt lat="43.63557" lon="1.31032">
        <ele>144</ele>
        <time>2020-10-03T07:53:21.000Z</time>
      </trkpt>
      <trkpt lat="43.63555" lon="1.31028">
        <ele>144</ele>
        <time>2020-10-03T07:53:22.000Z</time>
      </trkpt>
      <trkpt lat="43.63554" lon="1.31025">
        <ele>144</ele>
        <time>2020-10-03T07:53:23.000Z</time>
      </trkpt>
      <trkpt lat="43.63552" lon="1.31022">
        <ele>144</ele>
        <time>2020-10-03T07:53:24.000Z</time>
      </trkpt>
      <trkpt lat="43.63551" lon="1.3102">
        <ele>144</ele>
        <time>2020-10-03T07:53:25.000Z</time>
      </trkpt>
      <trkpt lat="43.63549" lon="1.31017">
        <ele>144</ele>
        <time>2020-10-03T07:53:26.000Z</time>
      </trkpt>
      <trkpt lat="43.63547" lon="1.31014">
        <ele>144</ele>
        <time>2020-10-03T07:53:27.000Z</time>
      </trkpt>
      <trkpt lat="43.63545" lon="1.31011">
        <ele>144</ele>
        <time>2020-10-03T07:53:28.000Z</time>
      </trkpt>
      <trkpt lat="43.63543" lon="1.31008">
        <ele>144</ele>
        <time>2020-10-03T07:53:29.000Z</time>
      </trkpt>
      <trkpt lat="43.63542" lon="1.31005">
        <ele>144</ele>
        <time>2020-10-03T07:53:30.000Z</time>
      </trkpt>
      <trkpt lat="43.63539" lon="1.31003">
        <ele>144</ele>
        <time>2020-10-03T07:53:31.000Z</time>
      </trkpt>
      <trkpt lat="43.63537" lon="1.31">
        <ele>144</ele>
        <time>2020-10-03T07:53:32.000Z</time>
      </trkpt>
      <trkpt lat="43.63535" lon="1.30996">
        <ele>144</ele>
        <time>2020-10-03T07:53:33.000Z</time>
      </trkpt>
      <trkpt lat="43.63533" lon="1.30992">
        <ele>144</ele>
        <time>2020-10-03T07:53:34.000Z</time>
      </trkpt>
      <trkpt lat="43.63531" lon="1.30989">
        <ele>144</ele>
        <time>2020-10-03T07:53:35.000Z</time>
      </trkpt>
      <trkpt lat="43.63529" lon="1.30987">
        <ele>144</ele>
        <time>2020-10-03T07:53:36.000Z</time>
      </trkpt>
      <trkpt lat="43.63527" lon="1.30984">
        <ele>144</ele>
        <time>2020-10-03T07:53:37.000Z</time>
      </trkpt>
      <trkpt lat="43.63525" lon="1.30982">
        <ele>144</ele>
        <time>2020-10-03T07:53:38.000Z</time>
      </trkpt>
      <trkpt lat="43.63523" lon="1.3098">
        <ele>144</ele>
        <time>2020-10-03T07:53:39.000Z</time>
      </trkpt>
      <trkpt lat="43.6352" lon="1.30977">
        <ele>144</ele>
        <time>2020-10-03T07:53:40.000Z</time>
      </trkpt>
      <trkpt lat="43.63518" lon="1.30975">
        <ele>144</ele>
        <time>2020-10-03T07:53:41.000Z</time>
      </trkpt>
      <trkpt lat="43.63515" lon="1.30973">
        <ele>144</ele>
        <time>2020-10-03T07:53:42.000Z</time>
      </trkpt>
      <trkpt lat="43.63513" lon="1.30972">
        <ele>144</ele>
        <time>2020-10-03T07:53:43.000Z</time>
      </trkpt>
      <trkpt lat="43.6351" lon="1.3097">
        <ele>144</ele>
        <time>2020-10-03T07:53:44.000Z</time>
      </trkpt>
      <trkpt lat="43.63507" lon="1.30968">
        <ele>144</ele>
        <time>2020-10-03T07:53:45.000Z</time>
      </trkpt>
      <trkpt lat="43.63505" lon="1.30967">
        <ele>144</ele>
        <time>2020-10-03T07:53:46.000Z</time>
      </trkpt>
      <trkpt lat="43.63502" lon="1.30965">
        <ele>144</ele>
        <time>2020-10-03T07:53:47.000Z</time>
      </trkpt>
      <trkpt lat="43.63499" lon="1.30964">
        <ele>144</ele>
        <time>2020-10-03T07:53:48.000Z</time>
      </trkpt>
      <trkpt lat="43.63496" lon="1.30962">
        <ele>144</ele>
        <time>2020-10-03T07:53:49.000Z</time>
      </trkpt>
      <trkpt lat="43.63494" lon="1.30961">
        <ele>144</ele>
        <time>2020-10-03T07:53:50.000Z</time>
      </trkpt>
      <trkpt lat="43.63491" lon="1.3096">
        <ele>144</ele>
        <time>2020-10-03T07:53:51.000Z</time>
      </trkpt>
      <trkpt lat="43.63489" lon="1.30958">
        <ele>144</ele>
        <time>2020-10-03T07:53:52.000Z</time>
      </trkpt>
      <trkpt lat="43.63486" lon="1.30957">
        <ele>144</ele>
        <time>2020-10-03T07:53:53.000Z</time>
      </trkpt>
      <trkpt lat="43.63483" lon="1.30956">
        <ele>144</ele>
        <time>2020-10-03T07:53:54.000Z</time>
      </trkpt>
      <trkpt lat="43.6348" lon="1.30954">
        <ele>144</ele>
        <time>2020-10-03T07:53:55.000Z</time>
      </trkpt>
      <trkpt lat="43.63478" lon="1.30953">
        <ele>144</ele>
        <time>2020-10-03T07:53:56.000Z</time>
      </trkpt>
      <trkpt lat="43.63476" lon="1.30951">
        <ele>144</ele>
        <time>2020-10-03T07:53:57.000Z</time>
      </trkpt>
      <trkpt lat="43.63473" lon="1.3095">
        <ele>144</ele>
        <time>2020-10-03T07:53:58.000Z</time>
      </trkpt>
      <trkpt lat="43.6347" lon="1.30949">
        <ele>144</ele>
        <time>2020-10-03T07:53:59.000Z</time>
      </trkpt>
      <trkpt lat="43.63468" lon="1.30947">
        <ele>144</ele>
        <time>2020-10-03T07:54:00.000Z</time>
      </trkpt>
      <trkpt lat="43.63465" lon="1.30946">
        <ele>144</ele>
        <time>2020-10-03T07:54:01.000Z</time>
      </trkpt>
      <trkpt lat="43.63462" lon="1.30944">
        <ele>144</ele>
        <time>2020-10-03T07:54:02.000Z</time>
      </trkpt>
      <trkpt lat="43.63459" lon="1.30943">
        <ele>144</ele>
        <time>2020-10-03T07:54:03.000Z</time>
      </trkpt>
      <trkpt lat="43.63456" lon="1.30941">
        <ele>144</ele>
        <time>2020-10-03T07:54:04.000Z</time>
      </trkpt>
      <trkpt lat="43.63453" lon="1.3094">
        <ele>144</ele>
        <time>2020-10-03T07:54:05.000Z</time>
      </trkpt>
      <trkpt lat="43.63451" lon="1.30938">
        <ele>144</ele>
        <time>2020-10-03T07:54:06.000Z</time>
      </trkpt>
      <trkpt lat="43.63448" lon="1.30937">
        <ele>144</ele>
        <time>2020-10-03T07:54:07.000Z</time>
      </trkpt>
      <trkpt lat="43.63445" lon="1.30935">
        <ele>144</ele>
        <time>2020-10-03T07:54:08.000Z</time>
      </trkpt>
      <trkpt lat="43.63442" lon="1.30934">
        <ele>144</ele>
        <time>2020-10-03T07:54:09.000Z</time>
      </trkpt>
      <trkpt lat="43.63439" lon="1.30932">
        <ele>144</ele>
        <time>2020-10-03T07:54:10.000Z</time>
      </trkpt>
      <trkpt lat="43.63436" lon="1.30931">
        <ele>144</ele>
        <time>2020-10-03T07:54:11.000Z</time>
      </trkpt>
      <trkpt lat="43.63432" lon="1.30929">
        <ele>144</ele>
        <time>2020-10-03T07:54:12.000Z</time>
      </trkpt>
      <trkpt lat="43.63429" lon="1.30927">
        <ele>144</ele>
        <time>2020-10-03T07:54:13.000Z</time>
      </trkpt>
      <trkpt lat="43.63427" lon="1.30924">
        <ele>144</ele>
        <time>2020-10-03T07:54:14.000Z</time>
      </trkpt>
      <trkpt lat="43.63424" lon="1.30922">
        <ele>144</ele>
        <time>2020-10-03T07:54:15.000Z</time>
      </trkpt>
      <trkpt lat="43.63421" lon="1.3092">
        <ele>144</ele>
        <time>2020-10-03T07:54:16.000Z</time>
      </trkpt>
      <trkpt lat="43.63419" lon="1.30917">
        <ele>144</ele>
        <time>2020-10-03T07:54:17.000Z</time>
      </trkpt>
      <trkpt lat="43.63416" lon="1.30915">
        <ele>144</ele>
        <time>2020-10-03T07:54:18.000Z</time>
      </trkpt>
      <trkpt lat="43.63414" lon="1.30912">
        <ele>144</ele>
        <time>2020-10-03T07:54:19.000Z</time>
      </trkpt>
      <trkpt lat="43.63411" lon="1.30909">
        <ele>144</ele>
        <time>2020-10-03T07:54:20.000Z</time>
      </trkpt>
      <trkpt lat="43.63409" lon="1.30907">
        <ele>144</ele>
        <time>2020-10-03T07:54:21.000Z</time>
      </trkpt>
      <trkpt lat="43.63406" lon="1.30904">
        <ele>144</ele>
        <time>2020-10-03T07:54:22.000Z</time>
      </trkpt>
      <trkpt lat="43.63404" lon="1.30901">
        <ele>144</ele>
        <time>2020-10-03T07:54:23.000Z</time>
      </trkpt>
      <trkpt lat="43.63402" lon="1.30898">
        <ele>144.36363424795</ele>
        <time>2020-10-03T07:54:24.000Z</time>
      </trkpt>
      <trkpt lat="43.63399" lon="1.30895">
        <ele>145</ele>
        <time>2020-10-03T07:54:25.000Z</time>
      </trkpt>
      <trkpt lat="43.63397" lon="1.30892">
        <ele>145</ele>
        <time>2020-10-03T07:54:26.000Z</time>
      </trkpt>
      <trkpt lat="43.63395" lon="1.3089">
        <ele>145</ele>
        <time>2020-10-03T07:54:27.000Z</time>
      </trkpt>
      <trkpt lat="43.63393" lon="1.30887">
        <ele>145</ele>
        <time>2020-10-03T07:54:28.000Z</time>
      </trkpt>
      <trkpt lat="43.63391" lon="1.30884">
        <ele>145</ele>
        <time>2020-10-03T07:54:29.000Z</time>
      </trkpt>
      <trkpt lat="43.63388" lon="1.30882">
        <ele>145</ele>
        <time>2020-10-03T07:54:30.000Z</time>
      </trkpt>
      <trkpt lat="43.63386" lon="1.3088">
        <ele>145</ele>
        <time>2020-10-03T07:54:31.000Z</time>
      </trkpt>
      <trkpt lat="43.63384" lon="1.30877">
        <ele>145</ele>
        <time>2020-10-03T07:54:32.000Z</time>
      </trkpt>
      <trkpt lat="43.63382" lon="1.30874">
        <ele>145</ele>
        <time>2020-10-03T07:54:33.000Z</time>
      </trkpt>
      <trkpt lat="43.6338" lon="1.30871">
        <ele>145</ele>
        <time>2020-10-03T07:54:34.000Z</time>
      </trkpt>
      <trkpt lat="43.63378" lon="1.30868">
        <ele>145</ele>
        <time>2020-10-03T07:54:35.000Z</time>
      </trkpt>
      <trkpt lat="43.63375" lon="1.30865">
        <ele>145</ele>
        <time>2020-10-03T07:54:36.000Z</time>
      </trkpt>
      <trkpt lat="43.63373" lon="1.30862">
        <ele>145</ele>
        <time>2020-10-03T07:54:37.000Z</time>
      </trkpt>
      <trkpt lat="43.63371" lon="1.30859">
        <ele>145</ele>
        <time>2020-10-03T07:54:38.000Z</time>
      </trkpt>
      <trkpt lat="43.63369" lon="1.30856">
        <ele>145</ele>
        <time>2020-10-03T07:54:39.000Z</time>
      </trkpt>
      <trkpt lat="43.63367" lon="1.30853">
        <ele>145</ele>
        <time>2020-10-03T07:54:40.000Z</time>
      </trkpt>
      <trkpt lat="43.63365" lon="1.3085">
        <ele>145</ele>
        <time>2020-10-03T07:54:41.000Z</time>
      </trkpt>
      <trkpt lat="43.63363" lon="1.30847">
        <ele>145</ele>
        <time>2020-10-03T07:54:42.000Z</time>
      </trkpt>
      <trkpt lat="43.63361" lon="1.30844">
        <ele>145</ele>
        <time>2020-10-03T07:54:43.000Z</time>
      </trkpt>
      <trkpt lat="43.63359" lon="1.30841">
        <ele>145</ele>
        <time>2020-10-03T07:54:44.000Z</time>
      </trkpt>
      <trkpt lat="43.63357" lon="1.30837">
        <ele>145</ele>
        <time>2020-10-03T07:54:45.000Z</time>
      </trkpt>
      <trkpt lat="43.63355" lon="1.30834">
        <ele>145</ele>
        <time>2020-10-03T07:54:46.000Z</time>
      </trkpt>
      <trkpt lat="43.63353" lon="1.30831">
        <ele>145</ele>
        <time>2020-10-03T07:54:47.000Z</time>
      </trkpt>
      <trkpt lat="43.63351" lon="1.30828">
        <ele>145</ele>
        <time>2020-10-03T07:54:48.000Z</time>
      </trkpt>
      <trkpt lat="43.63349" lon="1.30825">
        <ele>145</ele>
        <time>2020-10-03T07:54:49.000Z</time>
      </trkpt>
      <trkpt lat="43.63347" lon="1.30822">
        <ele>145</ele>
        <time>2020-10-03T07:54:50.000Z</time>
      </trkpt>
      <trkpt lat="43.63345" lon="1.30819">
        <ele>145</ele>
        <time>2020-10-03T07:54:51.000Z</time>
      </trkpt>
      <trkpt lat="43.63343" lon="1.30816">
        <ele>145</ele>
        <time>2020-10-03T07:54:52.000Z</time>
      </trkpt>
      <trkpt lat="43.63341" lon="1.30813">
        <ele>145</ele>
        <time>2020-10-03T07:54:53.000Z</time>
      </trkpt>
      <trkpt lat="43.63339" lon="1.3081">
        <ele>145</ele>
        <time>2020-10-03T07:54:54.000Z</time>
      </trkpt>
      <trkpt lat="43.63337" lon="1.30806">
        <ele>145</ele>
        <time>2020-10-03T07:54:55.000Z</time>
      </trkpt>
      <trkpt lat="43.63335" lon="1.30803">
        <ele>145</ele>
        <time>2020-10-03T07:54:56.000Z</time>
      </trkpt>
      <trkpt lat="43.63333" lon="1.308">
        <ele>145</ele>
        <time>2020-10-03T07:54:57.000Z</time>
      </trkpt>
      <trkpt lat="43.63331" lon="1.30797">
        <ele>145</ele>
        <time>2020-10-03T07:54:58.000Z</time>
      </trkpt>
      <trkpt lat="43.63329" lon="1.30794">
        <ele>145</ele>
        <time>2020-10-03T07:54:59.000Z</time>
      </trkpt>
      <trkpt lat="43.63327" lon="1.30791">
        <ele>145</ele>
        <time>2020-10-03T07:55:00.000Z</time>
      </trkpt>
      <trkpt lat="43.63325" lon="1.30788">
        <ele>145</ele>
        <time>2020-10-03T07:55:01.000Z</time>
      </trkpt>
      <trkpt lat="43.63323" lon="1.30785">
        <ele>145</ele>
        <time>2020-10-03T07:55:02.000Z</time>
      </trkpt>
      <trkpt lat="43.63321" lon="1.30782">
        <ele>145</ele>
        <time>2020-10-03T07:55:03.000Z</time>
      </trkpt>
      <trkpt lat="43.63319" lon="1.30779">
        <ele>145</ele>
        <time>2020-10-03T07:55:04.000Z</time>
      </trkpt>
      <trkpt lat="43.63318" lon="1.30776">
        <ele>145</ele>
        <time>2020-10-03T07:55:05.000Z</time>
      </trkpt>
      <trkpt lat="43.63316" lon="1.30773">
        <ele>145</ele>
        <time>2020-10-03T07:55:06.000Z</time>
      </trkpt>
      <trkpt lat="43.63313" lon="1.3077">
        <ele>145</ele>
        <time>2020-10-03T07:55:07.000Z</time>
      </trkpt>
      <trkpt lat="43.63312" lon="1.30767">
        <ele>145</ele>
        <time>2020-10-03T07:55:08.000Z</time>
      </trkpt>
      <trkpt lat="43.6331" lon="1.30765">
        <ele>145</ele>
        <time>2020-10-03T07:55:09.000Z</time>
      </trkpt>
      <trkpt lat="43.63308" lon="1.30762">
        <ele>145</ele>
        <time>2020-10-03T07:55:10.000Z</time>
      </trkpt>
      <trkpt lat="43.63306" lon="1.30759">
        <ele>145.34482403484</ele>
        <time>2020-10-03T07:55:11.000Z</time>
      </trkpt>
      <trkpt lat="43.63304" lon="1.30757">
        <ele>146</ele>
        <time>2020-10-03T07:55:12.000Z</time>
      </trkpt>
      <trkpt lat="43.63302" lon="1.30755">
        <ele>146</ele>
        <time>2020-10-03T07:55:13.000Z</time>
      </trkpt>
      <trkpt lat="43.633" lon="1.30753">
        <ele>146</ele>
        <time>2020-10-03T07:55:14.000Z</time>
      </trkpt>
      <trkpt lat="43.63299" lon="1.30751">
        <ele>145.54945565027</ele>
        <time>2020-10-03T07:55:15.000Z</time>
      </trkpt>
      <trkpt lat="43.63297" lon="1.30749">
        <ele>145</ele>
        <time>2020-10-03T07:55:16.000Z</time>
      </trkpt>
      <trkpt lat="43.63296" lon="1.30748">
        <ele>145</ele>
        <time>2020-10-03T07:55:17.000Z</time>
      </trkpt>
      <trkpt lat="43.63294" lon="1.30747">
        <ele>145</ele>
        <time>2020-10-03T07:55:18.000Z</time>
      </trkpt>
      <trkpt lat="43.63291" lon="1.30747">
        <ele>145</ele>
        <time>2020-10-03T07:55:19.000Z</time>
      </trkpt>
      <trkpt lat="43.6329" lon="1.30749">
        <ele>145</ele>
        <time>2020-10-03T07:55:20.000Z</time>
      </trkpt>
      <trkpt lat="43.63289" lon="1.30751">
        <ele>145</ele>
        <time>2020-10-03T07:55:21.000Z</time>
      </trkpt>
      <trkpt lat="43.63288" lon="1.30754">
        <ele>145</ele>
        <time>2020-10-03T07:55:22.000Z</time>
      </trkpt>
      <trkpt lat="43.63286" lon="1.30756">
        <ele>145</ele>
        <time>2020-10-03T07:55:23.000Z</time>
      </trkpt>
      <trkpt lat="43.63285" lon="1.30759">
        <ele>145</ele>
        <time>2020-10-03T07:55:24.000Z</time>
      </trkpt>
      <trkpt lat="43.63283" lon="1.30761">
        <ele>145</ele>
        <time>2020-10-03T07:55:25.000Z</time>
      </trkpt>
      <trkpt lat="43.63281" lon="1.30764">
        <ele>145</ele>
        <time>2020-10-03T07:55:26.000Z</time>
      </trkpt>
      <trkpt lat="43.63279" lon="1.30767">
        <ele>145</ele>
        <time>2020-10-03T07:55:27.000Z</time>
      </trkpt>
      <trkpt lat="43.63278" lon="1.30769">
        <ele>145</ele>
        <time>2020-10-03T07:55:28.000Z</time>
      </trkpt>
      <trkpt lat="43.63276" lon="1.30771">
        <ele>145</ele>
        <time>2020-10-03T07:55:29.000Z</time>
      </trkpt>
      <trkpt lat="43.63274" lon="1.30774">
        <ele>145</ele>
        <time>2020-10-03T07:55:30.000Z</time>
      </trkpt>
      <trkpt lat="43.63273" lon="1.30777">
        <ele>145.43750666667</ele>
        <time>2020-10-03T07:55:31.000Z</time>
      </trkpt>
      <trkpt lat="43.63271" lon="1.3078">
        <ele>146</ele>
        <time>2020-10-03T07:55:32.000Z</time>
      </trkpt>
      <trkpt lat="43.63268" lon="1.30783">
        <ele>146</ele>
        <time>2020-10-03T07:55:33.000Z</time>
      </trkpt>
      <trkpt lat="43.63266" lon="1.30785">
        <ele>146</ele>
        <time>2020-10-03T07:55:34.000Z</time>
      </trkpt>
      <trkpt lat="43.63264" lon="1.30786">
        <ele>146</ele>
        <time>2020-10-03T07:55:35.000Z</time>
      </trkpt>
      <trkpt lat="43.63261" lon="1.30785">
        <ele>146</ele>
        <time>2020-10-03T07:55:36.000Z</time>
      </trkpt>
      <trkpt lat="43.63258" lon="1.30783">
        <ele>146</ele>
        <time>2020-10-03T07:55:37.000Z</time>
      </trkpt>
      <trkpt lat="43.63256" lon="1.30781">
        <ele>146</ele>
        <time>2020-10-03T07:55:38.000Z</time>
      </trkpt>
      <trkpt lat="43.63254" lon="1.30778">
        <ele>146</ele>
        <time>2020-10-03T07:55:39.000Z</time>
      </trkpt>
      <trkpt lat="43.63251" lon="1.30775">
        <ele>146</ele>
        <time>2020-10-03T07:55:40.000Z</time>
      </trkpt>
      <trkpt lat="43.63249" lon="1.30772">
        <ele>146</ele>
        <time>2020-10-03T07:55:41.000Z</time>
      </trkpt>
      <trkpt lat="43.63247" lon="1.30769">
        <ele>146</ele>
        <time>2020-10-03T07:55:42.000Z</time>
      </trkpt>
      <trkpt lat="43.63245" lon="1.30766">
        <ele>146</ele>
        <time>2020-10-03T07:55:43.000Z</time>
      </trkpt>
      <trkpt lat="43.63243" lon="1.30763">
        <ele>146</ele>
        <time>2020-10-03T07:55:44.000Z</time>
      </trkpt>
      <trkpt lat="43.63241" lon="1.30759">
        <ele>146</ele>
        <time>2020-10-03T07:55:45.000Z</time>
      </trkpt>
      <trkpt lat="43.6324" lon="1.30755">
        <ele>146</ele>
        <time>2020-10-03T07:55:46.000Z</time>
      </trkpt>
      <trkpt lat="43.63239" lon="1.30751">
        <ele>146</ele>
        <time>2020-10-03T07:55:47.000Z</time>
      </trkpt>
      <trkpt lat="43.63237" lon="1.30747">
        <ele>146</ele>
        <time>2020-10-03T07:55:48.000Z</time>
      </trkpt>
      <trkpt lat="43.63236" lon="1.30743">
        <ele>146</ele>
        <time>2020-10-03T07:55:49.000Z</time>
      </trkpt>
      <trkpt lat="43.63235" lon="1.30739">
        <ele>146</ele>
        <time>2020-10-03T07:55:50.000Z</time>
      </trkpt>
      <trkpt lat="43.63235" lon="1.30735">
        <ele>145.54545137192</ele>
        <time>2020-10-03T07:55:51.000Z</time>
      </trkpt>
      <trkpt lat="43.63236" lon="1.30731">
        <ele>145</ele>
        <time>2020-10-03T07:55:52.000Z</time>
      </trkpt>
      <trkpt lat="43.63236" lon="1.30726">
        <ele>145</ele>
        <time>2020-10-03T07:55:53.000Z</time>
      </trkpt>
      <trkpt lat="43.63236" lon="1.30723">
        <ele>145</ele>
        <time>2020-10-03T07:55:54.000Z</time>
      </trkpt>
      <trkpt lat="43.63237" lon="1.30719">
        <ele>145</ele>
        <time>2020-10-03T07:55:55.000Z</time>
      </trkpt>
      <trkpt lat="43.63236" lon="1.30716">
        <ele>145</ele>
        <time>2020-10-03T07:55:56.000Z</time>
      </trkpt>
      <trkpt lat="43.63235" lon="1.30713">
        <ele>145</ele>
        <time>2020-10-03T07:55:57.000Z</time>
      </trkpt>
      <trkpt lat="43.63233" lon="1.3071">
        <ele>145</ele>
        <time>2020-10-03T07:55:58.000Z</time>
      </trkpt>
      <trkpt lat="43.63231" lon="1.30707">
        <ele>145</ele>
        <time>2020-10-03T07:55:59.000Z</time>
      </trkpt>
      <trkpt lat="43.63229" lon="1.30705">
        <ele>145</ele>
        <time>2020-10-03T07:56:00.000Z</time>
      </trkpt>
      <trkpt lat="43.63226" lon="1.30703">
        <ele>144.57471788609</ele>
        <time>2020-10-03T07:56:01.000Z</time>
      </trkpt>
      <trkpt lat="43.63224" lon="1.307">
        <ele>144</ele>
        <time>2020-10-03T07:56:02.000Z</time>
      </trkpt>
      <trkpt lat="43.63221" lon="1.30698">
        <ele>144</ele>
        <time>2020-10-03T07:56:03.000Z</time>
      </trkpt>
      <trkpt lat="43.63219" lon="1.30696">
        <ele>144</ele>
        <time>2020-10-03T07:56:04.000Z</time>
      </trkpt>
      <trkpt lat="43.63217" lon="1.30693">
        <ele>144.24778831232</ele>
        <time>2020-10-03T07:56:05.000Z</time>
      </trkpt>
      <trkpt lat="43.63215" lon="1.3069">
        <ele>145</ele>
        <time>2020-10-03T07:56:06.000Z</time>
      </trkpt>
      <trkpt lat="43.63213" lon="1.30687">
        <ele>145</ele>
        <time>2020-10-03T07:56:07.000Z</time>
      </trkpt>
      <trkpt lat="43.63212" lon="1.30684">
        <ele>145</ele>
        <time>2020-10-03T07:56:08.000Z</time>
      </trkpt>
      <trkpt lat="43.6321" lon="1.30681">
        <ele>145</ele>
        <time>2020-10-03T07:56:09.000Z</time>
      </trkpt>
      <trkpt lat="43.6321" lon="1.30677">
        <ele>145</ele>
        <time>2020-10-03T07:56:10.000Z</time>
      </trkpt>
      <trkpt lat="43.63209" lon="1.30673">
        <ele>145</ele>
        <time>2020-10-03T07:56:11.000Z</time>
      </trkpt>
      <trkpt lat="43.63209" lon="1.30669">
        <ele>145</ele>
        <time>2020-10-03T07:56:12.000Z</time>
      </trkpt>
      <trkpt lat="43.63209" lon="1.30665">
        <ele>145.345680378</ele>
        <time>2020-10-03T07:56:13.000Z</time>
      </trkpt>
      <trkpt lat="43.63208" lon="1.30661">
        <ele>146</ele>
        <time>2020-10-03T07:56:14.000Z</time>
      </trkpt>
      <trkpt lat="43.63208" lon="1.30657">
        <ele>146</ele>
        <time>2020-10-03T07:56:15.000Z</time>
      </trkpt>
      <trkpt lat="43.63208" lon="1.30653">
        <ele>146</ele>
        <time>2020-10-03T07:56:16.000Z</time>
      </trkpt>
      <trkpt lat="43.63208" lon="1.3065">
        <ele>146</ele>
        <time>2020-10-03T07:56:17.000Z</time>
      </trkpt>
      <trkpt lat="43.63208" lon="1.30646">
        <ele>146</ele>
        <time>2020-10-03T07:56:18.000Z</time>
      </trkpt>
      <trkpt lat="43.63208" lon="1.30643">
        <ele>146</ele>
        <time>2020-10-03T07:56:19.000Z</time>
      </trkpt>
      <trkpt lat="43.63208" lon="1.3064">
        <ele>145.55789700612</ele>
        <time>2020-10-03T07:56:20.000Z</time>
      </trkpt>
      <trkpt lat="43.63208" lon="1.30636">
        <ele>145</ele>
        <time>2020-10-03T07:56:21.000Z</time>
      </trkpt>
      <trkpt lat="43.63207" lon="1.30633">
        <ele>145</ele>
        <time>2020-10-03T07:56:22.000Z</time>
      </trkpt>
      <trkpt lat="43.63207" lon="1.30629">
        <ele>145</ele>
        <time>2020-10-03T07:56:23.000Z</time>
      </trkpt>
      <trkpt lat="43.63207" lon="1.30625">
        <ele>145</ele>
        <time>2020-10-03T07:56:24.000Z</time>
      </trkpt>
      <trkpt lat="43.63207" lon="1.30621">
        <ele>145</ele>
        <time>2020-10-03T07:56:25.000Z</time>
      </trkpt>
      <trkpt lat="43.63208" lon="1.30617">
        <ele>145</ele>
        <time>2020-10-03T07:56:26.000Z</time>
      </trkpt>
      <trkpt lat="43.63207" lon="1.30613">
        <ele>144.57303936374</ele>
        <time>2020-10-03T07:56:27.000Z</time>
      </trkpt>
      <trkpt lat="43.63207" lon="1.30609">
        <ele>144</ele>
        <time>2020-10-03T07:56:28.000Z</time>
      </trkpt>
      <trkpt lat="43.63207" lon="1.30605">
        <ele>144.91304468807</ele>
        <time>2020-10-03T07:56:29.000Z</time>
      </trkpt>
      <trkpt lat="43.63207" lon="1.30602">
        <ele>146</ele>
        <time>2020-10-03T07:56:30.000Z</time>
      </trkpt>
      <trkpt lat="43.63207" lon="1.30598">
        <ele>146</ele>
        <time>2020-10-03T07:56:31.000Z</time>
      </trkpt>
      <trkpt lat="43.63207" lon="1.30594">
        <ele>146</ele>
        <time>2020-10-03T07:56:32.000Z</time>
      </trkpt>
      <trkpt lat="43.63207" lon="1.3059">
        <ele>146</ele>
        <time>2020-10-03T07:56:33.000Z</time>
      </trkpt>
      <trkpt lat="43.63207" lon="1.30586">
        <ele>146</ele>
        <time>2020-10-03T07:56:34.000Z</time>
      </trkpt>
      <trkpt lat="43.63206" lon="1.30582">
        <ele>146</ele>
        <time>2020-10-03T07:56:35.000Z</time>
      </trkpt>
      <trkpt lat="43.63205" lon="1.30578">
        <ele>146</ele>
        <time>2020-10-03T07:56:36.000Z</time>
      </trkpt>
      <trkpt lat="43.63205" lon="1.30574">
        <ele>146</ele>
        <time>2020-10-03T07:56:37.000Z</time>
      </trkpt>
      <trkpt lat="43.63204" lon="1.3057">
        <ele>146</ele>
        <time>2020-10-03T07:56:38.000Z</time>
      </trkpt>
      <trkpt lat="43.63204" lon="1.30566">
        <ele>146</ele>
        <time>2020-10-03T07:56:39.000Z</time>
      </trkpt>
      <trkpt lat="43.63204" lon="1.30562">
        <ele>146</ele>
        <time>2020-10-03T07:56:40.000Z</time>
      </trkpt>
      <trkpt lat="43.63204" lon="1.30558">
        <ele>146</ele>
        <time>2020-10-03T07:56:41.000Z</time>
      </trkpt>
      <trkpt lat="43.63204" lon="1.30554">
        <ele>146</ele>
        <time>2020-10-03T07:56:42.000Z</time>
      </trkpt>
      <trkpt lat="43.63204" lon="1.30551">
        <ele>146</ele>
        <time>2020-10-03T07:56:43.000Z</time>
      </trkpt>
      <trkpt lat="43.63204" lon="1.30547">
        <ele>146</ele>
        <time>2020-10-03T07:56:44.000Z</time>
      </trkpt>
      <trkpt lat="43.63204" lon="1.30543">
        <ele>146</ele>
        <time>2020-10-03T07:56:45.000Z</time>
      </trkpt>
      <trkpt lat="43.63204" lon="1.30539">
        <ele>146</ele>
        <time>2020-10-03T07:56:46.000Z</time>
      </trkpt>
      <trkpt lat="43.63204" lon="1.30534">
        <ele>146</ele>
        <time>2020-10-03T07:56:47.000Z</time>
      </trkpt>
      <trkpt lat="43.63204" lon="1.3053">
        <ele>146</ele>
        <time>2020-10-03T07:56:48.000Z</time>
      </trkpt>
      <trkpt lat="43.63204" lon="1.30526">
        <ele>146</ele>
        <time>2020-10-03T07:56:49.000Z</time>
      </trkpt>
      <trkpt lat="43.63204" lon="1.30523">
        <ele>145.62790974579</ele>
        <time>2020-10-03T07:56:50.000Z</time>
      </trkpt>
      <trkpt lat="43.63204" lon="1.30519">
        <ele>145</ele>
        <time>2020-10-03T07:56:51.000Z</time>
      </trkpt>
      <trkpt lat="43.63204" lon="1.30515">
        <ele>145.37837588505</ele>
        <time>2020-10-03T07:56:52.000Z</time>
      </trkpt>
      <trkpt lat="43.63204" lon="1.30511">
        <ele>146</ele>
        <time>2020-10-03T07:56:53.000Z</time>
      </trkpt>
      <trkpt lat="43.63203" lon="1.30507">
        <ele>146</ele>
        <time>2020-10-03T07:56:54.000Z</time>
      </trkpt>
      <trkpt lat="43.63203" lon="1.30502">
        <ele>146</ele>
        <time>2020-10-03T07:56:55.000Z</time>
      </trkpt>
      <trkpt lat="43.63203" lon="1.30498">
        <ele>146</ele>
        <time>2020-10-03T07:56:56.000Z</time>
      </trkpt>
      <trkpt lat="43.63203" lon="1.30495">
        <ele>146</ele>
        <time>2020-10-03T07:56:57.000Z</time>
      </trkpt>
      <trkpt lat="43.63203" lon="1.3049">
        <ele>146</ele>
        <time>2020-10-03T07:56:58.000Z</time>
      </trkpt>
      <trkpt lat="43.63203" lon="1.30486">
        <ele>146</ele>
        <time>2020-10-03T07:56:59.000Z</time>
      </trkpt>
      <trkpt lat="43.63202" lon="1.30483">
        <ele>145.5545457719</ele>
        <time>2020-10-03T07:57:00.000Z</time>
      </trkpt>
      <trkpt lat="43.63202" lon="1.30479">
        <ele>145</ele>
        <time>2020-10-03T07:57:01.000Z</time>
      </trkpt>
      <trkpt lat="43.63202" lon="1.30475">
        <ele>145.23684358263</ele>
        <time>2020-10-03T07:57:02.000Z</time>
      </trkpt>
      <trkpt lat="43.63201" lon="1.30471">
        <ele>146</ele>
        <time>2020-10-03T07:57:03.000Z</time>
      </trkpt>
      <trkpt lat="43.63201" lon="1.30467">
        <ele>146</ele>
        <time>2020-10-03T07:57:04.000Z</time>
      </trkpt>
      <trkpt lat="43.63201" lon="1.30463">
        <ele>146</ele>
        <time>2020-10-03T07:57:05.000Z</time>
      </trkpt>
      <trkpt lat="43.63201" lon="1.30459">
        <ele>146</ele>
        <time>2020-10-03T07:57:06.000Z</time>
      </trkpt>
      <trkpt lat="43.63201" lon="1.30455">
        <ele>146</ele>
        <time>2020-10-03T07:57:07.000Z</time>
      </trkpt>
      <trkpt lat="43.63201" lon="1.30451">
        <ele>146</ele>
        <time>2020-10-03T07:57:08.000Z</time>
      </trkpt>
      <trkpt lat="43.63201" lon="1.30447">
        <ele>146</ele>
        <time>2020-10-03T07:57:09.000Z</time>
      </trkpt>
      <trkpt lat="43.63201" lon="1.30443">
        <ele>146</ele>
        <time>2020-10-03T07:57:10.000Z</time>
      </trkpt>
      <trkpt lat="43.63201" lon="1.30439">
        <ele>146</ele>
        <time>2020-10-03T07:57:11.000Z</time>
      </trkpt>
      <trkpt lat="43.63201" lon="1.30435">
        <ele>146</ele>
        <time>2020-10-03T07:57:12.000Z</time>
      </trkpt>
      <trkpt lat="43.63199" lon="1.30431">
        <ele>146</ele>
        <time>2020-10-03T07:57:13.000Z</time>
      </trkpt>
      <trkpt lat="43.63198" lon="1.30428">
        <ele>146</ele>
        <time>2020-10-03T07:57:14.000Z</time>
      </trkpt>
      <trkpt lat="43.63196" lon="1.30425">
        <ele>146</ele>
        <time>2020-10-03T07:57:15.000Z</time>
      </trkpt>
      <trkpt lat="43.63194" lon="1.30423">
        <ele>146</ele>
        <time>2020-10-03T07:57:16.000Z</time>
      </trkpt>
      <trkpt lat="43.63191" lon="1.30421">
        <ele>146</ele>
        <time>2020-10-03T07:57:17.000Z</time>
      </trkpt>
      <trkpt lat="43.63189" lon="1.30419">
        <ele>146</ele>
        <time>2020-10-03T07:57:18.000Z</time>
      </trkpt>
      <trkpt lat="43.63186" lon="1.30417">
        <ele>146</ele>
        <time>2020-10-03T07:57:19.000Z</time>
      </trkpt>
      <trkpt lat="43.63184" lon="1.30415">
        <ele>146</ele>
        <time>2020-10-03T07:57:20.000Z</time>
      </trkpt>
      <trkpt lat="43.63181" lon="1.30413">
        <ele>146</ele>
        <time>2020-10-03T07:57:21.000Z</time>
      </trkpt>
      <trkpt lat="43.63176" lon="1.30409">
        <ele>146</ele>
        <time>2020-10-03T07:57:23.000Z</time>
      </trkpt>
      <trkpt lat="43.63174" lon="1.30406">
        <ele>146</ele>
        <time>2020-10-03T07:57:24.000Z</time>
      </trkpt>
      <trkpt lat="43.63171" lon="1.30404">
        <ele>146</ele>
        <time>2020-10-03T07:57:25.000Z</time>
      </trkpt>
      <trkpt lat="43.63169" lon="1.30402">
        <ele>146</ele>
        <time>2020-10-03T07:57:26.000Z</time>
      </trkpt>
      <trkpt lat="43.63166" lon="1.304">
        <ele>146</ele>
        <time>2020-10-03T07:57:27.000Z</time>
      </trkpt>
      <trkpt lat="43.63164" lon="1.30399">
        <ele>146</ele>
        <time>2020-10-03T07:57:28.000Z</time>
      </trkpt>
      <trkpt lat="43.63161" lon="1.30398">
        <ele>146.5</ele>
        <time>2020-10-03T07:57:29.000Z</time>
      </trkpt>
      <trkpt lat="43.63158" lon="1.30397">
        <ele>147</ele>
        <time>2020-10-03T07:57:30.000Z</time>
      </trkpt>
      <trkpt lat="43.63156" lon="1.30397">
        <ele>147.13491878054</ele>
        <time>2020-10-03T07:57:31.000Z</time>
      </trkpt>
      <trkpt lat="43.63154" lon="1.30398">
        <ele>147.92857360545</ele>
        <time>2020-10-03T07:57:32.000Z</time>
      </trkpt>
      <trkpt lat="43.63151" lon="1.30399">
        <ele>148</ele>
        <time>2020-10-03T07:57:33.000Z</time>
      </trkpt>
      <trkpt lat="43.63149" lon="1.304">
        <ele>148</ele>
        <time>2020-10-03T07:57:34.000Z</time>
      </trkpt>
      <trkpt lat="43.63147" lon="1.30401">
        <ele>148</ele>
        <time>2020-10-03T07:57:35.000Z</time>
      </trkpt>
      <trkpt lat="43.63146" lon="1.30403">
        <ele>148</ele>
        <time>2020-10-03T07:57:36.000Z</time>
      </trkpt>
      <trkpt lat="43.63144" lon="1.30404">
        <ele>147.65420549568</ele>
        <time>2020-10-03T07:57:37.000Z</time>
      </trkpt>
      <trkpt lat="43.63142" lon="1.30406">
        <ele>147</ele>
        <time>2020-10-03T07:57:38.000Z</time>
      </trkpt>
      <trkpt lat="43.6314" lon="1.30408">
        <ele>147</ele>
        <time>2020-10-03T07:57:39.000Z</time>
      </trkpt>
      <trkpt lat="43.63138" lon="1.3041">
        <ele>147</ele>
        <time>2020-10-03T07:57:40.000Z</time>
      </trkpt>
      <trkpt lat="43.63136" lon="1.30412">
        <ele>147</ele>
        <time>2020-10-03T07:57:41.000Z</time>
      </trkpt>
      <trkpt lat="43.63134" lon="1.30413">
        <ele>147</ele>
        <time>2020-10-03T07:57:42.000Z</time>
      </trkpt>
      <trkpt lat="43.63132" lon="1.30415">
        <ele>147</ele>
        <time>2020-10-03T07:57:43.000Z</time>
      </trkpt>
      <trkpt lat="43.6313" lon="1.30418">
        <ele>147</ele>
        <time>2020-10-03T07:57:44.000Z</time>
      </trkpt>
      <trkpt lat="43.63128" lon="1.30421">
        <ele>147</ele>
        <time>2020-10-03T07:57:45.000Z</time>
      </trkpt>
      <trkpt lat="43.63126" lon="1.30425">
        <ele>147</ele>
        <time>2020-10-03T07:57:46.000Z</time>
      </trkpt>
      <trkpt lat="43.63124" lon="1.30428">
        <ele>147</ele>
        <time>2020-10-03T07:57:47.000Z</time>
      </trkpt>
      <trkpt lat="43.63122" lon="1.30432">
        <ele>147</ele>
        <time>2020-10-03T07:57:48.000Z</time>
      </trkpt>
      <trkpt lat="43.63121" lon="1.30435">
        <ele>147</ele>
        <time>2020-10-03T07:57:49.000Z</time>
      </trkpt>
      <trkpt lat="43.63119" lon="1.30439">
        <ele>147</ele>
        <time>2020-10-03T07:57:50.000Z</time>
      </trkpt>
      <trkpt lat="43.63117" lon="1.30442">
        <ele>147</ele>
        <time>2020-10-03T07:57:51.000Z</time>
      </trkpt>
      <trkpt lat="43.63115" lon="1.30445">
        <ele>147</ele>
        <time>2020-10-03T07:57:52.000Z</time>
      </trkpt>
      <trkpt lat="43.63112" lon="1.30449">
        <ele>147</ele>
        <time>2020-10-03T07:57:53.000Z</time>
      </trkpt>
      <trkpt lat="43.6311" lon="1.30451">
        <ele>147</ele>
        <time>2020-10-03T07:57:54.000Z</time>
      </trkpt>
      <trkpt lat="43.63108" lon="1.30454">
        <ele>147</ele>
        <time>2020-10-03T07:57:55.000Z</time>
      </trkpt>
      <trkpt lat="43.63106" lon="1.30456">
        <ele>147</ele>
        <time>2020-10-03T07:57:56.000Z</time>
      </trkpt>
      <trkpt lat="43.63104" lon="1.30458">
        <ele>147</ele>
        <time>2020-10-03T07:57:57.000Z</time>
      </trkpt>
      <trkpt lat="43.63102" lon="1.30459">
        <ele>147</ele>
        <time>2020-10-03T07:57:58.000Z</time>
      </trkpt>
      <trkpt lat="43.631" lon="1.30461">
        <ele>147</ele>
        <time>2020-10-03T07:57:59.000Z</time>
      </trkpt>
      <trkpt lat="43.63098" lon="1.30462">
        <ele>147</ele>
        <time>2020-10-03T07:58:00.000Z</time>
      </trkpt>
      <trkpt lat="43.63095" lon="1.30463">
        <ele>147</ele>
        <time>2020-10-03T07:58:01.000Z</time>
      </trkpt>
      <trkpt lat="43.63092" lon="1.30463">
        <ele>147</ele>
        <time>2020-10-03T07:58:02.000Z</time>
      </trkpt>
      <trkpt lat="43.63089" lon="1.30464">
        <ele>147</ele>
        <time>2020-10-03T07:58:03.000Z</time>
      </trkpt>
      <trkpt lat="43.63086" lon="1.30464">
        <ele>147</ele>
        <time>2020-10-03T07:58:04.000Z</time>
      </trkpt>
      <trkpt lat="43.63083" lon="1.30464">
        <ele>147</ele>
        <time>2020-10-03T07:58:05.000Z</time>
      </trkpt>
      <trkpt lat="43.6308" lon="1.30463">
        <ele>147</ele>
        <time>2020-10-03T07:58:06.000Z</time>
      </trkpt>
      <trkpt lat="43.63077" lon="1.30463">
        <ele>147</ele>
        <time>2020-10-03T07:58:07.000Z</time>
      </trkpt>
      <trkpt lat="43.63075" lon="1.30461">
        <ele>147</ele>
        <time>2020-10-03T07:58:08.000Z</time>
      </trkpt>
      <trkpt lat="43.63072" lon="1.3046">
        <ele>147</ele>
        <time>2020-10-03T07:58:09.000Z</time>
      </trkpt>
      <trkpt lat="43.6307" lon="1.30459">
        <ele>147</ele>
        <time>2020-10-03T07:58:10.000Z</time>
      </trkpt>
      <trkpt lat="43.63067" lon="1.30457">
        <ele>147</ele>
        <time>2020-10-03T07:58:11.000Z</time>
      </trkpt>
      <trkpt lat="43.63065" lon="1.30455">
        <ele>147</ele>
        <time>2020-10-03T07:58:12.000Z</time>
      </trkpt>
      <trkpt lat="43.63063" lon="1.30455">
        <ele>147</ele>
        <time>2020-10-03T07:58:13.000Z</time>
      </trkpt>
      <trkpt lat="43.6306" lon="1.30453">
        <ele>146.64772363636</ele>
        <time>2020-10-03T07:58:14.000Z</time>
      </trkpt>
      <trkpt lat="43.63057" lon="1.30451">
        <ele>146</ele>
        <time>2020-10-03T07:58:15.000Z</time>
      </trkpt>
      <trkpt lat="43.63054" lon="1.3045">
        <ele>146</ele>
        <time>2020-10-03T07:58:16.000Z</time>
      </trkpt>
      <trkpt lat="43.63052" lon="1.30448">
        <ele>146</ele>
        <time>2020-10-03T07:58:17.000Z</time>
      </trkpt>
      <trkpt lat="43.63049" lon="1.30446">
        <ele>146</ele>
        <time>2020-10-03T07:58:18.000Z</time>
      </trkpt>
      <trkpt lat="43.63047" lon="1.30444">
        <ele>146</ele>
        <time>2020-10-03T07:58:19.000Z</time>
      </trkpt>
      <trkpt lat="43.63044" lon="1.30441">
        <ele>146</ele>
        <time>2020-10-03T07:58:20.000Z</time>
      </trkpt>
      <trkpt lat="43.63041" lon="1.30438">
        <ele>146</ele>
        <time>2020-10-03T07:58:21.000Z</time>
      </trkpt>
      <trkpt lat="43.63039" lon="1.30434">
        <ele>146.36936542165</ele>
        <time>2020-10-03T07:58:22.000Z</time>
      </trkpt>
      <trkpt lat="43.63037" lon="1.30431">
        <ele>147</ele>
        <time>2020-10-03T07:58:23.000Z</time>
      </trkpt>
      <trkpt lat="43.63035" lon="1.30428">
        <ele>147</ele>
        <time>2020-10-03T07:58:24.000Z</time>
      </trkpt>
      <trkpt lat="43.63033" lon="1.30424">
        <ele>147</ele>
        <time>2020-10-03T07:58:25.000Z</time>
      </trkpt>
      <trkpt lat="43.63031" lon="1.30421">
        <ele>147</ele>
        <time>2020-10-03T07:58:26.000Z</time>
      </trkpt>
      <trkpt lat="43.63029" lon="1.30418">
        <ele>147</ele>
        <time>2020-10-03T07:58:27.000Z</time>
      </trkpt>
      <trkpt lat="43.63027" lon="1.30415">
        <ele>147</ele>
        <time>2020-10-03T07:58:28.000Z</time>
      </trkpt>
      <trkpt lat="43.63025" lon="1.30413">
        <ele>147</ele>
        <time>2020-10-03T07:58:29.000Z</time>
      </trkpt>
      <trkpt lat="43.63023" lon="1.30411">
        <ele>147</ele>
        <time>2020-10-03T07:58:30.000Z</time>
      </trkpt>
      <trkpt lat="43.63021" lon="1.30408">
        <ele>147</ele>
        <time>2020-10-03T07:58:31.000Z</time>
      </trkpt>
      <trkpt lat="43.63018" lon="1.30406">
        <ele>147</ele>
        <time>2020-10-03T07:58:32.000Z</time>
      </trkpt>
      <trkpt lat="43.63016" lon="1.30404">
        <ele>147</ele>
        <time>2020-10-03T07:58:33.000Z</time>
      </trkpt>
      <trkpt lat="43.63014" lon="1.30402">
        <ele>147.29926843625</ele>
        <time>2020-10-03T07:58:34.000Z</time>
      </trkpt>
      <trkpt lat="43.63012" lon="1.304">
        <ele>148</ele>
        <time>2020-10-03T07:58:35.000Z</time>
      </trkpt>
      <trkpt lat="43.63011" lon="1.30397">
        <ele>148</ele>
        <time>2020-10-03T07:58:36.000Z</time>
      </trkpt>
      <trkpt lat="43.63009" lon="1.30394">
        <ele>148</ele>
        <time>2020-10-03T07:58:37.000Z</time>
      </trkpt>
      <trkpt lat="43.63007" lon="1.30392">
        <ele>148</ele>
        <time>2020-10-03T07:58:38.000Z</time>
      </trkpt>
      <trkpt lat="43.63005" lon="1.30389">
        <ele>148</ele>
        <time>2020-10-03T07:58:39.000Z</time>
      </trkpt>
      <trkpt lat="43.63004" lon="1.30387">
        <ele>148</ele>
        <time>2020-10-03T07:58:40.000Z</time>
      </trkpt>
      <trkpt lat="43.63002" lon="1.30384">
        <ele>148</ele>
        <time>2020-10-03T07:58:41.000Z</time>
      </trkpt>
      <trkpt lat="43.63" lon="1.30381">
        <ele>148</ele>
        <time>2020-10-03T07:58:42.000Z</time>
      </trkpt>
      <trkpt lat="43.62999" lon="1.30378">
        <ele>148</ele>
        <time>2020-10-03T07:58:43.000Z</time>
      </trkpt>
      <trkpt lat="43.62997" lon="1.30374">
        <ele>147.58822997922</ele>
        <time>2020-10-03T07:58:44.000Z</time>
      </trkpt>
      <trkpt lat="43.62995" lon="1.30371">
        <ele>147</ele>
        <time>2020-10-03T07:58:45.000Z</time>
      </trkpt>
      <trkpt lat="43.62993" lon="1.30368">
        <ele>147</ele>
        <time>2020-10-03T07:58:46.000Z</time>
      </trkpt>
      <trkpt lat="43.62991" lon="1.30365">
        <ele>147</ele>
        <time>2020-10-03T07:58:47.000Z</time>
      </trkpt>
      <trkpt lat="43.62989" lon="1.30362">
        <ele>147</ele>
        <time>2020-10-03T07:58:48.000Z</time>
      </trkpt>
      <trkpt lat="43.62988" lon="1.30358">
        <ele>147</ele>
        <time>2020-10-03T07:58:49.000Z</time>
      </trkpt>
      <trkpt lat="43.62987" lon="1.30355">
        <ele>147</ele>
        <time>2020-10-03T07:58:50.000Z</time>
      </trkpt>
      <trkpt lat="43.62985" lon="1.30352">
        <ele>147</ele>
        <time>2020-10-03T07:58:51.000Z</time>
      </trkpt>
      <trkpt lat="43.62983" lon="1.30349">
        <ele>147</ele>
        <time>2020-10-03T07:58:52.000Z</time>
      </trkpt>
      <trkpt lat="43.62981" lon="1.30347">
        <ele>147</ele>
        <time>2020-10-03T07:58:53.000Z</time>
      </trkpt>
      <trkpt lat="43.62979" lon="1.30344">
        <ele>147</ele>
        <time>2020-10-03T07:58:54.000Z</time>
      </trkpt>
      <trkpt lat="43.62977" lon="1.30343">
        <ele>147.45161512311</ele>
        <time>2020-10-03T07:58:55.000Z</time>
      </trkpt>
      <trkpt lat="43.62974" lon="1.30341">
        <ele>148</ele>
        <time>2020-10-03T07:58:56.000Z</time>
      </trkpt>
      <trkpt lat="43.62972" lon="1.30339">
        <ele>148</ele>
        <time>2020-10-03T07:58:57.000Z</time>
      </trkpt>
      <trkpt lat="43.6297" lon="1.30337">
        <ele>148</ele>
        <time>2020-10-03T07:58:58.000Z</time>
      </trkpt>
      <trkpt lat="43.62968" lon="1.30335">
        <ele>148</ele>
        <time>2020-10-03T07:58:59.000Z</time>
      </trkpt>
      <trkpt lat="43.62966" lon="1.30332">
        <ele>148</ele>
        <time>2020-10-03T07:59:00.000Z</time>
      </trkpt>
      <trkpt lat="43.62964" lon="1.30329">
        <ele>148</ele>
        <time>2020-10-03T07:59:01.000Z</time>
      </trkpt>
      <trkpt lat="43.62962" lon="1.30325">
        <ele>148</ele>
        <time>2020-10-03T07:59:02.000Z</time>
      </trkpt>
      <trkpt lat="43.6296" lon="1.30322">
        <ele>148</ele>
        <time>2020-10-03T07:59:03.000Z</time>
      </trkpt>
      <trkpt lat="43.62959" lon="1.30319">
        <ele>148</ele>
        <time>2020-10-03T07:59:04.000Z</time>
      </trkpt>
      <trkpt lat="43.62958" lon="1.30315">
        <ele>148</ele>
        <time>2020-10-03T07:59:05.000Z</time>
      </trkpt>
      <trkpt lat="43.62957" lon="1.30312">
        <ele>148</ele>
        <time>2020-10-03T07:59:06.000Z</time>
      </trkpt>
      <trkpt lat="43.62956" lon="1.30308">
        <ele>148</ele>
        <time>2020-10-03T07:59:07.000Z</time>
      </trkpt>
      <trkpt lat="43.62954" lon="1.30304">
        <ele>148</ele>
        <time>2020-10-03T07:59:08.000Z</time>
      </trkpt>
      <trkpt lat="43.62953" lon="1.30301">
        <ele>148</ele>
        <time>2020-10-03T07:59:09.000Z</time>
      </trkpt>
      <trkpt lat="43.62952" lon="1.30297">
        <ele>148</ele>
        <time>2020-10-03T07:59:10.000Z</time>
      </trkpt>
      <trkpt lat="43.62951" lon="1.30293">
        <ele>148</ele>
        <time>2020-10-03T07:59:11.000Z</time>
      </trkpt>
      <trkpt lat="43.6295" lon="1.3029">
        <ele>148</ele>
        <time>2020-10-03T07:59:12.000Z</time>
      </trkpt>
      <trkpt lat="43.62949" lon="1.30286">
        <ele>148</ele>
        <time>2020-10-03T07:59:13.000Z</time>
      </trkpt>
      <trkpt lat="43.62947" lon="1.30283">
        <ele>148</ele>
        <time>2020-10-03T07:59:14.000Z</time>
      </trkpt>
      <trkpt lat="43.62945" lon="1.30281">
        <ele>148</ele>
        <time>2020-10-03T07:59:15.000Z</time>
      </trkpt>
      <trkpt lat="43.62942" lon="1.30279">
        <ele>148</ele>
        <time>2020-10-03T07:59:16.000Z</time>
      </trkpt>
      <trkpt lat="43.6294" lon="1.30278">
        <ele>148</ele>
        <time>2020-10-03T07:59:17.000Z</time>
      </trkpt>
      <trkpt lat="43.62937" lon="1.30276">
        <ele>147.64814639234</ele>
        <time>2020-10-03T07:59:18.000Z</time>
      </trkpt>
      <trkpt lat="43.62935" lon="1.30275">
        <ele>147</ele>
        <time>2020-10-03T07:59:19.000Z</time>
      </trkpt>
      <trkpt lat="43.62933" lon="1.30273">
        <ele>147</ele>
        <time>2020-10-03T07:59:20.000Z</time>
      </trkpt>
      <trkpt lat="43.62931" lon="1.30272">
        <ele>147</ele>
        <time>2020-10-03T07:59:21.000Z</time>
      </trkpt>
      <trkpt lat="43.62929" lon="1.30271">
        <ele>147</ele>
        <time>2020-10-03T07:59:22.000Z</time>
      </trkpt>
      <trkpt lat="43.62927" lon="1.30271">
        <ele>147</ele>
        <time>2020-10-03T07:59:23.000Z</time>
      </trkpt>
      <trkpt lat="43.62924" lon="1.3027">
        <ele>147</ele>
        <time>2020-10-03T07:59:24.000Z</time>
      </trkpt>
      <trkpt lat="43.62922" lon="1.30269">
        <ele>147</ele>
        <time>2020-10-03T07:59:25.000Z</time>
      </trkpt>
      <trkpt lat="43.6292" lon="1.30268">
        <ele>146.59302256355</ele>
        <time>2020-10-03T07:59:26.000Z</time>
      </trkpt>
      <trkpt lat="43.62917" lon="1.30267">
        <ele>146</ele>
        <time>2020-10-03T07:59:27.000Z</time>
      </trkpt>
      <trkpt lat="43.62914" lon="1.30265">
        <ele>146</ele>
        <time>2020-10-03T07:59:28.000Z</time>
      </trkpt>
      <trkpt lat="43.62912" lon="1.30263">
        <ele>146</ele>
        <time>2020-10-03T07:59:29.000Z</time>
      </trkpt>
      <trkpt lat="43.62909" lon="1.30261">
        <ele>146</ele>
        <time>2020-10-03T07:59:30.000Z</time>
      </trkpt>
      <trkpt lat="43.62907" lon="1.3026">
        <ele>146</ele>
        <time>2020-10-03T07:59:31.000Z</time>
      </trkpt>
      <trkpt lat="43.62904" lon="1.30259">
        <ele>146.35632420662</ele>
        <time>2020-10-03T07:59:32.000Z</time>
      </trkpt>
      <trkpt lat="43.62902" lon="1.30258">
        <ele>147</ele>
        <time>2020-10-03T07:59:33.000Z</time>
      </trkpt>
      <trkpt lat="43.629" lon="1.30256">
        <ele>147</ele>
        <time>2020-10-03T07:59:34.000Z</time>
      </trkpt>
      <trkpt lat="43.62897" lon="1.30256">
        <ele>147</ele>
        <time>2020-10-03T07:59:35.000Z</time>
      </trkpt>
      <trkpt lat="43.62894" lon="1.30255">
        <ele>147</ele>
        <time>2020-10-03T07:59:36.000Z</time>
      </trkpt>
      <trkpt lat="43.62891" lon="1.30253">
        <ele>147</ele>
        <time>2020-10-03T07:59:37.000Z</time>
      </trkpt>
      <trkpt lat="43.62888" lon="1.30252">
        <ele>147</ele>
        <time>2020-10-03T07:59:38.000Z</time>
      </trkpt>
      <trkpt lat="43.62885" lon="1.3025">
        <ele>147</ele>
        <time>2020-10-03T07:59:39.000Z</time>
      </trkpt>
      <trkpt lat="43.62882" lon="1.30249">
        <ele>147</ele>
        <time>2020-10-03T07:59:40.000Z</time>
      </trkpt>
      <trkpt lat="43.62879" lon="1.30248">
        <ele>147</ele>
        <time>2020-10-03T07:59:41.000Z</time>
      </trkpt>
      <trkpt lat="43.62876" lon="1.30246">
        <ele>147</ele>
        <time>2020-10-03T07:59:42.000Z</time>
      </trkpt>
      <trkpt lat="43.62874" lon="1.30245">
        <ele>147</ele>
        <time>2020-10-03T07:59:43.000Z</time>
      </trkpt>
      <trkpt lat="43.62871" lon="1.30243">
        <ele>147</ele>
        <time>2020-10-03T07:59:44.000Z</time>
      </trkpt>
      <trkpt lat="43.62868" lon="1.30242">
        <ele>147</ele>
        <time>2020-10-03T07:59:45.000Z</time>
      </trkpt>
      <trkpt lat="43.62866" lon="1.30241">
        <ele>147</ele>
        <time>2020-10-03T07:59:46.000Z</time>
      </trkpt>
      <trkpt lat="43.62863" lon="1.30239">
        <ele>147</ele>
        <time>2020-10-03T07:59:47.000Z</time>
      </trkpt>
      <trkpt lat="43.62861" lon="1.30238">
        <ele>147</ele>
        <time>2020-10-03T07:59:48.000Z</time>
      </trkpt>
      <trkpt lat="43.62858" lon="1.30237">
        <ele>147</ele>
        <time>2020-10-03T07:59:49.000Z</time>
      </trkpt>
      <trkpt lat="43.62855" lon="1.30235">
        <ele>146.62500571429</ele>
        <time>2020-10-03T07:59:50.000Z</time>
      </trkpt>
      <trkpt lat="43.62852" lon="1.30233">
        <ele>146</ele>
        <time>2020-10-03T07:59:51.000Z</time>
      </trkpt>
      <trkpt lat="43.6285" lon="1.30231">
        <ele>146</ele>
        <time>2020-10-03T07:59:52.000Z</time>
      </trkpt>
      <trkpt lat="43.62847" lon="1.30228">
        <ele>146</ele>
        <time>2020-10-03T07:59:53.000Z</time>
      </trkpt>
      <trkpt lat="43.62845" lon="1.30226">
        <ele>146</ele>
        <time>2020-10-03T07:59:54.000Z</time>
      </trkpt>
      <trkpt lat="43.62843" lon="1.30224">
        <ele>146</ele>
        <time>2020-10-03T07:59:55.000Z</time>
      </trkpt>
      <trkpt lat="43.6284" lon="1.30223">
        <ele>146</ele>
        <time>2020-10-03T07:59:56.000Z</time>
      </trkpt>
      <trkpt lat="43.62837" lon="1.30221">
        <ele>146</ele>
        <time>2020-10-03T07:59:57.000Z</time>
      </trkpt>
      <trkpt lat="43.62835" lon="1.3022">
        <ele>146</ele>
        <time>2020-10-03T07:59:58.000Z</time>
      </trkpt>
      <trkpt lat="43.62832" lon="1.3022">
        <ele>146</ele>
        <time>2020-10-03T07:59:59.000Z</time>
      </trkpt>
      <trkpt lat="43.6283" lon="1.3022">
        <ele>146.35507179164</ele>
        <time>2020-10-03T08:00:00.000Z</time>
      </trkpt>
      <trkpt lat="43.62828" lon="1.30219">
        <ele>147</ele>
        <time>2020-10-03T08:00:01.000Z</time>
      </trkpt>
      <trkpt lat="43.62825" lon="1.30219">
        <ele>147</ele>
        <time>2020-10-03T08:00:02.000Z</time>
      </trkpt>
      <trkpt lat="43.62822" lon="1.30218">
        <ele>147</ele>
        <time>2020-10-03T08:00:03.000Z</time>
      </trkpt>
      <trkpt lat="43.6282" lon="1.30218">
        <ele>147</ele>
        <time>2020-10-03T08:00:04.000Z</time>
      </trkpt>
      <trkpt lat="43.62817" lon="1.30217">
        <ele>147</ele>
        <time>2020-10-03T08:00:05.000Z</time>
      </trkpt>
      <trkpt lat="43.62814" lon="1.30216">
        <ele>147</ele>
        <time>2020-10-03T08:00:06.000Z</time>
      </trkpt>
      <trkpt lat="43.62811" lon="1.30215">
        <ele>147</ele>
        <time>2020-10-03T08:00:07.000Z</time>
      </trkpt>
      <trkpt lat="43.62808" lon="1.30214">
        <ele>147</ele>
        <time>2020-10-03T08:00:08.000Z</time>
      </trkpt>
      <trkpt lat="43.62805" lon="1.30213">
        <ele>147</ele>
        <time>2020-10-03T08:00:09.000Z</time>
      </trkpt>
      <trkpt lat="43.62803" lon="1.30212">
        <ele>147</ele>
        <time>2020-10-03T08:00:10.000Z</time>
      </trkpt>
      <trkpt lat="43.62799" lon="1.30211">
        <ele>147</ele>
        <time>2020-10-03T08:00:11.000Z</time>
      </trkpt>
      <trkpt lat="43.62797" lon="1.3021">
        <ele>147</ele>
        <time>2020-10-03T08:00:12.000Z</time>
      </trkpt>
      <trkpt lat="43.62794" lon="1.3021">
        <ele>147</ele>
        <time>2020-10-03T08:00:13.000Z</time>
      </trkpt>
      <trkpt lat="43.62791" lon="1.30209">
        <ele>147</ele>
        <time>2020-10-03T08:00:14.000Z</time>
      </trkpt>
      <trkpt lat="43.62788" lon="1.30208">
        <ele>147</ele>
        <time>2020-10-03T08:00:15.000Z</time>
      </trkpt>
      <trkpt lat="43.62785" lon="1.30206">
        <ele>147</ele>
        <time>2020-10-03T08:00:16.000Z</time>
      </trkpt>
      <trkpt lat="43.62783" lon="1.30205">
        <ele>147</ele>
        <time>2020-10-03T08:00:17.000Z</time>
      </trkpt>
      <trkpt lat="43.6278" lon="1.30204">
        <ele>147</ele>
        <time>2020-10-03T08:00:18.000Z</time>
      </trkpt>
      <trkpt lat="43.62777" lon="1.30203">
        <ele>147</ele>
        <time>2020-10-03T08:00:19.000Z</time>
      </trkpt>
      <trkpt lat="43.62775" lon="1.30201">
        <ele>147</ele>
        <time>2020-10-03T08:00:20.000Z</time>
      </trkpt>
      <trkpt lat="43.62772" lon="1.30201">
        <ele>147.44444128397</ele>
        <time>2020-10-03T08:00:21.000Z</time>
      </trkpt>
      <trkpt lat="43.6277" lon="1.302">
        <ele>148</ele>
        <time>2020-10-03T08:00:22.000Z</time>
      </trkpt>
      <trkpt lat="43.62767" lon="1.302">
        <ele>148</ele>
        <time>2020-10-03T08:00:23.000Z</time>
      </trkpt>
      <trkpt lat="43.62764" lon="1.30201">
        <ele>148</ele>
        <time>2020-10-03T08:00:24.000Z</time>
      </trkpt>
      <trkpt lat="43.62761" lon="1.30201">
        <ele>148</ele>
        <time>2020-10-03T08:00:25.000Z</time>
      </trkpt>
      <trkpt lat="43.62759" lon="1.30202">
        <ele>148</ele>
        <time>2020-10-03T08:00:26.000Z</time>
      </trkpt>
      <trkpt lat="43.62756" lon="1.30203">
        <ele>148</ele>
        <time>2020-10-03T08:00:27.000Z</time>
      </trkpt>
      <trkpt lat="43.62753" lon="1.30204">
        <ele>148</ele>
        <time>2020-10-03T08:00:28.000Z</time>
      </trkpt>
      <trkpt lat="43.62751" lon="1.30205">
        <ele>148</ele>
        <time>2020-10-03T08:00:29.000Z</time>
      </trkpt>
      <trkpt lat="43.62747" lon="1.30206">
        <ele>148</ele>
        <time>2020-10-03T08:00:30.000Z</time>
      </trkpt>
      <trkpt lat="43.62745" lon="1.30205">
        <ele>148</ele>
        <time>2020-10-03T08:00:31.000Z</time>
      </trkpt>
      <trkpt lat="43.62743" lon="1.30202">
        <ele>148</ele>
        <time>2020-10-03T08:00:32.000Z</time>
      </trkpt>
      <trkpt lat="43.62743" lon="1.30198">
        <ele>148</ele>
        <time>2020-10-03T08:00:33.000Z</time>
      </trkpt>
      <trkpt lat="43.62743" lon="1.30193">
        <ele>147.59523954651</ele>
        <time>2020-10-03T08:00:34.000Z</time>
      </trkpt>
      <trkpt lat="43.62744" lon="1.3019">
        <ele>147</ele>
        <time>2020-10-03T08:00:35.000Z</time>
      </trkpt>
      <trkpt lat="43.62746" lon="1.30186">
        <ele>147</ele>
        <time>2020-10-03T08:00:36.000Z</time>
      </trkpt>
      <trkpt lat="43.62747" lon="1.30184">
        <ele>147</ele>
        <time>2020-10-03T08:00:37.000Z</time>
      </trkpt>
      <trkpt lat="43.62749" lon="1.30181">
        <ele>147</ele>
        <time>2020-10-03T08:00:38.000Z</time>
      </trkpt>
      <trkpt lat="43.62751" lon="1.30179">
        <ele>147</ele>
        <time>2020-10-03T08:00:39.000Z</time>
      </trkpt>
      <trkpt lat="43.62752" lon="1.30177">
        <ele>147</ele>
        <time>2020-10-03T08:00:40.000Z</time>
      </trkpt>
      <trkpt lat="43.62754" lon="1.30175">
        <ele>147.26027949712</ele>
        <time>2020-10-03T08:00:41.000Z</time>
      </trkpt>
      <trkpt lat="43.62755" lon="1.30173">
        <ele>148</ele>
        <time>2020-10-03T08:00:42.000Z</time>
      </trkpt>
      <trkpt lat="43.62757" lon="1.30171">
        <ele>148</ele>
        <time>2020-10-03T08:00:43.000Z</time>
      </trkpt>
      <trkpt lat="43.62758" lon="1.30169">
        <ele>148.43478067295</ele>
        <time>2020-10-03T08:00:44.000Z</time>
      </trkpt>
      <trkpt lat="43.6276" lon="1.30167">
        <ele>149</ele>
        <time>2020-10-03T08:00:46.000Z</time>
      </trkpt>
      <trkpt lat="43.62761" lon="1.30164">
        <ele>149</ele>
        <time>2020-10-03T08:00:52.000Z</time>
      </trkpt>
      <trkpt lat="43.62763" lon="1.30162">
        <ele>149</ele>
        <time>2020-10-03T08:00:54.000Z</time>
      </trkpt>
      <trkpt lat="43.62764" lon="1.30159">
        <ele>149</ele>
        <time>2020-10-03T08:00:55.000Z</time>
      </trkpt>
      <trkpt lat="43.62765" lon="1.30156">
        <ele>149</ele>
        <time>2020-10-03T08:00:56.000Z</time>
      </trkpt>
      <trkpt lat="43.62766" lon="1.30153">
        <ele>149</ele>
        <time>2020-10-03T08:00:57.000Z</time>
      </trkpt>
      <trkpt lat="43.62768" lon="1.30149">
        <ele>149</ele>
        <time>2020-10-03T08:00:58.000Z</time>
      </trkpt>
      <trkpt lat="43.6277" lon="1.30145">
        <ele>148.51922461539</ele>
        <time>2020-10-03T08:00:59.000Z</time>
      </trkpt>
      <trkpt lat="43.62772" lon="1.30141">
        <ele>148</ele>
        <time>2020-10-03T08:01:00.000Z</time>
      </trkpt>
      <trkpt lat="43.62774" lon="1.30138">
        <ele>148</ele>
        <time>2020-10-03T08:01:01.000Z</time>
      </trkpt>
      <trkpt lat="43.62775" lon="1.30134">
        <ele>147.52082666667</ele>
        <time>2020-10-03T08:01:02.000Z</time>
      </trkpt>
      <trkpt lat="43.62777" lon="1.3013">
        <ele>147</ele>
        <time>2020-10-03T08:01:03.000Z</time>
      </trkpt>
      <trkpt lat="43.62779" lon="1.30127">
        <ele>147</ele>
        <time>2020-10-03T08:01:04.000Z</time>
      </trkpt>
      <trkpt lat="43.6278" lon="1.30123">
        <ele>147</ele>
        <time>2020-10-03T08:01:05.000Z</time>
      </trkpt>
      <trkpt lat="43.62782" lon="1.30119">
        <ele>147</ele>
        <time>2020-10-03T08:01:06.000Z</time>
      </trkpt>
      <trkpt lat="43.62784" lon="1.30116">
        <ele>147</ele>
        <time>2020-10-03T08:01:07.000Z</time>
      </trkpt>
      <trkpt lat="43.62785" lon="1.30113">
        <ele>147</ele>
        <time>2020-10-03T08:01:08.000Z</time>
      </trkpt>
      <trkpt lat="43.62786" lon="1.30109">
        <ele>147</ele>
        <time>2020-10-03T08:01:09.000Z</time>
      </trkpt>
      <trkpt lat="43.62787" lon="1.30106">
        <ele>147</ele>
        <time>2020-10-03T08:01:10.000Z</time>
      </trkpt>
      <trkpt lat="43.62789" lon="1.30102">
        <ele>147</ele>
        <time>2020-10-03T08:01:11.000Z</time>
      </trkpt>
      <trkpt lat="43.6279" lon="1.30099">
        <ele>147</ele>
        <time>2020-10-03T08:01:12.000Z</time>
      </trkpt>
      <trkpt lat="43.62792" lon="1.30095">
        <ele>147</ele>
        <time>2020-10-03T08:01:13.000Z</time>
      </trkpt>
      <trkpt lat="43.62793" lon="1.30091">
        <ele>147</ele>
        <time>2020-10-03T08:01:14.000Z</time>
      </trkpt>
      <trkpt lat="43.62794" lon="1.30087">
        <ele>147</ele>
        <time>2020-10-03T08:01:15.000Z</time>
      </trkpt>
      <trkpt lat="43.62795" lon="1.30084">
        <ele>147</ele>
        <time>2020-10-03T08:01:16.000Z</time>
      </trkpt>
      <trkpt lat="43.62796" lon="1.3008">
        <ele>147</ele>
        <time>2020-10-03T08:01:17.000Z</time>
      </trkpt>
      <trkpt lat="43.62797" lon="1.30077">
        <ele>147</ele>
        <time>2020-10-03T08:01:18.000Z</time>
      </trkpt>
      <trkpt lat="43.62799" lon="1.30073">
        <ele>147</ele>
        <time>2020-10-03T08:01:19.000Z</time>
      </trkpt>
      <trkpt lat="43.628" lon="1.3007">
        <ele>147.37272653223</ele>
        <time>2020-10-03T08:01:20.000Z</time>
      </trkpt>
      <trkpt lat="43.62801" lon="1.30066">
        <ele>148</ele>
        <time>2020-10-03T08:01:21.000Z</time>
      </trkpt>
      <trkpt lat="43.62803" lon="1.30062">
        <ele>148</ele>
        <time>2020-10-03T08:01:22.000Z</time>
      </trkpt>
      <trkpt lat="43.62805" lon="1.30059">
        <ele>148</ele>
        <time>2020-10-03T08:01:23.000Z</time>
      </trkpt>
      <trkpt lat="43.62806" lon="1.30055">
        <ele>148</ele>
        <time>2020-10-03T08:01:24.000Z</time>
      </trkpt>
      <trkpt lat="43.62808" lon="1.30052">
        <ele>148</ele>
        <time>2020-10-03T08:01:25.000Z</time>
      </trkpt>
      <trkpt lat="43.62809" lon="1.30049">
        <ele>147.64957442619</ele>
        <time>2020-10-03T08:01:26.000Z</time>
      </trkpt>
      <trkpt lat="43.62811" lon="1.30045">
        <ele>147</ele>
        <time>2020-10-03T08:01:27.000Z</time>
      </trkpt>
      <trkpt lat="43.62812" lon="1.30041">
        <ele>147.29710050829</ele>
        <time>2020-10-03T08:01:28.000Z</time>
      </trkpt>
      <trkpt lat="43.62813" lon="1.30038">
        <ele>148</ele>
        <time>2020-10-03T08:01:29.000Z</time>
      </trkpt>
      <trkpt lat="43.62814" lon="1.30034">
        <ele>148</ele>
        <time>2020-10-03T08:01:30.000Z</time>
      </trkpt>
      <trkpt lat="43.62814" lon="1.30031">
        <ele>148</ele>
        <time>2020-10-03T08:01:31.000Z</time>
      </trkpt>
      <trkpt lat="43.62814" lon="1.30027">
        <ele>148</ele>
        <time>2020-10-03T08:01:32.000Z</time>
      </trkpt>
      <trkpt lat="43.62814" lon="1.30024">
        <ele>148</ele>
        <time>2020-10-03T08:01:33.000Z</time>
      </trkpt>
      <trkpt lat="43.62812" lon="1.30021">
        <ele>148</ele>
        <time>2020-10-03T08:01:34.000Z</time>
      </trkpt>
      <trkpt lat="43.6281" lon="1.30018">
        <ele>148</ele>
        <time>2020-10-03T08:01:35.000Z</time>
      </trkpt>
      <trkpt lat="43.62808" lon="1.30016">
        <ele>148</ele>
        <time>2020-10-03T08:01:36.000Z</time>
      </trkpt>
      <trkpt lat="43.62805" lon="1.30014">
        <ele>148</ele>
        <time>2020-10-03T08:01:37.000Z</time>
      </trkpt>
      <trkpt lat="43.62803" lon="1.30011">
        <ele>148</ele>
        <time>2020-10-03T08:01:38.000Z</time>
      </trkpt>
      <trkpt lat="43.628" lon="1.30009">
        <ele>148</ele>
        <time>2020-10-03T08:01:39.000Z</time>
      </trkpt>
      <trkpt lat="43.62798" lon="1.30006">
        <ele>148</ele>
        <time>2020-10-03T08:01:40.000Z</time>
      </trkpt>
      <trkpt lat="43.62796" lon="1.30003">
        <ele>148</ele>
        <time>2020-10-03T08:01:41.000Z</time>
      </trkpt>
      <trkpt lat="43.62794" lon="1.30001">
        <ele>148</ele>
        <time>2020-10-03T08:01:42.000Z</time>
      </trkpt>
      <trkpt lat="43.62792" lon="1.29998">
        <ele>148</ele>
        <time>2020-10-03T08:01:43.000Z</time>
      </trkpt>
      <trkpt lat="43.62789" lon="1.29995">
        <ele>148</ele>
        <time>2020-10-03T08:01:44.000Z</time>
      </trkpt>
      <trkpt lat="43.62787" lon="1.29993">
        <ele>148</ele>
        <time>2020-10-03T08:01:45.000Z</time>
      </trkpt>
      <trkpt lat="43.62785" lon="1.2999">
        <ele>148.36905142857</ele>
        <time>2020-10-03T08:01:46.000Z</time>
      </trkpt>
      <trkpt lat="43.62784" lon="1.29987">
        <ele>149</ele>
        <time>2020-10-03T08:01:47.000Z</time>
      </trkpt>
      <trkpt lat="43.62781" lon="1.29984">
        <ele>149</ele>
        <time>2020-10-03T08:01:48.000Z</time>
      </trkpt>
      <trkpt lat="43.62779" lon="1.29981">
        <ele>149</ele>
        <time>2020-10-03T08:01:49.000Z</time>
      </trkpt>
      <trkpt lat="43.62777" lon="1.29978">
        <ele>149</ele>
        <time>2020-10-03T08:01:50.000Z</time>
      </trkpt>
      <trkpt lat="43.62775" lon="1.29975">
        <ele>149</ele>
        <time>2020-10-03T08:01:51.000Z</time>
      </trkpt>
      <trkpt lat="43.62773" lon="1.29972">
        <ele>149.44210299388</ele>
        <time>2020-10-03T08:01:52.000Z</time>
      </trkpt>
      <trkpt lat="43.62772" lon="1.29969">
        <ele>150</ele>
        <time>2020-10-03T08:01:53.000Z</time>
      </trkpt>
      <trkpt lat="43.6277" lon="1.29966">
        <ele>150</ele>
        <time>2020-10-03T08:01:54.000Z</time>
      </trkpt>
      <trkpt lat="43.62768" lon="1.29963">
        <ele>149.63094857143</ele>
        <time>2020-10-03T08:01:55.000Z</time>
      </trkpt>
      <trkpt lat="43.62766" lon="1.2996">
        <ele>149</ele>
        <time>2020-10-03T08:01:56.000Z</time>
      </trkpt>
      <trkpt lat="43.62764" lon="1.29957">
        <ele>149</ele>
        <time>2020-10-03T08:01:57.000Z</time>
      </trkpt>
      <trkpt lat="43.62763" lon="1.29954">
        <ele>148.94805173216</ele>
        <time>2020-10-03T08:01:58.000Z</time>
      </trkpt>
      <trkpt lat="43.62761" lon="1.29951">
        <ele>148</ele>
        <time>2020-10-03T08:01:59.000Z</time>
      </trkpt>
      <trkpt lat="43.62759" lon="1.29948">
        <ele>148</ele>
        <time>2020-10-03T08:02:00.000Z</time>
      </trkpt>
      <trkpt lat="43.62757" lon="1.29945">
        <ele>147.64835288491</ele>
        <time>2020-10-03T08:02:01.000Z</time>
      </trkpt>
      <trkpt lat="43.62755" lon="1.29942">
        <ele>147</ele>
        <time>2020-10-03T08:02:02.000Z</time>
      </trkpt>
      <trkpt lat="43.62753" lon="1.29939">
        <ele>147</ele>
        <time>2020-10-03T08:02:03.000Z</time>
      </trkpt>
      <trkpt lat="43.62751" lon="1.29936">
        <ele>147.43119179868</ele>
        <time>2020-10-03T08:02:04.000Z</time>
      </trkpt>
      <trkpt lat="43.62749" lon="1.29934">
        <ele>148</ele>
        <time>2020-10-03T08:02:05.000Z</time>
      </trkpt>
      <trkpt lat="43.62747" lon="1.29931">
        <ele>148.27433989194</ele>
        <time>2020-10-03T08:02:06.000Z</time>
      </trkpt>
      <trkpt lat="43.62745" lon="1.29928">
        <ele>149</ele>
        <time>2020-10-03T08:02:07.000Z</time>
      </trkpt>
      <trkpt lat="43.62743" lon="1.29925">
        <ele>149</ele>
        <time>2020-10-03T08:02:08.000Z</time>
      </trkpt>
      <trkpt lat="43.62741" lon="1.29922">
        <ele>149</ele>
        <time>2020-10-03T08:02:09.000Z</time>
      </trkpt>
      <trkpt lat="43.62739" lon="1.29919">
        <ele>149</ele>
        <time>2020-10-03T08:02:10.000Z</time>
      </trkpt>
      <trkpt lat="43.62737" lon="1.29917">
        <ele>149</ele>
        <time>2020-10-03T08:02:11.000Z</time>
      </trkpt>
      <trkpt lat="43.62735" lon="1.29914">
        <ele>149</ele>
        <time>2020-10-03T08:02:12.000Z</time>
      </trkpt>
      <trkpt lat="43.62733" lon="1.29911">
        <ele>149.47115076923</ele>
        <time>2020-10-03T08:02:13.000Z</time>
      </trkpt>
      <trkpt lat="43.62731" lon="1.29908">
        <ele>150</ele>
        <time>2020-10-03T08:02:14.000Z</time>
      </trkpt>
      <trkpt lat="43.62729" lon="1.29906">
        <ele>150</ele>
        <time>2020-10-03T08:02:15.000Z</time>
      </trkpt>
      <trkpt lat="43.62728" lon="1.29903">
        <ele>150</ele>
        <time>2020-10-03T08:02:16.000Z</time>
      </trkpt>
      <trkpt lat="43.62726" lon="1.299">
        <ele>150</ele>
        <time>2020-10-03T08:02:17.000Z</time>
      </trkpt>
      <trkpt lat="43.62724" lon="1.29897">
        <ele>150.37719367189</ele>
        <time>2020-10-03T08:02:18.000Z</time>
      </trkpt>
      <trkpt lat="43.62722" lon="1.29894">
        <ele>151</ele>
        <time>2020-10-03T08:02:19.000Z</time>
      </trkpt>
      <trkpt lat="43.6272" lon="1.29891">
        <ele>151</ele>
        <time>2020-10-03T08:02:20.000Z</time>
      </trkpt>
      <trkpt lat="43.62718" lon="1.29888">
        <ele>151</ele>
        <time>2020-10-03T08:02:21.000Z</time>
      </trkpt>
      <trkpt lat="43.62716" lon="1.29885">
        <ele>151</ele>
        <time>2020-10-03T08:02:22.000Z</time>
      </trkpt>
      <trkpt lat="43.62714" lon="1.29882">
        <ele>151</ele>
        <time>2020-10-03T08:02:23.000Z</time>
      </trkpt>
      <trkpt lat="43.62712" lon="1.2988">
        <ele>151</ele>
        <time>2020-10-03T08:02:24.000Z</time>
      </trkpt>
      <trkpt lat="43.6271" lon="1.29877">
        <ele>151</ele>
        <time>2020-10-03T08:02:25.000Z</time>
      </trkpt>
      <trkpt lat="43.62708" lon="1.29874">
        <ele>151</ele>
        <time>2020-10-03T08:02:26.000Z</time>
      </trkpt>
      <trkpt lat="43.62706" lon="1.29871">
        <ele>151</ele>
        <time>2020-10-03T08:02:27.000Z</time>
      </trkpt>
      <trkpt lat="43.62704" lon="1.29868">
        <ele>151</ele>
        <time>2020-10-03T08:02:28.000Z</time>
      </trkpt>
      <trkpt lat="43.62702" lon="1.29865">
        <ele>151</ele>
        <time>2020-10-03T08:02:29.000Z</time>
      </trkpt>
      <trkpt lat="43.627" lon="1.29862">
        <ele>151</ele>
        <time>2020-10-03T08:02:30.000Z</time>
      </trkpt>
      <trkpt lat="43.62698" lon="1.29859">
        <ele>151</ele>
        <time>2020-10-03T08:02:31.000Z</time>
      </trkpt>
      <trkpt lat="43.62696" lon="1.29856">
        <ele>151</ele>
        <time>2020-10-03T08:02:32.000Z</time>
      </trkpt>
      <trkpt lat="43.62694" lon="1.29854">
        <ele>151</ele>
        <time>2020-10-03T08:02:33.000Z</time>
      </trkpt>
      <trkpt lat="43.62692" lon="1.29851">
        <ele>151</ele>
        <time>2020-10-03T08:02:34.000Z</time>
      </trkpt>
      <trkpt lat="43.6269" lon="1.29848">
        <ele>151</ele>
        <time>2020-10-03T08:02:35.000Z</time>
      </trkpt>
      <trkpt lat="43.62688" lon="1.29845">
        <ele>151</ele>
        <time>2020-10-03T08:02:36.000Z</time>
      </trkpt>
      <trkpt lat="43.62686" lon="1.29842">
        <ele>151</ele>
        <time>2020-10-03T08:02:37.000Z</time>
      </trkpt>
      <trkpt lat="43.62684" lon="1.2984">
        <ele>151</ele>
        <time>2020-10-03T08:02:38.000Z</time>
      </trkpt>
      <trkpt lat="43.62681" lon="1.29837">
        <ele>151</ele>
        <time>2020-10-03T08:02:39.000Z</time>
      </trkpt>
      <trkpt lat="43.62679" lon="1.29835">
        <ele>151</ele>
        <time>2020-10-03T08:02:40.000Z</time>
      </trkpt>
      <trkpt lat="43.62676" lon="1.29833">
        <ele>151</ele>
        <time>2020-10-03T08:02:41.000Z</time>
      </trkpt>
      <trkpt lat="43.62674" lon="1.29831">
        <ele>151</ele>
        <time>2020-10-03T08:02:42.000Z</time>
      </trkpt>
      <trkpt lat="43.62672" lon="1.29828">
        <ele>151</ele>
        <time>2020-10-03T08:02:43.000Z</time>
      </trkpt>
      <trkpt lat="43.62669" lon="1.29826">
        <ele>151</ele>
        <time>2020-10-03T08:02:44.000Z</time>
      </trkpt>
      <trkpt lat="43.62667" lon="1.29824">
        <ele>151</ele>
        <time>2020-10-03T08:02:45.000Z</time>
      </trkpt>
      <trkpt lat="43.62664" lon="1.29821">
        <ele>151</ele>
        <time>2020-10-03T08:02:46.000Z</time>
      </trkpt>
      <trkpt lat="43.62662" lon="1.29819">
        <ele>151</ele>
        <time>2020-10-03T08:02:47.000Z</time>
      </trkpt>
      <trkpt lat="43.62659" lon="1.29817">
        <ele>151</ele>
        <time>2020-10-03T08:02:48.000Z</time>
      </trkpt>
      <trkpt lat="43.62657" lon="1.29815">
        <ele>151</ele>
        <time>2020-10-03T08:02:49.000Z</time>
      </trkpt>
      <trkpt lat="43.62651" lon="1.29811">
        <ele>151</ele>
        <time>2020-10-03T08:02:51.000Z</time>
      </trkpt>
      <trkpt lat="43.62649" lon="1.29809">
        <ele>151</ele>
        <time>2020-10-03T08:02:52.000Z</time>
      </trkpt>
      <trkpt lat="43.62646" lon="1.29806">
        <ele>151.5</ele>
        <time>2020-10-03T08:02:53.000Z</time>
      </trkpt>
      <trkpt lat="43.62644" lon="1.29805">
        <ele>152</ele>
        <time>2020-10-03T08:02:54.000Z</time>
      </trkpt>
      <trkpt lat="43.62642" lon="1.29803">
        <ele>152</ele>
        <time>2020-10-03T08:02:55.000Z</time>
      </trkpt>
      <trkpt lat="43.62639" lon="1.29801">
        <ele>152</ele>
        <time>2020-10-03T08:02:56.000Z</time>
      </trkpt>
      <trkpt lat="43.62637" lon="1.29799">
        <ele>152</ele>
        <time>2020-10-03T08:02:57.000Z</time>
      </trkpt>
      <trkpt lat="43.62635" lon="1.29796">
        <ele>152</ele>
        <time>2020-10-03T08:02:58.000Z</time>
      </trkpt>
      <trkpt lat="43.62632" lon="1.29794">
        <ele>152</ele>
        <time>2020-10-03T08:02:59.000Z</time>
      </trkpt>
      <trkpt lat="43.6263" lon="1.29792">
        <ele>152</ele>
        <time>2020-10-03T08:03:00.000Z</time>
      </trkpt>
      <trkpt lat="43.62627" lon="1.2979">
        <ele>152</ele>
        <time>2020-10-03T08:03:01.000Z</time>
      </trkpt>
      <trkpt lat="43.62625" lon="1.29788">
        <ele>152</ele>
        <time>2020-10-03T08:03:02.000Z</time>
      </trkpt>
      <trkpt lat="43.62622" lon="1.29786">
        <ele>152</ele>
        <time>2020-10-03T08:03:03.000Z</time>
      </trkpt>
      <trkpt lat="43.6262" lon="1.29784">
        <ele>152</ele>
        <time>2020-10-03T08:03:04.000Z</time>
      </trkpt>
      <trkpt lat="43.62617" lon="1.29782">
        <ele>152</ele>
        <time>2020-10-03T08:03:05.000Z</time>
      </trkpt>
      <trkpt lat="43.62615" lon="1.2978">
        <ele>152</ele>
        <time>2020-10-03T08:03:06.000Z</time>
      </trkpt>
      <trkpt lat="43.62612" lon="1.29777">
        <ele>152</ele>
        <time>2020-10-03T08:03:07.000Z</time>
      </trkpt>
      <trkpt lat="43.6261" lon="1.29775">
        <ele>152</ele>
        <time>2020-10-03T08:03:08.000Z</time>
      </trkpt>
      <trkpt lat="43.62608" lon="1.29773">
        <ele>152</ele>
        <time>2020-10-03T08:03:09.000Z</time>
      </trkpt>
      <trkpt lat="43.62605" lon="1.2977">
        <ele>152</ele>
        <time>2020-10-03T08:03:10.000Z</time>
      </trkpt>
      <trkpt lat="43.62603" lon="1.29768">
        <ele>152</ele>
        <time>2020-10-03T08:03:11.000Z</time>
      </trkpt>
      <trkpt lat="43.626" lon="1.29766">
        <ele>152</ele>
        <time>2020-10-03T08:03:12.000Z</time>
      </trkpt>
      <trkpt lat="43.62598" lon="1.29764">
        <ele>152</ele>
        <time>2020-10-03T08:03:13.000Z</time>
      </trkpt>
      <trkpt lat="43.62596" lon="1.29761">
        <ele>152</ele>
        <time>2020-10-03T08:03:14.000Z</time>
      </trkpt>
      <trkpt lat="43.62593" lon="1.29759">
        <ele>152</ele>
        <time>2020-10-03T08:03:15.000Z</time>
      </trkpt>
      <trkpt lat="43.6259" lon="1.29757">
        <ele>152</ele>
        <time>2020-10-03T08:03:16.000Z</time>
      </trkpt>
      <trkpt lat="43.62588" lon="1.29755">
        <ele>152</ele>
        <time>2020-10-03T08:03:17.000Z</time>
      </trkpt>
      <trkpt lat="43.62586" lon="1.29752">
        <ele>152</ele>
        <time>2020-10-03T08:03:18.000Z</time>
      </trkpt>
      <trkpt lat="43.62583" lon="1.2975">
        <ele>152</ele>
        <time>2020-10-03T08:03:19.000Z</time>
      </trkpt>
      <trkpt lat="43.62581" lon="1.29748">
        <ele>152</ele>
        <time>2020-10-03T08:03:20.000Z</time>
      </trkpt>
      <trkpt lat="43.62578" lon="1.29745">
        <ele>152.45454862808</ele>
        <time>2020-10-03T08:03:21.000Z</time>
      </trkpt>
      <trkpt lat="43.62576" lon="1.29743">
        <ele>153</ele>
        <time>2020-10-03T08:03:22.000Z</time>
      </trkpt>
      <trkpt lat="43.62571" lon="1.29738">
        <ele>153</ele>
        <time>2020-10-03T08:03:24.000Z</time>
      </trkpt>
      <trkpt lat="43.62569" lon="1.29736">
        <ele>153</ele>
        <time>2020-10-03T08:03:25.000Z</time>
      </trkpt>
      <trkpt lat="43.62567" lon="1.29733">
        <ele>153</ele>
        <time>2020-10-03T08:03:26.000Z</time>
      </trkpt>
      <trkpt lat="43.62565" lon="1.29731">
        <ele>153</ele>
        <time>2020-10-03T08:03:27.000Z</time>
      </trkpt>
      <trkpt lat="43.62563" lon="1.29729">
        <ele>153</ele>
        <time>2020-10-03T08:03:28.000Z</time>
      </trkpt>
      <trkpt lat="43.6256" lon="1.29726">
        <ele>153</ele>
        <time>2020-10-03T08:03:29.000Z</time>
      </trkpt>
      <trkpt lat="43.62558" lon="1.29724">
        <ele>153.37499428571</ele>
        <time>2020-10-03T08:03:30.000Z</time>
      </trkpt>
      <trkpt lat="43.62556" lon="1.29722">
        <ele>154</ele>
        <time>2020-10-03T08:03:31.000Z</time>
      </trkpt>
      <trkpt lat="43.62553" lon="1.29719">
        <ele>154</ele>
        <time>2020-10-03T08:03:32.000Z</time>
      </trkpt>
      <trkpt lat="43.62551" lon="1.29717">
        <ele>154</ele>
        <time>2020-10-03T08:03:33.000Z</time>
      </trkpt>
      <trkpt lat="43.62549" lon="1.29714">
        <ele>154</ele>
        <time>2020-10-03T08:03:34.000Z</time>
      </trkpt>
      <trkpt lat="43.62547" lon="1.29711">
        <ele>154</ele>
        <time>2020-10-03T08:03:35.000Z</time>
      </trkpt>
      <trkpt lat="43.62545" lon="1.29709">
        <ele>153.62500571429</ele>
        <time>2020-10-03T08:03:36.000Z</time>
      </trkpt>
      <trkpt lat="43.62543" lon="1.29706">
        <ele>153</ele>
        <time>2020-10-03T08:03:37.000Z</time>
      </trkpt>
      <trkpt lat="43.6254" lon="1.29704">
        <ele>153</ele>
        <time>2020-10-03T08:03:38.000Z</time>
      </trkpt>
      <trkpt lat="43.62538" lon="1.29701">
        <ele>153.34482403484</ele>
        <time>2020-10-03T08:03:39.000Z</time>
      </trkpt>
      <trkpt lat="43.62536" lon="1.29699">
        <ele>154</ele>
        <time>2020-10-03T08:03:40.000Z</time>
      </trkpt>
      <trkpt lat="43.62534" lon="1.29696">
        <ele>154</ele>
        <time>2020-10-03T08:03:41.000Z</time>
      </trkpt>
      <trkpt lat="43.62532" lon="1.29694">
        <ele>154</ele>
        <time>2020-10-03T08:03:42.000Z</time>
      </trkpt>
      <trkpt lat="43.62529" lon="1.29691">
        <ele>154</ele>
        <time>2020-10-03T08:03:43.000Z</time>
      </trkpt>
      <trkpt lat="43.62527" lon="1.29689">
        <ele>154</ele>
        <time>2020-10-03T08:03:44.000Z</time>
      </trkpt>
      <trkpt lat="43.62525" lon="1.29686">
        <ele>154</ele>
        <time>2020-10-03T08:03:45.000Z</time>
      </trkpt>
      <trkpt lat="43.62523" lon="1.29683">
        <ele>153.63094857143</ele>
        <time>2020-10-03T08:03:46.000Z</time>
      </trkpt>
      <trkpt lat="43.62521" lon="1.29681">
        <ele>153</ele>
        <time>2020-10-03T08:03:47.000Z</time>
      </trkpt>
      <trkpt lat="43.62518" lon="1.29678">
        <ele>153</ele>
        <time>2020-10-03T08:03:48.000Z</time>
      </trkpt>
      <trkpt lat="43.62516" lon="1.29676">
        <ele>153.32183789669</ele>
        <time>2020-10-03T08:03:49.000Z</time>
      </trkpt>
      <trkpt lat="43.62513" lon="1.29673">
        <ele>154</ele>
        <time>2020-10-03T08:03:50.000Z</time>
      </trkpt>
      <trkpt lat="43.62511" lon="1.29671">
        <ele>154</ele>
        <time>2020-10-03T08:03:51.000Z</time>
      </trkpt>
      <trkpt lat="43.62508" lon="1.29669">
        <ele>154</ele>
        <time>2020-10-03T08:03:52.000Z</time>
      </trkpt>
      <trkpt lat="43.62506" lon="1.29666">
        <ele>154</ele>
        <time>2020-10-03T08:03:53.000Z</time>
      </trkpt>
      <trkpt lat="43.62504" lon="1.29664">
        <ele>154</ele>
        <time>2020-10-03T08:03:54.000Z</time>
      </trkpt>
      <trkpt lat="43.62502" lon="1.29662">
        <ele>154</ele>
        <time>2020-10-03T08:03:55.000Z</time>
      </trkpt>
      <trkpt lat="43.62499" lon="1.29659">
        <ele>153.55914170887</ele>
        <time>2020-10-03T08:03:56.000Z</time>
      </trkpt>
      <trkpt lat="43.62497" lon="1.29657">
        <ele>153</ele>
        <time>2020-10-03T08:03:57.000Z</time>
      </trkpt>
      <trkpt lat="43.62495" lon="1.29654">
        <ele>153</ele>
        <time>2020-10-03T08:03:58.000Z</time>
      </trkpt>
      <trkpt lat="43.62493" lon="1.29651">
        <ele>153</ele>
        <time>2020-10-03T08:03:59.000Z</time>
      </trkpt>
      <trkpt lat="43.6249" lon="1.29648">
        <ele>153</ele>
        <time>2020-10-03T08:04:00.000Z</time>
      </trkpt>
      <trkpt lat="43.62486" lon="1.29643">
        <ele>153</ele>
        <time>2020-10-03T08:04:02.000Z</time>
      </trkpt>
      <trkpt lat="43.62484" lon="1.2964">
        <ele>153</ele>
        <time>2020-10-03T08:04:03.000Z</time>
      </trkpt>
      <trkpt lat="43.62482" lon="1.29637">
        <ele>153</ele>
        <time>2020-10-03T08:04:04.000Z</time>
      </trkpt>
      <trkpt lat="43.6248" lon="1.29634">
        <ele>153</ele>
        <time>2020-10-03T08:04:05.000Z</time>
      </trkpt>
      <trkpt lat="43.62478" lon="1.29631">
        <ele>153</ele>
        <time>2020-10-03T08:04:06.000Z</time>
      </trkpt>
      <trkpt lat="43.62476" lon="1.29628">
        <ele>153</ele>
        <time>2020-10-03T08:04:07.000Z</time>
      </trkpt>
      <trkpt lat="43.62473" lon="1.29625">
        <ele>153</ele>
        <time>2020-10-03T08:04:08.000Z</time>
      </trkpt>
      <trkpt lat="43.62472" lon="1.29623">
        <ele>153.35869217391</ele>
        <time>2020-10-03T08:04:09.000Z</time>
      </trkpt>
      <trkpt lat="43.6247" lon="1.2962">
        <ele>154</ele>
        <time>2020-10-03T08:04:10.000Z</time>
      </trkpt>
      <trkpt lat="43.62468" lon="1.29617">
        <ele>154</ele>
        <time>2020-10-03T08:04:11.000Z</time>
      </trkpt>
      <trkpt lat="43.62466" lon="1.29614">
        <ele>154</ele>
        <time>2020-10-03T08:04:12.000Z</time>
      </trkpt>
      <trkpt lat="43.62464" lon="1.29611">
        <ele>154</ele>
        <time>2020-10-03T08:04:13.000Z</time>
      </trkpt>
      <trkpt lat="43.62461" lon="1.29608">
        <ele>154</ele>
        <time>2020-10-03T08:04:14.000Z</time>
      </trkpt>
      <trkpt lat="43.62459" lon="1.29606">
        <ele>154</ele>
        <time>2020-10-03T08:04:15.000Z</time>
      </trkpt>
      <trkpt lat="43.62457" lon="1.29603">
        <ele>154.01922461539</ele>
        <time>2020-10-03T08:04:16.000Z</time>
      </trkpt>
      <trkpt lat="43.62456" lon="1.29599">
        <ele>155</ele>
        <time>2020-10-03T08:04:17.000Z</time>
      </trkpt>
      <trkpt lat="43.62454" lon="1.29596">
        <ele>155</ele>
        <time>2020-10-03T08:04:18.000Z</time>
      </trkpt>
      <trkpt lat="43.62453" lon="1.29593">
        <ele>155</ele>
        <time>2020-10-03T08:04:19.000Z</time>
      </trkpt>
      <trkpt lat="43.6245" lon="1.29587">
        <ele>155</ele>
        <time>2020-10-03T08:04:21.000Z</time>
      </trkpt>
      <trkpt lat="43.62448" lon="1.29583">
        <ele>155</ele>
        <time>2020-10-03T08:04:22.000Z</time>
      </trkpt>
      <trkpt lat="43.62447" lon="1.2958">
        <ele>155</ele>
        <time>2020-10-03T08:04:23.000Z</time>
      </trkpt>
      <trkpt lat="43.62445" lon="1.29576">
        <ele>155</ele>
        <time>2020-10-03T08:04:24.000Z</time>
      </trkpt>
      <trkpt lat="43.62443" lon="1.29573">
        <ele>155</ele>
        <time>2020-10-03T08:04:25.000Z</time>
      </trkpt>
      <trkpt lat="43.62441" lon="1.2957">
        <ele>155</ele>
        <time>2020-10-03T08:04:26.000Z</time>
      </trkpt>
      <trkpt lat="43.6244" lon="1.29567">
        <ele>155</ele>
        <time>2020-10-03T08:04:27.000Z</time>
      </trkpt>
      <trkpt lat="43.62439" lon="1.29565">
        <ele>155</ele>
        <time>2020-10-03T08:04:28.000Z</time>
      </trkpt>
      <trkpt lat="43.62437" lon="1.29562">
        <ele>155.34444555061</ele>
        <time>2020-10-03T08:04:30.000Z</time>
      </trkpt>
      <trkpt lat="43.62435" lon="1.2956">
        <ele>156</ele>
        <time>2020-10-03T08:04:32.000Z</time>
      </trkpt>
      <trkpt lat="43.62434" lon="1.29557">
        <ele>156.36283005403</ele>
        <time>2020-10-03T08:04:34.000Z</time>
      </trkpt>
      <trkpt lat="43.62433" lon="1.29554">
        <ele>157</ele>
        <time>2020-10-03T08:04:36.000Z</time>
      </trkpt>
      <trkpt lat="43.62431" lon="1.2955">
        <ele>157</ele>
        <time>2020-10-03T08:04:38.000Z</time>
      </trkpt>
      <trkpt lat="43.6243" lon="1.29547">
        <ele>157</ele>
        <time>2020-10-03T08:04:39.000Z</time>
      </trkpt>
      <trkpt lat="43.62429" lon="1.29544">
        <ele>157</ele>
        <time>2020-10-03T08:04:40.000Z</time>
      </trkpt>
      <trkpt lat="43.62428" lon="1.29541">
        <ele>157</ele>
        <time>2020-10-03T08:04:41.000Z</time>
      </trkpt>
      <trkpt lat="43.62426" lon="1.29537">
        <ele>157</ele>
        <time>2020-10-03T08:04:42.000Z</time>
      </trkpt>
      <trkpt lat="43.62425" lon="1.29534">
        <ele>156.55855762356</ele>
        <time>2020-10-03T08:04:43.000Z</time>
      </trkpt>
      <trkpt lat="43.62423" lon="1.2953">
        <ele>156</ele>
        <time>2020-10-03T08:04:44.000Z</time>
      </trkpt>
      <trkpt lat="43.62422" lon="1.29526">
        <ele>156</ele>
        <time>2020-10-03T08:04:45.000Z</time>
      </trkpt>
      <trkpt lat="43.6242" lon="1.29522">
        <ele>156.88679313634</ele>
        <time>2020-10-03T08:04:46.000Z</time>
      </trkpt>
      <trkpt lat="43.62419" lon="1.29519">
        <ele>158</ele>
        <time>2020-10-03T08:04:47.000Z</time>
      </trkpt>
      <trkpt lat="43.62418" lon="1.29516">
        <ele>158</ele>
        <time>2020-10-03T08:04:48.000Z</time>
      </trkpt>
      <trkpt lat="43.62416" lon="1.29512">
        <ele>158</ele>
        <time>2020-10-03T08:04:49.000Z</time>
      </trkpt>
      <trkpt lat="43.62415" lon="1.29509">
        <ele>158</ele>
        <time>2020-10-03T08:04:50.000Z</time>
      </trkpt>
      <trkpt lat="43.62413" lon="1.29506">
        <ele>158</ele>
        <time>2020-10-03T08:04:51.000Z</time>
      </trkpt>
      <trkpt lat="43.62411" lon="1.29503">
        <ele>158.36905142857</ele>
        <time>2020-10-03T08:04:52.000Z</time>
      </trkpt>
      <trkpt lat="43.6241" lon="1.295">
        <ele>159</ele>
        <time>2020-10-03T08:04:53.000Z</time>
      </trkpt>
      <trkpt lat="43.62409" lon="1.29496">
        <ele>159</ele>
        <time>2020-10-03T08:04:54.000Z</time>
      </trkpt>
      <trkpt lat="43.62408" lon="1.29493">
        <ele>159</ele>
        <time>2020-10-03T08:04:55.000Z</time>
      </trkpt>
      <trkpt lat="43.62407" lon="1.2949">
        <ele>159</ele>
        <time>2020-10-03T08:04:56.000Z</time>
      </trkpt>
      <trkpt lat="43.62405" lon="1.29487">
        <ele>159</ele>
        <time>2020-10-03T08:04:57.000Z</time>
      </trkpt>
      <trkpt lat="43.62403" lon="1.2948">
        <ele>159</ele>
        <time>2020-10-03T08:04:59.000Z</time>
      </trkpt>
      <trkpt lat="43.62402" lon="1.29477">
        <ele>159</ele>
        <time>2020-10-03T08:05:00.000Z</time>
      </trkpt>
      <trkpt lat="43.62401" lon="1.29474">
        <ele>159</ele>
        <time>2020-10-03T08:05:01.000Z</time>
      </trkpt>
      <trkpt lat="43.624" lon="1.2947">
        <ele>159</ele>
        <time>2020-10-03T08:05:02.000Z</time>
      </trkpt>
      <trkpt lat="43.62399" lon="1.29466">
        <ele>159</ele>
        <time>2020-10-03T08:05:03.000Z</time>
      </trkpt>
      <trkpt lat="43.62398" lon="1.29463">
        <ele>159</ele>
        <time>2020-10-03T08:05:04.000Z</time>
      </trkpt>
      <trkpt lat="43.62397" lon="1.29459">
        <ele>159</ele>
        <time>2020-10-03T08:05:05.000Z</time>
      </trkpt>
      <trkpt lat="43.62396" lon="1.29455">
        <ele>159</ele>
        <time>2020-10-03T08:05:06.000Z</time>
      </trkpt>
      <trkpt lat="43.62395" lon="1.29452">
        <ele>159</ele>
        <time>2020-10-03T08:05:07.000Z</time>
      </trkpt>
      <trkpt lat="43.62395" lon="1.29448">
        <ele>159</ele>
        <time>2020-10-03T08:05:08.000Z</time>
      </trkpt>
      <trkpt lat="43.62394" lon="1.29445">
        <ele>159</ele>
        <time>2020-10-03T08:05:09.000Z</time>
      </trkpt>
      <trkpt lat="43.62394" lon="1.29441">
        <ele>159</ele>
        <time>2020-10-03T08:05:10.000Z</time>
      </trkpt>
      <trkpt lat="43.62393" lon="1.29438">
        <ele>159</ele>
        <time>2020-10-03T08:05:11.000Z</time>
      </trkpt>
      <trkpt lat="43.62392" lon="1.29434">
        <ele>159</ele>
        <time>2020-10-03T08:05:12.000Z</time>
      </trkpt>
      <trkpt lat="43.62392" lon="1.29431">
        <ele>159.36905142857</ele>
        <time>2020-10-03T08:05:13.000Z</time>
      </trkpt>
      <trkpt lat="43.62391" lon="1.29427">
        <ele>160</ele>
        <time>2020-10-03T08:05:14.000Z</time>
      </trkpt>
      <trkpt lat="43.6239" lon="1.29423">
        <ele>160</ele>
        <time>2020-10-03T08:05:15.000Z</time>
      </trkpt>
      <trkpt lat="43.6239" lon="1.29419">
        <ele>160</ele>
        <time>2020-10-03T08:05:16.000Z</time>
      </trkpt>
      <trkpt lat="43.62389" lon="1.29415">
        <ele>160</ele>
        <time>2020-10-03T08:05:17.000Z</time>
      </trkpt>
      <trkpt lat="43.62388" lon="1.29412">
        <ele>160</ele>
        <time>2020-10-03T08:05:18.000Z</time>
      </trkpt>
      <trkpt lat="43.62387" lon="1.29408">
        <ele>160</ele>
        <time>2020-10-03T08:05:19.000Z</time>
      </trkpt>
      <trkpt lat="43.62387" lon="1.29404">
        <ele>159.5531952558</ele>
        <time>2020-10-03T08:05:20.000Z</time>
      </trkpt>
      <trkpt lat="43.62386" lon="1.294">
        <ele>159</ele>
        <time>2020-10-03T08:05:21.000Z</time>
      </trkpt>
      <trkpt lat="43.62386" lon="1.29397">
        <ele>159</ele>
        <time>2020-10-03T08:05:22.000Z</time>
      </trkpt>
      <trkpt lat="43.62386" lon="1.29393">
        <ele>159</ele>
        <time>2020-10-03T08:05:23.000Z</time>
      </trkpt>
      <trkpt lat="43.62385" lon="1.29389">
        <ele>159</ele>
        <time>2020-10-03T08:05:24.000Z</time>
      </trkpt>
      <trkpt lat="43.62384" lon="1.29385">
        <ele>159</ele>
        <time>2020-10-03T08:05:25.000Z</time>
      </trkpt>
      <trkpt lat="43.62384" lon="1.29381">
        <ele>159</ele>
        <time>2020-10-03T08:05:26.000Z</time>
      </trkpt>
      <trkpt lat="43.62383" lon="1.29377">
        <ele>159</ele>
        <time>2020-10-03T08:05:27.000Z</time>
      </trkpt>
      <trkpt lat="43.62382" lon="1.29374">
        <ele>159</ele>
        <time>2020-10-03T08:05:28.000Z</time>
      </trkpt>
      <trkpt lat="43.62381" lon="1.2937">
        <ele>159</ele>
        <time>2020-10-03T08:05:29.000Z</time>
      </trkpt>
      <trkpt lat="43.62381" lon="1.29366">
        <ele>159</ele>
        <time>2020-10-03T08:05:30.000Z</time>
      </trkpt>
      <trkpt lat="43.6238" lon="1.29362">
        <ele>159</ele>
        <time>2020-10-03T08:05:31.000Z</time>
      </trkpt>
      <trkpt lat="43.62379" lon="1.29358">
        <ele>159</ele>
        <time>2020-10-03T08:05:32.000Z</time>
      </trkpt>
      <trkpt lat="43.62379" lon="1.29354">
        <ele>159</ele>
        <time>2020-10-03T08:05:33.000Z</time>
      </trkpt>
      <trkpt lat="43.62378" lon="1.2935">
        <ele>159</ele>
        <time>2020-10-03T08:05:34.000Z</time>
      </trkpt>
      <trkpt lat="43.62377" lon="1.29346">
        <ele>159</ele>
        <time>2020-10-03T08:05:35.000Z</time>
      </trkpt>
      <trkpt lat="43.62377" lon="1.29342">
        <ele>159</ele>
        <time>2020-10-03T08:05:36.000Z</time>
      </trkpt>
      <trkpt lat="43.62376" lon="1.29338">
        <ele>159</ele>
        <time>2020-10-03T08:05:37.000Z</time>
      </trkpt>
      <trkpt lat="43.62375" lon="1.29334">
        <ele>159</ele>
        <time>2020-10-03T08:05:38.000Z</time>
      </trkpt>
      <trkpt lat="43.62374" lon="1.2933">
        <ele>158.53703659808</ele>
        <time>2020-10-03T08:05:39.000Z</time>
      </trkpt>
      <trkpt lat="43.62374" lon="1.29326">
        <ele>158</ele>
        <time>2020-10-03T08:05:40.000Z</time>
      </trkpt>
      <trkpt lat="43.62373" lon="1.29322">
        <ele>157.65909818182</ele>
        <time>2020-10-03T08:05:41.000Z</time>
      </trkpt>
      <trkpt lat="43.62372" lon="1.29318">
        <ele>157</ele>
        <time>2020-10-03T08:05:42.000Z</time>
      </trkpt>
      <trkpt lat="43.62372" lon="1.29313">
        <ele>157</ele>
        <time>2020-10-03T08:05:43.000Z</time>
      </trkpt>
      <trkpt lat="43.62371" lon="1.29309">
        <ele>157</ele>
        <time>2020-10-03T08:05:44.000Z</time>
      </trkpt>
      <trkpt lat="43.62371" lon="1.29305">
        <ele>157</ele>
        <time>2020-10-03T08:05:45.000Z</time>
      </trkpt>
      <trkpt lat="43.6237" lon="1.29301">
        <ele>157</ele>
        <time>2020-10-03T08:05:46.000Z</time>
      </trkpt>
      <trkpt lat="43.6237" lon="1.29297">
        <ele>156.65909818182</ele>
        <time>2020-10-03T08:05:47.000Z</time>
      </trkpt>
      <trkpt lat="43.62369" lon="1.29292">
        <ele>156</ele>
        <time>2020-10-03T08:05:48.000Z</time>
      </trkpt>
      <trkpt lat="43.62369" lon="1.29288">
        <ele>156</ele>
        <time>2020-10-03T08:05:49.000Z</time>
      </trkpt>
      <trkpt lat="43.62368" lon="1.29284">
        <ele>156</ele>
        <time>2020-10-03T08:05:50.000Z</time>
      </trkpt>
      <trkpt lat="43.62368" lon="1.2928">
        <ele>156</ele>
        <time>2020-10-03T08:05:51.000Z</time>
      </trkpt>
      <trkpt lat="43.62368" lon="1.29276">
        <ele>156</ele>
        <time>2020-10-03T08:05:52.000Z</time>
      </trkpt>
      <trkpt lat="43.62367" lon="1.29272">
        <ele>156</ele>
        <time>2020-10-03T08:05:53.000Z</time>
      </trkpt>
      <trkpt lat="43.62367" lon="1.29267">
        <ele>156</ele>
        <time>2020-10-03T08:05:54.000Z</time>
      </trkpt>
      <trkpt lat="43.62366" lon="1.29263">
        <ele>156</ele>
        <time>2020-10-03T08:05:55.000Z</time>
      </trkpt>
      <trkpt lat="43.62366" lon="1.29259">
        <ele>156</ele>
        <time>2020-10-03T08:05:56.000Z</time>
      </trkpt>
      <trkpt lat="43.62366" lon="1.29256">
        <ele>156</ele>
        <time>2020-10-03T08:05:57.000Z</time>
      </trkpt>
      <trkpt lat="43.62365" lon="1.29252">
        <ele>156</ele>
        <time>2020-10-03T08:05:58.000Z</time>
      </trkpt>
      <trkpt lat="43.62364" lon="1.29248">
        <ele>156</ele>
        <time>2020-10-03T08:05:59.000Z</time>
      </trkpt>
      <trkpt lat="43.62364" lon="1.29244">
        <ele>156</ele>
        <time>2020-10-03T08:06:00.000Z</time>
      </trkpt>
      <trkpt lat="43.62363" lon="1.2924">
        <ele>155.55555871603</ele>
        <time>2020-10-03T08:06:01.000Z</time>
      </trkpt>
      <trkpt lat="43.62362" lon="1.29236">
        <ele>155</ele>
        <time>2020-10-03T08:06:02.000Z</time>
      </trkpt>
      <trkpt lat="43.62361" lon="1.29233">
        <ele>155</ele>
        <time>2020-10-03T08:06:03.000Z</time>
      </trkpt>
      <trkpt lat="43.6236" lon="1.29229">
        <ele>155</ele>
        <time>2020-10-03T08:06:04.000Z</time>
      </trkpt>
      <trkpt lat="43.62358" lon="1.29225">
        <ele>155</ele>
        <time>2020-10-03T08:06:05.000Z</time>
      </trkpt>
      <trkpt lat="43.62357" lon="1.29222">
        <ele>155.29710050829</ele>
        <time>2020-10-03T08:06:06.000Z</time>
      </trkpt>
      <trkpt lat="43.62356" lon="1.29218">
        <ele>156</ele>
        <time>2020-10-03T08:06:07.000Z</time>
      </trkpt>
      <trkpt lat="43.62355" lon="1.29214">
        <ele>156</ele>
        <time>2020-10-03T08:06:08.000Z</time>
      </trkpt>
      <trkpt lat="43.62354" lon="1.29211">
        <ele>156</ele>
        <time>2020-10-03T08:06:09.000Z</time>
      </trkpt>
      <trkpt lat="43.62353" lon="1.29207">
        <ele>156</ele>
        <time>2020-10-03T08:06:10.000Z</time>
      </trkpt>
      <trkpt lat="43.62351" lon="1.29204">
        <ele>156</ele>
        <time>2020-10-03T08:06:11.000Z</time>
      </trkpt>
      <trkpt lat="43.6235" lon="1.292">
        <ele>156</ele>
        <time>2020-10-03T08:06:12.000Z</time>
      </trkpt>
      <trkpt lat="43.62349" lon="1.29196">
        <ele>156</ele>
        <time>2020-10-03T08:06:13.000Z</time>
      </trkpt>
      <trkpt lat="43.62348" lon="1.29193">
        <ele>155.86585080312</ele>
        <time>2020-10-03T08:06:14.000Z</time>
      </trkpt>
      <trkpt lat="43.62346" lon="1.29189">
        <ele>155</ele>
        <time>2020-10-03T08:06:15.000Z</time>
      </trkpt>
      <trkpt lat="43.62345" lon="1.29186">
        <ele>155</ele>
        <time>2020-10-03T08:06:16.000Z</time>
      </trkpt>
      <trkpt lat="43.62344" lon="1.29182">
        <ele>155</ele>
        <time>2020-10-03T08:06:17.000Z</time>
      </trkpt>
      <trkpt lat="43.62342" lon="1.29179">
        <ele>155</ele>
        <time>2020-10-03T08:06:18.000Z</time>
      </trkpt>
      <trkpt lat="43.62341" lon="1.29175">
        <ele>155</ele>
        <time>2020-10-03T08:06:19.000Z</time>
      </trkpt>
      <trkpt lat="43.62339" lon="1.29172">
        <ele>155</ele>
        <time>2020-10-03T08:06:20.000Z</time>
      </trkpt>
      <trkpt lat="43.62338" lon="1.29168">
        <ele>155</ele>
        <time>2020-10-03T08:06:21.000Z</time>
      </trkpt>
      <trkpt lat="43.62336" lon="1.29165">
        <ele>155</ele>
        <time>2020-10-03T08:06:22.000Z</time>
      </trkpt>
      <trkpt lat="43.62335" lon="1.29162">
        <ele>154.75438458602</ele>
        <time>2020-10-03T08:06:23.000Z</time>
      </trkpt>
      <trkpt lat="43.62333" lon="1.29158">
        <ele>154</ele>
        <time>2020-10-03T08:06:24.000Z</time>
      </trkpt>
      <trkpt lat="43.62332" lon="1.29155">
        <ele>154</ele>
        <time>2020-10-03T08:06:25.000Z</time>
      </trkpt>
      <trkpt lat="43.6233" lon="1.29152">
        <ele>154</ele>
        <time>2020-10-03T08:06:26.000Z</time>
      </trkpt>
      <trkpt lat="43.62329" lon="1.29148">
        <ele>154.34905569241</ele>
        <time>2020-10-03T08:06:27.000Z</time>
      </trkpt>
      <trkpt lat="43.62327" lon="1.29145">
        <ele>155</ele>
        <time>2020-10-03T08:06:28.000Z</time>
      </trkpt>
      <trkpt lat="43.62326" lon="1.29142">
        <ele>155</ele>
        <time>2020-10-03T08:06:29.000Z</time>
      </trkpt>
      <trkpt lat="43.62324" lon="1.29139">
        <ele>155</ele>
        <time>2020-10-03T08:06:30.000Z</time>
      </trkpt>
      <trkpt lat="43.62322" lon="1.29136">
        <ele>155</ele>
        <time>2020-10-03T08:06:31.000Z</time>
      </trkpt>
      <trkpt lat="43.62321" lon="1.29133">
        <ele>155</ele>
        <time>2020-10-03T08:06:32.000Z</time>
      </trkpt>
      <trkpt lat="43.62319" lon="1.2913">
        <ele>155</ele>
        <time>2020-10-03T08:06:33.000Z</time>
      </trkpt>
      <trkpt lat="43.62317" lon="1.29127">
        <ele>155</ele>
        <time>2020-10-03T08:06:34.000Z</time>
      </trkpt>
      <trkpt lat="43.62315" lon="1.29124">
        <ele>155</ele>
        <time>2020-10-03T08:06:35.000Z</time>
      </trkpt>
      <trkpt lat="43.62314" lon="1.29121">
        <ele>155</ele>
        <time>2020-10-03T08:06:36.000Z</time>
      </trkpt>
      <trkpt lat="43.62312" lon="1.29118">
        <ele>155</ele>
        <time>2020-10-03T08:06:37.000Z</time>
      </trkpt>
      <trkpt lat="43.6231" lon="1.29115">
        <ele>155</ele>
        <time>2020-10-03T08:06:38.000Z</time>
      </trkpt>
      <trkpt lat="43.62309" lon="1.29112">
        <ele>154.674992</ele>
        <time>2020-10-03T08:06:39.000Z</time>
      </trkpt>
      <trkpt lat="43.62307" lon="1.29109">
        <ele>154</ele>
        <time>2020-10-03T08:06:40.000Z</time>
      </trkpt>
      <trkpt lat="43.62305" lon="1.29106">
        <ele>154</ele>
        <time>2020-10-03T08:06:41.000Z</time>
      </trkpt>
      <trkpt lat="43.62304" lon="1.29104">
        <ele>154</ele>
        <time>2020-10-03T08:06:42.000Z</time>
      </trkpt>
      <trkpt lat="43.62302" lon="1.29101">
        <ele>154</ele>
        <time>2020-10-03T08:06:43.000Z</time>
      </trkpt>
      <trkpt lat="43.623" lon="1.29098">
        <ele>154</ele>
        <time>2020-10-03T08:06:44.000Z</time>
      </trkpt>
      <trkpt lat="43.62299" lon="1.29095">
        <ele>154.44211051079</ele>
        <time>2020-10-03T08:06:45.000Z</time>
      </trkpt>
      <trkpt lat="43.62298" lon="1.29092">
        <ele>155</ele>
        <time>2020-10-03T08:06:46.000Z</time>
      </trkpt>
      <trkpt lat="43.62296" lon="1.29089">
        <ele>155</ele>
        <time>2020-10-03T08:06:47.000Z</time>
      </trkpt>
      <trkpt lat="43.62294" lon="1.29087">
        <ele>155</ele>
        <time>2020-10-03T08:06:48.000Z</time>
      </trkpt>
      <trkpt lat="43.62293" lon="1.29084">
        <ele>155</ele>
        <time>2020-10-03T08:06:49.000Z</time>
      </trkpt>
      <trkpt lat="43.62291" lon="1.29081">
        <ele>155</ele>
        <time>2020-10-03T08:06:50.000Z</time>
      </trkpt>
      <trkpt lat="43.6229" lon="1.29078">
        <ele>155</ele>
        <time>2020-10-03T08:06:51.000Z</time>
      </trkpt>
      <trkpt lat="43.62288" lon="1.29074">
        <ele>155</ele>
        <time>2020-10-03T08:06:52.000Z</time>
      </trkpt>
      <trkpt lat="43.62287" lon="1.29071">
        <ele>155</ele>
        <time>2020-10-03T08:06:53.000Z</time>
      </trkpt>
      <trkpt lat="43.62285" lon="1.29068">
        <ele>155</ele>
        <time>2020-10-03T08:06:54.000Z</time>
      </trkpt>
      <trkpt lat="43.62283" lon="1.29065">
        <ele>155</ele>
        <time>2020-10-03T08:06:55.000Z</time>
      </trkpt>
      <trkpt lat="43.62281" lon="1.29062">
        <ele>155</ele>
        <time>2020-10-03T08:06:56.000Z</time>
      </trkpt>
      <trkpt lat="43.6228" lon="1.29059">
        <ele>155</ele>
        <time>2020-10-03T08:06:57.000Z</time>
      </trkpt>
      <trkpt lat="43.62278" lon="1.29055">
        <ele>155</ele>
        <time>2020-10-03T08:06:58.000Z</time>
      </trkpt>
      <trkpt lat="43.62276" lon="1.29052">
        <ele>155</ele>
        <time>2020-10-03T08:06:59.000Z</time>
      </trkpt>
      <trkpt lat="43.62274" lon="1.29049">
        <ele>155</ele>
        <time>2020-10-03T08:07:00.000Z</time>
      </trkpt>
      <trkpt lat="43.62273" lon="1.29046">
        <ele>155</ele>
        <time>2020-10-03T08:07:01.000Z</time>
      </trkpt>
      <trkpt lat="43.62271" lon="1.29043">
        <ele>155</ele>
        <time>2020-10-03T08:07:02.000Z</time>
      </trkpt>
      <trkpt lat="43.62269" lon="1.2904">
        <ele>155</ele>
        <time>2020-10-03T08:07:03.000Z</time>
      </trkpt>
      <trkpt lat="43.62268" lon="1.29036">
        <ele>155</ele>
        <time>2020-10-03T08:07:04.000Z</time>
      </trkpt>
      <trkpt lat="43.62266" lon="1.29033">
        <ele>155</ele>
        <time>2020-10-03T08:07:05.000Z</time>
      </trkpt>
      <trkpt lat="43.62264" lon="1.29029">
        <ele>155</ele>
        <time>2020-10-03T08:07:06.000Z</time>
      </trkpt>
      <trkpt lat="43.62262" lon="1.29026">
        <ele>155</ele>
        <time>2020-10-03T08:07:07.000Z</time>
      </trkpt>
      <trkpt lat="43.62261" lon="1.29023">
        <ele>155</ele>
        <time>2020-10-03T08:07:08.000Z</time>
      </trkpt>
      <trkpt lat="43.62259" lon="1.2902">
        <ele>155</ele>
        <time>2020-10-03T08:07:09.000Z</time>
      </trkpt>
      <trkpt lat="43.62258" lon="1.29016">
        <ele>155</ele>
        <time>2020-10-03T08:07:10.000Z</time>
      </trkpt>
      <trkpt lat="43.62255" lon="1.29009">
        <ele>155</ele>
        <time>2020-10-03T08:07:12.000Z</time>
      </trkpt>
      <trkpt lat="43.62253" lon="1.29005">
        <ele>155</ele>
        <time>2020-10-03T08:07:13.000Z</time>
      </trkpt>
      <trkpt lat="43.62252" lon="1.29001">
        <ele>155</ele>
        <time>2020-10-03T08:07:14.000Z</time>
      </trkpt>
      <trkpt lat="43.6225" lon="1.28998">
        <ele>155</ele>
        <time>2020-10-03T08:07:15.000Z</time>
      </trkpt>
      <trkpt lat="43.62248" lon="1.28994">
        <ele>155</ele>
        <time>2020-10-03T08:07:16.000Z</time>
      </trkpt>
      <trkpt lat="43.62247" lon="1.2899">
        <ele>155</ele>
        <time>2020-10-03T08:07:17.000Z</time>
      </trkpt>
      <trkpt lat="43.62247" lon="1.28987">
        <ele>155</ele>
        <time>2020-10-03T08:07:18.000Z</time>
      </trkpt>
      <trkpt lat="43.62247" lon="1.28983">
        <ele>155</ele>
        <time>2020-10-03T08:07:19.000Z</time>
      </trkpt>
      <trkpt lat="43.62248" lon="1.28979">
        <ele>155</ele>
        <time>2020-10-03T08:07:20.000Z</time>
      </trkpt>
      <trkpt lat="43.62248" lon="1.28976">
        <ele>155</ele>
        <time>2020-10-03T08:07:21.000Z</time>
      </trkpt>
      <trkpt lat="43.62248" lon="1.28973">
        <ele>155</ele>
        <time>2020-10-03T08:07:22.000Z</time>
      </trkpt>
      <trkpt lat="43.62248" lon="1.2897">
        <ele>154.66292732738</ele>
        <time>2020-10-03T08:07:23.000Z</time>
      </trkpt>
      <trkpt lat="43.62248" lon="1.28966">
        <ele>154</ele>
        <time>2020-10-03T08:07:24.000Z</time>
      </trkpt>
      <trkpt lat="43.62248" lon="1.28963">
        <ele>154</ele>
        <time>2020-10-03T08:07:25.000Z</time>
      </trkpt>
      <trkpt lat="43.62248" lon="1.28959">
        <ele>154</ele>
        <time>2020-10-03T08:07:26.000Z</time>
      </trkpt>
      <trkpt lat="43.62248" lon="1.28956">
        <ele>154</ele>
        <time>2020-10-03T08:07:27.000Z</time>
      </trkpt>
      <trkpt lat="43.62248" lon="1.28952">
        <ele>154</ele>
        <time>2020-10-03T08:07:28.000Z</time>
      </trkpt>
      <trkpt lat="43.62248" lon="1.28948">
        <ele>154.35294117647</ele>
        <time>2020-10-03T08:07:29.000Z</time>
      </trkpt>
      <trkpt lat="43.62248" lon="1.28944">
        <ele>155</ele>
        <time>2020-10-03T08:07:30.000Z</time>
      </trkpt>
      <trkpt lat="43.62248" lon="1.28941">
        <ele>155</ele>
        <time>2020-10-03T08:07:31.000Z</time>
      </trkpt>
      <trkpt lat="43.62248" lon="1.28937">
        <ele>155</ele>
        <time>2020-10-03T08:07:32.000Z</time>
      </trkpt>
      <trkpt lat="43.62248" lon="1.28934">
        <ele>155</ele>
        <time>2020-10-03T08:07:33.000Z</time>
      </trkpt>
      <trkpt lat="43.62248" lon="1.2893">
        <ele>155</ele>
        <time>2020-10-03T08:07:34.000Z</time>
      </trkpt>
      <trkpt lat="43.62248" lon="1.28927">
        <ele>155</ele>
        <time>2020-10-03T08:07:35.000Z</time>
      </trkpt>
      <trkpt lat="43.62249" lon="1.28923">
        <ele>155</ele>
        <time>2020-10-03T08:07:36.000Z</time>
      </trkpt>
      <trkpt lat="43.62249" lon="1.28919">
        <ele>155</ele>
        <time>2020-10-03T08:07:37.000Z</time>
      </trkpt>
      <trkpt lat="43.62249" lon="1.28915">
        <ele>155</ele>
        <time>2020-10-03T08:07:38.000Z</time>
      </trkpt>
      <trkpt lat="43.62249" lon="1.28911">
        <ele>155</ele>
        <time>2020-10-03T08:07:39.000Z</time>
      </trkpt>
      <trkpt lat="43.62249" lon="1.28907">
        <ele>155</ele>
        <time>2020-10-03T08:07:40.000Z</time>
      </trkpt>
      <trkpt lat="43.62249" lon="1.28904">
        <ele>155</ele>
        <time>2020-10-03T08:07:41.000Z</time>
      </trkpt>
      <trkpt lat="43.62249" lon="1.289">
        <ele>155</ele>
        <time>2020-10-03T08:07:42.000Z</time>
      </trkpt>
      <trkpt lat="43.62249" lon="1.28896">
        <ele>155</ele>
        <time>2020-10-03T08:07:43.000Z</time>
      </trkpt>
      <trkpt lat="43.62249" lon="1.28892">
        <ele>155</ele>
        <time>2020-10-03T08:07:44.000Z</time>
      </trkpt>
      <trkpt lat="43.62249" lon="1.28889">
        <ele>155</ele>
        <time>2020-10-03T08:07:45.000Z</time>
      </trkpt>
      <trkpt lat="43.62249" lon="1.28884">
        <ele>155</ele>
        <time>2020-10-03T08:07:46.000Z</time>
      </trkpt>
      <trkpt lat="43.6225" lon="1.2888">
        <ele>155</ele>
        <time>2020-10-03T08:07:47.000Z</time>
      </trkpt>
      <trkpt lat="43.6225" lon="1.28876">
        <ele>155</ele>
        <time>2020-10-03T08:07:48.000Z</time>
      </trkpt>
      <trkpt lat="43.6225" lon="1.28872">
        <ele>155</ele>
        <time>2020-10-03T08:07:49.000Z</time>
      </trkpt>
      <trkpt lat="43.62251" lon="1.28869">
        <ele>155</ele>
        <time>2020-10-03T08:07:50.000Z</time>
      </trkpt>
      <trkpt lat="43.62251" lon="1.28866">
        <ele>155</ele>
        <time>2020-10-03T08:07:51.000Z</time>
      </trkpt>
      <trkpt lat="43.62251" lon="1.28863">
        <ele>155</ele>
        <time>2020-10-03T08:07:52.000Z</time>
      </trkpt>
      <trkpt lat="43.62252" lon="1.28859">
        <ele>155</ele>
        <time>2020-10-03T08:07:53.000Z</time>
      </trkpt>
      <trkpt lat="43.62252" lon="1.28856">
        <ele>155</ele>
        <time>2020-10-03T08:07:54.000Z</time>
      </trkpt>
      <trkpt lat="43.62252" lon="1.28852">
        <ele>155</ele>
        <time>2020-10-03T08:07:55.000Z</time>
      </trkpt>
      <trkpt lat="43.62252" lon="1.28848">
        <ele>155</ele>
        <time>2020-10-03T08:07:56.000Z</time>
      </trkpt>
      <trkpt lat="43.62252" lon="1.28844">
        <ele>155</ele>
        <time>2020-10-03T08:07:57.000Z</time>
      </trkpt>
      <trkpt lat="43.62252" lon="1.28841">
        <ele>155</ele>
        <time>2020-10-03T08:07:58.000Z</time>
      </trkpt>
      <trkpt lat="43.62252" lon="1.28837">
        <ele>155</ele>
        <time>2020-10-03T08:07:59.000Z</time>
      </trkpt>
      <trkpt lat="43.62251" lon="1.28833">
        <ele>155</ele>
        <time>2020-10-03T08:08:00.000Z</time>
      </trkpt>
      <trkpt lat="43.62251" lon="1.28829">
        <ele>155</ele>
        <time>2020-10-03T08:08:01.000Z</time>
      </trkpt>
      <trkpt lat="43.62251" lon="1.28825">
        <ele>155</ele>
        <time>2020-10-03T08:08:02.000Z</time>
      </trkpt>
      <trkpt lat="43.62251" lon="1.28821">
        <ele>155</ele>
        <time>2020-10-03T08:08:03.000Z</time>
      </trkpt>
      <trkpt lat="43.62252" lon="1.28817">
        <ele>155</ele>
        <time>2020-10-03T08:08:04.000Z</time>
      </trkpt>
      <trkpt lat="43.62252" lon="1.28813">
        <ele>155</ele>
        <time>2020-10-03T08:08:05.000Z</time>
      </trkpt>
      <trkpt lat="43.62252" lon="1.2881">
        <ele>155</ele>
        <time>2020-10-03T08:08:06.000Z</time>
      </trkpt>
      <trkpt lat="43.62252" lon="1.28806">
        <ele>155</ele>
        <time>2020-10-03T08:08:07.000Z</time>
      </trkpt>
      <trkpt lat="43.62252" lon="1.28799">
        <ele>155</ele>
        <time>2020-10-03T08:08:09.000Z</time>
      </trkpt>
      <trkpt lat="43.62253" lon="1.28796">
        <ele>155</ele>
        <time>2020-10-03T08:08:10.000Z</time>
      </trkpt>
      <trkpt lat="43.62254" lon="1.28793">
        <ele>155</ele>
        <time>2020-10-03T08:08:11.000Z</time>
      </trkpt>
      <trkpt lat="43.62255" lon="1.2879">
        <ele>155</ele>
        <time>2020-10-03T08:08:12.000Z</time>
      </trkpt>
      <trkpt lat="43.62255" lon="1.28786">
        <ele>155</ele>
        <time>2020-10-03T08:08:13.000Z</time>
      </trkpt>
      <trkpt lat="43.62256" lon="1.28778">
        <ele>155</ele>
        <time>2020-10-03T08:08:15.000Z</time>
      </trkpt>
      <trkpt lat="43.62257" lon="1.28775">
        <ele>155</ele>
        <time>2020-10-03T08:08:16.000Z</time>
      </trkpt>
      <trkpt lat="43.62257" lon="1.28771">
        <ele>155</ele>
        <time>2020-10-03T08:08:17.000Z</time>
      </trkpt>
      <trkpt lat="43.62257" lon="1.28767">
        <ele>155.333337076</ele>
        <time>2020-10-03T08:08:18.000Z</time>
      </trkpt>
      <trkpt lat="43.62258" lon="1.28764">
        <ele>156</ele>
        <time>2020-10-03T08:08:19.000Z</time>
      </trkpt>
      <trkpt lat="43.62258" lon="1.2876">
        <ele>156</ele>
        <time>2020-10-03T08:08:20.000Z</time>
      </trkpt>
      <trkpt lat="43.62258" lon="1.28755">
        <ele>156</ele>
        <time>2020-10-03T08:08:21.000Z</time>
      </trkpt>
      <trkpt lat="43.62258" lon="1.28751">
        <ele>156</ele>
        <time>2020-10-03T08:08:22.000Z</time>
      </trkpt>
      <trkpt lat="43.62258" lon="1.28748">
        <ele>156</ele>
        <time>2020-10-03T08:08:23.000Z</time>
      </trkpt>
      <trkpt lat="43.62259" lon="1.28745">
        <ele>156</ele>
        <time>2020-10-03T08:08:24.000Z</time>
      </trkpt>
      <trkpt lat="43.6226" lon="1.28741">
        <ele>156</ele>
        <time>2020-10-03T08:08:25.000Z</time>
      </trkpt>
      <trkpt lat="43.62261" lon="1.28737">
        <ele>156</ele>
        <time>2020-10-03T08:08:26.000Z</time>
      </trkpt>
      <trkpt lat="43.62262" lon="1.28734">
        <ele>156</ele>
        <time>2020-10-03T08:08:27.000Z</time>
      </trkpt>
      <trkpt lat="43.62264" lon="1.2873">
        <ele>156</ele>
        <time>2020-10-03T08:08:28.000Z</time>
      </trkpt>
      <trkpt lat="43.62266" lon="1.28728">
        <ele>156</ele>
        <time>2020-10-03T08:08:29.000Z</time>
      </trkpt>
      <trkpt lat="43.62267" lon="1.28726">
        <ele>156</ele>
        <time>2020-10-03T08:08:30.000Z</time>
      </trkpt>
      <trkpt lat="43.62268" lon="1.28721">
        <ele>157.10292705882</ele>
        <time>2020-10-03T08:08:32.000Z</time>
      </trkpt>
      <trkpt lat="43.62268" lon="1.28716">
        <ele>159</ele>
        <time>2020-10-03T08:08:33.000Z</time>
      </trkpt>
      <trkpt lat="43.62267" lon="1.28712">
        <ele>159</ele>
        <time>2020-10-03T08:08:34.000Z</time>
      </trkpt>
      <trkpt lat="43.62267" lon="1.28708">
        <ele>159</ele>
        <time>2020-10-03T08:08:35.000Z</time>
      </trkpt>
      <trkpt lat="43.62266" lon="1.28706">
        <ele>159</ele>
        <time>2020-10-03T08:08:36.000Z</time>
      </trkpt>
      <trkpt lat="43.62264" lon="1.28705">
        <ele>159</ele>
        <time>2020-10-03T08:08:37.000Z</time>
      </trkpt>
      <trkpt lat="43.62261" lon="1.28705">
        <ele>159</ele>
        <time>2020-10-03T08:08:38.000Z</time>
      </trkpt>
      <trkpt lat="43.62258" lon="1.28705">
        <ele>159</ele>
        <time>2020-10-03T08:08:39.000Z</time>
      </trkpt>
      <trkpt lat="43.62256" lon="1.28706">
        <ele>159</ele>
        <time>2020-10-03T08:08:40.000Z</time>
      </trkpt>
      <trkpt lat="43.62254" lon="1.28706">
        <ele>159</ele>
        <time>2020-10-03T08:08:41.000Z</time>
      </trkpt>
      <trkpt lat="43.62251" lon="1.28706">
        <ele>159.45055068713</ele>
        <time>2020-10-03T08:08:42.000Z</time>
      </trkpt>
      <trkpt lat="43.62249" lon="1.28705">
        <ele>160</ele>
        <time>2020-10-03T08:08:43.000Z</time>
      </trkpt>
      <trkpt lat="43.62246" lon="1.28705">
        <ele>160</ele>
        <time>2020-10-03T08:08:44.000Z</time>
      </trkpt>
      <trkpt lat="43.62243" lon="1.28705">
        <ele>159.72059294118</ele>
        <time>2020-10-03T08:08:45.000Z</time>
      </trkpt>
      <trkpt lat="43.62237" lon="1.28705">
        <ele>159</ele>
        <time>2020-10-03T08:08:47.000Z</time>
      </trkpt>
      <trkpt lat="43.62234" lon="1.28705">
        <ele>159</ele>
        <time>2020-10-03T08:08:48.000Z</time>
      </trkpt>
      <trkpt lat="43.62231" lon="1.28705">
        <ele>159</ele>
        <time>2020-10-03T08:08:49.000Z</time>
      </trkpt>
      <trkpt lat="43.62228" lon="1.28705">
        <ele>159</ele>
        <time>2020-10-03T08:08:50.000Z</time>
      </trkpt>
      <trkpt lat="43.62225" lon="1.28705">
        <ele>159</ele>
        <time>2020-10-03T08:08:51.000Z</time>
      </trkpt>
      <trkpt lat="43.62222" lon="1.28705">
        <ele>159</ele>
        <time>2020-10-03T08:08:52.000Z</time>
      </trkpt>
      <trkpt lat="43.62219" lon="1.28705">
        <ele>158.56249333333</ele>
        <time>2020-10-03T08:08:53.000Z</time>
      </trkpt>
      <trkpt lat="43.62216" lon="1.28705">
        <ele>158</ele>
        <time>2020-10-03T08:08:54.000Z</time>
      </trkpt>
      <trkpt lat="43.62213" lon="1.28705">
        <ele>158</ele>
        <time>2020-10-03T08:08:55.000Z</time>
      </trkpt>
      <trkpt lat="43.62211" lon="1.28705">
        <ele>158.5</ele>
        <time>2020-10-03T08:08:56.000Z</time>
      </trkpt>
      <trkpt lat="43.62208" lon="1.28705">
        <ele>159</ele>
        <time>2020-10-03T08:08:57.000Z</time>
      </trkpt>
      <trkpt lat="43.62205" lon="1.28705">
        <ele>159</ele>
        <time>2020-10-03T08:08:58.000Z</time>
      </trkpt>
      <trkpt lat="43.62202" lon="1.28706">
        <ele>159</ele>
        <time>2020-10-03T08:08:59.000Z</time>
      </trkpt>
      <trkpt lat="43.62199" lon="1.28706">
        <ele>159</ele>
        <time>2020-10-03T08:09:00.000Z</time>
      </trkpt>
      <trkpt lat="43.62196" lon="1.28705">
        <ele>159</ele>
        <time>2020-10-03T08:09:01.000Z</time>
      </trkpt>
      <trkpt lat="43.62193" lon="1.28705">
        <ele>159</ele>
        <time>2020-10-03T08:09:02.000Z</time>
      </trkpt>
      <trkpt lat="43.6219" lon="1.28706">
        <ele>159</ele>
        <time>2020-10-03T08:09:03.000Z</time>
      </trkpt>
      <trkpt lat="43.62187" lon="1.28706">
        <ele>159</ele>
        <time>2020-10-03T08:09:04.000Z</time>
      </trkpt>
      <trkpt lat="43.62184" lon="1.28706">
        <ele>158.725008</ele>
        <time>2020-10-03T08:09:05.000Z</time>
      </trkpt>
      <trkpt lat="43.62182" lon="1.28706">
        <ele>158</ele>
        <time>2020-10-03T08:09:06.000Z</time>
      </trkpt>
      <trkpt lat="43.62179" lon="1.28706">
        <ele>158</ele>
        <time>2020-10-03T08:09:07.000Z</time>
      </trkpt>
      <trkpt lat="43.62177" lon="1.28706">
        <ele>158</ele>
        <time>2020-10-03T08:09:08.000Z</time>
      </trkpt>
      <trkpt lat="43.62174" lon="1.28709">
        <ele>157</ele>
        <time>2020-10-03T08:09:10.000Z</time>
      </trkpt>
      <trkpt lat="43.62171" lon="1.28711">
        <ele>157</ele>
        <time>2020-10-03T08:09:12.000Z</time>
      </trkpt>
      <trkpt lat="43.6217" lon="1.28711">
        <ele>157.70001066667</ele>
        <time>2020-10-03T08:09:15.000Z</time>
      </trkpt>
      <trkpt lat="43.62171" lon="1.28713">
        <ele>159</ele>
        <time>2020-10-03T08:09:18.000Z</time>
      </trkpt>
      <trkpt lat="43.62172" lon="1.28717">
        <ele>158.44554279776</ele>
        <time>2020-10-03T08:09:19.000Z</time>
      </trkpt>
      <trkpt lat="43.62171" lon="1.28721">
        <ele>157</ele>
        <time>2020-10-03T08:09:20.000Z</time>
      </trkpt>
      <trkpt lat="43.62171" lon="1.28724">
        <ele>157</ele>
        <time>2020-10-03T08:09:21.000Z</time>
      </trkpt>
      <trkpt lat="43.62171" lon="1.28729">
        <ele>157</ele>
        <time>2020-10-03T08:09:22.000Z</time>
      </trkpt>
      <trkpt lat="43.62171" lon="1.28733">
        <ele>156.63767820207</ele>
        <time>2020-10-03T08:09:23.000Z</time>
      </trkpt>
      <trkpt lat="43.62172" lon="1.28737">
        <ele>156</ele>
        <time>2020-10-03T08:09:24.000Z</time>
      </trkpt>
      <trkpt lat="43.62172" lon="1.28742">
        <ele>156</ele>
        <time>2020-10-03T08:09:25.000Z</time>
      </trkpt>
      <trkpt lat="43.62173" lon="1.28746">
        <ele>156</ele>
        <time>2020-10-03T08:09:26.000Z</time>
      </trkpt>
      <trkpt lat="43.62174" lon="1.2875">
        <ele>156</ele>
        <time>2020-10-03T08:09:27.000Z</time>
      </trkpt>
      <trkpt lat="43.62175" lon="1.28754">
        <ele>155.54955141954</ele>
        <time>2020-10-03T08:09:28.000Z</time>
      </trkpt>
      <trkpt lat="43.62176" lon="1.28758">
        <ele>155</ele>
        <time>2020-10-03T08:09:29.000Z</time>
      </trkpt>
      <trkpt lat="43.62176" lon="1.28762">
        <ele>155</ele>
        <time>2020-10-03T08:09:30.000Z</time>
      </trkpt>
      <trkpt lat="43.62177" lon="1.28766">
        <ele>155</ele>
        <time>2020-10-03T08:09:31.000Z</time>
      </trkpt>
      <trkpt lat="43.62177" lon="1.2877">
        <ele>155</ele>
        <time>2020-10-03T08:09:32.000Z</time>
      </trkpt>
      <trkpt lat="43.62178" lon="1.28774">
        <ele>155</ele>
        <time>2020-10-03T08:09:33.000Z</time>
      </trkpt>
      <trkpt lat="43.62179" lon="1.28779">
        <ele>155</ele>
        <time>2020-10-03T08:09:34.000Z</time>
      </trkpt>
      <trkpt lat="43.62179" lon="1.28783">
        <ele>155</ele>
        <time>2020-10-03T08:09:35.000Z</time>
      </trkpt>
      <trkpt lat="43.62179" lon="1.28787">
        <ele>155</ele>
        <time>2020-10-03T08:09:36.000Z</time>
      </trkpt>
      <trkpt lat="43.62179" lon="1.28791">
        <ele>155</ele>
        <time>2020-10-03T08:09:37.000Z</time>
      </trkpt>
      <trkpt lat="43.62178" lon="1.28793">
        <ele>155</ele>
        <time>2020-10-03T08:09:38.000Z</time>
      </trkpt>
      <trkpt lat="43.62178" lon="1.28796">
        <ele>155</ele>
        <time>2020-10-03T08:09:39.000Z</time>
      </trkpt>
      <trkpt lat="43.62178" lon="1.28799">
        <ele>155</ele>
        <time>2020-10-03T08:09:40.000Z</time>
      </trkpt>
      <trkpt lat="43.62177" lon="1.28803">
        <ele>155</ele>
        <time>2020-10-03T08:09:41.000Z</time>
      </trkpt>
      <trkpt lat="43.62177" lon="1.28806">
        <ele>155</ele>
        <time>2020-10-03T08:09:42.000Z</time>
      </trkpt>
      <trkpt lat="43.62177" lon="1.2881">
        <ele>155</ele>
        <time>2020-10-03T08:09:43.000Z</time>
      </trkpt>
      <trkpt lat="43.62178" lon="1.28814">
        <ele>155</ele>
        <time>2020-10-03T08:09:44.000Z</time>
      </trkpt>
      <trkpt lat="43.62178" lon="1.28819">
        <ele>155</ele>
        <time>2020-10-03T08:09:45.000Z</time>
      </trkpt>
      <trkpt lat="43.62178" lon="1.28823">
        <ele>155</ele>
        <time>2020-10-03T08:09:46.000Z</time>
      </trkpt>
      <trkpt lat="43.62178" lon="1.28827">
        <ele>155.45793956504</ele>
        <time>2020-10-03T08:09:47.000Z</time>
      </trkpt>
      <trkpt lat="43.62178" lon="1.28831">
        <ele>156</ele>
        <time>2020-10-03T08:09:48.000Z</time>
      </trkpt>
      <trkpt lat="43.62178" lon="1.28835">
        <ele>156</ele>
        <time>2020-10-03T08:09:49.000Z</time>
      </trkpt>
      <trkpt lat="43.62178" lon="1.28838">
        <ele>156</ele>
        <time>2020-10-03T08:09:50.000Z</time>
      </trkpt>
      <trkpt lat="43.62178" lon="1.28842">
        <ele>156</ele>
        <time>2020-10-03T08:09:51.000Z</time>
      </trkpt>
      <trkpt lat="43.62178" lon="1.28845">
        <ele>156</ele>
        <time>2020-10-03T08:09:52.000Z</time>
      </trkpt>
      <trkpt lat="43.62177" lon="1.28848">
        <ele>156</ele>
        <time>2020-10-03T08:09:53.000Z</time>
      </trkpt>
      <trkpt lat="43.62178" lon="1.28851">
        <ele>156</ele>
        <time>2020-10-03T08:09:54.000Z</time>
      </trkpt>
      <trkpt lat="43.62178" lon="1.28853">
        <ele>156</ele>
        <time>2020-10-03T08:09:55.000Z</time>
      </trkpt>
      <trkpt lat="43.62179" lon="1.28856">
        <ele>156</ele>
        <time>2020-10-03T08:09:57.000Z</time>
      </trkpt>
      <trkpt lat="43.6218" lon="1.28859">
        <ele>156</ele>
        <time>2020-10-03T08:10:03.000Z</time>
      </trkpt>
      <trkpt lat="43.6218" lon="1.28863">
        <ele>156</ele>
        <time>2020-10-03T08:10:05.000Z</time>
      </trkpt>
      <trkpt lat="43.62182" lon="1.28865">
        <ele>156</ele>
        <time>2020-10-03T08:10:07.000Z</time>
      </trkpt>
      <trkpt lat="43.62185" lon="1.28865">
        <ele>155</ele>
        <time>2020-10-03T08:10:09.000Z</time>
      </trkpt>
      <trkpt lat="43.62186" lon="1.28864">
        <ele>155.54205495676</ele>
        <time>2020-10-03T08:10:13.000Z</time>
      </trkpt>
      <trkpt lat="43.62186" lon="1.28867">
        <ele>156</ele>
        <time>2020-10-03T08:10:32.000Z</time>
      </trkpt>
      <trkpt lat="43.62188" lon="1.28865">
        <ele>156</ele>
        <time>2020-10-03T08:10:38.000Z</time>
      </trkpt>
      <trkpt lat="43.62187" lon="1.28868">
        <ele>156</ele>
        <time>2020-10-03T08:10:52.000Z</time>
      </trkpt>
      <trkpt lat="43.62185" lon="1.28867">
        <ele>155.32456041859</ele>
        <time>2020-10-03T08:11:07.000Z</time>
      </trkpt>
      <trkpt lat="43.62183" lon="1.28865">
        <ele>156</ele>
        <time>2020-10-03T08:11:10.000Z</time>
      </trkpt>
      <trkpt lat="43.6218" lon="1.28865">
        <ele>156</ele>
        <time>2020-10-03T08:11:12.000Z</time>
      </trkpt>
      <trkpt lat="43.62182" lon="1.28864">
        <ele>156</ele>
        <time>2020-10-03T08:11:17.000Z</time>
      </trkpt>
      <trkpt lat="43.62184" lon="1.28865">
        <ele>155</ele>
        <time>2020-10-03T08:11:19.000Z</time>
      </trkpt>
      <trkpt lat="43.62186" lon="1.28866">
        <ele>155</ele>
        <time>2020-10-03T08:11:22.000Z</time>
      </trkpt>
      <trkpt lat="43.62184" lon="1.28868">
        <ele>157</ele>
        <time>2020-10-03T08:11:49.000Z</time>
      </trkpt>
      <trkpt lat="43.62182" lon="1.28867">
        <ele>156</ele>
        <time>2020-10-03T08:11:59.000Z</time>
      </trkpt>
      <trkpt lat="43.62179" lon="1.28868">
        <ele>156</ele>
        <time>2020-10-03T08:12:01.000Z</time>
      </trkpt>
      <trkpt lat="43.62177" lon="1.28868">
        <ele>156</ele>
        <time>2020-10-03T08:12:03.000Z</time>
      </trkpt>
      <trkpt lat="43.62176" lon="1.28865">
        <ele>156</ele>
        <time>2020-10-03T08:12:05.000Z</time>
      </trkpt>
      <trkpt lat="43.62175" lon="1.28861">
        <ele>156</ele>
        <time>2020-10-03T08:12:07.000Z</time>
      </trkpt>
      <trkpt lat="43.62177" lon="1.2886">
        <ele>157</ele>
        <time>2020-10-03T08:12:17.000Z</time>
      </trkpt>
      <trkpt lat="43.62179" lon="1.28859">
        <ele>158</ele>
        <time>2020-10-03T08:13:13.000Z</time>
      </trkpt>
      <trkpt lat="43.62181" lon="1.28858">
        <ele>157</ele>
        <time>2020-10-03T08:13:27.000Z</time>
      </trkpt>
      <trkpt lat="43.62182" lon="1.28856">
        <ele>158</ele>
        <time>2020-10-03T08:14:05.000Z</time>
      </trkpt>
      <trkpt lat="43.6218" lon="1.28856">
        <ele>158</ele>
        <time>2020-10-03T08:14:19.000Z</time>
      </trkpt>
      <trkpt lat="43.62178" lon="1.28857">
        <ele>158</ele>
        <time>2020-10-03T08:14:29.000Z</time>
      </trkpt>
      <trkpt lat="43.6218" lon="1.28857">
        <ele>157</ele>
        <time>2020-10-03T08:15:00.000Z</time>
      </trkpt>
      <trkpt lat="43.62178" lon="1.28859">
        <ele>159</ele>
        <time>2020-10-03T08:15:10.000Z</time>
      </trkpt>
      <trkpt lat="43.62176" lon="1.2886">
        <ele>159</ele>
        <time>2020-10-03T08:15:16.000Z</time>
      </trkpt>
      <trkpt lat="43.62178" lon="1.28859">
        <ele>159</ele>
        <time>2020-10-03T08:15:30.000Z</time>
      </trkpt>
      <trkpt lat="43.62179" lon="1.28856">
        <ele>159</ele>
        <time>2020-10-03T08:15:55.000Z</time>
      </trkpt>
      <trkpt lat="43.62179" lon="1.28854">
        <ele>159</ele>
        <time>2020-10-03T08:16:06.000Z</time>
      </trkpt>
      <trkpt lat="43.62178" lon="1.28857">
        <ele>160</ele>
        <time>2020-10-03T08:16:28.000Z</time>
      </trkpt>
      <trkpt lat="43.62177" lon="1.28854">
        <ele>159</ele>
        <time>2020-10-03T08:16:38.000Z</time>
      </trkpt>
      <trkpt lat="43.62177" lon="1.28851">
        <ele>159</ele>
        <time>2020-10-03T08:16:40.000Z</time>
      </trkpt>
      <trkpt lat="43.62178" lon="1.28848">
        <ele>159</ele>
        <time>2020-10-03T08:16:41.000Z</time>
      </trkpt>
      <trkpt lat="43.62178" lon="1.28844">
        <ele>158.67338243404</ele>
        <time>2020-10-03T08:16:42.000Z</time>
      </trkpt>
      <trkpt lat="43.62178" lon="1.2884">
        <ele>158</ele>
        <time>2020-10-03T08:16:43.000Z</time>
      </trkpt>
      <trkpt lat="43.62178" lon="1.28837">
        <ele>158</ele>
        <time>2020-10-03T08:16:44.000Z</time>
      </trkpt>
      <trkpt lat="43.62178" lon="1.28834">
        <ele>158.41935972253</ele>
        <time>2020-10-03T08:16:45.000Z</time>
      </trkpt>
      <trkpt lat="43.62178" lon="1.28832">
        <ele>159</ele>
        <time>2020-10-03T08:16:46.000Z</time>
      </trkpt>
      <trkpt lat="43.62178" lon="1.28829">
        <ele>159</ele>
        <time>2020-10-03T08:16:47.000Z</time>
      </trkpt>
      <trkpt lat="43.62178" lon="1.28826">
        <ele>159</ele>
        <time>2020-10-03T08:16:48.000Z</time>
      </trkpt>
      <trkpt lat="43.62178" lon="1.28823">
        <ele>159</ele>
        <time>2020-10-03T08:16:49.000Z</time>
      </trkpt>
      <trkpt lat="43.62178" lon="1.28819">
        <ele>159</ele>
        <time>2020-10-03T08:16:50.000Z</time>
      </trkpt>
      <trkpt lat="43.62178" lon="1.28816">
        <ele>159</ele>
        <time>2020-10-03T08:16:51.000Z</time>
      </trkpt>
      <trkpt lat="43.62178" lon="1.28812">
        <ele>159</ele>
        <time>2020-10-03T08:16:52.000Z</time>
      </trkpt>
      <trkpt lat="43.62177" lon="1.28809">
        <ele>159</ele>
        <time>2020-10-03T08:16:53.000Z</time>
      </trkpt>
      <trkpt lat="43.62177" lon="1.28805">
        <ele>159</ele>
        <time>2020-10-03T08:16:54.000Z</time>
      </trkpt>
      <trkpt lat="43.62176" lon="1.28801">
        <ele>159</ele>
        <time>2020-10-03T08:16:55.000Z</time>
      </trkpt>
      <trkpt lat="43.62176" lon="1.28797">
        <ele>159</ele>
        <time>2020-10-03T08:16:56.000Z</time>
      </trkpt>
      <trkpt lat="43.62175" lon="1.28793">
        <ele>159</ele>
        <time>2020-10-03T08:16:57.000Z</time>
      </trkpt>
      <trkpt lat="43.62176" lon="1.28789">
        <ele>159</ele>
        <time>2020-10-03T08:16:58.000Z</time>
      </trkpt>
      <trkpt lat="43.62176" lon="1.28785">
        <ele>159</ele>
        <time>2020-10-03T08:16:59.000Z</time>
      </trkpt>
      <trkpt lat="43.62175" lon="1.28781">
        <ele>159</ele>
        <time>2020-10-03T08:17:00.000Z</time>
      </trkpt>
      <trkpt lat="43.62175" lon="1.28777">
        <ele>159</ele>
        <time>2020-10-03T08:17:01.000Z</time>
      </trkpt>
      <trkpt lat="43.62174" lon="1.28773">
        <ele>159</ele>
        <time>2020-10-03T08:17:02.000Z</time>
      </trkpt>
      <trkpt lat="43.62174" lon="1.2877">
        <ele>159</ele>
        <time>2020-10-03T08:17:03.000Z</time>
      </trkpt>
      <trkpt lat="43.62173" lon="1.28766">
        <ele>159</ele>
        <time>2020-10-03T08:17:04.000Z</time>
      </trkpt>
      <trkpt lat="43.62173" lon="1.28762">
        <ele>158.60650621934</ele>
        <time>2020-10-03T08:17:05.000Z</time>
      </trkpt>
      <trkpt lat="43.62172" lon="1.28758">
        <ele>158</ele>
        <time>2020-10-03T08:17:06.000Z</time>
      </trkpt>
      <trkpt lat="43.62171" lon="1.28755">
        <ele>158</ele>
        <time>2020-10-03T08:17:07.000Z</time>
      </trkpt>
      <trkpt lat="43.62171" lon="1.28751">
        <ele>158</ele>
        <time>2020-10-03T08:17:08.000Z</time>
      </trkpt>
      <trkpt lat="43.6217" lon="1.28747">
        <ele>158</ele>
        <time>2020-10-03T08:17:09.000Z</time>
      </trkpt>
      <trkpt lat="43.6217" lon="1.28743">
        <ele>158</ele>
        <time>2020-10-03T08:17:10.000Z</time>
      </trkpt>
      <trkpt lat="43.6217" lon="1.28739">
        <ele>158</ele>
        <time>2020-10-03T08:17:11.000Z</time>
      </trkpt>
      <trkpt lat="43.62169" lon="1.28735">
        <ele>158</ele>
        <time>2020-10-03T08:17:12.000Z</time>
      </trkpt>
      <trkpt lat="43.62168" lon="1.28732">
        <ele>158.38982719906</ele>
        <time>2020-10-03T08:17:13.000Z</time>
      </trkpt>
      <trkpt lat="43.62168" lon="1.28728">
        <ele>159</ele>
        <time>2020-10-03T08:17:14.000Z</time>
      </trkpt>
      <trkpt lat="43.62167" lon="1.28724">
        <ele>159</ele>
        <time>2020-10-03T08:17:15.000Z</time>
      </trkpt>
      <trkpt lat="43.62167" lon="1.2872">
        <ele>159</ele>
        <time>2020-10-03T08:17:16.000Z</time>
      </trkpt>
      <trkpt lat="43.62167" lon="1.28717">
        <ele>159</ele>
        <time>2020-10-03T08:17:17.000Z</time>
      </trkpt>
      <trkpt lat="43.62166" lon="1.28713">
        <ele>159</ele>
        <time>2020-10-03T08:17:18.000Z</time>
      </trkpt>
      <trkpt lat="43.62164" lon="1.28711">
        <ele>159</ele>
        <time>2020-10-03T08:17:19.000Z</time>
      </trkpt>
      <trkpt lat="43.62162" lon="1.28709">
        <ele>159</ele>
        <time>2020-10-03T08:17:20.000Z</time>
      </trkpt>
      <trkpt lat="43.6216" lon="1.28709">
        <ele>159</ele>
        <time>2020-10-03T08:17:21.000Z</time>
      </trkpt>
      <trkpt lat="43.62158" lon="1.28708">
        <ele>159</ele>
        <time>2020-10-03T08:17:22.000Z</time>
      </trkpt>
      <trkpt lat="43.62156" lon="1.28708">
        <ele>159.42718313885</ele>
        <time>2020-10-03T08:17:23.000Z</time>
      </trkpt>
      <trkpt lat="43.62153" lon="1.28707">
        <ele>160</ele>
        <time>2020-10-03T08:17:24.000Z</time>
      </trkpt>
      <trkpt lat="43.62151" lon="1.28706">
        <ele>160</ele>
        <time>2020-10-03T08:17:25.000Z</time>
      </trkpt>
      <trkpt lat="43.62148" lon="1.28704">
        <ele>160</ele>
        <time>2020-10-03T08:17:26.000Z</time>
      </trkpt>
      <trkpt lat="43.62146" lon="1.28702">
        <ele>160</ele>
        <time>2020-10-03T08:17:27.000Z</time>
      </trkpt>
      <trkpt lat="43.62143" lon="1.287">
        <ele>160</ele>
        <time>2020-10-03T08:17:28.000Z</time>
      </trkpt>
      <trkpt lat="43.62141" lon="1.28699">
        <ele>160.40476335599</ele>
        <time>2020-10-03T08:17:29.000Z</time>
      </trkpt>
      <trkpt lat="43.62139" lon="1.28698">
        <ele>161</ele>
        <time>2020-10-03T08:17:30.000Z</time>
      </trkpt>
      <trkpt lat="43.62136" lon="1.28698">
        <ele>161</ele>
        <time>2020-10-03T08:17:31.000Z</time>
      </trkpt>
      <trkpt lat="43.62133" lon="1.28698">
        <ele>161</ele>
        <time>2020-10-03T08:17:32.000Z</time>
      </trkpt>
      <trkpt lat="43.62131" lon="1.28698">
        <ele>161</ele>
        <time>2020-10-03T08:17:33.000Z</time>
      </trkpt>
      <trkpt lat="43.62128" lon="1.28697">
        <ele>161</ele>
        <time>2020-10-03T08:17:34.000Z</time>
      </trkpt>
      <trkpt lat="43.62125" lon="1.28697">
        <ele>161</ele>
        <time>2020-10-03T08:17:35.000Z</time>
      </trkpt>
      <trkpt lat="43.62122" lon="1.28697">
        <ele>161</ele>
        <time>2020-10-03T08:17:36.000Z</time>
      </trkpt>
      <trkpt lat="43.6212" lon="1.28697">
        <ele>161</ele>
        <time>2020-10-03T08:17:37.000Z</time>
      </trkpt>
      <trkpt lat="43.62118" lon="1.28697">
        <ele>161</ele>
        <time>2020-10-03T08:17:38.000Z</time>
      </trkpt>
      <trkpt lat="43.62115" lon="1.28698">
        <ele>161</ele>
        <time>2020-10-03T08:17:39.000Z</time>
      </trkpt>
      <trkpt lat="43.62112" lon="1.28698">
        <ele>161</ele>
        <time>2020-10-03T08:17:40.000Z</time>
      </trkpt>
      <trkpt lat="43.6211" lon="1.28697">
        <ele>161</ele>
        <time>2020-10-03T08:17:41.000Z</time>
      </trkpt>
      <trkpt lat="43.62108" lon="1.28697">
        <ele>161</ele>
        <time>2020-10-03T08:17:42.000Z</time>
      </trkpt>
      <trkpt lat="43.62105" lon="1.28697">
        <ele>161</ele>
        <time>2020-10-03T08:17:43.000Z</time>
      </trkpt>
      <trkpt lat="43.62103" lon="1.28697">
        <ele>161</ele>
        <time>2020-10-03T08:17:44.000Z</time>
      </trkpt>
      <trkpt lat="43.62101" lon="1.28697">
        <ele>161.45054434973</ele>
        <time>2020-10-03T08:17:45.000Z</time>
      </trkpt>
      <trkpt lat="43.62099" lon="1.28696">
        <ele>162</ele>
        <time>2020-10-03T08:17:46.000Z</time>
      </trkpt>
      <trkpt lat="43.62096" lon="1.28696">
        <ele>162</ele>
        <time>2020-10-03T08:17:47.000Z</time>
      </trkpt>
      <trkpt lat="43.62094" lon="1.28695">
        <ele>162</ele>
        <time>2020-10-03T08:17:48.000Z</time>
      </trkpt>
      <trkpt lat="43.62091" lon="1.28694">
        <ele>162</ele>
        <time>2020-10-03T08:17:49.000Z</time>
      </trkpt>
      <trkpt lat="43.62088" lon="1.28693">
        <ele>162</ele>
        <time>2020-10-03T08:17:50.000Z</time>
      </trkpt>
      <trkpt lat="43.62086" lon="1.28692">
        <ele>162.41592850185</ele>
        <time>2020-10-03T08:17:51.000Z</time>
      </trkpt>
      <trkpt lat="43.62083" lon="1.28691">
        <ele>163</ele>
        <time>2020-10-03T08:17:52.000Z</time>
      </trkpt>
      <trkpt lat="43.6208" lon="1.2869">
        <ele>163</ele>
        <time>2020-10-03T08:17:53.000Z</time>
      </trkpt>
      <trkpt lat="43.62078" lon="1.2869">
        <ele>163</ele>
        <time>2020-10-03T08:17:54.000Z</time>
      </trkpt>
      <trkpt lat="43.62075" lon="1.28689">
        <ele>163.42735239096</ele>
        <time>2020-10-03T08:17:55.000Z</time>
      </trkpt>
      <trkpt lat="43.62073" lon="1.28689">
        <ele>164</ele>
        <time>2020-10-03T08:17:56.000Z</time>
      </trkpt>
      <trkpt lat="43.6207" lon="1.28688">
        <ele>164</ele>
        <time>2020-10-03T08:17:57.000Z</time>
      </trkpt>
      <trkpt lat="43.62068" lon="1.28687">
        <ele>164</ele>
        <time>2020-10-03T08:17:58.000Z</time>
      </trkpt>
      <trkpt lat="43.62066" lon="1.28687">
        <ele>164</ele>
        <time>2020-10-03T08:17:59.000Z</time>
      </trkpt>
      <trkpt lat="43.62063" lon="1.28687">
        <ele>164</ele>
        <time>2020-10-03T08:18:00.000Z</time>
      </trkpt>
      <trkpt lat="43.62061" lon="1.28686">
        <ele>164.30233077335</ele>
        <time>2020-10-03T08:18:01.000Z</time>
      </trkpt>
      <trkpt lat="43.62058" lon="1.28685">
        <ele>165</ele>
        <time>2020-10-03T08:18:02.000Z</time>
      </trkpt>
      <trkpt lat="43.62055" lon="1.28684">
        <ele>165</ele>
        <time>2020-10-03T08:18:03.000Z</time>
      </trkpt>
      <trkpt lat="43.62053" lon="1.28683">
        <ele>165</ele>
        <time>2020-10-03T08:18:04.000Z</time>
      </trkpt>
      <trkpt lat="43.6205" lon="1.28682">
        <ele>165</ele>
        <time>2020-10-03T08:18:05.000Z</time>
      </trkpt>
      <trkpt lat="43.62048" lon="1.28681">
        <ele>165.36606857143</ele>
        <time>2020-10-03T08:18:06.000Z</time>
      </trkpt>
      <trkpt lat="43.62046" lon="1.2868">
        <ele>166</ele>
        <time>2020-10-03T08:18:07.000Z</time>
      </trkpt>
      <trkpt lat="43.62044" lon="1.2868">
        <ele>166.36035932149</ele>
        <time>2020-10-03T08:18:08.000Z</time>
      </trkpt>
      <trkpt lat="43.62041" lon="1.28679">
        <ele>167</ele>
        <time>2020-10-03T08:18:09.000Z</time>
      </trkpt>
      <trkpt lat="43.62039" lon="1.28678">
        <ele>167</ele>
        <time>2020-10-03T08:18:10.000Z</time>
      </trkpt>
      <trkpt lat="43.62036" lon="1.28678">
        <ele>167.32584027268</ele>
        <time>2020-10-03T08:18:11.000Z</time>
      </trkpt>
      <trkpt lat="43.62034" lon="1.28677">
        <ele>168</ele>
        <time>2020-10-03T08:18:12.000Z</time>
      </trkpt>
      <trkpt lat="43.62031" lon="1.28676">
        <ele>168.31868116411</ele>
        <time>2020-10-03T08:18:13.000Z</time>
      </trkpt>
      <trkpt lat="43.62029" lon="1.28675">
        <ele>169</ele>
        <time>2020-10-03T08:18:14.000Z</time>
      </trkpt>
      <trkpt lat="43.62027" lon="1.28673">
        <ele>169</ele>
        <time>2020-10-03T08:18:15.000Z</time>
      </trkpt>
      <trkpt lat="43.62024" lon="1.28671">
        <ele>169</ele>
        <time>2020-10-03T08:18:16.000Z</time>
      </trkpt>
      <trkpt lat="43.62022" lon="1.2867">
        <ele>169</ele>
        <time>2020-10-03T08:18:17.000Z</time>
      </trkpt>
      <trkpt lat="43.6202" lon="1.28669">
        <ele>169</ele>
        <time>2020-10-03T08:18:18.000Z</time>
      </trkpt>
      <trkpt lat="43.62018" lon="1.28669">
        <ele>169.35971600641</ele>
        <time>2020-10-03T08:18:19.000Z</time>
      </trkpt>
      <trkpt lat="43.62015" lon="1.28668">
        <ele>170</ele>
        <time>2020-10-03T08:18:20.000Z</time>
      </trkpt>
      <trkpt lat="43.62013" lon="1.28667">
        <ele>170</ele>
        <time>2020-10-03T08:18:21.000Z</time>
      </trkpt>
      <trkpt lat="43.6201" lon="1.28666">
        <ele>170</ele>
        <time>2020-10-03T08:18:22.000Z</time>
      </trkpt>
      <trkpt lat="43.62008" lon="1.28666">
        <ele>170</ele>
        <time>2020-10-03T08:18:23.000Z</time>
      </trkpt>
      <trkpt lat="43.62005" lon="1.28666">
        <ele>170.48076307692</ele>
        <time>2020-10-03T08:18:24.000Z</time>
      </trkpt>
      <trkpt lat="43.62003" lon="1.28666">
        <ele>171</ele>
        <time>2020-10-03T08:18:25.000Z</time>
      </trkpt>
      <trkpt lat="43.62" lon="1.28666">
        <ele>171</ele>
        <time>2020-10-03T08:18:26.000Z</time>
      </trkpt>
      <trkpt lat="43.61998" lon="1.28665">
        <ele>171</ele>
        <time>2020-10-03T08:18:27.000Z</time>
      </trkpt>
      <trkpt lat="43.61996" lon="1.28665">
        <ele>171</ele>
        <time>2020-10-03T08:18:28.000Z</time>
      </trkpt>
      <trkpt lat="43.61993" lon="1.28663">
        <ele>171</ele>
        <time>2020-10-03T08:18:30.000Z</time>
      </trkpt>
      <trkpt lat="43.6199" lon="1.2866">
        <ele>171</ele>
        <time>2020-10-03T08:18:32.000Z</time>
      </trkpt>
      <trkpt lat="43.61988" lon="1.28658">
        <ele>171.42105026779</ele>
        <time>2020-10-03T08:18:33.000Z</time>
      </trkpt>
      <trkpt lat="43.61986" lon="1.28657">
        <ele>172</ele>
        <time>2020-10-03T08:18:34.000Z</time>
      </trkpt>
      <trkpt lat="43.61984" lon="1.28656">
        <ele>172</ele>
        <time>2020-10-03T08:18:35.000Z</time>
      </trkpt>
      <trkpt lat="43.61982" lon="1.28655">
        <ele>172.44897665974</ele>
        <time>2020-10-03T08:18:36.000Z</time>
      </trkpt>
      <trkpt lat="43.61979" lon="1.28654">
        <ele>173</ele>
        <time>2020-10-03T08:18:37.000Z</time>
      </trkpt>
      <trkpt lat="43.61977" lon="1.28653">
        <ele>173</ele>
        <time>2020-10-03T08:18:38.000Z</time>
      </trkpt>
      <trkpt lat="43.61975" lon="1.28651">
        <ele>173</ele>
        <time>2020-10-03T08:18:39.000Z</time>
      </trkpt>
      <trkpt lat="43.61973" lon="1.2865">
        <ele>173.37499428571</ele>
        <time>2020-10-03T08:18:40.000Z</time>
      </trkpt>
      <trkpt lat="43.61971" lon="1.28649">
        <ele>174</ele>
        <time>2020-10-03T08:18:41.000Z</time>
      </trkpt>
      <trkpt lat="43.61969" lon="1.28649">
        <ele>174.23287334958</ele>
        <time>2020-10-03T08:18:42.000Z</time>
      </trkpt>
      <trkpt lat="43.61966" lon="1.28648">
        <ele>175</ele>
        <time>2020-10-03T08:18:43.000Z</time>
      </trkpt>
      <trkpt lat="43.61964" lon="1.28647">
        <ele>175</ele>
        <time>2020-10-03T08:18:44.000Z</time>
      </trkpt>
      <trkpt lat="43.61961" lon="1.28647">
        <ele>175</ele>
        <time>2020-10-03T08:18:45.000Z</time>
      </trkpt>
      <trkpt lat="43.61959" lon="1.28646">
        <ele>175</ele>
        <time>2020-10-03T08:18:46.000Z</time>
      </trkpt>
      <trkpt lat="43.61957" lon="1.28646">
        <ele>175.35293497576</ele>
        <time>2020-10-03T08:18:47.000Z</time>
      </trkpt>
      <trkpt lat="43.61955" lon="1.28645">
        <ele>176</ele>
        <time>2020-10-03T08:18:48.000Z</time>
      </trkpt>
      <trkpt lat="43.61952" lon="1.28645">
        <ele>176</ele>
        <time>2020-10-03T08:18:49.000Z</time>
      </trkpt>
      <trkpt lat="43.6195" lon="1.28644">
        <ele>176</ele>
        <time>2020-10-03T08:18:50.000Z</time>
      </trkpt>
      <trkpt lat="43.61948" lon="1.28644">
        <ele>176</ele>
        <time>2020-10-03T08:18:51.000Z</time>
      </trkpt>
      <trkpt lat="43.61945" lon="1.28643">
        <ele>176.36470552803</ele>
        <time>2020-10-03T08:18:52.000Z</time>
      </trkpt>
      <trkpt lat="43.61943" lon="1.28642">
        <ele>177</ele>
        <time>2020-10-03T08:18:53.000Z</time>
      </trkpt>
      <trkpt lat="43.61941" lon="1.28641">
        <ele>177</ele>
        <time>2020-10-03T08:18:54.000Z</time>
      </trkpt>
      <trkpt lat="43.61938" lon="1.28639">
        <ele>177</ele>
        <time>2020-10-03T08:18:55.000Z</time>
      </trkpt>
      <trkpt lat="43.61935" lon="1.28638">
        <ele>177</ele>
        <time>2020-10-03T08:18:56.000Z</time>
      </trkpt>
      <trkpt lat="43.61933" lon="1.28636">
        <ele>177</ele>
        <time>2020-10-03T08:18:57.000Z</time>
      </trkpt>
      <trkpt lat="43.6193" lon="1.28634">
        <ele>177</ele>
        <time>2020-10-03T08:18:58.000Z</time>
      </trkpt>
      <trkpt lat="43.61928" lon="1.28632">
        <ele>177</ele>
        <time>2020-10-03T08:18:59.000Z</time>
      </trkpt>
      <trkpt lat="43.61926" lon="1.28629">
        <ele>177</ele>
        <time>2020-10-03T08:19:00.000Z</time>
      </trkpt>
      <trkpt lat="43.61924" lon="1.28626">
        <ele>177</ele>
        <time>2020-10-03T08:19:01.000Z</time>
      </trkpt>
      <trkpt lat="43.61924" lon="1.28623">
        <ele>177</ele>
        <time>2020-10-03T08:19:02.000Z</time>
      </trkpt>
      <trkpt lat="43.61925" lon="1.2862">
        <ele>177</ele>
        <time>2020-10-03T08:19:03.000Z</time>
      </trkpt>
      <trkpt lat="43.61926" lon="1.28619">
        <ele>177</ele>
        <time>2020-10-03T08:19:04.000Z</time>
      </trkpt>
      <trkpt lat="43.6193" lon="1.28617">
        <ele>179</ele>
        <time>2020-10-03T08:19:06.000Z</time>
      </trkpt>
      <trkpt lat="43.61932" lon="1.28616">
        <ele>179</ele>
        <time>2020-10-03T08:19:07.000Z</time>
      </trkpt>
      <trkpt lat="43.61934" lon="1.28615">
        <ele>179</ele>
        <time>2020-10-03T08:19:08.000Z</time>
      </trkpt>
      <trkpt lat="43.61937" lon="1.28614">
        <ele>179</ele>
        <time>2020-10-03T08:19:09.000Z</time>
      </trkpt>
      <trkpt lat="43.61939" lon="1.28612">
        <ele>179</ele>
        <time>2020-10-03T08:19:10.000Z</time>
      </trkpt>
      <trkpt lat="43.61941" lon="1.28611">
        <ele>179</ele>
        <time>2020-10-03T08:19:11.000Z</time>
      </trkpt>
      <trkpt lat="43.61944" lon="1.2861">
        <ele>179.53333333333</ele>
        <time>2020-10-03T08:19:12.000Z</time>
      </trkpt>
      <trkpt lat="43.61946" lon="1.28608">
        <ele>181</ele>
        <time>2020-10-03T08:19:13.000Z</time>
      </trkpt>
      <trkpt lat="43.61948" lon="1.28606">
        <ele>181</ele>
        <time>2020-10-03T08:19:14.000Z</time>
      </trkpt>
      <trkpt lat="43.61951" lon="1.28604">
        <ele>181.43749714286</ele>
        <time>2020-10-03T08:19:15.000Z</time>
      </trkpt>
      <trkpt lat="43.61953" lon="1.28601">
        <ele>181.65420963227</ele>
        <time>2020-10-03T08:19:16.000Z</time>
      </trkpt>
      <trkpt lat="43.61955" lon="1.28599">
        <ele>181.35293497576</ele>
        <time>2020-10-03T08:19:17.000Z</time>
      </trkpt>
      <trkpt lat="43.61957" lon="1.28595">
        <ele>182</ele>
        <time>2020-10-03T08:19:18.000Z</time>
      </trkpt>
      <trkpt lat="43.61959" lon="1.28592">
        <ele>182</ele>
        <time>2020-10-03T08:19:19.000Z</time>
      </trkpt>
      <trkpt lat="43.61961" lon="1.28589">
        <ele>181.55752653459</ele>
        <time>2020-10-03T08:19:20.000Z</time>
      </trkpt>
      <trkpt lat="43.61962" lon="1.28586">
        <ele>181</ele>
        <time>2020-10-03T08:19:21.000Z</time>
      </trkpt>
      <trkpt lat="43.61963" lon="1.28582">
        <ele>181</ele>
        <time>2020-10-03T08:19:22.000Z</time>
      </trkpt>
      <trkpt lat="43.61964" lon="1.28578">
        <ele>181</ele>
        <time>2020-10-03T08:19:23.000Z</time>
      </trkpt>
      <trkpt lat="43.61965" lon="1.28574">
        <ele>181</ele>
        <time>2020-10-03T08:19:24.000Z</time>
      </trkpt>
      <trkpt lat="43.61965" lon="1.28571">
        <ele>181</ele>
        <time>2020-10-03T08:19:25.000Z</time>
      </trkpt>
      <trkpt lat="43.61965" lon="1.28567">
        <ele>181</ele>
        <time>2020-10-03T08:19:26.000Z</time>
      </trkpt>
      <trkpt lat="43.61966" lon="1.28564">
        <ele>180.65420549568</ele>
        <time>2020-10-03T08:19:27.000Z</time>
      </trkpt>
      <trkpt lat="43.61966" lon="1.28561">
        <ele>180</ele>
        <time>2020-10-03T08:19:28.000Z</time>
      </trkpt>
      <trkpt lat="43.61966" lon="1.28558">
        <ele>180</ele>
        <time>2020-10-03T08:19:29.000Z</time>
      </trkpt>
      <trkpt lat="43.61965" lon="1.28555">
        <ele>180.37037037037</ele>
        <time>2020-10-03T08:19:30.000Z</time>
      </trkpt>
      <trkpt lat="43.61965" lon="1.28552">
        <ele>181</ele>
        <time>2020-10-03T08:19:31.000Z</time>
      </trkpt>
      <trkpt lat="43.61964" lon="1.28549">
        <ele>181</ele>
        <time>2020-10-03T08:19:32.000Z</time>
      </trkpt>
      <trkpt lat="43.61964" lon="1.28545">
        <ele>181.33980787633</ele>
        <time>2020-10-03T08:19:33.000Z</time>
      </trkpt>
      <trkpt lat="43.61963" lon="1.28542">
        <ele>182</ele>
        <time>2020-10-03T08:19:34.000Z</time>
      </trkpt>
      <trkpt lat="43.61962" lon="1.28539">
        <ele>182</ele>
        <time>2020-10-03T08:19:35.000Z</time>
      </trkpt>
      <trkpt lat="43.61961" lon="1.28535">
        <ele>182</ele>
        <time>2020-10-03T08:19:36.000Z</time>
      </trkpt>
      <trkpt lat="43.61961" lon="1.28532">
        <ele>182</ele>
        <time>2020-10-03T08:19:37.000Z</time>
      </trkpt>
      <trkpt lat="43.61961" lon="1.28529">
        <ele>182</ele>
        <time>2020-10-03T08:19:38.000Z</time>
      </trkpt>
      <trkpt lat="43.6196" lon="1.28525">
        <ele>182</ele>
        <time>2020-10-03T08:19:39.000Z</time>
      </trkpt>
      <trkpt lat="43.6196" lon="1.28522">
        <ele>182</ele>
        <time>2020-10-03T08:19:40.000Z</time>
      </trkpt>
      <trkpt lat="43.61959" lon="1.28518">
        <ele>182.14286497952</ele>
        <time>2020-10-03T08:19:41.000Z</time>
      </trkpt>
      <trkpt lat="43.61958" lon="1.28514">
        <ele>183</ele>
        <time>2020-10-03T08:19:42.000Z</time>
      </trkpt>
      <trkpt lat="43.61957" lon="1.28511">
        <ele>183</ele>
        <time>2020-10-03T08:19:43.000Z</time>
      </trkpt>
      <trkpt lat="43.61956" lon="1.28508">
        <ele>183.37272653223</ele>
        <time>2020-10-03T08:19:44.000Z</time>
      </trkpt>
      <trkpt lat="43.61956" lon="1.28505">
        <ele>184</ele>
        <time>2020-10-03T08:19:45.000Z</time>
      </trkpt>
      <trkpt lat="43.61955" lon="1.28502">
        <ele>184</ele>
        <time>2020-10-03T08:19:46.000Z</time>
      </trkpt>
      <trkpt lat="43.61955" lon="1.28499">
        <ele>184</ele>
        <time>2020-10-03T08:19:47.000Z</time>
      </trkpt>
      <trkpt lat="43.61954" lon="1.28495">
        <ele>184</ele>
        <time>2020-10-03T08:19:48.000Z</time>
      </trkpt>
      <trkpt lat="43.61953" lon="1.28492">
        <ele>184</ele>
        <time>2020-10-03T08:19:49.000Z</time>
      </trkpt>
      <trkpt lat="43.61952" lon="1.28488">
        <ele>184</ele>
        <time>2020-10-03T08:19:50.000Z</time>
      </trkpt>
      <trkpt lat="43.61951" lon="1.28485">
        <ele>184</ele>
        <time>2020-10-03T08:19:51.000Z</time>
      </trkpt>
      <trkpt lat="43.6195" lon="1.28481">
        <ele>184</ele>
        <time>2020-10-03T08:19:52.000Z</time>
      </trkpt>
      <trkpt lat="43.6195" lon="1.28478">
        <ele>184</ele>
        <time>2020-10-03T08:19:53.000Z</time>
      </trkpt>
      <trkpt lat="43.6195" lon="1.28475">
        <ele>184</ele>
        <time>2020-10-03T08:19:54.000Z</time>
      </trkpt>
      <trkpt lat="43.61949" lon="1.28471">
        <ele>184</ele>
        <time>2020-10-03T08:19:55.000Z</time>
      </trkpt>
      <trkpt lat="43.61948" lon="1.28468">
        <ele>184</ele>
        <time>2020-10-03T08:19:56.000Z</time>
      </trkpt>
      <trkpt lat="43.61947" lon="1.28464">
        <ele>184</ele>
        <time>2020-10-03T08:19:57.000Z</time>
      </trkpt>
      <trkpt lat="43.61947" lon="1.2846">
        <ele>184</ele>
        <time>2020-10-03T08:19:58.000Z</time>
      </trkpt>
      <trkpt lat="43.61946" lon="1.28457">
        <ele>184</ele>
        <time>2020-10-03T08:19:59.000Z</time>
      </trkpt>
      <trkpt lat="43.61944" lon="1.28449">
        <ele>184</ele>
        <time>2020-10-03T08:20:01.000Z</time>
      </trkpt>
      <trkpt lat="43.61943" lon="1.28446">
        <ele>184</ele>
        <time>2020-10-03T08:20:02.000Z</time>
      </trkpt>
      <trkpt lat="43.61942" lon="1.28442">
        <ele>184</ele>
        <time>2020-10-03T08:20:03.000Z</time>
      </trkpt>
      <trkpt lat="43.61942" lon="1.28438">
        <ele>184</ele>
        <time>2020-10-03T08:20:04.000Z</time>
      </trkpt>
      <trkpt lat="43.61941" lon="1.28434">
        <ele>184</ele>
        <time>2020-10-03T08:20:05.000Z</time>
      </trkpt>
      <trkpt lat="43.6194" lon="1.28431">
        <ele>184</ele>
        <time>2020-10-03T08:20:06.000Z</time>
      </trkpt>
      <trkpt lat="43.61939" lon="1.28427">
        <ele>184.36363847935</ele>
        <time>2020-10-03T08:20:07.000Z</time>
      </trkpt>
      <trkpt lat="43.61939" lon="1.28423">
        <ele>185</ele>
        <time>2020-10-03T08:20:08.000Z</time>
      </trkpt>
      <trkpt lat="43.61938" lon="1.28419">
        <ele>185</ele>
        <time>2020-10-03T08:20:09.000Z</time>
      </trkpt>
      <trkpt lat="43.61938" lon="1.28416">
        <ele>185</ele>
        <time>2020-10-03T08:20:10.000Z</time>
      </trkpt>
      <trkpt lat="43.61937" lon="1.28413">
        <ele>185</ele>
        <time>2020-10-03T08:20:11.000Z</time>
      </trkpt>
      <trkpt lat="43.61936" lon="1.2841">
        <ele>185</ele>
        <time>2020-10-03T08:20:12.000Z</time>
      </trkpt>
      <trkpt lat="43.61935" lon="1.28408">
        <ele>185</ele>
        <time>2020-10-03T08:20:13.000Z</time>
      </trkpt>
      <trkpt lat="43.61933" lon="1.28405">
        <ele>185</ele>
        <time>2020-10-03T08:20:14.000Z</time>
      </trkpt>
      <trkpt lat="43.61932" lon="1.28402">
        <ele>185</ele>
        <time>2020-10-03T08:20:15.000Z</time>
      </trkpt>
      <trkpt lat="43.6193" lon="1.28399">
        <ele>184.64557105592</ele>
        <time>2020-10-03T08:20:16.000Z</time>
      </trkpt>
      <trkpt lat="43.61929" lon="1.28396">
        <ele>184</ele>
        <time>2020-10-03T08:20:17.000Z</time>
      </trkpt>
      <trkpt lat="43.61929" lon="1.28392">
        <ele>184</ele>
        <time>2020-10-03T08:20:18.000Z</time>
      </trkpt>
      <trkpt lat="43.61929" lon="1.28387">
        <ele>184</ele>
        <time>2020-10-03T08:20:19.000Z</time>
      </trkpt>
      <trkpt lat="43.6193" lon="1.28383">
        <ele>185</ele>
        <time>2020-10-03T08:20:20.000Z</time>
      </trkpt>
      <trkpt lat="43.61931" lon="1.2838">
        <ele>185</ele>
        <time>2020-10-03T08:20:21.000Z</time>
      </trkpt>
      <trkpt lat="43.61931" lon="1.28376">
        <ele>185</ele>
        <time>2020-10-03T08:20:22.000Z</time>
      </trkpt>
      <trkpt lat="43.61931" lon="1.28373">
        <ele>185</ele>
        <time>2020-10-03T08:20:23.000Z</time>
      </trkpt>
      <trkpt lat="43.61931" lon="1.2837">
        <ele>185</ele>
        <time>2020-10-03T08:20:24.000Z</time>
      </trkpt>
      <trkpt lat="43.61931" lon="1.28366">
        <ele>185</ele>
        <time>2020-10-03T08:20:25.000Z</time>
      </trkpt>
      <trkpt lat="43.6193" lon="1.28362">
        <ele>185</ele>
        <time>2020-10-03T08:20:26.000Z</time>
      </trkpt>
      <trkpt lat="43.6193" lon="1.28358">
        <ele>185</ele>
        <time>2020-10-03T08:20:27.000Z</time>
      </trkpt>
      <trkpt lat="43.61929" lon="1.28354">
        <ele>185</ele>
        <time>2020-10-03T08:20:28.000Z</time>
      </trkpt>
      <trkpt lat="43.61928" lon="1.2835">
        <ele>185</ele>
        <time>2020-10-03T08:20:29.000Z</time>
      </trkpt>
      <trkpt lat="43.61928" lon="1.28347">
        <ele>185</ele>
        <time>2020-10-03T08:20:30.000Z</time>
      </trkpt>
      <trkpt lat="43.61927" lon="1.28344">
        <ele>185</ele>
        <time>2020-10-03T08:20:31.000Z</time>
      </trkpt>
      <trkpt lat="43.61925" lon="1.28341">
        <ele>185</ele>
        <time>2020-10-03T08:20:32.000Z</time>
      </trkpt>
      <trkpt lat="43.61924" lon="1.28337">
        <ele>185</ele>
        <time>2020-10-03T08:20:33.000Z</time>
      </trkpt>
      <trkpt lat="43.61924" lon="1.28333">
        <ele>185</ele>
        <time>2020-10-03T08:20:34.000Z</time>
      </trkpt>
      <trkpt lat="43.61923" lon="1.28329">
        <ele>185</ele>
        <time>2020-10-03T08:20:35.000Z</time>
      </trkpt>
      <trkpt lat="43.61923" lon="1.28325">
        <ele>185</ele>
        <time>2020-10-03T08:20:36.000Z</time>
      </trkpt>
      <trkpt lat="43.61922" lon="1.28321">
        <ele>185</ele>
        <time>2020-10-03T08:20:37.000Z</time>
      </trkpt>
      <trkpt lat="43.61922" lon="1.28317">
        <ele>185</ele>
        <time>2020-10-03T08:20:38.000Z</time>
      </trkpt>
      <trkpt lat="43.61921" lon="1.28313">
        <ele>185</ele>
        <time>2020-10-03T08:20:39.000Z</time>
      </trkpt>
      <trkpt lat="43.61921" lon="1.28309">
        <ele>185</ele>
        <time>2020-10-03T08:20:40.000Z</time>
      </trkpt>
      <trkpt lat="43.61921" lon="1.28306">
        <ele>185</ele>
        <time>2020-10-03T08:20:41.000Z</time>
      </trkpt>
      <trkpt lat="43.61921" lon="1.28302">
        <ele>185</ele>
        <time>2020-10-03T08:20:42.000Z</time>
      </trkpt>
      <trkpt lat="43.6192" lon="1.28297">
        <ele>185</ele>
        <time>2020-10-03T08:20:43.000Z</time>
      </trkpt>
      <trkpt lat="43.6192" lon="1.28293">
        <ele>185</ele>
        <time>2020-10-03T08:20:44.000Z</time>
      </trkpt>
      <trkpt lat="43.6192" lon="1.28289">
        <ele>185</ele>
        <time>2020-10-03T08:20:45.000Z</time>
      </trkpt>
      <trkpt lat="43.6192" lon="1.28285">
        <ele>185</ele>
        <time>2020-10-03T08:20:46.000Z</time>
      </trkpt>
      <trkpt lat="43.61919" lon="1.28281">
        <ele>185</ele>
        <time>2020-10-03T08:20:47.000Z</time>
      </trkpt>
      <trkpt lat="43.61918" lon="1.28277">
        <ele>185</ele>
        <time>2020-10-03T08:20:48.000Z</time>
      </trkpt>
      <trkpt lat="43.61917" lon="1.28273">
        <ele>185</ele>
        <time>2020-10-03T08:20:49.000Z</time>
      </trkpt>
      <trkpt lat="43.61917" lon="1.28269">
        <ele>185</ele>
        <time>2020-10-03T08:20:50.000Z</time>
      </trkpt>
      <trkpt lat="43.61917" lon="1.28265">
        <ele>185</ele>
        <time>2020-10-03T08:20:51.000Z</time>
      </trkpt>
      <trkpt lat="43.61916" lon="1.28261">
        <ele>185</ele>
        <time>2020-10-03T08:20:52.000Z</time>
      </trkpt>
      <trkpt lat="43.61916" lon="1.28257">
        <ele>185</ele>
        <time>2020-10-03T08:20:53.000Z</time>
      </trkpt>
      <trkpt lat="43.61915" lon="1.28253">
        <ele>185</ele>
        <time>2020-10-03T08:20:54.000Z</time>
      </trkpt>
      <trkpt lat="43.61914" lon="1.28249">
        <ele>185</ele>
        <time>2020-10-03T08:20:55.000Z</time>
      </trkpt>
      <trkpt lat="43.61913" lon="1.28245">
        <ele>184.5652173913</ele>
        <time>2020-10-03T08:20:56.000Z</time>
      </trkpt>
      <trkpt lat="43.61913" lon="1.28241">
        <ele>184</ele>
        <time>2020-10-03T08:20:57.000Z</time>
      </trkpt>
      <trkpt lat="43.61912" lon="1.28238">
        <ele>184</ele>
        <time>2020-10-03T08:20:58.000Z</time>
      </trkpt>
      <trkpt lat="43.61911" lon="1.28234">
        <ele>183.68965263576</ele>
        <time>2020-10-03T08:20:59.000Z</time>
      </trkpt>
      <trkpt lat="43.61911" lon="1.2823">
        <ele>183</ele>
        <time>2020-10-03T08:21:00.000Z</time>
      </trkpt>
      <trkpt lat="43.6191" lon="1.28226">
        <ele>183</ele>
        <time>2020-10-03T08:21:01.000Z</time>
      </trkpt>
      <trkpt lat="43.6191" lon="1.28222">
        <ele>182.63302644558</ele>
        <time>2020-10-03T08:21:02.000Z</time>
      </trkpt>
      <trkpt lat="43.6191" lon="1.28218">
        <ele>182</ele>
        <time>2020-10-03T08:21:03.000Z</time>
      </trkpt>
      <trkpt lat="43.6191" lon="1.28213">
        <ele>182</ele>
        <time>2020-10-03T08:21:04.000Z</time>
      </trkpt>
      <trkpt lat="43.6191" lon="1.28209">
        <ele>182</ele>
        <time>2020-10-03T08:21:05.000Z</time>
      </trkpt>
      <trkpt lat="43.6191" lon="1.28205">
        <ele>182</ele>
        <time>2020-10-03T08:21:06.000Z</time>
      </trkpt>
      <trkpt lat="43.61909" lon="1.28201">
        <ele>182</ele>
        <time>2020-10-03T08:21:07.000Z</time>
      </trkpt>
      <trkpt lat="43.61909" lon="1.28197">
        <ele>182</ele>
        <time>2020-10-03T08:21:08.000Z</time>
      </trkpt>
      <trkpt lat="43.61909" lon="1.28193">
        <ele>182</ele>
        <time>2020-10-03T08:21:09.000Z</time>
      </trkpt>
      <trkpt lat="43.61909" lon="1.28189">
        <ele>181.75652241663</ele>
        <time>2020-10-03T08:21:10.000Z</time>
      </trkpt>
      <trkpt lat="43.61909" lon="1.28185">
        <ele>181</ele>
        <time>2020-10-03T08:21:11.000Z</time>
      </trkpt>
      <trkpt lat="43.61909" lon="1.28181">
        <ele>181</ele>
        <time>2020-10-03T08:21:12.000Z</time>
      </trkpt>
      <trkpt lat="43.61909" lon="1.28177">
        <ele>181</ele>
        <time>2020-10-03T08:21:13.000Z</time>
      </trkpt>
      <trkpt lat="43.6191" lon="1.28172">
        <ele>181</ele>
        <time>2020-10-03T08:21:14.000Z</time>
      </trkpt>
      <trkpt lat="43.6191" lon="1.28168">
        <ele>181</ele>
        <time>2020-10-03T08:21:15.000Z</time>
      </trkpt>
      <trkpt lat="43.6191" lon="1.28164">
        <ele>181</ele>
        <time>2020-10-03T08:21:16.000Z</time>
      </trkpt>
      <trkpt lat="43.61911" lon="1.2816">
        <ele>180.58182156696</ele>
        <time>2020-10-03T08:21:17.000Z</time>
      </trkpt>
      <trkpt lat="43.61911" lon="1.28156">
        <ele>180</ele>
        <time>2020-10-03T08:21:18.000Z</time>
      </trkpt>
      <trkpt lat="43.61912" lon="1.28151">
        <ele>180</ele>
        <time>2020-10-03T08:21:19.000Z</time>
      </trkpt>
      <trkpt lat="43.61913" lon="1.28147">
        <ele>180</ele>
        <time>2020-10-03T08:21:20.000Z</time>
      </trkpt>
      <trkpt lat="43.61913" lon="1.28144">
        <ele>180</ele>
        <time>2020-10-03T08:21:21.000Z</time>
      </trkpt>
      <trkpt lat="43.61913" lon="1.2814">
        <ele>180</ele>
        <time>2020-10-03T08:21:22.000Z</time>
      </trkpt>
      <trkpt lat="43.61913" lon="1.28135">
        <ele>180</ele>
        <time>2020-10-03T08:21:23.000Z</time>
      </trkpt>
      <trkpt lat="43.61913" lon="1.28131">
        <ele>180</ele>
        <time>2020-10-03T08:21:24.000Z</time>
      </trkpt>
      <trkpt lat="43.61914" lon="1.28127">
        <ele>180</ele>
        <time>2020-10-03T08:21:25.000Z</time>
      </trkpt>
      <trkpt lat="43.61916" lon="1.28123">
        <ele>180</ele>
        <time>2020-10-03T08:21:26.000Z</time>
      </trkpt>
      <trkpt lat="43.61918" lon="1.2812">
        <ele>180</ele>
        <time>2020-10-03T08:21:27.000Z</time>
      </trkpt>
      <trkpt lat="43.61921" lon="1.28118">
        <ele>180</ele>
        <time>2020-10-03T08:21:28.000Z</time>
      </trkpt>
      <trkpt lat="43.61925" lon="1.28117">
        <ele>180</ele>
        <time>2020-10-03T08:21:29.000Z</time>
      </trkpt>
      <trkpt lat="43.61928" lon="1.28116">
        <ele>180</ele>
        <time>2020-10-03T08:21:30.000Z</time>
      </trkpt>
      <trkpt lat="43.61932" lon="1.28115">
        <ele>180</ele>
        <time>2020-10-03T08:21:31.000Z</time>
      </trkpt>
      <trkpt lat="43.61935" lon="1.28115">
        <ele>179.58181479671</ele>
        <time>2020-10-03T08:21:32.000Z</time>
      </trkpt>
      <trkpt lat="43.61939" lon="1.28114">
        <ele>179</ele>
        <time>2020-10-03T08:21:33.000Z</time>
      </trkpt>
      <trkpt lat="43.61942" lon="1.28114">
        <ele>179</ele>
        <time>2020-10-03T08:21:34.000Z</time>
      </trkpt>
      <trkpt lat="43.61944" lon="1.28113">
        <ele>179</ele>
        <time>2020-10-03T08:21:35.000Z</time>
      </trkpt>
      <trkpt lat="43.61947" lon="1.28113">
        <ele>177.98875337974</ele>
        <time>2020-10-03T08:21:36.000Z</time>
      </trkpt>
      <trkpt lat="43.61951" lon="1.28113">
        <ele>176</ele>
        <time>2020-10-03T08:21:37.000Z</time>
      </trkpt>
      <trkpt lat="43.61955" lon="1.28113">
        <ele>176</ele>
        <time>2020-10-03T08:21:38.000Z</time>
      </trkpt>
      <trkpt lat="43.61959" lon="1.28113">
        <ele>176</ele>
        <time>2020-10-03T08:21:39.000Z</time>
      </trkpt>
      <trkpt lat="43.61962" lon="1.28112">
        <ele>175.33333333333</ele>
        <time>2020-10-03T08:21:40.000Z</time>
      </trkpt>
      <trkpt lat="43.61966" lon="1.28112">
        <ele>174</ele>
        <time>2020-10-03T08:21:41.000Z</time>
      </trkpt>
      <trkpt lat="43.61969" lon="1.28111">
        <ele>173.4375</ele>
        <time>2020-10-03T08:21:42.000Z</time>
      </trkpt>
      <trkpt lat="43.61973" lon="1.2811">
        <ele>171</ele>
        <time>2020-10-03T08:21:43.000Z</time>
      </trkpt>
      <trkpt lat="43.61976" lon="1.2811">
        <ele>171</ele>
        <time>2020-10-03T08:21:44.000Z</time>
      </trkpt>
      <trkpt lat="43.61979" lon="1.28109">
        <ele>170.68918755297</ele>
        <time>2020-10-03T08:21:45.000Z</time>
      </trkpt>
      <trkpt lat="43.61982" lon="1.28108">
        <ele>170</ele>
        <time>2020-10-03T08:21:46.000Z</time>
      </trkpt>
      <trkpt lat="43.61985" lon="1.28108">
        <ele>170</ele>
        <time>2020-10-03T08:21:47.000Z</time>
      </trkpt>
      <trkpt lat="43.61988" lon="1.28108">
        <ele>169.66666192596</ele>
        <time>2020-10-03T08:21:48.000Z</time>
      </trkpt>
      <trkpt lat="43.61992" lon="1.28108">
        <ele>169</ele>
        <time>2020-10-03T08:21:49.000Z</time>
      </trkpt>
      <trkpt lat="43.61995" lon="1.28108">
        <ele>169</ele>
        <time>2020-10-03T08:21:50.000Z</time>
      </trkpt>
      <trkpt lat="43.61999" lon="1.28109">
        <ele>169</ele>
        <time>2020-10-03T08:21:51.000Z</time>
      </trkpt>
      <trkpt lat="43.62002" lon="1.28109">
        <ele>169</ele>
        <time>2020-10-03T08:21:52.000Z</time>
      </trkpt>
      <trkpt lat="43.62004" lon="1.28109">
        <ele>169</ele>
        <time>2020-10-03T08:21:53.000Z</time>
      </trkpt>
      <trkpt lat="43.62008" lon="1.28109">
        <ele>169</ele>
        <time>2020-10-03T08:21:54.000Z</time>
      </trkpt>
      <trkpt lat="43.62011" lon="1.28108">
        <ele>168.31110889878</ele>
        <time>2020-10-03T08:21:55.000Z</time>
      </trkpt>
      <trkpt lat="43.62015" lon="1.28108">
        <ele>167</ele>
        <time>2020-10-03T08:21:56.000Z</time>
      </trkpt>
      <trkpt lat="43.62018" lon="1.28108">
        <ele>167</ele>
        <time>2020-10-03T08:21:57.000Z</time>
      </trkpt>
      <trkpt lat="43.6202" lon="1.2811">
        <ele>166.54629925926</ele>
        <time>2020-10-03T08:21:59.000Z</time>
      </trkpt>
      <trkpt lat="43.62022" lon="1.2811">
        <ele>166</ele>
        <time>2020-10-03T08:22:01.000Z</time>
      </trkpt>
      <trkpt lat="43.62026" lon="1.28109">
        <ele>165</ele>
        <time>2020-10-03T08:22:03.000Z</time>
      </trkpt>
      <trkpt lat="43.62028" lon="1.28108">
        <ele>165</ele>
        <time>2020-10-03T08:22:05.000Z</time>
      </trkpt>
      <trkpt lat="43.62029" lon="1.28106">
        <ele>165.4424797807</ele>
        <time>2020-10-03T08:22:07.000Z</time>
      </trkpt>
      <trkpt lat="43.6203" lon="1.281">
        <ele>166</ele>
        <time>2020-10-03T08:22:09.000Z</time>
      </trkpt>
      <trkpt lat="43.6203" lon="1.28097">
        <ele>166</ele>
        <time>2020-10-03T08:22:10.000Z</time>
      </trkpt>
      <trkpt lat="43.62029" lon="1.28093">
        <ele>166</ele>
        <time>2020-10-03T08:22:11.000Z</time>
      </trkpt>
      <trkpt lat="43.62028" lon="1.28089">
        <ele>166</ele>
        <time>2020-10-03T08:22:12.000Z</time>
      </trkpt>
      <trkpt lat="43.62028" lon="1.28086">
        <ele>166</ele>
        <time>2020-10-03T08:22:13.000Z</time>
      </trkpt>
      <trkpt lat="43.62026" lon="1.28082">
        <ele>165.58181479671</ele>
        <time>2020-10-03T08:22:14.000Z</time>
      </trkpt>
      <trkpt lat="43.62026" lon="1.28079">
        <ele>165</ele>
        <time>2020-10-03T08:22:15.000Z</time>
      </trkpt>
      <trkpt lat="43.62025" lon="1.28075">
        <ele>165</ele>
        <time>2020-10-03T08:22:16.000Z</time>
      </trkpt>
      <trkpt lat="43.62024" lon="1.28071">
        <ele>165</ele>
        <time>2020-10-03T08:22:17.000Z</time>
      </trkpt>
      <trkpt lat="43.62024" lon="1.28068">
        <ele>165</ele>
        <time>2020-10-03T08:22:18.000Z</time>
      </trkpt>
      <trkpt lat="43.62023" lon="1.28064">
        <ele>165</ele>
        <time>2020-10-03T08:22:19.000Z</time>
      </trkpt>
      <trkpt lat="43.62023" lon="1.28061">
        <ele>165</ele>
        <time>2020-10-03T08:22:20.000Z</time>
      </trkpt>
      <trkpt lat="43.62022" lon="1.28057">
        <ele>165</ele>
        <time>2020-10-03T08:22:21.000Z</time>
      </trkpt>
      <trkpt lat="43.62021" lon="1.28054">
        <ele>164.63909687602</ele>
        <time>2020-10-03T08:22:22.000Z</time>
      </trkpt>
      <trkpt lat="43.62021" lon="1.2805">
        <ele>164</ele>
        <time>2020-10-03T08:22:23.000Z</time>
      </trkpt>
      <trkpt lat="43.62019" lon="1.28047">
        <ele>164</ele>
        <time>2020-10-03T08:22:24.000Z</time>
      </trkpt>
      <trkpt lat="43.62019" lon="1.28042">
        <ele>164</ele>
        <time>2020-10-03T08:22:25.000Z</time>
      </trkpt>
      <trkpt lat="43.62019" lon="1.28039">
        <ele>164</ele>
        <time>2020-10-03T08:22:26.000Z</time>
      </trkpt>
      <trkpt lat="43.62018" lon="1.28035">
        <ele>164</ele>
        <time>2020-10-03T08:22:27.000Z</time>
      </trkpt>
      <trkpt lat="43.62018" lon="1.28031">
        <ele>164</ele>
        <time>2020-10-03T08:22:28.000Z</time>
      </trkpt>
      <trkpt lat="43.62018" lon="1.28027">
        <ele>164</ele>
        <time>2020-10-03T08:22:29.000Z</time>
      </trkpt>
      <trkpt lat="43.62018" lon="1.28023">
        <ele>164</ele>
        <time>2020-10-03T08:22:30.000Z</time>
      </trkpt>
      <trkpt lat="43.62017" lon="1.2802">
        <ele>164</ele>
        <time>2020-10-03T08:22:31.000Z</time>
      </trkpt>
      <trkpt lat="43.62017" lon="1.28016">
        <ele>164</ele>
        <time>2020-10-03T08:22:32.000Z</time>
      </trkpt>
      <trkpt lat="43.62017" lon="1.28012">
        <ele>164</ele>
        <time>2020-10-03T08:22:33.000Z</time>
      </trkpt>
      <trkpt lat="43.62016" lon="1.28009">
        <ele>164</ele>
        <time>2020-10-03T08:22:34.000Z</time>
      </trkpt>
      <trkpt lat="43.62015" lon="1.28005">
        <ele>164</ele>
        <time>2020-10-03T08:22:35.000Z</time>
      </trkpt>
      <trkpt lat="43.62015" lon="1.28001">
        <ele>164</ele>
        <time>2020-10-03T08:22:36.000Z</time>
      </trkpt>
      <trkpt lat="43.62014" lon="1.27997">
        <ele>164</ele>
        <time>2020-10-03T08:22:37.000Z</time>
      </trkpt>
      <trkpt lat="43.62013" lon="1.27993">
        <ele>164</ele>
        <time>2020-10-03T08:22:38.000Z</time>
      </trkpt>
      <trkpt lat="43.62013" lon="1.2799">
        <ele>164</ele>
        <time>2020-10-03T08:22:39.000Z</time>
      </trkpt>
      <trkpt lat="43.62013" lon="1.27986">
        <ele>164</ele>
        <time>2020-10-03T08:22:40.000Z</time>
      </trkpt>
      <trkpt lat="43.62013" lon="1.27981">
        <ele>164</ele>
        <time>2020-10-03T08:22:41.000Z</time>
      </trkpt>
      <trkpt lat="43.62013" lon="1.27977">
        <ele>164</ele>
        <time>2020-10-03T08:22:42.000Z</time>
      </trkpt>
      <trkpt lat="43.62012" lon="1.27973">
        <ele>165</ele>
        <time>2020-10-03T08:22:43.000Z</time>
      </trkpt>
      <trkpt lat="43.62012" lon="1.2797">
        <ele>165</ele>
        <time>2020-10-03T08:22:44.000Z</time>
      </trkpt>
      <trkpt lat="43.62011" lon="1.27965">
        <ele>165</ele>
        <time>2020-10-03T08:22:45.000Z</time>
      </trkpt>
      <trkpt lat="43.62011" lon="1.27962">
        <ele>165</ele>
        <time>2020-10-03T08:22:46.000Z</time>
      </trkpt>
      <trkpt lat="43.6201" lon="1.27958">
        <ele>165</ele>
        <time>2020-10-03T08:22:47.000Z</time>
      </trkpt>
      <trkpt lat="43.6201" lon="1.27954">
        <ele>165</ele>
        <time>2020-10-03T08:22:48.000Z</time>
      </trkpt>
      <trkpt lat="43.6201" lon="1.2795">
        <ele>165</ele>
        <time>2020-10-03T08:22:49.000Z</time>
      </trkpt>
      <trkpt lat="43.62009" lon="1.27946">
        <ele>165</ele>
        <time>2020-10-03T08:22:50.000Z</time>
      </trkpt>
      <trkpt lat="43.62008" lon="1.27942">
        <ele>165</ele>
        <time>2020-10-03T08:22:51.000Z</time>
      </trkpt>
      <trkpt lat="43.62008" lon="1.27938">
        <ele>165</ele>
        <time>2020-10-03T08:22:52.000Z</time>
      </trkpt>
      <trkpt lat="43.62007" lon="1.27935">
        <ele>165</ele>
        <time>2020-10-03T08:22:53.000Z</time>
      </trkpt>
      <trkpt lat="43.62007" lon="1.27931">
        <ele>165</ele>
        <time>2020-10-03T08:22:54.000Z</time>
      </trkpt>
      <trkpt lat="43.62006" lon="1.27927">
        <ele>165</ele>
        <time>2020-10-03T08:22:55.000Z</time>
      </trkpt>
      <trkpt lat="43.62005" lon="1.27924">
        <ele>165</ele>
        <time>2020-10-03T08:22:56.000Z</time>
      </trkpt>
      <trkpt lat="43.62005" lon="1.2792">
        <ele>165</ele>
        <time>2020-10-03T08:22:57.000Z</time>
      </trkpt>
      <trkpt lat="43.62004" lon="1.27916">
        <ele>165</ele>
        <time>2020-10-03T08:22:58.000Z</time>
      </trkpt>
      <trkpt lat="43.62004" lon="1.27912">
        <ele>165.74419158468</ele>
        <time>2020-10-03T08:22:59.000Z</time>
      </trkpt>
      <trkpt lat="43.62003" lon="1.27909">
        <ele>167</ele>
        <time>2020-10-03T08:23:00.000Z</time>
      </trkpt>
      <trkpt lat="43.62002" lon="1.27905">
        <ele>167</ele>
        <time>2020-10-03T08:23:01.000Z</time>
      </trkpt>
      <trkpt lat="43.62002" lon="1.27901">
        <ele>167</ele>
        <time>2020-10-03T08:23:02.000Z</time>
      </trkpt>
      <trkpt lat="43.62001" lon="1.27898">
        <ele>167</ele>
        <time>2020-10-03T08:23:03.000Z</time>
      </trkpt>
      <trkpt lat="43.62" lon="1.27894">
        <ele>167</ele>
        <time>2020-10-03T08:23:04.000Z</time>
      </trkpt>
      <trkpt lat="43.62" lon="1.2789">
        <ele>167</ele>
        <time>2020-10-03T08:23:05.000Z</time>
      </trkpt>
      <trkpt lat="43.61999" lon="1.27886">
        <ele>166.68889110122</ele>
        <time>2020-10-03T08:23:06.000Z</time>
      </trkpt>
      <trkpt lat="43.61999" lon="1.27882">
        <ele>166</ele>
        <time>2020-10-03T08:23:07.000Z</time>
      </trkpt>
      <trkpt lat="43.61999" lon="1.27879">
        <ele>166</ele>
        <time>2020-10-03T08:23:08.000Z</time>
      </trkpt>
      <trkpt lat="43.61999" lon="1.27875">
        <ele>165.65138099488</ele>
        <time>2020-10-03T08:23:09.000Z</time>
      </trkpt>
      <trkpt lat="43.61998" lon="1.27871">
        <ele>165</ele>
        <time>2020-10-03T08:23:10.000Z</time>
      </trkpt>
      <trkpt lat="43.61998" lon="1.27868">
        <ele>165</ele>
        <time>2020-10-03T08:23:11.000Z</time>
      </trkpt>
      <trkpt lat="43.61998" lon="1.27864">
        <ele>165.31867668158</ele>
        <time>2020-10-03T08:23:12.000Z</time>
      </trkpt>
      <trkpt lat="43.61997" lon="1.27861">
        <ele>166</ele>
        <time>2020-10-03T08:23:13.000Z</time>
      </trkpt>
      <trkpt lat="43.61997" lon="1.27856">
        <ele>166</ele>
        <time>2020-10-03T08:23:14.000Z</time>
      </trkpt>
      <trkpt lat="43.61996" lon="1.27852">
        <ele>166</ele>
        <time>2020-10-03T08:23:15.000Z</time>
      </trkpt>
      <trkpt lat="43.61997" lon="1.27848">
        <ele>166</ele>
        <time>2020-10-03T08:23:16.000Z</time>
      </trkpt>
      <trkpt lat="43.61996" lon="1.27844">
        <ele>166</ele>
        <time>2020-10-03T08:23:17.000Z</time>
      </trkpt>
      <trkpt lat="43.61996" lon="1.2784">
        <ele>166</ele>
        <time>2020-10-03T08:23:18.000Z</time>
      </trkpt>
      <trkpt lat="43.61995" lon="1.27836">
        <ele>166</ele>
        <time>2020-10-03T08:23:19.000Z</time>
      </trkpt>
      <trkpt lat="43.61995" lon="1.27833">
        <ele>166</ele>
        <time>2020-10-03T08:23:20.000Z</time>
      </trkpt>
      <trkpt lat="43.61995" lon="1.27829">
        <ele>166</ele>
        <time>2020-10-03T08:23:21.000Z</time>
      </trkpt>
      <trkpt lat="43.61994" lon="1.27826">
        <ele>166</ele>
        <time>2020-10-03T08:23:22.000Z</time>
      </trkpt>
      <trkpt lat="43.61994" lon="1.27822">
        <ele>166</ele>
        <time>2020-10-03T08:23:23.000Z</time>
      </trkpt>
      <trkpt lat="43.61993" lon="1.27818">
        <ele>166</ele>
        <time>2020-10-03T08:23:24.000Z</time>
      </trkpt>
      <trkpt lat="43.61993" lon="1.27814">
        <ele>165.61176700901</ele>
        <time>2020-10-03T08:23:25.000Z</time>
      </trkpt>
      <trkpt lat="43.61993" lon="1.2781">
        <ele>165</ele>
        <time>2020-10-03T08:23:26.000Z</time>
      </trkpt>
      <trkpt lat="43.61992" lon="1.27806">
        <ele>165</ele>
        <time>2020-10-03T08:23:27.000Z</time>
      </trkpt>
      <trkpt lat="43.61992" lon="1.27802">
        <ele>165</ele>
        <time>2020-10-03T08:23:28.000Z</time>
      </trkpt>
      <trkpt lat="43.61991" lon="1.27799">
        <ele>165</ele>
        <time>2020-10-03T08:23:29.000Z</time>
      </trkpt>
      <trkpt lat="43.61991" lon="1.27795">
        <ele>165</ele>
        <time>2020-10-03T08:23:30.000Z</time>
      </trkpt>
      <trkpt lat="43.6199" lon="1.27791">
        <ele>165</ele>
        <time>2020-10-03T08:23:31.000Z</time>
      </trkpt>
      <trkpt lat="43.6199" lon="1.27787">
        <ele>165</ele>
        <time>2020-10-03T08:23:32.000Z</time>
      </trkpt>
      <trkpt lat="43.6199" lon="1.27783">
        <ele>165</ele>
        <time>2020-10-03T08:23:33.000Z</time>
      </trkpt>
      <trkpt lat="43.6199" lon="1.27779">
        <ele>165</ele>
        <time>2020-10-03T08:23:34.000Z</time>
      </trkpt>
      <trkpt lat="43.6199" lon="1.27775">
        <ele>164.56074598655</ele>
        <time>2020-10-03T08:23:35.000Z</time>
      </trkpt>
      <trkpt lat="43.6199" lon="1.27771">
        <ele>164</ele>
        <time>2020-10-03T08:23:36.000Z</time>
      </trkpt>
      <trkpt lat="43.6199" lon="1.27766">
        <ele>164</ele>
        <time>2020-10-03T08:23:37.000Z</time>
      </trkpt>
      <trkpt lat="43.6199" lon="1.27763">
        <ele>164</ele>
        <time>2020-10-03T08:23:38.000Z</time>
      </trkpt>
      <trkpt lat="43.6199" lon="1.27758">
        <ele>164</ele>
        <time>2020-10-03T08:23:39.000Z</time>
      </trkpt>
      <trkpt lat="43.6199" lon="1.27754">
        <ele>164</ele>
        <time>2020-10-03T08:23:40.000Z</time>
      </trkpt>
      <trkpt lat="43.61991" lon="1.2775">
        <ele>164</ele>
        <time>2020-10-03T08:23:41.000Z</time>
      </trkpt>
      <trkpt lat="43.61991" lon="1.27746">
        <ele>164</ele>
        <time>2020-10-03T08:23:42.000Z</time>
      </trkpt>
      <trkpt lat="43.61992" lon="1.27742">
        <ele>164.36936968104</ele>
        <time>2020-10-03T08:23:43.000Z</time>
      </trkpt>
      <trkpt lat="43.61993" lon="1.27739">
        <ele>165</ele>
        <time>2020-10-03T08:23:44.000Z</time>
      </trkpt>
      <trkpt lat="43.61994" lon="1.27735">
        <ele>165</ele>
        <time>2020-10-03T08:23:45.000Z</time>
      </trkpt>
      <trkpt lat="43.61994" lon="1.27731">
        <ele>165</ele>
        <time>2020-10-03T08:23:46.000Z</time>
      </trkpt>
      <trkpt lat="43.61995" lon="1.27727">
        <ele>165</ele>
        <time>2020-10-03T08:23:47.000Z</time>
      </trkpt>
      <trkpt lat="43.61996" lon="1.27723">
        <ele>165</ele>
        <time>2020-10-03T08:23:48.000Z</time>
      </trkpt>
      <trkpt lat="43.61996" lon="1.2772">
        <ele>165</ele>
        <time>2020-10-03T08:23:49.000Z</time>
      </trkpt>
      <trkpt lat="43.61996" lon="1.27716">
        <ele>164.85916203937</ele>
        <time>2020-10-03T08:23:50.000Z</time>
      </trkpt>
      <trkpt lat="43.61996" lon="1.27712">
        <ele>164</ele>
        <time>2020-10-03T08:23:51.000Z</time>
      </trkpt>
      <trkpt lat="43.61996" lon="1.27709">
        <ele>164</ele>
        <time>2020-10-03T08:23:52.000Z</time>
      </trkpt>
      <trkpt lat="43.61996" lon="1.27705">
        <ele>164</ele>
        <time>2020-10-03T08:23:53.000Z</time>
      </trkpt>
      <trkpt lat="43.61996" lon="1.27701">
        <ele>164</ele>
        <time>2020-10-03T08:23:54.000Z</time>
      </trkpt>
      <trkpt lat="43.61996" lon="1.27697">
        <ele>164</ele>
        <time>2020-10-03T08:23:55.000Z</time>
      </trkpt>
      <trkpt lat="43.61996" lon="1.27693">
        <ele>164</ele>
        <time>2020-10-03T08:23:56.000Z</time>
      </trkpt>
      <trkpt lat="43.61996" lon="1.27689">
        <ele>164</ele>
        <time>2020-10-03T08:23:57.000Z</time>
      </trkpt>
      <trkpt lat="43.61995" lon="1.27682">
        <ele>164</ele>
        <time>2020-10-03T08:23:59.000Z</time>
      </trkpt>
      <trkpt lat="43.61994" lon="1.27678">
        <ele>164</ele>
        <time>2020-10-03T08:24:00.000Z</time>
      </trkpt>
      <trkpt lat="43.61992" lon="1.27675">
        <ele>164</ele>
        <time>2020-10-03T08:24:01.000Z</time>
      </trkpt>
      <trkpt lat="43.6199" lon="1.27673">
        <ele>164</ele>
        <time>2020-10-03T08:24:02.000Z</time>
      </trkpt>
      <trkpt lat="43.61988" lon="1.27671">
        <ele>164</ele>
        <time>2020-10-03T08:24:03.000Z</time>
      </trkpt>
      <trkpt lat="43.61986" lon="1.27669">
        <ele>164</ele>
        <time>2020-10-03T08:24:04.000Z</time>
      </trkpt>
      <trkpt lat="43.61983" lon="1.27667">
        <ele>164</ele>
        <time>2020-10-03T08:24:05.000Z</time>
      </trkpt>
      <trkpt lat="43.61981" lon="1.27665">
        <ele>164.73394710884</ele>
        <time>2020-10-03T08:24:06.000Z</time>
      </trkpt>
      <trkpt lat="43.61977" lon="1.27659">
        <ele>166</ele>
        <time>2020-10-03T08:24:08.000Z</time>
      </trkpt>
      <trkpt lat="43.61975" lon="1.27656">
        <ele>166</ele>
        <time>2020-10-03T08:24:09.000Z</time>
      </trkpt>
      <trkpt lat="43.61974" lon="1.27652">
        <ele>166</ele>
        <time>2020-10-03T08:24:10.000Z</time>
      </trkpt>
      <trkpt lat="43.61973" lon="1.27649">
        <ele>166</ele>
        <time>2020-10-03T08:24:11.000Z</time>
      </trkpt>
      <trkpt lat="43.61973" lon="1.27645">
        <ele>166</ele>
        <time>2020-10-03T08:24:12.000Z</time>
      </trkpt>
      <trkpt lat="43.61972" lon="1.27641">
        <ele>166</ele>
        <time>2020-10-03T08:24:13.000Z</time>
      </trkpt>
      <trkpt lat="43.61972" lon="1.27637">
        <ele>166</ele>
        <time>2020-10-03T08:24:14.000Z</time>
      </trkpt>
      <trkpt lat="43.61972" lon="1.27632">
        <ele>166</ele>
        <time>2020-10-03T08:24:15.000Z</time>
      </trkpt>
      <trkpt lat="43.61972" lon="1.27628">
        <ele>166</ele>
        <time>2020-10-03T08:24:16.000Z</time>
      </trkpt>
      <trkpt lat="43.61972" lon="1.27624">
        <ele>166</ele>
        <time>2020-10-03T08:24:17.000Z</time>
      </trkpt>
      <trkpt lat="43.61972" lon="1.2762">
        <ele>166</ele>
        <time>2020-10-03T08:24:18.000Z</time>
      </trkpt>
      <trkpt lat="43.61972" lon="1.27615">
        <ele>166</ele>
        <time>2020-10-03T08:24:19.000Z</time>
      </trkpt>
      <trkpt lat="43.61972" lon="1.27611">
        <ele>166</ele>
        <time>2020-10-03T08:24:20.000Z</time>
      </trkpt>
      <trkpt lat="43.61972" lon="1.27607">
        <ele>165.66055239795</ele>
        <time>2020-10-03T08:24:21.000Z</time>
      </trkpt>
      <trkpt lat="43.61972" lon="1.27603">
        <ele>165</ele>
        <time>2020-10-03T08:24:22.000Z</time>
      </trkpt>
      <trkpt lat="43.61972" lon="1.27599">
        <ele>165</ele>
        <time>2020-10-03T08:24:23.000Z</time>
      </trkpt>
      <trkpt lat="43.61973" lon="1.27596">
        <ele>165</ele>
        <time>2020-10-03T08:24:24.000Z</time>
      </trkpt>
      <trkpt lat="43.61973" lon="1.27592">
        <ele>165</ele>
        <time>2020-10-03T08:24:25.000Z</time>
      </trkpt>
      <trkpt lat="43.61972" lon="1.27588">
        <ele>165</ele>
        <time>2020-10-03T08:24:26.000Z</time>
      </trkpt>
      <trkpt lat="43.61972" lon="1.27585">
        <ele>165</ele>
        <time>2020-10-03T08:24:27.000Z</time>
      </trkpt>
      <trkpt lat="43.61972" lon="1.27581">
        <ele>165</ele>
        <time>2020-10-03T08:24:28.000Z</time>
      </trkpt>
      <trkpt lat="43.61973" lon="1.27576">
        <ele>165</ele>
        <time>2020-10-03T08:24:29.000Z</time>
      </trkpt>
      <trkpt lat="43.61973" lon="1.27572">
        <ele>165</ele>
        <time>2020-10-03T08:24:30.000Z</time>
      </trkpt>
      <trkpt lat="43.61974" lon="1.27568">
        <ele>165</ele>
        <time>2020-10-03T08:24:31.000Z</time>
      </trkpt>
      <trkpt lat="43.61974" lon="1.27564">
        <ele>165</ele>
        <time>2020-10-03T08:24:32.000Z</time>
      </trkpt>
      <trkpt lat="43.61974" lon="1.2756">
        <ele>165</ele>
        <time>2020-10-03T08:24:33.000Z</time>
      </trkpt>
      <trkpt lat="43.61974" lon="1.27557">
        <ele>165</ele>
        <time>2020-10-03T08:24:34.000Z</time>
      </trkpt>
      <trkpt lat="43.61975" lon="1.27553">
        <ele>165</ele>
        <time>2020-10-03T08:24:35.000Z</time>
      </trkpt>
      <trkpt lat="43.61976" lon="1.27537">
        <ele>165</ele>
        <time>2020-10-03T08:24:39.000Z</time>
      </trkpt>
      <trkpt lat="43.61976" lon="1.27533">
        <ele>165</ele>
        <time>2020-10-03T08:24:40.000Z</time>
      </trkpt>
      <trkpt lat="43.61976" lon="1.27529">
        <ele>164.54945565027</ele>
        <time>2020-10-03T08:24:41.000Z</time>
      </trkpt>
      <trkpt lat="43.61975" lon="1.27525">
        <ele>164</ele>
        <time>2020-10-03T08:24:42.000Z</time>
      </trkpt>
      <trkpt lat="43.61975" lon="1.27521">
        <ele>164</ele>
        <time>2020-10-03T08:24:43.000Z</time>
      </trkpt>
      <trkpt lat="43.61974" lon="1.27505">
        <ele>164</ele>
        <time>2020-10-03T08:24:47.000Z</time>
      </trkpt>
      <trkpt lat="43.61972" lon="1.27489">
        <ele>164</ele>
        <time>2020-10-03T08:24:51.000Z</time>
      </trkpt>
      <trkpt lat="43.61971" lon="1.27477">
        <ele>164</ele>
        <time>2020-10-03T08:24:54.000Z</time>
      </trkpt>
      <trkpt lat="43.61971" lon="1.27474">
        <ele>164</ele>
        <time>2020-10-03T08:24:55.000Z</time>
      </trkpt>
      <trkpt lat="43.6197" lon="1.27469">
        <ele>164</ele>
        <time>2020-10-03T08:24:56.000Z</time>
      </trkpt>
      <trkpt lat="43.61968" lon="1.27455">
        <ele>164</ele>
        <time>2020-10-03T08:25:00.000Z</time>
      </trkpt>
      <trkpt lat="43.61967" lon="1.27439">
        <ele>164</ele>
        <time>2020-10-03T08:25:04.000Z</time>
      </trkpt>
      <trkpt lat="43.61967" lon="1.27432">
        <ele>164</ele>
        <time>2020-10-03T08:25:06.000Z</time>
      </trkpt>
      <trkpt lat="43.61967" lon="1.27428">
        <ele>164</ele>
        <time>2020-10-03T08:25:07.000Z</time>
      </trkpt>
      <trkpt lat="43.61966" lon="1.27424">
        <ele>164</ele>
        <time>2020-10-03T08:25:08.000Z</time>
      </trkpt>
      <trkpt lat="43.61966" lon="1.2742">
        <ele>164</ele>
        <time>2020-10-03T08:25:09.000Z</time>
      </trkpt>
      <trkpt lat="43.61965" lon="1.27416">
        <ele>164</ele>
        <time>2020-10-03T08:25:10.000Z</time>
      </trkpt>
      <trkpt lat="43.61964" lon="1.27412">
        <ele>164</ele>
        <time>2020-10-03T08:25:11.000Z</time>
      </trkpt>
      <trkpt lat="43.61964" lon="1.27408">
        <ele>164</ele>
        <time>2020-10-03T08:25:12.000Z</time>
      </trkpt>
      <trkpt lat="43.61963" lon="1.27404">
        <ele>164</ele>
        <time>2020-10-03T08:25:13.000Z</time>
      </trkpt>
      <trkpt lat="43.61963" lon="1.274">
        <ele>164</ele>
        <time>2020-10-03T08:25:14.000Z</time>
      </trkpt>
      <trkpt lat="43.61962" lon="1.27397">
        <ele>164</ele>
        <time>2020-10-03T08:25:15.000Z</time>
      </trkpt>
      <trkpt lat="43.61962" lon="1.27393">
        <ele>164</ele>
        <time>2020-10-03T08:25:16.000Z</time>
      </trkpt>
      <trkpt lat="43.61962" lon="1.27389">
        <ele>164</ele>
        <time>2020-10-03T08:25:17.000Z</time>
      </trkpt>
      <trkpt lat="43.61961" lon="1.27386">
        <ele>164</ele>
        <time>2020-10-03T08:25:18.000Z</time>
      </trkpt>
      <trkpt lat="43.61961" lon="1.27382">
        <ele>164</ele>
        <time>2020-10-03T08:25:19.000Z</time>
      </trkpt>
      <trkpt lat="43.61961" lon="1.27378">
        <ele>164</ele>
        <time>2020-10-03T08:25:20.000Z</time>
      </trkpt>
      <trkpt lat="43.61961" lon="1.27374">
        <ele>164</ele>
        <time>2020-10-03T08:25:21.000Z</time>
      </trkpt>
      <trkpt lat="43.6196" lon="1.27371">
        <ele>164</ele>
        <time>2020-10-03T08:25:22.000Z</time>
      </trkpt>
      <trkpt lat="43.61959" lon="1.27358">
        <ele>164</ele>
        <time>2020-10-03T08:25:25.000Z</time>
      </trkpt>
      <trkpt lat="43.61958" lon="1.27346">
        <ele>164</ele>
        <time>2020-10-03T08:25:28.000Z</time>
      </trkpt>
      <trkpt lat="43.61957" lon="1.27343">
        <ele>164</ele>
        <time>2020-10-03T08:25:29.000Z</time>
      </trkpt>
      <trkpt lat="43.61957" lon="1.27339">
        <ele>164</ele>
        <time>2020-10-03T08:25:30.000Z</time>
      </trkpt>
      <trkpt lat="43.61957" lon="1.27335">
        <ele>164</ele>
        <time>2020-10-03T08:25:31.000Z</time>
      </trkpt>
      <trkpt lat="43.61957" lon="1.27331">
        <ele>164</ele>
        <time>2020-10-03T08:25:32.000Z</time>
      </trkpt>
      <trkpt lat="43.61957" lon="1.27328">
        <ele>164</ele>
        <time>2020-10-03T08:25:33.000Z</time>
      </trkpt>
      <trkpt lat="43.61956" lon="1.27325">
        <ele>164</ele>
        <time>2020-10-03T08:25:34.000Z</time>
      </trkpt>
      <trkpt lat="43.61956" lon="1.27321">
        <ele>164</ele>
        <time>2020-10-03T08:25:35.000Z</time>
      </trkpt>
      <trkpt lat="43.61955" lon="1.27318">
        <ele>164</ele>
        <time>2020-10-03T08:25:36.000Z</time>
      </trkpt>
      <trkpt lat="43.61954" lon="1.27314">
        <ele>164</ele>
        <time>2020-10-03T08:25:37.000Z</time>
      </trkpt>
      <trkpt lat="43.61954" lon="1.27311">
        <ele>164</ele>
        <time>2020-10-03T08:25:38.000Z</time>
      </trkpt>
      <trkpt lat="43.61954" lon="1.27306">
        <ele>164</ele>
        <time>2020-10-03T08:25:39.000Z</time>
      </trkpt>
      <trkpt lat="43.61954" lon="1.27301">
        <ele>164</ele>
        <time>2020-10-03T08:25:40.000Z</time>
      </trkpt>
      <trkpt lat="43.61953" lon="1.27297">
        <ele>164</ele>
        <time>2020-10-03T08:25:41.000Z</time>
      </trkpt>
      <trkpt lat="43.61953" lon="1.27292">
        <ele>164</ele>
        <time>2020-10-03T08:25:42.000Z</time>
      </trkpt>
      <trkpt lat="43.61952" lon="1.27288">
        <ele>164</ele>
        <time>2020-10-03T08:25:43.000Z</time>
      </trkpt>
      <trkpt lat="43.61952" lon="1.27284">
        <ele>164</ele>
        <time>2020-10-03T08:25:44.000Z</time>
      </trkpt>
      <trkpt lat="43.61951" lon="1.2728">
        <ele>164</ele>
        <time>2020-10-03T08:25:45.000Z</time>
      </trkpt>
      <trkpt lat="43.61951" lon="1.27276">
        <ele>164</ele>
        <time>2020-10-03T08:25:46.000Z</time>
      </trkpt>
      <trkpt lat="43.61951" lon="1.27273">
        <ele>164</ele>
        <time>2020-10-03T08:25:47.000Z</time>
      </trkpt>
      <trkpt lat="43.6195" lon="1.27269">
        <ele>164</ele>
        <time>2020-10-03T08:25:48.000Z</time>
      </trkpt>
      <trkpt lat="43.6195" lon="1.27265">
        <ele>164</ele>
        <time>2020-10-03T08:25:49.000Z</time>
      </trkpt>
      <trkpt lat="43.61949" lon="1.27262">
        <ele>164</ele>
        <time>2020-10-03T08:25:50.000Z</time>
      </trkpt>
      <trkpt lat="43.61951" lon="1.27265">
        <ele>164</ele>
        <time>2020-10-03T08:25:53.000Z</time>
      </trkpt>
      <trkpt lat="43.61952" lon="1.27268">
        <ele>164</ele>
        <time>2020-10-03T08:25:54.000Z</time>
      </trkpt>
      <trkpt lat="43.61953" lon="1.27272">
        <ele>164</ele>
        <time>2020-10-03T08:25:55.000Z</time>
      </trkpt>
      <trkpt lat="43.61955" lon="1.27275">
        <ele>164</ele>
        <time>2020-10-03T08:25:56.000Z</time>
      </trkpt>
      <trkpt lat="43.61957" lon="1.27278">
        <ele>164</ele>
        <time>2020-10-03T08:25:57.000Z</time>
      </trkpt>
      <trkpt lat="43.61959" lon="1.27281">
        <ele>164</ele>
        <time>2020-10-03T08:25:58.000Z</time>
      </trkpt>
      <trkpt lat="43.6196" lon="1.27282">
        <ele>164</ele>
        <time>2020-10-03T08:25:59.000Z</time>
      </trkpt>
      <trkpt lat="43.61963" lon="1.27284">
        <ele>164</ele>
        <time>2020-10-03T08:26:01.000Z</time>
      </trkpt>
      <trkpt lat="43.61966" lon="1.27284">
        <ele>164</ele>
        <time>2020-10-03T08:26:02.000Z</time>
      </trkpt>
      <trkpt lat="43.61968" lon="1.27284">
        <ele>164</ele>
        <time>2020-10-03T08:26:03.000Z</time>
      </trkpt>
      <trkpt lat="43.6197" lon="1.27284">
        <ele>164</ele>
        <time>2020-10-03T08:26:04.000Z</time>
      </trkpt>
      <trkpt lat="43.61973" lon="1.27283">
        <ele>163.57281686115</ele>
        <time>2020-10-03T08:26:05.000Z</time>
      </trkpt>
      <trkpt lat="43.61975" lon="1.27283">
        <ele>163</ele>
        <time>2020-10-03T08:26:06.000Z</time>
      </trkpt>
      <trkpt lat="43.61978" lon="1.27282">
        <ele>162.66304</ele>
        <time>2020-10-03T08:26:07.000Z</time>
      </trkpt>
      <trkpt lat="43.61981" lon="1.27281">
        <ele>162</ele>
        <time>2020-10-03T08:26:08.000Z</time>
      </trkpt>
      <trkpt lat="43.61984" lon="1.27281">
        <ele>162</ele>
        <time>2020-10-03T08:26:09.000Z</time>
      </trkpt>
      <trkpt lat="43.61987" lon="1.2728">
        <ele>162</ele>
        <time>2020-10-03T08:26:10.000Z</time>
      </trkpt>
      <trkpt lat="43.6199" lon="1.27279">
        <ele>162</ele>
        <time>2020-10-03T08:26:11.000Z</time>
      </trkpt>
      <trkpt lat="43.61992" lon="1.27278">
        <ele>162</ele>
        <time>2020-10-03T08:26:12.000Z</time>
      </trkpt>
      <trkpt lat="43.61995" lon="1.27277">
        <ele>162</ele>
        <time>2020-10-03T08:26:13.000Z</time>
      </trkpt>
      <trkpt lat="43.61998" lon="1.27276">
        <ele>162.34964822142</ele>
        <time>2020-10-03T08:26:14.000Z</time>
      </trkpt>
      <trkpt lat="43.62" lon="1.27277">
        <ele>163</ele>
        <time>2020-10-03T08:26:15.000Z</time>
      </trkpt>
      <trkpt lat="43.62003" lon="1.27276">
        <ele>163</ele>
        <time>2020-10-03T08:26:16.000Z</time>
      </trkpt>
      <trkpt lat="43.62006" lon="1.27275">
        <ele>163</ele>
        <time>2020-10-03T08:26:17.000Z</time>
      </trkpt>
      <trkpt lat="43.62009" lon="1.27276">
        <ele>163</ele>
        <time>2020-10-03T08:26:18.000Z</time>
      </trkpt>
      <trkpt lat="43.62014" lon="1.27275">
        <ele>162</ele>
        <time>2020-10-03T08:26:20.000Z</time>
      </trkpt>
      <trkpt lat="43.62017" lon="1.27274">
        <ele>162</ele>
        <time>2020-10-03T08:26:21.000Z</time>
      </trkpt>
      <trkpt lat="43.6202" lon="1.27274">
        <ele>162</ele>
        <time>2020-10-03T08:26:22.000Z</time>
      </trkpt>
      <trkpt lat="43.62023" lon="1.27273">
        <ele>162.36448788191</ele>
        <time>2020-10-03T08:26:23.000Z</time>
      </trkpt>
      <trkpt lat="43.62026" lon="1.27274">
        <ele>163</ele>
        <time>2020-10-03T08:26:24.000Z</time>
      </trkpt>
      <trkpt lat="43.62029" lon="1.27274">
        <ele>163</ele>
        <time>2020-10-03T08:26:25.000Z</time>
      </trkpt>
      <trkpt lat="43.62032" lon="1.27275">
        <ele>163</ele>
        <time>2020-10-03T08:26:26.000Z</time>
      </trkpt>
      <trkpt lat="43.62035" lon="1.27276">
        <ele>163.34821714286</ele>
        <time>2020-10-03T08:26:27.000Z</time>
      </trkpt>
      <trkpt lat="43.62039" lon="1.27277">
        <ele>164</ele>
        <time>2020-10-03T08:26:28.000Z</time>
      </trkpt>
      <trkpt lat="43.62042" lon="1.27277">
        <ele>164</ele>
        <time>2020-10-03T08:26:29.000Z</time>
      </trkpt>
      <trkpt lat="43.62045" lon="1.27279">
        <ele>164</ele>
        <time>2020-10-03T08:26:30.000Z</time>
      </trkpt>
      <trkpt lat="43.62048" lon="1.2728">
        <ele>164</ele>
        <time>2020-10-03T08:26:31.000Z</time>
      </trkpt>
      <trkpt lat="43.6205" lon="1.27282">
        <ele>164</ele>
        <time>2020-10-03T08:26:32.000Z</time>
      </trkpt>
      <trkpt lat="43.62053" lon="1.27283">
        <ele>164</ele>
        <time>2020-10-03T08:26:33.000Z</time>
      </trkpt>
      <trkpt lat="43.62056" lon="1.27284">
        <ele>164</ele>
        <time>2020-10-03T08:26:34.000Z</time>
      </trkpt>
      <trkpt lat="43.62059" lon="1.27285">
        <ele>164</ele>
        <time>2020-10-03T08:26:35.000Z</time>
      </trkpt>
      <trkpt lat="43.62062" lon="1.27285">
        <ele>164</ele>
        <time>2020-10-03T08:26:36.000Z</time>
      </trkpt>
      <trkpt lat="43.62065" lon="1.27285">
        <ele>163.59302256355</ele>
        <time>2020-10-03T08:26:37.000Z</time>
      </trkpt>
      <trkpt lat="43.62068" lon="1.27286">
        <ele>163</ele>
        <time>2020-10-03T08:26:38.000Z</time>
      </trkpt>
      <trkpt lat="43.6207" lon="1.27285">
        <ele>163</ele>
        <time>2020-10-03T08:26:39.000Z</time>
      </trkpt>
      <trkpt lat="43.62072" lon="1.27285">
        <ele>162.64835288491</ele>
        <time>2020-10-03T08:26:40.000Z</time>
      </trkpt>
      <trkpt lat="43.62075" lon="1.27286">
        <ele>162</ele>
        <time>2020-10-03T08:26:41.000Z</time>
      </trkpt>
      <trkpt lat="43.62077" lon="1.27286">
        <ele>162</ele>
        <time>2020-10-03T08:26:42.000Z</time>
      </trkpt>
      <trkpt lat="43.6208" lon="1.27286">
        <ele>162</ele>
        <time>2020-10-03T08:26:43.000Z</time>
      </trkpt>
      <trkpt lat="43.62082" lon="1.27286">
        <ele>162</ele>
        <time>2020-10-03T08:26:44.000Z</time>
      </trkpt>
      <trkpt lat="43.62085" lon="1.27286">
        <ele>162</ele>
        <time>2020-10-03T08:26:45.000Z</time>
      </trkpt>
      <trkpt lat="43.62088" lon="1.27286">
        <ele>162</ele>
        <time>2020-10-03T08:26:46.000Z</time>
      </trkpt>
      <trkpt lat="43.62091" lon="1.27287">
        <ele>162</ele>
        <time>2020-10-03T08:26:47.000Z</time>
      </trkpt>
      <trkpt lat="43.62093" lon="1.27287">
        <ele>162</ele>
        <time>2020-10-03T08:26:48.000Z</time>
      </trkpt>
      <trkpt lat="43.62096" lon="1.27287">
        <ele>162</ele>
        <time>2020-10-03T08:26:49.000Z</time>
      </trkpt>
      <trkpt lat="43.62098" lon="1.27288">
        <ele>162</ele>
        <time>2020-10-03T08:26:50.000Z</time>
      </trkpt>
      <trkpt lat="43.621" lon="1.27288">
        <ele>162</ele>
        <time>2020-10-03T08:26:51.000Z</time>
      </trkpt>
      <trkpt lat="43.62102" lon="1.27288">
        <ele>162</ele>
        <time>2020-10-03T08:26:52.000Z</time>
      </trkpt>
      <trkpt lat="43.62105" lon="1.27289">
        <ele>162.35164711509</ele>
        <time>2020-10-03T08:26:53.000Z</time>
      </trkpt>
      <trkpt lat="43.62107" lon="1.27289">
        <ele>163</ele>
        <time>2020-10-03T08:26:54.000Z</time>
      </trkpt>
      <trkpt lat="43.6211" lon="1.27288">
        <ele>163</ele>
        <time>2020-10-03T08:26:55.000Z</time>
      </trkpt>
      <trkpt lat="43.62113" lon="1.27288">
        <ele>163</ele>
        <time>2020-10-03T08:26:56.000Z</time>
      </trkpt>
      <trkpt lat="43.62116" lon="1.27286">
        <ele>163</ele>
        <time>2020-10-03T08:26:57.000Z</time>
      </trkpt>
      <trkpt lat="43.62119" lon="1.27285">
        <ele>163</ele>
        <time>2020-10-03T08:26:58.000Z</time>
      </trkpt>
      <trkpt lat="43.62121" lon="1.27283">
        <ele>163</ele>
        <time>2020-10-03T08:26:59.000Z</time>
      </trkpt>
      <trkpt lat="43.62123" lon="1.27281">
        <ele>163</ele>
        <time>2020-10-03T08:27:00.000Z</time>
      </trkpt>
      <trkpt lat="43.62124" lon="1.27278">
        <ele>163</ele>
        <time>2020-10-03T08:27:01.000Z</time>
      </trkpt>
      <trkpt lat="43.62125" lon="1.27274">
        <ele>163</ele>
        <time>2020-10-03T08:27:02.000Z</time>
      </trkpt>
      <trkpt lat="43.62125" lon="1.27271">
        <ele>163</ele>
        <time>2020-10-03T08:27:03.000Z</time>
      </trkpt>
      <trkpt lat="43.62125" lon="1.27268">
        <ele>163</ele>
        <time>2020-10-03T08:27:04.000Z</time>
      </trkpt>
      <trkpt lat="43.62125" lon="1.27264">
        <ele>163</ele>
        <time>2020-10-03T08:27:05.000Z</time>
      </trkpt>
      <trkpt lat="43.62125" lon="1.27261">
        <ele>163</ele>
        <time>2020-10-03T08:27:06.000Z</time>
      </trkpt>
      <trkpt lat="43.62125" lon="1.27257">
        <ele>163</ele>
        <time>2020-10-03T08:27:07.000Z</time>
      </trkpt>
      <trkpt lat="43.62124" lon="1.27253">
        <ele>163</ele>
        <time>2020-10-03T08:27:08.000Z</time>
      </trkpt>
      <trkpt lat="43.62124" lon="1.27249">
        <ele>163</ele>
        <time>2020-10-03T08:27:09.000Z</time>
      </trkpt>
      <trkpt lat="43.62125" lon="1.27246">
        <ele>163</ele>
        <time>2020-10-03T08:27:10.000Z</time>
      </trkpt>
      <trkpt lat="43.62125" lon="1.27242">
        <ele>163</ele>
        <time>2020-10-03T08:27:11.000Z</time>
      </trkpt>
      <trkpt lat="43.62125" lon="1.27237">
        <ele>163</ele>
        <time>2020-10-03T08:27:12.000Z</time>
      </trkpt>
      <trkpt lat="43.62126" lon="1.27233">
        <ele>163</ele>
        <time>2020-10-03T08:27:13.000Z</time>
      </trkpt>
      <trkpt lat="43.62126" lon="1.2723">
        <ele>163</ele>
        <time>2020-10-03T08:27:14.000Z</time>
      </trkpt>
      <trkpt lat="43.62127" lon="1.27227">
        <ele>163</ele>
        <time>2020-10-03T08:27:15.000Z</time>
      </trkpt>
      <trkpt lat="43.62127" lon="1.27225">
        <ele>163</ele>
        <time>2020-10-03T08:27:16.000Z</time>
      </trkpt>
      <trkpt lat="43.62127" lon="1.27222">
        <ele>163</ele>
        <time>2020-10-03T08:27:17.000Z</time>
      </trkpt>
      <trkpt lat="43.62127" lon="1.27219">
        <ele>163</ele>
        <time>2020-10-03T08:27:18.000Z</time>
      </trkpt>
      <trkpt lat="43.62127" lon="1.27215">
        <ele>163</ele>
        <time>2020-10-03T08:27:19.000Z</time>
      </trkpt>
      <trkpt lat="43.62127" lon="1.27212">
        <ele>163</ele>
        <time>2020-10-03T08:27:20.000Z</time>
      </trkpt>
      <trkpt lat="43.62127" lon="1.27209">
        <ele>163</ele>
        <time>2020-10-03T08:27:21.000Z</time>
      </trkpt>
      <trkpt lat="43.62126" lon="1.27205">
        <ele>162.65094430759</ele>
        <time>2020-10-03T08:27:22.000Z</time>
      </trkpt>
      <trkpt lat="43.62125" lon="1.27201">
        <ele>162</ele>
        <time>2020-10-03T08:27:23.000Z</time>
      </trkpt>
      <trkpt lat="43.62125" lon="1.27196">
        <ele>162</ele>
        <time>2020-10-03T08:27:24.000Z</time>
      </trkpt>
      <trkpt lat="43.62124" lon="1.27192">
        <ele>162</ele>
        <time>2020-10-03T08:27:25.000Z</time>
      </trkpt>
      <trkpt lat="43.62124" lon="1.27188">
        <ele>162</ele>
        <time>2020-10-03T08:27:26.000Z</time>
      </trkpt>
      <trkpt lat="43.62123" lon="1.27185">
        <ele>162</ele>
        <time>2020-10-03T08:27:27.000Z</time>
      </trkpt>
      <trkpt lat="43.62123" lon="1.27182">
        <ele>162</ele>
        <time>2020-10-03T08:27:28.000Z</time>
      </trkpt>
      <trkpt lat="43.62123" lon="1.27178">
        <ele>162</ele>
        <time>2020-10-03T08:27:29.000Z</time>
      </trkpt>
      <trkpt lat="43.62122" lon="1.27174">
        <ele>162</ele>
        <time>2020-10-03T08:27:30.000Z</time>
      </trkpt>
      <trkpt lat="43.62122" lon="1.27171">
        <ele>162.82758316291</ele>
        <time>2020-10-03T08:27:31.000Z</time>
      </trkpt>
      <trkpt lat="43.62121" lon="1.27167">
        <ele>164</ele>
        <time>2020-10-03T08:27:32.000Z</time>
      </trkpt>
      <trkpt lat="43.6212" lon="1.27164">
        <ele>164</ele>
        <time>2020-10-03T08:27:33.000Z</time>
      </trkpt>
      <trkpt lat="43.62118" lon="1.2716">
        <ele>164</ele>
        <time>2020-10-03T08:27:34.000Z</time>
      </trkpt>
      <trkpt lat="43.62117" lon="1.27157">
        <ele>164</ele>
        <time>2020-10-03T08:27:35.000Z</time>
      </trkpt>
      <trkpt lat="43.62116" lon="1.27153">
        <ele>164</ele>
        <time>2020-10-03T08:27:36.000Z</time>
      </trkpt>
      <trkpt lat="43.62115" lon="1.27149">
        <ele>164</ele>
        <time>2020-10-03T08:27:37.000Z</time>
      </trkpt>
      <trkpt lat="43.62115" lon="1.27146">
        <ele>164</ele>
        <time>2020-10-03T08:27:38.000Z</time>
      </trkpt>
      <trkpt lat="43.62114" lon="1.27143">
        <ele>164</ele>
        <time>2020-10-03T08:27:39.000Z</time>
      </trkpt>
      <trkpt lat="43.62114" lon="1.27139">
        <ele>164</ele>
        <time>2020-10-03T08:27:40.000Z</time>
      </trkpt>
      <trkpt lat="43.62113" lon="1.27136">
        <ele>164</ele>
        <time>2020-10-03T08:27:41.000Z</time>
      </trkpt>
      <trkpt lat="43.62112" lon="1.27132">
        <ele>164</ele>
        <time>2020-10-03T08:27:42.000Z</time>
      </trkpt>
      <trkpt lat="43.62112" lon="1.27128">
        <ele>164</ele>
        <time>2020-10-03T08:27:43.000Z</time>
      </trkpt>
      <trkpt lat="43.62111" lon="1.27123">
        <ele>164</ele>
        <time>2020-10-03T08:27:44.000Z</time>
      </trkpt>
      <trkpt lat="43.62111" lon="1.27119">
        <ele>164</ele>
        <time>2020-10-03T08:27:45.000Z</time>
      </trkpt>
      <trkpt lat="43.62111" lon="1.27115">
        <ele>164</ele>
        <time>2020-10-03T08:27:46.000Z</time>
      </trkpt>
      <trkpt lat="43.6211" lon="1.27111">
        <ele>164</ele>
        <time>2020-10-03T08:27:47.000Z</time>
      </trkpt>
      <trkpt lat="43.6211" lon="1.27107">
        <ele>164</ele>
        <time>2020-10-03T08:27:48.000Z</time>
      </trkpt>
      <trkpt lat="43.6211" lon="1.27103">
        <ele>164</ele>
        <time>2020-10-03T08:27:49.000Z</time>
      </trkpt>
      <trkpt lat="43.62109" lon="1.27099">
        <ele>164</ele>
        <time>2020-10-03T08:27:50.000Z</time>
      </trkpt>
      <trkpt lat="43.62108" lon="1.27095">
        <ele>164</ele>
        <time>2020-10-03T08:27:51.000Z</time>
      </trkpt>
      <trkpt lat="43.62107" lon="1.2709">
        <ele>164</ele>
        <time>2020-10-03T08:27:52.000Z</time>
      </trkpt>
      <trkpt lat="43.62106" lon="1.27086">
        <ele>164</ele>
        <time>2020-10-03T08:27:53.000Z</time>
      </trkpt>
      <trkpt lat="43.62105" lon="1.27082">
        <ele>164</ele>
        <time>2020-10-03T08:27:54.000Z</time>
      </trkpt>
      <trkpt lat="43.62105" lon="1.27078">
        <ele>164</ele>
        <time>2020-10-03T08:27:55.000Z</time>
      </trkpt>
      <trkpt lat="43.62104" lon="1.27074">
        <ele>164</ele>
        <time>2020-10-03T08:27:56.000Z</time>
      </trkpt>
      <trkpt lat="43.62104" lon="1.27071">
        <ele>164</ele>
        <time>2020-10-03T08:27:57.000Z</time>
      </trkpt>
      <trkpt lat="43.62103" lon="1.27067">
        <ele>164</ele>
        <time>2020-10-03T08:27:58.000Z</time>
      </trkpt>
      <trkpt lat="43.62102" lon="1.27064">
        <ele>164</ele>
        <time>2020-10-03T08:27:59.000Z</time>
      </trkpt>
      <trkpt lat="43.62102" lon="1.2706">
        <ele>164</ele>
        <time>2020-10-03T08:28:00.000Z</time>
      </trkpt>
      <trkpt lat="43.62101" lon="1.27057">
        <ele>164</ele>
        <time>2020-10-03T08:28:01.000Z</time>
      </trkpt>
      <trkpt lat="43.62101" lon="1.27053">
        <ele>164</ele>
        <time>2020-10-03T08:28:02.000Z</time>
      </trkpt>
      <trkpt lat="43.621" lon="1.27051">
        <ele>164</ele>
        <time>2020-10-03T08:28:03.000Z</time>
      </trkpt>
      <trkpt lat="43.621" lon="1.27048">
        <ele>164</ele>
        <time>2020-10-03T08:28:04.000Z</time>
      </trkpt>
      <trkpt lat="43.621" lon="1.27045">
        <ele>164</ele>
        <time>2020-10-03T08:28:05.000Z</time>
      </trkpt>
      <trkpt lat="43.62099" lon="1.27042">
        <ele>164</ele>
        <time>2020-10-03T08:28:06.000Z</time>
      </trkpt>
      <trkpt lat="43.62099" lon="1.27037">
        <ele>164</ele>
        <time>2020-10-03T08:28:07.000Z</time>
      </trkpt>
      <trkpt lat="43.62098" lon="1.27033">
        <ele>164</ele>
        <time>2020-10-03T08:28:08.000Z</time>
      </trkpt>
      <trkpt lat="43.62097" lon="1.27029">
        <ele>164</ele>
        <time>2020-10-03T08:28:09.000Z</time>
      </trkpt>
      <trkpt lat="43.62097" lon="1.27025">
        <ele>164</ele>
        <time>2020-10-03T08:28:10.000Z</time>
      </trkpt>
      <trkpt lat="43.62096" lon="1.27021">
        <ele>164</ele>
        <time>2020-10-03T08:28:11.000Z</time>
      </trkpt>
      <trkpt lat="43.62095" lon="1.27017">
        <ele>164</ele>
        <time>2020-10-03T08:28:12.000Z</time>
      </trkpt>
      <trkpt lat="43.62094" lon="1.27014">
        <ele>164</ele>
        <time>2020-10-03T08:28:13.000Z</time>
      </trkpt>
      <trkpt lat="43.62094" lon="1.2701">
        <ele>164</ele>
        <time>2020-10-03T08:28:14.000Z</time>
      </trkpt>
      <trkpt lat="43.62093" lon="1.27006">
        <ele>164</ele>
        <time>2020-10-03T08:28:15.000Z</time>
      </trkpt>
      <trkpt lat="43.62093" lon="1.27003">
        <ele>164</ele>
        <time>2020-10-03T08:28:16.000Z</time>
      </trkpt>
      <trkpt lat="43.62093" lon="1.27">
        <ele>164</ele>
        <time>2020-10-03T08:28:17.000Z</time>
      </trkpt>
      <trkpt lat="43.62092" lon="1.26996">
        <ele>164</ele>
        <time>2020-10-03T08:28:18.000Z</time>
      </trkpt>
      <trkpt lat="43.62092" lon="1.26992">
        <ele>164</ele>
        <time>2020-10-03T08:28:19.000Z</time>
      </trkpt>
      <trkpt lat="43.62092" lon="1.26988">
        <ele>164</ele>
        <time>2020-10-03T08:28:20.000Z</time>
      </trkpt>
      <trkpt lat="43.62092" lon="1.26984">
        <ele>164</ele>
        <time>2020-10-03T08:28:21.000Z</time>
      </trkpt>
      <trkpt lat="43.62091" lon="1.2698">
        <ele>164</ele>
        <time>2020-10-03T08:28:22.000Z</time>
      </trkpt>
      <trkpt lat="43.6209" lon="1.26976">
        <ele>164</ele>
        <time>2020-10-03T08:28:23.000Z</time>
      </trkpt>
      <trkpt lat="43.62089" lon="1.26972">
        <ele>164</ele>
        <time>2020-10-03T08:28:24.000Z</time>
      </trkpt>
      <trkpt lat="43.62089" lon="1.26968">
        <ele>164</ele>
        <time>2020-10-03T08:28:25.000Z</time>
      </trkpt>
      <trkpt lat="43.62087" lon="1.26964">
        <ele>164</ele>
        <time>2020-10-03T08:28:26.000Z</time>
      </trkpt>
      <trkpt lat="43.62086" lon="1.2696">
        <ele>164</ele>
        <time>2020-10-03T08:28:27.000Z</time>
      </trkpt>
      <trkpt lat="43.62085" lon="1.26957">
        <ele>164</ele>
        <time>2020-10-03T08:28:28.000Z</time>
      </trkpt>
      <trkpt lat="43.62084" lon="1.26953">
        <ele>164</ele>
        <time>2020-10-03T08:28:29.000Z</time>
      </trkpt>
      <trkpt lat="43.62084" lon="1.2695">
        <ele>164</ele>
        <time>2020-10-03T08:28:30.000Z</time>
      </trkpt>
      <trkpt lat="43.62083" lon="1.26946">
        <ele>164</ele>
        <time>2020-10-03T08:28:31.000Z</time>
      </trkpt>
      <trkpt lat="43.62082" lon="1.26942">
        <ele>164</ele>
        <time>2020-10-03T08:28:32.000Z</time>
      </trkpt>
      <trkpt lat="43.62081" lon="1.26939">
        <ele>164</ele>
        <time>2020-10-03T08:28:33.000Z</time>
      </trkpt>
      <trkpt lat="43.6208" lon="1.26935">
        <ele>164</ele>
        <time>2020-10-03T08:28:34.000Z</time>
      </trkpt>
      <trkpt lat="43.62079" lon="1.26931">
        <ele>164</ele>
        <time>2020-10-03T08:28:35.000Z</time>
      </trkpt>
      <trkpt lat="43.62078" lon="1.26927">
        <ele>164</ele>
        <time>2020-10-03T08:28:36.000Z</time>
      </trkpt>
      <trkpt lat="43.62078" lon="1.26923">
        <ele>164</ele>
        <time>2020-10-03T08:28:37.000Z</time>
      </trkpt>
      <trkpt lat="43.62077" lon="1.26919">
        <ele>164</ele>
        <time>2020-10-03T08:28:38.000Z</time>
      </trkpt>
      <trkpt lat="43.62077" lon="1.26916">
        <ele>164</ele>
        <time>2020-10-03T08:28:39.000Z</time>
      </trkpt>
      <trkpt lat="43.62076" lon="1.26912">
        <ele>164</ele>
        <time>2020-10-03T08:28:40.000Z</time>
      </trkpt>
      <trkpt lat="43.62076" lon="1.26908">
        <ele>164</ele>
        <time>2020-10-03T08:28:41.000Z</time>
      </trkpt>
      <trkpt lat="43.62075" lon="1.26905">
        <ele>164</ele>
        <time>2020-10-03T08:28:42.000Z</time>
      </trkpt>
      <trkpt lat="43.62074" lon="1.26901">
        <ele>164</ele>
        <time>2020-10-03T08:28:43.000Z</time>
      </trkpt>
      <trkpt lat="43.62073" lon="1.26898">
        <ele>164</ele>
        <time>2020-10-03T08:28:44.000Z</time>
      </trkpt>
      <trkpt lat="43.62073" lon="1.26894">
        <ele>164</ele>
        <time>2020-10-03T08:28:45.000Z</time>
      </trkpt>
      <trkpt lat="43.62072" lon="1.26891">
        <ele>164</ele>
        <time>2020-10-03T08:28:46.000Z</time>
      </trkpt>
      <trkpt lat="43.62071" lon="1.26887">
        <ele>164</ele>
        <time>2020-10-03T08:28:47.000Z</time>
      </trkpt>
      <trkpt lat="43.62071" lon="1.26884">
        <ele>164</ele>
        <time>2020-10-03T08:28:48.000Z</time>
      </trkpt>
      <trkpt lat="43.6207" lon="1.2688">
        <ele>164</ele>
        <time>2020-10-03T08:28:49.000Z</time>
      </trkpt>
      <trkpt lat="43.62069" lon="1.26877">
        <ele>164</ele>
        <time>2020-10-03T08:28:50.000Z</time>
      </trkpt>
      <trkpt lat="43.62068" lon="1.26873">
        <ele>164</ele>
        <time>2020-10-03T08:28:51.000Z</time>
      </trkpt>
      <trkpt lat="43.62068" lon="1.2687">
        <ele>164</ele>
        <time>2020-10-03T08:28:52.000Z</time>
      </trkpt>
      <trkpt lat="43.62067" lon="1.26866">
        <ele>164.46153846154</ele>
        <time>2020-10-03T08:28:53.000Z</time>
      </trkpt>
      <trkpt lat="43.62067" lon="1.26862">
        <ele>165</ele>
        <time>2020-10-03T08:28:54.000Z</time>
      </trkpt>
      <trkpt lat="43.62066" lon="1.26859">
        <ele>165</ele>
        <time>2020-10-03T08:28:55.000Z</time>
      </trkpt>
      <trkpt lat="43.62066" lon="1.26855">
        <ele>165</ele>
        <time>2020-10-03T08:28:56.000Z</time>
      </trkpt>
      <trkpt lat="43.62065" lon="1.26851">
        <ele>165</ele>
        <time>2020-10-03T08:28:57.000Z</time>
      </trkpt>
      <trkpt lat="43.62064" lon="1.26848">
        <ele>165</ele>
        <time>2020-10-03T08:28:58.000Z</time>
      </trkpt>
      <trkpt lat="43.62064" lon="1.26844">
        <ele>165</ele>
        <time>2020-10-03T08:28:59.000Z</time>
      </trkpt>
      <trkpt lat="43.62063" lon="1.26841">
        <ele>165.41860776638</ele>
        <time>2020-10-03T08:29:00.000Z</time>
      </trkpt>
      <trkpt lat="43.62062" lon="1.26837">
        <ele>166</ele>
        <time>2020-10-03T08:29:01.000Z</time>
      </trkpt>
      <trkpt lat="43.62061" lon="1.26834">
        <ele>166</ele>
        <time>2020-10-03T08:29:02.000Z</time>
      </trkpt>
      <trkpt lat="43.62061" lon="1.2683">
        <ele>166</ele>
        <time>2020-10-03T08:29:03.000Z</time>
      </trkpt>
      <trkpt lat="43.6206" lon="1.26827">
        <ele>166</ele>
        <time>2020-10-03T08:29:04.000Z</time>
      </trkpt>
      <trkpt lat="43.62059" lon="1.26823">
        <ele>166</ele>
        <time>2020-10-03T08:29:05.000Z</time>
      </trkpt>
      <trkpt lat="43.62058" lon="1.26819">
        <ele>166</ele>
        <time>2020-10-03T08:29:06.000Z</time>
      </trkpt>
      <trkpt lat="43.62058" lon="1.26815">
        <ele>166</ele>
        <time>2020-10-03T08:29:07.000Z</time>
      </trkpt>
      <trkpt lat="43.62057" lon="1.26811">
        <ele>165.56179258173</ele>
        <time>2020-10-03T08:29:08.000Z</time>
      </trkpt>
      <trkpt lat="43.62057" lon="1.26807">
        <ele>165</ele>
        <time>2020-10-03T08:29:09.000Z</time>
      </trkpt>
      <trkpt lat="43.62056" lon="1.26803">
        <ele>165.83517596422</ele>
        <time>2020-10-03T08:29:10.000Z</time>
      </trkpt>
      <trkpt lat="43.62056" lon="1.268">
        <ele>167</ele>
        <time>2020-10-03T08:29:11.000Z</time>
      </trkpt>
      <trkpt lat="43.62055" lon="1.26796">
        <ele>167</ele>
        <time>2020-10-03T08:29:12.000Z</time>
      </trkpt>
      <trkpt lat="43.62054" lon="1.26792">
        <ele>167</ele>
        <time>2020-10-03T08:29:13.000Z</time>
      </trkpt>
      <trkpt lat="43.62053" lon="1.26789">
        <ele>167</ele>
        <time>2020-10-03T08:29:14.000Z</time>
      </trkpt>
      <trkpt lat="43.62053" lon="1.26785">
        <ele>167</ele>
        <time>2020-10-03T08:29:15.000Z</time>
      </trkpt>
      <trkpt lat="43.62052" lon="1.26781">
        <ele>167</ele>
        <time>2020-10-03T08:29:16.000Z</time>
      </trkpt>
      <trkpt lat="43.62051" lon="1.26777">
        <ele>167</ele>
        <time>2020-10-03T08:29:17.000Z</time>
      </trkpt>
      <trkpt lat="43.62049" lon="1.26773">
        <ele>167</ele>
        <time>2020-10-03T08:29:18.000Z</time>
      </trkpt>
      <trkpt lat="43.62049" lon="1.26769">
        <ele>167</ele>
        <time>2020-10-03T08:29:19.000Z</time>
      </trkpt>
      <trkpt lat="43.62048" lon="1.26766">
        <ele>167</ele>
        <time>2020-10-03T08:29:20.000Z</time>
      </trkpt>
      <trkpt lat="43.62047" lon="1.26762">
        <ele>167</ele>
        <time>2020-10-03T08:29:21.000Z</time>
      </trkpt>
      <trkpt lat="43.62046" lon="1.26758">
        <ele>167</ele>
        <time>2020-10-03T08:29:22.000Z</time>
      </trkpt>
      <trkpt lat="43.62045" lon="1.26755">
        <ele>167</ele>
        <time>2020-10-03T08:29:23.000Z</time>
      </trkpt>
      <trkpt lat="43.62044" lon="1.26751">
        <ele>166.59821714286</ele>
        <time>2020-10-03T08:29:24.000Z</time>
      </trkpt>
      <trkpt lat="43.62043" lon="1.26747">
        <ele>166</ele>
        <time>2020-10-03T08:29:25.000Z</time>
      </trkpt>
      <trkpt lat="43.62042" lon="1.26744">
        <ele>166</ele>
        <time>2020-10-03T08:29:26.000Z</time>
      </trkpt>
      <trkpt lat="43.62041" lon="1.2674">
        <ele>166</ele>
        <time>2020-10-03T08:29:27.000Z</time>
      </trkpt>
      <trkpt lat="43.6204" lon="1.26736">
        <ele>166</ele>
        <time>2020-10-03T08:29:28.000Z</time>
      </trkpt>
      <trkpt lat="43.6204" lon="1.26732">
        <ele>166</ele>
        <time>2020-10-03T08:29:29.000Z</time>
      </trkpt>
      <trkpt lat="43.6204" lon="1.26729">
        <ele>166</ele>
        <time>2020-10-03T08:29:30.000Z</time>
      </trkpt>
      <trkpt lat="43.62039" lon="1.26725">
        <ele>166.35513739189</ele>
        <time>2020-10-03T08:29:31.000Z</time>
      </trkpt>
      <trkpt lat="43.62038" lon="1.26722">
        <ele>167</ele>
        <time>2020-10-03T08:29:32.000Z</time>
      </trkpt>
      <trkpt lat="43.62038" lon="1.26718">
        <ele>167</ele>
        <time>2020-10-03T08:29:33.000Z</time>
      </trkpt>
      <trkpt lat="43.62038" lon="1.26715">
        <ele>167</ele>
        <time>2020-10-03T08:29:34.000Z</time>
      </trkpt>
      <trkpt lat="43.62037" lon="1.26711">
        <ele>167</ele>
        <time>2020-10-03T08:29:35.000Z</time>
      </trkpt>
      <trkpt lat="43.62036" lon="1.26707">
        <ele>167</ele>
        <time>2020-10-03T08:29:36.000Z</time>
      </trkpt>
      <trkpt lat="43.62036" lon="1.26704">
        <ele>167</ele>
        <time>2020-10-03T08:29:37.000Z</time>
      </trkpt>
      <trkpt lat="43.62035" lon="1.267">
        <ele>167</ele>
        <time>2020-10-03T08:29:38.000Z</time>
      </trkpt>
      <trkpt lat="43.62035" lon="1.26696">
        <ele>167</ele>
        <time>2020-10-03T08:29:39.000Z</time>
      </trkpt>
      <trkpt lat="43.62035" lon="1.26689">
        <ele>167</ele>
        <time>2020-10-03T08:29:41.000Z</time>
      </trkpt>
      <trkpt lat="43.62034" lon="1.26686">
        <ele>167</ele>
        <time>2020-10-03T08:29:42.000Z</time>
      </trkpt>
      <trkpt lat="43.62034" lon="1.26682">
        <ele>167</ele>
        <time>2020-10-03T08:29:43.000Z</time>
      </trkpt>
      <trkpt lat="43.62033" lon="1.26678">
        <ele>167</ele>
        <time>2020-10-03T08:29:44.000Z</time>
      </trkpt>
      <trkpt lat="43.62032" lon="1.26674">
        <ele>167</ele>
        <time>2020-10-03T08:29:45.000Z</time>
      </trkpt>
      <trkpt lat="43.62032" lon="1.2667">
        <ele>167</ele>
        <time>2020-10-03T08:29:46.000Z</time>
      </trkpt>
      <trkpt lat="43.62031" lon="1.26666">
        <ele>167</ele>
        <time>2020-10-03T08:29:47.000Z</time>
      </trkpt>
      <trkpt lat="43.6203" lon="1.26662">
        <ele>167</ele>
        <time>2020-10-03T08:29:48.000Z</time>
      </trkpt>
      <trkpt lat="43.6203" lon="1.26658">
        <ele>167</ele>
        <time>2020-10-03T08:29:49.000Z</time>
      </trkpt>
      <trkpt lat="43.6203" lon="1.26654">
        <ele>167.375008</ele>
        <time>2020-10-03T08:29:50.000Z</time>
      </trkpt>
      <trkpt lat="43.62029" lon="1.2665">
        <ele>168</ele>
        <time>2020-10-03T08:29:51.000Z</time>
      </trkpt>
      <trkpt lat="43.62029" lon="1.26646">
        <ele>168</ele>
        <time>2020-10-03T08:29:52.000Z</time>
      </trkpt>
      <trkpt lat="43.62029" lon="1.26642">
        <ele>168</ele>
        <time>2020-10-03T08:29:53.000Z</time>
      </trkpt>
      <trkpt lat="43.62028" lon="1.26638">
        <ele>168</ele>
        <time>2020-10-03T08:29:54.000Z</time>
      </trkpt>
      <trkpt lat="43.62027" lon="1.26634">
        <ele>167.62727346777</ele>
        <time>2020-10-03T08:29:55.000Z</time>
      </trkpt>
      <trkpt lat="43.62027" lon="1.26631">
        <ele>167</ele>
        <time>2020-10-03T08:29:56.000Z</time>
      </trkpt>
      <trkpt lat="43.62027" lon="1.26627">
        <ele>167</ele>
        <time>2020-10-03T08:29:57.000Z</time>
      </trkpt>
      <trkpt lat="43.62026" lon="1.26623">
        <ele>167</ele>
        <time>2020-10-03T08:29:58.000Z</time>
      </trkpt>
      <trkpt lat="43.62026" lon="1.26619">
        <ele>167</ele>
        <time>2020-10-03T08:29:59.000Z</time>
      </trkpt>
      <trkpt lat="43.62026" lon="1.26615">
        <ele>167</ele>
        <time>2020-10-03T08:30:00.000Z</time>
      </trkpt>
      <trkpt lat="43.62026" lon="1.26612">
        <ele>167</ele>
        <time>2020-10-03T08:30:01.000Z</time>
      </trkpt>
      <trkpt lat="43.62025" lon="1.26608">
        <ele>167</ele>
        <time>2020-10-03T08:30:02.000Z</time>
      </trkpt>
      <trkpt lat="43.62024" lon="1.26605">
        <ele>167</ele>
        <time>2020-10-03T08:30:03.000Z</time>
      </trkpt>
      <trkpt lat="43.62024" lon="1.26601">
        <ele>167</ele>
        <time>2020-10-03T08:30:04.000Z</time>
      </trkpt>
      <trkpt lat="43.62023" lon="1.26597">
        <ele>167</ele>
        <time>2020-10-03T08:30:05.000Z</time>
      </trkpt>
      <trkpt lat="43.62023" lon="1.26593">
        <ele>167</ele>
        <time>2020-10-03T08:30:06.000Z</time>
      </trkpt>
      <trkpt lat="43.62023" lon="1.26589">
        <ele>167</ele>
        <time>2020-10-03T08:30:07.000Z</time>
      </trkpt>
      <trkpt lat="43.62022" lon="1.26585">
        <ele>167</ele>
        <time>2020-10-03T08:30:08.000Z</time>
      </trkpt>
      <trkpt lat="43.62022" lon="1.26582">
        <ele>167</ele>
        <time>2020-10-03T08:30:09.000Z</time>
      </trkpt>
      <trkpt lat="43.62021" lon="1.26578">
        <ele>167.28378191379</ele>
        <time>2020-10-03T08:30:10.000Z</time>
      </trkpt>
      <trkpt lat="43.62021" lon="1.26575">
        <ele>168</ele>
        <time>2020-10-03T08:30:11.000Z</time>
      </trkpt>
      <trkpt lat="43.6202" lon="1.26571">
        <ele>168</ele>
        <time>2020-10-03T08:30:12.000Z</time>
      </trkpt>
      <trkpt lat="43.62019" lon="1.26568">
        <ele>168</ele>
        <time>2020-10-03T08:30:13.000Z</time>
      </trkpt>
      <trkpt lat="43.62018" lon="1.26565">
        <ele>168</ele>
        <time>2020-10-03T08:30:14.000Z</time>
      </trkpt>
      <trkpt lat="43.62017" lon="1.26561">
        <ele>168</ele>
        <time>2020-10-03T08:30:15.000Z</time>
      </trkpt>
      <trkpt lat="43.62016" lon="1.26558">
        <ele>167.55357714286</ele>
        <time>2020-10-03T08:30:16.000Z</time>
      </trkpt>
      <trkpt lat="43.62016" lon="1.26555">
        <ele>167</ele>
        <time>2020-10-03T08:30:17.000Z</time>
      </trkpt>
      <trkpt lat="43.62015" lon="1.26551">
        <ele>167</ele>
        <time>2020-10-03T08:30:18.000Z</time>
      </trkpt>
      <trkpt lat="43.62014" lon="1.26548">
        <ele>167</ele>
        <time>2020-10-03T08:30:19.000Z</time>
      </trkpt>
      <trkpt lat="43.62014" lon="1.26544">
        <ele>167</ele>
        <time>2020-10-03T08:30:20.000Z</time>
      </trkpt>
      <trkpt lat="43.62013" lon="1.2654">
        <ele>167</ele>
        <time>2020-10-03T08:30:21.000Z</time>
      </trkpt>
      <trkpt lat="43.62013" lon="1.26536">
        <ele>167</ele>
        <time>2020-10-03T08:30:22.000Z</time>
      </trkpt>
      <trkpt lat="43.62013" lon="1.26533">
        <ele>167</ele>
        <time>2020-10-03T08:30:23.000Z</time>
      </trkpt>
      <trkpt lat="43.62012" lon="1.26529">
        <ele>167.44642285714</ele>
        <time>2020-10-03T08:30:24.000Z</time>
      </trkpt>
      <trkpt lat="43.62012" lon="1.26525">
        <ele>168</ele>
        <time>2020-10-03T08:30:25.000Z</time>
      </trkpt>
      <trkpt lat="43.62011" lon="1.26522">
        <ele>168</ele>
        <time>2020-10-03T08:30:26.000Z</time>
      </trkpt>
      <trkpt lat="43.62011" lon="1.26519">
        <ele>168</ele>
        <time>2020-10-03T08:30:27.000Z</time>
      </trkpt>
      <trkpt lat="43.6201" lon="1.26515">
        <ele>168</ele>
        <time>2020-10-03T08:30:28.000Z</time>
      </trkpt>
      <trkpt lat="43.6201" lon="1.26512">
        <ele>168</ele>
        <time>2020-10-03T08:30:29.000Z</time>
      </trkpt>
      <trkpt lat="43.62009" lon="1.26508">
        <ele>167.58715768707</ele>
        <time>2020-10-03T08:30:30.000Z</time>
      </trkpt>
      <trkpt lat="43.62008" lon="1.26504">
        <ele>167</ele>
        <time>2020-10-03T08:30:31.000Z</time>
      </trkpt>
      <trkpt lat="43.62007" lon="1.265">
        <ele>167</ele>
        <time>2020-10-03T08:30:32.000Z</time>
      </trkpt>
      <trkpt lat="43.62006" lon="1.26497">
        <ele>167</ele>
        <time>2020-10-03T08:30:33.000Z</time>
      </trkpt>
      <trkpt lat="43.62006" lon="1.26493">
        <ele>167</ele>
        <time>2020-10-03T08:30:34.000Z</time>
      </trkpt>
      <trkpt lat="43.62005" lon="1.26489">
        <ele>167</ele>
        <time>2020-10-03T08:30:35.000Z</time>
      </trkpt>
      <trkpt lat="43.62005" lon="1.26485">
        <ele>167</ele>
        <time>2020-10-03T08:30:36.000Z</time>
      </trkpt>
      <trkpt lat="43.62005" lon="1.26481">
        <ele>167</ele>
        <time>2020-10-03T08:30:37.000Z</time>
      </trkpt>
      <trkpt lat="43.62005" lon="1.26477">
        <ele>167</ele>
        <time>2020-10-03T08:30:38.000Z</time>
      </trkpt>
      <trkpt lat="43.62004" lon="1.26473">
        <ele>167</ele>
        <time>2020-10-03T08:30:39.000Z</time>
      </trkpt>
      <trkpt lat="43.62004" lon="1.26469">
        <ele>167.33333333333</ele>
        <time>2020-10-03T08:30:40.000Z</time>
      </trkpt>
      <trkpt lat="43.62004" lon="1.26465">
        <ele>168</ele>
        <time>2020-10-03T08:30:41.000Z</time>
      </trkpt>
      <trkpt lat="43.62003" lon="1.26461">
        <ele>168</ele>
        <time>2020-10-03T08:30:42.000Z</time>
      </trkpt>
      <trkpt lat="43.62003" lon="1.26458">
        <ele>168</ele>
        <time>2020-10-03T08:30:43.000Z</time>
      </trkpt>
      <trkpt lat="43.62003" lon="1.26455">
        <ele>168</ele>
        <time>2020-10-03T08:30:44.000Z</time>
      </trkpt>
      <trkpt lat="43.62003" lon="1.26451">
        <ele>168</ele>
        <time>2020-10-03T08:30:45.000Z</time>
      </trkpt>
      <trkpt lat="43.62002" lon="1.26447">
        <ele>168</ele>
        <time>2020-10-03T08:30:46.000Z</time>
      </trkpt>
      <trkpt lat="43.62002" lon="1.26444">
        <ele>168</ele>
        <time>2020-10-03T08:30:47.000Z</time>
      </trkpt>
      <trkpt lat="43.62002" lon="1.2644">
        <ele>168</ele>
        <time>2020-10-03T08:30:48.000Z</time>
      </trkpt>
      <trkpt lat="43.62001" lon="1.26436">
        <ele>168</ele>
        <time>2020-10-03T08:30:49.000Z</time>
      </trkpt>
      <trkpt lat="43.62" lon="1.26432">
        <ele>168</ele>
        <time>2020-10-03T08:30:50.000Z</time>
      </trkpt>
      <trkpt lat="43.62" lon="1.26429">
        <ele>168</ele>
        <time>2020-10-03T08:30:51.000Z</time>
      </trkpt>
      <trkpt lat="43.62" lon="1.26425">
        <ele>168</ele>
        <time>2020-10-03T08:30:52.000Z</time>
      </trkpt>
      <trkpt lat="43.61999" lon="1.26422">
        <ele>168</ele>
        <time>2020-10-03T08:30:53.000Z</time>
      </trkpt>
      <trkpt lat="43.61998" lon="1.26418">
        <ele>168</ele>
        <time>2020-10-03T08:30:54.000Z</time>
      </trkpt>
      <trkpt lat="43.61997" lon="1.26414">
        <ele>168</ele>
        <time>2020-10-03T08:30:55.000Z</time>
      </trkpt>
      <trkpt lat="43.61997" lon="1.2641">
        <ele>168</ele>
        <time>2020-10-03T08:30:56.000Z</time>
      </trkpt>
      <trkpt lat="43.61996" lon="1.26406">
        <ele>168</ele>
        <time>2020-10-03T08:30:57.000Z</time>
      </trkpt>
      <trkpt lat="43.61996" lon="1.26403">
        <ele>168</ele>
        <time>2020-10-03T08:30:58.000Z</time>
      </trkpt>
      <trkpt lat="43.61995" lon="1.264">
        <ele>168</ele>
        <time>2020-10-03T08:30:59.000Z</time>
      </trkpt>
      <trkpt lat="43.61994" lon="1.26396">
        <ele>168</ele>
        <time>2020-10-03T08:31:00.000Z</time>
      </trkpt>
      <trkpt lat="43.61994" lon="1.26393">
        <ele>168</ele>
        <time>2020-10-03T08:31:01.000Z</time>
      </trkpt>
      <trkpt lat="43.61993" lon="1.26389">
        <ele>168</ele>
        <time>2020-10-03T08:31:02.000Z</time>
      </trkpt>
      <trkpt lat="43.61991" lon="1.26385">
        <ele>168</ele>
        <time>2020-10-03T08:31:03.000Z</time>
      </trkpt>
      <trkpt lat="43.6199" lon="1.26381">
        <ele>168</ele>
        <time>2020-10-03T08:31:04.000Z</time>
      </trkpt>
      <trkpt lat="43.61988" lon="1.26374">
        <ele>168</ele>
        <time>2020-10-03T08:31:06.000Z</time>
      </trkpt>
      <trkpt lat="43.61986" lon="1.2637">
        <ele>168</ele>
        <time>2020-10-03T08:31:07.000Z</time>
      </trkpt>
      <trkpt lat="43.61985" lon="1.26366">
        <ele>168</ele>
        <time>2020-10-03T08:31:08.000Z</time>
      </trkpt>
      <trkpt lat="43.61984" lon="1.26363">
        <ele>168</ele>
        <time>2020-10-03T08:31:09.000Z</time>
      </trkpt>
      <trkpt lat="43.61983" lon="1.26359">
        <ele>168.45871107145</ele>
        <time>2020-10-03T08:31:10.000Z</time>
      </trkpt>
      <trkpt lat="43.61983" lon="1.26356">
        <ele>169</ele>
        <time>2020-10-03T08:31:11.000Z</time>
      </trkpt>
      <trkpt lat="43.61982" lon="1.26352">
        <ele>169</ele>
        <time>2020-10-03T08:31:12.000Z</time>
      </trkpt>
      <trkpt lat="43.61982" lon="1.26349">
        <ele>169</ele>
        <time>2020-10-03T08:31:13.000Z</time>
      </trkpt>
      <trkpt lat="43.61981" lon="1.26345">
        <ele>169</ele>
        <time>2020-10-03T08:31:14.000Z</time>
      </trkpt>
      <trkpt lat="43.61981" lon="1.26338">
        <ele>169</ele>
        <time>2020-10-03T08:31:16.000Z</time>
      </trkpt>
      <trkpt lat="43.6198" lon="1.26334">
        <ele>169</ele>
        <time>2020-10-03T08:31:17.000Z</time>
      </trkpt>
      <trkpt lat="43.6198" lon="1.2633">
        <ele>169</ele>
        <time>2020-10-03T08:31:18.000Z</time>
      </trkpt>
      <trkpt lat="43.6198" lon="1.26327">
        <ele>169</ele>
        <time>2020-10-03T08:31:19.000Z</time>
      </trkpt>
      <trkpt lat="43.61979" lon="1.26324">
        <ele>169</ele>
        <time>2020-10-03T08:31:20.000Z</time>
      </trkpt>
      <trkpt lat="43.61978" lon="1.2632">
        <ele>169</ele>
        <time>2020-10-03T08:31:21.000Z</time>
      </trkpt>
      <trkpt lat="43.61976" lon="1.26317">
        <ele>169</ele>
        <time>2020-10-03T08:31:22.000Z</time>
      </trkpt>
      <trkpt lat="43.61975" lon="1.26313">
        <ele>169.12856803262</ele>
        <time>2020-10-03T08:31:23.000Z</time>
      </trkpt>
      <trkpt lat="43.61973" lon="1.2631">
        <ele>170</ele>
        <time>2020-10-03T08:31:24.000Z</time>
      </trkpt>
      <trkpt lat="43.61971" lon="1.26308">
        <ele>170</ele>
        <time>2020-10-03T08:31:25.000Z</time>
      </trkpt>
      <trkpt lat="43.61969" lon="1.26305">
        <ele>170</ele>
        <time>2020-10-03T08:31:26.000Z</time>
      </trkpt>
      <trkpt lat="43.61967" lon="1.26303">
        <ele>170</ele>
        <time>2020-10-03T08:31:27.000Z</time>
      </trkpt>
      <trkpt lat="43.61965" lon="1.26302">
        <ele>170</ele>
        <time>2020-10-03T08:31:28.000Z</time>
      </trkpt>
      <trkpt lat="43.61963" lon="1.26302">
        <ele>170.41860153599</ele>
        <time>2020-10-03T08:31:29.000Z</time>
      </trkpt>
      <trkpt lat="43.61961" lon="1.26302">
        <ele>171</ele>
        <time>2020-10-03T08:31:30.000Z</time>
      </trkpt>
      <trkpt lat="43.6196" lon="1.26304">
        <ele>171</ele>
        <time>2020-10-03T08:31:31.000Z</time>
      </trkpt>
      <trkpt lat="43.61958" lon="1.26305">
        <ele>171</ele>
        <time>2020-10-03T08:31:32.000Z</time>
      </trkpt>
      <trkpt lat="43.61955" lon="1.26306">
        <ele>171</ele>
        <time>2020-10-03T08:31:33.000Z</time>
      </trkpt>
      <trkpt lat="43.61951" lon="1.26307">
        <ele>170.91025304408</ele>
        <time>2020-10-03T08:31:34.000Z</time>
      </trkpt>
      <trkpt lat="43.61948" lon="1.26308">
        <ele>170</ele>
        <time>2020-10-03T08:31:35.000Z</time>
      </trkpt>
      <trkpt lat="43.61945" lon="1.26309">
        <ele>170</ele>
        <time>2020-10-03T08:31:36.000Z</time>
      </trkpt>
      <trkpt lat="43.61942" lon="1.2631">
        <ele>170</ele>
        <time>2020-10-03T08:31:37.000Z</time>
      </trkpt>
      <trkpt lat="43.6194" lon="1.2631">
        <ele>170</ele>
        <time>2020-10-03T08:31:38.000Z</time>
      </trkpt>
      <trkpt lat="43.61938" lon="1.26309">
        <ele>170</ele>
        <time>2020-10-03T08:31:39.000Z</time>
      </trkpt>
      <trkpt lat="43.61936" lon="1.26307">
        <ele>169.56140666053</ele>
        <time>2020-10-03T08:31:40.000Z</time>
      </trkpt>
      <trkpt lat="43.61936" lon="1.26303">
        <ele>169</ele>
        <time>2020-10-03T08:31:41.000Z</time>
      </trkpt>
      <trkpt lat="43.61936" lon="1.263">
        <ele>168.64233726677</ele>
        <time>2020-10-03T08:31:42.000Z</time>
      </trkpt>
      <trkpt lat="43.61936" lon="1.26295">
        <ele>168</ele>
        <time>2020-10-03T08:31:43.000Z</time>
      </trkpt>
      <trkpt lat="43.61935" lon="1.26292">
        <ele>168</ele>
        <time>2020-10-03T08:31:44.000Z</time>
      </trkpt>
      <trkpt lat="43.61935" lon="1.26289">
        <ele>168</ele>
        <time>2020-10-03T08:31:45.000Z</time>
      </trkpt>
      <trkpt lat="43.61935" lon="1.26285">
        <ele>168</ele>
        <time>2020-10-03T08:31:46.000Z</time>
      </trkpt>
      <trkpt lat="43.61935" lon="1.26281">
        <ele>168</ele>
        <time>2020-10-03T08:31:47.000Z</time>
      </trkpt>
      <trkpt lat="43.61935" lon="1.26277">
        <ele>168</ele>
        <time>2020-10-03T08:31:48.000Z</time>
      </trkpt>
      <trkpt lat="43.61934" lon="1.26274">
        <ele>168</ele>
        <time>2020-10-03T08:31:49.000Z</time>
      </trkpt>
      <trkpt lat="43.61933" lon="1.26271">
        <ele>168</ele>
        <time>2020-10-03T08:31:50.000Z</time>
      </trkpt>
      <trkpt lat="43.61933" lon="1.26267">
        <ele>168</ele>
        <time>2020-10-03T08:31:51.000Z</time>
      </trkpt>
      <trkpt lat="43.61932" lon="1.26263">
        <ele>168</ele>
        <time>2020-10-03T08:31:52.000Z</time>
      </trkpt>
      <trkpt lat="43.61932" lon="1.2626">
        <ele>168</ele>
        <time>2020-10-03T08:31:53.000Z</time>
      </trkpt>
      <trkpt lat="43.6193" lon="1.26256">
        <ele>168</ele>
        <time>2020-10-03T08:31:54.000Z</time>
      </trkpt>
      <trkpt lat="43.6193" lon="1.26252">
        <ele>168</ele>
        <time>2020-10-03T08:31:55.000Z</time>
      </trkpt>
      <trkpt lat="43.6193" lon="1.26248">
        <ele>168</ele>
        <time>2020-10-03T08:31:56.000Z</time>
      </trkpt>
      <trkpt lat="43.61929" lon="1.26245">
        <ele>168</ele>
        <time>2020-10-03T08:31:57.000Z</time>
      </trkpt>
      <trkpt lat="43.61929" lon="1.26241">
        <ele>168</ele>
        <time>2020-10-03T08:31:58.000Z</time>
      </trkpt>
      <trkpt lat="43.61929" lon="1.26238">
        <ele>168</ele>
        <time>2020-10-03T08:31:59.000Z</time>
      </trkpt>
      <trkpt lat="43.61928" lon="1.26234">
        <ele>168</ele>
        <time>2020-10-03T08:32:00.000Z</time>
      </trkpt>
      <trkpt lat="43.61928" lon="1.2623">
        <ele>168</ele>
        <time>2020-10-03T08:32:01.000Z</time>
      </trkpt>
      <trkpt lat="43.61927" lon="1.26227">
        <ele>168</ele>
        <time>2020-10-03T08:32:02.000Z</time>
      </trkpt>
      <trkpt lat="43.61926" lon="1.26223">
        <ele>168</ele>
        <time>2020-10-03T08:32:03.000Z</time>
      </trkpt>
      <trkpt lat="43.61926" lon="1.2622">
        <ele>168</ele>
        <time>2020-10-03T08:32:04.000Z</time>
      </trkpt>
      <trkpt lat="43.61925" lon="1.26216">
        <ele>168</ele>
        <time>2020-10-03T08:32:05.000Z</time>
      </trkpt>
      <trkpt lat="43.61924" lon="1.26212">
        <ele>168</ele>
        <time>2020-10-03T08:32:06.000Z</time>
      </trkpt>
      <trkpt lat="43.61924" lon="1.26208">
        <ele>168</ele>
        <time>2020-10-03T08:32:07.000Z</time>
      </trkpt>
      <trkpt lat="43.61924" lon="1.26205">
        <ele>168</ele>
        <time>2020-10-03T08:32:08.000Z</time>
      </trkpt>
      <trkpt lat="43.61924" lon="1.26201">
        <ele>168</ele>
        <time>2020-10-03T08:32:09.000Z</time>
      </trkpt>
      <trkpt lat="43.61924" lon="1.26198">
        <ele>168</ele>
        <time>2020-10-03T08:32:10.000Z</time>
      </trkpt>
      <trkpt lat="43.61924" lon="1.26193">
        <ele>168</ele>
        <time>2020-10-03T08:32:11.000Z</time>
      </trkpt>
      <trkpt lat="43.61923" lon="1.2619">
        <ele>168</ele>
        <time>2020-10-03T08:32:12.000Z</time>
      </trkpt>
      <trkpt lat="43.61922" lon="1.26186">
        <ele>168</ele>
        <time>2020-10-03T08:32:13.000Z</time>
      </trkpt>
      <trkpt lat="43.61922" lon="1.26182">
        <ele>168</ele>
        <time>2020-10-03T08:32:14.000Z</time>
      </trkpt>
      <trkpt lat="43.61921" lon="1.26178">
        <ele>168</ele>
        <time>2020-10-03T08:32:15.000Z</time>
      </trkpt>
      <trkpt lat="43.61921" lon="1.26173">
        <ele>168</ele>
        <time>2020-10-03T08:32:16.000Z</time>
      </trkpt>
      <trkpt lat="43.6192" lon="1.26169">
        <ele>168</ele>
        <time>2020-10-03T08:32:17.000Z</time>
      </trkpt>
      <trkpt lat="43.6192" lon="1.26165">
        <ele>168</ele>
        <time>2020-10-03T08:32:18.000Z</time>
      </trkpt>
      <trkpt lat="43.61919" lon="1.26161">
        <ele>168</ele>
        <time>2020-10-03T08:32:19.000Z</time>
      </trkpt>
      <trkpt lat="43.61919" lon="1.26157">
        <ele>168</ele>
        <time>2020-10-03T08:32:20.000Z</time>
      </trkpt>
      <trkpt lat="43.61918" lon="1.26153">
        <ele>168</ele>
        <time>2020-10-03T08:32:21.000Z</time>
      </trkpt>
      <trkpt lat="43.61917" lon="1.26149">
        <ele>168</ele>
        <time>2020-10-03T08:32:22.000Z</time>
      </trkpt>
      <trkpt lat="43.61916" lon="1.26146">
        <ele>168</ele>
        <time>2020-10-03T08:32:23.000Z</time>
      </trkpt>
      <trkpt lat="43.61916" lon="1.26142">
        <ele>168</ele>
        <time>2020-10-03T08:32:24.000Z</time>
      </trkpt>
      <trkpt lat="43.61915" lon="1.26138">
        <ele>168</ele>
        <time>2020-10-03T08:32:25.000Z</time>
      </trkpt>
      <trkpt lat="43.61914" lon="1.26134">
        <ele>168</ele>
        <time>2020-10-03T08:32:26.000Z</time>
      </trkpt>
      <trkpt lat="43.61913" lon="1.2613">
        <ele>168</ele>
        <time>2020-10-03T08:32:27.000Z</time>
      </trkpt>
      <trkpt lat="43.61913" lon="1.26127">
        <ele>168</ele>
        <time>2020-10-03T08:32:28.000Z</time>
      </trkpt>
      <trkpt lat="43.61913" lon="1.26123">
        <ele>168</ele>
        <time>2020-10-03T08:32:29.000Z</time>
      </trkpt>
      <trkpt lat="43.61912" lon="1.26119">
        <ele>168</ele>
        <time>2020-10-03T08:32:30.000Z</time>
      </trkpt>
      <trkpt lat="43.61912" lon="1.26115">
        <ele>168</ele>
        <time>2020-10-03T08:32:32.000Z</time>
      </trkpt>
      <trkpt lat="43.61911" lon="1.26111">
        <ele>168</ele>
        <time>2020-10-03T08:32:33.000Z</time>
      </trkpt>
      <trkpt lat="43.6191" lon="1.26107">
        <ele>168</ele>
        <time>2020-10-03T08:32:34.000Z</time>
      </trkpt>
      <trkpt lat="43.6191" lon="1.26104">
        <ele>168</ele>
        <time>2020-10-03T08:32:35.000Z</time>
      </trkpt>
      <trkpt lat="43.61909" lon="1.26101">
        <ele>168.35971011023</ele>
        <time>2020-10-03T08:32:36.000Z</time>
      </trkpt>
      <trkpt lat="43.61909" lon="1.26097">
        <ele>169</ele>
        <time>2020-10-03T08:32:37.000Z</time>
      </trkpt>
      <trkpt lat="43.61909" lon="1.26093">
        <ele>169</ele>
        <time>2020-10-03T08:32:38.000Z</time>
      </trkpt>
      <trkpt lat="43.61909" lon="1.26089">
        <ele>169</ele>
        <time>2020-10-03T08:32:39.000Z</time>
      </trkpt>
      <trkpt lat="43.61909" lon="1.26086">
        <ele>169</ele>
        <time>2020-10-03T08:32:40.000Z</time>
      </trkpt>
      <trkpt lat="43.61909" lon="1.26082">
        <ele>169</ele>
        <time>2020-10-03T08:32:41.000Z</time>
      </trkpt>
      <trkpt lat="43.61909" lon="1.26079">
        <ele>169</ele>
        <time>2020-10-03T08:32:42.000Z</time>
      </trkpt>
      <trkpt lat="43.61909" lon="1.26076">
        <ele>169</ele>
        <time>2020-10-03T08:32:43.000Z</time>
      </trkpt>
      <trkpt lat="43.61908" lon="1.26072">
        <ele>169</ele>
        <time>2020-10-03T08:32:44.000Z</time>
      </trkpt>
      <trkpt lat="43.61909" lon="1.26067">
        <ele>169</ele>
        <time>2020-10-03T08:32:45.000Z</time>
      </trkpt>
      <trkpt lat="43.61909" lon="1.26063">
        <ele>169</ele>
        <time>2020-10-03T08:32:46.000Z</time>
      </trkpt>
      <trkpt lat="43.61908" lon="1.26059">
        <ele>169</ele>
        <time>2020-10-03T08:32:47.000Z</time>
      </trkpt>
      <trkpt lat="43.61908" lon="1.26055">
        <ele>169</ele>
        <time>2020-10-03T08:32:48.000Z</time>
      </trkpt>
      <trkpt lat="43.61908" lon="1.26051">
        <ele>169</ele>
        <time>2020-10-03T08:32:49.000Z</time>
      </trkpt>
      <trkpt lat="43.61907" lon="1.26047">
        <ele>169</ele>
        <time>2020-10-03T08:32:50.000Z</time>
      </trkpt>
      <trkpt lat="43.61907" lon="1.26043">
        <ele>169</ele>
        <time>2020-10-03T08:32:51.000Z</time>
      </trkpt>
      <trkpt lat="43.61907" lon="1.26039">
        <ele>169</ele>
        <time>2020-10-03T08:32:52.000Z</time>
      </trkpt>
      <trkpt lat="43.61907" lon="1.26034">
        <ele>169</ele>
        <time>2020-10-03T08:32:53.000Z</time>
      </trkpt>
      <trkpt lat="43.61906" lon="1.2603">
        <ele>169</ele>
        <time>2020-10-03T08:32:54.000Z</time>
      </trkpt>
      <trkpt lat="43.61906" lon="1.26026">
        <ele>169</ele>
        <time>2020-10-03T08:32:55.000Z</time>
      </trkpt>
      <trkpt lat="43.61906" lon="1.26022">
        <ele>169</ele>
        <time>2020-10-03T08:32:56.000Z</time>
      </trkpt>
      <trkpt lat="43.61905" lon="1.26018">
        <ele>169.41592850185</ele>
        <time>2020-10-03T08:32:57.000Z</time>
      </trkpt>
      <trkpt lat="43.61904" lon="1.26015">
        <ele>170</ele>
        <time>2020-10-03T08:32:58.000Z</time>
      </trkpt>
      <trkpt lat="43.61904" lon="1.26011">
        <ele>170</ele>
        <time>2020-10-03T08:32:59.000Z</time>
      </trkpt>
      <trkpt lat="43.61903" lon="1.26008">
        <ele>170</ele>
        <time>2020-10-03T08:33:00.000Z</time>
      </trkpt>
      <trkpt lat="43.61903" lon="1.26004">
        <ele>170</ele>
        <time>2020-10-03T08:33:01.000Z</time>
      </trkpt>
      <trkpt lat="43.61903" lon="1.25999">
        <ele>170</ele>
        <time>2020-10-03T08:33:02.000Z</time>
      </trkpt>
      <trkpt lat="43.61902" lon="1.25996">
        <ele>170.40650821071</ele>
        <time>2020-10-03T08:33:03.000Z</time>
      </trkpt>
      <trkpt lat="43.61901" lon="1.25993">
        <ele>171</ele>
        <time>2020-10-03T08:33:04.000Z</time>
      </trkpt>
      <trkpt lat="43.619" lon="1.2599">
        <ele>171</ele>
        <time>2020-10-03T08:33:05.000Z</time>
      </trkpt>
      <trkpt lat="43.61899" lon="1.25987">
        <ele>171</ele>
        <time>2020-10-03T08:33:06.000Z</time>
      </trkpt>
      <trkpt lat="43.61899" lon="1.25983">
        <ele>171</ele>
        <time>2020-10-03T08:33:07.000Z</time>
      </trkpt>
      <trkpt lat="43.61899" lon="1.25979">
        <ele>171</ele>
        <time>2020-10-03T08:33:08.000Z</time>
      </trkpt>
      <trkpt lat="43.61899" lon="1.25975">
        <ele>171</ele>
        <time>2020-10-03T08:33:09.000Z</time>
      </trkpt>
      <trkpt lat="43.61898" lon="1.25972">
        <ele>171</ele>
        <time>2020-10-03T08:33:10.000Z</time>
      </trkpt>
      <trkpt lat="43.61898" lon="1.25968">
        <ele>171</ele>
        <time>2020-10-03T08:33:11.000Z</time>
      </trkpt>
      <trkpt lat="43.61896" lon="1.25964">
        <ele>171</ele>
        <time>2020-10-03T08:33:12.000Z</time>
      </trkpt>
      <trkpt lat="43.61895" lon="1.2596">
        <ele>171</ele>
        <time>2020-10-03T08:33:13.000Z</time>
      </trkpt>
      <trkpt lat="43.61894" lon="1.25956">
        <ele>171</ele>
        <time>2020-10-03T08:33:14.000Z</time>
      </trkpt>
      <trkpt lat="43.61893" lon="1.25953">
        <ele>171.34482403484</ele>
        <time>2020-10-03T08:33:15.000Z</time>
      </trkpt>
      <trkpt lat="43.61891" lon="1.25949">
        <ele>172</ele>
        <time>2020-10-03T08:33:16.000Z</time>
      </trkpt>
      <trkpt lat="43.6189" lon="1.25945">
        <ele>172</ele>
        <time>2020-10-03T08:33:17.000Z</time>
      </trkpt>
      <trkpt lat="43.61889" lon="1.25942">
        <ele>172</ele>
        <time>2020-10-03T08:33:18.000Z</time>
      </trkpt>
      <trkpt lat="43.61888" lon="1.25938">
        <ele>172</ele>
        <time>2020-10-03T08:33:19.000Z</time>
      </trkpt>
      <trkpt lat="43.61887" lon="1.25934">
        <ele>172</ele>
        <time>2020-10-03T08:33:20.000Z</time>
      </trkpt>
      <trkpt lat="43.61885" lon="1.2593">
        <ele>171.63551211809</ele>
        <time>2020-10-03T08:33:21.000Z</time>
      </trkpt>
      <trkpt lat="43.61884" lon="1.25926">
        <ele>171</ele>
        <time>2020-10-03T08:33:22.000Z</time>
      </trkpt>
      <trkpt lat="43.61883" lon="1.25923">
        <ele>171</ele>
        <time>2020-10-03T08:33:23.000Z</time>
      </trkpt>
      <trkpt lat="43.61882" lon="1.25919">
        <ele>171</ele>
        <time>2020-10-03T08:33:24.000Z</time>
      </trkpt>
      <trkpt lat="43.61881" lon="1.25915">
        <ele>171</ele>
        <time>2020-10-03T08:33:25.000Z</time>
      </trkpt>
      <trkpt lat="43.6188" lon="1.25912">
        <ele>171</ele>
        <time>2020-10-03T08:33:26.000Z</time>
      </trkpt>
      <trkpt lat="43.61879" lon="1.25909">
        <ele>171</ele>
        <time>2020-10-03T08:33:27.000Z</time>
      </trkpt>
      <trkpt lat="43.61877" lon="1.25906">
        <ele>171</ele>
        <time>2020-10-03T08:33:28.000Z</time>
      </trkpt>
      <trkpt lat="43.61876" lon="1.25903">
        <ele>171</ele>
        <time>2020-10-03T08:33:29.000Z</time>
      </trkpt>
      <trkpt lat="43.61875" lon="1.259">
        <ele>171</ele>
        <time>2020-10-03T08:33:30.000Z</time>
      </trkpt>
      <trkpt lat="43.61874" lon="1.25898">
        <ele>171</ele>
        <time>2020-10-03T08:33:31.000Z</time>
      </trkpt>
      <trkpt lat="43.61873" lon="1.25895">
        <ele>171</ele>
        <time>2020-10-03T08:33:32.000Z</time>
      </trkpt>
      <trkpt lat="43.61872" lon="1.25892">
        <ele>171</ele>
        <time>2020-10-03T08:33:33.000Z</time>
      </trkpt>
      <trkpt lat="43.61871" lon="1.25888">
        <ele>171</ele>
        <time>2020-10-03T08:33:34.000Z</time>
      </trkpt>
      <trkpt lat="43.6187" lon="1.25885">
        <ele>171</ele>
        <time>2020-10-03T08:33:35.000Z</time>
      </trkpt>
      <trkpt lat="43.61869" lon="1.25881">
        <ele>171</ele>
        <time>2020-10-03T08:33:36.000Z</time>
      </trkpt>
      <trkpt lat="43.61867" lon="1.25878">
        <ele>171</ele>
        <time>2020-10-03T08:33:37.000Z</time>
      </trkpt>
      <trkpt lat="43.61865" lon="1.25875">
        <ele>171</ele>
        <time>2020-10-03T08:33:38.000Z</time>
      </trkpt>
      <trkpt lat="43.61864" lon="1.25872">
        <ele>171</ele>
        <time>2020-10-03T08:33:39.000Z</time>
      </trkpt>
      <trkpt lat="43.61863" lon="1.25868">
        <ele>170.55555239504</ele>
        <time>2020-10-03T08:33:40.000Z</time>
      </trkpt>
      <trkpt lat="43.61861" lon="1.25866">
        <ele>170</ele>
        <time>2020-10-03T08:33:41.000Z</time>
      </trkpt>
      <trkpt lat="43.6186" lon="1.25863">
        <ele>170.31395487289</ele>
        <time>2020-10-03T08:33:42.000Z</time>
      </trkpt>
      <trkpt lat="43.61859" lon="1.2586">
        <ele>171</ele>
        <time>2020-10-03T08:33:43.000Z</time>
      </trkpt>
      <trkpt lat="43.61857" lon="1.25857">
        <ele>171</ele>
        <time>2020-10-03T08:33:44.000Z</time>
      </trkpt>
      <trkpt lat="43.61856" lon="1.25854">
        <ele>171</ele>
        <time>2020-10-03T08:33:45.000Z</time>
      </trkpt>
      <trkpt lat="43.61854" lon="1.25851">
        <ele>171</ele>
        <time>2020-10-03T08:33:46.000Z</time>
      </trkpt>
      <trkpt lat="43.61852" lon="1.25847">
        <ele>171</ele>
        <time>2020-10-03T08:33:47.000Z</time>
      </trkpt>
      <trkpt lat="43.61851" lon="1.25843">
        <ele>171</ele>
        <time>2020-10-03T08:33:48.000Z</time>
      </trkpt>
      <trkpt lat="43.61849" lon="1.2584">
        <ele>171</ele>
        <time>2020-10-03T08:33:49.000Z</time>
      </trkpt>
      <trkpt lat="43.61848" lon="1.25836">
        <ele>171</ele>
        <time>2020-10-03T08:33:50.000Z</time>
      </trkpt>
      <trkpt lat="43.61847" lon="1.25832">
        <ele>171.40707513508</ele>
        <time>2020-10-03T08:33:51.000Z</time>
      </trkpt>
      <trkpt lat="43.61846" lon="1.25829">
        <ele>172</ele>
        <time>2020-10-03T08:33:52.000Z</time>
      </trkpt>
      <trkpt lat="43.61845" lon="1.25825">
        <ele>172</ele>
        <time>2020-10-03T08:33:53.000Z</time>
      </trkpt>
      <trkpt lat="43.61844" lon="1.25821">
        <ele>171.55555239504</ele>
        <time>2020-10-03T08:33:54.000Z</time>
      </trkpt>
      <trkpt lat="43.61842" lon="1.25817">
        <ele>171</ele>
        <time>2020-10-03T08:33:55.000Z</time>
      </trkpt>
      <trkpt lat="43.61841" lon="1.25814">
        <ele>170.69412402494</ele>
        <time>2020-10-03T08:33:56.000Z</time>
      </trkpt>
      <trkpt lat="43.6184" lon="1.2581">
        <ele>170</ele>
        <time>2020-10-03T08:33:57.000Z</time>
      </trkpt>
      <trkpt lat="43.61839" lon="1.25807">
        <ele>170</ele>
        <time>2020-10-03T08:33:58.000Z</time>
      </trkpt>
      <trkpt lat="43.61838" lon="1.25803">
        <ele>170</ele>
        <time>2020-10-03T08:33:59.000Z</time>
      </trkpt>
      <trkpt lat="43.61837" lon="1.25799">
        <ele>170</ele>
        <time>2020-10-03T08:34:00.000Z</time>
      </trkpt>
      <trkpt lat="43.61837" lon="1.25795">
        <ele>170.46666504127</ele>
        <time>2020-10-03T08:34:01.000Z</time>
      </trkpt>
      <trkpt lat="43.61836" lon="1.25791">
        <ele>171</ele>
        <time>2020-10-03T08:34:02.000Z</time>
      </trkpt>
      <trkpt lat="43.61836" lon="1.25787">
        <ele>171</ele>
        <time>2020-10-03T08:34:03.000Z</time>
      </trkpt>
      <trkpt lat="43.61835" lon="1.25783">
        <ele>171</ele>
        <time>2020-10-03T08:34:04.000Z</time>
      </trkpt>
      <trkpt lat="43.61835" lon="1.25779">
        <ele>171</ele>
        <time>2020-10-03T08:34:05.000Z</time>
      </trkpt>
      <trkpt lat="43.61834" lon="1.25775">
        <ele>171</ele>
        <time>2020-10-03T08:34:06.000Z</time>
      </trkpt>
      <trkpt lat="43.61835" lon="1.25771">
        <ele>171</ele>
        <time>2020-10-03T08:34:07.000Z</time>
      </trkpt>
      <trkpt lat="43.61836" lon="1.25767">
        <ele>171</ele>
        <time>2020-10-03T08:34:08.000Z</time>
      </trkpt>
      <trkpt lat="43.61838" lon="1.25763">
        <ele>171</ele>
        <time>2020-10-03T08:34:09.000Z</time>
      </trkpt>
      <trkpt lat="43.61839" lon="1.25761">
        <ele>171</ele>
        <time>2020-10-03T08:34:10.000Z</time>
      </trkpt>
      <trkpt lat="43.61841" lon="1.25758">
        <ele>171</ele>
        <time>2020-10-03T08:34:11.000Z</time>
      </trkpt>
      <trkpt lat="43.61843" lon="1.25756">
        <ele>171.40708185134</ele>
        <time>2020-10-03T08:34:12.000Z</time>
      </trkpt>
      <trkpt lat="43.61845" lon="1.25755">
        <ele>172</ele>
        <time>2020-10-03T08:34:13.000Z</time>
      </trkpt>
      <trkpt lat="43.61847" lon="1.25754">
        <ele>172</ele>
        <time>2020-10-03T08:34:14.000Z</time>
      </trkpt>
      <trkpt lat="43.61849" lon="1.25753">
        <ele>172</ele>
        <time>2020-10-03T08:34:15.000Z</time>
      </trkpt>
      <trkpt lat="43.61852" lon="1.25751">
        <ele>172</ele>
        <time>2020-10-03T08:34:16.000Z</time>
      </trkpt>
      <trkpt lat="43.61854" lon="1.2575">
        <ele>172</ele>
        <time>2020-10-03T08:34:17.000Z</time>
      </trkpt>
      <trkpt lat="43.61856" lon="1.25749">
        <ele>172</ele>
        <time>2020-10-03T08:34:18.000Z</time>
      </trkpt>
      <trkpt lat="43.61859" lon="1.25748">
        <ele>172</ele>
        <time>2020-10-03T08:34:19.000Z</time>
      </trkpt>
      <trkpt lat="43.61861" lon="1.25747">
        <ele>172</ele>
        <time>2020-10-03T08:34:20.000Z</time>
      </trkpt>
      <trkpt lat="43.61863" lon="1.25745">
        <ele>172</ele>
        <time>2020-10-03T08:34:21.000Z</time>
      </trkpt>
      <trkpt lat="43.61865" lon="1.25743">
        <ele>172.41379310345</ele>
        <time>2020-10-03T08:34:22.000Z</time>
      </trkpt>
      <trkpt lat="43.61868" lon="1.2574">
        <ele>173</ele>
        <time>2020-10-03T08:34:23.000Z</time>
      </trkpt>
      <trkpt lat="43.6187" lon="1.25738">
        <ele>173</ele>
        <time>2020-10-03T08:34:24.000Z</time>
      </trkpt>
      <trkpt lat="43.61871" lon="1.25736">
        <ele>173</ele>
        <time>2020-10-03T08:34:25.000Z</time>
      </trkpt>
      <trkpt lat="43.61873" lon="1.25734">
        <ele>173</ele>
        <time>2020-10-03T08:34:26.000Z</time>
      </trkpt>
      <trkpt lat="43.61875" lon="1.25731">
        <ele>173</ele>
        <time>2020-10-03T08:34:27.000Z</time>
      </trkpt>
      <trkpt lat="43.61877" lon="1.25729">
        <ele>173.36521487484</ele>
        <time>2020-10-03T08:34:28.000Z</time>
      </trkpt>
      <trkpt lat="43.61879" lon="1.25726">
        <ele>174</ele>
        <time>2020-10-03T08:34:29.000Z</time>
      </trkpt>
      <trkpt lat="43.61881" lon="1.25723">
        <ele>174</ele>
        <time>2020-10-03T08:34:30.000Z</time>
      </trkpt>
      <trkpt lat="43.61883" lon="1.2572">
        <ele>174</ele>
        <time>2020-10-03T08:34:31.000Z</time>
      </trkpt>
      <trkpt lat="43.61885" lon="1.25717">
        <ele>174</ele>
        <time>2020-10-03T08:34:32.000Z</time>
      </trkpt>
      <trkpt lat="43.61887" lon="1.25715">
        <ele>174</ele>
        <time>2020-10-03T08:34:33.000Z</time>
      </trkpt>
      <trkpt lat="43.6189" lon="1.25712">
        <ele>174</ele>
        <time>2020-10-03T08:34:34.000Z</time>
      </trkpt>
      <trkpt lat="43.61891" lon="1.2571">
        <ele>174</ele>
        <time>2020-10-03T08:34:35.000Z</time>
      </trkpt>
      <trkpt lat="43.61893" lon="1.25707">
        <ele>174</ele>
        <time>2020-10-03T08:34:36.000Z</time>
      </trkpt>
      <trkpt lat="43.61895" lon="1.25705">
        <ele>174</ele>
        <time>2020-10-03T08:34:37.000Z</time>
      </trkpt>
      <trkpt lat="43.61897" lon="1.25703">
        <ele>174</ele>
        <time>2020-10-03T08:34:38.000Z</time>
      </trkpt>
      <trkpt lat="43.61899" lon="1.257">
        <ele>174</ele>
        <time>2020-10-03T08:34:39.000Z</time>
      </trkpt>
      <trkpt lat="43.61901" lon="1.25697">
        <ele>174.88494693082</ele>
        <time>2020-10-03T08:34:40.000Z</time>
      </trkpt>
      <trkpt lat="43.61903" lon="1.25696">
        <ele>176</ele>
        <time>2020-10-03T08:34:41.000Z</time>
      </trkpt>
      <trkpt lat="43.61905" lon="1.25694">
        <ele>176</ele>
        <time>2020-10-03T08:34:42.000Z</time>
      </trkpt>
      <trkpt lat="43.61908" lon="1.25692">
        <ele>176</ele>
        <time>2020-10-03T08:34:43.000Z</time>
      </trkpt>
      <trkpt lat="43.6191" lon="1.25691">
        <ele>176</ele>
        <time>2020-10-03T08:34:44.000Z</time>
      </trkpt>
      <trkpt lat="43.61912" lon="1.2569">
        <ele>176</ele>
        <time>2020-10-03T08:34:45.000Z</time>
      </trkpt>
      <trkpt lat="43.61914" lon="1.25688">
        <ele>175.61727848801</ele>
        <time>2020-10-03T08:34:46.000Z</time>
      </trkpt>
      <trkpt lat="43.61917" lon="1.25687">
        <ele>175</ele>
        <time>2020-10-03T08:34:47.000Z</time>
      </trkpt>
      <trkpt lat="43.61919" lon="1.25686">
        <ele>175</ele>
        <time>2020-10-03T08:34:48.000Z</time>
      </trkpt>
      <trkpt lat="43.61922" lon="1.25685">
        <ele>175</ele>
        <time>2020-10-03T08:34:49.000Z</time>
      </trkpt>
      <trkpt lat="43.61924" lon="1.25684">
        <ele>175</ele>
        <time>2020-10-03T08:34:50.000Z</time>
      </trkpt>
      <trkpt lat="43.61927" lon="1.25684">
        <ele>175</ele>
        <time>2020-10-03T08:34:51.000Z</time>
      </trkpt>
      <trkpt lat="43.6193" lon="1.25683">
        <ele>175</ele>
        <time>2020-10-03T08:34:52.000Z</time>
      </trkpt>
      <trkpt lat="43.61932" lon="1.25682">
        <ele>175.41176382008</ele>
        <time>2020-10-03T08:34:53.000Z</time>
      </trkpt>
      <trkpt lat="43.61935" lon="1.25681">
        <ele>176</ele>
        <time>2020-10-03T08:34:54.000Z</time>
      </trkpt>
      <trkpt lat="43.61937" lon="1.25679">
        <ele>176</ele>
        <time>2020-10-03T08:34:55.000Z</time>
      </trkpt>
      <trkpt lat="43.61939" lon="1.25678">
        <ele>176</ele>
        <time>2020-10-03T08:34:56.000Z</time>
      </trkpt>
      <trkpt lat="43.61942" lon="1.25677">
        <ele>176</ele>
        <time>2020-10-03T08:34:57.000Z</time>
      </trkpt>
      <trkpt lat="43.61944" lon="1.25675">
        <ele>176</ele>
        <time>2020-10-03T08:34:58.000Z</time>
      </trkpt>
      <trkpt lat="43.61947" lon="1.25674">
        <ele>176</ele>
        <time>2020-10-03T08:34:59.000Z</time>
      </trkpt>
      <trkpt lat="43.61949" lon="1.25673">
        <ele>176</ele>
        <time>2020-10-03T08:35:00.000Z</time>
      </trkpt>
      <trkpt lat="43.61951" lon="1.25672">
        <ele>176</ele>
        <time>2020-10-03T08:35:01.000Z</time>
      </trkpt>
      <trkpt lat="43.61953" lon="1.2567">
        <ele>176</ele>
        <time>2020-10-03T08:35:02.000Z</time>
      </trkpt>
      <trkpt lat="43.61956" lon="1.25669">
        <ele>176</ele>
        <time>2020-10-03T08:35:03.000Z</time>
      </trkpt>
      <trkpt lat="43.61958" lon="1.25668">
        <ele>176</ele>
        <time>2020-10-03T08:35:04.000Z</time>
      </trkpt>
      <trkpt lat="43.61961" lon="1.25667">
        <ele>176</ele>
        <time>2020-10-03T08:35:05.000Z</time>
      </trkpt>
      <trkpt lat="43.61964" lon="1.25666">
        <ele>176</ele>
        <time>2020-10-03T08:35:06.000Z</time>
      </trkpt>
      <trkpt lat="43.61966" lon="1.25665">
        <ele>176</ele>
        <time>2020-10-03T08:35:07.000Z</time>
      </trkpt>
      <trkpt lat="43.61969" lon="1.25664">
        <ele>176</ele>
        <time>2020-10-03T08:35:08.000Z</time>
      </trkpt>
      <trkpt lat="43.61972" lon="1.25663">
        <ele>176</ele>
        <time>2020-10-03T08:35:09.000Z</time>
      </trkpt>
      <trkpt lat="43.61976" lon="1.25663">
        <ele>176</ele>
        <time>2020-10-03T08:35:10.000Z</time>
      </trkpt>
      <trkpt lat="43.61979" lon="1.25662">
        <ele>176</ele>
        <time>2020-10-03T08:35:11.000Z</time>
      </trkpt>
      <trkpt lat="43.61981" lon="1.25661">
        <ele>176</ele>
        <time>2020-10-03T08:35:12.000Z</time>
      </trkpt>
      <trkpt lat="43.61984" lon="1.25661">
        <ele>176</ele>
        <time>2020-10-03T08:35:13.000Z</time>
      </trkpt>
      <trkpt lat="43.61986" lon="1.2566">
        <ele>176</ele>
        <time>2020-10-03T08:35:14.000Z</time>
      </trkpt>
      <trkpt lat="43.61989" lon="1.2566">
        <ele>176</ele>
        <time>2020-10-03T08:35:15.000Z</time>
      </trkpt>
      <trkpt lat="43.61992" lon="1.25659">
        <ele>176</ele>
        <time>2020-10-03T08:35:16.000Z</time>
      </trkpt>
      <trkpt lat="43.61994" lon="1.25659">
        <ele>176.32222095802</ele>
        <time>2020-10-03T08:35:17.000Z</time>
      </trkpt>
      <trkpt lat="43.61997" lon="1.25659">
        <ele>177</ele>
        <time>2020-10-03T08:35:18.000Z</time>
      </trkpt>
      <trkpt lat="43.62" lon="1.25659">
        <ele>177</ele>
        <time>2020-10-03T08:35:19.000Z</time>
      </trkpt>
      <trkpt lat="43.62002" lon="1.25659">
        <ele>177.36035932149</ele>
        <time>2020-10-03T08:35:20.000Z</time>
      </trkpt>
      <trkpt lat="43.62005" lon="1.25658">
        <ele>178</ele>
        <time>2020-10-03T08:35:21.000Z</time>
      </trkpt>
      <trkpt lat="43.62007" lon="1.25658">
        <ele>178</ele>
        <time>2020-10-03T08:35:22.000Z</time>
      </trkpt>
      <trkpt lat="43.6201" lon="1.25657">
        <ele>178</ele>
        <time>2020-10-03T08:35:23.000Z</time>
      </trkpt>
      <trkpt lat="43.62012" lon="1.25656">
        <ele>178</ele>
        <time>2020-10-03T08:35:24.000Z</time>
      </trkpt>
      <trkpt lat="43.62015" lon="1.25656">
        <ele>178</ele>
        <time>2020-10-03T08:35:25.000Z</time>
      </trkpt>
      <trkpt lat="43.62018" lon="1.25655">
        <ele>178</ele>
        <time>2020-10-03T08:35:26.000Z</time>
      </trkpt>
      <trkpt lat="43.62021" lon="1.25655">
        <ele>178</ele>
        <time>2020-10-03T08:35:27.000Z</time>
      </trkpt>
      <trkpt lat="43.62024" lon="1.25655">
        <ele>178</ele>
        <time>2020-10-03T08:35:28.000Z</time>
      </trkpt>
      <trkpt lat="43.62027" lon="1.25655">
        <ele>178</ele>
        <time>2020-10-03T08:35:29.000Z</time>
      </trkpt>
      <trkpt lat="43.6203" lon="1.25654">
        <ele>178</ele>
        <time>2020-10-03T08:35:30.000Z</time>
      </trkpt>
      <trkpt lat="43.62033" lon="1.25654">
        <ele>178</ele>
        <time>2020-10-03T08:35:31.000Z</time>
      </trkpt>
      <trkpt lat="43.62035" lon="1.25655">
        <ele>178</ele>
        <time>2020-10-03T08:35:32.000Z</time>
      </trkpt>
      <trkpt lat="43.62038" lon="1.25655">
        <ele>178</ele>
        <time>2020-10-03T08:35:33.000Z</time>
      </trkpt>
      <trkpt lat="43.62041" lon="1.25655">
        <ele>178</ele>
        <time>2020-10-03T08:35:34.000Z</time>
      </trkpt>
      <trkpt lat="43.62043" lon="1.25656">
        <ele>178</ele>
        <time>2020-10-03T08:35:35.000Z</time>
      </trkpt>
      <trkpt lat="43.62046" lon="1.25656">
        <ele>178</ele>
        <time>2020-10-03T08:35:36.000Z</time>
      </trkpt>
      <trkpt lat="43.62049" lon="1.25656">
        <ele>178</ele>
        <time>2020-10-03T08:35:37.000Z</time>
      </trkpt>
      <trkpt lat="43.62052" lon="1.25656">
        <ele>178</ele>
        <time>2020-10-03T08:35:38.000Z</time>
      </trkpt>
      <trkpt lat="43.62055" lon="1.25657">
        <ele>178</ele>
        <time>2020-10-03T08:35:39.000Z</time>
      </trkpt>
      <trkpt lat="43.62058" lon="1.25657">
        <ele>178</ele>
        <time>2020-10-03T08:35:40.000Z</time>
      </trkpt>
      <trkpt lat="43.62061" lon="1.25657">
        <ele>178</ele>
        <time>2020-10-03T08:35:41.000Z</time>
      </trkpt>
      <trkpt lat="43.62064" lon="1.25657">
        <ele>178</ele>
        <time>2020-10-03T08:35:42.000Z</time>
      </trkpt>
      <trkpt lat="43.62067" lon="1.25657">
        <ele>178</ele>
        <time>2020-10-03T08:35:43.000Z</time>
      </trkpt>
      <trkpt lat="43.6207" lon="1.25658">
        <ele>178</ele>
        <time>2020-10-03T08:35:44.000Z</time>
      </trkpt>
      <trkpt lat="43.62072" lon="1.25658">
        <ele>178</ele>
        <time>2020-10-03T08:35:45.000Z</time>
      </trkpt>
      <trkpt lat="43.62075" lon="1.25658">
        <ele>178</ele>
        <time>2020-10-03T08:35:46.000Z</time>
      </trkpt>
      <trkpt lat="43.62077" lon="1.25659">
        <ele>178</ele>
        <time>2020-10-03T08:35:47.000Z</time>
      </trkpt>
      <trkpt lat="43.6208" lon="1.2566">
        <ele>178</ele>
        <time>2020-10-03T08:35:48.000Z</time>
      </trkpt>
      <trkpt lat="43.62083" lon="1.2566">
        <ele>178</ele>
        <time>2020-10-03T08:35:49.000Z</time>
      </trkpt>
      <trkpt lat="43.62087" lon="1.2566">
        <ele>178.36363424795</ele>
        <time>2020-10-03T08:35:50.000Z</time>
      </trkpt>
      <trkpt lat="43.62089" lon="1.25661">
        <ele>179</ele>
        <time>2020-10-03T08:35:51.000Z</time>
      </trkpt>
      <trkpt lat="43.62092" lon="1.25661">
        <ele>179</ele>
        <time>2020-10-03T08:35:52.000Z</time>
      </trkpt>
      <trkpt lat="43.62095" lon="1.25661">
        <ele>179.41860153599</ele>
        <time>2020-10-03T08:35:53.000Z</time>
      </trkpt>
      <trkpt lat="43.62097" lon="1.25661">
        <ele>180</ele>
        <time>2020-10-03T08:35:54.000Z</time>
      </trkpt>
      <trkpt lat="43.62101" lon="1.25662">
        <ele>180</ele>
        <time>2020-10-03T08:35:55.000Z</time>
      </trkpt>
      <trkpt lat="43.62103" lon="1.25662">
        <ele>180</ele>
        <time>2020-10-03T08:35:56.000Z</time>
      </trkpt>
      <trkpt lat="43.62106" lon="1.25662">
        <ele>180</ele>
        <time>2020-10-03T08:35:57.000Z</time>
      </trkpt>
      <trkpt lat="43.62109" lon="1.25662">
        <ele>180</ele>
        <time>2020-10-03T08:35:58.000Z</time>
      </trkpt>
      <trkpt lat="43.62112" lon="1.25661">
        <ele>180</ele>
        <time>2020-10-03T08:35:59.000Z</time>
      </trkpt>
      <trkpt lat="43.62114" lon="1.25662">
        <ele>180.08434087965</ele>
        <time>2020-10-03T08:36:00.000Z</time>
      </trkpt>
      <trkpt lat="43.62117" lon="1.25662">
        <ele>181</ele>
        <time>2020-10-03T08:36:01.000Z</time>
      </trkpt>
      <trkpt lat="43.6212" lon="1.25662">
        <ele>181</ele>
        <time>2020-10-03T08:36:02.000Z</time>
      </trkpt>
      <trkpt lat="43.62123" lon="1.25662">
        <ele>181</ele>
        <time>2020-10-03T08:36:03.000Z</time>
      </trkpt>
      <trkpt lat="43.62126" lon="1.25662">
        <ele>181</ele>
        <time>2020-10-03T08:36:04.000Z</time>
      </trkpt>
      <trkpt lat="43.62129" lon="1.25661">
        <ele>181</ele>
        <time>2020-10-03T08:36:05.000Z</time>
      </trkpt>
      <trkpt lat="43.62132" lon="1.25661">
        <ele>181</ele>
        <time>2020-10-03T08:36:06.000Z</time>
      </trkpt>
      <trkpt lat="43.62135" lon="1.25661">
        <ele>181</ele>
        <time>2020-10-03T08:36:07.000Z</time>
      </trkpt>
      <trkpt lat="43.62137" lon="1.2566">
        <ele>181</ele>
        <time>2020-10-03T08:36:08.000Z</time>
      </trkpt>
      <trkpt lat="43.6214" lon="1.2566">
        <ele>181</ele>
        <time>2020-10-03T08:36:09.000Z</time>
      </trkpt>
      <trkpt lat="43.62143" lon="1.2566">
        <ele>181</ele>
        <time>2020-10-03T08:36:10.000Z</time>
      </trkpt>
      <trkpt lat="43.62146" lon="1.2566">
        <ele>181</ele>
        <time>2020-10-03T08:36:11.000Z</time>
      </trkpt>
      <trkpt lat="43.62149" lon="1.25661">
        <ele>181</ele>
        <time>2020-10-03T08:36:12.000Z</time>
      </trkpt>
      <trkpt lat="43.62152" lon="1.25661">
        <ele>181</ele>
        <time>2020-10-03T08:36:13.000Z</time>
      </trkpt>
      <trkpt lat="43.62154" lon="1.25661">
        <ele>181</ele>
        <time>2020-10-03T08:36:14.000Z</time>
      </trkpt>
      <trkpt lat="43.62157" lon="1.25663">
        <ele>181</ele>
        <time>2020-10-03T08:36:15.000Z</time>
      </trkpt>
      <trkpt lat="43.62159" lon="1.25664">
        <ele>181</ele>
        <time>2020-10-03T08:36:16.000Z</time>
      </trkpt>
      <trkpt lat="43.62162" lon="1.25664">
        <ele>181</ele>
        <time>2020-10-03T08:36:17.000Z</time>
      </trkpt>
      <trkpt lat="43.62165" lon="1.25665">
        <ele>181</ele>
        <time>2020-10-03T08:36:18.000Z</time>
      </trkpt>
      <trkpt lat="43.62168" lon="1.25666">
        <ele>181</ele>
        <time>2020-10-03T08:36:19.000Z</time>
      </trkpt>
      <trkpt lat="43.6217" lon="1.25667">
        <ele>181</ele>
        <time>2020-10-03T08:36:20.000Z</time>
      </trkpt>
      <trkpt lat="43.62173" lon="1.25668">
        <ele>181</ele>
        <time>2020-10-03T08:36:21.000Z</time>
      </trkpt>
      <trkpt lat="43.62176" lon="1.25669">
        <ele>181</ele>
        <time>2020-10-03T08:36:22.000Z</time>
      </trkpt>
      <trkpt lat="43.62178" lon="1.2567">
        <ele>181</ele>
        <time>2020-10-03T08:36:23.000Z</time>
      </trkpt>
      <trkpt lat="43.62181" lon="1.25672">
        <ele>181.35632420662</ele>
        <time>2020-10-03T08:36:24.000Z</time>
      </trkpt>
      <trkpt lat="43.62183" lon="1.25675">
        <ele>182</ele>
        <time>2020-10-03T08:36:25.000Z</time>
      </trkpt>
      <trkpt lat="43.62185" lon="1.25677">
        <ele>182</ele>
        <time>2020-10-03T08:36:26.000Z</time>
      </trkpt>
      <trkpt lat="43.62187" lon="1.25681">
        <ele>182</ele>
        <time>2020-10-03T08:36:27.000Z</time>
      </trkpt>
      <trkpt lat="43.62189" lon="1.25683">
        <ele>182</ele>
        <time>2020-10-03T08:36:28.000Z</time>
      </trkpt>
      <trkpt lat="43.62191" lon="1.25686">
        <ele>182</ele>
        <time>2020-10-03T08:36:29.000Z</time>
      </trkpt>
      <trkpt lat="43.62194" lon="1.25688">
        <ele>182</ele>
        <time>2020-10-03T08:36:30.000Z</time>
      </trkpt>
      <trkpt lat="43.62196" lon="1.25691">
        <ele>182</ele>
        <time>2020-10-03T08:36:31.000Z</time>
      </trkpt>
      <trkpt lat="43.62198" lon="1.25694">
        <ele>182</ele>
        <time>2020-10-03T08:36:32.000Z</time>
      </trkpt>
      <trkpt lat="43.622" lon="1.25697">
        <ele>182</ele>
        <time>2020-10-03T08:36:33.000Z</time>
      </trkpt>
      <trkpt lat="43.62203" lon="1.257">
        <ele>182</ele>
        <time>2020-10-03T08:36:34.000Z</time>
      </trkpt>
      <trkpt lat="43.62204" lon="1.25702">
        <ele>182</ele>
        <time>2020-10-03T08:36:35.000Z</time>
      </trkpt>
      <trkpt lat="43.62206" lon="1.25705">
        <ele>182</ele>
        <time>2020-10-03T08:36:36.000Z</time>
      </trkpt>
      <trkpt lat="43.62207" lon="1.25707">
        <ele>182</ele>
        <time>2020-10-03T08:36:37.000Z</time>
      </trkpt>
      <trkpt lat="43.62209" lon="1.2571">
        <ele>182.20634727132</ele>
        <time>2020-10-03T08:36:38.000Z</time>
      </trkpt>
      <trkpt lat="43.6221" lon="1.25713">
        <ele>183</ele>
        <time>2020-10-03T08:36:39.000Z</time>
      </trkpt>
      <trkpt lat="43.62212" lon="1.25716">
        <ele>183</ele>
        <time>2020-10-03T08:36:40.000Z</time>
      </trkpt>
      <trkpt lat="43.62214" lon="1.25718">
        <ele>183</ele>
        <time>2020-10-03T08:36:41.000Z</time>
      </trkpt>
      <trkpt lat="43.62216" lon="1.25721">
        <ele>183</ele>
        <time>2020-10-03T08:36:42.000Z</time>
      </trkpt>
      <trkpt lat="43.62218" lon="1.25725">
        <ele>183</ele>
        <time>2020-10-03T08:36:43.000Z</time>
      </trkpt>
      <trkpt lat="43.62219" lon="1.25728">
        <ele>183</ele>
        <time>2020-10-03T08:36:44.000Z</time>
      </trkpt>
      <trkpt lat="43.62222" lon="1.25731">
        <ele>183</ele>
        <time>2020-10-03T08:36:45.000Z</time>
      </trkpt>
      <trkpt lat="43.62224" lon="1.25734">
        <ele>183</ele>
        <time>2020-10-03T08:36:46.000Z</time>
      </trkpt>
      <trkpt lat="43.62225" lon="1.25736">
        <ele>183</ele>
        <time>2020-10-03T08:36:47.000Z</time>
      </trkpt>
      <trkpt lat="43.62227" lon="1.25739">
        <ele>183</ele>
        <time>2020-10-03T08:36:48.000Z</time>
      </trkpt>
      <trkpt lat="43.62229" lon="1.25742">
        <ele>183</ele>
        <time>2020-10-03T08:36:49.000Z</time>
      </trkpt>
      <trkpt lat="43.6223" lon="1.25745">
        <ele>183</ele>
        <time>2020-10-03T08:36:50.000Z</time>
      </trkpt>
      <trkpt lat="43.62231" lon="1.25748">
        <ele>183</ele>
        <time>2020-10-03T08:36:51.000Z</time>
      </trkpt>
      <trkpt lat="43.62232" lon="1.2575">
        <ele>183</ele>
        <time>2020-10-03T08:36:52.000Z</time>
      </trkpt>
      <trkpt lat="43.62233" lon="1.25753">
        <ele>183</ele>
        <time>2020-10-03T08:36:53.000Z</time>
      </trkpt>
      <trkpt lat="43.62234" lon="1.25756">
        <ele>183</ele>
        <time>2020-10-03T08:36:54.000Z</time>
      </trkpt>
      <trkpt lat="43.62235" lon="1.25759">
        <ele>183</ele>
        <time>2020-10-03T08:36:55.000Z</time>
      </trkpt>
      <trkpt lat="43.62236" lon="1.25762">
        <ele>183</ele>
        <time>2020-10-03T08:36:56.000Z</time>
      </trkpt>
      <trkpt lat="43.62238" lon="1.25764">
        <ele>183</ele>
        <time>2020-10-03T08:36:57.000Z</time>
      </trkpt>
      <trkpt lat="43.62239" lon="1.25768">
        <ele>183</ele>
        <time>2020-10-03T08:36:58.000Z</time>
      </trkpt>
      <trkpt lat="43.62241" lon="1.25772">
        <ele>183</ele>
        <time>2020-10-03T08:36:59.000Z</time>
      </trkpt>
      <trkpt lat="43.62242" lon="1.25776">
        <ele>183</ele>
        <time>2020-10-03T08:37:00.000Z</time>
      </trkpt>
      <trkpt lat="43.62244" lon="1.25779">
        <ele>183</ele>
        <time>2020-10-03T08:37:01.000Z</time>
      </trkpt>
      <trkpt lat="43.62246" lon="1.25782">
        <ele>183</ele>
        <time>2020-10-03T08:37:02.000Z</time>
      </trkpt>
      <trkpt lat="43.62247" lon="1.25786">
        <ele>183</ele>
        <time>2020-10-03T08:37:03.000Z</time>
      </trkpt>
      <trkpt lat="43.62249" lon="1.2579">
        <ele>183</ele>
        <time>2020-10-03T08:37:04.000Z</time>
      </trkpt>
      <trkpt lat="43.6225" lon="1.25794">
        <ele>183</ele>
        <time>2020-10-03T08:37:05.000Z</time>
      </trkpt>
      <trkpt lat="43.62251" lon="1.25797">
        <ele>183</ele>
        <time>2020-10-03T08:37:06.000Z</time>
      </trkpt>
      <trkpt lat="43.62253" lon="1.25801">
        <ele>183</ele>
        <time>2020-10-03T08:37:07.000Z</time>
      </trkpt>
      <trkpt lat="43.62254" lon="1.25804">
        <ele>183</ele>
        <time>2020-10-03T08:37:08.000Z</time>
      </trkpt>
      <trkpt lat="43.62256" lon="1.25808">
        <ele>183.24285479182</ele>
        <time>2020-10-03T08:37:09.000Z</time>
      </trkpt>
      <trkpt lat="43.62257" lon="1.25812">
        <ele>184</ele>
        <time>2020-10-03T08:37:10.000Z</time>
      </trkpt>
      <trkpt lat="43.62258" lon="1.25815">
        <ele>184</ele>
        <time>2020-10-03T08:37:11.000Z</time>
      </trkpt>
      <trkpt lat="43.62259" lon="1.25819">
        <ele>184</ele>
        <time>2020-10-03T08:37:12.000Z</time>
      </trkpt>
      <trkpt lat="43.6226" lon="1.25822">
        <ele>184</ele>
        <time>2020-10-03T08:37:13.000Z</time>
      </trkpt>
      <trkpt lat="43.62261" lon="1.25826">
        <ele>184</ele>
        <time>2020-10-03T08:37:14.000Z</time>
      </trkpt>
      <trkpt lat="43.62262" lon="1.25829">
        <ele>184</ele>
        <time>2020-10-03T08:37:15.000Z</time>
      </trkpt>
      <trkpt lat="43.62264" lon="1.25836">
        <ele>185</ele>
        <time>2020-10-03T08:37:17.000Z</time>
      </trkpt>
      <trkpt lat="43.62265" lon="1.2584">
        <ele>185</ele>
        <time>2020-10-03T08:37:18.000Z</time>
      </trkpt>
      <trkpt lat="43.62266" lon="1.25843">
        <ele>185</ele>
        <time>2020-10-03T08:37:19.000Z</time>
      </trkpt>
      <trkpt lat="43.62267" lon="1.25847">
        <ele>184.65516632583</ele>
        <time>2020-10-03T08:37:20.000Z</time>
      </trkpt>
      <trkpt lat="43.62268" lon="1.2585">
        <ele>184</ele>
        <time>2020-10-03T08:37:21.000Z</time>
      </trkpt>
      <trkpt lat="43.62269" lon="1.25853">
        <ele>184</ele>
        <time>2020-10-03T08:37:22.000Z</time>
      </trkpt>
      <trkpt lat="43.6227" lon="1.25856">
        <ele>184.41817843304</ele>
        <time>2020-10-03T08:37:23.000Z</time>
      </trkpt>
      <trkpt lat="43.6227" lon="1.25858">
        <ele>185</ele>
        <time>2020-10-03T08:37:24.000Z</time>
      </trkpt>
      <trkpt lat="43.62271" lon="1.25861">
        <ele>185</ele>
        <time>2020-10-03T08:37:25.000Z</time>
      </trkpt>
      <trkpt lat="43.62273" lon="1.25865">
        <ele>185.72726849589</ele>
        <time>2020-10-03T08:37:26.000Z</time>
      </trkpt>
      <trkpt lat="43.62274" lon="1.25868">
        <ele>187</ele>
        <time>2020-10-03T08:37:27.000Z</time>
      </trkpt>
      <trkpt lat="43.62275" lon="1.25871">
        <ele>187</ele>
        <time>2020-10-03T08:37:28.000Z</time>
      </trkpt>
      <trkpt lat="43.62276" lon="1.25875">
        <ele>187</ele>
        <time>2020-10-03T08:37:29.000Z</time>
      </trkpt>
      <trkpt lat="43.62277" lon="1.25878">
        <ele>187</ele>
        <time>2020-10-03T08:37:30.000Z</time>
      </trkpt>
      <trkpt lat="43.62278" lon="1.25882">
        <ele>187</ele>
        <time>2020-10-03T08:37:31.000Z</time>
      </trkpt>
      <trkpt lat="43.6228" lon="1.25885">
        <ele>187</ele>
        <time>2020-10-03T08:37:32.000Z</time>
      </trkpt>
      <trkpt lat="43.62282" lon="1.25888">
        <ele>187</ele>
        <time>2020-10-03T08:37:33.000Z</time>
      </trkpt>
      <trkpt lat="43.62284" lon="1.25891">
        <ele>187</ele>
        <time>2020-10-03T08:37:34.000Z</time>
      </trkpt>
      <trkpt lat="43.62286" lon="1.25893">
        <ele>187</ele>
        <time>2020-10-03T08:37:35.000Z</time>
      </trkpt>
      <trkpt lat="43.62288" lon="1.25896">
        <ele>187</ele>
        <time>2020-10-03T08:37:36.000Z</time>
      </trkpt>
      <trkpt lat="43.6229" lon="1.25898">
        <ele>187</ele>
        <time>2020-10-03T08:37:37.000Z</time>
      </trkpt>
      <trkpt lat="43.62292" lon="1.259">
        <ele>187</ele>
        <time>2020-10-03T08:37:38.000Z</time>
      </trkpt>
      <trkpt lat="43.62294" lon="1.25902">
        <ele>187</ele>
        <time>2020-10-03T08:37:39.000Z</time>
      </trkpt>
      <trkpt lat="43.62296" lon="1.25904">
        <ele>187</ele>
        <time>2020-10-03T08:37:40.000Z</time>
      </trkpt>
      <trkpt lat="43.62298" lon="1.25906">
        <ele>187.39535333691</ele>
        <time>2020-10-03T08:37:41.000Z</time>
      </trkpt>
      <trkpt lat="43.623" lon="1.25907">
        <ele>188</ele>
        <time>2020-10-03T08:37:42.000Z</time>
      </trkpt>
      <trkpt lat="43.62302" lon="1.25908">
        <ele>188</ele>
        <time>2020-10-03T08:37:43.000Z</time>
      </trkpt>
      <trkpt lat="43.62304" lon="1.25909">
        <ele>188</ele>
        <time>2020-10-03T08:37:44.000Z</time>
      </trkpt>
      <trkpt lat="43.62307" lon="1.25909">
        <ele>188</ele>
        <time>2020-10-03T08:37:45.000Z</time>
      </trkpt>
      <trkpt lat="43.62309" lon="1.2591">
        <ele>188</ele>
        <time>2020-10-03T08:37:46.000Z</time>
      </trkpt>
      <trkpt lat="43.62312" lon="1.25911">
        <ele>188</ele>
        <time>2020-10-03T08:37:47.000Z</time>
      </trkpt>
      <trkpt lat="43.62314" lon="1.25912">
        <ele>188</ele>
        <time>2020-10-03T08:37:48.000Z</time>
      </trkpt>
      <trkpt lat="43.62316" lon="1.25913">
        <ele>188</ele>
        <time>2020-10-03T08:37:49.000Z</time>
      </trkpt>
      <trkpt lat="43.62319" lon="1.25914">
        <ele>188</ele>
        <time>2020-10-03T08:37:50.000Z</time>
      </trkpt>
      <trkpt lat="43.62322" lon="1.25914">
        <ele>188</ele>
        <time>2020-10-03T08:37:51.000Z</time>
      </trkpt>
      <trkpt lat="43.62324" lon="1.25915">
        <ele>188</ele>
        <time>2020-10-03T08:37:52.000Z</time>
      </trkpt>
      <trkpt lat="43.62327" lon="1.25915">
        <ele>188</ele>
        <time>2020-10-03T08:37:53.000Z</time>
      </trkpt>
      <trkpt lat="43.6233" lon="1.25916">
        <ele>188</ele>
        <time>2020-10-03T08:37:54.000Z</time>
      </trkpt>
      <trkpt lat="43.62332" lon="1.25917">
        <ele>188</ele>
        <time>2020-10-03T08:37:55.000Z</time>
      </trkpt>
      <trkpt lat="43.62335" lon="1.25918">
        <ele>188.41818520329</ele>
        <time>2020-10-03T08:37:56.000Z</time>
      </trkpt>
      <trkpt lat="43.62339" lon="1.25919">
        <ele>189</ele>
        <time>2020-10-03T08:37:57.000Z</time>
      </trkpt>
      <trkpt lat="43.62341" lon="1.25919">
        <ele>189</ele>
        <time>2020-10-03T08:37:58.000Z</time>
      </trkpt>
      <trkpt lat="43.62344" lon="1.2592">
        <ele>189</ele>
        <time>2020-10-03T08:37:59.000Z</time>
      </trkpt>
      <trkpt lat="43.62347" lon="1.25921">
        <ele>189</ele>
        <time>2020-10-03T08:38:00.000Z</time>
      </trkpt>
      <trkpt lat="43.6235" lon="1.25923">
        <ele>189</ele>
        <time>2020-10-03T08:38:01.000Z</time>
      </trkpt>
      <trkpt lat="43.62353" lon="1.25925">
        <ele>189</ele>
        <time>2020-10-03T08:38:02.000Z</time>
      </trkpt>
      <trkpt lat="43.62356" lon="1.25927">
        <ele>189</ele>
        <time>2020-10-03T08:38:03.000Z</time>
      </trkpt>
      <trkpt lat="43.62358" lon="1.25929">
        <ele>189</ele>
        <time>2020-10-03T08:38:04.000Z</time>
      </trkpt>
      <trkpt lat="43.6236" lon="1.25931">
        <ele>189</ele>
        <time>2020-10-03T08:38:05.000Z</time>
      </trkpt>
      <trkpt lat="43.62362" lon="1.25934">
        <ele>189</ele>
        <time>2020-10-03T08:38:06.000Z</time>
      </trkpt>
      <trkpt lat="43.62365" lon="1.25936">
        <ele>189</ele>
        <time>2020-10-03T08:38:07.000Z</time>
      </trkpt>
      <trkpt lat="43.62367" lon="1.25939">
        <ele>189</ele>
        <time>2020-10-03T08:38:08.000Z</time>
      </trkpt>
      <trkpt lat="43.6237" lon="1.25942">
        <ele>189.41817843304</ele>
        <time>2020-10-03T08:38:09.000Z</time>
      </trkpt>
      <trkpt lat="43.62372" lon="1.25945">
        <ele>190</ele>
        <time>2020-10-03T08:38:10.000Z</time>
      </trkpt>
      <trkpt lat="43.62374" lon="1.25948">
        <ele>190</ele>
        <time>2020-10-03T08:38:11.000Z</time>
      </trkpt>
      <trkpt lat="43.62377" lon="1.25951">
        <ele>190</ele>
        <time>2020-10-03T08:38:12.000Z</time>
      </trkpt>
      <trkpt lat="43.62379" lon="1.25954">
        <ele>190</ele>
        <time>2020-10-03T08:38:13.000Z</time>
      </trkpt>
      <trkpt lat="43.62382" lon="1.25957">
        <ele>190</ele>
        <time>2020-10-03T08:38:14.000Z</time>
      </trkpt>
      <trkpt lat="43.62384" lon="1.2596">
        <ele>190</ele>
        <time>2020-10-03T08:38:15.000Z</time>
      </trkpt>
      <trkpt lat="43.62386" lon="1.25962">
        <ele>189.67816210331</ele>
        <time>2020-10-03T08:38:16.000Z</time>
      </trkpt>
      <trkpt lat="43.62389" lon="1.25965">
        <ele>189</ele>
        <time>2020-10-03T08:38:17.000Z</time>
      </trkpt>
      <trkpt lat="43.62391" lon="1.25967">
        <ele>189</ele>
        <time>2020-10-03T08:38:18.000Z</time>
      </trkpt>
      <trkpt lat="43.62393" lon="1.2597">
        <ele>189</ele>
        <time>2020-10-03T08:38:19.000Z</time>
      </trkpt>
      <trkpt lat="43.62396" lon="1.25972">
        <ele>189</ele>
        <time>2020-10-03T08:38:20.000Z</time>
      </trkpt>
      <trkpt lat="43.62399" lon="1.25974">
        <ele>189</ele>
        <time>2020-10-03T08:38:21.000Z</time>
      </trkpt>
      <trkpt lat="43.62401" lon="1.25976">
        <ele>189</ele>
        <time>2020-10-03T08:38:22.000Z</time>
      </trkpt>
      <trkpt lat="43.62404" lon="1.25977">
        <ele>189</ele>
        <time>2020-10-03T08:38:23.000Z</time>
      </trkpt>
      <trkpt lat="43.62407" lon="1.25979">
        <ele>189</ele>
        <time>2020-10-03T08:38:24.000Z</time>
      </trkpt>
      <trkpt lat="43.62409" lon="1.2598">
        <ele>189</ele>
        <time>2020-10-03T08:38:25.000Z</time>
      </trkpt>
      <trkpt lat="43.62412" lon="1.25981">
        <ele>189</ele>
        <time>2020-10-03T08:38:26.000Z</time>
      </trkpt>
      <trkpt lat="43.62414" lon="1.25982">
        <ele>189</ele>
        <time>2020-10-03T08:38:27.000Z</time>
      </trkpt>
      <trkpt lat="43.62417" lon="1.25984">
        <ele>189</ele>
        <time>2020-10-03T08:38:28.000Z</time>
      </trkpt>
      <trkpt lat="43.62419" lon="1.25985">
        <ele>189</ele>
        <time>2020-10-03T08:38:29.000Z</time>
      </trkpt>
      <trkpt lat="43.62422" lon="1.25986">
        <ele>189</ele>
        <time>2020-10-03T08:38:30.000Z</time>
      </trkpt>
      <trkpt lat="43.62424" lon="1.25987">
        <ele>189</ele>
        <time>2020-10-03T08:38:31.000Z</time>
      </trkpt>
      <trkpt lat="43.62426" lon="1.25988">
        <ele>189</ele>
        <time>2020-10-03T08:38:32.000Z</time>
      </trkpt>
      <trkpt lat="43.62428" lon="1.25989">
        <ele>189.33333739684</ele>
        <time>2020-10-03T08:38:33.000Z</time>
      </trkpt>
      <trkpt lat="43.6243" lon="1.2599">
        <ele>190</ele>
        <time>2020-10-03T08:38:34.000Z</time>
      </trkpt>
      <trkpt lat="43.62433" lon="1.25991">
        <ele>190</ele>
        <time>2020-10-03T08:38:35.000Z</time>
      </trkpt>
      <trkpt lat="43.62436" lon="1.25991">
        <ele>190</ele>
        <time>2020-10-03T08:38:36.000Z</time>
      </trkpt>
      <trkpt lat="43.62438" lon="1.25993">
        <ele>190</ele>
        <time>2020-10-03T08:38:37.000Z</time>
      </trkpt>
      <trkpt lat="43.6244" lon="1.25993">
        <ele>190</ele>
        <time>2020-10-03T08:38:38.000Z</time>
      </trkpt>
      <trkpt lat="43.62443" lon="1.25994">
        <ele>190</ele>
        <time>2020-10-03T08:38:39.000Z</time>
      </trkpt>
      <trkpt lat="43.62445" lon="1.25995">
        <ele>190</ele>
        <time>2020-10-03T08:38:40.000Z</time>
      </trkpt>
      <trkpt lat="43.62448" lon="1.25996">
        <ele>190</ele>
        <time>2020-10-03T08:38:41.000Z</time>
      </trkpt>
      <trkpt lat="43.62451" lon="1.25997">
        <ele>190</ele>
        <time>2020-10-03T08:38:42.000Z</time>
      </trkpt>
      <trkpt lat="43.62454" lon="1.25997">
        <ele>190</ele>
        <time>2020-10-03T08:38:43.000Z</time>
      </trkpt>
      <trkpt lat="43.62456" lon="1.25998">
        <ele>190</ele>
        <time>2020-10-03T08:38:44.000Z</time>
      </trkpt>
      <trkpt lat="43.62459" lon="1.26">
        <ele>190</ele>
        <time>2020-10-03T08:38:45.000Z</time>
      </trkpt>
      <trkpt lat="43.62462" lon="1.26002">
        <ele>190</ele>
        <time>2020-10-03T08:38:46.000Z</time>
      </trkpt>
      <trkpt lat="43.62464" lon="1.26003">
        <ele>190</ele>
        <time>2020-10-03T08:38:47.000Z</time>
      </trkpt>
      <trkpt lat="43.62467" lon="1.26004">
        <ele>190</ele>
        <time>2020-10-03T08:38:48.000Z</time>
      </trkpt>
      <trkpt lat="43.6247" lon="1.26005">
        <ele>190</ele>
        <time>2020-10-03T08:38:49.000Z</time>
      </trkpt>
      <trkpt lat="43.62473" lon="1.26006">
        <ele>190</ele>
        <time>2020-10-03T08:38:50.000Z</time>
      </trkpt>
      <trkpt lat="43.62478" lon="1.26009">
        <ele>190</ele>
        <time>2020-10-03T08:38:52.000Z</time>
      </trkpt>
      <trkpt lat="43.62481" lon="1.26011">
        <ele>190</ele>
        <time>2020-10-03T08:38:53.000Z</time>
      </trkpt>
      <trkpt lat="43.62484" lon="1.26012">
        <ele>190</ele>
        <time>2020-10-03T08:38:54.000Z</time>
      </trkpt>
      <trkpt lat="43.62487" lon="1.26013">
        <ele>190</ele>
        <time>2020-10-03T08:38:55.000Z</time>
      </trkpt>
      <trkpt lat="43.6249" lon="1.26014">
        <ele>190</ele>
        <time>2020-10-03T08:38:56.000Z</time>
      </trkpt>
      <trkpt lat="43.62493" lon="1.26015">
        <ele>190</ele>
        <time>2020-10-03T08:38:57.000Z</time>
      </trkpt>
      <trkpt lat="43.62496" lon="1.26016">
        <ele>190</ele>
        <time>2020-10-03T08:38:58.000Z</time>
      </trkpt>
      <trkpt lat="43.62498" lon="1.26017">
        <ele>190</ele>
        <time>2020-10-03T08:38:59.000Z</time>
      </trkpt>
      <trkpt lat="43.62501" lon="1.26018">
        <ele>190</ele>
        <time>2020-10-03T08:39:00.000Z</time>
      </trkpt>
      <trkpt lat="43.62504" lon="1.26019">
        <ele>190</ele>
        <time>2020-10-03T08:39:01.000Z</time>
      </trkpt>
      <trkpt lat="43.62507" lon="1.26021">
        <ele>190</ele>
        <time>2020-10-03T08:39:02.000Z</time>
      </trkpt>
      <trkpt lat="43.6251" lon="1.26022">
        <ele>190</ele>
        <time>2020-10-03T08:39:03.000Z</time>
      </trkpt>
      <trkpt lat="43.62513" lon="1.26024">
        <ele>190</ele>
        <time>2020-10-03T08:39:04.000Z</time>
      </trkpt>
      <trkpt lat="43.62515" lon="1.26025">
        <ele>190</ele>
        <time>2020-10-03T08:39:05.000Z</time>
      </trkpt>
      <trkpt lat="43.62518" lon="1.26026">
        <ele>190</ele>
        <time>2020-10-03T08:39:06.000Z</time>
      </trkpt>
      <trkpt lat="43.62521" lon="1.26027">
        <ele>190</ele>
        <time>2020-10-03T08:39:07.000Z</time>
      </trkpt>
      <trkpt lat="43.62524" lon="1.26029">
        <ele>190</ele>
        <time>2020-10-03T08:39:08.000Z</time>
      </trkpt>
      <trkpt lat="43.62526" lon="1.2603">
        <ele>190</ele>
        <time>2020-10-03T08:39:09.000Z</time>
      </trkpt>
      <trkpt lat="43.62532" lon="1.26032">
        <ele>190</ele>
        <time>2020-10-03T08:39:11.000Z</time>
      </trkpt>
      <trkpt lat="43.62535" lon="1.26032">
        <ele>190</ele>
        <time>2020-10-03T08:39:12.000Z</time>
      </trkpt>
      <trkpt lat="43.62538" lon="1.26033">
        <ele>190</ele>
        <time>2020-10-03T08:39:13.000Z</time>
      </trkpt>
      <trkpt lat="43.6254" lon="1.26034">
        <ele>190</ele>
        <time>2020-10-03T08:39:14.000Z</time>
      </trkpt>
      <trkpt lat="43.62543" lon="1.26036">
        <ele>190</ele>
        <time>2020-10-03T08:39:15.000Z</time>
      </trkpt>
      <trkpt lat="43.62545" lon="1.26038">
        <ele>190</ele>
        <time>2020-10-03T08:39:16.000Z</time>
      </trkpt>
      <trkpt lat="43.62548" lon="1.26039">
        <ele>190</ele>
        <time>2020-10-03T08:39:17.000Z</time>
      </trkpt>
      <trkpt lat="43.62551" lon="1.2604">
        <ele>190</ele>
        <time>2020-10-03T08:39:18.000Z</time>
      </trkpt>
      <trkpt lat="43.62554" lon="1.26041">
        <ele>190</ele>
        <time>2020-10-03T08:39:19.000Z</time>
      </trkpt>
      <trkpt lat="43.62556" lon="1.26041">
        <ele>190</ele>
        <time>2020-10-03T08:39:20.000Z</time>
      </trkpt>
      <trkpt lat="43.62559" lon="1.26042">
        <ele>190</ele>
        <time>2020-10-03T08:39:21.000Z</time>
      </trkpt>
      <trkpt lat="43.62561" lon="1.26044">
        <ele>190</ele>
        <time>2020-10-03T08:39:22.000Z</time>
      </trkpt>
      <trkpt lat="43.62564" lon="1.26045">
        <ele>190.32608453683</ele>
        <time>2020-10-03T08:39:23.000Z</time>
      </trkpt>
      <trkpt lat="43.62566" lon="1.26046">
        <ele>191</ele>
        <time>2020-10-03T08:39:24.000Z</time>
      </trkpt>
      <trkpt lat="43.62569" lon="1.26048">
        <ele>191</ele>
        <time>2020-10-03T08:39:25.000Z</time>
      </trkpt>
      <trkpt lat="43.62571" lon="1.26049">
        <ele>191</ele>
        <time>2020-10-03T08:39:26.000Z</time>
      </trkpt>
      <trkpt lat="43.62574" lon="1.2605">
        <ele>191</ele>
        <time>2020-10-03T08:39:27.000Z</time>
      </trkpt>
      <trkpt lat="43.62577" lon="1.26051">
        <ele>191</ele>
        <time>2020-10-03T08:39:28.000Z</time>
      </trkpt>
      <trkpt lat="43.62579" lon="1.26052">
        <ele>191</ele>
        <time>2020-10-03T08:39:29.000Z</time>
      </trkpt>
      <trkpt lat="43.62582" lon="1.26053">
        <ele>191</ele>
        <time>2020-10-03T08:39:30.000Z</time>
      </trkpt>
      <trkpt lat="43.62585" lon="1.26055">
        <ele>191</ele>
        <time>2020-10-03T08:39:31.000Z</time>
      </trkpt>
      <trkpt lat="43.62587" lon="1.26056">
        <ele>191</ele>
        <time>2020-10-03T08:39:32.000Z</time>
      </trkpt>
      <trkpt lat="43.62589" lon="1.26057">
        <ele>191</ele>
        <time>2020-10-03T08:39:33.000Z</time>
      </trkpt>
      <trkpt lat="43.62592" lon="1.26058">
        <ele>191</ele>
        <time>2020-10-03T08:39:34.000Z</time>
      </trkpt>
      <trkpt lat="43.62594" lon="1.26059">
        <ele>191</ele>
        <time>2020-10-03T08:39:35.000Z</time>
      </trkpt>
      <trkpt lat="43.62597" lon="1.2606">
        <ele>191</ele>
        <time>2020-10-03T08:39:36.000Z</time>
      </trkpt>
      <trkpt lat="43.626" lon="1.26062">
        <ele>191</ele>
        <time>2020-10-03T08:39:37.000Z</time>
      </trkpt>
      <trkpt lat="43.62603" lon="1.26063">
        <ele>191</ele>
        <time>2020-10-03T08:39:38.000Z</time>
      </trkpt>
      <trkpt lat="43.62606" lon="1.26064">
        <ele>191</ele>
        <time>2020-10-03T08:39:39.000Z</time>
      </trkpt>
      <trkpt lat="43.62609" lon="1.26065">
        <ele>191</ele>
        <time>2020-10-03T08:39:40.000Z</time>
      </trkpt>
      <trkpt lat="43.62611" lon="1.26066">
        <ele>191</ele>
        <time>2020-10-03T08:39:41.000Z</time>
      </trkpt>
      <trkpt lat="43.62614" lon="1.26067">
        <ele>191</ele>
        <time>2020-10-03T08:39:42.000Z</time>
      </trkpt>
      <trkpt lat="43.62617" lon="1.26068">
        <ele>191</ele>
        <time>2020-10-03T08:39:43.000Z</time>
      </trkpt>
      <trkpt lat="43.6262" lon="1.26069">
        <ele>191</ele>
        <time>2020-10-03T08:39:44.000Z</time>
      </trkpt>
      <trkpt lat="43.62623" lon="1.2607">
        <ele>191</ele>
        <time>2020-10-03T08:39:45.000Z</time>
      </trkpt>
      <trkpt lat="43.62626" lon="1.26071">
        <ele>191</ele>
        <time>2020-10-03T08:39:46.000Z</time>
      </trkpt>
      <trkpt lat="43.62628" lon="1.26072">
        <ele>191</ele>
        <time>2020-10-03T08:39:47.000Z</time>
      </trkpt>
      <trkpt lat="43.62631" lon="1.26073">
        <ele>191</ele>
        <time>2020-10-03T08:39:48.000Z</time>
      </trkpt>
      <trkpt lat="43.62634" lon="1.26074">
        <ele>191</ele>
        <time>2020-10-03T08:39:49.000Z</time>
      </trkpt>
      <trkpt lat="43.62637" lon="1.26075">
        <ele>191</ele>
        <time>2020-10-03T08:39:50.000Z</time>
      </trkpt>
      <trkpt lat="43.6264" lon="1.26076">
        <ele>191</ele>
        <time>2020-10-03T08:39:51.000Z</time>
      </trkpt>
      <trkpt lat="43.62642" lon="1.26077">
        <ele>191.32941300485</ele>
        <time>2020-10-03T08:39:52.000Z</time>
      </trkpt>
      <trkpt lat="43.62645" lon="1.26078">
        <ele>192</ele>
        <time>2020-10-03T08:39:53.000Z</time>
      </trkpt>
      <trkpt lat="43.62648" lon="1.26079">
        <ele>192</ele>
        <time>2020-10-03T08:39:54.000Z</time>
      </trkpt>
      <trkpt lat="43.6265" lon="1.26079">
        <ele>192</ele>
        <time>2020-10-03T08:39:55.000Z</time>
      </trkpt>
      <trkpt lat="43.62653" lon="1.2608">
        <ele>192</ele>
        <time>2020-10-03T08:39:56.000Z</time>
      </trkpt>
      <trkpt lat="43.62656" lon="1.26081">
        <ele>192</ele>
        <time>2020-10-03T08:39:57.000Z</time>
      </trkpt>
      <trkpt lat="43.62659" lon="1.26081">
        <ele>192</ele>
        <time>2020-10-03T08:39:58.000Z</time>
      </trkpt>
      <trkpt lat="43.62662" lon="1.26082">
        <ele>191.66292732738</ele>
        <time>2020-10-03T08:39:59.000Z</time>
      </trkpt>
      <trkpt lat="43.62665" lon="1.26083">
        <ele>191</ele>
        <time>2020-10-03T08:40:00.000Z</time>
      </trkpt>
      <trkpt lat="43.62668" lon="1.26083">
        <ele>191</ele>
        <time>2020-10-03T08:40:01.000Z</time>
      </trkpt>
      <trkpt lat="43.62671" lon="1.26083">
        <ele>191</ele>
        <time>2020-10-03T08:40:02.000Z</time>
      </trkpt>
      <trkpt lat="43.62673" lon="1.26083">
        <ele>191</ele>
        <time>2020-10-03T08:40:03.000Z</time>
      </trkpt>
      <trkpt lat="43.62676" lon="1.26083">
        <ele>191</ele>
        <time>2020-10-03T08:40:04.000Z</time>
      </trkpt>
      <trkpt lat="43.62679" lon="1.26084">
        <ele>191</ele>
        <time>2020-10-03T08:40:05.000Z</time>
      </trkpt>
      <trkpt lat="43.62681" lon="1.26084">
        <ele>191</ele>
        <time>2020-10-03T08:40:06.000Z</time>
      </trkpt>
      <trkpt lat="43.62684" lon="1.26084">
        <ele>191</ele>
        <time>2020-10-03T08:40:07.000Z</time>
      </trkpt>
      <trkpt lat="43.62687" lon="1.26084">
        <ele>191</ele>
        <time>2020-10-03T08:40:08.000Z</time>
      </trkpt>
      <trkpt lat="43.6269" lon="1.26084">
        <ele>191</ele>
        <time>2020-10-03T08:40:09.000Z</time>
      </trkpt>
      <trkpt lat="43.62693" lon="1.26084">
        <ele>191</ele>
        <time>2020-10-03T08:40:10.000Z</time>
      </trkpt>
      <trkpt lat="43.62696" lon="1.26084">
        <ele>191</ele>
        <time>2020-10-03T08:40:11.000Z</time>
      </trkpt>
      <trkpt lat="43.62698" lon="1.26084">
        <ele>191</ele>
        <time>2020-10-03T08:40:12.000Z</time>
      </trkpt>
      <trkpt lat="43.62701" lon="1.26084">
        <ele>191</ele>
        <time>2020-10-03T08:40:13.000Z</time>
      </trkpt>
      <trkpt lat="43.62704" lon="1.26084">
        <ele>191</ele>
        <time>2020-10-03T08:40:14.000Z</time>
      </trkpt>
      <trkpt lat="43.62707" lon="1.26084">
        <ele>191</ele>
        <time>2020-10-03T08:40:15.000Z</time>
      </trkpt>
      <trkpt lat="43.6271" lon="1.26084">
        <ele>191</ele>
        <time>2020-10-03T08:40:16.000Z</time>
      </trkpt>
      <trkpt lat="43.62713" lon="1.26084">
        <ele>191</ele>
        <time>2020-10-03T08:40:17.000Z</time>
      </trkpt>
      <trkpt lat="43.62716" lon="1.26084">
        <ele>191</ele>
        <time>2020-10-03T08:40:18.000Z</time>
      </trkpt>
      <trkpt lat="43.62718" lon="1.26085">
        <ele>191</ele>
        <time>2020-10-03T08:40:19.000Z</time>
      </trkpt>
      <trkpt lat="43.62721" lon="1.26085">
        <ele>190.52884923077</ele>
        <time>2020-10-03T08:40:20.000Z</time>
      </trkpt>
      <trkpt lat="43.62724" lon="1.26085">
        <ele>190</ele>
        <time>2020-10-03T08:40:21.000Z</time>
      </trkpt>
      <trkpt lat="43.62727" lon="1.26085">
        <ele>190</ele>
        <time>2020-10-03T08:40:22.000Z</time>
      </trkpt>
      <trkpt lat="43.6273" lon="1.26084">
        <ele>190</ele>
        <time>2020-10-03T08:40:23.000Z</time>
      </trkpt>
      <trkpt lat="43.62733" lon="1.26084">
        <ele>190</ele>
        <time>2020-10-03T08:40:24.000Z</time>
      </trkpt>
      <trkpt lat="43.62736" lon="1.26084">
        <ele>190</ele>
        <time>2020-10-03T08:40:25.000Z</time>
      </trkpt>
      <trkpt lat="43.62738" lon="1.26084">
        <ele>190</ele>
        <time>2020-10-03T08:40:26.000Z</time>
      </trkpt>
      <trkpt lat="43.62741" lon="1.26084">
        <ele>190</ele>
        <time>2020-10-03T08:40:27.000Z</time>
      </trkpt>
      <trkpt lat="43.62744" lon="1.26084">
        <ele>190</ele>
        <time>2020-10-03T08:40:28.000Z</time>
      </trkpt>
      <trkpt lat="43.62747" lon="1.26084">
        <ele>190</ele>
        <time>2020-10-03T08:40:29.000Z</time>
      </trkpt>
      <trkpt lat="43.6275" lon="1.26085">
        <ele>190</ele>
        <time>2020-10-03T08:40:30.000Z</time>
      </trkpt>
      <trkpt lat="43.62752" lon="1.26085">
        <ele>190</ele>
        <time>2020-10-03T08:40:31.000Z</time>
      </trkpt>
      <trkpt lat="43.62755" lon="1.26085">
        <ele>190</ele>
        <time>2020-10-03T08:40:32.000Z</time>
      </trkpt>
      <trkpt lat="43.62758" lon="1.26085">
        <ele>190</ele>
        <time>2020-10-03T08:40:33.000Z</time>
      </trkpt>
      <trkpt lat="43.62761" lon="1.26085">
        <ele>190</ele>
        <time>2020-10-03T08:40:34.000Z</time>
      </trkpt>
      <trkpt lat="43.62764" lon="1.26084">
        <ele>190.39999777389</ele>
        <time>2020-10-03T08:40:35.000Z</time>
      </trkpt>
      <trkpt lat="43.62767" lon="1.26084">
        <ele>191</ele>
        <time>2020-10-03T08:40:36.000Z</time>
      </trkpt>
      <trkpt lat="43.62769" lon="1.26084">
        <ele>191</ele>
        <time>2020-10-03T08:40:37.000Z</time>
      </trkpt>
      <trkpt lat="43.62772" lon="1.26084">
        <ele>191</ele>
        <time>2020-10-03T08:40:38.000Z</time>
      </trkpt>
      <trkpt lat="43.62775" lon="1.26084">
        <ele>191</ele>
        <time>2020-10-03T08:40:39.000Z</time>
      </trkpt>
      <trkpt lat="43.62778" lon="1.26084">
        <ele>191</ele>
        <time>2020-10-03T08:40:40.000Z</time>
      </trkpt>
      <trkpt lat="43.62781" lon="1.26084">
        <ele>191</ele>
        <time>2020-10-03T08:40:41.000Z</time>
      </trkpt>
      <trkpt lat="43.62784" lon="1.26084">
        <ele>191</ele>
        <time>2020-10-03T08:40:42.000Z</time>
      </trkpt>
      <trkpt lat="43.62787" lon="1.26084">
        <ele>191</ele>
        <time>2020-10-03T08:40:43.000Z</time>
      </trkpt>
      <trkpt lat="43.6279" lon="1.26084">
        <ele>191.34058044948</ele>
        <time>2020-10-03T08:40:44.000Z</time>
      </trkpt>
      <trkpt lat="43.62793" lon="1.26084">
        <ele>192</ele>
        <time>2020-10-03T08:40:45.000Z</time>
      </trkpt>
      <trkpt lat="43.62795" lon="1.26083">
        <ele>192</ele>
        <time>2020-10-03T08:40:46.000Z</time>
      </trkpt>
      <trkpt lat="43.62798" lon="1.26083">
        <ele>192</ele>
        <time>2020-10-03T08:40:47.000Z</time>
      </trkpt>
      <trkpt lat="43.62801" lon="1.26083">
        <ele>192</ele>
        <time>2020-10-03T08:40:48.000Z</time>
      </trkpt>
      <trkpt lat="43.62804" lon="1.26083">
        <ele>192</ele>
        <time>2020-10-03T08:40:49.000Z</time>
      </trkpt>
      <trkpt lat="43.62807" lon="1.26083">
        <ele>192</ele>
        <time>2020-10-03T08:40:50.000Z</time>
      </trkpt>
      <trkpt lat="43.6281" lon="1.26083">
        <ele>191.60714666667</ele>
        <time>2020-10-03T08:40:51.000Z</time>
      </trkpt>
      <trkpt lat="43.62813" lon="1.26083">
        <ele>191</ele>
        <time>2020-10-03T08:40:52.000Z</time>
      </trkpt>
      <trkpt lat="43.62816" lon="1.26084">
        <ele>191</ele>
        <time>2020-10-03T08:40:53.000Z</time>
      </trkpt>
      <trkpt lat="43.62818" lon="1.26084">
        <ele>191</ele>
        <time>2020-10-03T08:40:54.000Z</time>
      </trkpt>
      <trkpt lat="43.62821" lon="1.26084">
        <ele>191</ele>
        <time>2020-10-03T08:40:55.000Z</time>
      </trkpt>
      <trkpt lat="43.62824" lon="1.26084">
        <ele>191</ele>
        <time>2020-10-03T08:40:56.000Z</time>
      </trkpt>
      <trkpt lat="43.62827" lon="1.26084">
        <ele>191</ele>
        <time>2020-10-03T08:40:57.000Z</time>
      </trkpt>
      <trkpt lat="43.6283" lon="1.26084">
        <ele>191</ele>
        <time>2020-10-03T08:40:58.000Z</time>
      </trkpt>
      <trkpt lat="43.62833" lon="1.26083">
        <ele>191</ele>
        <time>2020-10-03T08:40:59.000Z</time>
      </trkpt>
      <trkpt lat="43.62836" lon="1.26083">
        <ele>191</ele>
        <time>2020-10-03T08:41:00.000Z</time>
      </trkpt>
      <trkpt lat="43.62838" lon="1.26082">
        <ele>191</ele>
        <time>2020-10-03T08:41:01.000Z</time>
      </trkpt>
      <trkpt lat="43.62841" lon="1.26081">
        <ele>191</ele>
        <time>2020-10-03T08:41:02.000Z</time>
      </trkpt>
      <trkpt lat="43.62844" lon="1.2608">
        <ele>191</ele>
        <time>2020-10-03T08:41:03.000Z</time>
      </trkpt>
      <trkpt lat="43.6285" lon="1.26077">
        <ele>191</ele>
        <time>2020-10-03T08:41:05.000Z</time>
      </trkpt>
      <trkpt lat="43.62852" lon="1.26075">
        <ele>191</ele>
        <time>2020-10-03T08:41:06.000Z</time>
      </trkpt>
      <trkpt lat="43.62855" lon="1.26074">
        <ele>191</ele>
        <time>2020-10-03T08:41:07.000Z</time>
      </trkpt>
      <trkpt lat="43.62857" lon="1.26071">
        <ele>191</ele>
        <time>2020-10-03T08:41:08.000Z</time>
      </trkpt>
      <trkpt lat="43.6286" lon="1.26069">
        <ele>191</ele>
        <time>2020-10-03T08:41:09.000Z</time>
      </trkpt>
      <trkpt lat="43.62862" lon="1.26067">
        <ele>191</ele>
        <time>2020-10-03T08:41:10.000Z</time>
      </trkpt>
      <trkpt lat="43.62864" lon="1.26064">
        <ele>191</ele>
        <time>2020-10-03T08:41:11.000Z</time>
      </trkpt>
      <trkpt lat="43.62866" lon="1.26061">
        <ele>191</ele>
        <time>2020-10-03T08:41:12.000Z</time>
      </trkpt>
      <trkpt lat="43.62868" lon="1.26058">
        <ele>191</ele>
        <time>2020-10-03T08:41:13.000Z</time>
      </trkpt>
      <trkpt lat="43.6287" lon="1.26056">
        <ele>191</ele>
        <time>2020-10-03T08:41:14.000Z</time>
      </trkpt>
      <trkpt lat="43.62872" lon="1.26053">
        <ele>191</ele>
        <time>2020-10-03T08:41:15.000Z</time>
      </trkpt>
      <trkpt lat="43.62874" lon="1.2605">
        <ele>191</ele>
        <time>2020-10-03T08:41:16.000Z</time>
      </trkpt>
      <trkpt lat="43.62875" lon="1.26047">
        <ele>191</ele>
        <time>2020-10-03T08:41:17.000Z</time>
      </trkpt>
      <trkpt lat="43.62877" lon="1.26044">
        <ele>190.93650825901</ele>
        <time>2020-10-03T08:41:18.000Z</time>
      </trkpt>
      <trkpt lat="43.62879" lon="1.26041">
        <ele>190</ele>
        <time>2020-10-03T08:41:19.000Z</time>
      </trkpt>
      <trkpt lat="43.62881" lon="1.26038">
        <ele>190</ele>
        <time>2020-10-03T08:41:20.000Z</time>
      </trkpt>
      <trkpt lat="43.62883" lon="1.26035">
        <ele>190.37272653223</ele>
        <time>2020-10-03T08:41:21.000Z</time>
      </trkpt>
      <trkpt lat="43.62885" lon="1.26032">
        <ele>191</ele>
        <time>2020-10-03T08:41:22.000Z</time>
      </trkpt>
      <trkpt lat="43.62887" lon="1.26029">
        <ele>191</ele>
        <time>2020-10-03T08:41:23.000Z</time>
      </trkpt>
      <trkpt lat="43.62889" lon="1.26027">
        <ele>191</ele>
        <time>2020-10-03T08:41:24.000Z</time>
      </trkpt>
      <trkpt lat="43.62891" lon="1.26025">
        <ele>191</ele>
        <time>2020-10-03T08:41:25.000Z</time>
      </trkpt>
      <trkpt lat="43.62893" lon="1.26022">
        <ele>191</ele>
        <time>2020-10-03T08:41:26.000Z</time>
      </trkpt>
      <trkpt lat="43.62895" lon="1.2602">
        <ele>191</ele>
        <time>2020-10-03T08:41:27.000Z</time>
      </trkpt>
      <trkpt lat="43.62898" lon="1.26019">
        <ele>191</ele>
        <time>2020-10-03T08:41:28.000Z</time>
      </trkpt>
      <trkpt lat="43.62901" lon="1.26018">
        <ele>191</ele>
        <time>2020-10-03T08:41:29.000Z</time>
      </trkpt>
      <trkpt lat="43.62904" lon="1.26017">
        <ele>190.65555444939</ele>
        <time>2020-10-03T08:41:30.000Z</time>
      </trkpt>
      <trkpt lat="43.62907" lon="1.26016">
        <ele>190</ele>
        <time>2020-10-03T08:41:31.000Z</time>
      </trkpt>
      <trkpt lat="43.6291" lon="1.26016">
        <ele>190</ele>
        <time>2020-10-03T08:41:32.000Z</time>
      </trkpt>
      <trkpt lat="43.62912" lon="1.26017">
        <ele>190</ele>
        <time>2020-10-03T08:41:33.000Z</time>
      </trkpt>
      <trkpt lat="43.62915" lon="1.26017">
        <ele>190</ele>
        <time>2020-10-03T08:41:34.000Z</time>
      </trkpt>
      <trkpt lat="43.62918" lon="1.26018">
        <ele>190</ele>
        <time>2020-10-03T08:41:35.000Z</time>
      </trkpt>
      <trkpt lat="43.62921" lon="1.2602">
        <ele>190</ele>
        <time>2020-10-03T08:41:36.000Z</time>
      </trkpt>
      <trkpt lat="43.62923" lon="1.26021">
        <ele>190</ele>
        <time>2020-10-03T08:41:37.000Z</time>
      </trkpt>
      <trkpt lat="43.62926" lon="1.26023">
        <ele>190</ele>
        <time>2020-10-03T08:41:38.000Z</time>
      </trkpt>
      <trkpt lat="43.62928" lon="1.26026">
        <ele>190</ele>
        <time>2020-10-03T08:41:39.000Z</time>
      </trkpt>
      <trkpt lat="43.62931" lon="1.26028">
        <ele>190</ele>
        <time>2020-10-03T08:41:40.000Z</time>
      </trkpt>
      <trkpt lat="43.62933" lon="1.2603">
        <ele>190</ele>
        <time>2020-10-03T08:41:41.000Z</time>
      </trkpt>
      <trkpt lat="43.62936" lon="1.26033">
        <ele>190</ele>
        <time>2020-10-03T08:41:42.000Z</time>
      </trkpt>
      <trkpt lat="43.62938" lon="1.26035">
        <ele>190</ele>
        <time>2020-10-03T08:41:43.000Z</time>
      </trkpt>
      <trkpt lat="43.6294" lon="1.26037">
        <ele>190.80952090699</ele>
        <time>2020-10-03T08:41:44.000Z</time>
      </trkpt>
      <trkpt lat="43.62943" lon="1.2604">
        <ele>192</ele>
        <time>2020-10-03T08:41:45.000Z</time>
      </trkpt>
      <trkpt lat="43.62945" lon="1.26042">
        <ele>192</ele>
        <time>2020-10-03T08:41:46.000Z</time>
      </trkpt>
      <trkpt lat="43.62947" lon="1.26045">
        <ele>192</ele>
        <time>2020-10-03T08:41:47.000Z</time>
      </trkpt>
      <trkpt lat="43.62949" lon="1.26047">
        <ele>192</ele>
        <time>2020-10-03T08:41:48.000Z</time>
      </trkpt>
      <trkpt lat="43.62952" lon="1.26049">
        <ele>191.66292732738</ele>
        <time>2020-10-03T08:41:49.000Z</time>
      </trkpt>
      <trkpt lat="43.62954" lon="1.26052">
        <ele>191</ele>
        <time>2020-10-03T08:41:50.000Z</time>
      </trkpt>
      <trkpt lat="43.62957" lon="1.26054">
        <ele>191</ele>
        <time>2020-10-03T08:41:51.000Z</time>
      </trkpt>
      <trkpt lat="43.62959" lon="1.26056">
        <ele>191</ele>
        <time>2020-10-03T08:41:52.000Z</time>
      </trkpt>
      <trkpt lat="43.62962" lon="1.26059">
        <ele>191</ele>
        <time>2020-10-03T08:41:53.000Z</time>
      </trkpt>
      <trkpt lat="43.62964" lon="1.26061">
        <ele>191</ele>
        <time>2020-10-03T08:41:54.000Z</time>
      </trkpt>
      <trkpt lat="43.62966" lon="1.26063">
        <ele>190.5</ele>
        <time>2020-10-03T08:41:55.000Z</time>
      </trkpt>
      <trkpt lat="43.62968" lon="1.26065">
        <ele>190</ele>
        <time>2020-10-03T08:41:56.000Z</time>
      </trkpt>
      <trkpt lat="43.62971" lon="1.26067">
        <ele>190</ele>
        <time>2020-10-03T08:41:57.000Z</time>
      </trkpt>
      <trkpt lat="43.62973" lon="1.2607">
        <ele>190</ele>
        <time>2020-10-03T08:41:58.000Z</time>
      </trkpt>
      <trkpt lat="43.62975" lon="1.26072">
        <ele>190</ele>
        <time>2020-10-03T08:41:59.000Z</time>
      </trkpt>
      <trkpt lat="43.62978" lon="1.26074">
        <ele>190</ele>
        <time>2020-10-03T08:42:00.000Z</time>
      </trkpt>
      <trkpt lat="43.62983" lon="1.26079">
        <ele>190</ele>
        <time>2020-10-03T08:42:02.000Z</time>
      </trkpt>
      <trkpt lat="43.62985" lon="1.26081">
        <ele>190</ele>
        <time>2020-10-03T08:42:03.000Z</time>
      </trkpt>
      <trkpt lat="43.62988" lon="1.26084">
        <ele>190</ele>
        <time>2020-10-03T08:42:04.000Z</time>
      </trkpt>
      <trkpt lat="43.6299" lon="1.26086">
        <ele>190</ele>
        <time>2020-10-03T08:42:05.000Z</time>
      </trkpt>
      <trkpt lat="43.62993" lon="1.26088">
        <ele>190</ele>
        <time>2020-10-03T08:42:06.000Z</time>
      </trkpt>
      <trkpt lat="43.62995" lon="1.2609">
        <ele>190</ele>
        <time>2020-10-03T08:42:07.000Z</time>
      </trkpt>
      <trkpt lat="43.62998" lon="1.26092">
        <ele>190</ele>
        <time>2020-10-03T08:42:08.000Z</time>
      </trkpt>
      <trkpt lat="43.63" lon="1.26095">
        <ele>190</ele>
        <time>2020-10-03T08:42:09.000Z</time>
      </trkpt>
      <trkpt lat="43.63002" lon="1.26097">
        <ele>190</ele>
        <time>2020-10-03T08:42:10.000Z</time>
      </trkpt>
      <trkpt lat="43.63004" lon="1.26099">
        <ele>190</ele>
        <time>2020-10-03T08:42:11.000Z</time>
      </trkpt>
      <trkpt lat="43.63007" lon="1.26102">
        <ele>190</ele>
        <time>2020-10-03T08:42:12.000Z</time>
      </trkpt>
      <trkpt lat="43.6301" lon="1.26104">
        <ele>190</ele>
        <time>2020-10-03T08:42:13.000Z</time>
      </trkpt>
      <trkpt lat="43.63012" lon="1.26106">
        <ele>190</ele>
        <time>2020-10-03T08:42:14.000Z</time>
      </trkpt>
      <trkpt lat="43.63014" lon="1.26108">
        <ele>190</ele>
        <time>2020-10-03T08:42:15.000Z</time>
      </trkpt>
      <trkpt lat="43.63017" lon="1.26111">
        <ele>190</ele>
        <time>2020-10-03T08:42:16.000Z</time>
      </trkpt>
      <trkpt lat="43.63019" lon="1.26113">
        <ele>190</ele>
        <time>2020-10-03T08:42:17.000Z</time>
      </trkpt>
      <trkpt lat="43.63022" lon="1.26115">
        <ele>190</ele>
        <time>2020-10-03T08:42:18.000Z</time>
      </trkpt>
      <trkpt lat="43.63024" lon="1.26117">
        <ele>190</ele>
        <time>2020-10-03T08:42:19.000Z</time>
      </trkpt>
      <trkpt lat="43.63027" lon="1.26119">
        <ele>190</ele>
        <time>2020-10-03T08:42:20.000Z</time>
      </trkpt>
      <trkpt lat="43.63029" lon="1.26122">
        <ele>190</ele>
        <time>2020-10-03T08:42:21.000Z</time>
      </trkpt>
      <trkpt lat="43.63032" lon="1.26124">
        <ele>190</ele>
        <time>2020-10-03T08:42:22.000Z</time>
      </trkpt>
      <trkpt lat="43.63034" lon="1.26126">
        <ele>190</ele>
        <time>2020-10-03T08:42:23.000Z</time>
      </trkpt>
      <trkpt lat="43.63036" lon="1.26128">
        <ele>190</ele>
        <time>2020-10-03T08:42:24.000Z</time>
      </trkpt>
      <trkpt lat="43.63039" lon="1.2613">
        <ele>190</ele>
        <time>2020-10-03T08:42:25.000Z</time>
      </trkpt>
      <trkpt lat="43.63041" lon="1.26132">
        <ele>190</ele>
        <time>2020-10-03T08:42:26.000Z</time>
      </trkpt>
      <trkpt lat="43.63043" lon="1.26134">
        <ele>190</ele>
        <time>2020-10-03T08:42:27.000Z</time>
      </trkpt>
      <trkpt lat="43.63046" lon="1.26136">
        <ele>190</ele>
        <time>2020-10-03T08:42:28.000Z</time>
      </trkpt>
      <trkpt lat="43.63048" lon="1.26139">
        <ele>190</ele>
        <time>2020-10-03T08:42:29.000Z</time>
      </trkpt>
      <trkpt lat="43.6305" lon="1.26141">
        <ele>190</ele>
        <time>2020-10-03T08:42:30.000Z</time>
      </trkpt>
      <trkpt lat="43.63053" lon="1.26143">
        <ele>190</ele>
        <time>2020-10-03T08:42:31.000Z</time>
      </trkpt>
      <trkpt lat="43.63055" lon="1.26145">
        <ele>190</ele>
        <time>2020-10-03T08:42:32.000Z</time>
      </trkpt>
      <trkpt lat="43.63058" lon="1.26148">
        <ele>190</ele>
        <time>2020-10-03T08:42:33.000Z</time>
      </trkpt>
      <trkpt lat="43.6306" lon="1.2615">
        <ele>190</ele>
        <time>2020-10-03T08:42:34.000Z</time>
      </trkpt>
      <trkpt lat="43.63063" lon="1.26152">
        <ele>190</ele>
        <time>2020-10-03T08:42:35.000Z</time>
      </trkpt>
      <trkpt lat="43.63065" lon="1.26155">
        <ele>190</ele>
        <time>2020-10-03T08:42:36.000Z</time>
      </trkpt>
      <trkpt lat="43.63068" lon="1.26157">
        <ele>189.59523664401</ele>
        <time>2020-10-03T08:42:37.000Z</time>
      </trkpt>
      <trkpt lat="43.6307" lon="1.26159">
        <ele>189</ele>
        <time>2020-10-03T08:42:38.000Z</time>
      </trkpt>
      <trkpt lat="43.63073" lon="1.26162">
        <ele>189</ele>
        <time>2020-10-03T08:42:39.000Z</time>
      </trkpt>
      <trkpt lat="43.63075" lon="1.26164">
        <ele>189.45652113421</ele>
        <time>2020-10-03T08:42:40.000Z</time>
      </trkpt>
      <trkpt lat="43.63078" lon="1.26166">
        <ele>190</ele>
        <time>2020-10-03T08:42:41.000Z</time>
      </trkpt>
      <trkpt lat="43.6308" lon="1.26169">
        <ele>190</ele>
        <time>2020-10-03T08:42:42.000Z</time>
      </trkpt>
      <trkpt lat="43.63082" lon="1.26171">
        <ele>190</ele>
        <time>2020-10-03T08:42:43.000Z</time>
      </trkpt>
      <trkpt lat="43.63085" lon="1.26173">
        <ele>190</ele>
        <time>2020-10-03T08:42:44.000Z</time>
      </trkpt>
      <trkpt lat="43.63087" lon="1.26175">
        <ele>190</ele>
        <time>2020-10-03T08:42:45.000Z</time>
      </trkpt>
      <trkpt lat="43.63089" lon="1.26178">
        <ele>190</ele>
        <time>2020-10-03T08:42:46.000Z</time>
      </trkpt>
      <trkpt lat="43.63092" lon="1.2618">
        <ele>190</ele>
        <time>2020-10-03T08:42:47.000Z</time>
      </trkpt>
      <trkpt lat="43.63095" lon="1.26182">
        <ele>190</ele>
        <time>2020-10-03T08:42:48.000Z</time>
      </trkpt>
      <trkpt lat="43.63097" lon="1.26184">
        <ele>190</ele>
        <time>2020-10-03T08:42:49.000Z</time>
      </trkpt>
      <trkpt lat="43.63099" lon="1.26187">
        <ele>190</ele>
        <time>2020-10-03T08:42:50.000Z</time>
      </trkpt>
      <trkpt lat="43.63102" lon="1.26189">
        <ele>190</ele>
        <time>2020-10-03T08:42:51.000Z</time>
      </trkpt>
      <trkpt lat="43.63104" lon="1.26191">
        <ele>190</ele>
        <time>2020-10-03T08:42:52.000Z</time>
      </trkpt>
      <trkpt lat="43.63107" lon="1.26193">
        <ele>190</ele>
        <time>2020-10-03T08:42:53.000Z</time>
      </trkpt>
      <trkpt lat="43.63109" lon="1.26196">
        <ele>190</ele>
        <time>2020-10-03T08:42:54.000Z</time>
      </trkpt>
      <trkpt lat="43.63112" lon="1.26198">
        <ele>190</ele>
        <time>2020-10-03T08:42:55.000Z</time>
      </trkpt>
      <trkpt lat="43.63114" lon="1.26201">
        <ele>190</ele>
        <time>2020-10-03T08:42:56.000Z</time>
      </trkpt>
      <trkpt lat="43.63116" lon="1.26203">
        <ele>190</ele>
        <time>2020-10-03T08:42:57.000Z</time>
      </trkpt>
      <trkpt lat="43.63118" lon="1.26205">
        <ele>190</ele>
        <time>2020-10-03T08:42:58.000Z</time>
      </trkpt>
      <trkpt lat="43.63121" lon="1.26208">
        <ele>190</ele>
        <time>2020-10-03T08:42:59.000Z</time>
      </trkpt>
      <trkpt lat="43.63123" lon="1.2621">
        <ele>190</ele>
        <time>2020-10-03T08:43:00.000Z</time>
      </trkpt>
      <trkpt lat="43.63125" lon="1.26212">
        <ele>189.76922925446</ele>
        <time>2020-10-03T08:43:01.000Z</time>
      </trkpt>
      <trkpt lat="43.63128" lon="1.26215">
        <ele>189</ele>
        <time>2020-10-03T08:43:02.000Z</time>
      </trkpt>
      <trkpt lat="43.6313" lon="1.26217">
        <ele>189</ele>
        <time>2020-10-03T08:43:03.000Z</time>
      </trkpt>
      <trkpt lat="43.63133" lon="1.26219">
        <ele>189.44444760496</ele>
        <time>2020-10-03T08:43:04.000Z</time>
      </trkpt>
      <trkpt lat="43.63135" lon="1.26221">
        <ele>190</ele>
        <time>2020-10-03T08:43:05.000Z</time>
      </trkpt>
      <trkpt lat="43.63137" lon="1.26223">
        <ele>190</ele>
        <time>2020-10-03T08:43:06.000Z</time>
      </trkpt>
      <trkpt lat="43.6314" lon="1.26226">
        <ele>190</ele>
        <time>2020-10-03T08:43:07.000Z</time>
      </trkpt>
      <trkpt lat="43.63142" lon="1.26228">
        <ele>190</ele>
        <time>2020-10-03T08:43:08.000Z</time>
      </trkpt>
      <trkpt lat="43.63145" lon="1.2623">
        <ele>190</ele>
        <time>2020-10-03T08:43:09.000Z</time>
      </trkpt>
      <trkpt lat="43.63147" lon="1.26233">
        <ele>190</ele>
        <time>2020-10-03T08:43:10.000Z</time>
      </trkpt>
      <trkpt lat="43.63149" lon="1.26236">
        <ele>190</ele>
        <time>2020-10-03T08:43:11.000Z</time>
      </trkpt>
      <trkpt lat="43.63151" lon="1.26238">
        <ele>189.66055239795</ele>
        <time>2020-10-03T08:43:12.000Z</time>
      </trkpt>
      <trkpt lat="43.63153" lon="1.2624">
        <ele>189</ele>
        <time>2020-10-03T08:43:13.000Z</time>
      </trkpt>
      <trkpt lat="43.63155" lon="1.26243">
        <ele>189</ele>
        <time>2020-10-03T08:43:14.000Z</time>
      </trkpt>
      <trkpt lat="43.63158" lon="1.26246">
        <ele>188.65138099488</ele>
        <time>2020-10-03T08:43:15.000Z</time>
      </trkpt>
      <trkpt lat="43.6316" lon="1.26248">
        <ele>188</ele>
        <time>2020-10-03T08:43:16.000Z</time>
      </trkpt>
      <trkpt lat="43.63162" lon="1.26251">
        <ele>188</ele>
        <time>2020-10-03T08:43:17.000Z</time>
      </trkpt>
      <trkpt lat="43.63164" lon="1.26253">
        <ele>188.21428136048</ele>
        <time>2020-10-03T08:43:18.000Z</time>
      </trkpt>
      <trkpt lat="43.63167" lon="1.26256">
        <ele>189</ele>
        <time>2020-10-03T08:43:19.000Z</time>
      </trkpt>
      <trkpt lat="43.63169" lon="1.26259">
        <ele>189</ele>
        <time>2020-10-03T08:43:20.000Z</time>
      </trkpt>
      <trkpt lat="43.63171" lon="1.26262">
        <ele>189</ele>
        <time>2020-10-03T08:43:21.000Z</time>
      </trkpt>
      <trkpt lat="43.63174" lon="1.26265">
        <ele>189</ele>
        <time>2020-10-03T08:43:22.000Z</time>
      </trkpt>
      <trkpt lat="43.63175" lon="1.26268">
        <ele>188.54954508239</ele>
        <time>2020-10-03T08:43:23.000Z</time>
      </trkpt>
      <trkpt lat="43.63178" lon="1.26271">
        <ele>188</ele>
        <time>2020-10-03T08:43:24.000Z</time>
      </trkpt>
      <trkpt lat="43.6318" lon="1.26274">
        <ele>188.36905142857</ele>
        <time>2020-10-03T08:43:25.000Z</time>
      </trkpt>
      <trkpt lat="43.63182" lon="1.26276">
        <ele>189</ele>
        <time>2020-10-03T08:43:26.000Z</time>
      </trkpt>
      <trkpt lat="43.63184" lon="1.26279">
        <ele>189</ele>
        <time>2020-10-03T08:43:27.000Z</time>
      </trkpt>
      <trkpt lat="43.63186" lon="1.26282">
        <ele>189</ele>
        <time>2020-10-03T08:43:28.000Z</time>
      </trkpt>
      <trkpt lat="43.63188" lon="1.26284">
        <ele>189</ele>
        <time>2020-10-03T08:43:29.000Z</time>
      </trkpt>
      <trkpt lat="43.63191" lon="1.26287">
        <ele>189</ele>
        <time>2020-10-03T08:43:30.000Z</time>
      </trkpt>
      <trkpt lat="43.63193" lon="1.2629">
        <ele>189</ele>
        <time>2020-10-03T08:43:31.000Z</time>
      </trkpt>
      <trkpt lat="43.63195" lon="1.26292">
        <ele>189</ele>
        <time>2020-10-03T08:43:32.000Z</time>
      </trkpt>
      <trkpt lat="43.63197" lon="1.26295">
        <ele>189</ele>
        <time>2020-10-03T08:43:33.000Z</time>
      </trkpt>
      <trkpt lat="43.63199" lon="1.26298">
        <ele>189</ele>
        <time>2020-10-03T08:43:34.000Z</time>
      </trkpt>
      <trkpt lat="43.63201" lon="1.26301">
        <ele>189</ele>
        <time>2020-10-03T08:43:35.000Z</time>
      </trkpt>
      <trkpt lat="43.63203" lon="1.26304">
        <ele>189</ele>
        <time>2020-10-03T08:43:36.000Z</time>
      </trkpt>
      <trkpt lat="43.63205" lon="1.26306">
        <ele>189</ele>
        <time>2020-10-03T08:43:37.000Z</time>
      </trkpt>
      <trkpt lat="43.63208" lon="1.26309">
        <ele>189</ele>
        <time>2020-10-03T08:43:38.000Z</time>
      </trkpt>
      <trkpt lat="43.6321" lon="1.26312">
        <ele>189</ele>
        <time>2020-10-03T08:43:39.000Z</time>
      </trkpt>
      <trkpt lat="43.63212" lon="1.26315">
        <ele>189.36363424795</ele>
        <time>2020-10-03T08:43:40.000Z</time>
      </trkpt>
      <trkpt lat="43.63214" lon="1.26317">
        <ele>190</ele>
        <time>2020-10-03T08:43:41.000Z</time>
      </trkpt>
      <trkpt lat="43.63216" lon="1.2632">
        <ele>190</ele>
        <time>2020-10-03T08:43:42.000Z</time>
      </trkpt>
      <trkpt lat="43.63218" lon="1.26322">
        <ele>190</ele>
        <time>2020-10-03T08:43:43.000Z</time>
      </trkpt>
      <trkpt lat="43.63221" lon="1.26325">
        <ele>190</ele>
        <time>2020-10-03T08:43:44.000Z</time>
      </trkpt>
      <trkpt lat="43.63223" lon="1.26327">
        <ele>190</ele>
        <time>2020-10-03T08:43:45.000Z</time>
      </trkpt>
      <trkpt lat="43.63225" lon="1.26329">
        <ele>190</ele>
        <time>2020-10-03T08:43:46.000Z</time>
      </trkpt>
      <trkpt lat="43.63227" lon="1.26332">
        <ele>190</ele>
        <time>2020-10-03T08:43:47.000Z</time>
      </trkpt>
      <trkpt lat="43.63229" lon="1.26335">
        <ele>190</ele>
        <time>2020-10-03T08:43:48.000Z</time>
      </trkpt>
      <trkpt lat="43.63231" lon="1.26338">
        <ele>190</ele>
        <time>2020-10-03T08:43:49.000Z</time>
      </trkpt>
      <trkpt lat="43.63234" lon="1.26341">
        <ele>190</ele>
        <time>2020-10-03T08:43:50.000Z</time>
      </trkpt>
      <trkpt lat="43.63236" lon="1.26344">
        <ele>190</ele>
        <time>2020-10-03T08:43:51.000Z</time>
      </trkpt>
      <trkpt lat="43.63238" lon="1.26346">
        <ele>190</ele>
        <time>2020-10-03T08:43:52.000Z</time>
      </trkpt>
      <trkpt lat="43.6324" lon="1.26349">
        <ele>190</ele>
        <time>2020-10-03T08:43:53.000Z</time>
      </trkpt>
      <trkpt lat="43.63243" lon="1.26352">
        <ele>189.67241189063</ele>
        <time>2020-10-03T08:43:54.000Z</time>
      </trkpt>
      <trkpt lat="43.63245" lon="1.26355">
        <ele>189</ele>
        <time>2020-10-03T08:43:55.000Z</time>
      </trkpt>
      <trkpt lat="43.63247" lon="1.26358">
        <ele>189</ele>
        <time>2020-10-03T08:43:56.000Z</time>
      </trkpt>
      <trkpt lat="43.63249" lon="1.26361">
        <ele>189.4454542281</ele>
        <time>2020-10-03T08:43:57.000Z</time>
      </trkpt>
      <trkpt lat="43.63252" lon="1.26363">
        <ele>190</ele>
        <time>2020-10-03T08:43:58.000Z</time>
      </trkpt>
      <trkpt lat="43.63254" lon="1.26366">
        <ele>190</ele>
        <time>2020-10-03T08:43:59.000Z</time>
      </trkpt>
      <trkpt lat="43.63256" lon="1.26369">
        <ele>190</ele>
        <time>2020-10-03T08:44:00.000Z</time>
      </trkpt>
      <trkpt lat="43.63258" lon="1.26372">
        <ele>190</ele>
        <time>2020-10-03T08:44:01.000Z</time>
      </trkpt>
      <trkpt lat="43.6326" lon="1.26375">
        <ele>190</ele>
        <time>2020-10-03T08:44:02.000Z</time>
      </trkpt>
      <trkpt lat="43.63262" lon="1.26378">
        <ele>190</ele>
        <time>2020-10-03T08:44:03.000Z</time>
      </trkpt>
      <trkpt lat="43.63264" lon="1.26381">
        <ele>190</ele>
        <time>2020-10-03T08:44:04.000Z</time>
      </trkpt>
      <trkpt lat="43.63266" lon="1.26384">
        <ele>189.83950948942</ele>
        <time>2020-10-03T08:44:05.000Z</time>
      </trkpt>
      <trkpt lat="43.63269" lon="1.26387">
        <ele>189</ele>
        <time>2020-10-03T08:44:06.000Z</time>
      </trkpt>
      <trkpt lat="43.63271" lon="1.2639">
        <ele>189</ele>
        <time>2020-10-03T08:44:07.000Z</time>
      </trkpt>
      <trkpt lat="43.63273" lon="1.26393">
        <ele>189.29999883636</ele>
        <time>2020-10-03T08:44:08.000Z</time>
      </trkpt>
      <trkpt lat="43.63275" lon="1.26395">
        <ele>190</ele>
        <time>2020-10-03T08:44:09.000Z</time>
      </trkpt>
      <trkpt lat="43.63277" lon="1.26398">
        <ele>190</ele>
        <time>2020-10-03T08:44:10.000Z</time>
      </trkpt>
      <trkpt lat="43.6328" lon="1.26401">
        <ele>190</ele>
        <time>2020-10-03T08:44:11.000Z</time>
      </trkpt>
      <trkpt lat="43.63282" lon="1.26404">
        <ele>190</ele>
        <time>2020-10-03T08:44:12.000Z</time>
      </trkpt>
      <trkpt lat="43.63284" lon="1.26406">
        <ele>190</ele>
        <time>2020-10-03T08:44:13.000Z</time>
      </trkpt>
      <trkpt lat="43.63286" lon="1.26409">
        <ele>190</ele>
        <time>2020-10-03T08:44:14.000Z</time>
      </trkpt>
      <trkpt lat="43.63288" lon="1.26412">
        <ele>190</ele>
        <time>2020-10-03T08:44:15.000Z</time>
      </trkpt>
      <trkpt lat="43.6329" lon="1.26415">
        <ele>190</ele>
        <time>2020-10-03T08:44:16.000Z</time>
      </trkpt>
      <trkpt lat="43.63292" lon="1.26417">
        <ele>190</ele>
        <time>2020-10-03T08:44:17.000Z</time>
      </trkpt>
      <trkpt lat="43.63294" lon="1.2642">
        <ele>190</ele>
        <time>2020-10-03T08:44:18.000Z</time>
      </trkpt>
      <trkpt lat="43.63296" lon="1.26423">
        <ele>189.58974246767</ele>
        <time>2020-10-03T08:44:19.000Z</time>
      </trkpt>
      <trkpt lat="43.63299" lon="1.26426">
        <ele>189</ele>
        <time>2020-10-03T08:44:20.000Z</time>
      </trkpt>
      <trkpt lat="43.63301" lon="1.26428">
        <ele>189</ele>
        <time>2020-10-03T08:44:21.000Z</time>
      </trkpt>
      <trkpt lat="43.63303" lon="1.26431">
        <ele>189</ele>
        <time>2020-10-03T08:44:22.000Z</time>
      </trkpt>
      <trkpt lat="43.63305" lon="1.26434">
        <ele>189</ele>
        <time>2020-10-03T08:44:23.000Z</time>
      </trkpt>
      <trkpt lat="43.63307" lon="1.26437">
        <ele>189</ele>
        <time>2020-10-03T08:44:24.000Z</time>
      </trkpt>
      <trkpt lat="43.63309" lon="1.2644">
        <ele>189</ele>
        <time>2020-10-03T08:44:25.000Z</time>
      </trkpt>
      <trkpt lat="43.63312" lon="1.26442">
        <ele>189</ele>
        <time>2020-10-03T08:44:26.000Z</time>
      </trkpt>
      <trkpt lat="43.63314" lon="1.26445">
        <ele>189</ele>
        <time>2020-10-03T08:44:27.000Z</time>
      </trkpt>
      <trkpt lat="43.63316" lon="1.26447">
        <ele>189</ele>
        <time>2020-10-03T08:44:28.000Z</time>
      </trkpt>
      <trkpt lat="43.63318" lon="1.2645">
        <ele>189</ele>
        <time>2020-10-03T08:44:29.000Z</time>
      </trkpt>
      <trkpt lat="43.6332" lon="1.26453">
        <ele>189.45454228097</ele>
        <time>2020-10-03T08:44:30.000Z</time>
      </trkpt>
      <trkpt lat="43.63323" lon="1.26456">
        <ele>190</ele>
        <time>2020-10-03T08:44:31.000Z</time>
      </trkpt>
      <trkpt lat="43.63325" lon="1.26458">
        <ele>190</ele>
        <time>2020-10-03T08:44:32.000Z</time>
      </trkpt>
      <trkpt lat="43.63327" lon="1.26461">
        <ele>190</ele>
        <time>2020-10-03T08:44:33.000Z</time>
      </trkpt>
      <trkpt lat="43.63329" lon="1.26464">
        <ele>190</ele>
        <time>2020-10-03T08:44:34.000Z</time>
      </trkpt>
      <trkpt lat="43.63331" lon="1.26466">
        <ele>190</ele>
        <time>2020-10-03T08:44:35.000Z</time>
      </trkpt>
      <trkpt lat="43.63333" lon="1.26469">
        <ele>190</ele>
        <time>2020-10-03T08:44:36.000Z</time>
      </trkpt>
      <trkpt lat="43.63335" lon="1.26472">
        <ele>190</ele>
        <time>2020-10-03T08:44:37.000Z</time>
      </trkpt>
      <trkpt lat="43.63338" lon="1.26474">
        <ele>190</ele>
        <time>2020-10-03T08:44:38.000Z</time>
      </trkpt>
      <trkpt lat="43.6334" lon="1.26477">
        <ele>190</ele>
        <time>2020-10-03T08:44:39.000Z</time>
      </trkpt>
      <trkpt lat="43.63342" lon="1.2648">
        <ele>190</ele>
        <time>2020-10-03T08:44:40.000Z</time>
      </trkpt>
      <trkpt lat="43.63344" lon="1.26483">
        <ele>190</ele>
        <time>2020-10-03T08:44:41.000Z</time>
      </trkpt>
      <trkpt lat="43.63346" lon="1.26485">
        <ele>190</ele>
        <time>2020-10-03T08:44:42.000Z</time>
      </trkpt>
      <trkpt lat="43.63348" lon="1.26488">
        <ele>190</ele>
        <time>2020-10-03T08:44:43.000Z</time>
      </trkpt>
      <trkpt lat="43.63351" lon="1.26491">
        <ele>190</ele>
        <time>2020-10-03T08:44:44.000Z</time>
      </trkpt>
      <trkpt lat="43.63353" lon="1.26494">
        <ele>190</ele>
        <time>2020-10-03T08:44:45.000Z</time>
      </trkpt>
      <trkpt lat="43.63355" lon="1.26497">
        <ele>190.45454228097</ele>
        <time>2020-10-03T08:44:46.000Z</time>
      </trkpt>
      <trkpt lat="43.63357" lon="1.265">
        <ele>191</ele>
        <time>2020-10-03T08:44:47.000Z</time>
      </trkpt>
      <trkpt lat="43.63359" lon="1.26503">
        <ele>191</ele>
        <time>2020-10-03T08:44:48.000Z</time>
      </trkpt>
      <trkpt lat="43.63361" lon="1.26505">
        <ele>191</ele>
        <time>2020-10-03T08:44:49.000Z</time>
      </trkpt>
      <trkpt lat="43.63363" lon="1.26508">
        <ele>190.54128892855</ele>
        <time>2020-10-03T08:44:50.000Z</time>
      </trkpt>
      <trkpt lat="43.63365" lon="1.26511">
        <ele>190</ele>
        <time>2020-10-03T08:44:51.000Z</time>
      </trkpt>
      <trkpt lat="43.63368" lon="1.26514">
        <ele>190</ele>
        <time>2020-10-03T08:44:52.000Z</time>
      </trkpt>
      <trkpt lat="43.6337" lon="1.26516">
        <ele>190</ele>
        <time>2020-10-03T08:44:53.000Z</time>
      </trkpt>
      <trkpt lat="43.63372" lon="1.26519">
        <ele>190</ele>
        <time>2020-10-03T08:44:54.000Z</time>
      </trkpt>
      <trkpt lat="43.63374" lon="1.26522">
        <ele>190</ele>
        <time>2020-10-03T08:44:55.000Z</time>
      </trkpt>
      <trkpt lat="43.63377" lon="1.26524">
        <ele>190</ele>
        <time>2020-10-03T08:44:56.000Z</time>
      </trkpt>
      <trkpt lat="43.63379" lon="1.26527">
        <ele>190</ele>
        <time>2020-10-03T08:44:57.000Z</time>
      </trkpt>
      <trkpt lat="43.63381" lon="1.26529">
        <ele>190</ele>
        <time>2020-10-03T08:44:58.000Z</time>
      </trkpt>
      <trkpt lat="43.63383" lon="1.26531">
        <ele>190</ele>
        <time>2020-10-03T08:44:59.000Z</time>
      </trkpt>
      <trkpt lat="43.63385" lon="1.26532">
        <ele>190</ele>
        <time>2020-10-03T08:45:00.000Z</time>
      </trkpt>
      <trkpt lat="43.63387" lon="1.26532">
        <ele>190</ele>
        <time>2020-10-03T08:45:01.000Z</time>
      </trkpt>
      <trkpt lat="43.63389" lon="1.2653">
        <ele>190</ele>
        <time>2020-10-03T08:45:02.000Z</time>
      </trkpt>
      <trkpt lat="43.63391" lon="1.26527">
        <ele>190</ele>
        <time>2020-10-03T08:45:03.000Z</time>
      </trkpt>
      <trkpt lat="43.63393" lon="1.26524">
        <ele>189.64197784485</ele>
        <time>2020-10-03T08:45:04.000Z</time>
      </trkpt>
      <trkpt lat="43.63394" lon="1.26521">
        <ele>189</ele>
        <time>2020-10-03T08:45:05.000Z</time>
      </trkpt>
      <trkpt lat="43.63395" lon="1.26517">
        <ele>189</ele>
        <time>2020-10-03T08:45:06.000Z</time>
      </trkpt>
      <trkpt lat="43.63396" lon="1.26514">
        <ele>189</ele>
        <time>2020-10-03T08:45:07.000Z</time>
      </trkpt>
      <trkpt lat="43.63397" lon="1.26511">
        <ele>189</ele>
        <time>2020-10-03T08:45:08.000Z</time>
      </trkpt>
      <trkpt lat="43.63399" lon="1.26507">
        <ele>189</ele>
        <time>2020-10-03T08:45:09.000Z</time>
      </trkpt>
      <trkpt lat="43.634" lon="1.26504">
        <ele>189.32592515336</ele>
        <time>2020-10-03T08:45:10.000Z</time>
      </trkpt>
      <trkpt lat="43.63401" lon="1.26501">
        <ele>190</ele>
        <time>2020-10-03T08:45:11.000Z</time>
      </trkpt>
      <trkpt lat="43.63402" lon="1.26497">
        <ele>190</ele>
        <time>2020-10-03T08:45:12.000Z</time>
      </trkpt>
      <trkpt lat="43.63403" lon="1.26494">
        <ele>190</ele>
        <time>2020-10-03T08:45:13.000Z</time>
      </trkpt>
      <trkpt lat="43.63405" lon="1.2649">
        <ele>190</ele>
        <time>2020-10-03T08:45:14.000Z</time>
      </trkpt>
      <trkpt lat="43.63406" lon="1.26487">
        <ele>190</ele>
        <time>2020-10-03T08:45:15.000Z</time>
      </trkpt>
      <trkpt lat="43.63407" lon="1.26484">
        <ele>190</ele>
        <time>2020-10-03T08:45:16.000Z</time>
      </trkpt>
      <trkpt lat="43.63409" lon="1.26481">
        <ele>190</ele>
        <time>2020-10-03T08:45:17.000Z</time>
      </trkpt>
      <trkpt lat="43.6341" lon="1.26478">
        <ele>190</ele>
        <time>2020-10-03T08:45:18.000Z</time>
      </trkpt>
      <trkpt lat="43.63412" lon="1.26474">
        <ele>190</ele>
        <time>2020-10-03T08:45:19.000Z</time>
      </trkpt>
      <trkpt lat="43.63413" lon="1.26471">
        <ele>190</ele>
        <time>2020-10-03T08:45:20.000Z</time>
      </trkpt>
      <trkpt lat="43.63415" lon="1.26467">
        <ele>190</ele>
        <time>2020-10-03T08:45:21.000Z</time>
      </trkpt>
      <trkpt lat="43.63416" lon="1.26464">
        <ele>190</ele>
        <time>2020-10-03T08:45:22.000Z</time>
      </trkpt>
      <trkpt lat="43.63418" lon="1.2646">
        <ele>190</ele>
        <time>2020-10-03T08:45:23.000Z</time>
      </trkpt>
      <trkpt lat="43.63419" lon="1.26457">
        <ele>190</ele>
        <time>2020-10-03T08:45:24.000Z</time>
      </trkpt>
      <trkpt lat="43.6342" lon="1.26453">
        <ele>190</ele>
        <time>2020-10-03T08:45:25.000Z</time>
      </trkpt>
      <trkpt lat="43.63422" lon="1.2645">
        <ele>190</ele>
        <time>2020-10-03T08:45:26.000Z</time>
      </trkpt>
      <trkpt lat="43.63423" lon="1.26446">
        <ele>190</ele>
        <time>2020-10-03T08:45:27.000Z</time>
      </trkpt>
      <trkpt lat="43.63424" lon="1.26443">
        <ele>190</ele>
        <time>2020-10-03T08:45:28.000Z</time>
      </trkpt>
      <trkpt lat="43.63426" lon="1.26439">
        <ele>190</ele>
        <time>2020-10-03T08:45:29.000Z</time>
      </trkpt>
      <trkpt lat="43.63427" lon="1.26436">
        <ele>190</ele>
        <time>2020-10-03T08:45:30.000Z</time>
      </trkpt>
      <trkpt lat="43.63428" lon="1.26433">
        <ele>190</ele>
        <time>2020-10-03T08:45:31.000Z</time>
      </trkpt>
      <trkpt lat="43.63429" lon="1.26429">
        <ele>190</ele>
        <time>2020-10-03T08:45:32.000Z</time>
      </trkpt>
      <trkpt lat="43.6343" lon="1.26426">
        <ele>190</ele>
        <time>2020-10-03T08:45:33.000Z</time>
      </trkpt>
      <trkpt lat="43.63432" lon="1.26423">
        <ele>190</ele>
        <time>2020-10-03T08:45:34.000Z</time>
      </trkpt>
      <trkpt lat="43.63433" lon="1.26419">
        <ele>190</ele>
        <time>2020-10-03T08:45:35.000Z</time>
      </trkpt>
      <trkpt lat="43.63434" lon="1.26416">
        <ele>190</ele>
        <time>2020-10-03T08:45:36.000Z</time>
      </trkpt>
      <trkpt lat="43.63435" lon="1.26413">
        <ele>190</ele>
        <time>2020-10-03T08:45:37.000Z</time>
      </trkpt>
      <trkpt lat="43.63436" lon="1.26409">
        <ele>190</ele>
        <time>2020-10-03T08:45:38.000Z</time>
      </trkpt>
      <trkpt lat="43.63438" lon="1.26406">
        <ele>190</ele>
        <time>2020-10-03T08:45:39.000Z</time>
      </trkpt>
      <trkpt lat="43.63439" lon="1.26403">
        <ele>190</ele>
        <time>2020-10-03T08:45:40.000Z</time>
      </trkpt>
      <trkpt lat="43.6344" lon="1.26399">
        <ele>190</ele>
        <time>2020-10-03T08:45:41.000Z</time>
      </trkpt>
      <trkpt lat="43.63442" lon="1.26396">
        <ele>190.47368562882</ele>
        <time>2020-10-03T08:45:42.000Z</time>
      </trkpt>
      <trkpt lat="43.63443" lon="1.26393">
        <ele>191</ele>
        <time>2020-10-03T08:45:43.000Z</time>
      </trkpt>
      <trkpt lat="43.63444" lon="1.2639">
        <ele>191</ele>
        <time>2020-10-03T08:45:44.000Z</time>
      </trkpt>
      <trkpt lat="43.63446" lon="1.26386">
        <ele>191</ele>
        <time>2020-10-03T08:45:45.000Z</time>
      </trkpt>
      <trkpt lat="43.63447" lon="1.26383">
        <ele>191</ele>
        <time>2020-10-03T08:45:46.000Z</time>
      </trkpt>
      <trkpt lat="43.63449" lon="1.2638">
        <ele>190.52380778233</ele>
        <time>2020-10-03T08:45:47.000Z</time>
      </trkpt>
      <trkpt lat="43.6345" lon="1.26376">
        <ele>190</ele>
        <time>2020-10-03T08:45:48.000Z</time>
      </trkpt>
      <trkpt lat="43.63451" lon="1.26373">
        <ele>190</ele>
        <time>2020-10-03T08:45:49.000Z</time>
      </trkpt>
      <trkpt lat="43.63452" lon="1.2637">
        <ele>190</ele>
        <time>2020-10-03T08:45:50.000Z</time>
      </trkpt>
      <trkpt lat="43.63453" lon="1.26367">
        <ele>190</ele>
        <time>2020-10-03T08:45:51.000Z</time>
      </trkpt>
      <trkpt lat="43.63454" lon="1.26364">
        <ele>190</ele>
        <time>2020-10-03T08:45:52.000Z</time>
      </trkpt>
      <trkpt lat="43.63456" lon="1.26361">
        <ele>190</ele>
        <time>2020-10-03T08:45:53.000Z</time>
      </trkpt>
      <trkpt lat="43.63457" lon="1.26357">
        <ele>190</ele>
        <time>2020-10-03T08:45:54.000Z</time>
      </trkpt>
      <trkpt lat="43.63458" lon="1.26354">
        <ele>190</ele>
        <time>2020-10-03T08:45:55.000Z</time>
      </trkpt>
      <trkpt lat="43.6346" lon="1.26351">
        <ele>190.23943103355</ele>
        <time>2020-10-03T08:45:56.000Z</time>
      </trkpt>
      <trkpt lat="43.63461" lon="1.26348">
        <ele>191</ele>
        <time>2020-10-03T08:45:57.000Z</time>
      </trkpt>
      <trkpt lat="43.63462" lon="1.26345">
        <ele>191</ele>
        <time>2020-10-03T08:45:58.000Z</time>
      </trkpt>
      <trkpt lat="43.63464" lon="1.26342">
        <ele>190.65909818182</ele>
        <time>2020-10-03T08:45:59.000Z</time>
      </trkpt>
      <trkpt lat="43.63465" lon="1.26338">
        <ele>190</ele>
        <time>2020-10-03T08:46:00.000Z</time>
      </trkpt>
      <trkpt lat="43.63467" lon="1.26335">
        <ele>190</ele>
        <time>2020-10-03T08:46:01.000Z</time>
      </trkpt>
      <trkpt lat="43.63468" lon="1.26331">
        <ele>190</ele>
        <time>2020-10-03T08:46:02.000Z</time>
      </trkpt>
      <trkpt lat="43.6347" lon="1.26328">
        <ele>190</ele>
        <time>2020-10-03T08:46:03.000Z</time>
      </trkpt>
      <trkpt lat="43.63472" lon="1.26325">
        <ele>190</ele>
        <time>2020-10-03T08:46:04.000Z</time>
      </trkpt>
      <trkpt lat="43.63473" lon="1.26322">
        <ele>190</ele>
        <time>2020-10-03T08:46:05.000Z</time>
      </trkpt>
      <trkpt lat="43.63475" lon="1.26318">
        <ele>190</ele>
        <time>2020-10-03T08:46:06.000Z</time>
      </trkpt>
      <trkpt lat="43.63476" lon="1.26315">
        <ele>190</ele>
        <time>2020-10-03T08:46:07.000Z</time>
      </trkpt>
      <trkpt lat="43.63478" lon="1.26312">
        <ele>190</ele>
        <time>2020-10-03T08:46:08.000Z</time>
      </trkpt>
      <trkpt lat="43.63479" lon="1.26309">
        <ele>190</ele>
        <time>2020-10-03T08:46:09.000Z</time>
      </trkpt>
      <trkpt lat="43.63481" lon="1.26306">
        <ele>190</ele>
        <time>2020-10-03T08:46:10.000Z</time>
      </trkpt>
      <trkpt lat="43.63482" lon="1.26303">
        <ele>190.31395487289</ele>
        <time>2020-10-03T08:46:11.000Z</time>
      </trkpt>
      <trkpt lat="43.63484" lon="1.263">
        <ele>191</ele>
        <time>2020-10-03T08:46:12.000Z</time>
      </trkpt>
      <trkpt lat="43.63485" lon="1.26297">
        <ele>191.36567100022</ele>
        <time>2020-10-03T08:46:13.000Z</time>
      </trkpt>
      <trkpt lat="43.63486" lon="1.26293">
        <ele>192</ele>
        <time>2020-10-03T08:46:14.000Z</time>
      </trkpt>
      <trkpt lat="43.63488" lon="1.2629">
        <ele>192</ele>
        <time>2020-10-03T08:46:15.000Z</time>
      </trkpt>
      <trkpt lat="43.63489" lon="1.26287">
        <ele>191.57954909091</ele>
        <time>2020-10-03T08:46:16.000Z</time>
      </trkpt>
      <trkpt lat="43.63491" lon="1.26284">
        <ele>191</ele>
        <time>2020-10-03T08:46:17.000Z</time>
      </trkpt>
      <trkpt lat="43.63492" lon="1.26281">
        <ele>190.56179258173</ele>
        <time>2020-10-03T08:46:18.000Z</time>
      </trkpt>
      <trkpt lat="43.63493" lon="1.26278">
        <ele>190</ele>
        <time>2020-10-03T08:46:19.000Z</time>
      </trkpt>
      <trkpt lat="43.63495" lon="1.26276">
        <ele>190</ele>
        <time>2020-10-03T08:46:20.000Z</time>
      </trkpt>
      <trkpt lat="43.63496" lon="1.26272">
        <ele>190.90090983522</ele>
        <time>2020-10-03T08:46:21.000Z</time>
      </trkpt>
      <trkpt lat="43.63498" lon="1.26268">
        <ele>192</ele>
        <time>2020-10-03T08:46:22.000Z</time>
      </trkpt>
      <trkpt lat="43.63499" lon="1.26265">
        <ele>191.09090274384</ele>
        <time>2020-10-03T08:46:23.000Z</time>
      </trkpt>
      <trkpt lat="43.63501" lon="1.26262">
        <ele>190</ele>
        <time>2020-10-03T08:46:24.000Z</time>
      </trkpt>
      <trkpt lat="43.63502" lon="1.26259">
        <ele>190</ele>
        <time>2020-10-03T08:46:25.000Z</time>
      </trkpt>
      <trkpt lat="43.63504" lon="1.26256">
        <ele>190</ele>
        <time>2020-10-03T08:46:26.000Z</time>
      </trkpt>
      <trkpt lat="43.63505" lon="1.26252">
        <ele>190.17720924204</ele>
        <time>2020-10-03T08:46:27.000Z</time>
      </trkpt>
      <trkpt lat="43.63507" lon="1.26249">
        <ele>191</ele>
        <time>2020-10-03T08:46:28.000Z</time>
      </trkpt>
      <trkpt lat="43.63508" lon="1.26246">
        <ele>191</ele>
        <time>2020-10-03T08:46:29.000Z</time>
      </trkpt>
      <trkpt lat="43.6351" lon="1.26243">
        <ele>191</ele>
        <time>2020-10-03T08:46:30.000Z</time>
      </trkpt>
      <trkpt lat="43.63512" lon="1.2624">
        <ele>191</ele>
        <time>2020-10-03T08:46:31.000Z</time>
      </trkpt>
      <trkpt lat="43.63514" lon="1.26236">
        <ele>191</ele>
        <time>2020-10-03T08:46:32.000Z</time>
      </trkpt>
      <trkpt lat="43.63515" lon="1.26233">
        <ele>191</ele>
        <time>2020-10-03T08:46:33.000Z</time>
      </trkpt>
      <trkpt lat="43.63517" lon="1.2623">
        <ele>191</ele>
        <time>2020-10-03T08:46:34.000Z</time>
      </trkpt>
      <trkpt lat="43.63519" lon="1.26227">
        <ele>191</ele>
        <time>2020-10-03T08:46:35.000Z</time>
      </trkpt>
      <trkpt lat="43.6352" lon="1.26224">
        <ele>191</ele>
        <time>2020-10-03T08:46:36.000Z</time>
      </trkpt>
      <trkpt lat="43.63522" lon="1.26221">
        <ele>190.65909818182</ele>
        <time>2020-10-03T08:46:37.000Z</time>
      </trkpt>
      <trkpt lat="43.63523" lon="1.26217">
        <ele>190</ele>
        <time>2020-10-03T08:46:38.000Z</time>
      </trkpt>
      <trkpt lat="43.63525" lon="1.26214">
        <ele>190</ele>
        <time>2020-10-03T08:46:39.000Z</time>
      </trkpt>
      <trkpt lat="43.63526" lon="1.26211">
        <ele>190</ele>
        <time>2020-10-03T08:46:40.000Z</time>
      </trkpt>
      <trkpt lat="43.63528" lon="1.26208">
        <ele>190</ele>
        <time>2020-10-03T08:46:41.000Z</time>
      </trkpt>
      <trkpt lat="43.63529" lon="1.26205">
        <ele>190</ele>
        <time>2020-10-03T08:46:42.000Z</time>
      </trkpt>
      <trkpt lat="43.6353" lon="1.26202">
        <ele>190</ele>
        <time>2020-10-03T08:46:43.000Z</time>
      </trkpt>
      <trkpt lat="43.63532" lon="1.26199">
        <ele>190</ele>
        <time>2020-10-03T08:46:44.000Z</time>
      </trkpt>
      <trkpt lat="43.63534" lon="1.26196">
        <ele>190</ele>
        <time>2020-10-03T08:46:45.000Z</time>
      </trkpt>
      <trkpt lat="43.63535" lon="1.26193">
        <ele>190</ele>
        <time>2020-10-03T08:46:46.000Z</time>
      </trkpt>
      <trkpt lat="43.63537" lon="1.2619">
        <ele>190</ele>
        <time>2020-10-03T08:46:47.000Z</time>
      </trkpt>
      <trkpt lat="43.63539" lon="1.26187">
        <ele>190</ele>
        <time>2020-10-03T08:46:48.000Z</time>
      </trkpt>
      <trkpt lat="43.6354" lon="1.26183">
        <ele>190</ele>
        <time>2020-10-03T08:46:49.000Z</time>
      </trkpt>
      <trkpt lat="43.63541" lon="1.2618">
        <ele>190</ele>
        <time>2020-10-03T08:46:50.000Z</time>
      </trkpt>
      <trkpt lat="43.63543" lon="1.26178">
        <ele>190</ele>
        <time>2020-10-03T08:46:51.000Z</time>
      </trkpt>
      <trkpt lat="43.63544" lon="1.26174">
        <ele>190</ele>
        <time>2020-10-03T08:46:52.000Z</time>
      </trkpt>
      <trkpt lat="43.63545" lon="1.26172">
        <ele>190</ele>
        <time>2020-10-03T08:46:53.000Z</time>
      </trkpt>
      <trkpt lat="43.63547" lon="1.26169">
        <ele>190</ele>
        <time>2020-10-03T08:46:54.000Z</time>
      </trkpt>
      <trkpt lat="43.63548" lon="1.26166">
        <ele>189.59090961984</ele>
        <time>2020-10-03T08:46:55.000Z</time>
      </trkpt>
      <trkpt lat="43.6355" lon="1.26163">
        <ele>189</ele>
        <time>2020-10-03T08:46:56.000Z</time>
      </trkpt>
      <trkpt lat="43.63551" lon="1.26159">
        <ele>189</ele>
        <time>2020-10-03T08:46:57.000Z</time>
      </trkpt>
      <trkpt lat="43.63553" lon="1.26156">
        <ele>189</ele>
        <time>2020-10-03T08:46:58.000Z</time>
      </trkpt>
      <trkpt lat="43.63554" lon="1.26153">
        <ele>189</ele>
        <time>2020-10-03T08:46:59.000Z</time>
      </trkpt>
      <trkpt lat="43.63555" lon="1.26149">
        <ele>189</ele>
        <time>2020-10-03T08:47:00.000Z</time>
      </trkpt>
      <trkpt lat="43.63557" lon="1.26146">
        <ele>189</ele>
        <time>2020-10-03T08:47:01.000Z</time>
      </trkpt>
      <trkpt lat="43.63558" lon="1.26143">
        <ele>189</ele>
        <time>2020-10-03T08:47:02.000Z</time>
      </trkpt>
      <trkpt lat="43.6356" lon="1.2614">
        <ele>189</ele>
        <time>2020-10-03T08:47:03.000Z</time>
      </trkpt>
      <trkpt lat="43.63562" lon="1.26137">
        <ele>189</ele>
        <time>2020-10-03T08:47:04.000Z</time>
      </trkpt>
      <trkpt lat="43.63563" lon="1.26134">
        <ele>189</ele>
        <time>2020-10-03T08:47:05.000Z</time>
      </trkpt>
      <trkpt lat="43.63565" lon="1.26131">
        <ele>189</ele>
        <time>2020-10-03T08:47:06.000Z</time>
      </trkpt>
      <trkpt lat="43.63566" lon="1.26127">
        <ele>189</ele>
        <time>2020-10-03T08:47:07.000Z</time>
      </trkpt>
      <trkpt lat="43.63567" lon="1.26124">
        <ele>189</ele>
        <time>2020-10-03T08:47:08.000Z</time>
      </trkpt>
      <trkpt lat="43.6357" lon="1.26118">
        <ele>189</ele>
        <time>2020-10-03T08:47:10.000Z</time>
      </trkpt>
      <trkpt lat="43.63571" lon="1.26115">
        <ele>189</ele>
        <time>2020-10-03T08:47:11.000Z</time>
      </trkpt>
      <trkpt lat="43.63573" lon="1.26112">
        <ele>189</ele>
        <time>2020-10-03T08:47:12.000Z</time>
      </trkpt>
      <trkpt lat="43.63574" lon="1.26109">
        <ele>189</ele>
        <time>2020-10-03T08:47:13.000Z</time>
      </trkpt>
      <trkpt lat="43.63576" lon="1.26106">
        <ele>189</ele>
        <time>2020-10-03T08:47:14.000Z</time>
      </trkpt>
      <trkpt lat="43.63577" lon="1.26103">
        <ele>189</ele>
        <time>2020-10-03T08:47:15.000Z</time>
      </trkpt>
      <trkpt lat="43.63579" lon="1.261">
        <ele>189</ele>
        <time>2020-10-03T08:47:16.000Z</time>
      </trkpt>
      <trkpt lat="43.6358" lon="1.26097">
        <ele>189</ele>
        <time>2020-10-03T08:47:17.000Z</time>
      </trkpt>
      <trkpt lat="43.63581" lon="1.26094">
        <ele>189</ele>
        <time>2020-10-03T08:47:18.000Z</time>
      </trkpt>
      <trkpt lat="43.63583" lon="1.26091">
        <ele>189</ele>
        <time>2020-10-03T08:47:19.000Z</time>
      </trkpt>
      <trkpt lat="43.63584" lon="1.26088">
        <ele>189</ele>
        <time>2020-10-03T08:47:20.000Z</time>
      </trkpt>
      <trkpt lat="43.63585" lon="1.26085">
        <ele>189</ele>
        <time>2020-10-03T08:47:21.000Z</time>
      </trkpt>
      <trkpt lat="43.63587" lon="1.26081">
        <ele>189</ele>
        <time>2020-10-03T08:47:22.000Z</time>
      </trkpt>
      <trkpt lat="43.63588" lon="1.26078">
        <ele>189</ele>
        <time>2020-10-03T08:47:23.000Z</time>
      </trkpt>
      <trkpt lat="43.63591" lon="1.26071">
        <ele>189</ele>
        <time>2020-10-03T08:47:25.000Z</time>
      </trkpt>
      <trkpt lat="43.63593" lon="1.26068">
        <ele>189</ele>
        <time>2020-10-03T08:47:26.000Z</time>
      </trkpt>
      <trkpt lat="43.63594" lon="1.26064">
        <ele>189</ele>
        <time>2020-10-03T08:47:27.000Z</time>
      </trkpt>
      <trkpt lat="43.63595" lon="1.26061">
        <ele>189</ele>
        <time>2020-10-03T08:47:28.000Z</time>
      </trkpt>
      <trkpt lat="43.63597" lon="1.26057">
        <ele>189</ele>
        <time>2020-10-03T08:47:29.000Z</time>
      </trkpt>
      <trkpt lat="43.63598" lon="1.26054">
        <ele>189</ele>
        <time>2020-10-03T08:47:30.000Z</time>
      </trkpt>
      <trkpt lat="43.63599" lon="1.2605">
        <ele>189</ele>
        <time>2020-10-03T08:47:31.000Z</time>
      </trkpt>
      <trkpt lat="43.636" lon="1.26047">
        <ele>189</ele>
        <time>2020-10-03T08:47:32.000Z</time>
      </trkpt>
      <trkpt lat="43.63601" lon="1.26043">
        <ele>189</ele>
        <time>2020-10-03T08:47:33.000Z</time>
      </trkpt>
      <trkpt lat="43.63603" lon="1.2604">
        <ele>189</ele>
        <time>2020-10-03T08:47:34.000Z</time>
      </trkpt>
      <trkpt lat="43.63604" lon="1.26037">
        <ele>189</ele>
        <time>2020-10-03T08:47:35.000Z</time>
      </trkpt>
      <trkpt lat="43.63605" lon="1.26033">
        <ele>189</ele>
        <time>2020-10-03T08:47:36.000Z</time>
      </trkpt>
      <trkpt lat="43.63607" lon="1.2603">
        <ele>189</ele>
        <time>2020-10-03T08:47:37.000Z</time>
      </trkpt>
      <trkpt lat="43.63608" lon="1.26027">
        <ele>189</ele>
        <time>2020-10-03T08:47:38.000Z</time>
      </trkpt>
      <trkpt lat="43.63609" lon="1.26023">
        <ele>189</ele>
        <time>2020-10-03T08:47:39.000Z</time>
      </trkpt>
      <trkpt lat="43.6361" lon="1.2602">
        <ele>189</ele>
        <time>2020-10-03T08:47:40.000Z</time>
      </trkpt>
      <trkpt lat="43.63611" lon="1.26017">
        <ele>189.37272653223</ele>
        <time>2020-10-03T08:47:41.000Z</time>
      </trkpt>
      <trkpt lat="43.63612" lon="1.26014">
        <ele>190</ele>
        <time>2020-10-03T08:47:42.000Z</time>
      </trkpt>
      <trkpt lat="43.63613" lon="1.26011">
        <ele>190</ele>
        <time>2020-10-03T08:47:43.000Z</time>
      </trkpt>
      <trkpt lat="43.63615" lon="1.26008">
        <ele>190</ele>
        <time>2020-10-03T08:47:44.000Z</time>
      </trkpt>
      <trkpt lat="43.63616" lon="1.26004">
        <ele>190</ele>
        <time>2020-10-03T08:47:45.000Z</time>
      </trkpt>
      <trkpt lat="43.63617" lon="1.26001">
        <ele>190</ele>
        <time>2020-10-03T08:47:46.000Z</time>
      </trkpt>
      <trkpt lat="43.63618" lon="1.25998">
        <ele>190</ele>
        <time>2020-10-03T08:47:47.000Z</time>
      </trkpt>
      <trkpt lat="43.63619" lon="1.25995">
        <ele>190</ele>
        <time>2020-10-03T08:47:48.000Z</time>
      </trkpt>
      <trkpt lat="43.63621" lon="1.25991">
        <ele>190</ele>
        <time>2020-10-03T08:47:49.000Z</time>
      </trkpt>
      <trkpt lat="43.63622" lon="1.25988">
        <ele>190</ele>
        <time>2020-10-03T08:47:50.000Z</time>
      </trkpt>
      <trkpt lat="43.63623" lon="1.25985">
        <ele>189.62727346777</ele>
        <time>2020-10-03T08:47:51.000Z</time>
      </trkpt>
      <trkpt lat="43.63625" lon="1.25982">
        <ele>189</ele>
        <time>2020-10-03T08:47:52.000Z</time>
      </trkpt>
      <trkpt lat="43.63626" lon="1.25978">
        <ele>189</ele>
        <time>2020-10-03T08:47:53.000Z</time>
      </trkpt>
      <trkpt lat="43.63627" lon="1.25975">
        <ele>189</ele>
        <time>2020-10-03T08:47:54.000Z</time>
      </trkpt>
      <trkpt lat="43.63628" lon="1.25972">
        <ele>189.34444555061</ele>
        <time>2020-10-03T08:47:55.000Z</time>
      </trkpt>
      <trkpt lat="43.63629" lon="1.25968">
        <ele>190</ele>
        <time>2020-10-03T08:47:56.000Z</time>
      </trkpt>
      <trkpt lat="43.6363" lon="1.25965">
        <ele>190</ele>
        <time>2020-10-03T08:47:57.000Z</time>
      </trkpt>
      <trkpt lat="43.63632" lon="1.25962">
        <ele>190</ele>
        <time>2020-10-03T08:47:58.000Z</time>
      </trkpt>
      <trkpt lat="43.63633" lon="1.25959">
        <ele>190</ele>
        <time>2020-10-03T08:47:59.000Z</time>
      </trkpt>
      <trkpt lat="43.63634" lon="1.25956">
        <ele>190</ele>
        <time>2020-10-03T08:48:00.000Z</time>
      </trkpt>
      <trkpt lat="43.63635" lon="1.25952">
        <ele>189.41605703021</ele>
        <time>2020-10-03T08:48:01.000Z</time>
      </trkpt>
      <trkpt lat="43.63637" lon="1.25949">
        <ele>188</ele>
        <time>2020-10-03T08:48:02.000Z</time>
      </trkpt>
      <trkpt lat="43.63638" lon="1.25945">
        <ele>188</ele>
        <time>2020-10-03T08:48:03.000Z</time>
      </trkpt>
      <trkpt lat="43.63639" lon="1.25942">
        <ele>188</ele>
        <time>2020-10-03T08:48:04.000Z</time>
      </trkpt>
      <trkpt lat="43.6364" lon="1.25938">
        <ele>188.15714599181</ele>
        <time>2020-10-03T08:48:05.000Z</time>
      </trkpt>
      <trkpt lat="43.63642" lon="1.25935">
        <ele>189</ele>
        <time>2020-10-03T08:48:06.000Z</time>
      </trkpt>
      <trkpt lat="43.63643" lon="1.25931">
        <ele>189</ele>
        <time>2020-10-03T08:48:07.000Z</time>
      </trkpt>
      <trkpt lat="43.63644" lon="1.25928">
        <ele>189</ele>
        <time>2020-10-03T08:48:08.000Z</time>
      </trkpt>
      <trkpt lat="43.63645" lon="1.25924">
        <ele>189</ele>
        <time>2020-10-03T08:48:09.000Z</time>
      </trkpt>
      <trkpt lat="43.63647" lon="1.25921">
        <ele>189</ele>
        <time>2020-10-03T08:48:10.000Z</time>
      </trkpt>
      <trkpt lat="43.63648" lon="1.25918">
        <ele>189</ele>
        <time>2020-10-03T08:48:11.000Z</time>
      </trkpt>
      <trkpt lat="43.63649" lon="1.25915">
        <ele>189</ele>
        <time>2020-10-03T08:48:12.000Z</time>
      </trkpt>
      <trkpt lat="43.6365" lon="1.25912">
        <ele>188.63636152065</ele>
        <time>2020-10-03T08:48:13.000Z</time>
      </trkpt>
      <trkpt lat="43.63652" lon="1.25908">
        <ele>188</ele>
        <time>2020-10-03T08:48:14.000Z</time>
      </trkpt>
      <trkpt lat="43.63653" lon="1.25905">
        <ele>188</ele>
        <time>2020-10-03T08:48:15.000Z</time>
      </trkpt>
      <trkpt lat="43.63654" lon="1.25902">
        <ele>188</ele>
        <time>2020-10-03T08:48:16.000Z</time>
      </trkpt>
      <trkpt lat="43.63656" lon="1.25898">
        <ele>188</ele>
        <time>2020-10-03T08:48:17.000Z</time>
      </trkpt>
      <trkpt lat="43.63657" lon="1.25895">
        <ele>188</ele>
        <time>2020-10-03T08:48:18.000Z</time>
      </trkpt>
      <trkpt lat="43.63658" lon="1.25892">
        <ele>188.41747753793</ele>
        <time>2020-10-03T08:48:19.000Z</time>
      </trkpt>
      <trkpt lat="43.6366" lon="1.25888">
        <ele>189</ele>
        <time>2020-10-03T08:48:20.000Z</time>
      </trkpt>
      <trkpt lat="43.63661" lon="1.25885">
        <ele>189</ele>
        <time>2020-10-03T08:48:21.000Z</time>
      </trkpt>
      <trkpt lat="43.63662" lon="1.25881">
        <ele>189</ele>
        <time>2020-10-03T08:48:22.000Z</time>
      </trkpt>
      <trkpt lat="43.63664" lon="1.25878">
        <ele>189</ele>
        <time>2020-10-03T08:48:23.000Z</time>
      </trkpt>
      <trkpt lat="43.63665" lon="1.25874">
        <ele>189</ele>
        <time>2020-10-03T08:48:24.000Z</time>
      </trkpt>
      <trkpt lat="43.63666" lon="1.25871">
        <ele>189</ele>
        <time>2020-10-03T08:48:25.000Z</time>
      </trkpt>
      <trkpt lat="43.63667" lon="1.25867">
        <ele>189</ele>
        <time>2020-10-03T08:48:26.000Z</time>
      </trkpt>
      <trkpt lat="43.63669" lon="1.25864">
        <ele>189</ele>
        <time>2020-10-03T08:48:27.000Z</time>
      </trkpt>
      <trkpt lat="43.6367" lon="1.25861">
        <ele>189</ele>
        <time>2020-10-03T08:48:28.000Z</time>
      </trkpt>
      <trkpt lat="43.63671" lon="1.25857">
        <ele>189</ele>
        <time>2020-10-03T08:48:29.000Z</time>
      </trkpt>
      <trkpt lat="43.63672" lon="1.25854">
        <ele>189</ele>
        <time>2020-10-03T08:48:30.000Z</time>
      </trkpt>
      <trkpt lat="43.63673" lon="1.2585">
        <ele>189</ele>
        <time>2020-10-03T08:48:31.000Z</time>
      </trkpt>
      <trkpt lat="43.63675" lon="1.25847">
        <ele>189</ele>
        <time>2020-10-03T08:48:32.000Z</time>
      </trkpt>
      <trkpt lat="43.63676" lon="1.25843">
        <ele>189</ele>
        <time>2020-10-03T08:48:33.000Z</time>
      </trkpt>
      <trkpt lat="43.63677" lon="1.2584">
        <ele>189</ele>
        <time>2020-10-03T08:48:34.000Z</time>
      </trkpt>
      <trkpt lat="43.63678" lon="1.25837">
        <ele>189</ele>
        <time>2020-10-03T08:48:35.000Z</time>
      </trkpt>
      <trkpt lat="43.6368" lon="1.25834">
        <ele>189</ele>
        <time>2020-10-03T08:48:36.000Z</time>
      </trkpt>
      <trkpt lat="43.63681" lon="1.25831">
        <ele>189</ele>
        <time>2020-10-03T08:48:37.000Z</time>
      </trkpt>
      <trkpt lat="43.63682" lon="1.25828">
        <ele>188.61403725453</ele>
        <time>2020-10-03T08:48:38.000Z</time>
      </trkpt>
      <trkpt lat="43.63684" lon="1.25824">
        <ele>188</ele>
        <time>2020-10-03T08:48:39.000Z</time>
      </trkpt>
      <trkpt lat="43.63685" lon="1.25821">
        <ele>188</ele>
        <time>2020-10-03T08:48:40.000Z</time>
      </trkpt>
      <trkpt lat="43.63686" lon="1.25817">
        <ele>188.14062</ele>
        <time>2020-10-03T08:48:41.000Z</time>
      </trkpt>
      <trkpt lat="43.63687" lon="1.25814">
        <ele>189</ele>
        <time>2020-10-03T08:48:42.000Z</time>
      </trkpt>
      <trkpt lat="43.63688" lon="1.2581">
        <ele>189</ele>
        <time>2020-10-03T08:48:43.000Z</time>
      </trkpt>
      <trkpt lat="43.6369" lon="1.25807">
        <ele>189</ele>
        <time>2020-10-03T08:48:44.000Z</time>
      </trkpt>
      <trkpt lat="43.63691" lon="1.25803">
        <ele>189</ele>
        <time>2020-10-03T08:48:45.000Z</time>
      </trkpt>
      <trkpt lat="43.63692" lon="1.258">
        <ele>189</ele>
        <time>2020-10-03T08:48:46.000Z</time>
      </trkpt>
      <trkpt lat="43.63693" lon="1.25796">
        <ele>189</ele>
        <time>2020-10-03T08:48:47.000Z</time>
      </trkpt>
      <trkpt lat="43.63694" lon="1.25793">
        <ele>188.57843088043</ele>
        <time>2020-10-03T08:48:48.000Z</time>
      </trkpt>
      <trkpt lat="43.63696" lon="1.25789">
        <ele>188</ele>
        <time>2020-10-03T08:48:49.000Z</time>
      </trkpt>
      <trkpt lat="43.63697" lon="1.25786">
        <ele>188</ele>
        <time>2020-10-03T08:48:50.000Z</time>
      </trkpt>
      <trkpt lat="43.63698" lon="1.25782">
        <ele>188</ele>
        <time>2020-10-03T08:48:51.000Z</time>
      </trkpt>
      <trkpt lat="43.63699" lon="1.25779">
        <ele>188</ele>
        <time>2020-10-03T08:48:52.000Z</time>
      </trkpt>
      <trkpt lat="43.63701" lon="1.25776">
        <ele>188</ele>
        <time>2020-10-03T08:48:53.000Z</time>
      </trkpt>
      <trkpt lat="43.63702" lon="1.25772">
        <ele>188.43103372175</ele>
        <time>2020-10-03T08:48:54.000Z</time>
      </trkpt>
      <trkpt lat="43.63703" lon="1.25769">
        <ele>189</ele>
        <time>2020-10-03T08:48:55.000Z</time>
      </trkpt>
      <trkpt lat="43.63704" lon="1.25765">
        <ele>189</ele>
        <time>2020-10-03T08:48:56.000Z</time>
      </trkpt>
      <trkpt lat="43.63705" lon="1.25762">
        <ele>189.34545073717</ele>
        <time>2020-10-03T08:48:57.000Z</time>
      </trkpt>
      <trkpt lat="43.63706" lon="1.25758">
        <ele>190</ele>
        <time>2020-10-03T08:48:58.000Z</time>
      </trkpt>
      <trkpt lat="43.63708" lon="1.25751">
        <ele>190</ele>
        <time>2020-10-03T08:49:00.000Z</time>
      </trkpt>
      <trkpt lat="43.63709" lon="1.25747">
        <ele>190</ele>
        <time>2020-10-03T08:49:01.000Z</time>
      </trkpt>
      <trkpt lat="43.6371" lon="1.25744">
        <ele>189.65741037037</ele>
        <time>2020-10-03T08:49:02.000Z</time>
      </trkpt>
      <trkpt lat="43.6371" lon="1.2574">
        <ele>189</ele>
        <time>2020-10-03T08:49:03.000Z</time>
      </trkpt>
      <trkpt lat="43.63711" lon="1.25737">
        <ele>189</ele>
        <time>2020-10-03T08:49:04.000Z</time>
      </trkpt>
      <trkpt lat="43.63712" lon="1.25733">
        <ele>189</ele>
        <time>2020-10-03T08:49:05.000Z</time>
      </trkpt>
      <trkpt lat="43.63713" lon="1.2573">
        <ele>189</ele>
        <time>2020-10-03T08:49:06.000Z</time>
      </trkpt>
      <trkpt lat="43.63713" lon="1.25726">
        <ele>189</ele>
        <time>2020-10-03T08:49:07.000Z</time>
      </trkpt>
      <trkpt lat="43.63714" lon="1.25723">
        <ele>189</ele>
        <time>2020-10-03T08:49:08.000Z</time>
      </trkpt>
      <trkpt lat="43.63714" lon="1.25719">
        <ele>189</ele>
        <time>2020-10-03T08:49:09.000Z</time>
      </trkpt>
      <trkpt lat="43.63714" lon="1.25716">
        <ele>189</ele>
        <time>2020-10-03T08:49:10.000Z</time>
      </trkpt>
      <trkpt lat="43.63714" lon="1.25712">
        <ele>189</ele>
        <time>2020-10-03T08:49:11.000Z</time>
      </trkpt>
      <trkpt lat="43.63714" lon="1.25708">
        <ele>189</ele>
        <time>2020-10-03T08:49:12.000Z</time>
      </trkpt>
      <trkpt lat="43.63714" lon="1.25705">
        <ele>189</ele>
        <time>2020-10-03T08:49:13.000Z</time>
      </trkpt>
      <trkpt lat="43.63714" lon="1.25701">
        <ele>189</ele>
        <time>2020-10-03T08:49:14.000Z</time>
      </trkpt>
      <trkpt lat="43.63714" lon="1.25697">
        <ele>189</ele>
        <time>2020-10-03T08:49:15.000Z</time>
      </trkpt>
      <trkpt lat="43.63714" lon="1.25693">
        <ele>189</ele>
        <time>2020-10-03T08:49:16.000Z</time>
      </trkpt>
      <trkpt lat="43.63714" lon="1.2569">
        <ele>189</ele>
        <time>2020-10-03T08:49:17.000Z</time>
      </trkpt>
      <trkpt lat="43.63713" lon="1.25682">
        <ele>189</ele>
        <time>2020-10-03T08:49:19.000Z</time>
      </trkpt>
      <trkpt lat="43.63713" lon="1.25678">
        <ele>189</ele>
        <time>2020-10-03T08:49:20.000Z</time>
      </trkpt>
      <trkpt lat="43.63713" lon="1.25675">
        <ele>189</ele>
        <time>2020-10-03T08:49:21.000Z</time>
      </trkpt>
      <trkpt lat="43.63713" lon="1.25671">
        <ele>189</ele>
        <time>2020-10-03T08:49:22.000Z</time>
      </trkpt>
      <trkpt lat="43.63713" lon="1.25667">
        <ele>189</ele>
        <time>2020-10-03T08:49:23.000Z</time>
      </trkpt>
      <trkpt lat="43.63713" lon="1.25663">
        <ele>189</ele>
        <time>2020-10-03T08:49:24.000Z</time>
      </trkpt>
      <trkpt lat="43.63713" lon="1.25659">
        <ele>189</ele>
        <time>2020-10-03T08:49:25.000Z</time>
      </trkpt>
      <trkpt lat="43.63713" lon="1.25656">
        <ele>189</ele>
        <time>2020-10-03T08:49:26.000Z</time>
      </trkpt>
      <trkpt lat="43.63713" lon="1.25652">
        <ele>189</ele>
        <time>2020-10-03T08:49:27.000Z</time>
      </trkpt>
      <trkpt lat="43.63713" lon="1.25648">
        <ele>189</ele>
        <time>2020-10-03T08:49:28.000Z</time>
      </trkpt>
      <trkpt lat="43.63713" lon="1.25645">
        <ele>189</ele>
        <time>2020-10-03T08:49:29.000Z</time>
      </trkpt>
      <trkpt lat="43.63712" lon="1.25641">
        <ele>189.44444760496</ele>
        <time>2020-10-03T08:49:30.000Z</time>
      </trkpt>
      <trkpt lat="43.63712" lon="1.25637">
        <ele>190</ele>
        <time>2020-10-03T08:49:31.000Z</time>
      </trkpt>
      <trkpt lat="43.63712" lon="1.25633">
        <ele>190</ele>
        <time>2020-10-03T08:49:32.000Z</time>
      </trkpt>
      <trkpt lat="43.63712" lon="1.25629">
        <ele>190</ele>
        <time>2020-10-03T08:49:33.000Z</time>
      </trkpt>
      <trkpt lat="43.63712" lon="1.25625">
        <ele>190</ele>
        <time>2020-10-03T08:49:34.000Z</time>
      </trkpt>
      <trkpt lat="43.63712" lon="1.25621">
        <ele>190</ele>
        <time>2020-10-03T08:49:35.000Z</time>
      </trkpt>
      <trkpt lat="43.63712" lon="1.25617">
        <ele>190</ele>
        <time>2020-10-03T08:49:36.000Z</time>
      </trkpt>
      <trkpt lat="43.63712" lon="1.25613">
        <ele>190</ele>
        <time>2020-10-03T08:49:37.000Z</time>
      </trkpt>
      <trkpt lat="43.63711" lon="1.2561">
        <ele>190</ele>
        <time>2020-10-03T08:49:38.000Z</time>
      </trkpt>
      <trkpt lat="43.63711" lon="1.25606">
        <ele>190</ele>
        <time>2020-10-03T08:49:39.000Z</time>
      </trkpt>
      <trkpt lat="43.63711" lon="1.25602">
        <ele>189.54955141954</ele>
        <time>2020-10-03T08:49:40.000Z</time>
      </trkpt>
      <trkpt lat="43.6371" lon="1.25598">
        <ele>189</ele>
        <time>2020-10-03T08:49:41.000Z</time>
      </trkpt>
      <trkpt lat="43.6371" lon="1.25594">
        <ele>189</ele>
        <time>2020-10-03T08:49:42.000Z</time>
      </trkpt>
      <trkpt lat="43.6371" lon="1.2559">
        <ele>189</ele>
        <time>2020-10-03T08:49:43.000Z</time>
      </trkpt>
      <trkpt lat="43.6371" lon="1.25587">
        <ele>189</ele>
        <time>2020-10-03T08:49:44.000Z</time>
      </trkpt>
      <trkpt lat="43.6371" lon="1.25583">
        <ele>189</ele>
        <time>2020-10-03T08:49:45.000Z</time>
      </trkpt>
      <trkpt lat="43.6371" lon="1.2558">
        <ele>189</ele>
        <time>2020-10-03T08:49:46.000Z</time>
      </trkpt>
      <trkpt lat="43.6371" lon="1.25576">
        <ele>189</ele>
        <time>2020-10-03T08:49:47.000Z</time>
      </trkpt>
      <trkpt lat="43.6371" lon="1.25572">
        <ele>189</ele>
        <time>2020-10-03T08:49:48.000Z</time>
      </trkpt>
      <trkpt lat="43.63709" lon="1.25569">
        <ele>189</ele>
        <time>2020-10-03T08:49:49.000Z</time>
      </trkpt>
      <trkpt lat="43.63709" lon="1.25565">
        <ele>189</ele>
        <time>2020-10-03T08:49:50.000Z</time>
      </trkpt>
      <trkpt lat="43.63709" lon="1.25561">
        <ele>189</ele>
        <time>2020-10-03T08:49:51.000Z</time>
      </trkpt>
      <trkpt lat="43.63709" lon="1.25558">
        <ele>189</ele>
        <time>2020-10-03T08:49:52.000Z</time>
      </trkpt>
      <trkpt lat="43.63709" lon="1.25554">
        <ele>189</ele>
        <time>2020-10-03T08:49:53.000Z</time>
      </trkpt>
      <trkpt lat="43.63709" lon="1.2555">
        <ele>189</ele>
        <time>2020-10-03T08:49:54.000Z</time>
      </trkpt>
      <trkpt lat="43.63709" lon="1.25546">
        <ele>189</ele>
        <time>2020-10-03T08:49:55.000Z</time>
      </trkpt>
      <trkpt lat="43.63709" lon="1.25542">
        <ele>189.28571903519</ele>
        <time>2020-10-03T08:49:56.000Z</time>
      </trkpt>
      <trkpt lat="43.63709" lon="1.25538">
        <ele>190</ele>
        <time>2020-10-03T08:49:57.000Z</time>
      </trkpt>
      <trkpt lat="43.63709" lon="1.25535">
        <ele>190</ele>
        <time>2020-10-03T08:49:58.000Z</time>
      </trkpt>
      <trkpt lat="43.63709" lon="1.25531">
        <ele>190</ele>
        <time>2020-10-03T08:49:59.000Z</time>
      </trkpt>
      <trkpt lat="43.63709" lon="1.25528">
        <ele>190</ele>
        <time>2020-10-03T08:50:00.000Z</time>
      </trkpt>
      <trkpt lat="43.63709" lon="1.25524">
        <ele>189.55356571429</ele>
        <time>2020-10-03T08:50:01.000Z</time>
      </trkpt>
      <trkpt lat="43.63709" lon="1.2552">
        <ele>189</ele>
        <time>2020-10-03T08:50:02.000Z</time>
      </trkpt>
      <trkpt lat="43.63709" lon="1.25517">
        <ele>189</ele>
        <time>2020-10-03T08:50:03.000Z</time>
      </trkpt>
      <trkpt lat="43.63709" lon="1.25513">
        <ele>189.37272653223</ele>
        <time>2020-10-03T08:50:04.000Z</time>
      </trkpt>
      <trkpt lat="43.63709" lon="1.25509">
        <ele>190</ele>
        <time>2020-10-03T08:50:05.000Z</time>
      </trkpt>
      <trkpt lat="43.6371" lon="1.25505">
        <ele>190</ele>
        <time>2020-10-03T08:50:06.000Z</time>
      </trkpt>
      <trkpt lat="43.6371" lon="1.25501">
        <ele>190</ele>
        <time>2020-10-03T08:50:07.000Z</time>
      </trkpt>
      <trkpt lat="43.63711" lon="1.25498">
        <ele>190</ele>
        <time>2020-10-03T08:50:08.000Z</time>
      </trkpt>
      <trkpt lat="43.63711" lon="1.25494">
        <ele>190</ele>
        <time>2020-10-03T08:50:09.000Z</time>
      </trkpt>
      <trkpt lat="43.63711" lon="1.2549">
        <ele>190</ele>
        <time>2020-10-03T08:50:10.000Z</time>
      </trkpt>
      <trkpt lat="43.63712" lon="1.25486">
        <ele>190</ele>
        <time>2020-10-03T08:50:11.000Z</time>
      </trkpt>
      <trkpt lat="43.63712" lon="1.25483">
        <ele>190</ele>
        <time>2020-10-03T08:50:12.000Z</time>
      </trkpt>
      <trkpt lat="43.63713" lon="1.25479">
        <ele>190</ele>
        <time>2020-10-03T08:50:13.000Z</time>
      </trkpt>
      <trkpt lat="43.63713" lon="1.25475">
        <ele>190</ele>
        <time>2020-10-03T08:50:14.000Z</time>
      </trkpt>
      <trkpt lat="43.63713" lon="1.25472">
        <ele>189.93506882106</ele>
        <time>2020-10-03T08:50:15.000Z</time>
      </trkpt>
      <trkpt lat="43.63714" lon="1.25468">
        <ele>189</ele>
        <time>2020-10-03T08:50:16.000Z</time>
      </trkpt>
      <trkpt lat="43.63714" lon="1.25464">
        <ele>189</ele>
        <time>2020-10-03T08:50:17.000Z</time>
      </trkpt>
      <trkpt lat="43.63715" lon="1.25461">
        <ele>189</ele>
        <time>2020-10-03T08:50:18.000Z</time>
      </trkpt>
      <trkpt lat="43.63715" lon="1.25457">
        <ele>189.37272653223</ele>
        <time>2020-10-03T08:50:19.000Z</time>
      </trkpt>
      <trkpt lat="43.63715" lon="1.25453">
        <ele>190</ele>
        <time>2020-10-03T08:50:20.000Z</time>
      </trkpt>
      <trkpt lat="43.63715" lon="1.2545">
        <ele>190</ele>
        <time>2020-10-03T08:50:21.000Z</time>
      </trkpt>
      <trkpt lat="43.63716" lon="1.25446">
        <ele>190</ele>
        <time>2020-10-03T08:50:22.000Z</time>
      </trkpt>
      <trkpt lat="43.63716" lon="1.25442">
        <ele>190</ele>
        <time>2020-10-03T08:50:23.000Z</time>
      </trkpt>
      <trkpt lat="43.63716" lon="1.25438">
        <ele>190</ele>
        <time>2020-10-03T08:50:24.000Z</time>
      </trkpt>
      <trkpt lat="43.63716" lon="1.25435">
        <ele>190</ele>
        <time>2020-10-03T08:50:25.000Z</time>
      </trkpt>
      <trkpt lat="43.63716" lon="1.25431">
        <ele>190.45044858046</ele>
        <time>2020-10-03T08:50:26.000Z</time>
      </trkpt>
      <trkpt lat="43.63716" lon="1.25428">
        <ele>191</ele>
        <time>2020-10-03T08:50:27.000Z</time>
      </trkpt>
      <trkpt lat="43.63717" lon="1.25424">
        <ele>191</ele>
        <time>2020-10-03T08:50:28.000Z</time>
      </trkpt>
      <trkpt lat="43.63717" lon="1.25421">
        <ele>191</ele>
        <time>2020-10-03T08:50:29.000Z</time>
      </trkpt>
      <trkpt lat="43.63718" lon="1.25417">
        <ele>191</ele>
        <time>2020-10-03T08:50:30.000Z</time>
      </trkpt>
      <trkpt lat="43.63718" lon="1.25413">
        <ele>191</ele>
        <time>2020-10-03T08:50:31.000Z</time>
      </trkpt>
      <trkpt lat="43.63719" lon="1.2541">
        <ele>191</ele>
        <time>2020-10-03T08:50:32.000Z</time>
      </trkpt>
      <trkpt lat="43.63719" lon="1.25406">
        <ele>191</ele>
        <time>2020-10-03T08:50:33.000Z</time>
      </trkpt>
      <trkpt lat="43.6372" lon="1.25399">
        <ele>191</ele>
        <time>2020-10-03T08:50:35.000Z</time>
      </trkpt>
      <trkpt lat="43.6372" lon="1.25396">
        <ele>191</ele>
        <time>2020-10-03T08:50:36.000Z</time>
      </trkpt>
      <trkpt lat="43.63721" lon="1.25393">
        <ele>191</ele>
        <time>2020-10-03T08:50:37.000Z</time>
      </trkpt>
      <trkpt lat="43.63721" lon="1.25389">
        <ele>191</ele>
        <time>2020-10-03T08:50:38.000Z</time>
      </trkpt>
      <trkpt lat="43.63722" lon="1.25385">
        <ele>191</ele>
        <time>2020-10-03T08:50:39.000Z</time>
      </trkpt>
      <trkpt lat="43.63722" lon="1.25381">
        <ele>191</ele>
        <time>2020-10-03T08:50:40.000Z</time>
      </trkpt>
      <trkpt lat="43.63723" lon="1.25378">
        <ele>191</ele>
        <time>2020-10-03T08:50:41.000Z</time>
      </trkpt>
      <trkpt lat="43.63723" lon="1.25376">
        <ele>191</ele>
        <time>2020-10-03T08:50:42.000Z</time>
      </trkpt>
      <trkpt lat="43.63723" lon="1.25373">
        <ele>191</ele>
        <time>2020-10-03T08:50:44.000Z</time>
      </trkpt>
      <trkpt lat="43.63723" lon="1.2537">
        <ele>191</ele>
        <time>2020-10-03T08:50:48.000Z</time>
      </trkpt>
      <trkpt lat="43.63723" lon="1.25368">
        <ele>191</ele>
        <time>2020-10-03T08:50:50.000Z</time>
      </trkpt>
      <trkpt lat="43.63723" lon="1.25365">
        <ele>191</ele>
        <time>2020-10-03T08:50:54.000Z</time>
      </trkpt>
      <trkpt lat="43.63724" lon="1.25362">
        <ele>191</ele>
        <time>2020-10-03T08:50:55.000Z</time>
      </trkpt>
      <trkpt lat="43.63724" lon="1.25359">
        <ele>191</ele>
        <time>2020-10-03T08:50:56.000Z</time>
      </trkpt>
      <trkpt lat="43.63725" lon="1.25356">
        <ele>191</ele>
        <time>2020-10-03T08:50:57.000Z</time>
      </trkpt>
      <trkpt lat="43.63725" lon="1.25352">
        <ele>191</ele>
        <time>2020-10-03T08:50:58.000Z</time>
      </trkpt>
      <trkpt lat="43.63725" lon="1.25349">
        <ele>190.65811872306</ele>
        <time>2020-10-03T08:50:59.000Z</time>
      </trkpt>
      <trkpt lat="43.63725" lon="1.25345">
        <ele>190</ele>
        <time>2020-10-03T08:51:00.000Z</time>
      </trkpt>
      <trkpt lat="43.63726" lon="1.25342">
        <ele>190</ele>
        <time>2020-10-03T08:51:01.000Z</time>
      </trkpt>
      <trkpt lat="43.63727" lon="1.25338">
        <ele>190</ele>
        <time>2020-10-03T08:51:02.000Z</time>
      </trkpt>
      <trkpt lat="43.63728" lon="1.25334">
        <ele>190</ele>
        <time>2020-10-03T08:51:03.000Z</time>
      </trkpt>
      <trkpt lat="43.6373" lon="1.2533">
        <ele>190</ele>
        <time>2020-10-03T08:51:04.000Z</time>
      </trkpt>
      <trkpt lat="43.63731" lon="1.25326">
        <ele>190</ele>
        <time>2020-10-03T08:51:05.000Z</time>
      </trkpt>
      <trkpt lat="43.63732" lon="1.25322">
        <ele>190</ele>
        <time>2020-10-03T08:51:06.000Z</time>
      </trkpt>
      <trkpt lat="43.63734" lon="1.25318">
        <ele>189.63094857143</ele>
        <time>2020-10-03T08:51:07.000Z</time>
      </trkpt>
      <trkpt lat="43.63736" lon="1.25315">
        <ele>189</ele>
        <time>2020-10-03T08:51:08.000Z</time>
      </trkpt>
      <trkpt lat="43.63738" lon="1.25313">
        <ele>189</ele>
        <time>2020-10-03T08:51:09.000Z</time>
      </trkpt>
      <trkpt lat="43.6374" lon="1.25311">
        <ele>189</ele>
        <time>2020-10-03T08:51:10.000Z</time>
      </trkpt>
      <trkpt lat="43.63742" lon="1.25309">
        <ele>189.29710050829</ele>
        <time>2020-10-03T08:51:11.000Z</time>
      </trkpt>
      <trkpt lat="43.63746" lon="1.25305">
        <ele>190</ele>
        <time>2020-10-03T08:51:13.000Z</time>
      </trkpt>
      <trkpt lat="43.63749" lon="1.25303">
        <ele>190</ele>
        <time>2020-10-03T08:51:14.000Z</time>
      </trkpt>
      <trkpt lat="43.63751" lon="1.253">
        <ele>190</ele>
        <time>2020-10-03T08:51:15.000Z</time>
      </trkpt>
      <trkpt lat="43.63753" lon="1.25297">
        <ele>190</ele>
        <time>2020-10-03T08:51:16.000Z</time>
      </trkpt>
      <trkpt lat="43.63755" lon="1.25293">
        <ele>190</ele>
        <time>2020-10-03T08:51:17.000Z</time>
      </trkpt>
      <trkpt lat="43.63757" lon="1.2529">
        <ele>190</ele>
        <time>2020-10-03T08:51:18.000Z</time>
      </trkpt>
      <trkpt lat="43.63759" lon="1.25286">
        <ele>190</ele>
        <time>2020-10-03T08:51:19.000Z</time>
      </trkpt>
      <trkpt lat="43.63761" lon="1.25281">
        <ele>190</ele>
        <time>2020-10-03T08:51:20.000Z</time>
      </trkpt>
      <trkpt lat="43.63763" lon="1.25277">
        <ele>190</ele>
        <time>2020-10-03T08:51:21.000Z</time>
      </trkpt>
      <trkpt lat="43.63764" lon="1.25273">
        <ele>190</ele>
        <time>2020-10-03T08:51:22.000Z</time>
      </trkpt>
      <trkpt lat="43.63766" lon="1.25269">
        <ele>190</ele>
        <time>2020-10-03T08:51:23.000Z</time>
      </trkpt>
      <trkpt lat="43.63767" lon="1.25266">
        <ele>190</ele>
        <time>2020-10-03T08:51:24.000Z</time>
      </trkpt>
      <trkpt lat="43.63769" lon="1.25262">
        <ele>190</ele>
        <time>2020-10-03T08:51:25.000Z</time>
      </trkpt>
      <trkpt lat="43.6377" lon="1.25259">
        <ele>190.37272653223</ele>
        <time>2020-10-03T08:51:26.000Z</time>
      </trkpt>
      <trkpt lat="43.63772" lon="1.25255">
        <ele>191</ele>
        <time>2020-10-03T08:51:27.000Z</time>
      </trkpt>
      <trkpt lat="43.63772" lon="1.25252">
        <ele>191</ele>
        <time>2020-10-03T08:51:28.000Z</time>
      </trkpt>
      <trkpt lat="43.63773" lon="1.25248">
        <ele>191</ele>
        <time>2020-10-03T08:51:29.000Z</time>
      </trkpt>
      <trkpt lat="43.63774" lon="1.25244">
        <ele>191</ele>
        <time>2020-10-03T08:51:30.000Z</time>
      </trkpt>
      <trkpt lat="43.63776" lon="1.25239">
        <ele>191</ele>
        <time>2020-10-03T08:51:31.000Z</time>
      </trkpt>
      <trkpt lat="43.63778" lon="1.25236">
        <ele>191</ele>
        <time>2020-10-03T08:51:32.000Z</time>
      </trkpt>
      <trkpt lat="43.63779" lon="1.25231">
        <ele>191</ele>
        <time>2020-10-03T08:51:33.000Z</time>
      </trkpt>
      <trkpt lat="43.6378" lon="1.25227">
        <ele>191</ele>
        <time>2020-10-03T08:51:34.000Z</time>
      </trkpt>
      <trkpt lat="43.63781" lon="1.25223">
        <ele>190.62352799446</ele>
        <time>2020-10-03T08:51:35.000Z</time>
      </trkpt>
      <trkpt lat="43.63783" lon="1.25218">
        <ele>190</ele>
        <time>2020-10-03T08:51:36.000Z</time>
      </trkpt>
      <trkpt lat="43.63784" lon="1.25214">
        <ele>190</ele>
        <time>2020-10-03T08:51:37.000Z</time>
      </trkpt>
      <trkpt lat="43.63786" lon="1.25209">
        <ele>189.58974246767</ele>
        <time>2020-10-03T08:51:38.000Z</time>
      </trkpt>
      <trkpt lat="43.63787" lon="1.25205">
        <ele>189</ele>
        <time>2020-10-03T08:51:39.000Z</time>
      </trkpt>
      <trkpt lat="43.63788" lon="1.25201">
        <ele>189</ele>
        <time>2020-10-03T08:51:40.000Z</time>
      </trkpt>
      <trkpt lat="43.6379" lon="1.25197">
        <ele>189.35714068024</ele>
        <time>2020-10-03T08:51:41.000Z</time>
      </trkpt>
      <trkpt lat="43.63791" lon="1.25192">
        <ele>190</ele>
        <time>2020-10-03T08:51:42.000Z</time>
      </trkpt>
      <trkpt lat="43.63792" lon="1.25189">
        <ele>190</ele>
        <time>2020-10-03T08:51:43.000Z</time>
      </trkpt>
      <trkpt lat="43.63793" lon="1.25185">
        <ele>190</ele>
        <time>2020-10-03T08:51:44.000Z</time>
      </trkpt>
      <trkpt lat="43.63794" lon="1.25181">
        <ele>190</ele>
        <time>2020-10-03T08:51:45.000Z</time>
      </trkpt>
      <trkpt lat="43.63796" lon="1.25177">
        <ele>190</ele>
        <time>2020-10-03T08:51:46.000Z</time>
      </trkpt>
      <trkpt lat="43.63797" lon="1.25174">
        <ele>190</ele>
        <time>2020-10-03T08:51:47.000Z</time>
      </trkpt>
      <trkpt lat="43.63799" lon="1.2517">
        <ele>190</ele>
        <time>2020-10-03T08:51:48.000Z</time>
      </trkpt>
      <trkpt lat="43.63801" lon="1.25167">
        <ele>190</ele>
        <time>2020-10-03T08:51:49.000Z</time>
      </trkpt>
      <trkpt lat="43.63805" lon="1.25161">
        <ele>190</ele>
        <time>2020-10-03T08:51:51.000Z</time>
      </trkpt>
      <trkpt lat="43.63808" lon="1.25158">
        <ele>190</ele>
        <time>2020-10-03T08:51:52.000Z</time>
      </trkpt>
      <trkpt lat="43.63809" lon="1.25156">
        <ele>190</ele>
        <time>2020-10-03T08:51:53.000Z</time>
      </trkpt>
      <trkpt lat="43.63812" lon="1.25153">
        <ele>190</ele>
        <time>2020-10-03T08:51:54.000Z</time>
      </trkpt>
      <trkpt lat="43.63813" lon="1.2515">
        <ele>190</ele>
        <time>2020-10-03T08:51:55.000Z</time>
      </trkpt>
      <trkpt lat="43.63815" lon="1.25147">
        <ele>190</ele>
        <time>2020-10-03T08:51:56.000Z</time>
      </trkpt>
      <trkpt lat="43.63818" lon="1.25145">
        <ele>190</ele>
        <time>2020-10-03T08:51:57.000Z</time>
      </trkpt>
      <trkpt lat="43.6382" lon="1.25142">
        <ele>190</ele>
        <time>2020-10-03T08:51:58.000Z</time>
      </trkpt>
      <trkpt lat="43.63822" lon="1.25139">
        <ele>190</ele>
        <time>2020-10-03T08:51:59.000Z</time>
      </trkpt>
      <trkpt lat="43.63824" lon="1.25136">
        <ele>190</ele>
        <time>2020-10-03T08:52:00.000Z</time>
      </trkpt>
      <trkpt lat="43.63826" lon="1.25133">
        <ele>190</ele>
        <time>2020-10-03T08:52:01.000Z</time>
      </trkpt>
      <trkpt lat="43.63828" lon="1.2513">
        <ele>189.55102334026</ele>
        <time>2020-10-03T08:52:02.000Z</time>
      </trkpt>
      <trkpt lat="43.6383" lon="1.25126">
        <ele>189</ele>
        <time>2020-10-03T08:52:03.000Z</time>
      </trkpt>
      <trkpt lat="43.63832" lon="1.25123">
        <ele>189</ele>
        <time>2020-10-03T08:52:04.000Z</time>
      </trkpt>
      <trkpt lat="43.63834" lon="1.2512">
        <ele>189</ele>
        <time>2020-10-03T08:52:05.000Z</time>
      </trkpt>
      <trkpt lat="43.63836" lon="1.25116">
        <ele>189</ele>
        <time>2020-10-03T08:52:06.000Z</time>
      </trkpt>
      <trkpt lat="43.63838" lon="1.25113">
        <ele>189</ele>
        <time>2020-10-03T08:52:07.000Z</time>
      </trkpt>
      <trkpt lat="43.6384" lon="1.2511">
        <ele>189.25926101509</ele>
        <time>2020-10-03T08:52:08.000Z</time>
      </trkpt>
      <trkpt lat="43.63842" lon="1.25106">
        <ele>190</ele>
        <time>2020-10-03T08:52:09.000Z</time>
      </trkpt>
      <trkpt lat="43.63844" lon="1.25103">
        <ele>190</ele>
        <time>2020-10-03T08:52:10.000Z</time>
      </trkpt>
      <trkpt lat="43.63845" lon="1.25101">
        <ele>190</ele>
        <time>2020-10-03T08:52:11.000Z</time>
      </trkpt>
      <trkpt lat="43.63846" lon="1.25099">
        <ele>190</ele>
        <time>2020-10-03T08:52:12.000Z</time>
      </trkpt>
      <trkpt lat="43.63847" lon="1.25095">
        <ele>190</ele>
        <time>2020-10-03T08:52:14.000Z</time>
      </trkpt>
      <trkpt lat="43.63848" lon="1.25093">
        <ele>190</ele>
        <time>2020-10-03T08:52:15.000Z</time>
      </trkpt>
      <trkpt lat="43.6385" lon="1.25091">
        <ele>190</ele>
        <time>2020-10-03T08:52:16.000Z</time>
      </trkpt>
      <trkpt lat="43.6385" lon="1.25089">
        <ele>189.63302644558</ele>
        <time>2020-10-03T08:52:17.000Z</time>
      </trkpt>
      <trkpt lat="43.6385" lon="1.25086">
        <ele>189</ele>
        <time>2020-10-03T08:52:18.000Z</time>
      </trkpt>
      <trkpt lat="43.63848" lon="1.25083">
        <ele>189</ele>
        <time>2020-10-03T08:52:19.000Z</time>
      </trkpt>
      <trkpt lat="43.63846" lon="1.2508">
        <ele>189</ele>
        <time>2020-10-03T08:52:20.000Z</time>
      </trkpt>
      <trkpt lat="43.63844" lon="1.25078">
        <ele>189</ele>
        <time>2020-10-03T08:52:21.000Z</time>
      </trkpt>
      <trkpt lat="43.63842" lon="1.25076">
        <ele>189</ele>
        <time>2020-10-03T08:52:22.000Z</time>
      </trkpt>
      <trkpt lat="43.63841" lon="1.25074">
        <ele>189</ele>
        <time>2020-10-03T08:52:23.000Z</time>
      </trkpt>
      <trkpt lat="43.63839" lon="1.25072">
        <ele>189</ele>
        <time>2020-10-03T08:52:24.000Z</time>
      </trkpt>
      <trkpt lat="43.63837" lon="1.25069">
        <ele>189</ele>
        <time>2020-10-03T08:52:25.000Z</time>
      </trkpt>
      <trkpt lat="43.63835" lon="1.25066">
        <ele>189</ele>
        <time>2020-10-03T08:52:26.000Z</time>
      </trkpt>
      <trkpt lat="43.63833" lon="1.25063">
        <ele>189</ele>
        <time>2020-10-03T08:52:27.000Z</time>
      </trkpt>
      <trkpt lat="43.63831" lon="1.2506">
        <ele>189</ele>
        <time>2020-10-03T08:52:28.000Z</time>
      </trkpt>
      <trkpt lat="43.6383" lon="1.25058">
        <ele>189</ele>
        <time>2020-10-03T08:52:29.000Z</time>
      </trkpt>
      <trkpt lat="43.63829" lon="1.25055">
        <ele>189</ele>
        <time>2020-10-03T08:52:30.000Z</time>
      </trkpt>
      <trkpt lat="43.63827" lon="1.25052">
        <ele>189.42307692308</ele>
        <time>2020-10-03T08:52:31.000Z</time>
      </trkpt>
      <trkpt lat="43.63825" lon="1.2505">
        <ele>190</ele>
        <time>2020-10-03T08:52:32.000Z</time>
      </trkpt>
      <trkpt lat="43.63824" lon="1.25047">
        <ele>190</ele>
        <time>2020-10-03T08:52:33.000Z</time>
      </trkpt>
      <trkpt lat="43.63822" lon="1.25044">
        <ele>190</ele>
        <time>2020-10-03T08:52:34.000Z</time>
      </trkpt>
      <trkpt lat="43.63821" lon="1.25041">
        <ele>190</ele>
        <time>2020-10-03T08:52:35.000Z</time>
      </trkpt>
      <trkpt lat="43.63819" lon="1.25037">
        <ele>190</ele>
        <time>2020-10-03T08:52:36.000Z</time>
      </trkpt>
      <trkpt lat="43.63818" lon="1.25034">
        <ele>190</ele>
        <time>2020-10-03T08:52:37.000Z</time>
      </trkpt>
      <trkpt lat="43.63817" lon="1.2503">
        <ele>190</ele>
        <time>2020-10-03T08:52:38.000Z</time>
      </trkpt>
      <trkpt lat="43.63816" lon="1.25026">
        <ele>190</ele>
        <time>2020-10-03T08:52:39.000Z</time>
      </trkpt>
      <trkpt lat="43.63814" lon="1.25022">
        <ele>189.54128892855</ele>
        <time>2020-10-03T08:52:40.000Z</time>
      </trkpt>
      <trkpt lat="43.63814" lon="1.25019">
        <ele>189</ele>
        <time>2020-10-03T08:52:41.000Z</time>
      </trkpt>
      <trkpt lat="43.63813" lon="1.25015">
        <ele>189</ele>
        <time>2020-10-03T08:52:42.000Z</time>
      </trkpt>
      <trkpt lat="43.63812" lon="1.25012">
        <ele>189.20833333333</ele>
        <time>2020-10-03T08:52:43.000Z</time>
      </trkpt>
      <trkpt lat="43.63811" lon="1.25005">
        <ele>190</ele>
        <time>2020-10-03T08:52:45.000Z</time>
      </trkpt>
      <trkpt lat="43.63811" lon="1.25002">
        <ele>190</ele>
        <time>2020-10-03T08:52:46.000Z</time>
      </trkpt>
      <trkpt lat="43.63811" lon="1.24999">
        <ele>190</ele>
        <time>2020-10-03T08:52:47.000Z</time>
      </trkpt>
      <trkpt lat="43.63811" lon="1.24995">
        <ele>190</ele>
        <time>2020-10-03T08:52:48.000Z</time>
      </trkpt>
      <trkpt lat="43.6381" lon="1.24992">
        <ele>190</ele>
        <time>2020-10-03T08:52:49.000Z</time>
      </trkpt>
      <trkpt lat="43.63811" lon="1.24988">
        <ele>190</ele>
        <time>2020-10-03T08:52:50.000Z</time>
      </trkpt>
      <trkpt lat="43.6381" lon="1.24985">
        <ele>190</ele>
        <time>2020-10-03T08:52:51.000Z</time>
      </trkpt>
      <trkpt lat="43.6381" lon="1.24981">
        <ele>190</ele>
        <time>2020-10-03T08:52:52.000Z</time>
      </trkpt>
      <trkpt lat="43.63809" lon="1.24977">
        <ele>190</ele>
        <time>2020-10-03T08:52:53.000Z</time>
      </trkpt>
      <trkpt lat="43.63808" lon="1.24973">
        <ele>190</ele>
        <time>2020-10-03T08:52:54.000Z</time>
      </trkpt>
      <trkpt lat="43.63808" lon="1.2497">
        <ele>190</ele>
        <time>2020-10-03T08:52:55.000Z</time>
      </trkpt>
      <trkpt lat="43.63807" lon="1.24966">
        <ele>190</ele>
        <time>2020-10-03T08:52:56.000Z</time>
      </trkpt>
      <trkpt lat="43.63807" lon="1.24962">
        <ele>190</ele>
        <time>2020-10-03T08:52:57.000Z</time>
      </trkpt>
      <trkpt lat="43.63806" lon="1.24959">
        <ele>190</ele>
        <time>2020-10-03T08:52:58.000Z</time>
      </trkpt>
      <trkpt lat="43.63806" lon="1.24955">
        <ele>189.60784067665</ele>
        <time>2020-10-03T08:52:59.000Z</time>
      </trkpt>
      <trkpt lat="43.63805" lon="1.24951">
        <ele>189</ele>
        <time>2020-10-03T08:53:00.000Z</time>
      </trkpt>
      <trkpt lat="43.63805" lon="1.24947">
        <ele>189.32557897244</ele>
        <time>2020-10-03T08:53:01.000Z</time>
      </trkpt>
      <trkpt lat="43.63805" lon="1.24943">
        <ele>190</ele>
        <time>2020-10-03T08:53:02.000Z</time>
      </trkpt>
      <trkpt lat="43.63804" lon="1.2494">
        <ele>190</ele>
        <time>2020-10-03T08:53:03.000Z</time>
      </trkpt>
      <trkpt lat="43.63804" lon="1.24936">
        <ele>190</ele>
        <time>2020-10-03T08:53:04.000Z</time>
      </trkpt>
      <trkpt lat="43.63803" lon="1.24933">
        <ele>190</ele>
        <time>2020-10-03T08:53:05.000Z</time>
      </trkpt>
      <trkpt lat="43.63803" lon="1.24929">
        <ele>190</ele>
        <time>2020-10-03T08:53:06.000Z</time>
      </trkpt>
      <trkpt lat="43.63803" lon="1.24926">
        <ele>190</ele>
        <time>2020-10-03T08:53:07.000Z</time>
      </trkpt>
      <trkpt lat="43.63803" lon="1.24922">
        <ele>190</ele>
        <time>2020-10-03T08:53:08.000Z</time>
      </trkpt>
      <trkpt lat="43.63803" lon="1.24919">
        <ele>190</ele>
        <time>2020-10-03T08:53:09.000Z</time>
      </trkpt>
      <trkpt lat="43.63802" lon="1.24915">
        <ele>190</ele>
        <time>2020-10-03T08:53:10.000Z</time>
      </trkpt>
      <trkpt lat="43.63802" lon="1.24912">
        <ele>190</ele>
        <time>2020-10-03T08:53:11.000Z</time>
      </trkpt>
      <trkpt lat="43.63802" lon="1.24908">
        <ele>190</ele>
        <time>2020-10-03T08:53:12.000Z</time>
      </trkpt>
      <trkpt lat="43.63802" lon="1.24905">
        <ele>190</ele>
        <time>2020-10-03T08:53:13.000Z</time>
      </trkpt>
      <trkpt lat="43.63802" lon="1.24901">
        <ele>190</ele>
        <time>2020-10-03T08:53:14.000Z</time>
      </trkpt>
      <trkpt lat="43.63802" lon="1.24897">
        <ele>190</ele>
        <time>2020-10-03T08:53:15.000Z</time>
      </trkpt>
      <trkpt lat="43.63802" lon="1.24893">
        <ele>190</ele>
        <time>2020-10-03T08:53:16.000Z</time>
      </trkpt>
      <trkpt lat="43.63802" lon="1.2489">
        <ele>190</ele>
        <time>2020-10-03T08:53:17.000Z</time>
      </trkpt>
      <trkpt lat="43.63801" lon="1.24886">
        <ele>190</ele>
        <time>2020-10-03T08:53:18.000Z</time>
      </trkpt>
      <trkpt lat="43.638" lon="1.24874">
        <ele>190</ele>
        <time>2020-10-03T08:53:21.000Z</time>
      </trkpt>
      <trkpt lat="43.638" lon="1.2487">
        <ele>190</ele>
        <time>2020-10-03T08:53:22.000Z</time>
      </trkpt>
      <trkpt lat="43.638" lon="1.24865">
        <ele>190</ele>
        <time>2020-10-03T08:53:23.000Z</time>
      </trkpt>
      <trkpt lat="43.638" lon="1.24861">
        <ele>190</ele>
        <time>2020-10-03T08:53:24.000Z</time>
      </trkpt>
      <trkpt lat="43.63801" lon="1.24858">
        <ele>190</ele>
        <time>2020-10-03T08:53:25.000Z</time>
      </trkpt>
      <trkpt lat="43.63801" lon="1.24855">
        <ele>190</ele>
        <time>2020-10-03T08:53:26.000Z</time>
      </trkpt>
      <trkpt lat="43.63801" lon="1.24851">
        <ele>190</ele>
        <time>2020-10-03T08:53:27.000Z</time>
      </trkpt>
      <trkpt lat="43.63802" lon="1.24847">
        <ele>190</ele>
        <time>2020-10-03T08:53:28.000Z</time>
      </trkpt>
      <trkpt lat="43.63803" lon="1.24843">
        <ele>190</ele>
        <time>2020-10-03T08:53:29.000Z</time>
      </trkpt>
      <trkpt lat="43.63803" lon="1.2484">
        <ele>190</ele>
        <time>2020-10-03T08:53:30.000Z</time>
      </trkpt>
      <trkpt lat="43.63803" lon="1.24836">
        <ele>190</ele>
        <time>2020-10-03T08:53:31.000Z</time>
      </trkpt>
      <trkpt lat="43.63803" lon="1.24832">
        <ele>190</ele>
        <time>2020-10-03T08:53:32.000Z</time>
      </trkpt>
      <trkpt lat="43.63804" lon="1.24828">
        <ele>190</ele>
        <time>2020-10-03T08:53:33.000Z</time>
      </trkpt>
      <trkpt lat="43.63804" lon="1.24825">
        <ele>190</ele>
        <time>2020-10-03T08:53:34.000Z</time>
      </trkpt>
      <trkpt lat="43.63804" lon="1.24822">
        <ele>190</ele>
        <time>2020-10-03T08:53:35.000Z</time>
      </trkpt>
      <trkpt lat="43.63804" lon="1.24818">
        <ele>190</ele>
        <time>2020-10-03T08:53:36.000Z</time>
      </trkpt>
      <trkpt lat="43.63804" lon="1.24815">
        <ele>190</ele>
        <time>2020-10-03T08:53:37.000Z</time>
      </trkpt>
      <trkpt lat="43.63804" lon="1.24812">
        <ele>190</ele>
        <time>2020-10-03T08:53:38.000Z</time>
      </trkpt>
      <trkpt lat="43.63805" lon="1.24808">
        <ele>190</ele>
        <time>2020-10-03T08:53:39.000Z</time>
      </trkpt>
      <trkpt lat="43.63805" lon="1.24805">
        <ele>190</ele>
        <time>2020-10-03T08:53:40.000Z</time>
      </trkpt>
      <trkpt lat="43.63805" lon="1.24801">
        <ele>190</ele>
        <time>2020-10-03T08:53:41.000Z</time>
      </trkpt>
      <trkpt lat="43.63805" lon="1.24798">
        <ele>190</ele>
        <time>2020-10-03T08:53:42.000Z</time>
      </trkpt>
      <trkpt lat="43.63805" lon="1.24795">
        <ele>190</ele>
        <time>2020-10-03T08:53:43.000Z</time>
      </trkpt>
      <trkpt lat="43.63805" lon="1.24792">
        <ele>190</ele>
        <time>2020-10-03T08:53:44.000Z</time>
      </trkpt>
      <trkpt lat="43.63805" lon="1.24788">
        <ele>190</ele>
        <time>2020-10-03T08:53:45.000Z</time>
      </trkpt>
      <trkpt lat="43.63805" lon="1.24784">
        <ele>190</ele>
        <time>2020-10-03T08:53:46.000Z</time>
      </trkpt>
      <trkpt lat="43.63806" lon="1.2478">
        <ele>190</ele>
        <time>2020-10-03T08:53:47.000Z</time>
      </trkpt>
      <trkpt lat="43.63807" lon="1.24776">
        <ele>190</ele>
        <time>2020-10-03T08:53:48.000Z</time>
      </trkpt>
      <trkpt lat="43.63807" lon="1.24772">
        <ele>190</ele>
        <time>2020-10-03T08:53:49.000Z</time>
      </trkpt>
      <trkpt lat="43.63808" lon="1.24769">
        <ele>190</ele>
        <time>2020-10-03T08:53:50.000Z</time>
      </trkpt>
      <trkpt lat="43.63809" lon="1.24765">
        <ele>190</ele>
        <time>2020-10-03T08:53:51.000Z</time>
      </trkpt>
      <trkpt lat="43.63811" lon="1.24761">
        <ele>190</ele>
        <time>2020-10-03T08:53:52.000Z</time>
      </trkpt>
      <trkpt lat="43.63813" lon="1.24757">
        <ele>190</ele>
        <time>2020-10-03T08:53:53.000Z</time>
      </trkpt>
      <trkpt lat="43.63814" lon="1.24753">
        <ele>190</ele>
        <time>2020-10-03T08:53:54.000Z</time>
      </trkpt>
      <trkpt lat="43.63815" lon="1.24749">
        <ele>190</ele>
        <time>2020-10-03T08:53:55.000Z</time>
      </trkpt>
      <trkpt lat="43.63816" lon="1.24746">
        <ele>190</ele>
        <time>2020-10-03T08:53:56.000Z</time>
      </trkpt>
      <trkpt lat="43.63817" lon="1.24743">
        <ele>190</ele>
        <time>2020-10-03T08:53:57.000Z</time>
      </trkpt>
      <trkpt lat="43.63819" lon="1.2474">
        <ele>190</ele>
        <time>2020-10-03T08:53:58.000Z</time>
      </trkpt>
      <trkpt lat="43.6382" lon="1.24737">
        <ele>190</ele>
        <time>2020-10-03T08:53:59.000Z</time>
      </trkpt>
      <trkpt lat="43.63821" lon="1.24734">
        <ele>190</ele>
        <time>2020-10-03T08:54:00.000Z</time>
      </trkpt>
      <trkpt lat="43.63822" lon="1.2473">
        <ele>190</ele>
        <time>2020-10-03T08:54:01.000Z</time>
      </trkpt>
      <trkpt lat="43.63823" lon="1.24727">
        <ele>190</ele>
        <time>2020-10-03T08:54:02.000Z</time>
      </trkpt>
      <trkpt lat="43.63823" lon="1.24719">
        <ele>190</ele>
        <time>2020-10-03T08:54:04.000Z</time>
      </trkpt>
      <trkpt lat="43.63822" lon="1.24715">
        <ele>190</ele>
        <time>2020-10-03T08:54:05.000Z</time>
      </trkpt>
      <trkpt lat="43.63822" lon="1.24711">
        <ele>190</ele>
        <time>2020-10-03T08:54:06.000Z</time>
      </trkpt>
      <trkpt lat="43.63821" lon="1.24707">
        <ele>190</ele>
        <time>2020-10-03T08:54:07.000Z</time>
      </trkpt>
      <trkpt lat="43.63821" lon="1.24704">
        <ele>190</ele>
        <time>2020-10-03T08:54:08.000Z</time>
      </trkpt>
      <trkpt lat="43.6382" lon="1.24699">
        <ele>190</ele>
        <time>2020-10-03T08:54:09.000Z</time>
      </trkpt>
      <trkpt lat="43.63819" lon="1.24695">
        <ele>190</ele>
        <time>2020-10-03T08:54:10.000Z</time>
      </trkpt>
      <trkpt lat="43.63819" lon="1.24691">
        <ele>190</ele>
        <time>2020-10-03T08:54:11.000Z</time>
      </trkpt>
      <trkpt lat="43.63817" lon="1.24687">
        <ele>190</ele>
        <time>2020-10-03T08:54:12.000Z</time>
      </trkpt>
      <trkpt lat="43.63816" lon="1.24684">
        <ele>190</ele>
        <time>2020-10-03T08:54:13.000Z</time>
      </trkpt>
      <trkpt lat="43.63815" lon="1.2468">
        <ele>190</ele>
        <time>2020-10-03T08:54:14.000Z</time>
      </trkpt>
      <trkpt lat="43.63815" lon="1.24676">
        <ele>190</ele>
        <time>2020-10-03T08:54:15.000Z</time>
      </trkpt>
      <trkpt lat="43.63814" lon="1.24672">
        <ele>190</ele>
        <time>2020-10-03T08:54:16.000Z</time>
      </trkpt>
      <trkpt lat="43.63813" lon="1.24668">
        <ele>190</ele>
        <time>2020-10-03T08:54:17.000Z</time>
      </trkpt>
      <trkpt lat="43.63813" lon="1.24664">
        <ele>190</ele>
        <time>2020-10-03T08:54:18.000Z</time>
      </trkpt>
      <trkpt lat="43.63813" lon="1.24661">
        <ele>190</ele>
        <time>2020-10-03T08:54:19.000Z</time>
      </trkpt>
      <trkpt lat="43.63814" lon="1.24656">
        <ele>190</ele>
        <time>2020-10-03T08:54:20.000Z</time>
      </trkpt>
      <trkpt lat="43.63814" lon="1.24652">
        <ele>190</ele>
        <time>2020-10-03T08:54:21.000Z</time>
      </trkpt>
      <trkpt lat="43.63815" lon="1.24649">
        <ele>190</ele>
        <time>2020-10-03T08:54:22.000Z</time>
      </trkpt>
      <trkpt lat="43.63816" lon="1.24646">
        <ele>190</ele>
        <time>2020-10-03T08:54:23.000Z</time>
      </trkpt>
      <trkpt lat="43.63816" lon="1.24642">
        <ele>190</ele>
        <time>2020-10-03T08:54:24.000Z</time>
      </trkpt>
      <trkpt lat="43.63817" lon="1.24638">
        <ele>190</ele>
        <time>2020-10-03T08:54:25.000Z</time>
      </trkpt>
      <trkpt lat="43.63818" lon="1.24635">
        <ele>190</ele>
        <time>2020-10-03T08:54:26.000Z</time>
      </trkpt>
      <trkpt lat="43.63819" lon="1.24632">
        <ele>190</ele>
        <time>2020-10-03T08:54:27.000Z</time>
      </trkpt>
      <trkpt lat="43.6382" lon="1.24629">
        <ele>190</ele>
        <time>2020-10-03T08:54:28.000Z</time>
      </trkpt>
      <trkpt lat="43.63821" lon="1.24626">
        <ele>190</ele>
        <time>2020-10-03T08:54:29.000Z</time>
      </trkpt>
      <trkpt lat="43.63822" lon="1.24622">
        <ele>190</ele>
        <time>2020-10-03T08:54:30.000Z</time>
      </trkpt>
      <trkpt lat="43.63823" lon="1.24618">
        <ele>190</ele>
        <time>2020-10-03T08:54:31.000Z</time>
      </trkpt>
      <trkpt lat="43.63828" lon="1.24605">
        <ele>190</ele>
        <time>2020-10-03T08:54:34.000Z</time>
      </trkpt>
      <trkpt lat="43.63829" lon="1.24601">
        <ele>190</ele>
        <time>2020-10-03T08:54:35.000Z</time>
      </trkpt>
      <trkpt lat="43.63831" lon="1.24598">
        <ele>190</ele>
        <time>2020-10-03T08:54:36.000Z</time>
      </trkpt>
      <trkpt lat="43.63833" lon="1.24595">
        <ele>190</ele>
        <time>2020-10-03T08:54:37.000Z</time>
      </trkpt>
      <trkpt lat="43.63835" lon="1.24592">
        <ele>190</ele>
        <time>2020-10-03T08:54:38.000Z</time>
      </trkpt>
      <trkpt lat="43.63837" lon="1.24589">
        <ele>190</ele>
        <time>2020-10-03T08:54:39.000Z</time>
      </trkpt>
      <trkpt lat="43.63839" lon="1.24586">
        <ele>190</ele>
        <time>2020-10-03T08:54:40.000Z</time>
      </trkpt>
      <trkpt lat="43.63842" lon="1.24583">
        <ele>190</ele>
        <time>2020-10-03T08:54:41.000Z</time>
      </trkpt>
      <trkpt lat="43.63844" lon="1.24579">
        <ele>190</ele>
        <time>2020-10-03T08:54:42.000Z</time>
      </trkpt>
      <trkpt lat="43.63847" lon="1.24577">
        <ele>190</ele>
        <time>2020-10-03T08:54:43.000Z</time>
      </trkpt>
      <trkpt lat="43.63849" lon="1.24575">
        <ele>190</ele>
        <time>2020-10-03T08:54:44.000Z</time>
      </trkpt>
      <trkpt lat="43.63851" lon="1.24572">
        <ele>190</ele>
        <time>2020-10-03T08:54:45.000Z</time>
      </trkpt>
      <trkpt lat="43.63853" lon="1.24569">
        <ele>190</ele>
        <time>2020-10-03T08:54:46.000Z</time>
      </trkpt>
      <trkpt lat="43.63855" lon="1.24567">
        <ele>190</ele>
        <time>2020-10-03T08:54:47.000Z</time>
      </trkpt>
      <trkpt lat="43.63857" lon="1.24565">
        <ele>190</ele>
        <time>2020-10-03T08:54:48.000Z</time>
      </trkpt>
      <trkpt lat="43.63859" lon="1.24563">
        <ele>190</ele>
        <time>2020-10-03T08:54:49.000Z</time>
      </trkpt>
      <trkpt lat="43.63861" lon="1.24561">
        <ele>190</ele>
        <time>2020-10-03T08:54:50.000Z</time>
      </trkpt>
      <trkpt lat="43.63863" lon="1.24559">
        <ele>190</ele>
        <time>2020-10-03T08:54:51.000Z</time>
      </trkpt>
      <trkpt lat="43.63865" lon="1.24556">
        <ele>190</ele>
        <time>2020-10-03T08:54:52.000Z</time>
      </trkpt>
      <trkpt lat="43.63867" lon="1.24554">
        <ele>190</ele>
        <time>2020-10-03T08:54:53.000Z</time>
      </trkpt>
      <trkpt lat="43.63869" lon="1.24552">
        <ele>190</ele>
        <time>2020-10-03T08:54:54.000Z</time>
      </trkpt>
      <trkpt lat="43.63871" lon="1.24549">
        <ele>190</ele>
        <time>2020-10-03T08:54:55.000Z</time>
      </trkpt>
      <trkpt lat="43.63872" lon="1.24547">
        <ele>190</ele>
        <time>2020-10-03T08:54:56.000Z</time>
      </trkpt>
      <trkpt lat="43.63874" lon="1.24544">
        <ele>190</ele>
        <time>2020-10-03T08:54:57.000Z</time>
      </trkpt>
      <trkpt lat="43.63873" lon="1.24541">
        <ele>190</ele>
        <time>2020-10-03T08:54:58.000Z</time>
      </trkpt>
      <trkpt lat="43.63871" lon="1.2454">
        <ele>190</ele>
        <time>2020-10-03T08:54:59.000Z</time>
      </trkpt>
      <trkpt lat="43.63869" lon="1.24539">
        <ele>190</ele>
        <time>2020-10-03T08:55:00.000Z</time>
      </trkpt>
      <trkpt lat="43.63867" lon="1.24538">
        <ele>190</ele>
        <time>2020-10-03T08:55:01.000Z</time>
      </trkpt>
      <trkpt lat="43.63865" lon="1.24537">
        <ele>190</ele>
        <time>2020-10-03T08:55:02.000Z</time>
      </trkpt>
      <trkpt lat="43.63863" lon="1.24536">
        <ele>190</ele>
        <time>2020-10-03T08:55:03.000Z</time>
      </trkpt>
      <trkpt lat="43.63861" lon="1.24536">
        <ele>190</ele>
        <time>2020-10-03T08:55:04.000Z</time>
      </trkpt>
      <trkpt lat="43.63859" lon="1.24535">
        <ele>190</ele>
        <time>2020-10-03T08:55:05.000Z</time>
      </trkpt>
      <trkpt lat="43.63857" lon="1.24534">
        <ele>190</ele>
        <time>2020-10-03T08:55:06.000Z</time>
      </trkpt>
      <trkpt lat="43.63855" lon="1.24534">
        <ele>190</ele>
        <time>2020-10-03T08:55:07.000Z</time>
      </trkpt>
      <trkpt lat="43.63853" lon="1.24532">
        <ele>190</ele>
        <time>2020-10-03T08:55:08.000Z</time>
      </trkpt>
      <trkpt lat="43.6385" lon="1.24531">
        <ele>190</ele>
        <time>2020-10-03T08:55:09.000Z</time>
      </trkpt>
      <trkpt lat="43.63848" lon="1.2453">
        <ele>190</ele>
        <time>2020-10-03T08:55:10.000Z</time>
      </trkpt>
      <trkpt lat="43.63845" lon="1.24529">
        <ele>190</ele>
        <time>2020-10-03T08:55:11.000Z</time>
      </trkpt>
      <trkpt lat="43.63843" lon="1.24528">
        <ele>190</ele>
        <time>2020-10-03T08:55:12.000Z</time>
      </trkpt>
      <trkpt lat="43.6384" lon="1.24527">
        <ele>190</ele>
        <time>2020-10-03T08:55:13.000Z</time>
      </trkpt>
      <trkpt lat="43.63838" lon="1.24526">
        <ele>190</ele>
        <time>2020-10-03T08:55:14.000Z</time>
      </trkpt>
      <trkpt lat="43.63835" lon="1.24525">
        <ele>190</ele>
        <time>2020-10-03T08:55:15.000Z</time>
      </trkpt>
      <trkpt lat="43.63833" lon="1.24523">
        <ele>190</ele>
        <time>2020-10-03T08:55:16.000Z</time>
      </trkpt>
      <trkpt lat="43.6383" lon="1.24522">
        <ele>190</ele>
        <time>2020-10-03T08:55:17.000Z</time>
      </trkpt>
      <trkpt lat="43.63828" lon="1.24521">
        <ele>190</ele>
        <time>2020-10-03T08:55:18.000Z</time>
      </trkpt>
      <trkpt lat="43.63823" lon="1.2452">
        <ele>190</ele>
        <time>2020-10-03T08:55:20.000Z</time>
      </trkpt>
      <trkpt lat="43.6382" lon="1.24519">
        <ele>190</ele>
        <time>2020-10-03T08:55:21.000Z</time>
      </trkpt>
      <trkpt lat="43.63817" lon="1.24517">
        <ele>190</ele>
        <time>2020-10-03T08:55:22.000Z</time>
      </trkpt>
      <trkpt lat="43.63814" lon="1.24516">
        <ele>190</ele>
        <time>2020-10-03T08:55:23.000Z</time>
      </trkpt>
      <trkpt lat="43.63811" lon="1.24515">
        <ele>190</ele>
        <time>2020-10-03T08:55:24.000Z</time>
      </trkpt>
      <trkpt lat="43.63809" lon="1.24514">
        <ele>190</ele>
        <time>2020-10-03T08:55:25.000Z</time>
      </trkpt>
      <trkpt lat="43.63806" lon="1.24513">
        <ele>190</ele>
        <time>2020-10-03T08:55:26.000Z</time>
      </trkpt>
      <trkpt lat="43.63804" lon="1.24512">
        <ele>190</ele>
        <time>2020-10-03T08:55:27.000Z</time>
      </trkpt>
      <trkpt lat="43.63801" lon="1.24511">
        <ele>190</ele>
        <time>2020-10-03T08:55:28.000Z</time>
      </trkpt>
      <trkpt lat="43.63798" lon="1.2451">
        <ele>190</ele>
        <time>2020-10-03T08:55:29.000Z</time>
      </trkpt>
      <trkpt lat="43.63795" lon="1.24508">
        <ele>190</ele>
        <time>2020-10-03T08:55:30.000Z</time>
      </trkpt>
      <trkpt lat="43.63792" lon="1.24507">
        <ele>190</ele>
        <time>2020-10-03T08:55:31.000Z</time>
      </trkpt>
      <trkpt lat="43.6379" lon="1.24505">
        <ele>190</ele>
        <time>2020-10-03T08:55:32.000Z</time>
      </trkpt>
      <trkpt lat="43.63787" lon="1.24503">
        <ele>190</ele>
        <time>2020-10-03T08:55:33.000Z</time>
      </trkpt>
      <trkpt lat="43.63785" lon="1.24501">
        <ele>190</ele>
        <time>2020-10-03T08:55:34.000Z</time>
      </trkpt>
      <trkpt lat="43.63783" lon="1.24498">
        <ele>190</ele>
        <time>2020-10-03T08:55:35.000Z</time>
      </trkpt>
      <trkpt lat="43.63781" lon="1.24495">
        <ele>190</ele>
        <time>2020-10-03T08:55:36.000Z</time>
      </trkpt>
      <trkpt lat="43.63779" lon="1.24493">
        <ele>190</ele>
        <time>2020-10-03T08:55:37.000Z</time>
      </trkpt>
      <trkpt lat="43.63778" lon="1.2449">
        <ele>190</ele>
        <time>2020-10-03T08:55:38.000Z</time>
      </trkpt>
      <trkpt lat="43.63776" lon="1.24486">
        <ele>190</ele>
        <time>2020-10-03T08:55:39.000Z</time>
      </trkpt>
      <trkpt lat="43.63775" lon="1.24483">
        <ele>190</ele>
        <time>2020-10-03T08:55:40.000Z</time>
      </trkpt>
      <trkpt lat="43.63773" lon="1.2448">
        <ele>190</ele>
        <time>2020-10-03T08:55:41.000Z</time>
      </trkpt>
      <trkpt lat="43.6377" lon="1.24477">
        <ele>190</ele>
        <time>2020-10-03T08:55:42.000Z</time>
      </trkpt>
      <trkpt lat="43.63767" lon="1.24475">
        <ele>190</ele>
        <time>2020-10-03T08:55:43.000Z</time>
      </trkpt>
      <trkpt lat="43.63765" lon="1.24473">
        <ele>190</ele>
        <time>2020-10-03T08:55:44.000Z</time>
      </trkpt>
      <trkpt lat="43.63763" lon="1.2447">
        <ele>190</ele>
        <time>2020-10-03T08:55:45.000Z</time>
      </trkpt>
      <trkpt lat="43.6376" lon="1.24467">
        <ele>190</ele>
        <time>2020-10-03T08:55:46.000Z</time>
      </trkpt>
      <trkpt lat="43.63758" lon="1.24463">
        <ele>190</ele>
        <time>2020-10-03T08:55:47.000Z</time>
      </trkpt>
      <trkpt lat="43.63755" lon="1.2446">
        <ele>190</ele>
        <time>2020-10-03T08:55:48.000Z</time>
      </trkpt>
      <trkpt lat="43.63752" lon="1.24457">
        <ele>190</ele>
        <time>2020-10-03T08:55:49.000Z</time>
      </trkpt>
      <trkpt lat="43.6375" lon="1.24453">
        <ele>190</ele>
        <time>2020-10-03T08:55:50.000Z</time>
      </trkpt>
      <trkpt lat="43.6374" lon="1.24444">
        <ele>190</ele>
        <time>2020-10-03T08:55:54.000Z</time>
      </trkpt>
      <trkpt lat="43.63728" lon="1.24438">
        <ele>190</ele>
        <time>2020-10-03T08:55:58.000Z</time>
      </trkpt>
      <trkpt lat="43.63722" lon="1.24428">
        <ele>190</ele>
        <time>2020-10-03T08:56:01.000Z</time>
      </trkpt>
      <trkpt lat="43.63717" lon="1.24416">
        <ele>190</ele>
        <time>2020-10-03T08:56:04.000Z</time>
      </trkpt>
      <trkpt lat="43.63713" lon="1.24403">
        <ele>190</ele>
        <time>2020-10-03T08:56:08.000Z</time>
      </trkpt>
      <trkpt lat="43.63707" lon="1.24392">
        <ele>190</ele>
        <time>2020-10-03T08:56:11.000Z</time>
      </trkpt>
      <trkpt lat="43.63701" lon="1.24381">
        <ele>190</ele>
        <time>2020-10-03T08:56:15.000Z</time>
      </trkpt>
      <trkpt lat="43.63695" lon="1.2437">
        <ele>190</ele>
        <time>2020-10-03T08:56:18.000Z</time>
      </trkpt>
      <trkpt lat="43.63693" lon="1.24357">
        <ele>191</ele>
        <time>2020-10-03T08:56:22.000Z</time>
      </trkpt>
      <trkpt lat="43.63689" lon="1.24343">
        <ele>191</ele>
        <time>2020-10-03T08:56:26.000Z</time>
      </trkpt>
      <trkpt lat="43.63683" lon="1.24329">
        <ele>191.4403682653</ele>
        <time>2020-10-03T08:56:30.000Z</time>
      </trkpt>
      <trkpt lat="43.63682" lon="1.24315">
        <ele>192</ele>
        <time>2020-10-03T08:56:34.000Z</time>
      </trkpt>
      <trkpt lat="43.63681" lon="1.24303">
        <ele>192</ele>
        <time>2020-10-03T08:56:37.000Z</time>
      </trkpt>
      <trkpt lat="43.63678" lon="1.24291">
        <ele>191</ele>
        <time>2020-10-03T08:56:40.000Z</time>
      </trkpt>
      <trkpt lat="43.63674" lon="1.24276">
        <ele>191</ele>
        <time>2020-10-03T08:56:44.000Z</time>
      </trkpt>
      <trkpt lat="43.63666" lon="1.24265">
        <ele>191</ele>
        <time>2020-10-03T08:56:48.000Z</time>
      </trkpt>
      <trkpt lat="43.63659" lon="1.24254">
        <ele>191</ele>
        <time>2020-10-03T08:56:52.000Z</time>
      </trkpt>
      <trkpt lat="43.63652" lon="1.24242">
        <ele>191.33088</ele>
        <time>2020-10-03T08:56:56.000Z</time>
      </trkpt>
      <trkpt lat="43.63646" lon="1.2423">
        <ele>192</ele>
        <time>2020-10-03T08:57:00.000Z</time>
      </trkpt>
      <trkpt lat="43.6364" lon="1.24217">
        <ele>192</ele>
        <time>2020-10-03T08:57:04.000Z</time>
      </trkpt>
      <trkpt lat="43.63637" lon="1.24204">
        <ele>191.63528897991</ele>
        <time>2020-10-03T08:57:07.000Z</time>
      </trkpt>
      <trkpt lat="43.63635" lon="1.24191">
        <ele>191</ele>
        <time>2020-10-03T08:57:10.000Z</time>
      </trkpt>
      <trkpt lat="43.63635" lon="1.24186">
        <ele>191</ele>
        <time>2020-10-03T08:57:11.000Z</time>
      </trkpt>
      <trkpt lat="43.63635" lon="1.24178">
        <ele>191</ele>
        <time>2020-10-03T08:57:13.000Z</time>
      </trkpt>
      <trkpt lat="43.63636" lon="1.24174">
        <ele>191</ele>
        <time>2020-10-03T08:57:14.000Z</time>
      </trkpt>
      <trkpt lat="43.63638" lon="1.24159">
        <ele>191</ele>
        <time>2020-10-03T08:57:18.000Z</time>
      </trkpt>
      <trkpt lat="43.63639" lon="1.24156">
        <ele>190.62161694669</ele>
        <time>2020-10-03T08:57:19.000Z</time>
      </trkpt>
      <trkpt lat="43.6364" lon="1.24153">
        <ele>190</ele>
        <time>2020-10-03T08:57:20.000Z</time>
      </trkpt>
      <trkpt lat="43.6364" lon="1.24149">
        <ele>190</ele>
        <time>2020-10-03T08:57:21.000Z</time>
      </trkpt>
      <trkpt lat="43.63641" lon="1.24145">
        <ele>190.36470552803</ele>
        <time>2020-10-03T08:57:22.000Z</time>
      </trkpt>
      <trkpt lat="43.63641" lon="1.24142">
        <ele>191</ele>
        <time>2020-10-03T08:57:23.000Z</time>
      </trkpt>
      <trkpt lat="43.63641" lon="1.24138">
        <ele>191</ele>
        <time>2020-10-03T08:57:24.000Z</time>
      </trkpt>
      <trkpt lat="43.63641" lon="1.24134">
        <ele>191</ele>
        <time>2020-10-03T08:57:25.000Z</time>
      </trkpt>
      <trkpt lat="43.63641" lon="1.2413">
        <ele>191.35514510611</ele>
        <time>2020-10-03T08:57:26.000Z</time>
      </trkpt>
      <trkpt lat="43.63642" lon="1.24127">
        <ele>192</ele>
        <time>2020-10-03T08:57:27.000Z</time>
      </trkpt>
      <trkpt lat="43.63642" lon="1.24124">
        <ele>192</ele>
        <time>2020-10-03T08:57:28.000Z</time>
      </trkpt>
      <trkpt lat="43.63642" lon="1.24116">
        <ele>193</ele>
        <time>2020-10-03T08:57:30.000Z</time>
      </trkpt>
      <trkpt lat="43.63637" lon="1.24103">
        <ele>193</ele>
        <time>2020-10-03T08:57:34.000Z</time>
      </trkpt>
      <trkpt lat="43.63637" lon="1.24088">
        <ele>192</ele>
        <time>2020-10-03T08:57:38.000Z</time>
      </trkpt>
      <trkpt lat="43.63641" lon="1.24077">
        <ele>191.66972380102</ele>
        <time>2020-10-03T08:57:41.000Z</time>
      </trkpt>
      <trkpt lat="43.63647" lon="1.24064">
        <ele>191.74545306445</ele>
        <time>2020-10-03T08:57:45.000Z</time>
      </trkpt>
      <trkpt lat="43.63649" lon="1.2405">
        <ele>193</ele>
        <time>2020-10-03T08:57:49.000Z</time>
      </trkpt>
      <trkpt lat="43.63652" lon="1.24034">
        <ele>193</ele>
        <time>2020-10-03T08:57:53.000Z</time>
      </trkpt>
      <trkpt lat="43.6366" lon="1.24022">
        <ele>193</ele>
        <time>2020-10-03T08:57:57.000Z</time>
      </trkpt>
      <trkpt lat="43.63663" lon="1.24014">
        <ele>193</ele>
        <time>2020-10-03T08:57:59.000Z</time>
      </trkpt>
      <trkpt lat="43.63664" lon="1.2401">
        <ele>193</ele>
        <time>2020-10-03T08:58:00.000Z</time>
      </trkpt>
      <trkpt lat="43.6367" lon="1.23999">
        <ele>193.66291779325</ele>
        <time>2020-10-03T08:58:04.000Z</time>
      </trkpt>
      <trkpt lat="43.63676" lon="1.23988">
        <ele>193</ele>
        <time>2020-10-03T08:58:07.000Z</time>
      </trkpt>
      <trkpt lat="43.63683" lon="1.23976">
        <ele>193</ele>
        <time>2020-10-03T08:58:11.000Z</time>
      </trkpt>
      <trkpt lat="43.63689" lon="1.23962">
        <ele>193</ele>
        <time>2020-10-03T08:58:15.000Z</time>
      </trkpt>
      <trkpt lat="43.63695" lon="1.23951">
        <ele>193</ele>
        <time>2020-10-03T08:58:19.000Z</time>
      </trkpt>
      <trkpt lat="43.637" lon="1.23939">
        <ele>193</ele>
        <time>2020-10-03T08:58:23.000Z</time>
      </trkpt>
      <trkpt lat="43.63706" lon="1.23925">
        <ele>193</ele>
        <time>2020-10-03T08:58:27.000Z</time>
      </trkpt>
      <trkpt lat="43.63709" lon="1.23916">
        <ele>193</ele>
        <time>2020-10-03T08:58:29.000Z</time>
      </trkpt>
      <trkpt lat="43.63711" lon="1.23913">
        <ele>193</ele>
        <time>2020-10-03T08:58:30.000Z</time>
      </trkpt>
      <trkpt lat="43.63716" lon="1.239">
        <ele>193</ele>
        <time>2020-10-03T08:58:34.000Z</time>
      </trkpt>
      <trkpt lat="43.6372" lon="1.23888">
        <ele>193</ele>
        <time>2020-10-03T08:58:38.000Z</time>
      </trkpt>
      <trkpt lat="43.63727" lon="1.23878">
        <ele>194</ele>
        <time>2020-10-03T08:58:41.000Z</time>
      </trkpt>
      <trkpt lat="43.63733" lon="1.23868">
        <ele>193</ele>
        <time>2020-10-03T08:58:45.000Z</time>
      </trkpt>
      <trkpt lat="43.63742" lon="1.23855">
        <ele>194</ele>
        <time>2020-10-03T08:58:49.000Z</time>
      </trkpt>
      <trkpt lat="43.63751" lon="1.23844">
        <ele>193</ele>
        <time>2020-10-03T08:58:53.000Z</time>
      </trkpt>
      <trkpt lat="43.63759" lon="1.23834">
        <ele>193</ele>
        <time>2020-10-03T08:58:57.000Z</time>
      </trkpt>
      <trkpt lat="43.63765" lon="1.23823">
        <ele>194</ele>
        <time>2020-10-03T08:59:01.000Z</time>
      </trkpt>
      <trkpt lat="43.63768" lon="1.23809">
        <ele>194</ele>
        <time>2020-10-03T08:59:06.000Z</time>
      </trkpt>
      <trkpt lat="43.63767" lon="1.23795">
        <ele>195</ele>
        <time>2020-10-03T08:59:10.000Z</time>
      </trkpt>
      <trkpt lat="43.63767" lon="1.23779">
        <ele>195</ele>
        <time>2020-10-03T08:59:14.000Z</time>
      </trkpt>
      <trkpt lat="43.63765" lon="1.23767">
        <ele>195</ele>
        <time>2020-10-03T08:59:17.000Z</time>
      </trkpt>
      <trkpt lat="43.63766" lon="1.23754">
        <ele>195</ele>
        <time>2020-10-03T08:59:20.000Z</time>
      </trkpt>
      <trkpt lat="43.63767" lon="1.2374">
        <ele>195</ele>
        <time>2020-10-03T08:59:23.000Z</time>
      </trkpt>
      <trkpt lat="43.63768" lon="1.23726">
        <ele>195</ele>
        <time>2020-10-03T08:59:27.000Z</time>
      </trkpt>
      <trkpt lat="43.63769" lon="1.23712">
        <ele>194</ele>
        <time>2020-10-03T08:59:31.000Z</time>
      </trkpt>
      <trkpt lat="43.63767" lon="1.23696">
        <ele>194</ele>
        <time>2020-10-03T08:59:35.000Z</time>
      </trkpt>
      <trkpt lat="43.63765" lon="1.23681">
        <ele>195</ele>
        <time>2020-10-03T08:59:39.000Z</time>
      </trkpt>
      <trkpt lat="43.63763" lon="1.23668">
        <ele>195</ele>
        <time>2020-10-03T08:59:43.000Z</time>
      </trkpt>
      <trkpt lat="43.63758" lon="1.23655">
        <ele>195</ele>
        <time>2020-10-03T08:59:47.000Z</time>
      </trkpt>
      <trkpt lat="43.63749" lon="1.23645">
        <ele>195</ele>
        <time>2020-10-03T08:59:51.000Z</time>
      </trkpt>
      <trkpt lat="43.6374" lon="1.23638">
        <ele>195</ele>
        <time>2020-10-03T08:59:55.000Z</time>
      </trkpt>
      <trkpt lat="43.6373" lon="1.23628">
        <ele>195</ele>
        <time>2020-10-03T08:59:59.000Z</time>
      </trkpt>
      <trkpt lat="43.63723" lon="1.23618">
        <ele>196</ele>
        <time>2020-10-03T09:00:03.000Z</time>
      </trkpt>
      <trkpt lat="43.63721" lon="1.23604">
        <ele>196</ele>
        <time>2020-10-03T09:00:06.000Z</time>
      </trkpt>
      <trkpt lat="43.63725" lon="1.23592">
        <ele>196</ele>
        <time>2020-10-03T09:00:09.000Z</time>
      </trkpt>
      <trkpt lat="43.63727" lon="1.2358">
        <ele>196</ele>
        <time>2020-10-03T09:00:12.000Z</time>
      </trkpt>
      <trkpt lat="43.63732" lon="1.23567">
        <ele>196</ele>
        <time>2020-10-03T09:00:16.000Z</time>
      </trkpt>
      <trkpt lat="43.63737" lon="1.23556">
        <ele>196</ele>
        <time>2020-10-03T09:00:19.000Z</time>
      </trkpt>
      <trkpt lat="43.63742" lon="1.23545">
        <ele>196</ele>
        <time>2020-10-03T09:00:22.000Z</time>
      </trkpt>
      <trkpt lat="43.63747" lon="1.23533">
        <ele>196</ele>
        <time>2020-10-03T09:00:26.000Z</time>
      </trkpt>
      <trkpt lat="43.63751" lon="1.23521">
        <ele>196</ele>
        <time>2020-10-03T09:00:30.000Z</time>
      </trkpt>
      <trkpt lat="43.63758" lon="1.23509">
        <ele>196</ele>
        <time>2020-10-03T09:00:34.000Z</time>
      </trkpt>
      <trkpt lat="43.63765" lon="1.23496">
        <ele>197</ele>
        <time>2020-10-03T09:00:38.000Z</time>
      </trkpt>
      <trkpt lat="43.63773" lon="1.23484">
        <ele>197</ele>
        <time>2020-10-03T09:00:42.000Z</time>
      </trkpt>
      <trkpt lat="43.6378" lon="1.23472">
        <ele>197</ele>
        <time>2020-10-03T09:00:46.000Z</time>
      </trkpt>
      <trkpt lat="43.63786" lon="1.2346">
        <ele>197</ele>
        <time>2020-10-03T09:00:50.000Z</time>
      </trkpt>
      <trkpt lat="43.63787" lon="1.23457">
        <ele>197.21874</ele>
        <time>2020-10-03T09:00:51.000Z</time>
      </trkpt>
      <trkpt lat="43.63789" lon="1.23453">
        <ele>198</ele>
        <time>2020-10-03T09:00:52.000Z</time>
      </trkpt>
      <trkpt lat="43.6379" lon="1.2345">
        <ele>198</ele>
        <time>2020-10-03T09:00:53.000Z</time>
      </trkpt>
      <trkpt lat="43.63791" lon="1.23447">
        <ele>198.47618583218</ele>
        <time>2020-10-03T09:00:54.000Z</time>
      </trkpt>
      <trkpt lat="43.63792" lon="1.23445">
        <ele>199</ele>
        <time>2020-10-03T09:00:55.000Z</time>
      </trkpt>
      <trkpt lat="43.63793" lon="1.23442">
        <ele>199</ele>
        <time>2020-10-03T09:00:56.000Z</time>
      </trkpt>
      <trkpt lat="43.63794" lon="1.23439">
        <ele>199</ele>
        <time>2020-10-03T09:00:57.000Z</time>
      </trkpt>
      <trkpt lat="43.63795" lon="1.23435">
        <ele>199</ele>
        <time>2020-10-03T09:00:58.000Z</time>
      </trkpt>
      <trkpt lat="43.63795" lon="1.23431">
        <ele>199</ele>
        <time>2020-10-03T09:00:59.000Z</time>
      </trkpt>
      <trkpt lat="43.63796" lon="1.23428">
        <ele>199</ele>
        <time>2020-10-03T09:01:00.000Z</time>
      </trkpt>
      <trkpt lat="43.63797" lon="1.23424">
        <ele>199</ele>
        <time>2020-10-03T09:01:01.000Z</time>
      </trkpt>
      <trkpt lat="43.63798" lon="1.23421">
        <ele>199</ele>
        <time>2020-10-03T09:01:02.000Z</time>
      </trkpt>
      <trkpt lat="43.63799" lon="1.23418">
        <ele>199</ele>
        <time>2020-10-03T09:01:03.000Z</time>
      </trkpt>
      <trkpt lat="43.638" lon="1.23415">
        <ele>199</ele>
        <time>2020-10-03T09:01:04.000Z</time>
      </trkpt>
      <trkpt lat="43.63801" lon="1.23413">
        <ele>199</ele>
        <time>2020-10-03T09:01:05.000Z</time>
      </trkpt>
      <trkpt lat="43.63802" lon="1.2341">
        <ele>199</ele>
        <time>2020-10-03T09:01:06.000Z</time>
      </trkpt>
      <trkpt lat="43.63803" lon="1.23406">
        <ele>199</ele>
        <time>2020-10-03T09:01:07.000Z</time>
      </trkpt>
      <trkpt lat="43.63804" lon="1.23403">
        <ele>199</ele>
        <time>2020-10-03T09:01:08.000Z</time>
      </trkpt>
      <trkpt lat="43.63804" lon="1.23399">
        <ele>199</ele>
        <time>2020-10-03T09:01:09.000Z</time>
      </trkpt>
      <trkpt lat="43.63805" lon="1.23396">
        <ele>199</ele>
        <time>2020-10-03T09:01:10.000Z</time>
      </trkpt>
      <trkpt lat="43.63806" lon="1.23393">
        <ele>199</ele>
        <time>2020-10-03T09:01:11.000Z</time>
      </trkpt>
      <trkpt lat="43.63807" lon="1.23389">
        <ele>199</ele>
        <time>2020-10-03T09:01:12.000Z</time>
      </trkpt>
      <trkpt lat="43.63808" lon="1.23387">
        <ele>199</ele>
        <time>2020-10-03T09:01:13.000Z</time>
      </trkpt>
      <trkpt lat="43.63809" lon="1.23383">
        <ele>198.54545771903</ele>
        <time>2020-10-03T09:01:14.000Z</time>
      </trkpt>
      <trkpt lat="43.6381" lon="1.2338">
        <ele>198</ele>
        <time>2020-10-03T09:01:15.000Z</time>
      </trkpt>
      <trkpt lat="43.63811" lon="1.23377">
        <ele>198</ele>
        <time>2020-10-03T09:01:16.000Z</time>
      </trkpt>
      <trkpt lat="43.63812" lon="1.23374">
        <ele>198</ele>
        <time>2020-10-03T09:01:17.000Z</time>
      </trkpt>
      <trkpt lat="43.63813" lon="1.23371">
        <ele>198.35185360766</ele>
        <time>2020-10-03T09:01:18.000Z</time>
      </trkpt>
      <trkpt lat="43.63815" lon="1.23368">
        <ele>199</ele>
        <time>2020-10-03T09:01:19.000Z</time>
      </trkpt>
      <trkpt lat="43.63816" lon="1.23365">
        <ele>199</ele>
        <time>2020-10-03T09:01:20.000Z</time>
      </trkpt>
      <trkpt lat="43.63818" lon="1.23362">
        <ele>199</ele>
        <time>2020-10-03T09:01:21.000Z</time>
      </trkpt>
      <trkpt lat="43.63819" lon="1.23359">
        <ele>199</ele>
        <time>2020-10-03T09:01:22.000Z</time>
      </trkpt>
      <trkpt lat="43.6382" lon="1.23356">
        <ele>199</ele>
        <time>2020-10-03T09:01:23.000Z</time>
      </trkpt>
      <trkpt lat="43.63822" lon="1.23353">
        <ele>199</ele>
        <time>2020-10-03T09:01:24.000Z</time>
      </trkpt>
      <trkpt lat="43.63823" lon="1.23349">
        <ele>199</ele>
        <time>2020-10-03T09:01:25.000Z</time>
      </trkpt>
      <trkpt lat="43.63824" lon="1.23346">
        <ele>199.83478028583</ele>
        <time>2020-10-03T09:01:26.000Z</time>
      </trkpt>
      <trkpt lat="43.63825" lon="1.23342">
        <ele>201</ele>
        <time>2020-10-03T09:01:27.000Z</time>
      </trkpt>
      <trkpt lat="43.63825" lon="1.23339">
        <ele>201</ele>
        <time>2020-10-03T09:01:28.000Z</time>
      </trkpt>
      <trkpt lat="43.63824" lon="1.23336">
        <ele>201</ele>
        <time>2020-10-03T09:01:29.000Z</time>
      </trkpt>
      <trkpt lat="43.63823" lon="1.23333">
        <ele>201</ele>
        <time>2020-10-03T09:01:30.000Z</time>
      </trkpt>
      <trkpt lat="43.63822" lon="1.2333">
        <ele>201</ele>
        <time>2020-10-03T09:01:31.000Z</time>
      </trkpt>
      <trkpt lat="43.6382" lon="1.23328">
        <ele>201</ele>
        <time>2020-10-03T09:01:32.000Z</time>
      </trkpt>
      <trkpt lat="43.63819" lon="1.23325">
        <ele>201.47367924655</ele>
        <time>2020-10-03T09:01:33.000Z</time>
      </trkpt>
      <trkpt lat="43.63817" lon="1.23322">
        <ele>202</ele>
        <time>2020-10-03T09:01:34.000Z</time>
      </trkpt>
      <trkpt lat="43.63816" lon="1.2332">
        <ele>202</ele>
        <time>2020-10-03T09:01:35.000Z</time>
      </trkpt>
      <trkpt lat="43.63814" lon="1.23318">
        <ele>202</ele>
        <time>2020-10-03T09:01:36.000Z</time>
      </trkpt>
      <trkpt lat="43.63812" lon="1.23316">
        <ele>202</ele>
        <time>2020-10-03T09:01:37.000Z</time>
      </trkpt>
      <trkpt lat="43.6381" lon="1.23314">
        <ele>202</ele>
        <time>2020-10-03T09:01:38.000Z</time>
      </trkpt>
      <trkpt lat="43.63807" lon="1.23312">
        <ele>202</ele>
        <time>2020-10-03T09:01:39.000Z</time>
      </trkpt>
      <trkpt lat="43.63805" lon="1.23311">
        <ele>202</ele>
        <time>2020-10-03T09:01:40.000Z</time>
      </trkpt>
      <trkpt lat="43.63803" lon="1.23309">
        <ele>202</ele>
        <time>2020-10-03T09:01:41.000Z</time>
      </trkpt>
      <trkpt lat="43.63801" lon="1.23308">
        <ele>202</ele>
        <time>2020-10-03T09:01:42.000Z</time>
      </trkpt>
      <trkpt lat="43.63799" lon="1.23307">
        <ele>202</ele>
        <time>2020-10-03T09:01:43.000Z</time>
      </trkpt>
      <trkpt lat="43.63797" lon="1.23306">
        <ele>202</ele>
        <time>2020-10-03T09:01:44.000Z</time>
      </trkpt>
      <trkpt lat="43.63794" lon="1.23306">
        <ele>202</ele>
        <time>2020-10-03T09:01:45.000Z</time>
      </trkpt>
      <trkpt lat="43.63792" lon="1.23306">
        <ele>202</ele>
        <time>2020-10-03T09:01:46.000Z</time>
      </trkpt>
      <trkpt lat="43.63789" lon="1.23306">
        <ele>202</ele>
        <time>2020-10-03T09:01:47.000Z</time>
      </trkpt>
      <trkpt lat="43.63787" lon="1.23305">
        <ele>202</ele>
        <time>2020-10-03T09:01:48.000Z</time>
      </trkpt>
      <trkpt lat="43.63785" lon="1.23304">
        <ele>202</ele>
        <time>2020-10-03T09:01:49.000Z</time>
      </trkpt>
      <trkpt lat="43.63782" lon="1.23303">
        <ele>202</ele>
        <time>2020-10-03T09:01:50.000Z</time>
      </trkpt>
      <trkpt lat="43.6378" lon="1.23302">
        <ele>202.36111407407</ele>
        <time>2020-10-03T09:01:51.000Z</time>
      </trkpt>
      <trkpt lat="43.63777" lon="1.233">
        <ele>203</ele>
        <time>2020-10-03T09:01:52.000Z</time>
      </trkpt>
      <trkpt lat="43.63775" lon="1.23299">
        <ele>203.39999767274</ele>
        <time>2020-10-03T09:01:53.000Z</time>
      </trkpt>
      <trkpt lat="43.63773" lon="1.23298">
        <ele>204</ele>
        <time>2020-10-03T09:01:54.000Z</time>
      </trkpt>
      <trkpt lat="43.63771" lon="1.23297">
        <ele>204</ele>
        <time>2020-10-03T09:01:55.000Z</time>
      </trkpt>
      <trkpt lat="43.63769" lon="1.23297">
        <ele>204</ele>
        <time>2020-10-03T09:01:56.000Z</time>
      </trkpt>
      <trkpt lat="43.63766" lon="1.23295">
        <ele>204.30434976181</ele>
        <time>2020-10-03T09:01:57.000Z</time>
      </trkpt>
      <trkpt lat="43.63764" lon="1.23293">
        <ele>205</ele>
        <time>2020-10-03T09:01:58.000Z</time>
      </trkpt>
      <trkpt lat="43.63761" lon="1.23291">
        <ele>205</ele>
        <time>2020-10-03T09:01:59.000Z</time>
      </trkpt>
      <trkpt lat="43.63759" lon="1.23289">
        <ele>205.37272653223</ele>
        <time>2020-10-03T09:02:00.000Z</time>
      </trkpt>
      <trkpt lat="43.63756" lon="1.23287">
        <ele>206</ele>
        <time>2020-10-03T09:02:01.000Z</time>
      </trkpt>
      <trkpt lat="43.63754" lon="1.23285">
        <ele>206</ele>
        <time>2020-10-03T09:02:02.000Z</time>
      </trkpt>
      <trkpt lat="43.63752" lon="1.23283">
        <ele>206</ele>
        <time>2020-10-03T09:02:03.000Z</time>
      </trkpt>
      <trkpt lat="43.63749" lon="1.23281">
        <ele>206</ele>
        <time>2020-10-03T09:02:04.000Z</time>
      </trkpt>
      <trkpt lat="43.63747" lon="1.23279">
        <ele>206</ele>
        <time>2020-10-03T09:02:05.000Z</time>
      </trkpt>
      <trkpt lat="43.63744" lon="1.23277">
        <ele>206</ele>
        <time>2020-10-03T09:02:06.000Z</time>
      </trkpt>
      <trkpt lat="43.63742" lon="1.23275">
        <ele>206</ele>
        <time>2020-10-03T09:02:07.000Z</time>
      </trkpt>
      <trkpt lat="43.6374" lon="1.23272">
        <ele>206</ele>
        <time>2020-10-03T09:02:08.000Z</time>
      </trkpt>
      <trkpt lat="43.63739" lon="1.2327">
        <ele>206</ele>
        <time>2020-10-03T09:02:09.000Z</time>
      </trkpt>
      <trkpt lat="43.63737" lon="1.23267">
        <ele>206</ele>
        <time>2020-10-03T09:02:10.000Z</time>
      </trkpt>
      <trkpt lat="43.63736" lon="1.23264">
        <ele>206</ele>
        <time>2020-10-03T09:02:11.000Z</time>
      </trkpt>
      <trkpt lat="43.63737" lon="1.2326">
        <ele>206</ele>
        <time>2020-10-03T09:02:12.000Z</time>
      </trkpt>
      <trkpt lat="43.63737" lon="1.23255">
        <ele>206</ele>
        <time>2020-10-03T09:02:13.000Z</time>
      </trkpt>
      <trkpt lat="43.63737" lon="1.23251">
        <ele>206.37719367189</ele>
        <time>2020-10-03T09:02:14.000Z</time>
      </trkpt>
      <trkpt lat="43.63738" lon="1.23247">
        <ele>207</ele>
        <time>2020-10-03T09:02:15.000Z</time>
      </trkpt>
      <trkpt lat="43.63738" lon="1.23244">
        <ele>207</ele>
        <time>2020-10-03T09:02:16.000Z</time>
      </trkpt>
      <trkpt lat="43.63737" lon="1.2324">
        <ele>207</ele>
        <time>2020-10-03T09:02:17.000Z</time>
      </trkpt>
      <trkpt lat="43.63737" lon="1.23237">
        <ele>207</ele>
        <time>2020-10-03T09:02:18.000Z</time>
      </trkpt>
      <trkpt lat="43.63736" lon="1.23233">
        <ele>206.6037699395</ele>
        <time>2020-10-03T09:02:19.000Z</time>
      </trkpt>
      <trkpt lat="43.63736" lon="1.23229">
        <ele>206</ele>
        <time>2020-10-03T09:02:20.000Z</time>
      </trkpt>
      <trkpt lat="43.63735" lon="1.23225">
        <ele>206</ele>
        <time>2020-10-03T09:02:21.000Z</time>
      </trkpt>
      <trkpt lat="43.63734" lon="1.23221">
        <ele>206</ele>
        <time>2020-10-03T09:02:22.000Z</time>
      </trkpt>
      <trkpt lat="43.63733" lon="1.23217">
        <ele>206.3488323634</ele>
        <time>2020-10-03T09:02:23.000Z</time>
      </trkpt>
      <trkpt lat="43.63732" lon="1.23213">
        <ele>207</ele>
        <time>2020-10-03T09:02:24.000Z</time>
      </trkpt>
      <trkpt lat="43.6373" lon="1.2321">
        <ele>207</ele>
        <time>2020-10-03T09:02:25.000Z</time>
      </trkpt>
      <trkpt lat="43.63728" lon="1.23207">
        <ele>207</ele>
        <time>2020-10-03T09:02:26.000Z</time>
      </trkpt>
      <trkpt lat="43.63726" lon="1.23205">
        <ele>207</ele>
        <time>2020-10-03T09:02:27.000Z</time>
      </trkpt>
      <trkpt lat="43.63724" lon="1.23202">
        <ele>207</ele>
        <time>2020-10-03T09:02:28.000Z</time>
      </trkpt>
      <trkpt lat="43.63722" lon="1.23199">
        <ele>207</ele>
        <time>2020-10-03T09:02:29.000Z</time>
      </trkpt>
      <trkpt lat="43.63719" lon="1.23197">
        <ele>207</ele>
        <time>2020-10-03T09:02:30.000Z</time>
      </trkpt>
      <trkpt lat="43.63716" lon="1.23194">
        <ele>207</ele>
        <time>2020-10-03T09:02:31.000Z</time>
      </trkpt>
      <trkpt lat="43.63714" lon="1.23192">
        <ele>207</ele>
        <time>2020-10-03T09:02:32.000Z</time>
      </trkpt>
      <trkpt lat="43.63711" lon="1.2319">
        <ele>207</ele>
        <time>2020-10-03T09:02:33.000Z</time>
      </trkpt>
      <trkpt lat="43.63709" lon="1.23187">
        <ele>207</ele>
        <time>2020-10-03T09:02:34.000Z</time>
      </trkpt>
      <trkpt lat="43.63707" lon="1.23186">
        <ele>207</ele>
        <time>2020-10-03T09:02:35.000Z</time>
      </trkpt>
      <trkpt lat="43.63704" lon="1.23185">
        <ele>206.70512652204</ele>
        <time>2020-10-03T09:02:36.000Z</time>
      </trkpt>
      <trkpt lat="43.63702" lon="1.23183">
        <ele>206</ele>
        <time>2020-10-03T09:02:37.000Z</time>
      </trkpt>
      <trkpt lat="43.63699" lon="1.23182">
        <ele>206</ele>
        <time>2020-10-03T09:02:38.000Z</time>
      </trkpt>
      <trkpt lat="43.63697" lon="1.23181">
        <ele>206.31034736424</ele>
        <time>2020-10-03T09:02:39.000Z</time>
      </trkpt>
      <trkpt lat="43.63695" lon="1.2318">
        <ele>207</ele>
        <time>2020-10-03T09:02:40.000Z</time>
      </trkpt>
      <trkpt lat="43.63692" lon="1.23179">
        <ele>207</ele>
        <time>2020-10-03T09:02:41.000Z</time>
      </trkpt>
      <trkpt lat="43.63689" lon="1.23178">
        <ele>207</ele>
        <time>2020-10-03T09:02:42.000Z</time>
      </trkpt>
      <trkpt lat="43.63686" lon="1.23178">
        <ele>207</ele>
        <time>2020-10-03T09:02:43.000Z</time>
      </trkpt>
      <trkpt lat="43.63683" lon="1.23177">
        <ele>207</ele>
        <time>2020-10-03T09:02:44.000Z</time>
      </trkpt>
      <trkpt lat="43.63681" lon="1.23177">
        <ele>207</ele>
        <time>2020-10-03T09:02:45.000Z</time>
      </trkpt>
      <trkpt lat="43.63678" lon="1.23177">
        <ele>206.51923692308</ele>
        <time>2020-10-03T09:02:46.000Z</time>
      </trkpt>
      <trkpt lat="43.63676" lon="1.23177">
        <ele>206</ele>
        <time>2020-10-03T09:02:47.000Z</time>
      </trkpt>
      <trkpt lat="43.63674" lon="1.23176">
        <ele>206</ele>
        <time>2020-10-03T09:02:48.000Z</time>
      </trkpt>
      <trkpt lat="43.63671" lon="1.23175">
        <ele>206</ele>
        <time>2020-10-03T09:02:49.000Z</time>
      </trkpt>
      <trkpt lat="43.63668" lon="1.23174">
        <ele>206</ele>
        <time>2020-10-03T09:02:50.000Z</time>
      </trkpt>
      <trkpt lat="43.63665" lon="1.23175">
        <ele>206</ele>
        <time>2020-10-03T09:02:51.000Z</time>
      </trkpt>
      <trkpt lat="43.63663" lon="1.23174">
        <ele>206</ele>
        <time>2020-10-03T09:02:52.000Z</time>
      </trkpt>
      <trkpt lat="43.63659" lon="1.23174">
        <ele>206</ele>
        <time>2020-10-03T09:02:53.000Z</time>
      </trkpt>
      <trkpt lat="43.63656" lon="1.23173">
        <ele>206</ele>
        <time>2020-10-03T09:02:54.000Z</time>
      </trkpt>
      <trkpt lat="43.63654" lon="1.23171">
        <ele>206</ele>
        <time>2020-10-03T09:02:55.000Z</time>
      </trkpt>
      <trkpt lat="43.63651" lon="1.2317">
        <ele>206</ele>
        <time>2020-10-03T09:02:56.000Z</time>
      </trkpt>
      <trkpt lat="43.63649" lon="1.23168">
        <ele>206</ele>
        <time>2020-10-03T09:02:57.000Z</time>
      </trkpt>
      <trkpt lat="43.63646" lon="1.23166">
        <ele>206</ele>
        <time>2020-10-03T09:02:58.000Z</time>
      </trkpt>
      <trkpt lat="43.63644" lon="1.23164">
        <ele>206</ele>
        <time>2020-10-03T09:02:59.000Z</time>
      </trkpt>
      <trkpt lat="43.63642" lon="1.23162">
        <ele>206</ele>
        <time>2020-10-03T09:03:00.000Z</time>
      </trkpt>
      <trkpt lat="43.6364" lon="1.23161">
        <ele>206</ele>
        <time>2020-10-03T09:03:01.000Z</time>
      </trkpt>
      <trkpt lat="43.63638" lon="1.2316">
        <ele>206</ele>
        <time>2020-10-03T09:03:02.000Z</time>
      </trkpt>
      <trkpt lat="43.63635" lon="1.2316">
        <ele>206</ele>
        <time>2020-10-03T09:03:03.000Z</time>
      </trkpt>
      <trkpt lat="43.63632" lon="1.23159">
        <ele>206</ele>
        <time>2020-10-03T09:03:04.000Z</time>
      </trkpt>
      <trkpt lat="43.6363" lon="1.23159">
        <ele>206</ele>
        <time>2020-10-03T09:03:05.000Z</time>
      </trkpt>
      <trkpt lat="43.63627" lon="1.23159">
        <ele>206</ele>
        <time>2020-10-03T09:03:06.000Z</time>
      </trkpt>
      <trkpt lat="43.63625" lon="1.2316">
        <ele>206</ele>
        <time>2020-10-03T09:03:07.000Z</time>
      </trkpt>
      <trkpt lat="43.63623" lon="1.23159">
        <ele>206</ele>
        <time>2020-10-03T09:03:08.000Z</time>
      </trkpt>
      <trkpt lat="43.6362" lon="1.23158">
        <ele>206.30952671197</ele>
        <time>2020-10-03T09:03:09.000Z</time>
      </trkpt>
      <trkpt lat="43.63618" lon="1.23157">
        <ele>207</ele>
        <time>2020-10-03T09:03:10.000Z</time>
      </trkpt>
      <trkpt lat="43.63615" lon="1.23155">
        <ele>207</ele>
        <time>2020-10-03T09:03:11.000Z</time>
      </trkpt>
      <trkpt lat="43.63612" lon="1.23153">
        <ele>207</ele>
        <time>2020-10-03T09:03:12.000Z</time>
      </trkpt>
      <trkpt lat="43.6361" lon="1.23151">
        <ele>207</ele>
        <time>2020-10-03T09:03:13.000Z</time>
      </trkpt>
      <trkpt lat="43.63608" lon="1.23149">
        <ele>207</ele>
        <time>2020-10-03T09:03:14.000Z</time>
      </trkpt>
      <trkpt lat="43.63606" lon="1.23148">
        <ele>207</ele>
        <time>2020-10-03T09:03:15.000Z</time>
      </trkpt>
      <trkpt lat="43.63604" lon="1.23146">
        <ele>207</ele>
        <time>2020-10-03T09:03:16.000Z</time>
      </trkpt>
      <trkpt lat="43.63601" lon="1.23144">
        <ele>207</ele>
        <time>2020-10-03T09:03:17.000Z</time>
      </trkpt>
      <trkpt lat="43.63598" lon="1.23142">
        <ele>207.46601796965</ele>
        <time>2020-10-03T09:03:18.000Z</time>
      </trkpt>
      <trkpt lat="43.63596" lon="1.23141">
        <ele>208</ele>
        <time>2020-10-03T09:03:19.000Z</time>
      </trkpt>
      <trkpt lat="43.63594" lon="1.23139">
        <ele>208</ele>
        <time>2020-10-03T09:03:20.000Z</time>
      </trkpt>
      <trkpt lat="43.63591" lon="1.23136">
        <ele>208</ele>
        <time>2020-10-03T09:03:21.000Z</time>
      </trkpt>
      <trkpt lat="43.63589" lon="1.23134">
        <ele>208</ele>
        <time>2020-10-03T09:03:22.000Z</time>
      </trkpt>
      <trkpt lat="43.63586" lon="1.23133">
        <ele>208</ele>
        <time>2020-10-03T09:03:23.000Z</time>
      </trkpt>
      <trkpt lat="43.63584" lon="1.23132">
        <ele>208</ele>
        <time>2020-10-03T09:03:24.000Z</time>
      </trkpt>
      <trkpt lat="43.63581" lon="1.23131">
        <ele>208</ele>
        <time>2020-10-03T09:03:25.000Z</time>
      </trkpt>
      <trkpt lat="43.63578" lon="1.2313">
        <ele>208</ele>
        <time>2020-10-03T09:03:26.000Z</time>
      </trkpt>
      <trkpt lat="43.63576" lon="1.2313">
        <ele>208</ele>
        <time>2020-10-03T09:03:27.000Z</time>
      </trkpt>
      <trkpt lat="43.63573" lon="1.2313">
        <ele>207.65115794487</ele>
        <time>2020-10-03T09:03:28.000Z</time>
      </trkpt>
      <trkpt lat="43.6357" lon="1.2313">
        <ele>207</ele>
        <time>2020-10-03T09:03:29.000Z</time>
      </trkpt>
      <trkpt lat="43.63568" lon="1.2313">
        <ele>207</ele>
        <time>2020-10-03T09:03:30.000Z</time>
      </trkpt>
      <trkpt lat="43.63565" lon="1.23129">
        <ele>207</ele>
        <time>2020-10-03T09:03:31.000Z</time>
      </trkpt>
      <trkpt lat="43.63562" lon="1.23129">
        <ele>207</ele>
        <time>2020-10-03T09:03:32.000Z</time>
      </trkpt>
      <trkpt lat="43.63559" lon="1.23129">
        <ele>207</ele>
        <time>2020-10-03T09:03:33.000Z</time>
      </trkpt>
      <trkpt lat="43.63557" lon="1.23127">
        <ele>207</ele>
        <time>2020-10-03T09:03:34.000Z</time>
      </trkpt>
      <trkpt lat="43.63555" lon="1.23125">
        <ele>207</ele>
        <time>2020-10-03T09:03:35.000Z</time>
      </trkpt>
      <trkpt lat="43.63552" lon="1.23123">
        <ele>206.52381416782</ele>
        <time>2020-10-03T09:03:36.000Z</time>
      </trkpt>
      <trkpt lat="43.63551" lon="1.23121">
        <ele>206</ele>
        <time>2020-10-03T09:03:37.000Z</time>
      </trkpt>
      <trkpt lat="43.63549" lon="1.23119">
        <ele>205</ele>
        <time>2020-10-03T09:03:39.000Z</time>
      </trkpt>
      <trkpt lat="43.63546" lon="1.23114">
        <ele>205.5</ele>
        <time>2020-10-03T09:03:41.000Z</time>
      </trkpt>
      <trkpt lat="43.63545" lon="1.23112">
        <ele>206.47618583218</ele>
        <time>2020-10-03T09:03:42.000Z</time>
      </trkpt>
      <trkpt lat="43.63543" lon="1.23109">
        <ele>207</ele>
        <time>2020-10-03T09:03:43.000Z</time>
      </trkpt>
      <trkpt lat="43.63541" lon="1.23107">
        <ele>206.5</ele>
        <time>2020-10-03T09:03:44.000Z</time>
      </trkpt>
      <trkpt lat="43.63539" lon="1.23104">
        <ele>206</ele>
        <time>2020-10-03T09:03:45.000Z</time>
      </trkpt>
      <trkpt lat="43.63537" lon="1.23101">
        <ele>205.88888601572</ele>
        <time>2020-10-03T09:03:46.000Z</time>
      </trkpt>
      <trkpt lat="43.63535" lon="1.23097">
        <ele>205</ele>
        <time>2020-10-03T09:03:47.000Z</time>
      </trkpt>
      <trkpt lat="43.63533" lon="1.23094">
        <ele>205</ele>
        <time>2020-10-03T09:03:48.000Z</time>
      </trkpt>
      <trkpt lat="43.6353" lon="1.23092">
        <ele>205</ele>
        <time>2020-10-03T09:03:49.000Z</time>
      </trkpt>
      <trkpt lat="43.63528" lon="1.23089">
        <ele>204.09091543805</ele>
        <time>2020-10-03T09:03:50.000Z</time>
      </trkpt>
      <trkpt lat="43.63525" lon="1.23086">
        <ele>203</ele>
        <time>2020-10-03T09:03:51.000Z</time>
      </trkpt>
      <trkpt lat="43.63523" lon="1.23084">
        <ele>203</ele>
        <time>2020-10-03T09:03:52.000Z</time>
      </trkpt>
      <trkpt lat="43.63521" lon="1.23082">
        <ele>203</ele>
        <time>2020-10-03T09:03:53.000Z</time>
      </trkpt>
      <trkpt lat="43.6352" lon="1.23079">
        <ele>202.60000602355</ele>
        <time>2020-10-03T09:03:54.000Z</time>
      </trkpt>
      <trkpt lat="43.63519" lon="1.23075">
        <ele>202</ele>
        <time>2020-10-03T09:03:55.000Z</time>
      </trkpt>
      <trkpt lat="43.63518" lon="1.23072">
        <ele>202</ele>
        <time>2020-10-03T09:03:56.000Z</time>
      </trkpt>
      <trkpt lat="43.63516" lon="1.23069">
        <ele>202</ele>
        <time>2020-10-03T09:03:57.000Z</time>
      </trkpt>
      <trkpt lat="43.63514" lon="1.23067">
        <ele>202</ele>
        <time>2020-10-03T09:03:58.000Z</time>
      </trkpt>
      <trkpt lat="43.63513" lon="1.23065">
        <ele>202</ele>
        <time>2020-10-03T09:03:59.000Z</time>
      </trkpt>
      <trkpt lat="43.63511" lon="1.23064">
        <ele>202</ele>
        <time>2020-10-03T09:04:00.000Z</time>
      </trkpt>
      <trkpt lat="43.63509" lon="1.23062">
        <ele>202</ele>
        <time>2020-10-03T09:04:01.000Z</time>
      </trkpt>
      <trkpt lat="43.63507" lon="1.23061">
        <ele>202</ele>
        <time>2020-10-03T09:04:02.000Z</time>
      </trkpt>
      <trkpt lat="43.63505" lon="1.23061">
        <ele>202</ele>
        <time>2020-10-03T09:04:03.000Z</time>
      </trkpt>
      <trkpt lat="43.63503" lon="1.2306">
        <ele>202.41860776638</ele>
        <time>2020-10-03T09:04:04.000Z</time>
      </trkpt>
      <trkpt lat="43.63501" lon="1.2306">
        <ele>203</ele>
        <time>2020-10-03T09:04:05.000Z</time>
      </trkpt>
      <trkpt lat="43.63497" lon="1.23062">
        <ele>203</ele>
        <time>2020-10-03T09:04:07.000Z</time>
      </trkpt>
      <trkpt lat="43.63495" lon="1.23063">
        <ele>203</ele>
        <time>2020-10-03T09:04:09.000Z</time>
      </trkpt>
      <trkpt lat="43.63493" lon="1.23063">
        <ele>203</ele>
        <time>2020-10-03T09:04:10.000Z</time>
      </trkpt>
      <trkpt lat="43.6349" lon="1.23065">
        <ele>203</ele>
        <time>2020-10-03T09:04:12.000Z</time>
      </trkpt>
      <trkpt lat="43.63487" lon="1.23066">
        <ele>203</ele>
        <time>2020-10-03T09:04:14.000Z</time>
      </trkpt>
      <trkpt lat="43.63484" lon="1.23065">
        <ele>203.38834830804</ele>
        <time>2020-10-03T09:04:16.000Z</time>
      </trkpt>
      <trkpt lat="43.63481" lon="1.23064">
        <ele>204</ele>
        <time>2020-10-03T09:04:18.000Z</time>
      </trkpt>
      <trkpt lat="43.63479" lon="1.23061">
        <ele>204</ele>
        <time>2020-10-03T09:04:20.000Z</time>
      </trkpt>
      <trkpt lat="43.63476" lon="1.23059">
        <ele>204</ele>
        <time>2020-10-03T09:04:22.000Z</time>
      </trkpt>
      <trkpt lat="43.63474" lon="1.23056">
        <ele>204</ele>
        <time>2020-10-03T09:04:24.000Z</time>
      </trkpt>
      <trkpt lat="43.63471" lon="1.23054">
        <ele>204</ele>
        <time>2020-10-03T09:04:26.000Z</time>
      </trkpt>
      <trkpt lat="43.63469" lon="1.23052">
        <ele>204</ele>
        <time>2020-10-03T09:04:27.000Z</time>
      </trkpt>
      <trkpt lat="43.63467" lon="1.2305">
        <ele>204</ele>
        <time>2020-10-03T09:04:28.000Z</time>
      </trkpt>
      <trkpt lat="43.63465" lon="1.23048">
        <ele>204</ele>
        <time>2020-10-03T09:04:29.000Z</time>
      </trkpt>
      <trkpt lat="43.63463" lon="1.23046">
        <ele>204</ele>
        <time>2020-10-03T09:04:30.000Z</time>
      </trkpt>
      <trkpt lat="43.63462" lon="1.23043">
        <ele>204</ele>
        <time>2020-10-03T09:04:31.000Z</time>
      </trkpt>
      <trkpt lat="43.63461" lon="1.23041">
        <ele>204.44210299388</ele>
        <time>2020-10-03T09:04:32.000Z</time>
      </trkpt>
      <trkpt lat="43.63459" lon="1.23038">
        <ele>205</ele>
        <time>2020-10-03T09:04:33.000Z</time>
      </trkpt>
      <trkpt lat="43.63457" lon="1.23035">
        <ele>205</ele>
        <time>2020-10-03T09:04:34.000Z</time>
      </trkpt>
      <trkpt lat="43.63455" lon="1.23032">
        <ele>205</ele>
        <time>2020-10-03T09:04:35.000Z</time>
      </trkpt>
      <trkpt lat="43.63453" lon="1.23029">
        <ele>205</ele>
        <time>2020-10-03T09:04:36.000Z</time>
      </trkpt>
      <trkpt lat="43.63451" lon="1.23026">
        <ele>205</ele>
        <time>2020-10-03T09:04:37.000Z</time>
      </trkpt>
      <trkpt lat="43.63449" lon="1.23023">
        <ele>205</ele>
        <time>2020-10-03T09:04:38.000Z</time>
      </trkpt>
      <trkpt lat="43.63447" lon="1.2302">
        <ele>205</ele>
        <time>2020-10-03T09:04:39.000Z</time>
      </trkpt>
      <trkpt lat="43.63445" lon="1.23016">
        <ele>205</ele>
        <time>2020-10-03T09:04:40.000Z</time>
      </trkpt>
      <trkpt lat="43.63444" lon="1.23013">
        <ele>205</ele>
        <time>2020-10-03T09:04:41.000Z</time>
      </trkpt>
      <trkpt lat="43.63442" lon="1.23011">
        <ele>205</ele>
        <time>2020-10-03T09:04:42.000Z</time>
      </trkpt>
      <trkpt lat="43.63441" lon="1.23007">
        <ele>205</ele>
        <time>2020-10-03T09:04:43.000Z</time>
      </trkpt>
      <trkpt lat="43.6344" lon="1.23004">
        <ele>205</ele>
        <time>2020-10-03T09:04:44.000Z</time>
      </trkpt>
      <trkpt lat="43.63438" lon="1.23001">
        <ele>205</ele>
        <time>2020-10-03T09:04:45.000Z</time>
      </trkpt>
      <trkpt lat="43.63436" lon="1.22997">
        <ele>205</ele>
        <time>2020-10-03T09:04:46.000Z</time>
      </trkpt>
      <trkpt lat="43.63435" lon="1.22994">
        <ele>205</ele>
        <time>2020-10-03T09:04:47.000Z</time>
      </trkpt>
      <trkpt lat="43.63433" lon="1.22991">
        <ele>205</ele>
        <time>2020-10-03T09:04:48.000Z</time>
      </trkpt>
      <trkpt lat="43.63429" lon="1.22985">
        <ele>205</ele>
        <time>2020-10-03T09:04:50.000Z</time>
      </trkpt>
      <trkpt lat="43.63427" lon="1.22982">
        <ele>205</ele>
        <time>2020-10-03T09:04:51.000Z</time>
      </trkpt>
      <trkpt lat="43.63425" lon="1.22979">
        <ele>205</ele>
        <time>2020-10-03T09:04:52.000Z</time>
      </trkpt>
      <trkpt lat="43.63423" lon="1.22976">
        <ele>205</ele>
        <time>2020-10-03T09:04:53.000Z</time>
      </trkpt>
      <trkpt lat="43.63422" lon="1.22973">
        <ele>205</ele>
        <time>2020-10-03T09:04:54.000Z</time>
      </trkpt>
      <trkpt lat="43.6342" lon="1.2297">
        <ele>205</ele>
        <time>2020-10-03T09:04:55.000Z</time>
      </trkpt>
      <trkpt lat="43.63418" lon="1.22968">
        <ele>205.33708220675</ele>
        <time>2020-10-03T09:04:56.000Z</time>
      </trkpt>
      <trkpt lat="43.63416" lon="1.22965">
        <ele>206</ele>
        <time>2020-10-03T09:04:57.000Z</time>
      </trkpt>
      <trkpt lat="43.63413" lon="1.22963">
        <ele>206</ele>
        <time>2020-10-03T09:04:58.000Z</time>
      </trkpt>
      <trkpt lat="43.63411" lon="1.22961">
        <ele>206</ele>
        <time>2020-10-03T09:04:59.000Z</time>
      </trkpt>
      <trkpt lat="43.63409" lon="1.22959">
        <ele>206</ele>
        <time>2020-10-03T09:05:00.000Z</time>
      </trkpt>
      <trkpt lat="43.63406" lon="1.22956">
        <ele>206</ele>
        <time>2020-10-03T09:05:01.000Z</time>
      </trkpt>
      <trkpt lat="43.63404" lon="1.22953">
        <ele>206</ele>
        <time>2020-10-03T09:05:02.000Z</time>
      </trkpt>
      <trkpt lat="43.63402" lon="1.22951">
        <ele>206</ele>
        <time>2020-10-03T09:05:03.000Z</time>
      </trkpt>
      <trkpt lat="43.634" lon="1.22948">
        <ele>206</ele>
        <time>2020-10-03T09:05:04.000Z</time>
      </trkpt>
      <trkpt lat="43.63397" lon="1.22945">
        <ele>206</ele>
        <time>2020-10-03T09:05:05.000Z</time>
      </trkpt>
      <trkpt lat="43.63395" lon="1.22942">
        <ele>206</ele>
        <time>2020-10-03T09:05:06.000Z</time>
      </trkpt>
      <trkpt lat="43.63392" lon="1.22939">
        <ele>206</ele>
        <time>2020-10-03T09:05:07.000Z</time>
      </trkpt>
      <trkpt lat="43.6339" lon="1.22936">
        <ele>206</ele>
        <time>2020-10-03T09:05:08.000Z</time>
      </trkpt>
      <trkpt lat="43.63388" lon="1.22934">
        <ele>206</ele>
        <time>2020-10-03T09:05:09.000Z</time>
      </trkpt>
      <trkpt lat="43.63386" lon="1.2293">
        <ele>206</ele>
        <time>2020-10-03T09:05:10.000Z</time>
      </trkpt>
      <trkpt lat="43.63384" lon="1.22927">
        <ele>206</ele>
        <time>2020-10-03T09:05:11.000Z</time>
      </trkpt>
      <trkpt lat="43.63382" lon="1.22924">
        <ele>206</ele>
        <time>2020-10-03T09:05:12.000Z</time>
      </trkpt>
      <trkpt lat="43.6338" lon="1.2292">
        <ele>206</ele>
        <time>2020-10-03T09:05:13.000Z</time>
      </trkpt>
      <trkpt lat="43.63378" lon="1.22917">
        <ele>206</ele>
        <time>2020-10-03T09:05:14.000Z</time>
      </trkpt>
      <trkpt lat="43.63376" lon="1.22914">
        <ele>206</ele>
        <time>2020-10-03T09:05:15.000Z</time>
      </trkpt>
      <trkpt lat="43.63374" lon="1.22911">
        <ele>206</ele>
        <time>2020-10-03T09:05:16.000Z</time>
      </trkpt>
      <trkpt lat="43.63372" lon="1.22909">
        <ele>205.63528897991</ele>
        <time>2020-10-03T09:05:17.000Z</time>
      </trkpt>
      <trkpt lat="43.6337" lon="1.22906">
        <ele>205</ele>
        <time>2020-10-03T09:05:18.000Z</time>
      </trkpt>
      <trkpt lat="43.63368" lon="1.22903">
        <ele>205</ele>
        <time>2020-10-03T09:05:19.000Z</time>
      </trkpt>
      <trkpt lat="43.63365" lon="1.229">
        <ele>205</ele>
        <time>2020-10-03T09:05:20.000Z</time>
      </trkpt>
      <trkpt lat="43.63363" lon="1.22898">
        <ele>205.34444555061</ele>
        <time>2020-10-03T09:05:21.000Z</time>
      </trkpt>
      <trkpt lat="43.63361" lon="1.22894">
        <ele>206</ele>
        <time>2020-10-03T09:05:22.000Z</time>
      </trkpt>
      <trkpt lat="43.63359" lon="1.22891">
        <ele>206</ele>
        <time>2020-10-03T09:05:23.000Z</time>
      </trkpt>
      <trkpt lat="43.63357" lon="1.22888">
        <ele>206</ele>
        <time>2020-10-03T09:05:24.000Z</time>
      </trkpt>
      <trkpt lat="43.63354" lon="1.22884">
        <ele>206</ele>
        <time>2020-10-03T09:05:25.000Z</time>
      </trkpt>
      <trkpt lat="43.63352" lon="1.22881">
        <ele>206</ele>
        <time>2020-10-03T09:05:26.000Z</time>
      </trkpt>
      <trkpt lat="43.63349" lon="1.22878">
        <ele>206</ele>
        <time>2020-10-03T09:05:27.000Z</time>
      </trkpt>
      <trkpt lat="43.63347" lon="1.22876">
        <ele>206</ele>
        <time>2020-10-03T09:05:28.000Z</time>
      </trkpt>
      <trkpt lat="43.63345" lon="1.22873">
        <ele>206</ele>
        <time>2020-10-03T09:05:29.000Z</time>
      </trkpt>
      <trkpt lat="43.63342" lon="1.2287">
        <ele>206</ele>
        <time>2020-10-03T09:05:30.000Z</time>
      </trkpt>
      <trkpt lat="43.6334" lon="1.22867">
        <ele>206</ele>
        <time>2020-10-03T09:05:31.000Z</time>
      </trkpt>
      <trkpt lat="43.63338" lon="1.22864">
        <ele>206</ele>
        <time>2020-10-03T09:05:32.000Z</time>
      </trkpt>
      <trkpt lat="43.63336" lon="1.22862">
        <ele>206</ele>
        <time>2020-10-03T09:05:33.000Z</time>
      </trkpt>
      <trkpt lat="43.63333" lon="1.22859">
        <ele>206</ele>
        <time>2020-10-03T09:05:34.000Z</time>
      </trkpt>
      <trkpt lat="43.63332" lon="1.22856">
        <ele>206</ele>
        <time>2020-10-03T09:05:35.000Z</time>
      </trkpt>
      <trkpt lat="43.63329" lon="1.22853">
        <ele>206</ele>
        <time>2020-10-03T09:05:36.000Z</time>
      </trkpt>
      <trkpt lat="43.63327" lon="1.22851">
        <ele>206</ele>
        <time>2020-10-03T09:05:37.000Z</time>
      </trkpt>
      <trkpt lat="43.63325" lon="1.22849">
        <ele>206</ele>
        <time>2020-10-03T09:05:38.000Z</time>
      </trkpt>
      <trkpt lat="43.63323" lon="1.22847">
        <ele>206</ele>
        <time>2020-10-03T09:05:39.000Z</time>
      </trkpt>
      <trkpt lat="43.6332" lon="1.22844">
        <ele>206</ele>
        <time>2020-10-03T09:05:40.000Z</time>
      </trkpt>
      <trkpt lat="43.63318" lon="1.22842">
        <ele>206</ele>
        <time>2020-10-03T09:05:41.000Z</time>
      </trkpt>
      <trkpt lat="43.63315" lon="1.2284">
        <ele>206</ele>
        <time>2020-10-03T09:05:42.000Z</time>
      </trkpt>
      <trkpt lat="43.63313" lon="1.22838">
        <ele>206</ele>
        <time>2020-10-03T09:05:43.000Z</time>
      </trkpt>
      <trkpt lat="43.63311" lon="1.22835">
        <ele>206</ele>
        <time>2020-10-03T09:05:44.000Z</time>
      </trkpt>
      <trkpt lat="43.63308" lon="1.22833">
        <ele>206</ele>
        <time>2020-10-03T09:05:45.000Z</time>
      </trkpt>
      <trkpt lat="43.63306" lon="1.22831">
        <ele>206</ele>
        <time>2020-10-03T09:05:46.000Z</time>
      </trkpt>
      <trkpt lat="43.63304" lon="1.22828">
        <ele>206</ele>
        <time>2020-10-03T09:05:47.000Z</time>
      </trkpt>
      <trkpt lat="43.63302" lon="1.22826">
        <ele>205.60240889533</ele>
        <time>2020-10-03T09:05:48.000Z</time>
      </trkpt>
      <trkpt lat="43.633" lon="1.22825">
        <ele>205</ele>
        <time>2020-10-03T09:05:49.000Z</time>
      </trkpt>
      <trkpt lat="43.63298" lon="1.22823">
        <ele>205</ele>
        <time>2020-10-03T09:05:50.000Z</time>
      </trkpt>
      <trkpt lat="43.63295" lon="1.22821">
        <ele>205</ele>
        <time>2020-10-03T09:05:51.000Z</time>
      </trkpt>
      <trkpt lat="43.63293" lon="1.2282">
        <ele>205</ele>
        <time>2020-10-03T09:05:52.000Z</time>
      </trkpt>
      <trkpt lat="43.63291" lon="1.22818">
        <ele>205</ele>
        <time>2020-10-03T09:05:53.000Z</time>
      </trkpt>
      <trkpt lat="43.63288" lon="1.22816">
        <ele>205</ele>
        <time>2020-10-03T09:05:54.000Z</time>
      </trkpt>
      <trkpt lat="43.63286" lon="1.22814">
        <ele>205</ele>
        <time>2020-10-03T09:05:55.000Z</time>
      </trkpt>
      <trkpt lat="43.63283" lon="1.22812">
        <ele>205</ele>
        <time>2020-10-03T09:05:56.000Z</time>
      </trkpt>
      <trkpt lat="43.63281" lon="1.2281">
        <ele>205</ele>
        <time>2020-10-03T09:05:57.000Z</time>
      </trkpt>
      <trkpt lat="43.63279" lon="1.22808">
        <ele>205</ele>
        <time>2020-10-03T09:05:58.000Z</time>
      </trkpt>
      <trkpt lat="43.63276" lon="1.22807">
        <ele>205</ele>
        <time>2020-10-03T09:05:59.000Z</time>
      </trkpt>
      <trkpt lat="43.63274" lon="1.22804">
        <ele>205</ele>
        <time>2020-10-03T09:06:00.000Z</time>
      </trkpt>
      <trkpt lat="43.63272" lon="1.22803">
        <ele>205.36936968104</ele>
        <time>2020-10-03T09:06:01.000Z</time>
      </trkpt>
      <trkpt lat="43.6327" lon="1.22801">
        <ele>206</ele>
        <time>2020-10-03T09:06:02.000Z</time>
      </trkpt>
      <trkpt lat="43.63267" lon="1.228">
        <ele>206</ele>
        <time>2020-10-03T09:06:03.000Z</time>
      </trkpt>
      <trkpt lat="43.63265" lon="1.22798">
        <ele>206</ele>
        <time>2020-10-03T09:06:04.000Z</time>
      </trkpt>
      <trkpt lat="43.63262" lon="1.22797">
        <ele>206.2337716309</ele>
        <time>2020-10-03T09:06:05.000Z</time>
      </trkpt>
      <trkpt lat="43.63259" lon="1.22796">
        <ele>207</ele>
        <time>2020-10-03T09:06:06.000Z</time>
      </trkpt>
      <trkpt lat="43.63256" lon="1.22796">
        <ele>207</ele>
        <time>2020-10-03T09:06:07.000Z</time>
      </trkpt>
      <trkpt lat="43.63254" lon="1.22794">
        <ele>207</ele>
        <time>2020-10-03T09:06:08.000Z</time>
      </trkpt>
      <trkpt lat="43.63251" lon="1.22793">
        <ele>207.35632420662</ele>
        <time>2020-10-03T09:06:09.000Z</time>
      </trkpt>
      <trkpt lat="43.63249" lon="1.22792">
        <ele>208</ele>
        <time>2020-10-03T09:06:10.000Z</time>
      </trkpt>
      <trkpt lat="43.63246" lon="1.22791">
        <ele>208</ele>
        <time>2020-10-03T09:06:11.000Z</time>
      </trkpt>
      <trkpt lat="43.63243" lon="1.2279">
        <ele>208</ele>
        <time>2020-10-03T09:06:12.000Z</time>
      </trkpt>
      <trkpt lat="43.6324" lon="1.22789">
        <ele>208</ele>
        <time>2020-10-03T09:06:13.000Z</time>
      </trkpt>
      <trkpt lat="43.63237" lon="1.22788">
        <ele>208</ele>
        <time>2020-10-03T09:06:14.000Z</time>
      </trkpt>
      <trkpt lat="43.63235" lon="1.22788">
        <ele>208</ele>
        <time>2020-10-03T09:06:15.000Z</time>
      </trkpt>
      <trkpt lat="43.63233" lon="1.22788">
        <ele>208</ele>
        <time>2020-10-03T09:06:16.000Z</time>
      </trkpt>
      <trkpt lat="43.6323" lon="1.22788">
        <ele>208</ele>
        <time>2020-10-03T09:06:17.000Z</time>
      </trkpt>
      <trkpt lat="43.63228" lon="1.22787">
        <ele>208</ele>
        <time>2020-10-03T09:06:18.000Z</time>
      </trkpt>
      <trkpt lat="43.63225" lon="1.22787">
        <ele>208</ele>
        <time>2020-10-03T09:06:19.000Z</time>
      </trkpt>
      <trkpt lat="43.63222" lon="1.22786">
        <ele>208</ele>
        <time>2020-10-03T09:06:20.000Z</time>
      </trkpt>
      <trkpt lat="43.6322" lon="1.22784">
        <ele>207.62727346777</ele>
        <time>2020-10-03T09:06:21.000Z</time>
      </trkpt>
      <trkpt lat="43.63217" lon="1.22782">
        <ele>207</ele>
        <time>2020-10-03T09:06:22.000Z</time>
      </trkpt>
      <trkpt lat="43.63215" lon="1.2278">
        <ele>207</ele>
        <time>2020-10-03T09:06:23.000Z</time>
      </trkpt>
      <trkpt lat="43.63213" lon="1.22778">
        <ele>207</ele>
        <time>2020-10-03T09:06:24.000Z</time>
      </trkpt>
      <trkpt lat="43.63211" lon="1.22776">
        <ele>207</ele>
        <time>2020-10-03T09:06:25.000Z</time>
      </trkpt>
      <trkpt lat="43.63209" lon="1.22774">
        <ele>207</ele>
        <time>2020-10-03T09:06:26.000Z</time>
      </trkpt>
      <trkpt lat="43.63206" lon="1.22773">
        <ele>207</ele>
        <time>2020-10-03T09:06:27.000Z</time>
      </trkpt>
      <trkpt lat="43.63204" lon="1.22771">
        <ele>207</ele>
        <time>2020-10-03T09:06:28.000Z</time>
      </trkpt>
      <trkpt lat="43.63203" lon="1.22769">
        <ele>207</ele>
        <time>2020-10-03T09:06:29.000Z</time>
      </trkpt>
      <trkpt lat="43.632" lon="1.22768">
        <ele>207</ele>
        <time>2020-10-03T09:06:30.000Z</time>
      </trkpt>
      <trkpt lat="43.63198" lon="1.22766">
        <ele>207</ele>
        <time>2020-10-03T09:06:31.000Z</time>
      </trkpt>
      <trkpt lat="43.63196" lon="1.22764">
        <ele>207.44085829113</ele>
        <time>2020-10-03T09:06:32.000Z</time>
      </trkpt>
      <trkpt lat="43.63194" lon="1.22762">
        <ele>208</ele>
        <time>2020-10-03T09:06:33.000Z</time>
      </trkpt>
      <trkpt lat="43.63191" lon="1.22761">
        <ele>208</ele>
        <time>2020-10-03T09:06:34.000Z</time>
      </trkpt>
      <trkpt lat="43.63189" lon="1.2276">
        <ele>208</ele>
        <time>2020-10-03T09:06:35.000Z</time>
      </trkpt>
      <trkpt lat="43.63186" lon="1.22759">
        <ele>208</ele>
        <time>2020-10-03T09:06:36.000Z</time>
      </trkpt>
      <trkpt lat="43.63184" lon="1.22757">
        <ele>208</ele>
        <time>2020-10-03T09:06:37.000Z</time>
      </trkpt>
      <trkpt lat="43.63181" lon="1.22756">
        <ele>208</ele>
        <time>2020-10-03T09:06:38.000Z</time>
      </trkpt>
      <trkpt lat="43.63179" lon="1.22755">
        <ele>208</ele>
        <time>2020-10-03T09:06:39.000Z</time>
      </trkpt>
      <trkpt lat="43.63177" lon="1.22753">
        <ele>208</ele>
        <time>2020-10-03T09:06:40.000Z</time>
      </trkpt>
      <trkpt lat="43.63175" lon="1.22751">
        <ele>208</ele>
        <time>2020-10-03T09:06:41.000Z</time>
      </trkpt>
      <trkpt lat="43.63173" lon="1.22749">
        <ele>208</ele>
        <time>2020-10-03T09:06:42.000Z</time>
      </trkpt>
      <trkpt lat="43.63171" lon="1.22746">
        <ele>208.2337716309</ele>
        <time>2020-10-03T09:06:43.000Z</time>
      </trkpt>
      <trkpt lat="43.6317" lon="1.22743">
        <ele>209</ele>
        <time>2020-10-03T09:06:44.000Z</time>
      </trkpt>
      <trkpt lat="43.63168" lon="1.2274">
        <ele>209</ele>
        <time>2020-10-03T09:06:45.000Z</time>
      </trkpt>
      <trkpt lat="43.63167" lon="1.22737">
        <ele>209</ele>
        <time>2020-10-03T09:06:46.000Z</time>
      </trkpt>
      <trkpt lat="43.63165" lon="1.22734">
        <ele>209</ele>
        <time>2020-10-03T09:06:47.000Z</time>
      </trkpt>
      <trkpt lat="43.63164" lon="1.22731">
        <ele>209</ele>
        <time>2020-10-03T09:06:48.000Z</time>
      </trkpt>
      <trkpt lat="43.63163" lon="1.22727">
        <ele>209</ele>
        <time>2020-10-03T09:06:49.000Z</time>
      </trkpt>
      <trkpt lat="43.63161" lon="1.22725">
        <ele>209</ele>
        <time>2020-10-03T09:06:50.000Z</time>
      </trkpt>
      <trkpt lat="43.6316" lon="1.22721">
        <ele>209</ele>
        <time>2020-10-03T09:06:51.000Z</time>
      </trkpt>
      <trkpt lat="43.63158" lon="1.22718">
        <ele>209</ele>
        <time>2020-10-03T09:06:52.000Z</time>
      </trkpt>
      <trkpt lat="43.63156" lon="1.22714">
        <ele>209</ele>
        <time>2020-10-03T09:06:53.000Z</time>
      </trkpt>
      <trkpt lat="43.63155" lon="1.2271">
        <ele>209</ele>
        <time>2020-10-03T09:06:54.000Z</time>
      </trkpt>
      <trkpt lat="43.63153" lon="1.22706">
        <ele>209</ele>
        <time>2020-10-03T09:06:55.000Z</time>
      </trkpt>
      <trkpt lat="43.63153" lon="1.22702">
        <ele>209</ele>
        <time>2020-10-03T09:06:56.000Z</time>
      </trkpt>
      <trkpt lat="43.63151" lon="1.22699">
        <ele>209</ele>
        <time>2020-10-03T09:06:57.000Z</time>
      </trkpt>
      <trkpt lat="43.6315" lon="1.22695">
        <ele>209</ele>
        <time>2020-10-03T09:06:58.000Z</time>
      </trkpt>
      <trkpt lat="43.63148" lon="1.22692">
        <ele>209</ele>
        <time>2020-10-03T09:06:59.000Z</time>
      </trkpt>
      <trkpt lat="43.63146" lon="1.22689">
        <ele>209</ele>
        <time>2020-10-03T09:07:00.000Z</time>
      </trkpt>
      <trkpt lat="43.63144" lon="1.22685">
        <ele>209</ele>
        <time>2020-10-03T09:07:01.000Z</time>
      </trkpt>
      <trkpt lat="43.63142" lon="1.22682">
        <ele>209</ele>
        <time>2020-10-03T09:07:02.000Z</time>
      </trkpt>
      <trkpt lat="43.63141" lon="1.22679">
        <ele>209</ele>
        <time>2020-10-03T09:07:03.000Z</time>
      </trkpt>
      <trkpt lat="43.63139" lon="1.22677">
        <ele>209</ele>
        <time>2020-10-03T09:07:04.000Z</time>
      </trkpt>
      <trkpt lat="43.63137" lon="1.22675">
        <ele>209</ele>
        <time>2020-10-03T09:07:05.000Z</time>
      </trkpt>
      <trkpt lat="43.63135" lon="1.22672">
        <ele>209</ele>
        <time>2020-10-03T09:07:06.000Z</time>
      </trkpt>
      <trkpt lat="43.63133" lon="1.22669">
        <ele>209</ele>
        <time>2020-10-03T09:07:07.000Z</time>
      </trkpt>
      <trkpt lat="43.63131" lon="1.22666">
        <ele>209</ele>
        <time>2020-10-03T09:07:08.000Z</time>
      </trkpt>
      <trkpt lat="43.63129" lon="1.22664">
        <ele>209</ele>
        <time>2020-10-03T09:07:09.000Z</time>
      </trkpt>
      <trkpt lat="43.63127" lon="1.22661">
        <ele>209</ele>
        <time>2020-10-03T09:07:10.000Z</time>
      </trkpt>
      <trkpt lat="43.63125" lon="1.22658">
        <ele>209</ele>
        <time>2020-10-03T09:07:11.000Z</time>
      </trkpt>
      <trkpt lat="43.63122" lon="1.22655">
        <ele>209</ele>
        <time>2020-10-03T09:07:12.000Z</time>
      </trkpt>
      <trkpt lat="43.6312" lon="1.22652">
        <ele>209</ele>
        <time>2020-10-03T09:07:13.000Z</time>
      </trkpt>
      <trkpt lat="43.63119" lon="1.2265">
        <ele>209</ele>
        <time>2020-10-03T09:07:14.000Z</time>
      </trkpt>
      <trkpt lat="43.63117" lon="1.22647">
        <ele>209</ele>
        <time>2020-10-03T09:07:15.000Z</time>
      </trkpt>
      <trkpt lat="43.63114" lon="1.22644">
        <ele>209</ele>
        <time>2020-10-03T09:07:16.000Z</time>
      </trkpt>
      <trkpt lat="43.63112" lon="1.22641">
        <ele>209</ele>
        <time>2020-10-03T09:07:17.000Z</time>
      </trkpt>
      <trkpt lat="43.6311" lon="1.22639">
        <ele>209</ele>
        <time>2020-10-03T09:07:18.000Z</time>
      </trkpt>
      <trkpt lat="43.63109" lon="1.22635">
        <ele>209</ele>
        <time>2020-10-03T09:07:19.000Z</time>
      </trkpt>
      <trkpt lat="43.63107" lon="1.22633">
        <ele>209</ele>
        <time>2020-10-03T09:07:20.000Z</time>
      </trkpt>
      <trkpt lat="43.63106" lon="1.2263">
        <ele>209</ele>
        <time>2020-10-03T09:07:21.000Z</time>
      </trkpt>
      <trkpt lat="43.63104" lon="1.22627">
        <ele>209</ele>
        <time>2020-10-03T09:07:22.000Z</time>
      </trkpt>
      <trkpt lat="43.63103" lon="1.22624">
        <ele>209</ele>
        <time>2020-10-03T09:07:23.000Z</time>
      </trkpt>
      <trkpt lat="43.63101" lon="1.22621">
        <ele>209</ele>
        <time>2020-10-03T09:07:24.000Z</time>
      </trkpt>
      <trkpt lat="43.63099" lon="1.22618">
        <ele>209</ele>
        <time>2020-10-03T09:07:25.000Z</time>
      </trkpt>
      <trkpt lat="43.63097" lon="1.22615">
        <ele>209</ele>
        <time>2020-10-03T09:07:26.000Z</time>
      </trkpt>
      <trkpt lat="43.63095" lon="1.22612">
        <ele>209</ele>
        <time>2020-10-03T09:07:27.000Z</time>
      </trkpt>
      <trkpt lat="43.63093" lon="1.2261">
        <ele>209</ele>
        <time>2020-10-03T09:07:28.000Z</time>
      </trkpt>
      <trkpt lat="43.63091" lon="1.22608">
        <ele>209</ele>
        <time>2020-10-03T09:07:29.000Z</time>
      </trkpt>
      <trkpt lat="43.63089" lon="1.22605">
        <ele>209</ele>
        <time>2020-10-03T09:07:30.000Z</time>
      </trkpt>
      <trkpt lat="43.63087" lon="1.22602">
        <ele>209</ele>
        <time>2020-10-03T09:07:31.000Z</time>
      </trkpt>
      <trkpt lat="43.63085" lon="1.22601">
        <ele>209</ele>
        <time>2020-10-03T09:07:32.000Z</time>
      </trkpt>
      <trkpt lat="43.63082" lon="1.22599">
        <ele>209</ele>
        <time>2020-10-03T09:07:33.000Z</time>
      </trkpt>
      <trkpt lat="43.6308" lon="1.22598">
        <ele>209</ele>
        <time>2020-10-03T09:07:34.000Z</time>
      </trkpt>
      <trkpt lat="43.63078" lon="1.22597">
        <ele>209</ele>
        <time>2020-10-03T09:07:35.000Z</time>
      </trkpt>
      <trkpt lat="43.63075" lon="1.22595">
        <ele>209</ele>
        <time>2020-10-03T09:07:36.000Z</time>
      </trkpt>
      <trkpt lat="43.63073" lon="1.22594">
        <ele>209</ele>
        <time>2020-10-03T09:07:37.000Z</time>
      </trkpt>
      <trkpt lat="43.63071" lon="1.22594">
        <ele>209</ele>
        <time>2020-10-03T09:07:38.000Z</time>
      </trkpt>
      <trkpt lat="43.63068" lon="1.22593">
        <ele>209</ele>
        <time>2020-10-03T09:07:39.000Z</time>
      </trkpt>
      <trkpt lat="43.63065" lon="1.22593">
        <ele>209</ele>
        <time>2020-10-03T09:07:40.000Z</time>
      </trkpt>
      <trkpt lat="43.63063" lon="1.22593">
        <ele>209</ele>
        <time>2020-10-03T09:07:41.000Z</time>
      </trkpt>
      <trkpt lat="43.63061" lon="1.22593">
        <ele>209</ele>
        <time>2020-10-03T09:07:42.000Z</time>
      </trkpt>
      <trkpt lat="43.63058" lon="1.22594">
        <ele>209</ele>
        <time>2020-10-03T09:07:43.000Z</time>
      </trkpt>
      <trkpt lat="43.63055" lon="1.22594">
        <ele>209</ele>
        <time>2020-10-03T09:07:44.000Z</time>
      </trkpt>
      <trkpt lat="43.63052" lon="1.22595">
        <ele>209</ele>
        <time>2020-10-03T09:07:45.000Z</time>
      </trkpt>
      <trkpt lat="43.6305" lon="1.22595">
        <ele>208.67045818182</ele>
        <time>2020-10-03T09:07:46.000Z</time>
      </trkpt>
      <trkpt lat="43.63048" lon="1.22595">
        <ele>208</ele>
        <time>2020-10-03T09:07:47.000Z</time>
      </trkpt>
      <trkpt lat="43.63045" lon="1.22595">
        <ele>208</ele>
        <time>2020-10-03T09:07:48.000Z</time>
      </trkpt>
      <trkpt lat="43.63042" lon="1.22594">
        <ele>208</ele>
        <time>2020-10-03T09:07:49.000Z</time>
      </trkpt>
      <trkpt lat="43.6304" lon="1.22593">
        <ele>208</ele>
        <time>2020-10-03T09:07:50.000Z</time>
      </trkpt>
      <trkpt lat="43.63037" lon="1.22591">
        <ele>208</ele>
        <time>2020-10-03T09:07:51.000Z</time>
      </trkpt>
      <trkpt lat="43.63035" lon="1.22589">
        <ele>208.42708</ele>
        <time>2020-10-03T09:07:52.000Z</time>
      </trkpt>
      <trkpt lat="43.63033" lon="1.22587">
        <ele>209</ele>
        <time>2020-10-03T09:07:53.000Z</time>
      </trkpt>
      <trkpt lat="43.63031" lon="1.22585">
        <ele>209</ele>
        <time>2020-10-03T09:07:54.000Z</time>
      </trkpt>
      <trkpt lat="43.63029" lon="1.22584">
        <ele>209</ele>
        <time>2020-10-03T09:07:55.000Z</time>
      </trkpt>
      <trkpt lat="43.63028" lon="1.22582">
        <ele>209</ele>
        <time>2020-10-03T09:07:56.000Z</time>
      </trkpt>
      <trkpt lat="43.63027" lon="1.22579">
        <ele>209</ele>
        <time>2020-10-03T09:07:57.000Z</time>
      </trkpt>
      <trkpt lat="43.63026" lon="1.22577">
        <ele>208.76106114497</ele>
        <time>2020-10-03T09:07:58.000Z</time>
      </trkpt>
      <trkpt lat="43.63023" lon="1.22572">
        <ele>208</ele>
        <time>2020-10-03T09:08:00.000Z</time>
      </trkpt>
      <trkpt lat="43.63021" lon="1.22569">
        <ele>208</ele>
        <time>2020-10-03T09:08:01.000Z</time>
      </trkpt>
      <trkpt lat="43.63021" lon="1.22567">
        <ele>208</ele>
        <time>2020-10-03T09:08:02.000Z</time>
      </trkpt>
      <trkpt lat="43.6302" lon="1.22564">
        <ele>208</ele>
        <time>2020-10-03T09:08:03.000Z</time>
      </trkpt>
      <trkpt lat="43.63019" lon="1.22561">
        <ele>208</ele>
        <time>2020-10-03T09:08:04.000Z</time>
      </trkpt>
      <trkpt lat="43.63018" lon="1.22558">
        <ele>208</ele>
        <time>2020-10-03T09:08:05.000Z</time>
      </trkpt>
      <trkpt lat="43.63016" lon="1.22555">
        <ele>208</ele>
        <time>2020-10-03T09:08:06.000Z</time>
      </trkpt>
      <trkpt lat="43.63015" lon="1.22552">
        <ele>208</ele>
        <time>2020-10-03T09:08:07.000Z</time>
      </trkpt>
      <trkpt lat="43.63013" lon="1.22549">
        <ele>208</ele>
        <time>2020-10-03T09:08:08.000Z</time>
      </trkpt>
      <trkpt lat="43.63011" lon="1.22545">
        <ele>208</ele>
        <time>2020-10-03T09:08:09.000Z</time>
      </trkpt>
      <trkpt lat="43.6301" lon="1.22543">
        <ele>208</ele>
        <time>2020-10-03T09:08:10.000Z</time>
      </trkpt>
      <trkpt lat="43.63008" lon="1.2254">
        <ele>208</ele>
        <time>2020-10-03T09:08:11.000Z</time>
      </trkpt>
      <trkpt lat="43.63005" lon="1.22533">
        <ele>208</ele>
        <time>2020-10-03T09:08:13.000Z</time>
      </trkpt>
      <trkpt lat="43.63003" lon="1.22529">
        <ele>208</ele>
        <time>2020-10-03T09:08:14.000Z</time>
      </trkpt>
      <trkpt lat="43.63002" lon="1.22526">
        <ele>208</ele>
        <time>2020-10-03T09:08:15.000Z</time>
      </trkpt>
      <trkpt lat="43.63002" lon="1.22523">
        <ele>208</ele>
        <time>2020-10-03T09:08:16.000Z</time>
      </trkpt>
      <trkpt lat="43.63001" lon="1.22519">
        <ele>208</ele>
        <time>2020-10-03T09:08:17.000Z</time>
      </trkpt>
      <trkpt lat="43.62998" lon="1.2251">
        <ele>208</ele>
        <time>2020-10-03T09:08:19.000Z</time>
      </trkpt>
      <trkpt lat="43.62997" lon="1.22506">
        <ele>208</ele>
        <time>2020-10-03T09:08:20.000Z</time>
      </trkpt>
      <trkpt lat="43.62996" lon="1.22502">
        <ele>208</ele>
        <time>2020-10-03T09:08:21.000Z</time>
      </trkpt>
      <trkpt lat="43.62996" lon="1.22497">
        <ele>208</ele>
        <time>2020-10-03T09:08:23.000Z</time>
      </trkpt>
      <trkpt lat="43.62996" lon="1.22494">
        <ele>209</ele>
        <time>2020-10-03T09:08:25.000Z</time>
      </trkpt>
      <trkpt lat="43.62999" lon="1.22491">
        <ele>209</ele>
        <time>2020-10-03T09:08:27.000Z</time>
      </trkpt>
      <trkpt lat="43.63002" lon="1.22489">
        <ele>209</ele>
        <time>2020-10-03T09:08:28.000Z</time>
      </trkpt>
      <trkpt lat="43.63003" lon="1.22486">
        <ele>209</ele>
        <time>2020-10-03T09:08:29.000Z</time>
      </trkpt>
      <trkpt lat="43.63004" lon="1.22483">
        <ele>209</ele>
        <time>2020-10-03T09:08:30.000Z</time>
      </trkpt>
      <trkpt lat="43.63005" lon="1.22481">
        <ele>209</ele>
        <time>2020-10-03T09:08:31.000Z</time>
      </trkpt>
      <trkpt lat="43.63006" lon="1.22478">
        <ele>209</ele>
        <time>2020-10-03T09:08:32.000Z</time>
      </trkpt>
      <trkpt lat="43.63007" lon="1.22474">
        <ele>209</ele>
        <time>2020-10-03T09:08:33.000Z</time>
      </trkpt>
      <trkpt lat="43.63008" lon="1.22471">
        <ele>209</ele>
        <time>2020-10-03T09:08:34.000Z</time>
      </trkpt>
      <trkpt lat="43.63009" lon="1.22467">
        <ele>209</ele>
        <time>2020-10-03T09:08:35.000Z</time>
      </trkpt>
      <trkpt lat="43.6301" lon="1.22463">
        <ele>209</ele>
        <time>2020-10-03T09:08:36.000Z</time>
      </trkpt>
      <trkpt lat="43.63011" lon="1.2246">
        <ele>209</ele>
        <time>2020-10-03T09:08:37.000Z</time>
      </trkpt>
      <trkpt lat="43.63013" lon="1.22457">
        <ele>209</ele>
        <time>2020-10-03T09:08:38.000Z</time>
      </trkpt>
      <trkpt lat="43.63014" lon="1.22453">
        <ele>209</ele>
        <time>2020-10-03T09:08:39.000Z</time>
      </trkpt>
      <trkpt lat="43.63014" lon="1.2245">
        <ele>209</ele>
        <time>2020-10-03T09:08:40.000Z</time>
      </trkpt>
      <trkpt lat="43.63016" lon="1.22447">
        <ele>209</ele>
        <time>2020-10-03T09:08:41.000Z</time>
      </trkpt>
      <trkpt lat="43.63017" lon="1.22443">
        <ele>209.45454228097</ele>
        <time>2020-10-03T09:08:42.000Z</time>
      </trkpt>
      <trkpt lat="43.63018" lon="1.2244">
        <ele>210</ele>
        <time>2020-10-03T09:08:43.000Z</time>
      </trkpt>
      <trkpt lat="43.63019" lon="1.22436">
        <ele>210</ele>
        <time>2020-10-03T09:08:44.000Z</time>
      </trkpt>
      <trkpt lat="43.6302" lon="1.22433">
        <ele>210</ele>
        <time>2020-10-03T09:08:45.000Z</time>
      </trkpt>
      <trkpt lat="43.63022" lon="1.2243">
        <ele>210</ele>
        <time>2020-10-03T09:08:46.000Z</time>
      </trkpt>
      <trkpt lat="43.63023" lon="1.22427">
        <ele>210</ele>
        <time>2020-10-03T09:08:47.000Z</time>
      </trkpt>
      <trkpt lat="43.63024" lon="1.22424">
        <ele>210</ele>
        <time>2020-10-03T09:08:48.000Z</time>
      </trkpt>
      <trkpt lat="43.63025" lon="1.22421">
        <ele>210</ele>
        <time>2020-10-03T09:08:49.000Z</time>
      </trkpt>
      <trkpt lat="43.63026" lon="1.22417">
        <ele>210</ele>
        <time>2020-10-03T09:08:50.000Z</time>
      </trkpt>
      <trkpt lat="43.63027" lon="1.22414">
        <ele>210</ele>
        <time>2020-10-03T09:08:51.000Z</time>
      </trkpt>
      <trkpt lat="43.63027" lon="1.2241">
        <ele>210</ele>
        <time>2020-10-03T09:08:52.000Z</time>
      </trkpt>
      <trkpt lat="43.63028" lon="1.22407">
        <ele>210</ele>
        <time>2020-10-03T09:08:53.000Z</time>
      </trkpt>
      <trkpt lat="43.63029" lon="1.22404">
        <ele>210</ele>
        <time>2020-10-03T09:08:54.000Z</time>
      </trkpt>
      <trkpt lat="43.63031" lon="1.224">
        <ele>210</ele>
        <time>2020-10-03T09:08:55.000Z</time>
      </trkpt>
      <trkpt lat="43.63034" lon="1.22392">
        <ele>210</ele>
        <time>2020-10-03T09:08:57.000Z</time>
      </trkpt>
      <trkpt lat="43.63036" lon="1.22389">
        <ele>210</ele>
        <time>2020-10-03T09:08:58.000Z</time>
      </trkpt>
      <trkpt lat="43.63038" lon="1.22386">
        <ele>210</ele>
        <time>2020-10-03T09:08:59.000Z</time>
      </trkpt>
      <trkpt lat="43.63039" lon="1.22383">
        <ele>210</ele>
        <time>2020-10-03T09:09:00.000Z</time>
      </trkpt>
      <trkpt lat="43.6304" lon="1.22381">
        <ele>210</ele>
        <time>2020-10-03T09:09:01.000Z</time>
      </trkpt>
      <trkpt lat="43.63042" lon="1.22377">
        <ele>210</ele>
        <time>2020-10-03T09:09:02.000Z</time>
      </trkpt>
      <trkpt lat="43.63043" lon="1.22374">
        <ele>210</ele>
        <time>2020-10-03T09:09:03.000Z</time>
      </trkpt>
      <trkpt lat="43.63045" lon="1.2237">
        <ele>210</ele>
        <time>2020-10-03T09:09:04.000Z</time>
      </trkpt>
      <trkpt lat="43.63047" lon="1.22367">
        <ele>210</ele>
        <time>2020-10-03T09:09:05.000Z</time>
      </trkpt>
      <trkpt lat="43.63048" lon="1.22364">
        <ele>210</ele>
        <time>2020-10-03T09:09:06.000Z</time>
      </trkpt>
      <trkpt lat="43.6305" lon="1.2236">
        <ele>210</ele>
        <time>2020-10-03T09:09:07.000Z</time>
      </trkpt>
      <trkpt lat="43.63052" lon="1.22357">
        <ele>210</ele>
        <time>2020-10-03T09:09:08.000Z</time>
      </trkpt>
      <trkpt lat="43.63053" lon="1.22355">
        <ele>210</ele>
        <time>2020-10-03T09:09:09.000Z</time>
      </trkpt>
      <trkpt lat="43.63054" lon="1.22352">
        <ele>210</ele>
        <time>2020-10-03T09:09:10.000Z</time>
      </trkpt>
      <trkpt lat="43.63055" lon="1.22348">
        <ele>210</ele>
        <time>2020-10-03T09:09:11.000Z</time>
      </trkpt>
      <trkpt lat="43.63056" lon="1.22345">
        <ele>210</ele>
        <time>2020-10-03T09:09:12.000Z</time>
      </trkpt>
      <trkpt lat="43.63057" lon="1.22342">
        <ele>210</ele>
        <time>2020-10-03T09:09:13.000Z</time>
      </trkpt>
      <trkpt lat="43.63058" lon="1.22339">
        <ele>210</ele>
        <time>2020-10-03T09:09:14.000Z</time>
      </trkpt>
      <trkpt lat="43.6306" lon="1.22335">
        <ele>210</ele>
        <time>2020-10-03T09:09:15.000Z</time>
      </trkpt>
      <trkpt lat="43.63061" lon="1.22333">
        <ele>210</ele>
        <time>2020-10-03T09:09:16.000Z</time>
      </trkpt>
      <trkpt lat="43.63063" lon="1.22329">
        <ele>210</ele>
        <time>2020-10-03T09:09:17.000Z</time>
      </trkpt>
      <trkpt lat="43.63065" lon="1.22326">
        <ele>210</ele>
        <time>2020-10-03T09:09:18.000Z</time>
      </trkpt>
      <trkpt lat="43.63066" lon="1.22322">
        <ele>210.19999844848</ele>
        <time>2020-10-03T09:09:19.000Z</time>
      </trkpt>
      <trkpt lat="43.63067" lon="1.22319">
        <ele>210.80606022994</ele>
        <time>2020-10-03T09:09:20.000Z</time>
      </trkpt>
      <trkpt lat="43.63069" lon="1.22316">
        <ele>211</ele>
        <time>2020-10-03T09:09:21.000Z</time>
      </trkpt>
      <trkpt lat="43.6307" lon="1.22313">
        <ele>211</ele>
        <time>2020-10-03T09:09:22.000Z</time>
      </trkpt>
      <trkpt lat="43.63071" lon="1.2231">
        <ele>211</ele>
        <time>2020-10-03T09:09:23.000Z</time>
      </trkpt>
      <trkpt lat="43.63073" lon="1.22307">
        <ele>211</ele>
        <time>2020-10-03T09:09:24.000Z</time>
      </trkpt>
      <trkpt lat="43.63075" lon="1.22303">
        <ele>211</ele>
        <time>2020-10-03T09:09:25.000Z</time>
      </trkpt>
      <trkpt lat="43.63076" lon="1.223">
        <ele>211</ele>
        <time>2020-10-03T09:09:26.000Z</time>
      </trkpt>
      <trkpt lat="43.63077" lon="1.22297">
        <ele>211</ele>
        <time>2020-10-03T09:09:27.000Z</time>
      </trkpt>
      <trkpt lat="43.63079" lon="1.22295">
        <ele>211</ele>
        <time>2020-10-03T09:09:28.000Z</time>
      </trkpt>
      <trkpt lat="43.6308" lon="1.22291">
        <ele>211</ele>
        <time>2020-10-03T09:09:29.000Z</time>
      </trkpt>
      <trkpt lat="43.63081" lon="1.22288">
        <ele>211</ele>
        <time>2020-10-03T09:09:30.000Z</time>
      </trkpt>
      <trkpt lat="43.63082" lon="1.22285">
        <ele>211</ele>
        <time>2020-10-03T09:09:31.000Z</time>
      </trkpt>
      <trkpt lat="43.63084" lon="1.22282">
        <ele>211.46666504127</ele>
        <time>2020-10-03T09:09:32.000Z</time>
      </trkpt>
      <trkpt lat="43.63085" lon="1.22278">
        <ele>212</ele>
        <time>2020-10-03T09:09:33.000Z</time>
      </trkpt>
      <trkpt lat="43.63086" lon="1.22275">
        <ele>212</ele>
        <time>2020-10-03T09:09:34.000Z</time>
      </trkpt>
      <trkpt lat="43.63087" lon="1.22272">
        <ele>212</ele>
        <time>2020-10-03T09:09:35.000Z</time>
      </trkpt>
      <trkpt lat="43.63089" lon="1.22269">
        <ele>212</ele>
        <time>2020-10-03T09:09:36.000Z</time>
      </trkpt>
      <trkpt lat="43.6309" lon="1.22266">
        <ele>212</ele>
        <time>2020-10-03T09:09:37.000Z</time>
      </trkpt>
      <trkpt lat="43.63092" lon="1.22263">
        <ele>212</ele>
        <time>2020-10-03T09:09:38.000Z</time>
      </trkpt>
      <trkpt lat="43.63093" lon="1.22259">
        <ele>212</ele>
        <time>2020-10-03T09:09:39.000Z</time>
      </trkpt>
      <trkpt lat="43.63095" lon="1.22257">
        <ele>212</ele>
        <time>2020-10-03T09:09:40.000Z</time>
      </trkpt>
      <trkpt lat="43.63096" lon="1.22254">
        <ele>212</ele>
        <time>2020-10-03T09:09:41.000Z</time>
      </trkpt>
      <trkpt lat="43.63097" lon="1.22251">
        <ele>212</ele>
        <time>2020-10-03T09:09:42.000Z</time>
      </trkpt>
      <trkpt lat="43.63099" lon="1.22248">
        <ele>212</ele>
        <time>2020-10-03T09:09:43.000Z</time>
      </trkpt>
      <trkpt lat="43.631" lon="1.22244">
        <ele>212.43103372175</ele>
        <time>2020-10-03T09:09:44.000Z</time>
      </trkpt>
      <trkpt lat="43.63102" lon="1.22241">
        <ele>213</ele>
        <time>2020-10-03T09:09:45.000Z</time>
      </trkpt>
      <trkpt lat="43.63103" lon="1.22238">
        <ele>213</ele>
        <time>2020-10-03T09:09:46.000Z</time>
      </trkpt>
      <trkpt lat="43.63104" lon="1.22235">
        <ele>213</ele>
        <time>2020-10-03T09:09:47.000Z</time>
      </trkpt>
      <trkpt lat="43.63105" lon="1.22232">
        <ele>213</ele>
        <time>2020-10-03T09:09:48.000Z</time>
      </trkpt>
      <trkpt lat="43.63106" lon="1.22229">
        <ele>213.43820111603</ele>
        <time>2020-10-03T09:09:49.000Z</time>
      </trkpt>
      <trkpt lat="43.63108" lon="1.22226">
        <ele>214</ele>
        <time>2020-10-03T09:09:50.000Z</time>
      </trkpt>
      <trkpt lat="43.63108" lon="1.22223">
        <ele>214.4333338074</ele>
        <time>2020-10-03T09:09:51.000Z</time>
      </trkpt>
      <trkpt lat="43.63109" lon="1.2222">
        <ele>215</ele>
        <time>2020-10-03T09:09:52.000Z</time>
      </trkpt>
      <trkpt lat="43.6311" lon="1.22217">
        <ele>215</ele>
        <time>2020-10-03T09:09:53.000Z</time>
      </trkpt>
      <trkpt lat="43.63111" lon="1.22214">
        <ele>215</ele>
        <time>2020-10-03T09:09:54.000Z</time>
      </trkpt>
      <trkpt lat="43.63112" lon="1.22211">
        <ele>215</ele>
        <time>2020-10-03T09:09:55.000Z</time>
      </trkpt>
      <trkpt lat="43.63113" lon="1.22209">
        <ele>215</ele>
        <time>2020-10-03T09:09:56.000Z</time>
      </trkpt>
      <trkpt lat="43.63115" lon="1.22206">
        <ele>215.36363847935</ele>
        <time>2020-10-03T09:09:57.000Z</time>
      </trkpt>
      <trkpt lat="43.63116" lon="1.22204">
        <ele>216</ele>
        <time>2020-10-03T09:09:58.000Z</time>
      </trkpt>
      <trkpt lat="43.63118" lon="1.22202">
        <ele>216.22535109701</ele>
        <time>2020-10-03T09:09:59.000Z</time>
      </trkpt>
      <trkpt lat="43.63119" lon="1.22199">
        <ele>217</ele>
        <time>2020-10-03T09:10:00.000Z</time>
      </trkpt>
      <trkpt lat="43.6312" lon="1.22196">
        <ele>217</ele>
        <time>2020-10-03T09:10:01.000Z</time>
      </trkpt>
      <trkpt lat="43.63121" lon="1.22194">
        <ele>217</ele>
        <time>2020-10-03T09:10:02.000Z</time>
      </trkpt>
      <trkpt lat="43.63122" lon="1.22191">
        <ele>217</ele>
        <time>2020-10-03T09:10:03.000Z</time>
      </trkpt>
      <trkpt lat="43.63124" lon="1.22188">
        <ele>217</ele>
        <time>2020-10-03T09:10:04.000Z</time>
      </trkpt>
      <trkpt lat="43.63125" lon="1.22185">
        <ele>217</ele>
        <time>2020-10-03T09:10:05.000Z</time>
      </trkpt>
      <trkpt lat="43.63126" lon="1.22183">
        <ele>217.37614495749</ele>
        <time>2020-10-03T09:10:06.000Z</time>
      </trkpt>
      <trkpt lat="43.63127" lon="1.2218">
        <ele>218</ele>
        <time>2020-10-03T09:10:07.000Z</time>
      </trkpt>
      <trkpt lat="43.63129" lon="1.22177">
        <ele>218</ele>
        <time>2020-10-03T09:10:08.000Z</time>
      </trkpt>
      <trkpt lat="43.6313" lon="1.22175">
        <ele>218</ele>
        <time>2020-10-03T09:10:09.000Z</time>
      </trkpt>
      <trkpt lat="43.63131" lon="1.22172">
        <ele>218.40540602874</ele>
        <time>2020-10-03T09:10:10.000Z</time>
      </trkpt>
      <trkpt lat="43.63132" lon="1.2217">
        <ele>219</ele>
        <time>2020-10-03T09:10:11.000Z</time>
      </trkpt>
      <trkpt lat="43.63132" lon="1.22168">
        <ele>219</ele>
        <time>2020-10-03T09:10:12.000Z</time>
      </trkpt>
      <trkpt lat="43.63134" lon="1.22165">
        <ele>219.46315633463</ele>
        <time>2020-10-03T09:10:13.000Z</time>
      </trkpt>
      <trkpt lat="43.63135" lon="1.22163">
        <ele>220</ele>
        <time>2020-10-03T09:10:14.000Z</time>
      </trkpt>
      <trkpt lat="43.63137" lon="1.22159">
        <ele>221</ele>
        <time>2020-10-03T09:10:16.000Z</time>
      </trkpt>
      <trkpt lat="43.63138" lon="1.22154">
        <ele>221</ele>
        <time>2020-10-03T09:10:18.000Z</time>
      </trkpt>
      <trkpt lat="43.6314" lon="1.22151">
        <ele>221</ele>
        <time>2020-10-03T09:10:20.000Z</time>
      </trkpt>
      <trkpt lat="43.63142" lon="1.22147">
        <ele>221</ele>
        <time>2020-10-03T09:10:22.000Z</time>
      </trkpt>
      <trkpt lat="43.63143" lon="1.22144">
        <ele>222</ele>
        <time>2020-10-03T09:10:24.000Z</time>
      </trkpt>
      <trkpt lat="43.63145" lon="1.2214">
        <ele>223</ele>
        <time>2020-10-03T09:10:26.000Z</time>
      </trkpt>
      <trkpt lat="43.63146" lon="1.22137">
        <ele>223</ele>
        <time>2020-10-03T09:10:28.000Z</time>
      </trkpt>
      <trkpt lat="43.63147" lon="1.22133">
        <ele>223</ele>
        <time>2020-10-03T09:10:30.000Z</time>
      </trkpt>
      <trkpt lat="43.63148" lon="1.22131">
        <ele>223</ele>
        <time>2020-10-03T09:10:32.000Z</time>
      </trkpt>
      <trkpt lat="43.63149" lon="1.22128">
        <ele>223</ele>
        <time>2020-10-03T09:10:34.000Z</time>
      </trkpt>
      <trkpt lat="43.63151" lon="1.22125">
        <ele>224</ele>
        <time>2020-10-03T09:10:36.000Z</time>
      </trkpt>
      <trkpt lat="43.63152" lon="1.22121">
        <ele>225</ele>
        <time>2020-10-03T09:10:38.000Z</time>
      </trkpt>
      <trkpt lat="43.63154" lon="1.22118">
        <ele>225</ele>
        <time>2020-10-03T09:10:40.000Z</time>
      </trkpt>
      <trkpt lat="43.63155" lon="1.22114">
        <ele>225</ele>
        <time>2020-10-03T09:10:42.000Z</time>
      </trkpt>
      <trkpt lat="43.63157" lon="1.22112">
        <ele>225</ele>
        <time>2020-10-03T09:10:44.000Z</time>
      </trkpt>
      <trkpt lat="43.63158" lon="1.22108">
        <ele>226</ele>
        <time>2020-10-03T09:10:46.000Z</time>
      </trkpt>
      <trkpt lat="43.63159" lon="1.22106">
        <ele>226</ele>
        <time>2020-10-03T09:10:47.000Z</time>
      </trkpt>
      <trkpt lat="43.63161" lon="1.22104">
        <ele>226</ele>
        <time>2020-10-03T09:10:48.000Z</time>
      </trkpt>
      <trkpt lat="43.63162" lon="1.22101">
        <ele>226.36232179793</ele>
        <time>2020-10-03T09:10:49.000Z</time>
      </trkpt>
      <trkpt lat="43.63163" lon="1.22099">
        <ele>227</ele>
        <time>2020-10-03T09:10:50.000Z</time>
      </trkpt>
      <trkpt lat="43.63166" lon="1.22095">
        <ele>227</ele>
        <time>2020-10-03T09:10:52.000Z</time>
      </trkpt>
      <trkpt lat="43.63167" lon="1.22093">
        <ele>227</ele>
        <time>2020-10-03T09:10:53.000Z</time>
      </trkpt>
      <trkpt lat="43.63168" lon="1.22091">
        <ele>227.33333333333</ele>
        <time>2020-10-03T09:10:54.000Z</time>
      </trkpt>
      <trkpt lat="43.6317" lon="1.22089">
        <ele>228</ele>
        <time>2020-10-03T09:10:55.000Z</time>
      </trkpt>
      <trkpt lat="43.63171" lon="1.22087">
        <ele>228</ele>
        <time>2020-10-03T09:10:56.000Z</time>
      </trkpt>
      <trkpt lat="43.63172" lon="1.22084">
        <ele>228</ele>
        <time>2020-10-03T09:10:57.000Z</time>
      </trkpt>
      <trkpt lat="43.63174" lon="1.22081">
        <ele>228</ele>
        <time>2020-10-03T09:10:58.000Z</time>
      </trkpt>
      <trkpt lat="43.63175" lon="1.22078">
        <ele>228</ele>
        <time>2020-10-03T09:10:59.000Z</time>
      </trkpt>
      <trkpt lat="43.63176" lon="1.22076">
        <ele>228</ele>
        <time>2020-10-03T09:11:00.000Z</time>
      </trkpt>
      <trkpt lat="43.63177" lon="1.22073">
        <ele>227.56074598655</ele>
        <time>2020-10-03T09:11:01.000Z</time>
      </trkpt>
      <trkpt lat="43.63179" lon="1.22071">
        <ele>227</ele>
        <time>2020-10-03T09:11:02.000Z</time>
      </trkpt>
      <trkpt lat="43.6318" lon="1.22068">
        <ele>228</ele>
        <time>2020-10-03T09:11:03.000Z</time>
      </trkpt>
      <trkpt lat="43.63182" lon="1.22065">
        <ele>229</ele>
        <time>2020-10-03T09:11:04.000Z</time>
      </trkpt>
      <trkpt lat="43.63183" lon="1.22062">
        <ele>229</ele>
        <time>2020-10-03T09:11:05.000Z</time>
      </trkpt>
      <trkpt lat="43.63184" lon="1.22059">
        <ele>229</ele>
        <time>2020-10-03T09:11:06.000Z</time>
      </trkpt>
      <trkpt lat="43.63186" lon="1.22055">
        <ele>228.61403292089</ele>
        <time>2020-10-03T09:11:07.000Z</time>
      </trkpt>
      <trkpt lat="43.63187" lon="1.22052">
        <ele>228</ele>
        <time>2020-10-03T09:11:08.000Z</time>
      </trkpt>
      <trkpt lat="43.63189" lon="1.22049">
        <ele>228</ele>
        <time>2020-10-03T09:11:09.000Z</time>
      </trkpt>
      <trkpt lat="43.6319" lon="1.22046">
        <ele>228</ele>
        <time>2020-10-03T09:11:10.000Z</time>
      </trkpt>
      <trkpt lat="43.63191" lon="1.22043">
        <ele>228</ele>
        <time>2020-10-03T09:11:11.000Z</time>
      </trkpt>
      <trkpt lat="43.63192" lon="1.2204">
        <ele>228</ele>
        <time>2020-10-03T09:11:12.000Z</time>
      </trkpt>
      <trkpt lat="43.63193" lon="1.22037">
        <ele>228</ele>
        <time>2020-10-03T09:11:13.000Z</time>
      </trkpt>
      <trkpt lat="43.63195" lon="1.22033">
        <ele>228</ele>
        <time>2020-10-03T09:11:14.000Z</time>
      </trkpt>
      <trkpt lat="43.63196" lon="1.2203">
        <ele>228</ele>
        <time>2020-10-03T09:11:15.000Z</time>
      </trkpt>
      <trkpt lat="43.63197" lon="1.22027">
        <ele>228</ele>
        <time>2020-10-03T09:11:16.000Z</time>
      </trkpt>
      <trkpt lat="43.63199" lon="1.22023">
        <ele>228</ele>
        <time>2020-10-03T09:11:17.000Z</time>
      </trkpt>
      <trkpt lat="43.632" lon="1.2202">
        <ele>228</ele>
        <time>2020-10-03T09:11:18.000Z</time>
      </trkpt>
      <trkpt lat="43.63201" lon="1.22016">
        <ele>228</ele>
        <time>2020-10-03T09:11:19.000Z</time>
      </trkpt>
      <trkpt lat="43.63203" lon="1.22013">
        <ele>228</ele>
        <time>2020-10-03T09:11:20.000Z</time>
      </trkpt>
      <trkpt lat="43.63205" lon="1.2201">
        <ele>228</ele>
        <time>2020-10-03T09:11:21.000Z</time>
      </trkpt>
      <trkpt lat="43.63206" lon="1.22006">
        <ele>228</ele>
        <time>2020-10-03T09:11:22.000Z</time>
      </trkpt>
      <trkpt lat="43.63208" lon="1.22003">
        <ele>228</ele>
        <time>2020-10-03T09:11:23.000Z</time>
      </trkpt>
      <trkpt lat="43.63209" lon="1.22">
        <ele>228</ele>
        <time>2020-10-03T09:11:24.000Z</time>
      </trkpt>
      <trkpt lat="43.6321" lon="1.21996">
        <ele>227.61403292089</ele>
        <time>2020-10-03T09:11:25.000Z</time>
      </trkpt>
      <trkpt lat="43.63212" lon="1.21993">
        <ele>227</ele>
        <time>2020-10-03T09:11:26.000Z</time>
      </trkpt>
      <trkpt lat="43.63213" lon="1.2199">
        <ele>227.29496104757</ele>
        <time>2020-10-03T09:11:27.000Z</time>
      </trkpt>
      <trkpt lat="43.63214" lon="1.21986">
        <ele>228</ele>
        <time>2020-10-03T09:11:28.000Z</time>
      </trkpt>
      <trkpt lat="43.63215" lon="1.21983">
        <ele>228</ele>
        <time>2020-10-03T09:11:29.000Z</time>
      </trkpt>
      <trkpt lat="43.63217" lon="1.21979">
        <ele>228</ele>
        <time>2020-10-03T09:11:30.000Z</time>
      </trkpt>
      <trkpt lat="43.63218" lon="1.21976">
        <ele>228</ele>
        <time>2020-10-03T09:11:31.000Z</time>
      </trkpt>
      <trkpt lat="43.63219" lon="1.21972">
        <ele>228</ele>
        <time>2020-10-03T09:11:32.000Z</time>
      </trkpt>
      <trkpt lat="43.63221" lon="1.21969">
        <ele>228</ele>
        <time>2020-10-03T09:11:33.000Z</time>
      </trkpt>
      <trkpt lat="43.63222" lon="1.21965">
        <ele>228</ele>
        <time>2020-10-03T09:11:34.000Z</time>
      </trkpt>
      <trkpt lat="43.63224" lon="1.21962">
        <ele>228</ele>
        <time>2020-10-03T09:11:35.000Z</time>
      </trkpt>
      <trkpt lat="43.63225" lon="1.21958">
        <ele>228</ele>
        <time>2020-10-03T09:11:36.000Z</time>
      </trkpt>
      <trkpt lat="43.63226" lon="1.21955">
        <ele>228</ele>
        <time>2020-10-03T09:11:37.000Z</time>
      </trkpt>
      <trkpt lat="43.63227" lon="1.21951">
        <ele>228</ele>
        <time>2020-10-03T09:11:38.000Z</time>
      </trkpt>
      <trkpt lat="43.63228" lon="1.21947">
        <ele>228</ele>
        <time>2020-10-03T09:11:39.000Z</time>
      </trkpt>
      <trkpt lat="43.63229" lon="1.21943">
        <ele>228</ele>
        <time>2020-10-03T09:11:40.000Z</time>
      </trkpt>
      <trkpt lat="43.6323" lon="1.2194">
        <ele>228</ele>
        <time>2020-10-03T09:11:41.000Z</time>
      </trkpt>
      <trkpt lat="43.63232" lon="1.21937">
        <ele>228</ele>
        <time>2020-10-03T09:11:42.000Z</time>
      </trkpt>
      <trkpt lat="43.63234" lon="1.21933">
        <ele>228</ele>
        <time>2020-10-03T09:11:43.000Z</time>
      </trkpt>
      <trkpt lat="43.63236" lon="1.21931">
        <ele>228</ele>
        <time>2020-10-03T09:11:44.000Z</time>
      </trkpt>
      <trkpt lat="43.63239" lon="1.21929">
        <ele>228</ele>
        <time>2020-10-03T09:11:45.000Z</time>
      </trkpt>
      <trkpt lat="43.63242" lon="1.21926">
        <ele>228</ele>
        <time>2020-10-03T09:11:46.000Z</time>
      </trkpt>
      <trkpt lat="43.63245" lon="1.21925">
        <ele>228</ele>
        <time>2020-10-03T09:11:47.000Z</time>
      </trkpt>
      <trkpt lat="43.63248" lon="1.21924">
        <ele>228</ele>
        <time>2020-10-03T09:11:48.000Z</time>
      </trkpt>
      <trkpt lat="43.6325" lon="1.21923">
        <ele>228</ele>
        <time>2020-10-03T09:11:49.000Z</time>
      </trkpt>
      <trkpt lat="43.63253" lon="1.21923">
        <ele>228</ele>
        <time>2020-10-03T09:11:50.000Z</time>
      </trkpt>
      <trkpt lat="43.63256" lon="1.21924">
        <ele>228</ele>
        <time>2020-10-03T09:11:51.000Z</time>
      </trkpt>
      <trkpt lat="43.63258" lon="1.21924">
        <ele>228</ele>
        <time>2020-10-03T09:11:52.000Z</time>
      </trkpt>
      <trkpt lat="43.63261" lon="1.21923">
        <ele>228</ele>
        <time>2020-10-03T09:11:53.000Z</time>
      </trkpt>
      <trkpt lat="43.63264" lon="1.21923">
        <ele>228</ele>
        <time>2020-10-03T09:11:54.000Z</time>
      </trkpt>
      <trkpt lat="43.63266" lon="1.21923">
        <ele>228</ele>
        <time>2020-10-03T09:11:55.000Z</time>
      </trkpt>
      <trkpt lat="43.63269" lon="1.21923">
        <ele>228</ele>
        <time>2020-10-03T09:11:56.000Z</time>
      </trkpt>
      <trkpt lat="43.63271" lon="1.21924">
        <ele>228</ele>
        <time>2020-10-03T09:11:57.000Z</time>
      </trkpt>
      <trkpt lat="43.63274" lon="1.21924">
        <ele>228</ele>
        <time>2020-10-03T09:11:58.000Z</time>
      </trkpt>
      <trkpt lat="43.63277" lon="1.21924">
        <ele>227.65454926283</ele>
        <time>2020-10-03T09:11:59.000Z</time>
      </trkpt>
      <trkpt lat="43.6328" lon="1.21924">
        <ele>227</ele>
        <time>2020-10-03T09:12:00.000Z</time>
      </trkpt>
      <trkpt lat="43.63282" lon="1.21923">
        <ele>227</ele>
        <time>2020-10-03T09:12:01.000Z</time>
      </trkpt>
      <trkpt lat="43.63285" lon="1.21921">
        <ele>227.33644759193</ele>
        <time>2020-10-03T09:12:02.000Z</time>
      </trkpt>
      <trkpt lat="43.63288" lon="1.2192">
        <ele>228</ele>
        <time>2020-10-03T09:12:03.000Z</time>
      </trkpt>
      <trkpt lat="43.6329" lon="1.21918">
        <ele>228</ele>
        <time>2020-10-03T09:12:04.000Z</time>
      </trkpt>
      <trkpt lat="43.63292" lon="1.21915">
        <ele>228</ele>
        <time>2020-10-03T09:12:05.000Z</time>
      </trkpt>
      <trkpt lat="43.63295" lon="1.21913">
        <ele>228</ele>
        <time>2020-10-03T09:12:06.000Z</time>
      </trkpt>
      <trkpt lat="43.63298" lon="1.21911">
        <ele>228</ele>
        <time>2020-10-03T09:12:07.000Z</time>
      </trkpt>
      <trkpt lat="43.633" lon="1.2191">
        <ele>228</ele>
        <time>2020-10-03T09:12:08.000Z</time>
      </trkpt>
      <trkpt lat="43.63303" lon="1.21908">
        <ele>227.7717426087</ele>
        <time>2020-10-03T09:12:09.000Z</time>
      </trkpt>
      <trkpt lat="43.63306" lon="1.21906">
        <ele>227</ele>
        <time>2020-10-03T09:12:10.000Z</time>
      </trkpt>
      <trkpt lat="43.63308" lon="1.21904">
        <ele>227</ele>
        <time>2020-10-03T09:12:11.000Z</time>
      </trkpt>
      <trkpt lat="43.63311" lon="1.21903">
        <ele>227</ele>
        <time>2020-10-03T09:12:12.000Z</time>
      </trkpt>
      <trkpt lat="43.63313" lon="1.21901">
        <ele>227</ele>
        <time>2020-10-03T09:12:13.000Z</time>
      </trkpt>
      <trkpt lat="43.63315" lon="1.21899">
        <ele>227.34905569241</ele>
        <time>2020-10-03T09:12:14.000Z</time>
      </trkpt>
      <trkpt lat="43.63317" lon="1.21897">
        <ele>228</ele>
        <time>2020-10-03T09:12:15.000Z</time>
      </trkpt>
      <trkpt lat="43.63319" lon="1.21895">
        <ele>228</ele>
        <time>2020-10-03T09:12:16.000Z</time>
      </trkpt>
      <trkpt lat="43.63321" lon="1.21892">
        <ele>228</ele>
        <time>2020-10-03T09:12:17.000Z</time>
      </trkpt>
      <trkpt lat="43.63324" lon="1.2189">
        <ele>228</ele>
        <time>2020-10-03T09:12:18.000Z</time>
      </trkpt>
      <trkpt lat="43.63326" lon="1.21888">
        <ele>228</ele>
        <time>2020-10-03T09:12:19.000Z</time>
      </trkpt>
      <trkpt lat="43.63329" lon="1.21885">
        <ele>228</ele>
        <time>2020-10-03T09:12:20.000Z</time>
      </trkpt>
      <trkpt lat="43.63331" lon="1.21884">
        <ele>228</ele>
        <time>2020-10-03T09:12:21.000Z</time>
      </trkpt>
      <trkpt lat="43.63333" lon="1.21882">
        <ele>228</ele>
        <time>2020-10-03T09:12:22.000Z</time>
      </trkpt>
      <trkpt lat="43.63335" lon="1.2188">
        <ele>228</ele>
        <time>2020-10-03T09:12:23.000Z</time>
      </trkpt>
      <trkpt lat="43.63337" lon="1.21878">
        <ele>228</ele>
        <time>2020-10-03T09:12:24.000Z</time>
      </trkpt>
      <trkpt lat="43.6334" lon="1.21876">
        <ele>228</ele>
        <time>2020-10-03T09:12:25.000Z</time>
      </trkpt>
      <trkpt lat="43.63342" lon="1.21873">
        <ele>228</ele>
        <time>2020-10-03T09:12:26.000Z</time>
      </trkpt>
      <trkpt lat="43.63345" lon="1.2187">
        <ele>228</ele>
        <time>2020-10-03T09:12:27.000Z</time>
      </trkpt>
      <trkpt lat="43.63347" lon="1.21867">
        <ele>228</ele>
        <time>2020-10-03T09:12:28.000Z</time>
      </trkpt>
      <trkpt lat="43.63349" lon="1.21865">
        <ele>227.65555444939</ele>
        <time>2020-10-03T09:12:29.000Z</time>
      </trkpt>
      <trkpt lat="43.63351" lon="1.21861">
        <ele>227</ele>
        <time>2020-10-03T09:12:30.000Z</time>
      </trkpt>
      <trkpt lat="43.63353" lon="1.21858">
        <ele>227</ele>
        <time>2020-10-03T09:12:31.000Z</time>
      </trkpt>
      <trkpt lat="43.63355" lon="1.21855">
        <ele>227</ele>
        <time>2020-10-03T09:12:32.000Z</time>
      </trkpt>
      <trkpt lat="43.63356" lon="1.21852">
        <ele>227</ele>
        <time>2020-10-03T09:12:33.000Z</time>
      </trkpt>
      <trkpt lat="43.63356" lon="1.21849">
        <ele>227</ele>
        <time>2020-10-03T09:12:34.000Z</time>
      </trkpt>
      <trkpt lat="43.63357" lon="1.21845">
        <ele>227</ele>
        <time>2020-10-03T09:12:35.000Z</time>
      </trkpt>
      <trkpt lat="43.63357" lon="1.21841">
        <ele>227</ele>
        <time>2020-10-03T09:12:36.000Z</time>
      </trkpt>
      <trkpt lat="43.63358" lon="1.21838">
        <ele>227</ele>
        <time>2020-10-03T09:12:37.000Z</time>
      </trkpt>
      <trkpt lat="43.63358" lon="1.21834">
        <ele>227</ele>
        <time>2020-10-03T09:12:38.000Z</time>
      </trkpt>
      <trkpt lat="43.63359" lon="1.21831">
        <ele>227</ele>
        <time>2020-10-03T09:12:39.000Z</time>
      </trkpt>
      <trkpt lat="43.6336" lon="1.21828">
        <ele>227</ele>
        <time>2020-10-03T09:12:40.000Z</time>
      </trkpt>
      <trkpt lat="43.6336" lon="1.21824">
        <ele>227</ele>
        <time>2020-10-03T09:12:41.000Z</time>
      </trkpt>
      <trkpt lat="43.6336" lon="1.21821">
        <ele>227</ele>
        <time>2020-10-03T09:12:42.000Z</time>
      </trkpt>
      <trkpt lat="43.63361" lon="1.21818">
        <ele>227</ele>
        <time>2020-10-03T09:12:43.000Z</time>
      </trkpt>
      <trkpt lat="43.63361" lon="1.21814">
        <ele>227</ele>
        <time>2020-10-03T09:12:44.000Z</time>
      </trkpt>
      <trkpt lat="43.63361" lon="1.21811">
        <ele>227</ele>
        <time>2020-10-03T09:12:45.000Z</time>
      </trkpt>
      <trkpt lat="43.63361" lon="1.21807">
        <ele>227</ele>
        <time>2020-10-03T09:12:46.000Z</time>
      </trkpt>
      <trkpt lat="43.63361" lon="1.21804">
        <ele>227</ele>
        <time>2020-10-03T09:12:47.000Z</time>
      </trkpt>
      <trkpt lat="43.63362" lon="1.218">
        <ele>227</ele>
        <time>2020-10-03T09:12:48.000Z</time>
      </trkpt>
      <trkpt lat="43.63362" lon="1.21797">
        <ele>227</ele>
        <time>2020-10-03T09:12:49.000Z</time>
      </trkpt>
      <trkpt lat="43.63362" lon="1.21793">
        <ele>227</ele>
        <time>2020-10-03T09:12:50.000Z</time>
      </trkpt>
      <trkpt lat="43.63362" lon="1.2179">
        <ele>227</ele>
        <time>2020-10-03T09:12:51.000Z</time>
      </trkpt>
      <trkpt lat="43.63363" lon="1.21785">
        <ele>227</ele>
        <time>2020-10-03T09:12:53.000Z</time>
      </trkpt>
      <trkpt lat="43.63363" lon="1.21782">
        <ele>227</ele>
        <time>2020-10-03T09:12:54.000Z</time>
      </trkpt>
      <trkpt lat="43.63364" lon="1.21779">
        <ele>227</ele>
        <time>2020-10-03T09:12:55.000Z</time>
      </trkpt>
      <trkpt lat="43.63364" lon="1.21775">
        <ele>227</ele>
        <time>2020-10-03T09:12:56.000Z</time>
      </trkpt>
      <trkpt lat="43.63364" lon="1.21772">
        <ele>227</ele>
        <time>2020-10-03T09:12:57.000Z</time>
      </trkpt>
      <trkpt lat="43.63364" lon="1.21768">
        <ele>227</ele>
        <time>2020-10-03T09:12:58.000Z</time>
      </trkpt>
      <trkpt lat="43.63364" lon="1.21765">
        <ele>227</ele>
        <time>2020-10-03T09:12:59.000Z</time>
      </trkpt>
      <trkpt lat="43.63364" lon="1.21761">
        <ele>227</ele>
        <time>2020-10-03T09:13:00.000Z</time>
      </trkpt>
      <trkpt lat="43.63364" lon="1.21758">
        <ele>227</ele>
        <time>2020-10-03T09:13:01.000Z</time>
      </trkpt>
      <trkpt lat="43.63364" lon="1.21754">
        <ele>227</ele>
        <time>2020-10-03T09:13:02.000Z</time>
      </trkpt>
      <trkpt lat="43.63365" lon="1.21745">
        <ele>227</ele>
        <time>2020-10-03T09:13:04.000Z</time>
      </trkpt>
      <trkpt lat="43.63365" lon="1.21742">
        <ele>227</ele>
        <time>2020-10-03T09:13:05.000Z</time>
      </trkpt>
      <trkpt lat="43.63365" lon="1.21738">
        <ele>227</ele>
        <time>2020-10-03T09:13:06.000Z</time>
      </trkpt>
      <trkpt lat="43.63366" lon="1.21734">
        <ele>227</ele>
        <time>2020-10-03T09:13:07.000Z</time>
      </trkpt>
      <trkpt lat="43.63367" lon="1.2173">
        <ele>227</ele>
        <time>2020-10-03T09:13:08.000Z</time>
      </trkpt>
      <trkpt lat="43.63367" lon="1.21726">
        <ele>227</ele>
        <time>2020-10-03T09:13:09.000Z</time>
      </trkpt>
      <trkpt lat="43.63368" lon="1.21722">
        <ele>227</ele>
        <time>2020-10-03T09:13:10.000Z</time>
      </trkpt>
      <trkpt lat="43.63369" lon="1.21718">
        <ele>227</ele>
        <time>2020-10-03T09:13:11.000Z</time>
      </trkpt>
      <trkpt lat="43.63369" lon="1.21715">
        <ele>227</ele>
        <time>2020-10-03T09:13:12.000Z</time>
      </trkpt>
      <trkpt lat="43.63369" lon="1.21711">
        <ele>227</ele>
        <time>2020-10-03T09:13:13.000Z</time>
      </trkpt>
      <trkpt lat="43.63372" lon="1.21697">
        <ele>227</ele>
        <time>2020-10-03T09:13:16.000Z</time>
      </trkpt>
      <trkpt lat="43.63373" lon="1.21688">
        <ele>226.54955141954</ele>
        <time>2020-10-03T09:13:18.000Z</time>
      </trkpt>
      <trkpt lat="43.63374" lon="1.21684">
        <ele>226</ele>
        <time>2020-10-03T09:13:19.000Z</time>
      </trkpt>
      <trkpt lat="43.63374" lon="1.2168">
        <ele>226</ele>
        <time>2020-10-03T09:13:20.000Z</time>
      </trkpt>
      <trkpt lat="43.63375" lon="1.21676">
        <ele>226</ele>
        <time>2020-10-03T09:13:21.000Z</time>
      </trkpt>
      <trkpt lat="43.63376" lon="1.21673">
        <ele>226</ele>
        <time>2020-10-03T09:13:22.000Z</time>
      </trkpt>
      <trkpt lat="43.63376" lon="1.2167">
        <ele>226</ele>
        <time>2020-10-03T09:13:23.000Z</time>
      </trkpt>
      <trkpt lat="43.63377" lon="1.21666">
        <ele>226</ele>
        <time>2020-10-03T09:13:24.000Z</time>
      </trkpt>
      <trkpt lat="43.63377" lon="1.21662">
        <ele>226</ele>
        <time>2020-10-03T09:13:25.000Z</time>
      </trkpt>
      <trkpt lat="43.63378" lon="1.2166">
        <ele>226</ele>
        <time>2020-10-03T09:13:26.000Z</time>
      </trkpt>
      <trkpt lat="43.63379" lon="1.21656">
        <ele>225.648149904</ele>
        <time>2020-10-03T09:13:27.000Z</time>
      </trkpt>
      <trkpt lat="43.6338" lon="1.21652">
        <ele>225</ele>
        <time>2020-10-03T09:13:28.000Z</time>
      </trkpt>
      <trkpt lat="43.6338" lon="1.21649">
        <ele>225</ele>
        <time>2020-10-03T09:13:29.000Z</time>
      </trkpt>
      <trkpt lat="43.6338" lon="1.21646">
        <ele>225</ele>
        <time>2020-10-03T09:13:30.000Z</time>
      </trkpt>
      <trkpt lat="43.6338" lon="1.21642">
        <ele>225.37719367189</ele>
        <time>2020-10-03T09:13:31.000Z</time>
      </trkpt>
      <trkpt lat="43.63381" lon="1.21638">
        <ele>226</ele>
        <time>2020-10-03T09:13:32.000Z</time>
      </trkpt>
      <trkpt lat="43.63382" lon="1.21634">
        <ele>226</ele>
        <time>2020-10-03T09:13:33.000Z</time>
      </trkpt>
      <trkpt lat="43.63384" lon="1.2163">
        <ele>226</ele>
        <time>2020-10-03T09:13:34.000Z</time>
      </trkpt>
      <trkpt lat="43.63384" lon="1.21627">
        <ele>225.63063031896</ele>
        <time>2020-10-03T09:13:35.000Z</time>
      </trkpt>
      <trkpt lat="43.63385" lon="1.21624">
        <ele>225</ele>
        <time>2020-10-03T09:13:36.000Z</time>
      </trkpt>
      <trkpt lat="43.63386" lon="1.21619">
        <ele>225</ele>
        <time>2020-10-03T09:13:37.000Z</time>
      </trkpt>
      <trkpt lat="43.63387" lon="1.21616">
        <ele>225</ele>
        <time>2020-10-03T09:13:38.000Z</time>
      </trkpt>
      <trkpt lat="43.63388" lon="1.21612">
        <ele>225.36035932149</ele>
        <time>2020-10-03T09:13:39.000Z</time>
      </trkpt>
      <trkpt lat="43.63389" lon="1.21607">
        <ele>226</ele>
        <time>2020-10-03T09:13:40.000Z</time>
      </trkpt>
      <trkpt lat="43.6339" lon="1.21603">
        <ele>226</ele>
        <time>2020-10-03T09:13:41.000Z</time>
      </trkpt>
      <trkpt lat="43.63391" lon="1.216">
        <ele>226</ele>
        <time>2020-10-03T09:13:42.000Z</time>
      </trkpt>
      <trkpt lat="43.63392" lon="1.21596">
        <ele>226</ele>
        <time>2020-10-03T09:13:43.000Z</time>
      </trkpt>
      <trkpt lat="43.63393" lon="1.21592">
        <ele>226</ele>
        <time>2020-10-03T09:13:44.000Z</time>
      </trkpt>
      <trkpt lat="43.63393" lon="1.21587">
        <ele>226</ele>
        <time>2020-10-03T09:13:45.000Z</time>
      </trkpt>
      <trkpt lat="43.63394" lon="1.21583">
        <ele>225.60000602355</ele>
        <time>2020-10-03T09:13:46.000Z</time>
      </trkpt>
      <trkpt lat="43.63394" lon="1.21578">
        <ele>225</ele>
        <time>2020-10-03T09:13:47.000Z</time>
      </trkpt>
      <trkpt lat="43.63394" lon="1.21574">
        <ele>225</ele>
        <time>2020-10-03T09:13:48.000Z</time>
      </trkpt>
      <trkpt lat="43.63394" lon="1.2157">
        <ele>225</ele>
        <time>2020-10-03T09:13:49.000Z</time>
      </trkpt>
      <trkpt lat="43.63395" lon="1.21566">
        <ele>225</ele>
        <time>2020-10-03T09:13:50.000Z</time>
      </trkpt>
      <trkpt lat="43.63396" lon="1.21562">
        <ele>225</ele>
        <time>2020-10-03T09:13:51.000Z</time>
      </trkpt>
      <trkpt lat="43.63395" lon="1.21558">
        <ele>225</ele>
        <time>2020-10-03T09:13:52.000Z</time>
      </trkpt>
      <trkpt lat="43.63394" lon="1.21556">
        <ele>225</ele>
        <time>2020-10-03T09:13:53.000Z</time>
      </trkpt>
      <trkpt lat="43.63392" lon="1.21554">
        <ele>225.34579036773</ele>
        <time>2020-10-03T09:13:54.000Z</time>
      </trkpt>
      <trkpt lat="43.63389" lon="1.21551">
        <ele>226</ele>
        <time>2020-10-03T09:13:55.000Z</time>
      </trkpt>
      <trkpt lat="43.63387" lon="1.21549">
        <ele>226</ele>
        <time>2020-10-03T09:13:56.000Z</time>
      </trkpt>
      <trkpt lat="43.63384" lon="1.21547">
        <ele>226</ele>
        <time>2020-10-03T09:13:57.000Z</time>
      </trkpt>
      <trkpt lat="43.63382" lon="1.21546">
        <ele>226</ele>
        <time>2020-10-03T09:13:58.000Z</time>
      </trkpt>
      <trkpt lat="43.6338" lon="1.21544">
        <ele>226</ele>
        <time>2020-10-03T09:13:59.000Z</time>
      </trkpt>
      <trkpt lat="43.63377" lon="1.21542">
        <ele>225.85365967875</ele>
        <time>2020-10-03T09:14:00.000Z</time>
      </trkpt>
      <trkpt lat="43.63375" lon="1.2154">
        <ele>225</ele>
        <time>2020-10-03T09:14:01.000Z</time>
      </trkpt>
      <trkpt lat="43.63372" lon="1.21537">
        <ele>225</ele>
        <time>2020-10-03T09:14:02.000Z</time>
      </trkpt>
      <trkpt lat="43.6337" lon="1.21536">
        <ele>225</ele>
        <time>2020-10-03T09:14:03.000Z</time>
      </trkpt>
      <trkpt lat="43.63368" lon="1.21534">
        <ele>225</ele>
        <time>2020-10-03T09:14:04.000Z</time>
      </trkpt>
      <trkpt lat="43.63366" lon="1.21532">
        <ele>225</ele>
        <time>2020-10-03T09:14:05.000Z</time>
      </trkpt>
      <trkpt lat="43.63364" lon="1.21529">
        <ele>225</ele>
        <time>2020-10-03T09:14:06.000Z</time>
      </trkpt>
      <trkpt lat="43.63361" lon="1.21528">
        <ele>225</ele>
        <time>2020-10-03T09:14:07.000Z</time>
      </trkpt>
      <trkpt lat="43.63358" lon="1.21526">
        <ele>225</ele>
        <time>2020-10-03T09:14:08.000Z</time>
      </trkpt>
      <trkpt lat="43.63356" lon="1.21524">
        <ele>225</ele>
        <time>2020-10-03T09:14:09.000Z</time>
      </trkpt>
      <trkpt lat="43.63353" lon="1.21523">
        <ele>225</ele>
        <time>2020-10-03T09:14:10.000Z</time>
      </trkpt>
      <trkpt lat="43.63351" lon="1.21521">
        <ele>225</ele>
        <time>2020-10-03T09:14:11.000Z</time>
      </trkpt>
      <trkpt lat="43.63348" lon="1.21519">
        <ele>225</ele>
        <time>2020-10-03T09:14:12.000Z</time>
      </trkpt>
      <trkpt lat="43.63346" lon="1.21517">
        <ele>225</ele>
        <time>2020-10-03T09:14:13.000Z</time>
      </trkpt>
      <trkpt lat="43.63344" lon="1.21515">
        <ele>225</ele>
        <time>2020-10-03T09:14:14.000Z</time>
      </trkpt>
      <trkpt lat="43.63342" lon="1.21512">
        <ele>225</ele>
        <time>2020-10-03T09:14:15.000Z</time>
      </trkpt>
      <trkpt lat="43.6334" lon="1.21511">
        <ele>225</ele>
        <time>2020-10-03T09:14:16.000Z</time>
      </trkpt>
      <trkpt lat="43.63338" lon="1.21509">
        <ele>225</ele>
        <time>2020-10-03T09:14:17.000Z</time>
      </trkpt>
      <trkpt lat="43.63336" lon="1.21507">
        <ele>225</ele>
        <time>2020-10-03T09:14:18.000Z</time>
      </trkpt>
      <trkpt lat="43.63334" lon="1.21506">
        <ele>225</ele>
        <time>2020-10-03T09:14:19.000Z</time>
      </trkpt>
      <trkpt lat="43.63332" lon="1.21504">
        <ele>225</ele>
        <time>2020-10-03T09:14:20.000Z</time>
      </trkpt>
      <trkpt lat="43.63329" lon="1.21502">
        <ele>225</ele>
        <time>2020-10-03T09:14:21.000Z</time>
      </trkpt>
      <trkpt lat="43.63327" lon="1.21501">
        <ele>225</ele>
        <time>2020-10-03T09:14:22.000Z</time>
      </trkpt>
      <trkpt lat="43.63325" lon="1.21499">
        <ele>225</ele>
        <time>2020-10-03T09:14:23.000Z</time>
      </trkpt>
      <trkpt lat="43.63322" lon="1.21497">
        <ele>225</ele>
        <time>2020-10-03T09:14:24.000Z</time>
      </trkpt>
      <trkpt lat="43.6332" lon="1.21496">
        <ele>225</ele>
        <time>2020-10-03T09:14:25.000Z</time>
      </trkpt>
      <trkpt lat="43.63318" lon="1.21494">
        <ele>224.67415972732</ele>
        <time>2020-10-03T09:14:26.000Z</time>
      </trkpt>
      <trkpt lat="43.63315" lon="1.21492">
        <ele>224</ele>
        <time>2020-10-03T09:14:27.000Z</time>
      </trkpt>
      <trkpt lat="43.63313" lon="1.2149">
        <ele>224</ele>
        <time>2020-10-03T09:14:28.000Z</time>
      </trkpt>
      <trkpt lat="43.6331" lon="1.21489">
        <ele>224</ele>
        <time>2020-10-03T09:14:29.000Z</time>
      </trkpt>
      <trkpt lat="43.63308" lon="1.21487">
        <ele>224</ele>
        <time>2020-10-03T09:14:30.000Z</time>
      </trkpt>
      <trkpt lat="43.63306" lon="1.21485">
        <ele>224.36936968104</ele>
        <time>2020-10-03T09:14:31.000Z</time>
      </trkpt>
      <trkpt lat="43.63303" lon="1.21484">
        <ele>225</ele>
        <time>2020-10-03T09:14:32.000Z</time>
      </trkpt>
      <trkpt lat="43.63301" lon="1.21482">
        <ele>225</ele>
        <time>2020-10-03T09:14:33.000Z</time>
      </trkpt>
      <trkpt lat="43.63299" lon="1.2148">
        <ele>225</ele>
        <time>2020-10-03T09:14:34.000Z</time>
      </trkpt>
      <trkpt lat="43.63296" lon="1.21478">
        <ele>225</ele>
        <time>2020-10-03T09:14:35.000Z</time>
      </trkpt>
      <trkpt lat="43.63294" lon="1.21475">
        <ele>225</ele>
        <time>2020-10-03T09:14:36.000Z</time>
      </trkpt>
      <trkpt lat="43.63291" lon="1.21473">
        <ele>225</ele>
        <time>2020-10-03T09:14:37.000Z</time>
      </trkpt>
      <trkpt lat="43.63289" lon="1.2147">
        <ele>225</ele>
        <time>2020-10-03T09:14:38.000Z</time>
      </trkpt>
      <trkpt lat="43.63287" lon="1.21469">
        <ele>225</ele>
        <time>2020-10-03T09:14:39.000Z</time>
      </trkpt>
      <trkpt lat="43.63286" lon="1.21467">
        <ele>225</ele>
        <time>2020-10-03T09:14:40.000Z</time>
      </trkpt>
      <trkpt lat="43.63284" lon="1.21465">
        <ele>225</ele>
        <time>2020-10-03T09:14:41.000Z</time>
      </trkpt>
      <trkpt lat="43.63282" lon="1.21464">
        <ele>225</ele>
        <time>2020-10-03T09:14:42.000Z</time>
      </trkpt>
      <trkpt lat="43.6328" lon="1.21462">
        <ele>225</ele>
        <time>2020-10-03T09:14:43.000Z</time>
      </trkpt>
      <trkpt lat="43.63278" lon="1.2146">
        <ele>225</ele>
        <time>2020-10-03T09:14:44.000Z</time>
      </trkpt>
      <trkpt lat="43.63276" lon="1.21458">
        <ele>225</ele>
        <time>2020-10-03T09:14:45.000Z</time>
      </trkpt>
      <trkpt lat="43.63274" lon="1.21456">
        <ele>225</ele>
        <time>2020-10-03T09:14:46.000Z</time>
      </trkpt>
      <trkpt lat="43.63272" lon="1.21454">
        <ele>225</ele>
        <time>2020-10-03T09:14:47.000Z</time>
      </trkpt>
      <trkpt lat="43.63269" lon="1.21452">
        <ele>225</ele>
        <time>2020-10-03T09:14:48.000Z</time>
      </trkpt>
      <trkpt lat="43.63267" lon="1.2145">
        <ele>225</ele>
        <time>2020-10-03T09:14:49.000Z</time>
      </trkpt>
      <trkpt lat="43.63265" lon="1.21448">
        <ele>225</ele>
        <time>2020-10-03T09:14:50.000Z</time>
      </trkpt>
      <trkpt lat="43.63263" lon="1.21446">
        <ele>225</ele>
        <time>2020-10-03T09:14:51.000Z</time>
      </trkpt>
      <trkpt lat="43.63261" lon="1.21444">
        <ele>225</ele>
        <time>2020-10-03T09:14:52.000Z</time>
      </trkpt>
      <trkpt lat="43.63258" lon="1.21442">
        <ele>225</ele>
        <time>2020-10-03T09:14:53.000Z</time>
      </trkpt>
      <trkpt lat="43.63256" lon="1.21441">
        <ele>225</ele>
        <time>2020-10-03T09:14:54.000Z</time>
      </trkpt>
      <trkpt lat="43.63253" lon="1.21439">
        <ele>225</ele>
        <time>2020-10-03T09:14:55.000Z</time>
      </trkpt>
      <trkpt lat="43.63251" lon="1.21437">
        <ele>225</ele>
        <time>2020-10-03T09:14:56.000Z</time>
      </trkpt>
      <trkpt lat="43.63248" lon="1.21435">
        <ele>225</ele>
        <time>2020-10-03T09:14:57.000Z</time>
      </trkpt>
      <trkpt lat="43.63246" lon="1.21433">
        <ele>225</ele>
        <time>2020-10-03T09:14:58.000Z</time>
      </trkpt>
      <trkpt lat="43.63243" lon="1.21432">
        <ele>225</ele>
        <time>2020-10-03T09:14:59.000Z</time>
      </trkpt>
      <trkpt lat="43.63241" lon="1.2143">
        <ele>225</ele>
        <time>2020-10-03T09:15:00.000Z</time>
      </trkpt>
      <trkpt lat="43.63239" lon="1.21429">
        <ele>225.43820111603</ele>
        <time>2020-10-03T09:15:01.000Z</time>
      </trkpt>
      <trkpt lat="43.63236" lon="1.21426">
        <ele>226</ele>
        <time>2020-10-03T09:15:02.000Z</time>
      </trkpt>
      <trkpt lat="43.63234" lon="1.21424">
        <ele>226</ele>
        <time>2020-10-03T09:15:03.000Z</time>
      </trkpt>
      <trkpt lat="43.63232" lon="1.21422">
        <ele>226</ele>
        <time>2020-10-03T09:15:04.000Z</time>
      </trkpt>
      <trkpt lat="43.6323" lon="1.2142">
        <ele>226</ele>
        <time>2020-10-03T09:15:05.000Z</time>
      </trkpt>
      <trkpt lat="43.63228" lon="1.21418">
        <ele>226</ele>
        <time>2020-10-03T09:15:06.000Z</time>
      </trkpt>
      <trkpt lat="43.63225" lon="1.21416">
        <ele>226</ele>
        <time>2020-10-03T09:15:07.000Z</time>
      </trkpt>
      <trkpt lat="43.63223" lon="1.21414">
        <ele>226</ele>
        <time>2020-10-03T09:15:08.000Z</time>
      </trkpt>
      <trkpt lat="43.6322" lon="1.21412">
        <ele>226</ele>
        <time>2020-10-03T09:15:09.000Z</time>
      </trkpt>
      <trkpt lat="43.63218" lon="1.2141">
        <ele>226.36606857143</ele>
        <time>2020-10-03T09:15:10.000Z</time>
      </trkpt>
      <trkpt lat="43.63215" lon="1.21407">
        <ele>227</ele>
        <time>2020-10-03T09:15:11.000Z</time>
      </trkpt>
      <trkpt lat="43.6321" lon="1.21403">
        <ele>227</ele>
        <time>2020-10-03T09:15:13.000Z</time>
      </trkpt>
      <trkpt lat="43.63208" lon="1.21401">
        <ele>227</ele>
        <time>2020-10-03T09:15:14.000Z</time>
      </trkpt>
      <trkpt lat="43.63205" lon="1.21399">
        <ele>227</ele>
        <time>2020-10-03T09:15:15.000Z</time>
      </trkpt>
      <trkpt lat="43.63203" lon="1.21397">
        <ele>227</ele>
        <time>2020-10-03T09:15:16.000Z</time>
      </trkpt>
      <trkpt lat="43.632" lon="1.21395">
        <ele>227</ele>
        <time>2020-10-03T09:15:17.000Z</time>
      </trkpt>
      <trkpt lat="43.63198" lon="1.21393">
        <ele>227</ele>
        <time>2020-10-03T09:15:18.000Z</time>
      </trkpt>
      <trkpt lat="43.63195" lon="1.21391">
        <ele>227</ele>
        <time>2020-10-03T09:15:19.000Z</time>
      </trkpt>
      <trkpt lat="43.63193" lon="1.21389">
        <ele>227</ele>
        <time>2020-10-03T09:15:20.000Z</time>
      </trkpt>
      <trkpt lat="43.63191" lon="1.21387">
        <ele>227</ele>
        <time>2020-10-03T09:15:21.000Z</time>
      </trkpt>
      <trkpt lat="43.63189" lon="1.21385">
        <ele>227</ele>
        <time>2020-10-03T09:15:22.000Z</time>
      </trkpt>
      <trkpt lat="43.63186" lon="1.21383">
        <ele>227</ele>
        <time>2020-10-03T09:15:23.000Z</time>
      </trkpt>
      <trkpt lat="43.63185" lon="1.21382">
        <ele>227</ele>
        <time>2020-10-03T09:15:24.000Z</time>
      </trkpt>
      <trkpt lat="43.63182" lon="1.2138">
        <ele>227.31521391304</ele>
        <time>2020-10-03T09:15:25.000Z</time>
      </trkpt>
      <trkpt lat="43.6318" lon="1.21378">
        <ele>228</ele>
        <time>2020-10-03T09:15:26.000Z</time>
      </trkpt>
      <trkpt lat="43.63178" lon="1.21376">
        <ele>228</ele>
        <time>2020-10-03T09:15:27.000Z</time>
      </trkpt>
      <trkpt lat="43.63175" lon="1.21374">
        <ele>228</ele>
        <time>2020-10-03T09:15:28.000Z</time>
      </trkpt>
      <trkpt lat="43.63173" lon="1.21372">
        <ele>228</ele>
        <time>2020-10-03T09:15:29.000Z</time>
      </trkpt>
      <trkpt lat="43.63171" lon="1.2137">
        <ele>228</ele>
        <time>2020-10-03T09:15:30.000Z</time>
      </trkpt>
      <trkpt lat="43.63168" lon="1.21368">
        <ele>228</ele>
        <time>2020-10-03T09:15:31.000Z</time>
      </trkpt>
      <trkpt lat="43.63166" lon="1.21366">
        <ele>228</ele>
        <time>2020-10-03T09:15:32.000Z</time>
      </trkpt>
      <trkpt lat="43.63164" lon="1.21364">
        <ele>228</ele>
        <time>2020-10-03T09:15:33.000Z</time>
      </trkpt>
      <trkpt lat="43.63162" lon="1.21363">
        <ele>228</ele>
        <time>2020-10-03T09:15:34.000Z</time>
      </trkpt>
      <trkpt lat="43.63158" lon="1.21359">
        <ele>228</ele>
        <time>2020-10-03T09:15:36.000Z</time>
      </trkpt>
      <trkpt lat="43.63156" lon="1.21357">
        <ele>227.6134476379</ele>
        <time>2020-10-03T09:15:37.000Z</time>
      </trkpt>
      <trkpt lat="43.63154" lon="1.21356">
        <ele>227</ele>
        <time>2020-10-03T09:15:38.000Z</time>
      </trkpt>
      <trkpt lat="43.63152" lon="1.21353">
        <ele>227</ele>
        <time>2020-10-03T09:15:39.000Z</time>
      </trkpt>
      <trkpt lat="43.63149" lon="1.21351">
        <ele>227</ele>
        <time>2020-10-03T09:15:40.000Z</time>
      </trkpt>
      <trkpt lat="43.63147" lon="1.21349">
        <ele>227</ele>
        <time>2020-10-03T09:15:41.000Z</time>
      </trkpt>
      <trkpt lat="43.63145" lon="1.21347">
        <ele>227</ele>
        <time>2020-10-03T09:15:42.000Z</time>
      </trkpt>
      <trkpt lat="43.63142" lon="1.21346">
        <ele>227</ele>
        <time>2020-10-03T09:15:43.000Z</time>
      </trkpt>
      <trkpt lat="43.6314" lon="1.21344">
        <ele>227</ele>
        <time>2020-10-03T09:15:44.000Z</time>
      </trkpt>
      <trkpt lat="43.63137" lon="1.21342">
        <ele>227</ele>
        <time>2020-10-03T09:15:45.000Z</time>
      </trkpt>
      <trkpt lat="43.63135" lon="1.21339">
        <ele>227</ele>
        <time>2020-10-03T09:15:46.000Z</time>
      </trkpt>
      <trkpt lat="43.63133" lon="1.21338">
        <ele>227.84090181818</ele>
        <time>2020-10-03T09:15:47.000Z</time>
      </trkpt>
      <trkpt lat="43.6313" lon="1.21336">
        <ele>229</ele>
        <time>2020-10-03T09:15:48.000Z</time>
      </trkpt>
      <trkpt lat="43.63128" lon="1.21334">
        <ele>229</ele>
        <time>2020-10-03T09:15:49.000Z</time>
      </trkpt>
      <trkpt lat="43.63125" lon="1.21332">
        <ele>229</ele>
        <time>2020-10-03T09:15:50.000Z</time>
      </trkpt>
      <trkpt lat="43.63123" lon="1.2133">
        <ele>229</ele>
        <time>2020-10-03T09:15:51.000Z</time>
      </trkpt>
      <trkpt lat="43.6312" lon="1.21328">
        <ele>229</ele>
        <time>2020-10-03T09:15:52.000Z</time>
      </trkpt>
      <trkpt lat="43.63118" lon="1.21326">
        <ele>229</ele>
        <time>2020-10-03T09:15:53.000Z</time>
      </trkpt>
      <trkpt lat="43.63114" lon="1.21323">
        <ele>229.3820255422</ele>
        <time>2020-10-03T09:15:55.000Z</time>
      </trkpt>
      <trkpt lat="43.63112" lon="1.21321">
        <ele>230</ele>
        <time>2020-10-03T09:15:56.000Z</time>
      </trkpt>
      <trkpt lat="43.6311" lon="1.2132">
        <ele>230</ele>
        <time>2020-10-03T09:15:57.000Z</time>
      </trkpt>
      <trkpt lat="43.63108" lon="1.21318">
        <ele>230</ele>
        <time>2020-10-03T09:15:58.000Z</time>
      </trkpt>
      <trkpt lat="43.63105" lon="1.21316">
        <ele>230</ele>
        <time>2020-10-03T09:15:59.000Z</time>
      </trkpt>
      <trkpt lat="43.63103" lon="1.21314">
        <ele>230</ele>
        <time>2020-10-03T09:16:00.000Z</time>
      </trkpt>
      <trkpt lat="43.63101" lon="1.21311">
        <ele>229.5900032</ele>
        <time>2020-10-03T09:16:01.000Z</time>
      </trkpt>
      <trkpt lat="43.63098" lon="1.21309">
        <ele>229</ele>
        <time>2020-10-03T09:16:02.000Z</time>
      </trkpt>
      <trkpt lat="43.63096" lon="1.21307">
        <ele>229</ele>
        <time>2020-10-03T09:16:03.000Z</time>
      </trkpt>
      <trkpt lat="43.63094" lon="1.21305">
        <ele>229</ele>
        <time>2020-10-03T09:16:04.000Z</time>
      </trkpt>
      <trkpt lat="43.63091" lon="1.21304">
        <ele>229.46315633463</ele>
        <time>2020-10-03T09:16:05.000Z</time>
      </trkpt>
      <trkpt lat="43.6309" lon="1.21302">
        <ele>230</ele>
        <time>2020-10-03T09:16:06.000Z</time>
      </trkpt>
      <trkpt lat="43.63088" lon="1.213">
        <ele>230</ele>
        <time>2020-10-03T09:16:07.000Z</time>
      </trkpt>
      <trkpt lat="43.63085" lon="1.21298">
        <ele>230</ele>
        <time>2020-10-03T09:16:08.000Z</time>
      </trkpt>
      <trkpt lat="43.63082" lon="1.21296">
        <ele>230</ele>
        <time>2020-10-03T09:16:09.000Z</time>
      </trkpt>
      <trkpt lat="43.6308" lon="1.21295">
        <ele>230</ele>
        <time>2020-10-03T09:16:10.000Z</time>
      </trkpt>
      <trkpt lat="43.63078" lon="1.21293">
        <ele>230</ele>
        <time>2020-10-03T09:16:11.000Z</time>
      </trkpt>
      <trkpt lat="43.63075" lon="1.21291">
        <ele>230</ele>
        <time>2020-10-03T09:16:12.000Z</time>
      </trkpt>
      <trkpt lat="43.6307" lon="1.21287">
        <ele>230</ele>
        <time>2020-10-03T09:16:14.000Z</time>
      </trkpt>
      <trkpt lat="43.63068" lon="1.21285">
        <ele>230</ele>
        <time>2020-10-03T09:16:15.000Z</time>
      </trkpt>
      <trkpt lat="43.63065" lon="1.21284">
        <ele>230</ele>
        <time>2020-10-03T09:16:16.000Z</time>
      </trkpt>
      <trkpt lat="43.63063" lon="1.21282">
        <ele>230</ele>
        <time>2020-10-03T09:16:17.000Z</time>
      </trkpt>
      <trkpt lat="43.6306" lon="1.2128">
        <ele>230</ele>
        <time>2020-10-03T09:16:18.000Z</time>
      </trkpt>
      <trkpt lat="43.63058" lon="1.21278">
        <ele>230</ele>
        <time>2020-10-03T09:16:19.000Z</time>
      </trkpt>
      <trkpt lat="43.63056" lon="1.21277">
        <ele>230</ele>
        <time>2020-10-03T09:16:20.000Z</time>
      </trkpt>
      <trkpt lat="43.63054" lon="1.21274">
        <ele>230</ele>
        <time>2020-10-03T09:16:21.000Z</time>
      </trkpt>
      <trkpt lat="43.63051" lon="1.21273">
        <ele>230</ele>
        <time>2020-10-03T09:16:22.000Z</time>
      </trkpt>
      <trkpt lat="43.63048" lon="1.21271">
        <ele>230</ele>
        <time>2020-10-03T09:16:23.000Z</time>
      </trkpt>
      <trkpt lat="43.63046" lon="1.21269">
        <ele>230.41177002078</ele>
        <time>2020-10-03T09:16:24.000Z</time>
      </trkpt>
      <trkpt lat="43.63043" lon="1.21267">
        <ele>231</ele>
        <time>2020-10-03T09:16:25.000Z</time>
      </trkpt>
      <trkpt lat="43.63041" lon="1.21266">
        <ele>231</ele>
        <time>2020-10-03T09:16:26.000Z</time>
      </trkpt>
      <trkpt lat="43.63039" lon="1.21266">
        <ele>231</ele>
        <time>2020-10-03T09:16:27.000Z</time>
      </trkpt>
      <trkpt lat="43.63037" lon="1.21267">
        <ele>231.36363424795</ele>
        <time>2020-10-03T09:16:28.000Z</time>
      </trkpt>
      <trkpt lat="43.63035" lon="1.21268">
        <ele>232</ele>
        <time>2020-10-03T09:16:29.000Z</time>
      </trkpt>
      <trkpt lat="43.63034" lon="1.2127">
        <ele>232</ele>
        <time>2020-10-03T09:16:30.000Z</time>
      </trkpt>
      <trkpt lat="43.63032" lon="1.21275">
        <ele>232</ele>
        <time>2020-10-03T09:16:32.000Z</time>
      </trkpt>
      <trkpt lat="43.63032" lon="1.21277">
        <ele>232</ele>
        <time>2020-10-03T09:16:33.000Z</time>
      </trkpt>
      <trkpt lat="43.6303" lon="1.2128">
        <ele>232</ele>
        <time>2020-10-03T09:16:34.000Z</time>
      </trkpt>
      <trkpt lat="43.6303" lon="1.21283">
        <ele>232</ele>
        <time>2020-10-03T09:16:35.000Z</time>
      </trkpt>
      <trkpt lat="43.63028" lon="1.21285">
        <ele>232</ele>
        <time>2020-10-03T09:16:36.000Z</time>
      </trkpt>
      <trkpt lat="43.63027" lon="1.21288">
        <ele>232</ele>
        <time>2020-10-03T09:16:37.000Z</time>
      </trkpt>
      <trkpt lat="43.63026" lon="1.2129">
        <ele>232</ele>
        <time>2020-10-03T09:16:38.000Z</time>
      </trkpt>
      <trkpt lat="43.63024" lon="1.21293">
        <ele>232</ele>
        <time>2020-10-03T09:16:39.000Z</time>
      </trkpt>
      <trkpt lat="43.63023" lon="1.21296">
        <ele>232</ele>
        <time>2020-10-03T09:16:40.000Z</time>
      </trkpt>
      <trkpt lat="43.63022" lon="1.213">
        <ele>232</ele>
        <time>2020-10-03T09:16:41.000Z</time>
      </trkpt>
      <trkpt lat="43.63021" lon="1.21303">
        <ele>232</ele>
        <time>2020-10-03T09:16:42.000Z</time>
      </trkpt>
      <trkpt lat="43.6302" lon="1.21305">
        <ele>231.56140035705</ele>
        <time>2020-10-03T09:16:43.000Z</time>
      </trkpt>
      <trkpt lat="43.63019" lon="1.21308">
        <ele>231</ele>
        <time>2020-10-03T09:16:44.000Z</time>
      </trkpt>
      <trkpt lat="43.63018" lon="1.21311">
        <ele>231.45454862808</ele>
        <time>2020-10-03T09:16:45.000Z</time>
      </trkpt>
      <trkpt lat="43.63016" lon="1.21314">
        <ele>232</ele>
        <time>2020-10-03T09:16:46.000Z</time>
      </trkpt>
      <trkpt lat="43.63015" lon="1.21318">
        <ele>232</ele>
        <time>2020-10-03T09:16:47.000Z</time>
      </trkpt>
      <trkpt lat="43.63014" lon="1.21321">
        <ele>232</ele>
        <time>2020-10-03T09:16:48.000Z</time>
      </trkpt>
      <trkpt lat="43.63014" lon="1.21323">
        <ele>232</ele>
        <time>2020-10-03T09:16:49.000Z</time>
      </trkpt>
      <trkpt lat="43.63012" lon="1.21325">
        <ele>232</ele>
        <time>2020-10-03T09:16:50.000Z</time>
      </trkpt>
      <trkpt lat="43.63012" lon="1.21328">
        <ele>232</ele>
        <time>2020-10-03T09:16:51.000Z</time>
      </trkpt>
      <trkpt lat="43.6301" lon="1.21331">
        <ele>232</ele>
        <time>2020-10-03T09:16:52.000Z</time>
      </trkpt>
      <trkpt lat="43.63009" lon="1.21334">
        <ele>232</ele>
        <time>2020-10-03T09:16:53.000Z</time>
      </trkpt>
      <trkpt lat="43.63008" lon="1.21337">
        <ele>232</ele>
        <time>2020-10-03T09:16:54.000Z</time>
      </trkpt>
      <trkpt lat="43.63007" lon="1.2134">
        <ele>231.58823617992</ele>
        <time>2020-10-03T09:16:55.000Z</time>
      </trkpt>
      <trkpt lat="43.63005" lon="1.21343">
        <ele>231</ele>
        <time>2020-10-03T09:16:56.000Z</time>
      </trkpt>
      <trkpt lat="43.63004" lon="1.21346">
        <ele>231</ele>
        <time>2020-10-03T09:16:57.000Z</time>
      </trkpt>
      <trkpt lat="43.63003" lon="1.21349">
        <ele>231</ele>
        <time>2020-10-03T09:16:58.000Z</time>
      </trkpt>
      <trkpt lat="43.63001" lon="1.21352">
        <ele>231</ele>
        <time>2020-10-03T09:16:59.000Z</time>
      </trkpt>
      <trkpt lat="43.63" lon="1.21355">
        <ele>231</ele>
        <time>2020-10-03T09:17:00.000Z</time>
      </trkpt>
      <trkpt lat="43.62998" lon="1.21358">
        <ele>231</ele>
        <time>2020-10-03T09:17:01.000Z</time>
      </trkpt>
      <trkpt lat="43.62997" lon="1.21362">
        <ele>231</ele>
        <time>2020-10-03T09:17:02.000Z</time>
      </trkpt>
      <trkpt lat="43.62996" lon="1.21364">
        <ele>231</ele>
        <time>2020-10-03T09:17:03.000Z</time>
      </trkpt>
      <trkpt lat="43.62995" lon="1.21368">
        <ele>231</ele>
        <time>2020-10-03T09:17:04.000Z</time>
      </trkpt>
      <trkpt lat="43.62993" lon="1.21371">
        <ele>231</ele>
        <time>2020-10-03T09:17:05.000Z</time>
      </trkpt>
      <trkpt lat="43.62991" lon="1.21375">
        <ele>231</ele>
        <time>2020-10-03T09:17:06.000Z</time>
      </trkpt>
      <trkpt lat="43.6299" lon="1.21377">
        <ele>231</ele>
        <time>2020-10-03T09:17:07.000Z</time>
      </trkpt>
      <trkpt lat="43.62989" lon="1.2138">
        <ele>231</ele>
        <time>2020-10-03T09:17:08.000Z</time>
      </trkpt>
      <trkpt lat="43.62988" lon="1.21384">
        <ele>231.37096640998</ele>
        <time>2020-10-03T09:17:09.000Z</time>
      </trkpt>
      <trkpt lat="43.62987" lon="1.21388">
        <ele>232</ele>
        <time>2020-10-03T09:17:10.000Z</time>
      </trkpt>
      <trkpt lat="43.62985" lon="1.21391">
        <ele>232</ele>
        <time>2020-10-03T09:17:11.000Z</time>
      </trkpt>
      <trkpt lat="43.62983" lon="1.21394">
        <ele>232</ele>
        <time>2020-10-03T09:17:12.000Z</time>
      </trkpt>
      <trkpt lat="43.62982" lon="1.21397">
        <ele>232</ele>
        <time>2020-10-03T09:17:13.000Z</time>
      </trkpt>
      <trkpt lat="43.62981" lon="1.21401">
        <ele>232</ele>
        <time>2020-10-03T09:17:14.000Z</time>
      </trkpt>
      <trkpt lat="43.62979" lon="1.21404">
        <ele>232</ele>
        <time>2020-10-03T09:17:15.000Z</time>
      </trkpt>
      <trkpt lat="43.62978" lon="1.21408">
        <ele>232</ele>
        <time>2020-10-03T09:17:16.000Z</time>
      </trkpt>
      <trkpt lat="43.62977" lon="1.21411">
        <ele>232</ele>
        <time>2020-10-03T09:17:17.000Z</time>
      </trkpt>
      <trkpt lat="43.62975" lon="1.21414">
        <ele>232</ele>
        <time>2020-10-03T09:17:18.000Z</time>
      </trkpt>
      <trkpt lat="43.62973" lon="1.21417">
        <ele>232</ele>
        <time>2020-10-03T09:17:19.000Z</time>
      </trkpt>
      <trkpt lat="43.62971" lon="1.21421">
        <ele>232</ele>
        <time>2020-10-03T09:17:20.000Z</time>
      </trkpt>
      <trkpt lat="43.6297" lon="1.21424">
        <ele>232</ele>
        <time>2020-10-03T09:17:21.000Z</time>
      </trkpt>
      <trkpt lat="43.62969" lon="1.21427">
        <ele>232</ele>
        <time>2020-10-03T09:17:22.000Z</time>
      </trkpt>
      <trkpt lat="43.62967" lon="1.2143">
        <ele>232</ele>
        <time>2020-10-03T09:17:23.000Z</time>
      </trkpt>
      <trkpt lat="43.62966" lon="1.21433">
        <ele>232</ele>
        <time>2020-10-03T09:17:24.000Z</time>
      </trkpt>
      <trkpt lat="43.62965" lon="1.21437">
        <ele>232</ele>
        <time>2020-10-03T09:17:25.000Z</time>
      </trkpt>
      <trkpt lat="43.62963" lon="1.2144">
        <ele>232</ele>
        <time>2020-10-03T09:17:26.000Z</time>
      </trkpt>
      <trkpt lat="43.62962" lon="1.21443">
        <ele>232</ele>
        <time>2020-10-03T09:17:27.000Z</time>
      </trkpt>
      <trkpt lat="43.62961" lon="1.21447">
        <ele>232</ele>
        <time>2020-10-03T09:17:28.000Z</time>
      </trkpt>
      <trkpt lat="43.62959" lon="1.2145">
        <ele>232</ele>
        <time>2020-10-03T09:17:29.000Z</time>
      </trkpt>
      <trkpt lat="43.62958" lon="1.21453">
        <ele>231.55670211924</ele>
        <time>2020-10-03T09:17:30.000Z</time>
      </trkpt>
      <trkpt lat="43.62957" lon="1.21457">
        <ele>231</ele>
        <time>2020-10-03T09:17:31.000Z</time>
      </trkpt>
      <trkpt lat="43.62956" lon="1.21461">
        <ele>231</ele>
        <time>2020-10-03T09:17:32.000Z</time>
      </trkpt>
      <trkpt lat="43.62955" lon="1.21464">
        <ele>231</ele>
        <time>2020-10-03T09:17:33.000Z</time>
      </trkpt>
      <trkpt lat="43.62954" lon="1.21468">
        <ele>231</ele>
        <time>2020-10-03T09:17:34.000Z</time>
      </trkpt>
      <trkpt lat="43.62952" lon="1.21472">
        <ele>231</ele>
        <time>2020-10-03T09:17:35.000Z</time>
      </trkpt>
      <trkpt lat="43.62951" lon="1.21475">
        <ele>231</ele>
        <time>2020-10-03T09:17:36.000Z</time>
      </trkpt>
      <trkpt lat="43.62949" lon="1.21479">
        <ele>231</ele>
        <time>2020-10-03T09:17:37.000Z</time>
      </trkpt>
      <trkpt lat="43.62946" lon="1.21483">
        <ele>231</ele>
        <time>2020-10-03T09:17:38.000Z</time>
      </trkpt>
      <trkpt lat="43.62943" lon="1.21485">
        <ele>231</ele>
        <time>2020-10-03T09:17:39.000Z</time>
      </trkpt>
      <trkpt lat="43.6294" lon="1.21487">
        <ele>230.63529447197</ele>
        <time>2020-10-03T09:17:40.000Z</time>
      </trkpt>
      <trkpt lat="43.62937" lon="1.21487">
        <ele>230</ele>
        <time>2020-10-03T09:17:41.000Z</time>
      </trkpt>
      <trkpt lat="43.62934" lon="1.21486">
        <ele>230</ele>
        <time>2020-10-03T09:17:42.000Z</time>
      </trkpt>
      <trkpt lat="43.62931" lon="1.21485">
        <ele>230</ele>
        <time>2020-10-03T09:17:43.000Z</time>
      </trkpt>
      <trkpt lat="43.62928" lon="1.21484">
        <ele>230</ele>
        <time>2020-10-03T09:17:44.000Z</time>
      </trkpt>
      <trkpt lat="43.62926" lon="1.21482">
        <ele>230</ele>
        <time>2020-10-03T09:17:45.000Z</time>
      </trkpt>
      <trkpt lat="43.62923" lon="1.21482">
        <ele>230</ele>
        <time>2020-10-03T09:17:46.000Z</time>
      </trkpt>
      <trkpt lat="43.62921" lon="1.21481">
        <ele>230</ele>
        <time>2020-10-03T09:17:47.000Z</time>
      </trkpt>
      <trkpt lat="43.62918" lon="1.2148">
        <ele>230</ele>
        <time>2020-10-03T09:17:48.000Z</time>
      </trkpt>
      <trkpt lat="43.62916" lon="1.21479">
        <ele>230</ele>
        <time>2020-10-03T09:17:49.000Z</time>
      </trkpt>
      <trkpt lat="43.62913" lon="1.21477">
        <ele>230.32584027268</ele>
        <time>2020-10-03T09:17:50.000Z</time>
      </trkpt>
      <trkpt lat="43.62911" lon="1.21476">
        <ele>231</ele>
        <time>2020-10-03T09:17:51.000Z</time>
      </trkpt>
      <trkpt lat="43.62909" lon="1.21474">
        <ele>231</ele>
        <time>2020-10-03T09:17:52.000Z</time>
      </trkpt>
      <trkpt lat="43.62907" lon="1.21472">
        <ele>231</ele>
        <time>2020-10-03T09:17:53.000Z</time>
      </trkpt>
      <trkpt lat="43.62904" lon="1.21469">
        <ele>231</ele>
        <time>2020-10-03T09:17:54.000Z</time>
      </trkpt>
      <trkpt lat="43.62902" lon="1.21468">
        <ele>231</ele>
        <time>2020-10-03T09:17:55.000Z</time>
      </trkpt>
      <trkpt lat="43.629" lon="1.21466">
        <ele>231</ele>
        <time>2020-10-03T09:17:56.000Z</time>
      </trkpt>
      <trkpt lat="43.62898" lon="1.21465">
        <ele>231</ele>
        <time>2020-10-03T09:17:57.000Z</time>
      </trkpt>
      <trkpt lat="43.62895" lon="1.21464">
        <ele>231</ele>
        <time>2020-10-03T09:17:58.000Z</time>
      </trkpt>
      <trkpt lat="43.62893" lon="1.21463">
        <ele>231</ele>
        <time>2020-10-03T09:17:59.000Z</time>
      </trkpt>
      <trkpt lat="43.62891" lon="1.21461">
        <ele>231</ele>
        <time>2020-10-03T09:18:00.000Z</time>
      </trkpt>
      <trkpt lat="43.62888" lon="1.21459">
        <ele>231</ele>
        <time>2020-10-03T09:18:01.000Z</time>
      </trkpt>
      <trkpt lat="43.62886" lon="1.21458">
        <ele>231</ele>
        <time>2020-10-03T09:18:02.000Z</time>
      </trkpt>
      <trkpt lat="43.62884" lon="1.21456">
        <ele>231</ele>
        <time>2020-10-03T09:18:03.000Z</time>
      </trkpt>
      <trkpt lat="43.62882" lon="1.21455">
        <ele>231</ele>
        <time>2020-10-03T09:18:04.000Z</time>
      </trkpt>
      <trkpt lat="43.6288" lon="1.21453">
        <ele>231</ele>
        <time>2020-10-03T09:18:05.000Z</time>
      </trkpt>
      <trkpt lat="43.62877" lon="1.21452">
        <ele>231</ele>
        <time>2020-10-03T09:18:06.000Z</time>
      </trkpt>
      <trkpt lat="43.62875" lon="1.2145">
        <ele>231</ele>
        <time>2020-10-03T09:18:07.000Z</time>
      </trkpt>
      <trkpt lat="43.62873" lon="1.21449">
        <ele>231</ele>
        <time>2020-10-03T09:18:08.000Z</time>
      </trkpt>
      <trkpt lat="43.6287" lon="1.21447">
        <ele>231</ele>
        <time>2020-10-03T09:18:09.000Z</time>
      </trkpt>
      <trkpt lat="43.62868" lon="1.21445">
        <ele>231</ele>
        <time>2020-10-03T09:18:10.000Z</time>
      </trkpt>
      <trkpt lat="43.62866" lon="1.21443">
        <ele>231</ele>
        <time>2020-10-03T09:18:11.000Z</time>
      </trkpt>
      <trkpt lat="43.62863" lon="1.21441">
        <ele>231</ele>
        <time>2020-10-03T09:18:12.000Z</time>
      </trkpt>
      <trkpt lat="43.62861" lon="1.21439">
        <ele>231</ele>
        <time>2020-10-03T09:18:13.000Z</time>
      </trkpt>
      <trkpt lat="43.62859" lon="1.21437">
        <ele>231</ele>
        <time>2020-10-03T09:18:14.000Z</time>
      </trkpt>
      <trkpt lat="43.62857" lon="1.21435">
        <ele>231</ele>
        <time>2020-10-03T09:18:15.000Z</time>
      </trkpt>
      <trkpt lat="43.62854" lon="1.21433">
        <ele>231</ele>
        <time>2020-10-03T09:18:16.000Z</time>
      </trkpt>
      <trkpt lat="43.62851" lon="1.21431">
        <ele>231</ele>
        <time>2020-10-03T09:18:17.000Z</time>
      </trkpt>
      <trkpt lat="43.62849" lon="1.21429">
        <ele>231</ele>
        <time>2020-10-03T09:18:18.000Z</time>
      </trkpt>
      <trkpt lat="43.62847" lon="1.21427">
        <ele>231</ele>
        <time>2020-10-03T09:18:19.000Z</time>
      </trkpt>
      <trkpt lat="43.62845" lon="1.21425">
        <ele>231</ele>
        <time>2020-10-03T09:18:20.000Z</time>
      </trkpt>
      <trkpt lat="43.62843" lon="1.21423">
        <ele>231</ele>
        <time>2020-10-03T09:18:21.000Z</time>
      </trkpt>
      <trkpt lat="43.6284" lon="1.21422">
        <ele>231</ele>
        <time>2020-10-03T09:18:22.000Z</time>
      </trkpt>
      <trkpt lat="43.62838" lon="1.2142">
        <ele>231</ele>
        <time>2020-10-03T09:18:23.000Z</time>
      </trkpt>
      <trkpt lat="43.62836" lon="1.21419">
        <ele>231</ele>
        <time>2020-10-03T09:18:24.000Z</time>
      </trkpt>
      <trkpt lat="43.62834" lon="1.21418">
        <ele>231</ele>
        <time>2020-10-03T09:18:25.000Z</time>
      </trkpt>
      <trkpt lat="43.62832" lon="1.21415">
        <ele>231</ele>
        <time>2020-10-03T09:18:26.000Z</time>
      </trkpt>
      <trkpt lat="43.6283" lon="1.21414">
        <ele>231</ele>
        <time>2020-10-03T09:18:27.000Z</time>
      </trkpt>
      <trkpt lat="43.62828" lon="1.21412">
        <ele>231</ele>
        <time>2020-10-03T09:18:28.000Z</time>
      </trkpt>
      <trkpt lat="43.62825" lon="1.2141">
        <ele>231</ele>
        <time>2020-10-03T09:18:29.000Z</time>
      </trkpt>
      <trkpt lat="43.62823" lon="1.21408">
        <ele>231.39285333333</ele>
        <time>2020-10-03T09:18:30.000Z</time>
      </trkpt>
      <trkpt lat="43.6282" lon="1.21406">
        <ele>232</ele>
        <time>2020-10-03T09:18:31.000Z</time>
      </trkpt>
      <trkpt lat="43.62818" lon="1.21404">
        <ele>232</ele>
        <time>2020-10-03T09:18:32.000Z</time>
      </trkpt>
      <trkpt lat="43.62816" lon="1.21402">
        <ele>232</ele>
        <time>2020-10-03T09:18:33.000Z</time>
      </trkpt>
      <trkpt lat="43.62814" lon="1.214">
        <ele>232</ele>
        <time>2020-10-03T09:18:34.000Z</time>
      </trkpt>
      <trkpt lat="43.62812" lon="1.21398">
        <ele>232</ele>
        <time>2020-10-03T09:18:35.000Z</time>
      </trkpt>
      <trkpt lat="43.6281" lon="1.21396">
        <ele>232</ele>
        <time>2020-10-03T09:18:36.000Z</time>
      </trkpt>
      <trkpt lat="43.62807" lon="1.21394">
        <ele>232</ele>
        <time>2020-10-03T09:18:37.000Z</time>
      </trkpt>
      <trkpt lat="43.62805" lon="1.21392">
        <ele>232</ele>
        <time>2020-10-03T09:18:38.000Z</time>
      </trkpt>
      <trkpt lat="43.62802" lon="1.2139">
        <ele>232</ele>
        <time>2020-10-03T09:18:39.000Z</time>
      </trkpt>
      <trkpt lat="43.628" lon="1.21388">
        <ele>232</ele>
        <time>2020-10-03T09:18:40.000Z</time>
      </trkpt>
      <trkpt lat="43.62797" lon="1.21386">
        <ele>232</ele>
        <time>2020-10-03T09:18:41.000Z</time>
      </trkpt>
      <trkpt lat="43.62795" lon="1.21384">
        <ele>232</ele>
        <time>2020-10-03T09:18:42.000Z</time>
      </trkpt>
      <trkpt lat="43.62793" lon="1.21382">
        <ele>231.57142656202</ele>
        <time>2020-10-03T09:18:43.000Z</time>
      </trkpt>
      <trkpt lat="43.62791" lon="1.2138">
        <ele>231</ele>
        <time>2020-10-03T09:18:44.000Z</time>
      </trkpt>
      <trkpt lat="43.62789" lon="1.21379">
        <ele>231</ele>
        <time>2020-10-03T09:18:45.000Z</time>
      </trkpt>
      <trkpt lat="43.62787" lon="1.21378">
        <ele>231</ele>
        <time>2020-10-03T09:18:46.000Z</time>
      </trkpt>
      <trkpt lat="43.62784" lon="1.21376">
        <ele>231.41860153599</ele>
        <time>2020-10-03T09:18:47.000Z</time>
      </trkpt>
      <trkpt lat="43.62782" lon="1.21374">
        <ele>232</ele>
        <time>2020-10-03T09:18:48.000Z</time>
      </trkpt>
      <trkpt lat="43.62779" lon="1.21371">
        <ele>232</ele>
        <time>2020-10-03T09:18:49.000Z</time>
      </trkpt>
      <trkpt lat="43.62776" lon="1.21369">
        <ele>232.4454542281</ele>
        <time>2020-10-03T09:18:50.000Z</time>
      </trkpt>
      <trkpt lat="43.62774" lon="1.21367">
        <ele>233</ele>
        <time>2020-10-03T09:18:51.000Z</time>
      </trkpt>
      <trkpt lat="43.62772" lon="1.21365">
        <ele>233</ele>
        <time>2020-10-03T09:18:52.000Z</time>
      </trkpt>
      <trkpt lat="43.6277" lon="1.21364">
        <ele>233</ele>
        <time>2020-10-03T09:18:53.000Z</time>
      </trkpt>
      <trkpt lat="43.62768" lon="1.21362">
        <ele>233</ele>
        <time>2020-10-03T09:18:54.000Z</time>
      </trkpt>
      <trkpt lat="43.62765" lon="1.2136">
        <ele>233</ele>
        <time>2020-10-03T09:18:55.000Z</time>
      </trkpt>
      <trkpt lat="43.62763" lon="1.21358">
        <ele>233</ele>
        <time>2020-10-03T09:18:56.000Z</time>
      </trkpt>
      <trkpt lat="43.62761" lon="1.21356">
        <ele>233</ele>
        <time>2020-10-03T09:18:57.000Z</time>
      </trkpt>
      <trkpt lat="43.62759" lon="1.21354">
        <ele>233</ele>
        <time>2020-10-03T09:18:58.000Z</time>
      </trkpt>
      <trkpt lat="43.62757" lon="1.21352">
        <ele>232.53703659808</ele>
        <time>2020-10-03T09:18:59.000Z</time>
      </trkpt>
      <trkpt lat="43.62754" lon="1.2135">
        <ele>232</ele>
        <time>2020-10-03T09:19:00.000Z</time>
      </trkpt>
      <trkpt lat="43.62752" lon="1.21348">
        <ele>232</ele>
        <time>2020-10-03T09:19:01.000Z</time>
      </trkpt>
      <trkpt lat="43.6275" lon="1.21347">
        <ele>232.4333338074</ele>
        <time>2020-10-03T09:19:02.000Z</time>
      </trkpt>
      <trkpt lat="43.62748" lon="1.21345">
        <ele>233</ele>
        <time>2020-10-03T09:19:03.000Z</time>
      </trkpt>
      <trkpt lat="43.62745" lon="1.21343">
        <ele>233</ele>
        <time>2020-10-03T09:19:04.000Z</time>
      </trkpt>
      <trkpt lat="43.62743" lon="1.21341">
        <ele>233</ele>
        <time>2020-10-03T09:19:05.000Z</time>
      </trkpt>
      <trkpt lat="43.6274" lon="1.21339">
        <ele>233</ele>
        <time>2020-10-03T09:19:06.000Z</time>
      </trkpt>
      <trkpt lat="43.62737" lon="1.21336">
        <ele>233</ele>
        <time>2020-10-03T09:19:07.000Z</time>
      </trkpt>
      <trkpt lat="43.62735" lon="1.21334">
        <ele>233</ele>
        <time>2020-10-03T09:19:08.000Z</time>
      </trkpt>
      <trkpt lat="43.62733" lon="1.21333">
        <ele>233</ele>
        <time>2020-10-03T09:19:09.000Z</time>
      </trkpt>
      <trkpt lat="43.62731" lon="1.21331">
        <ele>233</ele>
        <time>2020-10-03T09:19:10.000Z</time>
      </trkpt>
      <trkpt lat="43.62728" lon="1.21329">
        <ele>233</ele>
        <time>2020-10-03T09:19:11.000Z</time>
      </trkpt>
      <trkpt lat="43.62725" lon="1.21327">
        <ele>233</ele>
        <time>2020-10-03T09:19:12.000Z</time>
      </trkpt>
      <trkpt lat="43.62723" lon="1.21326">
        <ele>233</ele>
        <time>2020-10-03T09:19:13.000Z</time>
      </trkpt>
      <trkpt lat="43.62721" lon="1.21324">
        <ele>233</ele>
        <time>2020-10-03T09:19:14.000Z</time>
      </trkpt>
      <trkpt lat="43.62719" lon="1.21322">
        <ele>233</ele>
        <time>2020-10-03T09:19:15.000Z</time>
      </trkpt>
      <trkpt lat="43.62717" lon="1.2132">
        <ele>233</ele>
        <time>2020-10-03T09:19:16.000Z</time>
      </trkpt>
      <trkpt lat="43.62714" lon="1.21318">
        <ele>233</ele>
        <time>2020-10-03T09:19:17.000Z</time>
      </trkpt>
      <trkpt lat="43.62712" lon="1.21316">
        <ele>233</ele>
        <time>2020-10-03T09:19:18.000Z</time>
      </trkpt>
      <trkpt lat="43.6271" lon="1.21314">
        <ele>233</ele>
        <time>2020-10-03T09:19:19.000Z</time>
      </trkpt>
      <trkpt lat="43.62707" lon="1.21312">
        <ele>233</ele>
        <time>2020-10-03T09:19:20.000Z</time>
      </trkpt>
      <trkpt lat="43.62705" lon="1.2131">
        <ele>233</ele>
        <time>2020-10-03T09:19:21.000Z</time>
      </trkpt>
      <trkpt lat="43.62703" lon="1.21308">
        <ele>233</ele>
        <time>2020-10-03T09:19:22.000Z</time>
      </trkpt>
      <trkpt lat="43.62698" lon="1.21305">
        <ele>233</ele>
        <time>2020-10-03T09:19:24.000Z</time>
      </trkpt>
      <trkpt lat="43.62695" lon="1.21303">
        <ele>233</ele>
        <time>2020-10-03T09:19:25.000Z</time>
      </trkpt>
      <trkpt lat="43.62693" lon="1.21302">
        <ele>233</ele>
        <time>2020-10-03T09:19:26.000Z</time>
      </trkpt>
      <trkpt lat="43.6269" lon="1.213">
        <ele>233</ele>
        <time>2020-10-03T09:19:27.000Z</time>
      </trkpt>
      <trkpt lat="43.62688" lon="1.21298">
        <ele>233</ele>
        <time>2020-10-03T09:19:28.000Z</time>
      </trkpt>
      <trkpt lat="43.62686" lon="1.21296">
        <ele>233</ele>
        <time>2020-10-03T09:19:29.000Z</time>
      </trkpt>
      <trkpt lat="43.62684" lon="1.21294">
        <ele>233</ele>
        <time>2020-10-03T09:19:30.000Z</time>
      </trkpt>
      <trkpt lat="43.62682" lon="1.21291">
        <ele>233</ele>
        <time>2020-10-03T09:19:31.000Z</time>
      </trkpt>
      <trkpt lat="43.62679" lon="1.21288">
        <ele>233.47917333333</ele>
        <time>2020-10-03T09:19:32.000Z</time>
      </trkpt>
      <trkpt lat="43.62677" lon="1.21285">
        <ele>234</ele>
        <time>2020-10-03T09:19:33.000Z</time>
      </trkpt>
      <trkpt lat="43.62675" lon="1.21282">
        <ele>234</ele>
        <time>2020-10-03T09:19:34.000Z</time>
      </trkpt>
      <trkpt lat="43.62672" lon="1.21279">
        <ele>234</ele>
        <time>2020-10-03T09:19:35.000Z</time>
      </trkpt>
      <trkpt lat="43.6267" lon="1.21277">
        <ele>234</ele>
        <time>2020-10-03T09:19:36.000Z</time>
      </trkpt>
      <trkpt lat="43.62667" lon="1.21275">
        <ele>234</ele>
        <time>2020-10-03T09:19:37.000Z</time>
      </trkpt>
      <trkpt lat="43.62665" lon="1.21274">
        <ele>234</ele>
        <time>2020-10-03T09:19:38.000Z</time>
      </trkpt>
      <trkpt lat="43.62662" lon="1.21272">
        <ele>234</ele>
        <time>2020-10-03T09:19:39.000Z</time>
      </trkpt>
      <trkpt lat="43.6266" lon="1.21271">
        <ele>234</ele>
        <time>2020-10-03T09:19:40.000Z</time>
      </trkpt>
      <trkpt lat="43.62657" lon="1.21269">
        <ele>234</ele>
        <time>2020-10-03T09:19:41.000Z</time>
      </trkpt>
      <trkpt lat="43.62655" lon="1.21266">
        <ele>234</ele>
        <time>2020-10-03T09:19:42.000Z</time>
      </trkpt>
      <trkpt lat="43.62653" lon="1.21264">
        <ele>234</ele>
        <time>2020-10-03T09:19:43.000Z</time>
      </trkpt>
      <trkpt lat="43.6265" lon="1.21261">
        <ele>234</ele>
        <time>2020-10-03T09:19:44.000Z</time>
      </trkpt>
      <trkpt lat="43.62648" lon="1.21259">
        <ele>233.5</ele>
        <time>2020-10-03T09:19:45.000Z</time>
      </trkpt>
      <trkpt lat="43.62645" lon="1.21256">
        <ele>233</ele>
        <time>2020-10-03T09:19:46.000Z</time>
      </trkpt>
      <trkpt lat="43.62643" lon="1.21255">
        <ele>233.41509684587</ele>
        <time>2020-10-03T09:19:47.000Z</time>
      </trkpt>
      <trkpt lat="43.6264" lon="1.21254">
        <ele>234</ele>
        <time>2020-10-03T09:19:48.000Z</time>
      </trkpt>
      <trkpt lat="43.62638" lon="1.21251">
        <ele>234</ele>
        <time>2020-10-03T09:19:49.000Z</time>
      </trkpt>
      <trkpt lat="43.62636" lon="1.21249">
        <ele>234</ele>
        <time>2020-10-03T09:19:50.000Z</time>
      </trkpt>
      <trkpt lat="43.62633" lon="1.21247">
        <ele>234</ele>
        <time>2020-10-03T09:19:51.000Z</time>
      </trkpt>
      <trkpt lat="43.6263" lon="1.21245">
        <ele>234</ele>
        <time>2020-10-03T09:19:52.000Z</time>
      </trkpt>
      <trkpt lat="43.62627" lon="1.21243">
        <ele>234</ele>
        <time>2020-10-03T09:19:53.000Z</time>
      </trkpt>
      <trkpt lat="43.62625" lon="1.21241">
        <ele>234</ele>
        <time>2020-10-03T09:19:54.000Z</time>
      </trkpt>
      <trkpt lat="43.62622" lon="1.21239">
        <ele>234</ele>
        <time>2020-10-03T09:19:55.000Z</time>
      </trkpt>
      <trkpt lat="43.6262" lon="1.21237">
        <ele>234</ele>
        <time>2020-10-03T09:19:56.000Z</time>
      </trkpt>
      <trkpt lat="43.62618" lon="1.21235">
        <ele>234</ele>
        <time>2020-10-03T09:19:57.000Z</time>
      </trkpt>
      <trkpt lat="43.62616" lon="1.21234">
        <ele>234</ele>
        <time>2020-10-03T09:19:58.000Z</time>
      </trkpt>
      <trkpt lat="43.62614" lon="1.21232">
        <ele>234</ele>
        <time>2020-10-03T09:19:59.000Z</time>
      </trkpt>
      <trkpt lat="43.62612" lon="1.21231">
        <ele>234</ele>
        <time>2020-10-03T09:20:00.000Z</time>
      </trkpt>
      <trkpt lat="43.62609" lon="1.21229">
        <ele>234</ele>
        <time>2020-10-03T09:20:01.000Z</time>
      </trkpt>
      <trkpt lat="43.62606" lon="1.21227">
        <ele>234</ele>
        <time>2020-10-03T09:20:02.000Z</time>
      </trkpt>
      <trkpt lat="43.62604" lon="1.21226">
        <ele>234</ele>
        <time>2020-10-03T09:20:03.000Z</time>
      </trkpt>
      <trkpt lat="43.62601" lon="1.21224">
        <ele>234</ele>
        <time>2020-10-03T09:20:04.000Z</time>
      </trkpt>
      <trkpt lat="43.62599" lon="1.21223">
        <ele>234</ele>
        <time>2020-10-03T09:20:05.000Z</time>
      </trkpt>
      <trkpt lat="43.62596" lon="1.21221">
        <ele>234</ele>
        <time>2020-10-03T09:20:06.000Z</time>
      </trkpt>
      <trkpt lat="43.62593" lon="1.21219">
        <ele>234</ele>
        <time>2020-10-03T09:20:07.000Z</time>
      </trkpt>
      <trkpt lat="43.62591" lon="1.21217">
        <ele>234</ele>
        <time>2020-10-03T09:20:08.000Z</time>
      </trkpt>
      <trkpt lat="43.62588" lon="1.21214">
        <ele>234</ele>
        <time>2020-10-03T09:20:09.000Z</time>
      </trkpt>
      <trkpt lat="43.62586" lon="1.21211">
        <ele>234</ele>
        <time>2020-10-03T09:20:10.000Z</time>
      </trkpt>
      <trkpt lat="43.62584" lon="1.21209">
        <ele>234</ele>
        <time>2020-10-03T09:20:11.000Z</time>
      </trkpt>
      <trkpt lat="43.62582" lon="1.21207">
        <ele>234</ele>
        <time>2020-10-03T09:20:12.000Z</time>
      </trkpt>
      <trkpt lat="43.62579" lon="1.21206">
        <ele>233.66292732738</ele>
        <time>2020-10-03T09:20:13.000Z</time>
      </trkpt>
      <trkpt lat="43.62576" lon="1.21204">
        <ele>233</ele>
        <time>2020-10-03T09:20:14.000Z</time>
      </trkpt>
      <trkpt lat="43.62574" lon="1.21203">
        <ele>233</ele>
        <time>2020-10-03T09:20:15.000Z</time>
      </trkpt>
      <trkpt lat="43.62571" lon="1.212">
        <ele>233.41818520329</ele>
        <time>2020-10-03T09:20:16.000Z</time>
      </trkpt>
      <trkpt lat="43.62568" lon="1.21198">
        <ele>234</ele>
        <time>2020-10-03T09:20:17.000Z</time>
      </trkpt>
      <trkpt lat="43.62565" lon="1.21196">
        <ele>234</ele>
        <time>2020-10-03T09:20:18.000Z</time>
      </trkpt>
      <trkpt lat="43.62563" lon="1.21194">
        <ele>234</ele>
        <time>2020-10-03T09:20:19.000Z</time>
      </trkpt>
      <trkpt lat="43.6256" lon="1.21192">
        <ele>234</ele>
        <time>2020-10-03T09:20:20.000Z</time>
      </trkpt>
      <trkpt lat="43.62558" lon="1.2119">
        <ele>234</ele>
        <time>2020-10-03T09:20:21.000Z</time>
      </trkpt>
      <trkpt lat="43.62556" lon="1.21188">
        <ele>234</ele>
        <time>2020-10-03T09:20:22.000Z</time>
      </trkpt>
      <trkpt lat="43.62553" lon="1.21186">
        <ele>234</ele>
        <time>2020-10-03T09:20:23.000Z</time>
      </trkpt>
      <trkpt lat="43.6255" lon="1.21185">
        <ele>234</ele>
        <time>2020-10-03T09:20:24.000Z</time>
      </trkpt>
      <trkpt lat="43.62547" lon="1.21183">
        <ele>234</ele>
        <time>2020-10-03T09:20:25.000Z</time>
      </trkpt>
      <trkpt lat="43.62544" lon="1.21181">
        <ele>234</ele>
        <time>2020-10-03T09:20:26.000Z</time>
      </trkpt>
      <trkpt lat="43.62542" lon="1.21178">
        <ele>234</ele>
        <time>2020-10-03T09:20:27.000Z</time>
      </trkpt>
      <trkpt lat="43.62539" lon="1.21175">
        <ele>234</ele>
        <time>2020-10-03T09:20:28.000Z</time>
      </trkpt>
      <trkpt lat="43.62536" lon="1.21173">
        <ele>234</ele>
        <time>2020-10-03T09:20:29.000Z</time>
      </trkpt>
      <trkpt lat="43.62534" lon="1.2117">
        <ele>233.59302256355</ele>
        <time>2020-10-03T09:20:30.000Z</time>
      </trkpt>
      <trkpt lat="43.62531" lon="1.21168">
        <ele>233</ele>
        <time>2020-10-03T09:20:31.000Z</time>
      </trkpt>
      <trkpt lat="43.62529" lon="1.21166">
        <ele>233</ele>
        <time>2020-10-03T09:20:32.000Z</time>
      </trkpt>
      <trkpt lat="43.62525" lon="1.21163">
        <ele>231.95652173913</ele>
        <time>2020-10-03T09:20:33.000Z</time>
      </trkpt>
      <trkpt lat="43.62522" lon="1.2116">
        <ele>230</ele>
        <time>2020-10-03T09:20:34.000Z</time>
      </trkpt>
      <trkpt lat="43.62519" lon="1.21157">
        <ele>230</ele>
        <time>2020-10-03T09:20:35.000Z</time>
      </trkpt>
      <trkpt lat="43.62516" lon="1.21154">
        <ele>230</ele>
        <time>2020-10-03T09:20:36.000Z</time>
      </trkpt>
      <trkpt lat="43.62513" lon="1.21152">
        <ele>229.64486260811</ele>
        <time>2020-10-03T09:20:37.000Z</time>
      </trkpt>
      <trkpt lat="43.62511" lon="1.2115">
        <ele>229</ele>
        <time>2020-10-03T09:20:38.000Z</time>
      </trkpt>
      <trkpt lat="43.62508" lon="1.21148">
        <ele>229</ele>
        <time>2020-10-03T09:20:39.000Z</time>
      </trkpt>
      <trkpt lat="43.62505" lon="1.21147">
        <ele>229.2241389457</ele>
        <time>2020-10-03T09:20:40.000Z</time>
      </trkpt>
      <trkpt lat="43.62501" lon="1.21143">
        <ele>230</ele>
        <time>2020-10-03T09:20:42.000Z</time>
      </trkpt>
      <trkpt lat="43.62499" lon="1.2114">
        <ele>230</ele>
        <time>2020-10-03T09:20:43.000Z</time>
      </trkpt>
      <trkpt lat="43.62499" lon="1.21138">
        <ele>230.5</ele>
        <time>2020-10-03T09:20:44.000Z</time>
      </trkpt>
      <trkpt lat="43.62496" lon="1.21137">
        <ele>231</ele>
        <time>2020-10-03T09:20:45.000Z</time>
      </trkpt>
      <trkpt lat="43.62494" lon="1.21136">
        <ele>231</ele>
        <time>2020-10-03T09:20:46.000Z</time>
      </trkpt>
      <trkpt lat="43.62491" lon="1.21133">
        <ele>231</ele>
        <time>2020-10-03T09:20:47.000Z</time>
      </trkpt>
      <trkpt lat="43.62489" lon="1.2113">
        <ele>231.37878670339</ele>
        <time>2020-10-03T09:20:48.000Z</time>
      </trkpt>
      <trkpt lat="43.62487" lon="1.21128">
        <ele>232</ele>
        <time>2020-10-03T09:20:49.000Z</time>
      </trkpt>
      <trkpt lat="43.62482" lon="1.21125">
        <ele>232</ele>
        <time>2020-10-03T09:20:51.000Z</time>
      </trkpt>
      <trkpt lat="43.62478" lon="1.21121">
        <ele>232.35293497576</ele>
        <time>2020-10-03T09:20:53.000Z</time>
      </trkpt>
      <trkpt lat="43.62476" lon="1.21118">
        <ele>233</ele>
        <time>2020-10-03T09:20:54.000Z</time>
      </trkpt>
      <trkpt lat="43.62474" lon="1.21117">
        <ele>233</ele>
        <time>2020-10-03T09:20:55.000Z</time>
      </trkpt>
      <trkpt lat="43.62472" lon="1.21115">
        <ele>233</ele>
        <time>2020-10-03T09:20:56.000Z</time>
      </trkpt>
      <trkpt lat="43.6247" lon="1.21112">
        <ele>233</ele>
        <time>2020-10-03T09:20:57.000Z</time>
      </trkpt>
      <trkpt lat="43.62467" lon="1.21111">
        <ele>233</ele>
        <time>2020-10-03T09:20:58.000Z</time>
      </trkpt>
      <trkpt lat="43.62465" lon="1.2111">
        <ele>233</ele>
        <time>2020-10-03T09:20:59.000Z</time>
      </trkpt>
      <trkpt lat="43.62463" lon="1.21109">
        <ele>233</ele>
        <time>2020-10-03T09:21:00.000Z</time>
      </trkpt>
      <trkpt lat="43.62461" lon="1.21107">
        <ele>233</ele>
        <time>2020-10-03T09:21:01.000Z</time>
      </trkpt>
      <trkpt lat="43.62459" lon="1.21105">
        <ele>233</ele>
        <time>2020-10-03T09:21:02.000Z</time>
      </trkpt>
      <trkpt lat="43.62456" lon="1.21104">
        <ele>233.42528211391</ele>
        <time>2020-10-03T09:21:03.000Z</time>
      </trkpt>
      <trkpt lat="43.62454" lon="1.21102">
        <ele>234</ele>
        <time>2020-10-03T09:21:04.000Z</time>
      </trkpt>
      <trkpt lat="43.62451" lon="1.211">
        <ele>234.34579450432</ele>
        <time>2020-10-03T09:21:05.000Z</time>
      </trkpt>
      <trkpt lat="43.62448" lon="1.21098">
        <ele>235</ele>
        <time>2020-10-03T09:21:06.000Z</time>
      </trkpt>
      <trkpt lat="43.62446" lon="1.21096">
        <ele>235</ele>
        <time>2020-10-03T09:21:07.000Z</time>
      </trkpt>
      <trkpt lat="43.62444" lon="1.21093">
        <ele>235</ele>
        <time>2020-10-03T09:21:08.000Z</time>
      </trkpt>
      <trkpt lat="43.62442" lon="1.21091">
        <ele>235</ele>
        <time>2020-10-03T09:21:09.000Z</time>
      </trkpt>
      <trkpt lat="43.6244" lon="1.21089">
        <ele>235</ele>
        <time>2020-10-03T09:21:10.000Z</time>
      </trkpt>
      <trkpt lat="43.62437" lon="1.21086">
        <ele>235</ele>
        <time>2020-10-03T09:21:11.000Z</time>
      </trkpt>
      <trkpt lat="43.62435" lon="1.21084">
        <ele>235</ele>
        <time>2020-10-03T09:21:12.000Z</time>
      </trkpt>
      <trkpt lat="43.62433" lon="1.21082">
        <ele>234.58139846401</ele>
        <time>2020-10-03T09:21:13.000Z</time>
      </trkpt>
      <trkpt lat="43.62431" lon="1.2108">
        <ele>234</ele>
        <time>2020-10-03T09:21:14.000Z</time>
      </trkpt>
      <trkpt lat="43.62429" lon="1.21078">
        <ele>234</ele>
        <time>2020-10-03T09:21:15.000Z</time>
      </trkpt>
      <trkpt lat="43.62426" lon="1.21076">
        <ele>234</ele>
        <time>2020-10-03T09:21:16.000Z</time>
      </trkpt>
      <trkpt lat="43.62423" lon="1.21075">
        <ele>234</ele>
        <time>2020-10-03T09:21:17.000Z</time>
      </trkpt>
      <trkpt lat="43.6242" lon="1.21073">
        <ele>234</ele>
        <time>2020-10-03T09:21:18.000Z</time>
      </trkpt>
      <trkpt lat="43.62417" lon="1.21071">
        <ele>234</ele>
        <time>2020-10-03T09:21:19.000Z</time>
      </trkpt>
      <trkpt lat="43.62415" lon="1.2107">
        <ele>234</ele>
        <time>2020-10-03T09:21:20.000Z</time>
      </trkpt>
      <trkpt lat="43.62413" lon="1.21068">
        <ele>234</ele>
        <time>2020-10-03T09:21:21.000Z</time>
      </trkpt>
      <trkpt lat="43.62411" lon="1.21066">
        <ele>234</ele>
        <time>2020-10-03T09:21:22.000Z</time>
      </trkpt>
      <trkpt lat="43.62408" lon="1.21064">
        <ele>234</ele>
        <time>2020-10-03T09:21:23.000Z</time>
      </trkpt>
      <trkpt lat="43.62406" lon="1.21061">
        <ele>234</ele>
        <time>2020-10-03T09:21:24.000Z</time>
      </trkpt>
      <trkpt lat="43.62404" lon="1.21059">
        <ele>234</ele>
        <time>2020-10-03T09:21:25.000Z</time>
      </trkpt>
      <trkpt lat="43.62402" lon="1.21057">
        <ele>234</ele>
        <time>2020-10-03T09:21:26.000Z</time>
      </trkpt>
      <trkpt lat="43.62399" lon="1.21055">
        <ele>235</ele>
        <time>2020-10-03T09:21:28.000Z</time>
      </trkpt>
      <trkpt lat="43.62397" lon="1.21054">
        <ele>235</ele>
        <time>2020-10-03T09:21:29.000Z</time>
      </trkpt>
      <trkpt lat="43.62395" lon="1.21052">
        <ele>235</ele>
        <time>2020-10-03T09:21:30.000Z</time>
      </trkpt>
      <trkpt lat="43.62393" lon="1.2105">
        <ele>235</ele>
        <time>2020-10-03T09:21:31.000Z</time>
      </trkpt>
      <trkpt lat="43.62391" lon="1.21048">
        <ele>235</ele>
        <time>2020-10-03T09:21:32.000Z</time>
      </trkpt>
      <trkpt lat="43.62388" lon="1.21045">
        <ele>235</ele>
        <time>2020-10-03T09:21:34.000Z</time>
      </trkpt>
      <trkpt lat="43.62386" lon="1.21044">
        <ele>235</ele>
        <time>2020-10-03T09:21:35.000Z</time>
      </trkpt>
      <trkpt lat="43.62384" lon="1.21042">
        <ele>235</ele>
        <time>2020-10-03T09:21:36.000Z</time>
      </trkpt>
      <trkpt lat="43.62382" lon="1.21039">
        <ele>235</ele>
        <time>2020-10-03T09:21:37.000Z</time>
      </trkpt>
      <trkpt lat="43.6238" lon="1.21038">
        <ele>235</ele>
        <time>2020-10-03T09:21:38.000Z</time>
      </trkpt>
      <trkpt lat="43.62378" lon="1.21036">
        <ele>235</ele>
        <time>2020-10-03T09:21:39.000Z</time>
      </trkpt>
      <trkpt lat="43.62375" lon="1.21035">
        <ele>235</ele>
        <time>2020-10-03T09:21:40.000Z</time>
      </trkpt>
      <trkpt lat="43.62372" lon="1.21033">
        <ele>235</ele>
        <time>2020-10-03T09:21:41.000Z</time>
      </trkpt>
      <trkpt lat="43.6237" lon="1.21031">
        <ele>235</ele>
        <time>2020-10-03T09:21:42.000Z</time>
      </trkpt>
      <trkpt lat="43.62367" lon="1.21029">
        <ele>234.58823617992</ele>
        <time>2020-10-03T09:21:43.000Z</time>
      </trkpt>
      <trkpt lat="43.62365" lon="1.21027">
        <ele>234</ele>
        <time>2020-10-03T09:21:44.000Z</time>
      </trkpt>
      <trkpt lat="43.62363" lon="1.21025">
        <ele>234</ele>
        <time>2020-10-03T09:21:45.000Z</time>
      </trkpt>
      <trkpt lat="43.62361" lon="1.21022">
        <ele>234</ele>
        <time>2020-10-03T09:21:46.000Z</time>
      </trkpt>
      <trkpt lat="43.62359" lon="1.2102">
        <ele>234</ele>
        <time>2020-10-03T09:21:47.000Z</time>
      </trkpt>
      <trkpt lat="43.62357" lon="1.21019">
        <ele>234</ele>
        <time>2020-10-03T09:21:48.000Z</time>
      </trkpt>
      <trkpt lat="43.62354" lon="1.21018">
        <ele>234</ele>
        <time>2020-10-03T09:21:49.000Z</time>
      </trkpt>
      <trkpt lat="43.62351" lon="1.21016">
        <ele>234.34579036773</ele>
        <time>2020-10-03T09:21:50.000Z</time>
      </trkpt>
      <trkpt lat="43.62348" lon="1.21014">
        <ele>235</ele>
        <time>2020-10-03T09:21:51.000Z</time>
      </trkpt>
      <trkpt lat="43.62346" lon="1.21013">
        <ele>235</ele>
        <time>2020-10-03T09:21:52.000Z</time>
      </trkpt>
      <trkpt lat="43.62343" lon="1.21011">
        <ele>235</ele>
        <time>2020-10-03T09:21:53.000Z</time>
      </trkpt>
      <trkpt lat="43.6234" lon="1.21009">
        <ele>235</ele>
        <time>2020-10-03T09:21:54.000Z</time>
      </trkpt>
      <trkpt lat="43.62337" lon="1.21007">
        <ele>235</ele>
        <time>2020-10-03T09:21:55.000Z</time>
      </trkpt>
      <trkpt lat="43.62335" lon="1.21006">
        <ele>235</ele>
        <time>2020-10-03T09:21:56.000Z</time>
      </trkpt>
      <trkpt lat="43.62333" lon="1.21004">
        <ele>235</ele>
        <time>2020-10-03T09:21:57.000Z</time>
      </trkpt>
      <trkpt lat="43.62331" lon="1.21001">
        <ele>235</ele>
        <time>2020-10-03T09:21:58.000Z</time>
      </trkpt>
      <trkpt lat="43.62328" lon="1.20999">
        <ele>235</ele>
        <time>2020-10-03T09:21:59.000Z</time>
      </trkpt>
      <trkpt lat="43.62326" lon="1.20998">
        <ele>235</ele>
        <time>2020-10-03T09:22:00.000Z</time>
      </trkpt>
      <trkpt lat="43.62323" lon="1.20995">
        <ele>235</ele>
        <time>2020-10-03T09:22:01.000Z</time>
      </trkpt>
      <trkpt lat="43.6232" lon="1.20993">
        <ele>235</ele>
        <time>2020-10-03T09:22:02.000Z</time>
      </trkpt>
      <trkpt lat="43.62317" lon="1.20991">
        <ele>235</ele>
        <time>2020-10-03T09:22:03.000Z</time>
      </trkpt>
      <trkpt lat="43.62315" lon="1.20989">
        <ele>235</ele>
        <time>2020-10-03T09:22:04.000Z</time>
      </trkpt>
      <trkpt lat="43.62312" lon="1.20987">
        <ele>234.63636152065</ele>
        <time>2020-10-03T09:22:05.000Z</time>
      </trkpt>
      <trkpt lat="43.6231" lon="1.20985">
        <ele>234</ele>
        <time>2020-10-03T09:22:06.000Z</time>
      </trkpt>
      <trkpt lat="43.62308" lon="1.20982">
        <ele>234</ele>
        <time>2020-10-03T09:22:07.000Z</time>
      </trkpt>
      <trkpt lat="43.62305" lon="1.2098">
        <ele>234.37614495749</ele>
        <time>2020-10-03T09:22:08.000Z</time>
      </trkpt>
      <trkpt lat="43.62303" lon="1.20977">
        <ele>235</ele>
        <time>2020-10-03T09:22:09.000Z</time>
      </trkpt>
      <trkpt lat="43.623" lon="1.20975">
        <ele>235</ele>
        <time>2020-10-03T09:22:10.000Z</time>
      </trkpt>
      <trkpt lat="43.62298" lon="1.20972">
        <ele>235</ele>
        <time>2020-10-03T09:22:11.000Z</time>
      </trkpt>
      <trkpt lat="43.62296" lon="1.2097">
        <ele>234.54955141954</ele>
        <time>2020-10-03T09:22:12.000Z</time>
      </trkpt>
      <trkpt lat="43.62293" lon="1.20968">
        <ele>234</ele>
        <time>2020-10-03T09:22:13.000Z</time>
      </trkpt>
      <trkpt lat="43.62291" lon="1.20966">
        <ele>234</ele>
        <time>2020-10-03T09:22:14.000Z</time>
      </trkpt>
      <trkpt lat="43.62288" lon="1.20964">
        <ele>235</ele>
        <time>2020-10-03T09:22:15.000Z</time>
      </trkpt>
      <trkpt lat="43.62286" lon="1.20962">
        <ele>235</ele>
        <time>2020-10-03T09:22:16.000Z</time>
      </trkpt>
      <trkpt lat="43.62283" lon="1.2096">
        <ele>235</ele>
        <time>2020-10-03T09:22:17.000Z</time>
      </trkpt>
      <trkpt lat="43.62281" lon="1.20958">
        <ele>235</ele>
        <time>2020-10-03T09:22:18.000Z</time>
      </trkpt>
      <trkpt lat="43.62278" lon="1.20957">
        <ele>235</ele>
        <time>2020-10-03T09:22:19.000Z</time>
      </trkpt>
      <trkpt lat="43.62275" lon="1.20954">
        <ele>235</ele>
        <time>2020-10-03T09:22:20.000Z</time>
      </trkpt>
      <trkpt lat="43.62273" lon="1.20952">
        <ele>235</ele>
        <time>2020-10-03T09:22:21.000Z</time>
      </trkpt>
      <trkpt lat="43.6227" lon="1.20949">
        <ele>235</ele>
        <time>2020-10-03T09:22:22.000Z</time>
      </trkpt>
      <trkpt lat="43.62268" lon="1.20946">
        <ele>235</ele>
        <time>2020-10-03T09:22:23.000Z</time>
      </trkpt>
      <trkpt lat="43.62266" lon="1.20943">
        <ele>235</ele>
        <time>2020-10-03T09:22:24.000Z</time>
      </trkpt>
      <trkpt lat="43.62263" lon="1.20941">
        <ele>235</ele>
        <time>2020-10-03T09:22:25.000Z</time>
      </trkpt>
      <trkpt lat="43.62261" lon="1.20939">
        <ele>235</ele>
        <time>2020-10-03T09:22:26.000Z</time>
      </trkpt>
      <trkpt lat="43.62259" lon="1.20936">
        <ele>235</ele>
        <time>2020-10-03T09:22:27.000Z</time>
      </trkpt>
      <trkpt lat="43.62256" lon="1.20934">
        <ele>235</ele>
        <time>2020-10-03T09:22:28.000Z</time>
      </trkpt>
      <trkpt lat="43.62254" lon="1.20932">
        <ele>235</ele>
        <time>2020-10-03T09:22:29.000Z</time>
      </trkpt>
      <trkpt lat="43.62252" lon="1.20929">
        <ele>235</ele>
        <time>2020-10-03T09:22:30.000Z</time>
      </trkpt>
      <trkpt lat="43.6225" lon="1.20927">
        <ele>235</ele>
        <time>2020-10-03T09:22:31.000Z</time>
      </trkpt>
      <trkpt lat="43.62249" lon="1.20924">
        <ele>235</ele>
        <time>2020-10-03T09:22:32.000Z</time>
      </trkpt>
      <trkpt lat="43.62247" lon="1.20922">
        <ele>235</ele>
        <time>2020-10-03T09:22:33.000Z</time>
      </trkpt>
      <trkpt lat="43.62245" lon="1.20921">
        <ele>235</ele>
        <time>2020-10-03T09:22:34.000Z</time>
      </trkpt>
      <trkpt lat="43.62242" lon="1.2092">
        <ele>235</ele>
        <time>2020-10-03T09:22:35.000Z</time>
      </trkpt>
      <trkpt lat="43.6224" lon="1.20918">
        <ele>235</ele>
        <time>2020-10-03T09:22:36.000Z</time>
      </trkpt>
      <trkpt lat="43.62235" lon="1.20912">
        <ele>235</ele>
        <time>2020-10-03T09:22:38.000Z</time>
      </trkpt>
      <trkpt lat="43.62232" lon="1.2091">
        <ele>235.41176839675</ele>
        <time>2020-10-03T09:22:39.000Z</time>
      </trkpt>
      <trkpt lat="43.6223" lon="1.20907">
        <ele>236</ele>
        <time>2020-10-03T09:22:40.000Z</time>
      </trkpt>
      <trkpt lat="43.62228" lon="1.20904">
        <ele>236</ele>
        <time>2020-10-03T09:22:41.000Z</time>
      </trkpt>
      <trkpt lat="43.62227" lon="1.20903">
        <ele>236</ele>
        <time>2020-10-03T09:22:42.000Z</time>
      </trkpt>
      <trkpt lat="43.62225" lon="1.20901">
        <ele>235.65420549568</ele>
        <time>2020-10-03T09:22:43.000Z</time>
      </trkpt>
      <trkpt lat="43.62222" lon="1.209">
        <ele>235</ele>
        <time>2020-10-03T09:22:44.000Z</time>
      </trkpt>
      <trkpt lat="43.6222" lon="1.20898">
        <ele>235</ele>
        <time>2020-10-03T09:22:45.000Z</time>
      </trkpt>
      <trkpt lat="43.62217" lon="1.20896">
        <ele>235</ele>
        <time>2020-10-03T09:22:46.000Z</time>
      </trkpt>
      <trkpt lat="43.62215" lon="1.20894">
        <ele>235</ele>
        <time>2020-10-03T09:22:47.000Z</time>
      </trkpt>
      <trkpt lat="43.62213" lon="1.20891">
        <ele>235</ele>
        <time>2020-10-03T09:22:48.000Z</time>
      </trkpt>
      <trkpt lat="43.62211" lon="1.20889">
        <ele>235</ele>
        <time>2020-10-03T09:22:49.000Z</time>
      </trkpt>
      <trkpt lat="43.62208" lon="1.20886">
        <ele>235</ele>
        <time>2020-10-03T09:22:50.000Z</time>
      </trkpt>
      <trkpt lat="43.62206" lon="1.20884">
        <ele>235</ele>
        <time>2020-10-03T09:22:51.000Z</time>
      </trkpt>
      <trkpt lat="43.62203" lon="1.20881">
        <ele>235</ele>
        <time>2020-10-03T09:22:52.000Z</time>
      </trkpt>
      <trkpt lat="43.62201" lon="1.20879">
        <ele>235</ele>
        <time>2020-10-03T09:22:53.000Z</time>
      </trkpt>
      <trkpt lat="43.62199" lon="1.20876">
        <ele>235</ele>
        <time>2020-10-03T09:22:54.000Z</time>
      </trkpt>
      <trkpt lat="43.62196" lon="1.20874">
        <ele>235</ele>
        <time>2020-10-03T09:22:55.000Z</time>
      </trkpt>
      <trkpt lat="43.62194" lon="1.20872">
        <ele>235</ele>
        <time>2020-10-03T09:22:56.000Z</time>
      </trkpt>
      <trkpt lat="43.62192" lon="1.2087">
        <ele>235</ele>
        <time>2020-10-03T09:22:57.000Z</time>
      </trkpt>
      <trkpt lat="43.6219" lon="1.20867">
        <ele>235</ele>
        <time>2020-10-03T09:22:58.000Z</time>
      </trkpt>
      <trkpt lat="43.62188" lon="1.20865">
        <ele>235</ele>
        <time>2020-10-03T09:22:59.000Z</time>
      </trkpt>
      <trkpt lat="43.62185" lon="1.20862">
        <ele>235</ele>
        <time>2020-10-03T09:23:00.000Z</time>
      </trkpt>
      <trkpt lat="43.62183" lon="1.20861">
        <ele>235</ele>
        <time>2020-10-03T09:23:01.000Z</time>
      </trkpt>
      <trkpt lat="43.6218" lon="1.20859">
        <ele>235</ele>
        <time>2020-10-03T09:23:02.000Z</time>
      </trkpt>
      <trkpt lat="43.62177" lon="1.20858">
        <ele>235</ele>
        <time>2020-10-03T09:23:03.000Z</time>
      </trkpt>
      <trkpt lat="43.62174" lon="1.20855">
        <ele>235</ele>
        <time>2020-10-03T09:23:04.000Z</time>
      </trkpt>
      <trkpt lat="43.62172" lon="1.20853">
        <ele>235</ele>
        <time>2020-10-03T09:23:05.000Z</time>
      </trkpt>
      <trkpt lat="43.62169" lon="1.20852">
        <ele>235</ele>
        <time>2020-10-03T09:23:06.000Z</time>
      </trkpt>
      <trkpt lat="43.62166" lon="1.2085">
        <ele>235</ele>
        <time>2020-10-03T09:23:07.000Z</time>
      </trkpt>
      <trkpt lat="43.62164" lon="1.20848">
        <ele>235</ele>
        <time>2020-10-03T09:23:08.000Z</time>
      </trkpt>
      <trkpt lat="43.62161" lon="1.20845">
        <ele>235.31034736424</ele>
        <time>2020-10-03T09:23:09.000Z</time>
      </trkpt>
      <trkpt lat="43.62158" lon="1.20843">
        <ele>236</ele>
        <time>2020-10-03T09:23:10.000Z</time>
      </trkpt>
      <trkpt lat="43.62156" lon="1.20841">
        <ele>236</ele>
        <time>2020-10-03T09:23:11.000Z</time>
      </trkpt>
      <trkpt lat="43.62154" lon="1.20839">
        <ele>236</ele>
        <time>2020-10-03T09:23:12.000Z</time>
      </trkpt>
      <trkpt lat="43.62151" lon="1.20838">
        <ele>236</ele>
        <time>2020-10-03T09:23:13.000Z</time>
      </trkpt>
      <trkpt lat="43.62148" lon="1.20836">
        <ele>236</ele>
        <time>2020-10-03T09:23:14.000Z</time>
      </trkpt>
      <trkpt lat="43.62145" lon="1.20834">
        <ele>236</ele>
        <time>2020-10-03T09:23:15.000Z</time>
      </trkpt>
      <trkpt lat="43.62142" lon="1.20833">
        <ele>236</ele>
        <time>2020-10-03T09:23:16.000Z</time>
      </trkpt>
      <trkpt lat="43.62139" lon="1.20831">
        <ele>236</ele>
        <time>2020-10-03T09:23:17.000Z</time>
      </trkpt>
      <trkpt lat="43.62129" lon="1.20824">
        <ele>236</ele>
        <time>2020-10-03T09:23:21.000Z</time>
      </trkpt>
      <trkpt lat="43.62126" lon="1.20821">
        <ele>235.66666666667</ele>
        <time>2020-10-03T09:23:22.000Z</time>
      </trkpt>
      <trkpt lat="43.62123" lon="1.20819">
        <ele>235</ele>
        <time>2020-10-03T09:23:23.000Z</time>
      </trkpt>
      <trkpt lat="43.62121" lon="1.20817">
        <ele>235</ele>
        <time>2020-10-03T09:23:24.000Z</time>
      </trkpt>
      <trkpt lat="43.62118" lon="1.20815">
        <ele>235</ele>
        <time>2020-10-03T09:23:25.000Z</time>
      </trkpt>
      <trkpt lat="43.62116" lon="1.20812">
        <ele>235</ele>
        <time>2020-10-03T09:23:26.000Z</time>
      </trkpt>
      <trkpt lat="43.62114" lon="1.2081">
        <ele>235.42696063626</ele>
        <time>2020-10-03T09:23:27.000Z</time>
      </trkpt>
      <trkpt lat="43.62111" lon="1.20807">
        <ele>236</ele>
        <time>2020-10-03T09:23:28.000Z</time>
      </trkpt>
      <trkpt lat="43.62109" lon="1.20805">
        <ele>236</ele>
        <time>2020-10-03T09:23:29.000Z</time>
      </trkpt>
      <trkpt lat="43.62106" lon="1.20804">
        <ele>236</ele>
        <time>2020-10-03T09:23:30.000Z</time>
      </trkpt>
      <trkpt lat="43.62104" lon="1.20803">
        <ele>236</ele>
        <time>2020-10-03T09:23:31.000Z</time>
      </trkpt>
      <trkpt lat="43.62101" lon="1.20801">
        <ele>236</ele>
        <time>2020-10-03T09:23:32.000Z</time>
      </trkpt>
      <trkpt lat="43.62099" lon="1.208">
        <ele>236</ele>
        <time>2020-10-03T09:23:33.000Z</time>
      </trkpt>
      <trkpt lat="43.62098" lon="1.20797">
        <ele>235.16667259259</ele>
        <time>2020-10-03T09:23:34.000Z</time>
      </trkpt>
      <trkpt lat="43.62096" lon="1.20795">
        <ele>234</ele>
        <time>2020-10-03T09:23:35.000Z</time>
      </trkpt>
      <trkpt lat="43.62094" lon="1.20793">
        <ele>234.45044858046</ele>
        <time>2020-10-03T09:23:36.000Z</time>
      </trkpt>
      <trkpt lat="43.62092" lon="1.20791">
        <ele>235</ele>
        <time>2020-10-03T09:23:37.000Z</time>
      </trkpt>
      <trkpt lat="43.6209" lon="1.20789">
        <ele>235</ele>
        <time>2020-10-03T09:23:38.000Z</time>
      </trkpt>
      <trkpt lat="43.62088" lon="1.20787">
        <ele>235</ele>
        <time>2020-10-03T09:23:39.000Z</time>
      </trkpt>
      <trkpt lat="43.62085" lon="1.20785">
        <ele>235</ele>
        <time>2020-10-03T09:23:40.000Z</time>
      </trkpt>
      <trkpt lat="43.62084" lon="1.20783">
        <ele>235</ele>
        <time>2020-10-03T09:23:41.000Z</time>
      </trkpt>
      <trkpt lat="43.62083" lon="1.2078">
        <ele>234</ele>
        <time>2020-10-03T09:23:54.000Z</time>
      </trkpt>
      <trkpt lat="43.6208" lon="1.20779">
        <ele>234</ele>
        <time>2020-10-03T09:23:56.000Z</time>
      </trkpt>
      <trkpt lat="43.62078" lon="1.20778">
        <ele>234</ele>
        <time>2020-10-03T09:23:57.000Z</time>
      </trkpt>
      <trkpt lat="43.62076" lon="1.20776">
        <ele>234</ele>
        <time>2020-10-03T09:23:58.000Z</time>
      </trkpt>
      <trkpt lat="43.62074" lon="1.20774">
        <ele>234</ele>
        <time>2020-10-03T09:23:59.000Z</time>
      </trkpt>
      <trkpt lat="43.62071" lon="1.20771">
        <ele>234</ele>
        <time>2020-10-03T09:24:00.000Z</time>
      </trkpt>
      <trkpt lat="43.62069" lon="1.20769">
        <ele>234</ele>
        <time>2020-10-03T09:24:01.000Z</time>
      </trkpt>
      <trkpt lat="43.62065" lon="1.20767">
        <ele>234</ele>
        <time>2020-10-03T09:24:02.000Z</time>
      </trkpt>
      <trkpt lat="43.62063" lon="1.20765">
        <ele>234</ele>
        <time>2020-10-03T09:24:03.000Z</time>
      </trkpt>
      <trkpt lat="43.62059" lon="1.20763">
        <ele>233.63414139207</ele>
        <time>2020-10-03T09:24:04.000Z</time>
      </trkpt>
      <trkpt lat="43.62056" lon="1.2076">
        <ele>233</ele>
        <time>2020-10-03T09:24:05.000Z</time>
      </trkpt>
      <trkpt lat="43.62053" lon="1.20758">
        <ele>232.5666661926</ele>
        <time>2020-10-03T09:24:06.000Z</time>
      </trkpt>
      <trkpt lat="43.6205" lon="1.20755">
        <ele>232</ele>
        <time>2020-10-03T09:24:07.000Z</time>
      </trkpt>
      <trkpt lat="43.62047" lon="1.20753">
        <ele>232</ele>
        <time>2020-10-03T09:24:08.000Z</time>
      </trkpt>
      <trkpt lat="43.62044" lon="1.20751">
        <ele>232</ele>
        <time>2020-10-03T09:24:09.000Z</time>
      </trkpt>
      <trkpt lat="43.62041" lon="1.20749">
        <ele>232</ele>
        <time>2020-10-03T09:24:10.000Z</time>
      </trkpt>
      <trkpt lat="43.62038" lon="1.20748">
        <ele>231.23332811856</ele>
        <time>2020-10-03T09:24:11.000Z</time>
      </trkpt>
      <trkpt lat="43.62035" lon="1.20746">
        <ele>229</ele>
        <time>2020-10-03T09:24:12.000Z</time>
      </trkpt>
      <trkpt lat="43.62032" lon="1.20743">
        <ele>229</ele>
        <time>2020-10-03T09:24:13.000Z</time>
      </trkpt>
      <trkpt lat="43.6203" lon="1.20742">
        <ele>228.20325101724</ele>
        <time>2020-10-03T09:24:14.000Z</time>
      </trkpt>
      <trkpt lat="43.62027" lon="1.2074">
        <ele>227</ele>
        <time>2020-10-03T09:24:15.000Z</time>
      </trkpt>
      <trkpt lat="43.62025" lon="1.20737">
        <ele>226.59349796551</ele>
        <time>2020-10-03T09:24:16.000Z</time>
      </trkpt>
      <trkpt lat="43.62022" lon="1.20735">
        <ele>226</ele>
        <time>2020-10-03T09:24:17.000Z</time>
      </trkpt>
      <trkpt lat="43.6202" lon="1.20733">
        <ele>225.11828341775</ele>
        <time>2020-10-03T09:24:18.000Z</time>
      </trkpt>
      <trkpt lat="43.62017" lon="1.20731">
        <ele>224</ele>
        <time>2020-10-03T09:24:19.000Z</time>
      </trkpt>
      <trkpt lat="43.62015" lon="1.20729">
        <ele>224</ele>
        <time>2020-10-03T09:24:20.000Z</time>
      </trkpt>
      <trkpt lat="43.62012" lon="1.20726">
        <ele>223.34831945463</ele>
        <time>2020-10-03T09:24:21.000Z</time>
      </trkpt>
      <trkpt lat="43.6201" lon="1.20723">
        <ele>222</ele>
        <time>2020-10-03T09:24:22.000Z</time>
      </trkpt>
      <trkpt lat="43.62007" lon="1.2072">
        <ele>221.67777904198</ele>
        <time>2020-10-03T09:24:23.000Z</time>
      </trkpt>
      <trkpt lat="43.62004" lon="1.20717">
        <ele>221</ele>
        <time>2020-10-03T09:24:24.000Z</time>
      </trkpt>
      <trkpt lat="43.62002" lon="1.20715">
        <ele>220.67777904198</ele>
        <time>2020-10-03T09:24:25.000Z</time>
      </trkpt>
      <trkpt lat="43.61999" lon="1.20712">
        <ele>220</ele>
        <time>2020-10-03T09:24:26.000Z</time>
      </trkpt>
      <trkpt lat="43.61997" lon="1.20709">
        <ele>220</ele>
        <time>2020-10-03T09:24:27.000Z</time>
      </trkpt>
      <trkpt lat="43.61994" lon="1.20707">
        <ele>220</ele>
        <time>2020-10-03T09:24:28.000Z</time>
      </trkpt>
      <trkpt lat="43.61992" lon="1.20705">
        <ele>220</ele>
        <time>2020-10-03T09:24:29.000Z</time>
      </trkpt>
      <trkpt lat="43.61989" lon="1.20703">
        <ele>219.13333238519</ele>
        <time>2020-10-03T09:24:30.000Z</time>
      </trkpt>
      <trkpt lat="43.61987" lon="1.20701">
        <ele>218</ele>
        <time>2020-10-03T09:24:31.000Z</time>
      </trkpt>
      <trkpt lat="43.61985" lon="1.207">
        <ele>218</ele>
        <time>2020-10-03T09:24:32.000Z</time>
      </trkpt>
      <trkpt lat="43.61979" lon="1.20695">
        <ele>216</ele>
        <time>2020-10-03T09:24:34.000Z</time>
      </trkpt>
      <trkpt lat="43.61977" lon="1.20693">
        <ele>216</ele>
        <time>2020-10-03T09:24:35.000Z</time>
      </trkpt>
      <trkpt lat="43.61974" lon="1.20691">
        <ele>215.56179258173</ele>
        <time>2020-10-03T09:24:36.000Z</time>
      </trkpt>
      <trkpt lat="43.61971" lon="1.20687">
        <ele>215</ele>
        <time>2020-10-03T09:24:37.000Z</time>
      </trkpt>
      <trkpt lat="43.61969" lon="1.20685">
        <ele>215</ele>
        <time>2020-10-03T09:24:38.000Z</time>
      </trkpt>
      <trkpt lat="43.61966" lon="1.20684">
        <ele>215</ele>
        <time>2020-10-03T09:24:39.000Z</time>
      </trkpt>
      <trkpt lat="43.61963" lon="1.20682">
        <ele>215</ele>
        <time>2020-10-03T09:24:40.000Z</time>
      </trkpt>
      <trkpt lat="43.6196" lon="1.20681">
        <ele>214.54954508239</ele>
        <time>2020-10-03T09:24:41.000Z</time>
      </trkpt>
      <trkpt lat="43.61957" lon="1.20679">
        <ele>214</ele>
        <time>2020-10-03T09:24:42.000Z</time>
      </trkpt>
      <trkpt lat="43.61954" lon="1.20677">
        <ele>214.30554666667</ele>
        <time>2020-10-03T09:24:43.000Z</time>
      </trkpt>
      <trkpt lat="43.61951" lon="1.20675">
        <ele>215</ele>
        <time>2020-10-03T09:24:44.000Z</time>
      </trkpt>
      <trkpt lat="43.61948" lon="1.20672">
        <ele>215</ele>
        <time>2020-10-03T09:24:45.000Z</time>
      </trkpt>
      <trkpt lat="43.61946" lon="1.2067">
        <ele>215</ele>
        <time>2020-10-03T09:24:46.000Z</time>
      </trkpt>
      <trkpt lat="43.61944" lon="1.20669">
        <ele>215</ele>
        <time>2020-10-03T09:24:47.000Z</time>
      </trkpt>
      <trkpt lat="43.61942" lon="1.20668">
        <ele>215</ele>
        <time>2020-10-03T09:24:48.000Z</time>
      </trkpt>
      <trkpt lat="43.6194" lon="1.20666">
        <ele>215</ele>
        <time>2020-10-03T09:24:49.000Z</time>
      </trkpt>
      <trkpt lat="43.61938" lon="1.20665">
        <ele>215</ele>
        <time>2020-10-03T09:24:50.000Z</time>
      </trkpt>
      <trkpt lat="43.61935" lon="1.20662">
        <ele>215</ele>
        <time>2020-10-03T09:24:51.000Z</time>
      </trkpt>
      <trkpt lat="43.61933" lon="1.2066">
        <ele>215</ele>
        <time>2020-10-03T09:24:52.000Z</time>
      </trkpt>
      <trkpt lat="43.6193" lon="1.20658">
        <ele>215</ele>
        <time>2020-10-03T09:24:53.000Z</time>
      </trkpt>
      <trkpt lat="43.61927" lon="1.20657">
        <ele>215</ele>
        <time>2020-10-03T09:24:54.000Z</time>
      </trkpt>
      <trkpt lat="43.61924" lon="1.20655">
        <ele>215</ele>
        <time>2020-10-03T09:24:55.000Z</time>
      </trkpt>
      <trkpt lat="43.61922" lon="1.20653">
        <ele>215</ele>
        <time>2020-10-03T09:24:56.000Z</time>
      </trkpt>
      <trkpt lat="43.61919" lon="1.20651">
        <ele>215</ele>
        <time>2020-10-03T09:24:57.000Z</time>
      </trkpt>
      <trkpt lat="43.61916" lon="1.20649">
        <ele>215</ele>
        <time>2020-10-03T09:24:58.000Z</time>
      </trkpt>
      <trkpt lat="43.61914" lon="1.20647">
        <ele>215</ele>
        <time>2020-10-03T09:24:59.000Z</time>
      </trkpt>
      <trkpt lat="43.61911" lon="1.20646">
        <ele>215</ele>
        <time>2020-10-03T09:25:00.000Z</time>
      </trkpt>
      <trkpt lat="43.61908" lon="1.20644">
        <ele>215</ele>
        <time>2020-10-03T09:25:01.000Z</time>
      </trkpt>
      <trkpt lat="43.61906" lon="1.20644">
        <ele>215</ele>
        <time>2020-10-03T09:25:02.000Z</time>
      </trkpt>
      <trkpt lat="43.61904" lon="1.20645">
        <ele>215</ele>
        <time>2020-10-03T09:25:03.000Z</time>
      </trkpt>
      <trkpt lat="43.61903" lon="1.20647">
        <ele>215</ele>
        <time>2020-10-03T09:25:04.000Z</time>
      </trkpt>
      <trkpt lat="43.61903" lon="1.2065">
        <ele>215</ele>
        <time>2020-10-03T09:25:05.000Z</time>
      </trkpt>
      <trkpt lat="43.61902" lon="1.20653">
        <ele>215</ele>
        <time>2020-10-03T09:25:06.000Z</time>
      </trkpt>
      <trkpt lat="43.61901" lon="1.20655">
        <ele>215</ele>
        <time>2020-10-03T09:25:07.000Z</time>
      </trkpt>
      <trkpt lat="43.619" lon="1.20658">
        <ele>215</ele>
        <time>2020-10-03T09:25:08.000Z</time>
      </trkpt>
      <trkpt lat="43.61899" lon="1.2066">
        <ele>215</ele>
        <time>2020-10-03T09:25:09.000Z</time>
      </trkpt>
      <trkpt lat="43.61898" lon="1.20664">
        <ele>215.36936542165</ele>
        <time>2020-10-03T09:25:10.000Z</time>
      </trkpt>
      <trkpt lat="43.61897" lon="1.20667">
        <ele>216</ele>
        <time>2020-10-03T09:25:11.000Z</time>
      </trkpt>
      <trkpt lat="43.61896" lon="1.2067">
        <ele>216</ele>
        <time>2020-10-03T09:25:12.000Z</time>
      </trkpt>
      <trkpt lat="43.61895" lon="1.20673">
        <ele>216</ele>
        <time>2020-10-03T09:25:13.000Z</time>
      </trkpt>
      <trkpt lat="43.61893" lon="1.20676">
        <ele>216</ele>
        <time>2020-10-03T09:25:14.000Z</time>
      </trkpt>
      <trkpt lat="43.61893" lon="1.20679">
        <ele>216</ele>
        <time>2020-10-03T09:25:15.000Z</time>
      </trkpt>
      <trkpt lat="43.61892" lon="1.20683">
        <ele>216</ele>
        <time>2020-10-03T09:25:16.000Z</time>
      </trkpt>
      <trkpt lat="43.61891" lon="1.20686">
        <ele>216</ele>
        <time>2020-10-03T09:25:17.000Z</time>
      </trkpt>
      <trkpt lat="43.6189" lon="1.2069">
        <ele>216</ele>
        <time>2020-10-03T09:25:18.000Z</time>
      </trkpt>
      <trkpt lat="43.61889" lon="1.20693">
        <ele>216</ele>
        <time>2020-10-03T09:25:19.000Z</time>
      </trkpt>
      <trkpt lat="43.61887" lon="1.20696">
        <ele>215.70289949171</ele>
        <time>2020-10-03T09:25:20.000Z</time>
      </trkpt>
      <trkpt lat="43.61886" lon="1.207">
        <ele>215</ele>
        <time>2020-10-03T09:25:21.000Z</time>
      </trkpt>
      <trkpt lat="43.61885" lon="1.20703">
        <ele>215</ele>
        <time>2020-10-03T09:25:22.000Z</time>
      </trkpt>
      <trkpt lat="43.61883" lon="1.20706">
        <ele>215</ele>
        <time>2020-10-03T09:25:23.000Z</time>
      </trkpt>
      <trkpt lat="43.61881" lon="1.2071">
        <ele>215</ele>
        <time>2020-10-03T09:25:24.000Z</time>
      </trkpt>
      <trkpt lat="43.6188" lon="1.20713">
        <ele>215</ele>
        <time>2020-10-03T09:25:25.000Z</time>
      </trkpt>
      <trkpt lat="43.61878" lon="1.20716">
        <ele>215</ele>
        <time>2020-10-03T09:25:26.000Z</time>
      </trkpt>
      <trkpt lat="43.61877" lon="1.20719">
        <ele>215</ele>
        <time>2020-10-03T09:25:27.000Z</time>
      </trkpt>
      <trkpt lat="43.61876" lon="1.20723">
        <ele>215</ele>
        <time>2020-10-03T09:25:28.000Z</time>
      </trkpt>
      <trkpt lat="43.61875" lon="1.20726">
        <ele>215</ele>
        <time>2020-10-03T09:25:29.000Z</time>
      </trkpt>
      <trkpt lat="43.61874" lon="1.20729">
        <ele>215</ele>
        <time>2020-10-03T09:25:30.000Z</time>
      </trkpt>
      <trkpt lat="43.61873" lon="1.20732">
        <ele>215</ele>
        <time>2020-10-03T09:25:31.000Z</time>
      </trkpt>
      <trkpt lat="43.61871" lon="1.20735">
        <ele>215</ele>
        <time>2020-10-03T09:25:32.000Z</time>
      </trkpt>
      <trkpt lat="43.6187" lon="1.20738">
        <ele>215</ele>
        <time>2020-10-03T09:25:33.000Z</time>
      </trkpt>
      <trkpt lat="43.61868" lon="1.20741">
        <ele>214.5545457719</ele>
        <time>2020-10-03T09:25:34.000Z</time>
      </trkpt>
      <trkpt lat="43.61866" lon="1.20743">
        <ele>214</ele>
        <time>2020-10-03T09:25:35.000Z</time>
      </trkpt>
      <trkpt lat="43.61863" lon="1.20744">
        <ele>213.65933834079</ele>
        <time>2020-10-03T09:25:36.000Z</time>
      </trkpt>
      <trkpt lat="43.6186" lon="1.20743">
        <ele>213</ele>
        <time>2020-10-03T09:25:37.000Z</time>
      </trkpt>
      <trkpt lat="43.61857" lon="1.20741">
        <ele>213</ele>
        <time>2020-10-03T09:25:38.000Z</time>
      </trkpt>
      <trkpt lat="43.61854" lon="1.2074">
        <ele>213.21591272727</ele>
        <time>2020-10-03T09:25:39.000Z</time>
      </trkpt>
      <trkpt lat="43.61852" lon="1.20739">
        <ele>214</ele>
        <time>2020-10-03T09:25:40.000Z</time>
      </trkpt>
      <trkpt lat="43.6185" lon="1.20737">
        <ele>214</ele>
        <time>2020-10-03T09:25:41.000Z</time>
      </trkpt>
      <trkpt lat="43.61847" lon="1.20736">
        <ele>214</ele>
        <time>2020-10-03T09:25:42.000Z</time>
      </trkpt>
      <trkpt lat="43.61846" lon="1.20734">
        <ele>214</ele>
        <time>2020-10-03T09:25:43.000Z</time>
      </trkpt>
      <trkpt lat="43.61843" lon="1.20732">
        <ele>214</ele>
        <time>2020-10-03T09:25:44.000Z</time>
      </trkpt>
      <trkpt lat="43.61841" lon="1.2073">
        <ele>214.33707267262</ele>
        <time>2020-10-03T09:25:45.000Z</time>
      </trkpt>
      <trkpt lat="43.61839" lon="1.20729">
        <ele>215</ele>
        <time>2020-10-03T09:25:46.000Z</time>
      </trkpt>
      <trkpt lat="43.61837" lon="1.20727">
        <ele>215</ele>
        <time>2020-10-03T09:25:47.000Z</time>
      </trkpt>
      <trkpt lat="43.61835" lon="1.20725">
        <ele>215</ele>
        <time>2020-10-03T09:25:48.000Z</time>
      </trkpt>
      <trkpt lat="43.61833" lon="1.20723">
        <ele>215.21333242311</ele>
        <time>2020-10-03T09:25:49.000Z</time>
      </trkpt>
      <trkpt lat="43.61831" lon="1.20722">
        <ele>216</ele>
        <time>2020-10-03T09:25:50.000Z</time>
      </trkpt>
      <trkpt lat="43.61829" lon="1.2072">
        <ele>216</ele>
        <time>2020-10-03T09:25:51.000Z</time>
      </trkpt>
      <trkpt lat="43.61827" lon="1.20719">
        <ele>216</ele>
        <time>2020-10-03T09:25:52.000Z</time>
      </trkpt>
      <trkpt lat="43.61824" lon="1.20717">
        <ele>216</ele>
        <time>2020-10-03T09:25:53.000Z</time>
      </trkpt>
      <trkpt lat="43.61822" lon="1.20716">
        <ele>216</ele>
        <time>2020-10-03T09:25:54.000Z</time>
      </trkpt>
      <trkpt lat="43.6182" lon="1.20714">
        <ele>216</ele>
        <time>2020-10-03T09:25:55.000Z</time>
      </trkpt>
      <trkpt lat="43.61818" lon="1.20713">
        <ele>216.83517596422</ele>
        <time>2020-10-03T09:25:56.000Z</time>
      </trkpt>
      <trkpt lat="43.61816" lon="1.20711">
        <ele>218</ele>
        <time>2020-10-03T09:25:57.000Z</time>
      </trkpt>
      <trkpt lat="43.61814" lon="1.20709">
        <ele>218</ele>
        <time>2020-10-03T09:25:58.000Z</time>
      </trkpt>
      <trkpt lat="43.61811" lon="1.20707">
        <ele>218.05556082298</ele>
        <time>2020-10-03T09:25:59.000Z</time>
      </trkpt>
      <trkpt lat="43.61809" lon="1.20705">
        <ele>219</ele>
        <time>2020-10-03T09:26:00.000Z</time>
      </trkpt>
      <trkpt lat="43.61807" lon="1.20704">
        <ele>219</ele>
        <time>2020-10-03T09:26:01.000Z</time>
      </trkpt>
      <trkpt lat="43.61805" lon="1.20702">
        <ele>219</ele>
        <time>2020-10-03T09:26:02.000Z</time>
      </trkpt>
      <trkpt lat="43.61802" lon="1.207">
        <ele>219</ele>
        <time>2020-10-03T09:26:03.000Z</time>
      </trkpt>
      <trkpt lat="43.618" lon="1.20699">
        <ele>219</ele>
        <time>2020-10-03T09:26:04.000Z</time>
      </trkpt>
      <trkpt lat="43.61798" lon="1.20697">
        <ele>219</ele>
        <time>2020-10-03T09:26:05.000Z</time>
      </trkpt>
      <trkpt lat="43.61796" lon="1.20695">
        <ele>219.40000232729</ele>
        <time>2020-10-03T09:26:06.000Z</time>
      </trkpt>
      <trkpt lat="43.61794" lon="1.20693">
        <ele>220</ele>
        <time>2020-10-03T09:26:07.000Z</time>
      </trkpt>
      <trkpt lat="43.61792" lon="1.20691">
        <ele>220</ele>
        <time>2020-10-03T09:26:08.000Z</time>
      </trkpt>
      <trkpt lat="43.6179" lon="1.20689">
        <ele>220</ele>
        <time>2020-10-03T09:26:09.000Z</time>
      </trkpt>
      <trkpt lat="43.61788" lon="1.20687">
        <ele>220</ele>
        <time>2020-10-03T09:26:10.000Z</time>
      </trkpt>
      <trkpt lat="43.61786" lon="1.20686">
        <ele>220</ele>
        <time>2020-10-03T09:26:11.000Z</time>
      </trkpt>
      <trkpt lat="43.61785" lon="1.20684">
        <ele>220</ele>
        <time>2020-10-03T09:26:12.000Z</time>
      </trkpt>
      <trkpt lat="43.61783" lon="1.20682">
        <ele>220.34523428571</ele>
        <time>2020-10-03T09:26:13.000Z</time>
      </trkpt>
      <trkpt lat="43.61781" lon="1.20681">
        <ele>221</ele>
        <time>2020-10-03T09:26:14.000Z</time>
      </trkpt>
      <trkpt lat="43.6178" lon="1.20679">
        <ele>221</ele>
        <time>2020-10-03T09:26:15.000Z</time>
      </trkpt>
      <trkpt lat="43.61778" lon="1.20678">
        <ele>221.39830563631</ele>
        <time>2020-10-03T09:26:16.000Z</time>
      </trkpt>
      <trkpt lat="43.61776" lon="1.20676">
        <ele>222</ele>
        <time>2020-10-03T09:26:17.000Z</time>
      </trkpt>
      <trkpt lat="43.61774" lon="1.20675">
        <ele>222</ele>
        <time>2020-10-03T09:26:18.000Z</time>
      </trkpt>
      <trkpt lat="43.61772" lon="1.20675">
        <ele>222.17575597722</ele>
        <time>2020-10-03T09:26:19.000Z</time>
      </trkpt>
      <trkpt lat="43.61767" lon="1.20672">
        <ele>223</ele>
        <time>2020-10-03T09:26:21.000Z</time>
      </trkpt>
      <trkpt lat="43.61765" lon="1.2067">
        <ele>223</ele>
        <time>2020-10-03T09:26:22.000Z</time>
      </trkpt>
      <trkpt lat="43.61763" lon="1.20667">
        <ele>223.30554666667</ele>
        <time>2020-10-03T09:26:23.000Z</time>
      </trkpt>
      <trkpt lat="43.61761" lon="1.20665">
        <ele>224</ele>
        <time>2020-10-03T09:26:24.000Z</time>
      </trkpt>
      <trkpt lat="43.61759" lon="1.20664">
        <ele>224</ele>
        <time>2020-10-03T09:26:25.000Z</time>
      </trkpt>
      <trkpt lat="43.61756" lon="1.20662">
        <ele>224</ele>
        <time>2020-10-03T09:26:26.000Z</time>
      </trkpt>
      <trkpt lat="43.61754" lon="1.20661">
        <ele>224</ele>
        <time>2020-10-03T09:26:27.000Z</time>
      </trkpt>
      <trkpt lat="43.61752" lon="1.2066">
        <ele>224</ele>
        <time>2020-10-03T09:26:28.000Z</time>
      </trkpt>
      <trkpt lat="43.6175" lon="1.20658">
        <ele>224</ele>
        <time>2020-10-03T09:26:29.000Z</time>
      </trkpt>
      <trkpt lat="43.61748" lon="1.20657">
        <ele>224</ele>
        <time>2020-10-03T09:26:30.000Z</time>
      </trkpt>
      <trkpt lat="43.61746" lon="1.20656">
        <ele>224</ele>
        <time>2020-10-03T09:26:31.000Z</time>
      </trkpt>
      <trkpt lat="43.61744" lon="1.20655">
        <ele>224.4454542281</ele>
        <time>2020-10-03T09:26:32.000Z</time>
      </trkpt>
      <trkpt lat="43.61741" lon="1.20653">
        <ele>225</ele>
        <time>2020-10-03T09:26:34.000Z</time>
      </trkpt>
      <trkpt lat="43.61738" lon="1.20651">
        <ele>226</ele>
        <time>2020-10-03T09:26:36.000Z</time>
      </trkpt>
      <trkpt lat="43.61736" lon="1.20649">
        <ele>226</ele>
        <time>2020-10-03T09:26:37.000Z</time>
      </trkpt>
      <trkpt lat="43.61734" lon="1.20648">
        <ele>226.8909084562</ele>
        <time>2020-10-03T09:26:38.000Z</time>
      </trkpt>
      <trkpt lat="43.61733" lon="1.20646">
        <ele>228</ele>
        <time>2020-10-03T09:26:39.000Z</time>
      </trkpt>
      <trkpt lat="43.61731" lon="1.20644">
        <ele>228</ele>
        <time>2020-10-03T09:26:40.000Z</time>
      </trkpt>
      <trkpt lat="43.61729" lon="1.20643">
        <ele>228.43434526272</ele>
        <time>2020-10-03T09:26:41.000Z</time>
      </trkpt>
      <trkpt lat="43.61727" lon="1.20642">
        <ele>229</ele>
        <time>2020-10-03T09:26:42.000Z</time>
      </trkpt>
      <trkpt lat="43.61725" lon="1.2064">
        <ele>229</ele>
        <time>2020-10-03T09:26:43.000Z</time>
      </trkpt>
      <trkpt lat="43.61723" lon="1.20638">
        <ele>229.73810285714</ele>
        <time>2020-10-03T09:26:44.000Z</time>
      </trkpt>
      <trkpt lat="43.61722" lon="1.20636">
        <ele>231</ele>
        <time>2020-10-03T09:26:45.000Z</time>
      </trkpt>
      <trkpt lat="43.6172" lon="1.20635">
        <ele>231</ele>
        <time>2020-10-03T09:26:46.000Z</time>
      </trkpt>
      <trkpt lat="43.61718" lon="1.20633">
        <ele>231</ele>
        <time>2020-10-03T09:26:47.000Z</time>
      </trkpt>
      <trkpt lat="43.61716" lon="1.20632">
        <ele>231</ele>
        <time>2020-10-03T09:26:48.000Z</time>
      </trkpt>
      <trkpt lat="43.61715" lon="1.2063">
        <ele>231</ele>
        <time>2020-10-03T09:26:49.000Z</time>
      </trkpt>
      <trkpt lat="43.61712" lon="1.20628">
        <ele>231.8909084562</ele>
        <time>2020-10-03T09:26:51.000Z</time>
      </trkpt>
      <trkpt lat="43.61711" lon="1.20626">
        <ele>233</ele>
        <time>2020-10-03T09:26:52.000Z</time>
      </trkpt>
      <trkpt lat="43.61708" lon="1.20624">
        <ele>234</ele>
        <time>2020-10-03T09:26:54.000Z</time>
      </trkpt>
      <trkpt lat="43.61705" lon="1.20622">
        <ele>234</ele>
        <time>2020-10-03T09:26:55.000Z</time>
      </trkpt>
      <trkpt lat="43.61703" lon="1.2062">
        <ele>234.43820741827</ele>
        <time>2020-10-03T09:26:56.000Z</time>
      </trkpt>
      <trkpt lat="43.61701" lon="1.20619">
        <ele>235</ele>
        <time>2020-10-03T09:26:57.000Z</time>
      </trkpt>
      <trkpt lat="43.61699" lon="1.20618">
        <ele>235.33620965517</ele>
        <time>2020-10-03T09:26:58.000Z</time>
      </trkpt>
      <trkpt lat="43.61697" lon="1.20616">
        <ele>236</ele>
        <time>2020-10-03T09:26:59.000Z</time>
      </trkpt>
      <trkpt lat="43.61696" lon="1.20615">
        <ele>236</ele>
        <time>2020-10-03T09:27:00.000Z</time>
      </trkpt>
      <trkpt lat="43.61694" lon="1.20613">
        <ele>236</ele>
        <time>2020-10-03T09:27:01.000Z</time>
      </trkpt>
      <trkpt lat="43.61691" lon="1.20611">
        <ele>236</ele>
        <time>2020-10-03T09:27:02.000Z</time>
      </trkpt>
      <trkpt lat="43.61689" lon="1.20609">
        <ele>236</ele>
        <time>2020-10-03T09:27:03.000Z</time>
      </trkpt>
      <trkpt lat="43.61687" lon="1.20607">
        <ele>236</ele>
        <time>2020-10-03T09:27:04.000Z</time>
      </trkpt>
      <trkpt lat="43.61685" lon="1.20605">
        <ele>236</ele>
        <time>2020-10-03T09:27:05.000Z</time>
      </trkpt>
      <trkpt lat="43.61682" lon="1.20603">
        <ele>236</ele>
        <time>2020-10-03T09:27:06.000Z</time>
      </trkpt>
      <trkpt lat="43.61679" lon="1.20601">
        <ele>236</ele>
        <time>2020-10-03T09:27:07.000Z</time>
      </trkpt>
      <trkpt lat="43.61676" lon="1.20599">
        <ele>236</ele>
        <time>2020-10-03T09:27:08.000Z</time>
      </trkpt>
      <trkpt lat="43.61674" lon="1.20597">
        <ele>236</ele>
        <time>2020-10-03T09:27:09.000Z</time>
      </trkpt>
      <trkpt lat="43.61671" lon="1.20595">
        <ele>236</ele>
        <time>2020-10-03T09:27:10.000Z</time>
      </trkpt>
      <trkpt lat="43.61669" lon="1.20593">
        <ele>236</ele>
        <time>2020-10-03T09:27:11.000Z</time>
      </trkpt>
      <trkpt lat="43.61667" lon="1.20591">
        <ele>236</ele>
        <time>2020-10-03T09:27:12.000Z</time>
      </trkpt>
      <trkpt lat="43.61664" lon="1.20589">
        <ele>236</ele>
        <time>2020-10-03T09:27:13.000Z</time>
      </trkpt>
      <trkpt lat="43.61661" lon="1.20587">
        <ele>236</ele>
        <time>2020-10-03T09:27:14.000Z</time>
      </trkpt>
      <trkpt lat="43.61659" lon="1.20585">
        <ele>236</ele>
        <time>2020-10-03T09:27:15.000Z</time>
      </trkpt>
      <trkpt lat="43.61656" lon="1.20583">
        <ele>236</ele>
        <time>2020-10-03T09:27:16.000Z</time>
      </trkpt>
      <trkpt lat="43.61654" lon="1.20581">
        <ele>236</ele>
        <time>2020-10-03T09:27:17.000Z</time>
      </trkpt>
      <trkpt lat="43.61651" lon="1.2058">
        <ele>236</ele>
        <time>2020-10-03T09:27:18.000Z</time>
      </trkpt>
      <trkpt lat="43.61648" lon="1.20578">
        <ele>236</ele>
        <time>2020-10-03T09:27:19.000Z</time>
      </trkpt>
      <trkpt lat="43.61645" lon="1.20576">
        <ele>236</ele>
        <time>2020-10-03T09:27:20.000Z</time>
      </trkpt>
      <trkpt lat="43.61643" lon="1.20573">
        <ele>236</ele>
        <time>2020-10-03T09:27:21.000Z</time>
      </trkpt>
      <trkpt lat="43.61641" lon="1.2057">
        <ele>236</ele>
        <time>2020-10-03T09:27:22.000Z</time>
      </trkpt>
      <trkpt lat="43.61638" lon="1.20567">
        <ele>236</ele>
        <time>2020-10-03T09:27:23.000Z</time>
      </trkpt>
      <trkpt lat="43.61636" lon="1.20565">
        <ele>236</ele>
        <time>2020-10-03T09:27:24.000Z</time>
      </trkpt>
      <trkpt lat="43.61633" lon="1.20563">
        <ele>236</ele>
        <time>2020-10-03T09:27:25.000Z</time>
      </trkpt>
      <trkpt lat="43.61631" lon="1.2056">
        <ele>236</ele>
        <time>2020-10-03T09:27:26.000Z</time>
      </trkpt>
      <trkpt lat="43.61628" lon="1.20558">
        <ele>235.64285931976</ele>
        <time>2020-10-03T09:27:27.000Z</time>
      </trkpt>
      <trkpt lat="43.61625" lon="1.20557">
        <ele>235</ele>
        <time>2020-10-03T09:27:28.000Z</time>
      </trkpt>
      <trkpt lat="43.61622" lon="1.20556">
        <ele>235</ele>
        <time>2020-10-03T09:27:29.000Z</time>
      </trkpt>
      <trkpt lat="43.61619" lon="1.20554">
        <ele>235</ele>
        <time>2020-10-03T09:27:30.000Z</time>
      </trkpt>
      <trkpt lat="43.61616" lon="1.20552">
        <ele>235</ele>
        <time>2020-10-03T09:27:31.000Z</time>
      </trkpt>
      <trkpt lat="43.61614" lon="1.2055">
        <ele>235</ele>
        <time>2020-10-03T09:27:32.000Z</time>
      </trkpt>
      <trkpt lat="43.61611" lon="1.20547">
        <ele>234.58035428571</ele>
        <time>2020-10-03T09:27:33.000Z</time>
      </trkpt>
      <trkpt lat="43.61608" lon="1.20545">
        <ele>234</ele>
        <time>2020-10-03T09:27:34.000Z</time>
      </trkpt>
      <trkpt lat="43.61606" lon="1.20543">
        <ele>234</ele>
        <time>2020-10-03T09:27:35.000Z</time>
      </trkpt>
      <trkpt lat="43.61604" lon="1.20541">
        <ele>234.34751624968</ele>
        <time>2020-10-03T09:27:36.000Z</time>
      </trkpt>
      <trkpt lat="43.61601" lon="1.20539">
        <ele>235</ele>
        <time>2020-10-03T09:27:37.000Z</time>
      </trkpt>
      <trkpt lat="43.61598" lon="1.20537">
        <ele>235</ele>
        <time>2020-10-03T09:27:38.000Z</time>
      </trkpt>
      <trkpt lat="43.61596" lon="1.20534">
        <ele>235.15493338622</ele>
        <time>2020-10-03T09:27:39.000Z</time>
      </trkpt>
      <trkpt lat="43.61594" lon="1.20532">
        <ele>236</ele>
        <time>2020-10-03T09:27:40.000Z</time>
      </trkpt>
      <trkpt lat="43.61591" lon="1.20529">
        <ele>236</ele>
        <time>2020-10-03T09:27:41.000Z</time>
      </trkpt>
      <trkpt lat="43.61588" lon="1.20527">
        <ele>236</ele>
        <time>2020-10-03T09:27:42.000Z</time>
      </trkpt>
      <trkpt lat="43.61586" lon="1.20525">
        <ele>236</ele>
        <time>2020-10-03T09:27:43.000Z</time>
      </trkpt>
      <trkpt lat="43.61584" lon="1.20523">
        <ele>236</ele>
        <time>2020-10-03T09:27:44.000Z</time>
      </trkpt>
      <trkpt lat="43.61581" lon="1.20521">
        <ele>236</ele>
        <time>2020-10-03T09:27:45.000Z</time>
      </trkpt>
      <trkpt lat="43.61579" lon="1.20519">
        <ele>236</ele>
        <time>2020-10-03T09:27:46.000Z</time>
      </trkpt>
      <trkpt lat="43.61576" lon="1.20518">
        <ele>236</ele>
        <time>2020-10-03T09:27:47.000Z</time>
      </trkpt>
      <trkpt lat="43.61573" lon="1.20515">
        <ele>236</ele>
        <time>2020-10-03T09:27:48.000Z</time>
      </trkpt>
      <trkpt lat="43.61571" lon="1.20513">
        <ele>236</ele>
        <time>2020-10-03T09:27:49.000Z</time>
      </trkpt>
      <trkpt lat="43.61568" lon="1.20511">
        <ele>236</ele>
        <time>2020-10-03T09:27:50.000Z</time>
      </trkpt>
      <trkpt lat="43.61566" lon="1.20509">
        <ele>236</ele>
        <time>2020-10-03T09:27:51.000Z</time>
      </trkpt>
      <trkpt lat="43.61563" lon="1.20507">
        <ele>236</ele>
        <time>2020-10-03T09:27:52.000Z</time>
      </trkpt>
      <trkpt lat="43.61561" lon="1.20505">
        <ele>236</ele>
        <time>2020-10-03T09:27:53.000Z</time>
      </trkpt>
      <trkpt lat="43.61558" lon="1.20503">
        <ele>236</ele>
        <time>2020-10-03T09:27:54.000Z</time>
      </trkpt>
      <trkpt lat="43.61555" lon="1.20501">
        <ele>235.75694222222</ele>
        <time>2020-10-03T09:27:55.000Z</time>
      </trkpt>
      <trkpt lat="43.61552" lon="1.20498">
        <ele>235.06249777778</ele>
        <time>2020-10-03T09:27:56.000Z</time>
      </trkpt>
      <trkpt lat="43.61549" lon="1.20495">
        <ele>235</ele>
        <time>2020-10-03T09:27:57.000Z</time>
      </trkpt>
      <trkpt lat="43.61546" lon="1.20493">
        <ele>234.29411056063</ele>
        <time>2020-10-03T09:27:58.000Z</time>
      </trkpt>
      <trkpt lat="43.61542" lon="1.2049">
        <ele>233</ele>
        <time>2020-10-03T09:27:59.000Z</time>
      </trkpt>
      <trkpt lat="43.61539" lon="1.20487">
        <ele>233</ele>
        <time>2020-10-03T09:28:00.000Z</time>
      </trkpt>
      <trkpt lat="43.61536" lon="1.20484">
        <ele>231.89284571429</ele>
        <time>2020-10-03T09:28:01.000Z</time>
      </trkpt>
      <trkpt lat="43.61533" lon="1.20481">
        <ele>230</ele>
        <time>2020-10-03T09:28:02.000Z</time>
      </trkpt>
      <trkpt lat="43.6153" lon="1.20478">
        <ele>230</ele>
        <time>2020-10-03T09:28:03.000Z</time>
      </trkpt>
      <trkpt lat="43.61527" lon="1.20475">
        <ele>230</ele>
        <time>2020-10-03T09:28:04.000Z</time>
      </trkpt>
      <trkpt lat="43.61523" lon="1.20473">
        <ele>230</ele>
        <time>2020-10-03T09:28:05.000Z</time>
      </trkpt>
      <trkpt lat="43.6152" lon="1.2047">
        <ele>229.63953384533</ele>
        <time>2020-10-03T09:28:06.000Z</time>
      </trkpt>
      <trkpt lat="43.61517" lon="1.20467">
        <ele>229</ele>
        <time>2020-10-03T09:28:07.000Z</time>
      </trkpt>
      <trkpt lat="43.61514" lon="1.20464">
        <ele>229</ele>
        <time>2020-10-03T09:28:08.000Z</time>
      </trkpt>
      <trkpt lat="43.61512" lon="1.2046">
        <ele>228.30233077335</ele>
        <time>2020-10-03T09:28:09.000Z</time>
      </trkpt>
      <trkpt lat="43.61509" lon="1.20458">
        <ele>226</ele>
        <time>2020-10-03T09:28:10.000Z</time>
      </trkpt>
      <trkpt lat="43.61505" lon="1.20456">
        <ele>226</ele>
        <time>2020-10-03T09:28:11.000Z</time>
      </trkpt>
      <trkpt lat="43.61503" lon="1.20454">
        <ele>225.59803983084</ele>
        <time>2020-10-03T09:28:12.000Z</time>
      </trkpt>
      <trkpt lat="43.61498" lon="1.20452">
        <ele>225</ele>
        <time>2020-10-03T09:28:13.000Z</time>
      </trkpt>
      <trkpt lat="43.61496" lon="1.20449">
        <ele>225</ele>
        <time>2020-10-03T09:28:14.000Z</time>
      </trkpt>
      <trkpt lat="43.61492" lon="1.20447">
        <ele>225</ele>
        <time>2020-10-03T09:28:15.000Z</time>
      </trkpt>
      <trkpt lat="43.61485" lon="1.20442">
        <ele>224.18749333333</ele>
        <time>2020-10-03T09:28:17.000Z</time>
      </trkpt>
      <trkpt lat="43.61482" lon="1.2044">
        <ele>223</ele>
        <time>2020-10-03T09:28:18.000Z</time>
      </trkpt>
      <trkpt lat="43.61479" lon="1.20437">
        <ele>223</ele>
        <time>2020-10-03T09:28:19.000Z</time>
      </trkpt>
      <trkpt lat="43.61476" lon="1.20434">
        <ele>222.63953384533</ele>
        <time>2020-10-03T09:28:20.000Z</time>
      </trkpt>
      <trkpt lat="43.61473" lon="1.20433">
        <ele>222</ele>
        <time>2020-10-03T09:28:21.000Z</time>
      </trkpt>
      <trkpt lat="43.6147" lon="1.2043">
        <ele>222</ele>
        <time>2020-10-03T09:28:22.000Z</time>
      </trkpt>
      <trkpt lat="43.61467" lon="1.20426">
        <ele>221.5053677604</ele>
        <time>2020-10-03T09:28:23.000Z</time>
      </trkpt>
      <trkpt lat="43.61463" lon="1.20424">
        <ele>220</ele>
        <time>2020-10-03T09:28:24.000Z</time>
      </trkpt>
      <trkpt lat="43.6146" lon="1.20421">
        <ele>220</ele>
        <time>2020-10-03T09:28:25.000Z</time>
      </trkpt>
      <trkpt lat="43.61456" lon="1.20419">
        <ele>219.59769895099</ele>
        <time>2020-10-03T09:28:26.000Z</time>
      </trkpt>
      <trkpt lat="43.61453" lon="1.20416">
        <ele>219</ele>
        <time>2020-10-03T09:28:27.000Z</time>
      </trkpt>
      <trkpt lat="43.61451" lon="1.20413">
        <ele>219</ele>
        <time>2020-10-03T09:28:28.000Z</time>
      </trkpt>
      <trkpt lat="43.61448" lon="1.2041">
        <ele>218.31867668158</ele>
        <time>2020-10-03T09:28:29.000Z</time>
      </trkpt>
      <trkpt lat="43.61445" lon="1.20408">
        <ele>217</ele>
        <time>2020-10-03T09:28:30.000Z</time>
      </trkpt>
      <trkpt lat="43.61441" lon="1.20405">
        <ele>216.56818909091</ele>
        <time>2020-10-03T09:28:31.000Z</time>
      </trkpt>
      <trkpt lat="43.61438" lon="1.20402">
        <ele>216</ele>
        <time>2020-10-03T09:28:32.000Z</time>
      </trkpt>
      <trkpt lat="43.61436" lon="1.204">
        <ele>216</ele>
        <time>2020-10-03T09:28:33.000Z</time>
      </trkpt>
      <trkpt lat="43.61433" lon="1.20398">
        <ele>216</ele>
        <time>2020-10-03T09:28:34.000Z</time>
      </trkpt>
      <trkpt lat="43.6143" lon="1.20396">
        <ele>216</ele>
        <time>2020-10-03T09:28:35.000Z</time>
      </trkpt>
      <trkpt lat="43.61428" lon="1.20393">
        <ele>215.64444528724</ele>
        <time>2020-10-03T09:28:36.000Z</time>
      </trkpt>
      <trkpt lat="43.61424" lon="1.2039">
        <ele>215</ele>
        <time>2020-10-03T09:28:37.000Z</time>
      </trkpt>
      <trkpt lat="43.61422" lon="1.20388">
        <ele>215</ele>
        <time>2020-10-03T09:28:38.000Z</time>
      </trkpt>
      <trkpt lat="43.61419" lon="1.20385">
        <ele>214.63094857143</ele>
        <time>2020-10-03T09:28:39.000Z</time>
      </trkpt>
      <trkpt lat="43.61417" lon="1.20384">
        <ele>214</ele>
        <time>2020-10-03T09:28:40.000Z</time>
      </trkpt>
      <trkpt lat="43.61414" lon="1.20383">
        <ele>214</ele>
        <time>2020-10-03T09:28:41.000Z</time>
      </trkpt>
      <trkpt lat="43.61411" lon="1.20381">
        <ele>213.624992</ele>
        <time>2020-10-03T09:28:42.000Z</time>
      </trkpt>
      <trkpt lat="43.61409" lon="1.20379">
        <ele>213</ele>
        <time>2020-10-03T09:28:43.000Z</time>
      </trkpt>
      <trkpt lat="43.61407" lon="1.20377">
        <ele>213</ele>
        <time>2020-10-03T09:28:44.000Z</time>
      </trkpt>
      <trkpt lat="43.61404" lon="1.20376">
        <ele>212.10713142857</ele>
        <time>2020-10-03T09:28:45.000Z</time>
      </trkpt>
      <trkpt lat="43.61401" lon="1.20377">
        <ele>210.63094857143</ele>
        <time>2020-10-03T09:28:47.000Z</time>
      </trkpt>
      <trkpt lat="43.61399" lon="1.20378">
        <ele>210</ele>
        <time>2020-10-03T09:28:48.000Z</time>
      </trkpt>
      <trkpt lat="43.61397" lon="1.2038">
        <ele>210</ele>
        <time>2020-10-03T09:28:49.000Z</time>
      </trkpt>
      <trkpt lat="43.61394" lon="1.20379">
        <ele>210</ele>
        <time>2020-10-03T09:28:50.000Z</time>
      </trkpt>
      <trkpt lat="43.61392" lon="1.20378">
        <ele>210</ele>
        <time>2020-10-03T09:28:51.000Z</time>
      </trkpt>
      <trkpt lat="43.61388" lon="1.20376">
        <ele>209.73134200044</ele>
        <time>2020-10-03T09:28:52.000Z</time>
      </trkpt>
      <trkpt lat="43.61386" lon="1.20373">
        <ele>209</ele>
        <time>2020-10-03T09:28:53.000Z</time>
      </trkpt>
      <trkpt lat="43.61383" lon="1.20371">
        <ele>209</ele>
        <time>2020-10-03T09:28:54.000Z</time>
      </trkpt>
      <trkpt lat="43.61381" lon="1.20368">
        <ele>209</ele>
        <time>2020-10-03T09:28:55.000Z</time>
      </trkpt>
      <trkpt lat="43.61378" lon="1.20364">
        <ele>209.34444555061</ele>
        <time>2020-10-03T09:28:56.000Z</time>
      </trkpt>
      <trkpt lat="43.61376" lon="1.20361">
        <ele>210</ele>
        <time>2020-10-03T09:28:57.000Z</time>
      </trkpt>
      <trkpt lat="43.61373" lon="1.20359">
        <ele>210</ele>
        <time>2020-10-03T09:28:58.000Z</time>
      </trkpt>
      <trkpt lat="43.61371" lon="1.20357">
        <ele>210</ele>
        <time>2020-10-03T09:28:59.000Z</time>
      </trkpt>
      <trkpt lat="43.61369" lon="1.20355">
        <ele>210</ele>
        <time>2020-10-03T09:29:00.000Z</time>
      </trkpt>
      <trkpt lat="43.61367" lon="1.20353">
        <ele>209.55356571429</ele>
        <time>2020-10-03T09:29:01.000Z</time>
      </trkpt>
      <trkpt lat="43.61364" lon="1.20351">
        <ele>209</ele>
        <time>2020-10-03T09:29:02.000Z</time>
      </trkpt>
      <trkpt lat="43.61362" lon="1.20348">
        <ele>209</ele>
        <time>2020-10-03T09:29:03.000Z</time>
      </trkpt>
      <trkpt lat="43.6136" lon="1.20346">
        <ele>209</ele>
        <time>2020-10-03T09:29:04.000Z</time>
      </trkpt>
      <trkpt lat="43.61357" lon="1.20345">
        <ele>209</ele>
        <time>2020-10-03T09:29:05.000Z</time>
      </trkpt>
      <trkpt lat="43.61355" lon="1.20343">
        <ele>209</ele>
        <time>2020-10-03T09:29:06.000Z</time>
      </trkpt>
      <trkpt lat="43.61352" lon="1.2034">
        <ele>209</ele>
        <time>2020-10-03T09:29:07.000Z</time>
      </trkpt>
      <trkpt lat="43.6135" lon="1.20338">
        <ele>209</ele>
        <time>2020-10-03T09:29:08.000Z</time>
      </trkpt>
      <trkpt lat="43.61348" lon="1.20336">
        <ele>209</ele>
        <time>2020-10-03T09:29:09.000Z</time>
      </trkpt>
      <trkpt lat="43.61347" lon="1.20333">
        <ele>209</ele>
        <time>2020-10-03T09:29:10.000Z</time>
      </trkpt>
      <trkpt lat="43.61345" lon="1.20331">
        <ele>209</ele>
        <time>2020-10-03T09:29:11.000Z</time>
      </trkpt>
      <trkpt lat="43.61343" lon="1.20329">
        <ele>209</ele>
        <time>2020-10-03T09:29:12.000Z</time>
      </trkpt>
      <trkpt lat="43.6134" lon="1.20328">
        <ele>209</ele>
        <time>2020-10-03T09:29:13.000Z</time>
      </trkpt>
      <trkpt lat="43.61337" lon="1.20326">
        <ele>209</ele>
        <time>2020-10-03T09:29:14.000Z</time>
      </trkpt>
      <trkpt lat="43.61335" lon="1.20324">
        <ele>209</ele>
        <time>2020-10-03T09:29:15.000Z</time>
      </trkpt>
      <trkpt lat="43.61329" lon="1.2032">
        <ele>209.33944760205</ele>
        <time>2020-10-03T09:29:17.000Z</time>
      </trkpt>
      <trkpt lat="43.61327" lon="1.20318">
        <ele>210</ele>
        <time>2020-10-03T09:29:18.000Z</time>
      </trkpt>
      <trkpt lat="43.61323" lon="1.20317">
        <ele>210</ele>
        <time>2020-10-03T09:29:19.000Z</time>
      </trkpt>
      <trkpt lat="43.6132" lon="1.20315">
        <ele>210</ele>
        <time>2020-10-03T09:29:20.000Z</time>
      </trkpt>
      <trkpt lat="43.61317" lon="1.20312">
        <ele>210</ele>
        <time>2020-10-03T09:29:21.000Z</time>
      </trkpt>
      <trkpt lat="43.61314" lon="1.20311">
        <ele>210</ele>
        <time>2020-10-03T09:29:22.000Z</time>
      </trkpt>
      <trkpt lat="43.61311" lon="1.20309">
        <ele>210</ele>
        <time>2020-10-03T09:29:23.000Z</time>
      </trkpt>
      <trkpt lat="43.61303" lon="1.20303">
        <ele>210</ele>
        <time>2020-10-03T09:29:26.000Z</time>
      </trkpt>
      <trkpt lat="43.61301" lon="1.203">
        <ele>210</ele>
        <time>2020-10-03T09:29:27.000Z</time>
      </trkpt>
      <trkpt lat="43.61298" lon="1.20298">
        <ele>210</ele>
        <time>2020-10-03T09:29:28.000Z</time>
      </trkpt>
      <trkpt lat="43.61295" lon="1.20295">
        <ele>210</ele>
        <time>2020-10-03T09:29:29.000Z</time>
      </trkpt>
      <trkpt lat="43.61293" lon="1.20293">
        <ele>210</ele>
        <time>2020-10-03T09:29:30.000Z</time>
      </trkpt>
      <trkpt lat="43.6129" lon="1.20291">
        <ele>210</ele>
        <time>2020-10-03T09:29:31.000Z</time>
      </trkpt>
      <trkpt lat="43.61288" lon="1.20289">
        <ele>210</ele>
        <time>2020-10-03T09:29:32.000Z</time>
      </trkpt>
      <trkpt lat="43.61286" lon="1.20286">
        <ele>210</ele>
        <time>2020-10-03T09:29:33.000Z</time>
      </trkpt>
      <trkpt lat="43.61284" lon="1.20283">
        <ele>210.37614495749</ele>
        <time>2020-10-03T09:29:34.000Z</time>
      </trkpt>
      <trkpt lat="43.61281" lon="1.20281">
        <ele>211</ele>
        <time>2020-10-03T09:29:35.000Z</time>
      </trkpt>
      <trkpt lat="43.61279" lon="1.20279">
        <ele>211</ele>
        <time>2020-10-03T09:29:36.000Z</time>
      </trkpt>
      <trkpt lat="43.61277" lon="1.20276">
        <ele>211</ele>
        <time>2020-10-03T09:29:37.000Z</time>
      </trkpt>
      <trkpt lat="43.61275" lon="1.20274">
        <ele>211.43859333947</ele>
        <time>2020-10-03T09:29:38.000Z</time>
      </trkpt>
      <trkpt lat="43.61273" lon="1.20273">
        <ele>212</ele>
        <time>2020-10-03T09:29:39.000Z</time>
      </trkpt>
      <trkpt lat="43.61271" lon="1.20271">
        <ele>212</ele>
        <time>2020-10-03T09:29:40.000Z</time>
      </trkpt>
      <trkpt lat="43.61268" lon="1.20269">
        <ele>212</ele>
        <time>2020-10-03T09:29:41.000Z</time>
      </trkpt>
      <trkpt lat="43.61265" lon="1.20267">
        <ele>212</ele>
        <time>2020-10-03T09:29:42.000Z</time>
      </trkpt>
      <trkpt lat="43.61262" lon="1.20267">
        <ele>212.8771992859</ele>
        <time>2020-10-03T09:29:43.000Z</time>
      </trkpt>
      <trkpt lat="43.6126" lon="1.20265">
        <ele>214</ele>
        <time>2020-10-03T09:29:44.000Z</time>
      </trkpt>
      <trkpt lat="43.61257" lon="1.20263">
        <ele>214</ele>
        <time>2020-10-03T09:29:45.000Z</time>
      </trkpt>
      <trkpt lat="43.61255" lon="1.20261">
        <ele>214</ele>
        <time>2020-10-03T09:29:46.000Z</time>
      </trkpt>
      <trkpt lat="43.61253" lon="1.20259">
        <ele>214</ele>
        <time>2020-10-03T09:29:47.000Z</time>
      </trkpt>
      <trkpt lat="43.61251" lon="1.20257">
        <ele>214</ele>
        <time>2020-10-03T09:29:48.000Z</time>
      </trkpt>
      <trkpt lat="43.61249" lon="1.20255">
        <ele>214</ele>
        <time>2020-10-03T09:29:49.000Z</time>
      </trkpt>
      <trkpt lat="43.61247" lon="1.20253">
        <ele>214.23076291908</ele>
        <time>2020-10-03T09:29:50.000Z</time>
      </trkpt>
      <trkpt lat="43.61245" lon="1.2025">
        <ele>215</ele>
        <time>2020-10-03T09:29:51.000Z</time>
      </trkpt>
      <trkpt lat="43.61243" lon="1.20248">
        <ele>215</ele>
        <time>2020-10-03T09:29:52.000Z</time>
      </trkpt>
      <trkpt lat="43.61241" lon="1.20246">
        <ele>215</ele>
        <time>2020-10-03T09:29:53.000Z</time>
      </trkpt>
      <trkpt lat="43.61238" lon="1.20244">
        <ele>215</ele>
        <time>2020-10-03T09:29:54.000Z</time>
      </trkpt>
      <trkpt lat="43.61236" lon="1.20242">
        <ele>215</ele>
        <time>2020-10-03T09:29:55.000Z</time>
      </trkpt>
      <trkpt lat="43.61234" lon="1.20241">
        <ele>215.32407703704</ele>
        <time>2020-10-03T09:29:56.000Z</time>
      </trkpt>
      <trkpt lat="43.61231" lon="1.20238">
        <ele>216</ele>
        <time>2020-10-03T09:29:57.000Z</time>
      </trkpt>
      <trkpt lat="43.61229" lon="1.20236">
        <ele>216</ele>
        <time>2020-10-03T09:29:58.000Z</time>
      </trkpt>
      <trkpt lat="43.61227" lon="1.20234">
        <ele>216</ele>
        <time>2020-10-03T09:29:59.000Z</time>
      </trkpt>
      <trkpt lat="43.61225" lon="1.20232">
        <ele>216</ele>
        <time>2020-10-03T09:30:00.000Z</time>
      </trkpt>
      <trkpt lat="43.61223" lon="1.2023">
        <ele>216</ele>
        <time>2020-10-03T09:30:01.000Z</time>
      </trkpt>
      <trkpt lat="43.61221" lon="1.20228">
        <ele>216.36697355442</ele>
        <time>2020-10-03T09:30:02.000Z</time>
      </trkpt>
      <trkpt lat="43.61219" lon="1.20226">
        <ele>217</ele>
        <time>2020-10-03T09:30:03.000Z</time>
      </trkpt>
      <trkpt lat="43.61217" lon="1.20225">
        <ele>217</ele>
        <time>2020-10-03T09:30:04.000Z</time>
      </trkpt>
      <trkpt lat="43.61215" lon="1.20223">
        <ele>217</ele>
        <time>2020-10-03T09:30:05.000Z</time>
      </trkpt>
      <trkpt lat="43.61213" lon="1.20222">
        <ele>217</ele>
        <time>2020-10-03T09:30:06.000Z</time>
      </trkpt>
      <trkpt lat="43.61211" lon="1.20221">
        <ele>217</ele>
        <time>2020-10-03T09:30:07.000Z</time>
      </trkpt>
      <trkpt lat="43.61209" lon="1.2022">
        <ele>217</ele>
        <time>2020-10-03T09:30:08.000Z</time>
      </trkpt>
      <trkpt lat="43.61206" lon="1.20219">
        <ele>217.61538966474</ele>
        <time>2020-10-03T09:30:09.000Z</time>
      </trkpt>
      <trkpt lat="43.61204" lon="1.20217">
        <ele>219</ele>
        <time>2020-10-03T09:30:10.000Z</time>
      </trkpt>
      <trkpt lat="43.61202" lon="1.20217">
        <ele>219</ele>
        <time>2020-10-03T09:30:11.000Z</time>
      </trkpt>
      <trkpt lat="43.612" lon="1.20216">
        <ele>219.39449950679</ele>
        <time>2020-10-03T09:30:12.000Z</time>
      </trkpt>
      <trkpt lat="43.61197" lon="1.20214">
        <ele>220</ele>
        <time>2020-10-03T09:30:13.000Z</time>
      </trkpt>
      <trkpt lat="43.61195" lon="1.20212">
        <ele>220</ele>
        <time>2020-10-03T09:30:14.000Z</time>
      </trkpt>
      <trkpt lat="43.61192" lon="1.20211">
        <ele>220</ele>
        <time>2020-10-03T09:30:15.000Z</time>
      </trkpt>
      <trkpt lat="43.6119" lon="1.20209">
        <ele>220.43859333947</ele>
        <time>2020-10-03T09:30:16.000Z</time>
      </trkpt>
      <trkpt lat="43.61188" lon="1.20208">
        <ele>221</ele>
        <time>2020-10-03T09:30:17.000Z</time>
      </trkpt>
      <trkpt lat="43.61185" lon="1.20204">
        <ele>222</ele>
        <time>2020-10-03T09:30:19.000Z</time>
      </trkpt>
      <trkpt lat="43.61182" lon="1.20203">
        <ele>222</ele>
        <time>2020-10-03T09:30:20.000Z</time>
      </trkpt>
      <trkpt lat="43.6118" lon="1.20201">
        <ele>222</ele>
        <time>2020-10-03T09:30:21.000Z</time>
      </trkpt>
      <trkpt lat="43.61178" lon="1.202">
        <ele>222</ele>
        <time>2020-10-03T09:30:22.000Z</time>
      </trkpt>
      <trkpt lat="43.61176" lon="1.20197">
        <ele>222</ele>
        <time>2020-10-03T09:30:23.000Z</time>
      </trkpt>
      <trkpt lat="43.61173" lon="1.20195">
        <ele>222.43925401345</ele>
        <time>2020-10-03T09:30:24.000Z</time>
      </trkpt>
      <trkpt lat="43.6117" lon="1.20193">
        <ele>223</ele>
        <time>2020-10-03T09:30:25.000Z</time>
      </trkpt>
      <trkpt lat="43.61168" lon="1.20191">
        <ele>223</ele>
        <time>2020-10-03T09:30:26.000Z</time>
      </trkpt>
      <trkpt lat="43.61166" lon="1.2019">
        <ele>223</ele>
        <time>2020-10-03T09:30:27.000Z</time>
      </trkpt>
      <trkpt lat="43.61164" lon="1.20188">
        <ele>223</ele>
        <time>2020-10-03T09:30:29.000Z</time>
      </trkpt>
      <trkpt lat="43.61162" lon="1.20187">
        <ele>223</ele>
        <time>2020-10-03T09:30:30.000Z</time>
      </trkpt>
      <trkpt lat="43.6116" lon="1.20186">
        <ele>223</ele>
        <time>2020-10-03T09:30:31.000Z</time>
      </trkpt>
      <trkpt lat="43.61157" lon="1.20184">
        <ele>223.37272653223</ele>
        <time>2020-10-03T09:30:32.000Z</time>
      </trkpt>
      <trkpt lat="43.61155" lon="1.20183">
        <ele>224</ele>
        <time>2020-10-03T09:30:33.000Z</time>
      </trkpt>
      <trkpt lat="43.61152" lon="1.2018">
        <ele>225</ele>
        <time>2020-10-03T09:30:35.000Z</time>
      </trkpt>
      <trkpt lat="43.6115" lon="1.20179">
        <ele>225</ele>
        <time>2020-10-03T09:30:36.000Z</time>
      </trkpt>
      <trkpt lat="43.61142" lon="1.2017">
        <ele>228</ele>
        <time>2020-10-03T09:30:40.000Z</time>
      </trkpt>
      <trkpt lat="43.6114" lon="1.20168">
        <ele>228</ele>
        <time>2020-10-03T09:30:41.000Z</time>
      </trkpt>
      <trkpt lat="43.61131" lon="1.20159">
        <ele>230</ele>
        <time>2020-10-03T09:30:45.000Z</time>
      </trkpt>
      <trkpt lat="43.61128" lon="1.20158">
        <ele>230</ele>
        <time>2020-10-03T09:30:46.000Z</time>
      </trkpt>
      <trkpt lat="43.61125" lon="1.20157">
        <ele>230</ele>
        <time>2020-10-03T09:30:47.000Z</time>
      </trkpt>
      <trkpt lat="43.61123" lon="1.20155">
        <ele>230</ele>
        <time>2020-10-03T09:30:48.000Z</time>
      </trkpt>
      <trkpt lat="43.6112" lon="1.20153">
        <ele>229.92405781133</ele>
        <time>2020-10-03T09:30:49.000Z</time>
      </trkpt>
      <trkpt lat="43.61117" lon="1.20151">
        <ele>229</ele>
        <time>2020-10-03T09:30:50.000Z</time>
      </trkpt>
      <trkpt lat="43.61114" lon="1.20149">
        <ele>229</ele>
        <time>2020-10-03T09:30:51.000Z</time>
      </trkpt>
      <trkpt lat="43.61111" lon="1.20148">
        <ele>229</ele>
        <time>2020-10-03T09:30:52.000Z</time>
      </trkpt>
      <trkpt lat="43.61109" lon="1.20146">
        <ele>229.38834830804</ele>
        <time>2020-10-03T09:30:53.000Z</time>
      </trkpt>
      <trkpt lat="43.61099" lon="1.20137">
        <ele>230</ele>
        <time>2020-10-03T09:30:57.000Z</time>
      </trkpt>
      <trkpt lat="43.61096" lon="1.20135">
        <ele>230</ele>
        <time>2020-10-03T09:30:58.000Z</time>
      </trkpt>
      <trkpt lat="43.61093" lon="1.20133">
        <ele>230</ele>
        <time>2020-10-03T09:30:59.000Z</time>
      </trkpt>
      <trkpt lat="43.61084" lon="1.20125">
        <ele>230</ele>
        <time>2020-10-03T09:31:03.000Z</time>
      </trkpt>
      <trkpt lat="43.61079" lon="1.20121">
        <ele>230</ele>
        <time>2020-10-03T09:31:05.000Z</time>
      </trkpt>
      <trkpt lat="43.61077" lon="1.20119">
        <ele>230</ele>
        <time>2020-10-03T09:31:06.000Z</time>
      </trkpt>
      <trkpt lat="43.61069" lon="1.2011">
        <ele>231</ele>
        <time>2020-10-03T09:31:10.000Z</time>
      </trkpt>
      <trkpt lat="43.61067" lon="1.20109">
        <ele>231</ele>
        <time>2020-10-03T09:31:11.000Z</time>
      </trkpt>
      <trkpt lat="43.6106" lon="1.20103">
        <ele>232</ele>
        <time>2020-10-03T09:31:14.000Z</time>
      </trkpt>
      <trkpt lat="43.61057" lon="1.20101">
        <ele>232</ele>
        <time>2020-10-03T09:31:15.000Z</time>
      </trkpt>
      <trkpt lat="43.61055" lon="1.201">
        <ele>232</ele>
        <time>2020-10-03T09:31:16.000Z</time>
      </trkpt>
      <trkpt lat="43.61053" lon="1.20098">
        <ele>232.48544159863</ele>
        <time>2020-10-03T09:31:17.000Z</time>
      </trkpt>
      <trkpt lat="43.61051" lon="1.20096">
        <ele>233</ele>
        <time>2020-10-03T09:31:18.000Z</time>
      </trkpt>
      <trkpt lat="43.61048" lon="1.20095">
        <ele>233.47619221767</ele>
        <time>2020-10-03T09:31:19.000Z</time>
      </trkpt>
      <trkpt lat="43.61046" lon="1.20093">
        <ele>234</ele>
        <time>2020-10-03T09:31:20.000Z</time>
      </trkpt>
      <trkpt lat="43.61044" lon="1.20091">
        <ele>234</ele>
        <time>2020-10-03T09:31:21.000Z</time>
      </trkpt>
      <trkpt lat="43.61042" lon="1.20089">
        <ele>234</ele>
        <time>2020-10-03T09:31:22.000Z</time>
      </trkpt>
      <trkpt lat="43.6104" lon="1.20087">
        <ele>234.13043074982</ele>
        <time>2020-10-03T09:31:23.000Z</time>
      </trkpt>
      <trkpt lat="43.61037" lon="1.20085">
        <ele>235</ele>
        <time>2020-10-03T09:31:24.000Z</time>
      </trkpt>
      <trkpt lat="43.61029" lon="1.20075">
        <ele>236</ele>
        <time>2020-10-03T09:31:28.000Z</time>
      </trkpt>
      <trkpt lat="43.61027" lon="1.20073">
        <ele>236</ele>
        <time>2020-10-03T09:31:29.000Z</time>
      </trkpt>
      <trkpt lat="43.61025" lon="1.20071">
        <ele>236</ele>
        <time>2020-10-03T09:31:30.000Z</time>
      </trkpt>
      <trkpt lat="43.61022" lon="1.20069">
        <ele>236</ele>
        <time>2020-10-03T09:31:31.000Z</time>
      </trkpt>
      <trkpt lat="43.6102" lon="1.20067">
        <ele>236</ele>
        <time>2020-10-03T09:31:32.000Z</time>
      </trkpt>
      <trkpt lat="43.61018" lon="1.20064">
        <ele>236</ele>
        <time>2020-10-03T09:31:33.000Z</time>
      </trkpt>
      <trkpt lat="43.61014" lon="1.20062">
        <ele>236.40650203449</ele>
        <time>2020-10-03T09:31:34.000Z</time>
      </trkpt>
      <trkpt lat="43.61012" lon="1.2006">
        <ele>237</ele>
        <time>2020-10-03T09:31:35.000Z</time>
      </trkpt>
      <trkpt lat="43.61009" lon="1.20058">
        <ele>237</ele>
        <time>2020-10-03T09:31:36.000Z</time>
      </trkpt>
      <trkpt lat="43.61007" lon="1.20057">
        <ele>237</ele>
        <time>2020-10-03T09:31:37.000Z</time>
      </trkpt>
      <trkpt lat="43.61005" lon="1.20055">
        <ele>237</ele>
        <time>2020-10-03T09:31:38.000Z</time>
      </trkpt>
      <trkpt lat="43.61002" lon="1.20052">
        <ele>237</ele>
        <time>2020-10-03T09:31:39.000Z</time>
      </trkpt>
      <trkpt lat="43.60997" lon="1.20046">
        <ele>237</ele>
        <time>2020-10-03T09:31:41.000Z</time>
      </trkpt>
      <trkpt lat="43.60994" lon="1.20044">
        <ele>237</ele>
        <time>2020-10-03T09:31:42.000Z</time>
      </trkpt>
      <trkpt lat="43.60991" lon="1.20042">
        <ele>237.39370483476</ele>
        <time>2020-10-03T09:31:43.000Z</time>
      </trkpt>
      <trkpt lat="43.60989" lon="1.2004">
        <ele>238</ele>
        <time>2020-10-03T09:31:44.000Z</time>
      </trkpt>
      <trkpt lat="43.60986" lon="1.20038">
        <ele>238</ele>
        <time>2020-10-03T09:31:45.000Z</time>
      </trkpt>
      <trkpt lat="43.60983" lon="1.20036">
        <ele>238</ele>
        <time>2020-10-03T09:31:46.000Z</time>
      </trkpt>
      <trkpt lat="43.60981" lon="1.20034">
        <ele>238</ele>
        <time>2020-10-03T09:31:47.000Z</time>
      </trkpt>
      <trkpt lat="43.60979" lon="1.20032">
        <ele>238</ele>
        <time>2020-10-03T09:31:48.000Z</time>
      </trkpt>
      <trkpt lat="43.60976" lon="1.20029">
        <ele>238</ele>
        <time>2020-10-03T09:31:49.000Z</time>
      </trkpt>
      <trkpt lat="43.60974" lon="1.20028">
        <ele>238</ele>
        <time>2020-10-03T09:31:50.000Z</time>
      </trkpt>
      <trkpt lat="43.60971" lon="1.20026">
        <ele>238</ele>
        <time>2020-10-03T09:31:51.000Z</time>
      </trkpt>
      <trkpt lat="43.60969" lon="1.20023">
        <ele>238</ele>
        <time>2020-10-03T09:31:52.000Z</time>
      </trkpt>
      <trkpt lat="43.60967" lon="1.20021">
        <ele>238</ele>
        <time>2020-10-03T09:31:53.000Z</time>
      </trkpt>
      <trkpt lat="43.60964" lon="1.20019">
        <ele>238</ele>
        <time>2020-10-03T09:31:54.000Z</time>
      </trkpt>
      <trkpt lat="43.60962" lon="1.20016">
        <ele>238</ele>
        <time>2020-10-03T09:31:55.000Z</time>
      </trkpt>
      <trkpt lat="43.60959" lon="1.20014">
        <ele>238</ele>
        <time>2020-10-03T09:31:56.000Z</time>
      </trkpt>
      <trkpt lat="43.60957" lon="1.20011">
        <ele>238</ele>
        <time>2020-10-03T09:31:57.000Z</time>
      </trkpt>
      <trkpt lat="43.60955" lon="1.20009">
        <ele>238</ele>
        <time>2020-10-03T09:31:58.000Z</time>
      </trkpt>
      <trkpt lat="43.60953" lon="1.20008">
        <ele>238</ele>
        <time>2020-10-03T09:31:59.000Z</time>
      </trkpt>
      <trkpt lat="43.60951" lon="1.20008">
        <ele>238.36470552803</ele>
        <time>2020-10-03T09:32:00.000Z</time>
      </trkpt>
      <trkpt lat="43.60949" lon="1.20008">
        <ele>239</ele>
        <time>2020-10-03T09:32:01.000Z</time>
      </trkpt>
      <trkpt lat="43.60946" lon="1.20009">
        <ele>239</ele>
        <time>2020-10-03T09:32:02.000Z</time>
      </trkpt>
      <trkpt lat="43.60944" lon="1.20011">
        <ele>239</ele>
        <time>2020-10-03T09:32:03.000Z</time>
      </trkpt>
      <trkpt lat="43.6094" lon="1.20012">
        <ele>239</ele>
        <time>2020-10-03T09:32:04.000Z</time>
      </trkpt>
      <trkpt lat="43.60937" lon="1.20012">
        <ele>239</ele>
        <time>2020-10-03T09:32:05.000Z</time>
      </trkpt>
      <trkpt lat="43.60934" lon="1.20012">
        <ele>239</ele>
        <time>2020-10-03T09:32:06.000Z</time>
      </trkpt>
      <trkpt lat="43.6093" lon="1.20011">
        <ele>238.56880313777</ele>
        <time>2020-10-03T09:32:07.000Z</time>
      </trkpt>
      <trkpt lat="43.60927" lon="1.2001">
        <ele>238</ele>
        <time>2020-10-03T09:32:08.000Z</time>
      </trkpt>
      <trkpt lat="43.60924" lon="1.20008">
        <ele>238</ele>
        <time>2020-10-03T09:32:09.000Z</time>
      </trkpt>
      <trkpt lat="43.60921" lon="1.20005">
        <ele>238</ele>
        <time>2020-10-03T09:32:10.000Z</time>
      </trkpt>
      <trkpt lat="43.60915" lon="1.20002">
        <ele>238</ele>
        <time>2020-10-03T09:32:12.000Z</time>
      </trkpt>
      <trkpt lat="43.60912" lon="1.2">
        <ele>238</ele>
        <time>2020-10-03T09:32:13.000Z</time>
      </trkpt>
      <trkpt lat="43.60909" lon="1.19998">
        <ele>238</ele>
        <time>2020-10-03T09:32:14.000Z</time>
      </trkpt>
      <trkpt lat="43.60906" lon="1.19997">
        <ele>238</ele>
        <time>2020-10-03T09:32:15.000Z</time>
      </trkpt>
      <trkpt lat="43.60903" lon="1.19995">
        <ele>238</ele>
        <time>2020-10-03T09:32:16.000Z</time>
      </trkpt>
      <trkpt lat="43.60901" lon="1.19993">
        <ele>238</ele>
        <time>2020-10-03T09:32:17.000Z</time>
      </trkpt>
      <trkpt lat="43.60898" lon="1.19991">
        <ele>238</ele>
        <time>2020-10-03T09:32:18.000Z</time>
      </trkpt>
      <trkpt lat="43.60896" lon="1.19989">
        <ele>238</ele>
        <time>2020-10-03T09:32:19.000Z</time>
      </trkpt>
      <trkpt lat="43.60887" lon="1.19982">
        <ele>238</ele>
        <time>2020-10-03T09:32:23.000Z</time>
      </trkpt>
      <trkpt lat="43.60882" lon="1.19978">
        <ele>238</ele>
        <time>2020-10-03T09:32:25.000Z</time>
      </trkpt>
      <trkpt lat="43.6088" lon="1.19976">
        <ele>238</ele>
        <time>2020-10-03T09:32:26.000Z</time>
      </trkpt>
      <trkpt lat="43.60877" lon="1.19974">
        <ele>238</ele>
        <time>2020-10-03T09:32:27.000Z</time>
      </trkpt>
      <trkpt lat="43.60875" lon="1.19972">
        <ele>238</ele>
        <time>2020-10-03T09:32:28.000Z</time>
      </trkpt>
      <trkpt lat="43.60872" lon="1.19969">
        <ele>238</ele>
        <time>2020-10-03T09:32:29.000Z</time>
      </trkpt>
      <trkpt lat="43.6087" lon="1.19968">
        <ele>238</ele>
        <time>2020-10-03T09:32:30.000Z</time>
      </trkpt>
      <trkpt lat="43.60867" lon="1.19966">
        <ele>238</ele>
        <time>2020-10-03T09:32:31.000Z</time>
      </trkpt>
      <trkpt lat="43.60865" lon="1.19964">
        <ele>238</ele>
        <time>2020-10-03T09:32:32.000Z</time>
      </trkpt>
      <trkpt lat="43.60862" lon="1.19963">
        <ele>238.33644759193</ele>
        <time>2020-10-03T09:32:33.000Z</time>
      </trkpt>
      <trkpt lat="43.6086" lon="1.19961">
        <ele>239</ele>
        <time>2020-10-03T09:32:34.000Z</time>
      </trkpt>
      <trkpt lat="43.60857" lon="1.19958">
        <ele>239</ele>
        <time>2020-10-03T09:32:35.000Z</time>
      </trkpt>
      <trkpt lat="43.60855" lon="1.19957">
        <ele>239</ele>
        <time>2020-10-03T09:32:36.000Z</time>
      </trkpt>
      <trkpt lat="43.60853" lon="1.19955">
        <ele>239</ele>
        <time>2020-10-03T09:32:37.000Z</time>
      </trkpt>
      <trkpt lat="43.6085" lon="1.19953">
        <ele>239</ele>
        <time>2020-10-03T09:32:38.000Z</time>
      </trkpt>
      <trkpt lat="43.60848" lon="1.19951">
        <ele>239</ele>
        <time>2020-10-03T09:32:39.000Z</time>
      </trkpt>
      <trkpt lat="43.60846" lon="1.19949">
        <ele>238.66393528622</ele>
        <time>2020-10-03T09:32:40.000Z</time>
      </trkpt>
      <trkpt lat="43.60841" lon="1.19946">
        <ele>238</ele>
        <time>2020-10-03T09:32:42.000Z</time>
      </trkpt>
      <trkpt lat="43.60839" lon="1.19944">
        <ele>238</ele>
        <time>2020-10-03T09:32:43.000Z</time>
      </trkpt>
      <trkpt lat="43.60836" lon="1.19941">
        <ele>238</ele>
        <time>2020-10-03T09:32:44.000Z</time>
      </trkpt>
      <trkpt lat="43.60834" lon="1.19939">
        <ele>238</ele>
        <time>2020-10-03T09:32:45.000Z</time>
      </trkpt>
      <trkpt lat="43.60832" lon="1.19936">
        <ele>238</ele>
        <time>2020-10-03T09:32:46.000Z</time>
      </trkpt>
      <trkpt lat="43.60829" lon="1.19934">
        <ele>238</ele>
        <time>2020-10-03T09:32:47.000Z</time>
      </trkpt>
      <trkpt lat="43.60827" lon="1.19932">
        <ele>238</ele>
        <time>2020-10-03T09:32:48.000Z</time>
      </trkpt>
      <trkpt lat="43.60825" lon="1.19931">
        <ele>238</ele>
        <time>2020-10-03T09:32:49.000Z</time>
      </trkpt>
      <trkpt lat="43.60822" lon="1.19929">
        <ele>238</ele>
        <time>2020-10-03T09:32:50.000Z</time>
      </trkpt>
      <trkpt lat="43.6082" lon="1.19927">
        <ele>238</ele>
        <time>2020-10-03T09:32:51.000Z</time>
      </trkpt>
      <trkpt lat="43.60817" lon="1.19925">
        <ele>238</ele>
        <time>2020-10-03T09:32:52.000Z</time>
      </trkpt>
      <trkpt lat="43.60814" lon="1.19923">
        <ele>238</ele>
        <time>2020-10-03T09:32:53.000Z</time>
      </trkpt>
      <trkpt lat="43.60812" lon="1.1992">
        <ele>238</ele>
        <time>2020-10-03T09:32:54.000Z</time>
      </trkpt>
      <trkpt lat="43.60809" lon="1.19918">
        <ele>238</ele>
        <time>2020-10-03T09:32:55.000Z</time>
      </trkpt>
      <trkpt lat="43.60806" lon="1.19915">
        <ele>238</ele>
        <time>2020-10-03T09:32:56.000Z</time>
      </trkpt>
      <trkpt lat="43.60804" lon="1.19913">
        <ele>238</ele>
        <time>2020-10-03T09:32:57.000Z</time>
      </trkpt>
      <trkpt lat="43.60802" lon="1.19911">
        <ele>238.34483367417</ele>
        <time>2020-10-03T09:32:58.000Z</time>
      </trkpt>
      <trkpt lat="43.608" lon="1.19909">
        <ele>239</ele>
        <time>2020-10-03T09:32:59.000Z</time>
      </trkpt>
      <trkpt lat="43.60797" lon="1.19907">
        <ele>239</ele>
        <time>2020-10-03T09:33:00.000Z</time>
      </trkpt>
      <trkpt lat="43.60794" lon="1.19905">
        <ele>239.42990441783</ele>
        <time>2020-10-03T09:33:01.000Z</time>
      </trkpt>
      <trkpt lat="43.60792" lon="1.19902">
        <ele>240</ele>
        <time>2020-10-03T09:33:02.000Z</time>
      </trkpt>
      <trkpt lat="43.60789" lon="1.19899">
        <ele>240</ele>
        <time>2020-10-03T09:33:03.000Z</time>
      </trkpt>
      <trkpt lat="43.60787" lon="1.19897">
        <ele>240</ele>
        <time>2020-10-03T09:33:04.000Z</time>
      </trkpt>
      <trkpt lat="43.60784" lon="1.19894">
        <ele>240</ele>
        <time>2020-10-03T09:33:05.000Z</time>
      </trkpt>
      <trkpt lat="43.60782" lon="1.19892">
        <ele>240</ele>
        <time>2020-10-03T09:33:06.000Z</time>
      </trkpt>
      <trkpt lat="43.60779" lon="1.1989">
        <ele>240</ele>
        <time>2020-10-03T09:33:07.000Z</time>
      </trkpt>
      <trkpt lat="43.60777" lon="1.19888">
        <ele>240</ele>
        <time>2020-10-03T09:33:08.000Z</time>
      </trkpt>
      <trkpt lat="43.60775" lon="1.19886">
        <ele>239.66055239795</ele>
        <time>2020-10-03T09:33:09.000Z</time>
      </trkpt>
      <trkpt lat="43.60772" lon="1.19884">
        <ele>239</ele>
        <time>2020-10-03T09:33:10.000Z</time>
      </trkpt>
      <trkpt lat="43.6077" lon="1.19882">
        <ele>239</ele>
        <time>2020-10-03T09:33:11.000Z</time>
      </trkpt>
      <trkpt lat="43.60767" lon="1.1988">
        <ele>239</ele>
        <time>2020-10-03T09:33:12.000Z</time>
      </trkpt>
      <trkpt lat="43.60764" lon="1.19879">
        <ele>239</ele>
        <time>2020-10-03T09:33:13.000Z</time>
      </trkpt>
      <trkpt lat="43.60762" lon="1.19877">
        <ele>239</ele>
        <time>2020-10-03T09:33:14.000Z</time>
      </trkpt>
      <trkpt lat="43.60759" lon="1.19875">
        <ele>238.55555871603</ele>
        <time>2020-10-03T09:33:15.000Z</time>
      </trkpt>
      <trkpt lat="43.60756" lon="1.19872">
        <ele>238</ele>
        <time>2020-10-03T09:33:16.000Z</time>
      </trkpt>
      <trkpt lat="43.60753" lon="1.1987">
        <ele>238</ele>
        <time>2020-10-03T09:33:17.000Z</time>
      </trkpt>
      <trkpt lat="43.6075" lon="1.19867">
        <ele>238</ele>
        <time>2020-10-03T09:33:18.000Z</time>
      </trkpt>
      <trkpt lat="43.60748" lon="1.19864">
        <ele>238</ele>
        <time>2020-10-03T09:33:19.000Z</time>
      </trkpt>
      <trkpt lat="43.60745" lon="1.19862">
        <ele>238</ele>
        <time>2020-10-03T09:33:20.000Z</time>
      </trkpt>
      <trkpt lat="43.60742" lon="1.19861">
        <ele>238</ele>
        <time>2020-10-03T09:33:21.000Z</time>
      </trkpt>
      <trkpt lat="43.60739" lon="1.1986">
        <ele>237.84883980532</ele>
        <time>2020-10-03T09:33:22.000Z</time>
      </trkpt>
      <trkpt lat="43.60736" lon="1.19859">
        <ele>237</ele>
        <time>2020-10-03T09:33:23.000Z</time>
      </trkpt>
      <trkpt lat="43.60733" lon="1.19856">
        <ele>237</ele>
        <time>2020-10-03T09:33:24.000Z</time>
      </trkpt>
      <trkpt lat="43.6073" lon="1.19854">
        <ele>236.68131883589</ele>
        <time>2020-10-03T09:33:25.000Z</time>
      </trkpt>
      <trkpt lat="43.60727" lon="1.19852">
        <ele>236</ele>
        <time>2020-10-03T09:33:26.000Z</time>
      </trkpt>
      <trkpt lat="43.60724" lon="1.1985">
        <ele>236</ele>
        <time>2020-10-03T09:33:27.000Z</time>
      </trkpt>
      <trkpt lat="43.60722" lon="1.19848">
        <ele>236</ele>
        <time>2020-10-03T09:33:28.000Z</time>
      </trkpt>
      <trkpt lat="43.60719" lon="1.19845">
        <ele>236</ele>
        <time>2020-10-03T09:33:29.000Z</time>
      </trkpt>
      <trkpt lat="43.60717" lon="1.19842">
        <ele>236</ele>
        <time>2020-10-03T09:33:30.000Z</time>
      </trkpt>
      <trkpt lat="43.60714" lon="1.1984">
        <ele>235.39999715558</ele>
        <time>2020-10-03T09:33:31.000Z</time>
      </trkpt>
      <trkpt lat="43.60711" lon="1.19837">
        <ele>234</ele>
        <time>2020-10-03T09:33:32.000Z</time>
      </trkpt>
      <trkpt lat="43.60708" lon="1.19835">
        <ele>234</ele>
        <time>2020-10-03T09:33:33.000Z</time>
      </trkpt>
      <trkpt lat="43.60705" lon="1.19833">
        <ele>233.64220205033</ele>
        <time>2020-10-03T09:33:34.000Z</time>
      </trkpt>
      <trkpt lat="43.60702" lon="1.19831">
        <ele>233</ele>
        <time>2020-10-03T09:33:35.000Z</time>
      </trkpt>
      <trkpt lat="43.60699" lon="1.19829">
        <ele>233</ele>
        <time>2020-10-03T09:33:36.000Z</time>
      </trkpt>
      <trkpt lat="43.60697" lon="1.19827">
        <ele>232.9753164457</ele>
        <time>2020-10-03T09:33:37.000Z</time>
      </trkpt>
      <trkpt lat="43.60693" lon="1.19824">
        <ele>231</ele>
        <time>2020-10-03T09:33:38.000Z</time>
      </trkpt>
      <trkpt lat="43.60691" lon="1.19822">
        <ele>231</ele>
        <time>2020-10-03T09:33:39.000Z</time>
      </trkpt>
      <trkpt lat="43.60688" lon="1.19819">
        <ele>231</ele>
        <time>2020-10-03T09:33:40.000Z</time>
      </trkpt>
      <trkpt lat="43.60685" lon="1.19817">
        <ele>231</ele>
        <time>2020-10-03T09:33:41.000Z</time>
      </trkpt>
      <trkpt lat="43.60682" lon="1.19815">
        <ele>230.60240889533</ele>
        <time>2020-10-03T09:33:42.000Z</time>
      </trkpt>
      <trkpt lat="43.6068" lon="1.19812">
        <ele>230</ele>
        <time>2020-10-03T09:33:43.000Z</time>
      </trkpt>
      <trkpt lat="43.60677" lon="1.1981">
        <ele>230</ele>
        <time>2020-10-03T09:33:44.000Z</time>
      </trkpt>
      <trkpt lat="43.60674" lon="1.19808">
        <ele>229.60504038981</ele>
        <time>2020-10-03T09:33:45.000Z</time>
      </trkpt>
      <trkpt lat="43.60671" lon="1.19805">
        <ele>229</ele>
        <time>2020-10-03T09:33:46.000Z</time>
      </trkpt>
      <trkpt lat="43.60669" lon="1.19803">
        <ele>229</ele>
        <time>2020-10-03T09:33:47.000Z</time>
      </trkpt>
      <trkpt lat="43.60666" lon="1.198">
        <ele>228.68132331842</ele>
        <time>2020-10-03T09:33:48.000Z</time>
      </trkpt>
      <trkpt lat="43.60662" lon="1.19798">
        <ele>228</ele>
        <time>2020-10-03T09:33:49.000Z</time>
      </trkpt>
      <trkpt lat="43.60659" lon="1.19796">
        <ele>228</ele>
        <time>2020-10-03T09:33:50.000Z</time>
      </trkpt>
      <trkpt lat="43.60656" lon="1.19793">
        <ele>227.45588705882</ele>
        <time>2020-10-03T09:33:51.000Z</time>
      </trkpt>
      <trkpt lat="43.60654" lon="1.19791">
        <ele>226</ele>
        <time>2020-10-03T09:33:52.000Z</time>
      </trkpt>
      <trkpt lat="43.60651" lon="1.19788">
        <ele>226</ele>
        <time>2020-10-03T09:33:53.000Z</time>
      </trkpt>
      <trkpt lat="43.60648" lon="1.19785">
        <ele>226</ele>
        <time>2020-10-03T09:33:54.000Z</time>
      </trkpt>
      <trkpt lat="43.60645" lon="1.19783">
        <ele>225.53333495873</ele>
        <time>2020-10-03T09:33:55.000Z</time>
      </trkpt>
      <trkpt lat="43.60642" lon="1.1978">
        <ele>225</ele>
        <time>2020-10-03T09:33:56.000Z</time>
      </trkpt>
      <trkpt lat="43.6064" lon="1.19778">
        <ele>225</ele>
        <time>2020-10-03T09:33:57.000Z</time>
      </trkpt>
      <trkpt lat="43.60637" lon="1.19776">
        <ele>225</ele>
        <time>2020-10-03T09:33:58.000Z</time>
      </trkpt>
      <trkpt lat="43.60635" lon="1.19774">
        <ele>225</ele>
        <time>2020-10-03T09:33:59.000Z</time>
      </trkpt>
      <trkpt lat="43.60633" lon="1.19772">
        <ele>225</ele>
        <time>2020-10-03T09:34:00.000Z</time>
      </trkpt>
      <trkpt lat="43.6063" lon="1.19769">
        <ele>225</ele>
        <time>2020-10-03T09:34:01.000Z</time>
      </trkpt>
      <trkpt lat="43.60628" lon="1.19768">
        <ele>225</ele>
        <time>2020-10-03T09:34:02.000Z</time>
      </trkpt>
      <trkpt lat="43.60626" lon="1.19766">
        <ele>225</ele>
        <time>2020-10-03T09:34:03.000Z</time>
      </trkpt>
      <trkpt lat="43.60624" lon="1.19763">
        <ele>225</ele>
        <time>2020-10-03T09:34:04.000Z</time>
      </trkpt>
      <trkpt lat="43.60622" lon="1.19762">
        <ele>225</ele>
        <time>2020-10-03T09:34:05.000Z</time>
      </trkpt>
      <trkpt lat="43.6062" lon="1.1976">
        <ele>225.3486266543</ele>
        <time>2020-10-03T09:34:06.000Z</time>
      </trkpt>
      <trkpt lat="43.60617" lon="1.19758">
        <ele>226</ele>
        <time>2020-10-03T09:34:07.000Z</time>
      </trkpt>
      <trkpt lat="43.60615" lon="1.19756">
        <ele>226</ele>
        <time>2020-10-03T09:34:08.000Z</time>
      </trkpt>
      <trkpt lat="43.60613" lon="1.19755">
        <ele>226.46847864943</ele>
        <time>2020-10-03T09:34:09.000Z</time>
      </trkpt>
      <trkpt lat="43.60611" lon="1.19753">
        <ele>228</ele>
        <time>2020-10-03T09:34:10.000Z</time>
      </trkpt>
      <trkpt lat="43.60609" lon="1.19752">
        <ele>228</ele>
        <time>2020-10-03T09:34:11.000Z</time>
      </trkpt>
      <trkpt lat="43.60606" lon="1.1975">
        <ele>228</ele>
        <time>2020-10-03T09:34:12.000Z</time>
      </trkpt>
      <trkpt lat="43.60604" lon="1.19748">
        <ele>228.46315633463</ele>
        <time>2020-10-03T09:34:13.000Z</time>
      </trkpt>
      <trkpt lat="43.60602" lon="1.19746">
        <ele>229</ele>
        <time>2020-10-03T09:34:14.000Z</time>
      </trkpt>
      <trkpt lat="43.606" lon="1.19744">
        <ele>229</ele>
        <time>2020-10-03T09:34:15.000Z</time>
      </trkpt>
      <trkpt lat="43.60598" lon="1.19742">
        <ele>229.262496</ele>
        <time>2020-10-03T09:34:16.000Z</time>
      </trkpt>
      <trkpt lat="43.60596" lon="1.1974">
        <ele>230</ele>
        <time>2020-10-03T09:34:17.000Z</time>
      </trkpt>
      <trkpt lat="43.60594" lon="1.19738">
        <ele>230</ele>
        <time>2020-10-03T09:34:18.000Z</time>
      </trkpt>
      <trkpt lat="43.60591" lon="1.19736">
        <ele>230</ele>
        <time>2020-10-03T09:34:19.000Z</time>
      </trkpt>
      <trkpt lat="43.60589" lon="1.19734">
        <ele>230</ele>
        <time>2020-10-03T09:34:20.000Z</time>
      </trkpt>
      <trkpt lat="43.60587" lon="1.19732">
        <ele>230</ele>
        <time>2020-10-03T09:34:21.000Z</time>
      </trkpt>
      <trkpt lat="43.60584" lon="1.19731">
        <ele>230</ele>
        <time>2020-10-03T09:34:22.000Z</time>
      </trkpt>
      <trkpt lat="43.60582" lon="1.19729">
        <ele>230</ele>
        <time>2020-10-03T09:34:23.000Z</time>
      </trkpt>
      <trkpt lat="43.6058" lon="1.19728">
        <ele>230</ele>
        <time>2020-10-03T09:34:24.000Z</time>
      </trkpt>
      <trkpt lat="43.60578" lon="1.19726">
        <ele>230</ele>
        <time>2020-10-03T09:34:25.000Z</time>
      </trkpt>
      <trkpt lat="43.60575" lon="1.19725">
        <ele>230.43636109754</ele>
        <time>2020-10-03T09:34:26.000Z</time>
      </trkpt>
      <trkpt lat="43.60573" lon="1.19723">
        <ele>231</ele>
        <time>2020-10-03T09:34:27.000Z</time>
      </trkpt>
      <trkpt lat="43.60571" lon="1.19721">
        <ele>231</ele>
        <time>2020-10-03T09:34:28.000Z</time>
      </trkpt>
      <trkpt lat="43.60569" lon="1.19719">
        <ele>231</ele>
        <time>2020-10-03T09:34:29.000Z</time>
      </trkpt>
      <trkpt lat="43.60567" lon="1.19717">
        <ele>231</ele>
        <time>2020-10-03T09:34:30.000Z</time>
      </trkpt>
      <trkpt lat="43.60565" lon="1.19715">
        <ele>231</ele>
        <time>2020-10-03T09:34:31.000Z</time>
      </trkpt>
      <trkpt lat="43.60563" lon="1.19714">
        <ele>231</ele>
        <time>2020-10-03T09:34:32.000Z</time>
      </trkpt>
      <trkpt lat="43.60561" lon="1.19712">
        <ele>231.62222664694</ele>
        <time>2020-10-03T09:34:33.000Z</time>
      </trkpt>
      <trkpt lat="43.60558" lon="1.19711">
        <ele>233</ele>
        <time>2020-10-03T09:34:34.000Z</time>
      </trkpt>
      <trkpt lat="43.60556" lon="1.19709">
        <ele>233</ele>
        <time>2020-10-03T09:34:35.000Z</time>
      </trkpt>
      <trkpt lat="43.60554" lon="1.19707">
        <ele>233</ele>
        <time>2020-10-03T09:34:36.000Z</time>
      </trkpt>
      <trkpt lat="43.60552" lon="1.19705">
        <ele>233.42342508562</ele>
        <time>2020-10-03T09:34:37.000Z</time>
      </trkpt>
      <trkpt lat="43.6055" lon="1.19703">
        <ele>234</ele>
        <time>2020-10-03T09:34:38.000Z</time>
      </trkpt>
      <trkpt lat="43.60549" lon="1.197">
        <ele>234</ele>
        <time>2020-10-03T09:34:39.000Z</time>
      </trkpt>
      <trkpt lat="43.60547" lon="1.19698">
        <ele>234.38095238095</ele>
        <time>2020-10-03T09:34:40.000Z</time>
      </trkpt>
      <trkpt lat="43.60545" lon="1.19697">
        <ele>235</ele>
        <time>2020-10-03T09:34:41.000Z</time>
      </trkpt>
      <trkpt lat="43.60543" lon="1.19695">
        <ele>235</ele>
        <time>2020-10-03T09:34:42.000Z</time>
      </trkpt>
      <trkpt lat="43.60541" lon="1.19693">
        <ele>235</ele>
        <time>2020-10-03T09:34:43.000Z</time>
      </trkpt>
      <trkpt lat="43.60539" lon="1.19692">
        <ele>235</ele>
        <time>2020-10-03T09:34:44.000Z</time>
      </trkpt>
      <trkpt lat="43.60536" lon="1.1969">
        <ele>235</ele>
        <time>2020-10-03T09:34:45.000Z</time>
      </trkpt>
      <trkpt lat="43.60534" lon="1.19688">
        <ele>235</ele>
        <time>2020-10-03T09:34:46.000Z</time>
      </trkpt>
      <trkpt lat="43.60531" lon="1.19687">
        <ele>235.34861900512</ele>
        <time>2020-10-03T09:34:47.000Z</time>
      </trkpt>
      <trkpt lat="43.60528" lon="1.19685">
        <ele>236</ele>
        <time>2020-10-03T09:34:48.000Z</time>
      </trkpt>
      <trkpt lat="43.60526" lon="1.19683">
        <ele>236</ele>
        <time>2020-10-03T09:34:49.000Z</time>
      </trkpt>
      <trkpt lat="43.60523" lon="1.19681">
        <ele>236</ele>
        <time>2020-10-03T09:34:50.000Z</time>
      </trkpt>
      <trkpt lat="43.6052" lon="1.1968">
        <ele>236</ele>
        <time>2020-10-03T09:34:51.000Z</time>
      </trkpt>
      <trkpt lat="43.60517" lon="1.19678">
        <ele>236</ele>
        <time>2020-10-03T09:34:52.000Z</time>
      </trkpt>
      <trkpt lat="43.60514" lon="1.19676">
        <ele>235.67226709979</ele>
        <time>2020-10-03T09:34:53.000Z</time>
      </trkpt>
      <trkpt lat="43.60511" lon="1.19673">
        <ele>235</ele>
        <time>2020-10-03T09:34:54.000Z</time>
      </trkpt>
      <trkpt lat="43.60508" lon="1.1967">
        <ele>235</ele>
        <time>2020-10-03T09:34:55.000Z</time>
      </trkpt>
      <trkpt lat="43.60506" lon="1.19667">
        <ele>234.56383022182</ele>
        <time>2020-10-03T09:34:56.000Z</time>
      </trkpt>
      <trkpt lat="43.60504" lon="1.19663">
        <ele>234</ele>
        <time>2020-10-03T09:34:57.000Z</time>
      </trkpt>
      <trkpt lat="43.60503" lon="1.19659">
        <ele>234</ele>
        <time>2020-10-03T09:34:58.000Z</time>
      </trkpt>
      <trkpt lat="43.60503" lon="1.19655">
        <ele>234</ele>
        <time>2020-10-03T09:34:59.000Z</time>
      </trkpt>
      <trkpt lat="43.60504" lon="1.19652">
        <ele>234</ele>
        <time>2020-10-03T09:35:00.000Z</time>
      </trkpt>
      <trkpt lat="43.60504" lon="1.19648">
        <ele>234</ele>
        <time>2020-10-03T09:35:01.000Z</time>
      </trkpt>
      <trkpt lat="43.60505" lon="1.19646">
        <ele>234</ele>
        <time>2020-10-03T09:35:02.000Z</time>
      </trkpt>
      <trkpt lat="43.60506" lon="1.19642">
        <ele>234</ele>
        <time>2020-10-03T09:35:04.000Z</time>
      </trkpt>
      <trkpt lat="43.60507" lon="1.19639">
        <ele>234</ele>
        <time>2020-10-03T09:35:05.000Z</time>
      </trkpt>
      <trkpt lat="43.60508" lon="1.19637">
        <ele>234</ele>
        <time>2020-10-03T09:35:06.000Z</time>
      </trkpt>
      <trkpt lat="43.6051" lon="1.19635">
        <ele>234</ele>
        <time>2020-10-03T09:35:07.000Z</time>
      </trkpt>
      <trkpt lat="43.60511" lon="1.19632">
        <ele>234</ele>
        <time>2020-10-03T09:35:08.000Z</time>
      </trkpt>
      <trkpt lat="43.60512" lon="1.1963">
        <ele>234</ele>
        <time>2020-10-03T09:35:09.000Z</time>
      </trkpt>
      <trkpt lat="43.60513" lon="1.19627">
        <ele>234.48076307692</ele>
        <time>2020-10-03T09:35:10.000Z</time>
      </trkpt>
      <trkpt lat="43.60514" lon="1.19625">
        <ele>235</ele>
        <time>2020-10-03T09:35:11.000Z</time>
      </trkpt>
      <trkpt lat="43.60515" lon="1.19622">
        <ele>235.54014257552</ele>
        <time>2020-10-03T09:35:12.000Z</time>
      </trkpt>
      <trkpt lat="43.60516" lon="1.19619">
        <ele>237</ele>
        <time>2020-10-03T09:35:13.000Z</time>
      </trkpt>
      <trkpt lat="43.60518" lon="1.19616">
        <ele>237</ele>
        <time>2020-10-03T09:35:14.000Z</time>
      </trkpt>
      <trkpt lat="43.60519" lon="1.19613">
        <ele>237</ele>
        <time>2020-10-03T09:35:15.000Z</time>
      </trkpt>
      <trkpt lat="43.6052" lon="1.19611">
        <ele>237</ele>
        <time>2020-10-03T09:35:16.000Z</time>
      </trkpt>
      <trkpt lat="43.60521" lon="1.19608">
        <ele>237.38372006489</ele>
        <time>2020-10-03T09:35:17.000Z</time>
      </trkpt>
      <trkpt lat="43.60522" lon="1.19606">
        <ele>238</ele>
        <time>2020-10-03T09:35:18.000Z</time>
      </trkpt>
      <trkpt lat="43.60523" lon="1.19603">
        <ele>238</ele>
        <time>2020-10-03T09:35:19.000Z</time>
      </trkpt>
      <trkpt lat="43.60525" lon="1.196">
        <ele>238.42241103448</ele>
        <time>2020-10-03T09:35:20.000Z</time>
      </trkpt>
      <trkpt lat="43.60526" lon="1.19597">
        <ele>239</ele>
        <time>2020-10-03T09:35:21.000Z</time>
      </trkpt>
      <trkpt lat="43.60527" lon="1.19594">
        <ele>239</ele>
        <time>2020-10-03T09:35:22.000Z</time>
      </trkpt>
      <trkpt lat="43.60528" lon="1.19591">
        <ele>239</ele>
        <time>2020-10-03T09:35:23.000Z</time>
      </trkpt>
      <trkpt lat="43.60529" lon="1.19588">
        <ele>239</ele>
        <time>2020-10-03T09:35:24.000Z</time>
      </trkpt>
      <trkpt lat="43.6053" lon="1.19585">
        <ele>239</ele>
        <time>2020-10-03T09:35:25.000Z</time>
      </trkpt>
      <trkpt lat="43.60532" lon="1.19582">
        <ele>239</ele>
        <time>2020-10-03T09:35:26.000Z</time>
      </trkpt>
      <trkpt lat="43.60533" lon="1.19579">
        <ele>239</ele>
        <time>2020-10-03T09:35:27.000Z</time>
      </trkpt>
      <trkpt lat="43.60535" lon="1.19577">
        <ele>238.66935741936</ele>
        <time>2020-10-03T09:35:28.000Z</time>
      </trkpt>
      <trkpt lat="43.60536" lon="1.19573">
        <ele>238</ele>
        <time>2020-10-03T09:35:29.000Z</time>
      </trkpt>
      <trkpt lat="43.60538" lon="1.1957">
        <ele>238</ele>
        <time>2020-10-03T09:35:30.000Z</time>
      </trkpt>
      <trkpt lat="43.60539" lon="1.19567">
        <ele>238</ele>
        <time>2020-10-03T09:35:31.000Z</time>
      </trkpt>
      <trkpt lat="43.60541" lon="1.19564">
        <ele>238</ele>
        <time>2020-10-03T09:35:32.000Z</time>
      </trkpt>
      <trkpt lat="43.60542" lon="1.1956">
        <ele>238</ele>
        <time>2020-10-03T09:35:33.000Z</time>
      </trkpt>
      <trkpt lat="43.60543" lon="1.19557">
        <ele>238</ele>
        <time>2020-10-03T09:35:34.000Z</time>
      </trkpt>
      <trkpt lat="43.60545" lon="1.19554">
        <ele>238</ele>
        <time>2020-10-03T09:35:35.000Z</time>
      </trkpt>
      <trkpt lat="43.60546" lon="1.19551">
        <ele>238</ele>
        <time>2020-10-03T09:35:36.000Z</time>
      </trkpt>
      <trkpt lat="43.60547" lon="1.19548">
        <ele>238</ele>
        <time>2020-10-03T09:35:37.000Z</time>
      </trkpt>
      <trkpt lat="43.60549" lon="1.19546">
        <ele>238</ele>
        <time>2020-10-03T09:35:38.000Z</time>
      </trkpt>
      <trkpt lat="43.60551" lon="1.19543">
        <ele>238.45714425034</ele>
        <time>2020-10-03T09:35:39.000Z</time>
      </trkpt>
      <trkpt lat="43.60552" lon="1.1954">
        <ele>239</ele>
        <time>2020-10-03T09:35:40.000Z</time>
      </trkpt>
      <trkpt lat="43.60554" lon="1.19536">
        <ele>239</ele>
        <time>2020-10-03T09:35:41.000Z</time>
      </trkpt>
      <trkpt lat="43.60555" lon="1.19532">
        <ele>239</ele>
        <time>2020-10-03T09:35:42.000Z</time>
      </trkpt>
      <trkpt lat="43.60556" lon="1.19529">
        <ele>239</ele>
        <time>2020-10-03T09:35:43.000Z</time>
      </trkpt>
      <trkpt lat="43.60557" lon="1.19525">
        <ele>239</ele>
        <time>2020-10-03T09:35:44.000Z</time>
      </trkpt>
      <trkpt lat="43.60559" lon="1.19522">
        <ele>239</ele>
        <time>2020-10-03T09:35:45.000Z</time>
      </trkpt>
      <trkpt lat="43.6056" lon="1.19519">
        <ele>239</ele>
        <time>2020-10-03T09:35:46.000Z</time>
      </trkpt>
      <trkpt lat="43.60561" lon="1.19515">
        <ele>239</ele>
        <time>2020-10-03T09:35:47.000Z</time>
      </trkpt>
      <trkpt lat="43.60563" lon="1.19512">
        <ele>239</ele>
        <time>2020-10-03T09:35:48.000Z</time>
      </trkpt>
      <trkpt lat="43.60564" lon="1.19509">
        <ele>239</ele>
        <time>2020-10-03T09:35:49.000Z</time>
      </trkpt>
      <trkpt lat="43.60566" lon="1.19505">
        <ele>239</ele>
        <time>2020-10-03T09:35:50.000Z</time>
      </trkpt>
      <trkpt lat="43.60568" lon="1.19501">
        <ele>239</ele>
        <time>2020-10-03T09:35:51.000Z</time>
      </trkpt>
      <trkpt lat="43.60569" lon="1.19497">
        <ele>239</ele>
        <time>2020-10-03T09:35:52.000Z</time>
      </trkpt>
      <trkpt lat="43.60571" lon="1.19493">
        <ele>239</ele>
        <time>2020-10-03T09:35:53.000Z</time>
      </trkpt>
      <trkpt lat="43.60572" lon="1.1949">
        <ele>239</ele>
        <time>2020-10-03T09:35:54.000Z</time>
      </trkpt>
      <trkpt lat="43.60573" lon="1.19486">
        <ele>239</ele>
        <time>2020-10-03T09:35:55.000Z</time>
      </trkpt>
      <trkpt lat="43.60574" lon="1.19482">
        <ele>239</ele>
        <time>2020-10-03T09:35:56.000Z</time>
      </trkpt>
      <trkpt lat="43.60575" lon="1.19478">
        <ele>239</ele>
        <time>2020-10-03T09:35:57.000Z</time>
      </trkpt>
      <trkpt lat="43.60576" lon="1.19474">
        <ele>239</ele>
        <time>2020-10-03T09:35:58.000Z</time>
      </trkpt>
      <trkpt lat="43.60578" lon="1.1947">
        <ele>239</ele>
        <time>2020-10-03T09:35:59.000Z</time>
      </trkpt>
      <trkpt lat="43.60579" lon="1.19466">
        <ele>239</ele>
        <time>2020-10-03T09:36:00.000Z</time>
      </trkpt>
      <trkpt lat="43.60581" lon="1.19463">
        <ele>239</ele>
        <time>2020-10-03T09:36:01.000Z</time>
      </trkpt>
      <trkpt lat="43.60582" lon="1.1946">
        <ele>239</ele>
        <time>2020-10-03T09:36:02.000Z</time>
      </trkpt>
      <trkpt lat="43.60584" lon="1.19456">
        <ele>239</ele>
        <time>2020-10-03T09:36:03.000Z</time>
      </trkpt>
      <trkpt lat="43.60585" lon="1.19453">
        <ele>239</ele>
        <time>2020-10-03T09:36:04.000Z</time>
      </trkpt>
      <trkpt lat="43.60586" lon="1.19449">
        <ele>239</ele>
        <time>2020-10-03T09:36:05.000Z</time>
      </trkpt>
      <trkpt lat="43.60587" lon="1.19446">
        <ele>239</ele>
        <time>2020-10-03T09:36:06.000Z</time>
      </trkpt>
      <trkpt lat="43.60589" lon="1.19443">
        <ele>239</ele>
        <time>2020-10-03T09:36:07.000Z</time>
      </trkpt>
      <trkpt lat="43.6059" lon="1.1944">
        <ele>239</ele>
        <time>2020-10-03T09:36:08.000Z</time>
      </trkpt>
      <trkpt lat="43.60592" lon="1.19436">
        <ele>239</ele>
        <time>2020-10-03T09:36:09.000Z</time>
      </trkpt>
      <trkpt lat="43.60593" lon="1.19433">
        <ele>239</ele>
        <time>2020-10-03T09:36:10.000Z</time>
      </trkpt>
      <trkpt lat="43.60595" lon="1.1943">
        <ele>239</ele>
        <time>2020-10-03T09:36:11.000Z</time>
      </trkpt>
      <trkpt lat="43.60596" lon="1.19427">
        <ele>239</ele>
        <time>2020-10-03T09:36:12.000Z</time>
      </trkpt>
      <trkpt lat="43.60597" lon="1.19423">
        <ele>239</ele>
        <time>2020-10-03T09:36:13.000Z</time>
      </trkpt>
      <trkpt lat="43.60598" lon="1.1942">
        <ele>239</ele>
        <time>2020-10-03T09:36:14.000Z</time>
      </trkpt>
      <trkpt lat="43.606" lon="1.19416">
        <ele>239</ele>
        <time>2020-10-03T09:36:15.000Z</time>
      </trkpt>
      <trkpt lat="43.60601" lon="1.19412">
        <ele>239</ele>
        <time>2020-10-03T09:36:16.000Z</time>
      </trkpt>
      <trkpt lat="43.60603" lon="1.19408">
        <ele>239</ele>
        <time>2020-10-03T09:36:17.000Z</time>
      </trkpt>
      <trkpt lat="43.60605" lon="1.19404">
        <ele>239</ele>
        <time>2020-10-03T09:36:18.000Z</time>
      </trkpt>
      <trkpt lat="43.60607" lon="1.194">
        <ele>239</ele>
        <time>2020-10-03T09:36:19.000Z</time>
      </trkpt>
      <trkpt lat="43.60609" lon="1.19397">
        <ele>239</ele>
        <time>2020-10-03T09:36:20.000Z</time>
      </trkpt>
      <trkpt lat="43.6061" lon="1.19394">
        <ele>239</ele>
        <time>2020-10-03T09:36:21.000Z</time>
      </trkpt>
      <trkpt lat="43.60612" lon="1.19391">
        <ele>239</ele>
        <time>2020-10-03T09:36:22.000Z</time>
      </trkpt>
      <trkpt lat="43.60613" lon="1.19387">
        <ele>239</ele>
        <time>2020-10-03T09:36:23.000Z</time>
      </trkpt>
      <trkpt lat="43.60615" lon="1.19384">
        <ele>239</ele>
        <time>2020-10-03T09:36:24.000Z</time>
      </trkpt>
      <trkpt lat="43.60617" lon="1.1938">
        <ele>239</ele>
        <time>2020-10-03T09:36:25.000Z</time>
      </trkpt>
      <trkpt lat="43.60618" lon="1.19376">
        <ele>239</ele>
        <time>2020-10-03T09:36:26.000Z</time>
      </trkpt>
      <trkpt lat="43.60619" lon="1.19372">
        <ele>239</ele>
        <time>2020-10-03T09:36:27.000Z</time>
      </trkpt>
      <trkpt lat="43.60621" lon="1.19368">
        <ele>239</ele>
        <time>2020-10-03T09:36:28.000Z</time>
      </trkpt>
      <trkpt lat="43.60624" lon="1.19361">
        <ele>239</ele>
        <time>2020-10-03T09:36:30.000Z</time>
      </trkpt>
      <trkpt lat="43.60626" lon="1.19357">
        <ele>239</ele>
        <time>2020-10-03T09:36:31.000Z</time>
      </trkpt>
      <trkpt lat="43.60627" lon="1.19353">
        <ele>239</ele>
        <time>2020-10-03T09:36:32.000Z</time>
      </trkpt>
      <trkpt lat="43.60629" lon="1.19349">
        <ele>239.3333294895</ele>
        <time>2020-10-03T09:36:33.000Z</time>
      </trkpt>
      <trkpt lat="43.6063" lon="1.19346">
        <ele>240</ele>
        <time>2020-10-03T09:36:34.000Z</time>
      </trkpt>
      <trkpt lat="43.60632" lon="1.19342">
        <ele>240</ele>
        <time>2020-10-03T09:36:35.000Z</time>
      </trkpt>
      <trkpt lat="43.60633" lon="1.19338">
        <ele>240</ele>
        <time>2020-10-03T09:36:36.000Z</time>
      </trkpt>
      <trkpt lat="43.60635" lon="1.19334">
        <ele>240</ele>
        <time>2020-10-03T09:36:37.000Z</time>
      </trkpt>
      <trkpt lat="43.60636" lon="1.19331">
        <ele>240</ele>
        <time>2020-10-03T09:36:38.000Z</time>
      </trkpt>
      <trkpt lat="43.60638" lon="1.19327">
        <ele>240</ele>
        <time>2020-10-03T09:36:39.000Z</time>
      </trkpt>
      <trkpt lat="43.60639" lon="1.19324">
        <ele>240</ele>
        <time>2020-10-03T09:36:40.000Z</time>
      </trkpt>
      <trkpt lat="43.60641" lon="1.1932">
        <ele>240</ele>
        <time>2020-10-03T09:36:41.000Z</time>
      </trkpt>
      <trkpt lat="43.60642" lon="1.19317">
        <ele>240</ele>
        <time>2020-10-03T09:36:42.000Z</time>
      </trkpt>
      <trkpt lat="43.60644" lon="1.19314">
        <ele>240</ele>
        <time>2020-10-03T09:36:43.000Z</time>
      </trkpt>
      <trkpt lat="43.60646" lon="1.19311">
        <ele>240</ele>
        <time>2020-10-03T09:36:44.000Z</time>
      </trkpt>
      <trkpt lat="43.60647" lon="1.19307">
        <ele>239.54838487689</ele>
        <time>2020-10-03T09:36:45.000Z</time>
      </trkpt>
      <trkpt lat="43.60648" lon="1.19303">
        <ele>239</ele>
        <time>2020-10-03T09:36:46.000Z</time>
      </trkpt>
      <trkpt lat="43.60648" lon="1.193">
        <ele>239</ele>
        <time>2020-10-03T09:36:47.000Z</time>
      </trkpt>
      <trkpt lat="43.60649" lon="1.19297">
        <ele>239</ele>
        <time>2020-10-03T09:36:48.000Z</time>
      </trkpt>
      <trkpt lat="43.60648" lon="1.19293">
        <ele>239</ele>
        <time>2020-10-03T09:36:49.000Z</time>
      </trkpt>
      <trkpt lat="43.60648" lon="1.1929">
        <ele>239</ele>
        <time>2020-10-03T09:36:50.000Z</time>
      </trkpt>
      <trkpt lat="43.60647" lon="1.19287">
        <ele>239</ele>
        <time>2020-10-03T09:36:51.000Z</time>
      </trkpt>
      <trkpt lat="43.60646" lon="1.19283">
        <ele>239</ele>
        <time>2020-10-03T09:36:52.000Z</time>
      </trkpt>
      <trkpt lat="43.60644" lon="1.1928">
        <ele>239</ele>
        <time>2020-10-03T09:36:53.000Z</time>
      </trkpt>
      <trkpt lat="43.60643" lon="1.19277">
        <ele>239</ele>
        <time>2020-10-03T09:36:54.000Z</time>
      </trkpt>
      <trkpt lat="43.60641" lon="1.19273">
        <ele>239</ele>
        <time>2020-10-03T09:36:55.000Z</time>
      </trkpt>
      <trkpt lat="43.6064" lon="1.19269">
        <ele>239</ele>
        <time>2020-10-03T09:36:56.000Z</time>
      </trkpt>
      <trkpt lat="43.60638" lon="1.19266">
        <ele>239</ele>
        <time>2020-10-03T09:36:57.000Z</time>
      </trkpt>
      <trkpt lat="43.60636" lon="1.19263">
        <ele>239</ele>
        <time>2020-10-03T09:36:58.000Z</time>
      </trkpt>
      <trkpt lat="43.60634" lon="1.1926">
        <ele>239</ele>
        <time>2020-10-03T09:36:59.000Z</time>
      </trkpt>
      <trkpt lat="43.60633" lon="1.19256">
        <ele>239</ele>
        <time>2020-10-03T09:37:00.000Z</time>
      </trkpt>
      <trkpt lat="43.60631" lon="1.19253">
        <ele>239.48979271972</ele>
        <time>2020-10-03T09:37:01.000Z</time>
      </trkpt>
      <trkpt lat="43.60629" lon="1.1925">
        <ele>240</ele>
        <time>2020-10-03T09:37:02.000Z</time>
      </trkpt>
      <trkpt lat="43.60627" lon="1.19248">
        <ele>240</ele>
        <time>2020-10-03T09:37:03.000Z</time>
      </trkpt>
      <trkpt lat="43.60624" lon="1.19246">
        <ele>240</ele>
        <time>2020-10-03T09:37:04.000Z</time>
      </trkpt>
      <trkpt lat="43.60622" lon="1.19244">
        <ele>240</ele>
        <time>2020-10-03T09:37:05.000Z</time>
      </trkpt>
      <trkpt lat="43.60619" lon="1.19242">
        <ele>240</ele>
        <time>2020-10-03T09:37:06.000Z</time>
      </trkpt>
      <trkpt lat="43.60616" lon="1.1924">
        <ele>239.96153467459</ele>
        <time>2020-10-03T09:37:07.000Z</time>
      </trkpt>
      <trkpt lat="43.60614" lon="1.19239">
        <ele>239</ele>
        <time>2020-10-03T09:37:08.000Z</time>
      </trkpt>
      <trkpt lat="43.60611" lon="1.19237">
        <ele>239</ele>
        <time>2020-10-03T09:37:09.000Z</time>
      </trkpt>
      <trkpt lat="43.60608" lon="1.19236">
        <ele>239</ele>
        <time>2020-10-03T09:37:10.000Z</time>
      </trkpt>
      <trkpt lat="43.60606" lon="1.19234">
        <ele>239.26548181375</ele>
        <time>2020-10-03T09:37:11.000Z</time>
      </trkpt>
      <trkpt lat="43.60603" lon="1.19232">
        <ele>240</ele>
        <time>2020-10-03T09:37:12.000Z</time>
      </trkpt>
      <trkpt lat="43.606" lon="1.1923">
        <ele>240</ele>
        <time>2020-10-03T09:37:13.000Z</time>
      </trkpt>
      <trkpt lat="43.60597" lon="1.19228">
        <ele>239.56817454546</ele>
        <time>2020-10-03T09:37:14.000Z</time>
      </trkpt>
      <trkpt lat="43.60594" lon="1.19226">
        <ele>239</ele>
        <time>2020-10-03T09:37:15.000Z</time>
      </trkpt>
      <trkpt lat="43.60592" lon="1.19224">
        <ele>239</ele>
        <time>2020-10-03T09:37:16.000Z</time>
      </trkpt>
      <trkpt lat="43.60589" lon="1.19222">
        <ele>239</ele>
        <time>2020-10-03T09:37:17.000Z</time>
      </trkpt>
      <trkpt lat="43.60587" lon="1.1922">
        <ele>239</ele>
        <time>2020-10-03T09:37:18.000Z</time>
      </trkpt>
      <trkpt lat="43.60584" lon="1.19218">
        <ele>239</ele>
        <time>2020-10-03T09:37:19.000Z</time>
      </trkpt>
      <trkpt lat="43.60582" lon="1.19216">
        <ele>239</ele>
        <time>2020-10-03T09:37:20.000Z</time>
      </trkpt>
      <trkpt lat="43.60579" lon="1.19214">
        <ele>239</ele>
        <time>2020-10-03T09:37:21.000Z</time>
      </trkpt>
      <trkpt lat="43.60576" lon="1.19212">
        <ele>238.68539212725</ele>
        <time>2020-10-03T09:37:22.000Z</time>
      </trkpt>
      <trkpt lat="43.60574" lon="1.1921">
        <ele>238</ele>
        <time>2020-10-03T09:37:23.000Z</time>
      </trkpt>
      <trkpt lat="43.60571" lon="1.19207">
        <ele>237.54955141954</ele>
        <time>2020-10-03T09:37:24.000Z</time>
      </trkpt>
      <trkpt lat="43.60568" lon="1.19205">
        <ele>237</ele>
        <time>2020-10-03T09:37:25.000Z</time>
      </trkpt>
      <trkpt lat="43.60566" lon="1.19203">
        <ele>237</ele>
        <time>2020-10-03T09:37:26.000Z</time>
      </trkpt>
      <trkpt lat="43.60563" lon="1.19201">
        <ele>237</ele>
        <time>2020-10-03T09:37:27.000Z</time>
      </trkpt>
      <trkpt lat="43.60561" lon="1.19198">
        <ele>237</ele>
        <time>2020-10-03T09:37:28.000Z</time>
      </trkpt>
      <trkpt lat="43.60558" lon="1.19196">
        <ele>237</ele>
        <time>2020-10-03T09:37:29.000Z</time>
      </trkpt>
      <trkpt lat="43.60555" lon="1.19194">
        <ele>236.56179258173</ele>
        <time>2020-10-03T09:37:30.000Z</time>
      </trkpt>
      <trkpt lat="43.60553" lon="1.19192">
        <ele>236</ele>
        <time>2020-10-03T09:37:31.000Z</time>
      </trkpt>
      <trkpt lat="43.6055" lon="1.1919">
        <ele>235.5666661926</ele>
        <time>2020-10-03T09:37:32.000Z</time>
      </trkpt>
      <trkpt lat="43.60547" lon="1.19188">
        <ele>235</ele>
        <time>2020-10-03T09:37:33.000Z</time>
      </trkpt>
      <trkpt lat="43.60544" lon="1.19186">
        <ele>235</ele>
        <time>2020-10-03T09:37:34.000Z</time>
      </trkpt>
      <trkpt lat="43.60541" lon="1.19184">
        <ele>235.4454542281</ele>
        <time>2020-10-03T09:37:35.000Z</time>
      </trkpt>
      <trkpt lat="43.60538" lon="1.19182">
        <ele>236</ele>
        <time>2020-10-03T09:37:36.000Z</time>
      </trkpt>
      <trkpt lat="43.60536" lon="1.1918">
        <ele>236</ele>
        <time>2020-10-03T09:37:37.000Z</time>
      </trkpt>
      <trkpt lat="43.60532" lon="1.19178">
        <ele>235.59523954651</ele>
        <time>2020-10-03T09:37:38.000Z</time>
      </trkpt>
      <trkpt lat="43.6053" lon="1.19175">
        <ele>235</ele>
        <time>2020-10-03T09:37:39.000Z</time>
      </trkpt>
      <trkpt lat="43.60527" lon="1.19173">
        <ele>234.5666661926</ele>
        <time>2020-10-03T09:37:40.000Z</time>
      </trkpt>
      <trkpt lat="43.60524" lon="1.19171">
        <ele>234</ele>
        <time>2020-10-03T09:37:41.000Z</time>
      </trkpt>
      <trkpt lat="43.60521" lon="1.19169">
        <ele>234.43820741827</ele>
        <time>2020-10-03T09:37:42.000Z</time>
      </trkpt>
      <trkpt lat="43.60518" lon="1.19167">
        <ele>234.63767820207</ele>
        <time>2020-10-03T09:37:43.000Z</time>
      </trkpt>
      <trkpt lat="43.60515" lon="1.19165">
        <ele>234</ele>
        <time>2020-10-03T09:37:44.000Z</time>
      </trkpt>
      <trkpt lat="43.60512" lon="1.19162">
        <ele>234</ele>
        <time>2020-10-03T09:37:45.000Z</time>
      </trkpt>
      <trkpt lat="43.60509" lon="1.1916">
        <ele>234</ele>
        <time>2020-10-03T09:37:46.000Z</time>
      </trkpt>
      <trkpt lat="43.60507" lon="1.19158">
        <ele>234</ele>
        <time>2020-10-03T09:37:47.000Z</time>
      </trkpt>
      <trkpt lat="43.60504" lon="1.19156">
        <ele>233.05769846154</ele>
        <time>2020-10-03T09:37:48.000Z</time>
      </trkpt>
      <trkpt lat="43.60502" lon="1.19153">
        <ele>232</ele>
        <time>2020-10-03T09:37:49.000Z</time>
      </trkpt>
      <trkpt lat="43.60499" lon="1.19151">
        <ele>231.61798334556</ele>
        <time>2020-10-03T09:37:50.000Z</time>
      </trkpt>
      <trkpt lat="43.60496" lon="1.19149">
        <ele>231</ele>
        <time>2020-10-03T09:37:51.000Z</time>
      </trkpt>
      <trkpt lat="43.60494" lon="1.19147">
        <ele>231</ele>
        <time>2020-10-03T09:37:52.000Z</time>
      </trkpt>
      <trkpt lat="43.60491" lon="1.19145">
        <ele>231</ele>
        <time>2020-10-03T09:37:53.000Z</time>
      </trkpt>
      <trkpt lat="43.60489" lon="1.19142">
        <ele>231</ele>
        <time>2020-10-03T09:37:54.000Z</time>
      </trkpt>
      <trkpt lat="43.60486" lon="1.1914">
        <ele>231</ele>
        <time>2020-10-03T09:37:55.000Z</time>
      </trkpt>
      <trkpt lat="43.60483" lon="1.19138">
        <ele>231</ele>
        <time>2020-10-03T09:37:56.000Z</time>
      </trkpt>
      <trkpt lat="43.6048" lon="1.19136">
        <ele>231</ele>
        <time>2020-10-03T09:37:57.000Z</time>
      </trkpt>
      <trkpt lat="43.60478" lon="1.19133">
        <ele>231</ele>
        <time>2020-10-03T09:37:58.000Z</time>
      </trkpt>
      <trkpt lat="43.60476" lon="1.19131">
        <ele>231</ele>
        <time>2020-10-03T09:37:59.000Z</time>
      </trkpt>
      <trkpt lat="43.60473" lon="1.19128">
        <ele>231</ele>
        <time>2020-10-03T09:38:00.000Z</time>
      </trkpt>
      <trkpt lat="43.60471" lon="1.19126">
        <ele>230.64285931976</ele>
        <time>2020-10-03T09:38:01.000Z</time>
      </trkpt>
      <trkpt lat="43.60468" lon="1.19124">
        <ele>230</ele>
        <time>2020-10-03T09:38:02.000Z</time>
      </trkpt>
      <trkpt lat="43.60466" lon="1.19122">
        <ele>230</ele>
        <time>2020-10-03T09:38:03.000Z</time>
      </trkpt>
      <trkpt lat="43.60464" lon="1.1912">
        <ele>230</ele>
        <time>2020-10-03T09:38:04.000Z</time>
      </trkpt>
      <trkpt lat="43.60462" lon="1.19118">
        <ele>230</ele>
        <time>2020-10-03T09:38:05.000Z</time>
      </trkpt>
      <trkpt lat="43.60459" lon="1.19115">
        <ele>230</ele>
        <time>2020-10-03T09:38:06.000Z</time>
      </trkpt>
      <trkpt lat="43.60457" lon="1.19113">
        <ele>230</ele>
        <time>2020-10-03T09:38:07.000Z</time>
      </trkpt>
      <trkpt lat="43.60455" lon="1.19111">
        <ele>230</ele>
        <time>2020-10-03T09:38:08.000Z</time>
      </trkpt>
      <trkpt lat="43.60452" lon="1.19109">
        <ele>230</ele>
        <time>2020-10-03T09:38:09.000Z</time>
      </trkpt>
      <trkpt lat="43.6045" lon="1.19107">
        <ele>230</ele>
        <time>2020-10-03T09:38:10.000Z</time>
      </trkpt>
      <trkpt lat="43.60448" lon="1.19105">
        <ele>230</ele>
        <time>2020-10-03T09:38:11.000Z</time>
      </trkpt>
      <trkpt lat="43.60445" lon="1.19103">
        <ele>230</ele>
        <time>2020-10-03T09:38:12.000Z</time>
      </trkpt>
      <trkpt lat="43.60443" lon="1.19101">
        <ele>230</ele>
        <time>2020-10-03T09:38:13.000Z</time>
      </trkpt>
      <trkpt lat="43.60441" lon="1.19099">
        <ele>230</ele>
        <time>2020-10-03T09:38:14.000Z</time>
      </trkpt>
      <trkpt lat="43.60438" lon="1.19097">
        <ele>230</ele>
        <time>2020-10-03T09:38:15.000Z</time>
      </trkpt>
      <trkpt lat="43.60436" lon="1.19095">
        <ele>230</ele>
        <time>2020-10-03T09:38:16.000Z</time>
      </trkpt>
      <trkpt lat="43.60433" lon="1.19093">
        <ele>230</ele>
        <time>2020-10-03T09:38:17.000Z</time>
      </trkpt>
      <trkpt lat="43.60431" lon="1.19091">
        <ele>230</ele>
        <time>2020-10-03T09:38:18.000Z</time>
      </trkpt>
      <trkpt lat="43.60428" lon="1.19089">
        <ele>230.28205717286</ele>
        <time>2020-10-03T09:38:19.000Z</time>
      </trkpt>
      <trkpt lat="43.60425" lon="1.19087">
        <ele>232</ele>
        <time>2020-10-03T09:38:20.000Z</time>
      </trkpt>
      <trkpt lat="43.60423" lon="1.19086">
        <ele>232</ele>
        <time>2020-10-03T09:38:21.000Z</time>
      </trkpt>
      <trkpt lat="43.6042" lon="1.19084">
        <ele>232</ele>
        <time>2020-10-03T09:38:22.000Z</time>
      </trkpt>
      <trkpt lat="43.60418" lon="1.19083">
        <ele>232</ele>
        <time>2020-10-03T09:38:23.000Z</time>
      </trkpt>
      <trkpt lat="43.60416" lon="1.19081">
        <ele>232</ele>
        <time>2020-10-03T09:38:24.000Z</time>
      </trkpt>
      <trkpt lat="43.60414" lon="1.1908">
        <ele>232</ele>
        <time>2020-10-03T09:38:25.000Z</time>
      </trkpt>
      <trkpt lat="43.60411" lon="1.19078">
        <ele>232</ele>
        <time>2020-10-03T09:38:26.000Z</time>
      </trkpt>
      <trkpt lat="43.60409" lon="1.19075">
        <ele>232</ele>
        <time>2020-10-03T09:38:27.000Z</time>
      </trkpt>
      <trkpt lat="43.60407" lon="1.19073">
        <ele>232</ele>
        <time>2020-10-03T09:38:28.000Z</time>
      </trkpt>
      <trkpt lat="43.60404" lon="1.19071">
        <ele>232</ele>
        <time>2020-10-03T09:38:29.000Z</time>
      </trkpt>
      <trkpt lat="43.60401" lon="1.19069">
        <ele>232</ele>
        <time>2020-10-03T09:38:30.000Z</time>
      </trkpt>
      <trkpt lat="43.60399" lon="1.19067">
        <ele>232</ele>
        <time>2020-10-03T09:38:31.000Z</time>
      </trkpt>
      <trkpt lat="43.60396" lon="1.19065">
        <ele>232</ele>
        <time>2020-10-03T09:38:32.000Z</time>
      </trkpt>
      <trkpt lat="43.60394" lon="1.19063">
        <ele>232.4424797807</ele>
        <time>2020-10-03T09:38:33.000Z</time>
      </trkpt>
      <trkpt lat="43.60391" lon="1.19061">
        <ele>233</ele>
        <time>2020-10-03T09:38:34.000Z</time>
      </trkpt>
      <trkpt lat="43.60389" lon="1.1906">
        <ele>233.05128163051</ele>
        <time>2020-10-03T09:38:35.000Z</time>
      </trkpt>
      <trkpt lat="43.60386" lon="1.19058">
        <ele>234</ele>
        <time>2020-10-03T09:38:36.000Z</time>
      </trkpt>
      <trkpt lat="43.60384" lon="1.19056">
        <ele>234</ele>
        <time>2020-10-03T09:38:37.000Z</time>
      </trkpt>
      <trkpt lat="43.60382" lon="1.19054">
        <ele>234</ele>
        <time>2020-10-03T09:38:38.000Z</time>
      </trkpt>
      <trkpt lat="43.60379" lon="1.19052">
        <ele>234</ele>
        <time>2020-10-03T09:38:39.000Z</time>
      </trkpt>
      <trkpt lat="43.60377" lon="1.1905">
        <ele>234</ele>
        <time>2020-10-03T09:38:40.000Z</time>
      </trkpt>
      <trkpt lat="43.60375" lon="1.19048">
        <ele>234.34306562523</ele>
        <time>2020-10-03T09:38:41.000Z</time>
      </trkpt>
      <trkpt lat="43.60373" lon="1.19046">
        <ele>235</ele>
        <time>2020-10-03T09:38:42.000Z</time>
      </trkpt>
      <trkpt lat="43.6037" lon="1.19044">
        <ele>235</ele>
        <time>2020-10-03T09:38:43.000Z</time>
      </trkpt>
      <trkpt lat="43.60368" lon="1.19042">
        <ele>235</ele>
        <time>2020-10-03T09:38:44.000Z</time>
      </trkpt>
      <trkpt lat="43.60365" lon="1.19041">
        <ele>235</ele>
        <time>2020-10-03T09:38:45.000Z</time>
      </trkpt>
      <trkpt lat="43.60362" lon="1.19039">
        <ele>235</ele>
        <time>2020-10-03T09:38:46.000Z</time>
      </trkpt>
      <trkpt lat="43.6036" lon="1.19037">
        <ele>235</ele>
        <time>2020-10-03T09:38:47.000Z</time>
      </trkpt>
      <trkpt lat="43.60357" lon="1.19035">
        <ele>235</ele>
        <time>2020-10-03T09:38:48.000Z</time>
      </trkpt>
      <trkpt lat="43.60355" lon="1.19033">
        <ele>235</ele>
        <time>2020-10-03T09:38:49.000Z</time>
      </trkpt>
      <trkpt lat="43.60353" lon="1.19032">
        <ele>234.63094857143</ele>
        <time>2020-10-03T09:38:50.000Z</time>
      </trkpt>
      <trkpt lat="43.60351" lon="1.1903">
        <ele>234</ele>
        <time>2020-10-03T09:38:51.000Z</time>
      </trkpt>
      <trkpt lat="43.60348" lon="1.19027">
        <ele>234</ele>
        <time>2020-10-03T09:38:52.000Z</time>
      </trkpt>
      <trkpt lat="43.60345" lon="1.19026">
        <ele>233.96152710087</ele>
        <time>2020-10-03T09:38:53.000Z</time>
      </trkpt>
      <trkpt lat="43.60343" lon="1.19024">
        <ele>233</ele>
        <time>2020-10-03T09:38:54.000Z</time>
      </trkpt>
      <trkpt lat="43.6034" lon="1.19021">
        <ele>233</ele>
        <time>2020-10-03T09:38:55.000Z</time>
      </trkpt>
      <trkpt lat="43.60338" lon="1.19019">
        <ele>233</ele>
        <time>2020-10-03T09:38:56.000Z</time>
      </trkpt>
      <trkpt lat="43.60336" lon="1.19017">
        <ele>233</ele>
        <time>2020-10-03T09:38:57.000Z</time>
      </trkpt>
      <trkpt lat="43.60333" lon="1.19014">
        <ele>233</ele>
        <time>2020-10-03T09:38:58.000Z</time>
      </trkpt>
      <trkpt lat="43.6033" lon="1.19012">
        <ele>233</ele>
        <time>2020-10-03T09:38:59.000Z</time>
      </trkpt>
      <trkpt lat="43.60328" lon="1.19011">
        <ele>233</ele>
        <time>2020-10-03T09:39:00.000Z</time>
      </trkpt>
      <trkpt lat="43.60325" lon="1.19008">
        <ele>233</ele>
        <time>2020-10-03T09:39:01.000Z</time>
      </trkpt>
      <trkpt lat="43.60322" lon="1.19006">
        <ele>233</ele>
        <time>2020-10-03T09:39:02.000Z</time>
      </trkpt>
      <trkpt lat="43.60319" lon="1.19004">
        <ele>233</ele>
        <time>2020-10-03T09:39:03.000Z</time>
      </trkpt>
      <trkpt lat="43.60317" lon="1.19002">
        <ele>233</ele>
        <time>2020-10-03T09:39:04.000Z</time>
      </trkpt>
      <trkpt lat="43.60314" lon="1.19">
        <ele>232.577986284</ele>
        <time>2020-10-03T09:39:05.000Z</time>
      </trkpt>
      <trkpt lat="43.60311" lon="1.18998">
        <ele>232</ele>
        <time>2020-10-03T09:39:06.000Z</time>
      </trkpt>
      <trkpt lat="43.60309" lon="1.18996">
        <ele>232</ele>
        <time>2020-10-03T09:39:07.000Z</time>
      </trkpt>
      <trkpt lat="43.60306" lon="1.18993">
        <ele>232</ele>
        <time>2020-10-03T09:39:08.000Z</time>
      </trkpt>
      <trkpt lat="43.60303" lon="1.18991">
        <ele>232</ele>
        <time>2020-10-03T09:39:09.000Z</time>
      </trkpt>
      <trkpt lat="43.60301" lon="1.18989">
        <ele>232</ele>
        <time>2020-10-03T09:39:10.000Z</time>
      </trkpt>
      <trkpt lat="43.60298" lon="1.18986">
        <ele>232</ele>
        <time>2020-10-03T09:39:11.000Z</time>
      </trkpt>
      <trkpt lat="43.60296" lon="1.18984">
        <ele>232</ele>
        <time>2020-10-03T09:39:12.000Z</time>
      </trkpt>
      <trkpt lat="43.60293" lon="1.18982">
        <ele>232</ele>
        <time>2020-10-03T09:39:13.000Z</time>
      </trkpt>
      <trkpt lat="43.60291" lon="1.1898">
        <ele>232</ele>
        <time>2020-10-03T09:39:14.000Z</time>
      </trkpt>
      <trkpt lat="43.60288" lon="1.18978">
        <ele>232</ele>
        <time>2020-10-03T09:39:15.000Z</time>
      </trkpt>
      <trkpt lat="43.60286" lon="1.18976">
        <ele>232</ele>
        <time>2020-10-03T09:39:16.000Z</time>
      </trkpt>
      <trkpt lat="43.60283" lon="1.18973">
        <ele>232</ele>
        <time>2020-10-03T09:39:17.000Z</time>
      </trkpt>
      <trkpt lat="43.60281" lon="1.18971">
        <ele>232</ele>
        <time>2020-10-03T09:39:18.000Z</time>
      </trkpt>
      <trkpt lat="43.60278" lon="1.18969">
        <ele>231.64285583675</ele>
        <time>2020-10-03T09:39:19.000Z</time>
      </trkpt>
      <trkpt lat="43.60276" lon="1.18967">
        <ele>231</ele>
        <time>2020-10-03T09:39:20.000Z</time>
      </trkpt>
      <trkpt lat="43.60273" lon="1.18965">
        <ele>231</ele>
        <time>2020-10-03T09:39:21.000Z</time>
      </trkpt>
      <trkpt lat="43.60271" lon="1.18963">
        <ele>231</ele>
        <time>2020-10-03T09:39:22.000Z</time>
      </trkpt>
      <trkpt lat="43.60269" lon="1.18961">
        <ele>231</ele>
        <time>2020-10-03T09:39:23.000Z</time>
      </trkpt>
      <trkpt lat="43.60266" lon="1.18959">
        <ele>231</ele>
        <time>2020-10-03T09:39:24.000Z</time>
      </trkpt>
      <trkpt lat="43.60264" lon="1.18957">
        <ele>231</ele>
        <time>2020-10-03T09:39:25.000Z</time>
      </trkpt>
      <trkpt lat="43.60262" lon="1.18956">
        <ele>231</ele>
        <time>2020-10-03T09:39:26.000Z</time>
      </trkpt>
      <trkpt lat="43.60259" lon="1.18954">
        <ele>230.75824624084</ele>
        <time>2020-10-03T09:39:27.000Z</time>
      </trkpt>
      <trkpt lat="43.60257" lon="1.18952">
        <ele>230</ele>
        <time>2020-10-03T09:39:28.000Z</time>
      </trkpt>
      <trkpt lat="43.60255" lon="1.1895">
        <ele>230</ele>
        <time>2020-10-03T09:39:29.000Z</time>
      </trkpt>
      <trkpt lat="43.60252" lon="1.18948">
        <ele>229.574711629</ele>
        <time>2020-10-03T09:39:30.000Z</time>
      </trkpt>
      <trkpt lat="43.6025" lon="1.18946">
        <ele>229</ele>
        <time>2020-10-03T09:39:31.000Z</time>
      </trkpt>
      <trkpt lat="43.60248" lon="1.18944">
        <ele>229</ele>
        <time>2020-10-03T09:39:32.000Z</time>
      </trkpt>
      <trkpt lat="43.60245" lon="1.18942">
        <ele>229</ele>
        <time>2020-10-03T09:39:33.000Z</time>
      </trkpt>
      <trkpt lat="43.60243" lon="1.1894">
        <ele>229</ele>
        <time>2020-10-03T09:39:34.000Z</time>
      </trkpt>
      <trkpt lat="43.6024" lon="1.18938">
        <ele>229</ele>
        <time>2020-10-03T09:39:35.000Z</time>
      </trkpt>
      <trkpt lat="43.60238" lon="1.18935">
        <ele>229.44642285714</ele>
        <time>2020-10-03T09:39:36.000Z</time>
      </trkpt>
      <trkpt lat="43.60235" lon="1.18933">
        <ele>230</ele>
        <time>2020-10-03T09:39:37.000Z</time>
      </trkpt>
      <trkpt lat="43.60233" lon="1.18931">
        <ele>230</ele>
        <time>2020-10-03T09:39:38.000Z</time>
      </trkpt>
      <trkpt lat="43.6023" lon="1.18929">
        <ele>230</ele>
        <time>2020-10-03T09:39:39.000Z</time>
      </trkpt>
      <trkpt lat="43.60228" lon="1.18926">
        <ele>229.54347886579</ele>
        <time>2020-10-03T09:39:40.000Z</time>
      </trkpt>
      <trkpt lat="43.60224" lon="1.18924">
        <ele>229</ele>
        <time>2020-10-03T09:39:41.000Z</time>
      </trkpt>
      <trkpt lat="43.60221" lon="1.18922">
        <ele>228.62727346777</ele>
        <time>2020-10-03T09:39:42.000Z</time>
      </trkpt>
      <trkpt lat="43.60218" lon="1.1892">
        <ele>228</ele>
        <time>2020-10-03T09:39:43.000Z</time>
      </trkpt>
      <trkpt lat="43.60216" lon="1.18918">
        <ele>228</ele>
        <time>2020-10-03T09:39:44.000Z</time>
      </trkpt>
      <trkpt lat="43.60212" lon="1.18916">
        <ele>228</ele>
        <time>2020-10-03T09:39:45.000Z</time>
      </trkpt>
      <trkpt lat="43.6021" lon="1.18913">
        <ele>228</ele>
        <time>2020-10-03T09:39:46.000Z</time>
      </trkpt>
      <trkpt lat="43.60207" lon="1.18912">
        <ele>228</ele>
        <time>2020-10-03T09:39:47.000Z</time>
      </trkpt>
      <trkpt lat="43.60204" lon="1.1891">
        <ele>228</ele>
        <time>2020-10-03T09:39:48.000Z</time>
      </trkpt>
      <trkpt lat="43.60202" lon="1.18907">
        <ele>228.40230104901</ele>
        <time>2020-10-03T09:39:49.000Z</time>
      </trkpt>
      <trkpt lat="43.60199" lon="1.18906">
        <ele>229</ele>
        <time>2020-10-03T09:39:50.000Z</time>
      </trkpt>
      <trkpt lat="43.60196" lon="1.18904">
        <ele>229</ele>
        <time>2020-10-03T09:39:51.000Z</time>
      </trkpt>
      <trkpt lat="43.60194" lon="1.18902">
        <ele>228.65217391304</ele>
        <time>2020-10-03T09:39:52.000Z</time>
      </trkpt>
      <trkpt lat="43.60192" lon="1.189">
        <ele>228</ele>
        <time>2020-10-03T09:39:53.000Z</time>
      </trkpt>
      <trkpt lat="43.6019" lon="1.18898">
        <ele>228.41860776638</ele>
        <time>2020-10-03T09:39:54.000Z</time>
      </trkpt>
      <trkpt lat="43.60187" lon="1.18897">
        <ele>229</ele>
        <time>2020-10-03T09:39:55.000Z</time>
      </trkpt>
      <trkpt lat="43.60184" lon="1.18896">
        <ele>229</ele>
        <time>2020-10-03T09:39:56.000Z</time>
      </trkpt>
      <trkpt lat="43.60182" lon="1.18894">
        <ele>229</ele>
        <time>2020-10-03T09:39:57.000Z</time>
      </trkpt>
      <trkpt lat="43.60179" lon="1.18892">
        <ele>229</ele>
        <time>2020-10-03T09:39:58.000Z</time>
      </trkpt>
      <trkpt lat="43.60177" lon="1.1889">
        <ele>229</ele>
        <time>2020-10-03T09:39:59.000Z</time>
      </trkpt>
      <trkpt lat="43.60174" lon="1.18888">
        <ele>229</ele>
        <time>2020-10-03T09:40:00.000Z</time>
      </trkpt>
      <trkpt lat="43.60172" lon="1.18885">
        <ele>229</ele>
        <time>2020-10-03T09:40:01.000Z</time>
      </trkpt>
      <trkpt lat="43.60169" lon="1.18883">
        <ele>229</ele>
        <time>2020-10-03T09:40:02.000Z</time>
      </trkpt>
      <trkpt lat="43.60166" lon="1.18881">
        <ele>229</ele>
        <time>2020-10-03T09:40:03.000Z</time>
      </trkpt>
      <trkpt lat="43.60165" lon="1.18879">
        <ele>229.47115076923</ele>
        <time>2020-10-03T09:40:04.000Z</time>
      </trkpt>
      <trkpt lat="43.60163" lon="1.18878">
        <ele>230</ele>
        <time>2020-10-03T09:40:05.000Z</time>
      </trkpt>
      <trkpt lat="43.60161" lon="1.18876">
        <ele>230</ele>
        <time>2020-10-03T09:40:06.000Z</time>
      </trkpt>
      <trkpt lat="43.60158" lon="1.18874">
        <ele>230</ele>
        <time>2020-10-03T09:40:07.000Z</time>
      </trkpt>
      <trkpt lat="43.60156" lon="1.18872">
        <ele>230</ele>
        <time>2020-10-03T09:40:08.000Z</time>
      </trkpt>
      <trkpt lat="43.60154" lon="1.1887">
        <ele>230.45454862808</ele>
        <time>2020-10-03T09:40:09.000Z</time>
      </trkpt>
      <trkpt lat="43.60151" lon="1.18868">
        <ele>231</ele>
        <time>2020-10-03T09:40:10.000Z</time>
      </trkpt>
      <trkpt lat="43.60149" lon="1.18867">
        <ele>231</ele>
        <time>2020-10-03T09:40:11.000Z</time>
      </trkpt>
      <trkpt lat="43.60147" lon="1.18865">
        <ele>231</ele>
        <time>2020-10-03T09:40:12.000Z</time>
      </trkpt>
      <trkpt lat="43.60145" lon="1.18863">
        <ele>231</ele>
        <time>2020-10-03T09:40:13.000Z</time>
      </trkpt>
      <trkpt lat="43.60142" lon="1.18861">
        <ele>231</ele>
        <time>2020-10-03T09:40:14.000Z</time>
      </trkpt>
      <trkpt lat="43.6014" lon="1.18859">
        <ele>231</ele>
        <time>2020-10-03T09:40:15.000Z</time>
      </trkpt>
      <trkpt lat="43.60137" lon="1.18857">
        <ele>231</ele>
        <time>2020-10-03T09:40:16.000Z</time>
      </trkpt>
      <trkpt lat="43.60135" lon="1.18854">
        <ele>231.16455224485</ele>
        <time>2020-10-03T09:40:17.000Z</time>
      </trkpt>
      <trkpt lat="43.60133" lon="1.18853">
        <ele>232</ele>
        <time>2020-10-03T09:40:18.000Z</time>
      </trkpt>
      <trkpt lat="43.6013" lon="1.18851">
        <ele>232</ele>
        <time>2020-10-03T09:40:19.000Z</time>
      </trkpt>
      <trkpt lat="43.60128" lon="1.18849">
        <ele>232</ele>
        <time>2020-10-03T09:40:20.000Z</time>
      </trkpt>
      <trkpt lat="43.60126" lon="1.18847">
        <ele>232.41860153599</ele>
        <time>2020-10-03T09:40:21.000Z</time>
      </trkpt>
      <trkpt lat="43.60123" lon="1.18845">
        <ele>233</ele>
        <time>2020-10-03T09:40:22.000Z</time>
      </trkpt>
      <trkpt lat="43.60121" lon="1.18843">
        <ele>233.33333739684</ele>
        <time>2020-10-03T09:40:23.000Z</time>
      </trkpt>
      <trkpt lat="43.60119" lon="1.18841">
        <ele>234</ele>
        <time>2020-10-03T09:40:24.000Z</time>
      </trkpt>
      <trkpt lat="43.60117" lon="1.1884">
        <ele>234</ele>
        <time>2020-10-03T09:40:25.000Z</time>
      </trkpt>
      <trkpt lat="43.60115" lon="1.18838">
        <ele>234</ele>
        <time>2020-10-03T09:40:26.000Z</time>
      </trkpt>
      <trkpt lat="43.60112" lon="1.18836">
        <ele>234</ele>
        <time>2020-10-03T09:40:27.000Z</time>
      </trkpt>
      <trkpt lat="43.6011" lon="1.18834">
        <ele>234.37864270713</ele>
        <time>2020-10-03T09:40:28.000Z</time>
      </trkpt>
      <trkpt lat="43.60108" lon="1.18832">
        <ele>235</ele>
        <time>2020-10-03T09:40:29.000Z</time>
      </trkpt>
      <trkpt lat="43.60106" lon="1.1883">
        <ele>235</ele>
        <time>2020-10-03T09:40:30.000Z</time>
      </trkpt>
      <trkpt lat="43.60104" lon="1.18828">
        <ele>235.44444128397</ele>
        <time>2020-10-03T09:40:31.000Z</time>
      </trkpt>
      <trkpt lat="43.60102" lon="1.18827">
        <ele>236</ele>
        <time>2020-10-03T09:40:32.000Z</time>
      </trkpt>
      <trkpt lat="43.601" lon="1.18825">
        <ele>236</ele>
        <time>2020-10-03T09:40:33.000Z</time>
      </trkpt>
      <trkpt lat="43.60098" lon="1.18822">
        <ele>236</ele>
        <time>2020-10-03T09:40:34.000Z</time>
      </trkpt>
      <trkpt lat="43.60097" lon="1.1882">
        <ele>236</ele>
        <time>2020-10-03T09:40:35.000Z</time>
      </trkpt>
      <trkpt lat="43.60095" lon="1.18819">
        <ele>236.25641236031</ele>
        <time>2020-10-03T09:40:36.000Z</time>
      </trkpt>
      <trkpt lat="43.60093" lon="1.18817">
        <ele>237</ele>
        <time>2020-10-03T09:40:37.000Z</time>
      </trkpt>
      <trkpt lat="43.60091" lon="1.18815">
        <ele>237</ele>
        <time>2020-10-03T09:40:38.000Z</time>
      </trkpt>
      <trkpt lat="43.60089" lon="1.18813">
        <ele>237</ele>
        <time>2020-10-03T09:40:39.000Z</time>
      </trkpt>
      <trkpt lat="43.60086" lon="1.18812">
        <ele>237</ele>
        <time>2020-10-03T09:40:40.000Z</time>
      </trkpt>
      <trkpt lat="43.60084" lon="1.1881">
        <ele>237</ele>
        <time>2020-10-03T09:40:41.000Z</time>
      </trkpt>
      <trkpt lat="43.60082" lon="1.18808">
        <ele>237</ele>
        <time>2020-10-03T09:40:42.000Z</time>
      </trkpt>
      <trkpt lat="43.6008" lon="1.18806">
        <ele>237</ele>
        <time>2020-10-03T09:40:43.000Z</time>
      </trkpt>
      <trkpt lat="43.60078" lon="1.18804">
        <ele>237</ele>
        <time>2020-10-03T09:40:44.000Z</time>
      </trkpt>
      <trkpt lat="43.60076" lon="1.18802">
        <ele>237</ele>
        <time>2020-10-03T09:40:45.000Z</time>
      </trkpt>
      <trkpt lat="43.60074" lon="1.188">
        <ele>237.45454228097</ele>
        <time>2020-10-03T09:40:46.000Z</time>
      </trkpt>
      <trkpt lat="43.60072" lon="1.18799">
        <ele>238</ele>
        <time>2020-10-03T09:40:47.000Z</time>
      </trkpt>
      <trkpt lat="43.6007" lon="1.18797">
        <ele>238</ele>
        <time>2020-10-03T09:40:48.000Z</time>
      </trkpt>
      <trkpt lat="43.60068" lon="1.18795">
        <ele>238</ele>
        <time>2020-10-03T09:40:49.000Z</time>
      </trkpt>
      <trkpt lat="43.60066" lon="1.18794">
        <ele>238.45454228097</ele>
        <time>2020-10-03T09:40:50.000Z</time>
      </trkpt>
      <trkpt lat="43.60064" lon="1.18792">
        <ele>239</ele>
        <time>2020-10-03T09:40:51.000Z</time>
      </trkpt>
      <trkpt lat="43.60062" lon="1.18791">
        <ele>239.45454228097</ele>
        <time>2020-10-03T09:40:52.000Z</time>
      </trkpt>
      <trkpt lat="43.60059" lon="1.18789">
        <ele>240</ele>
        <time>2020-10-03T09:40:53.000Z</time>
      </trkpt>
      <trkpt lat="43.60057" lon="1.18787">
        <ele>240</ele>
        <time>2020-10-03T09:40:54.000Z</time>
      </trkpt>
      <trkpt lat="43.60056" lon="1.18786">
        <ele>240</ele>
        <time>2020-10-03T09:40:55.000Z</time>
      </trkpt>
      <trkpt lat="43.60054" lon="1.18784">
        <ele>240</ele>
        <time>2020-10-03T09:40:56.000Z</time>
      </trkpt>
      <trkpt lat="43.60052" lon="1.18782">
        <ele>240</ele>
        <time>2020-10-03T09:40:57.000Z</time>
      </trkpt>
      <trkpt lat="43.6005" lon="1.1878">
        <ele>240</ele>
        <time>2020-10-03T09:40:58.000Z</time>
      </trkpt>
      <trkpt lat="43.60048" lon="1.18778">
        <ele>240</ele>
        <time>2020-10-03T09:40:59.000Z</time>
      </trkpt>
      <trkpt lat="43.60046" lon="1.18776">
        <ele>240</ele>
        <time>2020-10-03T09:41:00.000Z</time>
      </trkpt>
      <trkpt lat="43.60044" lon="1.18774">
        <ele>240</ele>
        <time>2020-10-03T09:41:01.000Z</time>
      </trkpt>
      <trkpt lat="43.60041" lon="1.18773">
        <ele>240</ele>
        <time>2020-10-03T09:41:02.000Z</time>
      </trkpt>
      <trkpt lat="43.60039" lon="1.18771">
        <ele>240.93333008253</ele>
        <time>2020-10-03T09:41:03.000Z</time>
      </trkpt>
      <trkpt lat="43.60037" lon="1.18769">
        <ele>242</ele>
        <time>2020-10-03T09:41:04.000Z</time>
      </trkpt>
      <trkpt lat="43.60034" lon="1.18768">
        <ele>242</ele>
        <time>2020-10-03T09:41:05.000Z</time>
      </trkpt>
      <trkpt lat="43.60032" lon="1.18766">
        <ele>242</ele>
        <time>2020-10-03T09:41:06.000Z</time>
      </trkpt>
      <trkpt lat="43.60029" lon="1.18764">
        <ele>242</ele>
        <time>2020-10-03T09:41:07.000Z</time>
      </trkpt>
      <trkpt lat="43.60027" lon="1.18763">
        <ele>242</ele>
        <time>2020-10-03T09:41:08.000Z</time>
      </trkpt>
      <trkpt lat="43.60024" lon="1.1876">
        <ele>242</ele>
        <time>2020-10-03T09:41:09.000Z</time>
      </trkpt>
      <trkpt lat="43.60022" lon="1.18759">
        <ele>242</ele>
        <time>2020-10-03T09:41:10.000Z</time>
      </trkpt>
      <trkpt lat="43.60019" lon="1.18757">
        <ele>242</ele>
        <time>2020-10-03T09:41:11.000Z</time>
      </trkpt>
      <trkpt lat="43.60017" lon="1.18756">
        <ele>242.38596274547</ele>
        <time>2020-10-03T09:41:12.000Z</time>
      </trkpt>
      <trkpt lat="43.60014" lon="1.18754">
        <ele>243</ele>
        <time>2020-10-03T09:41:13.000Z</time>
      </trkpt>
      <trkpt lat="43.60012" lon="1.18752">
        <ele>243</ele>
        <time>2020-10-03T09:41:14.000Z</time>
      </trkpt>
      <trkpt lat="43.60009" lon="1.1875">
        <ele>243</ele>
        <time>2020-10-03T09:41:15.000Z</time>
      </trkpt>
      <trkpt lat="43.60007" lon="1.18748">
        <ele>243</ele>
        <time>2020-10-03T09:41:16.000Z</time>
      </trkpt>
      <trkpt lat="43.60004" lon="1.18746">
        <ele>243</ele>
        <time>2020-10-03T09:41:17.000Z</time>
      </trkpt>
      <trkpt lat="43.60002" lon="1.18744">
        <ele>243</ele>
        <time>2020-10-03T09:41:18.000Z</time>
      </trkpt>
      <trkpt lat="43.59999" lon="1.18742">
        <ele>243</ele>
        <time>2020-10-03T09:41:19.000Z</time>
      </trkpt>
      <trkpt lat="43.59997" lon="1.18739">
        <ele>243</ele>
        <time>2020-10-03T09:41:20.000Z</time>
      </trkpt>
      <trkpt lat="43.59994" lon="1.18737">
        <ele>243</ele>
        <time>2020-10-03T09:41:21.000Z</time>
      </trkpt>
      <trkpt lat="43.59992" lon="1.18735">
        <ele>243</ele>
        <time>2020-10-03T09:41:22.000Z</time>
      </trkpt>
      <trkpt lat="43.59989" lon="1.18733">
        <ele>243</ele>
        <time>2020-10-03T09:41:23.000Z</time>
      </trkpt>
      <trkpt lat="43.59987" lon="1.18731">
        <ele>243</ele>
        <time>2020-10-03T09:41:24.000Z</time>
      </trkpt>
      <trkpt lat="43.59984" lon="1.18729">
        <ele>243</ele>
        <time>2020-10-03T09:41:25.000Z</time>
      </trkpt>
      <trkpt lat="43.59982" lon="1.18727">
        <ele>243</ele>
        <time>2020-10-03T09:41:26.000Z</time>
      </trkpt>
      <trkpt lat="43.5998" lon="1.18725">
        <ele>242.64545369918</ele>
        <time>2020-10-03T09:41:27.000Z</time>
      </trkpt>
      <trkpt lat="43.59977" lon="1.18722">
        <ele>242</ele>
        <time>2020-10-03T09:41:28.000Z</time>
      </trkpt>
      <trkpt lat="43.59975" lon="1.1872">
        <ele>242</ele>
        <time>2020-10-03T09:41:29.000Z</time>
      </trkpt>
      <trkpt lat="43.59972" lon="1.18718">
        <ele>242</ele>
        <time>2020-10-03T09:41:30.000Z</time>
      </trkpt>
      <trkpt lat="43.5997" lon="1.18716">
        <ele>242</ele>
        <time>2020-10-03T09:41:31.000Z</time>
      </trkpt>
      <trkpt lat="43.59967" lon="1.18713">
        <ele>242</ele>
        <time>2020-10-03T09:41:32.000Z</time>
      </trkpt>
      <trkpt lat="43.59964" lon="1.18712">
        <ele>242</ele>
        <time>2020-10-03T09:41:33.000Z</time>
      </trkpt>
      <trkpt lat="43.59962" lon="1.1871">
        <ele>242</ele>
        <time>2020-10-03T09:41:34.000Z</time>
      </trkpt>
      <trkpt lat="43.59959" lon="1.18707">
        <ele>242</ele>
        <time>2020-10-03T09:41:35.000Z</time>
      </trkpt>
      <trkpt lat="43.59956" lon="1.18705">
        <ele>242</ele>
        <time>2020-10-03T09:41:36.000Z</time>
      </trkpt>
      <trkpt lat="43.59953" lon="1.18703">
        <ele>242</ele>
        <time>2020-10-03T09:41:37.000Z</time>
      </trkpt>
      <trkpt lat="43.5995" lon="1.18701">
        <ele>242</ele>
        <time>2020-10-03T09:41:38.000Z</time>
      </trkpt>
      <trkpt lat="43.59948" lon="1.18699">
        <ele>242</ele>
        <time>2020-10-03T09:41:39.000Z</time>
      </trkpt>
      <trkpt lat="43.59945" lon="1.18696">
        <ele>242</ele>
        <time>2020-10-03T09:41:40.000Z</time>
      </trkpt>
      <trkpt lat="43.59943" lon="1.18694">
        <ele>242</ele>
        <time>2020-10-03T09:41:41.000Z</time>
      </trkpt>
      <trkpt lat="43.5994" lon="1.18692">
        <ele>242</ele>
        <time>2020-10-03T09:41:42.000Z</time>
      </trkpt>
      <trkpt lat="43.59938" lon="1.1869">
        <ele>241.60605864708</ele>
        <time>2020-10-03T09:41:43.000Z</time>
      </trkpt>
      <trkpt lat="43.59935" lon="1.18688">
        <ele>241</ele>
        <time>2020-10-03T09:41:44.000Z</time>
      </trkpt>
      <trkpt lat="43.59933" lon="1.18685">
        <ele>241</ele>
        <time>2020-10-03T09:41:45.000Z</time>
      </trkpt>
      <trkpt lat="43.5993" lon="1.18683">
        <ele>241</ele>
        <time>2020-10-03T09:41:46.000Z</time>
      </trkpt>
      <trkpt lat="43.59927" lon="1.1868">
        <ele>241</ele>
        <time>2020-10-03T09:41:47.000Z</time>
      </trkpt>
      <trkpt lat="43.59925" lon="1.18678">
        <ele>241</ele>
        <time>2020-10-03T09:41:48.000Z</time>
      </trkpt>
      <trkpt lat="43.59922" lon="1.18676">
        <ele>241</ele>
        <time>2020-10-03T09:41:49.000Z</time>
      </trkpt>
      <trkpt lat="43.59919" lon="1.18675">
        <ele>241</ele>
        <time>2020-10-03T09:41:50.000Z</time>
      </trkpt>
      <trkpt lat="43.59917" lon="1.18673">
        <ele>241</ele>
        <time>2020-10-03T09:41:51.000Z</time>
      </trkpt>
      <trkpt lat="43.59914" lon="1.18671">
        <ele>241</ele>
        <time>2020-10-03T09:41:52.000Z</time>
      </trkpt>
      <trkpt lat="43.59911" lon="1.18669">
        <ele>241</ele>
        <time>2020-10-03T09:41:53.000Z</time>
      </trkpt>
      <trkpt lat="43.59909" lon="1.18667">
        <ele>241</ele>
        <time>2020-10-03T09:41:54.000Z</time>
      </trkpt>
      <trkpt lat="43.59907" lon="1.18665">
        <ele>241</ele>
        <time>2020-10-03T09:41:55.000Z</time>
      </trkpt>
      <trkpt lat="43.59904" lon="1.18664">
        <ele>241</ele>
        <time>2020-10-03T09:41:56.000Z</time>
      </trkpt>
      <trkpt lat="43.59901" lon="1.18662">
        <ele>241</ele>
        <time>2020-10-03T09:41:57.000Z</time>
      </trkpt>
      <trkpt lat="43.59898" lon="1.1866">
        <ele>241</ele>
        <time>2020-10-03T09:41:58.000Z</time>
      </trkpt>
      <trkpt lat="43.59896" lon="1.18658">
        <ele>241</ele>
        <time>2020-10-03T09:41:59.000Z</time>
      </trkpt>
      <trkpt lat="43.59893" lon="1.18656">
        <ele>241</ele>
        <time>2020-10-03T09:42:00.000Z</time>
      </trkpt>
      <trkpt lat="43.59891" lon="1.18654">
        <ele>241</ele>
        <time>2020-10-03T09:42:01.000Z</time>
      </trkpt>
      <trkpt lat="43.59889" lon="1.18652">
        <ele>241</ele>
        <time>2020-10-03T09:42:02.000Z</time>
      </trkpt>
      <trkpt lat="43.59886" lon="1.1865">
        <ele>241</ele>
        <time>2020-10-03T09:42:03.000Z</time>
      </trkpt>
      <trkpt lat="43.59884" lon="1.18649">
        <ele>241</ele>
        <time>2020-10-03T09:42:04.000Z</time>
      </trkpt>
      <trkpt lat="43.59881" lon="1.18647">
        <ele>241</ele>
        <time>2020-10-03T09:42:05.000Z</time>
      </trkpt>
      <trkpt lat="43.59879" lon="1.18644">
        <ele>241</ele>
        <time>2020-10-03T09:42:06.000Z</time>
      </trkpt>
      <trkpt lat="43.59876" lon="1.18642">
        <ele>241</ele>
        <time>2020-10-03T09:42:07.000Z</time>
      </trkpt>
      <trkpt lat="43.59871" lon="1.18639">
        <ele>241</ele>
        <time>2020-10-03T09:42:09.000Z</time>
      </trkpt>
      <trkpt lat="43.59869" lon="1.18637">
        <ele>241</ele>
        <time>2020-10-03T09:42:10.000Z</time>
      </trkpt>
      <trkpt lat="43.59867" lon="1.18635">
        <ele>241</ele>
        <time>2020-10-03T09:42:11.000Z</time>
      </trkpt>
      <trkpt lat="43.59864" lon="1.18633">
        <ele>241</ele>
        <time>2020-10-03T09:42:12.000Z</time>
      </trkpt>
      <trkpt lat="43.59861" lon="1.18632">
        <ele>241</ele>
        <time>2020-10-03T09:42:13.000Z</time>
      </trkpt>
      <trkpt lat="43.59859" lon="1.1863">
        <ele>241.5</ele>
        <time>2020-10-03T09:42:14.000Z</time>
      </trkpt>
      <trkpt lat="43.59856" lon="1.18628">
        <ele>242</ele>
        <time>2020-10-03T09:42:15.000Z</time>
      </trkpt>
      <trkpt lat="43.59854" lon="1.18626">
        <ele>242</ele>
        <time>2020-10-03T09:42:16.000Z</time>
      </trkpt>
      <trkpt lat="43.59851" lon="1.18624">
        <ele>242</ele>
        <time>2020-10-03T09:42:17.000Z</time>
      </trkpt>
      <trkpt lat="43.59849" lon="1.18623">
        <ele>242</ele>
        <time>2020-10-03T09:42:18.000Z</time>
      </trkpt>
      <trkpt lat="43.59846" lon="1.18621">
        <ele>242</ele>
        <time>2020-10-03T09:42:19.000Z</time>
      </trkpt>
      <trkpt lat="43.59844" lon="1.18619">
        <ele>242</ele>
        <time>2020-10-03T09:42:20.000Z</time>
      </trkpt>
      <trkpt lat="43.59842" lon="1.18617">
        <ele>242</ele>
        <time>2020-10-03T09:42:21.000Z</time>
      </trkpt>
      <trkpt lat="43.59839" lon="1.18615">
        <ele>241.52</ele>
        <time>2020-10-03T09:42:22.000Z</time>
      </trkpt>
      <trkpt lat="43.59837" lon="1.18613">
        <ele>241</ele>
        <time>2020-10-03T09:42:23.000Z</time>
      </trkpt>
      <trkpt lat="43.59834" lon="1.18611">
        <ele>241</ele>
        <time>2020-10-03T09:42:24.000Z</time>
      </trkpt>
      <trkpt lat="43.59832" lon="1.18609">
        <ele>241</ele>
        <time>2020-10-03T09:42:25.000Z</time>
      </trkpt>
      <trkpt lat="43.59829" lon="1.18607">
        <ele>241</ele>
        <time>2020-10-03T09:42:26.000Z</time>
      </trkpt>
      <trkpt lat="43.59826" lon="1.18604">
        <ele>241</ele>
        <time>2020-10-03T09:42:27.000Z</time>
      </trkpt>
      <trkpt lat="43.59824" lon="1.18602">
        <ele>241</ele>
        <time>2020-10-03T09:42:28.000Z</time>
      </trkpt>
      <trkpt lat="43.5982" lon="1.186">
        <ele>241</ele>
        <time>2020-10-03T09:42:29.000Z</time>
      </trkpt>
      <trkpt lat="43.59818" lon="1.18599">
        <ele>241</ele>
        <time>2020-10-03T09:42:30.000Z</time>
      </trkpt>
      <trkpt lat="43.59815" lon="1.18596">
        <ele>241</ele>
        <time>2020-10-03T09:42:31.000Z</time>
      </trkpt>
      <trkpt lat="43.59813" lon="1.18594">
        <ele>241</ele>
        <time>2020-10-03T09:42:32.000Z</time>
      </trkpt>
      <trkpt lat="43.5981" lon="1.18592">
        <ele>241</ele>
        <time>2020-10-03T09:42:33.000Z</time>
      </trkpt>
      <trkpt lat="43.59808" lon="1.1859">
        <ele>241</ele>
        <time>2020-10-03T09:42:34.000Z</time>
      </trkpt>
      <trkpt lat="43.59805" lon="1.18587">
        <ele>241</ele>
        <time>2020-10-03T09:42:35.000Z</time>
      </trkpt>
      <trkpt lat="43.59803" lon="1.18585">
        <ele>241</ele>
        <time>2020-10-03T09:42:36.000Z</time>
      </trkpt>
      <trkpt lat="43.598" lon="1.18583">
        <ele>241</ele>
        <time>2020-10-03T09:42:37.000Z</time>
      </trkpt>
      <trkpt lat="43.59797" lon="1.18581">
        <ele>241</ele>
        <time>2020-10-03T09:42:38.000Z</time>
      </trkpt>
      <trkpt lat="43.59794" lon="1.1858">
        <ele>241</ele>
        <time>2020-10-03T09:42:39.000Z</time>
      </trkpt>
      <trkpt lat="43.59792" lon="1.18578">
        <ele>241</ele>
        <time>2020-10-03T09:42:40.000Z</time>
      </trkpt>
      <trkpt lat="43.59789" lon="1.18575">
        <ele>241</ele>
        <time>2020-10-03T09:42:41.000Z</time>
      </trkpt>
      <trkpt lat="43.59787" lon="1.18573">
        <ele>241</ele>
        <time>2020-10-03T09:42:42.000Z</time>
      </trkpt>
      <trkpt lat="43.59784" lon="1.18571">
        <ele>241</ele>
        <time>2020-10-03T09:42:43.000Z</time>
      </trkpt>
      <trkpt lat="43.59781" lon="1.18569">
        <ele>241</ele>
        <time>2020-10-03T09:42:44.000Z</time>
      </trkpt>
      <trkpt lat="43.59779" lon="1.18567">
        <ele>241</ele>
        <time>2020-10-03T09:42:45.000Z</time>
      </trkpt>
      <trkpt lat="43.59776" lon="1.18565">
        <ele>241</ele>
        <time>2020-10-03T09:42:46.000Z</time>
      </trkpt>
      <trkpt lat="43.59774" lon="1.18563">
        <ele>241</ele>
        <time>2020-10-03T09:42:47.000Z</time>
      </trkpt>
      <trkpt lat="43.59772" lon="1.1856">
        <ele>241</ele>
        <time>2020-10-03T09:42:48.000Z</time>
      </trkpt>
      <trkpt lat="43.59769" lon="1.18558">
        <ele>241</ele>
        <time>2020-10-03T09:42:49.000Z</time>
      </trkpt>
      <trkpt lat="43.59766" lon="1.18556">
        <ele>241</ele>
        <time>2020-10-03T09:42:50.000Z</time>
      </trkpt>
      <trkpt lat="43.59764" lon="1.18554">
        <ele>241</ele>
        <time>2020-10-03T09:42:51.000Z</time>
      </trkpt>
      <trkpt lat="43.59761" lon="1.18552">
        <ele>241</ele>
        <time>2020-10-03T09:42:52.000Z</time>
      </trkpt>
      <trkpt lat="43.59759" lon="1.1855">
        <ele>241</ele>
        <time>2020-10-03T09:42:53.000Z</time>
      </trkpt>
      <trkpt lat="43.59756" lon="1.18548">
        <ele>241.42718313885</ele>
        <time>2020-10-03T09:42:54.000Z</time>
      </trkpt>
      <trkpt lat="43.59754" lon="1.18546">
        <ele>242</ele>
        <time>2020-10-03T09:42:55.000Z</time>
      </trkpt>
      <trkpt lat="43.59751" lon="1.18544">
        <ele>242</ele>
        <time>2020-10-03T09:42:56.000Z</time>
      </trkpt>
      <trkpt lat="43.59748" lon="1.18542">
        <ele>242</ele>
        <time>2020-10-03T09:42:57.000Z</time>
      </trkpt>
      <trkpt lat="43.59746" lon="1.18539">
        <ele>242</ele>
        <time>2020-10-03T09:42:58.000Z</time>
      </trkpt>
      <trkpt lat="43.59744" lon="1.18537">
        <ele>242</ele>
        <time>2020-10-03T09:42:59.000Z</time>
      </trkpt>
      <trkpt lat="43.59741" lon="1.18535">
        <ele>242</ele>
        <time>2020-10-03T09:43:00.000Z</time>
      </trkpt>
      <trkpt lat="43.59738" lon="1.18533">
        <ele>241.57272684959</ele>
        <time>2020-10-03T09:43:01.000Z</time>
      </trkpt>
      <trkpt lat="43.59736" lon="1.18531">
        <ele>241</ele>
        <time>2020-10-03T09:43:02.000Z</time>
      </trkpt>
      <trkpt lat="43.59733" lon="1.18529">
        <ele>241.48077538461</ele>
        <time>2020-10-03T09:43:03.000Z</time>
      </trkpt>
      <trkpt lat="43.59731" lon="1.18527">
        <ele>242</ele>
        <time>2020-10-03T09:43:04.000Z</time>
      </trkpt>
      <trkpt lat="43.59728" lon="1.18526">
        <ele>242</ele>
        <time>2020-10-03T09:43:05.000Z</time>
      </trkpt>
      <trkpt lat="43.59725" lon="1.18524">
        <ele>242</ele>
        <time>2020-10-03T09:43:06.000Z</time>
      </trkpt>
      <trkpt lat="43.59723" lon="1.18522">
        <ele>242</ele>
        <time>2020-10-03T09:43:07.000Z</time>
      </trkpt>
      <trkpt lat="43.59721" lon="1.1852">
        <ele>242</ele>
        <time>2020-10-03T09:43:08.000Z</time>
      </trkpt>
      <trkpt lat="43.59718" lon="1.18518">
        <ele>242</ele>
        <time>2020-10-03T09:43:09.000Z</time>
      </trkpt>
      <trkpt lat="43.59716" lon="1.18516">
        <ele>241.60240889533</ele>
        <time>2020-10-03T09:43:10.000Z</time>
      </trkpt>
      <trkpt lat="43.59713" lon="1.18514">
        <ele>241</ele>
        <time>2020-10-03T09:43:11.000Z</time>
      </trkpt>
      <trkpt lat="43.59711" lon="1.18512">
        <ele>241</ele>
        <time>2020-10-03T09:43:12.000Z</time>
      </trkpt>
      <trkpt lat="43.59708" lon="1.18509">
        <ele>241</ele>
        <time>2020-10-03T09:43:13.000Z</time>
      </trkpt>
      <trkpt lat="43.59706" lon="1.18507">
        <ele>241</ele>
        <time>2020-10-03T09:43:14.000Z</time>
      </trkpt>
      <trkpt lat="43.59704" lon="1.18504">
        <ele>241.44444128397</ele>
        <time>2020-10-03T09:43:15.000Z</time>
      </trkpt>
      <trkpt lat="43.59702" lon="1.18501">
        <ele>242</ele>
        <time>2020-10-03T09:43:16.000Z</time>
      </trkpt>
      <trkpt lat="43.59701" lon="1.18497">
        <ele>242</ele>
        <time>2020-10-03T09:43:17.000Z</time>
      </trkpt>
      <trkpt lat="43.597" lon="1.18493">
        <ele>242</ele>
        <time>2020-10-03T09:43:18.000Z</time>
      </trkpt>
      <trkpt lat="43.59699" lon="1.18489">
        <ele>242</ele>
        <time>2020-10-03T09:43:19.000Z</time>
      </trkpt>
      <trkpt lat="43.59699" lon="1.18485">
        <ele>241.5833362963</ele>
        <time>2020-10-03T09:43:20.000Z</time>
      </trkpt>
      <trkpt lat="43.59699" lon="1.1848">
        <ele>241</ele>
        <time>2020-10-03T09:43:21.000Z</time>
      </trkpt>
      <trkpt lat="43.59699" lon="1.18476">
        <ele>241</ele>
        <time>2020-10-03T09:43:22.000Z</time>
      </trkpt>
      <trkpt lat="43.597" lon="1.18472">
        <ele>241</ele>
        <time>2020-10-03T09:43:23.000Z</time>
      </trkpt>
      <trkpt lat="43.597" lon="1.18468">
        <ele>241</ele>
        <time>2020-10-03T09:43:24.000Z</time>
      </trkpt>
      <trkpt lat="43.59701" lon="1.18465">
        <ele>241</ele>
        <time>2020-10-03T09:43:25.000Z</time>
      </trkpt>
      <trkpt lat="43.59702" lon="1.18461">
        <ele>241.29104577411</ele>
        <time>2020-10-03T09:43:26.000Z</time>
      </trkpt>
      <trkpt lat="43.59702" lon="1.18458">
        <ele>242</ele>
        <time>2020-10-03T09:43:27.000Z</time>
      </trkpt>
      <trkpt lat="43.59703" lon="1.18454">
        <ele>242</ele>
        <time>2020-10-03T09:43:28.000Z</time>
      </trkpt>
      <trkpt lat="43.59703" lon="1.1845">
        <ele>242.40476335599</ele>
        <time>2020-10-03T09:43:29.000Z</time>
      </trkpt>
      <trkpt lat="43.59704" lon="1.18446">
        <ele>243</ele>
        <time>2020-10-03T09:43:30.000Z</time>
      </trkpt>
      <trkpt lat="43.59704" lon="1.18442">
        <ele>243</ele>
        <time>2020-10-03T09:43:31.000Z</time>
      </trkpt>
      <trkpt lat="43.59704" lon="1.18437">
        <ele>243</ele>
        <time>2020-10-03T09:43:32.000Z</time>
      </trkpt>
      <trkpt lat="43.59704" lon="1.18433">
        <ele>243</ele>
        <time>2020-10-03T09:43:33.000Z</time>
      </trkpt>
      <trkpt lat="43.59705" lon="1.18429">
        <ele>242.10280642151</ele>
        <time>2020-10-03T09:43:34.000Z</time>
      </trkpt>
      <trkpt lat="43.59706" lon="1.18425">
        <ele>241</ele>
        <time>2020-10-03T09:43:35.000Z</time>
      </trkpt>
      <trkpt lat="43.59708" lon="1.18422">
        <ele>241</ele>
        <time>2020-10-03T09:43:36.000Z</time>
      </trkpt>
      <trkpt lat="43.59709" lon="1.18419">
        <ele>241</ele>
        <time>2020-10-03T09:43:37.000Z</time>
      </trkpt>
      <trkpt lat="43.59711" lon="1.18416">
        <ele>241</ele>
        <time>2020-10-03T09:43:38.000Z</time>
      </trkpt>
      <trkpt lat="43.59712" lon="1.18414">
        <ele>241</ele>
        <time>2020-10-03T09:43:39.000Z</time>
      </trkpt>
      <trkpt lat="43.59713" lon="1.18411">
        <ele>241</ele>
        <time>2020-10-03T09:43:40.000Z</time>
      </trkpt>
      <trkpt lat="43.59715" lon="1.18409">
        <ele>241</ele>
        <time>2020-10-03T09:43:41.000Z</time>
      </trkpt>
      <trkpt lat="43.59716" lon="1.18406">
        <ele>241.44247346541</ele>
        <time>2020-10-03T09:43:42.000Z</time>
      </trkpt>
      <trkpt lat="43.59718" lon="1.18403">
        <ele>242</ele>
        <time>2020-10-03T09:43:43.000Z</time>
      </trkpt>
      <trkpt lat="43.59719" lon="1.184">
        <ele>242</ele>
        <time>2020-10-03T09:43:44.000Z</time>
      </trkpt>
      <trkpt lat="43.5972" lon="1.18397">
        <ele>242</ele>
        <time>2020-10-03T09:43:45.000Z</time>
      </trkpt>
      <trkpt lat="43.59721" lon="1.18395">
        <ele>242</ele>
        <time>2020-10-03T09:43:46.000Z</time>
      </trkpt>
      <trkpt lat="43.59722" lon="1.18392">
        <ele>242</ele>
        <time>2020-10-03T09:43:47.000Z</time>
      </trkpt>
      <trkpt lat="43.59723" lon="1.18389">
        <ele>242.41177002078</ele>
        <time>2020-10-03T09:43:48.000Z</time>
      </trkpt>
      <trkpt lat="43.59725" lon="1.18386">
        <ele>243</ele>
        <time>2020-10-03T09:43:49.000Z</time>
      </trkpt>
      <trkpt lat="43.59725" lon="1.18382">
        <ele>243.35514510611</ele>
        <time>2020-10-03T09:43:50.000Z</time>
      </trkpt>
      <trkpt lat="43.59726" lon="1.18379">
        <ele>244</ele>
        <time>2020-10-03T09:43:51.000Z</time>
      </trkpt>
      <trkpt lat="43.59727" lon="1.18375">
        <ele>244</ele>
        <time>2020-10-03T09:43:52.000Z</time>
      </trkpt>
      <trkpt lat="43.59728" lon="1.18371">
        <ele>244</ele>
        <time>2020-10-03T09:43:53.000Z</time>
      </trkpt>
      <trkpt lat="43.59729" lon="1.18367">
        <ele>244</ele>
        <time>2020-10-03T09:43:54.000Z</time>
      </trkpt>
      <trkpt lat="43.5973" lon="1.18364">
        <ele>244</ele>
        <time>2020-10-03T09:43:55.000Z</time>
      </trkpt>
      <trkpt lat="43.5973" lon="1.1836">
        <ele>244</ele>
        <time>2020-10-03T09:43:56.000Z</time>
      </trkpt>
      <trkpt lat="43.59731" lon="1.18357">
        <ele>244</ele>
        <time>2020-10-03T09:43:57.000Z</time>
      </trkpt>
      <trkpt lat="43.59732" lon="1.18353">
        <ele>244</ele>
        <time>2020-10-03T09:43:58.000Z</time>
      </trkpt>
      <trkpt lat="43.59733" lon="1.1835">
        <ele>244</ele>
        <time>2020-10-03T09:43:59.000Z</time>
      </trkpt>
      <trkpt lat="43.59734" lon="1.18346">
        <ele>244</ele>
        <time>2020-10-03T09:44:00.000Z</time>
      </trkpt>
      <trkpt lat="43.59735" lon="1.18342">
        <ele>244</ele>
        <time>2020-10-03T09:44:01.000Z</time>
      </trkpt>
      <trkpt lat="43.59735" lon="1.18339">
        <ele>244</ele>
        <time>2020-10-03T09:44:02.000Z</time>
      </trkpt>
      <trkpt lat="43.59736" lon="1.18335">
        <ele>244</ele>
        <time>2020-10-03T09:44:03.000Z</time>
      </trkpt>
      <trkpt lat="43.59736" lon="1.18332">
        <ele>244.27407365267</ele>
        <time>2020-10-03T09:44:04.000Z</time>
      </trkpt>
      <trkpt lat="43.59736" lon="1.18328">
        <ele>245</ele>
        <time>2020-10-03T09:44:05.000Z</time>
      </trkpt>
      <trkpt lat="43.59737" lon="1.18325">
        <ele>245</ele>
        <time>2020-10-03T09:44:06.000Z</time>
      </trkpt>
      <trkpt lat="43.59737" lon="1.18321">
        <ele>245</ele>
        <time>2020-10-03T09:44:07.000Z</time>
      </trkpt>
      <trkpt lat="43.59737" lon="1.18317">
        <ele>245</ele>
        <time>2020-10-03T09:44:08.000Z</time>
      </trkpt>
      <trkpt lat="43.59737" lon="1.18314">
        <ele>245</ele>
        <time>2020-10-03T09:44:09.000Z</time>
      </trkpt>
      <trkpt lat="43.59737" lon="1.1831">
        <ele>245.32258064516</ele>
        <time>2020-10-03T09:44:10.000Z</time>
      </trkpt>
      <trkpt lat="43.59737" lon="1.18307">
        <ele>246</ele>
        <time>2020-10-03T09:44:11.000Z</time>
      </trkpt>
      <trkpt lat="43.59737" lon="1.18304">
        <ele>246</ele>
        <time>2020-10-03T09:44:12.000Z</time>
      </trkpt>
      <trkpt lat="43.59737" lon="1.18301">
        <ele>246</ele>
        <time>2020-10-03T09:44:13.000Z</time>
      </trkpt>
      <trkpt lat="43.59738" lon="1.18297">
        <ele>246</ele>
        <time>2020-10-03T09:44:15.000Z</time>
      </trkpt>
      <trkpt lat="43.59738" lon="1.18293">
        <ele>246</ele>
        <time>2020-10-03T09:44:17.000Z</time>
      </trkpt>
      <trkpt lat="43.59738" lon="1.1829">
        <ele>246.48077538461</ele>
        <time>2020-10-03T09:44:19.000Z</time>
      </trkpt>
      <trkpt lat="43.59738" lon="1.18285">
        <ele>247</ele>
        <time>2020-10-03T09:44:21.000Z</time>
      </trkpt>
      <trkpt lat="43.59739" lon="1.18282">
        <ele>247.43859333947</ele>
        <time>2020-10-03T09:44:22.000Z</time>
      </trkpt>
      <trkpt lat="43.59739" lon="1.18278">
        <ele>248</ele>
        <time>2020-10-03T09:44:24.000Z</time>
      </trkpt>
      <trkpt lat="43.59739" lon="1.18274">
        <ele>248</ele>
        <time>2020-10-03T09:44:26.000Z</time>
      </trkpt>
      <trkpt lat="43.5974" lon="1.1827">
        <ele>248</ele>
        <time>2020-10-03T09:44:28.000Z</time>
      </trkpt>
      <trkpt lat="43.5974" lon="1.18265">
        <ele>248</ele>
        <time>2020-10-03T09:44:30.000Z</time>
      </trkpt>
      <trkpt lat="43.59741" lon="1.18261">
        <ele>248</ele>
        <time>2020-10-03T09:44:32.000Z</time>
      </trkpt>
      <trkpt lat="43.59741" lon="1.18259">
        <ele>248</ele>
        <time>2020-10-03T09:44:33.000Z</time>
      </trkpt>
      <trkpt lat="43.59742" lon="1.18256">
        <ele>248</ele>
        <time>2020-10-03T09:44:34.000Z</time>
      </trkpt>
      <trkpt lat="43.59742" lon="1.18254">
        <ele>248</ele>
        <time>2020-10-03T09:44:35.000Z</time>
      </trkpt>
      <trkpt lat="43.59743" lon="1.18251">
        <ele>248</ele>
        <time>2020-10-03T09:44:36.000Z</time>
      </trkpt>
      <trkpt lat="43.59743" lon="1.18249">
        <ele>248</ele>
        <time>2020-10-03T09:44:37.000Z</time>
      </trkpt>
      <trkpt lat="43.59744" lon="1.18246">
        <ele>248</ele>
        <time>2020-10-03T09:44:38.000Z</time>
      </trkpt>
      <trkpt lat="43.59744" lon="1.18243">
        <ele>248</ele>
        <time>2020-10-03T09:44:39.000Z</time>
      </trkpt>
      <trkpt lat="43.59745" lon="1.1824">
        <ele>248</ele>
        <time>2020-10-03T09:44:40.000Z</time>
      </trkpt>
      <trkpt lat="43.59745" lon="1.18237">
        <ele>248</ele>
        <time>2020-10-03T09:44:41.000Z</time>
      </trkpt>
      <trkpt lat="43.59746" lon="1.18235">
        <ele>248</ele>
        <time>2020-10-03T09:44:42.000Z</time>
      </trkpt>
      <trkpt lat="43.59746" lon="1.18232">
        <ele>248.31168960702</ele>
        <time>2020-10-03T09:44:43.000Z</time>
      </trkpt>
      <trkpt lat="43.59747" lon="1.18229">
        <ele>249</ele>
        <time>2020-10-03T09:44:44.000Z</time>
      </trkpt>
      <trkpt lat="43.59747" lon="1.18226">
        <ele>249</ele>
        <time>2020-10-03T09:44:45.000Z</time>
      </trkpt>
      <trkpt lat="43.59747" lon="1.18223">
        <ele>249.29544727273</ele>
        <time>2020-10-03T09:44:46.000Z</time>
      </trkpt>
      <trkpt lat="43.59748" lon="1.18219">
        <ele>250</ele>
        <time>2020-10-03T09:44:47.000Z</time>
      </trkpt>
      <trkpt lat="43.59748" lon="1.18217">
        <ele>250</ele>
        <time>2020-10-03T09:44:48.000Z</time>
      </trkpt>
      <trkpt lat="43.59749" lon="1.18214">
        <ele>250.76106976586</ele>
        <time>2020-10-03T09:44:49.000Z</time>
      </trkpt>
      <trkpt lat="43.5975" lon="1.18211">
        <ele>252</ele>
        <time>2020-10-03T09:44:50.000Z</time>
      </trkpt>
      <trkpt lat="43.5975" lon="1.18207">
        <ele>252</ele>
        <time>2020-10-03T09:44:51.000Z</time>
      </trkpt>
      <trkpt lat="43.5975" lon="1.18204">
        <ele>252</ele>
        <time>2020-10-03T09:44:52.000Z</time>
      </trkpt>
      <trkpt lat="43.59751" lon="1.18201">
        <ele>252.34408720546</ele>
        <time>2020-10-03T09:44:53.000Z</time>
      </trkpt>
      <trkpt lat="43.59751" lon="1.18198">
        <ele>253</ele>
        <time>2020-10-03T09:44:54.000Z</time>
      </trkpt>
      <trkpt lat="43.59752" lon="1.18195">
        <ele>253</ele>
        <time>2020-10-03T09:44:55.000Z</time>
      </trkpt>
      <trkpt lat="43.59752" lon="1.18192">
        <ele>253</ele>
        <time>2020-10-03T09:44:56.000Z</time>
      </trkpt>
      <trkpt lat="43.59753" lon="1.18188">
        <ele>253</ele>
        <time>2020-10-03T09:44:57.000Z</time>
      </trkpt>
      <trkpt lat="43.59754" lon="1.18184">
        <ele>253</ele>
        <time>2020-10-03T09:44:59.000Z</time>
      </trkpt>
      <trkpt lat="43.59754" lon="1.18181">
        <ele>253.46728793081</ele>
        <time>2020-10-03T09:45:00.000Z</time>
      </trkpt>
      <trkpt lat="43.59754" lon="1.18178">
        <ele>254</ele>
        <time>2020-10-03T09:45:01.000Z</time>
      </trkpt>
      <trkpt lat="43.59754" lon="1.18175">
        <ele>254</ele>
        <time>2020-10-03T09:45:02.000Z</time>
      </trkpt>
      <trkpt lat="43.59754" lon="1.18172">
        <ele>254</ele>
        <time>2020-10-03T09:45:03.000Z</time>
      </trkpt>
      <trkpt lat="43.59753" lon="1.18169">
        <ele>254</ele>
        <time>2020-10-03T09:45:04.000Z</time>
      </trkpt>
      <trkpt lat="43.59753" lon="1.18166">
        <ele>254.74545306445</ele>
        <time>2020-10-03T09:45:05.000Z</time>
      </trkpt>
      <trkpt lat="43.59753" lon="1.18163">
        <ele>256</ele>
        <time>2020-10-03T09:45:06.000Z</time>
      </trkpt>
      <trkpt lat="43.59752" lon="1.1816">
        <ele>256</ele>
        <time>2020-10-03T09:45:07.000Z</time>
      </trkpt>
      <trkpt lat="43.59751" lon="1.18158">
        <ele>256</ele>
        <time>2020-10-03T09:45:08.000Z</time>
      </trkpt>
      <trkpt lat="43.59751" lon="1.18154">
        <ele>256</ele>
        <time>2020-10-03T09:45:09.000Z</time>
      </trkpt>
      <trkpt lat="43.5975" lon="1.18151">
        <ele>256</ele>
        <time>2020-10-03T09:45:10.000Z</time>
      </trkpt>
      <trkpt lat="43.5975" lon="1.18147">
        <ele>256</ele>
        <time>2020-10-03T09:45:11.000Z</time>
      </trkpt>
      <trkpt lat="43.5975" lon="1.18144">
        <ele>256.47368562882</ele>
        <time>2020-10-03T09:45:12.000Z</time>
      </trkpt>
      <trkpt lat="43.59749" lon="1.1814">
        <ele>257</ele>
        <time>2020-10-03T09:45:14.000Z</time>
      </trkpt>
      <trkpt lat="43.59749" lon="1.18137">
        <ele>257</ele>
        <time>2020-10-03T09:45:15.000Z</time>
      </trkpt>
      <trkpt lat="43.59749" lon="1.18134">
        <ele>257.45454228097</ele>
        <time>2020-10-03T09:45:16.000Z</time>
      </trkpt>
      <trkpt lat="43.59749" lon="1.18131">
        <ele>258</ele>
        <time>2020-10-03T09:45:17.000Z</time>
      </trkpt>
      <trkpt lat="43.59749" lon="1.18127">
        <ele>258</ele>
        <time>2020-10-03T09:45:18.000Z</time>
      </trkpt>
      <trkpt lat="43.59748" lon="1.18124">
        <ele>258</ele>
        <time>2020-10-03T09:45:19.000Z</time>
      </trkpt>
      <trkpt lat="43.59748" lon="1.18121">
        <ele>258</ele>
        <time>2020-10-03T09:45:20.000Z</time>
      </trkpt>
      <trkpt lat="43.59748" lon="1.18117">
        <ele>258</ele>
        <time>2020-10-03T09:45:21.000Z</time>
      </trkpt>
      <trkpt lat="43.59747" lon="1.18114">
        <ele>258</ele>
        <time>2020-10-03T09:45:22.000Z</time>
      </trkpt>
      <trkpt lat="43.59747" lon="1.18111">
        <ele>258.47367924655</ele>
        <time>2020-10-03T09:45:23.000Z</time>
      </trkpt>
      <trkpt lat="43.59747" lon="1.18108">
        <ele>259</ele>
        <time>2020-10-03T09:45:24.000Z</time>
      </trkpt>
      <trkpt lat="43.59746" lon="1.18105">
        <ele>259</ele>
        <time>2020-10-03T09:45:25.000Z</time>
      </trkpt>
      <trkpt lat="43.59745" lon="1.18102">
        <ele>259</ele>
        <time>2020-10-03T09:45:26.000Z</time>
      </trkpt>
      <trkpt lat="43.59744" lon="1.18098">
        <ele>259</ele>
        <time>2020-10-03T09:45:27.000Z</time>
      </trkpt>
      <trkpt lat="43.59743" lon="1.18094">
        <ele>259</ele>
        <time>2020-10-03T09:45:28.000Z</time>
      </trkpt>
      <trkpt lat="43.59742" lon="1.1809">
        <ele>259</ele>
        <time>2020-10-03T09:45:29.000Z</time>
      </trkpt>
      <trkpt lat="43.59741" lon="1.18086">
        <ele>259</ele>
        <time>2020-10-03T09:45:30.000Z</time>
      </trkpt>
      <trkpt lat="43.5974" lon="1.18082">
        <ele>259</ele>
        <time>2020-10-03T09:45:31.000Z</time>
      </trkpt>
      <trkpt lat="43.59739" lon="1.18077">
        <ele>259</ele>
        <time>2020-10-03T09:45:32.000Z</time>
      </trkpt>
      <trkpt lat="43.59738" lon="1.18073">
        <ele>259</ele>
        <time>2020-10-03T09:45:33.000Z</time>
      </trkpt>
      <trkpt lat="43.59737" lon="1.18069">
        <ele>259</ele>
        <time>2020-10-03T09:45:34.000Z</time>
      </trkpt>
      <trkpt lat="43.59736" lon="1.18065">
        <ele>259</ele>
        <time>2020-10-03T09:45:35.000Z</time>
      </trkpt>
      <trkpt lat="43.59735" lon="1.18061">
        <ele>259</ele>
        <time>2020-10-03T09:45:36.000Z</time>
      </trkpt>
      <trkpt lat="43.59734" lon="1.18057">
        <ele>259</ele>
        <time>2020-10-03T09:45:37.000Z</time>
      </trkpt>
      <trkpt lat="43.59734" lon="1.18053">
        <ele>259</ele>
        <time>2020-10-03T09:45:38.000Z</time>
      </trkpt>
      <trkpt lat="43.59735" lon="1.18049">
        <ele>259</ele>
        <time>2020-10-03T09:45:39.000Z</time>
      </trkpt>
      <trkpt lat="43.59735" lon="1.18045">
        <ele>259.27272425028</ele>
        <time>2020-10-03T09:45:40.000Z</time>
      </trkpt>
      <trkpt lat="43.59735" lon="1.18041">
        <ele>260</ele>
        <time>2020-10-03T09:45:41.000Z</time>
      </trkpt>
      <trkpt lat="43.59735" lon="1.18038">
        <ele>260</ele>
        <time>2020-10-03T09:45:42.000Z</time>
      </trkpt>
      <trkpt lat="43.59735" lon="1.18034">
        <ele>260</ele>
        <time>2020-10-03T09:45:43.000Z</time>
      </trkpt>
      <trkpt lat="43.59735" lon="1.18031">
        <ele>260</ele>
        <time>2020-10-03T09:45:44.000Z</time>
      </trkpt>
      <trkpt lat="43.59735" lon="1.18028">
        <ele>260</ele>
        <time>2020-10-03T09:45:45.000Z</time>
      </trkpt>
      <trkpt lat="43.59735" lon="1.18024">
        <ele>260</ele>
        <time>2020-10-03T09:45:46.000Z</time>
      </trkpt>
      <trkpt lat="43.59735" lon="1.18021">
        <ele>260</ele>
        <time>2020-10-03T09:45:47.000Z</time>
      </trkpt>
      <trkpt lat="43.59734" lon="1.18018">
        <ele>260.34285714286</ele>
        <time>2020-10-03T09:45:48.000Z</time>
      </trkpt>
      <trkpt lat="43.59734" lon="1.18015">
        <ele>261</ele>
        <time>2020-10-03T09:45:49.000Z</time>
      </trkpt>
      <trkpt lat="43.59734" lon="1.18011">
        <ele>261</ele>
        <time>2020-10-03T09:45:50.000Z</time>
      </trkpt>
      <trkpt lat="43.59734" lon="1.18008">
        <ele>261</ele>
        <time>2020-10-03T09:45:51.000Z</time>
      </trkpt>
      <trkpt lat="43.59734" lon="1.18005">
        <ele>261</ele>
        <time>2020-10-03T09:45:52.000Z</time>
      </trkpt>
      <trkpt lat="43.59734" lon="1.18001">
        <ele>261</ele>
        <time>2020-10-03T09:45:53.000Z</time>
      </trkpt>
      <trkpt lat="43.59733" lon="1.17997">
        <ele>261</ele>
        <time>2020-10-03T09:45:54.000Z</time>
      </trkpt>
      <trkpt lat="43.59733" lon="1.17993">
        <ele>261</ele>
        <time>2020-10-03T09:45:55.000Z</time>
      </trkpt>
      <trkpt lat="43.59734" lon="1.17989">
        <ele>261</ele>
        <time>2020-10-03T09:45:56.000Z</time>
      </trkpt>
      <trkpt lat="43.59734" lon="1.17985">
        <ele>261</ele>
        <time>2020-10-03T09:45:57.000Z</time>
      </trkpt>
      <trkpt lat="43.59734" lon="1.17981">
        <ele>261</ele>
        <time>2020-10-03T09:45:58.000Z</time>
      </trkpt>
      <trkpt lat="43.59734" lon="1.17978">
        <ele>261.11392138436</ele>
        <time>2020-10-03T09:45:59.000Z</time>
      </trkpt>
      <trkpt lat="43.59734" lon="1.17974">
        <ele>262</ele>
        <time>2020-10-03T09:46:00.000Z</time>
      </trkpt>
      <trkpt lat="43.59735" lon="1.1797">
        <ele>262</ele>
        <time>2020-10-03T09:46:01.000Z</time>
      </trkpt>
      <trkpt lat="43.59735" lon="1.17966">
        <ele>262</ele>
        <time>2020-10-03T09:46:02.000Z</time>
      </trkpt>
      <trkpt lat="43.59734" lon="1.17962">
        <ele>262</ele>
        <time>2020-10-03T09:46:03.000Z</time>
      </trkpt>
      <trkpt lat="43.59734" lon="1.17958">
        <ele>262</ele>
        <time>2020-10-03T09:46:04.000Z</time>
      </trkpt>
      <trkpt lat="43.59734" lon="1.17954">
        <ele>261.67289518387</ele>
        <time>2020-10-03T09:46:05.000Z</time>
      </trkpt>
      <trkpt lat="43.59734" lon="1.1795">
        <ele>261</ele>
        <time>2020-10-03T09:46:06.000Z</time>
      </trkpt>
      <trkpt lat="43.59734" lon="1.17946">
        <ele>261</ele>
        <time>2020-10-03T09:46:07.000Z</time>
      </trkpt>
      <trkpt lat="43.59734" lon="1.17942">
        <ele>261</ele>
        <time>2020-10-03T09:46:08.000Z</time>
      </trkpt>
      <trkpt lat="43.59734" lon="1.17938">
        <ele>261</ele>
        <time>2020-10-03T09:46:09.000Z</time>
      </trkpt>
      <trkpt lat="43.59734" lon="1.17935">
        <ele>261.71029021222</ele>
        <time>2020-10-03T09:46:10.000Z</time>
      </trkpt>
      <trkpt lat="43.59734" lon="1.17931">
        <ele>263</ele>
        <time>2020-10-03T09:46:11.000Z</time>
      </trkpt>
      <trkpt lat="43.59734" lon="1.17927">
        <ele>263</ele>
        <time>2020-10-03T09:46:12.000Z</time>
      </trkpt>
      <trkpt lat="43.59733" lon="1.17924">
        <ele>263</ele>
        <time>2020-10-03T09:46:13.000Z</time>
      </trkpt>
      <trkpt lat="43.59733" lon="1.17921">
        <ele>263</ele>
        <time>2020-10-03T09:46:14.000Z</time>
      </trkpt>
      <trkpt lat="43.59733" lon="1.17917">
        <ele>263.34905569241</ele>
        <time>2020-10-03T09:46:15.000Z</time>
      </trkpt>
      <trkpt lat="43.59733" lon="1.17914">
        <ele>264</ele>
        <time>2020-10-03T09:46:16.000Z</time>
      </trkpt>
      <trkpt lat="43.59733" lon="1.17911">
        <ele>264</ele>
        <time>2020-10-03T09:46:17.000Z</time>
      </trkpt>
      <trkpt lat="43.59733" lon="1.17909">
        <ele>264</ele>
        <time>2020-10-03T09:46:18.000Z</time>
      </trkpt>
      <trkpt lat="43.59732" lon="1.17905">
        <ele>264</ele>
        <time>2020-10-03T09:46:19.000Z</time>
      </trkpt>
      <trkpt lat="43.59732" lon="1.17902">
        <ele>264</ele>
        <time>2020-10-03T09:46:20.000Z</time>
      </trkpt>
      <trkpt lat="43.59732" lon="1.179">
        <ele>264.31506873334</ele>
        <time>2020-10-03T09:46:21.000Z</time>
      </trkpt>
      <trkpt lat="43.59731" lon="1.17897">
        <ele>265</ele>
        <time>2020-10-03T09:46:22.000Z</time>
      </trkpt>
      <trkpt lat="43.59731" lon="1.17894">
        <ele>265</ele>
        <time>2020-10-03T09:46:23.000Z</time>
      </trkpt>
      <trkpt lat="43.5973" lon="1.17891">
        <ele>265</ele>
        <time>2020-10-03T09:46:24.000Z</time>
      </trkpt>
      <trkpt lat="43.59729" lon="1.17888">
        <ele>265</ele>
        <time>2020-10-03T09:46:25.000Z</time>
      </trkpt>
      <trkpt lat="43.59728" lon="1.17884">
        <ele>265</ele>
        <time>2020-10-03T09:46:26.000Z</time>
      </trkpt>
      <trkpt lat="43.59728" lon="1.17881">
        <ele>265.45871742781</ele>
        <time>2020-10-03T09:46:27.000Z</time>
      </trkpt>
      <trkpt lat="43.59727" lon="1.17878">
        <ele>266</ele>
        <time>2020-10-03T09:46:28.000Z</time>
      </trkpt>
      <trkpt lat="43.59727" lon="1.17874">
        <ele>266</ele>
        <time>2020-10-03T09:46:29.000Z</time>
      </trkpt>
      <trkpt lat="43.59726" lon="1.1787">
        <ele>266</ele>
        <time>2020-10-03T09:46:30.000Z</time>
      </trkpt>
      <trkpt lat="43.59726" lon="1.17865">
        <ele>266</ele>
        <time>2020-10-03T09:46:31.000Z</time>
      </trkpt>
      <trkpt lat="43.59726" lon="1.17861">
        <ele>266.44642285714</ele>
        <time>2020-10-03T09:46:32.000Z</time>
      </trkpt>
      <trkpt lat="43.59727" lon="1.17857">
        <ele>267</ele>
        <time>2020-10-03T09:46:33.000Z</time>
      </trkpt>
      <trkpt lat="43.59728" lon="1.17854">
        <ele>267</ele>
        <time>2020-10-03T09:46:34.000Z</time>
      </trkpt>
      <trkpt lat="43.59728" lon="1.17851">
        <ele>267</ele>
        <time>2020-10-03T09:46:35.000Z</time>
      </trkpt>
      <trkpt lat="43.59728" lon="1.17847">
        <ele>267</ele>
        <time>2020-10-03T09:46:36.000Z</time>
      </trkpt>
      <trkpt lat="43.59728" lon="1.17843">
        <ele>267.02598201373</ele>
        <time>2020-10-03T09:46:37.000Z</time>
      </trkpt>
      <trkpt lat="43.59729" lon="1.17839">
        <ele>268</ele>
        <time>2020-10-03T09:46:38.000Z</time>
      </trkpt>
      <trkpt lat="43.59729" lon="1.17836">
        <ele>268</ele>
        <time>2020-10-03T09:46:39.000Z</time>
      </trkpt>
      <trkpt lat="43.59729" lon="1.17832">
        <ele>268</ele>
        <time>2020-10-03T09:46:40.000Z</time>
      </trkpt>
      <trkpt lat="43.59729" lon="1.17828">
        <ele>268</ele>
        <time>2020-10-03T09:46:41.000Z</time>
      </trkpt>
      <trkpt lat="43.59729" lon="1.17825">
        <ele>268</ele>
        <time>2020-10-03T09:46:42.000Z</time>
      </trkpt>
      <trkpt lat="43.59729" lon="1.17822">
        <ele>268</ele>
        <time>2020-10-03T09:46:43.000Z</time>
      </trkpt>
      <trkpt lat="43.5973" lon="1.17818">
        <ele>268</ele>
        <time>2020-10-03T09:46:44.000Z</time>
      </trkpt>
      <trkpt lat="43.5973" lon="1.17815">
        <ele>268</ele>
        <time>2020-10-03T09:46:45.000Z</time>
      </trkpt>
      <trkpt lat="43.5973" lon="1.17812">
        <ele>268</ele>
        <time>2020-10-03T09:46:46.000Z</time>
      </trkpt>
      <trkpt lat="43.5973" lon="1.17809">
        <ele>268</ele>
        <time>2020-10-03T09:46:47.000Z</time>
      </trkpt>
      <trkpt lat="43.5973" lon="1.17805">
        <ele>268</ele>
        <time>2020-10-03T09:46:48.000Z</time>
      </trkpt>
      <trkpt lat="43.5973" lon="1.17802">
        <ele>268.41860153599</ele>
        <time>2020-10-03T09:46:49.000Z</time>
      </trkpt>
      <trkpt lat="43.59729" lon="1.17799">
        <ele>269</ele>
        <time>2020-10-03T09:46:50.000Z</time>
      </trkpt>
      <trkpt lat="43.59729" lon="1.17795">
        <ele>269.71027478377</ele>
        <time>2020-10-03T09:46:51.000Z</time>
      </trkpt>
      <trkpt lat="43.59728" lon="1.17791">
        <ele>271</ele>
        <time>2020-10-03T09:46:52.000Z</time>
      </trkpt>
      <trkpt lat="43.59727" lon="1.17788">
        <ele>271</ele>
        <time>2020-10-03T09:46:53.000Z</time>
      </trkpt>
      <trkpt lat="43.59727" lon="1.17784">
        <ele>271</ele>
        <time>2020-10-03T09:46:54.000Z</time>
      </trkpt>
      <trkpt lat="43.59726" lon="1.1778">
        <ele>271</ele>
        <time>2020-10-03T09:46:55.000Z</time>
      </trkpt>
      <trkpt lat="43.59727" lon="1.17777">
        <ele>271</ele>
        <time>2020-10-03T09:46:56.000Z</time>
      </trkpt>
      <trkpt lat="43.59727" lon="1.17773">
        <ele>271</ele>
        <time>2020-10-03T09:46:57.000Z</time>
      </trkpt>
      <trkpt lat="43.59726" lon="1.17769">
        <ele>271</ele>
        <time>2020-10-03T09:46:58.000Z</time>
      </trkpt>
      <trkpt lat="43.59726" lon="1.17765">
        <ele>271</ele>
        <time>2020-10-03T09:46:59.000Z</time>
      </trkpt>
      <trkpt lat="43.59726" lon="1.17762">
        <ele>271</ele>
        <time>2020-10-03T09:47:00.000Z</time>
      </trkpt>
      <trkpt lat="43.59726" lon="1.17758">
        <ele>271</ele>
        <time>2020-10-03T09:47:01.000Z</time>
      </trkpt>
      <trkpt lat="43.59726" lon="1.17755">
        <ele>271</ele>
        <time>2020-10-03T09:47:02.000Z</time>
      </trkpt>
      <trkpt lat="43.59725" lon="1.17751">
        <ele>271</ele>
        <time>2020-10-03T09:47:03.000Z</time>
      </trkpt>
      <trkpt lat="43.59725" lon="1.17747">
        <ele>271</ele>
        <time>2020-10-03T09:47:04.000Z</time>
      </trkpt>
      <trkpt lat="43.59725" lon="1.17744">
        <ele>271.40593871189</ele>
        <time>2020-10-03T09:47:05.000Z</time>
      </trkpt>
      <trkpt lat="43.59725" lon="1.1774">
        <ele>272</ele>
        <time>2020-10-03T09:47:06.000Z</time>
      </trkpt>
      <trkpt lat="43.59725" lon="1.17736">
        <ele>272</ele>
        <time>2020-10-03T09:47:07.000Z</time>
      </trkpt>
      <trkpt lat="43.59725" lon="1.17732">
        <ele>272</ele>
        <time>2020-10-03T09:47:08.000Z</time>
      </trkpt>
      <trkpt lat="43.59726" lon="1.17727">
        <ele>272</ele>
        <time>2020-10-03T09:47:09.000Z</time>
      </trkpt>
      <trkpt lat="43.59726" lon="1.17723">
        <ele>272</ele>
        <time>2020-10-03T09:47:10.000Z</time>
      </trkpt>
      <trkpt lat="43.59727" lon="1.1772">
        <ele>272</ele>
        <time>2020-10-03T09:47:11.000Z</time>
      </trkpt>
      <trkpt lat="43.59727" lon="1.17716">
        <ele>272</ele>
        <time>2020-10-03T09:47:12.000Z</time>
      </trkpt>
      <trkpt lat="43.59728" lon="1.17712">
        <ele>272</ele>
        <time>2020-10-03T09:47:13.000Z</time>
      </trkpt>
      <trkpt lat="43.59728" lon="1.17708">
        <ele>272.27678857143</ele>
        <time>2020-10-03T09:47:14.000Z</time>
      </trkpt>
      <trkpt lat="43.59729" lon="1.17704">
        <ele>273</ele>
        <time>2020-10-03T09:47:15.000Z</time>
      </trkpt>
      <trkpt lat="43.5973" lon="1.177">
        <ele>273</ele>
        <time>2020-10-03T09:47:16.000Z</time>
      </trkpt>
      <trkpt lat="43.5973" lon="1.17696">
        <ele>273</ele>
        <time>2020-10-03T09:47:17.000Z</time>
      </trkpt>
      <trkpt lat="43.59731" lon="1.17693">
        <ele>273</ele>
        <time>2020-10-03T09:47:18.000Z</time>
      </trkpt>
      <trkpt lat="43.59732" lon="1.17689">
        <ele>273</ele>
        <time>2020-10-03T09:47:19.000Z</time>
      </trkpt>
      <trkpt lat="43.59733" lon="1.17686">
        <ele>273</ele>
        <time>2020-10-03T09:47:20.000Z</time>
      </trkpt>
      <trkpt lat="43.59734" lon="1.17682">
        <ele>273</ele>
        <time>2020-10-03T09:47:21.000Z</time>
      </trkpt>
      <trkpt lat="43.59735" lon="1.17679">
        <ele>273</ele>
        <time>2020-10-03T09:47:22.000Z</time>
      </trkpt>
      <trkpt lat="43.59736" lon="1.17675">
        <ele>273</ele>
        <time>2020-10-03T09:47:23.000Z</time>
      </trkpt>
      <trkpt lat="43.59737" lon="1.17671">
        <ele>273</ele>
        <time>2020-10-03T09:47:24.000Z</time>
      </trkpt>
      <trkpt lat="43.59739" lon="1.17668">
        <ele>273</ele>
        <time>2020-10-03T09:47:25.000Z</time>
      </trkpt>
      <trkpt lat="43.5974" lon="1.17664">
        <ele>273</ele>
        <time>2020-10-03T09:47:26.000Z</time>
      </trkpt>
      <trkpt lat="43.59742" lon="1.17661">
        <ele>273</ele>
        <time>2020-10-03T09:47:27.000Z</time>
      </trkpt>
      <trkpt lat="43.59744" lon="1.17658">
        <ele>273</ele>
        <time>2020-10-03T09:47:28.000Z</time>
      </trkpt>
      <trkpt lat="43.59746" lon="1.17654">
        <ele>273</ele>
        <time>2020-10-03T09:47:29.000Z</time>
      </trkpt>
      <trkpt lat="43.59748" lon="1.17651">
        <ele>273</ele>
        <time>2020-10-03T09:47:30.000Z</time>
      </trkpt>
      <trkpt lat="43.59749" lon="1.17648">
        <ele>273</ele>
        <time>2020-10-03T09:47:31.000Z</time>
      </trkpt>
      <trkpt lat="43.5975" lon="1.17644">
        <ele>273.43859333947</ele>
        <time>2020-10-03T09:47:32.000Z</time>
      </trkpt>
      <trkpt lat="43.59751" lon="1.17641">
        <ele>274</ele>
        <time>2020-10-03T09:47:33.000Z</time>
      </trkpt>
      <trkpt lat="43.59752" lon="1.17637">
        <ele>274</ele>
        <time>2020-10-03T09:47:34.000Z</time>
      </trkpt>
      <trkpt lat="43.59753" lon="1.17633">
        <ele>274</ele>
        <time>2020-10-03T09:47:35.000Z</time>
      </trkpt>
      <trkpt lat="43.59755" lon="1.17629">
        <ele>274</ele>
        <time>2020-10-03T09:47:36.000Z</time>
      </trkpt>
      <trkpt lat="43.59756" lon="1.17626">
        <ele>274</ele>
        <time>2020-10-03T09:47:37.000Z</time>
      </trkpt>
      <trkpt lat="43.59757" lon="1.17622">
        <ele>274</ele>
        <time>2020-10-03T09:47:38.000Z</time>
      </trkpt>
      <trkpt lat="43.59758" lon="1.17618">
        <ele>274</ele>
        <time>2020-10-03T09:47:39.000Z</time>
      </trkpt>
      <trkpt lat="43.59759" lon="1.17614">
        <ele>274</ele>
        <time>2020-10-03T09:47:40.000Z</time>
      </trkpt>
      <trkpt lat="43.5976" lon="1.1761">
        <ele>274</ele>
        <time>2020-10-03T09:47:41.000Z</time>
      </trkpt>
      <trkpt lat="43.59761" lon="1.17606">
        <ele>274</ele>
        <time>2020-10-03T09:47:42.000Z</time>
      </trkpt>
      <trkpt lat="43.59762" lon="1.17602">
        <ele>274</ele>
        <time>2020-10-03T09:47:43.000Z</time>
      </trkpt>
      <trkpt lat="43.59763" lon="1.17598">
        <ele>274</ele>
        <time>2020-10-03T09:47:44.000Z</time>
      </trkpt>
      <trkpt lat="43.59763" lon="1.17593">
        <ele>274</ele>
        <time>2020-10-03T09:47:45.000Z</time>
      </trkpt>
      <trkpt lat="43.59764" lon="1.17589">
        <ele>274</ele>
        <time>2020-10-03T09:47:46.000Z</time>
      </trkpt>
      <trkpt lat="43.59765" lon="1.17585">
        <ele>274</ele>
        <time>2020-10-03T09:47:47.000Z</time>
      </trkpt>
      <trkpt lat="43.59766" lon="1.17582">
        <ele>274</ele>
        <time>2020-10-03T09:47:48.000Z</time>
      </trkpt>
      <trkpt lat="43.59767" lon="1.17577">
        <ele>273.6511676366</ele>
        <time>2020-10-03T09:47:49.000Z</time>
      </trkpt>
      <trkpt lat="43.59768" lon="1.17573">
        <ele>273</ele>
        <time>2020-10-03T09:47:50.000Z</time>
      </trkpt>
      <trkpt lat="43.5977" lon="1.17565">
        <ele>273</ele>
        <time>2020-10-03T09:47:52.000Z</time>
      </trkpt>
      <trkpt lat="43.59771" lon="1.17561">
        <ele>273</ele>
        <time>2020-10-03T09:47:53.000Z</time>
      </trkpt>
      <trkpt lat="43.59772" lon="1.17558">
        <ele>273</ele>
        <time>2020-10-03T09:47:54.000Z</time>
      </trkpt>
      <trkpt lat="43.59772" lon="1.17554">
        <ele>273.47619221767</ele>
        <time>2020-10-03T09:47:55.000Z</time>
      </trkpt>
      <trkpt lat="43.59773" lon="1.17549">
        <ele>274.47368562882</ele>
        <time>2020-10-03T09:47:56.000Z</time>
      </trkpt>
      <trkpt lat="43.59774" lon="1.17546">
        <ele>275</ele>
        <time>2020-10-03T09:47:57.000Z</time>
      </trkpt>
      <trkpt lat="43.59776" lon="1.17542">
        <ele>275</ele>
        <time>2020-10-03T09:47:58.000Z</time>
      </trkpt>
      <trkpt lat="43.59778" lon="1.17538">
        <ele>275</ele>
        <time>2020-10-03T09:47:59.000Z</time>
      </trkpt>
      <trkpt lat="43.59779" lon="1.17535">
        <ele>275</ele>
        <time>2020-10-03T09:48:00.000Z</time>
      </trkpt>
      <trkpt lat="43.59781" lon="1.17531">
        <ele>275</ele>
        <time>2020-10-03T09:48:01.000Z</time>
      </trkpt>
      <trkpt lat="43.59783" lon="1.17528">
        <ele>275</ele>
        <time>2020-10-03T09:48:02.000Z</time>
      </trkpt>
      <trkpt lat="43.59784" lon="1.17524">
        <ele>275.32183789669</ele>
        <time>2020-10-03T09:48:03.000Z</time>
      </trkpt>
      <trkpt lat="43.59785" lon="1.1752">
        <ele>276</ele>
        <time>2020-10-03T09:48:04.000Z</time>
      </trkpt>
      <trkpt lat="43.59786" lon="1.17516">
        <ele>276</ele>
        <time>2020-10-03T09:48:05.000Z</time>
      </trkpt>
      <trkpt lat="43.59786" lon="1.17512">
        <ele>276</ele>
        <time>2020-10-03T09:48:06.000Z</time>
      </trkpt>
      <trkpt lat="43.59787" lon="1.17508">
        <ele>276</ele>
        <time>2020-10-03T09:48:07.000Z</time>
      </trkpt>
      <trkpt lat="43.59787" lon="1.17504">
        <ele>276</ele>
        <time>2020-10-03T09:48:08.000Z</time>
      </trkpt>
      <trkpt lat="43.59787" lon="1.175">
        <ele>276</ele>
        <time>2020-10-03T09:48:09.000Z</time>
      </trkpt>
      <trkpt lat="43.59788" lon="1.17497">
        <ele>276</ele>
        <time>2020-10-03T09:48:10.000Z</time>
      </trkpt>
      <trkpt lat="43.59788" lon="1.17493">
        <ele>275.64444528724</ele>
        <time>2020-10-03T09:48:11.000Z</time>
      </trkpt>
      <trkpt lat="43.59788" lon="1.17489">
        <ele>275</ele>
        <time>2020-10-03T09:48:12.000Z</time>
      </trkpt>
      <trkpt lat="43.59789" lon="1.17485">
        <ele>275</ele>
        <time>2020-10-03T09:48:13.000Z</time>
      </trkpt>
      <trkpt lat="43.59789" lon="1.17482">
        <ele>275</ele>
        <time>2020-10-03T09:48:14.000Z</time>
      </trkpt>
      <trkpt lat="43.59789" lon="1.17478">
        <ele>274.59090961984</ele>
        <time>2020-10-03T09:48:15.000Z</time>
      </trkpt>
      <trkpt lat="43.5979" lon="1.17475">
        <ele>274</ele>
        <time>2020-10-03T09:48:16.000Z</time>
      </trkpt>
      <trkpt lat="43.5979" lon="1.17472">
        <ele>274</ele>
        <time>2020-10-03T09:48:17.000Z</time>
      </trkpt>
      <trkpt lat="43.5979" lon="1.17469">
        <ele>274</ele>
        <time>2020-10-03T09:48:18.000Z</time>
      </trkpt>
      <trkpt lat="43.5979" lon="1.17466">
        <ele>274.86791769309</ele>
        <time>2020-10-03T09:48:19.000Z</time>
      </trkpt>
      <trkpt lat="43.5979" lon="1.17462">
        <ele>276</ele>
        <time>2020-10-03T09:48:20.000Z</time>
      </trkpt>
      <trkpt lat="43.59791" lon="1.17459">
        <ele>276</ele>
        <time>2020-10-03T09:48:21.000Z</time>
      </trkpt>
      <trkpt lat="43.59791" lon="1.17456">
        <ele>276.41284231293</ele>
        <time>2020-10-03T09:48:22.000Z</time>
      </trkpt>
      <trkpt lat="43.59792" lon="1.17453">
        <ele>277</ele>
        <time>2020-10-03T09:48:23.000Z</time>
      </trkpt>
      <trkpt lat="43.59792" lon="1.17449">
        <ele>277</ele>
        <time>2020-10-03T09:48:24.000Z</time>
      </trkpt>
      <trkpt lat="43.59793" lon="1.17445">
        <ele>277</ele>
        <time>2020-10-03T09:48:25.000Z</time>
      </trkpt>
      <trkpt lat="43.59794" lon="1.17442">
        <ele>277.34444555061</ele>
        <time>2020-10-03T09:48:26.000Z</time>
      </trkpt>
      <trkpt lat="43.59795" lon="1.17439">
        <ele>278</ele>
        <time>2020-10-03T09:48:27.000Z</time>
      </trkpt>
      <trkpt lat="43.59796" lon="1.17435">
        <ele>278</ele>
        <time>2020-10-03T09:48:28.000Z</time>
      </trkpt>
      <trkpt lat="43.59797" lon="1.17431">
        <ele>278</ele>
        <time>2020-10-03T09:48:29.000Z</time>
      </trkpt>
      <trkpt lat="43.59799" lon="1.17427">
        <ele>278</ele>
        <time>2020-10-03T09:48:30.000Z</time>
      </trkpt>
      <trkpt lat="43.59803" lon="1.1742">
        <ele>278</ele>
        <time>2020-10-03T09:48:32.000Z</time>
      </trkpt>
      <trkpt lat="43.59804" lon="1.17417">
        <ele>278</ele>
        <time>2020-10-03T09:48:33.000Z</time>
      </trkpt>
      <trkpt lat="43.59807" lon="1.17413">
        <ele>278</ele>
        <time>2020-10-03T09:48:34.000Z</time>
      </trkpt>
      <trkpt lat="43.59809" lon="1.17409">
        <ele>278</ele>
        <time>2020-10-03T09:48:35.000Z</time>
      </trkpt>
      <trkpt lat="43.59811" lon="1.17405">
        <ele>278</ele>
        <time>2020-10-03T09:48:36.000Z</time>
      </trkpt>
      <trkpt lat="43.59813" lon="1.17403">
        <ele>278</ele>
        <time>2020-10-03T09:48:37.000Z</time>
      </trkpt>
      <trkpt lat="43.59815" lon="1.17401">
        <ele>278</ele>
        <time>2020-10-03T09:48:38.000Z</time>
      </trkpt>
      <trkpt lat="43.59817" lon="1.17398">
        <ele>278</ele>
        <time>2020-10-03T09:48:39.000Z</time>
      </trkpt>
      <trkpt lat="43.5982" lon="1.17395">
        <ele>278</ele>
        <time>2020-10-03T09:48:40.000Z</time>
      </trkpt>
      <trkpt lat="43.59823" lon="1.17392">
        <ele>278</ele>
        <time>2020-10-03T09:48:41.000Z</time>
      </trkpt>
      <trkpt lat="43.59825" lon="1.1739">
        <ele>278</ele>
        <time>2020-10-03T09:48:42.000Z</time>
      </trkpt>
      <trkpt lat="43.59828" lon="1.17387">
        <ele>278</ele>
        <time>2020-10-03T09:48:43.000Z</time>
      </trkpt>
      <trkpt lat="43.59831" lon="1.17385">
        <ele>278</ele>
        <time>2020-10-03T09:48:44.000Z</time>
      </trkpt>
      <trkpt lat="43.59834" lon="1.17382">
        <ele>278</ele>
        <time>2020-10-03T09:48:45.000Z</time>
      </trkpt>
      <trkpt lat="43.59837" lon="1.1738">
        <ele>278</ele>
        <time>2020-10-03T09:48:46.000Z</time>
      </trkpt>
      <trkpt lat="43.5984" lon="1.17379">
        <ele>277.62727346777</ele>
        <time>2020-10-03T09:48:47.000Z</time>
      </trkpt>
      <trkpt lat="43.59843" lon="1.17377">
        <ele>277</ele>
        <time>2020-10-03T09:48:48.000Z</time>
      </trkpt>
      <trkpt lat="43.59845" lon="1.17374">
        <ele>277</ele>
        <time>2020-10-03T09:48:49.000Z</time>
      </trkpt>
      <trkpt lat="43.59848" lon="1.17372">
        <ele>277</ele>
        <time>2020-10-03T09:48:50.000Z</time>
      </trkpt>
      <trkpt lat="43.59851" lon="1.17369">
        <ele>277</ele>
        <time>2020-10-03T09:48:51.000Z</time>
      </trkpt>
      <trkpt lat="43.59854" lon="1.17367">
        <ele>276.55555239504</ele>
        <time>2020-10-03T09:48:52.000Z</time>
      </trkpt>
      <trkpt lat="43.59856" lon="1.17364">
        <ele>276</ele>
        <time>2020-10-03T09:48:53.000Z</time>
      </trkpt>
      <trkpt lat="43.59858" lon="1.17362">
        <ele>276</ele>
        <time>2020-10-03T09:48:54.000Z</time>
      </trkpt>
      <trkpt lat="43.59859" lon="1.17359">
        <ele>276</ele>
        <time>2020-10-03T09:48:55.000Z</time>
      </trkpt>
      <trkpt lat="43.59861" lon="1.17356">
        <ele>276</ele>
        <time>2020-10-03T09:48:56.000Z</time>
      </trkpt>
      <trkpt lat="43.59862" lon="1.17353">
        <ele>276</ele>
        <time>2020-10-03T09:48:57.000Z</time>
      </trkpt>
      <trkpt lat="43.59864" lon="1.17349">
        <ele>276</ele>
        <time>2020-10-03T09:48:58.000Z</time>
      </trkpt>
      <trkpt lat="43.59865" lon="1.17345">
        <ele>276</ele>
        <time>2020-10-03T09:48:59.000Z</time>
      </trkpt>
      <trkpt lat="43.59867" lon="1.17342">
        <ele>276</ele>
        <time>2020-10-03T09:49:00.000Z</time>
      </trkpt>
      <trkpt lat="43.59869" lon="1.17338">
        <ele>276</ele>
        <time>2020-10-03T09:49:01.000Z</time>
      </trkpt>
      <trkpt lat="43.59871" lon="1.17335">
        <ele>276</ele>
        <time>2020-10-03T09:49:02.000Z</time>
      </trkpt>
      <trkpt lat="43.59873" lon="1.17332">
        <ele>276.36046615467</ele>
        <time>2020-10-03T09:49:03.000Z</time>
      </trkpt>
      <trkpt lat="43.59875" lon="1.17328">
        <ele>277</ele>
        <time>2020-10-03T09:49:04.000Z</time>
      </trkpt>
      <trkpt lat="43.59877" lon="1.17325">
        <ele>277</ele>
        <time>2020-10-03T09:49:05.000Z</time>
      </trkpt>
      <trkpt lat="43.59878" lon="1.17322">
        <ele>277</ele>
        <time>2020-10-03T09:49:06.000Z</time>
      </trkpt>
      <trkpt lat="43.5988" lon="1.17318">
        <ele>277</ele>
        <time>2020-10-03T09:49:07.000Z</time>
      </trkpt>
      <trkpt lat="43.59882" lon="1.17314">
        <ele>277</ele>
        <time>2020-10-03T09:49:08.000Z</time>
      </trkpt>
      <trkpt lat="43.59883" lon="1.17311">
        <ele>277</ele>
        <time>2020-10-03T09:49:09.000Z</time>
      </trkpt>
      <trkpt lat="43.59885" lon="1.17308">
        <ele>277</ele>
        <time>2020-10-03T09:49:10.000Z</time>
      </trkpt>
      <trkpt lat="43.59886" lon="1.17305">
        <ele>277</ele>
        <time>2020-10-03T09:49:11.000Z</time>
      </trkpt>
      <trkpt lat="43.59887" lon="1.17302">
        <ele>276.55357714286</ele>
        <time>2020-10-03T09:49:12.000Z</time>
      </trkpt>
      <trkpt lat="43.59888" lon="1.17299">
        <ele>276</ele>
        <time>2020-10-03T09:49:13.000Z</time>
      </trkpt>
      <trkpt lat="43.59889" lon="1.17296">
        <ele>276</ele>
        <time>2020-10-03T09:49:14.000Z</time>
      </trkpt>
      <trkpt lat="43.59891" lon="1.17294">
        <ele>276</ele>
        <time>2020-10-03T09:49:15.000Z</time>
      </trkpt>
      <trkpt lat="43.59893" lon="1.1729">
        <ele>276</ele>
        <time>2020-10-03T09:49:16.000Z</time>
      </trkpt>
      <trkpt lat="43.59895" lon="1.17287">
        <ele>276</ele>
        <time>2020-10-03T09:49:17.000Z</time>
      </trkpt>
      <trkpt lat="43.59897" lon="1.17284">
        <ele>276</ele>
        <time>2020-10-03T09:49:18.000Z</time>
      </trkpt>
      <trkpt lat="43.59899" lon="1.17281">
        <ele>276</ele>
        <time>2020-10-03T09:49:19.000Z</time>
      </trkpt>
      <trkpt lat="43.59901" lon="1.17278">
        <ele>276</ele>
        <time>2020-10-03T09:49:20.000Z</time>
      </trkpt>
      <trkpt lat="43.59902" lon="1.17274">
        <ele>276</ele>
        <time>2020-10-03T09:49:21.000Z</time>
      </trkpt>
      <trkpt lat="43.59904" lon="1.17271">
        <ele>276</ele>
        <time>2020-10-03T09:49:22.000Z</time>
      </trkpt>
      <trkpt lat="43.59906" lon="1.17268">
        <ele>276</ele>
        <time>2020-10-03T09:49:23.000Z</time>
      </trkpt>
      <trkpt lat="43.59909" lon="1.17265">
        <ele>276</ele>
        <time>2020-10-03T09:49:24.000Z</time>
      </trkpt>
      <trkpt lat="43.59911" lon="1.17262">
        <ele>276.33944760205</ele>
        <time>2020-10-03T09:49:25.000Z</time>
      </trkpt>
      <trkpt lat="43.59913" lon="1.17259">
        <ele>277</ele>
        <time>2020-10-03T09:49:26.000Z</time>
      </trkpt>
      <trkpt lat="43.59915" lon="1.17257">
        <ele>277</ele>
        <time>2020-10-03T09:49:27.000Z</time>
      </trkpt>
      <trkpt lat="43.5992" lon="1.17252">
        <ele>277</ele>
        <time>2020-10-03T09:49:29.000Z</time>
      </trkpt>
      <trkpt lat="43.59922" lon="1.17249">
        <ele>277</ele>
        <time>2020-10-03T09:49:30.000Z</time>
      </trkpt>
      <trkpt lat="43.59925" lon="1.17246">
        <ele>277</ele>
        <time>2020-10-03T09:49:31.000Z</time>
      </trkpt>
      <trkpt lat="43.59927" lon="1.17243">
        <ele>276.67816210331</ele>
        <time>2020-10-03T09:49:32.000Z</time>
      </trkpt>
      <trkpt lat="43.59929" lon="1.17241">
        <ele>276</ele>
        <time>2020-10-03T09:49:33.000Z</time>
      </trkpt>
      <trkpt lat="43.59931" lon="1.17238">
        <ele>276</ele>
        <time>2020-10-03T09:49:34.000Z</time>
      </trkpt>
      <trkpt lat="43.59934" lon="1.17235">
        <ele>276</ele>
        <time>2020-10-03T09:49:35.000Z</time>
      </trkpt>
      <trkpt lat="43.59935" lon="1.17231">
        <ele>275.65555444939</ele>
        <time>2020-10-03T09:49:36.000Z</time>
      </trkpt>
      <trkpt lat="43.59937" lon="1.17228">
        <ele>275</ele>
        <time>2020-10-03T09:49:37.000Z</time>
      </trkpt>
      <trkpt lat="43.59939" lon="1.17225">
        <ele>275</ele>
        <time>2020-10-03T09:49:38.000Z</time>
      </trkpt>
      <trkpt lat="43.5994" lon="1.17221">
        <ele>275</ele>
        <time>2020-10-03T09:49:39.000Z</time>
      </trkpt>
      <trkpt lat="43.59941" lon="1.17217">
        <ele>275</ele>
        <time>2020-10-03T09:49:40.000Z</time>
      </trkpt>
      <trkpt lat="43.59943" lon="1.17214">
        <ele>275</ele>
        <time>2020-10-03T09:49:41.000Z</time>
      </trkpt>
      <trkpt lat="43.59944" lon="1.1721">
        <ele>275</ele>
        <time>2020-10-03T09:49:42.000Z</time>
      </trkpt>
      <trkpt lat="43.59945" lon="1.17206">
        <ele>275</ele>
        <time>2020-10-03T09:49:43.000Z</time>
      </trkpt>
      <trkpt lat="43.59947" lon="1.17202">
        <ele>275</ele>
        <time>2020-10-03T09:49:44.000Z</time>
      </trkpt>
      <trkpt lat="43.59948" lon="1.17198">
        <ele>275</ele>
        <time>2020-10-03T09:49:45.000Z</time>
      </trkpt>
      <trkpt lat="43.59949" lon="1.17195">
        <ele>275</ele>
        <time>2020-10-03T09:49:46.000Z</time>
      </trkpt>
      <trkpt lat="43.5995" lon="1.17191">
        <ele>275.10389653567</ele>
        <time>2020-10-03T09:49:47.000Z</time>
      </trkpt>
      <trkpt lat="43.59951" lon="1.17187">
        <ele>276</ele>
        <time>2020-10-03T09:49:48.000Z</time>
      </trkpt>
      <trkpt lat="43.59952" lon="1.17183">
        <ele>276</ele>
        <time>2020-10-03T09:49:49.000Z</time>
      </trkpt>
      <trkpt lat="43.59954" lon="1.1718">
        <ele>276</ele>
        <time>2020-10-03T09:49:50.000Z</time>
      </trkpt>
      <trkpt lat="43.59955" lon="1.17176">
        <ele>276</ele>
        <time>2020-10-03T09:49:51.000Z</time>
      </trkpt>
      <trkpt lat="43.59957" lon="1.17173">
        <ele>275.5596317347</ele>
        <time>2020-10-03T09:49:52.000Z</time>
      </trkpt>
      <trkpt lat="43.59958" lon="1.17169">
        <ele>275</ele>
        <time>2020-10-03T09:49:53.000Z</time>
      </trkpt>
      <trkpt lat="43.59959" lon="1.17166">
        <ele>275</ele>
        <time>2020-10-03T09:49:54.000Z</time>
      </trkpt>
      <trkpt lat="43.5996" lon="1.17162">
        <ele>275</ele>
        <time>2020-10-03T09:49:55.000Z</time>
      </trkpt>
      <trkpt lat="43.59961" lon="1.17159">
        <ele>274.67816210331</ele>
        <time>2020-10-03T09:49:56.000Z</time>
      </trkpt>
      <trkpt lat="43.59963" lon="1.17156">
        <ele>274</ele>
        <time>2020-10-03T09:49:57.000Z</time>
      </trkpt>
      <trkpt lat="43.59965" lon="1.17152">
        <ele>274</ele>
        <time>2020-10-03T09:49:58.000Z</time>
      </trkpt>
      <trkpt lat="43.59966" lon="1.17149">
        <ele>274</ele>
        <time>2020-10-03T09:49:59.000Z</time>
      </trkpt>
      <trkpt lat="43.59967" lon="1.17146">
        <ele>274</ele>
        <time>2020-10-03T09:50:00.000Z</time>
      </trkpt>
      <trkpt lat="43.59969" lon="1.17142">
        <ele>274</ele>
        <time>2020-10-03T09:50:01.000Z</time>
      </trkpt>
      <trkpt lat="43.5997" lon="1.17139">
        <ele>273.63529447197</ele>
        <time>2020-10-03T09:50:02.000Z</time>
      </trkpt>
      <trkpt lat="43.59972" lon="1.17136">
        <ele>273</ele>
        <time>2020-10-03T09:50:03.000Z</time>
      </trkpt>
      <trkpt lat="43.59974" lon="1.17133">
        <ele>273</ele>
        <time>2020-10-03T09:50:04.000Z</time>
      </trkpt>
      <trkpt lat="43.59975" lon="1.17129">
        <ele>273</ele>
        <time>2020-10-03T09:50:05.000Z</time>
      </trkpt>
      <trkpt lat="43.59978" lon="1.17126">
        <ele>273</ele>
        <time>2020-10-03T09:50:06.000Z</time>
      </trkpt>
      <trkpt lat="43.5998" lon="1.17123">
        <ele>273</ele>
        <time>2020-10-03T09:50:07.000Z</time>
      </trkpt>
      <trkpt lat="43.59982" lon="1.17119">
        <ele>273</ele>
        <time>2020-10-03T09:50:08.000Z</time>
      </trkpt>
      <trkpt lat="43.59984" lon="1.17116">
        <ele>273</ele>
        <time>2020-10-03T09:50:09.000Z</time>
      </trkpt>
      <trkpt lat="43.59985" lon="1.17113">
        <ele>273</ele>
        <time>2020-10-03T09:50:10.000Z</time>
      </trkpt>
      <trkpt lat="43.59987" lon="1.1711">
        <ele>273</ele>
        <time>2020-10-03T09:50:11.000Z</time>
      </trkpt>
      <trkpt lat="43.59989" lon="1.17108">
        <ele>273</ele>
        <time>2020-10-03T09:50:12.000Z</time>
      </trkpt>
      <trkpt lat="43.5999" lon="1.17105">
        <ele>273</ele>
        <time>2020-10-03T09:50:13.000Z</time>
      </trkpt>
      <trkpt lat="43.59992" lon="1.17102">
        <ele>273</ele>
        <time>2020-10-03T09:50:14.000Z</time>
      </trkpt>
      <trkpt lat="43.59994" lon="1.17099">
        <ele>273</ele>
        <time>2020-10-03T09:50:15.000Z</time>
      </trkpt>
      <trkpt lat="43.59996" lon="1.17095">
        <ele>273</ele>
        <time>2020-10-03T09:50:16.000Z</time>
      </trkpt>
      <trkpt lat="43.59998" lon="1.17092">
        <ele>273</ele>
        <time>2020-10-03T09:50:17.000Z</time>
      </trkpt>
      <trkpt lat="43.6" lon="1.17089">
        <ele>273</ele>
        <time>2020-10-03T09:50:18.000Z</time>
      </trkpt>
      <trkpt lat="43.60003" lon="1.17085">
        <ele>273.44444128397</ele>
        <time>2020-10-03T09:50:19.000Z</time>
      </trkpt>
      <trkpt lat="43.60005" lon="1.17082">
        <ele>274</ele>
        <time>2020-10-03T09:50:20.000Z</time>
      </trkpt>
      <trkpt lat="43.60008" lon="1.17079">
        <ele>274</ele>
        <time>2020-10-03T09:50:21.000Z</time>
      </trkpt>
      <trkpt lat="43.6001" lon="1.17075">
        <ele>274</ele>
        <time>2020-10-03T09:50:22.000Z</time>
      </trkpt>
      <trkpt lat="43.60012" lon="1.17072">
        <ele>274</ele>
        <time>2020-10-03T09:50:23.000Z</time>
      </trkpt>
      <trkpt lat="43.60014" lon="1.17069">
        <ele>274</ele>
        <time>2020-10-03T09:50:24.000Z</time>
      </trkpt>
      <trkpt lat="43.60016" lon="1.17066">
        <ele>274</ele>
        <time>2020-10-03T09:50:25.000Z</time>
      </trkpt>
      <trkpt lat="43.60018" lon="1.17064">
        <ele>274</ele>
        <time>2020-10-03T09:50:26.000Z</time>
      </trkpt>
      <trkpt lat="43.6002" lon="1.1706">
        <ele>274</ele>
        <time>2020-10-03T09:50:27.000Z</time>
      </trkpt>
      <trkpt lat="43.60022" lon="1.17057">
        <ele>274</ele>
        <time>2020-10-03T09:50:28.000Z</time>
      </trkpt>
      <trkpt lat="43.60024" lon="1.17055">
        <ele>274</ele>
        <time>2020-10-03T09:50:29.000Z</time>
      </trkpt>
      <trkpt lat="43.60026" lon="1.17053">
        <ele>274</ele>
        <time>2020-10-03T09:50:30.000Z</time>
      </trkpt>
      <trkpt lat="43.60028" lon="1.1705">
        <ele>274</ele>
        <time>2020-10-03T09:50:31.000Z</time>
      </trkpt>
      <trkpt lat="43.60029" lon="1.17048">
        <ele>274</ele>
        <time>2020-10-03T09:50:32.000Z</time>
      </trkpt>
      <trkpt lat="43.60031" lon="1.17046">
        <ele>274</ele>
        <time>2020-10-03T09:50:33.000Z</time>
      </trkpt>
      <trkpt lat="43.60033" lon="1.17044">
        <ele>274</ele>
        <time>2020-10-03T09:50:34.000Z</time>
      </trkpt>
      <trkpt lat="43.60035" lon="1.17041">
        <ele>274</ele>
        <time>2020-10-03T09:50:35.000Z</time>
      </trkpt>
      <trkpt lat="43.60038" lon="1.17039">
        <ele>273.54545771903</ele>
        <time>2020-10-03T09:50:36.000Z</time>
      </trkpt>
      <trkpt lat="43.60041" lon="1.17037">
        <ele>273</ele>
        <time>2020-10-03T09:50:37.000Z</time>
      </trkpt>
      <trkpt lat="43.60044" lon="1.17035">
        <ele>273</ele>
        <time>2020-10-03T09:50:38.000Z</time>
      </trkpt>
      <trkpt lat="43.60047" lon="1.17033">
        <ele>273.31395487289</ele>
        <time>2020-10-03T09:50:39.000Z</time>
      </trkpt>
      <trkpt lat="43.6005" lon="1.1703">
        <ele>274</ele>
        <time>2020-10-03T09:50:40.000Z</time>
      </trkpt>
      <trkpt lat="43.60052" lon="1.17028">
        <ele>274</ele>
        <time>2020-10-03T09:50:41.000Z</time>
      </trkpt>
      <trkpt lat="43.60054" lon="1.17025">
        <ele>274</ele>
        <time>2020-10-03T09:50:42.000Z</time>
      </trkpt>
      <trkpt lat="43.60055" lon="1.17023">
        <ele>274</ele>
        <time>2020-10-03T09:50:43.000Z</time>
      </trkpt>
      <trkpt lat="43.60057" lon="1.1702">
        <ele>274</ele>
        <time>2020-10-03T09:50:44.000Z</time>
      </trkpt>
      <trkpt lat="43.60059" lon="1.17017">
        <ele>274</ele>
        <time>2020-10-03T09:50:45.000Z</time>
      </trkpt>
      <trkpt lat="43.6006" lon="1.17013">
        <ele>274</ele>
        <time>2020-10-03T09:50:46.000Z</time>
      </trkpt>
      <trkpt lat="43.60061" lon="1.17011">
        <ele>274</ele>
        <time>2020-10-03T09:50:47.000Z</time>
      </trkpt>
      <trkpt lat="43.60062" lon="1.17007">
        <ele>274</ele>
        <time>2020-10-03T09:50:48.000Z</time>
      </trkpt>
      <trkpt lat="43.60064" lon="1.17004">
        <ele>274</ele>
        <time>2020-10-03T09:50:49.000Z</time>
      </trkpt>
      <trkpt lat="43.60065" lon="1.17001">
        <ele>274</ele>
        <time>2020-10-03T09:50:50.000Z</time>
      </trkpt>
      <trkpt lat="43.60066" lon="1.16997">
        <ele>274</ele>
        <time>2020-10-03T09:50:51.000Z</time>
      </trkpt>
      <trkpt lat="43.60067" lon="1.16993">
        <ele>274</ele>
        <time>2020-10-03T09:50:52.000Z</time>
      </trkpt>
      <trkpt lat="43.60069" lon="1.1699">
        <ele>274</ele>
        <time>2020-10-03T09:50:53.000Z</time>
      </trkpt>
      <trkpt lat="43.60069" lon="1.16987">
        <ele>274</ele>
        <time>2020-10-03T09:50:54.000Z</time>
      </trkpt>
      <trkpt lat="43.6007" lon="1.16984">
        <ele>274</ele>
        <time>2020-10-03T09:50:55.000Z</time>
      </trkpt>
      <trkpt lat="43.60072" lon="1.16981">
        <ele>274</ele>
        <time>2020-10-03T09:50:56.000Z</time>
      </trkpt>
      <trkpt lat="43.60073" lon="1.16978">
        <ele>274</ele>
        <time>2020-10-03T09:50:57.000Z</time>
      </trkpt>
      <trkpt lat="43.60075" lon="1.16974">
        <ele>274</ele>
        <time>2020-10-03T09:50:58.000Z</time>
      </trkpt>
      <trkpt lat="43.60076" lon="1.16971">
        <ele>274</ele>
        <time>2020-10-03T09:50:59.000Z</time>
      </trkpt>
      <trkpt lat="43.60077" lon="1.16967">
        <ele>274.13414919688</ele>
        <time>2020-10-03T09:51:00.000Z</time>
      </trkpt>
      <trkpt lat="43.60078" lon="1.16964">
        <ele>275</ele>
        <time>2020-10-03T09:51:01.000Z</time>
      </trkpt>
      <trkpt lat="43.60079" lon="1.16961">
        <ele>275</ele>
        <time>2020-10-03T09:51:02.000Z</time>
      </trkpt>
      <trkpt lat="43.60081" lon="1.16958">
        <ele>275</ele>
        <time>2020-10-03T09:51:03.000Z</time>
      </trkpt>
      <trkpt lat="43.60082" lon="1.16955">
        <ele>275</ele>
        <time>2020-10-03T09:51:04.000Z</time>
      </trkpt>
      <trkpt lat="43.60084" lon="1.16953">
        <ele>275</ele>
        <time>2020-10-03T09:51:05.000Z</time>
      </trkpt>
      <trkpt lat="43.60084" lon="1.1695">
        <ele>275</ele>
        <time>2020-10-03T09:51:06.000Z</time>
      </trkpt>
      <trkpt lat="43.60085" lon="1.16947">
        <ele>275</ele>
        <time>2020-10-03T09:51:07.000Z</time>
      </trkpt>
      <trkpt lat="43.60086" lon="1.16945">
        <ele>275</ele>
        <time>2020-10-03T09:51:08.000Z</time>
      </trkpt>
      <trkpt lat="43.60087" lon="1.16942">
        <ele>275</ele>
        <time>2020-10-03T09:51:09.000Z</time>
      </trkpt>
      <trkpt lat="43.60089" lon="1.16939">
        <ele>275</ele>
        <time>2020-10-03T09:51:10.000Z</time>
      </trkpt>
      <trkpt lat="43.6009" lon="1.16936">
        <ele>275</ele>
        <time>2020-10-03T09:51:11.000Z</time>
      </trkpt>
      <trkpt lat="43.60091" lon="1.16933">
        <ele>275</ele>
        <time>2020-10-03T09:51:12.000Z</time>
      </trkpt>
      <trkpt lat="43.60092" lon="1.16929">
        <ele>275</ele>
        <time>2020-10-03T09:51:13.000Z</time>
      </trkpt>
      <trkpt lat="43.60093" lon="1.16926">
        <ele>275</ele>
        <time>2020-10-03T09:51:14.000Z</time>
      </trkpt>
      <trkpt lat="43.60094" lon="1.16923">
        <ele>275.32183789669</ele>
        <time>2020-10-03T09:51:15.000Z</time>
      </trkpt>
      <trkpt lat="43.60095" lon="1.1692">
        <ele>276</ele>
        <time>2020-10-03T09:51:16.000Z</time>
      </trkpt>
      <trkpt lat="43.60096" lon="1.16917">
        <ele>276</ele>
        <time>2020-10-03T09:51:17.000Z</time>
      </trkpt>
      <trkpt lat="43.60097" lon="1.16914">
        <ele>276</ele>
        <time>2020-10-03T09:51:18.000Z</time>
      </trkpt>
      <trkpt lat="43.60098" lon="1.16911">
        <ele>276.27193110495</ele>
        <time>2020-10-03T09:51:19.000Z</time>
      </trkpt>
      <trkpt lat="43.601" lon="1.16908">
        <ele>277</ele>
        <time>2020-10-03T09:51:20.000Z</time>
      </trkpt>
      <trkpt lat="43.60101" lon="1.16905">
        <ele>277</ele>
        <time>2020-10-03T09:51:21.000Z</time>
      </trkpt>
      <trkpt lat="43.60102" lon="1.16901">
        <ele>277</ele>
        <time>2020-10-03T09:51:22.000Z</time>
      </trkpt>
      <trkpt lat="43.60103" lon="1.16898">
        <ele>277</ele>
        <time>2020-10-03T09:51:23.000Z</time>
      </trkpt>
      <trkpt lat="43.60104" lon="1.16895">
        <ele>277</ele>
        <time>2020-10-03T09:51:24.000Z</time>
      </trkpt>
      <trkpt lat="43.60105" lon="1.16892">
        <ele>277</ele>
        <time>2020-10-03T09:51:25.000Z</time>
      </trkpt>
      <trkpt lat="43.60106" lon="1.16888">
        <ele>277</ele>
        <time>2020-10-03T09:51:26.000Z</time>
      </trkpt>
      <trkpt lat="43.60107" lon="1.16885">
        <ele>277</ele>
        <time>2020-10-03T09:51:27.000Z</time>
      </trkpt>
      <trkpt lat="43.60108" lon="1.16882">
        <ele>277</ele>
        <time>2020-10-03T09:51:28.000Z</time>
      </trkpt>
      <trkpt lat="43.60108" lon="1.16879">
        <ele>277</ele>
        <time>2020-10-03T09:51:29.000Z</time>
      </trkpt>
      <trkpt lat="43.60109" lon="1.16875">
        <ele>277.44444760496</ele>
        <time>2020-10-03T09:51:30.000Z</time>
      </trkpt>
      <trkpt lat="43.60109" lon="1.16871">
        <ele>278</ele>
        <time>2020-10-03T09:51:31.000Z</time>
      </trkpt>
      <trkpt lat="43.6011" lon="1.16868">
        <ele>278</ele>
        <time>2020-10-03T09:51:32.000Z</time>
      </trkpt>
      <trkpt lat="43.60111" lon="1.16864">
        <ele>278</ele>
        <time>2020-10-03T09:51:33.000Z</time>
      </trkpt>
      <trkpt lat="43.60111" lon="1.16862">
        <ele>278</ele>
        <time>2020-10-03T09:51:34.000Z</time>
      </trkpt>
      <trkpt lat="43.60112" lon="1.16859">
        <ele>278</ele>
        <time>2020-10-03T09:51:35.000Z</time>
      </trkpt>
      <trkpt lat="43.60112" lon="1.16856">
        <ele>278</ele>
        <time>2020-10-03T09:51:36.000Z</time>
      </trkpt>
      <trkpt lat="43.60113" lon="1.16852">
        <ele>278</ele>
        <time>2020-10-03T09:51:37.000Z</time>
      </trkpt>
      <trkpt lat="43.60113" lon="1.16848">
        <ele>278</ele>
        <time>2020-10-03T09:51:38.000Z</time>
      </trkpt>
      <trkpt lat="43.60113" lon="1.16844">
        <ele>278</ele>
        <time>2020-10-03T09:51:39.000Z</time>
      </trkpt>
      <trkpt lat="43.60114" lon="1.1684">
        <ele>278</ele>
        <time>2020-10-03T09:51:40.000Z</time>
      </trkpt>
      <trkpt lat="43.60114" lon="1.16836">
        <ele>278</ele>
        <time>2020-10-03T09:51:41.000Z</time>
      </trkpt>
      <trkpt lat="43.60114" lon="1.16833">
        <ele>278</ele>
        <time>2020-10-03T09:51:42.000Z</time>
      </trkpt>
      <trkpt lat="43.60115" lon="1.16829">
        <ele>278</ele>
        <time>2020-10-03T09:51:43.000Z</time>
      </trkpt>
      <trkpt lat="43.60115" lon="1.16825">
        <ele>278</ele>
        <time>2020-10-03T09:51:44.000Z</time>
      </trkpt>
      <trkpt lat="43.60116" lon="1.16822">
        <ele>278.39285333333</ele>
        <time>2020-10-03T09:51:45.000Z</time>
      </trkpt>
      <trkpt lat="43.60117" lon="1.16819">
        <ele>279</ele>
        <time>2020-10-03T09:51:46.000Z</time>
      </trkpt>
      <trkpt lat="43.60117" lon="1.16816">
        <ele>279</ele>
        <time>2020-10-03T09:51:47.000Z</time>
      </trkpt>
      <trkpt lat="43.60117" lon="1.16813">
        <ele>279.45454228097</ele>
        <time>2020-10-03T09:51:48.000Z</time>
      </trkpt>
      <trkpt lat="43.60118" lon="1.16804">
        <ele>280.34234712116</ele>
        <time>2020-10-03T09:51:50.000Z</time>
      </trkpt>
      <trkpt lat="43.60118" lon="1.168">
        <ele>281</ele>
        <time>2020-10-03T09:51:51.000Z</time>
      </trkpt>
      <trkpt lat="43.60119" lon="1.16797">
        <ele>281</ele>
        <time>2020-10-03T09:51:52.000Z</time>
      </trkpt>
      <trkpt lat="43.60118" lon="1.16793">
        <ele>281</ele>
        <time>2020-10-03T09:51:53.000Z</time>
      </trkpt>
      <trkpt lat="43.60118" lon="1.1679">
        <ele>281</ele>
        <time>2020-10-03T09:51:54.000Z</time>
      </trkpt>
      <trkpt lat="43.60118" lon="1.16786">
        <ele>281</ele>
        <time>2020-10-03T09:51:55.000Z</time>
      </trkpt>
      <trkpt lat="43.60118" lon="1.16783">
        <ele>281</ele>
        <time>2020-10-03T09:51:56.000Z</time>
      </trkpt>
      <trkpt lat="43.60118" lon="1.16779">
        <ele>281</ele>
        <time>2020-10-03T09:51:57.000Z</time>
      </trkpt>
      <trkpt lat="43.60118" lon="1.16776">
        <ele>281</ele>
        <time>2020-10-03T09:51:58.000Z</time>
      </trkpt>
      <trkpt lat="43.60118" lon="1.16773">
        <ele>281</ele>
        <time>2020-10-03T09:51:59.000Z</time>
      </trkpt>
      <trkpt lat="43.60118" lon="1.1677">
        <ele>281</ele>
        <time>2020-10-03T09:52:00.000Z</time>
      </trkpt>
      <trkpt lat="43.60118" lon="1.16766">
        <ele>281</ele>
        <time>2020-10-03T09:52:01.000Z</time>
      </trkpt>
      <trkpt lat="43.60117" lon="1.16763">
        <ele>281</ele>
        <time>2020-10-03T09:52:02.000Z</time>
      </trkpt>
      <trkpt lat="43.60116" lon="1.16759">
        <ele>281</ele>
        <time>2020-10-03T09:52:03.000Z</time>
      </trkpt>
      <trkpt lat="43.60115" lon="1.16756">
        <ele>281.90740148148</ele>
        <time>2020-10-03T09:52:04.000Z</time>
      </trkpt>
      <trkpt lat="43.60115" lon="1.16753">
        <ele>283</ele>
        <time>2020-10-03T09:52:05.000Z</time>
      </trkpt>
      <trkpt lat="43.60114" lon="1.1675">
        <ele>283</ele>
        <time>2020-10-03T09:52:06.000Z</time>
      </trkpt>
      <trkpt lat="43.60115" lon="1.16747">
        <ele>283.37500571429</ele>
        <time>2020-10-03T09:52:07.000Z</time>
      </trkpt>
      <trkpt lat="43.60114" lon="1.16744">
        <ele>284</ele>
        <time>2020-10-03T09:52:08.000Z</time>
      </trkpt>
      <trkpt lat="43.60114" lon="1.16741">
        <ele>284</ele>
        <time>2020-10-03T09:52:09.000Z</time>
      </trkpt>
      <trkpt lat="43.60113" lon="1.16738">
        <ele>284</ele>
        <time>2020-10-03T09:52:10.000Z</time>
      </trkpt>
      <trkpt lat="43.60113" lon="1.16734">
        <ele>284</ele>
        <time>2020-10-03T09:52:11.000Z</time>
      </trkpt>
      <trkpt lat="43.60113" lon="1.16731">
        <ele>284</ele>
        <time>2020-10-03T09:52:12.000Z</time>
      </trkpt>
      <trkpt lat="43.60113" lon="1.16727">
        <ele>284</ele>
        <time>2020-10-03T09:52:13.000Z</time>
      </trkpt>
      <trkpt lat="43.60112" lon="1.16724">
        <ele>284</ele>
        <time>2020-10-03T09:52:14.000Z</time>
      </trkpt>
      <trkpt lat="43.60112" lon="1.1672">
        <ele>284</ele>
        <time>2020-10-03T09:52:15.000Z</time>
      </trkpt>
      <trkpt lat="43.60112" lon="1.16716">
        <ele>284</ele>
        <time>2020-10-03T09:52:16.000Z</time>
      </trkpt>
      <trkpt lat="43.60112" lon="1.16712">
        <ele>284</ele>
        <time>2020-10-03T09:52:17.000Z</time>
      </trkpt>
      <trkpt lat="43.60111" lon="1.16708">
        <ele>284</ele>
        <time>2020-10-03T09:52:18.000Z</time>
      </trkpt>
      <trkpt lat="43.60111" lon="1.16704">
        <ele>284</ele>
        <time>2020-10-03T09:52:19.000Z</time>
      </trkpt>
      <trkpt lat="43.60111" lon="1.167">
        <ele>284</ele>
        <time>2020-10-03T09:52:20.000Z</time>
      </trkpt>
      <trkpt lat="43.60111" lon="1.16696">
        <ele>284</ele>
        <time>2020-10-03T09:52:21.000Z</time>
      </trkpt>
      <trkpt lat="43.60111" lon="1.16692">
        <ele>284</ele>
        <time>2020-10-03T09:52:22.000Z</time>
      </trkpt>
      <trkpt lat="43.60111" lon="1.16688">
        <ele>284</ele>
        <time>2020-10-03T09:52:23.000Z</time>
      </trkpt>
      <trkpt lat="43.60111" lon="1.16684">
        <ele>284</ele>
        <time>2020-10-03T09:52:24.000Z</time>
      </trkpt>
      <trkpt lat="43.60111" lon="1.1668">
        <ele>284.34482403484</ele>
        <time>2020-10-03T09:52:25.000Z</time>
      </trkpt>
      <trkpt lat="43.6011" lon="1.16676">
        <ele>285</ele>
        <time>2020-10-03T09:52:26.000Z</time>
      </trkpt>
      <trkpt lat="43.6011" lon="1.16673">
        <ele>285</ele>
        <time>2020-10-03T09:52:27.000Z</time>
      </trkpt>
      <trkpt lat="43.6011" lon="1.1667">
        <ele>285</ele>
        <time>2020-10-03T09:52:28.000Z</time>
      </trkpt>
      <trkpt lat="43.60111" lon="1.16667">
        <ele>285</ele>
        <time>2020-10-03T09:52:29.000Z</time>
      </trkpt>
      <trkpt lat="43.60111" lon="1.16663">
        <ele>284.58181479671</ele>
        <time>2020-10-03T09:52:30.000Z</time>
      </trkpt>
      <trkpt lat="43.60111" lon="1.16659">
        <ele>284</ele>
        <time>2020-10-03T09:52:31.000Z</time>
      </trkpt>
      <trkpt lat="43.60111" lon="1.16656">
        <ele>284</ele>
        <time>2020-10-03T09:52:32.000Z</time>
      </trkpt>
      <trkpt lat="43.6011" lon="1.16652">
        <ele>284.36697355442</ele>
        <time>2020-10-03T09:52:33.000Z</time>
      </trkpt>
      <trkpt lat="43.6011" lon="1.16648">
        <ele>285</ele>
        <time>2020-10-03T09:52:34.000Z</time>
      </trkpt>
      <trkpt lat="43.6011" lon="1.16643">
        <ele>285</ele>
        <time>2020-10-03T09:52:35.000Z</time>
      </trkpt>
      <trkpt lat="43.6011" lon="1.16639">
        <ele>285</ele>
        <time>2020-10-03T09:52:36.000Z</time>
      </trkpt>
      <trkpt lat="43.6011" lon="1.16635">
        <ele>285</ele>
        <time>2020-10-03T09:52:37.000Z</time>
      </trkpt>
      <trkpt lat="43.60111" lon="1.16631">
        <ele>285</ele>
        <time>2020-10-03T09:52:38.000Z</time>
      </trkpt>
      <trkpt lat="43.60112" lon="1.16627">
        <ele>285</ele>
        <time>2020-10-03T09:52:39.000Z</time>
      </trkpt>
      <trkpt lat="43.60112" lon="1.16623">
        <ele>285</ele>
        <time>2020-10-03T09:52:40.000Z</time>
      </trkpt>
      <trkpt lat="43.60113" lon="1.16619">
        <ele>285</ele>
        <time>2020-10-03T09:52:41.000Z</time>
      </trkpt>
      <trkpt lat="43.60114" lon="1.16615">
        <ele>284.54545771903</ele>
        <time>2020-10-03T09:52:42.000Z</time>
      </trkpt>
      <trkpt lat="43.60114" lon="1.16611">
        <ele>284</ele>
        <time>2020-10-03T09:52:43.000Z</time>
      </trkpt>
      <trkpt lat="43.60114" lon="1.16607">
        <ele>284</ele>
        <time>2020-10-03T09:52:44.000Z</time>
      </trkpt>
      <trkpt lat="43.60114" lon="1.16603">
        <ele>284</ele>
        <time>2020-10-03T09:52:45.000Z</time>
      </trkpt>
      <trkpt lat="43.60115" lon="1.166">
        <ele>284</ele>
        <time>2020-10-03T09:52:46.000Z</time>
      </trkpt>
      <trkpt lat="43.60115" lon="1.16596">
        <ele>284</ele>
        <time>2020-10-03T09:52:47.000Z</time>
      </trkpt>
      <trkpt lat="43.60115" lon="1.16592">
        <ele>284</ele>
        <time>2020-10-03T09:52:48.000Z</time>
      </trkpt>
      <trkpt lat="43.60115" lon="1.16588">
        <ele>284</ele>
        <time>2020-10-03T09:52:49.000Z</time>
      </trkpt>
      <trkpt lat="43.60115" lon="1.16585">
        <ele>284.38053057248</ele>
        <time>2020-10-03T09:52:50.000Z</time>
      </trkpt>
      <trkpt lat="43.60115" lon="1.16582">
        <ele>285</ele>
        <time>2020-10-03T09:52:51.000Z</time>
      </trkpt>
      <trkpt lat="43.60114" lon="1.16578">
        <ele>285</ele>
        <time>2020-10-03T09:52:52.000Z</time>
      </trkpt>
      <trkpt lat="43.60113" lon="1.16575">
        <ele>285</ele>
        <time>2020-10-03T09:52:53.000Z</time>
      </trkpt>
      <trkpt lat="43.60112" lon="1.16571">
        <ele>285</ele>
        <time>2020-10-03T09:52:54.000Z</time>
      </trkpt>
      <trkpt lat="43.60112" lon="1.16566">
        <ele>285</ele>
        <time>2020-10-03T09:52:55.000Z</time>
      </trkpt>
      <trkpt lat="43.60111" lon="1.16563">
        <ele>285</ele>
        <time>2020-10-03T09:52:56.000Z</time>
      </trkpt>
      <trkpt lat="43.60111" lon="1.16559">
        <ele>285</ele>
        <time>2020-10-03T09:52:57.000Z</time>
      </trkpt>
      <trkpt lat="43.60111" lon="1.16555">
        <ele>285</ele>
        <time>2020-10-03T09:52:58.000Z</time>
      </trkpt>
      <trkpt lat="43.6011" lon="1.16551">
        <ele>285</ele>
        <time>2020-10-03T09:52:59.000Z</time>
      </trkpt>
      <trkpt lat="43.6011" lon="1.16547">
        <ele>285</ele>
        <time>2020-10-03T09:53:00.000Z</time>
      </trkpt>
      <trkpt lat="43.6011" lon="1.16543">
        <ele>284.58139846401</ele>
        <time>2020-10-03T09:53:01.000Z</time>
      </trkpt>
      <trkpt lat="43.6011" lon="1.16539">
        <ele>284</ele>
        <time>2020-10-03T09:53:02.000Z</time>
      </trkpt>
      <trkpt lat="43.60109" lon="1.16535">
        <ele>284</ele>
        <time>2020-10-03T09:53:03.000Z</time>
      </trkpt>
      <trkpt lat="43.6011" lon="1.16531">
        <ele>284</ele>
        <time>2020-10-03T09:53:04.000Z</time>
      </trkpt>
      <trkpt lat="43.6011" lon="1.16527">
        <ele>284.36363847935</ele>
        <time>2020-10-03T09:53:05.000Z</time>
      </trkpt>
      <trkpt lat="43.6011" lon="1.16523">
        <ele>285</ele>
        <time>2020-10-03T09:53:06.000Z</time>
      </trkpt>
      <trkpt lat="43.60109" lon="1.16519">
        <ele>285</ele>
        <time>2020-10-03T09:53:07.000Z</time>
      </trkpt>
      <trkpt lat="43.60109" lon="1.16515">
        <ele>285</ele>
        <time>2020-10-03T09:53:08.000Z</time>
      </trkpt>
      <trkpt lat="43.60109" lon="1.16511">
        <ele>285</ele>
        <time>2020-10-03T09:53:09.000Z</time>
      </trkpt>
      <trkpt lat="43.60109" lon="1.16507">
        <ele>285</ele>
        <time>2020-10-03T09:53:10.000Z</time>
      </trkpt>
      <trkpt lat="43.60109" lon="1.16503">
        <ele>285</ele>
        <time>2020-10-03T09:53:11.000Z</time>
      </trkpt>
      <trkpt lat="43.60109" lon="1.16499">
        <ele>285</ele>
        <time>2020-10-03T09:53:12.000Z</time>
      </trkpt>
      <trkpt lat="43.6011" lon="1.16495">
        <ele>285</ele>
        <time>2020-10-03T09:53:13.000Z</time>
      </trkpt>
      <trkpt lat="43.60109" lon="1.16491">
        <ele>285</ele>
        <time>2020-10-03T09:53:14.000Z</time>
      </trkpt>
      <trkpt lat="43.60108" lon="1.16488">
        <ele>285</ele>
        <time>2020-10-03T09:53:15.000Z</time>
      </trkpt>
      <trkpt lat="43.60107" lon="1.16485">
        <ele>285</ele>
        <time>2020-10-03T09:53:16.000Z</time>
      </trkpt>
      <trkpt lat="43.60106" lon="1.16481">
        <ele>285</ele>
        <time>2020-10-03T09:53:17.000Z</time>
      </trkpt>
      <trkpt lat="43.60105" lon="1.16478">
        <ele>285.39199844352</ele>
        <time>2020-10-03T09:53:18.000Z</time>
      </trkpt>
      <trkpt lat="43.60104" lon="1.16474">
        <ele>286</ele>
        <time>2020-10-03T09:53:19.000Z</time>
      </trkpt>
      <trkpt lat="43.60104" lon="1.1647">
        <ele>286</ele>
        <time>2020-10-03T09:53:20.000Z</time>
      </trkpt>
      <trkpt lat="43.60103" lon="1.16468">
        <ele>286</ele>
        <time>2020-10-03T09:53:21.000Z</time>
      </trkpt>
      <trkpt lat="43.60101" lon="1.16465">
        <ele>286</ele>
        <time>2020-10-03T09:53:22.000Z</time>
      </trkpt>
      <trkpt lat="43.601" lon="1.16462">
        <ele>286</ele>
        <time>2020-10-03T09:53:23.000Z</time>
      </trkpt>
      <trkpt lat="43.60099" lon="1.16458">
        <ele>286</ele>
        <time>2020-10-03T09:53:24.000Z</time>
      </trkpt>
      <trkpt lat="43.60099" lon="1.16455">
        <ele>285.56311126024</ele>
        <time>2020-10-03T09:53:25.000Z</time>
      </trkpt>
      <trkpt lat="43.60098" lon="1.16451">
        <ele>285</ele>
        <time>2020-10-03T09:53:26.000Z</time>
      </trkpt>
      <trkpt lat="43.60097" lon="1.16448">
        <ele>285.34408720546</ele>
        <time>2020-10-03T09:53:27.000Z</time>
      </trkpt>
      <trkpt lat="43.60097" lon="1.16444">
        <ele>286</ele>
        <time>2020-10-03T09:53:28.000Z</time>
      </trkpt>
      <trkpt lat="43.60096" lon="1.16441">
        <ele>286</ele>
        <time>2020-10-03T09:53:29.000Z</time>
      </trkpt>
      <trkpt lat="43.60095" lon="1.16437">
        <ele>286</ele>
        <time>2020-10-03T09:53:30.000Z</time>
      </trkpt>
      <trkpt lat="43.60094" lon="1.16434">
        <ele>286</ele>
        <time>2020-10-03T09:53:31.000Z</time>
      </trkpt>
      <trkpt lat="43.60094" lon="1.16431">
        <ele>286</ele>
        <time>2020-10-03T09:53:32.000Z</time>
      </trkpt>
      <trkpt lat="43.60093" lon="1.16427">
        <ele>286</ele>
        <time>2020-10-03T09:53:33.000Z</time>
      </trkpt>
      <trkpt lat="43.60093" lon="1.16422">
        <ele>286</ele>
        <time>2020-10-03T09:53:34.000Z</time>
      </trkpt>
      <trkpt lat="43.60093" lon="1.16418">
        <ele>286</ele>
        <time>2020-10-03T09:53:35.000Z</time>
      </trkpt>
      <trkpt lat="43.60093" lon="1.16414">
        <ele>286</ele>
        <time>2020-10-03T09:53:36.000Z</time>
      </trkpt>
      <trkpt lat="43.60093" lon="1.16411">
        <ele>286</ele>
        <time>2020-10-03T09:53:37.000Z</time>
      </trkpt>
      <trkpt lat="43.60094" lon="1.16407">
        <ele>286</ele>
        <time>2020-10-03T09:53:38.000Z</time>
      </trkpt>
      <trkpt lat="43.60096" lon="1.16391">
        <ele>286</ele>
        <time>2020-10-03T09:53:41.000Z</time>
      </trkpt>
      <trkpt lat="43.60097" lon="1.16387">
        <ele>286</ele>
        <time>2020-10-03T09:53:42.000Z</time>
      </trkpt>
      <trkpt lat="43.60098" lon="1.16378">
        <ele>286</ele>
        <time>2020-10-03T09:53:44.000Z</time>
      </trkpt>
      <trkpt lat="43.60099" lon="1.16374">
        <ele>286.3488323634</ele>
        <time>2020-10-03T09:53:45.000Z</time>
      </trkpt>
      <trkpt lat="43.601" lon="1.16371">
        <ele>287</ele>
        <time>2020-10-03T09:53:46.000Z</time>
      </trkpt>
      <trkpt lat="43.60101" lon="1.16367">
        <ele>287</ele>
        <time>2020-10-03T09:53:47.000Z</time>
      </trkpt>
      <trkpt lat="43.60101" lon="1.16363">
        <ele>287</ele>
        <time>2020-10-03T09:53:48.000Z</time>
      </trkpt>
      <trkpt lat="43.60102" lon="1.16359">
        <ele>287</ele>
        <time>2020-10-03T09:53:49.000Z</time>
      </trkpt>
      <trkpt lat="43.60103" lon="1.16355">
        <ele>287</ele>
        <time>2020-10-03T09:53:50.000Z</time>
      </trkpt>
      <trkpt lat="43.60104" lon="1.16351">
        <ele>286.58139846401</ele>
        <time>2020-10-03T09:53:51.000Z</time>
      </trkpt>
      <trkpt lat="43.60103" lon="1.16347">
        <ele>286</ele>
        <time>2020-10-03T09:53:52.000Z</time>
      </trkpt>
      <trkpt lat="43.60103" lon="1.16343">
        <ele>286</ele>
        <time>2020-10-03T09:53:53.000Z</time>
      </trkpt>
      <trkpt lat="43.60104" lon="1.1634">
        <ele>286</ele>
        <time>2020-10-03T09:53:54.000Z</time>
      </trkpt>
      <trkpt lat="43.60104" lon="1.16337">
        <ele>286</ele>
        <time>2020-10-03T09:53:55.000Z</time>
      </trkpt>
      <trkpt lat="43.60104" lon="1.16334">
        <ele>286.44231384615</ele>
        <time>2020-10-03T09:53:56.000Z</time>
      </trkpt>
      <trkpt lat="43.60105" lon="1.1633">
        <ele>287</ele>
        <time>2020-10-03T09:53:57.000Z</time>
      </trkpt>
      <trkpt lat="43.60105" lon="1.16327">
        <ele>287</ele>
        <time>2020-10-03T09:53:58.000Z</time>
      </trkpt>
      <trkpt lat="43.60105" lon="1.16324">
        <ele>287</ele>
        <time>2020-10-03T09:53:59.000Z</time>
      </trkpt>
      <trkpt lat="43.60106" lon="1.1632">
        <ele>287</ele>
        <time>2020-10-03T09:54:00.000Z</time>
      </trkpt>
      <trkpt lat="43.60106" lon="1.16316">
        <ele>287</ele>
        <time>2020-10-03T09:54:01.000Z</time>
      </trkpt>
      <trkpt lat="43.60106" lon="1.16313">
        <ele>287</ele>
        <time>2020-10-03T09:54:02.000Z</time>
      </trkpt>
      <trkpt lat="43.60106" lon="1.16309">
        <ele>287</ele>
        <time>2020-10-03T09:54:03.000Z</time>
      </trkpt>
      <trkpt lat="43.60107" lon="1.16306">
        <ele>287</ele>
        <time>2020-10-03T09:54:04.000Z</time>
      </trkpt>
      <trkpt lat="43.60108" lon="1.16302">
        <ele>287.31858497298</ele>
        <time>2020-10-03T09:54:05.000Z</time>
      </trkpt>
      <trkpt lat="43.60109" lon="1.16298">
        <ele>288</ele>
        <time>2020-10-03T09:54:06.000Z</time>
      </trkpt>
      <trkpt lat="43.60111" lon="1.16295">
        <ele>288</ele>
        <time>2020-10-03T09:54:07.000Z</time>
      </trkpt>
      <trkpt lat="43.60111" lon="1.16291">
        <ele>288</ele>
        <time>2020-10-03T09:54:08.000Z</time>
      </trkpt>
      <trkpt lat="43.60111" lon="1.16288">
        <ele>288</ele>
        <time>2020-10-03T09:54:09.000Z</time>
      </trkpt>
      <trkpt lat="43.60111" lon="1.16284">
        <ele>288</ele>
        <time>2020-10-03T09:54:10.000Z</time>
      </trkpt>
      <trkpt lat="43.60111" lon="1.1628">
        <ele>288</ele>
        <time>2020-10-03T09:54:11.000Z</time>
      </trkpt>
      <trkpt lat="43.60111" lon="1.16276">
        <ele>288</ele>
        <time>2020-10-03T09:54:12.000Z</time>
      </trkpt>
      <trkpt lat="43.60112" lon="1.16273">
        <ele>288.22785527957</ele>
        <time>2020-10-03T09:54:13.000Z</time>
      </trkpt>
      <trkpt lat="43.60112" lon="1.16269">
        <ele>289</ele>
        <time>2020-10-03T09:54:14.000Z</time>
      </trkpt>
      <trkpt lat="43.60112" lon="1.16265">
        <ele>289</ele>
        <time>2020-10-03T09:54:15.000Z</time>
      </trkpt>
      <trkpt lat="43.60112" lon="1.16261">
        <ele>289</ele>
        <time>2020-10-03T09:54:16.000Z</time>
      </trkpt>
      <trkpt lat="43.60111" lon="1.16257">
        <ele>289</ele>
        <time>2020-10-03T09:54:17.000Z</time>
      </trkpt>
      <trkpt lat="43.60111" lon="1.16253">
        <ele>289</ele>
        <time>2020-10-03T09:54:18.000Z</time>
      </trkpt>
      <trkpt lat="43.60111" lon="1.16249">
        <ele>288.58823617992</ele>
        <time>2020-10-03T09:54:19.000Z</time>
      </trkpt>
      <trkpt lat="43.60111" lon="1.16245">
        <ele>288</ele>
        <time>2020-10-03T09:54:20.000Z</time>
      </trkpt>
      <trkpt lat="43.60112" lon="1.16241">
        <ele>287.65420549568</ele>
        <time>2020-10-03T09:54:21.000Z</time>
      </trkpt>
      <trkpt lat="43.60112" lon="1.16238">
        <ele>287</ele>
        <time>2020-10-03T09:54:22.000Z</time>
      </trkpt>
      <trkpt lat="43.60112" lon="1.16234">
        <ele>287</ele>
        <time>2020-10-03T09:54:23.000Z</time>
      </trkpt>
      <trkpt lat="43.60112" lon="1.1623">
        <ele>287</ele>
        <time>2020-10-03T09:54:24.000Z</time>
      </trkpt>
      <trkpt lat="43.60112" lon="1.16227">
        <ele>287</ele>
        <time>2020-10-03T09:54:25.000Z</time>
      </trkpt>
      <trkpt lat="43.60113" lon="1.16223">
        <ele>287</ele>
        <time>2020-10-03T09:54:26.000Z</time>
      </trkpt>
      <trkpt lat="43.60113" lon="1.16219">
        <ele>287.34408720546</ele>
        <time>2020-10-03T09:54:27.000Z</time>
      </trkpt>
      <trkpt lat="43.60113" lon="1.16215">
        <ele>288</ele>
        <time>2020-10-03T09:54:28.000Z</time>
      </trkpt>
      <trkpt lat="43.60113" lon="1.16211">
        <ele>288</ele>
        <time>2020-10-03T09:54:29.000Z</time>
      </trkpt>
      <trkpt lat="43.60113" lon="1.16207">
        <ele>288</ele>
        <time>2020-10-03T09:54:30.000Z</time>
      </trkpt>
      <trkpt lat="43.60113" lon="1.16203">
        <ele>288</ele>
        <time>2020-10-03T09:54:31.000Z</time>
      </trkpt>
      <trkpt lat="43.60114" lon="1.16199">
        <ele>287.76624110646</ele>
        <time>2020-10-03T09:54:32.000Z</time>
      </trkpt>
      <trkpt lat="43.60115" lon="1.16196">
        <ele>287</ele>
        <time>2020-10-03T09:54:33.000Z</time>
      </trkpt>
      <trkpt lat="43.60117" lon="1.16193">
        <ele>287</ele>
        <time>2020-10-03T09:54:34.000Z</time>
      </trkpt>
      <trkpt lat="43.60118" lon="1.16189">
        <ele>287</ele>
        <time>2020-10-03T09:54:35.000Z</time>
      </trkpt>
      <trkpt lat="43.60118" lon="1.16186">
        <ele>287</ele>
        <time>2020-10-03T09:54:36.000Z</time>
      </trkpt>
      <trkpt lat="43.60119" lon="1.16182">
        <ele>287</ele>
        <time>2020-10-03T09:54:37.000Z</time>
      </trkpt>
      <trkpt lat="43.6012" lon="1.16179">
        <ele>287</ele>
        <time>2020-10-03T09:54:38.000Z</time>
      </trkpt>
      <trkpt lat="43.60121" lon="1.16176">
        <ele>287</ele>
        <time>2020-10-03T09:54:39.000Z</time>
      </trkpt>
      <trkpt lat="43.60122" lon="1.16172">
        <ele>287</ele>
        <time>2020-10-03T09:54:40.000Z</time>
      </trkpt>
      <trkpt lat="43.60122" lon="1.16167">
        <ele>286.69368881099</ele>
        <time>2020-10-03T09:54:41.000Z</time>
      </trkpt>
      <trkpt lat="43.60123" lon="1.16163">
        <ele>286</ele>
        <time>2020-10-03T09:54:42.000Z</time>
      </trkpt>
      <trkpt lat="43.60124" lon="1.16159">
        <ele>286</ele>
        <time>2020-10-03T09:54:43.000Z</time>
      </trkpt>
      <trkpt lat="43.60125" lon="1.16155">
        <ele>286.42982416743</ele>
        <time>2020-10-03T09:54:44.000Z</time>
      </trkpt>
      <trkpt lat="43.60126" lon="1.16151">
        <ele>287</ele>
        <time>2020-10-03T09:54:45.000Z</time>
      </trkpt>
      <trkpt lat="43.60127" lon="1.16147">
        <ele>287</ele>
        <time>2020-10-03T09:54:46.000Z</time>
      </trkpt>
      <trkpt lat="43.60128" lon="1.16143">
        <ele>287</ele>
        <time>2020-10-03T09:54:47.000Z</time>
      </trkpt>
      <trkpt lat="43.60129" lon="1.16138">
        <ele>286.63953384533</ele>
        <time>2020-10-03T09:54:48.000Z</time>
      </trkpt>
      <trkpt lat="43.6013" lon="1.16134">
        <ele>286</ele>
        <time>2020-10-03T09:54:49.000Z</time>
      </trkpt>
      <trkpt lat="43.60131" lon="1.1613">
        <ele>286</ele>
        <time>2020-10-03T09:54:50.000Z</time>
      </trkpt>
      <trkpt lat="43.60131" lon="1.16126">
        <ele>286.29870669592</ele>
        <time>2020-10-03T09:54:51.000Z</time>
      </trkpt>
      <trkpt lat="43.60132" lon="1.16122">
        <ele>287</ele>
        <time>2020-10-03T09:54:52.000Z</time>
      </trkpt>
      <trkpt lat="43.60133" lon="1.16119">
        <ele>287</ele>
        <time>2020-10-03T09:54:53.000Z</time>
      </trkpt>
      <trkpt lat="43.60134" lon="1.16115">
        <ele>287</ele>
        <time>2020-10-03T09:54:54.000Z</time>
      </trkpt>
      <trkpt lat="43.60136" lon="1.16112">
        <ele>287</ele>
        <time>2020-10-03T09:54:55.000Z</time>
      </trkpt>
      <trkpt lat="43.60137" lon="1.16108">
        <ele>287</ele>
        <time>2020-10-03T09:54:56.000Z</time>
      </trkpt>
      <trkpt lat="43.60138" lon="1.16106">
        <ele>286.61207172414</ele>
        <time>2020-10-03T09:54:57.000Z</time>
      </trkpt>
      <trkpt lat="43.60138" lon="1.16102">
        <ele>286</ele>
        <time>2020-10-03T09:54:58.000Z</time>
      </trkpt>
      <trkpt lat="43.60139" lon="1.16099">
        <ele>286</ele>
        <time>2020-10-03T09:54:59.000Z</time>
      </trkpt>
      <trkpt lat="43.6014" lon="1.16096">
        <ele>286</ele>
        <time>2020-10-03T09:55:00.000Z</time>
      </trkpt>
      <trkpt lat="43.6014" lon="1.16093">
        <ele>286</ele>
        <time>2020-10-03T09:55:01.000Z</time>
      </trkpt>
      <trkpt lat="43.60141" lon="1.1609">
        <ele>286</ele>
        <time>2020-10-03T09:55:02.000Z</time>
      </trkpt>
      <trkpt lat="43.60142" lon="1.16086">
        <ele>286</ele>
        <time>2020-10-03T09:55:03.000Z</time>
      </trkpt>
      <trkpt lat="43.60143" lon="1.16083">
        <ele>286</ele>
        <time>2020-10-03T09:55:04.000Z</time>
      </trkpt>
      <trkpt lat="43.60144" lon="1.1608">
        <ele>286.33734809697</ele>
        <time>2020-10-03T09:55:05.000Z</time>
      </trkpt>
      <trkpt lat="43.60145" lon="1.16076">
        <ele>287</ele>
        <time>2020-10-03T09:55:06.000Z</time>
      </trkpt>
      <trkpt lat="43.60146" lon="1.16073">
        <ele>287</ele>
        <time>2020-10-03T09:55:07.000Z</time>
      </trkpt>
      <trkpt lat="43.60147" lon="1.16069">
        <ele>287</ele>
        <time>2020-10-03T09:55:08.000Z</time>
      </trkpt>
      <trkpt lat="43.60148" lon="1.16066">
        <ele>287</ele>
        <time>2020-10-03T09:55:09.000Z</time>
      </trkpt>
      <trkpt lat="43.60149" lon="1.16062">
        <ele>287</ele>
        <time>2020-10-03T09:55:10.000Z</time>
      </trkpt>
      <trkpt lat="43.6015" lon="1.16059">
        <ele>286.59374666667</ele>
        <time>2020-10-03T09:55:11.000Z</time>
      </trkpt>
      <trkpt lat="43.60151" lon="1.16055">
        <ele>286</ele>
        <time>2020-10-03T09:55:12.000Z</time>
      </trkpt>
      <trkpt lat="43.60152" lon="1.16051">
        <ele>286</ele>
        <time>2020-10-03T09:55:13.000Z</time>
      </trkpt>
      <trkpt lat="43.60154" lon="1.16048">
        <ele>286</ele>
        <time>2020-10-03T09:55:14.000Z</time>
      </trkpt>
      <trkpt lat="43.60155" lon="1.16044">
        <ele>286.39655058263</ele>
        <time>2020-10-03T09:55:15.000Z</time>
      </trkpt>
      <trkpt lat="43.60156" lon="1.1604">
        <ele>287</ele>
        <time>2020-10-03T09:55:16.000Z</time>
      </trkpt>
      <trkpt lat="43.60157" lon="1.16037">
        <ele>287</ele>
        <time>2020-10-03T09:55:17.000Z</time>
      </trkpt>
      <trkpt lat="43.60158" lon="1.16034">
        <ele>287</ele>
        <time>2020-10-03T09:55:18.000Z</time>
      </trkpt>
      <trkpt lat="43.60159" lon="1.16031">
        <ele>287</ele>
        <time>2020-10-03T09:55:19.000Z</time>
      </trkpt>
      <trkpt lat="43.6016" lon="1.16027">
        <ele>287</ele>
        <time>2020-10-03T09:55:20.000Z</time>
      </trkpt>
      <trkpt lat="43.60162" lon="1.16024">
        <ele>287</ele>
        <time>2020-10-03T09:55:21.000Z</time>
      </trkpt>
      <trkpt lat="43.60163" lon="1.16021">
        <ele>287</ele>
        <time>2020-10-03T09:55:22.000Z</time>
      </trkpt>
      <trkpt lat="43.60164" lon="1.16017">
        <ele>287</ele>
        <time>2020-10-03T09:55:23.000Z</time>
      </trkpt>
      <trkpt lat="43.60166" lon="1.16014">
        <ele>287</ele>
        <time>2020-10-03T09:55:24.000Z</time>
      </trkpt>
      <trkpt lat="43.60168" lon="1.16011">
        <ele>287</ele>
        <time>2020-10-03T09:55:25.000Z</time>
      </trkpt>
      <trkpt lat="43.6017" lon="1.16008">
        <ele>287</ele>
        <time>2020-10-03T09:55:26.000Z</time>
      </trkpt>
      <trkpt lat="43.60171" lon="1.16004">
        <ele>287</ele>
        <time>2020-10-03T09:55:27.000Z</time>
      </trkpt>
      <trkpt lat="43.60173" lon="1.16001">
        <ele>286.72071864297</ele>
        <time>2020-10-03T09:55:28.000Z</time>
      </trkpt>
      <trkpt lat="43.60174" lon="1.15997">
        <ele>286</ele>
        <time>2020-10-03T09:55:29.000Z</time>
      </trkpt>
      <trkpt lat="43.60175" lon="1.15993">
        <ele>286</ele>
        <time>2020-10-03T09:55:30.000Z</time>
      </trkpt>
      <trkpt lat="43.60176" lon="1.1599">
        <ele>285.66055239795</ele>
        <time>2020-10-03T09:55:31.000Z</time>
      </trkpt>
      <trkpt lat="43.60177" lon="1.15986">
        <ele>285</ele>
        <time>2020-10-03T09:55:32.000Z</time>
      </trkpt>
      <trkpt lat="43.60179" lon="1.15982">
        <ele>285.41176839675</ele>
        <time>2020-10-03T09:55:33.000Z</time>
      </trkpt>
      <trkpt lat="43.6018" lon="1.15979">
        <ele>286</ele>
        <time>2020-10-03T09:55:34.000Z</time>
      </trkpt>
      <trkpt lat="43.60181" lon="1.15976">
        <ele>286</ele>
        <time>2020-10-03T09:55:35.000Z</time>
      </trkpt>
      <trkpt lat="43.60183" lon="1.15972">
        <ele>286</ele>
        <time>2020-10-03T09:55:36.000Z</time>
      </trkpt>
      <trkpt lat="43.60184" lon="1.15968">
        <ele>286</ele>
        <time>2020-10-03T09:55:37.000Z</time>
      </trkpt>
      <trkpt lat="43.60185" lon="1.15964">
        <ele>286</ele>
        <time>2020-10-03T09:55:38.000Z</time>
      </trkpt>
      <trkpt lat="43.60186" lon="1.15961">
        <ele>286</ele>
        <time>2020-10-03T09:55:39.000Z</time>
      </trkpt>
      <trkpt lat="43.60187" lon="1.15958">
        <ele>286</ele>
        <time>2020-10-03T09:55:40.000Z</time>
      </trkpt>
      <trkpt lat="43.60188" lon="1.15955">
        <ele>286</ele>
        <time>2020-10-03T09:55:41.000Z</time>
      </trkpt>
      <trkpt lat="43.6019" lon="1.15951">
        <ele>286</ele>
        <time>2020-10-03T09:55:42.000Z</time>
      </trkpt>
      <trkpt lat="43.60191" lon="1.15948">
        <ele>286</ele>
        <time>2020-10-03T09:55:43.000Z</time>
      </trkpt>
      <trkpt lat="43.60193" lon="1.15945">
        <ele>286</ele>
        <time>2020-10-03T09:55:44.000Z</time>
      </trkpt>
      <trkpt lat="43.60194" lon="1.15942">
        <ele>286</ele>
        <time>2020-10-03T09:55:45.000Z</time>
      </trkpt>
      <trkpt lat="43.60195" lon="1.15939">
        <ele>286</ele>
        <time>2020-10-03T09:55:46.000Z</time>
      </trkpt>
      <trkpt lat="43.60197" lon="1.15936">
        <ele>286</ele>
        <time>2020-10-03T09:55:47.000Z</time>
      </trkpt>
      <trkpt lat="43.60198" lon="1.15933">
        <ele>286</ele>
        <time>2020-10-03T09:55:48.000Z</time>
      </trkpt>
      <trkpt lat="43.602" lon="1.1593">
        <ele>286</ele>
        <time>2020-10-03T09:55:49.000Z</time>
      </trkpt>
      <trkpt lat="43.60201" lon="1.15927">
        <ele>286</ele>
        <time>2020-10-03T09:55:50.000Z</time>
      </trkpt>
      <trkpt lat="43.60203" lon="1.15923">
        <ele>286</ele>
        <time>2020-10-03T09:55:51.000Z</time>
      </trkpt>
      <trkpt lat="43.60204" lon="1.1592">
        <ele>286</ele>
        <time>2020-10-03T09:55:52.000Z</time>
      </trkpt>
      <trkpt lat="43.60206" lon="1.15917">
        <ele>286</ele>
        <time>2020-10-03T09:55:53.000Z</time>
      </trkpt>
      <trkpt lat="43.60208" lon="1.15914">
        <ele>286</ele>
        <time>2020-10-03T09:55:54.000Z</time>
      </trkpt>
      <trkpt lat="43.6021" lon="1.15911">
        <ele>286</ele>
        <time>2020-10-03T09:55:55.000Z</time>
      </trkpt>
      <trkpt lat="43.60211" lon="1.15908">
        <ele>286</ele>
        <time>2020-10-03T09:55:56.000Z</time>
      </trkpt>
      <trkpt lat="43.60213" lon="1.15905">
        <ele>286</ele>
        <time>2020-10-03T09:55:57.000Z</time>
      </trkpt>
      <trkpt lat="43.60215" lon="1.15902">
        <ele>286</ele>
        <time>2020-10-03T09:55:58.000Z</time>
      </trkpt>
      <trkpt lat="43.60216" lon="1.15899">
        <ele>286</ele>
        <time>2020-10-03T09:55:59.000Z</time>
      </trkpt>
      <trkpt lat="43.60218" lon="1.15896">
        <ele>286</ele>
        <time>2020-10-03T09:56:00.000Z</time>
      </trkpt>
      <trkpt lat="43.60219" lon="1.15892">
        <ele>286</ele>
        <time>2020-10-03T09:56:01.000Z</time>
      </trkpt>
      <trkpt lat="43.60221" lon="1.15889">
        <ele>286</ele>
        <time>2020-10-03T09:56:02.000Z</time>
      </trkpt>
      <trkpt lat="43.60223" lon="1.15886">
        <ele>286</ele>
        <time>2020-10-03T09:56:03.000Z</time>
      </trkpt>
      <trkpt lat="43.60225" lon="1.15883">
        <ele>286</ele>
        <time>2020-10-03T09:56:04.000Z</time>
      </trkpt>
      <trkpt lat="43.60227" lon="1.1588">
        <ele>286</ele>
        <time>2020-10-03T09:56:05.000Z</time>
      </trkpt>
      <trkpt lat="43.60229" lon="1.15877">
        <ele>286</ele>
        <time>2020-10-03T09:56:06.000Z</time>
      </trkpt>
      <trkpt lat="43.6023" lon="1.15875">
        <ele>286</ele>
        <time>2020-10-03T09:56:07.000Z</time>
      </trkpt>
      <trkpt lat="43.60232" lon="1.15872">
        <ele>286</ele>
        <time>2020-10-03T09:56:08.000Z</time>
      </trkpt>
      <trkpt lat="43.60233" lon="1.15869">
        <ele>286</ele>
        <time>2020-10-03T09:56:09.000Z</time>
      </trkpt>
      <trkpt lat="43.60235" lon="1.15866">
        <ele>286</ele>
        <time>2020-10-03T09:56:10.000Z</time>
      </trkpt>
      <trkpt lat="43.60236" lon="1.15862">
        <ele>286</ele>
        <time>2020-10-03T09:56:11.000Z</time>
      </trkpt>
      <trkpt lat="43.60238" lon="1.15859">
        <ele>286</ele>
        <time>2020-10-03T09:56:12.000Z</time>
      </trkpt>
      <trkpt lat="43.6024" lon="1.15855">
        <ele>286</ele>
        <time>2020-10-03T09:56:13.000Z</time>
      </trkpt>
      <trkpt lat="43.60241" lon="1.15852">
        <ele>286</ele>
        <time>2020-10-03T09:56:14.000Z</time>
      </trkpt>
      <trkpt lat="43.60243" lon="1.15848">
        <ele>286</ele>
        <time>2020-10-03T09:56:15.000Z</time>
      </trkpt>
      <trkpt lat="43.60245" lon="1.15845">
        <ele>286</ele>
        <time>2020-10-03T09:56:16.000Z</time>
      </trkpt>
      <trkpt lat="43.60246" lon="1.15842">
        <ele>286</ele>
        <time>2020-10-03T09:56:17.000Z</time>
      </trkpt>
      <trkpt lat="43.60248" lon="1.15839">
        <ele>286</ele>
        <time>2020-10-03T09:56:18.000Z</time>
      </trkpt>
      <trkpt lat="43.60249" lon="1.15835">
        <ele>286</ele>
        <time>2020-10-03T09:56:19.000Z</time>
      </trkpt>
      <trkpt lat="43.6025" lon="1.15832">
        <ele>286</ele>
        <time>2020-10-03T09:56:20.000Z</time>
      </trkpt>
      <trkpt lat="43.60252" lon="1.1583">
        <ele>286</ele>
        <time>2020-10-03T09:56:21.000Z</time>
      </trkpt>
      <trkpt lat="43.60253" lon="1.15827">
        <ele>286</ele>
        <time>2020-10-03T09:56:22.000Z</time>
      </trkpt>
      <trkpt lat="43.60254" lon="1.15823">
        <ele>286</ele>
        <time>2020-10-03T09:56:23.000Z</time>
      </trkpt>
      <trkpt lat="43.60256" lon="1.1582">
        <ele>286</ele>
        <time>2020-10-03T09:56:24.000Z</time>
      </trkpt>
      <trkpt lat="43.60257" lon="1.15817">
        <ele>286</ele>
        <time>2020-10-03T09:56:25.000Z</time>
      </trkpt>
      <trkpt lat="43.60258" lon="1.15813">
        <ele>286</ele>
        <time>2020-10-03T09:56:26.000Z</time>
      </trkpt>
      <trkpt lat="43.6026" lon="1.1581">
        <ele>286</ele>
        <time>2020-10-03T09:56:27.000Z</time>
      </trkpt>
      <trkpt lat="43.60262" lon="1.15806">
        <ele>286</ele>
        <time>2020-10-03T09:56:28.000Z</time>
      </trkpt>
      <trkpt lat="43.60264" lon="1.15803">
        <ele>286</ele>
        <time>2020-10-03T09:56:29.000Z</time>
      </trkpt>
      <trkpt lat="43.60265" lon="1.15799">
        <ele>286</ele>
        <time>2020-10-03T09:56:30.000Z</time>
      </trkpt>
      <trkpt lat="43.60266" lon="1.15796">
        <ele>286.35135322132</ele>
        <time>2020-10-03T09:56:31.000Z</time>
      </trkpt>
      <trkpt lat="43.60267" lon="1.15793">
        <ele>287</ele>
        <time>2020-10-03T09:56:32.000Z</time>
      </trkpt>
      <trkpt lat="43.60269" lon="1.1579">
        <ele>287.43636617522</ele>
        <time>2020-10-03T09:56:33.000Z</time>
      </trkpt>
      <trkpt lat="43.6027" lon="1.15786">
        <ele>288</ele>
        <time>2020-10-03T09:56:34.000Z</time>
      </trkpt>
      <trkpt lat="43.60272" lon="1.15782">
        <ele>288</ele>
        <time>2020-10-03T09:56:35.000Z</time>
      </trkpt>
      <trkpt lat="43.60273" lon="1.15778">
        <ele>288</ele>
        <time>2020-10-03T09:56:36.000Z</time>
      </trkpt>
      <trkpt lat="43.60275" lon="1.15774">
        <ele>288</ele>
        <time>2020-10-03T09:56:37.000Z</time>
      </trkpt>
      <trkpt lat="43.60276" lon="1.1577">
        <ele>288</ele>
        <time>2020-10-03T09:56:38.000Z</time>
      </trkpt>
      <trkpt lat="43.60278" lon="1.15766">
        <ele>288</ele>
        <time>2020-10-03T09:56:39.000Z</time>
      </trkpt>
      <trkpt lat="43.60279" lon="1.15763">
        <ele>288</ele>
        <time>2020-10-03T09:56:40.000Z</time>
      </trkpt>
      <trkpt lat="43.6028" lon="1.1576">
        <ele>288</ele>
        <time>2020-10-03T09:56:41.000Z</time>
      </trkpt>
      <trkpt lat="43.60281" lon="1.15756">
        <ele>288</ele>
        <time>2020-10-03T09:56:42.000Z</time>
      </trkpt>
      <trkpt lat="43.60282" lon="1.15752">
        <ele>288</ele>
        <time>2020-10-03T09:56:43.000Z</time>
      </trkpt>
      <trkpt lat="43.60284" lon="1.15749">
        <ele>288</ele>
        <time>2020-10-03T09:56:44.000Z</time>
      </trkpt>
      <trkpt lat="43.60285" lon="1.15745">
        <ele>288</ele>
        <time>2020-10-03T09:56:45.000Z</time>
      </trkpt>
      <trkpt lat="43.60285" lon="1.15742">
        <ele>288</ele>
        <time>2020-10-03T09:56:46.000Z</time>
      </trkpt>
      <trkpt lat="43.60286" lon="1.15738">
        <ele>288</ele>
        <time>2020-10-03T09:56:47.000Z</time>
      </trkpt>
      <trkpt lat="43.60288" lon="1.15734">
        <ele>288</ele>
        <time>2020-10-03T09:56:48.000Z</time>
      </trkpt>
      <trkpt lat="43.60289" lon="1.1573">
        <ele>288</ele>
        <time>2020-10-03T09:56:49.000Z</time>
      </trkpt>
      <trkpt lat="43.6029" lon="1.15726">
        <ele>288</ele>
        <time>2020-10-03T09:56:50.000Z</time>
      </trkpt>
      <trkpt lat="43.60291" lon="1.15722">
        <ele>288</ele>
        <time>2020-10-03T09:56:51.000Z</time>
      </trkpt>
      <trkpt lat="43.60292" lon="1.15718">
        <ele>288</ele>
        <time>2020-10-03T09:56:52.000Z</time>
      </trkpt>
      <trkpt lat="43.60293" lon="1.15713">
        <ele>287.5575202193</ele>
        <time>2020-10-03T09:56:53.000Z</time>
      </trkpt>
      <trkpt lat="43.60294" lon="1.15709">
        <ele>287</ele>
        <time>2020-10-03T09:56:54.000Z</time>
      </trkpt>
      <trkpt lat="43.60295" lon="1.15705">
        <ele>287</ele>
        <time>2020-10-03T09:56:55.000Z</time>
      </trkpt>
      <trkpt lat="43.60295" lon="1.157">
        <ele>287</ele>
        <time>2020-10-03T09:56:56.000Z</time>
      </trkpt>
      <trkpt lat="43.60296" lon="1.15696">
        <ele>287</ele>
        <time>2020-10-03T09:56:57.000Z</time>
      </trkpt>
      <trkpt lat="43.60297" lon="1.15692">
        <ele>287.44247346541</ele>
        <time>2020-10-03T09:56:58.000Z</time>
      </trkpt>
      <trkpt lat="43.60298" lon="1.15688">
        <ele>288</ele>
        <time>2020-10-03T09:56:59.000Z</time>
      </trkpt>
      <trkpt lat="43.60299" lon="1.15684">
        <ele>288</ele>
        <time>2020-10-03T09:57:00.000Z</time>
      </trkpt>
      <trkpt lat="43.603" lon="1.15681">
        <ele>288</ele>
        <time>2020-10-03T09:57:01.000Z</time>
      </trkpt>
      <trkpt lat="43.60301" lon="1.15677">
        <ele>288</ele>
        <time>2020-10-03T09:57:02.000Z</time>
      </trkpt>
      <trkpt lat="43.60302" lon="1.15674">
        <ele>288</ele>
        <time>2020-10-03T09:57:03.000Z</time>
      </trkpt>
      <trkpt lat="43.60303" lon="1.1567">
        <ele>288</ele>
        <time>2020-10-03T09:57:04.000Z</time>
      </trkpt>
      <trkpt lat="43.60304" lon="1.15666">
        <ele>288</ele>
        <time>2020-10-03T09:57:05.000Z</time>
      </trkpt>
      <trkpt lat="43.60305" lon="1.15662">
        <ele>287.6000048762</ele>
        <time>2020-10-03T09:57:06.000Z</time>
      </trkpt>
      <trkpt lat="43.60306" lon="1.15658">
        <ele>287</ele>
        <time>2020-10-03T09:57:07.000Z</time>
      </trkpt>
      <trkpt lat="43.60307" lon="1.15654">
        <ele>287</ele>
        <time>2020-10-03T09:57:08.000Z</time>
      </trkpt>
      <trkpt lat="43.60308" lon="1.1565">
        <ele>287</ele>
        <time>2020-10-03T09:57:09.000Z</time>
      </trkpt>
      <trkpt lat="43.60309" lon="1.15646">
        <ele>287.68966734835</ele>
        <time>2020-10-03T09:57:10.000Z</time>
      </trkpt>
      <trkpt lat="43.60309" lon="1.15642">
        <ele>289</ele>
        <time>2020-10-03T09:57:11.000Z</time>
      </trkpt>
      <trkpt lat="43.6031" lon="1.15638">
        <ele>289</ele>
        <time>2020-10-03T09:57:12.000Z</time>
      </trkpt>
      <trkpt lat="43.60311" lon="1.15634">
        <ele>289</ele>
        <time>2020-10-03T09:57:13.000Z</time>
      </trkpt>
      <trkpt lat="43.60312" lon="1.1563">
        <ele>289</ele>
        <time>2020-10-03T09:57:14.000Z</time>
      </trkpt>
      <trkpt lat="43.60313" lon="1.15626">
        <ele>289</ele>
        <time>2020-10-03T09:57:15.000Z</time>
      </trkpt>
      <trkpt lat="43.60314" lon="1.15622">
        <ele>289</ele>
        <time>2020-10-03T09:57:16.000Z</time>
      </trkpt>
      <trkpt lat="43.60314" lon="1.15617">
        <ele>289</ele>
        <time>2020-10-03T09:57:17.000Z</time>
      </trkpt>
      <trkpt lat="43.60314" lon="1.15613">
        <ele>289</ele>
        <time>2020-10-03T09:57:18.000Z</time>
      </trkpt>
      <trkpt lat="43.60315" lon="1.15609">
        <ele>288.89041047851</ele>
        <time>2020-10-03T09:57:19.000Z</time>
      </trkpt>
      <trkpt lat="43.60316" lon="1.15605">
        <ele>288</ele>
        <time>2020-10-03T09:57:20.000Z</time>
      </trkpt>
      <trkpt lat="43.60317" lon="1.15601">
        <ele>288</ele>
        <time>2020-10-03T09:57:21.000Z</time>
      </trkpt>
      <trkpt lat="43.60318" lon="1.15597">
        <ele>288.34745679977</ele>
        <time>2020-10-03T09:57:22.000Z</time>
      </trkpt>
      <trkpt lat="43.60319" lon="1.15593">
        <ele>289</ele>
        <time>2020-10-03T09:57:23.000Z</time>
      </trkpt>
      <trkpt lat="43.60319" lon="1.15589">
        <ele>289</ele>
        <time>2020-10-03T09:57:24.000Z</time>
      </trkpt>
      <trkpt lat="43.60319" lon="1.15585">
        <ele>289</ele>
        <time>2020-10-03T09:57:25.000Z</time>
      </trkpt>
      <trkpt lat="43.6032" lon="1.15581">
        <ele>289</ele>
        <time>2020-10-03T09:57:26.000Z</time>
      </trkpt>
      <trkpt lat="43.60321" lon="1.15577">
        <ele>289</ele>
        <time>2020-10-03T09:57:27.000Z</time>
      </trkpt>
      <trkpt lat="43.60322" lon="1.15574">
        <ele>289</ele>
        <time>2020-10-03T09:57:28.000Z</time>
      </trkpt>
      <trkpt lat="43.60323" lon="1.15571">
        <ele>289</ele>
        <time>2020-10-03T09:57:29.000Z</time>
      </trkpt>
      <trkpt lat="43.60324" lon="1.15567">
        <ele>289</ele>
        <time>2020-10-03T09:57:30.000Z</time>
      </trkpt>
      <trkpt lat="43.60324" lon="1.15563">
        <ele>289</ele>
        <time>2020-10-03T09:57:31.000Z</time>
      </trkpt>
      <trkpt lat="43.60325" lon="1.15559">
        <ele>289</ele>
        <time>2020-10-03T09:57:32.000Z</time>
      </trkpt>
      <trkpt lat="43.60325" lon="1.15556">
        <ele>289</ele>
        <time>2020-10-03T09:57:33.000Z</time>
      </trkpt>
      <trkpt lat="43.60326" lon="1.15552">
        <ele>289</ele>
        <time>2020-10-03T09:57:34.000Z</time>
      </trkpt>
      <trkpt lat="43.60326" lon="1.15548">
        <ele>289</ele>
        <time>2020-10-03T09:57:35.000Z</time>
      </trkpt>
      <trkpt lat="43.60327" lon="1.15545">
        <ele>289</ele>
        <time>2020-10-03T09:57:36.000Z</time>
      </trkpt>
      <trkpt lat="43.60328" lon="1.15541">
        <ele>289</ele>
        <time>2020-10-03T09:57:37.000Z</time>
      </trkpt>
      <trkpt lat="43.60328" lon="1.15537">
        <ele>288.63636575205</ele>
        <time>2020-10-03T09:57:38.000Z</time>
      </trkpt>
      <trkpt lat="43.60329" lon="1.15533">
        <ele>288</ele>
        <time>2020-10-03T09:57:39.000Z</time>
      </trkpt>
      <trkpt lat="43.6033" lon="1.15529">
        <ele>288</ele>
        <time>2020-10-03T09:57:40.000Z</time>
      </trkpt>
      <trkpt lat="43.6033" lon="1.15525">
        <ele>288</ele>
        <time>2020-10-03T09:57:41.000Z</time>
      </trkpt>
      <trkpt lat="43.6033" lon="1.15521">
        <ele>288</ele>
        <time>2020-10-03T09:57:42.000Z</time>
      </trkpt>
      <trkpt lat="43.6033" lon="1.15518">
        <ele>288</ele>
        <time>2020-10-03T09:57:43.000Z</time>
      </trkpt>
      <trkpt lat="43.60331" lon="1.15515">
        <ele>288</ele>
        <time>2020-10-03T09:57:44.000Z</time>
      </trkpt>
      <trkpt lat="43.60331" lon="1.15512">
        <ele>288</ele>
        <time>2020-10-03T09:57:45.000Z</time>
      </trkpt>
      <trkpt lat="43.60331" lon="1.15508">
        <ele>288</ele>
        <time>2020-10-03T09:57:47.000Z</time>
      </trkpt>
      <trkpt lat="43.60331" lon="1.15503">
        <ele>288</ele>
        <time>2020-10-03T09:57:49.000Z</time>
      </trkpt>
      <trkpt lat="43.60331" lon="1.15501">
        <ele>288</ele>
        <time>2020-10-03T09:57:50.000Z</time>
      </trkpt>
      <trkpt lat="43.6033" lon="1.15497">
        <ele>288</ele>
        <time>2020-10-03T09:57:51.000Z</time>
      </trkpt>
      <trkpt lat="43.6033" lon="1.15494">
        <ele>288</ele>
        <time>2020-10-03T09:57:52.000Z</time>
      </trkpt>
      <trkpt lat="43.60329" lon="1.1549">
        <ele>288</ele>
        <time>2020-10-03T09:57:53.000Z</time>
      </trkpt>
      <trkpt lat="43.60329" lon="1.15486">
        <ele>288</ele>
        <time>2020-10-03T09:57:54.000Z</time>
      </trkpt>
      <trkpt lat="43.60329" lon="1.15482">
        <ele>288</ele>
        <time>2020-10-03T09:57:55.000Z</time>
      </trkpt>
      <trkpt lat="43.60329" lon="1.15478">
        <ele>288.11322030624</ele>
        <time>2020-10-03T09:57:56.000Z</time>
      </trkpt>
      <trkpt lat="43.60328" lon="1.15474">
        <ele>290</ele>
        <time>2020-10-03T09:57:57.000Z</time>
      </trkpt>
      <trkpt lat="43.60328" lon="1.15469">
        <ele>290</ele>
        <time>2020-10-03T09:57:58.000Z</time>
      </trkpt>
      <trkpt lat="43.60329" lon="1.15465">
        <ele>289.65933834079</ele>
        <time>2020-10-03T09:57:59.000Z</time>
      </trkpt>
      <trkpt lat="43.60329" lon="1.15461">
        <ele>289</ele>
        <time>2020-10-03T09:58:00.000Z</time>
      </trkpt>
      <trkpt lat="43.6033" lon="1.15458">
        <ele>288.89743673898</ele>
        <time>2020-10-03T09:58:01.000Z</time>
      </trkpt>
      <trkpt lat="43.6033" lon="1.15454">
        <ele>287</ele>
        <time>2020-10-03T09:58:02.000Z</time>
      </trkpt>
      <trkpt lat="43.60331" lon="1.15451">
        <ele>287</ele>
        <time>2020-10-03T09:58:03.000Z</time>
      </trkpt>
      <trkpt lat="43.60332" lon="1.15447">
        <ele>287</ele>
        <time>2020-10-03T09:58:04.000Z</time>
      </trkpt>
      <trkpt lat="43.60332" lon="1.15443">
        <ele>287.43243118578</ele>
        <time>2020-10-03T09:58:05.000Z</time>
      </trkpt>
      <trkpt lat="43.60333" lon="1.1544">
        <ele>288</ele>
        <time>2020-10-03T09:58:06.000Z</time>
      </trkpt>
      <trkpt lat="43.60334" lon="1.15436">
        <ele>288</ele>
        <time>2020-10-03T09:58:07.000Z</time>
      </trkpt>
      <trkpt lat="43.60335" lon="1.15433">
        <ele>288</ele>
        <time>2020-10-03T09:58:08.000Z</time>
      </trkpt>
      <trkpt lat="43.60336" lon="1.15429">
        <ele>287.63528897991</ele>
        <time>2020-10-03T09:58:09.000Z</time>
      </trkpt>
      <trkpt lat="43.60337" lon="1.15426">
        <ele>287</ele>
        <time>2020-10-03T09:58:10.000Z</time>
      </trkpt>
      <trkpt lat="43.60338" lon="1.15423">
        <ele>287</ele>
        <time>2020-10-03T09:58:11.000Z</time>
      </trkpt>
      <trkpt lat="43.6034" lon="1.15419">
        <ele>287</ele>
        <time>2020-10-03T09:58:13.000Z</time>
      </trkpt>
      <trkpt lat="43.60343" lon="1.15412">
        <ele>286</ele>
        <time>2020-10-03T09:58:19.000Z</time>
      </trkpt>
      <trkpt lat="43.60344" lon="1.15407">
        <ele>286</ele>
        <time>2020-10-03T09:58:21.000Z</time>
      </trkpt>
      <trkpt lat="43.60345" lon="1.15403">
        <ele>286</ele>
        <time>2020-10-03T09:58:23.000Z</time>
      </trkpt>
      <trkpt lat="43.60345" lon="1.15399">
        <ele>286</ele>
        <time>2020-10-03T09:58:24.000Z</time>
      </trkpt>
      <trkpt lat="43.60346" lon="1.15395">
        <ele>286</ele>
        <time>2020-10-03T09:58:25.000Z</time>
      </trkpt>
      <trkpt lat="43.60348" lon="1.15392">
        <ele>286</ele>
        <time>2020-10-03T09:58:26.000Z</time>
      </trkpt>
      <trkpt lat="43.60349" lon="1.1539">
        <ele>286</ele>
        <time>2020-10-03T09:58:27.000Z</time>
      </trkpt>
      <trkpt lat="43.60351" lon="1.15387">
        <ele>286</ele>
        <time>2020-10-03T09:58:28.000Z</time>
      </trkpt>
      <trkpt lat="43.60353" lon="1.15384">
        <ele>286</ele>
        <time>2020-10-03T09:58:29.000Z</time>
      </trkpt>
      <trkpt lat="43.60355" lon="1.15381">
        <ele>286</ele>
        <time>2020-10-03T09:58:30.000Z</time>
      </trkpt>
      <trkpt lat="43.60357" lon="1.15378">
        <ele>286</ele>
        <time>2020-10-03T09:58:31.000Z</time>
      </trkpt>
      <trkpt lat="43.60359" lon="1.15375">
        <ele>286</ele>
        <time>2020-10-03T09:58:32.000Z</time>
      </trkpt>
      <trkpt lat="43.60361" lon="1.15372">
        <ele>285.55356571429</ele>
        <time>2020-10-03T09:58:33.000Z</time>
      </trkpt>
      <trkpt lat="43.60362" lon="1.15369">
        <ele>285</ele>
        <time>2020-10-03T09:58:34.000Z</time>
      </trkpt>
      <trkpt lat="43.60364" lon="1.15367">
        <ele>284.63528897991</ele>
        <time>2020-10-03T09:58:35.000Z</time>
      </trkpt>
      <trkpt lat="43.60366" lon="1.15364">
        <ele>284</ele>
        <time>2020-10-03T09:58:36.000Z</time>
      </trkpt>
      <trkpt lat="43.60369" lon="1.15361">
        <ele>284</ele>
        <time>2020-10-03T09:58:37.000Z</time>
      </trkpt>
      <trkpt lat="43.6037" lon="1.15359">
        <ele>284</ele>
        <time>2020-10-03T09:58:38.000Z</time>
      </trkpt>
      <trkpt lat="43.60374" lon="1.15354">
        <ele>284</ele>
        <time>2020-10-03T09:58:40.000Z</time>
      </trkpt>
      <trkpt lat="43.60376" lon="1.15352">
        <ele>284</ele>
        <time>2020-10-03T09:58:41.000Z</time>
      </trkpt>
      <trkpt lat="43.60378" lon="1.15351">
        <ele>284</ele>
        <time>2020-10-03T09:58:42.000Z</time>
      </trkpt>
      <trkpt lat="43.60381" lon="1.15348">
        <ele>283.56818909091</ele>
        <time>2020-10-03T09:58:43.000Z</time>
      </trkpt>
      <trkpt lat="43.60383" lon="1.15346">
        <ele>283</ele>
        <time>2020-10-03T09:58:44.000Z</time>
      </trkpt>
      <trkpt lat="43.60385" lon="1.15343">
        <ele>283</ele>
        <time>2020-10-03T09:58:45.000Z</time>
      </trkpt>
      <trkpt lat="43.60387" lon="1.15341">
        <ele>283</ele>
        <time>2020-10-03T09:58:46.000Z</time>
      </trkpt>
      <trkpt lat="43.6039" lon="1.15338">
        <ele>283</ele>
        <time>2020-10-03T09:58:47.000Z</time>
      </trkpt>
      <trkpt lat="43.60392" lon="1.15336">
        <ele>283</ele>
        <time>2020-10-03T09:58:48.000Z</time>
      </trkpt>
      <trkpt lat="43.60395" lon="1.15332">
        <ele>283</ele>
        <time>2020-10-03T09:58:49.000Z</time>
      </trkpt>
      <trkpt lat="43.60397" lon="1.15329">
        <ele>282.63094857143</ele>
        <time>2020-10-03T09:58:50.000Z</time>
      </trkpt>
      <trkpt lat="43.604" lon="1.15326">
        <ele>282</ele>
        <time>2020-10-03T09:58:51.000Z</time>
      </trkpt>
      <trkpt lat="43.60402" lon="1.15323">
        <ele>282</ele>
        <time>2020-10-03T09:58:52.000Z</time>
      </trkpt>
      <trkpt lat="43.60405" lon="1.15319">
        <ele>281.637504</ele>
        <time>2020-10-03T09:58:53.000Z</time>
      </trkpt>
      <trkpt lat="43.60407" lon="1.15316">
        <ele>281</ele>
        <time>2020-10-03T09:58:54.000Z</time>
      </trkpt>
      <trkpt lat="43.60409" lon="1.15313">
        <ele>281</ele>
        <time>2020-10-03T09:58:55.000Z</time>
      </trkpt>
      <trkpt lat="43.60411" lon="1.1531">
        <ele>280.74444270618</ele>
        <time>2020-10-03T09:58:56.000Z</time>
      </trkpt>
      <trkpt lat="43.60414" lon="1.15307">
        <ele>280</ele>
        <time>2020-10-03T09:58:57.000Z</time>
      </trkpt>
      <trkpt lat="43.60416" lon="1.15303">
        <ele>280</ele>
        <time>2020-10-03T09:58:58.000Z</time>
      </trkpt>
      <trkpt lat="43.60418" lon="1.153">
        <ele>280</ele>
        <time>2020-10-03T09:58:59.000Z</time>
      </trkpt>
      <trkpt lat="43.6042" lon="1.15297">
        <ele>280</ele>
        <time>2020-10-03T09:59:00.000Z</time>
      </trkpt>
      <trkpt lat="43.60423" lon="1.15294">
        <ele>280</ele>
        <time>2020-10-03T09:59:01.000Z</time>
      </trkpt>
      <trkpt lat="43.60425" lon="1.1529">
        <ele>279.63529447197</ele>
        <time>2020-10-03T09:59:02.000Z</time>
      </trkpt>
      <trkpt lat="43.60427" lon="1.15287">
        <ele>279</ele>
        <time>2020-10-03T09:59:03.000Z</time>
      </trkpt>
      <trkpt lat="43.60428" lon="1.15283">
        <ele>279</ele>
        <time>2020-10-03T09:59:04.000Z</time>
      </trkpt>
      <trkpt lat="43.6043" lon="1.1528">
        <ele>279</ele>
        <time>2020-10-03T09:59:05.000Z</time>
      </trkpt>
      <trkpt lat="43.60432" lon="1.15277">
        <ele>279</ele>
        <time>2020-10-03T09:59:06.000Z</time>
      </trkpt>
      <trkpt lat="43.60434" lon="1.15273">
        <ele>279</ele>
        <time>2020-10-03T09:59:07.000Z</time>
      </trkpt>
      <trkpt lat="43.60436" lon="1.1527">
        <ele>278.64557105592</ele>
        <time>2020-10-03T09:59:08.000Z</time>
      </trkpt>
      <trkpt lat="43.60438" lon="1.15266">
        <ele>278</ele>
        <time>2020-10-03T09:59:09.000Z</time>
      </trkpt>
      <trkpt lat="43.60441" lon="1.15263">
        <ele>278</ele>
        <time>2020-10-03T09:59:10.000Z</time>
      </trkpt>
      <trkpt lat="43.60443" lon="1.15259">
        <ele>278</ele>
        <time>2020-10-03T09:59:11.000Z</time>
      </trkpt>
      <trkpt lat="43.60445" lon="1.15256">
        <ele>278</ele>
        <time>2020-10-03T09:59:12.000Z</time>
      </trkpt>
      <trkpt lat="43.60447" lon="1.15253">
        <ele>278</ele>
        <time>2020-10-03T09:59:13.000Z</time>
      </trkpt>
      <trkpt lat="43.60449" lon="1.1525">
        <ele>278</ele>
        <time>2020-10-03T09:59:14.000Z</time>
      </trkpt>
      <trkpt lat="43.60451" lon="1.15246">
        <ele>278</ele>
        <time>2020-10-03T09:59:15.000Z</time>
      </trkpt>
      <trkpt lat="43.60453" lon="1.15243">
        <ele>278</ele>
        <time>2020-10-03T09:59:16.000Z</time>
      </trkpt>
      <trkpt lat="43.60455" lon="1.1524">
        <ele>278</ele>
        <time>2020-10-03T09:59:17.000Z</time>
      </trkpt>
      <trkpt lat="43.60458" lon="1.15237">
        <ele>278</ele>
        <time>2020-10-03T09:59:18.000Z</time>
      </trkpt>
      <trkpt lat="43.6046" lon="1.15233">
        <ele>278</ele>
        <time>2020-10-03T09:59:19.000Z</time>
      </trkpt>
      <trkpt lat="43.60462" lon="1.1523">
        <ele>278</ele>
        <time>2020-10-03T09:59:20.000Z</time>
      </trkpt>
      <trkpt lat="43.60464" lon="1.15226">
        <ele>278</ele>
        <time>2020-10-03T09:59:21.000Z</time>
      </trkpt>
      <trkpt lat="43.60466" lon="1.15223">
        <ele>278</ele>
        <time>2020-10-03T09:59:22.000Z</time>
      </trkpt>
      <trkpt lat="43.60468" lon="1.1522">
        <ele>278</ele>
        <time>2020-10-03T09:59:23.000Z</time>
      </trkpt>
      <trkpt lat="43.6047" lon="1.15217">
        <ele>278</ele>
        <time>2020-10-03T09:59:24.000Z</time>
      </trkpt>
      <trkpt lat="43.60473" lon="1.15214">
        <ele>278</ele>
        <time>2020-10-03T09:59:25.000Z</time>
      </trkpt>
      <trkpt lat="43.60475" lon="1.15211">
        <ele>277.44116705882</ele>
        <time>2020-10-03T09:59:26.000Z</time>
      </trkpt>
      <trkpt lat="43.60477" lon="1.15208">
        <ele>276</ele>
        <time>2020-10-03T09:59:27.000Z</time>
      </trkpt>
      <trkpt lat="43.60479" lon="1.15204">
        <ele>276</ele>
        <time>2020-10-03T09:59:28.000Z</time>
      </trkpt>
      <trkpt lat="43.60481" lon="1.152">
        <ele>275.70453818182</ele>
        <time>2020-10-03T09:59:29.000Z</time>
      </trkpt>
      <trkpt lat="43.60484" lon="1.15197">
        <ele>275</ele>
        <time>2020-10-03T09:59:30.000Z</time>
      </trkpt>
      <trkpt lat="43.60486" lon="1.15193">
        <ele>275</ele>
        <time>2020-10-03T09:59:31.000Z</time>
      </trkpt>
      <trkpt lat="43.60488" lon="1.1519">
        <ele>273.92660615099</ele>
        <time>2020-10-03T09:59:32.000Z</time>
      </trkpt>
      <trkpt lat="43.6049" lon="1.15186">
        <ele>272</ele>
        <time>2020-10-03T09:59:33.000Z</time>
      </trkpt>
      <trkpt lat="43.60493" lon="1.15182">
        <ele>272</ele>
        <time>2020-10-03T09:59:34.000Z</time>
      </trkpt>
      <trkpt lat="43.60495" lon="1.15178">
        <ele>272</ele>
        <time>2020-10-03T09:59:35.000Z</time>
      </trkpt>
      <trkpt lat="43.60496" lon="1.15174">
        <ele>272</ele>
        <time>2020-10-03T09:59:36.000Z</time>
      </trkpt>
      <trkpt lat="43.60498" lon="1.15171">
        <ele>272</ele>
        <time>2020-10-03T09:59:37.000Z</time>
      </trkpt>
      <trkpt lat="43.605" lon="1.15167">
        <ele>272</ele>
        <time>2020-10-03T09:59:38.000Z</time>
      </trkpt>
      <trkpt lat="43.60503" lon="1.15164">
        <ele>272</ele>
        <time>2020-10-03T09:59:39.000Z</time>
      </trkpt>
      <trkpt lat="43.60505" lon="1.1516">
        <ele>272</ele>
        <time>2020-10-03T09:59:40.000Z</time>
      </trkpt>
      <trkpt lat="43.60507" lon="1.15157">
        <ele>271.33332671833</ele>
        <time>2020-10-03T09:59:41.000Z</time>
      </trkpt>
      <trkpt lat="43.60509" lon="1.15153">
        <ele>270</ele>
        <time>2020-10-03T09:59:42.000Z</time>
      </trkpt>
      <trkpt lat="43.60511" lon="1.15149">
        <ele>269.55555871603</ele>
        <time>2020-10-03T09:59:43.000Z</time>
      </trkpt>
      <trkpt lat="43.60513" lon="1.15146">
        <ele>269</ele>
        <time>2020-10-03T09:59:44.000Z</time>
      </trkpt>
      <trkpt lat="43.60515" lon="1.15143">
        <ele>269</ele>
        <time>2020-10-03T09:59:45.000Z</time>
      </trkpt>
      <trkpt lat="43.60517" lon="1.15139">
        <ele>269</ele>
        <time>2020-10-03T09:59:46.000Z</time>
      </trkpt>
      <trkpt lat="43.6052" lon="1.15136">
        <ele>269</ele>
        <time>2020-10-03T09:59:47.000Z</time>
      </trkpt>
      <trkpt lat="43.60522" lon="1.15133">
        <ele>269</ele>
        <time>2020-10-03T09:59:48.000Z</time>
      </trkpt>
      <trkpt lat="43.60524" lon="1.15129">
        <ele>269</ele>
        <time>2020-10-03T09:59:49.000Z</time>
      </trkpt>
      <trkpt lat="43.60526" lon="1.15125">
        <ele>268.62727346777</ele>
        <time>2020-10-03T09:59:50.000Z</time>
      </trkpt>
      <trkpt lat="43.60528" lon="1.15121">
        <ele>268</ele>
        <time>2020-10-03T09:59:51.000Z</time>
      </trkpt>
      <trkpt lat="43.60529" lon="1.15118">
        <ele>268</ele>
        <time>2020-10-03T09:59:52.000Z</time>
      </trkpt>
      <trkpt lat="43.60531" lon="1.15114">
        <ele>267.56818909091</ele>
        <time>2020-10-03T09:59:53.000Z</time>
      </trkpt>
      <trkpt lat="43.60533" lon="1.1511">
        <ele>267</ele>
        <time>2020-10-03T09:59:54.000Z</time>
      </trkpt>
      <trkpt lat="43.60535" lon="1.15106">
        <ele>267</ele>
        <time>2020-10-03T09:59:55.000Z</time>
      </trkpt>
      <trkpt lat="43.60537" lon="1.15102">
        <ele>266.77235831582</ele>
        <time>2020-10-03T09:59:56.000Z</time>
      </trkpt>
      <trkpt lat="43.60539" lon="1.15098">
        <ele>266</ele>
        <time>2020-10-03T09:59:57.000Z</time>
      </trkpt>
      <trkpt lat="43.6054" lon="1.15094">
        <ele>266</ele>
        <time>2020-10-03T09:59:58.000Z</time>
      </trkpt>
      <trkpt lat="43.60542" lon="1.1509">
        <ele>265.67045818182</ele>
        <time>2020-10-03T09:59:59.000Z</time>
      </trkpt>
      <trkpt lat="43.60544" lon="1.15087">
        <ele>265</ele>
        <time>2020-10-03T10:00:00.000Z</time>
      </trkpt>
      <trkpt lat="43.60545" lon="1.15084">
        <ele>265</ele>
        <time>2020-10-03T10:00:01.000Z</time>
      </trkpt>
      <trkpt lat="43.60547" lon="1.1508">
        <ele>264.27709579915</ele>
        <time>2020-10-03T10:00:02.000Z</time>
      </trkpt>
      <trkpt lat="43.60549" lon="1.15077">
        <ele>263</ele>
        <time>2020-10-03T10:00:03.000Z</time>
      </trkpt>
      <trkpt lat="43.6055" lon="1.15072">
        <ele>263</ele>
        <time>2020-10-03T10:00:04.000Z</time>
      </trkpt>
      <trkpt lat="43.60552" lon="1.15068">
        <ele>262.56179888397</ele>
        <time>2020-10-03T10:00:05.000Z</time>
      </trkpt>
      <trkpt lat="43.60554" lon="1.15064">
        <ele>262</ele>
        <time>2020-10-03T10:00:06.000Z</time>
      </trkpt>
      <trkpt lat="43.60555" lon="1.1506">
        <ele>261.64486260811</ele>
        <time>2020-10-03T10:00:07.000Z</time>
      </trkpt>
      <trkpt lat="43.60557" lon="1.15056">
        <ele>261</ele>
        <time>2020-10-03T10:00:08.000Z</time>
      </trkpt>
      <trkpt lat="43.60558" lon="1.15052">
        <ele>261</ele>
        <time>2020-10-03T10:00:09.000Z</time>
      </trkpt>
      <trkpt lat="43.6056" lon="1.15048">
        <ele>261</ele>
        <time>2020-10-03T10:00:10.000Z</time>
      </trkpt>
      <trkpt lat="43.60562" lon="1.15045">
        <ele>261</ele>
        <time>2020-10-03T10:00:11.000Z</time>
      </trkpt>
      <trkpt lat="43.60563" lon="1.1504">
        <ele>260.84285400819</ele>
        <time>2020-10-03T10:00:12.000Z</time>
      </trkpt>
      <trkpt lat="43.60565" lon="1.15036">
        <ele>260</ele>
        <time>2020-10-03T10:00:13.000Z</time>
      </trkpt>
      <trkpt lat="43.60566" lon="1.15032">
        <ele>260</ele>
        <time>2020-10-03T10:00:14.000Z</time>
      </trkpt>
      <trkpt lat="43.60568" lon="1.15028">
        <ele>259.61728453589</ele>
        <time>2020-10-03T10:00:15.000Z</time>
      </trkpt>
      <trkpt lat="43.6057" lon="1.15023">
        <ele>259</ele>
        <time>2020-10-03T10:00:16.000Z</time>
      </trkpt>
      <trkpt lat="43.60572" lon="1.15019">
        <ele>258.63636152065</ele>
        <time>2020-10-03T10:00:17.000Z</time>
      </trkpt>
      <trkpt lat="43.60573" lon="1.15015">
        <ele>258</ele>
        <time>2020-10-03T10:00:18.000Z</time>
      </trkpt>
      <trkpt lat="43.60575" lon="1.15011">
        <ele>258</ele>
        <time>2020-10-03T10:00:19.000Z</time>
      </trkpt>
      <trkpt lat="43.60576" lon="1.15008">
        <ele>258</ele>
        <time>2020-10-03T10:00:20.000Z</time>
      </trkpt>
      <trkpt lat="43.60578" lon="1.15003">
        <ele>258</ele>
        <time>2020-10-03T10:00:21.000Z</time>
      </trkpt>
      <trkpt lat="43.6058" lon="1.14999">
        <ele>258</ele>
        <time>2020-10-03T10:00:22.000Z</time>
      </trkpt>
      <trkpt lat="43.60581" lon="1.14995">
        <ele>258</ele>
        <time>2020-10-03T10:00:23.000Z</time>
      </trkpt>
      <trkpt lat="43.60583" lon="1.14991">
        <ele>258</ele>
        <time>2020-10-03T10:00:24.000Z</time>
      </trkpt>
      <trkpt lat="43.60584" lon="1.14987">
        <ele>258</ele>
        <time>2020-10-03T10:00:25.000Z</time>
      </trkpt>
      <trkpt lat="43.60586" lon="1.14983">
        <ele>257.63504031542</ele>
        <time>2020-10-03T10:00:26.000Z</time>
      </trkpt>
      <trkpt lat="43.60588" lon="1.1498">
        <ele>257</ele>
        <time>2020-10-03T10:00:27.000Z</time>
      </trkpt>
      <trkpt lat="43.6059" lon="1.14976">
        <ele>256.27660443646</ele>
        <time>2020-10-03T10:00:28.000Z</time>
      </trkpt>
      <trkpt lat="43.60591" lon="1.14973">
        <ele>255</ele>
        <time>2020-10-03T10:00:29.000Z</time>
      </trkpt>
      <trkpt lat="43.60593" lon="1.14969">
        <ele>255</ele>
        <time>2020-10-03T10:00:30.000Z</time>
      </trkpt>
      <trkpt lat="43.60595" lon="1.14965">
        <ele>255</ele>
        <time>2020-10-03T10:00:31.000Z</time>
      </trkpt>
      <trkpt lat="43.60596" lon="1.14962">
        <ele>255</ele>
        <time>2020-10-03T10:00:32.000Z</time>
      </trkpt>
      <trkpt lat="43.60598" lon="1.14958">
        <ele>255</ele>
        <time>2020-10-03T10:00:33.000Z</time>
      </trkpt>
      <trkpt lat="43.60599" lon="1.14955">
        <ele>254</ele>
        <time>2020-10-03T10:00:34.000Z</time>
      </trkpt>
      <trkpt lat="43.60601" lon="1.14951">
        <ele>254</ele>
        <time>2020-10-03T10:00:35.000Z</time>
      </trkpt>
      <trkpt lat="43.60602" lon="1.14947">
        <ele>253.11110479008</ele>
        <time>2020-10-03T10:00:36.000Z</time>
      </trkpt>
      <trkpt lat="43.60604" lon="1.14943">
        <ele>252</ele>
        <time>2020-10-03T10:00:37.000Z</time>
      </trkpt>
      <trkpt lat="43.60606" lon="1.1494">
        <ele>252</ele>
        <time>2020-10-03T10:00:38.000Z</time>
      </trkpt>
      <trkpt lat="43.60608" lon="1.14937">
        <ele>251.57471788609</ele>
        <time>2020-10-03T10:00:39.000Z</time>
      </trkpt>
      <trkpt lat="43.6061" lon="1.14933">
        <ele>251</ele>
        <time>2020-10-03T10:00:40.000Z</time>
      </trkpt>
      <trkpt lat="43.60611" lon="1.14929">
        <ele>251</ele>
        <time>2020-10-03T10:00:41.000Z</time>
      </trkpt>
      <trkpt lat="43.60614" lon="1.14926">
        <ele>251</ele>
        <time>2020-10-03T10:00:42.000Z</time>
      </trkpt>
      <trkpt lat="43.60616" lon="1.14922">
        <ele>251</ele>
        <time>2020-10-03T10:00:43.000Z</time>
      </trkpt>
      <trkpt lat="43.60617" lon="1.14919">
        <ele>251</ele>
        <time>2020-10-03T10:00:44.000Z</time>
      </trkpt>
      <trkpt lat="43.60618" lon="1.14915">
        <ele>251</ele>
        <time>2020-10-03T10:00:45.000Z</time>
      </trkpt>
      <trkpt lat="43.6062" lon="1.14912">
        <ele>251</ele>
        <time>2020-10-03T10:00:46.000Z</time>
      </trkpt>
      <trkpt lat="43.60622" lon="1.14908">
        <ele>251</ele>
        <time>2020-10-03T10:00:47.000Z</time>
      </trkpt>
      <trkpt lat="43.60624" lon="1.14904">
        <ele>251</ele>
        <time>2020-10-03T10:00:48.000Z</time>
      </trkpt>
      <trkpt lat="43.60626" lon="1.149">
        <ele>250.4871836949</ele>
        <time>2020-10-03T10:00:49.000Z</time>
      </trkpt>
      <trkpt lat="43.60628" lon="1.14896">
        <ele>249</ele>
        <time>2020-10-03T10:00:50.000Z</time>
      </trkpt>
      <trkpt lat="43.60631" lon="1.14892">
        <ele>249</ele>
        <time>2020-10-03T10:00:51.000Z</time>
      </trkpt>
      <trkpt lat="43.60633" lon="1.14888">
        <ele>248.8052064632</ele>
        <time>2020-10-03T10:00:52.000Z</time>
      </trkpt>
      <trkpt lat="43.60635" lon="1.14884">
        <ele>246</ele>
        <time>2020-10-03T10:00:53.000Z</time>
      </trkpt>
      <trkpt lat="43.60637" lon="1.1488">
        <ele>246</ele>
        <time>2020-10-03T10:00:54.000Z</time>
      </trkpt>
      <trkpt lat="43.60639" lon="1.14876">
        <ele>246</ele>
        <time>2020-10-03T10:00:55.000Z</time>
      </trkpt>
      <trkpt lat="43.60641" lon="1.14872">
        <ele>246</ele>
        <time>2020-10-03T10:00:56.000Z</time>
      </trkpt>
      <trkpt lat="43.60643" lon="1.14869">
        <ele>245.96152710087</ele>
        <time>2020-10-03T10:00:57.000Z</time>
      </trkpt>
      <trkpt lat="43.60644" lon="1.14865">
        <ele>245</ele>
        <time>2020-10-03T10:00:58.000Z</time>
      </trkpt>
      <trkpt lat="43.60647" lon="1.14856">
        <ele>244.18447084555</ele>
        <time>2020-10-03T10:01:00.000Z</time>
      </trkpt>
      <trkpt lat="43.60649" lon="1.14851">
        <ele>243</ele>
        <time>2020-10-03T10:01:01.000Z</time>
      </trkpt>
      <trkpt lat="43.6065" lon="1.14847">
        <ele>242.249984</ele>
        <time>2020-10-03T10:01:02.000Z</time>
      </trkpt>
      <trkpt lat="43.60652" lon="1.14843">
        <ele>241</ele>
        <time>2020-10-03T10:01:03.000Z</time>
      </trkpt>
      <trkpt lat="43.60653" lon="1.14839">
        <ele>240.63888592593</ele>
        <time>2020-10-03T10:01:04.000Z</time>
      </trkpt>
      <trkpt lat="43.60655" lon="1.14835">
        <ele>240</ele>
        <time>2020-10-03T10:01:05.000Z</time>
      </trkpt>
      <trkpt lat="43.60656" lon="1.14831">
        <ele>240.43119179868</ele>
        <time>2020-10-03T10:01:06.000Z</time>
      </trkpt>
      <trkpt lat="43.60658" lon="1.14827">
        <ele>241</ele>
        <time>2020-10-03T10:01:07.000Z</time>
      </trkpt>
      <trkpt lat="43.6066" lon="1.14823">
        <ele>241</ele>
        <time>2020-10-03T10:01:08.000Z</time>
      </trkpt>
      <trkpt lat="43.60662" lon="1.14819">
        <ele>240.54545137192</ele>
        <time>2020-10-03T10:01:09.000Z</time>
      </trkpt>
      <trkpt lat="43.60664" lon="1.14815">
        <ele>240.31495983632</ele>
        <time>2020-10-03T10:01:10.000Z</time>
      </trkpt>
      <trkpt lat="43.60665" lon="1.14812">
        <ele>240.87500307692</ele>
        <time>2020-10-03T10:01:11.000Z</time>
      </trkpt>
      <trkpt lat="43.60667" lon="1.14808">
        <ele>240</ele>
        <time>2020-10-03T10:01:12.000Z</time>
      </trkpt>
      <trkpt lat="43.60668" lon="1.14804">
        <ele>240</ele>
        <time>2020-10-03T10:01:13.000Z</time>
      </trkpt>
      <trkpt lat="43.6067" lon="1.14799">
        <ele>239.64444191603</ele>
        <time>2020-10-03T10:01:14.000Z</time>
      </trkpt>
      <trkpt lat="43.60671" lon="1.14796">
        <ele>239</ele>
        <time>2020-10-03T10:01:15.000Z</time>
      </trkpt>
      <trkpt lat="43.60673" lon="1.14792">
        <ele>239</ele>
        <time>2020-10-03T10:01:16.000Z</time>
      </trkpt>
      <trkpt lat="43.60675" lon="1.14789">
        <ele>239</ele>
        <time>2020-10-03T10:01:17.000Z</time>
      </trkpt>
      <trkpt lat="43.6068" lon="1.14778">
        <ele>239</ele>
        <time>2020-10-03T10:01:20.000Z</time>
      </trkpt>
      <trkpt lat="43.60687" lon="1.14767">
        <ele>236.62727346777</ele>
        <time>2020-10-03T10:01:24.000Z</time>
      </trkpt>
      <trkpt lat="43.60694" lon="1.14759">
        <ele>236</ele>
        <time>2020-10-03T10:01:27.000Z</time>
      </trkpt>
      <trkpt lat="43.60703" lon="1.1475">
        <ele>235</ele>
        <time>2020-10-03T10:01:30.000Z</time>
      </trkpt>
      <trkpt lat="43.60713" lon="1.1474">
        <ele>234</ele>
        <time>2020-10-03T10:01:34.000Z</time>
      </trkpt>
      <trkpt lat="43.60722" lon="1.14734">
        <ele>233</ele>
        <time>2020-10-03T10:01:37.000Z</time>
      </trkpt>
      <trkpt lat="43.60733" lon="1.14727">
        <ele>231.0100978757</ele>
        <time>2020-10-03T10:01:40.000Z</time>
      </trkpt>
      <trkpt lat="43.60742" lon="1.14723">
        <ele>230</ele>
        <time>2020-10-03T10:01:43.000Z</time>
      </trkpt>
      <trkpt lat="43.60751" lon="1.14719">
        <ele>230</ele>
        <time>2020-10-03T10:01:46.000Z</time>
      </trkpt>
      <trkpt lat="43.60761" lon="1.14713">
        <ele>230</ele>
        <time>2020-10-03T10:01:49.000Z</time>
      </trkpt>
      <trkpt lat="43.60772" lon="1.14707">
        <ele>227.55435130435</ele>
        <time>2020-10-03T10:01:53.000Z</time>
      </trkpt>
      <trkpt lat="43.6078" lon="1.14701">
        <ele>226</ele>
        <time>2020-10-03T10:01:56.000Z</time>
      </trkpt>
      <trkpt lat="43.60791" lon="1.14695">
        <ele>225</ele>
        <time>2020-10-03T10:02:00.000Z</time>
      </trkpt>
      <trkpt lat="43.60794" lon="1.14693">
        <ele>224.82192141116</ele>
        <time>2020-10-03T10:02:01.000Z</time>
      </trkpt>
      <trkpt lat="43.60796" lon="1.14692">
        <ele>224</ele>
        <time>2020-10-03T10:02:02.000Z</time>
      </trkpt>
      <trkpt lat="43.60799" lon="1.14691">
        <ele>224</ele>
        <time>2020-10-03T10:02:03.000Z</time>
      </trkpt>
      <trkpt lat="43.6081" lon="1.14684">
        <ele>224</ele>
        <time>2020-10-03T10:02:07.000Z</time>
      </trkpt>
      <trkpt lat="43.60821" lon="1.14677">
        <ele>224</ele>
        <time>2020-10-03T10:02:11.000Z</time>
      </trkpt>
      <trkpt lat="43.60831" lon="1.14672">
        <ele>222</ele>
        <time>2020-10-03T10:02:14.000Z</time>
      </trkpt>
      <trkpt lat="43.60841" lon="1.14669">
        <ele>223</ele>
        <time>2020-10-03T10:02:17.000Z</time>
      </trkpt>
      <trkpt lat="43.60852" lon="1.14664">
        <ele>222</ele>
        <time>2020-10-03T10:02:20.000Z</time>
      </trkpt>
      <trkpt lat="43.60858" lon="1.14661">
        <ele>222</ele>
        <time>2020-10-03T10:02:22.000Z</time>
      </trkpt>
      <trkpt lat="43.60861" lon="1.14659">
        <ele>222</ele>
        <time>2020-10-03T10:02:23.000Z</time>
      </trkpt>
      <trkpt lat="43.60863" lon="1.14656">
        <ele>222</ele>
        <time>2020-10-03T10:02:24.000Z</time>
      </trkpt>
      <trkpt lat="43.60872" lon="1.1465">
        <ele>221</ele>
        <time>2020-10-03T10:02:27.000Z</time>
      </trkpt>
      <trkpt lat="43.60879" lon="1.14642">
        <ele>221</ele>
        <time>2020-10-03T10:02:30.000Z</time>
      </trkpt>
      <trkpt lat="43.60888" lon="1.14634">
        <ele>220.22123673271</ele>
        <time>2020-10-03T10:02:33.000Z</time>
      </trkpt>
      <trkpt lat="43.60894" lon="1.14625">
        <ele>219.36470552803</ele>
        <time>2020-10-03T10:02:36.000Z</time>
      </trkpt>
      <trkpt lat="43.60902" lon="1.14618">
        <ele>220</ele>
        <time>2020-10-03T10:02:39.000Z</time>
      </trkpt>
      <trkpt lat="43.60909" lon="1.1461">
        <ele>220</ele>
        <time>2020-10-03T10:02:42.000Z</time>
      </trkpt>
      <trkpt lat="43.60918" lon="1.14602">
        <ele>220</ele>
        <time>2020-10-03T10:02:46.000Z</time>
      </trkpt>
      <trkpt lat="43.60926" lon="1.14594">
        <ele>219.63094857143</ele>
        <time>2020-10-03T10:02:49.000Z</time>
      </trkpt>
      <trkpt lat="43.60935" lon="1.14587">
        <ele>219</ele>
        <time>2020-10-03T10:02:52.000Z</time>
      </trkpt>
      <trkpt lat="43.60945" lon="1.14579">
        <ele>219</ele>
        <time>2020-10-03T10:02:56.000Z</time>
      </trkpt>
      <trkpt lat="43.60953" lon="1.1457">
        <ele>218</ele>
        <time>2020-10-03T10:03:00.000Z</time>
      </trkpt>
      <trkpt lat="43.60962" lon="1.14563">
        <ele>216</ele>
        <time>2020-10-03T10:03:03.000Z</time>
      </trkpt>
      <trkpt lat="43.60971" lon="1.14557">
        <ele>216</ele>
        <time>2020-10-03T10:03:06.000Z</time>
      </trkpt>
      <trkpt lat="43.6098" lon="1.1455">
        <ele>216</ele>
        <time>2020-10-03T10:03:09.000Z</time>
      </trkpt>
      <trkpt lat="43.60988" lon="1.14542">
        <ele>215</ele>
        <time>2020-10-03T10:03:12.000Z</time>
      </trkpt>
      <trkpt lat="43.60997" lon="1.14536">
        <ele>214.63393142857</ele>
        <time>2020-10-03T10:03:15.000Z</time>
      </trkpt>
      <trkpt lat="43.61007" lon="1.14529">
        <ele>213.81976558139</ele>
        <time>2020-10-03T10:03:18.000Z</time>
      </trkpt>
      <trkpt lat="43.61016" lon="1.14522">
        <ele>212.51546541395</ele>
        <time>2020-10-03T10:03:21.000Z</time>
      </trkpt>
      <trkpt lat="43.61025" lon="1.14515">
        <ele>210</ele>
        <time>2020-10-03T10:03:24.000Z</time>
      </trkpt>
      <trkpt lat="43.61033" lon="1.14508">
        <ele>210</ele>
        <time>2020-10-03T10:03:27.000Z</time>
      </trkpt>
      <trkpt lat="43.61042" lon="1.14503">
        <ele>209.37498666667</ele>
        <time>2020-10-03T10:03:30.000Z</time>
      </trkpt>
      <trkpt lat="43.6105" lon="1.14496">
        <ele>207.7080285151</ele>
        <time>2020-10-03T10:03:33.000Z</time>
      </trkpt>
      <trkpt lat="43.61058" lon="1.14488">
        <ele>206.09091543805</ele>
        <time>2020-10-03T10:03:36.000Z</time>
      </trkpt>
      <trkpt lat="43.61067" lon="1.14481">
        <ele>204</ele>
        <time>2020-10-03T10:03:39.000Z</time>
      </trkpt>
      <trkpt lat="43.61076" lon="1.14473">
        <ele>204</ele>
        <time>2020-10-03T10:03:42.000Z</time>
      </trkpt>
      <trkpt lat="43.61084" lon="1.14465">
        <ele>203</ele>
        <time>2020-10-03T10:03:45.000Z</time>
      </trkpt>
      <trkpt lat="43.61094" lon="1.14456">
        <ele>202</ele>
        <time>2020-10-03T10:03:48.000Z</time>
      </trkpt>
      <trkpt lat="43.61103" lon="1.14447">
        <ele>201.64545369918</ele>
        <time>2020-10-03T10:03:51.000Z</time>
      </trkpt>
      <trkpt lat="43.61112" lon="1.14437">
        <ele>200.66355240807</ele>
        <time>2020-10-03T10:03:54.000Z</time>
      </trkpt>
      <trkpt lat="43.61119" lon="1.14426">
        <ele>199.58139846401</ele>
        <time>2020-10-03T10:03:57.000Z</time>
      </trkpt>
      <trkpt lat="43.61125" lon="1.14415">
        <ele>198</ele>
        <time>2020-10-03T10:04:00.000Z</time>
      </trkpt>
      <trkpt lat="43.61131" lon="1.14405">
        <ele>197</ele>
        <time>2020-10-03T10:04:03.000Z</time>
      </trkpt>
      <trkpt lat="43.61138" lon="1.14394">
        <ele>197</ele>
        <time>2020-10-03T10:04:06.000Z</time>
      </trkpt>
      <trkpt lat="43.61144" lon="1.14382">
        <ele>195.59614769231</ele>
        <time>2020-10-03T10:04:09.000Z</time>
      </trkpt>
      <trkpt lat="43.61151" lon="1.14371">
        <ele>195</ele>
        <time>2020-10-03T10:04:12.000Z</time>
      </trkpt>
      <trkpt lat="43.61158" lon="1.14361">
        <ele>194</ele>
        <time>2020-10-03T10:04:15.000Z</time>
      </trkpt>
      <trkpt lat="43.61164" lon="1.1435">
        <ele>193</ele>
        <time>2020-10-03T10:04:18.000Z</time>
      </trkpt>
      <trkpt lat="43.61171" lon="1.14337">
        <ele>191</ele>
        <time>2020-10-03T10:04:22.000Z</time>
      </trkpt>
      <trkpt lat="43.61175" lon="1.14325">
        <ele>189.56179888397</ele>
        <time>2020-10-03T10:04:25.000Z</time>
      </trkpt>
      <trkpt lat="43.6118" lon="1.14313">
        <ele>188</ele>
        <time>2020-10-03T10:04:28.000Z</time>
      </trkpt>
      <trkpt lat="43.61181" lon="1.14309">
        <ele>188</ele>
        <time>2020-10-03T10:04:29.000Z</time>
      </trkpt>
      <trkpt lat="43.61182" lon="1.14304">
        <ele>187.72727272727</ele>
        <time>2020-10-03T10:04:30.000Z</time>
      </trkpt>
      <trkpt lat="43.61183" lon="1.143">
        <ele>187</ele>
        <time>2020-10-03T10:04:31.000Z</time>
      </trkpt>
      <trkpt lat="43.61184" lon="1.14297">
        <ele>187</ele>
        <time>2020-10-03T10:04:32.000Z</time>
      </trkpt>
      <trkpt lat="43.61185" lon="1.14293">
        <ele>186.16980630826</ele>
        <time>2020-10-03T10:04:33.000Z</time>
      </trkpt>
      <trkpt lat="43.61188" lon="1.14276">
        <ele>185</ele>
        <time>2020-10-03T10:04:37.000Z</time>
      </trkpt>
      <trkpt lat="43.61188" lon="1.14263">
        <ele>182.85897141357</ele>
        <time>2020-10-03T10:04:40.000Z</time>
      </trkpt>
      <trkpt lat="43.61189" lon="1.14249">
        <ele>182</ele>
        <time>2020-10-03T10:04:43.000Z</time>
      </trkpt>
      <trkpt lat="43.6119" lon="1.14235">
        <ele>181</ele>
        <time>2020-10-03T10:04:46.000Z</time>
      </trkpt>
      <trkpt lat="43.61191" lon="1.1423">
        <ele>181</ele>
        <time>2020-10-03T10:04:47.000Z</time>
      </trkpt>
      <trkpt lat="43.6119" lon="1.14226">
        <ele>181</ele>
        <time>2020-10-03T10:04:48.000Z</time>
      </trkpt>
      <trkpt lat="43.6119" lon="1.14221">
        <ele>180.61165169196</ele>
        <time>2020-10-03T10:04:49.000Z</time>
      </trkpt>
      <trkpt lat="43.61189" lon="1.14216">
        <ele>180</ele>
        <time>2020-10-03T10:04:50.000Z</time>
      </trkpt>
      <trkpt lat="43.61189" lon="1.14211">
        <ele>180</ele>
        <time>2020-10-03T10:04:51.000Z</time>
      </trkpt>
      <trkpt lat="43.61188" lon="1.14207">
        <ele>180</ele>
        <time>2020-10-03T10:04:52.000Z</time>
      </trkpt>
      <trkpt lat="43.61188" lon="1.14202">
        <ele>180</ele>
        <time>2020-10-03T10:04:53.000Z</time>
      </trkpt>
      <trkpt lat="43.61188" lon="1.14198">
        <ele>180</ele>
        <time>2020-10-03T10:04:54.000Z</time>
      </trkpt>
      <trkpt lat="43.61187" lon="1.14193">
        <ele>179.64557105592</ele>
        <time>2020-10-03T10:04:55.000Z</time>
      </trkpt>
      <trkpt lat="43.61187" lon="1.14189">
        <ele>179</ele>
        <time>2020-10-03T10:04:56.000Z</time>
      </trkpt>
      <trkpt lat="43.61187" lon="1.14185">
        <ele>179</ele>
        <time>2020-10-03T10:04:57.000Z</time>
      </trkpt>
      <trkpt lat="43.61186" lon="1.14181">
        <ele>179.35460619485</ele>
        <time>2020-10-03T10:04:58.000Z</time>
      </trkpt>
      <trkpt lat="43.61186" lon="1.14176">
        <ele>180</ele>
        <time>2020-10-03T10:04:59.000Z</time>
      </trkpt>
      <trkpt lat="43.61186" lon="1.14172">
        <ele>180</ele>
        <time>2020-10-03T10:05:00.000Z</time>
      </trkpt>
      <trkpt lat="43.61187" lon="1.14163">
        <ele>179</ele>
        <time>2020-10-03T10:05:02.000Z</time>
      </trkpt>
      <trkpt lat="43.61187" lon="1.14158">
        <ele>179.28571428571</ele>
        <time>2020-10-03T10:05:03.000Z</time>
      </trkpt>
      <trkpt lat="43.61187" lon="1.14153">
        <ele>180</ele>
        <time>2020-10-03T10:05:04.000Z</time>
      </trkpt>
      <trkpt lat="43.61187" lon="1.14149">
        <ele>180</ele>
        <time>2020-10-03T10:05:05.000Z</time>
      </trkpt>
      <trkpt lat="43.61187" lon="1.14144">
        <ele>180</ele>
        <time>2020-10-03T10:05:06.000Z</time>
      </trkpt>
      <trkpt lat="43.61188" lon="1.14139">
        <ele>180</ele>
        <time>2020-10-03T10:05:07.000Z</time>
      </trkpt>
      <trkpt lat="43.61189" lon="1.14135">
        <ele>180</ele>
        <time>2020-10-03T10:05:08.000Z</time>
      </trkpt>
      <trkpt lat="43.6119" lon="1.1413">
        <ele>180</ele>
        <time>2020-10-03T10:05:09.000Z</time>
      </trkpt>
      <trkpt lat="43.61191" lon="1.14126">
        <ele>180</ele>
        <time>2020-10-03T10:05:10.000Z</time>
      </trkpt>
      <trkpt lat="43.61192" lon="1.14122">
        <ele>180</ele>
        <time>2020-10-03T10:05:11.000Z</time>
      </trkpt>
      <trkpt lat="43.61194" lon="1.14119">
        <ele>180</ele>
        <time>2020-10-03T10:05:12.000Z</time>
      </trkpt>
      <trkpt lat="43.61196" lon="1.14115">
        <ele>179.56383022182</ele>
        <time>2020-10-03T10:05:13.000Z</time>
      </trkpt>
      <trkpt lat="43.61197" lon="1.14112">
        <ele>179</ele>
        <time>2020-10-03T10:05:14.000Z</time>
      </trkpt>
      <trkpt lat="43.61199" lon="1.14108">
        <ele>179.34444555061</ele>
        <time>2020-10-03T10:05:15.000Z</time>
      </trkpt>
      <trkpt lat="43.612" lon="1.14104">
        <ele>180</ele>
        <time>2020-10-03T10:05:16.000Z</time>
      </trkpt>
      <trkpt lat="43.61202" lon="1.141">
        <ele>179.82051506466</ele>
        <time>2020-10-03T10:05:17.000Z</time>
      </trkpt>
      <trkpt lat="43.61204" lon="1.14097">
        <ele>179</ele>
        <time>2020-10-03T10:05:18.000Z</time>
      </trkpt>
      <trkpt lat="43.61206" lon="1.14094">
        <ele>179</ele>
        <time>2020-10-03T10:05:19.000Z</time>
      </trkpt>
      <trkpt lat="43.61209" lon="1.14091">
        <ele>178.57447098233</ele>
        <time>2020-10-03T10:05:20.000Z</time>
      </trkpt>
      <trkpt lat="43.61211" lon="1.14089">
        <ele>178</ele>
        <time>2020-10-03T10:05:21.000Z</time>
      </trkpt>
      <trkpt lat="43.61214" lon="1.14086">
        <ele>177.57281686115</ele>
        <time>2020-10-03T10:05:22.000Z</time>
      </trkpt>
      <trkpt lat="43.61216" lon="1.14083">
        <ele>177</ele>
        <time>2020-10-03T10:05:23.000Z</time>
      </trkpt>
      <trkpt lat="43.61218" lon="1.14079">
        <ele>177</ele>
        <time>2020-10-03T10:05:24.000Z</time>
      </trkpt>
      <trkpt lat="43.61221" lon="1.14076">
        <ele>177</ele>
        <time>2020-10-03T10:05:25.000Z</time>
      </trkpt>
      <trkpt lat="43.61223" lon="1.14073">
        <ele>177</ele>
        <time>2020-10-03T10:05:26.000Z</time>
      </trkpt>
      <trkpt lat="43.61225" lon="1.14069">
        <ele>177</ele>
        <time>2020-10-03T10:05:27.000Z</time>
      </trkpt>
      <trkpt lat="43.61227" lon="1.14066">
        <ele>177</ele>
        <time>2020-10-03T10:05:28.000Z</time>
      </trkpt>
      <trkpt lat="43.61229" lon="1.14062">
        <ele>177</ele>
        <time>2020-10-03T10:05:29.000Z</time>
      </trkpt>
      <trkpt lat="43.6123" lon="1.14058">
        <ele>177</ele>
        <time>2020-10-03T10:05:30.000Z</time>
      </trkpt>
      <trkpt lat="43.61232" lon="1.14055">
        <ele>177</ele>
        <time>2020-10-03T10:05:31.000Z</time>
      </trkpt>
      <trkpt lat="43.61233" lon="1.14051">
        <ele>177</ele>
        <time>2020-10-03T10:05:32.000Z</time>
      </trkpt>
      <trkpt lat="43.61233" lon="1.14047">
        <ele>177</ele>
        <time>2020-10-03T10:05:33.000Z</time>
      </trkpt>
      <trkpt lat="43.61234" lon="1.14043">
        <ele>177</ele>
        <time>2020-10-03T10:05:34.000Z</time>
      </trkpt>
      <trkpt lat="43.61235" lon="1.1404">
        <ele>177</ele>
        <time>2020-10-03T10:05:35.000Z</time>
      </trkpt>
      <trkpt lat="43.61236" lon="1.14036">
        <ele>177</ele>
        <time>2020-10-03T10:05:36.000Z</time>
      </trkpt>
      <trkpt lat="43.61237" lon="1.14032">
        <ele>177</ele>
        <time>2020-10-03T10:05:37.000Z</time>
      </trkpt>
      <trkpt lat="43.61238" lon="1.14028">
        <ele>176.55435130435</ele>
        <time>2020-10-03T10:05:38.000Z</time>
      </trkpt>
      <trkpt lat="43.61238" lon="1.14024">
        <ele>176</ele>
        <time>2020-10-03T10:05:39.000Z</time>
      </trkpt>
      <trkpt lat="43.61239" lon="1.1402">
        <ele>176</ele>
        <time>2020-10-03T10:05:40.000Z</time>
      </trkpt>
      <trkpt lat="43.6124" lon="1.14016">
        <ele>176</ele>
        <time>2020-10-03T10:05:41.000Z</time>
      </trkpt>
      <trkpt lat="43.6124" lon="1.14011">
        <ele>176</ele>
        <time>2020-10-03T10:05:42.000Z</time>
      </trkpt>
      <trkpt lat="43.61241" lon="1.14007">
        <ele>176</ele>
        <time>2020-10-03T10:05:43.000Z</time>
      </trkpt>
      <trkpt lat="43.61242" lon="1.14003">
        <ele>176.44247346541</ele>
        <time>2020-10-03T10:05:44.000Z</time>
      </trkpt>
      <trkpt lat="43.61243" lon="1.13998">
        <ele>177</ele>
        <time>2020-10-03T10:05:45.000Z</time>
      </trkpt>
      <trkpt lat="43.61244" lon="1.13994">
        <ele>177</ele>
        <time>2020-10-03T10:05:46.000Z</time>
      </trkpt>
      <trkpt lat="43.61245" lon="1.1399">
        <ele>177</ele>
        <time>2020-10-03T10:05:47.000Z</time>
      </trkpt>
      <trkpt lat="43.61246" lon="1.13985">
        <ele>177</ele>
        <time>2020-10-03T10:05:48.000Z</time>
      </trkpt>
      <trkpt lat="43.61247" lon="1.13981">
        <ele>177</ele>
        <time>2020-10-03T10:05:49.000Z</time>
      </trkpt>
      <trkpt lat="43.61248" lon="1.13978">
        <ele>177</ele>
        <time>2020-10-03T10:05:50.000Z</time>
      </trkpt>
      <trkpt lat="43.61249" lon="1.13973">
        <ele>177</ele>
        <time>2020-10-03T10:05:51.000Z</time>
      </trkpt>
      <trkpt lat="43.61251" lon="1.13969">
        <ele>177.37272653223</ele>
        <time>2020-10-03T10:05:52.000Z</time>
      </trkpt>
      <trkpt lat="43.61252" lon="1.13966">
        <ele>178</ele>
        <time>2020-10-03T10:05:53.000Z</time>
      </trkpt>
      <trkpt lat="43.61253" lon="1.13961">
        <ele>178</ele>
        <time>2020-10-03T10:05:54.000Z</time>
      </trkpt>
      <trkpt lat="43.61254" lon="1.13957">
        <ele>178</ele>
        <time>2020-10-03T10:05:55.000Z</time>
      </trkpt>
      <trkpt lat="43.61255" lon="1.13953">
        <ele>178</ele>
        <time>2020-10-03T10:05:56.000Z</time>
      </trkpt>
      <trkpt lat="43.61256" lon="1.1395">
        <ele>178.41584396822</ele>
        <time>2020-10-03T10:05:57.000Z</time>
      </trkpt>
      <trkpt lat="43.61257" lon="1.13946">
        <ele>179</ele>
        <time>2020-10-03T10:05:58.000Z</time>
      </trkpt>
      <trkpt lat="43.61258" lon="1.13943">
        <ele>179.34408720546</ele>
        <time>2020-10-03T10:05:59.000Z</time>
      </trkpt>
      <trkpt lat="43.61259" lon="1.13939">
        <ele>180</ele>
        <time>2020-10-03T10:06:00.000Z</time>
      </trkpt>
      <trkpt lat="43.6126" lon="1.13936">
        <ele>180.33332842914</ele>
        <time>2020-10-03T10:06:01.000Z</time>
      </trkpt>
      <trkpt lat="43.61261" lon="1.13932">
        <ele>181</ele>
        <time>2020-10-03T10:06:02.000Z</time>
      </trkpt>
      <trkpt lat="43.61261" lon="1.13929">
        <ele>181</ele>
        <time>2020-10-03T10:06:03.000Z</time>
      </trkpt>
      <trkpt lat="43.61263" lon="1.13925">
        <ele>181</ele>
        <time>2020-10-03T10:06:04.000Z</time>
      </trkpt>
      <trkpt lat="43.61264" lon="1.13922">
        <ele>181</ele>
        <time>2020-10-03T10:06:05.000Z</time>
      </trkpt>
      <trkpt lat="43.61265" lon="1.13919">
        <ele>181</ele>
        <time>2020-10-03T10:06:06.000Z</time>
      </trkpt>
      <trkpt lat="43.61266" lon="1.13916">
        <ele>181</ele>
        <time>2020-10-03T10:06:07.000Z</time>
      </trkpt>
      <trkpt lat="43.61267" lon="1.13912">
        <ele>181</ele>
        <time>2020-10-03T10:06:08.000Z</time>
      </trkpt>
      <trkpt lat="43.61268" lon="1.13909">
        <ele>181</ele>
        <time>2020-10-03T10:06:09.000Z</time>
      </trkpt>
      <trkpt lat="43.61269" lon="1.13906">
        <ele>181</ele>
        <time>2020-10-03T10:06:10.000Z</time>
      </trkpt>
      <trkpt lat="43.6127" lon="1.13903">
        <ele>181</ele>
        <time>2020-10-03T10:06:11.000Z</time>
      </trkpt>
      <trkpt lat="43.61271" lon="1.13899">
        <ele>181</ele>
        <time>2020-10-03T10:06:12.000Z</time>
      </trkpt>
      <trkpt lat="43.61273" lon="1.13896">
        <ele>181.90909725616</ele>
        <time>2020-10-03T10:06:13.000Z</time>
      </trkpt>
      <trkpt lat="43.61274" lon="1.13893">
        <ele>183</ele>
        <time>2020-10-03T10:06:14.000Z</time>
      </trkpt>
      <trkpt lat="43.61275" lon="1.1389">
        <ele>183</ele>
        <time>2020-10-03T10:06:15.000Z</time>
      </trkpt>
      <trkpt lat="43.61276" lon="1.13886">
        <ele>183</ele>
        <time>2020-10-03T10:06:16.000Z</time>
      </trkpt>
      <trkpt lat="43.61277" lon="1.13883">
        <ele>183</ele>
        <time>2020-10-03T10:06:17.000Z</time>
      </trkpt>
      <trkpt lat="43.61278" lon="1.1388">
        <ele>183.44444760496</ele>
        <time>2020-10-03T10:06:18.000Z</time>
      </trkpt>
      <trkpt lat="43.61279" lon="1.13877">
        <ele>184</ele>
        <time>2020-10-03T10:06:19.000Z</time>
      </trkpt>
      <trkpt lat="43.6128" lon="1.13874">
        <ele>184.44444760496</ele>
        <time>2020-10-03T10:06:20.000Z</time>
      </trkpt>
      <trkpt lat="43.61281" lon="1.13871">
        <ele>185</ele>
        <time>2020-10-03T10:06:21.000Z</time>
      </trkpt>
      <trkpt lat="43.61282" lon="1.13868">
        <ele>185</ele>
        <time>2020-10-03T10:06:22.000Z</time>
      </trkpt>
      <trkpt lat="43.61283" lon="1.13865">
        <ele>185</ele>
        <time>2020-10-03T10:06:23.000Z</time>
      </trkpt>
      <trkpt lat="43.61284" lon="1.13862">
        <ele>185</ele>
        <time>2020-10-03T10:06:24.000Z</time>
      </trkpt>
      <trkpt lat="43.61284" lon="1.13859">
        <ele>185</ele>
        <time>2020-10-03T10:06:25.000Z</time>
      </trkpt>
      <trkpt lat="43.61283" lon="1.13856">
        <ele>185.18919620155</ele>
        <time>2020-10-03T10:06:26.000Z</time>
      </trkpt>
      <trkpt lat="43.61281" lon="1.13855">
        <ele>186</ele>
        <time>2020-10-03T10:06:27.000Z</time>
      </trkpt>
      <trkpt lat="43.61278" lon="1.13853">
        <ele>186</ele>
        <time>2020-10-03T10:06:28.000Z</time>
      </trkpt>
      <trkpt lat="43.61276" lon="1.13852">
        <ele>186.28889394564</ele>
        <time>2020-10-03T10:06:29.000Z</time>
      </trkpt>
      <trkpt lat="43.61273" lon="1.13851">
        <ele>187</ele>
        <time>2020-10-03T10:06:30.000Z</time>
      </trkpt>
      <trkpt lat="43.6127" lon="1.1385">
        <ele>187</ele>
        <time>2020-10-03T10:06:31.000Z</time>
      </trkpt>
      <trkpt lat="43.61267" lon="1.13849">
        <ele>187</ele>
        <time>2020-10-03T10:06:32.000Z</time>
      </trkpt>
      <trkpt lat="43.61265" lon="1.13848">
        <ele>187</ele>
        <time>2020-10-03T10:06:33.000Z</time>
      </trkpt>
      <trkpt lat="43.61262" lon="1.13847">
        <ele>187</ele>
        <time>2020-10-03T10:06:34.000Z</time>
      </trkpt>
      <trkpt lat="43.6126" lon="1.13846">
        <ele>187.41757978985</ele>
        <time>2020-10-03T10:06:35.000Z</time>
      </trkpt>
      <trkpt lat="43.61257" lon="1.13845">
        <ele>188</ele>
        <time>2020-10-03T10:06:36.000Z</time>
      </trkpt>
      <trkpt lat="43.61255" lon="1.13843">
        <ele>188</ele>
        <time>2020-10-03T10:06:37.000Z</time>
      </trkpt>
      <trkpt lat="43.61252" lon="1.13842">
        <ele>187.65516632583</ele>
        <time>2020-10-03T10:06:38.000Z</time>
      </trkpt>
      <trkpt lat="43.6125" lon="1.13839">
        <ele>187</ele>
        <time>2020-10-03T10:06:39.000Z</time>
      </trkpt>
      <trkpt lat="43.61249" lon="1.13837">
        <ele>187</ele>
        <time>2020-10-03T10:06:40.000Z</time>
      </trkpt>
      <trkpt lat="43.61248" lon="1.13833">
        <ele>187</ele>
        <time>2020-10-03T10:06:41.000Z</time>
      </trkpt>
      <trkpt lat="43.61248" lon="1.1383">
        <ele>187</ele>
        <time>2020-10-03T10:06:42.000Z</time>
      </trkpt>
      <trkpt lat="43.61248" lon="1.13826">
        <ele>187</ele>
        <time>2020-10-03T10:06:43.000Z</time>
      </trkpt>
      <trkpt lat="43.61248" lon="1.13823">
        <ele>187</ele>
        <time>2020-10-03T10:06:44.000Z</time>
      </trkpt>
      <trkpt lat="43.61248" lon="1.13819">
        <ele>187</ele>
        <time>2020-10-03T10:06:45.000Z</time>
      </trkpt>
      <trkpt lat="43.61248" lon="1.13816">
        <ele>187</ele>
        <time>2020-10-03T10:06:46.000Z</time>
      </trkpt>
      <trkpt lat="43.61249" lon="1.13812">
        <ele>187</ele>
        <time>2020-10-03T10:06:47.000Z</time>
      </trkpt>
      <trkpt lat="43.61249" lon="1.13809">
        <ele>187.43859333947</ele>
        <time>2020-10-03T10:06:48.000Z</time>
      </trkpt>
      <trkpt lat="43.61249" lon="1.13805">
        <ele>188</ele>
        <time>2020-10-03T10:06:49.000Z</time>
      </trkpt>
      <trkpt lat="43.61249" lon="1.13802">
        <ele>188</ele>
        <time>2020-10-03T10:06:50.000Z</time>
      </trkpt>
      <trkpt lat="43.61249" lon="1.13798">
        <ele>188</ele>
        <time>2020-10-03T10:06:51.000Z</time>
      </trkpt>
      <trkpt lat="43.6125" lon="1.13794">
        <ele>188.29710050829</ele>
        <time>2020-10-03T10:06:52.000Z</time>
      </trkpt>
      <trkpt lat="43.61249" lon="1.13791">
        <ele>189</ele>
        <time>2020-10-03T10:06:53.000Z</time>
      </trkpt>
      <trkpt lat="43.61249" lon="1.13787">
        <ele>189</ele>
        <time>2020-10-03T10:06:54.000Z</time>
      </trkpt>
      <trkpt lat="43.61249" lon="1.13783">
        <ele>189</ele>
        <time>2020-10-03T10:06:55.000Z</time>
      </trkpt>
      <trkpt lat="43.61249" lon="1.1378">
        <ele>189</ele>
        <time>2020-10-03T10:06:56.000Z</time>
      </trkpt>
      <trkpt lat="43.61248" lon="1.13776">
        <ele>189</ele>
        <time>2020-10-03T10:06:57.000Z</time>
      </trkpt>
      <trkpt lat="43.61248" lon="1.13773">
        <ele>189</ele>
        <time>2020-10-03T10:06:58.000Z</time>
      </trkpt>
      <trkpt lat="43.61247" lon="1.13769">
        <ele>189</ele>
        <time>2020-10-03T10:06:59.000Z</time>
      </trkpt>
      <trkpt lat="43.61247" lon="1.13766">
        <ele>189</ele>
        <time>2020-10-03T10:07:00.000Z</time>
      </trkpt>
      <trkpt lat="43.61247" lon="1.13762">
        <ele>189</ele>
        <time>2020-10-03T10:07:01.000Z</time>
      </trkpt>
      <trkpt lat="43.61246" lon="1.13759">
        <ele>189</ele>
        <time>2020-10-03T10:07:02.000Z</time>
      </trkpt>
      <trkpt lat="43.61246" lon="1.13755">
        <ele>189.35513739189</ele>
        <time>2020-10-03T10:07:03.000Z</time>
      </trkpt>
      <trkpt lat="43.61246" lon="1.13752">
        <ele>190</ele>
        <time>2020-10-03T10:07:04.000Z</time>
      </trkpt>
      <trkpt lat="43.61245" lon="1.13748">
        <ele>190</ele>
        <time>2020-10-03T10:07:05.000Z</time>
      </trkpt>
      <trkpt lat="43.61245" lon="1.13745">
        <ele>190</ele>
        <time>2020-10-03T10:07:06.000Z</time>
      </trkpt>
      <trkpt lat="43.61244" lon="1.13741">
        <ele>190</ele>
        <time>2020-10-03T10:07:07.000Z</time>
      </trkpt>
      <trkpt lat="43.61244" lon="1.13737">
        <ele>190.85714285714</ele>
        <time>2020-10-03T10:07:08.000Z</time>
      </trkpt>
      <trkpt lat="43.61243" lon="1.13734">
        <ele>192</ele>
        <time>2020-10-03T10:07:09.000Z</time>
      </trkpt>
      <trkpt lat="43.61243" lon="1.1373">
        <ele>192</ele>
        <time>2020-10-03T10:07:10.000Z</time>
      </trkpt>
      <trkpt lat="43.61243" lon="1.13727">
        <ele>192.30631118901</ele>
        <time>2020-10-03T10:07:11.000Z</time>
      </trkpt>
      <trkpt lat="43.61242" lon="1.13723">
        <ele>193</ele>
        <time>2020-10-03T10:07:12.000Z</time>
      </trkpt>
      <trkpt lat="43.61242" lon="1.1372">
        <ele>193</ele>
        <time>2020-10-03T10:07:13.000Z</time>
      </trkpt>
      <trkpt lat="43.61242" lon="1.13716">
        <ele>193</ele>
        <time>2020-10-03T10:07:14.000Z</time>
      </trkpt>
      <trkpt lat="43.61241" lon="1.13713">
        <ele>193</ele>
        <time>2020-10-03T10:07:15.000Z</time>
      </trkpt>
      <trkpt lat="43.61241" lon="1.13709">
        <ele>193</ele>
        <time>2020-10-03T10:07:16.000Z</time>
      </trkpt>
      <trkpt lat="43.6124" lon="1.13705">
        <ele>193</ele>
        <time>2020-10-03T10:07:17.000Z</time>
      </trkpt>
      <trkpt lat="43.6124" lon="1.13702">
        <ele>193</ele>
        <time>2020-10-03T10:07:18.000Z</time>
      </trkpt>
      <trkpt lat="43.61239" lon="1.13699">
        <ele>193</ele>
        <time>2020-10-03T10:07:19.000Z</time>
      </trkpt>
      <trkpt lat="43.61238" lon="1.13696">
        <ele>193</ele>
        <time>2020-10-03T10:07:20.000Z</time>
      </trkpt>
      <trkpt lat="43.61238" lon="1.13693">
        <ele>193</ele>
        <time>2020-10-03T10:07:21.000Z</time>
      </trkpt>
      <trkpt lat="43.61237" lon="1.13689">
        <ele>193</ele>
        <time>2020-10-03T10:07:22.000Z</time>
      </trkpt>
      <trkpt lat="43.61237" lon="1.13686">
        <ele>193.33333698007</ele>
        <time>2020-10-03T10:07:23.000Z</time>
      </trkpt>
      <trkpt lat="43.61236" lon="1.13683">
        <ele>194</ele>
        <time>2020-10-03T10:07:24.000Z</time>
      </trkpt>
      <trkpt lat="43.61236" lon="1.1368">
        <ele>194</ele>
        <time>2020-10-03T10:07:25.000Z</time>
      </trkpt>
      <trkpt lat="43.61235" lon="1.13677">
        <ele>194</ele>
        <time>2020-10-03T10:07:26.000Z</time>
      </trkpt>
      <trkpt lat="43.61235" lon="1.13674">
        <ele>194.36046615467</ele>
        <time>2020-10-03T10:07:27.000Z</time>
      </trkpt>
      <trkpt lat="43.61234" lon="1.13671">
        <ele>195</ele>
        <time>2020-10-03T10:07:28.000Z</time>
      </trkpt>
      <trkpt lat="43.61233" lon="1.13669">
        <ele>195</ele>
        <time>2020-10-03T10:07:29.000Z</time>
      </trkpt>
      <trkpt lat="43.61233" lon="1.13666">
        <ele>195.35714155101</ele>
        <time>2020-10-03T10:07:30.000Z</time>
      </trkpt>
      <trkpt lat="43.61232" lon="1.13663">
        <ele>196</ele>
        <time>2020-10-03T10:07:31.000Z</time>
      </trkpt>
      <trkpt lat="43.61232" lon="1.1366">
        <ele>196</ele>
        <time>2020-10-03T10:07:32.000Z</time>
      </trkpt>
      <trkpt lat="43.61231" lon="1.13657">
        <ele>196.42528211391</ele>
        <time>2020-10-03T10:07:33.000Z</time>
      </trkpt>
      <trkpt lat="43.6123" lon="1.13654">
        <ele>197</ele>
        <time>2020-10-03T10:07:34.000Z</time>
      </trkpt>
      <trkpt lat="43.61229" lon="1.13651">
        <ele>197</ele>
        <time>2020-10-03T10:07:35.000Z</time>
      </trkpt>
      <trkpt lat="43.61229" lon="1.13648">
        <ele>197.83721553277</ele>
        <time>2020-10-03T10:07:36.000Z</time>
      </trkpt>
      <trkpt lat="43.61228" lon="1.13645">
        <ele>199</ele>
        <time>2020-10-03T10:07:37.000Z</time>
      </trkpt>
      <trkpt lat="43.61228" lon="1.13642">
        <ele>199</ele>
        <time>2020-10-03T10:07:38.000Z</time>
      </trkpt>
      <trkpt lat="43.61227" lon="1.1364">
        <ele>199</ele>
        <time>2020-10-03T10:07:39.000Z</time>
      </trkpt>
      <trkpt lat="43.61227" lon="1.13637">
        <ele>199</ele>
        <time>2020-10-03T10:07:40.000Z</time>
      </trkpt>
      <trkpt lat="43.61226" lon="1.13634">
        <ele>199</ele>
        <time>2020-10-03T10:07:41.000Z</time>
      </trkpt>
      <trkpt lat="43.61225" lon="1.13631">
        <ele>199</ele>
        <time>2020-10-03T10:07:42.000Z</time>
      </trkpt>
      <trkpt lat="43.61224" lon="1.13626">
        <ele>199.40697743645</ele>
        <time>2020-10-03T10:07:44.000Z</time>
      </trkpt>
      <trkpt lat="43.61223" lon="1.13624">
        <ele>200</ele>
        <time>2020-10-03T10:07:45.000Z</time>
      </trkpt>
      <trkpt lat="43.61222" lon="1.13621">
        <ele>200</ele>
        <time>2020-10-03T10:07:46.000Z</time>
      </trkpt>
      <trkpt lat="43.61221" lon="1.13619">
        <ele>200.16176941176</ele>
        <time>2020-10-03T10:07:47.000Z</time>
      </trkpt>
      <trkpt lat="43.6122" lon="1.13616">
        <ele>201</ele>
        <time>2020-10-03T10:07:48.000Z</time>
      </trkpt>
      <trkpt lat="43.61219" lon="1.13614">
        <ele>201</ele>
        <time>2020-10-03T10:07:49.000Z</time>
      </trkpt>
      <trkpt lat="43.61218" lon="1.13612">
        <ele>201.0129829111</ele>
        <time>2020-10-03T10:07:50.000Z</time>
      </trkpt>
      <trkpt lat="43.61217" lon="1.13609">
        <ele>202</ele>
        <time>2020-10-03T10:07:51.000Z</time>
      </trkpt>
      <trkpt lat="43.61216" lon="1.13607">
        <ele>202</ele>
        <time>2020-10-03T10:07:52.000Z</time>
      </trkpt>
      <trkpt lat="43.61214" lon="1.13604">
        <ele>202.85470478191</ele>
        <time>2020-10-03T10:07:53.000Z</time>
      </trkpt>
      <trkpt lat="43.61213" lon="1.13602">
        <ele>204</ele>
        <time>2020-10-03T10:07:54.000Z</time>
      </trkpt>
      <trkpt lat="43.61212" lon="1.136">
        <ele>204</ele>
        <time>2020-10-03T10:07:55.000Z</time>
      </trkpt>
      <trkpt lat="43.6121" lon="1.13598">
        <ele>204</ele>
        <time>2020-10-03T10:07:56.000Z</time>
      </trkpt>
      <trkpt lat="43.61209" lon="1.13595">
        <ele>204.36471102009</ele>
        <time>2020-10-03T10:07:57.000Z</time>
      </trkpt>
      <trkpt lat="43.61208" lon="1.13593">
        <ele>205</ele>
        <time>2020-10-03T10:07:58.000Z</time>
      </trkpt>
      <trkpt lat="43.61207" lon="1.1359">
        <ele>205</ele>
        <time>2020-10-03T10:07:59.000Z</time>
      </trkpt>
      <trkpt lat="43.61206" lon="1.13588">
        <ele>205.345680378</ele>
        <time>2020-10-03T10:08:00.000Z</time>
      </trkpt>
      <trkpt lat="43.61204" lon="1.13585">
        <ele>206</ele>
        <time>2020-10-03T10:08:01.000Z</time>
      </trkpt>
      <trkpt lat="43.61203" lon="1.13583">
        <ele>206</ele>
        <time>2020-10-03T10:08:02.000Z</time>
      </trkpt>
      <trkpt lat="43.61202" lon="1.1358">
        <ele>206</ele>
        <time>2020-10-03T10:08:03.000Z</time>
      </trkpt>
      <trkpt lat="43.61201" lon="1.13577">
        <ele>206</ele>
        <time>2020-10-03T10:08:04.000Z</time>
      </trkpt>
      <trkpt lat="43.612" lon="1.13575">
        <ele>206.36046615467</ele>
        <time>2020-10-03T10:08:05.000Z</time>
      </trkpt>
      <trkpt lat="43.61199" lon="1.13573">
        <ele>207</ele>
        <time>2020-10-03T10:08:06.000Z</time>
      </trkpt>
      <trkpt lat="43.61198" lon="1.1357">
        <ele>207</ele>
        <time>2020-10-03T10:08:07.000Z</time>
      </trkpt>
      <trkpt lat="43.61197" lon="1.13568">
        <ele>207.71428310202</ele>
        <time>2020-10-03T10:08:08.000Z</time>
      </trkpt>
      <trkpt lat="43.61197" lon="1.13565">
        <ele>209</ele>
        <time>2020-10-03T10:08:09.000Z</time>
      </trkpt>
      <trkpt lat="43.61196" lon="1.13562">
        <ele>209</ele>
        <time>2020-10-03T10:08:10.000Z</time>
      </trkpt>
      <trkpt lat="43.61195" lon="1.1356">
        <ele>209</ele>
        <time>2020-10-03T10:08:11.000Z</time>
      </trkpt>
      <trkpt lat="43.61195" lon="1.13557">
        <ele>209</ele>
        <time>2020-10-03T10:08:12.000Z</time>
      </trkpt>
      <trkpt lat="43.61194" lon="1.13553">
        <ele>209</ele>
        <time>2020-10-03T10:08:13.000Z</time>
      </trkpt>
      <trkpt lat="43.61193" lon="1.1355">
        <ele>209.73394710884</ele>
        <time>2020-10-03T10:08:14.000Z</time>
      </trkpt>
      <trkpt lat="43.61192" lon="1.13547">
        <ele>211</ele>
        <time>2020-10-03T10:08:15.000Z</time>
      </trkpt>
      <trkpt lat="43.61191" lon="1.13544">
        <ele>211</ele>
        <time>2020-10-03T10:08:16.000Z</time>
      </trkpt>
      <trkpt lat="43.61191" lon="1.13541">
        <ele>211</ele>
        <time>2020-10-03T10:08:17.000Z</time>
      </trkpt>
      <trkpt lat="43.6119" lon="1.13538">
        <ele>211</ele>
        <time>2020-10-03T10:08:18.000Z</time>
      </trkpt>
      <trkpt lat="43.61189" lon="1.13534">
        <ele>211</ele>
        <time>2020-10-03T10:08:19.000Z</time>
      </trkpt>
      <trkpt lat="43.61189" lon="1.13531">
        <ele>210.60439699553</ele>
        <time>2020-10-03T10:08:20.000Z</time>
      </trkpt>
      <trkpt lat="43.61188" lon="1.13528">
        <ele>210</ele>
        <time>2020-10-03T10:08:21.000Z</time>
      </trkpt>
      <trkpt lat="43.61188" lon="1.13525">
        <ele>210</ele>
        <time>2020-10-03T10:08:22.000Z</time>
      </trkpt>
      <trkpt lat="43.61188" lon="1.13523">
        <ele>210.4424797807</ele>
        <time>2020-10-03T10:08:23.000Z</time>
      </trkpt>
      <trkpt lat="43.61187" lon="1.1352">
        <ele>211</ele>
        <time>2020-10-03T10:08:24.000Z</time>
      </trkpt>
      <trkpt lat="43.61187" lon="1.13517">
        <ele>211</ele>
        <time>2020-10-03T10:08:25.000Z</time>
      </trkpt>
      <trkpt lat="43.61186" lon="1.13514">
        <ele>211</ele>
        <time>2020-10-03T10:08:26.000Z</time>
      </trkpt>
      <trkpt lat="43.61186" lon="1.13511">
        <ele>211</ele>
        <time>2020-10-03T10:08:27.000Z</time>
      </trkpt>
      <trkpt lat="43.61185" lon="1.13507">
        <ele>211.24176442456</ele>
        <time>2020-10-03T10:08:28.000Z</time>
      </trkpt>
      <trkpt lat="43.61185" lon="1.13504">
        <ele>212</ele>
        <time>2020-10-03T10:08:29.000Z</time>
      </trkpt>
      <trkpt lat="43.61185" lon="1.13501">
        <ele>212</ele>
        <time>2020-10-03T10:08:30.000Z</time>
      </trkpt>
      <trkpt lat="43.61184" lon="1.13497">
        <ele>212</ele>
        <time>2020-10-03T10:08:31.000Z</time>
      </trkpt>
      <trkpt lat="43.61184" lon="1.13494">
        <ele>212</ele>
        <time>2020-10-03T10:08:32.000Z</time>
      </trkpt>
      <trkpt lat="43.61184" lon="1.13492">
        <ele>212</ele>
        <time>2020-10-03T10:08:33.000Z</time>
      </trkpt>
      <trkpt lat="43.61183" lon="1.13489">
        <ele>213</ele>
        <time>2020-10-03T10:08:34.000Z</time>
      </trkpt>
      <trkpt lat="43.61183" lon="1.13486">
        <ele>213</ele>
        <time>2020-10-03T10:08:35.000Z</time>
      </trkpt>
      <trkpt lat="43.61183" lon="1.13483">
        <ele>213</ele>
        <time>2020-10-03T10:08:36.000Z</time>
      </trkpt>
      <trkpt lat="43.61182" lon="1.1348">
        <ele>213</ele>
        <time>2020-10-03T10:08:37.000Z</time>
      </trkpt>
      <trkpt lat="43.61182" lon="1.13477">
        <ele>213</ele>
        <time>2020-10-03T10:08:38.000Z</time>
      </trkpt>
      <trkpt lat="43.61181" lon="1.13474">
        <ele>213</ele>
        <time>2020-10-03T10:08:39.000Z</time>
      </trkpt>
      <trkpt lat="43.61181" lon="1.13471">
        <ele>213.37878670339</ele>
        <time>2020-10-03T10:08:40.000Z</time>
      </trkpt>
      <trkpt lat="43.6118" lon="1.13468">
        <ele>214</ele>
        <time>2020-10-03T10:08:41.000Z</time>
      </trkpt>
      <trkpt lat="43.6118" lon="1.13465">
        <ele>214</ele>
        <time>2020-10-03T10:08:42.000Z</time>
      </trkpt>
      <trkpt lat="43.6118" lon="1.13461">
        <ele>214</ele>
        <time>2020-10-03T10:08:43.000Z</time>
      </trkpt>
      <trkpt lat="43.61179" lon="1.13458">
        <ele>214</ele>
        <time>2020-10-03T10:08:44.000Z</time>
      </trkpt>
      <trkpt lat="43.61178" lon="1.13453">
        <ele>214.46601796965</ele>
        <time>2020-10-03T10:08:45.000Z</time>
      </trkpt>
      <trkpt lat="43.61178" lon="1.1345">
        <ele>215</ele>
        <time>2020-10-03T10:08:46.000Z</time>
      </trkpt>
      <trkpt lat="43.61177" lon="1.13446">
        <ele>215.27847629541</ele>
        <time>2020-10-03T10:08:47.000Z</time>
      </trkpt>
      <trkpt lat="43.61177" lon="1.13443">
        <ele>216</ele>
        <time>2020-10-03T10:08:48.000Z</time>
      </trkpt>
      <trkpt lat="43.61176" lon="1.1344">
        <ele>216</ele>
        <time>2020-10-03T10:08:49.000Z</time>
      </trkpt>
      <trkpt lat="43.61176" lon="1.13436">
        <ele>215.54955141954</ele>
        <time>2020-10-03T10:08:50.000Z</time>
      </trkpt>
      <trkpt lat="43.61176" lon="1.13432">
        <ele>215.42857343798</ele>
        <time>2020-10-03T10:08:51.000Z</time>
      </trkpt>
      <trkpt lat="43.61176" lon="1.13428">
        <ele>216</ele>
        <time>2020-10-03T10:08:52.000Z</time>
      </trkpt>
      <trkpt lat="43.61175" lon="1.13424">
        <ele>216</ele>
        <time>2020-10-03T10:08:53.000Z</time>
      </trkpt>
      <trkpt lat="43.61175" lon="1.13421">
        <ele>216</ele>
        <time>2020-10-03T10:08:54.000Z</time>
      </trkpt>
      <trkpt lat="43.61174" lon="1.13417">
        <ele>216</ele>
        <time>2020-10-03T10:08:55.000Z</time>
      </trkpt>
      <trkpt lat="43.61174" lon="1.13414">
        <ele>216</ele>
        <time>2020-10-03T10:08:56.000Z</time>
      </trkpt>
      <trkpt lat="43.61174" lon="1.1341">
        <ele>216</ele>
        <time>2020-10-03T10:08:57.000Z</time>
      </trkpt>
      <trkpt lat="43.61173" lon="1.13407">
        <ele>216</ele>
        <time>2020-10-03T10:08:58.000Z</time>
      </trkpt>
      <trkpt lat="43.61173" lon="1.13403">
        <ele>216</ele>
        <time>2020-10-03T10:08:59.000Z</time>
      </trkpt>
      <trkpt lat="43.61172" lon="1.134">
        <ele>216</ele>
        <time>2020-10-03T10:09:00.000Z</time>
      </trkpt>
      <trkpt lat="43.61172" lon="1.13397">
        <ele>216.41860153599</ele>
        <time>2020-10-03T10:09:01.000Z</time>
      </trkpt>
      <trkpt lat="43.61171" lon="1.13394">
        <ele>217</ele>
        <time>2020-10-03T10:09:02.000Z</time>
      </trkpt>
      <trkpt lat="43.61171" lon="1.13391">
        <ele>217.43820111603</ele>
        <time>2020-10-03T10:09:03.000Z</time>
      </trkpt>
      <trkpt lat="43.6117" lon="1.13387">
        <ele>218</ele>
        <time>2020-10-03T10:09:04.000Z</time>
      </trkpt>
      <trkpt lat="43.6117" lon="1.13384">
        <ele>218.35766273323</ele>
        <time>2020-10-03T10:09:05.000Z</time>
      </trkpt>
      <trkpt lat="43.6117" lon="1.13381">
        <ele>219</ele>
        <time>2020-10-03T10:09:06.000Z</time>
      </trkpt>
      <trkpt lat="43.61169" lon="1.13378">
        <ele>219</ele>
        <time>2020-10-03T10:09:07.000Z</time>
      </trkpt>
      <trkpt lat="43.61169" lon="1.13375">
        <ele>219</ele>
        <time>2020-10-03T10:09:08.000Z</time>
      </trkpt>
      <trkpt lat="43.61168" lon="1.13372">
        <ele>219</ele>
        <time>2020-10-03T10:09:09.000Z</time>
      </trkpt>
      <trkpt lat="43.61166" lon="1.13369">
        <ele>219.74545306445</ele>
        <time>2020-10-03T10:09:10.000Z</time>
      </trkpt>
      <trkpt lat="43.61165" lon="1.13366">
        <ele>221</ele>
        <time>2020-10-03T10:09:11.000Z</time>
      </trkpt>
      <trkpt lat="43.61163" lon="1.13364">
        <ele>221</ele>
        <time>2020-10-03T10:09:12.000Z</time>
      </trkpt>
      <trkpt lat="43.61161" lon="1.13362">
        <ele>221</ele>
        <time>2020-10-03T10:09:13.000Z</time>
      </trkpt>
      <trkpt lat="43.6116" lon="1.1336">
        <ele>221</ele>
        <time>2020-10-03T10:09:14.000Z</time>
      </trkpt>
      <trkpt lat="43.61158" lon="1.13357">
        <ele>221</ele>
        <time>2020-10-03T10:09:15.000Z</time>
      </trkpt>
      <trkpt lat="43.61156" lon="1.13354">
        <ele>220.55357714286</ele>
        <time>2020-10-03T10:09:16.000Z</time>
      </trkpt>
      <trkpt lat="43.61154" lon="1.13352">
        <ele>220</ele>
        <time>2020-10-03T10:09:17.000Z</time>
      </trkpt>
      <trkpt lat="43.61153" lon="1.1335">
        <ele>220.36905142857</ele>
        <time>2020-10-03T10:09:18.000Z</time>
      </trkpt>
      <trkpt lat="43.61151" lon="1.13348">
        <ele>221</ele>
        <time>2020-10-03T10:09:19.000Z</time>
      </trkpt>
      <trkpt lat="43.6115" lon="1.13346">
        <ele>221</ele>
        <time>2020-10-03T10:09:20.000Z</time>
      </trkpt>
      <trkpt lat="43.61148" lon="1.13344">
        <ele>221.46296340192</ele>
        <time>2020-10-03T10:09:21.000Z</time>
      </trkpt>
      <trkpt lat="43.61146" lon="1.13342">
        <ele>222</ele>
        <time>2020-10-03T10:09:22.000Z</time>
      </trkpt>
      <trkpt lat="43.61145" lon="1.1334">
        <ele>222.44564869565</ele>
        <time>2020-10-03T10:09:23.000Z</time>
      </trkpt>
      <trkpt lat="43.61143" lon="1.13338">
        <ele>223</ele>
        <time>2020-10-03T10:09:24.000Z</time>
      </trkpt>
      <trkpt lat="43.61141" lon="1.13335">
        <ele>223</ele>
        <time>2020-10-03T10:09:25.000Z</time>
      </trkpt>
      <trkpt lat="43.61139" lon="1.13333">
        <ele>223</ele>
        <time>2020-10-03T10:09:26.000Z</time>
      </trkpt>
      <trkpt lat="43.61137" lon="1.13331">
        <ele>223</ele>
        <time>2020-10-03T10:09:27.000Z</time>
      </trkpt>
      <trkpt lat="43.61135" lon="1.1333">
        <ele>223</ele>
        <time>2020-10-03T10:09:28.000Z</time>
      </trkpt>
      <trkpt lat="43.61133" lon="1.13328">
        <ele>223.37272653223</ele>
        <time>2020-10-03T10:09:29.000Z</time>
      </trkpt>
      <trkpt lat="43.61132" lon="1.13326">
        <ele>224</ele>
        <time>2020-10-03T10:09:30.000Z</time>
      </trkpt>
      <trkpt lat="43.6113" lon="1.13324">
        <ele>224</ele>
        <time>2020-10-03T10:09:31.000Z</time>
      </trkpt>
      <trkpt lat="43.61127" lon="1.13322">
        <ele>224.6972533086</ele>
        <time>2020-10-03T10:09:32.000Z</time>
      </trkpt>
      <trkpt lat="43.61125" lon="1.13319">
        <ele>226</ele>
        <time>2020-10-03T10:09:33.000Z</time>
      </trkpt>
      <trkpt lat="43.61123" lon="1.13317">
        <ele>226</ele>
        <time>2020-10-03T10:09:34.000Z</time>
      </trkpt>
      <trkpt lat="43.61121" lon="1.13314">
        <ele>226</ele>
        <time>2020-10-03T10:09:35.000Z</time>
      </trkpt>
      <trkpt lat="43.61119" lon="1.13312">
        <ele>226.35185360766</ele>
        <time>2020-10-03T10:09:36.000Z</time>
      </trkpt>
      <trkpt lat="43.61118" lon="1.1331">
        <ele>227</ele>
        <time>2020-10-03T10:09:37.000Z</time>
      </trkpt>
      <trkpt lat="43.61116" lon="1.13308">
        <ele>227</ele>
        <time>2020-10-03T10:09:38.000Z</time>
      </trkpt>
      <trkpt lat="43.61115" lon="1.13306">
        <ele>227</ele>
        <time>2020-10-03T10:09:39.000Z</time>
      </trkpt>
      <trkpt lat="43.61112" lon="1.13302">
        <ele>227</ele>
        <time>2020-10-03T10:09:41.000Z</time>
      </trkpt>
      <trkpt lat="43.61111" lon="1.133">
        <ele>227</ele>
        <time>2020-10-03T10:09:42.000Z</time>
      </trkpt>
      <trkpt lat="43.6111" lon="1.13298">
        <ele>227.33620965517</ele>
        <time>2020-10-03T10:09:43.000Z</time>
      </trkpt>
      <trkpt lat="43.61109" lon="1.13295">
        <ele>228</ele>
        <time>2020-10-03T10:09:44.000Z</time>
      </trkpt>
      <trkpt lat="43.61108" lon="1.13293">
        <ele>228</ele>
        <time>2020-10-03T10:09:45.000Z</time>
      </trkpt>
      <trkpt lat="43.61107" lon="1.13289">
        <ele>228.33064258064</ele>
        <time>2020-10-03T10:09:46.000Z</time>
      </trkpt>
      <trkpt lat="43.61107" lon="1.13286">
        <ele>229</ele>
        <time>2020-10-03T10:09:47.000Z</time>
      </trkpt>
      <trkpt lat="43.61106" lon="1.13283">
        <ele>229</ele>
        <time>2020-10-03T10:09:48.000Z</time>
      </trkpt>
      <trkpt lat="43.61105" lon="1.13278">
        <ele>229</ele>
        <time>2020-10-03T10:09:50.000Z</time>
      </trkpt>
      <trkpt lat="43.61104" lon="1.13275">
        <ele>229</ele>
        <time>2020-10-03T10:09:51.000Z</time>
      </trkpt>
      <trkpt lat="43.61104" lon="1.13271">
        <ele>229.86365090909</ele>
        <time>2020-10-03T10:09:52.000Z</time>
      </trkpt>
      <trkpt lat="43.61103" lon="1.13267">
        <ele>231</ele>
        <time>2020-10-03T10:09:53.000Z</time>
      </trkpt>
      <trkpt lat="43.61103" lon="1.13264">
        <ele>231</ele>
        <time>2020-10-03T10:09:54.000Z</time>
      </trkpt>
      <trkpt lat="43.61103" lon="1.13261">
        <ele>231</ele>
        <time>2020-10-03T10:09:55.000Z</time>
      </trkpt>
      <trkpt lat="43.61102" lon="1.13257">
        <ele>231</ele>
        <time>2020-10-03T10:09:56.000Z</time>
      </trkpt>
      <trkpt lat="43.61102" lon="1.13254">
        <ele>231</ele>
        <time>2020-10-03T10:09:57.000Z</time>
      </trkpt>
      <trkpt lat="43.61102" lon="1.13251">
        <ele>231</ele>
        <time>2020-10-03T10:09:58.000Z</time>
      </trkpt>
      <trkpt lat="43.61102" lon="1.13246">
        <ele>231</ele>
        <time>2020-10-03T10:10:00.000Z</time>
      </trkpt>
      <trkpt lat="43.61102" lon="1.13243">
        <ele>231.37272653223</ele>
        <time>2020-10-03T10:10:01.000Z</time>
      </trkpt>
      <trkpt lat="43.61102" lon="1.13239">
        <ele>232</ele>
        <time>2020-10-03T10:10:02.000Z</time>
      </trkpt>
      <trkpt lat="43.61102" lon="1.13235">
        <ele>232</ele>
        <time>2020-10-03T10:10:03.000Z</time>
      </trkpt>
      <trkpt lat="43.61102" lon="1.13231">
        <ele>232</ele>
        <time>2020-10-03T10:10:04.000Z</time>
      </trkpt>
      <trkpt lat="43.61102" lon="1.13227">
        <ele>232</ele>
        <time>2020-10-03T10:10:05.000Z</time>
      </trkpt>
      <trkpt lat="43.61102" lon="1.13223">
        <ele>232.37272653223</ele>
        <time>2020-10-03T10:10:06.000Z</time>
      </trkpt>
      <trkpt lat="43.61102" lon="1.13219">
        <ele>233</ele>
        <time>2020-10-03T10:10:07.000Z</time>
      </trkpt>
      <trkpt lat="43.61102" lon="1.13216">
        <ele>233</ele>
        <time>2020-10-03T10:10:08.000Z</time>
      </trkpt>
      <trkpt lat="43.61102" lon="1.13213">
        <ele>233.82758316291</ele>
        <time>2020-10-03T10:10:09.000Z</time>
      </trkpt>
      <trkpt lat="43.61102" lon="1.13209">
        <ele>235</ele>
        <time>2020-10-03T10:10:10.000Z</time>
      </trkpt>
      <trkpt lat="43.61102" lon="1.13206">
        <ele>235</ele>
        <time>2020-10-03T10:10:11.000Z</time>
      </trkpt>
      <trkpt lat="43.61103" lon="1.13203">
        <ele>235</ele>
        <time>2020-10-03T10:10:12.000Z</time>
      </trkpt>
      <trkpt lat="43.61103" lon="1.132">
        <ele>235</ele>
        <time>2020-10-03T10:10:13.000Z</time>
      </trkpt>
      <trkpt lat="43.61103" lon="1.13197">
        <ele>235</ele>
        <time>2020-10-03T10:10:14.000Z</time>
      </trkpt>
      <trkpt lat="43.61103" lon="1.13194">
        <ele>235</ele>
        <time>2020-10-03T10:10:15.000Z</time>
      </trkpt>
      <trkpt lat="43.61103" lon="1.1319">
        <ele>235</ele>
        <time>2020-10-03T10:10:16.000Z</time>
      </trkpt>
      <trkpt lat="43.61103" lon="1.13188">
        <ele>235</ele>
        <time>2020-10-03T10:10:17.000Z</time>
      </trkpt>
      <trkpt lat="43.61103" lon="1.13185">
        <ele>235</ele>
        <time>2020-10-03T10:10:18.000Z</time>
      </trkpt>
      <trkpt lat="43.61104" lon="1.13182">
        <ele>235</ele>
        <time>2020-10-03T10:10:19.000Z</time>
      </trkpt>
      <trkpt lat="43.61104" lon="1.13178">
        <ele>235</ele>
        <time>2020-10-03T10:10:20.000Z</time>
      </trkpt>
      <trkpt lat="43.61104" lon="1.13175">
        <ele>235</ele>
        <time>2020-10-03T10:10:21.000Z</time>
      </trkpt>
      <trkpt lat="43.61104" lon="1.13171">
        <ele>235</ele>
        <time>2020-10-03T10:10:22.000Z</time>
      </trkpt>
      <trkpt lat="43.61104" lon="1.13168">
        <ele>235.67392</ele>
        <time>2020-10-03T10:10:23.000Z</time>
      </trkpt>
      <trkpt lat="43.61104" lon="1.13163">
        <ele>237</ele>
        <time>2020-10-03T10:10:24.000Z</time>
      </trkpt>
      <trkpt lat="43.61105" lon="1.13159">
        <ele>237</ele>
        <time>2020-10-03T10:10:25.000Z</time>
      </trkpt>
      <trkpt lat="43.61105" lon="1.13156">
        <ele>237.81818076032</ele>
        <time>2020-10-03T10:10:26.000Z</time>
      </trkpt>
      <trkpt lat="43.61105" lon="1.13152">
        <ele>239</ele>
        <time>2020-10-03T10:10:27.000Z</time>
      </trkpt>
      <trkpt lat="43.61106" lon="1.13149">
        <ele>239</ele>
        <time>2020-10-03T10:10:28.000Z</time>
      </trkpt>
      <trkpt lat="43.61106" lon="1.13146">
        <ele>239</ele>
        <time>2020-10-03T10:10:29.000Z</time>
      </trkpt>
      <trkpt lat="43.61107" lon="1.13143">
        <ele>239</ele>
        <time>2020-10-03T10:10:30.000Z</time>
      </trkpt>
      <trkpt lat="43.61107" lon="1.13139">
        <ele>239</ele>
        <time>2020-10-03T10:10:31.000Z</time>
      </trkpt>
      <trkpt lat="43.61108" lon="1.13135">
        <ele>239</ele>
        <time>2020-10-03T10:10:32.000Z</time>
      </trkpt>
      <trkpt lat="43.61108" lon="1.13131">
        <ele>239</ele>
        <time>2020-10-03T10:10:33.000Z</time>
      </trkpt>
      <trkpt lat="43.61108" lon="1.13128">
        <ele>239.45370074074</ele>
        <time>2020-10-03T10:10:34.000Z</time>
      </trkpt>
      <trkpt lat="43.61109" lon="1.13125">
        <ele>240</ele>
        <time>2020-10-03T10:10:35.000Z</time>
      </trkpt>
      <trkpt lat="43.61109" lon="1.13122">
        <ele>240</ele>
        <time>2020-10-03T10:10:36.000Z</time>
      </trkpt>
      <trkpt lat="43.6111" lon="1.13119">
        <ele>240</ele>
        <time>2020-10-03T10:10:37.000Z</time>
      </trkpt>
      <trkpt lat="43.6111" lon="1.13116">
        <ele>240</ele>
        <time>2020-10-03T10:10:38.000Z</time>
      </trkpt>
      <trkpt lat="43.61111" lon="1.13113">
        <ele>240</ele>
        <time>2020-10-03T10:10:39.000Z</time>
      </trkpt>
      <trkpt lat="43.61111" lon="1.13109">
        <ele>240</ele>
        <time>2020-10-03T10:10:40.000Z</time>
      </trkpt>
      <trkpt lat="43.61111" lon="1.13105">
        <ele>240</ele>
        <time>2020-10-03T10:10:41.000Z</time>
      </trkpt>
      <trkpt lat="43.61112" lon="1.13102">
        <ele>240</ele>
        <time>2020-10-03T10:10:42.000Z</time>
      </trkpt>
      <trkpt lat="43.61112" lon="1.13098">
        <ele>240</ele>
        <time>2020-10-03T10:10:43.000Z</time>
      </trkpt>
      <trkpt lat="43.61112" lon="1.13095">
        <ele>240.31521391304</ele>
        <time>2020-10-03T10:10:44.000Z</time>
      </trkpt>
      <trkpt lat="43.61112" lon="1.13091">
        <ele>241</ele>
        <time>2020-10-03T10:10:45.000Z</time>
      </trkpt>
      <trkpt lat="43.61112" lon="1.13087">
        <ele>241</ele>
        <time>2020-10-03T10:10:46.000Z</time>
      </trkpt>
      <trkpt lat="43.61112" lon="1.13083">
        <ele>241.36035932149</ele>
        <time>2020-10-03T10:10:47.000Z</time>
      </trkpt>
      <trkpt lat="43.61113" lon="1.1308">
        <ele>242</ele>
        <time>2020-10-03T10:10:48.000Z</time>
      </trkpt>
      <trkpt lat="43.61113" lon="1.13076">
        <ele>242</ele>
        <time>2020-10-03T10:10:49.000Z</time>
      </trkpt>
      <trkpt lat="43.61113" lon="1.13071">
        <ele>242</ele>
        <time>2020-10-03T10:10:50.000Z</time>
      </trkpt>
      <trkpt lat="43.61113" lon="1.13067">
        <ele>242</ele>
        <time>2020-10-03T10:10:51.000Z</time>
      </trkpt>
      <trkpt lat="43.61113" lon="1.13063">
        <ele>242</ele>
        <time>2020-10-03T10:10:52.000Z</time>
      </trkpt>
      <trkpt lat="43.61113" lon="1.13059">
        <ele>241.63964067851</ele>
        <time>2020-10-03T10:10:53.000Z</time>
      </trkpt>
      <trkpt lat="43.61113" lon="1.13055">
        <ele>241</ele>
        <time>2020-10-03T10:10:54.000Z</time>
      </trkpt>
      <trkpt lat="43.61114" lon="1.13051">
        <ele>241</ele>
        <time>2020-10-03T10:10:55.000Z</time>
      </trkpt>
      <trkpt lat="43.61114" lon="1.13047">
        <ele>241.07405124801</ele>
        <time>2020-10-03T10:10:56.000Z</time>
      </trkpt>
      <trkpt lat="43.61114" lon="1.13044">
        <ele>243</ele>
        <time>2020-10-03T10:10:57.000Z</time>
      </trkpt>
      <trkpt lat="43.61114" lon="1.1304">
        <ele>243</ele>
        <time>2020-10-03T10:10:58.000Z</time>
      </trkpt>
      <trkpt lat="43.61115" lon="1.13036">
        <ele>243</ele>
        <time>2020-10-03T10:10:59.000Z</time>
      </trkpt>
      <trkpt lat="43.61115" lon="1.13032">
        <ele>243</ele>
        <time>2020-10-03T10:11:00.000Z</time>
      </trkpt>
      <trkpt lat="43.61115" lon="1.13029">
        <ele>243</ele>
        <time>2020-10-03T10:11:01.000Z</time>
      </trkpt>
      <trkpt lat="43.61116" lon="1.13025">
        <ele>242.60975305173</ele>
        <time>2020-10-03T10:11:02.000Z</time>
      </trkpt>
      <trkpt lat="43.61116" lon="1.1302">
        <ele>242</ele>
        <time>2020-10-03T10:11:03.000Z</time>
      </trkpt>
      <trkpt lat="43.61116" lon="1.13016">
        <ele>242</ele>
        <time>2020-10-03T10:11:04.000Z</time>
      </trkpt>
      <trkpt lat="43.61116" lon="1.13012">
        <ele>242</ele>
        <time>2020-10-03T10:11:05.000Z</time>
      </trkpt>
      <trkpt lat="43.61117" lon="1.13008">
        <ele>242</ele>
        <time>2020-10-03T10:11:06.000Z</time>
      </trkpt>
      <trkpt lat="43.61117" lon="1.13005">
        <ele>242</ele>
        <time>2020-10-03T10:11:07.000Z</time>
      </trkpt>
      <trkpt lat="43.61117" lon="1.13001">
        <ele>242</ele>
        <time>2020-10-03T10:11:08.000Z</time>
      </trkpt>
      <trkpt lat="43.61117" lon="1.12997">
        <ele>241.59803983084</ele>
        <time>2020-10-03T10:11:09.000Z</time>
      </trkpt>
      <trkpt lat="43.61117" lon="1.12993">
        <ele>241</ele>
        <time>2020-10-03T10:11:10.000Z</time>
      </trkpt>
      <trkpt lat="43.61117" lon="1.12988">
        <ele>241</ele>
        <time>2020-10-03T10:11:11.000Z</time>
      </trkpt>
      <trkpt lat="43.61116" lon="1.12984">
        <ele>241</ele>
        <time>2020-10-03T10:11:12.000Z</time>
      </trkpt>
      <trkpt lat="43.61116" lon="1.1298">
        <ele>241</ele>
        <time>2020-10-03T10:11:13.000Z</time>
      </trkpt>
      <trkpt lat="43.61116" lon="1.12976">
        <ele>241</ele>
        <time>2020-10-03T10:11:14.000Z</time>
      </trkpt>
      <trkpt lat="43.61116" lon="1.12973">
        <ele>241</ele>
        <time>2020-10-03T10:11:15.000Z</time>
      </trkpt>
      <trkpt lat="43.61115" lon="1.12969">
        <ele>240.54128892855</ele>
        <time>2020-10-03T10:11:16.000Z</time>
      </trkpt>
      <trkpt lat="43.61114" lon="1.12965">
        <ele>240</ele>
        <time>2020-10-03T10:11:17.000Z</time>
      </trkpt>
      <trkpt lat="43.61114" lon="1.12961">
        <ele>240</ele>
        <time>2020-10-03T10:11:18.000Z</time>
      </trkpt>
      <trkpt lat="43.61113" lon="1.12957">
        <ele>240</ele>
        <time>2020-10-03T10:11:19.000Z</time>
      </trkpt>
      <trkpt lat="43.61113" lon="1.12953">
        <ele>240</ele>
        <time>2020-10-03T10:11:20.000Z</time>
      </trkpt>
      <trkpt lat="43.61112" lon="1.12949">
        <ele>240</ele>
        <time>2020-10-03T10:11:21.000Z</time>
      </trkpt>
      <trkpt lat="43.61111" lon="1.12945">
        <ele>240</ele>
        <time>2020-10-03T10:11:22.000Z</time>
      </trkpt>
      <trkpt lat="43.6111" lon="1.12941">
        <ele>240</ele>
        <time>2020-10-03T10:11:23.000Z</time>
      </trkpt>
      <trkpt lat="43.61109" lon="1.12936">
        <ele>240</ele>
        <time>2020-10-03T10:11:24.000Z</time>
      </trkpt>
      <trkpt lat="43.61108" lon="1.12932">
        <ele>240</ele>
        <time>2020-10-03T10:11:25.000Z</time>
      </trkpt>
      <trkpt lat="43.61107" lon="1.12928">
        <ele>240</ele>
        <time>2020-10-03T10:11:26.000Z</time>
      </trkpt>
      <trkpt lat="43.61107" lon="1.12923">
        <ele>240</ele>
        <time>2020-10-03T10:11:27.000Z</time>
      </trkpt>
      <trkpt lat="43.61106" lon="1.12918">
        <ele>240</ele>
        <time>2020-10-03T10:11:28.000Z</time>
      </trkpt>
      <trkpt lat="43.61105" lon="1.12914">
        <ele>240</ele>
        <time>2020-10-03T10:11:29.000Z</time>
      </trkpt>
      <trkpt lat="43.61104" lon="1.1291">
        <ele>240</ele>
        <time>2020-10-03T10:11:30.000Z</time>
      </trkpt>
      <trkpt lat="43.61103" lon="1.12906">
        <ele>240</ele>
        <time>2020-10-03T10:11:31.000Z</time>
      </trkpt>
      <trkpt lat="43.61102" lon="1.12902">
        <ele>240</ele>
        <time>2020-10-03T10:11:32.000Z</time>
      </trkpt>
      <trkpt lat="43.61102" lon="1.12898">
        <ele>239.54128257219</ele>
        <time>2020-10-03T10:11:33.000Z</time>
      </trkpt>
      <trkpt lat="43.61101" lon="1.12894">
        <ele>239</ele>
        <time>2020-10-03T10:11:34.000Z</time>
      </trkpt>
      <trkpt lat="43.611" lon="1.12891">
        <ele>239</ele>
        <time>2020-10-03T10:11:35.000Z</time>
      </trkpt>
      <trkpt lat="43.61099" lon="1.12887">
        <ele>239</ele>
        <time>2020-10-03T10:11:36.000Z</time>
      </trkpt>
      <trkpt lat="43.61098" lon="1.12883">
        <ele>239</ele>
        <time>2020-10-03T10:11:37.000Z</time>
      </trkpt>
      <trkpt lat="43.61097" lon="1.12879">
        <ele>239</ele>
        <time>2020-10-03T10:11:38.000Z</time>
      </trkpt>
      <trkpt lat="43.61096" lon="1.12875">
        <ele>239</ele>
        <time>2020-10-03T10:11:39.000Z</time>
      </trkpt>
      <trkpt lat="43.61095" lon="1.12871">
        <ele>238.67816210331</ele>
        <time>2020-10-03T10:11:40.000Z</time>
      </trkpt>
      <trkpt lat="43.61094" lon="1.12867">
        <ele>238</ele>
        <time>2020-10-03T10:11:41.000Z</time>
      </trkpt>
      <trkpt lat="43.61093" lon="1.12862">
        <ele>238</ele>
        <time>2020-10-03T10:11:42.000Z</time>
      </trkpt>
      <trkpt lat="43.61091" lon="1.12858">
        <ele>237.08412086992</ele>
        <time>2020-10-03T10:11:43.000Z</time>
      </trkpt>
      <trkpt lat="43.61091" lon="1.12854">
        <ele>236</ele>
        <time>2020-10-03T10:11:44.000Z</time>
      </trkpt>
      <trkpt lat="43.6109" lon="1.1285">
        <ele>236.26415253828</ele>
        <time>2020-10-03T10:11:45.000Z</time>
      </trkpt>
      <trkpt lat="43.61088" lon="1.12847">
        <ele>237</ele>
        <time>2020-10-03T10:11:46.000Z</time>
      </trkpt>
      <trkpt lat="43.61087" lon="1.12843">
        <ele>237</ele>
        <time>2020-10-03T10:11:47.000Z</time>
      </trkpt>
      <trkpt lat="43.61085" lon="1.1284">
        <ele>237</ele>
        <time>2020-10-03T10:11:48.000Z</time>
      </trkpt>
      <trkpt lat="43.61084" lon="1.12836">
        <ele>237</ele>
        <time>2020-10-03T10:11:49.000Z</time>
      </trkpt>
      <trkpt lat="43.61082" lon="1.12832">
        <ele>237</ele>
        <time>2020-10-03T10:11:50.000Z</time>
      </trkpt>
      <trkpt lat="43.61081" lon="1.12828">
        <ele>237</ele>
        <time>2020-10-03T10:11:51.000Z</time>
      </trkpt>
      <trkpt lat="43.6108" lon="1.12824">
        <ele>237</ele>
        <time>2020-10-03T10:11:52.000Z</time>
      </trkpt>
      <trkpt lat="43.61078" lon="1.12821">
        <ele>237.45370074074</ele>
        <time>2020-10-03T10:11:53.000Z</time>
      </trkpt>
      <trkpt lat="43.61077" lon="1.12817">
        <ele>238</ele>
        <time>2020-10-03T10:11:54.000Z</time>
      </trkpt>
      <trkpt lat="43.61076" lon="1.12814">
        <ele>238</ele>
        <time>2020-10-03T10:11:55.000Z</time>
      </trkpt>
      <trkpt lat="43.61074" lon="1.12811">
        <ele>237.63704026776</ele>
        <time>2020-10-03T10:11:56.000Z</time>
      </trkpt>
      <trkpt lat="43.61073" lon="1.12807">
        <ele>237</ele>
        <time>2020-10-03T10:11:57.000Z</time>
      </trkpt>
      <trkpt lat="43.61072" lon="1.12803">
        <ele>237</ele>
        <time>2020-10-03T10:11:58.000Z</time>
      </trkpt>
      <trkpt lat="43.61071" lon="1.128">
        <ele>236.68686646669</ele>
        <time>2020-10-03T10:11:59.000Z</time>
      </trkpt>
      <trkpt lat="43.6107" lon="1.12797">
        <ele>236</ele>
        <time>2020-10-03T10:12:00.000Z</time>
      </trkpt>
      <trkpt lat="43.61069" lon="1.12793">
        <ele>236</ele>
        <time>2020-10-03T10:12:01.000Z</time>
      </trkpt>
      <trkpt lat="43.61068" lon="1.12791">
        <ele>236.72222814815</ele>
        <time>2020-10-03T10:12:02.000Z</time>
      </trkpt>
      <trkpt lat="43.61067" lon="1.12787">
        <ele>238</ele>
        <time>2020-10-03T10:12:03.000Z</time>
      </trkpt>
      <trkpt lat="43.61066" lon="1.12784">
        <ele>238</ele>
        <time>2020-10-03T10:12:04.000Z</time>
      </trkpt>
      <trkpt lat="43.61066" lon="1.1278">
        <ele>238.90740148148</ele>
        <time>2020-10-03T10:12:05.000Z</time>
      </trkpt>
      <trkpt lat="43.61065" lon="1.12777">
        <ele>240</ele>
        <time>2020-10-03T10:12:06.000Z</time>
      </trkpt>
      <trkpt lat="43.61065" lon="1.12773">
        <ele>240</ele>
        <time>2020-10-03T10:12:07.000Z</time>
      </trkpt>
      <trkpt lat="43.61065" lon="1.1277">
        <ele>240</ele>
        <time>2020-10-03T10:12:08.000Z</time>
      </trkpt>
      <trkpt lat="43.61065" lon="1.12767">
        <ele>240</ele>
        <time>2020-10-03T10:12:09.000Z</time>
      </trkpt>
      <trkpt lat="43.61065" lon="1.12763">
        <ele>240</ele>
        <time>2020-10-03T10:12:10.000Z</time>
      </trkpt>
      <trkpt lat="43.61064" lon="1.1276">
        <ele>240</ele>
        <time>2020-10-03T10:12:11.000Z</time>
      </trkpt>
      <trkpt lat="43.61064" lon="1.12757">
        <ele>240.35442894408</ele>
        <time>2020-10-03T10:12:12.000Z</time>
      </trkpt>
      <trkpt lat="43.61064" lon="1.12754">
        <ele>241</ele>
        <time>2020-10-03T10:12:13.000Z</time>
      </trkpt>
      <trkpt lat="43.61063" lon="1.1275">
        <ele>241</ele>
        <time>2020-10-03T10:12:14.000Z</time>
      </trkpt>
      <trkpt lat="43.61063" lon="1.12747">
        <ele>241</ele>
        <time>2020-10-03T10:12:15.000Z</time>
      </trkpt>
      <trkpt lat="43.61063" lon="1.12744">
        <ele>241</ele>
        <time>2020-10-03T10:12:16.000Z</time>
      </trkpt>
      <trkpt lat="43.61062" lon="1.12741">
        <ele>241</ele>
        <time>2020-10-03T10:12:17.000Z</time>
      </trkpt>
      <trkpt lat="43.61061" lon="1.12738">
        <ele>241.36283005403</ele>
        <time>2020-10-03T10:12:18.000Z</time>
      </trkpt>
      <trkpt lat="43.61059" lon="1.12735">
        <ele>242</ele>
        <time>2020-10-03T10:12:19.000Z</time>
      </trkpt>
      <trkpt lat="43.61058" lon="1.12732">
        <ele>242</ele>
        <time>2020-10-03T10:12:20.000Z</time>
      </trkpt>
      <trkpt lat="43.61056" lon="1.12729">
        <ele>242</ele>
        <time>2020-10-03T10:12:21.000Z</time>
      </trkpt>
      <trkpt lat="43.61055" lon="1.12727">
        <ele>242</ele>
        <time>2020-10-03T10:12:22.000Z</time>
      </trkpt>
      <trkpt lat="43.61053" lon="1.12724">
        <ele>242</ele>
        <time>2020-10-03T10:12:23.000Z</time>
      </trkpt>
      <trkpt lat="43.61051" lon="1.12722">
        <ele>242</ele>
        <time>2020-10-03T10:12:24.000Z</time>
      </trkpt>
      <trkpt lat="43.61049" lon="1.1272">
        <ele>242.37272653223</ele>
        <time>2020-10-03T10:12:25.000Z</time>
      </trkpt>
      <trkpt lat="43.61046" lon="1.12718">
        <ele>243</ele>
        <time>2020-10-03T10:12:26.000Z</time>
      </trkpt>
      <trkpt lat="43.61044" lon="1.12715">
        <ele>243</ele>
        <time>2020-10-03T10:12:27.000Z</time>
      </trkpt>
      <trkpt lat="43.61042" lon="1.12713">
        <ele>243</ele>
        <time>2020-10-03T10:12:28.000Z</time>
      </trkpt>
      <trkpt lat="43.6104" lon="1.1271">
        <ele>243</ele>
        <time>2020-10-03T10:12:29.000Z</time>
      </trkpt>
      <trkpt lat="43.61038" lon="1.12707">
        <ele>243</ele>
        <time>2020-10-03T10:12:30.000Z</time>
      </trkpt>
      <trkpt lat="43.61036" lon="1.12705">
        <ele>243</ele>
        <time>2020-10-03T10:12:31.000Z</time>
      </trkpt>
      <trkpt lat="43.61035" lon="1.12703">
        <ele>243</ele>
        <time>2020-10-03T10:12:32.000Z</time>
      </trkpt>
      <trkpt lat="43.61033" lon="1.127">
        <ele>243</ele>
        <time>2020-10-03T10:12:33.000Z</time>
      </trkpt>
      <trkpt lat="43.61031" lon="1.12697">
        <ele>243</ele>
        <time>2020-10-03T10:12:34.000Z</time>
      </trkpt>
      <trkpt lat="43.6103" lon="1.12694">
        <ele>243.28947013844</ele>
        <time>2020-10-03T10:12:35.000Z</time>
      </trkpt>
      <trkpt lat="43.61028" lon="1.12692">
        <ele>244</ele>
        <time>2020-10-03T10:12:36.000Z</time>
      </trkpt>
      <trkpt lat="43.61026" lon="1.12689">
        <ele>244</ele>
        <time>2020-10-03T10:12:37.000Z</time>
      </trkpt>
      <trkpt lat="43.61024" lon="1.12687">
        <ele>244</ele>
        <time>2020-10-03T10:12:38.000Z</time>
      </trkpt>
      <trkpt lat="43.61021" lon="1.12685">
        <ele>244</ele>
        <time>2020-10-03T10:12:39.000Z</time>
      </trkpt>
      <trkpt lat="43.61019" lon="1.12682">
        <ele>243.63716994597</ele>
        <time>2020-10-03T10:12:40.000Z</time>
      </trkpt>
      <trkpt lat="43.61016" lon="1.12679">
        <ele>243</ele>
        <time>2020-10-03T10:12:41.000Z</time>
      </trkpt>
      <trkpt lat="43.61013" lon="1.12676">
        <ele>242.52173187156</ele>
        <time>2020-10-03T10:12:42.000Z</time>
      </trkpt>
      <trkpt lat="43.61011" lon="1.12673">
        <ele>241</ele>
        <time>2020-10-03T10:12:43.000Z</time>
      </trkpt>
      <trkpt lat="43.61008" lon="1.1267">
        <ele>241</ele>
        <time>2020-10-03T10:12:44.000Z</time>
      </trkpt>
      <trkpt lat="43.61005" lon="1.12667">
        <ele>241</ele>
        <time>2020-10-03T10:12:45.000Z</time>
      </trkpt>
      <trkpt lat="43.61003" lon="1.12665">
        <ele>241</ele>
        <time>2020-10-03T10:12:46.000Z</time>
      </trkpt>
      <trkpt lat="43.61" lon="1.12662">
        <ele>241</ele>
        <time>2020-10-03T10:12:47.000Z</time>
      </trkpt>
      <trkpt lat="43.60998" lon="1.1266">
        <ele>241</ele>
        <time>2020-10-03T10:12:48.000Z</time>
      </trkpt>
      <trkpt lat="43.60995" lon="1.12657">
        <ele>241</ele>
        <time>2020-10-03T10:12:49.000Z</time>
      </trkpt>
      <trkpt lat="43.60993" lon="1.12654">
        <ele>241.3684175069</ele>
        <time>2020-10-03T10:12:50.000Z</time>
      </trkpt>
      <trkpt lat="43.6099" lon="1.1265">
        <ele>242</ele>
        <time>2020-10-03T10:12:51.000Z</time>
      </trkpt>
      <trkpt lat="43.60988" lon="1.12647">
        <ele>242</ele>
        <time>2020-10-03T10:12:52.000Z</time>
      </trkpt>
      <trkpt lat="43.60986" lon="1.12643">
        <ele>242</ele>
        <time>2020-10-03T10:12:53.000Z</time>
      </trkpt>
      <trkpt lat="43.60985" lon="1.12639">
        <ele>242</ele>
        <time>2020-10-03T10:12:54.000Z</time>
      </trkpt>
      <trkpt lat="43.60983" lon="1.12635">
        <ele>242</ele>
        <time>2020-10-03T10:12:55.000Z</time>
      </trkpt>
      <trkpt lat="43.60982" lon="1.12632">
        <ele>242</ele>
        <time>2020-10-03T10:12:56.000Z</time>
      </trkpt>
      <trkpt lat="43.60981" lon="1.12628">
        <ele>241.94520523926</ele>
        <time>2020-10-03T10:12:57.000Z</time>
      </trkpt>
      <trkpt lat="43.6098" lon="1.12624">
        <ele>241</ele>
        <time>2020-10-03T10:12:58.000Z</time>
      </trkpt>
      <trkpt lat="43.60979" lon="1.1262">
        <ele>241</ele>
        <time>2020-10-03T10:12:59.000Z</time>
      </trkpt>
      <trkpt lat="43.60979" lon="1.12615">
        <ele>241</ele>
        <time>2020-10-03T10:13:00.000Z</time>
      </trkpt>
      <trkpt lat="43.60978" lon="1.12611">
        <ele>241</ele>
        <time>2020-10-03T10:13:01.000Z</time>
      </trkpt>
      <trkpt lat="43.60977" lon="1.12606">
        <ele>241</ele>
        <time>2020-10-03T10:13:02.000Z</time>
      </trkpt>
      <trkpt lat="43.60977" lon="1.12602">
        <ele>241.30392279892</ele>
        <time>2020-10-03T10:13:03.000Z</time>
      </trkpt>
      <trkpt lat="43.60977" lon="1.12598">
        <ele>242</ele>
        <time>2020-10-03T10:13:04.000Z</time>
      </trkpt>
      <trkpt lat="43.60976" lon="1.12594">
        <ele>242.36283005403</ele>
        <time>2020-10-03T10:13:05.000Z</time>
      </trkpt>
      <trkpt lat="43.60976" lon="1.1259">
        <ele>243</ele>
        <time>2020-10-03T10:13:06.000Z</time>
      </trkpt>
      <trkpt lat="43.60975" lon="1.12585">
        <ele>243</ele>
        <time>2020-10-03T10:13:07.000Z</time>
      </trkpt>
      <trkpt lat="43.60975" lon="1.12581">
        <ele>243</ele>
        <time>2020-10-03T10:13:08.000Z</time>
      </trkpt>
      <trkpt lat="43.60974" lon="1.12578">
        <ele>243.45871742781</ele>
        <time>2020-10-03T10:13:09.000Z</time>
      </trkpt>
      <trkpt lat="43.60974" lon="1.12574">
        <ele>244</ele>
        <time>2020-10-03T10:13:10.000Z</time>
      </trkpt>
      <trkpt lat="43.60974" lon="1.1257">
        <ele>244</ele>
        <time>2020-10-03T10:13:11.000Z</time>
      </trkpt>
      <trkpt lat="43.60974" lon="1.12566">
        <ele>244</ele>
        <time>2020-10-03T10:13:12.000Z</time>
      </trkpt>
      <trkpt lat="43.60973" lon="1.12562">
        <ele>244</ele>
        <time>2020-10-03T10:13:13.000Z</time>
      </trkpt>
      <trkpt lat="43.60973" lon="1.12558">
        <ele>244.06451679501</ele>
        <time>2020-10-03T10:13:14.000Z</time>
      </trkpt>
      <trkpt lat="43.60973" lon="1.12554">
        <ele>245</ele>
        <time>2020-10-03T10:13:15.000Z</time>
      </trkpt>
      <trkpt lat="43.60973" lon="1.12551">
        <ele>245</ele>
        <time>2020-10-03T10:13:16.000Z</time>
      </trkpt>
      <trkpt lat="43.60973" lon="1.12547">
        <ele>245</ele>
        <time>2020-10-03T10:13:17.000Z</time>
      </trkpt>
      <trkpt lat="43.60973" lon="1.12544">
        <ele>244.58139223362</ele>
        <time>2020-10-03T10:13:18.000Z</time>
      </trkpt>
      <trkpt lat="43.60973" lon="1.1254">
        <ele>244</ele>
        <time>2020-10-03T10:13:19.000Z</time>
      </trkpt>
      <trkpt lat="43.60973" lon="1.12536">
        <ele>244</ele>
        <time>2020-10-03T10:13:20.000Z</time>
      </trkpt>
      <trkpt lat="43.60973" lon="1.12532">
        <ele>243.64102858643</ele>
        <time>2020-10-03T10:13:21.000Z</time>
      </trkpt>
      <trkpt lat="43.60974" lon="1.12527">
        <ele>243</ele>
        <time>2020-10-03T10:13:22.000Z</time>
      </trkpt>
      <trkpt lat="43.60974" lon="1.12524">
        <ele>243</ele>
        <time>2020-10-03T10:13:23.000Z</time>
      </trkpt>
      <trkpt lat="43.60974" lon="1.12521">
        <ele>243</ele>
        <time>2020-10-03T10:13:24.000Z</time>
      </trkpt>
      <trkpt lat="43.60974" lon="1.12518">
        <ele>243</ele>
        <time>2020-10-03T10:13:25.000Z</time>
      </trkpt>
      <trkpt lat="43.60975" lon="1.12515">
        <ele>242.51456479594</ele>
        <time>2020-10-03T10:13:26.000Z</time>
      </trkpt>
      <trkpt lat="43.60975" lon="1.12511">
        <ele>242</ele>
        <time>2020-10-03T10:13:27.000Z</time>
      </trkpt>
      <trkpt lat="43.60975" lon="1.12506">
        <ele>242.81818181818</ele>
        <time>2020-10-03T10:13:28.000Z</time>
      </trkpt>
      <trkpt lat="43.60976" lon="1.12503">
        <ele>244</ele>
        <time>2020-10-03T10:13:29.000Z</time>
      </trkpt>
      <trkpt lat="43.60977" lon="1.12499">
        <ele>244</ele>
        <time>2020-10-03T10:13:30.000Z</time>
      </trkpt>
      <trkpt lat="43.60977" lon="1.12495">
        <ele>244</ele>
        <time>2020-10-03T10:13:31.000Z</time>
      </trkpt>
      <trkpt lat="43.60978" lon="1.12492">
        <ele>244</ele>
        <time>2020-10-03T10:13:32.000Z</time>
      </trkpt>
      <trkpt lat="43.60978" lon="1.12488">
        <ele>244</ele>
        <time>2020-10-03T10:13:33.000Z</time>
      </trkpt>
      <trkpt lat="43.60979" lon="1.12484">
        <ele>243.67368194128</ele>
        <time>2020-10-03T10:13:34.000Z</time>
      </trkpt>
      <trkpt lat="43.60979" lon="1.12479">
        <ele>243</ele>
        <time>2020-10-03T10:13:35.000Z</time>
      </trkpt>
      <trkpt lat="43.6098" lon="1.12474">
        <ele>243</ele>
        <time>2020-10-03T10:13:36.000Z</time>
      </trkpt>
      <trkpt lat="43.6098" lon="1.1247">
        <ele>243.42857142857</ele>
        <time>2020-10-03T10:13:37.000Z</time>
      </trkpt>
      <trkpt lat="43.6098" lon="1.12466">
        <ele>244</ele>
        <time>2020-10-03T10:13:38.000Z</time>
      </trkpt>
      <trkpt lat="43.6098" lon="1.12462">
        <ele>244</ele>
        <time>2020-10-03T10:13:39.000Z</time>
      </trkpt>
      <trkpt lat="43.60981" lon="1.12458">
        <ele>244</ele>
        <time>2020-10-03T10:13:40.000Z</time>
      </trkpt>
      <trkpt lat="43.60981" lon="1.12454">
        <ele>244</ele>
        <time>2020-10-03T10:13:41.000Z</time>
      </trkpt>
      <trkpt lat="43.60981" lon="1.1245">
        <ele>244</ele>
        <time>2020-10-03T10:13:42.000Z</time>
      </trkpt>
      <trkpt lat="43.60982" lon="1.12446">
        <ele>244</ele>
        <time>2020-10-03T10:13:43.000Z</time>
      </trkpt>
      <trkpt lat="43.60982" lon="1.12442">
        <ele>244</ele>
        <time>2020-10-03T10:13:44.000Z</time>
      </trkpt>
      <trkpt lat="43.60983" lon="1.12438">
        <ele>244</ele>
        <time>2020-10-03T10:13:45.000Z</time>
      </trkpt>
      <trkpt lat="43.60983" lon="1.12434">
        <ele>244</ele>
        <time>2020-10-03T10:13:46.000Z</time>
      </trkpt>
      <trkpt lat="43.60983" lon="1.12431">
        <ele>244.39215932335</ele>
        <time>2020-10-03T10:13:47.000Z</time>
      </trkpt>
      <trkpt lat="43.60984" lon="1.12427">
        <ele>245</ele>
        <time>2020-10-03T10:13:48.000Z</time>
      </trkpt>
      <trkpt lat="43.60984" lon="1.12423">
        <ele>245</ele>
        <time>2020-10-03T10:13:49.000Z</time>
      </trkpt>
      <trkpt lat="43.60985" lon="1.12419">
        <ele>245</ele>
        <time>2020-10-03T10:13:50.000Z</time>
      </trkpt>
      <trkpt lat="43.60985" lon="1.12415">
        <ele>245</ele>
        <time>2020-10-03T10:13:51.000Z</time>
      </trkpt>
      <trkpt lat="43.60985" lon="1.1241">
        <ele>245.45652113421</ele>
        <time>2020-10-03T10:13:52.000Z</time>
      </trkpt>
      <trkpt lat="43.60986" lon="1.12406">
        <ele>246</ele>
        <time>2020-10-03T10:13:53.000Z</time>
      </trkpt>
      <trkpt lat="43.60987" lon="1.12402">
        <ele>246</ele>
        <time>2020-10-03T10:13:54.000Z</time>
      </trkpt>
      <trkpt lat="43.60987" lon="1.12398">
        <ele>246</ele>
        <time>2020-10-03T10:13:55.000Z</time>
      </trkpt>
      <trkpt lat="43.60988" lon="1.12394">
        <ele>246</ele>
        <time>2020-10-03T10:13:56.000Z</time>
      </trkpt>
      <trkpt lat="43.60988" lon="1.12391">
        <ele>246</ele>
        <time>2020-10-03T10:13:57.000Z</time>
      </trkpt>
      <trkpt lat="43.60989" lon="1.12387">
        <ele>246.31395487289</ele>
        <time>2020-10-03T10:13:58.000Z</time>
      </trkpt>
      <trkpt lat="43.60989" lon="1.12383">
        <ele>247</ele>
        <time>2020-10-03T10:13:59.000Z</time>
      </trkpt>
      <trkpt lat="43.6099" lon="1.12379">
        <ele>247</ele>
        <time>2020-10-03T10:14:00.000Z</time>
      </trkpt>
      <trkpt lat="43.60991" lon="1.12375">
        <ele>247</ele>
        <time>2020-10-03T10:14:01.000Z</time>
      </trkpt>
      <trkpt lat="43.60991" lon="1.12371">
        <ele>247</ele>
        <time>2020-10-03T10:14:02.000Z</time>
      </trkpt>
      <trkpt lat="43.60992" lon="1.12367">
        <ele>247</ele>
        <time>2020-10-03T10:14:03.000Z</time>
      </trkpt>
      <trkpt lat="43.60992" lon="1.12363">
        <ele>247</ele>
        <time>2020-10-03T10:14:04.000Z</time>
      </trkpt>
      <trkpt lat="43.60993" lon="1.12359">
        <ele>247</ele>
        <time>2020-10-03T10:14:05.000Z</time>
      </trkpt>
      <trkpt lat="43.60994" lon="1.12356">
        <ele>247</ele>
        <time>2020-10-03T10:14:06.000Z</time>
      </trkpt>
      <trkpt lat="43.60995" lon="1.12352">
        <ele>247</ele>
        <time>2020-10-03T10:14:07.000Z</time>
      </trkpt>
      <trkpt lat="43.60996" lon="1.12348">
        <ele>246.5</ele>
        <time>2020-10-03T10:14:08.000Z</time>
      </trkpt>
      <trkpt lat="43.60996" lon="1.12344">
        <ele>246</ele>
        <time>2020-10-03T10:14:09.000Z</time>
      </trkpt>
      <trkpt lat="43.60997" lon="1.1234">
        <ele>246.23711748327</ele>
        <time>2020-10-03T10:14:10.000Z</time>
      </trkpt>
      <trkpt lat="43.60998" lon="1.12336">
        <ele>247</ele>
        <time>2020-10-03T10:14:11.000Z</time>
      </trkpt>
      <trkpt lat="43.60998" lon="1.12331">
        <ele>247</ele>
        <time>2020-10-03T10:14:12.000Z</time>
      </trkpt>
      <trkpt lat="43.60999" lon="1.12327">
        <ele>247</ele>
        <time>2020-10-03T10:14:13.000Z</time>
      </trkpt>
      <trkpt lat="43.61" lon="1.12322">
        <ele>247</ele>
        <time>2020-10-03T10:14:14.000Z</time>
      </trkpt>
      <trkpt lat="43.61001" lon="1.12318">
        <ele>247</ele>
        <time>2020-10-03T10:14:15.000Z</time>
      </trkpt>
      <trkpt lat="43.61001" lon="1.12313">
        <ele>247</ele>
        <time>2020-10-03T10:14:16.000Z</time>
      </trkpt>
      <trkpt lat="43.61002" lon="1.12309">
        <ele>247</ele>
        <time>2020-10-03T10:14:17.000Z</time>
      </trkpt>
      <trkpt lat="43.61003" lon="1.12305">
        <ele>247</ele>
        <time>2020-10-03T10:14:18.000Z</time>
      </trkpt>
      <trkpt lat="43.61004" lon="1.123">
        <ele>247</ele>
        <time>2020-10-03T10:14:19.000Z</time>
      </trkpt>
      <trkpt lat="43.61005" lon="1.12295">
        <ele>247</ele>
        <time>2020-10-03T10:14:20.000Z</time>
      </trkpt>
      <trkpt lat="43.61006" lon="1.12291">
        <ele>246.54781621477</ele>
        <time>2020-10-03T10:14:21.000Z</time>
      </trkpt>
      <trkpt lat="43.61006" lon="1.12286">
        <ele>245</ele>
        <time>2020-10-03T10:14:22.000Z</time>
      </trkpt>
      <trkpt lat="43.61007" lon="1.12281">
        <ele>245</ele>
        <time>2020-10-03T10:14:23.000Z</time>
      </trkpt>
      <trkpt lat="43.61008" lon="1.12277">
        <ele>245</ele>
        <time>2020-10-03T10:14:24.000Z</time>
      </trkpt>
      <trkpt lat="43.61009" lon="1.12272">
        <ele>244.69149066547</ele>
        <time>2020-10-03T10:14:25.000Z</time>
      </trkpt>
      <trkpt lat="43.61009" lon="1.12267">
        <ele>244</ele>
        <time>2020-10-03T10:14:26.000Z</time>
      </trkpt>
      <trkpt lat="43.6101" lon="1.12262">
        <ele>244</ele>
        <time>2020-10-03T10:14:27.000Z</time>
      </trkpt>
      <trkpt lat="43.61011" lon="1.12258">
        <ele>243.47367813216</ele>
        <time>2020-10-03T10:14:28.000Z</time>
      </trkpt>
      <trkpt lat="43.61011" lon="1.12253">
        <ele>242</ele>
        <time>2020-10-03T10:14:29.000Z</time>
      </trkpt>
      <trkpt lat="43.61012" lon="1.12248">
        <ele>242</ele>
        <time>2020-10-03T10:14:30.000Z</time>
      </trkpt>
      <trkpt lat="43.61012" lon="1.12243">
        <ele>242</ele>
        <time>2020-10-03T10:14:31.000Z</time>
      </trkpt>
      <trkpt lat="43.61013" lon="1.12238">
        <ele>242</ele>
        <time>2020-10-03T10:14:32.000Z</time>
      </trkpt>
      <trkpt lat="43.61014" lon="1.12233">
        <ele>242</ele>
        <time>2020-10-03T10:14:33.000Z</time>
      </trkpt>
      <trkpt lat="43.61014" lon="1.12229">
        <ele>242</ele>
        <time>2020-10-03T10:14:34.000Z</time>
      </trkpt>
      <trkpt lat="43.61015" lon="1.12224">
        <ele>242</ele>
        <time>2020-10-03T10:14:35.000Z</time>
      </trkpt>
      <trkpt lat="43.61015" lon="1.12219">
        <ele>242</ele>
        <time>2020-10-03T10:14:36.000Z</time>
      </trkpt>
      <trkpt lat="43.61016" lon="1.12215">
        <ele>242</ele>
        <time>2020-10-03T10:14:37.000Z</time>
      </trkpt>
      <trkpt lat="43.61016" lon="1.1221">
        <ele>242</ele>
        <time>2020-10-03T10:14:38.000Z</time>
      </trkpt>
      <trkpt lat="43.61017" lon="1.12206">
        <ele>241.65454926283</ele>
        <time>2020-10-03T10:14:39.000Z</time>
      </trkpt>
      <trkpt lat="43.61017" lon="1.12202">
        <ele>241</ele>
        <time>2020-10-03T10:14:40.000Z</time>
      </trkpt>
      <trkpt lat="43.61017" lon="1.12198">
        <ele>241</ele>
        <time>2020-10-03T10:14:41.000Z</time>
      </trkpt>
      <trkpt lat="43.61017" lon="1.12193">
        <ele>241</ele>
        <time>2020-10-03T10:14:42.000Z</time>
      </trkpt>
      <trkpt lat="43.61018" lon="1.12189">
        <ele>241</ele>
        <time>2020-10-03T10:14:43.000Z</time>
      </trkpt>
      <trkpt lat="43.61018" lon="1.12185">
        <ele>241.43955889386</ele>
        <time>2020-10-03T10:14:44.000Z</time>
      </trkpt>
      <trkpt lat="43.61019" lon="1.12181">
        <ele>242</ele>
        <time>2020-10-03T10:14:45.000Z</time>
      </trkpt>
      <trkpt lat="43.61019" lon="1.12178">
        <ele>242</ele>
        <time>2020-10-03T10:14:46.000Z</time>
      </trkpt>
      <trkpt lat="43.6102" lon="1.12174">
        <ele>242</ele>
        <time>2020-10-03T10:14:47.000Z</time>
      </trkpt>
      <trkpt lat="43.6102" lon="1.1217">
        <ele>242</ele>
        <time>2020-10-03T10:14:48.000Z</time>
      </trkpt>
      <trkpt lat="43.6102" lon="1.12166">
        <ele>242</ele>
        <time>2020-10-03T10:14:49.000Z</time>
      </trkpt>
      <trkpt lat="43.61021" lon="1.12162">
        <ele>242</ele>
        <time>2020-10-03T10:14:50.000Z</time>
      </trkpt>
      <trkpt lat="43.61021" lon="1.12159">
        <ele>242</ele>
        <time>2020-10-03T10:14:51.000Z</time>
      </trkpt>
      <trkpt lat="43.61022" lon="1.12155">
        <ele>242</ele>
        <time>2020-10-03T10:14:52.000Z</time>
      </trkpt>
      <trkpt lat="43.61023" lon="1.12152">
        <ele>242</ele>
        <time>2020-10-03T10:14:53.000Z</time>
      </trkpt>
      <trkpt lat="43.61023" lon="1.12148">
        <ele>242.31818181818</ele>
        <time>2020-10-03T10:14:54.000Z</time>
      </trkpt>
      <trkpt lat="43.61024" lon="1.12144">
        <ele>243</ele>
        <time>2020-10-03T10:14:55.000Z</time>
      </trkpt>
      <trkpt lat="43.61024" lon="1.12141">
        <ele>243</ele>
        <time>2020-10-03T10:14:56.000Z</time>
      </trkpt>
      <trkpt lat="43.61025" lon="1.12137">
        <ele>243</ele>
        <time>2020-10-03T10:14:57.000Z</time>
      </trkpt>
      <trkpt lat="43.61025" lon="1.12134">
        <ele>243</ele>
        <time>2020-10-03T10:14:58.000Z</time>
      </trkpt>
      <trkpt lat="43.61026" lon="1.12131">
        <ele>243</ele>
        <time>2020-10-03T10:14:59.000Z</time>
      </trkpt>
      <trkpt lat="43.61027" lon="1.12127">
        <ele>243.3831780173</ele>
        <time>2020-10-03T10:15:00.000Z</time>
      </trkpt>
      <trkpt lat="43.61028" lon="1.12124">
        <ele>244</ele>
        <time>2020-10-03T10:15:01.000Z</time>
      </trkpt>
      <trkpt lat="43.61028" lon="1.1212">
        <ele>244</ele>
        <time>2020-10-03T10:15:02.000Z</time>
      </trkpt>
      <trkpt lat="43.61029" lon="1.12116">
        <ele>244</ele>
        <time>2020-10-03T10:15:03.000Z</time>
      </trkpt>
      <trkpt lat="43.6103" lon="1.12112">
        <ele>244</ele>
        <time>2020-10-03T10:15:04.000Z</time>
      </trkpt>
      <trkpt lat="43.61031" lon="1.12108">
        <ele>244</ele>
        <time>2020-10-03T10:15:05.000Z</time>
      </trkpt>
      <trkpt lat="43.61032" lon="1.12104">
        <ele>244</ele>
        <time>2020-10-03T10:15:06.000Z</time>
      </trkpt>
      <trkpt lat="43.61033" lon="1.121">
        <ele>244</ele>
        <time>2020-10-03T10:15:07.000Z</time>
      </trkpt>
      <trkpt lat="43.61034" lon="1.12097">
        <ele>244</ele>
        <time>2020-10-03T10:15:08.000Z</time>
      </trkpt>
      <trkpt lat="43.61035" lon="1.12093">
        <ele>244</ele>
        <time>2020-10-03T10:15:09.000Z</time>
      </trkpt>
      <trkpt lat="43.61036" lon="1.12089">
        <ele>244</ele>
        <time>2020-10-03T10:15:10.000Z</time>
      </trkpt>
      <trkpt lat="43.61036" lon="1.12085">
        <ele>244</ele>
        <time>2020-10-03T10:15:11.000Z</time>
      </trkpt>
      <trkpt lat="43.61037" lon="1.12081">
        <ele>244</ele>
        <time>2020-10-03T10:15:12.000Z</time>
      </trkpt>
      <trkpt lat="43.61038" lon="1.12077">
        <ele>244</ele>
        <time>2020-10-03T10:15:13.000Z</time>
      </trkpt>
      <trkpt lat="43.61039" lon="1.12073">
        <ele>244</ele>
        <time>2020-10-03T10:15:14.000Z</time>
      </trkpt>
      <trkpt lat="43.6104" lon="1.12069">
        <ele>244</ele>
        <time>2020-10-03T10:15:15.000Z</time>
      </trkpt>
      <trkpt lat="43.6104" lon="1.12065">
        <ele>244</ele>
        <time>2020-10-03T10:15:16.000Z</time>
      </trkpt>
      <trkpt lat="43.61041" lon="1.1206">
        <ele>244</ele>
        <time>2020-10-03T10:15:17.000Z</time>
      </trkpt>
      <trkpt lat="43.61042" lon="1.12056">
        <ele>244</ele>
        <time>2020-10-03T10:15:18.000Z</time>
      </trkpt>
      <trkpt lat="43.61043" lon="1.12051">
        <ele>244</ele>
        <time>2020-10-03T10:15:19.000Z</time>
      </trkpt>
      <trkpt lat="43.61045" lon="1.12048">
        <ele>244</ele>
        <time>2020-10-03T10:15:20.000Z</time>
      </trkpt>
      <trkpt lat="43.61046" lon="1.12044">
        <ele>244</ele>
        <time>2020-10-03T10:15:21.000Z</time>
      </trkpt>
      <trkpt lat="43.61048" lon="1.1204">
        <ele>244</ele>
        <time>2020-10-03T10:15:22.000Z</time>
      </trkpt>
      <trkpt lat="43.61049" lon="1.12036">
        <ele>244</ele>
        <time>2020-10-03T10:15:23.000Z</time>
      </trkpt>
      <trkpt lat="43.61051" lon="1.12032">
        <ele>244</ele>
        <time>2020-10-03T10:15:24.000Z</time>
      </trkpt>
      <trkpt lat="43.61053" lon="1.12028">
        <ele>244</ele>
        <time>2020-10-03T10:15:25.000Z</time>
      </trkpt>
      <trkpt lat="43.61054" lon="1.12024">
        <ele>244</ele>
        <time>2020-10-03T10:15:26.000Z</time>
      </trkpt>
      <trkpt lat="43.61056" lon="1.12021">
        <ele>244</ele>
        <time>2020-10-03T10:15:27.000Z</time>
      </trkpt>
      <trkpt lat="43.61057" lon="1.12017">
        <ele>244</ele>
        <time>2020-10-03T10:15:28.000Z</time>
      </trkpt>
      <trkpt lat="43.61059" lon="1.12014">
        <ele>244</ele>
        <time>2020-10-03T10:15:29.000Z</time>
      </trkpt>
      <trkpt lat="43.6106" lon="1.1201">
        <ele>244</ele>
        <time>2020-10-03T10:15:30.000Z</time>
      </trkpt>
      <trkpt lat="43.61062" lon="1.12006">
        <ele>244</ele>
        <time>2020-10-03T10:15:31.000Z</time>
      </trkpt>
      <trkpt lat="43.61063" lon="1.12003">
        <ele>243.55435130435</ele>
        <time>2020-10-03T10:15:32.000Z</time>
      </trkpt>
      <trkpt lat="43.61065" lon="1.11999">
        <ele>243</ele>
        <time>2020-10-03T10:15:33.000Z</time>
      </trkpt>
      <trkpt lat="43.61066" lon="1.11996">
        <ele>243</ele>
        <time>2020-10-03T10:15:34.000Z</time>
      </trkpt>
      <trkpt lat="43.61068" lon="1.11992">
        <ele>242.63094857143</ele>
        <time>2020-10-03T10:15:35.000Z</time>
      </trkpt>
      <trkpt lat="43.61069" lon="1.11988">
        <ele>242</ele>
        <time>2020-10-03T10:15:36.000Z</time>
      </trkpt>
      <trkpt lat="43.61071" lon="1.11984">
        <ele>242</ele>
        <time>2020-10-03T10:15:37.000Z</time>
      </trkpt>
      <trkpt lat="43.61073" lon="1.1198">
        <ele>242</ele>
        <time>2020-10-03T10:15:38.000Z</time>
      </trkpt>
      <trkpt lat="43.61074" lon="1.11976">
        <ele>242</ele>
        <time>2020-10-03T10:15:39.000Z</time>
      </trkpt>
      <trkpt lat="43.61075" lon="1.11973">
        <ele>242</ele>
        <time>2020-10-03T10:15:40.000Z</time>
      </trkpt>
      <trkpt lat="43.61076" lon="1.1197">
        <ele>242</ele>
        <time>2020-10-03T10:15:42.000Z</time>
      </trkpt>
      <trkpt lat="43.61078" lon="1.11969">
        <ele>241</ele>
        <time>2020-10-03T10:15:50.000Z</time>
      </trkpt>
      <trkpt lat="43.61079" lon="1.11967">
        <ele>241</ele>
        <time>2020-10-03T10:15:52.000Z</time>
      </trkpt>
      <trkpt lat="43.6108" lon="1.11964">
        <ele>241.29688</ele>
        <time>2020-10-03T10:15:54.000Z</time>
      </trkpt>
      <trkpt lat="43.61081" lon="1.11962">
        <ele>242</ele>
        <time>2020-10-03T10:15:55.000Z</time>
      </trkpt>
      <trkpt lat="43.61083" lon="1.11959">
        <ele>242</ele>
        <time>2020-10-03T10:15:56.000Z</time>
      </trkpt>
      <trkpt lat="43.61084" lon="1.11955">
        <ele>242</ele>
        <time>2020-10-03T10:15:57.000Z</time>
      </trkpt>
      <trkpt lat="43.61086" lon="1.11952">
        <ele>242</ele>
        <time>2020-10-03T10:15:58.000Z</time>
      </trkpt>
      <trkpt lat="43.61087" lon="1.11947">
        <ele>242.38393142857</ele>
        <time>2020-10-03T10:15:59.000Z</time>
      </trkpt>
      <trkpt lat="43.61089" lon="1.11944">
        <ele>243</ele>
        <time>2020-10-03T10:16:00.000Z</time>
      </trkpt>
      <trkpt lat="43.6109" lon="1.1194">
        <ele>243</ele>
        <time>2020-10-03T10:16:01.000Z</time>
      </trkpt>
      <trkpt lat="43.61092" lon="1.11936">
        <ele>243</ele>
        <time>2020-10-03T10:16:02.000Z</time>
      </trkpt>
      <trkpt lat="43.61093" lon="1.11932">
        <ele>243</ele>
        <time>2020-10-03T10:16:03.000Z</time>
      </trkpt>
      <trkpt lat="43.61094" lon="1.11928">
        <ele>243</ele>
        <time>2020-10-03T10:16:04.000Z</time>
      </trkpt>
      <trkpt lat="43.61095" lon="1.11924">
        <ele>243</ele>
        <time>2020-10-03T10:16:05.000Z</time>
      </trkpt>
      <trkpt lat="43.61096" lon="1.11919">
        <ele>243</ele>
        <time>2020-10-03T10:16:06.000Z</time>
      </trkpt>
      <trkpt lat="43.61096" lon="1.11915">
        <ele>243</ele>
        <time>2020-10-03T10:16:07.000Z</time>
      </trkpt>
      <trkpt lat="43.61097" lon="1.11911">
        <ele>243</ele>
        <time>2020-10-03T10:16:08.000Z</time>
      </trkpt>
      <trkpt lat="43.61099" lon="1.11906">
        <ele>243</ele>
        <time>2020-10-03T10:16:09.000Z</time>
      </trkpt>
      <trkpt lat="43.611" lon="1.11902">
        <ele>243</ele>
        <time>2020-10-03T10:16:10.000Z</time>
      </trkpt>
      <trkpt lat="43.61101" lon="1.11898">
        <ele>243</ele>
        <time>2020-10-03T10:16:11.000Z</time>
      </trkpt>
      <trkpt lat="43.61102" lon="1.11893">
        <ele>243</ele>
        <time>2020-10-03T10:16:12.000Z</time>
      </trkpt>
      <trkpt lat="43.61103" lon="1.11889">
        <ele>243</ele>
        <time>2020-10-03T10:16:13.000Z</time>
      </trkpt>
      <trkpt lat="43.61104" lon="1.11885">
        <ele>242.62727346777</ele>
        <time>2020-10-03T10:16:14.000Z</time>
      </trkpt>
      <trkpt lat="43.61105" lon="1.1188">
        <ele>242</ele>
        <time>2020-10-03T10:16:15.000Z</time>
      </trkpt>
      <trkpt lat="43.61106" lon="1.11876">
        <ele>242</ele>
        <time>2020-10-03T10:16:16.000Z</time>
      </trkpt>
      <trkpt lat="43.61107" lon="1.11872">
        <ele>242</ele>
        <time>2020-10-03T10:16:17.000Z</time>
      </trkpt>
      <trkpt lat="43.61108" lon="1.11868">
        <ele>241.54545771903</ele>
        <time>2020-10-03T10:16:18.000Z</time>
      </trkpt>
      <trkpt lat="43.61109" lon="1.11863">
        <ele>241</ele>
        <time>2020-10-03T10:16:19.000Z</time>
      </trkpt>
      <trkpt lat="43.6111" lon="1.11859">
        <ele>241</ele>
        <time>2020-10-03T10:16:20.000Z</time>
      </trkpt>
      <trkpt lat="43.61111" lon="1.11855">
        <ele>241</ele>
        <time>2020-10-03T10:16:21.000Z</time>
      </trkpt>
      <trkpt lat="43.61112" lon="1.1185">
        <ele>241</ele>
        <time>2020-10-03T10:16:22.000Z</time>
      </trkpt>
      <trkpt lat="43.61112" lon="1.11845">
        <ele>241</ele>
        <time>2020-10-03T10:16:23.000Z</time>
      </trkpt>
      <trkpt lat="43.61113" lon="1.11841">
        <ele>241</ele>
        <time>2020-10-03T10:16:24.000Z</time>
      </trkpt>
      <trkpt lat="43.61114" lon="1.11837">
        <ele>240.27006876448</ele>
        <time>2020-10-03T10:16:25.000Z</time>
      </trkpt>
      <trkpt lat="43.61115" lon="1.11832">
        <ele>239</ele>
        <time>2020-10-03T10:16:26.000Z</time>
      </trkpt>
      <trkpt lat="43.61116" lon="1.11828">
        <ele>239</ele>
        <time>2020-10-03T10:16:27.000Z</time>
      </trkpt>
      <trkpt lat="43.61117" lon="1.11824">
        <ele>239</ele>
        <time>2020-10-03T10:16:28.000Z</time>
      </trkpt>
      <trkpt lat="43.61117" lon="1.11819">
        <ele>239</ele>
        <time>2020-10-03T10:16:29.000Z</time>
      </trkpt>
      <trkpt lat="43.61118" lon="1.11814">
        <ele>239</ele>
        <time>2020-10-03T10:16:30.000Z</time>
      </trkpt>
      <trkpt lat="43.61119" lon="1.1181">
        <ele>239</ele>
        <time>2020-10-03T10:16:31.000Z</time>
      </trkpt>
      <trkpt lat="43.6112" lon="1.11806">
        <ele>238.1401775247</ele>
        <time>2020-10-03T10:16:32.000Z</time>
      </trkpt>
      <trkpt lat="43.61122" lon="1.11802">
        <ele>237</ele>
        <time>2020-10-03T10:16:33.000Z</time>
      </trkpt>
      <trkpt lat="43.61122" lon="1.11798">
        <ele>237</ele>
        <time>2020-10-03T10:16:34.000Z</time>
      </trkpt>
      <trkpt lat="43.61123" lon="1.11794">
        <ele>236.55435130435</ele>
        <time>2020-10-03T10:16:35.000Z</time>
      </trkpt>
      <trkpt lat="43.61124" lon="1.11789">
        <ele>236</ele>
        <time>2020-10-03T10:16:36.000Z</time>
      </trkpt>
      <trkpt lat="43.61124" lon="1.11785">
        <ele>236</ele>
        <time>2020-10-03T10:16:37.000Z</time>
      </trkpt>
      <trkpt lat="43.61125" lon="1.1178">
        <ele>235.65115794487</ele>
        <time>2020-10-03T10:16:38.000Z</time>
      </trkpt>
      <trkpt lat="43.61126" lon="1.11776">
        <ele>235</ele>
        <time>2020-10-03T10:16:39.000Z</time>
      </trkpt>
      <trkpt lat="43.61126" lon="1.11771">
        <ele>235</ele>
        <time>2020-10-03T10:16:40.000Z</time>
      </trkpt>
      <trkpt lat="43.61127" lon="1.11767">
        <ele>235</ele>
        <time>2020-10-03T10:16:41.000Z</time>
      </trkpt>
      <trkpt lat="43.61128" lon="1.11763">
        <ele>235</ele>
        <time>2020-10-03T10:16:42.000Z</time>
      </trkpt>
      <trkpt lat="43.61129" lon="1.11758">
        <ele>235</ele>
        <time>2020-10-03T10:16:43.000Z</time>
      </trkpt>
      <trkpt lat="43.61129" lon="1.11754">
        <ele>235</ele>
        <time>2020-10-03T10:16:44.000Z</time>
      </trkpt>
      <trkpt lat="43.6113" lon="1.11749">
        <ele>234.04761556466</ele>
        <time>2020-10-03T10:16:45.000Z</time>
      </trkpt>
      <trkpt lat="43.61131" lon="1.11746">
        <ele>233</ele>
        <time>2020-10-03T10:16:46.000Z</time>
      </trkpt>
      <trkpt lat="43.61132" lon="1.11742">
        <ele>233</ele>
        <time>2020-10-03T10:16:47.000Z</time>
      </trkpt>
      <trkpt lat="43.61133" lon="1.11739">
        <ele>232.58181479671</ele>
        <time>2020-10-03T10:16:48.000Z</time>
      </trkpt>
      <trkpt lat="43.61134" lon="1.11735">
        <ele>232</ele>
        <time>2020-10-03T10:16:49.000Z</time>
      </trkpt>
      <trkpt lat="43.61135" lon="1.11731">
        <ele>232</ele>
        <time>2020-10-03T10:16:50.000Z</time>
      </trkpt>
      <trkpt lat="43.61135" lon="1.11727">
        <ele>232</ele>
        <time>2020-10-03T10:16:51.000Z</time>
      </trkpt>
      <trkpt lat="43.61136" lon="1.11722">
        <ele>232</ele>
        <time>2020-10-03T10:16:52.000Z</time>
      </trkpt>
      <trkpt lat="43.61137" lon="1.11718">
        <ele>232</ele>
        <time>2020-10-03T10:16:53.000Z</time>
      </trkpt>
      <trkpt lat="43.61137" lon="1.11714">
        <ele>232</ele>
        <time>2020-10-03T10:16:54.000Z</time>
      </trkpt>
      <trkpt lat="43.61138" lon="1.1171">
        <ele>232</ele>
        <time>2020-10-03T10:16:55.000Z</time>
      </trkpt>
      <trkpt lat="43.61139" lon="1.11706">
        <ele>232</ele>
        <time>2020-10-03T10:16:56.000Z</time>
      </trkpt>
      <trkpt lat="43.6114" lon="1.11702">
        <ele>232</ele>
        <time>2020-10-03T10:16:57.000Z</time>
      </trkpt>
      <trkpt lat="43.61141" lon="1.11698">
        <ele>232.39773090909</ele>
        <time>2020-10-03T10:16:58.000Z</time>
      </trkpt>
      <trkpt lat="43.61142" lon="1.11694">
        <ele>233</ele>
        <time>2020-10-03T10:16:59.000Z</time>
      </trkpt>
      <trkpt lat="43.61143" lon="1.1169">
        <ele>233</ele>
        <time>2020-10-03T10:17:00.000Z</time>
      </trkpt>
      <trkpt lat="43.61143" lon="1.11686">
        <ele>233</ele>
        <time>2020-10-03T10:17:01.000Z</time>
      </trkpt>
      <trkpt lat="43.61144" lon="1.11683">
        <ele>233</ele>
        <time>2020-10-03T10:17:02.000Z</time>
      </trkpt>
      <trkpt lat="43.61145" lon="1.11679">
        <ele>233</ele>
        <time>2020-10-03T10:17:03.000Z</time>
      </trkpt>
      <trkpt lat="43.61146" lon="1.11675">
        <ele>233</ele>
        <time>2020-10-03T10:17:04.000Z</time>
      </trkpt>
      <trkpt lat="43.61146" lon="1.11671">
        <ele>233</ele>
        <time>2020-10-03T10:17:05.000Z</time>
      </trkpt>
      <trkpt lat="43.61147" lon="1.11667">
        <ele>233</ele>
        <time>2020-10-03T10:17:06.000Z</time>
      </trkpt>
      <trkpt lat="43.61148" lon="1.11663">
        <ele>233</ele>
        <time>2020-10-03T10:17:07.000Z</time>
      </trkpt>
      <trkpt lat="43.61149" lon="1.11659">
        <ele>233</ele>
        <time>2020-10-03T10:17:08.000Z</time>
      </trkpt>
      <trkpt lat="43.6115" lon="1.11655">
        <ele>233</ele>
        <time>2020-10-03T10:17:09.000Z</time>
      </trkpt>
      <trkpt lat="43.61151" lon="1.11651">
        <ele>233</ele>
        <time>2020-10-03T10:17:10.000Z</time>
      </trkpt>
      <trkpt lat="43.61152" lon="1.11647">
        <ele>233</ele>
        <time>2020-10-03T10:17:11.000Z</time>
      </trkpt>
      <trkpt lat="43.61153" lon="1.11643">
        <ele>233</ele>
        <time>2020-10-03T10:17:12.000Z</time>
      </trkpt>
      <trkpt lat="43.61154" lon="1.11639">
        <ele>233</ele>
        <time>2020-10-03T10:17:13.000Z</time>
      </trkpt>
      <trkpt lat="43.61155" lon="1.11636">
        <ele>232.78022055307</ele>
        <time>2020-10-03T10:17:14.000Z</time>
      </trkpt>
      <trkpt lat="43.61156" lon="1.11632">
        <ele>232</ele>
        <time>2020-10-03T10:17:15.000Z</time>
      </trkpt>
      <trkpt lat="43.61157" lon="1.11628">
        <ele>232</ele>
        <time>2020-10-03T10:17:16.000Z</time>
      </trkpt>
      <trkpt lat="43.61159" lon="1.11625">
        <ele>232</ele>
        <time>2020-10-03T10:17:17.000Z</time>
      </trkpt>
      <trkpt lat="43.6116" lon="1.11621">
        <ele>231.62727346777</ele>
        <time>2020-10-03T10:17:18.000Z</time>
      </trkpt>
      <trkpt lat="43.61161" lon="1.11617">
        <ele>231</ele>
        <time>2020-10-03T10:17:19.000Z</time>
      </trkpt>
      <trkpt lat="43.61162" lon="1.11613">
        <ele>231</ele>
        <time>2020-10-03T10:17:20.000Z</time>
      </trkpt>
      <trkpt lat="43.61164" lon="1.11609">
        <ele>231</ele>
        <time>2020-10-03T10:17:21.000Z</time>
      </trkpt>
      <trkpt lat="43.61165" lon="1.11606">
        <ele>231</ele>
        <time>2020-10-03T10:17:22.000Z</time>
      </trkpt>
      <trkpt lat="43.61167" lon="1.11602">
        <ele>230.62727346777</ele>
        <time>2020-10-03T10:17:23.000Z</time>
      </trkpt>
      <trkpt lat="43.61168" lon="1.11598">
        <ele>230</ele>
        <time>2020-10-03T10:17:24.000Z</time>
      </trkpt>
      <trkpt lat="43.61169" lon="1.11595">
        <ele>230</ele>
        <time>2020-10-03T10:17:25.000Z</time>
      </trkpt>
      <trkpt lat="43.6117" lon="1.11591">
        <ele>230</ele>
        <time>2020-10-03T10:17:26.000Z</time>
      </trkpt>
      <trkpt lat="43.61172" lon="1.11587">
        <ele>230</ele>
        <time>2020-10-03T10:17:27.000Z</time>
      </trkpt>
      <trkpt lat="43.61173" lon="1.11584">
        <ele>230</ele>
        <time>2020-10-03T10:17:28.000Z</time>
      </trkpt>
      <trkpt lat="43.61175" lon="1.1158">
        <ele>230</ele>
        <time>2020-10-03T10:17:29.000Z</time>
      </trkpt>
      <trkpt lat="43.61176" lon="1.11576">
        <ele>230.32031</ele>
        <time>2020-10-03T10:17:30.000Z</time>
      </trkpt>
      <trkpt lat="43.61178" lon="1.11573">
        <ele>231</ele>
        <time>2020-10-03T10:17:31.000Z</time>
      </trkpt>
      <trkpt lat="43.61179" lon="1.1157">
        <ele>231</ele>
        <time>2020-10-03T10:17:32.000Z</time>
      </trkpt>
      <trkpt lat="43.6118" lon="1.11566">
        <ele>231.86956521739</ele>
        <time>2020-10-03T10:17:33.000Z</time>
      </trkpt>
      <trkpt lat="43.61182" lon="1.11562">
        <ele>233</ele>
        <time>2020-10-03T10:17:34.000Z</time>
      </trkpt>
      <trkpt lat="43.61183" lon="1.11558">
        <ele>233</ele>
        <time>2020-10-03T10:17:35.000Z</time>
      </trkpt>
      <trkpt lat="43.61184" lon="1.11554">
        <ele>233</ele>
        <time>2020-10-03T10:17:36.000Z</time>
      </trkpt>
      <trkpt lat="43.61186" lon="1.1155">
        <ele>233</ele>
        <time>2020-10-03T10:17:37.000Z</time>
      </trkpt>
      <trkpt lat="43.61187" lon="1.11546">
        <ele>233</ele>
        <time>2020-10-03T10:17:38.000Z</time>
      </trkpt>
      <trkpt lat="43.61188" lon="1.11543">
        <ele>233</ele>
        <time>2020-10-03T10:17:39.000Z</time>
      </trkpt>
      <trkpt lat="43.61189" lon="1.11539">
        <ele>233</ele>
        <time>2020-10-03T10:17:40.000Z</time>
      </trkpt>
      <trkpt lat="43.6119" lon="1.11535">
        <ele>233</ele>
        <time>2020-10-03T10:17:41.000Z</time>
      </trkpt>
      <trkpt lat="43.61191" lon="1.11531">
        <ele>233</ele>
        <time>2020-10-03T10:17:42.000Z</time>
      </trkpt>
      <trkpt lat="43.61192" lon="1.11526">
        <ele>233</ele>
        <time>2020-10-03T10:17:43.000Z</time>
      </trkpt>
      <trkpt lat="43.61192" lon="1.11522">
        <ele>233</ele>
        <time>2020-10-03T10:17:44.000Z</time>
      </trkpt>
      <trkpt lat="43.61193" lon="1.11517">
        <ele>232.66292732738</ele>
        <time>2020-10-03T10:17:45.000Z</time>
      </trkpt>
      <trkpt lat="43.61193" lon="1.11512">
        <ele>232</ele>
        <time>2020-10-03T10:17:46.000Z</time>
      </trkpt>
      <trkpt lat="43.61194" lon="1.11508">
        <ele>232</ele>
        <time>2020-10-03T10:17:47.000Z</time>
      </trkpt>
      <trkpt lat="43.61194" lon="1.11504">
        <ele>232</ele>
        <time>2020-10-03T10:17:48.000Z</time>
      </trkpt>
      <trkpt lat="43.61195" lon="1.115">
        <ele>232</ele>
        <time>2020-10-03T10:17:49.000Z</time>
      </trkpt>
      <trkpt lat="43.61196" lon="1.11495">
        <ele>232</ele>
        <time>2020-10-03T10:17:50.000Z</time>
      </trkpt>
      <trkpt lat="43.61197" lon="1.11491">
        <ele>232</ele>
        <time>2020-10-03T10:17:51.000Z</time>
      </trkpt>
      <trkpt lat="43.61197" lon="1.11487">
        <ele>232</ele>
        <time>2020-10-03T10:17:52.000Z</time>
      </trkpt>
      <trkpt lat="43.61198" lon="1.11482">
        <ele>232</ele>
        <time>2020-10-03T10:17:53.000Z</time>
      </trkpt>
      <trkpt lat="43.61198" lon="1.11478">
        <ele>232</ele>
        <time>2020-10-03T10:17:54.000Z</time>
      </trkpt>
      <trkpt lat="43.61199" lon="1.11473">
        <ele>232</ele>
        <time>2020-10-03T10:17:55.000Z</time>
      </trkpt>
      <trkpt lat="43.61199" lon="1.11468">
        <ele>232</ele>
        <time>2020-10-03T10:17:56.000Z</time>
      </trkpt>
      <trkpt lat="43.612" lon="1.11464">
        <ele>232</ele>
        <time>2020-10-03T10:17:57.000Z</time>
      </trkpt>
      <trkpt lat="43.61201" lon="1.11459">
        <ele>231.64101217631</ele>
        <time>2020-10-03T10:17:58.000Z</time>
      </trkpt>
      <trkpt lat="43.61202" lon="1.11454">
        <ele>230</ele>
        <time>2020-10-03T10:17:59.000Z</time>
      </trkpt>
      <trkpt lat="43.61203" lon="1.1145">
        <ele>230</ele>
        <time>2020-10-03T10:18:00.000Z</time>
      </trkpt>
      <trkpt lat="43.61204" lon="1.11445">
        <ele>230</ele>
        <time>2020-10-03T10:18:01.000Z</time>
      </trkpt>
      <trkpt lat="43.61204" lon="1.11441">
        <ele>230</ele>
        <time>2020-10-03T10:18:02.000Z</time>
      </trkpt>
      <trkpt lat="43.61205" lon="1.11436">
        <ele>229.67415972732</ele>
        <time>2020-10-03T10:18:03.000Z</time>
      </trkpt>
      <trkpt lat="43.61206" lon="1.11431">
        <ele>229</ele>
        <time>2020-10-03T10:18:04.000Z</time>
      </trkpt>
      <trkpt lat="43.61207" lon="1.11426">
        <ele>229</ele>
        <time>2020-10-03T10:18:05.000Z</time>
      </trkpt>
      <trkpt lat="43.61208" lon="1.11422">
        <ele>228.25454693555</ele>
        <time>2020-10-03T10:18:06.000Z</time>
      </trkpt>
      <trkpt lat="43.6121" lon="1.11417">
        <ele>227</ele>
        <time>2020-10-03T10:18:07.000Z</time>
      </trkpt>
      <trkpt lat="43.61211" lon="1.11413">
        <ele>227</ele>
        <time>2020-10-03T10:18:08.000Z</time>
      </trkpt>
      <trkpt lat="43.61213" lon="1.11408">
        <ele>227</ele>
        <time>2020-10-03T10:18:09.000Z</time>
      </trkpt>
      <trkpt lat="43.61214" lon="1.11404">
        <ele>226.5377360769</ele>
        <time>2020-10-03T10:18:10.000Z</time>
      </trkpt>
      <trkpt lat="43.61215" lon="1.114">
        <ele>226</ele>
        <time>2020-10-03T10:18:11.000Z</time>
      </trkpt>
      <trkpt lat="43.61216" lon="1.11395">
        <ele>226</ele>
        <time>2020-10-03T10:18:12.000Z</time>
      </trkpt>
      <trkpt lat="43.61217" lon="1.11391">
        <ele>225.25454693555</ele>
        <time>2020-10-03T10:18:13.000Z</time>
      </trkpt>
      <trkpt lat="43.61218" lon="1.11387">
        <ele>224</ele>
        <time>2020-10-03T10:18:14.000Z</time>
      </trkpt>
      <trkpt lat="43.6122" lon="1.11383">
        <ele>224</ele>
        <time>2020-10-03T10:18:15.000Z</time>
      </trkpt>
      <trkpt lat="43.61221" lon="1.11378">
        <ele>224</ele>
        <time>2020-10-03T10:18:16.000Z</time>
      </trkpt>
      <trkpt lat="43.61222" lon="1.11374">
        <ele>224</ele>
        <time>2020-10-03T10:18:17.000Z</time>
      </trkpt>
      <trkpt lat="43.61223" lon="1.11369">
        <ele>223</ele>
        <time>2020-10-03T10:18:18.000Z</time>
      </trkpt>
      <trkpt lat="43.61224" lon="1.11365">
        <ele>223</ele>
        <time>2020-10-03T10:18:19.000Z</time>
      </trkpt>
      <trkpt lat="43.61225" lon="1.11361">
        <ele>223</ele>
        <time>2020-10-03T10:18:20.000Z</time>
      </trkpt>
      <trkpt lat="43.61226" lon="1.11356">
        <ele>222.65555444939</ele>
        <time>2020-10-03T10:18:21.000Z</time>
      </trkpt>
      <trkpt lat="43.61227" lon="1.11352">
        <ele>222</ele>
        <time>2020-10-03T10:18:22.000Z</time>
      </trkpt>
      <trkpt lat="43.61229" lon="1.11347">
        <ele>221.67618734153</ele>
        <time>2020-10-03T10:18:23.000Z</time>
      </trkpt>
      <trkpt lat="43.6123" lon="1.11343">
        <ele>221</ele>
        <time>2020-10-03T10:18:24.000Z</time>
      </trkpt>
      <trkpt lat="43.61232" lon="1.11339">
        <ele>221</ele>
        <time>2020-10-03T10:18:25.000Z</time>
      </trkpt>
      <trkpt lat="43.61233" lon="1.11334">
        <ele>221</ele>
        <time>2020-10-03T10:18:26.000Z</time>
      </trkpt>
      <trkpt lat="43.61234" lon="1.1133">
        <ele>221</ele>
        <time>2020-10-03T10:18:27.000Z</time>
      </trkpt>
      <trkpt lat="43.61236" lon="1.11326">
        <ele>220.65516632583</ele>
        <time>2020-10-03T10:18:28.000Z</time>
      </trkpt>
      <trkpt lat="43.61237" lon="1.11323">
        <ele>220</ele>
        <time>2020-10-03T10:18:29.000Z</time>
      </trkpt>
      <trkpt lat="43.61238" lon="1.11319">
        <ele>220</ele>
        <time>2020-10-03T10:18:30.000Z</time>
      </trkpt>
      <trkpt lat="43.61239" lon="1.11314">
        <ele>220</ele>
        <time>2020-10-03T10:18:31.000Z</time>
      </trkpt>
      <trkpt lat="43.6124" lon="1.1131">
        <ele>220</ele>
        <time>2020-10-03T10:18:32.000Z</time>
      </trkpt>
      <trkpt lat="43.61241" lon="1.11305">
        <ele>220</ele>
        <time>2020-10-03T10:18:33.000Z</time>
      </trkpt>
      <trkpt lat="43.61242" lon="1.113">
        <ele>220</ele>
        <time>2020-10-03T10:18:34.000Z</time>
      </trkpt>
      <trkpt lat="43.61243" lon="1.11295">
        <ele>219.47058823529</ele>
        <time>2020-10-03T10:18:35.000Z</time>
      </trkpt>
      <trkpt lat="43.61244" lon="1.11291">
        <ele>218</ele>
        <time>2020-10-03T10:18:36.000Z</time>
      </trkpt>
      <trkpt lat="43.61245" lon="1.11286">
        <ele>218</ele>
        <time>2020-10-03T10:18:37.000Z</time>
      </trkpt>
      <trkpt lat="43.61247" lon="1.11282">
        <ele>218</ele>
        <time>2020-10-03T10:18:38.000Z</time>
      </trkpt>
      <trkpt lat="43.61248" lon="1.11278">
        <ele>217.63551211809</ele>
        <time>2020-10-03T10:18:39.000Z</time>
      </trkpt>
      <trkpt lat="43.61249" lon="1.11274">
        <ele>217</ele>
        <time>2020-10-03T10:18:40.000Z</time>
      </trkpt>
      <trkpt lat="43.61251" lon="1.1127">
        <ele>217</ele>
        <time>2020-10-03T10:18:41.000Z</time>
      </trkpt>
      <trkpt lat="43.61252" lon="1.11266">
        <ele>217</ele>
        <time>2020-10-03T10:18:42.000Z</time>
      </trkpt>
      <trkpt lat="43.61253" lon="1.11262">
        <ele>217</ele>
        <time>2020-10-03T10:18:43.000Z</time>
      </trkpt>
      <trkpt lat="43.61255" lon="1.11258">
        <ele>217</ele>
        <time>2020-10-03T10:18:44.000Z</time>
      </trkpt>
      <trkpt lat="43.61256" lon="1.11254">
        <ele>216.56481185185</ele>
        <time>2020-10-03T10:18:45.000Z</time>
      </trkpt>
      <trkpt lat="43.61257" lon="1.11251">
        <ele>216</ele>
        <time>2020-10-03T10:18:46.000Z</time>
      </trkpt>
      <trkpt lat="43.61259" lon="1.11246">
        <ele>216</ele>
        <time>2020-10-03T10:18:47.000Z</time>
      </trkpt>
      <trkpt lat="43.6126" lon="1.11242">
        <ele>216</ele>
        <time>2020-10-03T10:18:48.000Z</time>
      </trkpt>
      <trkpt lat="43.61261" lon="1.11238">
        <ele>216</ele>
        <time>2020-10-03T10:18:49.000Z</time>
      </trkpt>
      <trkpt lat="43.61262" lon="1.11234">
        <ele>216</ele>
        <time>2020-10-03T10:18:50.000Z</time>
      </trkpt>
      <trkpt lat="43.61263" lon="1.1123">
        <ele>216.28282736864</ele>
        <time>2020-10-03T10:18:51.000Z</time>
      </trkpt>
      <trkpt lat="43.61264" lon="1.11225">
        <ele>217</ele>
        <time>2020-10-03T10:18:52.000Z</time>
      </trkpt>
      <trkpt lat="43.61265" lon="1.11221">
        <ele>216.56842005982</ele>
        <time>2020-10-03T10:18:53.000Z</time>
      </trkpt>
      <trkpt lat="43.61266" lon="1.11217">
        <ele>216</ele>
        <time>2020-10-03T10:18:54.000Z</time>
      </trkpt>
      <trkpt lat="43.61267" lon="1.11214">
        <ele>216</ele>
        <time>2020-10-03T10:18:55.000Z</time>
      </trkpt>
      <trkpt lat="43.61268" lon="1.1121">
        <ele>216</ele>
        <time>2020-10-03T10:18:56.000Z</time>
      </trkpt>
      <trkpt lat="43.6127" lon="1.11206">
        <ele>215.60975914334</ele>
        <time>2020-10-03T10:18:57.000Z</time>
      </trkpt>
      <trkpt lat="43.61271" lon="1.11201">
        <ele>215</ele>
        <time>2020-10-03T10:18:58.000Z</time>
      </trkpt>
      <trkpt lat="43.61272" lon="1.11197">
        <ele>215</ele>
        <time>2020-10-03T10:18:59.000Z</time>
      </trkpt>
      <trkpt lat="43.61273" lon="1.11193">
        <ele>215.32967620334</ele>
        <time>2020-10-03T10:19:00.000Z</time>
      </trkpt>
      <trkpt lat="43.61274" lon="1.11189">
        <ele>216</ele>
        <time>2020-10-03T10:19:01.000Z</time>
      </trkpt>
      <trkpt lat="43.61275" lon="1.11185">
        <ele>216</ele>
        <time>2020-10-03T10:19:02.000Z</time>
      </trkpt>
      <trkpt lat="43.61276" lon="1.11181">
        <ele>216</ele>
        <time>2020-10-03T10:19:03.000Z</time>
      </trkpt>
      <trkpt lat="43.61277" lon="1.11177">
        <ele>216</ele>
        <time>2020-10-03T10:19:04.000Z</time>
      </trkpt>
      <trkpt lat="43.61278" lon="1.11172">
        <ele>216</ele>
        <time>2020-10-03T10:19:05.000Z</time>
      </trkpt>
      <trkpt lat="43.61279" lon="1.11169">
        <ele>216</ele>
        <time>2020-10-03T10:19:06.000Z</time>
      </trkpt>
      <trkpt lat="43.6128" lon="1.11165">
        <ele>216</ele>
        <time>2020-10-03T10:19:07.000Z</time>
      </trkpt>
      <trkpt lat="43.61282" lon="1.11161">
        <ele>215.55357714286</ele>
        <time>2020-10-03T10:19:08.000Z</time>
      </trkpt>
      <trkpt lat="43.61283" lon="1.11157">
        <ele>215</ele>
        <time>2020-10-03T10:19:09.000Z</time>
      </trkpt>
      <trkpt lat="43.61284" lon="1.11153">
        <ele>215</ele>
        <time>2020-10-03T10:19:10.000Z</time>
      </trkpt>
      <trkpt lat="43.61285" lon="1.11148">
        <ele>215</ele>
        <time>2020-10-03T10:19:11.000Z</time>
      </trkpt>
      <trkpt lat="43.61287" lon="1.11144">
        <ele>215</ele>
        <time>2020-10-03T10:19:12.000Z</time>
      </trkpt>
      <trkpt lat="43.61288" lon="1.1114">
        <ele>215</ele>
        <time>2020-10-03T10:19:13.000Z</time>
      </trkpt>
      <trkpt lat="43.61289" lon="1.11136">
        <ele>215</ele>
        <time>2020-10-03T10:19:14.000Z</time>
      </trkpt>
      <trkpt lat="43.6129" lon="1.11132">
        <ele>215</ele>
        <time>2020-10-03T10:19:15.000Z</time>
      </trkpt>
      <trkpt lat="43.61291" lon="1.11128">
        <ele>215</ele>
        <time>2020-10-03T10:19:16.000Z</time>
      </trkpt>
      <trkpt lat="43.61293" lon="1.11125">
        <ele>214.73584746172</ele>
        <time>2020-10-03T10:19:17.000Z</time>
      </trkpt>
      <trkpt lat="43.61294" lon="1.11121">
        <ele>214</ele>
        <time>2020-10-03T10:19:18.000Z</time>
      </trkpt>
      <trkpt lat="43.61296" lon="1.11118">
        <ele>214</ele>
        <time>2020-10-03T10:19:19.000Z</time>
      </trkpt>
      <trkpt lat="43.61297" lon="1.11114">
        <ele>213.5663732853</ele>
        <time>2020-10-03T10:19:20.000Z</time>
      </trkpt>
      <trkpt lat="43.61299" lon="1.11111">
        <ele>213</ele>
        <time>2020-10-03T10:19:21.000Z</time>
      </trkpt>
      <trkpt lat="43.61301" lon="1.11107">
        <ele>213</ele>
        <time>2020-10-03T10:19:22.000Z</time>
      </trkpt>
      <trkpt lat="43.61302" lon="1.11104">
        <ele>212.54347765596</ele>
        <time>2020-10-03T10:19:23.000Z</time>
      </trkpt>
      <trkpt lat="43.61304" lon="1.11101">
        <ele>212</ele>
        <time>2020-10-03T10:19:24.000Z</time>
      </trkpt>
      <trkpt lat="43.61306" lon="1.11098">
        <ele>212</ele>
        <time>2020-10-03T10:19:25.000Z</time>
      </trkpt>
      <trkpt lat="43.61307" lon="1.11094">
        <ele>212</ele>
        <time>2020-10-03T10:19:26.000Z</time>
      </trkpt>
      <trkpt lat="43.61309" lon="1.1109">
        <ele>212</ele>
        <time>2020-10-03T10:19:27.000Z</time>
      </trkpt>
      <trkpt lat="43.6131" lon="1.11086">
        <ele>212</ele>
        <time>2020-10-03T10:19:28.000Z</time>
      </trkpt>
      <trkpt lat="43.61312" lon="1.11082">
        <ele>212</ele>
        <time>2020-10-03T10:19:29.000Z</time>
      </trkpt>
      <trkpt lat="43.61314" lon="1.11078">
        <ele>211.5545457719</ele>
        <time>2020-10-03T10:19:30.000Z</time>
      </trkpt>
      <trkpt lat="43.61315" lon="1.11074">
        <ele>211</ele>
        <time>2020-10-03T10:19:31.000Z</time>
      </trkpt>
      <trkpt lat="43.61317" lon="1.11069">
        <ele>211</ele>
        <time>2020-10-03T10:19:32.000Z</time>
      </trkpt>
      <trkpt lat="43.61319" lon="1.11066">
        <ele>211</ele>
        <time>2020-10-03T10:19:33.000Z</time>
      </trkpt>
      <trkpt lat="43.61321" lon="1.11063">
        <ele>211</ele>
        <time>2020-10-03T10:19:34.000Z</time>
      </trkpt>
      <trkpt lat="43.61323" lon="1.1106">
        <ele>211</ele>
        <time>2020-10-03T10:19:35.000Z</time>
      </trkpt>
      <trkpt lat="43.61325" lon="1.11057">
        <ele>211</ele>
        <time>2020-10-03T10:19:36.000Z</time>
      </trkpt>
      <trkpt lat="43.61327" lon="1.11054">
        <ele>211</ele>
        <time>2020-10-03T10:19:37.000Z</time>
      </trkpt>
      <trkpt lat="43.61329" lon="1.11051">
        <ele>211</ele>
        <time>2020-10-03T10:19:38.000Z</time>
      </trkpt>
      <trkpt lat="43.6133" lon="1.11047">
        <ele>211</ele>
        <time>2020-10-03T10:19:39.000Z</time>
      </trkpt>
      <trkpt lat="43.61332" lon="1.11044">
        <ele>211</ele>
        <time>2020-10-03T10:19:40.000Z</time>
      </trkpt>
      <trkpt lat="43.61334" lon="1.11041">
        <ele>211</ele>
        <time>2020-10-03T10:19:41.000Z</time>
      </trkpt>
      <trkpt lat="43.61336" lon="1.11037">
        <ele>211</ele>
        <time>2020-10-03T10:19:42.000Z</time>
      </trkpt>
      <trkpt lat="43.61338" lon="1.11033">
        <ele>210.64044814543</ele>
        <time>2020-10-03T10:19:43.000Z</time>
      </trkpt>
      <trkpt lat="43.6134" lon="1.1103">
        <ele>210</ele>
        <time>2020-10-03T10:19:44.000Z</time>
      </trkpt>
      <trkpt lat="43.61342" lon="1.11027">
        <ele>209.65909818182</ele>
        <time>2020-10-03T10:19:45.000Z</time>
      </trkpt>
      <trkpt lat="43.61345" lon="1.11024">
        <ele>209</ele>
        <time>2020-10-03T10:19:46.000Z</time>
      </trkpt>
      <trkpt lat="43.61347" lon="1.11021">
        <ele>208.66292732738</ele>
        <time>2020-10-03T10:19:47.000Z</time>
      </trkpt>
      <trkpt lat="43.61348" lon="1.11017">
        <ele>208</ele>
        <time>2020-10-03T10:19:48.000Z</time>
      </trkpt>
      <trkpt lat="43.6135" lon="1.11014">
        <ele>208.33707267262</ele>
        <time>2020-10-03T10:19:49.000Z</time>
      </trkpt>
      <trkpt lat="43.61352" lon="1.1101">
        <ele>209</ele>
        <time>2020-10-03T10:19:50.000Z</time>
      </trkpt>
      <trkpt lat="43.61353" lon="1.11006">
        <ele>209</ele>
        <time>2020-10-03T10:19:51.000Z</time>
      </trkpt>
      <trkpt lat="43.61355" lon="1.11003">
        <ele>209</ele>
        <time>2020-10-03T10:19:52.000Z</time>
      </trkpt>
      <trkpt lat="43.61357" lon="1.11">
        <ele>209</ele>
        <time>2020-10-03T10:19:53.000Z</time>
      </trkpt>
      <trkpt lat="43.61359" lon="1.10996">
        <ele>209</ele>
        <time>2020-10-03T10:19:54.000Z</time>
      </trkpt>
      <trkpt lat="43.61361" lon="1.10993">
        <ele>209</ele>
        <time>2020-10-03T10:19:55.000Z</time>
      </trkpt>
      <trkpt lat="43.61362" lon="1.10989">
        <ele>209</ele>
        <time>2020-10-03T10:19:56.000Z</time>
      </trkpt>
      <trkpt lat="43.61364" lon="1.10986">
        <ele>208.50980072282</ele>
        <time>2020-10-03T10:19:57.000Z</time>
      </trkpt>
      <trkpt lat="43.61366" lon="1.10983">
        <ele>208</ele>
        <time>2020-10-03T10:19:58.000Z</time>
      </trkpt>
      <trkpt lat="43.61367" lon="1.1098">
        <ele>208</ele>
        <time>2020-10-03T10:19:59.000Z</time>
      </trkpt>
      <trkpt lat="43.61369" lon="1.10977">
        <ele>208.2222264362</ele>
        <time>2020-10-03T10:20:00.000Z</time>
      </trkpt>
      <trkpt lat="43.61371" lon="1.10973">
        <ele>208.96296542112</ele>
        <time>2020-10-03T10:20:01.000Z</time>
      </trkpt>
      <trkpt lat="43.61372" lon="1.10969">
        <ele>209</ele>
        <time>2020-10-03T10:20:02.000Z</time>
      </trkpt>
      <trkpt lat="43.61373" lon="1.10966">
        <ele>209</ele>
        <time>2020-10-03T10:20:03.000Z</time>
      </trkpt>
      <trkpt lat="43.61375" lon="1.10962">
        <ele>208.5663732853</ele>
        <time>2020-10-03T10:20:04.000Z</time>
      </trkpt>
      <trkpt lat="43.61376" lon="1.10958">
        <ele>208</ele>
        <time>2020-10-03T10:20:05.000Z</time>
      </trkpt>
      <trkpt lat="43.61377" lon="1.10955">
        <ele>208.25438458602</ele>
        <time>2020-10-03T10:20:06.000Z</time>
      </trkpt>
      <trkpt lat="43.61378" lon="1.10951">
        <ele>209</ele>
        <time>2020-10-03T10:20:07.000Z</time>
      </trkpt>
      <trkpt lat="43.61379" lon="1.10947">
        <ele>209</ele>
        <time>2020-10-03T10:20:08.000Z</time>
      </trkpt>
      <trkpt lat="43.6138" lon="1.10943">
        <ele>209</ele>
        <time>2020-10-03T10:20:09.000Z</time>
      </trkpt>
      <trkpt lat="43.6138" lon="1.10939">
        <ele>209</ele>
        <time>2020-10-03T10:20:10.000Z</time>
      </trkpt>
      <trkpt lat="43.61381" lon="1.10934">
        <ele>208.71052986156</ele>
        <time>2020-10-03T10:20:11.000Z</time>
      </trkpt>
      <trkpt lat="43.6138" lon="1.1093">
        <ele>208</ele>
        <time>2020-10-03T10:20:12.000Z</time>
      </trkpt>
      <trkpt lat="43.6138" lon="1.10925">
        <ele>208</ele>
        <time>2020-10-03T10:20:13.000Z</time>
      </trkpt>
      <trkpt lat="43.61381" lon="1.10921">
        <ele>207.62385504251</ele>
        <time>2020-10-03T10:20:14.000Z</time>
      </trkpt>
      <trkpt lat="43.61381" lon="1.10917">
        <ele>207</ele>
        <time>2020-10-03T10:20:15.000Z</time>
      </trkpt>
      <trkpt lat="43.6138" lon="1.10913">
        <ele>207</ele>
        <time>2020-10-03T10:20:16.000Z</time>
      </trkpt>
      <trkpt lat="43.61379" lon="1.10909">
        <ele>207</ele>
        <time>2020-10-03T10:20:17.000Z</time>
      </trkpt>
      <trkpt lat="43.61379" lon="1.10905">
        <ele>207.49504473677</ele>
        <time>2020-10-03T10:20:18.000Z</time>
      </trkpt>
      <trkpt lat="43.61379" lon="1.10901">
        <ele>208</ele>
        <time>2020-10-03T10:20:19.000Z</time>
      </trkpt>
      <trkpt lat="43.61379" lon="1.10896">
        <ele>208</ele>
        <time>2020-10-03T10:20:20.000Z</time>
      </trkpt>
      <trkpt lat="43.61379" lon="1.10892">
        <ele>208</ele>
        <time>2020-10-03T10:20:21.000Z</time>
      </trkpt>
      <trkpt lat="43.61379" lon="1.10888">
        <ele>208</ele>
        <time>2020-10-03T10:20:22.000Z</time>
      </trkpt>
      <trkpt lat="43.61378" lon="1.10884">
        <ele>207.66666301993</ele>
        <time>2020-10-03T10:20:23.000Z</time>
      </trkpt>
      <trkpt lat="43.61378" lon="1.10879">
        <ele>207</ele>
        <time>2020-10-03T10:20:24.000Z</time>
      </trkpt>
      <trkpt lat="43.61379" lon="1.10875">
        <ele>207</ele>
        <time>2020-10-03T10:20:25.000Z</time>
      </trkpt>
      <trkpt lat="43.61379" lon="1.10871">
        <ele>207.68183272727</ele>
        <time>2020-10-03T10:20:26.000Z</time>
      </trkpt>
      <trkpt lat="43.6138" lon="1.10867">
        <ele>209</ele>
        <time>2020-10-03T10:20:27.000Z</time>
      </trkpt>
      <trkpt lat="43.61381" lon="1.10862">
        <ele>209</ele>
        <time>2020-10-03T10:20:28.000Z</time>
      </trkpt>
      <trkpt lat="43.61381" lon="1.10858">
        <ele>209</ele>
        <time>2020-10-03T10:20:29.000Z</time>
      </trkpt>
      <trkpt lat="43.61382" lon="1.10853">
        <ele>209</ele>
        <time>2020-10-03T10:20:30.000Z</time>
      </trkpt>
      <trkpt lat="43.61384" lon="1.1085">
        <ele>209</ele>
        <time>2020-10-03T10:20:31.000Z</time>
      </trkpt>
      <trkpt lat="43.61386" lon="1.10847">
        <ele>209</ele>
        <time>2020-10-03T10:20:32.000Z</time>
      </trkpt>
      <trkpt lat="43.61387" lon="1.10843">
        <ele>208.62962962963</ele>
        <time>2020-10-03T10:20:33.000Z</time>
      </trkpt>
      <trkpt lat="43.61389" lon="1.10839">
        <ele>208</ele>
        <time>2020-10-03T10:20:34.000Z</time>
      </trkpt>
      <trkpt lat="43.6139" lon="1.10835">
        <ele>207.67045818182</ele>
        <time>2020-10-03T10:20:35.000Z</time>
      </trkpt>
      <trkpt lat="43.61391" lon="1.10831">
        <ele>207</ele>
        <time>2020-10-03T10:20:36.000Z</time>
      </trkpt>
      <trkpt lat="43.61393" lon="1.10826">
        <ele>207</ele>
        <time>2020-10-03T10:20:37.000Z</time>
      </trkpt>
      <trkpt lat="43.61394" lon="1.10822">
        <ele>207</ele>
        <time>2020-10-03T10:20:38.000Z</time>
      </trkpt>
      <trkpt lat="43.61396" lon="1.10818">
        <ele>206.92647529412</ele>
        <time>2020-10-03T10:20:39.000Z</time>
      </trkpt>
      <trkpt lat="43.61397" lon="1.10814">
        <ele>206</ele>
        <time>2020-10-03T10:20:40.000Z</time>
      </trkpt>
      <trkpt lat="43.61399" lon="1.1081">
        <ele>206</ele>
        <time>2020-10-03T10:20:41.000Z</time>
      </trkpt>
      <trkpt lat="43.614" lon="1.10806">
        <ele>205.66990604961</ele>
        <time>2020-10-03T10:20:42.000Z</time>
      </trkpt>
      <trkpt lat="43.61402" lon="1.10802">
        <ele>205</ele>
        <time>2020-10-03T10:20:43.000Z</time>
      </trkpt>
      <trkpt lat="43.61403" lon="1.10799">
        <ele>205</ele>
        <time>2020-10-03T10:20:44.000Z</time>
      </trkpt>
      <trkpt lat="43.61405" lon="1.10795">
        <ele>204.59406128812</ele>
        <time>2020-10-03T10:20:45.000Z</time>
      </trkpt>
      <trkpt lat="43.61406" lon="1.1079">
        <ele>204</ele>
        <time>2020-10-03T10:20:46.000Z</time>
      </trkpt>
      <trkpt lat="43.61407" lon="1.10786">
        <ele>204</ele>
        <time>2020-10-03T10:20:47.000Z</time>
      </trkpt>
      <trkpt lat="43.61408" lon="1.10782">
        <ele>204</ele>
        <time>2020-10-03T10:20:48.000Z</time>
      </trkpt>
      <trkpt lat="43.61409" lon="1.10778">
        <ele>204</ele>
        <time>2020-10-03T10:20:49.000Z</time>
      </trkpt>
      <trkpt lat="43.61409" lon="1.10773">
        <ele>204</ele>
        <time>2020-10-03T10:20:50.000Z</time>
      </trkpt>
      <trkpt lat="43.6141" lon="1.10769">
        <ele>204</ele>
        <time>2020-10-03T10:20:51.000Z</time>
      </trkpt>
      <trkpt lat="43.61412" lon="1.10764">
        <ele>204</ele>
        <time>2020-10-03T10:20:52.000Z</time>
      </trkpt>
      <trkpt lat="43.61413" lon="1.1076">
        <ele>204</ele>
        <time>2020-10-03T10:20:53.000Z</time>
      </trkpt>
      <trkpt lat="43.61414" lon="1.10755">
        <ele>204</ele>
        <time>2020-10-03T10:20:54.000Z</time>
      </trkpt>
      <trkpt lat="43.61415" lon="1.1075">
        <ele>204</ele>
        <time>2020-10-03T10:20:55.000Z</time>
      </trkpt>
      <trkpt lat="43.61415" lon="1.10745">
        <ele>202.64834793862</ele>
        <time>2020-10-03T10:20:56.000Z</time>
      </trkpt>
      <trkpt lat="43.61415" lon="1.1074">
        <ele>201</ele>
        <time>2020-10-03T10:20:57.000Z</time>
      </trkpt>
      <trkpt lat="43.61415" lon="1.10736">
        <ele>201</ele>
        <time>2020-10-03T10:20:58.000Z</time>
      </trkpt>
      <trkpt lat="43.61415" lon="1.10731">
        <ele>201</ele>
        <time>2020-10-03T10:20:59.000Z</time>
      </trkpt>
      <trkpt lat="43.61415" lon="1.10727">
        <ele>201</ele>
        <time>2020-10-03T10:21:00.000Z</time>
      </trkpt>
      <trkpt lat="43.61415" lon="1.10722">
        <ele>201</ele>
        <time>2020-10-03T10:21:01.000Z</time>
      </trkpt>
      <trkpt lat="43.61416" lon="1.10718">
        <ele>201</ele>
        <time>2020-10-03T10:21:02.000Z</time>
      </trkpt>
      <trkpt lat="43.61415" lon="1.10714">
        <ele>201</ele>
        <time>2020-10-03T10:21:03.000Z</time>
      </trkpt>
      <trkpt lat="43.61415" lon="1.10709">
        <ele>201</ele>
        <time>2020-10-03T10:21:04.000Z</time>
      </trkpt>
      <trkpt lat="43.61415" lon="1.10704">
        <ele>201</ele>
        <time>2020-10-03T10:21:05.000Z</time>
      </trkpt>
      <trkpt lat="43.61414" lon="1.10699">
        <ele>200.54128892855</ele>
        <time>2020-10-03T10:21:06.000Z</time>
      </trkpt>
      <trkpt lat="43.61414" lon="1.10695">
        <ele>200</ele>
        <time>2020-10-03T10:21:07.000Z</time>
      </trkpt>
      <trkpt lat="43.61414" lon="1.10691">
        <ele>199.8932011085</ele>
        <time>2020-10-03T10:21:08.000Z</time>
      </trkpt>
      <trkpt lat="43.61414" lon="1.10686">
        <ele>199</ele>
        <time>2020-10-03T10:21:09.000Z</time>
      </trkpt>
      <trkpt lat="43.61414" lon="1.10682">
        <ele>199</ele>
        <time>2020-10-03T10:21:10.000Z</time>
      </trkpt>
      <trkpt lat="43.61415" lon="1.10677">
        <ele>199</ele>
        <time>2020-10-03T10:21:11.000Z</time>
      </trkpt>
      <trkpt lat="43.61415" lon="1.10673">
        <ele>199</ele>
        <time>2020-10-03T10:21:12.000Z</time>
      </trkpt>
      <trkpt lat="43.61415" lon="1.10669">
        <ele>199</ele>
        <time>2020-10-03T10:21:13.000Z</time>
      </trkpt>
      <trkpt lat="43.61415" lon="1.10665">
        <ele>199</ele>
        <time>2020-10-03T10:21:14.000Z</time>
      </trkpt>
      <trkpt lat="43.61416" lon="1.1066">
        <ele>199</ele>
        <time>2020-10-03T10:21:15.000Z</time>
      </trkpt>
      <trkpt lat="43.61417" lon="1.10656">
        <ele>199</ele>
        <time>2020-10-03T10:21:16.000Z</time>
      </trkpt>
      <trkpt lat="43.61418" lon="1.10652">
        <ele>199</ele>
        <time>2020-10-03T10:21:17.000Z</time>
      </trkpt>
      <trkpt lat="43.61418" lon="1.10648">
        <ele>199</ele>
        <time>2020-10-03T10:21:18.000Z</time>
      </trkpt>
      <trkpt lat="43.61419" lon="1.10644">
        <ele>199</ele>
        <time>2020-10-03T10:21:19.000Z</time>
      </trkpt>
      <trkpt lat="43.6142" lon="1.1064">
        <ele>199</ele>
        <time>2020-10-03T10:21:20.000Z</time>
      </trkpt>
      <trkpt lat="43.61421" lon="1.10635">
        <ele>199</ele>
        <time>2020-10-03T10:21:21.000Z</time>
      </trkpt>
      <trkpt lat="43.61422" lon="1.10631">
        <ele>199</ele>
        <time>2020-10-03T10:21:22.000Z</time>
      </trkpt>
      <trkpt lat="43.61424" lon="1.10627">
        <ele>199</ele>
        <time>2020-10-03T10:21:23.000Z</time>
      </trkpt>
      <trkpt lat="43.61425" lon="1.10624">
        <ele>199</ele>
        <time>2020-10-03T10:21:24.000Z</time>
      </trkpt>
      <trkpt lat="43.61426" lon="1.10619">
        <ele>199</ele>
        <time>2020-10-03T10:21:25.000Z</time>
      </trkpt>
      <trkpt lat="43.61427" lon="1.10615">
        <ele>199</ele>
        <time>2020-10-03T10:21:26.000Z</time>
      </trkpt>
      <trkpt lat="43.61428" lon="1.10611">
        <ele>199</ele>
        <time>2020-10-03T10:21:27.000Z</time>
      </trkpt>
      <trkpt lat="43.61429" lon="1.10608">
        <ele>199</ele>
        <time>2020-10-03T10:21:28.000Z</time>
      </trkpt>
      <trkpt lat="43.61431" lon="1.10605">
        <ele>199</ele>
        <time>2020-10-03T10:21:29.000Z</time>
      </trkpt>
      <trkpt lat="43.61432" lon="1.10601">
        <ele>199</ele>
        <time>2020-10-03T10:21:30.000Z</time>
      </trkpt>
      <trkpt lat="43.61434" lon="1.10597">
        <ele>199</ele>
        <time>2020-10-03T10:21:31.000Z</time>
      </trkpt>
      <trkpt lat="43.61435" lon="1.10594">
        <ele>199</ele>
        <time>2020-10-03T10:21:32.000Z</time>
      </trkpt>
      <trkpt lat="43.61437" lon="1.10591">
        <ele>199</ele>
        <time>2020-10-03T10:21:33.000Z</time>
      </trkpt>
      <trkpt lat="43.61439" lon="1.10588">
        <ele>199</ele>
        <time>2020-10-03T10:21:34.000Z</time>
      </trkpt>
      <trkpt lat="43.61441" lon="1.10585">
        <ele>199</ele>
        <time>2020-10-03T10:21:35.000Z</time>
      </trkpt>
      <trkpt lat="43.61443" lon="1.10582">
        <ele>199</ele>
        <time>2020-10-03T10:21:36.000Z</time>
      </trkpt>
      <trkpt lat="43.61445" lon="1.10579">
        <ele>198.5901608385</ele>
        <time>2020-10-03T10:21:37.000Z</time>
      </trkpt>
      <trkpt lat="43.61447" lon="1.10575">
        <ele>198</ele>
        <time>2020-10-03T10:21:38.000Z</time>
      </trkpt>
      <trkpt lat="43.61449" lon="1.10572">
        <ele>197.59803983084</ele>
        <time>2020-10-03T10:21:39.000Z</time>
      </trkpt>
      <trkpt lat="43.6145" lon="1.10568">
        <ele>197</ele>
        <time>2020-10-03T10:21:40.000Z</time>
      </trkpt>
      <trkpt lat="43.61452" lon="1.10565">
        <ele>197</ele>
        <time>2020-10-03T10:21:41.000Z</time>
      </trkpt>
      <trkpt lat="43.61454" lon="1.10561">
        <ele>197</ele>
        <time>2020-10-03T10:21:42.000Z</time>
      </trkpt>
      <trkpt lat="43.61456" lon="1.10558">
        <ele>197</ele>
        <time>2020-10-03T10:21:43.000Z</time>
      </trkpt>
      <trkpt lat="43.61458" lon="1.10555">
        <ele>197</ele>
        <time>2020-10-03T10:21:44.000Z</time>
      </trkpt>
      <trkpt lat="43.6146" lon="1.10552">
        <ele>197</ele>
        <time>2020-10-03T10:21:45.000Z</time>
      </trkpt>
      <trkpt lat="43.61462" lon="1.10548">
        <ele>197</ele>
        <time>2020-10-03T10:21:46.000Z</time>
      </trkpt>
      <trkpt lat="43.61463" lon="1.10545">
        <ele>197</ele>
        <time>2020-10-03T10:21:47.000Z</time>
      </trkpt>
      <trkpt lat="43.61465" lon="1.10541">
        <ele>197</ele>
        <time>2020-10-03T10:21:48.000Z</time>
      </trkpt>
      <trkpt lat="43.61467" lon="1.10538">
        <ele>196.61728453589</ele>
        <time>2020-10-03T10:21:49.000Z</time>
      </trkpt>
      <trkpt lat="43.61469" lon="1.10534">
        <ele>196</ele>
        <time>2020-10-03T10:21:50.000Z</time>
      </trkpt>
      <trkpt lat="43.61471" lon="1.10531">
        <ele>194.9210549954</ele>
        <time>2020-10-03T10:21:51.000Z</time>
      </trkpt>
      <trkpt lat="43.61473" lon="1.10528">
        <ele>193</ele>
        <time>2020-10-03T10:21:52.000Z</time>
      </trkpt>
      <trkpt lat="43.61475" lon="1.10524">
        <ele>193</ele>
        <time>2020-10-03T10:21:53.000Z</time>
      </trkpt>
      <trkpt lat="43.61477" lon="1.10521">
        <ele>193</ele>
        <time>2020-10-03T10:21:54.000Z</time>
      </trkpt>
      <trkpt lat="43.61479" lon="1.10517">
        <ele>193</ele>
        <time>2020-10-03T10:21:55.000Z</time>
      </trkpt>
      <trkpt lat="43.61481" lon="1.10514">
        <ele>193</ele>
        <time>2020-10-03T10:21:56.000Z</time>
      </trkpt>
      <trkpt lat="43.61482" lon="1.10511">
        <ele>193.23846282603</ele>
        <time>2020-10-03T10:21:57.000Z</time>
      </trkpt>
      <trkpt lat="43.61485" lon="1.10508">
        <ele>194</ele>
        <time>2020-10-03T10:21:58.000Z</time>
      </trkpt>
      <trkpt lat="43.61486" lon="1.10505">
        <ele>194</ele>
        <time>2020-10-03T10:21:59.000Z</time>
      </trkpt>
      <trkpt lat="43.61488" lon="1.10501">
        <ele>194</ele>
        <time>2020-10-03T10:22:00.000Z</time>
      </trkpt>
      <trkpt lat="43.6149" lon="1.10498">
        <ele>194</ele>
        <time>2020-10-03T10:22:01.000Z</time>
      </trkpt>
      <trkpt lat="43.61491" lon="1.10494">
        <ele>194</ele>
        <time>2020-10-03T10:22:02.000Z</time>
      </trkpt>
      <trkpt lat="43.61493" lon="1.1049">
        <ele>194</ele>
        <time>2020-10-03T10:22:03.000Z</time>
      </trkpt>
      <trkpt lat="43.61494" lon="1.10486">
        <ele>194</ele>
        <time>2020-10-03T10:22:04.000Z</time>
      </trkpt>
      <trkpt lat="43.61496" lon="1.10482">
        <ele>193.92208590997</ele>
        <time>2020-10-03T10:22:05.000Z</time>
      </trkpt>
      <trkpt lat="43.61498" lon="1.10478">
        <ele>193</ele>
        <time>2020-10-03T10:22:06.000Z</time>
      </trkpt>
      <trkpt lat="43.615" lon="1.10475">
        <ele>193</ele>
        <time>2020-10-03T10:22:07.000Z</time>
      </trkpt>
      <trkpt lat="43.61501" lon="1.10471">
        <ele>193</ele>
        <time>2020-10-03T10:22:08.000Z</time>
      </trkpt>
      <trkpt lat="43.61503" lon="1.10467">
        <ele>193</ele>
        <time>2020-10-03T10:22:09.000Z</time>
      </trkpt>
      <trkpt lat="43.61504" lon="1.10463">
        <ele>193</ele>
        <time>2020-10-03T10:22:10.000Z</time>
      </trkpt>
      <trkpt lat="43.61506" lon="1.1046">
        <ele>193</ele>
        <time>2020-10-03T10:22:11.000Z</time>
      </trkpt>
      <trkpt lat="43.61508" lon="1.10456">
        <ele>193</ele>
        <time>2020-10-03T10:22:12.000Z</time>
      </trkpt>
      <trkpt lat="43.61509" lon="1.10452">
        <ele>193</ele>
        <time>2020-10-03T10:22:13.000Z</time>
      </trkpt>
      <trkpt lat="43.6151" lon="1.10448">
        <ele>193</ele>
        <time>2020-10-03T10:22:14.000Z</time>
      </trkpt>
      <trkpt lat="43.61512" lon="1.10444">
        <ele>193</ele>
        <time>2020-10-03T10:22:15.000Z</time>
      </trkpt>
      <trkpt lat="43.61513" lon="1.1044">
        <ele>193</ele>
        <time>2020-10-03T10:22:16.000Z</time>
      </trkpt>
      <trkpt lat="43.61514" lon="1.10436">
        <ele>193</ele>
        <time>2020-10-03T10:22:17.000Z</time>
      </trkpt>
      <trkpt lat="43.61516" lon="1.10432">
        <ele>193</ele>
        <time>2020-10-03T10:22:18.000Z</time>
      </trkpt>
      <trkpt lat="43.61518" lon="1.10429">
        <ele>193</ele>
        <time>2020-10-03T10:22:19.000Z</time>
      </trkpt>
      <trkpt lat="43.61519" lon="1.10425">
        <ele>193</ele>
        <time>2020-10-03T10:22:20.000Z</time>
      </trkpt>
      <trkpt lat="43.61521" lon="1.10421">
        <ele>193</ele>
        <time>2020-10-03T10:22:21.000Z</time>
      </trkpt>
      <trkpt lat="43.61522" lon="1.10417">
        <ele>193</ele>
        <time>2020-10-03T10:22:22.000Z</time>
      </trkpt>
      <trkpt lat="43.61524" lon="1.10412">
        <ele>193</ele>
        <time>2020-10-03T10:22:23.000Z</time>
      </trkpt>
      <trkpt lat="43.61525" lon="1.10408">
        <ele>193</ele>
        <time>2020-10-03T10:22:24.000Z</time>
      </trkpt>
      <trkpt lat="43.61525" lon="1.10404">
        <ele>193</ele>
        <time>2020-10-03T10:22:25.000Z</time>
      </trkpt>
      <trkpt lat="43.61526" lon="1.10399">
        <ele>193</ele>
        <time>2020-10-03T10:22:26.000Z</time>
      </trkpt>
      <trkpt lat="43.61527" lon="1.10395">
        <ele>192.77027260776</ele>
        <time>2020-10-03T10:22:27.000Z</time>
      </trkpt>
      <trkpt lat="43.61528" lon="1.10391">
        <ele>192</ele>
        <time>2020-10-03T10:22:28.000Z</time>
      </trkpt>
      <trkpt lat="43.6153" lon="1.10388">
        <ele>192</ele>
        <time>2020-10-03T10:22:29.000Z</time>
      </trkpt>
      <trkpt lat="43.6153" lon="1.10384">
        <ele>192</ele>
        <time>2020-10-03T10:22:30.000Z</time>
      </trkpt>
      <trkpt lat="43.61532" lon="1.1038">
        <ele>192</ele>
        <time>2020-10-03T10:22:31.000Z</time>
      </trkpt>
      <trkpt lat="43.61533" lon="1.10376">
        <ele>192</ele>
        <time>2020-10-03T10:22:32.000Z</time>
      </trkpt>
      <trkpt lat="43.61534" lon="1.10372">
        <ele>191.56179888397</ele>
        <time>2020-10-03T10:22:33.000Z</time>
      </trkpt>
      <trkpt lat="43.61535" lon="1.10368">
        <ele>191</ele>
        <time>2020-10-03T10:22:34.000Z</time>
      </trkpt>
      <trkpt lat="43.61536" lon="1.10364">
        <ele>191</ele>
        <time>2020-10-03T10:22:35.000Z</time>
      </trkpt>
      <trkpt lat="43.61537" lon="1.10361">
        <ele>191</ele>
        <time>2020-10-03T10:22:36.000Z</time>
      </trkpt>
      <trkpt lat="43.61538" lon="1.10357">
        <ele>191</ele>
        <time>2020-10-03T10:22:37.000Z</time>
      </trkpt>
      <trkpt lat="43.61538" lon="1.10353">
        <ele>191</ele>
        <time>2020-10-03T10:22:38.000Z</time>
      </trkpt>
      <trkpt lat="43.61539" lon="1.10348">
        <ele>191</ele>
        <time>2020-10-03T10:22:39.000Z</time>
      </trkpt>
      <trkpt lat="43.6154" lon="1.10344">
        <ele>190.64557105592</ele>
        <time>2020-10-03T10:22:40.000Z</time>
      </trkpt>
      <trkpt lat="43.61542" lon="1.10339">
        <ele>190</ele>
        <time>2020-10-03T10:22:41.000Z</time>
      </trkpt>
      <trkpt lat="43.61543" lon="1.10335">
        <ele>190</ele>
        <time>2020-10-03T10:22:42.000Z</time>
      </trkpt>
      <trkpt lat="43.61544" lon="1.1033">
        <ele>190</ele>
        <time>2020-10-03T10:22:43.000Z</time>
      </trkpt>
      <trkpt lat="43.61546" lon="1.10326">
        <ele>190</ele>
        <time>2020-10-03T10:22:44.000Z</time>
      </trkpt>
      <trkpt lat="43.61547" lon="1.10321">
        <ele>190</ele>
        <time>2020-10-03T10:22:45.000Z</time>
      </trkpt>
      <trkpt lat="43.61549" lon="1.10317">
        <ele>189.63725576317</ele>
        <time>2020-10-03T10:22:46.000Z</time>
      </trkpt>
      <trkpt lat="43.61551" lon="1.10312">
        <ele>189</ele>
        <time>2020-10-03T10:22:47.000Z</time>
      </trkpt>
      <trkpt lat="43.61553" lon="1.10308">
        <ele>189</ele>
        <time>2020-10-03T10:22:48.000Z</time>
      </trkpt>
      <trkpt lat="43.61554" lon="1.10304">
        <ele>188.59406128812</ele>
        <time>2020-10-03T10:22:49.000Z</time>
      </trkpt>
      <trkpt lat="43.61556" lon="1.10299">
        <ele>188</ele>
        <time>2020-10-03T10:22:50.000Z</time>
      </trkpt>
      <trkpt lat="43.61558" lon="1.10296">
        <ele>187.65555444939</ele>
        <time>2020-10-03T10:22:51.000Z</time>
      </trkpt>
      <trkpt lat="43.6156" lon="1.10292">
        <ele>187</ele>
        <time>2020-10-03T10:22:52.000Z</time>
      </trkpt>
      <trkpt lat="43.61562" lon="1.10288">
        <ele>186.59482482759</ele>
        <time>2020-10-03T10:22:53.000Z</time>
      </trkpt>
      <trkpt lat="43.61564" lon="1.10284">
        <ele>186</ele>
        <time>2020-10-03T10:22:54.000Z</time>
      </trkpt>
      <trkpt lat="43.61565" lon="1.10281">
        <ele>186</ele>
        <time>2020-10-03T10:22:55.000Z</time>
      </trkpt>
      <trkpt lat="43.61567" lon="1.10277">
        <ele>186</ele>
        <time>2020-10-03T10:22:56.000Z</time>
      </trkpt>
      <trkpt lat="43.61569" lon="1.10273">
        <ele>186</ele>
        <time>2020-10-03T10:22:57.000Z</time>
      </trkpt>
      <trkpt lat="43.6157" lon="1.1027">
        <ele>186</ele>
        <time>2020-10-03T10:22:58.000Z</time>
      </trkpt>
      <trkpt lat="43.61572" lon="1.10266">
        <ele>186</ele>
        <time>2020-10-03T10:22:59.000Z</time>
      </trkpt>
      <trkpt lat="43.61574" lon="1.10263">
        <ele>185.96364736548</ele>
        <time>2020-10-03T10:23:00.000Z</time>
      </trkpt>
      <trkpt lat="43.61576" lon="1.10259">
        <ele>185</ele>
        <time>2020-10-03T10:23:01.000Z</time>
      </trkpt>
      <trkpt lat="43.61578" lon="1.10256">
        <ele>185</ele>
        <time>2020-10-03T10:23:02.000Z</time>
      </trkpt>
      <trkpt lat="43.6158" lon="1.10252">
        <ele>185</ele>
        <time>2020-10-03T10:23:03.000Z</time>
      </trkpt>
      <trkpt lat="43.61582" lon="1.10248">
        <ele>184.59406128812</ele>
        <time>2020-10-03T10:23:04.000Z</time>
      </trkpt>
      <trkpt lat="43.61583" lon="1.10243">
        <ele>184</ele>
        <time>2020-10-03T10:23:05.000Z</time>
      </trkpt>
      <trkpt lat="43.61585" lon="1.10239">
        <ele>183.64557105592</ele>
        <time>2020-10-03T10:23:06.000Z</time>
      </trkpt>
      <trkpt lat="43.61587" lon="1.10235">
        <ele>183</ele>
        <time>2020-10-03T10:23:07.000Z</time>
      </trkpt>
      <trkpt lat="43.61588" lon="1.10231">
        <ele>183</ele>
        <time>2020-10-03T10:23:08.000Z</time>
      </trkpt>
      <trkpt lat="43.6159" lon="1.10227">
        <ele>182.65555444939</ele>
        <time>2020-10-03T10:23:09.000Z</time>
      </trkpt>
      <trkpt lat="43.61591" lon="1.10222">
        <ele>182</ele>
        <time>2020-10-03T10:23:10.000Z</time>
      </trkpt>
      <trkpt lat="43.61592" lon="1.10218">
        <ele>182</ele>
        <time>2020-10-03T10:23:11.000Z</time>
      </trkpt>
      <trkpt lat="43.61594" lon="1.10213">
        <ele>182</ele>
        <time>2020-10-03T10:23:12.000Z</time>
      </trkpt>
      <trkpt lat="43.61595" lon="1.10209">
        <ele>182.35869217391</ele>
        <time>2020-10-03T10:23:13.000Z</time>
      </trkpt>
      <trkpt lat="43.61595" lon="1.10204">
        <ele>182.67716868745</ele>
        <time>2020-10-03T10:23:14.000Z</time>
      </trkpt>
      <trkpt lat="43.61596" lon="1.102">
        <ele>182</ele>
        <time>2020-10-03T10:23:15.000Z</time>
      </trkpt>
      <trkpt lat="43.61597" lon="1.10196">
        <ele>182</ele>
        <time>2020-10-03T10:23:16.000Z</time>
      </trkpt>
      <trkpt lat="43.61598" lon="1.10191">
        <ele>182</ele>
        <time>2020-10-03T10:23:17.000Z</time>
      </trkpt>
      <trkpt lat="43.61599" lon="1.10187">
        <ele>182</ele>
        <time>2020-10-03T10:23:18.000Z</time>
      </trkpt>
      <trkpt lat="43.616" lon="1.10183">
        <ele>182</ele>
        <time>2020-10-03T10:23:19.000Z</time>
      </trkpt>
      <trkpt lat="43.61601" lon="1.10179">
        <ele>182</ele>
        <time>2020-10-03T10:23:20.000Z</time>
      </trkpt>
      <trkpt lat="43.61602" lon="1.10174">
        <ele>182</ele>
        <time>2020-10-03T10:23:21.000Z</time>
      </trkpt>
      <trkpt lat="43.61603" lon="1.1017">
        <ele>182</ele>
        <time>2020-10-03T10:23:22.000Z</time>
      </trkpt>
      <trkpt lat="43.61604" lon="1.10165">
        <ele>181.26126063793</ele>
        <time>2020-10-03T10:23:23.000Z</time>
      </trkpt>
      <trkpt lat="43.61605" lon="1.10161">
        <ele>180</ele>
        <time>2020-10-03T10:23:24.000Z</time>
      </trkpt>
      <trkpt lat="43.61606" lon="1.10156">
        <ele>179.60194114431</ele>
        <time>2020-10-03T10:23:25.000Z</time>
      </trkpt>
      <trkpt lat="43.61607" lon="1.10152">
        <ele>179</ele>
        <time>2020-10-03T10:23:26.000Z</time>
      </trkpt>
      <trkpt lat="43.61608" lon="1.10148">
        <ele>179</ele>
        <time>2020-10-03T10:23:27.000Z</time>
      </trkpt>
      <trkpt lat="43.61609" lon="1.10144">
        <ele>179</ele>
        <time>2020-10-03T10:23:28.000Z</time>
      </trkpt>
      <trkpt lat="43.61611" lon="1.1014">
        <ele>179</ele>
        <time>2020-10-03T10:23:29.000Z</time>
      </trkpt>
      <trkpt lat="43.61612" lon="1.10137">
        <ele>179</ele>
        <time>2020-10-03T10:23:30.000Z</time>
      </trkpt>
      <trkpt lat="43.61613" lon="1.10133">
        <ele>179</ele>
        <time>2020-10-03T10:23:31.000Z</time>
      </trkpt>
      <trkpt lat="43.61614" lon="1.10129">
        <ele>178.59322254523</ele>
        <time>2020-10-03T10:23:32.000Z</time>
      </trkpt>
      <trkpt lat="43.61614" lon="1.10124">
        <ele>178</ele>
        <time>2020-10-03T10:23:33.000Z</time>
      </trkpt>
      <trkpt lat="43.61615" lon="1.1012">
        <ele>177.59829115932</ele>
        <time>2020-10-03T10:23:34.000Z</time>
      </trkpt>
      <trkpt lat="43.61616" lon="1.10115">
        <ele>177</ele>
        <time>2020-10-03T10:23:35.000Z</time>
      </trkpt>
      <trkpt lat="43.61617" lon="1.10111">
        <ele>177</ele>
        <time>2020-10-03T10:23:36.000Z</time>
      </trkpt>
      <trkpt lat="43.61618" lon="1.10108">
        <ele>177</ele>
        <time>2020-10-03T10:23:37.000Z</time>
      </trkpt>
      <trkpt lat="43.61619" lon="1.10104">
        <ele>177</ele>
        <time>2020-10-03T10:23:38.000Z</time>
      </trkpt>
      <trkpt lat="43.6162" lon="1.101">
        <ele>177</ele>
        <time>2020-10-03T10:23:39.000Z</time>
      </trkpt>
      <trkpt lat="43.6162" lon="1.10096">
        <ele>176.75949059447</ele>
        <time>2020-10-03T10:23:40.000Z</time>
      </trkpt>
      <trkpt lat="43.61621" lon="1.10091">
        <ele>176</ele>
        <time>2020-10-03T10:23:41.000Z</time>
      </trkpt>
      <trkpt lat="43.61622" lon="1.10087">
        <ele>176</ele>
        <time>2020-10-03T10:23:42.000Z</time>
      </trkpt>
      <trkpt lat="43.61623" lon="1.10083">
        <ele>176</ele>
        <time>2020-10-03T10:23:43.000Z</time>
      </trkpt>
      <trkpt lat="43.61624" lon="1.10079">
        <ele>175.7100032</ele>
        <time>2020-10-03T10:23:44.000Z</time>
      </trkpt>
      <trkpt lat="43.61625" lon="1.10075">
        <ele>175</ele>
        <time>2020-10-03T10:23:45.000Z</time>
      </trkpt>
      <trkpt lat="43.61628" lon="1.10066">
        <ele>174.68918755297</ele>
        <time>2020-10-03T10:23:47.000Z</time>
      </trkpt>
      <trkpt lat="43.61629" lon="1.10062">
        <ele>174</ele>
        <time>2020-10-03T10:23:48.000Z</time>
      </trkpt>
      <trkpt lat="43.6163" lon="1.10058">
        <ele>173.5575202193</ele>
        <time>2020-10-03T10:23:49.000Z</time>
      </trkpt>
      <trkpt lat="43.61632" lon="1.10054">
        <ele>173</ele>
        <time>2020-10-03T10:23:50.000Z</time>
      </trkpt>
      <trkpt lat="43.61633" lon="1.1005">
        <ele>173</ele>
        <time>2020-10-03T10:23:51.000Z</time>
      </trkpt>
      <trkpt lat="43.61635" lon="1.10045">
        <ele>173</ele>
        <time>2020-10-03T10:23:52.000Z</time>
      </trkpt>
      <trkpt lat="43.61636" lon="1.10041">
        <ele>172.62405805191</ele>
        <time>2020-10-03T10:23:53.000Z</time>
      </trkpt>
      <trkpt lat="43.61637" lon="1.10037">
        <ele>172</ele>
        <time>2020-10-03T10:23:54.000Z</time>
      </trkpt>
      <trkpt lat="43.61638" lon="1.10033">
        <ele>172</ele>
        <time>2020-10-03T10:23:55.000Z</time>
      </trkpt>
      <trkpt lat="43.61639" lon="1.1003">
        <ele>172</ele>
        <time>2020-10-03T10:23:56.000Z</time>
      </trkpt>
      <trkpt lat="43.61641" lon="1.10026">
        <ele>172</ele>
        <time>2020-10-03T10:23:57.000Z</time>
      </trkpt>
      <trkpt lat="43.61642" lon="1.10023">
        <ele>171.70073156375</ele>
        <time>2020-10-03T10:23:58.000Z</time>
      </trkpt>
      <trkpt lat="43.61644" lon="1.10019">
        <ele>171</ele>
        <time>2020-10-03T10:23:59.000Z</time>
      </trkpt>
      <trkpt lat="43.61645" lon="1.10016">
        <ele>171</ele>
        <time>2020-10-03T10:24:00.000Z</time>
      </trkpt>
      <trkpt lat="43.61647" lon="1.10013">
        <ele>171</ele>
        <time>2020-10-03T10:24:01.000Z</time>
      </trkpt>
      <trkpt lat="43.61648" lon="1.10011">
        <ele>168</ele>
        <time>2020-10-03T10:24:03.000Z</time>
      </trkpt>
      <trkpt lat="43.61651" lon="1.10007">
        <ele>167.5377360769</ele>
        <time>2020-10-03T10:24:05.000Z</time>
      </trkpt>
      <trkpt lat="43.61653" lon="1.10003">
        <ele>167</ele>
        <time>2020-10-03T10:24:06.000Z</time>
      </trkpt>
      <trkpt lat="43.61655" lon="1.09999">
        <ele>167</ele>
        <time>2020-10-03T10:24:07.000Z</time>
      </trkpt>
      <trkpt lat="43.61656" lon="1.09995">
        <ele>167.4099968</ele>
        <time>2020-10-03T10:24:08.000Z</time>
      </trkpt>
      <trkpt lat="43.61658" lon="1.09992">
        <ele>168</ele>
        <time>2020-10-03T10:24:09.000Z</time>
      </trkpt>
      <trkpt lat="43.6166" lon="1.09988">
        <ele>167.53271206919</ele>
        <time>2020-10-03T10:24:10.000Z</time>
      </trkpt>
      <trkpt lat="43.61661" lon="1.09985">
        <ele>167</ele>
        <time>2020-10-03T10:24:11.000Z</time>
      </trkpt>
      <trkpt lat="43.61663" lon="1.09981">
        <ele>166.57303112236</ele>
        <time>2020-10-03T10:24:12.000Z</time>
      </trkpt>
      <trkpt lat="43.61665" lon="1.09977">
        <ele>166</ele>
        <time>2020-10-03T10:24:13.000Z</time>
      </trkpt>
      <trkpt lat="43.61667" lon="1.09973">
        <ele>166</ele>
        <time>2020-10-03T10:24:14.000Z</time>
      </trkpt>
      <trkpt lat="43.61668" lon="1.09969">
        <ele>166</ele>
        <time>2020-10-03T10:24:15.000Z</time>
      </trkpt>
      <trkpt lat="43.6167" lon="1.09965">
        <ele>166</ele>
        <time>2020-10-03T10:24:16.000Z</time>
      </trkpt>
      <trkpt lat="43.61671" lon="1.09961">
        <ele>166</ele>
        <time>2020-10-03T10:24:17.000Z</time>
      </trkpt>
      <trkpt lat="43.61673" lon="1.09957">
        <ele>166</ele>
        <time>2020-10-03T10:24:18.000Z</time>
      </trkpt>
      <trkpt lat="43.61675" lon="1.09953">
        <ele>166</ele>
        <time>2020-10-03T10:24:19.000Z</time>
      </trkpt>
      <trkpt lat="43.61677" lon="1.09948">
        <ele>165.79411211083</ele>
        <time>2020-10-03T10:24:20.000Z</time>
      </trkpt>
      <trkpt lat="43.61678" lon="1.09944">
        <ele>165</ele>
        <time>2020-10-03T10:24:21.000Z</time>
      </trkpt>
      <trkpt lat="43.6168" lon="1.0994">
        <ele>165</ele>
        <time>2020-10-03T10:24:22.000Z</time>
      </trkpt>
      <trkpt lat="43.61682" lon="1.09936">
        <ele>164.11111743205</ele>
        <time>2020-10-03T10:24:23.000Z</time>
      </trkpt>
      <trkpt lat="43.61684" lon="1.09932">
        <ele>163</ele>
        <time>2020-10-03T10:24:24.000Z</time>
      </trkpt>
      <trkpt lat="43.61686" lon="1.09929">
        <ele>163</ele>
        <time>2020-10-03T10:24:25.000Z</time>
      </trkpt>
      <trkpt lat="43.61688" lon="1.09925">
        <ele>162.54955141954</ele>
        <time>2020-10-03T10:24:26.000Z</time>
      </trkpt>
      <trkpt lat="43.6169" lon="1.09921">
        <ele>162</ele>
        <time>2020-10-03T10:24:27.000Z</time>
      </trkpt>
      <trkpt lat="43.61691" lon="1.09917">
        <ele>162</ele>
        <time>2020-10-03T10:24:28.000Z</time>
      </trkpt>
      <trkpt lat="43.61693" lon="1.09914">
        <ele>161.55555871603</ele>
        <time>2020-10-03T10:24:29.000Z</time>
      </trkpt>
      <trkpt lat="43.61695" lon="1.0991">
        <ele>161</ele>
        <time>2020-10-03T10:24:30.000Z</time>
      </trkpt>
      <trkpt lat="43.61697" lon="1.09906">
        <ele>161</ele>
        <time>2020-10-03T10:24:31.000Z</time>
      </trkpt>
      <trkpt lat="43.61698" lon="1.09902">
        <ele>160.54545771903</ele>
        <time>2020-10-03T10:24:32.000Z</time>
      </trkpt>
      <trkpt lat="43.617" lon="1.09897">
        <ele>160.3200008192</ele>
        <time>2020-10-03T10:24:33.000Z</time>
      </trkpt>
      <trkpt lat="43.61702" lon="1.09894">
        <ele>161</ele>
        <time>2020-10-03T10:24:34.000Z</time>
      </trkpt>
      <trkpt lat="43.61704" lon="1.0989">
        <ele>160.58715768707</ele>
        <time>2020-10-03T10:24:35.000Z</time>
      </trkpt>
      <trkpt lat="43.61707" lon="1.09887">
        <ele>160</ele>
        <time>2020-10-03T10:24:36.000Z</time>
      </trkpt>
      <trkpt lat="43.61709" lon="1.09883">
        <ele>159.90475222983</ele>
        <time>2020-10-03T10:24:37.000Z</time>
      </trkpt>
      <trkpt lat="43.61711" lon="1.0988">
        <ele>158</ele>
        <time>2020-10-03T10:24:38.000Z</time>
      </trkpt>
      <trkpt lat="43.61713" lon="1.09876">
        <ele>158</ele>
        <time>2020-10-03T10:24:39.000Z</time>
      </trkpt>
      <trkpt lat="43.61715" lon="1.09873">
        <ele>158</ele>
        <time>2020-10-03T10:24:40.000Z</time>
      </trkpt>
      <trkpt lat="43.61718" lon="1.09869">
        <ele>158</ele>
        <time>2020-10-03T10:24:41.000Z</time>
      </trkpt>
      <trkpt lat="43.61719" lon="1.09865">
        <ele>158</ele>
        <time>2020-10-03T10:24:42.000Z</time>
      </trkpt>
      <trkpt lat="43.61722" lon="1.09862">
        <ele>157.55555871603</ele>
        <time>2020-10-03T10:24:43.000Z</time>
      </trkpt>
      <trkpt lat="43.61724" lon="1.09858">
        <ele>157</ele>
        <time>2020-10-03T10:24:44.000Z</time>
      </trkpt>
      <trkpt lat="43.61726" lon="1.09854">
        <ele>156.67033322549</ele>
        <time>2020-10-03T10:24:45.000Z</time>
      </trkpt>
      <trkpt lat="43.61728" lon="1.0985">
        <ele>156</ele>
        <time>2020-10-03T10:24:46.000Z</time>
      </trkpt>
      <trkpt lat="43.61729" lon="1.09846">
        <ele>156</ele>
        <time>2020-10-03T10:24:47.000Z</time>
      </trkpt>
      <trkpt lat="43.61731" lon="1.09843">
        <ele>156</ele>
        <time>2020-10-03T10:24:48.000Z</time>
      </trkpt>
      <trkpt lat="43.61733" lon="1.09839">
        <ele>156</ele>
        <time>2020-10-03T10:24:49.000Z</time>
      </trkpt>
      <trkpt lat="43.61735" lon="1.09836">
        <ele>156</ele>
        <time>2020-10-03T10:24:50.000Z</time>
      </trkpt>
      <trkpt lat="43.61737" lon="1.09833">
        <ele>156</ele>
        <time>2020-10-03T10:24:51.000Z</time>
      </trkpt>
      <trkpt lat="43.61739" lon="1.0983">
        <ele>156</ele>
        <time>2020-10-03T10:24:52.000Z</time>
      </trkpt>
      <trkpt lat="43.61741" lon="1.09826">
        <ele>156</ele>
        <time>2020-10-03T10:24:53.000Z</time>
      </trkpt>
      <trkpt lat="43.61744" lon="1.09823">
        <ele>156</ele>
        <time>2020-10-03T10:24:54.000Z</time>
      </trkpt>
      <trkpt lat="43.61745" lon="1.09819">
        <ele>156</ele>
        <time>2020-10-03T10:24:55.000Z</time>
      </trkpt>
      <trkpt lat="43.61748" lon="1.09815">
        <ele>156</ele>
        <time>2020-10-03T10:24:56.000Z</time>
      </trkpt>
      <trkpt lat="43.61749" lon="1.09811">
        <ele>156</ele>
        <time>2020-10-03T10:24:57.000Z</time>
      </trkpt>
      <trkpt lat="43.61752" lon="1.09808">
        <ele>155.63302644558</ele>
        <time>2020-10-03T10:24:58.000Z</time>
      </trkpt>
      <trkpt lat="43.61753" lon="1.09804">
        <ele>155</ele>
        <time>2020-10-03T10:24:59.000Z</time>
      </trkpt>
      <trkpt lat="43.61755" lon="1.09801">
        <ele>155</ele>
        <time>2020-10-03T10:25:00.000Z</time>
      </trkpt>
      <trkpt lat="43.61756" lon="1.09797">
        <ele>155</ele>
        <time>2020-10-03T10:25:01.000Z</time>
      </trkpt>
      <trkpt lat="43.61759" lon="1.09794">
        <ele>155</ele>
        <time>2020-10-03T10:25:02.000Z</time>
      </trkpt>
      <trkpt lat="43.61761" lon="1.0979">
        <ele>155</ele>
        <time>2020-10-03T10:25:03.000Z</time>
      </trkpt>
      <trkpt lat="43.61763" lon="1.09787">
        <ele>155</ele>
        <time>2020-10-03T10:25:04.000Z</time>
      </trkpt>
      <trkpt lat="43.61765" lon="1.09783">
        <ele>155</ele>
        <time>2020-10-03T10:25:05.000Z</time>
      </trkpt>
      <trkpt lat="43.61767" lon="1.09779">
        <ele>155</ele>
        <time>2020-10-03T10:25:06.000Z</time>
      </trkpt>
      <trkpt lat="43.6177" lon="1.09776">
        <ele>154.58163318618</ele>
        <time>2020-10-03T10:25:07.000Z</time>
      </trkpt>
      <trkpt lat="43.61772" lon="1.09772">
        <ele>154</ele>
        <time>2020-10-03T10:25:08.000Z</time>
      </trkpt>
      <trkpt lat="43.61773" lon="1.09768">
        <ele>153.63528897991</ele>
        <time>2020-10-03T10:25:09.000Z</time>
      </trkpt>
      <trkpt lat="43.61775" lon="1.09764">
        <ele>153</ele>
        <time>2020-10-03T10:25:10.000Z</time>
      </trkpt>
      <trkpt lat="43.61777" lon="1.09761">
        <ele>153</ele>
        <time>2020-10-03T10:25:11.000Z</time>
      </trkpt>
      <trkpt lat="43.61779" lon="1.09757">
        <ele>153</ele>
        <time>2020-10-03T10:25:12.000Z</time>
      </trkpt>
      <trkpt lat="43.61781" lon="1.09754">
        <ele>152.54945565027</ele>
        <time>2020-10-03T10:25:13.000Z</time>
      </trkpt>
      <trkpt lat="43.61783" lon="1.0975">
        <ele>152</ele>
        <time>2020-10-03T10:25:14.000Z</time>
      </trkpt>
      <trkpt lat="43.61785" lon="1.09746">
        <ele>152.07407319617</ele>
        <time>2020-10-03T10:25:15.000Z</time>
      </trkpt>
      <trkpt lat="43.61786" lon="1.09743">
        <ele>153</ele>
        <time>2020-10-03T10:25:16.000Z</time>
      </trkpt>
      <trkpt lat="43.61789" lon="1.09739">
        <ele>153</ele>
        <time>2020-10-03T10:25:17.000Z</time>
      </trkpt>
      <trkpt lat="43.61791" lon="1.09736">
        <ele>153</ele>
        <time>2020-10-03T10:25:18.000Z</time>
      </trkpt>
      <trkpt lat="43.61793" lon="1.09733">
        <ele>153</ele>
        <time>2020-10-03T10:25:19.000Z</time>
      </trkpt>
      <trkpt lat="43.61796" lon="1.09729">
        <ele>153</ele>
        <time>2020-10-03T10:25:20.000Z</time>
      </trkpt>
      <trkpt lat="43.61798" lon="1.09725">
        <ele>153</ele>
        <time>2020-10-03T10:25:21.000Z</time>
      </trkpt>
      <trkpt lat="43.618" lon="1.09721">
        <ele>152.64485489389</ele>
        <time>2020-10-03T10:25:22.000Z</time>
      </trkpt>
      <trkpt lat="43.61802" lon="1.09717">
        <ele>152</ele>
        <time>2020-10-03T10:25:23.000Z</time>
      </trkpt>
      <trkpt lat="43.61804" lon="1.09714">
        <ele>152</ele>
        <time>2020-10-03T10:25:24.000Z</time>
      </trkpt>
      <trkpt lat="43.61805" lon="1.0971">
        <ele>152</ele>
        <time>2020-10-03T10:25:25.000Z</time>
      </trkpt>
      <trkpt lat="43.61807" lon="1.09706">
        <ele>152</ele>
        <time>2020-10-03T10:25:26.000Z</time>
      </trkpt>
      <trkpt lat="43.61809" lon="1.09703">
        <ele>152</ele>
        <time>2020-10-03T10:25:27.000Z</time>
      </trkpt>
      <trkpt lat="43.6181" lon="1.09699">
        <ele>152</ele>
        <time>2020-10-03T10:25:28.000Z</time>
      </trkpt>
      <trkpt lat="43.6181" lon="1.09695">
        <ele>152</ele>
        <time>2020-10-03T10:25:29.000Z</time>
      </trkpt>
      <trkpt lat="43.61811" lon="1.09691">
        <ele>152</ele>
        <time>2020-10-03T10:25:30.000Z</time>
      </trkpt>
      <trkpt lat="43.61812" lon="1.09687">
        <ele>152</ele>
        <time>2020-10-03T10:25:31.000Z</time>
      </trkpt>
      <trkpt lat="43.61813" lon="1.09683">
        <ele>152</ele>
        <time>2020-10-03T10:25:32.000Z</time>
      </trkpt>
      <trkpt lat="43.61813" lon="1.09679">
        <ele>152</ele>
        <time>2020-10-03T10:25:33.000Z</time>
      </trkpt>
      <trkpt lat="43.61813" lon="1.09675">
        <ele>152</ele>
        <time>2020-10-03T10:25:34.000Z</time>
      </trkpt>
      <trkpt lat="43.61813" lon="1.09671">
        <ele>152</ele>
        <time>2020-10-03T10:25:35.000Z</time>
      </trkpt>
      <trkpt lat="43.61813" lon="1.09667">
        <ele>152</ele>
        <time>2020-10-03T10:25:36.000Z</time>
      </trkpt>
      <trkpt lat="43.61813" lon="1.09663">
        <ele>152</ele>
        <time>2020-10-03T10:25:37.000Z</time>
      </trkpt>
      <trkpt lat="43.61813" lon="1.09659">
        <ele>152</ele>
        <time>2020-10-03T10:25:38.000Z</time>
      </trkpt>
      <trkpt lat="43.61813" lon="1.09654">
        <ele>152</ele>
        <time>2020-10-03T10:25:39.000Z</time>
      </trkpt>
      <trkpt lat="43.61813" lon="1.09649">
        <ele>152</ele>
        <time>2020-10-03T10:25:40.000Z</time>
      </trkpt>
      <trkpt lat="43.61813" lon="1.09644">
        <ele>152</ele>
        <time>2020-10-03T10:25:41.000Z</time>
      </trkpt>
      <trkpt lat="43.61814" lon="1.0964">
        <ele>152</ele>
        <time>2020-10-03T10:25:42.000Z</time>
      </trkpt>
      <trkpt lat="43.61815" lon="1.09635">
        <ele>152</ele>
        <time>2020-10-03T10:25:43.000Z</time>
      </trkpt>
      <trkpt lat="43.61816" lon="1.09632">
        <ele>152</ele>
        <time>2020-10-03T10:25:44.000Z</time>
      </trkpt>
      <trkpt lat="43.61818" lon="1.09628">
        <ele>152</ele>
        <time>2020-10-03T10:25:45.000Z</time>
      </trkpt>
      <trkpt lat="43.6182" lon="1.09626">
        <ele>152</ele>
        <time>2020-10-03T10:25:46.000Z</time>
      </trkpt>
      <trkpt lat="43.61822" lon="1.09622">
        <ele>152</ele>
        <time>2020-10-03T10:25:47.000Z</time>
      </trkpt>
      <trkpt lat="43.61824" lon="1.09619">
        <ele>152</ele>
        <time>2020-10-03T10:25:48.000Z</time>
      </trkpt>
      <trkpt lat="43.61826" lon="1.09617">
        <ele>152</ele>
        <time>2020-10-03T10:25:49.000Z</time>
      </trkpt>
      <trkpt lat="43.61829" lon="1.09614">
        <ele>152</ele>
        <time>2020-10-03T10:25:50.000Z</time>
      </trkpt>
      <trkpt lat="43.61831" lon="1.09611">
        <ele>152</ele>
        <time>2020-10-03T10:25:51.000Z</time>
      </trkpt>
      <trkpt lat="43.61833" lon="1.09608">
        <ele>152</ele>
        <time>2020-10-03T10:25:52.000Z</time>
      </trkpt>
      <trkpt lat="43.61835" lon="1.09605">
        <ele>152</ele>
        <time>2020-10-03T10:25:53.000Z</time>
      </trkpt>
      <trkpt lat="43.61837" lon="1.09602">
        <ele>152</ele>
        <time>2020-10-03T10:25:54.000Z</time>
      </trkpt>
      <trkpt lat="43.61838" lon="1.09598">
        <ele>152</ele>
        <time>2020-10-03T10:25:55.000Z</time>
      </trkpt>
      <trkpt lat="43.61839" lon="1.09594">
        <ele>152</ele>
        <time>2020-10-03T10:25:56.000Z</time>
      </trkpt>
      <trkpt lat="43.6184" lon="1.0959">
        <ele>152</ele>
        <time>2020-10-03T10:25:57.000Z</time>
      </trkpt>
      <trkpt lat="43.61841" lon="1.09586">
        <ele>152</ele>
        <time>2020-10-03T10:25:58.000Z</time>
      </trkpt>
      <trkpt lat="43.61841" lon="1.09582">
        <ele>152</ele>
        <time>2020-10-03T10:25:59.000Z</time>
      </trkpt>
      <trkpt lat="43.61842" lon="1.09578">
        <ele>152</ele>
        <time>2020-10-03T10:26:00.000Z</time>
      </trkpt>
      <trkpt lat="43.61843" lon="1.09574">
        <ele>152</ele>
        <time>2020-10-03T10:26:01.000Z</time>
      </trkpt>
      <trkpt lat="43.61844" lon="1.09571">
        <ele>152</ele>
        <time>2020-10-03T10:26:02.000Z</time>
      </trkpt>
      <trkpt lat="43.61844" lon="1.09567">
        <ele>152</ele>
        <time>2020-10-03T10:26:03.000Z</time>
      </trkpt>
      <trkpt lat="43.61845" lon="1.09563">
        <ele>152</ele>
        <time>2020-10-03T10:26:04.000Z</time>
      </trkpt>
      <trkpt lat="43.61845" lon="1.09558">
        <ele>152</ele>
        <time>2020-10-03T10:26:05.000Z</time>
      </trkpt>
      <trkpt lat="43.61845" lon="1.09553">
        <ele>152</ele>
        <time>2020-10-03T10:26:06.000Z</time>
      </trkpt>
      <trkpt lat="43.61845" lon="1.09549">
        <ele>152</ele>
        <time>2020-10-03T10:26:07.000Z</time>
      </trkpt>
      <trkpt lat="43.61846" lon="1.09544">
        <ele>152</ele>
        <time>2020-10-03T10:26:08.000Z</time>
      </trkpt>
      <trkpt lat="43.61847" lon="1.0954">
        <ele>152</ele>
        <time>2020-10-03T10:26:09.000Z</time>
      </trkpt>
      <trkpt lat="43.61848" lon="1.09535">
        <ele>152</ele>
        <time>2020-10-03T10:26:10.000Z</time>
      </trkpt>
      <trkpt lat="43.61849" lon="1.09532">
        <ele>151.72071864297</ele>
        <time>2020-10-03T10:26:11.000Z</time>
      </trkpt>
      <trkpt lat="43.6185" lon="1.09528">
        <ele>151</ele>
        <time>2020-10-03T10:26:12.000Z</time>
      </trkpt>
      <trkpt lat="43.61851" lon="1.09524">
        <ele>151</ele>
        <time>2020-10-03T10:26:13.000Z</time>
      </trkpt>
      <trkpt lat="43.61853" lon="1.09519">
        <ele>151</ele>
        <time>2020-10-03T10:26:14.000Z</time>
      </trkpt>
      <trkpt lat="43.61854" lon="1.09515">
        <ele>150.62727346777</ele>
        <time>2020-10-03T10:26:15.000Z</time>
      </trkpt>
      <trkpt lat="43.61856" lon="1.09512">
        <ele>150</ele>
        <time>2020-10-03T10:26:16.000Z</time>
      </trkpt>
      <trkpt lat="43.61858" lon="1.09508">
        <ele>150</ele>
        <time>2020-10-03T10:26:17.000Z</time>
      </trkpt>
      <trkpt lat="43.6186" lon="1.09505">
        <ele>150</ele>
        <time>2020-10-03T10:26:18.000Z</time>
      </trkpt>
      <trkpt lat="43.61862" lon="1.09503">
        <ele>150</ele>
        <time>2020-10-03T10:26:19.000Z</time>
      </trkpt>
      <trkpt lat="43.61865" lon="1.095">
        <ele>150</ele>
        <time>2020-10-03T10:26:20.000Z</time>
      </trkpt>
      <trkpt lat="43.61867" lon="1.09498">
        <ele>150</ele>
        <time>2020-10-03T10:26:21.000Z</time>
      </trkpt>
      <trkpt lat="43.61869" lon="1.09496">
        <ele>150</ele>
        <time>2020-10-03T10:26:22.000Z</time>
      </trkpt>
      <trkpt lat="43.61872" lon="1.09493">
        <ele>150.30935410796</ele>
        <time>2020-10-03T10:26:23.000Z</time>
      </trkpt>
      <trkpt lat="43.61874" lon="1.0949">
        <ele>151</ele>
        <time>2020-10-03T10:26:24.000Z</time>
      </trkpt>
      <trkpt lat="43.61877" lon="1.09488">
        <ele>151</ele>
        <time>2020-10-03T10:26:25.000Z</time>
      </trkpt>
      <trkpt lat="43.6188" lon="1.09486">
        <ele>151</ele>
        <time>2020-10-03T10:26:26.000Z</time>
      </trkpt>
      <trkpt lat="43.61883" lon="1.09484">
        <ele>150.63528897991</ele>
        <time>2020-10-03T10:26:27.000Z</time>
      </trkpt>
      <trkpt lat="43.61886" lon="1.09482">
        <ele>150</ele>
        <time>2020-10-03T10:26:28.000Z</time>
      </trkpt>
      <trkpt lat="43.61889" lon="1.09479">
        <ele>150</ele>
        <time>2020-10-03T10:26:29.000Z</time>
      </trkpt>
      <trkpt lat="43.61892" lon="1.09477">
        <ele>150</ele>
        <time>2020-10-03T10:26:30.000Z</time>
      </trkpt>
      <trkpt lat="43.61894" lon="1.09475">
        <ele>149.7972947261</ele>
        <time>2020-10-03T10:26:31.000Z</time>
      </trkpt>
      <trkpt lat="43.61897" lon="1.09472">
        <ele>149</ele>
        <time>2020-10-03T10:26:32.000Z</time>
      </trkpt>
      <trkpt lat="43.619" lon="1.09469">
        <ele>149</ele>
        <time>2020-10-03T10:26:33.000Z</time>
      </trkpt>
      <trkpt lat="43.61903" lon="1.09468">
        <ele>149</ele>
        <time>2020-10-03T10:26:34.000Z</time>
      </trkpt>
      <trkpt lat="43.61906" lon="1.09466">
        <ele>148.64486260811</ele>
        <time>2020-10-03T10:26:35.000Z</time>
      </trkpt>
      <trkpt lat="43.61909" lon="1.09465">
        <ele>148</ele>
        <time>2020-10-03T10:26:36.000Z</time>
      </trkpt>
      <trkpt lat="43.61913" lon="1.09464">
        <ele>148</ele>
        <time>2020-10-03T10:26:37.000Z</time>
      </trkpt>
      <trkpt lat="43.61916" lon="1.09464">
        <ele>148.31858497298</ele>
        <time>2020-10-03T10:26:38.000Z</time>
      </trkpt>
      <trkpt lat="43.61919" lon="1.09464">
        <ele>149</ele>
        <time>2020-10-03T10:26:39.000Z</time>
      </trkpt>
      <trkpt lat="43.61922" lon="1.09465">
        <ele>149</ele>
        <time>2020-10-03T10:26:40.000Z</time>
      </trkpt>
      <trkpt lat="43.61925" lon="1.09468">
        <ele>149</ele>
        <time>2020-10-03T10:26:41.000Z</time>
      </trkpt>
      <trkpt lat="43.61927" lon="1.0947">
        <ele>149</ele>
        <time>2020-10-03T10:26:42.000Z</time>
      </trkpt>
      <trkpt lat="43.6193" lon="1.09473">
        <ele>149</ele>
        <time>2020-10-03T10:26:43.000Z</time>
      </trkpt>
      <trkpt lat="43.61933" lon="1.09476">
        <ele>149</ele>
        <time>2020-10-03T10:26:44.000Z</time>
      </trkpt>
      <trkpt lat="43.61935" lon="1.09478">
        <ele>149.49505113615</ele>
        <time>2020-10-03T10:26:45.000Z</time>
      </trkpt>
      <trkpt lat="43.61938" lon="1.09481">
        <ele>150</ele>
        <time>2020-10-03T10:26:46.000Z</time>
      </trkpt>
      <trkpt lat="43.6194" lon="1.09484">
        <ele>150</ele>
        <time>2020-10-03T10:26:47.000Z</time>
      </trkpt>
      <trkpt lat="43.61943" lon="1.09486">
        <ele>150</ele>
        <time>2020-10-03T10:26:48.000Z</time>
      </trkpt>
      <trkpt lat="43.61945" lon="1.09489">
        <ele>150</ele>
        <time>2020-10-03T10:26:49.000Z</time>
      </trkpt>
      <trkpt lat="43.61947" lon="1.09491">
        <ele>150</ele>
        <time>2020-10-03T10:26:50.000Z</time>
      </trkpt>
      <trkpt lat="43.61949" lon="1.09494">
        <ele>150</ele>
        <time>2020-10-03T10:26:51.000Z</time>
      </trkpt>
      <trkpt lat="43.61951" lon="1.09496">
        <ele>150</ele>
        <time>2020-10-03T10:26:52.000Z</time>
      </trkpt>
      <trkpt lat="43.61954" lon="1.09499">
        <ele>150</ele>
        <time>2020-10-03T10:26:53.000Z</time>
      </trkpt>
      <trkpt lat="43.61956" lon="1.09501">
        <ele>150</ele>
        <time>2020-10-03T10:26:54.000Z</time>
      </trkpt>
      <trkpt lat="43.61959" lon="1.09504">
        <ele>150</ele>
        <time>2020-10-03T10:26:55.000Z</time>
      </trkpt>
      <trkpt lat="43.61962" lon="1.09507">
        <ele>150</ele>
        <time>2020-10-03T10:26:56.000Z</time>
      </trkpt>
      <trkpt lat="43.61964" lon="1.0951">
        <ele>150</ele>
        <time>2020-10-03T10:26:57.000Z</time>
      </trkpt>
      <trkpt lat="43.61967" lon="1.09512">
        <ele>150</ele>
        <time>2020-10-03T10:26:58.000Z</time>
      </trkpt>
      <trkpt lat="43.61969" lon="1.09515">
        <ele>150</ele>
        <time>2020-10-03T10:26:59.000Z</time>
      </trkpt>
      <trkpt lat="43.61971" lon="1.09518">
        <ele>150</ele>
        <time>2020-10-03T10:27:00.000Z</time>
      </trkpt>
      <trkpt lat="43.61974" lon="1.09521">
        <ele>150</ele>
        <time>2020-10-03T10:27:01.000Z</time>
      </trkpt>
      <trkpt lat="43.61976" lon="1.09523">
        <ele>150</ele>
        <time>2020-10-03T10:27:02.000Z</time>
      </trkpt>
      <trkpt lat="43.61978" lon="1.09525">
        <ele>150.49019927718</ele>
        <time>2020-10-03T10:27:03.000Z</time>
      </trkpt>
      <trkpt lat="43.61981" lon="1.09527">
        <ele>151</ele>
        <time>2020-10-03T10:27:04.000Z</time>
      </trkpt>
      <trkpt lat="43.61983" lon="1.0953">
        <ele>151</ele>
        <time>2020-10-03T10:27:05.000Z</time>
      </trkpt>
      <trkpt lat="43.61986" lon="1.09532">
        <ele>150.50504893785</ele>
        <time>2020-10-03T10:27:06.000Z</time>
      </trkpt>
      <trkpt lat="43.61988" lon="1.09535">
        <ele>150</ele>
        <time>2020-10-03T10:27:07.000Z</time>
      </trkpt>
      <trkpt lat="43.61991" lon="1.09537">
        <ele>150</ele>
        <time>2020-10-03T10:27:08.000Z</time>
      </trkpt>
      <trkpt lat="43.61993" lon="1.0954">
        <ele>150</ele>
        <time>2020-10-03T10:27:09.000Z</time>
      </trkpt>
      <trkpt lat="43.61995" lon="1.09542">
        <ele>149.5699968</ele>
        <time>2020-10-03T10:27:10.000Z</time>
      </trkpt>
      <trkpt lat="43.61998" lon="1.09545">
        <ele>149</ele>
        <time>2020-10-03T10:27:11.000Z</time>
      </trkpt>
      <trkpt lat="43.62" lon="1.09548">
        <ele>149</ele>
        <time>2020-10-03T10:27:12.000Z</time>
      </trkpt>
      <trkpt lat="43.62003" lon="1.0955">
        <ele>149</ele>
        <time>2020-10-03T10:27:13.000Z</time>
      </trkpt>
      <trkpt lat="43.62006" lon="1.09553">
        <ele>148.53125333333</ele>
        <time>2020-10-03T10:27:14.000Z</time>
      </trkpt>
      <trkpt lat="43.62008" lon="1.09556">
        <ele>148</ele>
        <time>2020-10-03T10:27:15.000Z</time>
      </trkpt>
      <trkpt lat="43.62011" lon="1.09558">
        <ele>148</ele>
        <time>2020-10-03T10:27:16.000Z</time>
      </trkpt>
      <trkpt lat="43.62013" lon="1.0956">
        <ele>148.40833066667</ele>
        <time>2020-10-03T10:27:17.000Z</time>
      </trkpt>
      <trkpt lat="43.62015" lon="1.09563">
        <ele>149</ele>
        <time>2020-10-03T10:27:18.000Z</time>
      </trkpt>
      <trkpt lat="43.62018" lon="1.09565">
        <ele>149</ele>
        <time>2020-10-03T10:27:19.000Z</time>
      </trkpt>
      <trkpt lat="43.6202" lon="1.09568">
        <ele>149</ele>
        <time>2020-10-03T10:27:20.000Z</time>
      </trkpt>
      <trkpt lat="43.62022" lon="1.0957">
        <ele>149</ele>
        <time>2020-10-03T10:27:21.000Z</time>
      </trkpt>
      <trkpt lat="43.62024" lon="1.09574">
        <ele>149</ele>
        <time>2020-10-03T10:27:22.000Z</time>
      </trkpt>
      <trkpt lat="43.62026" lon="1.09576">
        <ele>149</ele>
        <time>2020-10-03T10:27:23.000Z</time>
      </trkpt>
      <trkpt lat="43.62029" lon="1.0958">
        <ele>149</ele>
        <time>2020-10-03T10:27:24.000Z</time>
      </trkpt>
      <trkpt lat="43.62031" lon="1.09582">
        <ele>149.4300032</ele>
        <time>2020-10-03T10:27:25.000Z</time>
      </trkpt>
      <trkpt lat="43.62033" lon="1.09585">
        <ele>150</ele>
        <time>2020-10-03T10:27:26.000Z</time>
      </trkpt>
      <trkpt lat="43.62035" lon="1.09587">
        <ele>150</ele>
        <time>2020-10-03T10:27:27.000Z</time>
      </trkpt>
      <trkpt lat="43.62038" lon="1.0959">
        <ele>150</ele>
        <time>2020-10-03T10:27:28.000Z</time>
      </trkpt>
      <trkpt lat="43.62041" lon="1.09593">
        <ele>150</ele>
        <time>2020-10-03T10:27:29.000Z</time>
      </trkpt>
      <trkpt lat="43.62044" lon="1.09595">
        <ele>150</ele>
        <time>2020-10-03T10:27:30.000Z</time>
      </trkpt>
      <trkpt lat="43.62047" lon="1.09598">
        <ele>150</ele>
        <time>2020-10-03T10:27:31.000Z</time>
      </trkpt>
      <trkpt lat="43.62049" lon="1.09601">
        <ele>150</ele>
        <time>2020-10-03T10:27:32.000Z</time>
      </trkpt>
      <trkpt lat="43.62052" lon="1.09603">
        <ele>150</ele>
        <time>2020-10-03T10:27:33.000Z</time>
      </trkpt>
      <trkpt lat="43.62054" lon="1.09605">
        <ele>150</ele>
        <time>2020-10-03T10:27:34.000Z</time>
      </trkpt>
      <trkpt lat="43.62057" lon="1.09608">
        <ele>150</ele>
        <time>2020-10-03T10:27:35.000Z</time>
      </trkpt>
      <trkpt lat="43.62059" lon="1.0961">
        <ele>150</ele>
        <time>2020-10-03T10:27:36.000Z</time>
      </trkpt>
      <trkpt lat="43.62062" lon="1.09613">
        <ele>150</ele>
        <time>2020-10-03T10:27:37.000Z</time>
      </trkpt>
      <trkpt lat="43.62064" lon="1.09616">
        <ele>150</ele>
        <time>2020-10-03T10:27:38.000Z</time>
      </trkpt>
      <trkpt lat="43.62066" lon="1.09619">
        <ele>150</ele>
        <time>2020-10-03T10:27:39.000Z</time>
      </trkpt>
      <trkpt lat="43.62068" lon="1.09621">
        <ele>150</ele>
        <time>2020-10-03T10:27:40.000Z</time>
      </trkpt>
      <trkpt lat="43.62071" lon="1.09624">
        <ele>150</ele>
        <time>2020-10-03T10:27:41.000Z</time>
      </trkpt>
      <trkpt lat="43.62073" lon="1.09627">
        <ele>150</ele>
        <time>2020-10-03T10:27:42.000Z</time>
      </trkpt>
      <trkpt lat="43.62076" lon="1.0963">
        <ele>149.66379034483</ele>
        <time>2020-10-03T10:27:43.000Z</time>
      </trkpt>
      <trkpt lat="43.62078" lon="1.09633">
        <ele>149</ele>
        <time>2020-10-03T10:27:44.000Z</time>
      </trkpt>
      <trkpt lat="43.62081" lon="1.09636">
        <ele>149</ele>
        <time>2020-10-03T10:27:45.000Z</time>
      </trkpt>
      <trkpt lat="43.62084" lon="1.09639">
        <ele>149</ele>
        <time>2020-10-03T10:27:46.000Z</time>
      </trkpt>
      <trkpt lat="43.62086" lon="1.09642">
        <ele>149</ele>
        <time>2020-10-03T10:27:47.000Z</time>
      </trkpt>
      <trkpt lat="43.62088" lon="1.09645">
        <ele>149</ele>
        <time>2020-10-03T10:27:48.000Z</time>
      </trkpt>
      <trkpt lat="43.6209" lon="1.09647">
        <ele>149</ele>
        <time>2020-10-03T10:27:49.000Z</time>
      </trkpt>
      <trkpt lat="43.62092" lon="1.09649">
        <ele>149</ele>
        <time>2020-10-03T10:27:50.000Z</time>
      </trkpt>
      <trkpt lat="43.62094" lon="1.09651">
        <ele>149</ele>
        <time>2020-10-03T10:27:51.000Z</time>
      </trkpt>
      <trkpt lat="43.62096" lon="1.09653">
        <ele>149</ele>
        <time>2020-10-03T10:27:52.000Z</time>
      </trkpt>
      <trkpt lat="43.62098" lon="1.09656">
        <ele>149</ele>
        <time>2020-10-03T10:27:53.000Z</time>
      </trkpt>
      <trkpt lat="43.62101" lon="1.09658">
        <ele>149</ele>
        <time>2020-10-03T10:27:54.000Z</time>
      </trkpt>
      <trkpt lat="43.62103" lon="1.0966">
        <ele>149</ele>
        <time>2020-10-03T10:27:55.000Z</time>
      </trkpt>
      <trkpt lat="43.62105" lon="1.09662">
        <ele>149</ele>
        <time>2020-10-03T10:27:56.000Z</time>
      </trkpt>
      <trkpt lat="43.62107" lon="1.09665">
        <ele>149</ele>
        <time>2020-10-03T10:27:57.000Z</time>
      </trkpt>
      <trkpt lat="43.62109" lon="1.09668">
        <ele>149</ele>
        <time>2020-10-03T10:27:58.000Z</time>
      </trkpt>
      <trkpt lat="43.62112" lon="1.0967">
        <ele>149</ele>
        <time>2020-10-03T10:27:59.000Z</time>
      </trkpt>
      <trkpt lat="43.62114" lon="1.09672">
        <ele>149</ele>
        <time>2020-10-03T10:28:00.000Z</time>
      </trkpt>
      <trkpt lat="43.62116" lon="1.09674">
        <ele>149</ele>
        <time>2020-10-03T10:28:01.000Z</time>
      </trkpt>
      <trkpt lat="43.62118" lon="1.09677">
        <ele>149</ele>
        <time>2020-10-03T10:28:02.000Z</time>
      </trkpt>
      <trkpt lat="43.6212" lon="1.09679">
        <ele>149</ele>
        <time>2020-10-03T10:28:03.000Z</time>
      </trkpt>
      <trkpt lat="43.62119" lon="1.09677">
        <ele>149</ele>
        <time>2020-10-03T10:28:06.000Z</time>
      </trkpt>
      <trkpt lat="43.62117" lon="1.09675">
        <ele>149</ele>
        <time>2020-10-03T10:28:07.000Z</time>
      </trkpt>
      <trkpt lat="43.62117" lon="1.09671">
        <ele>149</ele>
        <time>2020-10-03T10:28:08.000Z</time>
      </trkpt>
      <trkpt lat="43.62118" lon="1.09668">
        <ele>149</ele>
        <time>2020-10-03T10:28:09.000Z</time>
      </trkpt>
      <trkpt lat="43.62119" lon="1.09665">
        <ele>149</ele>
        <time>2020-10-03T10:28:10.000Z</time>
      </trkpt>
      <trkpt lat="43.62121" lon="1.09662">
        <ele>149</ele>
        <time>2020-10-03T10:28:11.000Z</time>
      </trkpt>
      <trkpt lat="43.62124" lon="1.09659">
        <ele>149</ele>
        <time>2020-10-03T10:28:12.000Z</time>
      </trkpt>
      <trkpt lat="43.62126" lon="1.09656">
        <ele>149</ele>
        <time>2020-10-03T10:28:13.000Z</time>
      </trkpt>
      <trkpt lat="43.62129" lon="1.09653">
        <ele>149</ele>
        <time>2020-10-03T10:28:14.000Z</time>
      </trkpt>
      <trkpt lat="43.62131" lon="1.09651">
        <ele>149</ele>
        <time>2020-10-03T10:28:15.000Z</time>
      </trkpt>
      <trkpt lat="43.62134" lon="1.09648">
        <ele>149</ele>
        <time>2020-10-03T10:28:16.000Z</time>
      </trkpt>
      <trkpt lat="43.62137" lon="1.09645">
        <ele>149</ele>
        <time>2020-10-03T10:28:17.000Z</time>
      </trkpt>
      <trkpt lat="43.6214" lon="1.09643">
        <ele>149</ele>
        <time>2020-10-03T10:28:18.000Z</time>
      </trkpt>
      <trkpt lat="43.62143" lon="1.09641">
        <ele>149</ele>
        <time>2020-10-03T10:28:19.000Z</time>
      </trkpt>
      <trkpt lat="43.62145" lon="1.09639">
        <ele>149</ele>
        <time>2020-10-03T10:28:20.000Z</time>
      </trkpt>
      <trkpt lat="43.62148" lon="1.09637">
        <ele>149</ele>
        <time>2020-10-03T10:28:21.000Z</time>
      </trkpt>
      <trkpt lat="43.62151" lon="1.09635">
        <ele>149</ele>
        <time>2020-10-03T10:28:22.000Z</time>
      </trkpt>
      <trkpt lat="43.62153" lon="1.09633">
        <ele>149</ele>
        <time>2020-10-03T10:28:23.000Z</time>
      </trkpt>
      <trkpt lat="43.62155" lon="1.09631">
        <ele>149</ele>
        <time>2020-10-03T10:28:24.000Z</time>
      </trkpt>
      <trkpt lat="43.62158" lon="1.09629">
        <ele>149</ele>
        <time>2020-10-03T10:28:25.000Z</time>
      </trkpt>
      <trkpt lat="43.6216" lon="1.09626">
        <ele>149</ele>
        <time>2020-10-03T10:28:26.000Z</time>
      </trkpt>
      <trkpt lat="43.62162" lon="1.09623">
        <ele>149</ele>
        <time>2020-10-03T10:28:27.000Z</time>
      </trkpt>
      <trkpt lat="43.62165" lon="1.0962">
        <ele>149</ele>
        <time>2020-10-03T10:28:28.000Z</time>
      </trkpt>
      <trkpt lat="43.62167" lon="1.09617">
        <ele>149</ele>
        <time>2020-10-03T10:28:29.000Z</time>
      </trkpt>
      <trkpt lat="43.6217" lon="1.09614">
        <ele>149</ele>
        <time>2020-10-03T10:28:30.000Z</time>
      </trkpt>
      <trkpt lat="43.62172" lon="1.09611">
        <ele>149</ele>
        <time>2020-10-03T10:28:31.000Z</time>
      </trkpt>
      <trkpt lat="43.62174" lon="1.09608">
        <ele>149</ele>
        <time>2020-10-03T10:28:32.000Z</time>
      </trkpt>
      <trkpt lat="43.62177" lon="1.09605">
        <ele>149</ele>
        <time>2020-10-03T10:28:33.000Z</time>
      </trkpt>
      <trkpt lat="43.62179" lon="1.09602">
        <ele>148.54716707724</ele>
        <time>2020-10-03T10:28:34.000Z</time>
      </trkpt>
      <trkpt lat="43.62182" lon="1.096">
        <ele>148</ele>
        <time>2020-10-03T10:28:35.000Z</time>
      </trkpt>
      <trkpt lat="43.62185" lon="1.09597">
        <ele>148</ele>
        <time>2020-10-03T10:28:36.000Z</time>
      </trkpt>
      <trkpt lat="43.62187" lon="1.09595">
        <ele>148</ele>
        <time>2020-10-03T10:28:37.000Z</time>
      </trkpt>
      <trkpt lat="43.6219" lon="1.09593">
        <ele>148</ele>
        <time>2020-10-03T10:28:38.000Z</time>
      </trkpt>
      <trkpt lat="43.62193" lon="1.09591">
        <ele>148</ele>
        <time>2020-10-03T10:28:39.000Z</time>
      </trkpt>
      <trkpt lat="43.62196" lon="1.09589">
        <ele>148</ele>
        <time>2020-10-03T10:28:40.000Z</time>
      </trkpt>
      <trkpt lat="43.62198" lon="1.09587">
        <ele>148</ele>
        <time>2020-10-03T10:28:41.000Z</time>
      </trkpt>
      <trkpt lat="43.62201" lon="1.09585">
        <ele>147.53191170663</ele>
        <time>2020-10-03T10:28:42.000Z</time>
      </trkpt>
      <trkpt lat="43.62203" lon="1.09583">
        <ele>147</ele>
        <time>2020-10-03T10:28:43.000Z</time>
      </trkpt>
      <trkpt lat="43.62206" lon="1.0958">
        <ele>147</ele>
        <time>2020-10-03T10:28:44.000Z</time>
      </trkpt>
      <trkpt lat="43.62209" lon="1.09578">
        <ele>147</ele>
        <time>2020-10-03T10:28:45.000Z</time>
      </trkpt>
      <trkpt lat="43.62211" lon="1.09576">
        <ele>147</ele>
        <time>2020-10-03T10:28:46.000Z</time>
      </trkpt>
      <trkpt lat="43.62214" lon="1.09573">
        <ele>147</ele>
        <time>2020-10-03T10:28:47.000Z</time>
      </trkpt>
      <trkpt lat="43.62216" lon="1.09571">
        <ele>147</ele>
        <time>2020-10-03T10:28:48.000Z</time>
      </trkpt>
      <trkpt lat="43.62218" lon="1.09569">
        <ele>147</ele>
        <time>2020-10-03T10:28:49.000Z</time>
      </trkpt>
      <trkpt lat="43.6222" lon="1.09567">
        <ele>147</ele>
        <time>2020-10-03T10:28:50.000Z</time>
      </trkpt>
      <trkpt lat="43.62223" lon="1.09565">
        <ele>147</ele>
        <time>2020-10-03T10:28:51.000Z</time>
      </trkpt>
      <trkpt lat="43.62225" lon="1.09562">
        <ele>147</ele>
        <time>2020-10-03T10:28:52.000Z</time>
      </trkpt>
      <trkpt lat="43.62228" lon="1.0956">
        <ele>147.14814873343</ele>
        <time>2020-10-03T10:28:53.000Z</time>
      </trkpt>
      <trkpt lat="43.62231" lon="1.09557">
        <ele>148</ele>
        <time>2020-10-03T10:28:54.000Z</time>
      </trkpt>
      <trkpt lat="43.62233" lon="1.09555">
        <ele>148</ele>
        <time>2020-10-03T10:28:55.000Z</time>
      </trkpt>
      <trkpt lat="43.62236" lon="1.09553">
        <ele>148</ele>
        <time>2020-10-03T10:28:56.000Z</time>
      </trkpt>
      <trkpt lat="43.62238" lon="1.09551">
        <ele>148</ele>
        <time>2020-10-03T10:28:57.000Z</time>
      </trkpt>
      <trkpt lat="43.62241" lon="1.09548">
        <ele>148</ele>
        <time>2020-10-03T10:28:58.000Z</time>
      </trkpt>
      <trkpt lat="43.62243" lon="1.09546">
        <ele>148</ele>
        <time>2020-10-03T10:28:59.000Z</time>
      </trkpt>
      <trkpt lat="43.62245" lon="1.09544">
        <ele>148</ele>
        <time>2020-10-03T10:29:00.000Z</time>
      </trkpt>
      <trkpt lat="43.62247" lon="1.09542">
        <ele>148</ele>
        <time>2020-10-03T10:29:01.000Z</time>
      </trkpt>
      <trkpt lat="43.6225" lon="1.09539">
        <ele>148</ele>
        <time>2020-10-03T10:29:02.000Z</time>
      </trkpt>
      <trkpt lat="43.62253" lon="1.09537">
        <ele>147.85525894737</ele>
        <time>2020-10-03T10:29:03.000Z</time>
      </trkpt>
      <trkpt lat="43.62255" lon="1.09535">
        <ele>147</ele>
        <time>2020-10-03T10:29:04.000Z</time>
      </trkpt>
      <trkpt lat="43.62258" lon="1.09532">
        <ele>147</ele>
        <time>2020-10-03T10:29:05.000Z</time>
      </trkpt>
      <trkpt lat="43.6226" lon="1.09529">
        <ele>147</ele>
        <time>2020-10-03T10:29:06.000Z</time>
      </trkpt>
      <trkpt lat="43.62262" lon="1.09526">
        <ele>147</ele>
        <time>2020-10-03T10:29:07.000Z</time>
      </trkpt>
      <trkpt lat="43.62264" lon="1.09523">
        <ele>147</ele>
        <time>2020-10-03T10:29:08.000Z</time>
      </trkpt>
      <trkpt lat="43.62266" lon="1.0952">
        <ele>146.64233726677</ele>
        <time>2020-10-03T10:29:09.000Z</time>
      </trkpt>
      <trkpt lat="43.62267" lon="1.09518">
        <ele>146</ele>
        <time>2020-10-03T10:29:10.000Z</time>
      </trkpt>
      <trkpt lat="43.62269" lon="1.09514">
        <ele>146</ele>
        <time>2020-10-03T10:29:11.000Z</time>
      </trkpt>
      <trkpt lat="43.62271" lon="1.09511">
        <ele>146</ele>
        <time>2020-10-03T10:29:12.000Z</time>
      </trkpt>
      <trkpt lat="43.62272" lon="1.09508">
        <ele>146</ele>
        <time>2020-10-03T10:29:13.000Z</time>
      </trkpt>
      <trkpt lat="43.62275" lon="1.09505">
        <ele>146</ele>
        <time>2020-10-03T10:29:14.000Z</time>
      </trkpt>
      <trkpt lat="43.62278" lon="1.09503">
        <ele>146</ele>
        <time>2020-10-03T10:29:15.000Z</time>
      </trkpt>
      <trkpt lat="43.6228" lon="1.095">
        <ele>146</ele>
        <time>2020-10-03T10:29:16.000Z</time>
      </trkpt>
      <trkpt lat="43.62282" lon="1.09498">
        <ele>146</ele>
        <time>2020-10-03T10:29:17.000Z</time>
      </trkpt>
      <trkpt lat="43.62285" lon="1.09495">
        <ele>145.53125333333</ele>
        <time>2020-10-03T10:29:18.000Z</time>
      </trkpt>
      <trkpt lat="43.62287" lon="1.09492">
        <ele>145</ele>
        <time>2020-10-03T10:29:19.000Z</time>
      </trkpt>
      <trkpt lat="43.6229" lon="1.09489">
        <ele>145</ele>
        <time>2020-10-03T10:29:20.000Z</time>
      </trkpt>
      <trkpt lat="43.62293" lon="1.09486">
        <ele>144.61538158581</ele>
        <time>2020-10-03T10:29:21.000Z</time>
      </trkpt>
      <trkpt lat="43.62296" lon="1.09482">
        <ele>144</ele>
        <time>2020-10-03T10:29:22.000Z</time>
      </trkpt>
      <trkpt lat="43.62299" lon="1.09479">
        <ele>144</ele>
        <time>2020-10-03T10:29:23.000Z</time>
      </trkpt>
      <trkpt lat="43.62301" lon="1.09475">
        <ele>143.67741935484</ele>
        <time>2020-10-03T10:29:24.000Z</time>
      </trkpt>
      <trkpt lat="43.62304" lon="1.09472">
        <ele>143</ele>
        <time>2020-10-03T10:29:25.000Z</time>
      </trkpt>
      <trkpt lat="43.62307" lon="1.09469">
        <ele>143</ele>
        <time>2020-10-03T10:29:26.000Z</time>
      </trkpt>
      <trkpt lat="43.62309" lon="1.09466">
        <ele>143</ele>
        <time>2020-10-03T10:29:27.000Z</time>
      </trkpt>
      <trkpt lat="43.62313" lon="1.09463">
        <ele>142.52631437118</ele>
        <time>2020-10-03T10:29:28.000Z</time>
      </trkpt>
      <trkpt lat="43.62315" lon="1.09461">
        <ele>142</ele>
        <time>2020-10-03T10:29:29.000Z</time>
      </trkpt>
      <trkpt lat="43.62318" lon="1.09458">
        <ele>142</ele>
        <time>2020-10-03T10:29:30.000Z</time>
      </trkpt>
      <trkpt lat="43.62321" lon="1.09456">
        <ele>141.51922461539</ele>
        <time>2020-10-03T10:29:31.000Z</time>
      </trkpt>
      <trkpt lat="43.62324" lon="1.09454">
        <ele>141</ele>
        <time>2020-10-03T10:29:32.000Z</time>
      </trkpt>
      <trkpt lat="43.62327" lon="1.09452">
        <ele>141</ele>
        <time>2020-10-03T10:29:33.000Z</time>
      </trkpt>
      <trkpt lat="43.62329" lon="1.0945">
        <ele>141</ele>
        <time>2020-10-03T10:29:34.000Z</time>
      </trkpt>
      <trkpt lat="43.62332" lon="1.09448">
        <ele>141</ele>
        <time>2020-10-03T10:29:35.000Z</time>
      </trkpt>
      <trkpt lat="43.62335" lon="1.09446">
        <ele>140.58974246767</ele>
        <time>2020-10-03T10:29:36.000Z</time>
      </trkpt>
      <trkpt lat="43.62338" lon="1.09444">
        <ele>140</ele>
        <time>2020-10-03T10:29:37.000Z</time>
      </trkpt>
      <trkpt lat="43.6234" lon="1.09441">
        <ele>140</ele>
        <time>2020-10-03T10:29:38.000Z</time>
      </trkpt>
      <trkpt lat="43.62343" lon="1.09439">
        <ele>140</ele>
        <time>2020-10-03T10:29:39.000Z</time>
      </trkpt>
      <trkpt lat="43.62346" lon="1.09437">
        <ele>140</ele>
        <time>2020-10-03T10:29:40.000Z</time>
      </trkpt>
      <trkpt lat="43.62348" lon="1.09434">
        <ele>140</ele>
        <time>2020-10-03T10:29:41.000Z</time>
      </trkpt>
      <trkpt lat="43.62351" lon="1.09432">
        <ele>140</ele>
        <time>2020-10-03T10:29:42.000Z</time>
      </trkpt>
      <trkpt lat="43.62354" lon="1.09429">
        <ele>140</ele>
        <time>2020-10-03T10:29:43.000Z</time>
      </trkpt>
      <trkpt lat="43.62357" lon="1.09427">
        <ele>140.44444760496</ele>
        <time>2020-10-03T10:29:44.000Z</time>
      </trkpt>
      <trkpt lat="43.62359" lon="1.09424">
        <ele>141</ele>
        <time>2020-10-03T10:29:45.000Z</time>
      </trkpt>
      <trkpt lat="43.62362" lon="1.09422">
        <ele>141</ele>
        <time>2020-10-03T10:29:46.000Z</time>
      </trkpt>
      <trkpt lat="43.62364" lon="1.0942">
        <ele>141</ele>
        <time>2020-10-03T10:29:47.000Z</time>
      </trkpt>
      <trkpt lat="43.62367" lon="1.09418">
        <ele>141</ele>
        <time>2020-10-03T10:29:48.000Z</time>
      </trkpt>
      <trkpt lat="43.62369" lon="1.09416">
        <ele>141</ele>
        <time>2020-10-03T10:29:49.000Z</time>
      </trkpt>
      <trkpt lat="43.6237" lon="1.09413">
        <ele>140.54205495676</ele>
        <time>2020-10-03T10:29:50.000Z</time>
      </trkpt>
      <trkpt lat="43.62371" lon="1.0941">
        <ele>140</ele>
        <time>2020-10-03T10:29:51.000Z</time>
      </trkpt>
      <trkpt lat="43.62372" lon="1.09407">
        <ele>140.45055068713</ele>
        <time>2020-10-03T10:29:52.000Z</time>
      </trkpt>
      <trkpt lat="43.62373" lon="1.09403">
        <ele>141</ele>
        <time>2020-10-03T10:29:53.000Z</time>
      </trkpt>
      <trkpt lat="43.62374" lon="1.09399">
        <ele>140.67045818182</ele>
        <time>2020-10-03T10:29:54.000Z</time>
      </trkpt>
      <trkpt lat="43.62374" lon="1.09395">
        <ele>140</ele>
        <time>2020-10-03T10:29:55.000Z</time>
      </trkpt>
      <trkpt lat="43.62374" lon="1.09391">
        <ele>140</ele>
        <time>2020-10-03T10:29:56.000Z</time>
      </trkpt>
      <trkpt lat="43.62374" lon="1.09386">
        <ele>140</ele>
        <time>2020-10-03T10:29:57.000Z</time>
      </trkpt>
      <trkpt lat="43.62373" lon="1.09381">
        <ele>140</ele>
        <time>2020-10-03T10:29:58.000Z</time>
      </trkpt>
      <trkpt lat="43.62373" lon="1.09377">
        <ele>140</ele>
        <time>2020-10-03T10:29:59.000Z</time>
      </trkpt>
      <trkpt lat="43.62373" lon="1.09373">
        <ele>140</ele>
        <time>2020-10-03T10:30:00.000Z</time>
      </trkpt>
      <trkpt lat="43.62372" lon="1.09369">
        <ele>140</ele>
        <time>2020-10-03T10:30:01.000Z</time>
      </trkpt>
      <trkpt lat="43.62372" lon="1.09365">
        <ele>140</ele>
        <time>2020-10-03T10:30:02.000Z</time>
      </trkpt>
      <trkpt lat="43.62371" lon="1.09361">
        <ele>140</ele>
        <time>2020-10-03T10:30:03.000Z</time>
      </trkpt>
      <trkpt lat="43.62371" lon="1.09357">
        <ele>140</ele>
        <time>2020-10-03T10:30:04.000Z</time>
      </trkpt>
      <trkpt lat="43.62371" lon="1.09354">
        <ele>140</ele>
        <time>2020-10-03T10:30:05.000Z</time>
      </trkpt>
      <trkpt lat="43.62371" lon="1.0935">
        <ele>140</ele>
        <time>2020-10-03T10:30:06.000Z</time>
      </trkpt>
      <trkpt lat="43.62371" lon="1.09346">
        <ele>140</ele>
        <time>2020-10-03T10:30:07.000Z</time>
      </trkpt>
      <trkpt lat="43.62371" lon="1.09342">
        <ele>140</ele>
        <time>2020-10-03T10:30:08.000Z</time>
      </trkpt>
      <trkpt lat="43.62371" lon="1.09338">
        <ele>140</ele>
        <time>2020-10-03T10:30:09.000Z</time>
      </trkpt>
      <trkpt lat="43.6237" lon="1.09334">
        <ele>140</ele>
        <time>2020-10-03T10:30:10.000Z</time>
      </trkpt>
      <trkpt lat="43.6237" lon="1.0933">
        <ele>140</ele>
        <time>2020-10-03T10:30:11.000Z</time>
      </trkpt>
      <trkpt lat="43.6237" lon="1.09326">
        <ele>140</ele>
        <time>2020-10-03T10:30:12.000Z</time>
      </trkpt>
      <trkpt lat="43.62369" lon="1.09323">
        <ele>140</ele>
        <time>2020-10-03T10:30:13.000Z</time>
      </trkpt>
      <trkpt lat="43.62369" lon="1.09319">
        <ele>140</ele>
        <time>2020-10-03T10:30:14.000Z</time>
      </trkpt>
      <trkpt lat="43.62368" lon="1.09315">
        <ele>140</ele>
        <time>2020-10-03T10:30:15.000Z</time>
      </trkpt>
      <trkpt lat="43.62367" lon="1.09312">
        <ele>140</ele>
        <time>2020-10-03T10:30:16.000Z</time>
      </trkpt>
      <trkpt lat="43.62367" lon="1.09308">
        <ele>140</ele>
        <time>2020-10-03T10:30:17.000Z</time>
      </trkpt>
      <trkpt lat="43.62367" lon="1.09305">
        <ele>140</ele>
        <time>2020-10-03T10:30:18.000Z</time>
      </trkpt>
      <trkpt lat="43.62366" lon="1.09302">
        <ele>140</ele>
        <time>2020-10-03T10:30:19.000Z</time>
      </trkpt>
      <trkpt lat="43.62366" lon="1.09298">
        <ele>140</ele>
        <time>2020-10-03T10:30:20.000Z</time>
      </trkpt>
      <trkpt lat="43.62366" lon="1.09294">
        <ele>140</ele>
        <time>2020-10-03T10:30:21.000Z</time>
      </trkpt>
      <trkpt lat="43.62365" lon="1.09291">
        <ele>140</ele>
        <time>2020-10-03T10:30:22.000Z</time>
      </trkpt>
      <trkpt lat="43.62364" lon="1.09288">
        <ele>140</ele>
        <time>2020-10-03T10:30:23.000Z</time>
      </trkpt>
      <trkpt lat="43.62364" lon="1.09284">
        <ele>140</ele>
        <time>2020-10-03T10:30:24.000Z</time>
      </trkpt>
      <trkpt lat="43.62364" lon="1.09281">
        <ele>140</ele>
        <time>2020-10-03T10:30:25.000Z</time>
      </trkpt>
      <trkpt lat="43.62364" lon="1.09278">
        <ele>140</ele>
        <time>2020-10-03T10:30:26.000Z</time>
      </trkpt>
      <trkpt lat="43.62363" lon="1.09274">
        <ele>140</ele>
        <time>2020-10-03T10:30:27.000Z</time>
      </trkpt>
      <trkpt lat="43.62363" lon="1.09271">
        <ele>140</ele>
        <time>2020-10-03T10:30:28.000Z</time>
      </trkpt>
      <trkpt lat="43.62363" lon="1.09267">
        <ele>140</ele>
        <time>2020-10-03T10:30:29.000Z</time>
      </trkpt>
      <trkpt lat="43.62362" lon="1.09264">
        <ele>140</ele>
        <time>2020-10-03T10:30:30.000Z</time>
      </trkpt>
      <trkpt lat="43.62362" lon="1.0926">
        <ele>140</ele>
        <time>2020-10-03T10:30:31.000Z</time>
      </trkpt>
      <trkpt lat="43.62362" lon="1.09256">
        <ele>140</ele>
        <time>2020-10-03T10:30:32.000Z</time>
      </trkpt>
      <trkpt lat="43.62361" lon="1.09253">
        <ele>140</ele>
        <time>2020-10-03T10:30:33.000Z</time>
      </trkpt>
      <trkpt lat="43.62361" lon="1.09249">
        <ele>140</ele>
        <time>2020-10-03T10:30:34.000Z</time>
      </trkpt>
      <trkpt lat="43.6236" lon="1.09247">
        <ele>140</ele>
        <time>2020-10-03T10:30:35.000Z</time>
      </trkpt>
      <trkpt lat="43.6236" lon="1.09244">
        <ele>140</ele>
        <time>2020-10-03T10:30:37.000Z</time>
      </trkpt>
      <trkpt lat="43.62359" lon="1.09241">
        <ele>140</ele>
        <time>2020-10-03T10:30:42.000Z</time>
      </trkpt>
      <trkpt lat="43.62359" lon="1.09237">
        <ele>140</ele>
        <time>2020-10-03T10:30:44.000Z</time>
      </trkpt>
      <trkpt lat="43.62359" lon="1.09233">
        <ele>140</ele>
        <time>2020-10-03T10:30:46.000Z</time>
      </trkpt>
      <trkpt lat="43.62359" lon="1.09229">
        <ele>140</ele>
        <time>2020-10-03T10:30:48.000Z</time>
      </trkpt>
      <trkpt lat="43.62358" lon="1.09225">
        <ele>140</ele>
        <time>2020-10-03T10:30:50.000Z</time>
      </trkpt>
      <trkpt lat="43.62357" lon="1.09221">
        <ele>140</ele>
        <time>2020-10-03T10:30:52.000Z</time>
      </trkpt>
      <trkpt lat="43.62357" lon="1.09218">
        <ele>140</ele>
        <time>2020-10-03T10:30:54.000Z</time>
      </trkpt>
      <trkpt lat="43.62357" lon="1.09214">
        <ele>140</ele>
        <time>2020-10-03T10:30:56.000Z</time>
      </trkpt>
      <trkpt lat="43.62357" lon="1.09211">
        <ele>140</ele>
        <time>2020-10-03T10:30:58.000Z</time>
      </trkpt>
      <trkpt lat="43.62357" lon="1.09208">
        <ele>140</ele>
        <time>2020-10-03T10:31:00.000Z</time>
      </trkpt>
      <trkpt lat="43.62357" lon="1.09204">
        <ele>140</ele>
        <time>2020-10-03T10:31:02.000Z</time>
      </trkpt>
      <trkpt lat="43.62357" lon="1.09201">
        <ele>140</ele>
        <time>2020-10-03T10:31:04.000Z</time>
      </trkpt>
      <trkpt lat="43.62358" lon="1.09197">
        <ele>140</ele>
        <time>2020-10-03T10:31:06.000Z</time>
      </trkpt>
      <trkpt lat="43.62358" lon="1.09193">
        <ele>140.36421130952</ele>
        <time>2020-10-03T10:31:08.000Z</time>
      </trkpt>
      <trkpt lat="43.62359" lon="1.09189">
        <ele>141</ele>
        <time>2020-10-03T10:31:10.000Z</time>
      </trkpt>
      <trkpt lat="43.6236" lon="1.09183">
        <ele>141</ele>
        <time>2020-10-03T10:31:12.000Z</time>
      </trkpt>
      <trkpt lat="43.6236" lon="1.0918">
        <ele>141</ele>
        <time>2020-10-03T10:31:13.000Z</time>
      </trkpt>
      <trkpt lat="43.6236" lon="1.09176">
        <ele>141</ele>
        <time>2020-10-03T10:31:14.000Z</time>
      </trkpt>
      <trkpt lat="43.6236" lon="1.09173">
        <ele>141</ele>
        <time>2020-10-03T10:31:15.000Z</time>
      </trkpt>
      <trkpt lat="43.6236" lon="1.09169">
        <ele>141</ele>
        <time>2020-10-03T10:31:16.000Z</time>
      </trkpt>
      <trkpt lat="43.6236" lon="1.09165">
        <ele>141</ele>
        <time>2020-10-03T10:31:17.000Z</time>
      </trkpt>
      <trkpt lat="43.62359" lon="1.09162">
        <ele>141</ele>
        <time>2020-10-03T10:31:18.000Z</time>
      </trkpt>
      <trkpt lat="43.62358" lon="1.09158">
        <ele>141</ele>
        <time>2020-10-03T10:31:19.000Z</time>
      </trkpt>
      <trkpt lat="43.62358" lon="1.09155">
        <ele>141</ele>
        <time>2020-10-03T10:31:20.000Z</time>
      </trkpt>
      <trkpt lat="43.62357" lon="1.09152">
        <ele>141</ele>
        <time>2020-10-03T10:31:21.000Z</time>
      </trkpt>
      <trkpt lat="43.62357" lon="1.09148">
        <ele>141</ele>
        <time>2020-10-03T10:31:22.000Z</time>
      </trkpt>
      <trkpt lat="43.62356" lon="1.09144">
        <ele>141</ele>
        <time>2020-10-03T10:31:23.000Z</time>
      </trkpt>
      <trkpt lat="43.62356" lon="1.09141">
        <ele>141</ele>
        <time>2020-10-03T10:31:24.000Z</time>
      </trkpt>
      <trkpt lat="43.62356" lon="1.09137">
        <ele>141.85416</ele>
        <time>2020-10-03T10:31:25.000Z</time>
      </trkpt>
      <trkpt lat="43.62356" lon="1.09133">
        <ele>143</ele>
        <time>2020-10-03T10:31:26.000Z</time>
      </trkpt>
      <trkpt lat="43.62356" lon="1.09129">
        <ele>143</ele>
        <time>2020-10-03T10:31:27.000Z</time>
      </trkpt>
      <trkpt lat="43.62356" lon="1.09125">
        <ele>142.59677519252</ele>
        <time>2020-10-03T10:31:28.000Z</time>
      </trkpt>
      <trkpt lat="43.62356" lon="1.09122">
        <ele>142</ele>
        <time>2020-10-03T10:31:29.000Z</time>
      </trkpt>
      <trkpt lat="43.62356" lon="1.09118">
        <ele>141.6575576057</ele>
        <time>2020-10-03T10:31:30.000Z</time>
      </trkpt>
      <trkpt lat="43.62356" lon="1.09114">
        <ele>141</ele>
        <time>2020-10-03T10:31:31.000Z</time>
      </trkpt>
      <trkpt lat="43.62356" lon="1.09108">
        <ele>141</ele>
        <time>2020-10-03T10:31:32.000Z</time>
      </trkpt>
      <trkpt lat="43.62356" lon="1.09103">
        <ele>141</ele>
        <time>2020-10-03T10:31:33.000Z</time>
      </trkpt>
      <trkpt lat="43.62356" lon="1.09099">
        <ele>141</ele>
        <time>2020-10-03T10:31:34.000Z</time>
      </trkpt>
      <trkpt lat="43.62355" lon="1.09094">
        <ele>141</ele>
        <time>2020-10-03T10:31:35.000Z</time>
      </trkpt>
      <trkpt lat="43.62355" lon="1.09088">
        <ele>141</ele>
        <time>2020-10-03T10:31:36.000Z</time>
      </trkpt>
      <trkpt lat="43.62355" lon="1.09084">
        <ele>141</ele>
        <time>2020-10-03T10:31:37.000Z</time>
      </trkpt>
      <trkpt lat="43.62354" lon="1.0908">
        <ele>141</ele>
        <time>2020-10-03T10:31:38.000Z</time>
      </trkpt>
      <trkpt lat="43.62354" lon="1.09076">
        <ele>141</ele>
        <time>2020-10-03T10:31:39.000Z</time>
      </trkpt>
      <trkpt lat="43.62354" lon="1.09071">
        <ele>141</ele>
        <time>2020-10-03T10:31:40.000Z</time>
      </trkpt>
      <trkpt lat="43.62354" lon="1.09067">
        <ele>140.55914170887</ele>
        <time>2020-10-03T10:31:41.000Z</time>
      </trkpt>
      <trkpt lat="43.62354" lon="1.09063">
        <ele>140</ele>
        <time>2020-10-03T10:31:42.000Z</time>
      </trkpt>
      <trkpt lat="43.62354" lon="1.09058">
        <ele>140</ele>
        <time>2020-10-03T10:31:43.000Z</time>
      </trkpt>
      <trkpt lat="43.62353" lon="1.09054">
        <ele>140</ele>
        <time>2020-10-03T10:31:44.000Z</time>
      </trkpt>
      <trkpt lat="43.62353" lon="1.0905">
        <ele>140</ele>
        <time>2020-10-03T10:31:45.000Z</time>
      </trkpt>
      <trkpt lat="43.62352" lon="1.09046">
        <ele>140</ele>
        <time>2020-10-03T10:31:46.000Z</time>
      </trkpt>
      <trkpt lat="43.62352" lon="1.09042">
        <ele>140</ele>
        <time>2020-10-03T10:31:47.000Z</time>
      </trkpt>
      <trkpt lat="43.62351" lon="1.09038">
        <ele>140</ele>
        <time>2020-10-03T10:31:48.000Z</time>
      </trkpt>
      <trkpt lat="43.62351" lon="1.09033">
        <ele>140</ele>
        <time>2020-10-03T10:31:49.000Z</time>
      </trkpt>
      <trkpt lat="43.62351" lon="1.09029">
        <ele>140</ele>
        <time>2020-10-03T10:31:50.000Z</time>
      </trkpt>
      <trkpt lat="43.6235" lon="1.09025">
        <ele>140</ele>
        <time>2020-10-03T10:31:51.000Z</time>
      </trkpt>
      <trkpt lat="43.62351" lon="1.09022">
        <ele>140</ele>
        <time>2020-10-03T10:31:52.000Z</time>
      </trkpt>
      <trkpt lat="43.62351" lon="1.09019">
        <ele>140</ele>
        <time>2020-10-03T10:31:53.000Z</time>
      </trkpt>
      <trkpt lat="43.6235" lon="1.09015">
        <ele>140</ele>
        <time>2020-10-03T10:31:54.000Z</time>
      </trkpt>
      <trkpt lat="43.6235" lon="1.09011">
        <ele>140.32222095802</ele>
        <time>2020-10-03T10:31:55.000Z</time>
      </trkpt>
      <trkpt lat="43.6235" lon="1.09007">
        <ele>141</ele>
        <time>2020-10-03T10:31:56.000Z</time>
      </trkpt>
      <trkpt lat="43.6235" lon="1.09003">
        <ele>141</ele>
        <time>2020-10-03T10:31:57.000Z</time>
      </trkpt>
      <trkpt lat="43.6235" lon="1.08999">
        <ele>141</ele>
        <time>2020-10-03T10:31:58.000Z</time>
      </trkpt>
      <trkpt lat="43.6235" lon="1.08995">
        <ele>141</ele>
        <time>2020-10-03T10:31:59.000Z</time>
      </trkpt>
      <trkpt lat="43.6235" lon="1.08991">
        <ele>141</ele>
        <time>2020-10-03T10:32:00.000Z</time>
      </trkpt>
      <trkpt lat="43.6235" lon="1.08987">
        <ele>141</ele>
        <time>2020-10-03T10:32:01.000Z</time>
      </trkpt>
      <trkpt lat="43.6235" lon="1.08983">
        <ele>141</ele>
        <time>2020-10-03T10:32:02.000Z</time>
      </trkpt>
      <trkpt lat="43.62349" lon="1.08979">
        <ele>141</ele>
        <time>2020-10-03T10:32:03.000Z</time>
      </trkpt>
      <trkpt lat="43.62349" lon="1.08975">
        <ele>140.94338984688</ele>
        <time>2020-10-03T10:32:04.000Z</time>
      </trkpt>
      <trkpt lat="43.62349" lon="1.08971">
        <ele>140</ele>
        <time>2020-10-03T10:32:05.000Z</time>
      </trkpt>
      <trkpt lat="43.62349" lon="1.08966">
        <ele>140</ele>
        <time>2020-10-03T10:32:06.000Z</time>
      </trkpt>
      <trkpt lat="43.62348" lon="1.08963">
        <ele>140</ele>
        <time>2020-10-03T10:32:07.000Z</time>
      </trkpt>
      <trkpt lat="43.62348" lon="1.08959">
        <ele>140</ele>
        <time>2020-10-03T10:32:08.000Z</time>
      </trkpt>
      <trkpt lat="43.62348" lon="1.08955">
        <ele>140</ele>
        <time>2020-10-03T10:32:09.000Z</time>
      </trkpt>
      <trkpt lat="43.62347" lon="1.08951">
        <ele>140</ele>
        <time>2020-10-03T10:32:10.000Z</time>
      </trkpt>
      <trkpt lat="43.62346" lon="1.08947">
        <ele>140</ele>
        <time>2020-10-03T10:32:11.000Z</time>
      </trkpt>
      <trkpt lat="43.62346" lon="1.08943">
        <ele>140</ele>
        <time>2020-10-03T10:32:12.000Z</time>
      </trkpt>
      <trkpt lat="43.62346" lon="1.08938">
        <ele>140</ele>
        <time>2020-10-03T10:32:13.000Z</time>
      </trkpt>
      <trkpt lat="43.62346" lon="1.08934">
        <ele>140</ele>
        <time>2020-10-03T10:32:14.000Z</time>
      </trkpt>
      <trkpt lat="43.62346" lon="1.08931">
        <ele>140</ele>
        <time>2020-10-03T10:32:15.000Z</time>
      </trkpt>
      <trkpt lat="43.62346" lon="1.08927">
        <ele>140.36421130952</ele>
        <time>2020-10-03T10:32:16.000Z</time>
      </trkpt>
      <trkpt lat="43.62345" lon="1.08923">
        <ele>141</ele>
        <time>2020-10-03T10:32:17.000Z</time>
      </trkpt>
      <trkpt lat="43.62345" lon="1.08919">
        <ele>141</ele>
        <time>2020-10-03T10:32:18.000Z</time>
      </trkpt>
      <trkpt lat="43.62346" lon="1.08915">
        <ele>141</ele>
        <time>2020-10-03T10:32:19.000Z</time>
      </trkpt>
      <trkpt lat="43.62346" lon="1.08911">
        <ele>141</ele>
        <time>2020-10-03T10:32:20.000Z</time>
      </trkpt>
      <trkpt lat="43.62346" lon="1.08907">
        <ele>141</ele>
        <time>2020-10-03T10:32:21.000Z</time>
      </trkpt>
      <trkpt lat="43.62347" lon="1.08903">
        <ele>141</ele>
        <time>2020-10-03T10:32:22.000Z</time>
      </trkpt>
      <trkpt lat="43.62347" lon="1.08899">
        <ele>140.66630122163</ele>
        <time>2020-10-03T10:32:23.000Z</time>
      </trkpt>
      <trkpt lat="43.62347" lon="1.08896">
        <ele>140</ele>
        <time>2020-10-03T10:32:24.000Z</time>
      </trkpt>
      <trkpt lat="43.62347" lon="1.08892">
        <ele>140</ele>
        <time>2020-10-03T10:32:25.000Z</time>
      </trkpt>
      <trkpt lat="43.62347" lon="1.08888">
        <ele>140</ele>
        <time>2020-10-03T10:32:26.000Z</time>
      </trkpt>
      <trkpt lat="43.62347" lon="1.08884">
        <ele>140</ele>
        <time>2020-10-03T10:32:27.000Z</time>
      </trkpt>
      <trkpt lat="43.62347" lon="1.08879">
        <ele>140</ele>
        <time>2020-10-03T10:32:28.000Z</time>
      </trkpt>
      <trkpt lat="43.62347" lon="1.08875">
        <ele>140.40476335599</ele>
        <time>2020-10-03T10:32:29.000Z</time>
      </trkpt>
      <trkpt lat="43.62347" lon="1.08871">
        <ele>141</ele>
        <time>2020-10-03T10:32:30.000Z</time>
      </trkpt>
      <trkpt lat="43.62347" lon="1.08867">
        <ele>141</ele>
        <time>2020-10-03T10:32:31.000Z</time>
      </trkpt>
      <trkpt lat="43.62346" lon="1.08863">
        <ele>141</ele>
        <time>2020-10-03T10:32:32.000Z</time>
      </trkpt>
      <trkpt lat="43.62346" lon="1.08859">
        <ele>141</ele>
        <time>2020-10-03T10:32:33.000Z</time>
      </trkpt>
      <trkpt lat="43.62346" lon="1.08855">
        <ele>141</ele>
        <time>2020-10-03T10:32:34.000Z</time>
      </trkpt>
      <trkpt lat="43.62345" lon="1.08851">
        <ele>141</ele>
        <time>2020-10-03T10:32:35.000Z</time>
      </trkpt>
      <trkpt lat="43.62345" lon="1.08847">
        <ele>141.44018709477</ele>
        <time>2020-10-03T10:32:36.000Z</time>
      </trkpt>
      <trkpt lat="43.62344" lon="1.08843">
        <ele>142</ele>
        <time>2020-10-03T10:32:37.000Z</time>
      </trkpt>
      <trkpt lat="43.62344" lon="1.08839">
        <ele>142</ele>
        <time>2020-10-03T10:32:38.000Z</time>
      </trkpt>
      <trkpt lat="43.62344" lon="1.08835">
        <ele>142</ele>
        <time>2020-10-03T10:32:39.000Z</time>
      </trkpt>
      <trkpt lat="43.62343" lon="1.08831">
        <ele>142</ele>
        <time>2020-10-03T10:32:40.000Z</time>
      </trkpt>
      <trkpt lat="43.62343" lon="1.08827">
        <ele>142</ele>
        <time>2020-10-03T10:32:41.000Z</time>
      </trkpt>
      <trkpt lat="43.62343" lon="1.08824">
        <ele>141.55140321076</ele>
        <time>2020-10-03T10:32:42.000Z</time>
      </trkpt>
      <trkpt lat="43.62343" lon="1.08819">
        <ele>141</ele>
        <time>2020-10-03T10:32:43.000Z</time>
      </trkpt>
      <trkpt lat="43.62343" lon="1.08815">
        <ele>141</ele>
        <time>2020-10-03T10:32:44.000Z</time>
      </trkpt>
      <trkpt lat="43.62342" lon="1.08811">
        <ele>141</ele>
        <time>2020-10-03T10:32:45.000Z</time>
      </trkpt>
      <trkpt lat="43.62342" lon="1.08807">
        <ele>141</ele>
        <time>2020-10-03T10:32:46.000Z</time>
      </trkpt>
      <trkpt lat="43.62342" lon="1.08804">
        <ele>141</ele>
        <time>2020-10-03T10:32:47.000Z</time>
      </trkpt>
      <trkpt lat="43.62342" lon="1.088">
        <ele>141</ele>
        <time>2020-10-03T10:32:48.000Z</time>
      </trkpt>
      <trkpt lat="43.62342" lon="1.08797">
        <ele>141</ele>
        <time>2020-10-03T10:32:49.000Z</time>
      </trkpt>
      <trkpt lat="43.62341" lon="1.08793">
        <ele>141</ele>
        <time>2020-10-03T10:32:50.000Z</time>
      </trkpt>
      <trkpt lat="43.62341" lon="1.08789">
        <ele>140.94871836949</ele>
        <time>2020-10-03T10:32:51.000Z</time>
      </trkpt>
      <trkpt lat="43.62341" lon="1.08785">
        <ele>140</ele>
        <time>2020-10-03T10:32:52.000Z</time>
      </trkpt>
      <trkpt lat="43.62341" lon="1.08781">
        <ele>140</ele>
        <time>2020-10-03T10:32:53.000Z</time>
      </trkpt>
      <trkpt lat="43.6234" lon="1.08778">
        <ele>140</ele>
        <time>2020-10-03T10:32:54.000Z</time>
      </trkpt>
      <trkpt lat="43.6234" lon="1.08775">
        <ele>140</ele>
        <time>2020-10-03T10:32:55.000Z</time>
      </trkpt>
      <trkpt lat="43.6234" lon="1.08771">
        <ele>140</ele>
        <time>2020-10-03T10:32:56.000Z</time>
      </trkpt>
      <trkpt lat="43.6234" lon="1.08767">
        <ele>140</ele>
        <time>2020-10-03T10:32:57.000Z</time>
      </trkpt>
      <trkpt lat="43.62339" lon="1.08764">
        <ele>140</ele>
        <time>2020-10-03T10:32:58.000Z</time>
      </trkpt>
      <trkpt lat="43.62339" lon="1.0876">
        <ele>140.85714285714</ele>
        <time>2020-10-03T10:32:59.000Z</time>
      </trkpt>
      <trkpt lat="43.62338" lon="1.08756">
        <ele>142</ele>
        <time>2020-10-03T10:33:00.000Z</time>
      </trkpt>
      <trkpt lat="43.62338" lon="1.08753">
        <ele>142</ele>
        <time>2020-10-03T10:33:01.000Z</time>
      </trkpt>
      <trkpt lat="43.62337" lon="1.08749">
        <ele>142</ele>
        <time>2020-10-03T10:33:02.000Z</time>
      </trkpt>
      <trkpt lat="43.62337" lon="1.08745">
        <ele>142</ele>
        <time>2020-10-03T10:33:03.000Z</time>
      </trkpt>
      <trkpt lat="43.62337" lon="1.08741">
        <ele>142</ele>
        <time>2020-10-03T10:33:04.000Z</time>
      </trkpt>
      <trkpt lat="43.62336" lon="1.08737">
        <ele>142</ele>
        <time>2020-10-03T10:33:05.000Z</time>
      </trkpt>
      <trkpt lat="43.62336" lon="1.08733">
        <ele>142</ele>
        <time>2020-10-03T10:33:06.000Z</time>
      </trkpt>
      <trkpt lat="43.62335" lon="1.0873">
        <ele>142</ele>
        <time>2020-10-03T10:33:07.000Z</time>
      </trkpt>
      <trkpt lat="43.62335" lon="1.08726">
        <ele>141.62976</ele>
        <time>2020-10-03T10:33:08.000Z</time>
      </trkpt>
      <trkpt lat="43.62334" lon="1.08723">
        <ele>141</ele>
        <time>2020-10-03T10:33:09.000Z</time>
      </trkpt>
      <trkpt lat="43.62333" lon="1.08719">
        <ele>141</ele>
        <time>2020-10-03T10:33:10.000Z</time>
      </trkpt>
      <trkpt lat="43.62333" lon="1.08716">
        <ele>141</ele>
        <time>2020-10-03T10:33:11.000Z</time>
      </trkpt>
      <trkpt lat="43.62333" lon="1.08713">
        <ele>141</ele>
        <time>2020-10-03T10:33:12.000Z</time>
      </trkpt>
      <trkpt lat="43.62333" lon="1.0871">
        <ele>141</ele>
        <time>2020-10-03T10:33:13.000Z</time>
      </trkpt>
      <trkpt lat="43.62332" lon="1.08706">
        <ele>141</ele>
        <time>2020-10-03T10:33:14.000Z</time>
      </trkpt>
      <trkpt lat="43.62332" lon="1.08703">
        <ele>141</ele>
        <time>2020-10-03T10:33:15.000Z</time>
      </trkpt>
      <trkpt lat="43.62331" lon="1.08699">
        <ele>141</ele>
        <time>2020-10-03T10:33:16.000Z</time>
      </trkpt>
      <trkpt lat="43.62331" lon="1.08696">
        <ele>141</ele>
        <time>2020-10-03T10:33:17.000Z</time>
      </trkpt>
      <trkpt lat="43.62331" lon="1.08693">
        <ele>141</ele>
        <time>2020-10-03T10:33:18.000Z</time>
      </trkpt>
      <trkpt lat="43.6233" lon="1.0869">
        <ele>141</ele>
        <time>2020-10-03T10:33:19.000Z</time>
      </trkpt>
      <trkpt lat="43.6233" lon="1.08686">
        <ele>141</ele>
        <time>2020-10-03T10:33:20.000Z</time>
      </trkpt>
      <trkpt lat="43.62329" lon="1.08683">
        <ele>141</ele>
        <time>2020-10-03T10:33:21.000Z</time>
      </trkpt>
      <trkpt lat="43.62329" lon="1.0868">
        <ele>141</ele>
        <time>2020-10-03T10:33:22.000Z</time>
      </trkpt>
      <trkpt lat="43.62328" lon="1.08676">
        <ele>141</ele>
        <time>2020-10-03T10:33:23.000Z</time>
      </trkpt>
      <trkpt lat="43.62327" lon="1.08673">
        <ele>141</ele>
        <time>2020-10-03T10:33:24.000Z</time>
      </trkpt>
      <trkpt lat="43.62326" lon="1.08669">
        <ele>141</ele>
        <time>2020-10-03T10:33:25.000Z</time>
      </trkpt>
      <trkpt lat="43.62326" lon="1.08665">
        <ele>141</ele>
        <time>2020-10-03T10:33:26.000Z</time>
      </trkpt>
      <trkpt lat="43.62325" lon="1.08663">
        <ele>141</ele>
        <time>2020-10-03T10:33:27.000Z</time>
      </trkpt>
      <trkpt lat="43.62324" lon="1.08659">
        <ele>141</ele>
        <time>2020-10-03T10:33:29.000Z</time>
      </trkpt>
      <trkpt lat="43.62324" lon="1.08654">
        <ele>141</ele>
        <time>2020-10-03T10:33:31.000Z</time>
      </trkpt>
      <trkpt lat="43.62323" lon="1.08649">
        <ele>141</ele>
        <time>2020-10-03T10:33:33.000Z</time>
      </trkpt>
      <trkpt lat="43.62322" lon="1.08645">
        <ele>140</ele>
        <time>2020-10-03T10:33:35.000Z</time>
      </trkpt>
      <trkpt lat="43.62321" lon="1.08641">
        <ele>140</ele>
        <time>2020-10-03T10:33:37.000Z</time>
      </trkpt>
      <trkpt lat="43.6232" lon="1.08637">
        <ele>140</ele>
        <time>2020-10-03T10:33:39.000Z</time>
      </trkpt>
      <trkpt lat="43.6232" lon="1.08633">
        <ele>140</ele>
        <time>2020-10-03T10:33:41.000Z</time>
      </trkpt>
      <trkpt lat="43.62319" lon="1.08629">
        <ele>140</ele>
        <time>2020-10-03T10:33:43.000Z</time>
      </trkpt>
      <trkpt lat="43.62319" lon="1.08625">
        <ele>140</ele>
        <time>2020-10-03T10:33:45.000Z</time>
      </trkpt>
      <trkpt lat="43.62318" lon="1.08621">
        <ele>140.33983099569</ele>
        <time>2020-10-03T10:33:47.000Z</time>
      </trkpt>
      <trkpt lat="43.62317" lon="1.08617">
        <ele>141</ele>
        <time>2020-10-03T10:33:49.000Z</time>
      </trkpt>
      <trkpt lat="43.62317" lon="1.08613">
        <ele>141</ele>
        <time>2020-10-03T10:33:50.000Z</time>
      </trkpt>
      <trkpt lat="43.62316" lon="1.0861">
        <ele>140.62693485831</ele>
        <time>2020-10-03T10:33:51.000Z</time>
      </trkpt>
      <trkpt lat="43.62315" lon="1.08606">
        <ele>140</ele>
        <time>2020-10-03T10:33:52.000Z</time>
      </trkpt>
      <trkpt lat="43.62314" lon="1.08602">
        <ele>140</ele>
        <time>2020-10-03T10:33:53.000Z</time>
      </trkpt>
      <trkpt lat="43.62313" lon="1.08599">
        <ele>140</ele>
        <time>2020-10-03T10:33:54.000Z</time>
      </trkpt>
      <trkpt lat="43.62312" lon="1.08595">
        <ele>140</ele>
        <time>2020-10-03T10:33:55.000Z</time>
      </trkpt>
      <trkpt lat="43.62311" lon="1.08592">
        <ele>140</ele>
        <time>2020-10-03T10:33:56.000Z</time>
      </trkpt>
      <trkpt lat="43.62309" lon="1.08589">
        <ele>140</ele>
        <time>2020-10-03T10:33:57.000Z</time>
      </trkpt>
      <trkpt lat="43.62307" lon="1.08585">
        <ele>140.74613028337</ele>
        <time>2020-10-03T10:33:58.000Z</time>
      </trkpt>
      <trkpt lat="43.62305" lon="1.08582">
        <ele>142</ele>
        <time>2020-10-03T10:33:59.000Z</time>
      </trkpt>
      <trkpt lat="43.62304" lon="1.08579">
        <ele>142</ele>
        <time>2020-10-03T10:34:00.000Z</time>
      </trkpt>
      <trkpt lat="43.62302" lon="1.08576">
        <ele>141.43176221293</ele>
        <time>2020-10-03T10:34:01.000Z</time>
      </trkpt>
      <trkpt lat="43.623" lon="1.08573">
        <ele>140</ele>
        <time>2020-10-03T10:34:02.000Z</time>
      </trkpt>
      <trkpt lat="43.62298" lon="1.08569">
        <ele>140</ele>
        <time>2020-10-03T10:34:03.000Z</time>
      </trkpt>
      <trkpt lat="43.62296" lon="1.08566">
        <ele>140.39508226198</ele>
        <time>2020-10-03T10:34:04.000Z</time>
      </trkpt>
      <trkpt lat="43.62295" lon="1.08563">
        <ele>141</ele>
        <time>2020-10-03T10:34:05.000Z</time>
      </trkpt>
      <trkpt lat="43.62293" lon="1.08559">
        <ele>141</ele>
        <time>2020-10-03T10:34:06.000Z</time>
      </trkpt>
      <trkpt lat="43.62291" lon="1.08556">
        <ele>141</ele>
        <time>2020-10-03T10:34:07.000Z</time>
      </trkpt>
      <trkpt lat="43.6229" lon="1.08552">
        <ele>141</ele>
        <time>2020-10-03T10:34:08.000Z</time>
      </trkpt>
      <trkpt lat="43.62289" lon="1.08548">
        <ele>141</ele>
        <time>2020-10-03T10:34:09.000Z</time>
      </trkpt>
      <trkpt lat="43.62287" lon="1.08545">
        <ele>141</ele>
        <time>2020-10-03T10:34:10.000Z</time>
      </trkpt>
      <trkpt lat="43.62286" lon="1.08541">
        <ele>141</ele>
        <time>2020-10-03T10:34:11.000Z</time>
      </trkpt>
      <trkpt lat="43.62284" lon="1.08537">
        <ele>141</ele>
        <time>2020-10-03T10:34:12.000Z</time>
      </trkpt>
      <trkpt lat="43.62283" lon="1.08534">
        <ele>141</ele>
        <time>2020-10-03T10:34:13.000Z</time>
      </trkpt>
      <trkpt lat="43.62281" lon="1.08531">
        <ele>141</ele>
        <time>2020-10-03T10:34:14.000Z</time>
      </trkpt>
      <trkpt lat="43.6228" lon="1.08527">
        <ele>141</ele>
        <time>2020-10-03T10:34:15.000Z</time>
      </trkpt>
      <trkpt lat="43.62278" lon="1.08523">
        <ele>141</ele>
        <time>2020-10-03T10:34:16.000Z</time>
      </trkpt>
      <trkpt lat="43.62277" lon="1.08519">
        <ele>141</ele>
        <time>2020-10-03T10:34:17.000Z</time>
      </trkpt>
      <trkpt lat="43.62275" lon="1.08516">
        <ele>141</ele>
        <time>2020-10-03T10:34:18.000Z</time>
      </trkpt>
      <trkpt lat="43.62273" lon="1.08513">
        <ele>141</ele>
        <time>2020-10-03T10:34:19.000Z</time>
      </trkpt>
      <trkpt lat="43.62271" lon="1.0851">
        <ele>141</ele>
        <time>2020-10-03T10:34:20.000Z</time>
      </trkpt>
      <trkpt lat="43.62268" lon="1.08507">
        <ele>141</ele>
        <time>2020-10-03T10:34:21.000Z</time>
      </trkpt>
      <trkpt lat="43.62266" lon="1.08504">
        <ele>141</ele>
        <time>2020-10-03T10:34:22.000Z</time>
      </trkpt>
      <trkpt lat="43.62264" lon="1.08501">
        <ele>141</ele>
        <time>2020-10-03T10:34:23.000Z</time>
      </trkpt>
      <trkpt lat="43.62262" lon="1.08499">
        <ele>141</ele>
        <time>2020-10-03T10:34:24.000Z</time>
      </trkpt>
      <trkpt lat="43.6226" lon="1.08497">
        <ele>141</ele>
        <time>2020-10-03T10:34:25.000Z</time>
      </trkpt>
      <trkpt lat="43.62257" lon="1.08496">
        <ele>141</ele>
        <time>2020-10-03T10:34:26.000Z</time>
      </trkpt>
      <trkpt lat="43.62255" lon="1.08494">
        <ele>141</ele>
        <time>2020-10-03T10:34:27.000Z</time>
      </trkpt>
      <trkpt lat="43.62252" lon="1.08493">
        <ele>141</ele>
        <time>2020-10-03T10:34:28.000Z</time>
      </trkpt>
      <trkpt lat="43.6225" lon="1.08491">
        <ele>141</ele>
        <time>2020-10-03T10:34:29.000Z</time>
      </trkpt>
      <trkpt lat="43.62247" lon="1.0849">
        <ele>141</ele>
        <time>2020-10-03T10:34:30.000Z</time>
      </trkpt>
      <trkpt lat="43.62244" lon="1.08488">
        <ele>141</ele>
        <time>2020-10-03T10:34:31.000Z</time>
      </trkpt>
      <trkpt lat="43.62241" lon="1.08487">
        <ele>141</ele>
        <time>2020-10-03T10:34:32.000Z</time>
      </trkpt>
      <trkpt lat="43.62238" lon="1.08486">
        <ele>141</ele>
        <time>2020-10-03T10:34:33.000Z</time>
      </trkpt>
      <trkpt lat="43.62235" lon="1.08485">
        <ele>140.58139223362</ele>
        <time>2020-10-03T10:34:34.000Z</time>
      </trkpt>
      <trkpt lat="43.62232" lon="1.08484">
        <ele>140</ele>
        <time>2020-10-03T10:34:35.000Z</time>
      </trkpt>
      <trkpt lat="43.6223" lon="1.08482">
        <ele>140</ele>
        <time>2020-10-03T10:34:36.000Z</time>
      </trkpt>
      <trkpt lat="43.62227" lon="1.08481">
        <ele>140</ele>
        <time>2020-10-03T10:34:37.000Z</time>
      </trkpt>
      <trkpt lat="43.62224" lon="1.08479">
        <ele>140.2941220761</ele>
        <time>2020-10-03T10:34:38.000Z</time>
      </trkpt>
      <trkpt lat="43.62222" lon="1.08477">
        <ele>141</ele>
        <time>2020-10-03T10:34:39.000Z</time>
      </trkpt>
      <trkpt lat="43.62219" lon="1.08476">
        <ele>141</ele>
        <time>2020-10-03T10:34:40.000Z</time>
      </trkpt>
      <trkpt lat="43.62217" lon="1.08474">
        <ele>141</ele>
        <time>2020-10-03T10:34:41.000Z</time>
      </trkpt>
      <trkpt lat="43.62214" lon="1.08472">
        <ele>141</ele>
        <time>2020-10-03T10:34:42.000Z</time>
      </trkpt>
      <trkpt lat="43.62212" lon="1.0847">
        <ele>141</ele>
        <time>2020-10-03T10:34:43.000Z</time>
      </trkpt>
      <trkpt lat="43.62209" lon="1.08469">
        <ele>141</ele>
        <time>2020-10-03T10:34:44.000Z</time>
      </trkpt>
      <trkpt lat="43.62206" lon="1.08467">
        <ele>141</ele>
        <time>2020-10-03T10:34:45.000Z</time>
      </trkpt>
      <trkpt lat="43.62204" lon="1.08466">
        <ele>141</ele>
        <time>2020-10-03T10:34:46.000Z</time>
      </trkpt>
      <trkpt lat="43.62201" lon="1.08464">
        <ele>141</ele>
        <time>2020-10-03T10:34:47.000Z</time>
      </trkpt>
      <trkpt lat="43.62199" lon="1.08463">
        <ele>140.56429019691</ele>
        <time>2020-10-03T10:34:48.000Z</time>
      </trkpt>
      <trkpt lat="43.62196" lon="1.08462">
        <ele>140</ele>
        <time>2020-10-03T10:34:49.000Z</time>
      </trkpt>
      <trkpt lat="43.62194" lon="1.0846">
        <ele>140</ele>
        <time>2020-10-03T10:34:50.000Z</time>
      </trkpt>
      <trkpt lat="43.62191" lon="1.08459">
        <ele>140</ele>
        <time>2020-10-03T10:34:51.000Z</time>
      </trkpt>
      <trkpt lat="43.62188" lon="1.08458">
        <ele>140.33944760205</ele>
        <time>2020-10-03T10:34:52.000Z</time>
      </trkpt>
      <trkpt lat="43.62186" lon="1.08457">
        <ele>141</ele>
        <time>2020-10-03T10:34:53.000Z</time>
      </trkpt>
      <trkpt lat="43.62183" lon="1.08456">
        <ele>141</ele>
        <time>2020-10-03T10:34:54.000Z</time>
      </trkpt>
      <trkpt lat="43.62181" lon="1.08455">
        <ele>141</ele>
        <time>2020-10-03T10:34:55.000Z</time>
      </trkpt>
      <trkpt lat="43.62178" lon="1.08453">
        <ele>141</ele>
        <time>2020-10-03T10:34:56.000Z</time>
      </trkpt>
      <trkpt lat="43.62176" lon="1.08452">
        <ele>141</ele>
        <time>2020-10-03T10:34:57.000Z</time>
      </trkpt>
      <trkpt lat="43.62174" lon="1.08451">
        <ele>141</ele>
        <time>2020-10-03T10:34:58.000Z</time>
      </trkpt>
      <trkpt lat="43.62171" lon="1.08449">
        <ele>141</ele>
        <time>2020-10-03T10:34:59.000Z</time>
      </trkpt>
      <trkpt lat="43.62169" lon="1.08448">
        <ele>141</ele>
        <time>2020-10-03T10:35:00.000Z</time>
      </trkpt>
      <trkpt lat="43.62167" lon="1.08447">
        <ele>141</ele>
        <time>2020-10-03T10:35:01.000Z</time>
      </trkpt>
      <trkpt lat="43.62164" lon="1.08446">
        <ele>141</ele>
        <time>2020-10-03T10:35:02.000Z</time>
      </trkpt>
      <trkpt lat="43.62162" lon="1.08444">
        <ele>141.38759897601</ele>
        <time>2020-10-03T10:35:03.000Z</time>
      </trkpt>
      <trkpt lat="43.62159" lon="1.08443">
        <ele>142</ele>
        <time>2020-10-03T10:35:04.000Z</time>
      </trkpt>
      <trkpt lat="43.62156" lon="1.08442">
        <ele>142</ele>
        <time>2020-10-03T10:35:05.000Z</time>
      </trkpt>
      <trkpt lat="43.62154" lon="1.0844">
        <ele>142</ele>
        <time>2020-10-03T10:35:06.000Z</time>
      </trkpt>
      <trkpt lat="43.62153" lon="1.08439">
        <ele>142</ele>
        <time>2020-10-03T10:35:07.000Z</time>
      </trkpt>
      <trkpt lat="43.6215" lon="1.08437">
        <ele>141.63045178591</ele>
        <time>2020-10-03T10:35:08.000Z</time>
      </trkpt>
      <trkpt lat="43.62148" lon="1.08436">
        <ele>141</ele>
        <time>2020-10-03T10:35:09.000Z</time>
      </trkpt>
      <trkpt lat="43.62146" lon="1.08434">
        <ele>141</ele>
        <time>2020-10-03T10:35:10.000Z</time>
      </trkpt>
      <trkpt lat="43.62144" lon="1.08433">
        <ele>141</ele>
        <time>2020-10-03T10:35:11.000Z</time>
      </trkpt>
      <trkpt lat="43.62141" lon="1.08431">
        <ele>141</ele>
        <time>2020-10-03T10:35:12.000Z</time>
      </trkpt>
      <trkpt lat="43.62139" lon="1.0843">
        <ele>140.75679832995</ele>
        <time>2020-10-03T10:35:13.000Z</time>
      </trkpt>
      <trkpt lat="43.62137" lon="1.08428">
        <ele>140</ele>
        <time>2020-10-03T10:35:14.000Z</time>
      </trkpt>
      <trkpt lat="43.62135" lon="1.08427">
        <ele>140</ele>
        <time>2020-10-03T10:35:15.000Z</time>
      </trkpt>
      <trkpt lat="43.62133" lon="1.08425">
        <ele>140</ele>
        <time>2020-10-03T10:35:16.000Z</time>
      </trkpt>
      <trkpt lat="43.62131" lon="1.08424">
        <ele>140</ele>
        <time>2020-10-03T10:35:17.000Z</time>
      </trkpt>
      <trkpt lat="43.62128" lon="1.08422">
        <ele>140</ele>
        <time>2020-10-03T10:35:18.000Z</time>
      </trkpt>
      <trkpt lat="43.62126" lon="1.0842">
        <ele>140</ele>
        <time>2020-10-03T10:35:19.000Z</time>
      </trkpt>
      <trkpt lat="43.62124" lon="1.08418">
        <ele>140</ele>
        <time>2020-10-03T10:35:20.000Z</time>
      </trkpt>
      <trkpt lat="43.62122" lon="1.08416">
        <ele>140</ele>
        <time>2020-10-03T10:35:21.000Z</time>
      </trkpt>
      <trkpt lat="43.62119" lon="1.08413">
        <ele>140</ele>
        <time>2020-10-03T10:35:22.000Z</time>
      </trkpt>
      <trkpt lat="43.62116" lon="1.08411">
        <ele>140.17948044702</ele>
        <time>2020-10-03T10:35:23.000Z</time>
      </trkpt>
      <trkpt lat="43.62114" lon="1.08409">
        <ele>141</ele>
        <time>2020-10-03T10:35:24.000Z</time>
      </trkpt>
      <trkpt lat="43.62112" lon="1.08406">
        <ele>141</ele>
        <time>2020-10-03T10:35:25.000Z</time>
      </trkpt>
      <trkpt lat="43.62109" lon="1.08404">
        <ele>141</ele>
        <time>2020-10-03T10:35:26.000Z</time>
      </trkpt>
      <trkpt lat="43.62107" lon="1.08403">
        <ele>141</ele>
        <time>2020-10-03T10:35:27.000Z</time>
      </trkpt>
      <trkpt lat="43.62105" lon="1.08401">
        <ele>141</ele>
        <time>2020-10-03T10:35:28.000Z</time>
      </trkpt>
      <trkpt lat="43.62104" lon="1.08399">
        <ele>141</ele>
        <time>2020-10-03T10:35:29.000Z</time>
      </trkpt>
      <trkpt lat="43.62101" lon="1.08397">
        <ele>141</ele>
        <time>2020-10-03T10:35:30.000Z</time>
      </trkpt>
      <trkpt lat="43.62099" lon="1.08396">
        <ele>141</ele>
        <time>2020-10-03T10:35:31.000Z</time>
      </trkpt>
      <trkpt lat="43.62097" lon="1.08394">
        <ele>141</ele>
        <time>2020-10-03T10:35:32.000Z</time>
      </trkpt>
      <trkpt lat="43.62094" lon="1.08392">
        <ele>140.58272729694</ele>
        <time>2020-10-03T10:35:33.000Z</time>
      </trkpt>
      <trkpt lat="43.62092" lon="1.0839">
        <ele>140</ele>
        <time>2020-10-03T10:35:34.000Z</time>
      </trkpt>
      <trkpt lat="43.6209" lon="1.08388">
        <ele>140</ele>
        <time>2020-10-03T10:35:35.000Z</time>
      </trkpt>
      <trkpt lat="43.62088" lon="1.08386">
        <ele>140.36545085358</ele>
        <time>2020-10-03T10:35:36.000Z</time>
      </trkpt>
      <trkpt lat="43.62086" lon="1.08384">
        <ele>141</ele>
        <time>2020-10-03T10:35:37.000Z</time>
      </trkpt>
      <trkpt lat="43.62083" lon="1.08382">
        <ele>141</ele>
        <time>2020-10-03T10:35:38.000Z</time>
      </trkpt>
      <trkpt lat="43.62081" lon="1.08379">
        <ele>141</ele>
        <time>2020-10-03T10:35:39.000Z</time>
      </trkpt>
      <trkpt lat="43.62079" lon="1.08377">
        <ele>141</ele>
        <time>2020-10-03T10:35:40.000Z</time>
      </trkpt>
      <trkpt lat="43.62076" lon="1.08374">
        <ele>141</ele>
        <time>2020-10-03T10:35:41.000Z</time>
      </trkpt>
      <trkpt lat="43.62074" lon="1.08371">
        <ele>141</ele>
        <time>2020-10-03T10:35:42.000Z</time>
      </trkpt>
      <trkpt lat="43.6207" lon="1.08368">
        <ele>141</ele>
        <time>2020-10-03T10:35:43.000Z</time>
      </trkpt>
      <trkpt lat="43.62067" lon="1.08365">
        <ele>141</ele>
        <time>2020-10-03T10:35:44.000Z</time>
      </trkpt>
      <trkpt lat="43.62065" lon="1.08362">
        <ele>141</ele>
        <time>2020-10-03T10:35:45.000Z</time>
      </trkpt>
      <trkpt lat="43.62062" lon="1.08359">
        <ele>141</ele>
        <time>2020-10-03T10:35:46.000Z</time>
      </trkpt>
      <trkpt lat="43.6206" lon="1.08356">
        <ele>141</ele>
        <time>2020-10-03T10:35:47.000Z</time>
      </trkpt>
      <trkpt lat="43.62057" lon="1.08353">
        <ele>141.72205176471</ele>
        <time>2020-10-03T10:35:48.000Z</time>
      </trkpt>
      <trkpt lat="43.62055" lon="1.08351">
        <ele>143</ele>
        <time>2020-10-03T10:35:49.000Z</time>
      </trkpt>
      <trkpt lat="43.62053" lon="1.08348">
        <ele>143</ele>
        <time>2020-10-03T10:35:50.000Z</time>
      </trkpt>
      <trkpt lat="43.62051" lon="1.08345">
        <ele>143</ele>
        <time>2020-10-03T10:35:51.000Z</time>
      </trkpt>
      <trkpt lat="43.62049" lon="1.08343">
        <ele>143</ele>
        <time>2020-10-03T10:35:52.000Z</time>
      </trkpt>
      <trkpt lat="43.62047" lon="1.0834">
        <ele>143</ele>
        <time>2020-10-03T10:35:53.000Z</time>
      </trkpt>
      <trkpt lat="43.62045" lon="1.08337">
        <ele>142.08309928171</ele>
        <time>2020-10-03T10:35:54.000Z</time>
      </trkpt>
      <trkpt lat="43.62043" lon="1.08335">
        <ele>141</ele>
        <time>2020-10-03T10:35:55.000Z</time>
      </trkpt>
      <trkpt lat="43.6204" lon="1.08332">
        <ele>141</ele>
        <time>2020-10-03T10:35:56.000Z</time>
      </trkpt>
      <trkpt lat="43.62038" lon="1.0833">
        <ele>141</ele>
        <time>2020-10-03T10:35:57.000Z</time>
      </trkpt>
      <trkpt lat="43.62036" lon="1.08327">
        <ele>141</ele>
        <time>2020-10-03T10:35:58.000Z</time>
      </trkpt>
      <trkpt lat="43.62034" lon="1.08325">
        <ele>141</ele>
        <time>2020-10-03T10:35:59.000Z</time>
      </trkpt>
      <trkpt lat="43.62032" lon="1.08322">
        <ele>141</ele>
        <time>2020-10-03T10:36:00.000Z</time>
      </trkpt>
      <trkpt lat="43.6203" lon="1.0832">
        <ele>140.74626361191</ele>
        <time>2020-10-03T10:36:01.000Z</time>
      </trkpt>
      <trkpt lat="43.62028" lon="1.08317">
        <ele>140</ele>
        <time>2020-10-03T10:36:02.000Z</time>
      </trkpt>
      <trkpt lat="43.62026" lon="1.08315">
        <ele>140</ele>
        <time>2020-10-03T10:36:03.000Z</time>
      </trkpt>
      <trkpt lat="43.62024" lon="1.08312">
        <ele>140</ele>
        <time>2020-10-03T10:36:04.000Z</time>
      </trkpt>
      <trkpt lat="43.62022" lon="1.08309">
        <ele>140</ele>
        <time>2020-10-03T10:36:05.000Z</time>
      </trkpt>
      <trkpt lat="43.62019" lon="1.08306">
        <ele>140</ele>
        <time>2020-10-03T10:36:06.000Z</time>
      </trkpt>
      <trkpt lat="43.62017" lon="1.08303">
        <ele>140</ele>
        <time>2020-10-03T10:36:07.000Z</time>
      </trkpt>
      <trkpt lat="43.62015" lon="1.08299">
        <ele>140</ele>
        <time>2020-10-03T10:36:08.000Z</time>
      </trkpt>
      <trkpt lat="43.62013" lon="1.08296">
        <ele>140.34175879821</ele>
        <time>2020-10-03T10:36:09.000Z</time>
      </trkpt>
      <trkpt lat="43.62011" lon="1.08293">
        <ele>141</ele>
        <time>2020-10-03T10:36:10.000Z</time>
      </trkpt>
      <trkpt lat="43.62009" lon="1.0829">
        <ele>141</ele>
        <time>2020-10-03T10:36:11.000Z</time>
      </trkpt>
      <trkpt lat="43.62007" lon="1.08287">
        <ele>141</ele>
        <time>2020-10-03T10:36:12.000Z</time>
      </trkpt>
      <trkpt lat="43.62004" lon="1.08284">
        <ele>141</ele>
        <time>2020-10-03T10:36:13.000Z</time>
      </trkpt>
      <trkpt lat="43.62002" lon="1.08281">
        <ele>140.61105938148</ele>
        <time>2020-10-03T10:36:14.000Z</time>
      </trkpt>
      <trkpt lat="43.62001" lon="1.08278">
        <ele>140</ele>
        <time>2020-10-03T10:36:15.000Z</time>
      </trkpt>
      <trkpt lat="43.61999" lon="1.08275">
        <ele>140.45420529762</ele>
        <time>2020-10-03T10:36:16.000Z</time>
      </trkpt>
      <trkpt lat="43.61997" lon="1.08272">
        <ele>141</ele>
        <time>2020-10-03T10:36:17.000Z</time>
      </trkpt>
      <trkpt lat="43.61995" lon="1.08269">
        <ele>141</ele>
        <time>2020-10-03T10:36:18.000Z</time>
      </trkpt>
      <trkpt lat="43.61993" lon="1.08266">
        <ele>141</ele>
        <time>2020-10-03T10:36:19.000Z</time>
      </trkpt>
      <trkpt lat="43.61991" lon="1.08263">
        <ele>141</ele>
        <time>2020-10-03T10:36:20.000Z</time>
      </trkpt>
      <trkpt lat="43.6199" lon="1.08261">
        <ele>141</ele>
        <time>2020-10-03T10:36:21.000Z</time>
      </trkpt>
      <trkpt lat="43.61988" lon="1.08258">
        <ele>141</ele>
        <time>2020-10-03T10:36:22.000Z</time>
      </trkpt>
      <trkpt lat="43.61986" lon="1.08255">
        <ele>141</ele>
        <time>2020-10-03T10:36:23.000Z</time>
      </trkpt>
      <trkpt lat="43.61984" lon="1.08253">
        <ele>141</ele>
        <time>2020-10-03T10:36:24.000Z</time>
      </trkpt>
      <trkpt lat="43.61982" lon="1.0825">
        <ele>141</ele>
        <time>2020-10-03T10:36:25.000Z</time>
      </trkpt>
      <trkpt lat="43.6198" lon="1.08247">
        <ele>140.50980712036</ele>
        <time>2020-10-03T10:36:26.000Z</time>
      </trkpt>
      <trkpt lat="43.61978" lon="1.08244">
        <ele>140</ele>
        <time>2020-10-03T10:36:27.000Z</time>
      </trkpt>
      <trkpt lat="43.61976" lon="1.08241">
        <ele>140</ele>
        <time>2020-10-03T10:36:28.000Z</time>
      </trkpt>
      <trkpt lat="43.61975" lon="1.08239">
        <ele>140</ele>
        <time>2020-10-03T10:36:29.000Z</time>
      </trkpt>
      <trkpt lat="43.61973" lon="1.08237">
        <ele>140</ele>
        <time>2020-10-03T10:36:30.000Z</time>
      </trkpt>
      <trkpt lat="43.61971" lon="1.08234">
        <ele>140</ele>
        <time>2020-10-03T10:36:31.000Z</time>
      </trkpt>
      <trkpt lat="43.61969" lon="1.08231">
        <ele>140</ele>
        <time>2020-10-03T10:36:32.000Z</time>
      </trkpt>
      <trkpt lat="43.61967" lon="1.08228">
        <ele>140</ele>
        <time>2020-10-03T10:36:33.000Z</time>
      </trkpt>
      <trkpt lat="43.61965" lon="1.08225">
        <ele>140</ele>
        <time>2020-10-03T10:36:34.000Z</time>
      </trkpt>
      <trkpt lat="43.61962" lon="1.08223">
        <ele>140</ele>
        <time>2020-10-03T10:36:35.000Z</time>
      </trkpt>
      <trkpt lat="43.6196" lon="1.0822">
        <ele>140</ele>
        <time>2020-10-03T10:36:36.000Z</time>
      </trkpt>
      <trkpt lat="43.61958" lon="1.08217">
        <ele>140.40740740741</ele>
        <time>2020-10-03T10:36:37.000Z</time>
      </trkpt>
      <trkpt lat="43.61956" lon="1.08215">
        <ele>141</ele>
        <time>2020-10-03T10:36:38.000Z</time>
      </trkpt>
      <trkpt lat="43.61953" lon="1.08212">
        <ele>141.21546073978</ele>
        <time>2020-10-03T10:36:39.000Z</time>
      </trkpt>
      <trkpt lat="43.61951" lon="1.08209">
        <ele>142</ele>
        <time>2020-10-03T10:36:40.000Z</time>
      </trkpt>
      <trkpt lat="43.61948" lon="1.08207">
        <ele>142</ele>
        <time>2020-10-03T10:36:41.000Z</time>
      </trkpt>
      <trkpt lat="43.61946" lon="1.08204">
        <ele>142</ele>
        <time>2020-10-03T10:36:42.000Z</time>
      </trkpt>
      <trkpt lat="43.61943" lon="1.08201">
        <ele>142</ele>
        <time>2020-10-03T10:36:43.000Z</time>
      </trkpt>
      <trkpt lat="43.61941" lon="1.08198">
        <ele>142</ele>
        <time>2020-10-03T10:36:44.000Z</time>
      </trkpt>
      <trkpt lat="43.61939" lon="1.08194">
        <ele>141.66279190915</ele>
        <time>2020-10-03T10:36:45.000Z</time>
      </trkpt>
      <trkpt lat="43.61936" lon="1.08192">
        <ele>141</ele>
        <time>2020-10-03T10:36:46.000Z</time>
      </trkpt>
      <trkpt lat="43.61934" lon="1.08189">
        <ele>140.68096880941</ele>
        <time>2020-10-03T10:36:47.000Z</time>
      </trkpt>
      <trkpt lat="43.61932" lon="1.08186">
        <ele>140</ele>
        <time>2020-10-03T10:36:48.000Z</time>
      </trkpt>
      <trkpt lat="43.6193" lon="1.08183">
        <ele>140</ele>
        <time>2020-10-03T10:36:49.000Z</time>
      </trkpt>
      <trkpt lat="43.61928" lon="1.08179">
        <ele>140</ele>
        <time>2020-10-03T10:36:50.000Z</time>
      </trkpt>
      <trkpt lat="43.61926" lon="1.08176">
        <ele>140</ele>
        <time>2020-10-03T10:36:51.000Z</time>
      </trkpt>
      <trkpt lat="43.61924" lon="1.08173">
        <ele>140</ele>
        <time>2020-10-03T10:36:52.000Z</time>
      </trkpt>
      <trkpt lat="43.61922" lon="1.0817">
        <ele>140</ele>
        <time>2020-10-03T10:36:53.000Z</time>
      </trkpt>
      <trkpt lat="43.61919" lon="1.08167">
        <ele>140</ele>
        <time>2020-10-03T10:36:54.000Z</time>
      </trkpt>
      <trkpt lat="43.61918" lon="1.08165">
        <ele>140</ele>
        <time>2020-10-03T10:36:55.000Z</time>
      </trkpt>
      <trkpt lat="43.61916" lon="1.08162">
        <ele>140.29285485714</ele>
        <time>2020-10-03T10:36:56.000Z</time>
      </trkpt>
      <trkpt lat="43.61914" lon="1.08159">
        <ele>141</ele>
        <time>2020-10-03T10:36:57.000Z</time>
      </trkpt>
      <trkpt lat="43.61911" lon="1.08157">
        <ele>141</ele>
        <time>2020-10-03T10:36:58.000Z</time>
      </trkpt>
      <trkpt lat="43.61909" lon="1.08155">
        <ele>141</ele>
        <time>2020-10-03T10:36:59.000Z</time>
      </trkpt>
      <trkpt lat="43.61907" lon="1.08152">
        <ele>141</ele>
        <time>2020-10-03T10:37:00.000Z</time>
      </trkpt>
      <trkpt lat="43.61904" lon="1.0815">
        <ele>141</ele>
        <time>2020-10-03T10:37:01.000Z</time>
      </trkpt>
      <trkpt lat="43.61902" lon="1.08148">
        <ele>141</ele>
        <time>2020-10-03T10:37:02.000Z</time>
      </trkpt>
      <trkpt lat="43.619" lon="1.08145">
        <ele>141</ele>
        <time>2020-10-03T10:37:03.000Z</time>
      </trkpt>
      <trkpt lat="43.61899" lon="1.08142">
        <ele>141</ele>
        <time>2020-10-03T10:37:04.000Z</time>
      </trkpt>
      <trkpt lat="43.61898" lon="1.08138">
        <ele>141</ele>
        <time>2020-10-03T10:37:05.000Z</time>
      </trkpt>
      <trkpt lat="43.61898" lon="1.08134">
        <ele>141</ele>
        <time>2020-10-03T10:37:06.000Z</time>
      </trkpt>
      <trkpt lat="43.61899" lon="1.08129">
        <ele>141.45871742781</ele>
        <time>2020-10-03T10:37:07.000Z</time>
      </trkpt>
      <trkpt lat="43.619" lon="1.08126">
        <ele>142</ele>
        <time>2020-10-03T10:37:08.000Z</time>
      </trkpt>
      <trkpt lat="43.61902" lon="1.08123">
        <ele>142</ele>
        <time>2020-10-03T10:37:09.000Z</time>
      </trkpt>
      <trkpt lat="43.61904" lon="1.08119">
        <ele>142</ele>
        <time>2020-10-03T10:37:10.000Z</time>
      </trkpt>
      <trkpt lat="43.61905" lon="1.08116">
        <ele>142</ele>
        <time>2020-10-03T10:37:11.000Z</time>
      </trkpt>
      <trkpt lat="43.61907" lon="1.08112">
        <ele>142</ele>
        <time>2020-10-03T10:37:12.000Z</time>
      </trkpt>
      <trkpt lat="43.61908" lon="1.08109">
        <ele>142</ele>
        <time>2020-10-03T10:37:13.000Z</time>
      </trkpt>
      <trkpt lat="43.61911" lon="1.08106">
        <ele>141.72151201413</ele>
        <time>2020-10-03T10:37:14.000Z</time>
      </trkpt>
      <trkpt lat="43.61913" lon="1.08103">
        <ele>141</ele>
        <time>2020-10-03T10:37:15.000Z</time>
      </trkpt>
      <trkpt lat="43.61915" lon="1.081">
        <ele>141</ele>
        <time>2020-10-03T10:37:16.000Z</time>
      </trkpt>
      <trkpt lat="43.61917" lon="1.08096">
        <ele>141</ele>
        <time>2020-10-03T10:37:17.000Z</time>
      </trkpt>
      <trkpt lat="43.6192" lon="1.08094">
        <ele>141</ele>
        <time>2020-10-03T10:37:18.000Z</time>
      </trkpt>
      <trkpt lat="43.61922" lon="1.08091">
        <ele>141</ele>
        <time>2020-10-03T10:37:19.000Z</time>
      </trkpt>
      <trkpt lat="43.61924" lon="1.08087">
        <ele>141</ele>
        <time>2020-10-03T10:37:20.000Z</time>
      </trkpt>
      <trkpt lat="43.61926" lon="1.08084">
        <ele>141</ele>
        <time>2020-10-03T10:37:21.000Z</time>
      </trkpt>
      <trkpt lat="43.61929" lon="1.08081">
        <ele>141</ele>
        <time>2020-10-03T10:37:22.000Z</time>
      </trkpt>
      <trkpt lat="43.61931" lon="1.08078">
        <ele>141</ele>
        <time>2020-10-03T10:37:23.000Z</time>
      </trkpt>
      <trkpt lat="43.61933" lon="1.08075">
        <ele>141</ele>
        <time>2020-10-03T10:37:24.000Z</time>
      </trkpt>
      <trkpt lat="43.61935" lon="1.08072">
        <ele>141</ele>
        <time>2020-10-03T10:37:25.000Z</time>
      </trkpt>
      <trkpt lat="43.61937" lon="1.08069">
        <ele>140.62500571429</ele>
        <time>2020-10-03T10:37:26.000Z</time>
      </trkpt>
      <trkpt lat="43.61939" lon="1.08067">
        <ele>140</ele>
        <time>2020-10-03T10:37:27.000Z</time>
      </trkpt>
      <trkpt lat="43.61942" lon="1.08065">
        <ele>140</ele>
        <time>2020-10-03T10:37:28.000Z</time>
      </trkpt>
      <trkpt lat="43.61944" lon="1.08062">
        <ele>140</ele>
        <time>2020-10-03T10:37:29.000Z</time>
      </trkpt>
      <trkpt lat="43.61946" lon="1.08059">
        <ele>140</ele>
        <time>2020-10-03T10:37:30.000Z</time>
      </trkpt>
      <trkpt lat="43.61948" lon="1.08057">
        <ele>140</ele>
        <time>2020-10-03T10:37:31.000Z</time>
      </trkpt>
      <trkpt lat="43.6195" lon="1.08054">
        <ele>140</ele>
        <time>2020-10-03T10:37:32.000Z</time>
      </trkpt>
      <trkpt lat="43.61952" lon="1.08051">
        <ele>140.3100032</ele>
        <time>2020-10-03T10:37:33.000Z</time>
      </trkpt>
      <trkpt lat="43.61954" lon="1.08048">
        <ele>141</ele>
        <time>2020-10-03T10:37:34.000Z</time>
      </trkpt>
      <trkpt lat="43.61956" lon="1.08045">
        <ele>141</ele>
        <time>2020-10-03T10:37:35.000Z</time>
      </trkpt>
      <trkpt lat="43.61958" lon="1.08043">
        <ele>141</ele>
        <time>2020-10-03T10:37:36.000Z</time>
      </trkpt>
      <trkpt lat="43.6196" lon="1.0804">
        <ele>140.54902305269</ele>
        <time>2020-10-03T10:37:37.000Z</time>
      </trkpt>
      <trkpt lat="43.61962" lon="1.08036">
        <ele>140</ele>
        <time>2020-10-03T10:37:38.000Z</time>
      </trkpt>
      <trkpt lat="43.61964" lon="1.08033">
        <ele>140</ele>
        <time>2020-10-03T10:37:39.000Z</time>
      </trkpt>
      <trkpt lat="43.61966" lon="1.0803">
        <ele>140</ele>
        <time>2020-10-03T10:37:40.000Z</time>
      </trkpt>
      <trkpt lat="43.61968" lon="1.08027">
        <ele>140</ele>
        <time>2020-10-03T10:37:41.000Z</time>
      </trkpt>
      <trkpt lat="43.6197" lon="1.08024">
        <ele>140</ele>
        <time>2020-10-03T10:37:42.000Z</time>
      </trkpt>
      <trkpt lat="43.61972" lon="1.0802">
        <ele>140</ele>
        <time>2020-10-03T10:37:43.000Z</time>
      </trkpt>
      <trkpt lat="43.61974" lon="1.08018">
        <ele>140</ele>
        <time>2020-10-03T10:37:44.000Z</time>
      </trkpt>
      <trkpt lat="43.61976" lon="1.08016">
        <ele>140</ele>
        <time>2020-10-03T10:37:45.000Z</time>
      </trkpt>
      <trkpt lat="43.61979" lon="1.08014">
        <ele>140</ele>
        <time>2020-10-03T10:37:46.000Z</time>
      </trkpt>
      <trkpt lat="43.61981" lon="1.08011">
        <ele>140</ele>
        <time>2020-10-03T10:37:47.000Z</time>
      </trkpt>
      <trkpt lat="43.61982" lon="1.0801">
        <ele>140</ele>
        <time>2020-10-03T10:37:48.000Z</time>
      </trkpt>
      <trkpt lat="43.61984" lon="1.08007">
        <ele>140</ele>
        <time>2020-10-03T10:37:49.000Z</time>
      </trkpt>
      <trkpt lat="43.61986" lon="1.08004">
        <ele>140.32407703704</ele>
        <time>2020-10-03T10:37:50.000Z</time>
      </trkpt>
      <trkpt lat="43.61988" lon="1.08001">
        <ele>141</ele>
        <time>2020-10-03T10:37:51.000Z</time>
      </trkpt>
      <trkpt lat="43.6199" lon="1.07998">
        <ele>141</ele>
        <time>2020-10-03T10:37:52.000Z</time>
      </trkpt>
      <trkpt lat="43.61992" lon="1.07995">
        <ele>141</ele>
        <time>2020-10-03T10:37:53.000Z</time>
      </trkpt>
      <trkpt lat="43.61994" lon="1.07992">
        <ele>141</ele>
        <time>2020-10-03T10:37:54.000Z</time>
      </trkpt>
      <trkpt lat="43.61995" lon="1.07989">
        <ele>141</ele>
        <time>2020-10-03T10:37:55.000Z</time>
      </trkpt>
      <trkpt lat="43.61995" lon="1.07986">
        <ele>140.57547215379</ele>
        <time>2020-10-03T10:37:56.000Z</time>
      </trkpt>
      <trkpt lat="43.61995" lon="1.07983">
        <ele>140</ele>
        <time>2020-10-03T10:37:57.000Z</time>
      </trkpt>
      <trkpt lat="43.61995" lon="1.0798">
        <ele>140</ele>
        <time>2020-10-03T10:37:58.000Z</time>
      </trkpt>
      <trkpt lat="43.61994" lon="1.07976">
        <ele>140</ele>
        <time>2020-10-03T10:37:59.000Z</time>
      </trkpt>
      <trkpt lat="43.61993" lon="1.07973">
        <ele>140</ele>
        <time>2020-10-03T10:38:00.000Z</time>
      </trkpt>
      <trkpt lat="43.61993" lon="1.0797">
        <ele>140</ele>
        <time>2020-10-03T10:38:01.000Z</time>
      </trkpt>
      <trkpt lat="43.61993" lon="1.07967">
        <ele>140.35294471968</ele>
        <time>2020-10-03T10:38:02.000Z</time>
      </trkpt>
      <trkpt lat="43.61992" lon="1.07964">
        <ele>141</ele>
        <time>2020-10-03T10:38:04.000Z</time>
      </trkpt>
      <trkpt lat="43.61992" lon="1.07961">
        <ele>141.87273235044</ele>
        <time>2020-10-03T10:38:05.000Z</time>
      </trkpt>
      <trkpt lat="43.6199" lon="1.07958">
        <ele>143</ele>
        <time>2020-10-03T10:38:06.000Z</time>
      </trkpt>
      <trkpt lat="43.61989" lon="1.07955">
        <ele>143</ele>
        <time>2020-10-03T10:38:07.000Z</time>
      </trkpt>
      <trkpt lat="43.61987" lon="1.07952">
        <ele>143</ele>
        <time>2020-10-03T10:38:08.000Z</time>
      </trkpt>
      <trkpt lat="43.61985" lon="1.0795">
        <ele>143</ele>
        <time>2020-10-03T10:38:09.000Z</time>
      </trkpt>
      <trkpt lat="43.61982" lon="1.07948">
        <ele>143</ele>
        <time>2020-10-03T10:38:10.000Z</time>
      </trkpt>
      <trkpt lat="43.6198" lon="1.07948">
        <ele>142.55555871603</ele>
        <time>2020-10-03T10:38:11.000Z</time>
      </trkpt>
      <trkpt lat="43.61978" lon="1.07947">
        <ele>142</ele>
        <time>2020-10-03T10:38:12.000Z</time>
      </trkpt>
      <trkpt lat="43.61975" lon="1.07947">
        <ele>142</ele>
        <time>2020-10-03T10:38:13.000Z</time>
      </trkpt>
      <trkpt lat="43.61972" lon="1.07946">
        <ele>142</ele>
        <time>2020-10-03T10:38:14.000Z</time>
      </trkpt>
      <trkpt lat="43.6197" lon="1.07945">
        <ele>142</ele>
        <time>2020-10-03T10:38:15.000Z</time>
      </trkpt>
      <trkpt lat="43.61967" lon="1.07944">
        <ele>142</ele>
        <time>2020-10-03T10:38:16.000Z</time>
      </trkpt>
      <trkpt lat="43.61964" lon="1.07945">
        <ele>142</ele>
        <time>2020-10-03T10:38:17.000Z</time>
      </trkpt>
      <trkpt lat="43.61962" lon="1.07945">
        <ele>142</ele>
        <time>2020-10-03T10:38:18.000Z</time>
      </trkpt>
      <trkpt lat="43.61959" lon="1.07944">
        <ele>142</ele>
        <time>2020-10-03T10:38:19.000Z</time>
      </trkpt>
      <trkpt lat="43.61957" lon="1.07943">
        <ele>142</ele>
        <time>2020-10-03T10:38:20.000Z</time>
      </trkpt>
      <trkpt lat="43.61954" lon="1.07942">
        <ele>142</ele>
        <time>2020-10-03T10:38:21.000Z</time>
      </trkpt>
      <trkpt lat="43.61951" lon="1.07942">
        <ele>142</ele>
        <time>2020-10-03T10:38:22.000Z</time>
      </trkpt>
      <trkpt lat="43.61949" lon="1.07941">
        <ele>142</ele>
        <time>2020-10-03T10:38:23.000Z</time>
      </trkpt>
      <trkpt lat="43.61946" lon="1.07941">
        <ele>142</ele>
        <time>2020-10-03T10:38:24.000Z</time>
      </trkpt>
      <trkpt lat="43.61944" lon="1.07941">
        <ele>142</ele>
        <time>2020-10-03T10:38:25.000Z</time>
      </trkpt>
      <trkpt lat="43.61941" lon="1.07941">
        <ele>142</ele>
        <time>2020-10-03T10:38:26.000Z</time>
      </trkpt>
      <trkpt lat="43.61939" lon="1.0794">
        <ele>142</ele>
        <time>2020-10-03T10:38:28.000Z</time>
      </trkpt>
      <trkpt lat="43.61937" lon="1.07938">
        <ele>142</ele>
        <time>2020-10-03T10:38:29.000Z</time>
      </trkpt>
      <trkpt lat="43.61934" lon="1.07937">
        <ele>142</ele>
        <time>2020-10-03T10:38:30.000Z</time>
      </trkpt>
      <trkpt lat="43.61931" lon="1.07937">
        <ele>142</ele>
        <time>2020-10-03T10:38:31.000Z</time>
      </trkpt>
      <trkpt lat="43.61929" lon="1.07938">
        <ele>142</ele>
        <time>2020-10-03T10:38:32.000Z</time>
      </trkpt>
      <trkpt lat="43.61926" lon="1.07937">
        <ele>142</ele>
        <time>2020-10-03T10:38:33.000Z</time>
      </trkpt>
      <trkpt lat="43.61924" lon="1.07937">
        <ele>142</ele>
        <time>2020-10-03T10:38:34.000Z</time>
      </trkpt>
      <trkpt lat="43.61921" lon="1.07937">
        <ele>142</ele>
        <time>2020-10-03T10:38:35.000Z</time>
      </trkpt>
      <trkpt lat="43.61918" lon="1.07937">
        <ele>142</ele>
        <time>2020-10-03T10:38:36.000Z</time>
      </trkpt>
      <trkpt lat="43.61916" lon="1.07938">
        <ele>142</ele>
        <time>2020-10-03T10:38:37.000Z</time>
      </trkpt>
      <trkpt lat="43.61914" lon="1.07938">
        <ele>142</ele>
        <time>2020-10-03T10:38:38.000Z</time>
      </trkpt>
      <trkpt lat="43.61911" lon="1.07937">
        <ele>142</ele>
        <time>2020-10-03T10:38:39.000Z</time>
      </trkpt>
      <trkpt lat="43.61909" lon="1.07936">
        <ele>142</ele>
        <time>2020-10-03T10:38:40.000Z</time>
      </trkpt>
      <trkpt lat="43.61907" lon="1.07935">
        <ele>142</ele>
        <time>2020-10-03T10:38:41.000Z</time>
      </trkpt>
      <trkpt lat="43.61904" lon="1.07934">
        <ele>142</ele>
        <time>2020-10-03T10:38:42.000Z</time>
      </trkpt>
      <trkpt lat="43.61901" lon="1.07933">
        <ele>142</ele>
        <time>2020-10-03T10:38:43.000Z</time>
      </trkpt>
      <trkpt lat="43.61899" lon="1.07932">
        <ele>142</ele>
        <time>2020-10-03T10:38:44.000Z</time>
      </trkpt>
      <trkpt lat="43.61896" lon="1.07931">
        <ele>142</ele>
        <time>2020-10-03T10:38:45.000Z</time>
      </trkpt>
      <trkpt lat="43.61893" lon="1.07928">
        <ele>142</ele>
        <time>2020-10-03T10:38:46.000Z</time>
      </trkpt>
      <trkpt lat="43.6189" lon="1.07925">
        <ele>142</ele>
        <time>2020-10-03T10:38:47.000Z</time>
      </trkpt>
      <trkpt lat="43.61887" lon="1.07922">
        <ele>142</ele>
        <time>2020-10-03T10:38:48.000Z</time>
      </trkpt>
      <trkpt lat="43.61884" lon="1.07919">
        <ele>141.25454693555</ele>
        <time>2020-10-03T10:38:49.000Z</time>
      </trkpt>
      <trkpt lat="43.61882" lon="1.07916">
        <ele>140</ele>
        <time>2020-10-03T10:38:50.000Z</time>
      </trkpt>
      <trkpt lat="43.6188" lon="1.07914">
        <ele>140</ele>
        <time>2020-10-03T10:38:51.000Z</time>
      </trkpt>
      <trkpt lat="43.61878" lon="1.07911">
        <ele>140</ele>
        <time>2020-10-03T10:38:52.000Z</time>
      </trkpt>
      <trkpt lat="43.61875" lon="1.0791">
        <ele>140</ele>
        <time>2020-10-03T10:38:53.000Z</time>
      </trkpt>
      <trkpt lat="43.61872" lon="1.07909">
        <ele>140.40909038016</ele>
        <time>2020-10-03T10:38:54.000Z</time>
      </trkpt>
      <trkpt lat="43.6187" lon="1.07908">
        <ele>141</ele>
        <time>2020-10-03T10:38:55.000Z</time>
      </trkpt>
      <trkpt lat="43.61867" lon="1.07907">
        <ele>141</ele>
        <time>2020-10-03T10:38:56.000Z</time>
      </trkpt>
      <trkpt lat="43.61864" lon="1.07906">
        <ele>141.45652234404</ele>
        <time>2020-10-03T10:38:57.000Z</time>
      </trkpt>
      <trkpt lat="43.61861" lon="1.07905">
        <ele>142</ele>
        <time>2020-10-03T10:38:58.000Z</time>
      </trkpt>
      <trkpt lat="43.61858" lon="1.07905">
        <ele>142</ele>
        <time>2020-10-03T10:38:59.000Z</time>
      </trkpt>
      <trkpt lat="43.61855" lon="1.07904">
        <ele>142</ele>
        <time>2020-10-03T10:39:00.000Z</time>
      </trkpt>
      <trkpt lat="43.61853" lon="1.07903">
        <ele>141.52829869706</ele>
        <time>2020-10-03T10:39:01.000Z</time>
      </trkpt>
      <trkpt lat="43.6185" lon="1.07901">
        <ele>141</ele>
        <time>2020-10-03T10:39:02.000Z</time>
      </trkpt>
      <trkpt lat="43.61847" lon="1.07899">
        <ele>141.23437</ele>
        <time>2020-10-03T10:39:03.000Z</time>
      </trkpt>
      <trkpt lat="43.61845" lon="1.07897">
        <ele>142</ele>
        <time>2020-10-03T10:39:04.000Z</time>
      </trkpt>
      <trkpt lat="43.61842" lon="1.07895">
        <ele>142</ele>
        <time>2020-10-03T10:39:05.000Z</time>
      </trkpt>
      <trkpt lat="43.6184" lon="1.07893">
        <ele>142</ele>
        <time>2020-10-03T10:39:06.000Z</time>
      </trkpt>
      <trkpt lat="43.61837" lon="1.07891">
        <ele>142</ele>
        <time>2020-10-03T10:39:07.000Z</time>
      </trkpt>
      <trkpt lat="43.61835" lon="1.07889">
        <ele>142</ele>
        <time>2020-10-03T10:39:08.000Z</time>
      </trkpt>
      <trkpt lat="43.61832" lon="1.07886">
        <ele>142</ele>
        <time>2020-10-03T10:39:09.000Z</time>
      </trkpt>
      <trkpt lat="43.6183" lon="1.07884">
        <ele>142</ele>
        <time>2020-10-03T10:39:10.000Z</time>
      </trkpt>
      <trkpt lat="43.61828" lon="1.07881">
        <ele>142</ele>
        <time>2020-10-03T10:39:11.000Z</time>
      </trkpt>
      <trkpt lat="43.61826" lon="1.07879">
        <ele>142</ele>
        <time>2020-10-03T10:39:12.000Z</time>
      </trkpt>
      <trkpt lat="43.61824" lon="1.07876">
        <ele>142</ele>
        <time>2020-10-03T10:39:13.000Z</time>
      </trkpt>
      <trkpt lat="43.61821" lon="1.07874">
        <ele>142.36708901779</ele>
        <time>2020-10-03T10:39:14.000Z</time>
      </trkpt>
      <trkpt lat="43.61819" lon="1.07871">
        <ele>143</ele>
        <time>2020-10-03T10:39:15.000Z</time>
      </trkpt>
      <trkpt lat="43.61817" lon="1.07868">
        <ele>143</ele>
        <time>2020-10-03T10:39:16.000Z</time>
      </trkpt>
      <trkpt lat="43.61815" lon="1.07866">
        <ele>143</ele>
        <time>2020-10-03T10:39:17.000Z</time>
      </trkpt>
      <trkpt lat="43.61812" lon="1.07863">
        <ele>143</ele>
        <time>2020-10-03T10:39:18.000Z</time>
      </trkpt>
      <trkpt lat="43.6181" lon="1.07861">
        <ele>142.58620841854</ele>
        <time>2020-10-03T10:39:19.000Z</time>
      </trkpt>
      <trkpt lat="43.61807" lon="1.07858">
        <ele>142</ele>
        <time>2020-10-03T10:39:20.000Z</time>
      </trkpt>
      <trkpt lat="43.61805" lon="1.07856">
        <ele>142</ele>
        <time>2020-10-03T10:39:21.000Z</time>
      </trkpt>
      <trkpt lat="43.61803" lon="1.07853">
        <ele>142</ele>
        <time>2020-10-03T10:39:22.000Z</time>
      </trkpt>
      <trkpt lat="43.61801" lon="1.07851">
        <ele>142</ele>
        <time>2020-10-03T10:39:23.000Z</time>
      </trkpt>
      <trkpt lat="43.61798" lon="1.07848">
        <ele>142</ele>
        <time>2020-10-03T10:39:24.000Z</time>
      </trkpt>
      <trkpt lat="43.61796" lon="1.07846">
        <ele>142</ele>
        <time>2020-10-03T10:39:25.000Z</time>
      </trkpt>
      <trkpt lat="43.61793" lon="1.07843">
        <ele>142</ele>
        <time>2020-10-03T10:39:26.000Z</time>
      </trkpt>
      <trkpt lat="43.61791" lon="1.07841">
        <ele>142</ele>
        <time>2020-10-03T10:39:27.000Z</time>
      </trkpt>
      <trkpt lat="43.61789" lon="1.07839">
        <ele>142</ele>
        <time>2020-10-03T10:39:28.000Z</time>
      </trkpt>
      <trkpt lat="43.61786" lon="1.07837">
        <ele>142</ele>
        <time>2020-10-03T10:39:29.000Z</time>
      </trkpt>
      <trkpt lat="43.61784" lon="1.07835">
        <ele>142.0196019376</ele>
        <time>2020-10-03T10:39:30.000Z</time>
      </trkpt>
      <trkpt lat="43.61781" lon="1.07832">
        <ele>143</ele>
        <time>2020-10-03T10:39:31.000Z</time>
      </trkpt>
      <trkpt lat="43.61779" lon="1.0783">
        <ele>143</ele>
        <time>2020-10-03T10:39:32.000Z</time>
      </trkpt>
      <trkpt lat="43.61776" lon="1.07827">
        <ele>143</ele>
        <time>2020-10-03T10:39:33.000Z</time>
      </trkpt>
      <trkpt lat="43.61774" lon="1.07825">
        <ele>143</ele>
        <time>2020-10-03T10:39:34.000Z</time>
      </trkpt>
      <trkpt lat="43.61772" lon="1.07822">
        <ele>143</ele>
        <time>2020-10-03T10:39:35.000Z</time>
      </trkpt>
      <trkpt lat="43.6177" lon="1.07819">
        <ele>143</ele>
        <time>2020-10-03T10:39:36.000Z</time>
      </trkpt>
      <trkpt lat="43.61767" lon="1.07817">
        <ele>143</ele>
        <time>2020-10-03T10:39:37.000Z</time>
      </trkpt>
      <trkpt lat="43.61765" lon="1.07814">
        <ele>143</ele>
        <time>2020-10-03T10:39:38.000Z</time>
      </trkpt>
      <trkpt lat="43.61763" lon="1.07812">
        <ele>143</ele>
        <time>2020-10-03T10:39:39.000Z</time>
      </trkpt>
      <trkpt lat="43.6176" lon="1.07809">
        <ele>143</ele>
        <time>2020-10-03T10:39:40.000Z</time>
      </trkpt>
      <trkpt lat="43.61758" lon="1.07806">
        <ele>143</ele>
        <time>2020-10-03T10:39:41.000Z</time>
      </trkpt>
      <trkpt lat="43.61756" lon="1.07803">
        <ele>143</ele>
        <time>2020-10-03T10:39:42.000Z</time>
      </trkpt>
      <trkpt lat="43.61754" lon="1.078">
        <ele>143</ele>
        <time>2020-10-03T10:39:43.000Z</time>
      </trkpt>
      <trkpt lat="43.61752" lon="1.07798">
        <ele>143</ele>
        <time>2020-10-03T10:39:44.000Z</time>
      </trkpt>
      <trkpt lat="43.6175" lon="1.07795">
        <ele>143</ele>
        <time>2020-10-03T10:39:45.000Z</time>
      </trkpt>
      <trkpt lat="43.61748" lon="1.07793">
        <ele>143</ele>
        <time>2020-10-03T10:39:46.000Z</time>
      </trkpt>
      <trkpt lat="43.61747" lon="1.0779">
        <ele>143</ele>
        <time>2020-10-03T10:39:47.000Z</time>
      </trkpt>
      <trkpt lat="43.61745" lon="1.07787">
        <ele>143</ele>
        <time>2020-10-03T10:39:48.000Z</time>
      </trkpt>
      <trkpt lat="43.61743" lon="1.07784">
        <ele>143</ele>
        <time>2020-10-03T10:39:49.000Z</time>
      </trkpt>
      <trkpt lat="43.61742" lon="1.07781">
        <ele>143</ele>
        <time>2020-10-03T10:39:50.000Z</time>
      </trkpt>
      <trkpt lat="43.61741" lon="1.07777">
        <ele>143</ele>
        <time>2020-10-03T10:39:51.000Z</time>
      </trkpt>
      <trkpt lat="43.61739" lon="1.07774">
        <ele>143</ele>
        <time>2020-10-03T10:39:52.000Z</time>
      </trkpt>
      <trkpt lat="43.61737" lon="1.07771">
        <ele>143</ele>
        <time>2020-10-03T10:39:53.000Z</time>
      </trkpt>
      <trkpt lat="43.61735" lon="1.07768">
        <ele>143</ele>
        <time>2020-10-03T10:39:54.000Z</time>
      </trkpt>
      <trkpt lat="43.61733" lon="1.07767">
        <ele>143</ele>
        <time>2020-10-03T10:39:55.000Z</time>
      </trkpt>
      <trkpt lat="43.61731" lon="1.07765">
        <ele>143</ele>
        <time>2020-10-03T10:39:56.000Z</time>
      </trkpt>
      <trkpt lat="43.61728" lon="1.07763">
        <ele>143</ele>
        <time>2020-10-03T10:39:57.000Z</time>
      </trkpt>
      <trkpt lat="43.61726" lon="1.0776">
        <ele>143</ele>
        <time>2020-10-03T10:39:58.000Z</time>
      </trkpt>
      <trkpt lat="43.61724" lon="1.07758">
        <ele>142.65517596516</ele>
        <time>2020-10-03T10:39:59.000Z</time>
      </trkpt>
      <trkpt lat="43.61721" lon="1.07755">
        <ele>142</ele>
        <time>2020-10-03T10:40:00.000Z</time>
      </trkpt>
      <trkpt lat="43.61718" lon="1.07753">
        <ele>142</ele>
        <time>2020-10-03T10:40:01.000Z</time>
      </trkpt>
      <trkpt lat="43.61716" lon="1.07751">
        <ele>142</ele>
        <time>2020-10-03T10:40:02.000Z</time>
      </trkpt>
      <trkpt lat="43.61713" lon="1.07748">
        <ele>142</ele>
        <time>2020-10-03T10:40:03.000Z</time>
      </trkpt>
      <trkpt lat="43.61711" lon="1.07746">
        <ele>142</ele>
        <time>2020-10-03T10:40:04.000Z</time>
      </trkpt>
      <trkpt lat="43.61708" lon="1.07743">
        <ele>142</ele>
        <time>2020-10-03T10:40:05.000Z</time>
      </trkpt>
      <trkpt lat="43.61706" lon="1.0774">
        <ele>142.43820741827</ele>
        <time>2020-10-03T10:40:06.000Z</time>
      </trkpt>
      <trkpt lat="43.61703" lon="1.07738">
        <ele>143</ele>
        <time>2020-10-03T10:40:07.000Z</time>
      </trkpt>
      <trkpt lat="43.61701" lon="1.07736">
        <ele>143</ele>
        <time>2020-10-03T10:40:08.000Z</time>
      </trkpt>
      <trkpt lat="43.61698" lon="1.07733">
        <ele>143</ele>
        <time>2020-10-03T10:40:09.000Z</time>
      </trkpt>
      <trkpt lat="43.61696" lon="1.0773">
        <ele>143</ele>
        <time>2020-10-03T10:40:10.000Z</time>
      </trkpt>
      <trkpt lat="43.61693" lon="1.07728">
        <ele>143</ele>
        <time>2020-10-03T10:40:11.000Z</time>
      </trkpt>
      <trkpt lat="43.61692" lon="1.07726">
        <ele>143</ele>
        <time>2020-10-03T10:40:12.000Z</time>
      </trkpt>
      <trkpt lat="43.6169" lon="1.07724">
        <ele>143</ele>
        <time>2020-10-03T10:40:13.000Z</time>
      </trkpt>
      <trkpt lat="43.61688" lon="1.07722">
        <ele>143</ele>
        <time>2020-10-03T10:40:14.000Z</time>
      </trkpt>
      <trkpt lat="43.61686" lon="1.07719">
        <ele>143</ele>
        <time>2020-10-03T10:40:15.000Z</time>
      </trkpt>
      <trkpt lat="43.61683" lon="1.07716">
        <ele>143</ele>
        <time>2020-10-03T10:40:16.000Z</time>
      </trkpt>
      <trkpt lat="43.61681" lon="1.07713">
        <ele>143</ele>
        <time>2020-10-03T10:40:17.000Z</time>
      </trkpt>
      <trkpt lat="43.61678" lon="1.0771">
        <ele>143</ele>
        <time>2020-10-03T10:40:18.000Z</time>
      </trkpt>
      <trkpt lat="43.61676" lon="1.07707">
        <ele>143</ele>
        <time>2020-10-03T10:40:19.000Z</time>
      </trkpt>
      <trkpt lat="43.61674" lon="1.07705">
        <ele>143</ele>
        <time>2020-10-03T10:40:20.000Z</time>
      </trkpt>
      <trkpt lat="43.61671" lon="1.07702">
        <ele>143</ele>
        <time>2020-10-03T10:40:21.000Z</time>
      </trkpt>
      <trkpt lat="43.61669" lon="1.077">
        <ele>143</ele>
        <time>2020-10-03T10:40:22.000Z</time>
      </trkpt>
      <trkpt lat="43.61666" lon="1.07697">
        <ele>143</ele>
        <time>2020-10-03T10:40:23.000Z</time>
      </trkpt>
      <trkpt lat="43.61664" lon="1.07694">
        <ele>143</ele>
        <time>2020-10-03T10:40:24.000Z</time>
      </trkpt>
      <trkpt lat="43.61662" lon="1.07692">
        <ele>143</ele>
        <time>2020-10-03T10:40:25.000Z</time>
      </trkpt>
      <trkpt lat="43.61659" lon="1.07689">
        <ele>143</ele>
        <time>2020-10-03T10:40:26.000Z</time>
      </trkpt>
      <trkpt lat="43.61657" lon="1.07686">
        <ele>143</ele>
        <time>2020-10-03T10:40:27.000Z</time>
      </trkpt>
      <trkpt lat="43.61654" lon="1.07684">
        <ele>143</ele>
        <time>2020-10-03T10:40:28.000Z</time>
      </trkpt>
      <trkpt lat="43.61652" lon="1.07682">
        <ele>143</ele>
        <time>2020-10-03T10:40:29.000Z</time>
      </trkpt>
      <trkpt lat="43.61649" lon="1.0768">
        <ele>143</ele>
        <time>2020-10-03T10:40:30.000Z</time>
      </trkpt>
      <trkpt lat="43.61647" lon="1.07678">
        <ele>143</ele>
        <time>2020-10-03T10:40:31.000Z</time>
      </trkpt>
      <trkpt lat="43.61644" lon="1.07677">
        <ele>143</ele>
        <time>2020-10-03T10:40:32.000Z</time>
      </trkpt>
      <trkpt lat="43.61643" lon="1.07674">
        <ele>143</ele>
        <time>2020-10-03T10:40:33.000Z</time>
      </trkpt>
      <trkpt lat="43.61643" lon="1.0767">
        <ele>143</ele>
        <time>2020-10-03T10:40:34.000Z</time>
      </trkpt>
      <trkpt lat="43.61644" lon="1.07666">
        <ele>143</ele>
        <time>2020-10-03T10:40:35.000Z</time>
      </trkpt>
      <trkpt lat="43.61645" lon="1.07662">
        <ele>143</ele>
        <time>2020-10-03T10:40:36.000Z</time>
      </trkpt>
      <trkpt lat="43.61647" lon="1.07659">
        <ele>143</ele>
        <time>2020-10-03T10:40:37.000Z</time>
      </trkpt>
      <trkpt lat="43.61649" lon="1.07655">
        <ele>142.14035166513</ele>
        <time>2020-10-03T10:40:38.000Z</time>
      </trkpt>
      <trkpt lat="43.61652" lon="1.07653">
        <ele>141</ele>
        <time>2020-10-03T10:40:39.000Z</time>
      </trkpt>
      <trkpt lat="43.61653" lon="1.07652">
        <ele>141</ele>
        <time>2020-10-03T10:40:40.000Z</time>
      </trkpt>
      <trkpt lat="43.61655" lon="1.0765">
        <ele>141</ele>
        <time>2020-10-03T10:40:41.000Z</time>
      </trkpt>
      <trkpt lat="43.61657" lon="1.07648">
        <ele>141</ele>
        <time>2020-10-03T10:40:42.000Z</time>
      </trkpt>
      <trkpt lat="43.61659" lon="1.07646">
        <ele>141</ele>
        <time>2020-10-03T10:40:43.000Z</time>
      </trkpt>
      <trkpt lat="43.61661" lon="1.07644">
        <ele>141</ele>
        <time>2020-10-03T10:40:44.000Z</time>
      </trkpt>
      <trkpt lat="43.61663" lon="1.07642">
        <ele>140.62405805191</ele>
        <time>2020-10-03T10:40:45.000Z</time>
      </trkpt>
      <trkpt lat="43.61666" lon="1.0764">
        <ele>140</ele>
        <time>2020-10-03T10:40:47.000Z</time>
      </trkpt>
      <trkpt lat="43.61667" lon="1.07637">
        <ele>140.27433989194</ele>
        <time>2020-10-03T10:40:48.000Z</time>
      </trkpt>
      <trkpt lat="43.61668" lon="1.07635">
        <ele>141</ele>
        <time>2020-10-03T10:40:49.000Z</time>
      </trkpt>
      <trkpt lat="43.61668" lon="1.07632">
        <ele>141</ele>
        <time>2020-10-03T10:40:50.000Z</time>
      </trkpt>
      <trkpt lat="43.61668" lon="1.07629">
        <ele>141.36842459832</ele>
        <time>2020-10-03T10:40:51.000Z</time>
      </trkpt>
      <trkpt lat="43.61667" lon="1.07625">
        <ele>142</ele>
        <time>2020-10-03T10:40:52.000Z</time>
      </trkpt>
      <trkpt lat="43.61666" lon="1.07623">
        <ele>142.42982416743</ele>
        <time>2020-10-03T10:40:53.000Z</time>
      </trkpt>
      <trkpt lat="43.61666" lon="1.0762">
        <ele>143</ele>
        <time>2020-10-03T10:40:54.000Z</time>
      </trkpt>
      <trkpt lat="43.61664" lon="1.07617">
        <ele>143</ele>
        <time>2020-10-03T10:40:55.000Z</time>
      </trkpt>
      <trkpt lat="43.61663" lon="1.07615">
        <ele>143.45652113421</ele>
        <time>2020-10-03T10:40:56.000Z</time>
      </trkpt>
      <trkpt lat="43.6166" lon="1.07614">
        <ele>144</ele>
        <time>2020-10-03T10:40:57.000Z</time>
      </trkpt>
      <trkpt lat="43.61658" lon="1.07614">
        <ele>144</ele>
        <time>2020-10-03T10:40:58.000Z</time>
      </trkpt>
      <trkpt lat="43.61656" lon="1.07614">
        <ele>144</ele>
        <time>2020-10-03T10:40:59.000Z</time>
      </trkpt>
      <trkpt lat="43.61653" lon="1.07612">
        <ele>143.55208</ele>
        <time>2020-10-03T10:41:01.000Z</time>
      </trkpt>
      <trkpt lat="43.61651" lon="1.07612">
        <ele>144</ele>
        <time>2020-10-03T10:41:10.000Z</time>
      </trkpt>
      <trkpt lat="43.61648" lon="1.07612">
        <ele>144</ele>
        <time>2020-10-03T10:41:12.000Z</time>
      </trkpt>
      <trkpt lat="43.61646" lon="1.07611">
        <ele>144</ele>
        <time>2020-10-03T10:41:14.000Z</time>
      </trkpt>
      <trkpt lat="43.61644" lon="1.07611">
        <ele>144</ele>
        <time>2020-10-03T10:41:15.000Z</time>
      </trkpt>
      <trkpt lat="43.61641" lon="1.07609">
        <ele>144</ele>
        <time>2020-10-03T10:41:16.000Z</time>
      </trkpt>
      <trkpt lat="43.61638" lon="1.07606">
        <ele>144</ele>
        <time>2020-10-03T10:41:17.000Z</time>
      </trkpt>
      <trkpt lat="43.61636" lon="1.07604">
        <ele>144</ele>
        <time>2020-10-03T10:41:18.000Z</time>
      </trkpt>
      <trkpt lat="43.61633" lon="1.07602">
        <ele>144</ele>
        <time>2020-10-03T10:41:19.000Z</time>
      </trkpt>
      <trkpt lat="43.6163" lon="1.076">
        <ele>144</ele>
        <time>2020-10-03T10:41:20.000Z</time>
      </trkpt>
      <trkpt lat="43.61627" lon="1.07598">
        <ele>144</ele>
        <time>2020-10-03T10:41:21.000Z</time>
      </trkpt>
      <trkpt lat="43.61624" lon="1.07596">
        <ele>144.45055068713</ele>
        <time>2020-10-03T10:41:22.000Z</time>
      </trkpt>
      <trkpt lat="43.61622" lon="1.07594">
        <ele>145</ele>
        <time>2020-10-03T10:41:23.000Z</time>
      </trkpt>
      <trkpt lat="43.61619" lon="1.07593">
        <ele>145</ele>
        <time>2020-10-03T10:41:24.000Z</time>
      </trkpt>
      <trkpt lat="43.61616" lon="1.07591">
        <ele>145</ele>
        <time>2020-10-03T10:41:25.000Z</time>
      </trkpt>
      <trkpt lat="43.61614" lon="1.0759">
        <ele>145</ele>
        <time>2020-10-03T10:41:26.000Z</time>
      </trkpt>
      <trkpt lat="43.61611" lon="1.07588">
        <ele>145</ele>
        <time>2020-10-03T10:41:27.000Z</time>
      </trkpt>
      <trkpt lat="43.61608" lon="1.07586">
        <ele>145</ele>
        <time>2020-10-03T10:41:28.000Z</time>
      </trkpt>
      <trkpt lat="43.61606" lon="1.07584">
        <ele>145</ele>
        <time>2020-10-03T10:41:29.000Z</time>
      </trkpt>
      <trkpt lat="43.61603" lon="1.07583">
        <ele>145</ele>
        <time>2020-10-03T10:41:30.000Z</time>
      </trkpt>
      <trkpt lat="43.616" lon="1.0758">
        <ele>145</ele>
        <time>2020-10-03T10:41:31.000Z</time>
      </trkpt>
      <trkpt lat="43.61597" lon="1.07578">
        <ele>145</ele>
        <time>2020-10-03T10:41:32.000Z</time>
      </trkpt>
      <trkpt lat="43.61594" lon="1.07576">
        <ele>145</ele>
        <time>2020-10-03T10:41:33.000Z</time>
      </trkpt>
      <trkpt lat="43.61591" lon="1.07573">
        <ele>145</ele>
        <time>2020-10-03T10:41:34.000Z</time>
      </trkpt>
      <trkpt lat="43.61588" lon="1.07571">
        <ele>145</ele>
        <time>2020-10-03T10:41:35.000Z</time>
      </trkpt>
      <trkpt lat="43.61586" lon="1.07569">
        <ele>145</ele>
        <time>2020-10-03T10:41:36.000Z</time>
      </trkpt>
      <trkpt lat="43.61583" lon="1.07567">
        <ele>145</ele>
        <time>2020-10-03T10:41:37.000Z</time>
      </trkpt>
      <trkpt lat="43.61581" lon="1.07565">
        <ele>145</ele>
        <time>2020-10-03T10:41:38.000Z</time>
      </trkpt>
      <trkpt lat="43.61578" lon="1.07563">
        <ele>145</ele>
        <time>2020-10-03T10:41:39.000Z</time>
      </trkpt>
      <trkpt lat="43.61576" lon="1.07561">
        <ele>145</ele>
        <time>2020-10-03T10:41:40.000Z</time>
      </trkpt>
      <trkpt lat="43.61573" lon="1.07559">
        <ele>145</ele>
        <time>2020-10-03T10:41:41.000Z</time>
      </trkpt>
      <trkpt lat="43.6157" lon="1.07557">
        <ele>145</ele>
        <time>2020-10-03T10:41:42.000Z</time>
      </trkpt>
      <trkpt lat="43.61568" lon="1.07556">
        <ele>145</ele>
        <time>2020-10-03T10:41:43.000Z</time>
      </trkpt>
      <trkpt lat="43.61565" lon="1.07554">
        <ele>145</ele>
        <time>2020-10-03T10:41:44.000Z</time>
      </trkpt>
      <trkpt lat="43.61563" lon="1.07553">
        <ele>145</ele>
        <time>2020-10-03T10:41:45.000Z</time>
      </trkpt>
      <trkpt lat="43.61561" lon="1.07552">
        <ele>145</ele>
        <time>2020-10-03T10:41:46.000Z</time>
      </trkpt>
      <trkpt lat="43.61558" lon="1.0755">
        <ele>144.5</ele>
        <time>2020-10-03T10:41:47.000Z</time>
      </trkpt>
      <trkpt lat="43.61555" lon="1.07548">
        <ele>144</ele>
        <time>2020-10-03T10:41:48.000Z</time>
      </trkpt>
      <trkpt lat="43.61553" lon="1.07546">
        <ele>144</ele>
        <time>2020-10-03T10:41:49.000Z</time>
      </trkpt>
      <trkpt lat="43.6155" lon="1.07545">
        <ele>144</ele>
        <time>2020-10-03T10:41:50.000Z</time>
      </trkpt>
      <trkpt lat="43.61546" lon="1.07544">
        <ele>144</ele>
        <time>2020-10-03T10:41:51.000Z</time>
      </trkpt>
      <trkpt lat="43.61544" lon="1.07543">
        <ele>144</ele>
        <time>2020-10-03T10:41:52.000Z</time>
      </trkpt>
      <trkpt lat="43.61541" lon="1.07542">
        <ele>144</ele>
        <time>2020-10-03T10:41:53.000Z</time>
      </trkpt>
      <trkpt lat="43.61538" lon="1.0754">
        <ele>144</ele>
        <time>2020-10-03T10:41:54.000Z</time>
      </trkpt>
      <trkpt lat="43.61535" lon="1.07539">
        <ele>144</ele>
        <time>2020-10-03T10:41:55.000Z</time>
      </trkpt>
      <trkpt lat="43.61531" lon="1.07538">
        <ele>144</ele>
        <time>2020-10-03T10:41:56.000Z</time>
      </trkpt>
      <trkpt lat="43.61528" lon="1.07537">
        <ele>144</ele>
        <time>2020-10-03T10:41:57.000Z</time>
      </trkpt>
      <trkpt lat="43.61525" lon="1.07535">
        <ele>144</ele>
        <time>2020-10-03T10:41:58.000Z</time>
      </trkpt>
      <trkpt lat="43.61523" lon="1.07533">
        <ele>144.48453458605</ele>
        <time>2020-10-03T10:41:59.000Z</time>
      </trkpt>
      <trkpt lat="43.6152" lon="1.0753">
        <ele>145</ele>
        <time>2020-10-03T10:42:00.000Z</time>
      </trkpt>
      <trkpt lat="43.61519" lon="1.07526">
        <ele>145</ele>
        <time>2020-10-03T10:42:01.000Z</time>
      </trkpt>
      <trkpt lat="43.61517" lon="1.07521">
        <ele>145</ele>
        <time>2020-10-03T10:42:02.000Z</time>
      </trkpt>
      <trkpt lat="43.61517" lon="1.07516">
        <ele>145</ele>
        <time>2020-10-03T10:42:03.000Z</time>
      </trkpt>
      <trkpt lat="43.61517" lon="1.07511">
        <ele>145</ele>
        <time>2020-10-03T10:42:04.000Z</time>
      </trkpt>
      <trkpt lat="43.61516" lon="1.07507">
        <ele>145</ele>
        <time>2020-10-03T10:42:05.000Z</time>
      </trkpt>
      <trkpt lat="43.61516" lon="1.07502">
        <ele>145</ele>
        <time>2020-10-03T10:42:06.000Z</time>
      </trkpt>
      <trkpt lat="43.61516" lon="1.07497">
        <ele>145</ele>
        <time>2020-10-03T10:42:07.000Z</time>
      </trkpt>
      <trkpt lat="43.61517" lon="1.07492">
        <ele>145</ele>
        <time>2020-10-03T10:42:08.000Z</time>
      </trkpt>
      <trkpt lat="43.61517" lon="1.07488">
        <ele>145</ele>
        <time>2020-10-03T10:42:09.000Z</time>
      </trkpt>
      <trkpt lat="43.61517" lon="1.07483">
        <ele>145</ele>
        <time>2020-10-03T10:42:10.000Z</time>
      </trkpt>
      <trkpt lat="43.61517" lon="1.07479">
        <ele>145</ele>
        <time>2020-10-03T10:42:11.000Z</time>
      </trkpt>
      <trkpt lat="43.61517" lon="1.07474">
        <ele>145</ele>
        <time>2020-10-03T10:42:12.000Z</time>
      </trkpt>
      <trkpt lat="43.61517" lon="1.0747">
        <ele>145</ele>
        <time>2020-10-03T10:42:13.000Z</time>
      </trkpt>
      <trkpt lat="43.61517" lon="1.07465">
        <ele>145</ele>
        <time>2020-10-03T10:42:14.000Z</time>
      </trkpt>
      <trkpt lat="43.61517" lon="1.0746">
        <ele>145</ele>
        <time>2020-10-03T10:42:15.000Z</time>
      </trkpt>
      <trkpt lat="43.61517" lon="1.07456">
        <ele>145</ele>
        <time>2020-10-03T10:42:16.000Z</time>
      </trkpt>
      <trkpt lat="43.61517" lon="1.07451">
        <ele>145</ele>
        <time>2020-10-03T10:42:17.000Z</time>
      </trkpt>
      <trkpt lat="43.61517" lon="1.07447">
        <ele>145</ele>
        <time>2020-10-03T10:42:18.000Z</time>
      </trkpt>
      <trkpt lat="43.61518" lon="1.07442">
        <ele>145</ele>
        <time>2020-10-03T10:42:19.000Z</time>
      </trkpt>
      <trkpt lat="43.61518" lon="1.07438">
        <ele>145</ele>
        <time>2020-10-03T10:42:20.000Z</time>
      </trkpt>
      <trkpt lat="43.61518" lon="1.07435">
        <ele>145</ele>
        <time>2020-10-03T10:42:21.000Z</time>
      </trkpt>
      <trkpt lat="43.61518" lon="1.07432">
        <ele>145</ele>
        <time>2020-10-03T10:42:22.000Z</time>
      </trkpt>
      <trkpt lat="43.61517" lon="1.07429">
        <ele>145</ele>
        <time>2020-10-03T10:42:24.000Z</time>
      </trkpt>
      <trkpt lat="43.61516" lon="1.07427">
        <ele>144</ele>
        <time>2020-10-03T10:42:29.000Z</time>
      </trkpt>
      <trkpt lat="43.61514" lon="1.07426">
        <ele>145</ele>
        <time>2020-10-03T10:42:37.000Z</time>
      </trkpt>
      <trkpt lat="43.61513" lon="1.07428">
        <ele>145</ele>
        <time>2020-10-03T10:42:42.000Z</time>
      </trkpt>
      <trkpt lat="43.61512" lon="1.07426">
        <ele>144</ele>
        <time>2020-10-03T10:42:46.000Z</time>
      </trkpt>
      <trkpt lat="43.61514" lon="1.07425">
        <ele>144</ele>
        <time>2020-10-03T10:43:06.000Z</time>
      </trkpt>
      <trkpt lat="43.61515" lon="1.07425">
        <ele>143</ele>
        <time>2020-10-03T10:50:19.000Z</time>
      </trkpt>
      <trkpt lat="43.61517" lon="1.07426">
        <ele>144</ele>
        <time>2020-10-03T10:51:07.000Z</time>
      </trkpt>
      <trkpt lat="43.61515" lon="1.07427">
        <ele>143.61111167549</ele>
        <time>2020-10-03T10:52:47.000Z</time>
      </trkpt>
      <trkpt lat="43.61517" lon="1.07428">
        <ele>143</ele>
        <time>2020-10-03T10:53:04.000Z</time>
      </trkpt>
      <trkpt lat="43.61516" lon="1.0743">
        <ele>143</ele>
        <time>2020-10-03T10:54:37.000Z</time>
      </trkpt>
      <trkpt lat="43.61513" lon="1.0743">
        <ele>143</ele>
        <time>2020-10-03T10:54:40.000Z</time>
      </trkpt>
      <trkpt lat="43.61515" lon="1.07429">
        <ele>144</ele>
        <time>2020-10-03T10:55:02.000Z</time>
      </trkpt>
      <trkpt lat="43.61517" lon="1.07428">
        <ele>144</ele>
        <time>2020-10-03T10:55:34.000Z</time>
      </trkpt>
      <trkpt lat="43.61518" lon="1.07426">
        <ele>144</ele>
        <time>2020-10-03T10:57:01.000Z</time>
      </trkpt>
      <trkpt lat="43.61516" lon="1.07425">
        <ele>143.5</ele>
        <time>2020-10-03T10:57:43.000Z</time>
      </trkpt>
      <trkpt lat="43.61518" lon="1.07424">
        <ele>144</ele>
        <time>2020-10-03T10:57:50.000Z</time>
      </trkpt>
      <trkpt lat="43.61519" lon="1.07423">
        <ele>144</ele>
        <time>2020-10-03T10:57:54.000Z</time>
      </trkpt>
      <trkpt lat="43.6152" lon="1.07419">
        <ele>144</ele>
        <time>2020-10-03T10:57:57.000Z</time>
      </trkpt>
      <trkpt lat="43.61519" lon="1.07414">
        <ele>143.66892108108</ele>
        <time>2020-10-03T10:58:00.000Z</time>
      </trkpt>
      <trkpt lat="43.61519" lon="1.07411">
        <ele>143</ele>
        <time>2020-10-03T10:58:01.000Z</time>
      </trkpt>
      <trkpt lat="43.61519" lon="1.07407">
        <ele>143</ele>
        <time>2020-10-03T10:58:02.000Z</time>
      </trkpt>
      <trkpt lat="43.61519" lon="1.07403">
        <ele>143</ele>
        <time>2020-10-03T10:58:03.000Z</time>
      </trkpt>
      <trkpt lat="43.61519" lon="1.07399">
        <ele>143</ele>
        <time>2020-10-03T10:58:04.000Z</time>
      </trkpt>
      <trkpt lat="43.61518" lon="1.07395">
        <ele>143</ele>
        <time>2020-10-03T10:58:05.000Z</time>
      </trkpt>
      <trkpt lat="43.61518" lon="1.07392">
        <ele>143</ele>
        <time>2020-10-03T10:58:06.000Z</time>
      </trkpt>
      <trkpt lat="43.61517" lon="1.07388">
        <ele>143</ele>
        <time>2020-10-03T10:58:07.000Z</time>
      </trkpt>
      <trkpt lat="43.61516" lon="1.07385">
        <ele>143</ele>
        <time>2020-10-03T10:58:08.000Z</time>
      </trkpt>
      <trkpt lat="43.61516" lon="1.07381">
        <ele>143</ele>
        <time>2020-10-03T10:58:10.000Z</time>
      </trkpt>
      <trkpt lat="43.61515" lon="1.07376">
        <ele>143</ele>
        <time>2020-10-03T10:58:12.000Z</time>
      </trkpt>
      <trkpt lat="43.61515" lon="1.07372">
        <ele>143</ele>
        <time>2020-10-03T10:58:13.000Z</time>
      </trkpt>
      <trkpt lat="43.61516" lon="1.07369">
        <ele>143</ele>
        <time>2020-10-03T10:58:14.000Z</time>
      </trkpt>
      <trkpt lat="43.61516" lon="1.07366">
        <ele>143</ele>
        <time>2020-10-03T10:58:15.000Z</time>
      </trkpt>
      <trkpt lat="43.61517" lon="1.07363">
        <ele>143</ele>
        <time>2020-10-03T10:58:16.000Z</time>
      </trkpt>
      <trkpt lat="43.61516" lon="1.0736">
        <ele>143.43820111603</ele>
        <time>2020-10-03T10:58:17.000Z</time>
      </trkpt>
      <trkpt lat="43.61516" lon="1.07357">
        <ele>144</ele>
        <time>2020-10-03T10:58:18.000Z</time>
      </trkpt>
      <trkpt lat="43.61516" lon="1.07353">
        <ele>144</ele>
        <time>2020-10-03T10:58:19.000Z</time>
      </trkpt>
      <trkpt lat="43.61516" lon="1.0735">
        <ele>144</ele>
        <time>2020-10-03T10:58:20.000Z</time>
      </trkpt>
      <trkpt lat="43.61516" lon="1.07347">
        <ele>143.63636152065</ele>
        <time>2020-10-03T10:58:21.000Z</time>
      </trkpt>
      <trkpt lat="43.61516" lon="1.07343">
        <ele>143</ele>
        <time>2020-10-03T10:58:22.000Z</time>
      </trkpt>
      <trkpt lat="43.61516" lon="1.07339">
        <ele>143</ele>
        <time>2020-10-03T10:58:23.000Z</time>
      </trkpt>
      <trkpt lat="43.61515" lon="1.07335">
        <ele>143</ele>
        <time>2020-10-03T10:58:24.000Z</time>
      </trkpt>
      <trkpt lat="43.61515" lon="1.07331">
        <ele>143</ele>
        <time>2020-10-03T10:58:25.000Z</time>
      </trkpt>
      <trkpt lat="43.61514" lon="1.07328">
        <ele>143</ele>
        <time>2020-10-03T10:58:26.000Z</time>
      </trkpt>
      <trkpt lat="43.61512" lon="1.07325">
        <ele>143.36697355442</ele>
        <time>2020-10-03T10:58:27.000Z</time>
      </trkpt>
      <trkpt lat="43.61511" lon="1.07322">
        <ele>144</ele>
        <time>2020-10-03T10:58:28.000Z</time>
      </trkpt>
      <trkpt lat="43.61509" lon="1.07319">
        <ele>144</ele>
        <time>2020-10-03T10:58:29.000Z</time>
      </trkpt>
      <trkpt lat="43.61507" lon="1.07317">
        <ele>144</ele>
        <time>2020-10-03T10:58:30.000Z</time>
      </trkpt>
      <trkpt lat="43.61505" lon="1.07314">
        <ele>144</ele>
        <time>2020-10-03T10:58:31.000Z</time>
      </trkpt>
      <trkpt lat="43.61503" lon="1.07312">
        <ele>144</ele>
        <time>2020-10-03T10:58:32.000Z</time>
      </trkpt>
      <trkpt lat="43.61501" lon="1.0731">
        <ele>143.52380778233</ele>
        <time>2020-10-03T10:58:33.000Z</time>
      </trkpt>
      <trkpt lat="43.61499" lon="1.07308">
        <ele>143</ele>
        <time>2020-10-03T10:58:34.000Z</time>
      </trkpt>
      <trkpt lat="43.61497" lon="1.07305">
        <ele>142.50980072282</ele>
        <time>2020-10-03T10:58:35.000Z</time>
      </trkpt>
      <trkpt lat="43.61496" lon="1.07303">
        <ele>142</ele>
        <time>2020-10-03T10:58:36.000Z</time>
      </trkpt>
      <trkpt lat="43.61494" lon="1.073">
        <ele>142</ele>
        <time>2020-10-03T10:58:37.000Z</time>
      </trkpt>
      <trkpt lat="43.61492" lon="1.07297">
        <ele>142</ele>
        <time>2020-10-03T10:58:38.000Z</time>
      </trkpt>
      <trkpt lat="43.6149" lon="1.07294">
        <ele>142.36363847935</ele>
        <time>2020-10-03T10:58:39.000Z</time>
      </trkpt>
      <trkpt lat="43.61489" lon="1.07291">
        <ele>143</ele>
        <time>2020-10-03T10:58:40.000Z</time>
      </trkpt>
      <trkpt lat="43.61488" lon="1.07287">
        <ele>143</ele>
        <time>2020-10-03T10:58:41.000Z</time>
      </trkpt>
      <trkpt lat="43.61486" lon="1.07284">
        <ele>143</ele>
        <time>2020-10-03T10:58:42.000Z</time>
      </trkpt>
      <trkpt lat="43.61485" lon="1.0728">
        <ele>143.35293497576</ele>
        <time>2020-10-03T10:58:43.000Z</time>
      </trkpt>
      <trkpt lat="43.61484" lon="1.07277">
        <ele>144</ele>
        <time>2020-10-03T10:58:44.000Z</time>
      </trkpt>
      <trkpt lat="43.61483" lon="1.07274">
        <ele>144</ele>
        <time>2020-10-03T10:58:45.000Z</time>
      </trkpt>
      <trkpt lat="43.61482" lon="1.0727">
        <ele>144</ele>
        <time>2020-10-03T10:58:46.000Z</time>
      </trkpt>
      <trkpt lat="43.61481" lon="1.07267">
        <ele>144</ele>
        <time>2020-10-03T10:58:47.000Z</time>
      </trkpt>
      <trkpt lat="43.6148" lon="1.07263">
        <ele>144</ele>
        <time>2020-10-03T10:58:48.000Z</time>
      </trkpt>
      <trkpt lat="43.6148" lon="1.07259">
        <ele>144</ele>
        <time>2020-10-03T10:58:49.000Z</time>
      </trkpt>
      <trkpt lat="43.61481" lon="1.07255">
        <ele>144</ele>
        <time>2020-10-03T10:58:50.000Z</time>
      </trkpt>
      <trkpt lat="43.61481" lon="1.07252">
        <ele>144</ele>
        <time>2020-10-03T10:58:51.000Z</time>
      </trkpt>
      <trkpt lat="43.61482" lon="1.07248">
        <ele>144</ele>
        <time>2020-10-03T10:58:52.000Z</time>
      </trkpt>
      <trkpt lat="43.61482" lon="1.07245">
        <ele>144</ele>
        <time>2020-10-03T10:58:53.000Z</time>
      </trkpt>
      <trkpt lat="43.61483" lon="1.07241">
        <ele>144</ele>
        <time>2020-10-03T10:58:54.000Z</time>
      </trkpt>
      <trkpt lat="43.61484" lon="1.07238">
        <ele>144</ele>
        <time>2020-10-03T10:58:55.000Z</time>
      </trkpt>
      <trkpt lat="43.61485" lon="1.07234">
        <ele>144</ele>
        <time>2020-10-03T10:58:56.000Z</time>
      </trkpt>
      <trkpt lat="43.61485" lon="1.0723">
        <ele>144</ele>
        <time>2020-10-03T10:58:57.000Z</time>
      </trkpt>
      <trkpt lat="43.61485" lon="1.07226">
        <ele>144</ele>
        <time>2020-10-03T10:58:58.000Z</time>
      </trkpt>
      <trkpt lat="43.61486" lon="1.07222">
        <ele>144</ele>
        <time>2020-10-03T10:58:59.000Z</time>
      </trkpt>
      <trkpt lat="43.61486" lon="1.07218">
        <ele>143.63393142857</ele>
        <time>2020-10-03T10:59:00.000Z</time>
      </trkpt>
      <trkpt lat="43.61487" lon="1.07214">
        <ele>143</ele>
        <time>2020-10-03T10:59:01.000Z</time>
      </trkpt>
      <trkpt lat="43.61487" lon="1.0721">
        <ele>143</ele>
        <time>2020-10-03T10:59:02.000Z</time>
      </trkpt>
      <trkpt lat="43.61487" lon="1.07206">
        <ele>143</ele>
        <time>2020-10-03T10:59:03.000Z</time>
      </trkpt>
      <trkpt lat="43.61488" lon="1.07202">
        <ele>143</ele>
        <time>2020-10-03T10:59:04.000Z</time>
      </trkpt>
      <trkpt lat="43.61488" lon="1.07198">
        <ele>143</ele>
        <time>2020-10-03T10:59:05.000Z</time>
      </trkpt>
      <trkpt lat="43.61488" lon="1.07194">
        <ele>143.30587597506</ele>
        <time>2020-10-03T10:59:06.000Z</time>
      </trkpt>
      <trkpt lat="43.61489" lon="1.0719">
        <ele>144</ele>
        <time>2020-10-03T10:59:07.000Z</time>
      </trkpt>
      <trkpt lat="43.61489" lon="1.07186">
        <ele>144</ele>
        <time>2020-10-03T10:59:08.000Z</time>
      </trkpt>
      <trkpt lat="43.61489" lon="1.07182">
        <ele>144</ele>
        <time>2020-10-03T10:59:09.000Z</time>
      </trkpt>
      <trkpt lat="43.6149" lon="1.07178">
        <ele>144</ele>
        <time>2020-10-03T10:59:10.000Z</time>
      </trkpt>
      <trkpt lat="43.6149" lon="1.07174">
        <ele>144</ele>
        <time>2020-10-03T10:59:11.000Z</time>
      </trkpt>
      <trkpt lat="43.61489" lon="1.07171">
        <ele>144</ele>
        <time>2020-10-03T10:59:12.000Z</time>
      </trkpt>
      <trkpt lat="43.61488" lon="1.07168">
        <ele>144</ele>
        <time>2020-10-03T10:59:13.000Z</time>
      </trkpt>
      <trkpt lat="43.61486" lon="1.07165">
        <ele>144.42055649927</ele>
        <time>2020-10-03T10:59:14.000Z</time>
      </trkpt>
      <trkpt lat="43.61485" lon="1.07163">
        <ele>145</ele>
        <time>2020-10-03T10:59:15.000Z</time>
      </trkpt>
      <trkpt lat="43.61484" lon="1.07161">
        <ele>145.4166637037</ele>
        <time>2020-10-03T10:59:16.000Z</time>
      </trkpt>
      <trkpt lat="43.61482" lon="1.07159">
        <ele>146</ele>
        <time>2020-10-03T10:59:17.000Z</time>
      </trkpt>
      <trkpt lat="43.61481" lon="1.07157">
        <ele>146.42592680383</ele>
        <time>2020-10-03T10:59:18.000Z</time>
      </trkpt>
      <trkpt lat="43.6148" lon="1.07155">
        <ele>147</ele>
        <time>2020-10-03T10:59:19.000Z</time>
      </trkpt>
      <trkpt lat="43.61479" lon="1.07152">
        <ele>147</ele>
        <time>2020-10-03T10:59:20.000Z</time>
      </trkpt>
      <trkpt lat="43.61477" lon="1.07149">
        <ele>147</ele>
        <time>2020-10-03T10:59:21.000Z</time>
      </trkpt>
      <trkpt lat="43.61475" lon="1.07148">
        <ele>146.79775927284</ele>
        <time>2020-10-03T10:59:22.000Z</time>
      </trkpt>
      <trkpt lat="43.61472" lon="1.07146">
        <ele>146</ele>
        <time>2020-10-03T10:59:23.000Z</time>
      </trkpt>
      <trkpt lat="43.6147" lon="1.07144">
        <ele>146</ele>
        <time>2020-10-03T10:59:24.000Z</time>
      </trkpt>
      <trkpt lat="43.61468" lon="1.07143">
        <ele>145.34831945463</ele>
        <time>2020-10-03T10:59:25.000Z</time>
      </trkpt>
      <trkpt lat="43.61466" lon="1.07141">
        <ele>144</ele>
        <time>2020-10-03T10:59:26.000Z</time>
      </trkpt>
      <trkpt lat="43.61464" lon="1.07138">
        <ele>144</ele>
        <time>2020-10-03T10:59:27.000Z</time>
      </trkpt>
      <trkpt lat="43.61462" lon="1.07135">
        <ele>144</ele>
        <time>2020-10-03T10:59:28.000Z</time>
      </trkpt>
      <trkpt lat="43.61459" lon="1.07132">
        <ele>144</ele>
        <time>2020-10-03T10:59:29.000Z</time>
      </trkpt>
      <trkpt lat="43.61457" lon="1.0713">
        <ele>143.59459397126</ele>
        <time>2020-10-03T10:59:30.000Z</time>
      </trkpt>
      <trkpt lat="43.61455" lon="1.07128">
        <ele>143</ele>
        <time>2020-10-03T10:59:31.000Z</time>
      </trkpt>
      <trkpt lat="43.61452" lon="1.07127">
        <ele>142.18644509047</ele>
        <time>2020-10-03T10:59:32.000Z</time>
      </trkpt>
      <trkpt lat="43.6145" lon="1.07126">
        <ele>141</ele>
        <time>2020-10-03T10:59:33.000Z</time>
      </trkpt>
      <trkpt lat="43.61447" lon="1.07125">
        <ele>140.59829115932</ele>
        <time>2020-10-03T10:59:34.000Z</time>
      </trkpt>
      <trkpt lat="43.61444" lon="1.07124">
        <ele>140</ele>
        <time>2020-10-03T10:59:35.000Z</time>
      </trkpt>
      <trkpt lat="43.61442" lon="1.07123">
        <ele>140</ele>
        <time>2020-10-03T10:59:36.000Z</time>
      </trkpt>
      <trkpt lat="43.61439" lon="1.07122">
        <ele>140</ele>
        <time>2020-10-03T10:59:37.000Z</time>
      </trkpt>
      <trkpt lat="43.61437" lon="1.07121">
        <ele>140</ele>
        <time>2020-10-03T10:59:38.000Z</time>
      </trkpt>
      <trkpt lat="43.61434" lon="1.0712">
        <ele>140</ele>
        <time>2020-10-03T10:59:39.000Z</time>
      </trkpt>
      <trkpt lat="43.61431" lon="1.07119">
        <ele>140</ele>
        <time>2020-10-03T10:59:40.000Z</time>
      </trkpt>
      <trkpt lat="43.61429" lon="1.07117">
        <ele>140</ele>
        <time>2020-10-03T10:59:41.000Z</time>
      </trkpt>
      <trkpt lat="43.61426" lon="1.07115">
        <ele>140</ele>
        <time>2020-10-03T10:59:42.000Z</time>
      </trkpt>
      <trkpt lat="43.61424" lon="1.07113">
        <ele>140</ele>
        <time>2020-10-03T10:59:43.000Z</time>
      </trkpt>
      <trkpt lat="43.61422" lon="1.0711">
        <ele>140.36363424795</ele>
        <time>2020-10-03T10:59:44.000Z</time>
      </trkpt>
      <trkpt lat="43.6142" lon="1.07107">
        <ele>141</ele>
        <time>2020-10-03T10:59:45.000Z</time>
      </trkpt>
      <trkpt lat="43.61419" lon="1.07105">
        <ele>141</ele>
        <time>2020-10-03T10:59:46.000Z</time>
      </trkpt>
      <trkpt lat="43.61417" lon="1.07102">
        <ele>141</ele>
        <time>2020-10-03T10:59:47.000Z</time>
      </trkpt>
      <trkpt lat="43.61416" lon="1.07099">
        <ele>141</ele>
        <time>2020-10-03T10:59:48.000Z</time>
      </trkpt>
      <trkpt lat="43.61414" lon="1.07096">
        <ele>141</ele>
        <time>2020-10-03T10:59:49.000Z</time>
      </trkpt>
      <trkpt lat="43.61413" lon="1.07093">
        <ele>141</ele>
        <time>2020-10-03T10:59:50.000Z</time>
      </trkpt>
      <trkpt lat="43.61411" lon="1.0709">
        <ele>141.43925401345</ele>
        <time>2020-10-03T10:59:51.000Z</time>
      </trkpt>
      <trkpt lat="43.61409" lon="1.07087">
        <ele>142</ele>
        <time>2020-10-03T10:59:52.000Z</time>
      </trkpt>
      <trkpt lat="43.61407" lon="1.07084">
        <ele>142.45454862808</ele>
        <time>2020-10-03T10:59:53.000Z</time>
      </trkpt>
      <trkpt lat="43.61405" lon="1.07082">
        <ele>143</ele>
        <time>2020-10-03T10:59:54.000Z</time>
      </trkpt>
      <trkpt lat="43.61403" lon="1.0708">
        <ele>142.54545137192</ele>
        <time>2020-10-03T10:59:55.000Z</time>
      </trkpt>
      <trkpt lat="43.61401" lon="1.07078">
        <ele>142</ele>
        <time>2020-10-03T10:59:56.000Z</time>
      </trkpt>
      <trkpt lat="43.61399" lon="1.07076">
        <ele>142</ele>
        <time>2020-10-03T10:59:57.000Z</time>
      </trkpt>
      <trkpt lat="43.61397" lon="1.07074">
        <ele>142</ele>
        <time>2020-10-03T10:59:58.000Z</time>
      </trkpt>
      <trkpt lat="43.61394" lon="1.07072">
        <ele>142</ele>
        <time>2020-10-03T10:59:59.000Z</time>
      </trkpt>
      <trkpt lat="43.61392" lon="1.0707">
        <ele>142.14912083717</ele>
        <time>2020-10-03T11:00:00.000Z</time>
      </trkpt>
      <trkpt lat="43.6139" lon="1.07068">
        <ele>143</ele>
        <time>2020-10-03T11:00:01.000Z</time>
      </trkpt>
      <trkpt lat="43.61387" lon="1.07066">
        <ele>143</ele>
        <time>2020-10-03T11:00:02.000Z</time>
      </trkpt>
      <trkpt lat="43.61385" lon="1.07064">
        <ele>143</ele>
        <time>2020-10-03T11:00:03.000Z</time>
      </trkpt>
      <trkpt lat="43.61382" lon="1.07063">
        <ele>143</ele>
        <time>2020-10-03T11:00:04.000Z</time>
      </trkpt>
      <trkpt lat="43.6138" lon="1.07061">
        <ele>142.52809538192</ele>
        <time>2020-10-03T11:00:05.000Z</time>
      </trkpt>
      <trkpt lat="43.61378" lon="1.0706">
        <ele>141</ele>
        <time>2020-10-03T11:00:06.000Z</time>
      </trkpt>
      <trkpt lat="43.61375" lon="1.07059">
        <ele>141</ele>
        <time>2020-10-03T11:00:07.000Z</time>
      </trkpt>
      <trkpt lat="43.61373" lon="1.07057">
        <ele>141.39024694827</ele>
        <time>2020-10-03T11:00:08.000Z</time>
      </trkpt>
      <trkpt lat="43.6137" lon="1.07055">
        <ele>142</ele>
        <time>2020-10-03T11:00:09.000Z</time>
      </trkpt>
      <trkpt lat="43.61368" lon="1.07053">
        <ele>142</ele>
        <time>2020-10-03T11:00:10.000Z</time>
      </trkpt>
      <trkpt lat="43.61365" lon="1.07051">
        <ele>142</ele>
        <time>2020-10-03T11:00:11.000Z</time>
      </trkpt>
      <trkpt lat="43.61363" lon="1.0705">
        <ele>141.56363890246</ele>
        <time>2020-10-03T11:00:12.000Z</time>
      </trkpt>
      <trkpt lat="43.6136" lon="1.07048">
        <ele>141</ele>
        <time>2020-10-03T11:00:13.000Z</time>
      </trkpt>
      <trkpt lat="43.61358" lon="1.07046">
        <ele>141</ele>
        <time>2020-10-03T11:00:14.000Z</time>
      </trkpt>
      <trkpt lat="43.61356" lon="1.07044">
        <ele>141</ele>
        <time>2020-10-03T11:00:15.000Z</time>
      </trkpt>
      <trkpt lat="43.61354" lon="1.07042">
        <ele>141</ele>
        <time>2020-10-03T11:00:16.000Z</time>
      </trkpt>
      <trkpt lat="43.61352" lon="1.0704">
        <ele>141</ele>
        <time>2020-10-03T11:00:17.000Z</time>
      </trkpt>
      <trkpt lat="43.6135" lon="1.07037">
        <ele>140.79310852166</ele>
        <time>2020-10-03T11:00:18.000Z</time>
      </trkpt>
      <trkpt lat="43.61347" lon="1.07035">
        <ele>140</ele>
        <time>2020-10-03T11:00:19.000Z</time>
      </trkpt>
      <trkpt lat="43.61345" lon="1.07033">
        <ele>140</ele>
        <time>2020-10-03T11:00:20.000Z</time>
      </trkpt>
      <trkpt lat="43.61343" lon="1.0703">
        <ele>140.40476335599</ele>
        <time>2020-10-03T11:00:21.000Z</time>
      </trkpt>
      <trkpt lat="43.61341" lon="1.07028">
        <ele>141</ele>
        <time>2020-10-03T11:00:22.000Z</time>
      </trkpt>
      <trkpt lat="43.61339" lon="1.07026">
        <ele>141</ele>
        <time>2020-10-03T11:00:23.000Z</time>
      </trkpt>
      <trkpt lat="43.61336" lon="1.07025">
        <ele>141</ele>
        <time>2020-10-03T11:00:24.000Z</time>
      </trkpt>
      <trkpt lat="43.61334" lon="1.07023">
        <ele>141</ele>
        <time>2020-10-03T11:00:25.000Z</time>
      </trkpt>
      <trkpt lat="43.61331" lon="1.07023">
        <ele>140.59183406912</ele>
        <time>2020-10-03T11:00:26.000Z</time>
      </trkpt>
      <trkpt lat="43.61328" lon="1.07022">
        <ele>140</ele>
        <time>2020-10-03T11:00:27.000Z</time>
      </trkpt>
      <trkpt lat="43.61325" lon="1.0702">
        <ele>140</ele>
        <time>2020-10-03T11:00:28.000Z</time>
      </trkpt>
      <trkpt lat="43.61322" lon="1.07019">
        <ele>140</ele>
        <time>2020-10-03T11:00:29.000Z</time>
      </trkpt>
      <trkpt lat="43.61319" lon="1.07018">
        <ele>140</ele>
        <time>2020-10-03T11:00:30.000Z</time>
      </trkpt>
      <trkpt lat="43.61317" lon="1.07017">
        <ele>140</ele>
        <time>2020-10-03T11:00:31.000Z</time>
      </trkpt>
      <trkpt lat="43.61314" lon="1.07016">
        <ele>140</ele>
        <time>2020-10-03T11:00:32.000Z</time>
      </trkpt>
      <trkpt lat="43.61311" lon="1.07016">
        <ele>140</ele>
        <time>2020-10-03T11:00:33.000Z</time>
      </trkpt>
      <trkpt lat="43.61309" lon="1.07015">
        <ele>140</ele>
        <time>2020-10-03T11:00:34.000Z</time>
      </trkpt>
      <trkpt lat="43.61306" lon="1.07015">
        <ele>140</ele>
        <time>2020-10-03T11:00:35.000Z</time>
      </trkpt>
      <trkpt lat="43.61301" lon="1.07014">
        <ele>140</ele>
        <time>2020-10-03T11:00:37.000Z</time>
      </trkpt>
      <trkpt lat="43.61298" lon="1.07014">
        <ele>140</ele>
        <time>2020-10-03T11:00:38.000Z</time>
      </trkpt>
      <trkpt lat="43.61295" lon="1.07014">
        <ele>140</ele>
        <time>2020-10-03T11:00:39.000Z</time>
      </trkpt>
      <trkpt lat="43.61293" lon="1.07015">
        <ele>140</ele>
        <time>2020-10-03T11:00:40.000Z</time>
      </trkpt>
      <trkpt lat="43.6129" lon="1.07016">
        <ele>140</ele>
        <time>2020-10-03T11:00:41.000Z</time>
      </trkpt>
      <trkpt lat="43.61288" lon="1.07017">
        <ele>140</ele>
        <time>2020-10-03T11:00:42.000Z</time>
      </trkpt>
      <trkpt lat="43.61285" lon="1.07018">
        <ele>140</ele>
        <time>2020-10-03T11:00:43.000Z</time>
      </trkpt>
      <trkpt lat="43.61283" lon="1.07019">
        <ele>140</ele>
        <time>2020-10-03T11:00:44.000Z</time>
      </trkpt>
      <trkpt lat="43.6128" lon="1.0702">
        <ele>140</ele>
        <time>2020-10-03T11:00:45.000Z</time>
      </trkpt>
      <trkpt lat="43.61278" lon="1.07021">
        <ele>140</ele>
        <time>2020-10-03T11:00:46.000Z</time>
      </trkpt>
      <trkpt lat="43.61275" lon="1.07022">
        <ele>140</ele>
        <time>2020-10-03T11:00:47.000Z</time>
      </trkpt>
      <trkpt lat="43.61272" lon="1.07023">
        <ele>139.74137664688</ele>
        <time>2020-10-03T11:00:48.000Z</time>
      </trkpt>
      <trkpt lat="43.6127" lon="1.07025">
        <ele>139</ele>
        <time>2020-10-03T11:00:49.000Z</time>
      </trkpt>
      <trkpt lat="43.61268" lon="1.07027">
        <ele>139</ele>
        <time>2020-10-03T11:00:50.000Z</time>
      </trkpt>
      <trkpt lat="43.61266" lon="1.07029">
        <ele>139</ele>
        <time>2020-10-03T11:00:51.000Z</time>
      </trkpt>
      <trkpt lat="43.61264" lon="1.07032">
        <ele>138.63063457835</ele>
        <time>2020-10-03T11:00:52.000Z</time>
      </trkpt>
      <trkpt lat="43.61262" lon="1.07034">
        <ele>138</ele>
        <time>2020-10-03T11:00:53.000Z</time>
      </trkpt>
      <trkpt lat="43.61261" lon="1.07038">
        <ele>138</ele>
        <time>2020-10-03T11:00:54.000Z</time>
      </trkpt>
      <trkpt lat="43.61259" lon="1.07041">
        <ele>138</ele>
        <time>2020-10-03T11:00:55.000Z</time>
      </trkpt>
      <trkpt lat="43.61258" lon="1.07043">
        <ele>138</ele>
        <time>2020-10-03T11:00:56.000Z</time>
      </trkpt>
      <trkpt lat="43.61258" lon="1.07046">
        <ele>138</ele>
        <time>2020-10-03T11:00:57.000Z</time>
      </trkpt>
      <trkpt lat="43.61257" lon="1.07049">
        <ele>138</ele>
        <time>2020-10-03T11:00:58.000Z</time>
      </trkpt>
      <trkpt lat="43.61257" lon="1.07052">
        <ele>138.46601796965</ele>
        <time>2020-10-03T11:00:59.000Z</time>
      </trkpt>
      <trkpt lat="43.61256" lon="1.07055">
        <ele>139</ele>
        <time>2020-10-03T11:01:00.000Z</time>
      </trkpt>
      <trkpt lat="43.61255" lon="1.07058">
        <ele>139.25217323553</ele>
        <time>2020-10-03T11:01:01.000Z</time>
      </trkpt>
      <trkpt lat="43.61254" lon="1.07061">
        <ele>140</ele>
        <time>2020-10-03T11:01:02.000Z</time>
      </trkpt>
      <trkpt lat="43.61253" lon="1.07064">
        <ele>140</ele>
        <time>2020-10-03T11:01:03.000Z</time>
      </trkpt>
      <trkpt lat="43.61251" lon="1.07068">
        <ele>140</ele>
        <time>2020-10-03T11:01:04.000Z</time>
      </trkpt>
      <trkpt lat="43.61251" lon="1.07071">
        <ele>140</ele>
        <time>2020-10-03T11:01:05.000Z</time>
      </trkpt>
      <trkpt lat="43.6125" lon="1.07075">
        <ele>140</ele>
        <time>2020-10-03T11:01:06.000Z</time>
      </trkpt>
      <trkpt lat="43.6125" lon="1.0708">
        <ele>140</ele>
        <time>2020-10-03T11:01:07.000Z</time>
      </trkpt>
      <trkpt lat="43.6125" lon="1.07084">
        <ele>140</ele>
        <time>2020-10-03T11:01:08.000Z</time>
      </trkpt>
      <trkpt lat="43.6125" lon="1.07089">
        <ele>140</ele>
        <time>2020-10-03T11:01:09.000Z</time>
      </trkpt>
      <trkpt lat="43.6125" lon="1.07093">
        <ele>140.41304468807</ele>
        <time>2020-10-03T11:01:10.000Z</time>
      </trkpt>
      <trkpt lat="43.6125" lon="1.07097">
        <ele>141</ele>
        <time>2020-10-03T11:01:11.000Z</time>
      </trkpt>
      <trkpt lat="43.6125" lon="1.07101">
        <ele>141</ele>
        <time>2020-10-03T11:01:12.000Z</time>
      </trkpt>
      <trkpt lat="43.6125" lon="1.07105">
        <ele>141</ele>
        <time>2020-10-03T11:01:13.000Z</time>
      </trkpt>
      <trkpt lat="43.6125" lon="1.07109">
        <ele>141</ele>
        <time>2020-10-03T11:01:14.000Z</time>
      </trkpt>
      <trkpt lat="43.6125" lon="1.07113">
        <ele>141</ele>
        <time>2020-10-03T11:01:15.000Z</time>
      </trkpt>
      <trkpt lat="43.6125" lon="1.07117">
        <ele>141</ele>
        <time>2020-10-03T11:01:16.000Z</time>
      </trkpt>
      <trkpt lat="43.6125" lon="1.07121">
        <ele>140.56074598655</ele>
        <time>2020-10-03T11:01:17.000Z</time>
      </trkpt>
      <trkpt lat="43.6125" lon="1.07125">
        <ele>140</ele>
        <time>2020-10-03T11:01:18.000Z</time>
      </trkpt>
      <trkpt lat="43.6125" lon="1.07129">
        <ele>140</ele>
        <time>2020-10-03T11:01:19.000Z</time>
      </trkpt>
      <trkpt lat="43.6125" lon="1.07133">
        <ele>140</ele>
        <time>2020-10-03T11:01:20.000Z</time>
      </trkpt>
      <trkpt lat="43.6125" lon="1.07136">
        <ele>140</ele>
        <time>2020-10-03T11:01:21.000Z</time>
      </trkpt>
      <trkpt lat="43.61251" lon="1.07141">
        <ele>140</ele>
        <time>2020-10-03T11:01:22.000Z</time>
      </trkpt>
      <trkpt lat="43.6125" lon="1.07145">
        <ele>140</ele>
        <time>2020-10-03T11:01:23.000Z</time>
      </trkpt>
      <trkpt lat="43.6125" lon="1.07149">
        <ele>140</ele>
        <time>2020-10-03T11:01:24.000Z</time>
      </trkpt>
      <trkpt lat="43.61249" lon="1.07153">
        <ele>140</ele>
        <time>2020-10-03T11:01:25.000Z</time>
      </trkpt>
      <trkpt lat="43.61249" lon="1.07157">
        <ele>140</ele>
        <time>2020-10-03T11:01:26.000Z</time>
      </trkpt>
      <trkpt lat="43.61248" lon="1.07161">
        <ele>140</ele>
        <time>2020-10-03T11:01:27.000Z</time>
      </trkpt>
      <trkpt lat="43.61247" lon="1.07165">
        <ele>140</ele>
        <time>2020-10-03T11:01:28.000Z</time>
      </trkpt>
      <trkpt lat="43.61246" lon="1.07169">
        <ele>140</ele>
        <time>2020-10-03T11:01:29.000Z</time>
      </trkpt>
      <trkpt lat="43.61245" lon="1.07174">
        <ele>140</ele>
        <time>2020-10-03T11:01:30.000Z</time>
      </trkpt>
      <trkpt lat="43.61245" lon="1.07178">
        <ele>140</ele>
        <time>2020-10-03T11:01:31.000Z</time>
      </trkpt>
      <trkpt lat="43.61244" lon="1.07182">
        <ele>140</ele>
        <time>2020-10-03T11:01:32.000Z</time>
      </trkpt>
      <trkpt lat="43.61243" lon="1.07185">
        <ele>140.38271546411</ele>
        <time>2020-10-03T11:01:33.000Z</time>
      </trkpt>
      <trkpt lat="43.61242" lon="1.07189">
        <ele>141</ele>
        <time>2020-10-03T11:01:34.000Z</time>
      </trkpt>
      <trkpt lat="43.61241" lon="1.07193">
        <ele>141</ele>
        <time>2020-10-03T11:01:35.000Z</time>
      </trkpt>
      <trkpt lat="43.6124" lon="1.07196">
        <ele>141</ele>
        <time>2020-10-03T11:01:36.000Z</time>
      </trkpt>
      <trkpt lat="43.61238" lon="1.072">
        <ele>141</ele>
        <time>2020-10-03T11:01:37.000Z</time>
      </trkpt>
      <trkpt lat="43.61237" lon="1.07204">
        <ele>141</ele>
        <time>2020-10-03T11:01:38.000Z</time>
      </trkpt>
      <trkpt lat="43.61235" lon="1.07207">
        <ele>141</ele>
        <time>2020-10-03T11:01:39.000Z</time>
      </trkpt>
      <trkpt lat="43.61234" lon="1.0721">
        <ele>141</ele>
        <time>2020-10-03T11:01:40.000Z</time>
      </trkpt>
      <trkpt lat="43.61232" lon="1.07213">
        <ele>141</ele>
        <time>2020-10-03T11:01:41.000Z</time>
      </trkpt>
      <trkpt lat="43.6123" lon="1.07216">
        <ele>141</ele>
        <time>2020-10-03T11:01:42.000Z</time>
      </trkpt>
      <trkpt lat="43.61228" lon="1.07218">
        <ele>141</ele>
        <time>2020-10-03T11:01:43.000Z</time>
      </trkpt>
      <trkpt lat="43.61226" lon="1.0722">
        <ele>141</ele>
        <time>2020-10-03T11:01:44.000Z</time>
      </trkpt>
      <trkpt lat="43.61223" lon="1.07222">
        <ele>141</ele>
        <time>2020-10-03T11:01:45.000Z</time>
      </trkpt>
      <trkpt lat="43.61221" lon="1.07223">
        <ele>141</ele>
        <time>2020-10-03T11:01:46.000Z</time>
      </trkpt>
      <trkpt lat="43.61219" lon="1.07224">
        <ele>140.69999901539</ele>
        <time>2020-10-03T11:01:47.000Z</time>
      </trkpt>
      <trkpt lat="43.61216" lon="1.07225">
        <ele>140</ele>
        <time>2020-10-03T11:01:48.000Z</time>
      </trkpt>
      <trkpt lat="43.61213" lon="1.07225">
        <ele>140</ele>
        <time>2020-10-03T11:01:49.000Z</time>
      </trkpt>
      <trkpt lat="43.6121" lon="1.07226">
        <ele>140</ele>
        <time>2020-10-03T11:01:50.000Z</time>
      </trkpt>
      <trkpt lat="43.61207" lon="1.07227">
        <ele>140</ele>
        <time>2020-10-03T11:01:51.000Z</time>
      </trkpt>
      <trkpt lat="43.61204" lon="1.07227">
        <ele>140</ele>
        <time>2020-10-03T11:01:52.000Z</time>
      </trkpt>
      <trkpt lat="43.61201" lon="1.07228">
        <ele>140</ele>
        <time>2020-10-03T11:01:53.000Z</time>
      </trkpt>
      <trkpt lat="43.61198" lon="1.07229">
        <ele>140</ele>
        <time>2020-10-03T11:01:54.000Z</time>
      </trkpt>
      <trkpt lat="43.61195" lon="1.0723">
        <ele>140.68964806968</ele>
        <time>2020-10-03T11:01:55.000Z</time>
      </trkpt>
      <trkpt lat="43.61192" lon="1.0723">
        <ele>142</ele>
        <time>2020-10-03T11:01:56.000Z</time>
      </trkpt>
      <trkpt lat="43.6119" lon="1.07231">
        <ele>142</ele>
        <time>2020-10-03T11:01:57.000Z</time>
      </trkpt>
      <trkpt lat="43.61187" lon="1.07231">
        <ele>142</ele>
        <time>2020-10-03T11:01:58.000Z</time>
      </trkpt>
      <trkpt lat="43.61184" lon="1.07231">
        <ele>141.79688</ele>
        <time>2020-10-03T11:01:59.000Z</time>
      </trkpt>
      <trkpt lat="43.61181" lon="1.07231">
        <ele>141</ele>
        <time>2020-10-03T11:02:00.000Z</time>
      </trkpt>
      <trkpt lat="43.61178" lon="1.0723">
        <ele>141</ele>
        <time>2020-10-03T11:02:01.000Z</time>
      </trkpt>
      <trkpt lat="43.61176" lon="1.0723">
        <ele>141</ele>
        <time>2020-10-03T11:02:02.000Z</time>
      </trkpt>
      <trkpt lat="43.61173" lon="1.0723">
        <ele>141</ele>
        <time>2020-10-03T11:02:03.000Z</time>
      </trkpt>
      <trkpt lat="43.6117" lon="1.07229">
        <ele>141</ele>
        <time>2020-10-03T11:02:04.000Z</time>
      </trkpt>
      <trkpt lat="43.61167" lon="1.07229">
        <ele>141</ele>
        <time>2020-10-03T11:02:05.000Z</time>
      </trkpt>
      <trkpt lat="43.61164" lon="1.07228">
        <ele>141</ele>
        <time>2020-10-03T11:02:06.000Z</time>
      </trkpt>
      <trkpt lat="43.61161" lon="1.07227">
        <ele>141</ele>
        <time>2020-10-03T11:02:07.000Z</time>
      </trkpt>
      <trkpt lat="43.61159" lon="1.07227">
        <ele>141</ele>
        <time>2020-10-03T11:02:08.000Z</time>
      </trkpt>
      <trkpt lat="43.61156" lon="1.07226">
        <ele>141</ele>
        <time>2020-10-03T11:02:09.000Z</time>
      </trkpt>
      <trkpt lat="43.61153" lon="1.07225">
        <ele>141</ele>
        <time>2020-10-03T11:02:10.000Z</time>
      </trkpt>
      <trkpt lat="43.61151" lon="1.07223">
        <ele>140.58695773159</ele>
        <time>2020-10-03T11:02:11.000Z</time>
      </trkpt>
      <trkpt lat="43.61148" lon="1.07222">
        <ele>140</ele>
        <time>2020-10-03T11:02:12.000Z</time>
      </trkpt>
      <trkpt lat="43.61146" lon="1.0722">
        <ele>140.40659417945</ele>
        <time>2020-10-03T11:02:13.000Z</time>
      </trkpt>
      <trkpt lat="43.61143" lon="1.07219">
        <ele>141</ele>
        <time>2020-10-03T11:02:14.000Z</time>
      </trkpt>
      <trkpt lat="43.6114" lon="1.07218">
        <ele>141</ele>
        <time>2020-10-03T11:02:15.000Z</time>
      </trkpt>
      <trkpt lat="43.61138" lon="1.07217">
        <ele>141</ele>
        <time>2020-10-03T11:02:16.000Z</time>
      </trkpt>
      <trkpt lat="43.61135" lon="1.07215">
        <ele>141</ele>
        <time>2020-10-03T11:02:17.000Z</time>
      </trkpt>
      <trkpt lat="43.61133" lon="1.07213">
        <ele>141</ele>
        <time>2020-10-03T11:02:18.000Z</time>
      </trkpt>
      <trkpt lat="43.6113" lon="1.07211">
        <ele>141</ele>
        <time>2020-10-03T11:02:19.000Z</time>
      </trkpt>
      <trkpt lat="43.61128" lon="1.07209">
        <ele>141</ele>
        <time>2020-10-03T11:02:20.000Z</time>
      </trkpt>
      <trkpt lat="43.61127" lon="1.07207">
        <ele>141</ele>
        <time>2020-10-03T11:02:21.000Z</time>
      </trkpt>
      <trkpt lat="43.61125" lon="1.07205">
        <ele>141</ele>
        <time>2020-10-03T11:02:22.000Z</time>
      </trkpt>
      <trkpt lat="43.61123" lon="1.07202">
        <ele>141</ele>
        <time>2020-10-03T11:02:23.000Z</time>
      </trkpt>
      <trkpt lat="43.61122" lon="1.07199">
        <ele>141</ele>
        <time>2020-10-03T11:02:24.000Z</time>
      </trkpt>
      <trkpt lat="43.6112" lon="1.07196">
        <ele>141</ele>
        <time>2020-10-03T11:02:25.000Z</time>
      </trkpt>
      <trkpt lat="43.61119" lon="1.07193">
        <ele>141</ele>
        <time>2020-10-03T11:02:26.000Z</time>
      </trkpt>
      <trkpt lat="43.61117" lon="1.07191">
        <ele>141</ele>
        <time>2020-10-03T11:02:27.000Z</time>
      </trkpt>
      <trkpt lat="43.61116" lon="1.07188">
        <ele>141</ele>
        <time>2020-10-03T11:02:28.000Z</time>
      </trkpt>
      <trkpt lat="43.61115" lon="1.07185">
        <ele>141</ele>
        <time>2020-10-03T11:02:29.000Z</time>
      </trkpt>
      <trkpt lat="43.61114" lon="1.07183">
        <ele>141</ele>
        <time>2020-10-03T11:02:30.000Z</time>
      </trkpt>
      <trkpt lat="43.61112" lon="1.0718">
        <ele>140.65909818182</ele>
        <time>2020-10-03T11:02:31.000Z</time>
      </trkpt>
      <trkpt lat="43.61111" lon="1.07177">
        <ele>140</ele>
        <time>2020-10-03T11:02:32.000Z</time>
      </trkpt>
      <trkpt lat="43.6111" lon="1.07174">
        <ele>140.33707267262</ele>
        <time>2020-10-03T11:02:33.000Z</time>
      </trkpt>
      <trkpt lat="43.61108" lon="1.0717">
        <ele>141</ele>
        <time>2020-10-03T11:02:34.000Z</time>
      </trkpt>
      <trkpt lat="43.61107" lon="1.07166">
        <ele>141</ele>
        <time>2020-10-03T11:02:35.000Z</time>
      </trkpt>
      <trkpt lat="43.61106" lon="1.07163">
        <ele>141</ele>
        <time>2020-10-03T11:02:36.000Z</time>
      </trkpt>
      <trkpt lat="43.61106" lon="1.07159">
        <ele>141</ele>
        <time>2020-10-03T11:02:37.000Z</time>
      </trkpt>
      <trkpt lat="43.61106" lon="1.07156">
        <ele>141</ele>
        <time>2020-10-03T11:02:38.000Z</time>
      </trkpt>
      <trkpt lat="43.61106" lon="1.07153">
        <ele>141</ele>
        <time>2020-10-03T11:02:39.000Z</time>
      </trkpt>
      <trkpt lat="43.61105" lon="1.07149">
        <ele>141</ele>
        <time>2020-10-03T11:02:40.000Z</time>
      </trkpt>
      <trkpt lat="43.61104" lon="1.07144">
        <ele>141</ele>
        <time>2020-10-03T11:02:41.000Z</time>
      </trkpt>
      <trkpt lat="43.61104" lon="1.07139">
        <ele>141</ele>
        <time>2020-10-03T11:02:42.000Z</time>
      </trkpt>
      <trkpt lat="43.61103" lon="1.07135">
        <ele>141</ele>
        <time>2020-10-03T11:02:43.000Z</time>
      </trkpt>
      <trkpt lat="43.61102" lon="1.07131">
        <ele>141</ele>
        <time>2020-10-03T11:02:44.000Z</time>
      </trkpt>
      <trkpt lat="43.61102" lon="1.07127">
        <ele>141</ele>
        <time>2020-10-03T11:02:45.000Z</time>
      </trkpt>
      <trkpt lat="43.61101" lon="1.07124">
        <ele>141</ele>
        <time>2020-10-03T11:02:46.000Z</time>
      </trkpt>
      <trkpt lat="43.611" lon="1.0712">
        <ele>140.65517596516</ele>
        <time>2020-10-03T11:02:47.000Z</time>
      </trkpt>
      <trkpt lat="43.61099" lon="1.07117">
        <ele>140</ele>
        <time>2020-10-03T11:02:48.000Z</time>
      </trkpt>
      <trkpt lat="43.61098" lon="1.07113">
        <ele>140.36936968104</ele>
        <time>2020-10-03T11:02:49.000Z</time>
      </trkpt>
      <trkpt lat="43.61097" lon="1.07109">
        <ele>141</ele>
        <time>2020-10-03T11:02:50.000Z</time>
      </trkpt>
      <trkpt lat="43.61096" lon="1.07106">
        <ele>141</ele>
        <time>2020-10-03T11:02:51.000Z</time>
      </trkpt>
      <trkpt lat="43.61095" lon="1.07102">
        <ele>141</ele>
        <time>2020-10-03T11:02:52.000Z</time>
      </trkpt>
      <trkpt lat="43.61093" lon="1.07098">
        <ele>141.41379310345</ele>
        <time>2020-10-03T11:02:53.000Z</time>
      </trkpt>
      <trkpt lat="43.61092" lon="1.07095">
        <ele>142</ele>
        <time>2020-10-03T11:02:54.000Z</time>
      </trkpt>
      <trkpt lat="43.61091" lon="1.07092">
        <ele>142</ele>
        <time>2020-10-03T11:02:55.000Z</time>
      </trkpt>
      <trkpt lat="43.61089" lon="1.07089">
        <ele>142</ele>
        <time>2020-10-03T11:02:56.000Z</time>
      </trkpt>
      <trkpt lat="43.61088" lon="1.07085">
        <ele>142</ele>
        <time>2020-10-03T11:02:57.000Z</time>
      </trkpt>
      <trkpt lat="43.61086" lon="1.07082">
        <ele>141.65908363636</ele>
        <time>2020-10-03T11:02:58.000Z</time>
      </trkpt>
      <trkpt lat="43.61084" lon="1.07079">
        <ele>141</ele>
        <time>2020-10-03T11:02:59.000Z</time>
      </trkpt>
      <trkpt lat="43.61083" lon="1.07077">
        <ele>141</ele>
        <time>2020-10-03T11:03:00.000Z</time>
      </trkpt>
      <trkpt lat="43.61081" lon="1.07074">
        <ele>141</ele>
        <time>2020-10-03T11:03:01.000Z</time>
      </trkpt>
      <trkpt lat="43.61079" lon="1.07072">
        <ele>141</ele>
        <time>2020-10-03T11:03:02.000Z</time>
      </trkpt>
      <trkpt lat="43.61077" lon="1.07069">
        <ele>141</ele>
        <time>2020-10-03T11:03:03.000Z</time>
      </trkpt>
      <trkpt lat="43.61076" lon="1.07066">
        <ele>141</ele>
        <time>2020-10-03T11:03:04.000Z</time>
      </trkpt>
      <trkpt lat="43.61075" lon="1.07063">
        <ele>140.55555871603</ele>
        <time>2020-10-03T11:03:05.000Z</time>
      </trkpt>
      <trkpt lat="43.61073" lon="1.07059">
        <ele>140</ele>
        <time>2020-10-03T11:03:06.000Z</time>
      </trkpt>
      <trkpt lat="43.61072" lon="1.07056">
        <ele>140</ele>
        <time>2020-10-03T11:03:07.000Z</time>
      </trkpt>
      <trkpt lat="43.6107" lon="1.07053">
        <ele>140</ele>
        <time>2020-10-03T11:03:08.000Z</time>
      </trkpt>
      <trkpt lat="43.61068" lon="1.0705">
        <ele>140</ele>
        <time>2020-10-03T11:03:09.000Z</time>
      </trkpt>
      <trkpt lat="43.61066" lon="1.07047">
        <ele>140.39534433745</ele>
        <time>2020-10-03T11:03:10.000Z</time>
      </trkpt>
      <trkpt lat="43.61065" lon="1.07045">
        <ele>141</ele>
        <time>2020-10-03T11:03:11.000Z</time>
      </trkpt>
      <trkpt lat="43.61062" lon="1.07042">
        <ele>141</ele>
        <time>2020-10-03T11:03:12.000Z</time>
      </trkpt>
      <trkpt lat="43.6106" lon="1.07039">
        <ele>141</ele>
        <time>2020-10-03T11:03:13.000Z</time>
      </trkpt>
      <trkpt lat="43.61058" lon="1.07037">
        <ele>141</ele>
        <time>2020-10-03T11:03:14.000Z</time>
      </trkpt>
      <trkpt lat="43.61055" lon="1.07034">
        <ele>141</ele>
        <time>2020-10-03T11:03:15.000Z</time>
      </trkpt>
      <trkpt lat="43.61053" lon="1.07032">
        <ele>141</ele>
        <time>2020-10-03T11:03:16.000Z</time>
      </trkpt>
      <trkpt lat="43.6105" lon="1.0703">
        <ele>141</ele>
        <time>2020-10-03T11:03:17.000Z</time>
      </trkpt>
      <trkpt lat="43.61048" lon="1.07028">
        <ele>141</ele>
        <time>2020-10-03T11:03:18.000Z</time>
      </trkpt>
      <trkpt lat="43.61044" lon="1.07026">
        <ele>141</ele>
        <time>2020-10-03T11:03:19.000Z</time>
      </trkpt>
      <trkpt lat="43.61042" lon="1.07025">
        <ele>141</ele>
        <time>2020-10-03T11:03:20.000Z</time>
      </trkpt>
      <trkpt lat="43.61039" lon="1.07024">
        <ele>140.56756881422</ele>
        <time>2020-10-03T11:03:21.000Z</time>
      </trkpt>
      <trkpt lat="43.61036" lon="1.07023">
        <ele>140</ele>
        <time>2020-10-03T11:03:22.000Z</time>
      </trkpt>
      <trkpt lat="43.61033" lon="1.07023">
        <ele>140.3411739903</ele>
        <time>2020-10-03T11:03:23.000Z</time>
      </trkpt>
      <trkpt lat="43.61031" lon="1.07022">
        <ele>141</ele>
        <time>2020-10-03T11:03:24.000Z</time>
      </trkpt>
      <trkpt lat="43.61028" lon="1.07023">
        <ele>141.34482403484</ele>
        <time>2020-10-03T11:03:25.000Z</time>
      </trkpt>
      <trkpt lat="43.61026" lon="1.07023">
        <ele>142</ele>
        <time>2020-10-03T11:03:26.000Z</time>
      </trkpt>
      <trkpt lat="43.61023" lon="1.07024">
        <ele>142</ele>
        <time>2020-10-03T11:03:27.000Z</time>
      </trkpt>
      <trkpt lat="43.61021" lon="1.07025">
        <ele>142</ele>
        <time>2020-10-03T11:03:28.000Z</time>
      </trkpt>
      <trkpt lat="43.61019" lon="1.07027">
        <ele>141.66292732738</ele>
        <time>2020-10-03T11:03:29.000Z</time>
      </trkpt>
      <trkpt lat="43.61017" lon="1.07029">
        <ele>141</ele>
        <time>2020-10-03T11:03:30.000Z</time>
      </trkpt>
      <trkpt lat="43.61015" lon="1.07031">
        <ele>141</ele>
        <time>2020-10-03T11:03:31.000Z</time>
      </trkpt>
      <trkpt lat="43.61012" lon="1.07033">
        <ele>141</ele>
        <time>2020-10-03T11:03:32.000Z</time>
      </trkpt>
      <trkpt lat="43.6101" lon="1.07036">
        <ele>141</ele>
        <time>2020-10-03T11:03:33.000Z</time>
      </trkpt>
      <trkpt lat="43.61008" lon="1.07038">
        <ele>141</ele>
        <time>2020-10-03T11:03:34.000Z</time>
      </trkpt>
      <trkpt lat="43.61007" lon="1.07041">
        <ele>141</ele>
        <time>2020-10-03T11:03:35.000Z</time>
      </trkpt>
      <trkpt lat="43.61005" lon="1.07044">
        <ele>141</ele>
        <time>2020-10-03T11:03:36.000Z</time>
      </trkpt>
      <trkpt lat="43.61003" lon="1.07047">
        <ele>141</ele>
        <time>2020-10-03T11:03:37.000Z</time>
      </trkpt>
      <trkpt lat="43.61001" lon="1.0705">
        <ele>141</ele>
        <time>2020-10-03T11:03:38.000Z</time>
      </trkpt>
      <trkpt lat="43.60999" lon="1.07052">
        <ele>140.59550416361</ele>
        <time>2020-10-03T11:03:39.000Z</time>
      </trkpt>
      <trkpt lat="43.60998" lon="1.07055">
        <ele>140</ele>
        <time>2020-10-03T11:03:40.000Z</time>
      </trkpt>
      <trkpt lat="43.60997" lon="1.07058">
        <ele>140</ele>
        <time>2020-10-03T11:03:41.000Z</time>
      </trkpt>
      <trkpt lat="43.60995" lon="1.07061">
        <ele>140</ele>
        <time>2020-10-03T11:03:42.000Z</time>
      </trkpt>
      <trkpt lat="43.60994" lon="1.07064">
        <ele>140</ele>
        <time>2020-10-03T11:03:43.000Z</time>
      </trkpt>
      <trkpt lat="43.60992" lon="1.07067">
        <ele>140</ele>
        <time>2020-10-03T11:03:44.000Z</time>
      </trkpt>
      <trkpt lat="43.6099" lon="1.07069">
        <ele>140</ele>
        <time>2020-10-03T11:03:45.000Z</time>
      </trkpt>
      <trkpt lat="43.60988" lon="1.07071">
        <ele>140</ele>
        <time>2020-10-03T11:03:46.000Z</time>
      </trkpt>
      <trkpt lat="43.60985" lon="1.07072">
        <ele>140</ele>
        <time>2020-10-03T11:03:47.000Z</time>
      </trkpt>
      <trkpt lat="43.60982" lon="1.07073">
        <ele>140</ele>
        <time>2020-10-03T11:03:48.000Z</time>
      </trkpt>
      <trkpt lat="43.6098" lon="1.07074">
        <ele>140</ele>
        <time>2020-10-03T11:03:49.000Z</time>
      </trkpt>
      <trkpt lat="43.60978" lon="1.07075">
        <ele>140</ele>
        <time>2020-10-03T11:03:50.000Z</time>
      </trkpt>
      <trkpt lat="43.60975" lon="1.07075">
        <ele>140</ele>
        <time>2020-10-03T11:03:51.000Z</time>
      </trkpt>
      <trkpt lat="43.60971" lon="1.07075">
        <ele>140</ele>
        <time>2020-10-03T11:03:52.000Z</time>
      </trkpt>
      <trkpt lat="43.60968" lon="1.07074">
        <ele>140</ele>
        <time>2020-10-03T11:03:53.000Z</time>
      </trkpt>
      <trkpt lat="43.60965" lon="1.07073">
        <ele>140</ele>
        <time>2020-10-03T11:03:54.000Z</time>
      </trkpt>
      <trkpt lat="43.60963" lon="1.07071">
        <ele>140</ele>
        <time>2020-10-03T11:03:55.000Z</time>
      </trkpt>
      <trkpt lat="43.60961" lon="1.0707">
        <ele>140</ele>
        <time>2020-10-03T11:03:56.000Z</time>
      </trkpt>
      <trkpt lat="43.60958" lon="1.07068">
        <ele>140</ele>
        <time>2020-10-03T11:03:57.000Z</time>
      </trkpt>
      <trkpt lat="43.60955" lon="1.07066">
        <ele>140</ele>
        <time>2020-10-03T11:03:58.000Z</time>
      </trkpt>
      <trkpt lat="43.60953" lon="1.07063">
        <ele>140</ele>
        <time>2020-10-03T11:03:59.000Z</time>
      </trkpt>
      <trkpt lat="43.60951" lon="1.0706">
        <ele>140</ele>
        <time>2020-10-03T11:04:00.000Z</time>
      </trkpt>
      <trkpt lat="43.6095" lon="1.07058">
        <ele>140</ele>
        <time>2020-10-03T11:04:01.000Z</time>
      </trkpt>
      <trkpt lat="43.60948" lon="1.07055">
        <ele>140</ele>
        <time>2020-10-03T11:04:02.000Z</time>
      </trkpt>
      <trkpt lat="43.60947" lon="1.07053">
        <ele>140</ele>
        <time>2020-10-03T11:04:03.000Z</time>
      </trkpt>
      <trkpt lat="43.60945" lon="1.0705">
        <ele>140</ele>
        <time>2020-10-03T11:04:04.000Z</time>
      </trkpt>
      <trkpt lat="43.60943" lon="1.07048">
        <ele>140</ele>
        <time>2020-10-03T11:04:05.000Z</time>
      </trkpt>
      <trkpt lat="43.60941" lon="1.07046">
        <ele>140</ele>
        <time>2020-10-03T11:04:06.000Z</time>
      </trkpt>
      <trkpt lat="43.60938" lon="1.07043">
        <ele>140</ele>
        <time>2020-10-03T11:04:07.000Z</time>
      </trkpt>
      <trkpt lat="43.60936" lon="1.07041">
        <ele>140</ele>
        <time>2020-10-03T11:04:08.000Z</time>
      </trkpt>
      <trkpt lat="43.60934" lon="1.07039">
        <ele>140</ele>
        <time>2020-10-03T11:04:09.000Z</time>
      </trkpt>
      <trkpt lat="43.60931" lon="1.07037">
        <ele>140</ele>
        <time>2020-10-03T11:04:10.000Z</time>
      </trkpt>
      <trkpt lat="43.60929" lon="1.07034">
        <ele>140</ele>
        <time>2020-10-03T11:04:11.000Z</time>
      </trkpt>
      <trkpt lat="43.60927" lon="1.07032">
        <ele>140</ele>
        <time>2020-10-03T11:04:12.000Z</time>
      </trkpt>
      <trkpt lat="43.60924" lon="1.0703">
        <ele>140</ele>
        <time>2020-10-03T11:04:13.000Z</time>
      </trkpt>
      <trkpt lat="43.60922" lon="1.07027">
        <ele>140</ele>
        <time>2020-10-03T11:04:14.000Z</time>
      </trkpt>
      <trkpt lat="43.6092" lon="1.07025">
        <ele>140</ele>
        <time>2020-10-03T11:04:15.000Z</time>
      </trkpt>
      <trkpt lat="43.60918" lon="1.07023">
        <ele>140</ele>
        <time>2020-10-03T11:04:16.000Z</time>
      </trkpt>
      <trkpt lat="43.60916" lon="1.07021">
        <ele>140</ele>
        <time>2020-10-03T11:04:17.000Z</time>
      </trkpt>
      <trkpt lat="43.60913" lon="1.07019">
        <ele>140</ele>
        <time>2020-10-03T11:04:18.000Z</time>
      </trkpt>
      <trkpt lat="43.60911" lon="1.07017">
        <ele>140</ele>
        <time>2020-10-03T11:04:19.000Z</time>
      </trkpt>
      <trkpt lat="43.60908" lon="1.07015">
        <ele>140</ele>
        <time>2020-10-03T11:04:20.000Z</time>
      </trkpt>
      <trkpt lat="43.60906" lon="1.07013">
        <ele>140</ele>
        <time>2020-10-03T11:04:21.000Z</time>
      </trkpt>
      <trkpt lat="43.60904" lon="1.07011">
        <ele>140</ele>
        <time>2020-10-03T11:04:22.000Z</time>
      </trkpt>
      <trkpt lat="43.60901" lon="1.0701">
        <ele>140</ele>
        <time>2020-10-03T11:04:23.000Z</time>
      </trkpt>
      <trkpt lat="43.60899" lon="1.07008">
        <ele>140</ele>
        <time>2020-10-03T11:04:24.000Z</time>
      </trkpt>
      <trkpt lat="43.60896" lon="1.07006">
        <ele>140</ele>
        <time>2020-10-03T11:04:25.000Z</time>
      </trkpt>
      <trkpt lat="43.60893" lon="1.07004">
        <ele>140</ele>
        <time>2020-10-03T11:04:26.000Z</time>
      </trkpt>
      <trkpt lat="43.60891" lon="1.07003">
        <ele>140</ele>
        <time>2020-10-03T11:04:27.000Z</time>
      </trkpt>
      <trkpt lat="43.60888" lon="1.07001">
        <ele>140</ele>
        <time>2020-10-03T11:04:28.000Z</time>
      </trkpt>
      <trkpt lat="43.60885" lon="1.07">
        <ele>140</ele>
        <time>2020-10-03T11:04:29.000Z</time>
      </trkpt>
      <trkpt lat="43.60883" lon="1.06999">
        <ele>139.73983807522</ele>
        <time>2020-10-03T11:04:30.000Z</time>
      </trkpt>
      <trkpt lat="43.6088" lon="1.06998">
        <ele>139</ele>
        <time>2020-10-03T11:04:31.000Z</time>
      </trkpt>
      <trkpt lat="43.60878" lon="1.06997">
        <ele>139</ele>
        <time>2020-10-03T11:04:32.000Z</time>
      </trkpt>
      <trkpt lat="43.60876" lon="1.06995">
        <ele>139</ele>
        <time>2020-10-03T11:04:33.000Z</time>
      </trkpt>
      <trkpt lat="43.60873" lon="1.06994">
        <ele>139</ele>
        <time>2020-10-03T11:04:34.000Z</time>
      </trkpt>
      <trkpt lat="43.6087" lon="1.06992">
        <ele>139</ele>
        <time>2020-10-03T11:04:35.000Z</time>
      </trkpt>
      <trkpt lat="43.60868" lon="1.0699">
        <ele>139.6511676366</ele>
        <time>2020-10-03T11:04:36.000Z</time>
      </trkpt>
      <trkpt lat="43.60865" lon="1.06988">
        <ele>141</ele>
        <time>2020-10-03T11:04:37.000Z</time>
      </trkpt>
      <trkpt lat="43.60862" lon="1.06985">
        <ele>141</ele>
        <time>2020-10-03T11:04:38.000Z</time>
      </trkpt>
      <trkpt lat="43.6086" lon="1.06984">
        <ele>141</ele>
        <time>2020-10-03T11:04:39.000Z</time>
      </trkpt>
      <trkpt lat="43.60858" lon="1.06982">
        <ele>140.65168054537</ele>
        <time>2020-10-03T11:04:40.000Z</time>
      </trkpt>
      <trkpt lat="43.60855" lon="1.0698">
        <ele>140</ele>
        <time>2020-10-03T11:04:41.000Z</time>
      </trkpt>
      <trkpt lat="43.60853" lon="1.06978">
        <ele>140</ele>
        <time>2020-10-03T11:04:42.000Z</time>
      </trkpt>
      <trkpt lat="43.60851" lon="1.06976">
        <ele>140</ele>
        <time>2020-10-03T11:04:43.000Z</time>
      </trkpt>
      <trkpt lat="43.60848" lon="1.06975">
        <ele>139.55789700612</ele>
        <time>2020-10-03T11:04:44.000Z</time>
      </trkpt>
      <trkpt lat="43.60846" lon="1.06973">
        <ele>139</ele>
        <time>2020-10-03T11:04:45.000Z</time>
      </trkpt>
      <trkpt lat="43.60843" lon="1.06971">
        <ele>139</ele>
        <time>2020-10-03T11:04:46.000Z</time>
      </trkpt>
      <trkpt lat="43.6084" lon="1.0697">
        <ele>139</ele>
        <time>2020-10-03T11:04:47.000Z</time>
      </trkpt>
      <trkpt lat="43.60838" lon="1.06968">
        <ele>139</ele>
        <time>2020-10-03T11:04:48.000Z</time>
      </trkpt>
      <trkpt lat="43.60835" lon="1.06967">
        <ele>139</ele>
        <time>2020-10-03T11:04:49.000Z</time>
      </trkpt>
      <trkpt lat="43.60832" lon="1.06966">
        <ele>139</ele>
        <time>2020-10-03T11:04:50.000Z</time>
      </trkpt>
      <trkpt lat="43.60829" lon="1.06964">
        <ele>139</ele>
        <time>2020-10-03T11:04:51.000Z</time>
      </trkpt>
      <trkpt lat="43.60826" lon="1.06961">
        <ele>139</ele>
        <time>2020-10-03T11:04:52.000Z</time>
      </trkpt>
      <trkpt lat="43.60825" lon="1.06958">
        <ele>139</ele>
        <time>2020-10-03T11:04:53.000Z</time>
      </trkpt>
      <trkpt lat="43.60824" lon="1.06954">
        <ele>139</ele>
        <time>2020-10-03T11:04:54.000Z</time>
      </trkpt>
      <trkpt lat="43.60825" lon="1.0695">
        <ele>139</ele>
        <time>2020-10-03T11:04:55.000Z</time>
      </trkpt>
      <trkpt lat="43.60826" lon="1.06946">
        <ele>139</ele>
        <time>2020-10-03T11:04:56.000Z</time>
      </trkpt>
      <trkpt lat="43.60827" lon="1.06942">
        <ele>139</ele>
        <time>2020-10-03T11:04:57.000Z</time>
      </trkpt>
      <trkpt lat="43.60828" lon="1.06938">
        <ele>139</ele>
        <time>2020-10-03T11:04:58.000Z</time>
      </trkpt>
      <trkpt lat="43.60828" lon="1.06934">
        <ele>139</ele>
        <time>2020-10-03T11:04:59.000Z</time>
      </trkpt>
      <trkpt lat="43.60829" lon="1.06931">
        <ele>139</ele>
        <time>2020-10-03T11:05:00.000Z</time>
      </trkpt>
      <trkpt lat="43.60829" lon="1.06928">
        <ele>139</ele>
        <time>2020-10-03T11:05:01.000Z</time>
      </trkpt>
      <trkpt lat="43.6083" lon="1.06924">
        <ele>139</ele>
        <time>2020-10-03T11:05:02.000Z</time>
      </trkpt>
      <trkpt lat="43.60831" lon="1.0692">
        <ele>139</ele>
        <time>2020-10-03T11:05:03.000Z</time>
      </trkpt>
      <trkpt lat="43.60832" lon="1.06916">
        <ele>139</ele>
        <time>2020-10-03T11:05:04.000Z</time>
      </trkpt>
      <trkpt lat="43.60833" lon="1.06913">
        <ele>139</ele>
        <time>2020-10-03T11:05:05.000Z</time>
      </trkpt>
      <trkpt lat="43.60834" lon="1.0691">
        <ele>139</ele>
        <time>2020-10-03T11:05:06.000Z</time>
      </trkpt>
      <trkpt lat="43.60836" lon="1.06906">
        <ele>139</ele>
        <time>2020-10-03T11:05:07.000Z</time>
      </trkpt>
      <trkpt lat="43.60837" lon="1.06903">
        <ele>138.64492820836</ele>
        <time>2020-10-03T11:05:08.000Z</time>
      </trkpt>
      <trkpt lat="43.60838" lon="1.06899">
        <ele>138</ele>
        <time>2020-10-03T11:05:09.000Z</time>
      </trkpt>
      <trkpt lat="43.60839" lon="1.06896">
        <ele>138</ele>
        <time>2020-10-03T11:05:10.000Z</time>
      </trkpt>
      <trkpt lat="43.6084" lon="1.06892">
        <ele>138</ele>
        <time>2020-10-03T11:05:11.000Z</time>
      </trkpt>
      <trkpt lat="43.60841" lon="1.06889">
        <ele>138</ele>
        <time>2020-10-03T11:05:12.000Z</time>
      </trkpt>
      <trkpt lat="43.60843" lon="1.06886">
        <ele>138</ele>
        <time>2020-10-03T11:05:13.000Z</time>
      </trkpt>
      <trkpt lat="43.60844" lon="1.06882">
        <ele>138</ele>
        <time>2020-10-03T11:05:14.000Z</time>
      </trkpt>
      <trkpt lat="43.60845" lon="1.06879">
        <ele>138</ele>
        <time>2020-10-03T11:05:15.000Z</time>
      </trkpt>
      <trkpt lat="43.60846" lon="1.06876">
        <ele>138</ele>
        <time>2020-10-03T11:05:16.000Z</time>
      </trkpt>
      <trkpt lat="43.60846" lon="1.06872">
        <ele>138</ele>
        <time>2020-10-03T11:05:17.000Z</time>
      </trkpt>
      <trkpt lat="43.60847" lon="1.06868">
        <ele>138</ele>
        <time>2020-10-03T11:05:18.000Z</time>
      </trkpt>
      <trkpt lat="43.60848" lon="1.06864">
        <ele>138</ele>
        <time>2020-10-03T11:05:19.000Z</time>
      </trkpt>
      <trkpt lat="43.60849" lon="1.0686">
        <ele>138</ele>
        <time>2020-10-03T11:05:20.000Z</time>
      </trkpt>
      <trkpt lat="43.6085" lon="1.06857">
        <ele>138</ele>
        <time>2020-10-03T11:05:21.000Z</time>
      </trkpt>
      <trkpt lat="43.60851" lon="1.06853">
        <ele>138</ele>
        <time>2020-10-03T11:05:22.000Z</time>
      </trkpt>
      <trkpt lat="43.60852" lon="1.06849">
        <ele>138</ele>
        <time>2020-10-03T11:05:23.000Z</time>
      </trkpt>
      <trkpt lat="43.60852" lon="1.06846">
        <ele>138</ele>
        <time>2020-10-03T11:05:24.000Z</time>
      </trkpt>
      <trkpt lat="43.60853" lon="1.06842">
        <ele>138</ele>
        <time>2020-10-03T11:05:25.000Z</time>
      </trkpt>
      <trkpt lat="43.60852" lon="1.06839">
        <ele>138</ele>
        <time>2020-10-03T11:05:26.000Z</time>
      </trkpt>
      <trkpt lat="43.60851" lon="1.06836">
        <ele>138.358336</ele>
        <time>2020-10-03T11:05:27.000Z</time>
      </trkpt>
      <trkpt lat="43.6085" lon="1.06833">
        <ele>139</ele>
        <time>2020-10-03T11:05:28.000Z</time>
      </trkpt>
      <trkpt lat="43.60849" lon="1.0683">
        <ele>139</ele>
        <time>2020-10-03T11:05:29.000Z</time>
      </trkpt>
      <trkpt lat="43.60848" lon="1.06827">
        <ele>139</ele>
        <time>2020-10-03T11:05:30.000Z</time>
      </trkpt>
      <trkpt lat="43.60847" lon="1.06824">
        <ele>139</ele>
        <time>2020-10-03T11:05:31.000Z</time>
      </trkpt>
      <trkpt lat="43.60845" lon="1.06821">
        <ele>139</ele>
        <time>2020-10-03T11:05:32.000Z</time>
      </trkpt>
      <trkpt lat="43.60844" lon="1.06818">
        <ele>139</ele>
        <time>2020-10-03T11:05:33.000Z</time>
      </trkpt>
      <trkpt lat="43.60843" lon="1.06814">
        <ele>139</ele>
        <time>2020-10-03T11:05:34.000Z</time>
      </trkpt>
      <trkpt lat="43.60842" lon="1.06811">
        <ele>139.39473625115</ele>
        <time>2020-10-03T11:05:35.000Z</time>
      </trkpt>
      <trkpt lat="43.60841" lon="1.06806">
        <ele>140</ele>
        <time>2020-10-03T11:05:36.000Z</time>
      </trkpt>
      <trkpt lat="43.6084" lon="1.06803">
        <ele>140</ele>
        <time>2020-10-03T11:05:37.000Z</time>
      </trkpt>
      <trkpt lat="43.60838" lon="1.06799">
        <ele>140</ele>
        <time>2020-10-03T11:05:38.000Z</time>
      </trkpt>
      <trkpt lat="43.60837" lon="1.06796">
        <ele>139.50980072282</ele>
        <time>2020-10-03T11:05:39.000Z</time>
      </trkpt>
      <trkpt lat="43.60836" lon="1.06792">
        <ele>139</ele>
        <time>2020-10-03T11:05:40.000Z</time>
      </trkpt>
      <trkpt lat="43.60835" lon="1.06789">
        <ele>139</ele>
        <time>2020-10-03T11:05:41.000Z</time>
      </trkpt>
      <trkpt lat="43.60833" lon="1.06786">
        <ele>139</ele>
        <time>2020-10-03T11:05:42.000Z</time>
      </trkpt>
      <trkpt lat="43.60831" lon="1.06783">
        <ele>139</ele>
        <time>2020-10-03T11:05:43.000Z</time>
      </trkpt>
      <trkpt lat="43.6083" lon="1.0678">
        <ele>139</ele>
        <time>2020-10-03T11:05:44.000Z</time>
      </trkpt>
      <trkpt lat="43.60828" lon="1.06776">
        <ele>139</ele>
        <time>2020-10-03T11:05:45.000Z</time>
      </trkpt>
      <trkpt lat="43.60826" lon="1.06774">
        <ele>139</ele>
        <time>2020-10-03T11:05:46.000Z</time>
      </trkpt>
      <trkpt lat="43.60824" lon="1.06771">
        <ele>139</ele>
        <time>2020-10-03T11:05:47.000Z</time>
      </trkpt>
      <trkpt lat="43.60821" lon="1.06768">
        <ele>139</ele>
        <time>2020-10-03T11:05:48.000Z</time>
      </trkpt>
      <trkpt lat="43.60819" lon="1.06766">
        <ele>139</ele>
        <time>2020-10-03T11:05:49.000Z</time>
      </trkpt>
      <trkpt lat="43.60816" lon="1.06764">
        <ele>139</ele>
        <time>2020-10-03T11:05:50.000Z</time>
      </trkpt>
      <trkpt lat="43.60814" lon="1.06762">
        <ele>139</ele>
        <time>2020-10-03T11:05:51.000Z</time>
      </trkpt>
      <trkpt lat="43.60811" lon="1.0676">
        <ele>139</ele>
        <time>2020-10-03T11:05:52.000Z</time>
      </trkpt>
      <trkpt lat="43.60809" lon="1.06757">
        <ele>139</ele>
        <time>2020-10-03T11:05:53.000Z</time>
      </trkpt>
      <trkpt lat="43.60808" lon="1.06754">
        <ele>139</ele>
        <time>2020-10-03T11:05:54.000Z</time>
      </trkpt>
      <trkpt lat="43.60806" lon="1.06751">
        <ele>139</ele>
        <time>2020-10-03T11:05:55.000Z</time>
      </trkpt>
      <trkpt lat="43.60804" lon="1.06748">
        <ele>139</ele>
        <time>2020-10-03T11:05:56.000Z</time>
      </trkpt>
      <trkpt lat="43.60802" lon="1.06746">
        <ele>139</ele>
        <time>2020-10-03T11:05:57.000Z</time>
      </trkpt>
      <trkpt lat="43.608" lon="1.06743">
        <ele>139</ele>
        <time>2020-10-03T11:05:58.000Z</time>
      </trkpt>
      <trkpt lat="43.60798" lon="1.06741">
        <ele>139</ele>
        <time>2020-10-03T11:05:59.000Z</time>
      </trkpt>
      <trkpt lat="43.60795" lon="1.06739">
        <ele>139</ele>
        <time>2020-10-03T11:06:00.000Z</time>
      </trkpt>
      <trkpt lat="43.60793" lon="1.06738">
        <ele>139</ele>
        <time>2020-10-03T11:06:01.000Z</time>
      </trkpt>
      <trkpt lat="43.60791" lon="1.06736">
        <ele>138.5</ele>
        <time>2020-10-03T11:06:02.000Z</time>
      </trkpt>
      <trkpt lat="43.60789" lon="1.06734">
        <ele>138</ele>
        <time>2020-10-03T11:06:03.000Z</time>
      </trkpt>
      <trkpt lat="43.60786" lon="1.06733">
        <ele>138.49019287964</ele>
        <time>2020-10-03T11:06:04.000Z</time>
      </trkpt>
      <trkpt lat="43.60784" lon="1.06731">
        <ele>139</ele>
        <time>2020-10-03T11:06:05.000Z</time>
      </trkpt>
      <trkpt lat="43.60782" lon="1.06729">
        <ele>139</ele>
        <time>2020-10-03T11:06:06.000Z</time>
      </trkpt>
      <trkpt lat="43.60779" lon="1.06727">
        <ele>139</ele>
        <time>2020-10-03T11:06:07.000Z</time>
      </trkpt>
      <trkpt lat="43.60777" lon="1.06725">
        <ele>139</ele>
        <time>2020-10-03T11:06:08.000Z</time>
      </trkpt>
      <trkpt lat="43.60775" lon="1.06722">
        <ele>139</ele>
        <time>2020-10-03T11:06:09.000Z</time>
      </trkpt>
      <trkpt lat="43.60773" lon="1.0672">
        <ele>139</ele>
        <time>2020-10-03T11:06:10.000Z</time>
      </trkpt>
      <trkpt lat="43.60771" lon="1.06718">
        <ele>139</ele>
        <time>2020-10-03T11:06:11.000Z</time>
      </trkpt>
      <trkpt lat="43.60769" lon="1.06716">
        <ele>139</ele>
        <time>2020-10-03T11:06:12.000Z</time>
      </trkpt>
      <trkpt lat="43.60767" lon="1.06714">
        <ele>139</ele>
        <time>2020-10-03T11:06:13.000Z</time>
      </trkpt>
      <trkpt lat="43.60764" lon="1.06712">
        <ele>139</ele>
        <time>2020-10-03T11:06:14.000Z</time>
      </trkpt>
      <trkpt lat="43.60762" lon="1.06709">
        <ele>139</ele>
        <time>2020-10-03T11:06:15.000Z</time>
      </trkpt>
      <trkpt lat="43.6076" lon="1.06708">
        <ele>139</ele>
        <time>2020-10-03T11:06:16.000Z</time>
      </trkpt>
      <trkpt lat="43.60757" lon="1.06705">
        <ele>139</ele>
        <time>2020-10-03T11:06:17.000Z</time>
      </trkpt>
      <trkpt lat="43.60755" lon="1.06703">
        <ele>139</ele>
        <time>2020-10-03T11:06:18.000Z</time>
      </trkpt>
      <trkpt lat="43.60753" lon="1.06701">
        <ele>139</ele>
        <time>2020-10-03T11:06:19.000Z</time>
      </trkpt>
      <trkpt lat="43.60751" lon="1.06699">
        <ele>139.39449950679</ele>
        <time>2020-10-03T11:06:20.000Z</time>
      </trkpt>
      <trkpt lat="43.60749" lon="1.06696">
        <ele>140</ele>
        <time>2020-10-03T11:06:21.000Z</time>
      </trkpt>
      <trkpt lat="43.60747" lon="1.06693">
        <ele>140</ele>
        <time>2020-10-03T11:06:22.000Z</time>
      </trkpt>
      <trkpt lat="43.60745" lon="1.06691">
        <ele>140</ele>
        <time>2020-10-03T11:06:23.000Z</time>
      </trkpt>
      <trkpt lat="43.60742" lon="1.06689">
        <ele>140</ele>
        <time>2020-10-03T11:06:24.000Z</time>
      </trkpt>
      <trkpt lat="43.6074" lon="1.06687">
        <ele>140</ele>
        <time>2020-10-03T11:06:25.000Z</time>
      </trkpt>
      <trkpt lat="43.60738" lon="1.06684">
        <ele>140</ele>
        <time>2020-10-03T11:06:26.000Z</time>
      </trkpt>
      <trkpt lat="43.60736" lon="1.06682">
        <ele>140</ele>
        <time>2020-10-03T11:06:27.000Z</time>
      </trkpt>
      <trkpt lat="43.60734" lon="1.06679">
        <ele>139.64102269557</ele>
        <time>2020-10-03T11:06:28.000Z</time>
      </trkpt>
      <trkpt lat="43.60732" lon="1.06677">
        <ele>139</ele>
        <time>2020-10-03T11:06:29.000Z</time>
      </trkpt>
      <trkpt lat="43.6073" lon="1.06675">
        <ele>139</ele>
        <time>2020-10-03T11:06:30.000Z</time>
      </trkpt>
      <trkpt lat="43.60728" lon="1.06672">
        <ele>139</ele>
        <time>2020-10-03T11:06:31.000Z</time>
      </trkpt>
      <trkpt lat="43.60725" lon="1.0667">
        <ele>139</ele>
        <time>2020-10-03T11:06:32.000Z</time>
      </trkpt>
      <trkpt lat="43.60723" lon="1.06667">
        <ele>139</ele>
        <time>2020-10-03T11:06:33.000Z</time>
      </trkpt>
      <trkpt lat="43.60722" lon="1.06664">
        <ele>139</ele>
        <time>2020-10-03T11:06:34.000Z</time>
      </trkpt>
      <trkpt lat="43.6072" lon="1.06661">
        <ele>139</ele>
        <time>2020-10-03T11:06:35.000Z</time>
      </trkpt>
      <trkpt lat="43.60719" lon="1.06658">
        <ele>139</ele>
        <time>2020-10-03T11:06:36.000Z</time>
      </trkpt>
      <trkpt lat="43.60717" lon="1.06654">
        <ele>138.75824624084</ele>
        <time>2020-10-03T11:06:37.000Z</time>
      </trkpt>
      <trkpt lat="43.60716" lon="1.06651">
        <ele>138</ele>
        <time>2020-10-03T11:06:38.000Z</time>
      </trkpt>
      <trkpt lat="43.60716" lon="1.06648">
        <ele>138</ele>
        <time>2020-10-03T11:06:39.000Z</time>
      </trkpt>
      <trkpt lat="43.60715" lon="1.06644">
        <ele>138.850576742</ele>
        <time>2020-10-03T11:06:40.000Z</time>
      </trkpt>
      <trkpt lat="43.60714" lon="1.0664">
        <ele>140</ele>
        <time>2020-10-03T11:06:41.000Z</time>
      </trkpt>
      <trkpt lat="43.60713" lon="1.06636">
        <ele>140</ele>
        <time>2020-10-03T11:06:42.000Z</time>
      </trkpt>
      <trkpt lat="43.60712" lon="1.06633">
        <ele>140</ele>
        <time>2020-10-03T11:06:43.000Z</time>
      </trkpt>
      <trkpt lat="43.60711" lon="1.06629">
        <ele>140</ele>
        <time>2020-10-03T11:06:44.000Z</time>
      </trkpt>
      <trkpt lat="43.60711" lon="1.06625">
        <ele>140</ele>
        <time>2020-10-03T11:06:45.000Z</time>
      </trkpt>
      <trkpt lat="43.6071" lon="1.06621">
        <ele>140</ele>
        <time>2020-10-03T11:06:46.000Z</time>
      </trkpt>
      <trkpt lat="43.6071" lon="1.06617">
        <ele>140</ele>
        <time>2020-10-03T11:06:47.000Z</time>
      </trkpt>
      <trkpt lat="43.60709" lon="1.06613">
        <ele>139.58620841854</ele>
        <time>2020-10-03T11:06:48.000Z</time>
      </trkpt>
      <trkpt lat="43.60708" lon="1.06609">
        <ele>139</ele>
        <time>2020-10-03T11:06:49.000Z</time>
      </trkpt>
      <trkpt lat="43.60707" lon="1.06605">
        <ele>139</ele>
        <time>2020-10-03T11:06:50.000Z</time>
      </trkpt>
      <trkpt lat="43.60706" lon="1.06602">
        <ele>139.316832687</ele>
        <time>2020-10-03T11:06:51.000Z</time>
      </trkpt>
      <trkpt lat="43.60705" lon="1.06598">
        <ele>140</ele>
        <time>2020-10-03T11:06:52.000Z</time>
      </trkpt>
      <trkpt lat="43.60704" lon="1.06594">
        <ele>139.63157540168</ele>
        <time>2020-10-03T11:06:53.000Z</time>
      </trkpt>
      <trkpt lat="43.60703" lon="1.06591">
        <ele>139</ele>
        <time>2020-10-03T11:06:54.000Z</time>
      </trkpt>
      <trkpt lat="43.60702" lon="1.06587">
        <ele>138.74725011956</ele>
        <time>2020-10-03T11:06:55.000Z</time>
      </trkpt>
      <trkpt lat="43.60701" lon="1.06583">
        <ele>138</ele>
        <time>2020-10-03T11:06:56.000Z</time>
      </trkpt>
      <trkpt lat="43.607" lon="1.06579">
        <ele>138</ele>
        <time>2020-10-03T11:06:57.000Z</time>
      </trkpt>
      <trkpt lat="43.60699" lon="1.06576">
        <ele>138.425288371</ele>
        <time>2020-10-03T11:06:58.000Z</time>
      </trkpt>
      <trkpt lat="43.60697" lon="1.06573">
        <ele>139</ele>
        <time>2020-10-03T11:06:59.000Z</time>
      </trkpt>
      <trkpt lat="43.60696" lon="1.06569">
        <ele>139</ele>
        <time>2020-10-03T11:07:00.000Z</time>
      </trkpt>
      <trkpt lat="43.60695" lon="1.06566">
        <ele>139</ele>
        <time>2020-10-03T11:07:01.000Z</time>
      </trkpt>
      <trkpt lat="43.60694" lon="1.06562">
        <ele>139</ele>
        <time>2020-10-03T11:07:02.000Z</time>
      </trkpt>
      <trkpt lat="43.60692" lon="1.06559">
        <ele>139</ele>
        <time>2020-10-03T11:07:03.000Z</time>
      </trkpt>
      <trkpt lat="43.60691" lon="1.06555">
        <ele>139</ele>
        <time>2020-10-03T11:07:04.000Z</time>
      </trkpt>
      <trkpt lat="43.6069" lon="1.06552">
        <ele>139</ele>
        <time>2020-10-03T11:07:05.000Z</time>
      </trkpt>
      <trkpt lat="43.60689" lon="1.06548">
        <ele>139</ele>
        <time>2020-10-03T11:07:06.000Z</time>
      </trkpt>
      <trkpt lat="43.60688" lon="1.06545">
        <ele>139</ele>
        <time>2020-10-03T11:07:07.000Z</time>
      </trkpt>
      <trkpt lat="43.60687" lon="1.06541">
        <ele>138.50495526323</ele>
        <time>2020-10-03T11:07:08.000Z</time>
      </trkpt>
      <trkpt lat="43.60686" lon="1.06538">
        <ele>138</ele>
        <time>2020-10-03T11:07:09.000Z</time>
      </trkpt>
      <trkpt lat="43.60684" lon="1.06534">
        <ele>138</ele>
        <time>2020-10-03T11:07:10.000Z</time>
      </trkpt>
      <trkpt lat="43.60684" lon="1.0653">
        <ele>138</ele>
        <time>2020-10-03T11:07:11.000Z</time>
      </trkpt>
      <trkpt lat="43.60683" lon="1.06527">
        <ele>138</ele>
        <time>2020-10-03T11:07:12.000Z</time>
      </trkpt>
      <trkpt lat="43.60681" lon="1.06524">
        <ele>138.1714270041</ele>
        <time>2020-10-03T11:07:13.000Z</time>
      </trkpt>
      <trkpt lat="43.6068" lon="1.0652">
        <ele>139</ele>
        <time>2020-10-03T11:07:14.000Z</time>
      </trkpt>
      <trkpt lat="43.60678" lon="1.06517">
        <ele>139</ele>
        <time>2020-10-03T11:07:15.000Z</time>
      </trkpt>
      <trkpt lat="43.60678" lon="1.06514">
        <ele>139.3255838183</ele>
        <time>2020-10-03T11:07:16.000Z</time>
      </trkpt>
      <trkpt lat="43.60678" lon="1.0651">
        <ele>140</ele>
        <time>2020-10-03T11:07:17.000Z</time>
      </trkpt>
      <trkpt lat="43.60678" lon="1.06506">
        <ele>140</ele>
        <time>2020-10-03T11:07:18.000Z</time>
      </trkpt>
      <trkpt lat="43.60678" lon="1.06502">
        <ele>139.54629925926</ele>
        <time>2020-10-03T11:07:19.000Z</time>
      </trkpt>
      <trkpt lat="43.60679" lon="1.06499">
        <ele>139</ele>
        <time>2020-10-03T11:07:20.000Z</time>
      </trkpt>
      <trkpt lat="43.60679" lon="1.06495">
        <ele>139</ele>
        <time>2020-10-03T11:07:21.000Z</time>
      </trkpt>
      <trkpt lat="43.6068" lon="1.06491">
        <ele>139</ele>
        <time>2020-10-03T11:07:22.000Z</time>
      </trkpt>
      <trkpt lat="43.60681" lon="1.06488">
        <ele>139</ele>
        <time>2020-10-03T11:07:23.000Z</time>
      </trkpt>
      <trkpt lat="43.60681" lon="1.06484">
        <ele>139</ele>
        <time>2020-10-03T11:07:24.000Z</time>
      </trkpt>
      <trkpt lat="43.60682" lon="1.06481">
        <ele>139</ele>
        <time>2020-10-03T11:07:25.000Z</time>
      </trkpt>
      <trkpt lat="43.60682" lon="1.06478">
        <ele>139</ele>
        <time>2020-10-03T11:07:26.000Z</time>
      </trkpt>
      <trkpt lat="43.60683" lon="1.06474">
        <ele>138.5663732853</ele>
        <time>2020-10-03T11:07:27.000Z</time>
      </trkpt>
      <trkpt lat="43.60683" lon="1.06471">
        <ele>138</ele>
        <time>2020-10-03T11:07:28.000Z</time>
      </trkpt>
      <trkpt lat="43.60684" lon="1.06467">
        <ele>138</ele>
        <time>2020-10-03T11:07:29.000Z</time>
      </trkpt>
      <trkpt lat="43.60685" lon="1.06463">
        <ele>138.2957714739</ele>
        <time>2020-10-03T11:07:30.000Z</time>
      </trkpt>
      <trkpt lat="43.60685" lon="1.06459">
        <ele>139</ele>
        <time>2020-10-03T11:07:31.000Z</time>
      </trkpt>
      <trkpt lat="43.60686" lon="1.06456">
        <ele>139</ele>
        <time>2020-10-03T11:07:32.000Z</time>
      </trkpt>
      <trkpt lat="43.60686" lon="1.06452">
        <ele>139.37272653223</ele>
        <time>2020-10-03T11:07:33.000Z</time>
      </trkpt>
      <trkpt lat="43.60687" lon="1.06448">
        <ele>140</ele>
        <time>2020-10-03T11:07:34.000Z</time>
      </trkpt>
      <trkpt lat="43.60687" lon="1.06444">
        <ele>140</ele>
        <time>2020-10-03T11:07:35.000Z</time>
      </trkpt>
      <trkpt lat="43.60687" lon="1.06439">
        <ele>140.425288371</ele>
        <time>2020-10-03T11:07:36.000Z</time>
      </trkpt>
      <trkpt lat="43.60687" lon="1.06435">
        <ele>141</ele>
        <time>2020-10-03T11:07:37.000Z</time>
      </trkpt>
      <trkpt lat="43.60688" lon="1.06432">
        <ele>141</ele>
        <time>2020-10-03T11:07:38.000Z</time>
      </trkpt>
      <trkpt lat="43.60688" lon="1.06428">
        <ele>140.56818909091</ele>
        <time>2020-10-03T11:07:39.000Z</time>
      </trkpt>
      <trkpt lat="43.60689" lon="1.06424">
        <ele>140</ele>
        <time>2020-10-03T11:07:40.000Z</time>
      </trkpt>
      <trkpt lat="43.60689" lon="1.0642">
        <ele>139.77940705882</ele>
        <time>2020-10-03T11:07:41.000Z</time>
      </trkpt>
      <trkpt lat="43.60688" lon="1.06417">
        <ele>139</ele>
        <time>2020-10-03T11:07:42.000Z</time>
      </trkpt>
      <trkpt lat="43.60688" lon="1.06413">
        <ele>139</ele>
        <time>2020-10-03T11:07:43.000Z</time>
      </trkpt>
      <trkpt lat="43.60688" lon="1.0641">
        <ele>139.35442894408</ele>
        <time>2020-10-03T11:07:44.000Z</time>
      </trkpt>
      <trkpt lat="43.60688" lon="1.06406">
        <ele>140</ele>
        <time>2020-10-03T11:07:45.000Z</time>
      </trkpt>
      <trkpt lat="43.60688" lon="1.06403">
        <ele>140</ele>
        <time>2020-10-03T11:07:46.000Z</time>
      </trkpt>
      <trkpt lat="43.60688" lon="1.06399">
        <ele>140</ele>
        <time>2020-10-03T11:07:47.000Z</time>
      </trkpt>
      <trkpt lat="43.60688" lon="1.06395">
        <ele>140</ele>
        <time>2020-10-03T11:07:48.000Z</time>
      </trkpt>
      <trkpt lat="43.60687" lon="1.06391">
        <ele>140</ele>
        <time>2020-10-03T11:07:49.000Z</time>
      </trkpt>
      <trkpt lat="43.60687" lon="1.06388">
        <ele>140</ele>
        <time>2020-10-03T11:07:50.000Z</time>
      </trkpt>
      <trkpt lat="43.60687" lon="1.06384">
        <ele>140</ele>
        <time>2020-10-03T11:07:51.000Z</time>
      </trkpt>
      <trkpt lat="43.60687" lon="1.06381">
        <ele>140.36905142857</ele>
        <time>2020-10-03T11:07:52.000Z</time>
      </trkpt>
      <trkpt lat="43.60687" lon="1.06377">
        <ele>141</ele>
        <time>2020-10-03T11:07:53.000Z</time>
      </trkpt>
      <trkpt lat="43.60687" lon="1.06374">
        <ele>141</ele>
        <time>2020-10-03T11:07:54.000Z</time>
      </trkpt>
      <trkpt lat="43.60687" lon="1.0637">
        <ele>140.01011067439</ele>
        <time>2020-10-03T11:07:55.000Z</time>
      </trkpt>
      <trkpt lat="43.60687" lon="1.06366">
        <ele>139</ele>
        <time>2020-10-03T11:07:56.000Z</time>
      </trkpt>
      <trkpt lat="43.60687" lon="1.06362">
        <ele>139</ele>
        <time>2020-10-03T11:07:57.000Z</time>
      </trkpt>
      <trkpt lat="43.60687" lon="1.06358">
        <ele>139</ele>
        <time>2020-10-03T11:07:58.000Z</time>
      </trkpt>
      <trkpt lat="43.60687" lon="1.06354">
        <ele>139</ele>
        <time>2020-10-03T11:07:59.000Z</time>
      </trkpt>
      <trkpt lat="43.60687" lon="1.0635">
        <ele>139.2282573913</ele>
        <time>2020-10-03T11:08:00.000Z</time>
      </trkpt>
      <trkpt lat="43.60687" lon="1.06347">
        <ele>140</ele>
        <time>2020-10-03T11:08:01.000Z</time>
      </trkpt>
      <trkpt lat="43.60686" lon="1.06343">
        <ele>140</ele>
        <time>2020-10-03T11:08:02.000Z</time>
      </trkpt>
      <trkpt lat="43.60686" lon="1.0634">
        <ele>139.66292732738</ele>
        <time>2020-10-03T11:08:03.000Z</time>
      </trkpt>
      <trkpt lat="43.60686" lon="1.06336">
        <ele>139</ele>
        <time>2020-10-03T11:08:04.000Z</time>
      </trkpt>
      <trkpt lat="43.60686" lon="1.06332">
        <ele>139</ele>
        <time>2020-10-03T11:08:05.000Z</time>
      </trkpt>
      <trkpt lat="43.60686" lon="1.06328">
        <ele>139</ele>
        <time>2020-10-03T11:08:06.000Z</time>
      </trkpt>
      <trkpt lat="43.60685" lon="1.06325">
        <ele>139</ele>
        <time>2020-10-03T11:08:07.000Z</time>
      </trkpt>
      <trkpt lat="43.60685" lon="1.0632">
        <ele>139</ele>
        <time>2020-10-03T11:08:08.000Z</time>
      </trkpt>
      <trkpt lat="43.60685" lon="1.06317">
        <ele>139</ele>
        <time>2020-10-03T11:08:09.000Z</time>
      </trkpt>
      <trkpt lat="43.60685" lon="1.06312">
        <ele>138.60000284442</ele>
        <time>2020-10-03T11:08:10.000Z</time>
      </trkpt>
      <trkpt lat="43.60685" lon="1.06308">
        <ele>138</ele>
        <time>2020-10-03T11:08:11.000Z</time>
      </trkpt>
      <trkpt lat="43.60685" lon="1.06305">
        <ele>138</ele>
        <time>2020-10-03T11:08:12.000Z</time>
      </trkpt>
      <trkpt lat="43.60684" lon="1.06301">
        <ele>138</ele>
        <time>2020-10-03T11:08:13.000Z</time>
      </trkpt>
      <trkpt lat="43.60684" lon="1.06297">
        <ele>138</ele>
        <time>2020-10-03T11:08:14.000Z</time>
      </trkpt>
      <trkpt lat="43.60683" lon="1.06293">
        <ele>138</ele>
        <time>2020-10-03T11:08:15.000Z</time>
      </trkpt>
      <trkpt lat="43.60683" lon="1.0629">
        <ele>138</ele>
        <time>2020-10-03T11:08:16.000Z</time>
      </trkpt>
      <trkpt lat="43.60682" lon="1.06286">
        <ele>138.42056153027</ele>
        <time>2020-10-03T11:08:17.000Z</time>
      </trkpt>
      <trkpt lat="43.60682" lon="1.06282">
        <ele>139</ele>
        <time>2020-10-03T11:08:18.000Z</time>
      </trkpt>
      <trkpt lat="43.60681" lon="1.06279">
        <ele>139</ele>
        <time>2020-10-03T11:08:19.000Z</time>
      </trkpt>
      <trkpt lat="43.60681" lon="1.06275">
        <ele>139</ele>
        <time>2020-10-03T11:08:20.000Z</time>
      </trkpt>
      <trkpt lat="43.6068" lon="1.06271">
        <ele>139</ele>
        <time>2020-10-03T11:08:21.000Z</time>
      </trkpt>
      <trkpt lat="43.60679" lon="1.06267">
        <ele>139</ele>
        <time>2020-10-03T11:08:22.000Z</time>
      </trkpt>
      <trkpt lat="43.60679" lon="1.06263">
        <ele>139</ele>
        <time>2020-10-03T11:08:23.000Z</time>
      </trkpt>
      <trkpt lat="43.60678" lon="1.06259">
        <ele>139</ele>
        <time>2020-10-03T11:08:24.000Z</time>
      </trkpt>
      <trkpt lat="43.60678" lon="1.06255">
        <ele>139</ele>
        <time>2020-10-03T11:08:25.000Z</time>
      </trkpt>
      <trkpt lat="43.60678" lon="1.06251">
        <ele>139</ele>
        <time>2020-10-03T11:08:26.000Z</time>
      </trkpt>
      <trkpt lat="43.60677" lon="1.06247">
        <ele>139</ele>
        <time>2020-10-03T11:08:27.000Z</time>
      </trkpt>
      <trkpt lat="43.60676" lon="1.06244">
        <ele>139</ele>
        <time>2020-10-03T11:08:28.000Z</time>
      </trkpt>
      <trkpt lat="43.60675" lon="1.0624">
        <ele>139</ele>
        <time>2020-10-03T11:08:29.000Z</time>
      </trkpt>
      <trkpt lat="43.60674" lon="1.06236">
        <ele>139</ele>
        <time>2020-10-03T11:08:30.000Z</time>
      </trkpt>
      <trkpt lat="43.60673" lon="1.06233">
        <ele>138.59340582055</ele>
        <time>2020-10-03T11:08:31.000Z</time>
      </trkpt>
      <trkpt lat="43.60672" lon="1.06229">
        <ele>138</ele>
        <time>2020-10-03T11:08:32.000Z</time>
      </trkpt>
      <trkpt lat="43.60672" lon="1.06226">
        <ele>138</ele>
        <time>2020-10-03T11:08:33.000Z</time>
      </trkpt>
      <trkpt lat="43.60671" lon="1.06222">
        <ele>138</ele>
        <time>2020-10-03T11:08:34.000Z</time>
      </trkpt>
      <trkpt lat="43.6067" lon="1.06217">
        <ele>138</ele>
        <time>2020-10-03T11:08:35.000Z</time>
      </trkpt>
      <trkpt lat="43.6067" lon="1.06213">
        <ele>138</ele>
        <time>2020-10-03T11:08:36.000Z</time>
      </trkpt>
      <trkpt lat="43.60669" lon="1.0621">
        <ele>138</ele>
        <time>2020-10-03T11:08:37.000Z</time>
      </trkpt>
      <trkpt lat="43.60668" lon="1.06206">
        <ele>138</ele>
        <time>2020-10-03T11:08:38.000Z</time>
      </trkpt>
      <trkpt lat="43.60667" lon="1.06202">
        <ele>138</ele>
        <time>2020-10-03T11:08:39.000Z</time>
      </trkpt>
      <trkpt lat="43.60666" lon="1.06198">
        <ele>138</ele>
        <time>2020-10-03T11:08:40.000Z</time>
      </trkpt>
      <trkpt lat="43.60665" lon="1.06195">
        <ele>138</ele>
        <time>2020-10-03T11:08:41.000Z</time>
      </trkpt>
      <trkpt lat="43.60664" lon="1.06191">
        <ele>138</ele>
        <time>2020-10-03T11:08:42.000Z</time>
      </trkpt>
      <trkpt lat="43.60663" lon="1.06188">
        <ele>138</ele>
        <time>2020-10-03T11:08:43.000Z</time>
      </trkpt>
      <trkpt lat="43.60662" lon="1.06184">
        <ele>138</ele>
        <time>2020-10-03T11:08:44.000Z</time>
      </trkpt>
      <trkpt lat="43.60662" lon="1.06181">
        <ele>138</ele>
        <time>2020-10-03T11:08:45.000Z</time>
      </trkpt>
      <trkpt lat="43.60661" lon="1.06177">
        <ele>138</ele>
        <time>2020-10-03T11:08:46.000Z</time>
      </trkpt>
      <trkpt lat="43.6066" lon="1.06174">
        <ele>138</ele>
        <time>2020-10-03T11:08:47.000Z</time>
      </trkpt>
      <trkpt lat="43.60659" lon="1.0617">
        <ele>138.36606857143</ele>
        <time>2020-10-03T11:08:48.000Z</time>
      </trkpt>
      <trkpt lat="43.60658" lon="1.06167">
        <ele>139</ele>
        <time>2020-10-03T11:08:49.000Z</time>
      </trkpt>
      <trkpt lat="43.60658" lon="1.06163">
        <ele>139</ele>
        <time>2020-10-03T11:08:50.000Z</time>
      </trkpt>
      <trkpt lat="43.60657" lon="1.0616">
        <ele>139</ele>
        <time>2020-10-03T11:08:51.000Z</time>
      </trkpt>
      <trkpt lat="43.60656" lon="1.06156">
        <ele>139</ele>
        <time>2020-10-03T11:08:52.000Z</time>
      </trkpt>
      <trkpt lat="43.60655" lon="1.06153">
        <ele>139</ele>
        <time>2020-10-03T11:08:53.000Z</time>
      </trkpt>
      <trkpt lat="43.60654" lon="1.06149">
        <ele>139</ele>
        <time>2020-10-03T11:08:54.000Z</time>
      </trkpt>
      <trkpt lat="43.60652" lon="1.06146">
        <ele>139</ele>
        <time>2020-10-03T11:08:55.000Z</time>
      </trkpt>
      <trkpt lat="43.60651" lon="1.06142">
        <ele>139</ele>
        <time>2020-10-03T11:08:56.000Z</time>
      </trkpt>
      <trkpt lat="43.6065" lon="1.06139">
        <ele>138.96202141966</ele>
        <time>2020-10-03T11:08:57.000Z</time>
      </trkpt>
      <trkpt lat="43.60649" lon="1.06136">
        <ele>138</ele>
        <time>2020-10-03T11:08:58.000Z</time>
      </trkpt>
      <trkpt lat="43.60648" lon="1.06132">
        <ele>138</ele>
        <time>2020-10-03T11:08:59.000Z</time>
      </trkpt>
      <trkpt lat="43.60646" lon="1.06129">
        <ele>138</ele>
        <time>2020-10-03T11:09:00.000Z</time>
      </trkpt>
      <trkpt lat="43.60645" lon="1.06125">
        <ele>138</ele>
        <time>2020-10-03T11:09:01.000Z</time>
      </trkpt>
      <trkpt lat="43.60643" lon="1.06122">
        <ele>138</ele>
        <time>2020-10-03T11:09:02.000Z</time>
      </trkpt>
      <trkpt lat="43.60642" lon="1.06118">
        <ele>138</ele>
        <time>2020-10-03T11:09:03.000Z</time>
      </trkpt>
      <trkpt lat="43.60641" lon="1.06115">
        <ele>138.34408720546</ele>
        <time>2020-10-03T11:09:04.000Z</time>
      </trkpt>
      <trkpt lat="43.60639" lon="1.06111">
        <ele>139</ele>
        <time>2020-10-03T11:09:05.000Z</time>
      </trkpt>
      <trkpt lat="43.60637" lon="1.06108">
        <ele>139</ele>
        <time>2020-10-03T11:09:06.000Z</time>
      </trkpt>
      <trkpt lat="43.60636" lon="1.06104">
        <ele>139</ele>
        <time>2020-10-03T11:09:07.000Z</time>
      </trkpt>
      <trkpt lat="43.60634" lon="1.061">
        <ele>139</ele>
        <time>2020-10-03T11:09:08.000Z</time>
      </trkpt>
      <trkpt lat="43.60633" lon="1.06096">
        <ele>139</ele>
        <time>2020-10-03T11:09:09.000Z</time>
      </trkpt>
      <trkpt lat="43.60632" lon="1.06093">
        <ele>139</ele>
        <time>2020-10-03T11:09:10.000Z</time>
      </trkpt>
      <trkpt lat="43.60631" lon="1.06089">
        <ele>139</ele>
        <time>2020-10-03T11:09:11.000Z</time>
      </trkpt>
      <trkpt lat="43.6063" lon="1.06085">
        <ele>139</ele>
        <time>2020-10-03T11:09:12.000Z</time>
      </trkpt>
      <trkpt lat="43.60628" lon="1.06082">
        <ele>139</ele>
        <time>2020-10-03T11:09:13.000Z</time>
      </trkpt>
      <trkpt lat="43.60627" lon="1.06078">
        <ele>139</ele>
        <time>2020-10-03T11:09:14.000Z</time>
      </trkpt>
      <trkpt lat="43.60626" lon="1.06075">
        <ele>139</ele>
        <time>2020-10-03T11:09:15.000Z</time>
      </trkpt>
      <trkpt lat="43.60625" lon="1.06071">
        <ele>139</ele>
        <time>2020-10-03T11:09:16.000Z</time>
      </trkpt>
      <trkpt lat="43.60623" lon="1.06068">
        <ele>139</ele>
        <time>2020-10-03T11:09:17.000Z</time>
      </trkpt>
      <trkpt lat="43.60622" lon="1.06064">
        <ele>139</ele>
        <time>2020-10-03T11:09:18.000Z</time>
      </trkpt>
      <trkpt lat="43.60621" lon="1.06061">
        <ele>138.96225275919</ele>
        <time>2020-10-03T11:09:19.000Z</time>
      </trkpt>
      <trkpt lat="43.6062" lon="1.06057">
        <ele>138</ele>
        <time>2020-10-03T11:09:20.000Z</time>
      </trkpt>
      <trkpt lat="43.60619" lon="1.06053">
        <ele>138</ele>
        <time>2020-10-03T11:09:21.000Z</time>
      </trkpt>
      <trkpt lat="43.60618" lon="1.0605">
        <ele>138.31395487289</ele>
        <time>2020-10-03T11:09:22.000Z</time>
      </trkpt>
      <trkpt lat="43.60616" lon="1.06046">
        <ele>139</ele>
        <time>2020-10-03T11:09:23.000Z</time>
      </trkpt>
      <trkpt lat="43.60615" lon="1.06042">
        <ele>139.32954181818</ele>
        <time>2020-10-03T11:09:24.000Z</time>
      </trkpt>
      <trkpt lat="43.60614" lon="1.06039">
        <ele>140</ele>
        <time>2020-10-03T11:09:25.000Z</time>
      </trkpt>
      <trkpt lat="43.60612" lon="1.06035">
        <ele>140</ele>
        <time>2020-10-03T11:09:26.000Z</time>
      </trkpt>
      <trkpt lat="43.60611" lon="1.06031">
        <ele>140</ele>
        <time>2020-10-03T11:09:27.000Z</time>
      </trkpt>
      <trkpt lat="43.6061" lon="1.06028">
        <ele>139.67415972732</ele>
        <time>2020-10-03T11:09:28.000Z</time>
      </trkpt>
      <trkpt lat="43.60609" lon="1.06024">
        <ele>139</ele>
        <time>2020-10-03T11:09:29.000Z</time>
      </trkpt>
      <trkpt lat="43.60607" lon="1.06021">
        <ele>139</ele>
        <time>2020-10-03T11:09:30.000Z</time>
      </trkpt>
      <trkpt lat="43.60606" lon="1.06017">
        <ele>139</ele>
        <time>2020-10-03T11:09:31.000Z</time>
      </trkpt>
      <trkpt lat="43.60604" lon="1.06014">
        <ele>139</ele>
        <time>2020-10-03T11:09:32.000Z</time>
      </trkpt>
      <trkpt lat="43.60603" lon="1.06011">
        <ele>138.62831607802</ele>
        <time>2020-10-03T11:09:33.000Z</time>
      </trkpt>
      <trkpt lat="43.60601" lon="1.06007">
        <ele>138</ele>
        <time>2020-10-03T11:09:34.000Z</time>
      </trkpt>
      <trkpt lat="43.606" lon="1.06004">
        <ele>138</ele>
        <time>2020-10-03T11:09:35.000Z</time>
      </trkpt>
      <trkpt lat="43.60599" lon="1.06">
        <ele>138</ele>
        <time>2020-10-03T11:09:36.000Z</time>
      </trkpt>
      <trkpt lat="43.60597" lon="1.05996">
        <ele>138</ele>
        <time>2020-10-03T11:09:37.000Z</time>
      </trkpt>
      <trkpt lat="43.60596" lon="1.05993">
        <ele>138</ele>
        <time>2020-10-03T11:09:38.000Z</time>
      </trkpt>
      <trkpt lat="43.60595" lon="1.05989">
        <ele>138.43820111603</ele>
        <time>2020-10-03T11:09:39.000Z</time>
      </trkpt>
      <trkpt lat="43.60594" lon="1.05986">
        <ele>139</ele>
        <time>2020-10-03T11:09:40.000Z</time>
      </trkpt>
      <trkpt lat="43.60592" lon="1.05983">
        <ele>139.43820111603</ele>
        <time>2020-10-03T11:09:41.000Z</time>
      </trkpt>
      <trkpt lat="43.60591" lon="1.05979">
        <ele>140</ele>
        <time>2020-10-03T11:09:42.000Z</time>
      </trkpt>
      <trkpt lat="43.6059" lon="1.05975">
        <ele>140</ele>
        <time>2020-10-03T11:09:43.000Z</time>
      </trkpt>
      <trkpt lat="43.60589" lon="1.05972">
        <ele>140</ele>
        <time>2020-10-03T11:09:44.000Z</time>
      </trkpt>
      <trkpt lat="43.60588" lon="1.05969">
        <ele>140</ele>
        <time>2020-10-03T11:09:45.000Z</time>
      </trkpt>
      <trkpt lat="43.60587" lon="1.05965">
        <ele>140</ele>
        <time>2020-10-03T11:09:46.000Z</time>
      </trkpt>
      <trkpt lat="43.60585" lon="1.05961">
        <ele>139.58715768707</ele>
        <time>2020-10-03T11:09:47.000Z</time>
      </trkpt>
      <trkpt lat="43.60584" lon="1.05958">
        <ele>139</ele>
        <time>2020-10-03T11:09:48.000Z</time>
      </trkpt>
      <trkpt lat="43.60583" lon="1.05954">
        <ele>139</ele>
        <time>2020-10-03T11:09:49.000Z</time>
      </trkpt>
      <trkpt lat="43.60582" lon="1.0595">
        <ele>139</ele>
        <time>2020-10-03T11:09:50.000Z</time>
      </trkpt>
      <trkpt lat="43.6058" lon="1.05947">
        <ele>139</ele>
        <time>2020-10-03T11:09:51.000Z</time>
      </trkpt>
      <trkpt lat="43.60579" lon="1.05943">
        <ele>139</ele>
        <time>2020-10-03T11:09:52.000Z</time>
      </trkpt>
      <trkpt lat="43.60578" lon="1.0594">
        <ele>139</ele>
        <time>2020-10-03T11:09:53.000Z</time>
      </trkpt>
      <trkpt lat="43.60577" lon="1.05936">
        <ele>139</ele>
        <time>2020-10-03T11:09:54.000Z</time>
      </trkpt>
      <trkpt lat="43.60576" lon="1.05932">
        <ele>139</ele>
        <time>2020-10-03T11:09:55.000Z</time>
      </trkpt>
      <trkpt lat="43.60575" lon="1.05928">
        <ele>139</ele>
        <time>2020-10-03T11:09:56.000Z</time>
      </trkpt>
      <trkpt lat="43.60574" lon="1.05925">
        <ele>139.3488323634</ele>
        <time>2020-10-03T11:09:57.000Z</time>
      </trkpt>
      <trkpt lat="43.60573" lon="1.05922">
        <ele>140</ele>
        <time>2020-10-03T11:09:58.000Z</time>
      </trkpt>
      <trkpt lat="43.60571" lon="1.05918">
        <ele>140</ele>
        <time>2020-10-03T11:09:59.000Z</time>
      </trkpt>
      <trkpt lat="43.6057" lon="1.05915">
        <ele>140</ele>
        <time>2020-10-03T11:10:00.000Z</time>
      </trkpt>
      <trkpt lat="43.60569" lon="1.05912">
        <ele>140</ele>
        <time>2020-10-03T11:10:01.000Z</time>
      </trkpt>
      <trkpt lat="43.60568" lon="1.05908">
        <ele>140</ele>
        <time>2020-10-03T11:10:02.000Z</time>
      </trkpt>
      <trkpt lat="43.60567" lon="1.05905">
        <ele>140</ele>
        <time>2020-10-03T11:10:03.000Z</time>
      </trkpt>
      <trkpt lat="43.60565" lon="1.05901">
        <ele>140</ele>
        <time>2020-10-03T11:10:04.000Z</time>
      </trkpt>
      <trkpt lat="43.60564" lon="1.05898">
        <ele>140</ele>
        <time>2020-10-03T11:10:05.000Z</time>
      </trkpt>
      <trkpt lat="43.60563" lon="1.05894">
        <ele>140</ele>
        <time>2020-10-03T11:10:06.000Z</time>
      </trkpt>
      <trkpt lat="43.60561" lon="1.05891">
        <ele>140</ele>
        <time>2020-10-03T11:10:07.000Z</time>
      </trkpt>
      <trkpt lat="43.6056" lon="1.05887">
        <ele>140</ele>
        <time>2020-10-03T11:10:08.000Z</time>
      </trkpt>
      <trkpt lat="43.60559" lon="1.05884">
        <ele>140</ele>
        <time>2020-10-03T11:10:09.000Z</time>
      </trkpt>
      <trkpt lat="43.60558" lon="1.05881">
        <ele>140</ele>
        <time>2020-10-03T11:10:10.000Z</time>
      </trkpt>
      <trkpt lat="43.60556" lon="1.05877">
        <ele>140</ele>
        <time>2020-10-03T11:10:11.000Z</time>
      </trkpt>
      <trkpt lat="43.60555" lon="1.05874">
        <ele>140</ele>
        <time>2020-10-03T11:10:12.000Z</time>
      </trkpt>
      <trkpt lat="43.60554" lon="1.0587">
        <ele>140</ele>
        <time>2020-10-03T11:10:13.000Z</time>
      </trkpt>
      <trkpt lat="43.60553" lon="1.05866">
        <ele>140</ele>
        <time>2020-10-03T11:10:14.000Z</time>
      </trkpt>
      <trkpt lat="43.60552" lon="1.05863">
        <ele>140</ele>
        <time>2020-10-03T11:10:15.000Z</time>
      </trkpt>
      <trkpt lat="43.6055" lon="1.05859">
        <ele>140</ele>
        <time>2020-10-03T11:10:16.000Z</time>
      </trkpt>
      <trkpt lat="43.60549" lon="1.05856">
        <ele>140</ele>
        <time>2020-10-03T11:10:17.000Z</time>
      </trkpt>
      <trkpt lat="43.60548" lon="1.05852">
        <ele>140</ele>
        <time>2020-10-03T11:10:18.000Z</time>
      </trkpt>
      <trkpt lat="43.60547" lon="1.05849">
        <ele>139.58474622235</ele>
        <time>2020-10-03T11:10:19.000Z</time>
      </trkpt>
      <trkpt lat="43.60545" lon="1.05845">
        <ele>139</ele>
        <time>2020-10-03T11:10:20.000Z</time>
      </trkpt>
      <trkpt lat="43.60544" lon="1.05842">
        <ele>139</ele>
        <time>2020-10-03T11:10:21.000Z</time>
      </trkpt>
      <trkpt lat="43.60543" lon="1.05838">
        <ele>139</ele>
        <time>2020-10-03T11:10:22.000Z</time>
      </trkpt>
      <trkpt lat="43.60542" lon="1.05835">
        <ele>139</ele>
        <time>2020-10-03T11:10:23.000Z</time>
      </trkpt>
      <trkpt lat="43.60541" lon="1.05831">
        <ele>139</ele>
        <time>2020-10-03T11:10:24.000Z</time>
      </trkpt>
      <trkpt lat="43.6054" lon="1.05828">
        <ele>139</ele>
        <time>2020-10-03T11:10:25.000Z</time>
      </trkpt>
      <trkpt lat="43.60539" lon="1.05824">
        <ele>139</ele>
        <time>2020-10-03T11:10:26.000Z</time>
      </trkpt>
      <trkpt lat="43.60538" lon="1.05821">
        <ele>139</ele>
        <time>2020-10-03T11:10:27.000Z</time>
      </trkpt>
      <trkpt lat="43.60536" lon="1.05818">
        <ele>139.29357884353</ele>
        <time>2020-10-03T11:10:28.000Z</time>
      </trkpt>
      <trkpt lat="43.60535" lon="1.05814">
        <ele>140</ele>
        <time>2020-10-03T11:10:29.000Z</time>
      </trkpt>
      <trkpt lat="43.60534" lon="1.05811">
        <ele>140</ele>
        <time>2020-10-03T11:10:30.000Z</time>
      </trkpt>
      <trkpt lat="43.60532" lon="1.05807">
        <ele>140</ele>
        <time>2020-10-03T11:10:31.000Z</time>
      </trkpt>
      <trkpt lat="43.60531" lon="1.05804">
        <ele>140</ele>
        <time>2020-10-03T11:10:32.000Z</time>
      </trkpt>
      <trkpt lat="43.6053" lon="1.058">
        <ele>140</ele>
        <time>2020-10-03T11:10:33.000Z</time>
      </trkpt>
      <trkpt lat="43.60528" lon="1.05797">
        <ele>139.56179258173</ele>
        <time>2020-10-03T11:10:34.000Z</time>
      </trkpt>
      <trkpt lat="43.60527" lon="1.05794">
        <ele>139</ele>
        <time>2020-10-03T11:10:35.000Z</time>
      </trkpt>
      <trkpt lat="43.60526" lon="1.05791">
        <ele>139</ele>
        <time>2020-10-03T11:10:36.000Z</time>
      </trkpt>
      <trkpt lat="43.60525" lon="1.05787">
        <ele>139</ele>
        <time>2020-10-03T11:10:37.000Z</time>
      </trkpt>
      <trkpt lat="43.60523" lon="1.05784">
        <ele>139.42055649927</ele>
        <time>2020-10-03T11:10:38.000Z</time>
      </trkpt>
      <trkpt lat="43.60522" lon="1.0578">
        <ele>140</ele>
        <time>2020-10-03T11:10:39.000Z</time>
      </trkpt>
      <trkpt lat="43.60521" lon="1.05777">
        <ele>140</ele>
        <time>2020-10-03T11:10:40.000Z</time>
      </trkpt>
      <trkpt lat="43.6052" lon="1.05773">
        <ele>140</ele>
        <time>2020-10-03T11:10:41.000Z</time>
      </trkpt>
      <trkpt lat="43.60519" lon="1.05769">
        <ele>139.7100032</ele>
        <time>2020-10-03T11:10:42.000Z</time>
      </trkpt>
      <trkpt lat="43.60518" lon="1.05766">
        <ele>139</ele>
        <time>2020-10-03T11:10:43.000Z</time>
      </trkpt>
      <trkpt lat="43.60517" lon="1.05763">
        <ele>139</ele>
        <time>2020-10-03T11:10:44.000Z</time>
      </trkpt>
      <trkpt lat="43.60515" lon="1.05759">
        <ele>138.67415972732</ele>
        <time>2020-10-03T11:10:45.000Z</time>
      </trkpt>
      <trkpt lat="43.60514" lon="1.05755">
        <ele>138</ele>
        <time>2020-10-03T11:10:46.000Z</time>
      </trkpt>
      <trkpt lat="43.60513" lon="1.05752">
        <ele>138.03637506109</ele>
        <time>2020-10-03T11:10:47.000Z</time>
      </trkpt>
      <trkpt lat="43.60511" lon="1.05748">
        <ele>139</ele>
        <time>2020-10-03T11:10:48.000Z</time>
      </trkpt>
      <trkpt lat="43.6051" lon="1.05745">
        <ele>139</ele>
        <time>2020-10-03T11:10:49.000Z</time>
      </trkpt>
      <trkpt lat="43.60509" lon="1.05742">
        <ele>139.33620965517</ele>
        <time>2020-10-03T11:10:50.000Z</time>
      </trkpt>
      <trkpt lat="43.60507" lon="1.05738">
        <ele>140</ele>
        <time>2020-10-03T11:10:51.000Z</time>
      </trkpt>
      <trkpt lat="43.60506" lon="1.05735">
        <ele>140</ele>
        <time>2020-10-03T11:10:52.000Z</time>
      </trkpt>
      <trkpt lat="43.60505" lon="1.05731">
        <ele>140</ele>
        <time>2020-10-03T11:10:53.000Z</time>
      </trkpt>
      <trkpt lat="43.60503" lon="1.05727">
        <ele>140</ele>
        <time>2020-10-03T11:10:54.000Z</time>
      </trkpt>
      <trkpt lat="43.60502" lon="1.05724">
        <ele>140</ele>
        <time>2020-10-03T11:10:55.000Z</time>
      </trkpt>
      <trkpt lat="43.60501" lon="1.05721">
        <ele>140</ele>
        <time>2020-10-03T11:10:56.000Z</time>
      </trkpt>
      <trkpt lat="43.605" lon="1.05717">
        <ele>140</ele>
        <time>2020-10-03T11:10:57.000Z</time>
      </trkpt>
      <trkpt lat="43.60499" lon="1.05714">
        <ele>140</ele>
        <time>2020-10-03T11:10:58.000Z</time>
      </trkpt>
      <trkpt lat="43.60498" lon="1.0571">
        <ele>140</ele>
        <time>2020-10-03T11:10:59.000Z</time>
      </trkpt>
      <trkpt lat="43.60497" lon="1.05706">
        <ele>140</ele>
        <time>2020-10-03T11:11:00.000Z</time>
      </trkpt>
      <trkpt lat="43.60495" lon="1.05703">
        <ele>140</ele>
        <time>2020-10-03T11:11:01.000Z</time>
      </trkpt>
      <trkpt lat="43.60494" lon="1.05699">
        <ele>140</ele>
        <time>2020-10-03T11:11:02.000Z</time>
      </trkpt>
      <trkpt lat="43.60493" lon="1.05696">
        <ele>140</ele>
        <time>2020-10-03T11:11:03.000Z</time>
      </trkpt>
      <trkpt lat="43.60492" lon="1.05692">
        <ele>140</ele>
        <time>2020-10-03T11:11:04.000Z</time>
      </trkpt>
      <trkpt lat="43.60491" lon="1.05689">
        <ele>140.07407319617</ele>
        <time>2020-10-03T11:11:05.000Z</time>
      </trkpt>
      <trkpt lat="43.6049" lon="1.05685">
        <ele>141</ele>
        <time>2020-10-03T11:11:06.000Z</time>
      </trkpt>
      <trkpt lat="43.60488" lon="1.05681">
        <ele>141</ele>
        <time>2020-10-03T11:11:07.000Z</time>
      </trkpt>
      <trkpt lat="43.60487" lon="1.05678">
        <ele>141</ele>
        <time>2020-10-03T11:11:08.000Z</time>
      </trkpt>
      <trkpt lat="43.60486" lon="1.05674">
        <ele>141</ele>
        <time>2020-10-03T11:11:09.000Z</time>
      </trkpt>
      <trkpt lat="43.60485" lon="1.05671">
        <ele>141</ele>
        <time>2020-10-03T11:11:10.000Z</time>
      </trkpt>
      <trkpt lat="43.60483" lon="1.05667">
        <ele>141</ele>
        <time>2020-10-03T11:11:11.000Z</time>
      </trkpt>
      <trkpt lat="43.60482" lon="1.05664">
        <ele>140.5913951856</ele>
        <time>2020-10-03T11:11:12.000Z</time>
      </trkpt>
      <trkpt lat="43.6048" lon="1.05661">
        <ele>140</ele>
        <time>2020-10-03T11:11:13.000Z</time>
      </trkpt>
      <trkpt lat="43.60479" lon="1.05658">
        <ele>139.59341153965</ele>
        <time>2020-10-03T11:11:14.000Z</time>
      </trkpt>
      <trkpt lat="43.60477" lon="1.05655">
        <ele>139</ele>
        <time>2020-10-03T11:11:15.000Z</time>
      </trkpt>
      <trkpt lat="43.60476" lon="1.05651">
        <ele>139</ele>
        <time>2020-10-03T11:11:16.000Z</time>
      </trkpt>
      <trkpt lat="43.60474" lon="1.05648">
        <ele>139</ele>
        <time>2020-10-03T11:11:17.000Z</time>
      </trkpt>
      <trkpt lat="43.60473" lon="1.05645">
        <ele>139</ele>
        <time>2020-10-03T11:11:18.000Z</time>
      </trkpt>
      <trkpt lat="43.60472" lon="1.05642">
        <ele>139</ele>
        <time>2020-10-03T11:11:19.000Z</time>
      </trkpt>
      <trkpt lat="43.60471" lon="1.05638">
        <ele>139</ele>
        <time>2020-10-03T11:11:20.000Z</time>
      </trkpt>
      <trkpt lat="43.60469" lon="1.05634">
        <ele>139</ele>
        <time>2020-10-03T11:11:21.000Z</time>
      </trkpt>
      <trkpt lat="43.60468" lon="1.05631">
        <ele>139</ele>
        <time>2020-10-03T11:11:22.000Z</time>
      </trkpt>
      <trkpt lat="43.60467" lon="1.05627">
        <ele>139</ele>
        <time>2020-10-03T11:11:23.000Z</time>
      </trkpt>
      <trkpt lat="43.60465" lon="1.05624">
        <ele>139</ele>
        <time>2020-10-03T11:11:24.000Z</time>
      </trkpt>
      <trkpt lat="43.60464" lon="1.0562">
        <ele>138.5</ele>
        <time>2020-10-03T11:11:25.000Z</time>
      </trkpt>
      <trkpt lat="43.60463" lon="1.05617">
        <ele>138.5</ele>
        <time>2020-10-03T11:11:26.000Z</time>
      </trkpt>
      <trkpt lat="43.60461" lon="1.05614">
        <ele>139</ele>
        <time>2020-10-03T11:11:27.000Z</time>
      </trkpt>
      <trkpt lat="43.6046" lon="1.05611">
        <ele>139</ele>
        <time>2020-10-03T11:11:28.000Z</time>
      </trkpt>
      <trkpt lat="43.60459" lon="1.05608">
        <ele>139</ele>
        <time>2020-10-03T11:11:29.000Z</time>
      </trkpt>
      <trkpt lat="43.60458" lon="1.05604">
        <ele>139</ele>
        <time>2020-10-03T11:11:30.000Z</time>
      </trkpt>
      <trkpt lat="43.60456" lon="1.05601">
        <ele>139</ele>
        <time>2020-10-03T11:11:31.000Z</time>
      </trkpt>
      <trkpt lat="43.60455" lon="1.05597">
        <ele>139</ele>
        <time>2020-10-03T11:11:32.000Z</time>
      </trkpt>
      <trkpt lat="43.60454" lon="1.05594">
        <ele>139</ele>
        <time>2020-10-03T11:11:33.000Z</time>
      </trkpt>
      <trkpt lat="43.60453" lon="1.0559">
        <ele>139</ele>
        <time>2020-10-03T11:11:34.000Z</time>
      </trkpt>
      <trkpt lat="43.60451" lon="1.05587">
        <ele>139</ele>
        <time>2020-10-03T11:11:35.000Z</time>
      </trkpt>
      <trkpt lat="43.6045" lon="1.05584">
        <ele>139</ele>
        <time>2020-10-03T11:11:36.000Z</time>
      </trkpt>
      <trkpt lat="43.60449" lon="1.05581">
        <ele>139.42528211391</ele>
        <time>2020-10-03T11:11:37.000Z</time>
      </trkpt>
      <trkpt lat="43.60448" lon="1.05577">
        <ele>140</ele>
        <time>2020-10-03T11:11:38.000Z</time>
      </trkpt>
      <trkpt lat="43.60448" lon="1.05574">
        <ele>140</ele>
        <time>2020-10-03T11:11:39.000Z</time>
      </trkpt>
      <trkpt lat="43.60448" lon="1.0557">
        <ele>140</ele>
        <time>2020-10-03T11:11:40.000Z</time>
      </trkpt>
      <trkpt lat="43.60449" lon="1.05567">
        <ele>140</ele>
        <time>2020-10-03T11:11:41.000Z</time>
      </trkpt>
      <trkpt lat="43.6045" lon="1.05563">
        <ele>140</ele>
        <time>2020-10-03T11:11:42.000Z</time>
      </trkpt>
      <trkpt lat="43.60451" lon="1.05559">
        <ele>140</ele>
        <time>2020-10-03T11:11:43.000Z</time>
      </trkpt>
      <trkpt lat="43.60453" lon="1.05556">
        <ele>140</ele>
        <time>2020-10-03T11:11:44.000Z</time>
      </trkpt>
      <trkpt lat="43.60456" lon="1.05554">
        <ele>140</ele>
        <time>2020-10-03T11:11:45.000Z</time>
      </trkpt>
      <trkpt lat="43.60458" lon="1.05551">
        <ele>140</ele>
        <time>2020-10-03T11:11:46.000Z</time>
      </trkpt>
      <trkpt lat="43.60461" lon="1.05549">
        <ele>140</ele>
        <time>2020-10-03T11:11:47.000Z</time>
      </trkpt>
      <trkpt lat="43.60463" lon="1.05546">
        <ele>140</ele>
        <time>2020-10-03T11:11:48.000Z</time>
      </trkpt>
      <trkpt lat="43.60465" lon="1.05544">
        <ele>140</ele>
        <time>2020-10-03T11:11:49.000Z</time>
      </trkpt>
      <trkpt lat="43.60467" lon="1.05542">
        <ele>140</ele>
        <time>2020-10-03T11:11:50.000Z</time>
      </trkpt>
      <trkpt lat="43.60469" lon="1.05539">
        <ele>140</ele>
        <time>2020-10-03T11:11:51.000Z</time>
      </trkpt>
      <trkpt lat="43.60471" lon="1.05537">
        <ele>140</ele>
        <time>2020-10-03T11:11:52.000Z</time>
      </trkpt>
      <trkpt lat="43.60474" lon="1.05534">
        <ele>140</ele>
        <time>2020-10-03T11:11:53.000Z</time>
      </trkpt>
      <trkpt lat="43.60476" lon="1.05532">
        <ele>140.45794504324</ele>
        <time>2020-10-03T11:11:54.000Z</time>
      </trkpt>
      <trkpt lat="43.60478" lon="1.0553">
        <ele>141</ele>
        <time>2020-10-03T11:11:55.000Z</time>
      </trkpt>
      <trkpt lat="43.60479" lon="1.05527">
        <ele>141</ele>
        <time>2020-10-03T11:11:56.000Z</time>
      </trkpt>
      <trkpt lat="43.60482" lon="1.05525">
        <ele>141</ele>
        <time>2020-10-03T11:11:57.000Z</time>
      </trkpt>
      <trkpt lat="43.60484" lon="1.05522">
        <ele>141</ele>
        <time>2020-10-03T11:11:58.000Z</time>
      </trkpt>
      <trkpt lat="43.60486" lon="1.0552">
        <ele>140.75824624084</ele>
        <time>2020-10-03T11:11:59.000Z</time>
      </trkpt>
      <trkpt lat="43.60488" lon="1.05517">
        <ele>140</ele>
        <time>2020-10-03T11:12:00.000Z</time>
      </trkpt>
      <trkpt lat="43.6049" lon="1.05514">
        <ele>140</ele>
        <time>2020-10-03T11:12:01.000Z</time>
      </trkpt>
      <trkpt lat="43.60492" lon="1.05511">
        <ele>140</ele>
        <time>2020-10-03T11:12:02.000Z</time>
      </trkpt>
      <trkpt lat="43.60494" lon="1.05509">
        <ele>140</ele>
        <time>2020-10-03T11:12:03.000Z</time>
      </trkpt>
      <trkpt lat="43.60495" lon="1.05505">
        <ele>140</ele>
        <time>2020-10-03T11:12:04.000Z</time>
      </trkpt>
      <trkpt lat="43.60497" lon="1.05503">
        <ele>140</ele>
        <time>2020-10-03T11:12:05.000Z</time>
      </trkpt>
      <trkpt lat="43.60499" lon="1.055">
        <ele>140</ele>
        <time>2020-10-03T11:12:06.000Z</time>
      </trkpt>
      <trkpt lat="43.605" lon="1.05497">
        <ele>140</ele>
        <time>2020-10-03T11:12:07.000Z</time>
      </trkpt>
      <trkpt lat="43.60501" lon="1.05493">
        <ele>140</ele>
        <time>2020-10-03T11:12:08.000Z</time>
      </trkpt>
      <trkpt lat="43.60503" lon="1.0549">
        <ele>140</ele>
        <time>2020-10-03T11:12:09.000Z</time>
      </trkpt>
      <trkpt lat="43.60504" lon="1.05486">
        <ele>140</ele>
        <time>2020-10-03T11:12:10.000Z</time>
      </trkpt>
      <trkpt lat="43.60505" lon="1.05482">
        <ele>140</ele>
        <time>2020-10-03T11:12:11.000Z</time>
      </trkpt>
      <trkpt lat="43.60506" lon="1.05479">
        <ele>140</ele>
        <time>2020-10-03T11:12:12.000Z</time>
      </trkpt>
      <trkpt lat="43.60507" lon="1.05476">
        <ele>140</ele>
        <time>2020-10-03T11:12:13.000Z</time>
      </trkpt>
      <trkpt lat="43.60508" lon="1.05473">
        <ele>140</ele>
        <time>2020-10-03T11:12:14.000Z</time>
      </trkpt>
      <trkpt lat="43.60509" lon="1.0547">
        <ele>140</ele>
        <time>2020-10-03T11:12:15.000Z</time>
      </trkpt>
      <trkpt lat="43.60511" lon="1.05466">
        <ele>140</ele>
        <time>2020-10-03T11:12:16.000Z</time>
      </trkpt>
      <trkpt lat="43.60512" lon="1.05463">
        <ele>140</ele>
        <time>2020-10-03T11:12:17.000Z</time>
      </trkpt>
      <trkpt lat="43.60513" lon="1.0546">
        <ele>140</ele>
        <time>2020-10-03T11:12:18.000Z</time>
      </trkpt>
      <trkpt lat="43.60515" lon="1.05457">
        <ele>140</ele>
        <time>2020-10-03T11:12:19.000Z</time>
      </trkpt>
      <trkpt lat="43.60516" lon="1.05454">
        <ele>140</ele>
        <time>2020-10-03T11:12:20.000Z</time>
      </trkpt>
      <trkpt lat="43.60518" lon="1.05451">
        <ele>140</ele>
        <time>2020-10-03T11:12:21.000Z</time>
      </trkpt>
      <trkpt lat="43.60519" lon="1.05448">
        <ele>140</ele>
        <time>2020-10-03T11:12:22.000Z</time>
      </trkpt>
      <trkpt lat="43.60521" lon="1.05446">
        <ele>140</ele>
        <time>2020-10-03T11:12:23.000Z</time>
      </trkpt>
      <trkpt lat="43.60522" lon="1.05443">
        <ele>140</ele>
        <time>2020-10-03T11:12:24.000Z</time>
      </trkpt>
      <trkpt lat="43.60524" lon="1.0544">
        <ele>140</ele>
        <time>2020-10-03T11:12:25.000Z</time>
      </trkpt>
      <trkpt lat="43.60525" lon="1.05436">
        <ele>140</ele>
        <time>2020-10-03T11:12:26.000Z</time>
      </trkpt>
      <trkpt lat="43.60527" lon="1.05434">
        <ele>140</ele>
        <time>2020-10-03T11:12:27.000Z</time>
      </trkpt>
      <trkpt lat="43.60528" lon="1.0543">
        <ele>140.46808829337</ele>
        <time>2020-10-03T11:12:28.000Z</time>
      </trkpt>
      <trkpt lat="43.6053" lon="1.05427">
        <ele>141</ele>
        <time>2020-10-03T11:12:29.000Z</time>
      </trkpt>
      <trkpt lat="43.60531" lon="1.05424">
        <ele>141</ele>
        <time>2020-10-03T11:12:30.000Z</time>
      </trkpt>
      <trkpt lat="43.60533" lon="1.05421">
        <ele>141</ele>
        <time>2020-10-03T11:12:31.000Z</time>
      </trkpt>
      <trkpt lat="43.60535" lon="1.05417">
        <ele>141</ele>
        <time>2020-10-03T11:12:32.000Z</time>
      </trkpt>
      <trkpt lat="43.60536" lon="1.05414">
        <ele>141</ele>
        <time>2020-10-03T11:12:33.000Z</time>
      </trkpt>
      <trkpt lat="43.60538" lon="1.05411">
        <ele>141</ele>
        <time>2020-10-03T11:12:34.000Z</time>
      </trkpt>
      <trkpt lat="43.6054" lon="1.05408">
        <ele>141</ele>
        <time>2020-10-03T11:12:35.000Z</time>
      </trkpt>
      <trkpt lat="43.60541" lon="1.05405">
        <ele>141</ele>
        <time>2020-10-03T11:12:36.000Z</time>
      </trkpt>
      <trkpt lat="43.60543" lon="1.05401">
        <ele>141</ele>
        <time>2020-10-03T11:12:37.000Z</time>
      </trkpt>
      <trkpt lat="43.60544" lon="1.05398">
        <ele>141</ele>
        <time>2020-10-03T11:12:38.000Z</time>
      </trkpt>
      <trkpt lat="43.60546" lon="1.05395">
        <ele>141.36363847935</ele>
        <time>2020-10-03T11:12:39.000Z</time>
      </trkpt>
      <trkpt lat="43.60547" lon="1.05392">
        <ele>142</ele>
        <time>2020-10-03T11:12:40.000Z</time>
      </trkpt>
      <trkpt lat="43.60549" lon="1.0539">
        <ele>142</ele>
        <time>2020-10-03T11:12:41.000Z</time>
      </trkpt>
      <trkpt lat="43.6055" lon="1.05387">
        <ele>142</ele>
        <time>2020-10-03T11:12:42.000Z</time>
      </trkpt>
      <trkpt lat="43.60551" lon="1.05384">
        <ele>142</ele>
        <time>2020-10-03T11:12:43.000Z</time>
      </trkpt>
      <trkpt lat="43.60552" lon="1.05381">
        <ele>142</ele>
        <time>2020-10-03T11:12:44.000Z</time>
      </trkpt>
      <trkpt lat="43.60553" lon="1.05378">
        <ele>142</ele>
        <time>2020-10-03T11:12:45.000Z</time>
      </trkpt>
      <trkpt lat="43.60554" lon="1.05375">
        <ele>142</ele>
        <time>2020-10-03T11:12:46.000Z</time>
      </trkpt>
      <trkpt lat="43.60555" lon="1.05371">
        <ele>142</ele>
        <time>2020-10-03T11:12:47.000Z</time>
      </trkpt>
      <trkpt lat="43.60556" lon="1.05368">
        <ele>142</ele>
        <time>2020-10-03T11:12:48.000Z</time>
      </trkpt>
      <trkpt lat="43.60557" lon="1.05365">
        <ele>142.42477996398</ele>
        <time>2020-10-03T11:12:49.000Z</time>
      </trkpt>
      <trkpt lat="43.60557" lon="1.05361">
        <ele>143</ele>
        <time>2020-10-03T11:12:50.000Z</time>
      </trkpt>
      <trkpt lat="43.60557" lon="1.05358">
        <ele>143</ele>
        <time>2020-10-03T11:12:51.000Z</time>
      </trkpt>
      <trkpt lat="43.60557" lon="1.05356">
        <ele>143.40000538946</ele>
        <time>2020-10-03T11:12:52.000Z</time>
      </trkpt>
      <trkpt lat="43.60556" lon="1.05353">
        <ele>144</ele>
        <time>2020-10-03T11:12:53.000Z</time>
      </trkpt>
      <trkpt lat="43.60555" lon="1.0535">
        <ele>144.36885177103</ele>
        <time>2020-10-03T11:12:54.000Z</time>
      </trkpt>
      <trkpt lat="43.60553" lon="1.05347">
        <ele>145</ele>
        <time>2020-10-03T11:12:55.000Z</time>
      </trkpt>
      <trkpt lat="43.60551" lon="1.05344">
        <ele>145</ele>
        <time>2020-10-03T11:12:56.000Z</time>
      </trkpt>
      <trkpt lat="43.60549" lon="1.05342">
        <ele>145</ele>
        <time>2020-10-03T11:12:57.000Z</time>
      </trkpt>
      <trkpt lat="43.60546" lon="1.0534">
        <ele>145</ele>
        <time>2020-10-03T11:12:58.000Z</time>
      </trkpt>
      <trkpt lat="43.60544" lon="1.05337">
        <ele>145</ele>
        <time>2020-10-03T11:12:59.000Z</time>
      </trkpt>
      <trkpt lat="43.60542" lon="1.05335">
        <ele>145</ele>
        <time>2020-10-03T11:13:00.000Z</time>
      </trkpt>
      <trkpt lat="43.60539" lon="1.05333">
        <ele>145</ele>
        <time>2020-10-03T11:13:01.000Z</time>
      </trkpt>
      <trkpt lat="43.60537" lon="1.05331">
        <ele>145.40625333333</ele>
        <time>2020-10-03T11:13:02.000Z</time>
      </trkpt>
      <trkpt lat="43.60534" lon="1.05329">
        <ele>146</ele>
        <time>2020-10-03T11:13:03.000Z</time>
      </trkpt>
      <trkpt lat="43.60532" lon="1.05327">
        <ele>146</ele>
        <time>2020-10-03T11:13:04.000Z</time>
      </trkpt>
      <trkpt lat="43.60529" lon="1.05324">
        <ele>146</ele>
        <time>2020-10-03T11:13:05.000Z</time>
      </trkpt>
      <trkpt lat="43.60527" lon="1.05322">
        <ele>146</ele>
        <time>2020-10-03T11:13:06.000Z</time>
      </trkpt>
      <trkpt lat="43.60525" lon="1.0532">
        <ele>145.57281686115</ele>
        <time>2020-10-03T11:13:07.000Z</time>
      </trkpt>
      <trkpt lat="43.60522" lon="1.05318">
        <ele>145</ele>
        <time>2020-10-03T11:13:08.000Z</time>
      </trkpt>
      <trkpt lat="43.6052" lon="1.05316">
        <ele>145</ele>
        <time>2020-10-03T11:13:09.000Z</time>
      </trkpt>
      <trkpt lat="43.60518" lon="1.05313">
        <ele>145</ele>
        <time>2020-10-03T11:13:10.000Z</time>
      </trkpt>
      <trkpt lat="43.60515" lon="1.05311">
        <ele>145</ele>
        <time>2020-10-03T11:13:11.000Z</time>
      </trkpt>
      <trkpt lat="43.60513" lon="1.05309">
        <ele>145</ele>
        <time>2020-10-03T11:13:12.000Z</time>
      </trkpt>
      <trkpt lat="43.60511" lon="1.05307">
        <ele>145</ele>
        <time>2020-10-03T11:13:13.000Z</time>
      </trkpt>
      <trkpt lat="43.60508" lon="1.05305">
        <ele>145</ele>
        <time>2020-10-03T11:13:14.000Z</time>
      </trkpt>
      <trkpt lat="43.60506" lon="1.05302">
        <ele>144.58427176367</ele>
        <time>2020-10-03T11:13:15.000Z</time>
      </trkpt>
      <trkpt lat="43.60503" lon="1.053">
        <ele>144</ele>
        <time>2020-10-03T11:13:16.000Z</time>
      </trkpt>
      <trkpt lat="43.60501" lon="1.05298">
        <ele>144</ele>
        <time>2020-10-03T11:13:17.000Z</time>
      </trkpt>
      <trkpt lat="43.60499" lon="1.05296">
        <ele>144</ele>
        <time>2020-10-03T11:13:18.000Z</time>
      </trkpt>
      <trkpt lat="43.60496" lon="1.05294">
        <ele>144</ele>
        <time>2020-10-03T11:13:19.000Z</time>
      </trkpt>
      <trkpt lat="43.60494" lon="1.05291">
        <ele>144</ele>
        <time>2020-10-03T11:13:20.000Z</time>
      </trkpt>
      <trkpt lat="43.60491" lon="1.05289">
        <ele>144</ele>
        <time>2020-10-03T11:13:21.000Z</time>
      </trkpt>
      <trkpt lat="43.60489" lon="1.05287">
        <ele>144</ele>
        <time>2020-10-03T11:13:22.000Z</time>
      </trkpt>
      <trkpt lat="43.60487" lon="1.05285">
        <ele>143.68493126666</ele>
        <time>2020-10-03T11:13:23.000Z</time>
      </trkpt>
      <trkpt lat="43.60484" lon="1.05282">
        <ele>143</ele>
        <time>2020-10-03T11:13:24.000Z</time>
      </trkpt>
      <trkpt lat="43.60482" lon="1.0528">
        <ele>143</ele>
        <time>2020-10-03T11:13:25.000Z</time>
      </trkpt>
      <trkpt lat="43.60479" lon="1.05278">
        <ele>143</ele>
        <time>2020-10-03T11:13:26.000Z</time>
      </trkpt>
      <trkpt lat="43.60477" lon="1.05275">
        <ele>143</ele>
        <time>2020-10-03T11:13:27.000Z</time>
      </trkpt>
      <trkpt lat="43.60475" lon="1.05273">
        <ele>143</ele>
        <time>2020-10-03T11:13:28.000Z</time>
      </trkpt>
      <trkpt lat="43.60472" lon="1.05271">
        <ele>143</ele>
        <time>2020-10-03T11:13:29.000Z</time>
      </trkpt>
      <trkpt lat="43.6047" lon="1.05268">
        <ele>143</ele>
        <time>2020-10-03T11:13:30.000Z</time>
      </trkpt>
      <trkpt lat="43.60468" lon="1.05266">
        <ele>143</ele>
        <time>2020-10-03T11:13:31.000Z</time>
      </trkpt>
      <trkpt lat="43.60466" lon="1.05263">
        <ele>142.58427176367</ele>
        <time>2020-10-03T11:13:32.000Z</time>
      </trkpt>
      <trkpt lat="43.60464" lon="1.05261">
        <ele>142</ele>
        <time>2020-10-03T11:13:33.000Z</time>
      </trkpt>
      <trkpt lat="43.60461" lon="1.05258">
        <ele>142</ele>
        <time>2020-10-03T11:13:34.000Z</time>
      </trkpt>
      <trkpt lat="43.60459" lon="1.05256">
        <ele>142</ele>
        <time>2020-10-03T11:13:35.000Z</time>
      </trkpt>
      <trkpt lat="43.60457" lon="1.05253">
        <ele>142</ele>
        <time>2020-10-03T11:13:36.000Z</time>
      </trkpt>
      <trkpt lat="43.60455" lon="1.05251">
        <ele>142</ele>
        <time>2020-10-03T11:13:37.000Z</time>
      </trkpt>
      <trkpt lat="43.60453" lon="1.05248">
        <ele>142</ele>
        <time>2020-10-03T11:13:38.000Z</time>
      </trkpt>
      <trkpt lat="43.6045" lon="1.05245">
        <ele>142</ele>
        <time>2020-10-03T11:13:39.000Z</time>
      </trkpt>
      <trkpt lat="43.60448" lon="1.05243">
        <ele>142</ele>
        <time>2020-10-03T11:13:40.000Z</time>
      </trkpt>
      <trkpt lat="43.60446" lon="1.0524">
        <ele>142</ele>
        <time>2020-10-03T11:13:41.000Z</time>
      </trkpt>
      <trkpt lat="43.60445" lon="1.05238">
        <ele>142</ele>
        <time>2020-10-03T11:13:42.000Z</time>
      </trkpt>
      <trkpt lat="43.60443" lon="1.05235">
        <ele>142</ele>
        <time>2020-10-03T11:13:43.000Z</time>
      </trkpt>
      <trkpt lat="43.60441" lon="1.05232">
        <ele>142</ele>
        <time>2020-10-03T11:13:44.000Z</time>
      </trkpt>
      <trkpt lat="43.60439" lon="1.05229">
        <ele>142</ele>
        <time>2020-10-03T11:13:45.000Z</time>
      </trkpt>
      <trkpt lat="43.60437" lon="1.05226">
        <ele>142</ele>
        <time>2020-10-03T11:13:46.000Z</time>
      </trkpt>
      <trkpt lat="43.60435" lon="1.05223">
        <ele>141.73214857143</ele>
        <time>2020-10-03T11:13:47.000Z</time>
      </trkpt>
      <trkpt lat="43.60433" lon="1.0522">
        <ele>141</ele>
        <time>2020-10-03T11:13:48.000Z</time>
      </trkpt>
      <trkpt lat="43.60431" lon="1.05216">
        <ele>141</ele>
        <time>2020-10-03T11:13:49.000Z</time>
      </trkpt>
      <trkpt lat="43.60429" lon="1.05213">
        <ele>141.45055068713</ele>
        <time>2020-10-03T11:13:50.000Z</time>
      </trkpt>
      <trkpt lat="43.60427" lon="1.0521">
        <ele>142</ele>
        <time>2020-10-03T11:13:51.000Z</time>
      </trkpt>
      <trkpt lat="43.60426" lon="1.05207">
        <ele>142</ele>
        <time>2020-10-03T11:13:52.000Z</time>
      </trkpt>
      <trkpt lat="43.60424" lon="1.05204">
        <ele>142</ele>
        <time>2020-10-03T11:13:53.000Z</time>
      </trkpt>
      <trkpt lat="43.60422" lon="1.05201">
        <ele>142</ele>
        <time>2020-10-03T11:13:54.000Z</time>
      </trkpt>
      <trkpt lat="43.60421" lon="1.05198">
        <ele>141.60417333333</ele>
        <time>2020-10-03T11:13:55.000Z</time>
      </trkpt>
      <trkpt lat="43.60419" lon="1.05195">
        <ele>141</ele>
        <time>2020-10-03T11:13:56.000Z</time>
      </trkpt>
      <trkpt lat="43.60417" lon="1.05192">
        <ele>141</ele>
        <time>2020-10-03T11:13:57.000Z</time>
      </trkpt>
      <trkpt lat="43.60416" lon="1.05189">
        <ele>141.47618583218</ele>
        <time>2020-10-03T11:13:58.000Z</time>
      </trkpt>
      <trkpt lat="43.60414" lon="1.05186">
        <ele>142</ele>
        <time>2020-10-03T11:13:59.000Z</time>
      </trkpt>
      <trkpt lat="43.60413" lon="1.05182">
        <ele>142</ele>
        <time>2020-10-03T11:14:00.000Z</time>
      </trkpt>
      <trkpt lat="43.60411" lon="1.05179">
        <ele>142</ele>
        <time>2020-10-03T11:14:01.000Z</time>
      </trkpt>
      <trkpt lat="43.60409" lon="1.05176">
        <ele>142</ele>
        <time>2020-10-03T11:14:02.000Z</time>
      </trkpt>
      <trkpt lat="43.60408" lon="1.05173">
        <ele>141.60550512583</ele>
        <time>2020-10-03T11:14:03.000Z</time>
      </trkpt>
      <trkpt lat="43.60406" lon="1.0517">
        <ele>141</ele>
        <time>2020-10-03T11:14:04.000Z</time>
      </trkpt>
      <trkpt lat="43.60404" lon="1.05167">
        <ele>141</ele>
        <time>2020-10-03T11:14:05.000Z</time>
      </trkpt>
      <trkpt lat="43.60402" lon="1.05165">
        <ele>141</ele>
        <time>2020-10-03T11:14:06.000Z</time>
      </trkpt>
      <trkpt lat="43.60401" lon="1.05162">
        <ele>141</ele>
        <time>2020-10-03T11:14:07.000Z</time>
      </trkpt>
      <trkpt lat="43.60399" lon="1.05159">
        <ele>141</ele>
        <time>2020-10-03T11:14:08.000Z</time>
      </trkpt>
      <trkpt lat="43.60397" lon="1.05156">
        <ele>141.44444128397</ele>
        <time>2020-10-03T11:14:09.000Z</time>
      </trkpt>
      <trkpt lat="43.60395" lon="1.05153">
        <ele>142</ele>
        <time>2020-10-03T11:14:10.000Z</time>
      </trkpt>
      <trkpt lat="43.60394" lon="1.0515">
        <ele>142</ele>
        <time>2020-10-03T11:14:11.000Z</time>
      </trkpt>
      <trkpt lat="43.60392" lon="1.05147">
        <ele>142</ele>
        <time>2020-10-03T11:14:12.000Z</time>
      </trkpt>
      <trkpt lat="43.6039" lon="1.05144">
        <ele>142</ele>
        <time>2020-10-03T11:14:13.000Z</time>
      </trkpt>
      <trkpt lat="43.60388" lon="1.05141">
        <ele>142</ele>
        <time>2020-10-03T11:14:14.000Z</time>
      </trkpt>
      <trkpt lat="43.60387" lon="1.05137">
        <ele>142</ele>
        <time>2020-10-03T11:14:15.000Z</time>
      </trkpt>
      <trkpt lat="43.60385" lon="1.05134">
        <ele>142</ele>
        <time>2020-10-03T11:14:16.000Z</time>
      </trkpt>
      <trkpt lat="43.60384" lon="1.0513">
        <ele>142</ele>
        <time>2020-10-03T11:14:17.000Z</time>
      </trkpt>
      <trkpt lat="43.60382" lon="1.05127">
        <ele>142</ele>
        <time>2020-10-03T11:14:18.000Z</time>
      </trkpt>
      <trkpt lat="43.60381" lon="1.05124">
        <ele>142</ele>
        <time>2020-10-03T11:14:19.000Z</time>
      </trkpt>
      <trkpt lat="43.6038" lon="1.0512">
        <ele>142</ele>
        <time>2020-10-03T11:14:20.000Z</time>
      </trkpt>
      <trkpt lat="43.60378" lon="1.05117">
        <ele>142</ele>
        <time>2020-10-03T11:14:21.000Z</time>
      </trkpt>
      <trkpt lat="43.60377" lon="1.05114">
        <ele>142</ele>
        <time>2020-10-03T11:14:22.000Z</time>
      </trkpt>
      <trkpt lat="43.60376" lon="1.0511">
        <ele>142</ele>
        <time>2020-10-03T11:14:23.000Z</time>
      </trkpt>
      <trkpt lat="43.60375" lon="1.05107">
        <ele>142</ele>
        <time>2020-10-03T11:14:24.000Z</time>
      </trkpt>
      <trkpt lat="43.60373" lon="1.05103">
        <ele>142</ele>
        <time>2020-10-03T11:14:25.000Z</time>
      </trkpt>
      <trkpt lat="43.60372" lon="1.051">
        <ele>142</ele>
        <time>2020-10-03T11:14:26.000Z</time>
      </trkpt>
      <trkpt lat="43.60371" lon="1.05096">
        <ele>141.58182156696</ele>
        <time>2020-10-03T11:14:27.000Z</time>
      </trkpt>
      <trkpt lat="43.6037" lon="1.05093">
        <ele>141</ele>
        <time>2020-10-03T11:14:28.000Z</time>
      </trkpt>
      <trkpt lat="43.60369" lon="1.05089">
        <ele>141</ele>
        <time>2020-10-03T11:14:29.000Z</time>
      </trkpt>
      <trkpt lat="43.60368" lon="1.05085">
        <ele>141.36283005403</ele>
        <time>2020-10-03T11:14:30.000Z</time>
      </trkpt>
      <trkpt lat="43.60368" lon="1.05081">
        <ele>142</ele>
        <time>2020-10-03T11:14:31.000Z</time>
      </trkpt>
      <trkpt lat="43.60369" lon="1.05077">
        <ele>142</ele>
        <time>2020-10-03T11:14:32.000Z</time>
      </trkpt>
      <trkpt lat="43.6037" lon="1.05073">
        <ele>142</ele>
        <time>2020-10-03T11:14:33.000Z</time>
      </trkpt>
      <trkpt lat="43.60371" lon="1.05069">
        <ele>142</ele>
        <time>2020-10-03T11:14:34.000Z</time>
      </trkpt>
      <trkpt lat="43.60373" lon="1.05065">
        <ele>141.60577230769</ele>
        <time>2020-10-03T11:14:35.000Z</time>
      </trkpt>
      <trkpt lat="43.60374" lon="1.05061">
        <ele>141</ele>
        <time>2020-10-03T11:14:36.000Z</time>
      </trkpt>
      <trkpt lat="43.60374" lon="1.05058">
        <ele>141</ele>
        <time>2020-10-03T11:14:37.000Z</time>
      </trkpt>
      <trkpt lat="43.60375" lon="1.05053">
        <ele>141.35537172598</ele>
        <time>2020-10-03T11:14:38.000Z</time>
      </trkpt>
      <trkpt lat="43.60375" lon="1.05049">
        <ele>142</ele>
        <time>2020-10-03T11:14:39.000Z</time>
      </trkpt>
      <trkpt lat="43.60375" lon="1.05045">
        <ele>142</ele>
        <time>2020-10-03T11:14:40.000Z</time>
      </trkpt>
      <trkpt lat="43.60375" lon="1.05041">
        <ele>142</ele>
        <time>2020-10-03T11:14:41.000Z</time>
      </trkpt>
      <trkpt lat="43.60374" lon="1.05037">
        <ele>142</ele>
        <time>2020-10-03T11:14:42.000Z</time>
      </trkpt>
      <trkpt lat="43.60374" lon="1.05033">
        <ele>141.60784067665</ele>
        <time>2020-10-03T11:14:43.000Z</time>
      </trkpt>
      <trkpt lat="43.60373" lon="1.05029">
        <ele>141</ele>
        <time>2020-10-03T11:14:44.000Z</time>
      </trkpt>
      <trkpt lat="43.60372" lon="1.05025">
        <ele>141</ele>
        <time>2020-10-03T11:14:45.000Z</time>
      </trkpt>
      <trkpt lat="43.60371" lon="1.05022">
        <ele>141</ele>
        <time>2020-10-03T11:14:46.000Z</time>
      </trkpt>
      <trkpt lat="43.6037" lon="1.05018">
        <ele>141</ele>
        <time>2020-10-03T11:14:47.000Z</time>
      </trkpt>
      <trkpt lat="43.60369" lon="1.05014">
        <ele>141</ele>
        <time>2020-10-03T11:14:48.000Z</time>
      </trkpt>
      <trkpt lat="43.60368" lon="1.0501">
        <ele>141</ele>
        <time>2020-10-03T11:14:49.000Z</time>
      </trkpt>
      <trkpt lat="43.60367" lon="1.05007">
        <ele>141</ele>
        <time>2020-10-03T11:14:50.000Z</time>
      </trkpt>
      <trkpt lat="43.60366" lon="1.05003">
        <ele>141</ele>
        <time>2020-10-03T11:14:51.000Z</time>
      </trkpt>
      <trkpt lat="43.60365" lon="1.04999">
        <ele>141</ele>
        <time>2020-10-03T11:14:52.000Z</time>
      </trkpt>
      <trkpt lat="43.60364" lon="1.04995">
        <ele>141</ele>
        <time>2020-10-03T11:14:53.000Z</time>
      </trkpt>
      <trkpt lat="43.60364" lon="1.04991">
        <ele>141</ele>
        <time>2020-10-03T11:14:54.000Z</time>
      </trkpt>
      <trkpt lat="43.60363" lon="1.04987">
        <ele>141</ele>
        <time>2020-10-03T11:14:55.000Z</time>
      </trkpt>
      <trkpt lat="43.60363" lon="1.04983">
        <ele>141</ele>
        <time>2020-10-03T11:14:56.000Z</time>
      </trkpt>
      <trkpt lat="43.60363" lon="1.04979">
        <ele>141</ele>
        <time>2020-10-03T11:14:57.000Z</time>
      </trkpt>
      <trkpt lat="43.60363" lon="1.04975">
        <ele>141</ele>
        <time>2020-10-03T11:14:58.000Z</time>
      </trkpt>
      <trkpt lat="43.60364" lon="1.04971">
        <ele>141</ele>
        <time>2020-10-03T11:14:59.000Z</time>
      </trkpt>
      <trkpt lat="43.60365" lon="1.04967">
        <ele>141</ele>
        <time>2020-10-03T11:15:00.000Z</time>
      </trkpt>
      <trkpt lat="43.60366" lon="1.04963">
        <ele>141</ele>
        <time>2020-10-03T11:15:01.000Z</time>
      </trkpt>
      <trkpt lat="43.60367" lon="1.04959">
        <ele>141</ele>
        <time>2020-10-03T11:15:02.000Z</time>
      </trkpt>
      <trkpt lat="43.60368" lon="1.04955">
        <ele>141</ele>
        <time>2020-10-03T11:15:03.000Z</time>
      </trkpt>
      <trkpt lat="43.6037" lon="1.04951">
        <ele>141</ele>
        <time>2020-10-03T11:15:04.000Z</time>
      </trkpt>
      <trkpt lat="43.60371" lon="1.04947">
        <ele>141</ele>
        <time>2020-10-03T11:15:05.000Z</time>
      </trkpt>
      <trkpt lat="43.60372" lon="1.04943">
        <ele>141</ele>
        <time>2020-10-03T11:15:06.000Z</time>
      </trkpt>
      <trkpt lat="43.60374" lon="1.0494">
        <ele>141</ele>
        <time>2020-10-03T11:15:07.000Z</time>
      </trkpt>
      <trkpt lat="43.60375" lon="1.04936">
        <ele>141</ele>
        <time>2020-10-03T11:15:08.000Z</time>
      </trkpt>
      <trkpt lat="43.60376" lon="1.04933">
        <ele>141</ele>
        <time>2020-10-03T11:15:09.000Z</time>
      </trkpt>
      <trkpt lat="43.60378" lon="1.0493">
        <ele>141</ele>
        <time>2020-10-03T11:15:10.000Z</time>
      </trkpt>
      <trkpt lat="43.60379" lon="1.04926">
        <ele>141</ele>
        <time>2020-10-03T11:15:11.000Z</time>
      </trkpt>
      <trkpt lat="43.60381" lon="1.04923">
        <ele>141.45871107145</ele>
        <time>2020-10-03T11:15:12.000Z</time>
      </trkpt>
      <trkpt lat="43.60382" lon="1.04919">
        <ele>142</ele>
        <time>2020-10-03T11:15:13.000Z</time>
      </trkpt>
      <trkpt lat="43.60383" lon="1.04916">
        <ele>142</ele>
        <time>2020-10-03T11:15:14.000Z</time>
      </trkpt>
      <trkpt lat="43.60384" lon="1.04912">
        <ele>142</ele>
        <time>2020-10-03T11:15:15.000Z</time>
      </trkpt>
      <trkpt lat="43.60386" lon="1.04908">
        <ele>142</ele>
        <time>2020-10-03T11:15:16.000Z</time>
      </trkpt>
      <trkpt lat="43.60387" lon="1.04905">
        <ele>142</ele>
        <time>2020-10-03T11:15:17.000Z</time>
      </trkpt>
      <trkpt lat="43.60388" lon="1.04902">
        <ele>142</ele>
        <time>2020-10-03T11:15:18.000Z</time>
      </trkpt>
      <trkpt lat="43.60389" lon="1.04898">
        <ele>142</ele>
        <time>2020-10-03T11:15:19.000Z</time>
      </trkpt>
      <trkpt lat="43.6039" lon="1.04895">
        <ele>142.45871107145</ele>
        <time>2020-10-03T11:15:20.000Z</time>
      </trkpt>
      <trkpt lat="43.60392" lon="1.04891">
        <ele>143</ele>
        <time>2020-10-03T11:15:21.000Z</time>
      </trkpt>
      <trkpt lat="43.60393" lon="1.04887">
        <ele>143</ele>
        <time>2020-10-03T11:15:22.000Z</time>
      </trkpt>
      <trkpt lat="43.60394" lon="1.04884">
        <ele>143</ele>
        <time>2020-10-03T11:15:23.000Z</time>
      </trkpt>
      <trkpt lat="43.60395" lon="1.0488">
        <ele>143</ele>
        <time>2020-10-03T11:15:24.000Z</time>
      </trkpt>
      <trkpt lat="43.60396" lon="1.04876">
        <ele>143</ele>
        <time>2020-10-03T11:15:25.000Z</time>
      </trkpt>
      <trkpt lat="43.60398" lon="1.04873">
        <ele>143</ele>
        <time>2020-10-03T11:15:26.000Z</time>
      </trkpt>
      <trkpt lat="43.60399" lon="1.0487">
        <ele>143</ele>
        <time>2020-10-03T11:15:27.000Z</time>
      </trkpt>
      <trkpt lat="43.604" lon="1.04866">
        <ele>143</ele>
        <time>2020-10-03T11:15:28.000Z</time>
      </trkpt>
      <trkpt lat="43.60401" lon="1.04863">
        <ele>143</ele>
        <time>2020-10-03T11:15:29.000Z</time>
      </trkpt>
      <trkpt lat="43.60402" lon="1.04859">
        <ele>143</ele>
        <time>2020-10-03T11:15:30.000Z</time>
      </trkpt>
      <trkpt lat="43.60404" lon="1.04856">
        <ele>143</ele>
        <time>2020-10-03T11:15:31.000Z</time>
      </trkpt>
      <trkpt lat="43.60405" lon="1.04853">
        <ele>143</ele>
        <time>2020-10-03T11:15:32.000Z</time>
      </trkpt>
      <trkpt lat="43.60406" lon="1.0485">
        <ele>143</ele>
        <time>2020-10-03T11:15:33.000Z</time>
      </trkpt>
      <trkpt lat="43.60408" lon="1.04847">
        <ele>143</ele>
        <time>2020-10-03T11:15:34.000Z</time>
      </trkpt>
      <trkpt lat="43.60409" lon="1.04844">
        <ele>143</ele>
        <time>2020-10-03T11:15:35.000Z</time>
      </trkpt>
      <trkpt lat="43.60411" lon="1.04842">
        <ele>143.23375889354</ele>
        <time>2020-10-03T11:15:36.000Z</time>
      </trkpt>
      <trkpt lat="43.60412" lon="1.04839">
        <ele>145</ele>
        <time>2020-10-03T11:15:37.000Z</time>
      </trkpt>
      <trkpt lat="43.60414" lon="1.04837">
        <ele>145</ele>
        <time>2020-10-03T11:15:38.000Z</time>
      </trkpt>
      <trkpt lat="43.60416" lon="1.04833">
        <ele>146</ele>
        <time>2020-10-03T11:15:40.000Z</time>
      </trkpt>
      <trkpt lat="43.60418" lon="1.04831">
        <ele>146</ele>
        <time>2020-10-03T11:15:41.000Z</time>
      </trkpt>
      <trkpt lat="43.6042" lon="1.0483">
        <ele>146</ele>
        <time>2020-10-03T11:15:42.000Z</time>
      </trkpt>
      <trkpt lat="43.60422" lon="1.04826">
        <ele>146</ele>
        <time>2020-10-03T11:15:43.000Z</time>
      </trkpt>
      <trkpt lat="43.60423" lon="1.04823">
        <ele>146</ele>
        <time>2020-10-03T11:15:44.000Z</time>
      </trkpt>
      <trkpt lat="43.60425" lon="1.0482">
        <ele>146</ele>
        <time>2020-10-03T11:15:45.000Z</time>
      </trkpt>
      <trkpt lat="43.60427" lon="1.04817">
        <ele>146</ele>
        <time>2020-10-03T11:15:46.000Z</time>
      </trkpt>
      <trkpt lat="43.60429" lon="1.04814">
        <ele>146</ele>
        <time>2020-10-03T11:15:47.000Z</time>
      </trkpt>
      <trkpt lat="43.60431" lon="1.04812">
        <ele>146</ele>
        <time>2020-10-03T11:15:48.000Z</time>
      </trkpt>
      <trkpt lat="43.60433" lon="1.04809">
        <ele>145.71429283862</ele>
        <time>2020-10-03T11:15:49.000Z</time>
      </trkpt>
      <trkpt lat="43.60436" lon="1.04807">
        <ele>145</ele>
        <time>2020-10-03T11:15:50.000Z</time>
      </trkpt>
      <trkpt lat="43.60439" lon="1.04804">
        <ele>145</ele>
        <time>2020-10-03T11:15:51.000Z</time>
      </trkpt>
      <trkpt lat="43.60441" lon="1.04801">
        <ele>145</ele>
        <time>2020-10-03T11:15:52.000Z</time>
      </trkpt>
      <trkpt lat="43.60443" lon="1.04798">
        <ele>145</ele>
        <time>2020-10-03T11:15:53.000Z</time>
      </trkpt>
      <trkpt lat="43.60446" lon="1.04795">
        <ele>145</ele>
        <time>2020-10-03T11:15:54.000Z</time>
      </trkpt>
      <trkpt lat="43.60448" lon="1.04791">
        <ele>144.42858567724</ele>
        <time>2020-10-03T11:15:55.000Z</time>
      </trkpt>
      <trkpt lat="43.6045" lon="1.04788">
        <ele>143</ele>
        <time>2020-10-03T11:15:56.000Z</time>
      </trkpt>
      <trkpt lat="43.60452" lon="1.04785">
        <ele>143</ele>
        <time>2020-10-03T11:15:57.000Z</time>
      </trkpt>
      <trkpt lat="43.60454" lon="1.04782">
        <ele>142.64601669668</ele>
        <time>2020-10-03T11:15:58.000Z</time>
      </trkpt>
      <trkpt lat="43.60455" lon="1.04779">
        <ele>142</ele>
        <time>2020-10-03T11:15:59.000Z</time>
      </trkpt>
      <trkpt lat="43.60457" lon="1.04776">
        <ele>142</ele>
        <time>2020-10-03T11:16:00.000Z</time>
      </trkpt>
      <trkpt lat="43.60458" lon="1.04772">
        <ele>142</ele>
        <time>2020-10-03T11:16:01.000Z</time>
      </trkpt>
      <trkpt lat="43.6046" lon="1.04769">
        <ele>142</ele>
        <time>2020-10-03T11:16:02.000Z</time>
      </trkpt>
      <trkpt lat="43.60461" lon="1.04766">
        <ele>142.39805885569</ele>
        <time>2020-10-03T11:16:03.000Z</time>
      </trkpt>
      <trkpt lat="43.60462" lon="1.04763">
        <ele>143</ele>
        <time>2020-10-03T11:16:04.000Z</time>
      </trkpt>
      <trkpt lat="43.60464" lon="1.0476">
        <ele>143</ele>
        <time>2020-10-03T11:16:05.000Z</time>
      </trkpt>
      <trkpt lat="43.60465" lon="1.04756">
        <ele>143</ele>
        <time>2020-10-03T11:16:06.000Z</time>
      </trkpt>
      <trkpt lat="43.60467" lon="1.04753">
        <ele>142.50980072282</ele>
        <time>2020-10-03T11:16:07.000Z</time>
      </trkpt>
      <trkpt lat="43.60468" lon="1.04749">
        <ele>142</ele>
        <time>2020-10-03T11:16:08.000Z</time>
      </trkpt>
      <trkpt lat="43.60469" lon="1.04746">
        <ele>142</ele>
        <time>2020-10-03T11:16:09.000Z</time>
      </trkpt>
      <trkpt lat="43.6047" lon="1.04742">
        <ele>142</ele>
        <time>2020-10-03T11:16:10.000Z</time>
      </trkpt>
      <trkpt lat="43.60472" lon="1.0474">
        <ele>142</ele>
        <time>2020-10-03T11:16:11.000Z</time>
      </trkpt>
      <trkpt lat="43.60474" lon="1.04736">
        <ele>142</ele>
        <time>2020-10-03T11:16:12.000Z</time>
      </trkpt>
      <trkpt lat="43.60475" lon="1.04733">
        <ele>142</ele>
        <time>2020-10-03T11:16:13.000Z</time>
      </trkpt>
      <trkpt lat="43.60476" lon="1.0473">
        <ele>142</ele>
        <time>2020-10-03T11:16:14.000Z</time>
      </trkpt>
      <trkpt lat="43.60478" lon="1.04727">
        <ele>142</ele>
        <time>2020-10-03T11:16:15.000Z</time>
      </trkpt>
      <trkpt lat="43.60479" lon="1.04724">
        <ele>142</ele>
        <time>2020-10-03T11:16:16.000Z</time>
      </trkpt>
      <trkpt lat="43.60481" lon="1.04721">
        <ele>142</ele>
        <time>2020-10-03T11:16:17.000Z</time>
      </trkpt>
      <trkpt lat="43.60482" lon="1.04718">
        <ele>142</ele>
        <time>2020-10-03T11:16:18.000Z</time>
      </trkpt>
      <trkpt lat="43.60484" lon="1.04714">
        <ele>142</ele>
        <time>2020-10-03T11:16:19.000Z</time>
      </trkpt>
      <trkpt lat="43.60485" lon="1.04711">
        <ele>142</ele>
        <time>2020-10-03T11:16:20.000Z</time>
      </trkpt>
      <trkpt lat="43.60487" lon="1.04708">
        <ele>142</ele>
        <time>2020-10-03T11:16:21.000Z</time>
      </trkpt>
      <trkpt lat="43.60488" lon="1.04705">
        <ele>142</ele>
        <time>2020-10-03T11:16:22.000Z</time>
      </trkpt>
      <trkpt lat="43.6049" lon="1.04702">
        <ele>142</ele>
        <time>2020-10-03T11:16:23.000Z</time>
      </trkpt>
      <trkpt lat="43.60492" lon="1.04699">
        <ele>142</ele>
        <time>2020-10-03T11:16:24.000Z</time>
      </trkpt>
      <trkpt lat="43.60493" lon="1.04696">
        <ele>142</ele>
        <time>2020-10-03T11:16:25.000Z</time>
      </trkpt>
      <trkpt lat="43.60495" lon="1.04693">
        <ele>142</ele>
        <time>2020-10-03T11:16:26.000Z</time>
      </trkpt>
      <trkpt lat="43.60497" lon="1.0469">
        <ele>142</ele>
        <time>2020-10-03T11:16:27.000Z</time>
      </trkpt>
      <trkpt lat="43.60498" lon="1.04687">
        <ele>142</ele>
        <time>2020-10-03T11:16:28.000Z</time>
      </trkpt>
      <trkpt lat="43.605" lon="1.04684">
        <ele>142</ele>
        <time>2020-10-03T11:16:29.000Z</time>
      </trkpt>
      <trkpt lat="43.60502" lon="1.04681">
        <ele>142</ele>
        <time>2020-10-03T11:16:30.000Z</time>
      </trkpt>
      <trkpt lat="43.60503" lon="1.04678">
        <ele>142</ele>
        <time>2020-10-03T11:16:31.000Z</time>
      </trkpt>
      <trkpt lat="43.60505" lon="1.04675">
        <ele>142</ele>
        <time>2020-10-03T11:16:32.000Z</time>
      </trkpt>
      <trkpt lat="43.60506" lon="1.04672">
        <ele>142.10256494412</ele>
        <time>2020-10-03T11:16:33.000Z</time>
      </trkpt>
      <trkpt lat="43.60508" lon="1.04669">
        <ele>143</ele>
        <time>2020-10-03T11:16:34.000Z</time>
      </trkpt>
      <trkpt lat="43.60509" lon="1.04666">
        <ele>143</ele>
        <time>2020-10-03T11:16:35.000Z</time>
      </trkpt>
      <trkpt lat="43.60511" lon="1.04663">
        <ele>143</ele>
        <time>2020-10-03T11:16:36.000Z</time>
      </trkpt>
      <trkpt lat="43.60513" lon="1.04659">
        <ele>143</ele>
        <time>2020-10-03T11:16:37.000Z</time>
      </trkpt>
      <trkpt lat="43.60514" lon="1.04656">
        <ele>143</ele>
        <time>2020-10-03T11:16:38.000Z</time>
      </trkpt>
      <trkpt lat="43.60516" lon="1.04653">
        <ele>143</ele>
        <time>2020-10-03T11:16:39.000Z</time>
      </trkpt>
      <trkpt lat="43.60517" lon="1.04651">
        <ele>143</ele>
        <time>2020-10-03T11:16:40.000Z</time>
      </trkpt>
      <trkpt lat="43.60519" lon="1.04648">
        <ele>143</ele>
        <time>2020-10-03T11:16:41.000Z</time>
      </trkpt>
      <trkpt lat="43.6052" lon="1.04645">
        <ele>143</ele>
        <time>2020-10-03T11:16:42.000Z</time>
      </trkpt>
      <trkpt lat="43.60522" lon="1.04642">
        <ele>143</ele>
        <time>2020-10-03T11:16:43.000Z</time>
      </trkpt>
      <trkpt lat="43.60523" lon="1.04639">
        <ele>143</ele>
        <time>2020-10-03T11:16:44.000Z</time>
      </trkpt>
      <trkpt lat="43.60525" lon="1.04636">
        <ele>143</ele>
        <time>2020-10-03T11:16:45.000Z</time>
      </trkpt>
      <trkpt lat="43.60527" lon="1.04633">
        <ele>143</ele>
        <time>2020-10-03T11:16:46.000Z</time>
      </trkpt>
      <trkpt lat="43.60528" lon="1.0463">
        <ele>143</ele>
        <time>2020-10-03T11:16:47.000Z</time>
      </trkpt>
      <trkpt lat="43.6053" lon="1.04627">
        <ele>142.5</ele>
        <time>2020-10-03T11:16:48.000Z</time>
      </trkpt>
      <trkpt lat="43.60532" lon="1.04624">
        <ele>142.45871742781</ele>
        <time>2020-10-03T11:16:49.000Z</time>
      </trkpt>
      <trkpt lat="43.60533" lon="1.04621">
        <ele>143.45055068713</ele>
        <time>2020-10-03T11:16:50.000Z</time>
      </trkpt>
      <trkpt lat="43.60535" lon="1.04618">
        <ele>144</ele>
        <time>2020-10-03T11:16:51.000Z</time>
      </trkpt>
      <trkpt lat="43.60536" lon="1.04615">
        <ele>144</ele>
        <time>2020-10-03T11:16:52.000Z</time>
      </trkpt>
      <trkpt lat="43.60538" lon="1.04612">
        <ele>144</ele>
        <time>2020-10-03T11:16:53.000Z</time>
      </trkpt>
      <trkpt lat="43.60539" lon="1.04609">
        <ele>144</ele>
        <time>2020-10-03T11:16:54.000Z</time>
      </trkpt>
      <trkpt lat="43.60541" lon="1.04606">
        <ele>144</ele>
        <time>2020-10-03T11:16:55.000Z</time>
      </trkpt>
      <trkpt lat="43.60543" lon="1.04603">
        <ele>144</ele>
        <time>2020-10-03T11:16:56.000Z</time>
      </trkpt>
      <trkpt lat="43.60544" lon="1.046">
        <ele>144</ele>
        <time>2020-10-03T11:16:57.000Z</time>
      </trkpt>
      <trkpt lat="43.60545" lon="1.04597">
        <ele>144</ele>
        <time>2020-10-03T11:16:58.000Z</time>
      </trkpt>
      <trkpt lat="43.60547" lon="1.04594">
        <ele>144</ele>
        <time>2020-10-03T11:17:00.000Z</time>
      </trkpt>
      <trkpt lat="43.60548" lon="1.0459">
        <ele>145</ele>
        <time>2020-10-03T11:17:23.000Z</time>
      </trkpt>
      <trkpt lat="43.60549" lon="1.04587">
        <ele>144.73468907958</ele>
        <time>2020-10-03T11:17:25.000Z</time>
      </trkpt>
      <trkpt lat="43.60551" lon="1.04584">
        <ele>144</ele>
        <time>2020-10-03T11:17:27.000Z</time>
      </trkpt>
      <trkpt lat="43.60553" lon="1.04581">
        <ele>144</ele>
        <time>2020-10-03T11:17:29.000Z</time>
      </trkpt>
      <trkpt lat="43.60554" lon="1.04578">
        <ele>144</ele>
        <time>2020-10-03T11:17:31.000Z</time>
      </trkpt>
      <trkpt lat="43.60556" lon="1.04574">
        <ele>144</ele>
        <time>2020-10-03T11:17:33.000Z</time>
      </trkpt>
      <trkpt lat="43.60557" lon="1.04572">
        <ele>143</ele>
        <time>2020-10-03T11:17:35.000Z</time>
      </trkpt>
      <trkpt lat="43.60559" lon="1.04569">
        <ele>142.54717254537</ele>
        <time>2020-10-03T11:17:37.000Z</time>
      </trkpt>
      <trkpt lat="43.6056" lon="1.04567">
        <ele>142</ele>
        <time>2020-10-03T11:17:38.000Z</time>
      </trkpt>
      <trkpt lat="43.60562" lon="1.04564">
        <ele>142.48544159863</ele>
        <time>2020-10-03T11:17:39.000Z</time>
      </trkpt>
      <trkpt lat="43.60563" lon="1.04561">
        <ele>143</ele>
        <time>2020-10-03T11:17:40.000Z</time>
      </trkpt>
      <trkpt lat="43.60565" lon="1.04558">
        <ele>143</ele>
        <time>2020-10-03T11:17:41.000Z</time>
      </trkpt>
      <trkpt lat="43.60566" lon="1.04555">
        <ele>143</ele>
        <time>2020-10-03T11:17:42.000Z</time>
      </trkpt>
      <trkpt lat="43.60568" lon="1.04552">
        <ele>143</ele>
        <time>2020-10-03T11:17:43.000Z</time>
      </trkpt>
      <trkpt lat="43.6057" lon="1.04548">
        <ele>143</ele>
        <time>2020-10-03T11:17:44.000Z</time>
      </trkpt>
      <trkpt lat="43.60571" lon="1.04545">
        <ele>143</ele>
        <time>2020-10-03T11:17:45.000Z</time>
      </trkpt>
      <trkpt lat="43.60573" lon="1.04542">
        <ele>143</ele>
        <time>2020-10-03T11:17:46.000Z</time>
      </trkpt>
      <trkpt lat="43.60575" lon="1.04539">
        <ele>143</ele>
        <time>2020-10-03T11:17:47.000Z</time>
      </trkpt>
      <trkpt lat="43.60576" lon="1.04535">
        <ele>143</ele>
        <time>2020-10-03T11:17:48.000Z</time>
      </trkpt>
      <trkpt lat="43.60578" lon="1.04532">
        <ele>143</ele>
        <time>2020-10-03T11:17:49.000Z</time>
      </trkpt>
      <trkpt lat="43.60579" lon="1.04529">
        <ele>143</ele>
        <time>2020-10-03T11:17:50.000Z</time>
      </trkpt>
      <trkpt lat="43.60581" lon="1.04526">
        <ele>143.26086617767</ele>
        <time>2020-10-03T11:17:51.000Z</time>
      </trkpt>
      <trkpt lat="43.60583" lon="1.04522">
        <ele>144</ele>
        <time>2020-10-03T11:17:52.000Z</time>
      </trkpt>
      <trkpt lat="43.60584" lon="1.04519">
        <ele>144</ele>
        <time>2020-10-03T11:17:53.000Z</time>
      </trkpt>
      <trkpt lat="43.60586" lon="1.04516">
        <ele>144</ele>
        <time>2020-10-03T11:17:54.000Z</time>
      </trkpt>
      <trkpt lat="43.60587" lon="1.04513">
        <ele>144</ele>
        <time>2020-10-03T11:17:55.000Z</time>
      </trkpt>
      <trkpt lat="43.60589" lon="1.04509">
        <ele>144</ele>
        <time>2020-10-03T11:17:56.000Z</time>
      </trkpt>
      <trkpt lat="43.60591" lon="1.04506">
        <ele>144</ele>
        <time>2020-10-03T11:17:57.000Z</time>
      </trkpt>
      <trkpt lat="43.60593" lon="1.04503">
        <ele>144.35442894408</ele>
        <time>2020-10-03T11:17:58.000Z</time>
      </trkpt>
      <trkpt lat="43.60594" lon="1.045">
        <ele>145</ele>
        <time>2020-10-03T11:17:59.000Z</time>
      </trkpt>
      <trkpt lat="43.60596" lon="1.04496">
        <ele>145</ele>
        <time>2020-10-03T11:18:00.000Z</time>
      </trkpt>
      <trkpt lat="43.60598" lon="1.04493">
        <ele>144.52380778233</ele>
        <time>2020-10-03T11:18:01.000Z</time>
      </trkpt>
      <trkpt lat="43.60599" lon="1.0449">
        <ele>144</ele>
        <time>2020-10-03T11:18:02.000Z</time>
      </trkpt>
      <trkpt lat="43.60601" lon="1.04487">
        <ele>144</ele>
        <time>2020-10-03T11:18:03.000Z</time>
      </trkpt>
      <trkpt lat="43.60603" lon="1.04484">
        <ele>144</ele>
        <time>2020-10-03T11:18:04.000Z</time>
      </trkpt>
      <trkpt lat="43.60604" lon="1.04481">
        <ele>144</ele>
        <time>2020-10-03T11:18:05.000Z</time>
      </trkpt>
      <trkpt lat="43.60606" lon="1.04477">
        <ele>144</ele>
        <time>2020-10-03T11:18:06.000Z</time>
      </trkpt>
      <trkpt lat="43.60608" lon="1.04474">
        <ele>144</ele>
        <time>2020-10-03T11:18:07.000Z</time>
      </trkpt>
      <trkpt lat="43.60609" lon="1.04471">
        <ele>144</ele>
        <time>2020-10-03T11:18:08.000Z</time>
      </trkpt>
      <trkpt lat="43.60611" lon="1.04468">
        <ele>144</ele>
        <time>2020-10-03T11:18:09.000Z</time>
      </trkpt>
      <trkpt lat="43.60612" lon="1.04465">
        <ele>144</ele>
        <time>2020-10-03T11:18:10.000Z</time>
      </trkpt>
      <trkpt lat="43.60614" lon="1.04461">
        <ele>144</ele>
        <time>2020-10-03T11:18:11.000Z</time>
      </trkpt>
      <trkpt lat="43.60615" lon="1.04458">
        <ele>144</ele>
        <time>2020-10-03T11:18:12.000Z</time>
      </trkpt>
      <trkpt lat="43.60617" lon="1.04455">
        <ele>144</ele>
        <time>2020-10-03T11:18:13.000Z</time>
      </trkpt>
      <trkpt lat="43.60618" lon="1.04452">
        <ele>143.59999554784</ele>
        <time>2020-10-03T11:18:14.000Z</time>
      </trkpt>
      <trkpt lat="43.6062" lon="1.04449">
        <ele>143</ele>
        <time>2020-10-03T11:18:15.000Z</time>
      </trkpt>
      <trkpt lat="43.60621" lon="1.04445">
        <ele>143</ele>
        <time>2020-10-03T11:18:16.000Z</time>
      </trkpt>
      <trkpt lat="43.60623" lon="1.04442">
        <ele>143.36905142857</ele>
        <time>2020-10-03T11:18:17.000Z</time>
      </trkpt>
      <trkpt lat="43.60625" lon="1.04438">
        <ele>144</ele>
        <time>2020-10-03T11:18:18.000Z</time>
      </trkpt>
      <trkpt lat="43.60626" lon="1.04435">
        <ele>144</ele>
        <time>2020-10-03T11:18:19.000Z</time>
      </trkpt>
      <trkpt lat="43.60628" lon="1.04432">
        <ele>144</ele>
        <time>2020-10-03T11:18:20.000Z</time>
      </trkpt>
      <trkpt lat="43.60629" lon="1.04428">
        <ele>144</ele>
        <time>2020-10-03T11:18:21.000Z</time>
      </trkpt>
      <trkpt lat="43.60631" lon="1.04425">
        <ele>143.58620689655</ele>
        <time>2020-10-03T11:18:22.000Z</time>
      </trkpt>
      <trkpt lat="43.60632" lon="1.04422">
        <ele>143</ele>
        <time>2020-10-03T11:18:23.000Z</time>
      </trkpt>
      <trkpt lat="43.60634" lon="1.04419">
        <ele>143</ele>
        <time>2020-10-03T11:18:24.000Z</time>
      </trkpt>
      <trkpt lat="43.60636" lon="1.04416">
        <ele>143</ele>
        <time>2020-10-03T11:18:25.000Z</time>
      </trkpt>
      <trkpt lat="43.60637" lon="1.04412">
        <ele>143.30088014408</ele>
        <time>2020-10-03T11:18:26.000Z</time>
      </trkpt>
      <trkpt lat="43.60639" lon="1.04409">
        <ele>144</ele>
        <time>2020-10-03T11:18:27.000Z</time>
      </trkpt>
      <trkpt lat="43.6064" lon="1.04406">
        <ele>144</ele>
        <time>2020-10-03T11:18:28.000Z</time>
      </trkpt>
      <trkpt lat="43.60642" lon="1.04402">
        <ele>144</ele>
        <time>2020-10-03T11:18:29.000Z</time>
      </trkpt>
      <trkpt lat="43.60644" lon="1.04399">
        <ele>144</ele>
        <time>2020-10-03T11:18:30.000Z</time>
      </trkpt>
      <trkpt lat="43.60645" lon="1.04396">
        <ele>144</ele>
        <time>2020-10-03T11:18:31.000Z</time>
      </trkpt>
      <trkpt lat="43.60647" lon="1.04393">
        <ele>144</ele>
        <time>2020-10-03T11:18:32.000Z</time>
      </trkpt>
      <trkpt lat="43.60649" lon="1.0439">
        <ele>144</ele>
        <time>2020-10-03T11:18:33.000Z</time>
      </trkpt>
      <trkpt lat="43.6065" lon="1.04387">
        <ele>144</ele>
        <time>2020-10-03T11:18:34.000Z</time>
      </trkpt>
      <trkpt lat="43.60652" lon="1.04383">
        <ele>144</ele>
        <time>2020-10-03T11:18:35.000Z</time>
      </trkpt>
      <trkpt lat="43.60653" lon="1.0438">
        <ele>144</ele>
        <time>2020-10-03T11:18:36.000Z</time>
      </trkpt>
      <trkpt lat="43.60655" lon="1.04377">
        <ele>144</ele>
        <time>2020-10-03T11:18:37.000Z</time>
      </trkpt>
      <trkpt lat="43.60657" lon="1.04374">
        <ele>144.4086048144</ele>
        <time>2020-10-03T11:18:38.000Z</time>
      </trkpt>
      <trkpt lat="43.60658" lon="1.04371">
        <ele>145</ele>
        <time>2020-10-03T11:18:39.000Z</time>
      </trkpt>
      <trkpt lat="43.6066" lon="1.04368">
        <ele>145</ele>
        <time>2020-10-03T11:18:40.000Z</time>
      </trkpt>
      <trkpt lat="43.60662" lon="1.04365">
        <ele>145</ele>
        <time>2020-10-03T11:18:41.000Z</time>
      </trkpt>
      <trkpt lat="43.60663" lon="1.04361">
        <ele>145</ele>
        <time>2020-10-03T11:18:42.000Z</time>
      </trkpt>
      <trkpt lat="43.60665" lon="1.04358">
        <ele>145</ele>
        <time>2020-10-03T11:18:43.000Z</time>
      </trkpt>
      <trkpt lat="43.60666" lon="1.04355">
        <ele>145</ele>
        <time>2020-10-03T11:18:44.000Z</time>
      </trkpt>
      <trkpt lat="43.60667" lon="1.04352">
        <ele>145</ele>
        <time>2020-10-03T11:18:45.000Z</time>
      </trkpt>
      <trkpt lat="43.60669" lon="1.04349">
        <ele>145</ele>
        <time>2020-10-03T11:18:46.000Z</time>
      </trkpt>
      <trkpt lat="43.6067" lon="1.04345">
        <ele>144.63094857143</ele>
        <time>2020-10-03T11:18:47.000Z</time>
      </trkpt>
      <trkpt lat="43.60672" lon="1.04342">
        <ele>144</ele>
        <time>2020-10-03T11:18:48.000Z</time>
      </trkpt>
      <trkpt lat="43.60674" lon="1.04339">
        <ele>144</ele>
        <time>2020-10-03T11:18:49.000Z</time>
      </trkpt>
      <trkpt lat="43.60675" lon="1.04336">
        <ele>144.462962524</ele>
        <time>2020-10-03T11:18:50.000Z</time>
      </trkpt>
      <trkpt lat="43.60677" lon="1.04333">
        <ele>145</ele>
        <time>2020-10-03T11:18:51.000Z</time>
      </trkpt>
      <trkpt lat="43.60679" lon="1.04329">
        <ele>145</ele>
        <time>2020-10-03T11:18:52.000Z</time>
      </trkpt>
      <trkpt lat="43.6068" lon="1.04326">
        <ele>145</ele>
        <time>2020-10-03T11:18:53.000Z</time>
      </trkpt>
      <trkpt lat="43.60682" lon="1.04323">
        <ele>145.36111407407</ele>
        <time>2020-10-03T11:18:54.000Z</time>
      </trkpt>
      <trkpt lat="43.60684" lon="1.0432">
        <ele>146</ele>
        <time>2020-10-03T11:18:55.000Z</time>
      </trkpt>
      <trkpt lat="43.60685" lon="1.04317">
        <ele>146</ele>
        <time>2020-10-03T11:18:56.000Z</time>
      </trkpt>
      <trkpt lat="43.60686" lon="1.04314">
        <ele>146</ele>
        <time>2020-10-03T11:18:57.000Z</time>
      </trkpt>
      <trkpt lat="43.60688" lon="1.04311">
        <ele>146</ele>
        <time>2020-10-03T11:18:58.000Z</time>
      </trkpt>
      <trkpt lat="43.6069" lon="1.04308">
        <ele>146</ele>
        <time>2020-10-03T11:18:59.000Z</time>
      </trkpt>
      <trkpt lat="43.60692" lon="1.04306">
        <ele>146</ele>
        <time>2020-10-03T11:19:00.000Z</time>
      </trkpt>
      <trkpt lat="43.60693" lon="1.04302">
        <ele>145.53703659808</ele>
        <time>2020-10-03T11:19:01.000Z</time>
      </trkpt>
      <trkpt lat="43.60695" lon="1.04299">
        <ele>145</ele>
        <time>2020-10-03T11:19:02.000Z</time>
      </trkpt>
      <trkpt lat="43.60696" lon="1.04296">
        <ele>145.01886200068</ele>
        <time>2020-10-03T11:19:03.000Z</time>
      </trkpt>
      <trkpt lat="43.60698" lon="1.04293">
        <ele>146</ele>
        <time>2020-10-03T11:19:04.000Z</time>
      </trkpt>
      <trkpt lat="43.607" lon="1.0429">
        <ele>146</ele>
        <time>2020-10-03T11:19:05.000Z</time>
      </trkpt>
      <trkpt lat="43.60701" lon="1.04286">
        <ele>146</ele>
        <time>2020-10-03T11:19:06.000Z</time>
      </trkpt>
      <trkpt lat="43.60702" lon="1.04283">
        <ele>146</ele>
        <time>2020-10-03T11:19:07.000Z</time>
      </trkpt>
      <trkpt lat="43.60704" lon="1.04279">
        <ele>146</ele>
        <time>2020-10-03T11:19:08.000Z</time>
      </trkpt>
      <trkpt lat="43.60705" lon="1.04275">
        <ele>146</ele>
        <time>2020-10-03T11:19:09.000Z</time>
      </trkpt>
      <trkpt lat="43.60707" lon="1.04272">
        <ele>146</ele>
        <time>2020-10-03T11:19:10.000Z</time>
      </trkpt>
      <trkpt lat="43.60708" lon="1.04269">
        <ele>146</ele>
        <time>2020-10-03T11:19:11.000Z</time>
      </trkpt>
      <trkpt lat="43.6071" lon="1.04265">
        <ele>146</ele>
        <time>2020-10-03T11:19:12.000Z</time>
      </trkpt>
      <trkpt lat="43.60712" lon="1.04262">
        <ele>146</ele>
        <time>2020-10-03T11:19:13.000Z</time>
      </trkpt>
      <trkpt lat="43.60713" lon="1.04258">
        <ele>146</ele>
        <time>2020-10-03T11:19:14.000Z</time>
      </trkpt>
      <trkpt lat="43.60715" lon="1.04255">
        <ele>146</ele>
        <time>2020-10-03T11:19:15.000Z</time>
      </trkpt>
      <trkpt lat="43.60717" lon="1.04251">
        <ele>146</ele>
        <time>2020-10-03T11:19:16.000Z</time>
      </trkpt>
      <trkpt lat="43.60718" lon="1.04248">
        <ele>145.64285714286</ele>
        <time>2020-10-03T11:19:17.000Z</time>
      </trkpt>
      <trkpt lat="43.6072" lon="1.04244">
        <ele>145</ele>
        <time>2020-10-03T11:19:18.000Z</time>
      </trkpt>
      <trkpt lat="43.60722" lon="1.04241">
        <ele>145</ele>
        <time>2020-10-03T11:19:19.000Z</time>
      </trkpt>
      <trkpt lat="43.60723" lon="1.04237">
        <ele>145.10000365711</ele>
        <time>2020-10-03T11:19:20.000Z</time>
      </trkpt>
      <trkpt lat="43.60725" lon="1.04234">
        <ele>146</ele>
        <time>2020-10-03T11:19:21.000Z</time>
      </trkpt>
      <trkpt lat="43.60727" lon="1.0423">
        <ele>146</ele>
        <time>2020-10-03T11:19:22.000Z</time>
      </trkpt>
      <trkpt lat="43.60728" lon="1.04227">
        <ele>146</ele>
        <time>2020-10-03T11:19:23.000Z</time>
      </trkpt>
      <trkpt lat="43.6073" lon="1.04223">
        <ele>146</ele>
        <time>2020-10-03T11:19:24.000Z</time>
      </trkpt>
      <trkpt lat="43.60732" lon="1.04219">
        <ele>146</ele>
        <time>2020-10-03T11:19:25.000Z</time>
      </trkpt>
      <trkpt lat="43.60733" lon="1.04216">
        <ele>145.66037940903</ele>
        <time>2020-10-03T11:19:26.000Z</time>
      </trkpt>
      <trkpt lat="43.60735" lon="1.04212">
        <ele>145</ele>
        <time>2020-10-03T11:19:27.000Z</time>
      </trkpt>
      <trkpt lat="43.60736" lon="1.04209">
        <ele>145</ele>
        <time>2020-10-03T11:19:28.000Z</time>
      </trkpt>
      <trkpt lat="43.60738" lon="1.04206">
        <ele>145.39422769231</ele>
        <time>2020-10-03T11:19:29.000Z</time>
      </trkpt>
      <trkpt lat="43.6074" lon="1.04202">
        <ele>146</ele>
        <time>2020-10-03T11:19:30.000Z</time>
      </trkpt>
      <trkpt lat="43.60741" lon="1.04199">
        <ele>146</ele>
        <time>2020-10-03T11:19:31.000Z</time>
      </trkpt>
      <trkpt lat="43.60743" lon="1.04196">
        <ele>145.60416</ele>
        <time>2020-10-03T11:19:32.000Z</time>
      </trkpt>
      <trkpt lat="43.60744" lon="1.04193">
        <ele>145</ele>
        <time>2020-10-03T11:19:33.000Z</time>
      </trkpt>
      <trkpt lat="43.60746" lon="1.04189">
        <ele>145</ele>
        <time>2020-10-03T11:19:34.000Z</time>
      </trkpt>
      <trkpt lat="43.60748" lon="1.04186">
        <ele>145.45454862808</ele>
        <time>2020-10-03T11:19:35.000Z</time>
      </trkpt>
      <trkpt lat="43.60749" lon="1.04183">
        <ele>146</ele>
        <time>2020-10-03T11:19:36.000Z</time>
      </trkpt>
      <trkpt lat="43.60751" lon="1.0418">
        <ele>146</ele>
        <time>2020-10-03T11:19:37.000Z</time>
      </trkpt>
      <trkpt lat="43.60751" lon="1.04176">
        <ele>146</ele>
        <time>2020-10-03T11:19:38.000Z</time>
      </trkpt>
      <trkpt lat="43.60753" lon="1.04173">
        <ele>145.6899968</ele>
        <time>2020-10-03T11:19:39.000Z</time>
      </trkpt>
      <trkpt lat="43.60754" lon="1.04169">
        <ele>145</ele>
        <time>2020-10-03T11:19:40.000Z</time>
      </trkpt>
      <trkpt lat="43.60755" lon="1.04166">
        <ele>145</ele>
        <time>2020-10-03T11:19:41.000Z</time>
      </trkpt>
      <trkpt lat="43.60756" lon="1.04162">
        <ele>145</ele>
        <time>2020-10-03T11:19:42.000Z</time>
      </trkpt>
      <trkpt lat="43.60758" lon="1.04159">
        <ele>145</ele>
        <time>2020-10-03T11:19:43.000Z</time>
      </trkpt>
      <trkpt lat="43.60759" lon="1.04155">
        <ele>145</ele>
        <time>2020-10-03T11:19:44.000Z</time>
      </trkpt>
      <trkpt lat="43.60761" lon="1.04151">
        <ele>145</ele>
        <time>2020-10-03T11:19:45.000Z</time>
      </trkpt>
      <trkpt lat="43.60761" lon="1.04148">
        <ele>145</ele>
        <time>2020-10-03T11:19:46.000Z</time>
      </trkpt>
      <trkpt lat="43.60763" lon="1.04144">
        <ele>145.36842459832</ele>
        <time>2020-10-03T11:19:47.000Z</time>
      </trkpt>
      <trkpt lat="43.60764" lon="1.04141">
        <ele>146</ele>
        <time>2020-10-03T11:19:48.000Z</time>
      </trkpt>
      <trkpt lat="43.60765" lon="1.04137">
        <ele>146</ele>
        <time>2020-10-03T11:19:49.000Z</time>
      </trkpt>
      <trkpt lat="43.60766" lon="1.04133">
        <ele>146</ele>
        <time>2020-10-03T11:19:50.000Z</time>
      </trkpt>
      <trkpt lat="43.60767" lon="1.0413">
        <ele>146</ele>
        <time>2020-10-03T11:19:51.000Z</time>
      </trkpt>
      <trkpt lat="43.60768" lon="1.04127">
        <ele>146</ele>
        <time>2020-10-03T11:19:52.000Z</time>
      </trkpt>
      <trkpt lat="43.60769" lon="1.04123">
        <ele>146</ele>
        <time>2020-10-03T11:19:53.000Z</time>
      </trkpt>
      <trkpt lat="43.60771" lon="1.0412">
        <ele>146</ele>
        <time>2020-10-03T11:19:54.000Z</time>
      </trkpt>
      <trkpt lat="43.60772" lon="1.04116">
        <ele>146</ele>
        <time>2020-10-03T11:19:55.000Z</time>
      </trkpt>
      <trkpt lat="43.60773" lon="1.04113">
        <ele>146</ele>
        <time>2020-10-03T11:19:56.000Z</time>
      </trkpt>
      <trkpt lat="43.60774" lon="1.04109">
        <ele>145.69607720108</ele>
        <time>2020-10-03T11:19:57.000Z</time>
      </trkpt>
      <trkpt lat="43.60776" lon="1.04106">
        <ele>145</ele>
        <time>2020-10-03T11:19:58.000Z</time>
      </trkpt>
      <trkpt lat="43.60777" lon="1.04102">
        <ele>145</ele>
        <time>2020-10-03T11:19:59.000Z</time>
      </trkpt>
      <trkpt lat="43.60777" lon="1.04098">
        <ele>145</ele>
        <time>2020-10-03T11:20:00.000Z</time>
      </trkpt>
      <trkpt lat="43.60778" lon="1.04095">
        <ele>145</ele>
        <time>2020-10-03T11:20:01.000Z</time>
      </trkpt>
      <trkpt lat="43.60778" lon="1.0409">
        <ele>145</ele>
        <time>2020-10-03T11:20:02.000Z</time>
      </trkpt>
      <trkpt lat="43.60779" lon="1.04086">
        <ele>145</ele>
        <time>2020-10-03T11:20:03.000Z</time>
      </trkpt>
      <trkpt lat="43.60779" lon="1.04083">
        <ele>145</ele>
        <time>2020-10-03T11:20:04.000Z</time>
      </trkpt>
      <trkpt lat="43.6078" lon="1.04079">
        <ele>145</ele>
        <time>2020-10-03T11:20:05.000Z</time>
      </trkpt>
      <trkpt lat="43.60781" lon="1.04076">
        <ele>144.537037476</ele>
        <time>2020-10-03T11:20:06.000Z</time>
      </trkpt>
      <trkpt lat="43.60782" lon="1.04072">
        <ele>144</ele>
        <time>2020-10-03T11:20:07.000Z</time>
      </trkpt>
      <trkpt lat="43.60783" lon="1.04068">
        <ele>144</ele>
        <time>2020-10-03T11:20:08.000Z</time>
      </trkpt>
      <trkpt lat="43.60784" lon="1.04065">
        <ele>144.3780497323</ele>
        <time>2020-10-03T11:20:09.000Z</time>
      </trkpt>
      <trkpt lat="43.60786" lon="1.04061">
        <ele>145</ele>
        <time>2020-10-03T11:20:10.000Z</time>
      </trkpt>
      <trkpt lat="43.60787" lon="1.04057">
        <ele>145</ele>
        <time>2020-10-03T11:20:11.000Z</time>
      </trkpt>
      <trkpt lat="43.60787" lon="1.04053">
        <ele>145</ele>
        <time>2020-10-03T11:20:12.000Z</time>
      </trkpt>
      <trkpt lat="43.60788" lon="1.0405">
        <ele>145</ele>
        <time>2020-10-03T11:20:13.000Z</time>
      </trkpt>
      <trkpt lat="43.60789" lon="1.04046">
        <ele>145</ele>
        <time>2020-10-03T11:20:14.000Z</time>
      </trkpt>
      <trkpt lat="43.6079" lon="1.04043">
        <ele>145</ele>
        <time>2020-10-03T11:20:15.000Z</time>
      </trkpt>
      <trkpt lat="43.60791" lon="1.04039">
        <ele>145</ele>
        <time>2020-10-03T11:20:16.000Z</time>
      </trkpt>
      <trkpt lat="43.60792" lon="1.04035">
        <ele>145</ele>
        <time>2020-10-03T11:20:17.000Z</time>
      </trkpt>
      <trkpt lat="43.60793" lon="1.04032">
        <ele>144.537037476</ele>
        <time>2020-10-03T11:20:18.000Z</time>
      </trkpt>
      <trkpt lat="43.60794" lon="1.04028">
        <ele>144</ele>
        <time>2020-10-03T11:20:19.000Z</time>
      </trkpt>
      <trkpt lat="43.60794" lon="1.04025">
        <ele>144</ele>
        <time>2020-10-03T11:20:20.000Z</time>
      </trkpt>
      <trkpt lat="43.60795" lon="1.04022">
        <ele>144.27272425028</ele>
        <time>2020-10-03T11:20:21.000Z</time>
      </trkpt>
      <trkpt lat="43.60796" lon="1.04018">
        <ele>145</ele>
        <time>2020-10-03T11:20:22.000Z</time>
      </trkpt>
      <trkpt lat="43.60796" lon="1.04014">
        <ele>145</ele>
        <time>2020-10-03T11:20:23.000Z</time>
      </trkpt>
      <trkpt lat="43.60797" lon="1.0401">
        <ele>145</ele>
        <time>2020-10-03T11:20:24.000Z</time>
      </trkpt>
      <trkpt lat="43.60798" lon="1.04006">
        <ele>145</ele>
        <time>2020-10-03T11:20:25.000Z</time>
      </trkpt>
      <trkpt lat="43.60799" lon="1.04003">
        <ele>145</ele>
        <time>2020-10-03T11:20:26.000Z</time>
      </trkpt>
      <trkpt lat="43.60799" lon="1.03999">
        <ele>145</ele>
        <time>2020-10-03T11:20:27.000Z</time>
      </trkpt>
      <trkpt lat="43.608" lon="1.03995">
        <ele>145</ele>
        <time>2020-10-03T11:20:28.000Z</time>
      </trkpt>
      <trkpt lat="43.60801" lon="1.03992">
        <ele>145.35442894408</ele>
        <time>2020-10-03T11:20:29.000Z</time>
      </trkpt>
      <trkpt lat="43.60802" lon="1.03988">
        <ele>146</ele>
        <time>2020-10-03T11:20:30.000Z</time>
      </trkpt>
      <trkpt lat="43.60802" lon="1.03985">
        <ele>146</ele>
        <time>2020-10-03T11:20:31.000Z</time>
      </trkpt>
      <trkpt lat="43.60803" lon="1.03981">
        <ele>146</ele>
        <time>2020-10-03T11:20:32.000Z</time>
      </trkpt>
      <trkpt lat="43.60804" lon="1.03977">
        <ele>146</ele>
        <time>2020-10-03T11:20:33.000Z</time>
      </trkpt>
      <trkpt lat="43.60804" lon="1.03974">
        <ele>146.32954181818</ele>
        <time>2020-10-03T11:20:34.000Z</time>
      </trkpt>
      <trkpt lat="43.60805" lon="1.0397">
        <ele>147</ele>
        <time>2020-10-03T11:20:35.000Z</time>
      </trkpt>
      <trkpt lat="43.60806" lon="1.03967">
        <ele>147</ele>
        <time>2020-10-03T11:20:36.000Z</time>
      </trkpt>
      <trkpt lat="43.60806" lon="1.03964">
        <ele>147</ele>
        <time>2020-10-03T11:20:37.000Z</time>
      </trkpt>
      <trkpt lat="43.60807" lon="1.0396">
        <ele>147</ele>
        <time>2020-10-03T11:20:38.000Z</time>
      </trkpt>
      <trkpt lat="43.60807" lon="1.03957">
        <ele>147</ele>
        <time>2020-10-03T11:20:39.000Z</time>
      </trkpt>
      <trkpt lat="43.60808" lon="1.03954">
        <ele>147</ele>
        <time>2020-10-03T11:20:40.000Z</time>
      </trkpt>
      <trkpt lat="43.60808" lon="1.0395">
        <ele>147</ele>
        <time>2020-10-03T11:20:41.000Z</time>
      </trkpt>
      <trkpt lat="43.60809" lon="1.03947">
        <ele>147</ele>
        <time>2020-10-03T11:20:42.000Z</time>
      </trkpt>
      <trkpt lat="43.60809" lon="1.03943">
        <ele>146.65822518187</ele>
        <time>2020-10-03T11:20:43.000Z</time>
      </trkpt>
      <trkpt lat="43.6081" lon="1.0394">
        <ele>146</ele>
        <time>2020-10-03T11:20:44.000Z</time>
      </trkpt>
      <trkpt lat="43.60811" lon="1.03936">
        <ele>146</ele>
        <time>2020-10-03T11:20:45.000Z</time>
      </trkpt>
      <trkpt lat="43.60812" lon="1.03932">
        <ele>146</ele>
        <time>2020-10-03T11:20:46.000Z</time>
      </trkpt>
      <trkpt lat="43.60813" lon="1.03929">
        <ele>146</ele>
        <time>2020-10-03T11:20:47.000Z</time>
      </trkpt>
      <trkpt lat="43.60813" lon="1.03925">
        <ele>146</ele>
        <time>2020-10-03T11:20:48.000Z</time>
      </trkpt>
      <trkpt lat="43.60814" lon="1.03922">
        <ele>146</ele>
        <time>2020-10-03T11:20:49.000Z</time>
      </trkpt>
      <trkpt lat="43.60815" lon="1.03918">
        <ele>146</ele>
        <time>2020-10-03T11:20:50.000Z</time>
      </trkpt>
      <trkpt lat="43.60815" lon="1.03914">
        <ele>146</ele>
        <time>2020-10-03T11:20:51.000Z</time>
      </trkpt>
      <trkpt lat="43.60816" lon="1.03911">
        <ele>146</ele>
        <time>2020-10-03T11:20:52.000Z</time>
      </trkpt>
      <trkpt lat="43.60817" lon="1.03907">
        <ele>146</ele>
        <time>2020-10-03T11:20:53.000Z</time>
      </trkpt>
      <trkpt lat="43.60817" lon="1.03903">
        <ele>146</ele>
        <time>2020-10-03T11:20:54.000Z</time>
      </trkpt>
      <trkpt lat="43.60818" lon="1.039">
        <ele>146</ele>
        <time>2020-10-03T11:20:55.000Z</time>
      </trkpt>
      <trkpt lat="43.60819" lon="1.03896">
        <ele>146</ele>
        <time>2020-10-03T11:20:56.000Z</time>
      </trkpt>
      <trkpt lat="43.6082" lon="1.03892">
        <ele>146</ele>
        <time>2020-10-03T11:20:57.000Z</time>
      </trkpt>
      <trkpt lat="43.60821" lon="1.03888">
        <ele>146</ele>
        <time>2020-10-03T11:20:58.000Z</time>
      </trkpt>
      <trkpt lat="43.60822" lon="1.03884">
        <ele>146</ele>
        <time>2020-10-03T11:20:59.000Z</time>
      </trkpt>
      <trkpt lat="43.60822" lon="1.03881">
        <ele>146</ele>
        <time>2020-10-03T11:21:00.000Z</time>
      </trkpt>
      <trkpt lat="43.60823" lon="1.03877">
        <ele>146</ele>
        <time>2020-10-03T11:21:01.000Z</time>
      </trkpt>
      <trkpt lat="43.60824" lon="1.03874">
        <ele>146</ele>
        <time>2020-10-03T11:21:02.000Z</time>
      </trkpt>
      <trkpt lat="43.60825" lon="1.03871">
        <ele>146</ele>
        <time>2020-10-03T11:21:03.000Z</time>
      </trkpt>
      <trkpt lat="43.60826" lon="1.03867">
        <ele>146</ele>
        <time>2020-10-03T11:21:04.000Z</time>
      </trkpt>
      <trkpt lat="43.60827" lon="1.03864">
        <ele>146</ele>
        <time>2020-10-03T11:21:05.000Z</time>
      </trkpt>
      <trkpt lat="43.60828" lon="1.0386">
        <ele>146.91589008649</ele>
        <time>2020-10-03T11:21:06.000Z</time>
      </trkpt>
      <trkpt lat="43.60829" lon="1.03856">
        <ele>148</ele>
        <time>2020-10-03T11:21:07.000Z</time>
      </trkpt>
      <trkpt lat="43.6083" lon="1.03853">
        <ele>148</ele>
        <time>2020-10-03T11:21:08.000Z</time>
      </trkpt>
      <trkpt lat="43.60831" lon="1.0385">
        <ele>147.58095110385</ele>
        <time>2020-10-03T11:21:09.000Z</time>
      </trkpt>
      <trkpt lat="43.60832" lon="1.03846">
        <ele>147</ele>
        <time>2020-10-03T11:21:10.000Z</time>
      </trkpt>
      <trkpt lat="43.60833" lon="1.03843">
        <ele>146.53703659808</ele>
        <time>2020-10-03T11:21:11.000Z</time>
      </trkpt>
      <trkpt lat="43.60834" lon="1.03839">
        <ele>146</ele>
        <time>2020-10-03T11:21:12.000Z</time>
      </trkpt>
      <trkpt lat="43.60835" lon="1.03836">
        <ele>146</ele>
        <time>2020-10-03T11:21:13.000Z</time>
      </trkpt>
      <trkpt lat="43.60836" lon="1.03832">
        <ele>146</ele>
        <time>2020-10-03T11:21:14.000Z</time>
      </trkpt>
      <trkpt lat="43.60837" lon="1.03829">
        <ele>146.36283005403</ele>
        <time>2020-10-03T11:21:15.000Z</time>
      </trkpt>
      <trkpt lat="43.60838" lon="1.03825">
        <ele>147</ele>
        <time>2020-10-03T11:21:16.000Z</time>
      </trkpt>
      <trkpt lat="43.60839" lon="1.03821">
        <ele>147</ele>
        <time>2020-10-03T11:21:17.000Z</time>
      </trkpt>
      <trkpt lat="43.6084" lon="1.03818">
        <ele>147</ele>
        <time>2020-10-03T11:21:18.000Z</time>
      </trkpt>
      <trkpt lat="43.60841" lon="1.03814">
        <ele>147</ele>
        <time>2020-10-03T11:21:19.000Z</time>
      </trkpt>
      <trkpt lat="43.60842" lon="1.03811">
        <ele>147</ele>
        <time>2020-10-03T11:21:20.000Z</time>
      </trkpt>
      <trkpt lat="43.60843" lon="1.03808">
        <ele>147</ele>
        <time>2020-10-03T11:21:21.000Z</time>
      </trkpt>
      <trkpt lat="43.60844" lon="1.03804">
        <ele>147</ele>
        <time>2020-10-03T11:21:22.000Z</time>
      </trkpt>
      <trkpt lat="43.60845" lon="1.03801">
        <ele>147</ele>
        <time>2020-10-03T11:21:23.000Z</time>
      </trkpt>
      <trkpt lat="43.60846" lon="1.03798">
        <ele>147</ele>
        <time>2020-10-03T11:21:24.000Z</time>
      </trkpt>
      <trkpt lat="43.60847" lon="1.03794">
        <ele>147.29787485135</ele>
        <time>2020-10-03T11:21:25.000Z</time>
      </trkpt>
      <trkpt lat="43.60848" lon="1.03791">
        <ele>148</ele>
        <time>2020-10-03T11:21:26.000Z</time>
      </trkpt>
      <trkpt lat="43.60849" lon="1.03788">
        <ele>148</ele>
        <time>2020-10-03T11:21:27.000Z</time>
      </trkpt>
      <trkpt lat="43.6085" lon="1.03785">
        <ele>148</ele>
        <time>2020-10-03T11:21:28.000Z</time>
      </trkpt>
      <trkpt lat="43.60851" lon="1.03781">
        <ele>148</ele>
        <time>2020-10-03T11:21:29.000Z</time>
      </trkpt>
      <trkpt lat="43.60852" lon="1.03778">
        <ele>148</ele>
        <time>2020-10-03T11:21:30.000Z</time>
      </trkpt>
      <trkpt lat="43.60853" lon="1.03775">
        <ele>147.55660343183</ele>
        <time>2020-10-03T11:21:31.000Z</time>
      </trkpt>
      <trkpt lat="43.60854" lon="1.03771">
        <ele>147</ele>
        <time>2020-10-03T11:21:32.000Z</time>
      </trkpt>
      <trkpt lat="43.60855" lon="1.03768">
        <ele>147</ele>
        <time>2020-10-03T11:21:33.000Z</time>
      </trkpt>
      <trkpt lat="43.60856" lon="1.03764">
        <ele>147</ele>
        <time>2020-10-03T11:21:34.000Z</time>
      </trkpt>
      <trkpt lat="43.60858" lon="1.03761">
        <ele>147</ele>
        <time>2020-10-03T11:21:35.000Z</time>
      </trkpt>
      <trkpt lat="43.60859" lon="1.03757">
        <ele>147</ele>
        <time>2020-10-03T11:21:36.000Z</time>
      </trkpt>
      <trkpt lat="43.6086" lon="1.03754">
        <ele>147</ele>
        <time>2020-10-03T11:21:37.000Z</time>
      </trkpt>
      <trkpt lat="43.60861" lon="1.03751">
        <ele>147</ele>
        <time>2020-10-03T11:21:38.000Z</time>
      </trkpt>
      <trkpt lat="43.60863" lon="1.03747">
        <ele>147.37838305331</ele>
        <time>2020-10-03T11:21:39.000Z</time>
      </trkpt>
      <trkpt lat="43.60864" lon="1.03744">
        <ele>148</ele>
        <time>2020-10-03T11:21:40.000Z</time>
      </trkpt>
      <trkpt lat="43.60865" lon="1.03741">
        <ele>147.66667157086</ele>
        <time>2020-10-03T11:21:41.000Z</time>
      </trkpt>
      <trkpt lat="43.60867" lon="1.03738">
        <ele>147</ele>
        <time>2020-10-03T11:21:42.000Z</time>
      </trkpt>
      <trkpt lat="43.60868" lon="1.03734">
        <ele>147</ele>
        <time>2020-10-03T11:21:43.000Z</time>
      </trkpt>
      <trkpt lat="43.6087" lon="1.03731">
        <ele>147</ele>
        <time>2020-10-03T11:21:44.000Z</time>
      </trkpt>
      <trkpt lat="43.60871" lon="1.03728">
        <ele>147</ele>
        <time>2020-10-03T11:21:45.000Z</time>
      </trkpt>
      <trkpt lat="43.60872" lon="1.03725">
        <ele>147</ele>
        <time>2020-10-03T11:21:46.000Z</time>
      </trkpt>
      <trkpt lat="43.60873" lon="1.03722">
        <ele>147.36905142857</ele>
        <time>2020-10-03T11:21:47.000Z</time>
      </trkpt>
      <trkpt lat="43.60874" lon="1.03718">
        <ele>148</ele>
        <time>2020-10-03T11:21:48.000Z</time>
      </trkpt>
      <trkpt lat="43.60875" lon="1.03715">
        <ele>148</ele>
        <time>2020-10-03T11:21:49.000Z</time>
      </trkpt>
      <trkpt lat="43.60877" lon="1.03712">
        <ele>148</ele>
        <time>2020-10-03T11:21:50.000Z</time>
      </trkpt>
      <trkpt lat="43.60878" lon="1.03709">
        <ele>148</ele>
        <time>2020-10-03T11:21:51.000Z</time>
      </trkpt>
      <trkpt lat="43.60879" lon="1.03706">
        <ele>148</ele>
        <time>2020-10-03T11:21:52.000Z</time>
      </trkpt>
      <trkpt lat="43.6088" lon="1.03702">
        <ele>148</ele>
        <time>2020-10-03T11:21:53.000Z</time>
      </trkpt>
      <trkpt lat="43.60881" lon="1.03699">
        <ele>148</ele>
        <time>2020-10-03T11:21:54.000Z</time>
      </trkpt>
      <trkpt lat="43.60883" lon="1.03695">
        <ele>148</ele>
        <time>2020-10-03T11:21:55.000Z</time>
      </trkpt>
      <trkpt lat="43.60884" lon="1.03692">
        <ele>148</ele>
        <time>2020-10-03T11:21:56.000Z</time>
      </trkpt>
      <trkpt lat="43.60885" lon="1.03688">
        <ele>148</ele>
        <time>2020-10-03T11:21:57.000Z</time>
      </trkpt>
      <trkpt lat="43.60887" lon="1.03684">
        <ele>148</ele>
        <time>2020-10-03T11:21:58.000Z</time>
      </trkpt>
      <trkpt lat="43.60888" lon="1.03681">
        <ele>148</ele>
        <time>2020-10-03T11:21:59.000Z</time>
      </trkpt>
      <trkpt lat="43.60889" lon="1.03678">
        <ele>148</ele>
        <time>2020-10-03T11:22:00.000Z</time>
      </trkpt>
      <trkpt lat="43.6089" lon="1.03674">
        <ele>148</ele>
        <time>2020-10-03T11:22:01.000Z</time>
      </trkpt>
      <trkpt lat="43.60891" lon="1.03671">
        <ele>148</ele>
        <time>2020-10-03T11:22:02.000Z</time>
      </trkpt>
      <trkpt lat="43.60892" lon="1.03667">
        <ele>148</ele>
        <time>2020-10-03T11:22:03.000Z</time>
      </trkpt>
      <trkpt lat="43.60893" lon="1.03663">
        <ele>148</ele>
        <time>2020-10-03T11:22:04.000Z</time>
      </trkpt>
      <trkpt lat="43.60893" lon="1.0366">
        <ele>148</ele>
        <time>2020-10-03T11:22:05.000Z</time>
      </trkpt>
      <trkpt lat="43.60893" lon="1.03657">
        <ele>148.43955889386</ele>
        <time>2020-10-03T11:22:06.000Z</time>
      </trkpt>
      <trkpt lat="43.60892" lon="1.03654">
        <ele>149</ele>
        <time>2020-10-03T11:22:07.000Z</time>
      </trkpt>
      <trkpt lat="43.60892" lon="1.03651">
        <ele>149</ele>
        <time>2020-10-03T11:22:08.000Z</time>
      </trkpt>
      <trkpt lat="43.6089" lon="1.03647">
        <ele>149</ele>
        <time>2020-10-03T11:22:09.000Z</time>
      </trkpt>
      <trkpt lat="43.60889" lon="1.03644">
        <ele>149</ele>
        <time>2020-10-03T11:22:10.000Z</time>
      </trkpt>
      <trkpt lat="43.60888" lon="1.03641">
        <ele>149</ele>
        <time>2020-10-03T11:22:11.000Z</time>
      </trkpt>
      <trkpt lat="43.60887" lon="1.03639">
        <ele>149.44444760496</ele>
        <time>2020-10-03T11:22:12.000Z</time>
      </trkpt>
      <trkpt lat="43.60886" lon="1.03636">
        <ele>150</ele>
        <time>2020-10-03T11:22:13.000Z</time>
      </trkpt>
      <trkpt lat="43.60885" lon="1.03633">
        <ele>150</ele>
        <time>2020-10-03T11:22:14.000Z</time>
      </trkpt>
      <trkpt lat="43.60884" lon="1.03631">
        <ele>150</ele>
        <time>2020-10-03T11:22:15.000Z</time>
      </trkpt>
      <trkpt lat="43.60882" lon="1.03628">
        <ele>150</ele>
        <time>2020-10-03T11:22:16.000Z</time>
      </trkpt>
      <trkpt lat="43.60881" lon="1.03625">
        <ele>149.58490315413</ele>
        <time>2020-10-03T11:22:17.000Z</time>
      </trkpt>
      <trkpt lat="43.6088" lon="1.03621">
        <ele>149</ele>
        <time>2020-10-03T11:22:18.000Z</time>
      </trkpt>
      <trkpt lat="43.60878" lon="1.03619">
        <ele>149</ele>
        <time>2020-10-03T11:22:19.000Z</time>
      </trkpt>
      <trkpt lat="43.60877" lon="1.03616">
        <ele>149.37167680475</ele>
        <time>2020-10-03T11:22:20.000Z</time>
      </trkpt>
      <trkpt lat="43.60875" lon="1.03613">
        <ele>150</ele>
        <time>2020-10-03T11:22:21.000Z</time>
      </trkpt>
      <trkpt lat="43.60874" lon="1.0361">
        <ele>150</ele>
        <time>2020-10-03T11:22:22.000Z</time>
      </trkpt>
      <trkpt lat="43.60873" lon="1.03607">
        <ele>150</ele>
        <time>2020-10-03T11:22:23.000Z</time>
      </trkpt>
      <trkpt lat="43.60872" lon="1.03605">
        <ele>150</ele>
        <time>2020-10-03T11:22:24.000Z</time>
      </trkpt>
      <trkpt lat="43.60871" lon="1.03602">
        <ele>150</ele>
        <time>2020-10-03T11:22:25.000Z</time>
      </trkpt>
      <trkpt lat="43.60869" lon="1.03599">
        <ele>150</ele>
        <time>2020-10-03T11:22:26.000Z</time>
      </trkpt>
      <trkpt lat="43.60868" lon="1.03595">
        <ele>150</ele>
        <time>2020-10-03T11:22:27.000Z</time>
      </trkpt>
      <trkpt lat="43.60867" lon="1.03591">
        <ele>150</ele>
        <time>2020-10-03T11:22:28.000Z</time>
      </trkpt>
      <trkpt lat="43.60866" lon="1.03588">
        <ele>150</ele>
        <time>2020-10-03T11:22:29.000Z</time>
      </trkpt>
      <trkpt lat="43.60865" lon="1.03585">
        <ele>150</ele>
        <time>2020-10-03T11:22:30.000Z</time>
      </trkpt>
      <trkpt lat="43.60863" lon="1.03582">
        <ele>150</ele>
        <time>2020-10-03T11:22:31.000Z</time>
      </trkpt>
      <trkpt lat="43.60862" lon="1.03579">
        <ele>150</ele>
        <time>2020-10-03T11:22:32.000Z</time>
      </trkpt>
      <trkpt lat="43.60861" lon="1.03575">
        <ele>150.27928135703</ele>
        <time>2020-10-03T11:22:33.000Z</time>
      </trkpt>
      <trkpt lat="43.6086" lon="1.03571">
        <ele>151</ele>
        <time>2020-10-03T11:22:34.000Z</time>
      </trkpt>
      <trkpt lat="43.60858" lon="1.03568">
        <ele>151</ele>
        <time>2020-10-03T11:22:35.000Z</time>
      </trkpt>
      <trkpt lat="43.60857" lon="1.03564">
        <ele>151</ele>
        <time>2020-10-03T11:22:36.000Z</time>
      </trkpt>
      <trkpt lat="43.60856" lon="1.0356">
        <ele>151</ele>
        <time>2020-10-03T11:22:37.000Z</time>
      </trkpt>
      <trkpt lat="43.60855" lon="1.03557">
        <ele>151</ele>
        <time>2020-10-03T11:22:38.000Z</time>
      </trkpt>
      <trkpt lat="43.60853" lon="1.03553">
        <ele>151</ele>
        <time>2020-10-03T11:22:39.000Z</time>
      </trkpt>
      <trkpt lat="43.60852" lon="1.0355">
        <ele>151</ele>
        <time>2020-10-03T11:22:40.000Z</time>
      </trkpt>
      <trkpt lat="43.60851" lon="1.03546">
        <ele>151</ele>
        <time>2020-10-03T11:22:41.000Z</time>
      </trkpt>
      <trkpt lat="43.6085" lon="1.03543">
        <ele>151</ele>
        <time>2020-10-03T11:22:42.000Z</time>
      </trkpt>
      <trkpt lat="43.60849" lon="1.0354">
        <ele>150</ele>
        <time>2020-10-03T11:22:43.000Z</time>
      </trkpt>
      <trkpt lat="43.60848" lon="1.03537">
        <ele>150</ele>
        <time>2020-10-03T11:22:44.000Z</time>
      </trkpt>
      <trkpt lat="43.60847" lon="1.03534">
        <ele>150.5</ele>
        <time>2020-10-03T11:22:45.000Z</time>
      </trkpt>
      <trkpt lat="43.60846" lon="1.03531">
        <ele>151</ele>
        <time>2020-10-03T11:22:46.000Z</time>
      </trkpt>
      <trkpt lat="43.60845" lon="1.03528">
        <ele>151</ele>
        <time>2020-10-03T11:22:47.000Z</time>
      </trkpt>
      <trkpt lat="43.60844" lon="1.03525">
        <ele>151</ele>
        <time>2020-10-03T11:22:48.000Z</time>
      </trkpt>
      <trkpt lat="43.60842" lon="1.03523">
        <ele>151</ele>
        <time>2020-10-03T11:22:49.000Z</time>
      </trkpt>
      <trkpt lat="43.60841" lon="1.0352">
        <ele>151</ele>
        <time>2020-10-03T11:22:50.000Z</time>
      </trkpt>
      <trkpt lat="43.6084" lon="1.03517">
        <ele>151</ele>
        <time>2020-10-03T11:22:51.000Z</time>
      </trkpt>
      <trkpt lat="43.6084" lon="1.03513">
        <ele>151</ele>
        <time>2020-10-03T11:22:52.000Z</time>
      </trkpt>
      <trkpt lat="43.60839" lon="1.0351">
        <ele>151</ele>
        <time>2020-10-03T11:22:53.000Z</time>
      </trkpt>
      <trkpt lat="43.60838" lon="1.03506">
        <ele>151</ele>
        <time>2020-10-03T11:22:54.000Z</time>
      </trkpt>
      <trkpt lat="43.60837" lon="1.03503">
        <ele>151</ele>
        <time>2020-10-03T11:22:55.000Z</time>
      </trkpt>
      <trkpt lat="43.60836" lon="1.03499">
        <ele>151</ele>
        <time>2020-10-03T11:22:56.000Z</time>
      </trkpt>
      <trkpt lat="43.60835" lon="1.03497">
        <ele>151</ele>
        <time>2020-10-03T11:22:57.000Z</time>
      </trkpt>
      <trkpt lat="43.60834" lon="1.03494">
        <ele>151.40697743645</ele>
        <time>2020-10-03T11:22:58.000Z</time>
      </trkpt>
      <trkpt lat="43.60832" lon="1.0349">
        <ele>152</ele>
        <time>2020-10-03T11:22:59.000Z</time>
      </trkpt>
      <trkpt lat="43.60831" lon="1.03487">
        <ele>152</ele>
        <time>2020-10-03T11:23:00.000Z</time>
      </trkpt>
      <trkpt lat="43.6083" lon="1.03483">
        <ele>152.76923682837</ele>
        <time>2020-10-03T11:23:01.000Z</time>
      </trkpt>
      <trkpt lat="43.60829" lon="1.03479">
        <ele>154</ele>
        <time>2020-10-03T11:23:02.000Z</time>
      </trkpt>
      <trkpt lat="43.60828" lon="1.03476">
        <ele>154</ele>
        <time>2020-10-03T11:23:03.000Z</time>
      </trkpt>
      <trkpt lat="43.60826" lon="1.03473">
        <ele>154</ele>
        <time>2020-10-03T11:23:04.000Z</time>
      </trkpt>
      <trkpt lat="43.60825" lon="1.03469">
        <ele>154</ele>
        <time>2020-10-03T11:23:05.000Z</time>
      </trkpt>
      <trkpt lat="43.60824" lon="1.03466">
        <ele>154</ele>
        <time>2020-10-03T11:23:06.000Z</time>
      </trkpt>
      <trkpt lat="43.60822" lon="1.03464">
        <ele>154</ele>
        <time>2020-10-03T11:23:07.000Z</time>
      </trkpt>
      <trkpt lat="43.60821" lon="1.03461">
        <ele>154.35065496376</ele>
        <time>2020-10-03T11:23:08.000Z</time>
      </trkpt>
      <trkpt lat="43.6082" lon="1.03457">
        <ele>155</ele>
        <time>2020-10-03T11:23:09.000Z</time>
      </trkpt>
      <trkpt lat="43.60819" lon="1.03454">
        <ele>155</ele>
        <time>2020-10-03T11:23:10.000Z</time>
      </trkpt>
      <trkpt lat="43.60818" lon="1.03451">
        <ele>155.37594194809</ele>
        <time>2020-10-03T11:23:11.000Z</time>
      </trkpt>
      <trkpt lat="43.60817" lon="1.03448">
        <ele>156</ele>
        <time>2020-10-03T11:23:12.000Z</time>
      </trkpt>
      <trkpt lat="43.60815" lon="1.03445">
        <ele>156</ele>
        <time>2020-10-03T11:23:13.000Z</time>
      </trkpt>
      <trkpt lat="43.60814" lon="1.03442">
        <ele>156</ele>
        <time>2020-10-03T11:23:14.000Z</time>
      </trkpt>
      <trkpt lat="43.60813" lon="1.03439">
        <ele>156</ele>
        <time>2020-10-03T11:23:15.000Z</time>
      </trkpt>
      <trkpt lat="43.60812" lon="1.03436">
        <ele>155.59550416361</ele>
        <time>2020-10-03T11:23:16.000Z</time>
      </trkpt>
      <trkpt lat="43.60811" lon="1.03433">
        <ele>155</ele>
        <time>2020-10-03T11:23:17.000Z</time>
      </trkpt>
      <trkpt lat="43.6081" lon="1.03429">
        <ele>155</ele>
        <time>2020-10-03T11:23:18.000Z</time>
      </trkpt>
      <trkpt lat="43.60808" lon="1.03426">
        <ele>155</ele>
        <time>2020-10-03T11:23:19.000Z</time>
      </trkpt>
      <trkpt lat="43.60807" lon="1.03423">
        <ele>155</ele>
        <time>2020-10-03T11:23:20.000Z</time>
      </trkpt>
      <trkpt lat="43.60806" lon="1.0342">
        <ele>155</ele>
        <time>2020-10-03T11:23:21.000Z</time>
      </trkpt>
      <trkpt lat="43.60804" lon="1.03417">
        <ele>155</ele>
        <time>2020-10-03T11:23:22.000Z</time>
      </trkpt>
      <trkpt lat="43.60803" lon="1.03414">
        <ele>155</ele>
        <time>2020-10-03T11:23:23.000Z</time>
      </trkpt>
      <trkpt lat="43.60803" lon="1.03411">
        <ele>155.41572823633</ele>
        <time>2020-10-03T11:23:24.000Z</time>
      </trkpt>
      <trkpt lat="43.60802" lon="1.03407">
        <ele>156</ele>
        <time>2020-10-03T11:23:25.000Z</time>
      </trkpt>
      <trkpt lat="43.608" lon="1.03404">
        <ele>156.45055068713</ele>
        <time>2020-10-03T11:23:26.000Z</time>
      </trkpt>
      <trkpt lat="43.60799" lon="1.03401">
        <ele>157</ele>
        <time>2020-10-03T11:23:27.000Z</time>
      </trkpt>
      <trkpt lat="43.60798" lon="1.03397">
        <ele>157</ele>
        <time>2020-10-03T11:23:28.000Z</time>
      </trkpt>
      <trkpt lat="43.60797" lon="1.03394">
        <ele>157</ele>
        <time>2020-10-03T11:23:29.000Z</time>
      </trkpt>
      <trkpt lat="43.60796" lon="1.0339">
        <ele>157</ele>
        <time>2020-10-03T11:23:30.000Z</time>
      </trkpt>
      <trkpt lat="43.60795" lon="1.03387">
        <ele>157</ele>
        <time>2020-10-03T11:23:31.000Z</time>
      </trkpt>
      <trkpt lat="43.60794" lon="1.03384">
        <ele>157</ele>
        <time>2020-10-03T11:23:32.000Z</time>
      </trkpt>
      <trkpt lat="43.60793" lon="1.03381">
        <ele>157</ele>
        <time>2020-10-03T11:23:33.000Z</time>
      </trkpt>
      <trkpt lat="43.60792" lon="1.03379">
        <ele>156.56880820132</ele>
        <time>2020-10-03T11:23:34.000Z</time>
      </trkpt>
      <trkpt lat="43.60791" lon="1.03376">
        <ele>156</ele>
        <time>2020-10-03T11:23:35.000Z</time>
      </trkpt>
      <trkpt lat="43.6079" lon="1.03373">
        <ele>156.45794504324</ele>
        <time>2020-10-03T11:23:36.000Z</time>
      </trkpt>
      <trkpt lat="43.60789" lon="1.0337">
        <ele>157</ele>
        <time>2020-10-03T11:23:37.000Z</time>
      </trkpt>
      <trkpt lat="43.60788" lon="1.03366">
        <ele>157.34615510847</ele>
        <time>2020-10-03T11:23:38.000Z</time>
      </trkpt>
      <trkpt lat="43.60787" lon="1.03363">
        <ele>158</ele>
        <time>2020-10-03T11:23:39.000Z</time>
      </trkpt>
      <trkpt lat="43.60786" lon="1.0336">
        <ele>158</ele>
        <time>2020-10-03T11:23:40.000Z</time>
      </trkpt>
      <trkpt lat="43.60785" lon="1.03357">
        <ele>158</ele>
        <time>2020-10-03T11:23:41.000Z</time>
      </trkpt>
      <trkpt lat="43.60784" lon="1.03353">
        <ele>158</ele>
        <time>2020-10-03T11:23:42.000Z</time>
      </trkpt>
      <trkpt lat="43.60782" lon="1.0335">
        <ele>158</ele>
        <time>2020-10-03T11:23:43.000Z</time>
      </trkpt>
      <trkpt lat="43.60782" lon="1.03347">
        <ele>157.56817454546</ele>
        <time>2020-10-03T11:23:44.000Z</time>
      </trkpt>
      <trkpt lat="43.6078" lon="1.03344">
        <ele>157</ele>
        <time>2020-10-03T11:23:45.000Z</time>
      </trkpt>
      <trkpt lat="43.60779" lon="1.03341">
        <ele>157</ele>
        <time>2020-10-03T11:23:46.000Z</time>
      </trkpt>
      <trkpt lat="43.60778" lon="1.03338">
        <ele>157</ele>
        <time>2020-10-03T11:23:47.000Z</time>
      </trkpt>
      <trkpt lat="43.60777" lon="1.03335">
        <ele>157</ele>
        <time>2020-10-03T11:23:48.000Z</time>
      </trkpt>
      <trkpt lat="43.60776" lon="1.03332">
        <ele>157.34058044948</ele>
        <time>2020-10-03T11:23:49.000Z</time>
      </trkpt>
      <trkpt lat="43.60775" lon="1.03329">
        <ele>158</ele>
        <time>2020-10-03T11:23:50.000Z</time>
      </trkpt>
      <trkpt lat="43.60773" lon="1.03326">
        <ele>158</ele>
        <time>2020-10-03T11:23:51.000Z</time>
      </trkpt>
      <trkpt lat="43.60772" lon="1.03323">
        <ele>158</ele>
        <time>2020-10-03T11:23:52.000Z</time>
      </trkpt>
      <trkpt lat="43.60771" lon="1.0332">
        <ele>158</ele>
        <time>2020-10-03T11:23:53.000Z</time>
      </trkpt>
      <trkpt lat="43.60769" lon="1.03318">
        <ele>158</ele>
        <time>2020-10-03T11:23:54.000Z</time>
      </trkpt>
      <trkpt lat="43.60768" lon="1.03315">
        <ele>158</ele>
        <time>2020-10-03T11:23:55.000Z</time>
      </trkpt>
      <trkpt lat="43.60767" lon="1.03312">
        <ele>158</ele>
        <time>2020-10-03T11:23:56.000Z</time>
      </trkpt>
      <trkpt lat="43.60765" lon="1.03308">
        <ele>158</ele>
        <time>2020-10-03T11:23:57.000Z</time>
      </trkpt>
      <trkpt lat="43.60764" lon="1.03305">
        <ele>157.50980712036</ele>
        <time>2020-10-03T11:23:58.000Z</time>
      </trkpt>
      <trkpt lat="43.60763" lon="1.03302">
        <ele>157</ele>
        <time>2020-10-03T11:23:59.000Z</time>
      </trkpt>
      <trkpt lat="43.60762" lon="1.03298">
        <ele>157</ele>
        <time>2020-10-03T11:24:00.000Z</time>
      </trkpt>
      <trkpt lat="43.60761" lon="1.03294">
        <ele>157</ele>
        <time>2020-10-03T11:24:01.000Z</time>
      </trkpt>
      <trkpt lat="43.6076" lon="1.03291">
        <ele>157</ele>
        <time>2020-10-03T11:24:02.000Z</time>
      </trkpt>
      <trkpt lat="43.6076" lon="1.03288">
        <ele>157.47572948253</ele>
        <time>2020-10-03T11:24:03.000Z</time>
      </trkpt>
      <trkpt lat="43.60759" lon="1.03284">
        <ele>158</ele>
        <time>2020-10-03T11:24:04.000Z</time>
      </trkpt>
      <trkpt lat="43.60758" lon="1.03281">
        <ele>158</ele>
        <time>2020-10-03T11:24:05.000Z</time>
      </trkpt>
      <trkpt lat="43.60757" lon="1.03277">
        <ele>158.80952090699</ele>
        <time>2020-10-03T11:24:06.000Z</time>
      </trkpt>
      <trkpt lat="43.60756" lon="1.03274">
        <ele>160</ele>
        <time>2020-10-03T11:24:07.000Z</time>
      </trkpt>
      <trkpt lat="43.60755" lon="1.03271">
        <ele>160</ele>
        <time>2020-10-03T11:24:08.000Z</time>
      </trkpt>
      <trkpt lat="43.60754" lon="1.03268">
        <ele>160</ele>
        <time>2020-10-03T11:24:09.000Z</time>
      </trkpt>
      <trkpt lat="43.60753" lon="1.03265">
        <ele>160</ele>
        <time>2020-10-03T11:24:10.000Z</time>
      </trkpt>
      <trkpt lat="43.60752" lon="1.03262">
        <ele>160</ele>
        <time>2020-10-03T11:24:11.000Z</time>
      </trkpt>
      <trkpt lat="43.60751" lon="1.03259">
        <ele>160</ele>
        <time>2020-10-03T11:24:12.000Z</time>
      </trkpt>
      <trkpt lat="43.6075" lon="1.03257">
        <ele>160</ele>
        <time>2020-10-03T11:24:13.000Z</time>
      </trkpt>
      <trkpt lat="43.60748" lon="1.03254">
        <ele>160</ele>
        <time>2020-10-03T11:24:14.000Z</time>
      </trkpt>
      <trkpt lat="43.60747" lon="1.0325">
        <ele>160</ele>
        <time>2020-10-03T11:24:15.000Z</time>
      </trkpt>
      <trkpt lat="43.60746" lon="1.03247">
        <ele>160</ele>
        <time>2020-10-03T11:24:16.000Z</time>
      </trkpt>
      <trkpt lat="43.60745" lon="1.03244">
        <ele>160</ele>
        <time>2020-10-03T11:24:17.000Z</time>
      </trkpt>
      <trkpt lat="43.60743" lon="1.0324">
        <ele>160</ele>
        <time>2020-10-03T11:24:18.000Z</time>
      </trkpt>
      <trkpt lat="43.60742" lon="1.03237">
        <ele>160</ele>
        <time>2020-10-03T11:24:19.000Z</time>
      </trkpt>
      <trkpt lat="43.60741" lon="1.03234">
        <ele>160</ele>
        <time>2020-10-03T11:24:20.000Z</time>
      </trkpt>
      <trkpt lat="43.6074" lon="1.0323">
        <ele>160</ele>
        <time>2020-10-03T11:24:21.000Z</time>
      </trkpt>
      <trkpt lat="43.60739" lon="1.03227">
        <ele>160</ele>
        <time>2020-10-03T11:24:22.000Z</time>
      </trkpt>
      <trkpt lat="43.60737" lon="1.03224">
        <ele>160</ele>
        <time>2020-10-03T11:24:23.000Z</time>
      </trkpt>
      <trkpt lat="43.60736" lon="1.03221">
        <ele>160.41379158146</ele>
        <time>2020-10-03T11:24:24.000Z</time>
      </trkpt>
      <trkpt lat="43.60735" lon="1.03218">
        <ele>161</ele>
        <time>2020-10-03T11:24:25.000Z</time>
      </trkpt>
      <trkpt lat="43.60734" lon="1.03214">
        <ele>161</ele>
        <time>2020-10-03T11:24:26.000Z</time>
      </trkpt>
      <trkpt lat="43.60733" lon="1.03211">
        <ele>161.77519795201</ele>
        <time>2020-10-03T11:24:27.000Z</time>
      </trkpt>
      <trkpt lat="43.60732" lon="1.03208">
        <ele>163</ele>
        <time>2020-10-03T11:24:28.000Z</time>
      </trkpt>
      <trkpt lat="43.60731" lon="1.03204">
        <ele>163</ele>
        <time>2020-10-03T11:24:29.000Z</time>
      </trkpt>
      <trkpt lat="43.6073" lon="1.03201">
        <ele>163</ele>
        <time>2020-10-03T11:24:30.000Z</time>
      </trkpt>
      <trkpt lat="43.60728" lon="1.03198">
        <ele>163</ele>
        <time>2020-10-03T11:24:31.000Z</time>
      </trkpt>
      <trkpt lat="43.60727" lon="1.03195">
        <ele>163</ele>
        <time>2020-10-03T11:24:32.000Z</time>
      </trkpt>
      <trkpt lat="43.60726" lon="1.03191">
        <ele>163</ele>
        <time>2020-10-03T11:24:33.000Z</time>
      </trkpt>
      <trkpt lat="43.60725" lon="1.03188">
        <ele>163</ele>
        <time>2020-10-03T11:24:34.000Z</time>
      </trkpt>
      <trkpt lat="43.60725" lon="1.03185">
        <ele>163</ele>
        <time>2020-10-03T11:24:35.000Z</time>
      </trkpt>
      <trkpt lat="43.60724" lon="1.03182">
        <ele>163</ele>
        <time>2020-10-03T11:24:36.000Z</time>
      </trkpt>
      <trkpt lat="43.60723" lon="1.03179">
        <ele>163.35442894408</ele>
        <time>2020-10-03T11:24:37.000Z</time>
      </trkpt>
      <trkpt lat="43.60722" lon="1.03176">
        <ele>164</ele>
        <time>2020-10-03T11:24:38.000Z</time>
      </trkpt>
      <trkpt lat="43.60721" lon="1.03173">
        <ele>164</ele>
        <time>2020-10-03T11:24:39.000Z</time>
      </trkpt>
      <trkpt lat="43.6072" lon="1.03169">
        <ele>164</ele>
        <time>2020-10-03T11:24:40.000Z</time>
      </trkpt>
      <trkpt lat="43.60718" lon="1.03166">
        <ele>164</ele>
        <time>2020-10-03T11:24:41.000Z</time>
      </trkpt>
      <trkpt lat="43.60717" lon="1.03163">
        <ele>164</ele>
        <time>2020-10-03T11:24:42.000Z</time>
      </trkpt>
      <trkpt lat="43.60716" lon="1.0316">
        <ele>164.45652234404</ele>
        <time>2020-10-03T11:24:43.000Z</time>
      </trkpt>
      <trkpt lat="43.60715" lon="1.03157">
        <ele>165</ele>
        <time>2020-10-03T11:24:44.000Z</time>
      </trkpt>
      <trkpt lat="43.60714" lon="1.03153">
        <ele>165.43749714286</ele>
        <time>2020-10-03T11:24:45.000Z</time>
      </trkpt>
      <trkpt lat="43.60713" lon="1.0315">
        <ele>166</ele>
        <time>2020-10-03T11:24:46.000Z</time>
      </trkpt>
      <trkpt lat="43.60711" lon="1.03147">
        <ele>166</ele>
        <time>2020-10-03T11:24:47.000Z</time>
      </trkpt>
      <trkpt lat="43.6071" lon="1.03143">
        <ele>166</ele>
        <time>2020-10-03T11:24:48.000Z</time>
      </trkpt>
      <trkpt lat="43.60709" lon="1.0314">
        <ele>166</ele>
        <time>2020-10-03T11:24:49.000Z</time>
      </trkpt>
      <trkpt lat="43.60708" lon="1.03138">
        <ele>166</ele>
        <time>2020-10-03T11:24:50.000Z</time>
      </trkpt>
      <trkpt lat="43.60707" lon="1.03135">
        <ele>166</ele>
        <time>2020-10-03T11:24:51.000Z</time>
      </trkpt>
      <trkpt lat="43.60705" lon="1.03132">
        <ele>166</ele>
        <time>2020-10-03T11:24:52.000Z</time>
      </trkpt>
      <trkpt lat="43.60704" lon="1.03129">
        <ele>166</ele>
        <time>2020-10-03T11:24:53.000Z</time>
      </trkpt>
      <trkpt lat="43.60703" lon="1.03126">
        <ele>166</ele>
        <time>2020-10-03T11:24:54.000Z</time>
      </trkpt>
      <trkpt lat="43.60702" lon="1.03123">
        <ele>166</ele>
        <time>2020-10-03T11:24:55.000Z</time>
      </trkpt>
      <trkpt lat="43.60701" lon="1.0312">
        <ele>166</ele>
        <time>2020-10-03T11:24:56.000Z</time>
      </trkpt>
      <trkpt lat="43.607" lon="1.03117">
        <ele>166</ele>
        <time>2020-10-03T11:24:57.000Z</time>
      </trkpt>
      <trkpt lat="43.60698" lon="1.03113">
        <ele>166</ele>
        <time>2020-10-03T11:24:58.000Z</time>
      </trkpt>
      <trkpt lat="43.60697" lon="1.0311">
        <ele>166</ele>
        <time>2020-10-03T11:24:59.000Z</time>
      </trkpt>
      <trkpt lat="43.60696" lon="1.03106">
        <ele>166</ele>
        <time>2020-10-03T11:25:00.000Z</time>
      </trkpt>
      <trkpt lat="43.60695" lon="1.03103">
        <ele>166</ele>
        <time>2020-10-03T11:25:01.000Z</time>
      </trkpt>
      <trkpt lat="43.60694" lon="1.03099">
        <ele>166</ele>
        <time>2020-10-03T11:25:02.000Z</time>
      </trkpt>
      <trkpt lat="43.60692" lon="1.03096">
        <ele>166</ele>
        <time>2020-10-03T11:25:03.000Z</time>
      </trkpt>
      <trkpt lat="43.60691" lon="1.03092">
        <ele>166</ele>
        <time>2020-10-03T11:25:04.000Z</time>
      </trkpt>
      <trkpt lat="43.6069" lon="1.03089">
        <ele>166</ele>
        <time>2020-10-03T11:25:05.000Z</time>
      </trkpt>
      <trkpt lat="43.60689" lon="1.03085">
        <ele>166</ele>
        <time>2020-10-03T11:25:06.000Z</time>
      </trkpt>
      <trkpt lat="43.60688" lon="1.03082">
        <ele>166</ele>
        <time>2020-10-03T11:25:07.000Z</time>
      </trkpt>
      <trkpt lat="43.60687" lon="1.03079">
        <ele>166</ele>
        <time>2020-10-03T11:25:08.000Z</time>
      </trkpt>
      <trkpt lat="43.60685" lon="1.03076">
        <ele>166</ele>
        <time>2020-10-03T11:25:09.000Z</time>
      </trkpt>
      <trkpt lat="43.60685" lon="1.03073">
        <ele>166</ele>
        <time>2020-10-03T11:25:10.000Z</time>
      </trkpt>
      <trkpt lat="43.60684" lon="1.0307">
        <ele>166</ele>
        <time>2020-10-03T11:25:11.000Z</time>
      </trkpt>
      <trkpt lat="43.60683" lon="1.03067">
        <ele>166</ele>
        <time>2020-10-03T11:25:12.000Z</time>
      </trkpt>
      <trkpt lat="43.60681" lon="1.03065">
        <ele>166</ele>
        <time>2020-10-03T11:25:13.000Z</time>
      </trkpt>
      <trkpt lat="43.6068" lon="1.03062">
        <ele>166</ele>
        <time>2020-10-03T11:25:14.000Z</time>
      </trkpt>
      <trkpt lat="43.60679" lon="1.03059">
        <ele>166</ele>
        <time>2020-10-03T11:25:15.000Z</time>
      </trkpt>
      <trkpt lat="43.60678" lon="1.03056">
        <ele>165.63888592593</ele>
        <time>2020-10-03T11:25:16.000Z</time>
      </trkpt>
      <trkpt lat="43.60677" lon="1.03053">
        <ele>165</ele>
        <time>2020-10-03T11:25:17.000Z</time>
      </trkpt>
      <trkpt lat="43.60676" lon="1.0305">
        <ele>165.3125</ele>
        <time>2020-10-03T11:25:18.000Z</time>
      </trkpt>
      <trkpt lat="43.60675" lon="1.03047">
        <ele>166</ele>
        <time>2020-10-03T11:25:19.000Z</time>
      </trkpt>
      <trkpt lat="43.60674" lon="1.03043">
        <ele>166</ele>
        <time>2020-10-03T11:25:20.000Z</time>
      </trkpt>
      <trkpt lat="43.60673" lon="1.0304">
        <ele>166</ele>
        <time>2020-10-03T11:25:21.000Z</time>
      </trkpt>
      <trkpt lat="43.60671" lon="1.03037">
        <ele>166</ele>
        <time>2020-10-03T11:25:22.000Z</time>
      </trkpt>
      <trkpt lat="43.6067" lon="1.03034">
        <ele>166</ele>
        <time>2020-10-03T11:25:23.000Z</time>
      </trkpt>
      <trkpt lat="43.60669" lon="1.0303">
        <ele>166</ele>
        <time>2020-10-03T11:25:24.000Z</time>
      </trkpt>
      <trkpt lat="43.60667" lon="1.03027">
        <ele>166.16882771461</ele>
        <time>2020-10-03T11:25:25.000Z</time>
      </trkpt>
      <trkpt lat="43.60666" lon="1.03024">
        <ele>167</ele>
        <time>2020-10-03T11:25:26.000Z</time>
      </trkpt>
      <trkpt lat="43.60665" lon="1.03021">
        <ele>167</ele>
        <time>2020-10-03T11:25:27.000Z</time>
      </trkpt>
      <trkpt lat="43.60664" lon="1.03017">
        <ele>167</ele>
        <time>2020-10-03T11:25:28.000Z</time>
      </trkpt>
      <trkpt lat="43.60663" lon="1.03014">
        <ele>167</ele>
        <time>2020-10-03T11:25:29.000Z</time>
      </trkpt>
      <trkpt lat="43.60662" lon="1.03011">
        <ele>167</ele>
        <time>2020-10-03T11:25:30.000Z</time>
      </trkpt>
      <trkpt lat="43.6066" lon="1.03007">
        <ele>167.82758316291</ele>
        <time>2020-10-03T11:25:31.000Z</time>
      </trkpt>
      <trkpt lat="43.60659" lon="1.03004">
        <ele>169</ele>
        <time>2020-10-03T11:25:32.000Z</time>
      </trkpt>
      <trkpt lat="43.60658" lon="1.03">
        <ele>169</ele>
        <time>2020-10-03T11:25:33.000Z</time>
      </trkpt>
      <trkpt lat="43.60657" lon="1.02997">
        <ele>168.662496</ele>
        <time>2020-10-03T11:25:34.000Z</time>
      </trkpt>
      <trkpt lat="43.60656" lon="1.02994">
        <ele>168</ele>
        <time>2020-10-03T11:25:35.000Z</time>
      </trkpt>
      <trkpt lat="43.60655" lon="1.02991">
        <ele>168</ele>
        <time>2020-10-03T11:25:36.000Z</time>
      </trkpt>
      <trkpt lat="43.60655" lon="1.02988">
        <ele>167.63703682634</ele>
        <time>2020-10-03T11:25:37.000Z</time>
      </trkpt>
      <trkpt lat="43.60654" lon="1.02985">
        <ele>167</ele>
        <time>2020-10-03T11:25:38.000Z</time>
      </trkpt>
      <trkpt lat="43.60652" lon="1.02981">
        <ele>167</ele>
        <time>2020-10-03T11:25:40.000Z</time>
      </trkpt>
      <trkpt lat="43.60651" lon="1.02978">
        <ele>167</ele>
        <time>2020-10-03T11:25:41.000Z</time>
      </trkpt>
      <trkpt lat="43.60651" lon="1.02976">
        <ele>167.43749714286</ele>
        <time>2020-10-03T11:25:42.000Z</time>
      </trkpt>
      <trkpt lat="43.6065" lon="1.02973">
        <ele>168</ele>
        <time>2020-10-03T11:25:43.000Z</time>
      </trkpt>
      <trkpt lat="43.60649" lon="1.02971">
        <ele>168</ele>
        <time>2020-10-03T11:25:44.000Z</time>
      </trkpt>
      <trkpt lat="43.60648" lon="1.02968">
        <ele>168</ele>
        <time>2020-10-03T11:25:45.000Z</time>
      </trkpt>
      <trkpt lat="43.60647" lon="1.02965">
        <ele>168</ele>
        <time>2020-10-03T11:25:46.000Z</time>
      </trkpt>
      <trkpt lat="43.60645" lon="1.02962">
        <ele>168</ele>
        <time>2020-10-03T11:25:47.000Z</time>
      </trkpt>
      <trkpt lat="43.60644" lon="1.02958">
        <ele>168.41025753233</ele>
        <time>2020-10-03T11:25:48.000Z</time>
      </trkpt>
      <trkpt lat="43.60643" lon="1.02956">
        <ele>169</ele>
        <time>2020-10-03T11:25:49.000Z</time>
      </trkpt>
      <trkpt lat="43.60642" lon="1.02953">
        <ele>169</ele>
        <time>2020-10-03T11:25:50.000Z</time>
      </trkpt>
      <trkpt lat="43.6064" lon="1.02949">
        <ele>169</ele>
        <time>2020-10-03T11:25:51.000Z</time>
      </trkpt>
      <trkpt lat="43.60639" lon="1.02946">
        <ele>169</ele>
        <time>2020-10-03T11:25:52.000Z</time>
      </trkpt>
      <trkpt lat="43.60638" lon="1.02943">
        <ele>169</ele>
        <time>2020-10-03T11:25:53.000Z</time>
      </trkpt>
      <trkpt lat="43.60637" lon="1.0294">
        <ele>169</ele>
        <time>2020-10-03T11:25:54.000Z</time>
      </trkpt>
      <trkpt lat="43.60636" lon="1.02938">
        <ele>169.73810285714</ele>
        <time>2020-10-03T11:25:55.000Z</time>
      </trkpt>
      <trkpt lat="43.60635" lon="1.02935">
        <ele>171</ele>
        <time>2020-10-03T11:25:56.000Z</time>
      </trkpt>
      <trkpt lat="43.60634" lon="1.02932">
        <ele>171</ele>
        <time>2020-10-03T11:25:57.000Z</time>
      </trkpt>
      <trkpt lat="43.60633" lon="1.02929">
        <ele>171</ele>
        <time>2020-10-03T11:25:58.000Z</time>
      </trkpt>
      <trkpt lat="43.60632" lon="1.02925">
        <ele>171</ele>
        <time>2020-10-03T11:25:59.000Z</time>
      </trkpt>
      <trkpt lat="43.60631" lon="1.02922">
        <ele>171.27999453869</ele>
        <time>2020-10-03T11:26:00.000Z</time>
      </trkpt>
      <trkpt lat="43.60629" lon="1.02919">
        <ele>172</ele>
        <time>2020-10-03T11:26:01.000Z</time>
      </trkpt>
      <trkpt lat="43.60628" lon="1.02916">
        <ele>172</ele>
        <time>2020-10-03T11:26:02.000Z</time>
      </trkpt>
      <trkpt lat="43.60628" lon="1.02913">
        <ele>172</ele>
        <time>2020-10-03T11:26:03.000Z</time>
      </trkpt>
      <trkpt lat="43.60627" lon="1.02909">
        <ele>172</ele>
        <time>2020-10-03T11:26:04.000Z</time>
      </trkpt>
      <trkpt lat="43.60626" lon="1.02906">
        <ele>172</ele>
        <time>2020-10-03T11:26:05.000Z</time>
      </trkpt>
      <trkpt lat="43.60625" lon="1.02902">
        <ele>172</ele>
        <time>2020-10-03T11:26:06.000Z</time>
      </trkpt>
      <trkpt lat="43.60624" lon="1.02898">
        <ele>171.65909818182</ele>
        <time>2020-10-03T11:26:07.000Z</time>
      </trkpt>
      <trkpt lat="43.60623" lon="1.02895">
        <ele>171</ele>
        <time>2020-10-03T11:26:08.000Z</time>
      </trkpt>
      <trkpt lat="43.60622" lon="1.02891">
        <ele>171.36363847935</ele>
        <time>2020-10-03T11:26:09.000Z</time>
      </trkpt>
      <trkpt lat="43.6062" lon="1.02887">
        <ele>172</ele>
        <time>2020-10-03T11:26:10.000Z</time>
      </trkpt>
      <trkpt lat="43.60619" lon="1.02884">
        <ele>172</ele>
        <time>2020-10-03T11:26:11.000Z</time>
      </trkpt>
      <trkpt lat="43.60617" lon="1.02881">
        <ele>172</ele>
        <time>2020-10-03T11:26:12.000Z</time>
      </trkpt>
      <trkpt lat="43.60615" lon="1.02877">
        <ele>172</ele>
        <time>2020-10-03T11:26:13.000Z</time>
      </trkpt>
      <trkpt lat="43.60614" lon="1.02874">
        <ele>172</ele>
        <time>2020-10-03T11:26:14.000Z</time>
      </trkpt>
      <trkpt lat="43.60612" lon="1.0287">
        <ele>172</ele>
        <time>2020-10-03T11:26:15.000Z</time>
      </trkpt>
      <trkpt lat="43.60611" lon="1.02866">
        <ele>172</ele>
        <time>2020-10-03T11:26:16.000Z</time>
      </trkpt>
      <trkpt lat="43.6061" lon="1.02862">
        <ele>172</ele>
        <time>2020-10-03T11:26:17.000Z</time>
      </trkpt>
      <trkpt lat="43.60609" lon="1.02859">
        <ele>172</ele>
        <time>2020-10-03T11:26:18.000Z</time>
      </trkpt>
      <trkpt lat="43.60608" lon="1.02855">
        <ele>174</ele>
        <time>2020-10-03T11:26:19.000Z</time>
      </trkpt>
      <trkpt lat="43.60607" lon="1.02851">
        <ele>174</ele>
        <time>2020-10-03T11:26:20.000Z</time>
      </trkpt>
      <trkpt lat="43.60606" lon="1.02848">
        <ele>174</ele>
        <time>2020-10-03T11:26:21.000Z</time>
      </trkpt>
      <trkpt lat="43.60605" lon="1.02844">
        <ele>174</ele>
        <time>2020-10-03T11:26:22.000Z</time>
      </trkpt>
      <trkpt lat="43.60604" lon="1.0284">
        <ele>174</ele>
        <time>2020-10-03T11:26:23.000Z</time>
      </trkpt>
      <trkpt lat="43.60603" lon="1.02837">
        <ele>173.62727346777</ele>
        <time>2020-10-03T11:26:24.000Z</time>
      </trkpt>
      <trkpt lat="43.60602" lon="1.02833">
        <ele>173</ele>
        <time>2020-10-03T11:26:25.000Z</time>
      </trkpt>
      <trkpt lat="43.60601" lon="1.0283">
        <ele>173</ele>
        <time>2020-10-03T11:26:26.000Z</time>
      </trkpt>
      <trkpt lat="43.606" lon="1.02826">
        <ele>173</ele>
        <time>2020-10-03T11:26:27.000Z</time>
      </trkpt>
      <trkpt lat="43.60599" lon="1.02823">
        <ele>173</ele>
        <time>2020-10-03T11:26:28.000Z</time>
      </trkpt>
      <trkpt lat="43.60598" lon="1.0282">
        <ele>173</ele>
        <time>2020-10-03T11:26:29.000Z</time>
      </trkpt>
      <trkpt lat="43.60597" lon="1.02817">
        <ele>172.59130270246</ele>
        <time>2020-10-03T11:26:30.000Z</time>
      </trkpt>
      <trkpt lat="43.60595" lon="1.02813">
        <ele>172</ele>
        <time>2020-10-03T11:26:31.000Z</time>
      </trkpt>
      <trkpt lat="43.60594" lon="1.0281">
        <ele>172</ele>
        <time>2020-10-03T11:26:32.000Z</time>
      </trkpt>
      <trkpt lat="43.60593" lon="1.02807">
        <ele>172</ele>
        <time>2020-10-03T11:26:33.000Z</time>
      </trkpt>
      <trkpt lat="43.60592" lon="1.02804">
        <ele>172</ele>
        <time>2020-10-03T11:26:34.000Z</time>
      </trkpt>
      <trkpt lat="43.60591" lon="1.02801">
        <ele>172.36585391236</ele>
        <time>2020-10-03T11:26:35.000Z</time>
      </trkpt>
      <trkpt lat="43.6059" lon="1.02798">
        <ele>173</ele>
        <time>2020-10-03T11:26:36.000Z</time>
      </trkpt>
      <trkpt lat="43.60589" lon="1.02795">
        <ele>173</ele>
        <time>2020-10-03T11:26:37.000Z</time>
      </trkpt>
      <trkpt lat="43.60589" lon="1.02791">
        <ele>173</ele>
        <time>2020-10-03T11:26:38.000Z</time>
      </trkpt>
      <trkpt lat="43.60588" lon="1.02788">
        <ele>173</ele>
        <time>2020-10-03T11:26:39.000Z</time>
      </trkpt>
      <trkpt lat="43.60586" lon="1.02785">
        <ele>173</ele>
        <time>2020-10-03T11:26:40.000Z</time>
      </trkpt>
      <trkpt lat="43.60585" lon="1.02781">
        <ele>173</ele>
        <time>2020-10-03T11:26:41.000Z</time>
      </trkpt>
      <trkpt lat="43.60585" lon="1.02778">
        <ele>173</ele>
        <time>2020-10-03T11:26:42.000Z</time>
      </trkpt>
      <trkpt lat="43.60584" lon="1.02774">
        <ele>173</ele>
        <time>2020-10-03T11:26:43.000Z</time>
      </trkpt>
      <trkpt lat="43.60582" lon="1.02771">
        <ele>172.54545771903</ele>
        <time>2020-10-03T11:26:44.000Z</time>
      </trkpt>
      <trkpt lat="43.60581" lon="1.02768">
        <ele>172</ele>
        <time>2020-10-03T11:26:45.000Z</time>
      </trkpt>
      <trkpt lat="43.6058" lon="1.02765">
        <ele>172.33708220675</ele>
        <time>2020-10-03T11:26:46.000Z</time>
      </trkpt>
      <trkpt lat="43.60579" lon="1.02762">
        <ele>173</ele>
        <time>2020-10-03T11:26:47.000Z</time>
      </trkpt>
      <trkpt lat="43.60578" lon="1.02759">
        <ele>173</ele>
        <time>2020-10-03T11:26:48.000Z</time>
      </trkpt>
      <trkpt lat="43.60577" lon="1.02756">
        <ele>173</ele>
        <time>2020-10-03T11:26:49.000Z</time>
      </trkpt>
      <trkpt lat="43.60576" lon="1.02753">
        <ele>173</ele>
        <time>2020-10-03T11:26:50.000Z</time>
      </trkpt>
      <trkpt lat="43.60574" lon="1.02749">
        <ele>173</ele>
        <time>2020-10-03T11:26:51.000Z</time>
      </trkpt>
      <trkpt lat="43.60573" lon="1.02746">
        <ele>173.39285714286</ele>
        <time>2020-10-03T11:26:52.000Z</time>
      </trkpt>
      <trkpt lat="43.60572" lon="1.02743">
        <ele>174</ele>
        <time>2020-10-03T11:26:53.000Z</time>
      </trkpt>
      <trkpt lat="43.60571" lon="1.02739">
        <ele>174</ele>
        <time>2020-10-03T11:26:54.000Z</time>
      </trkpt>
      <trkpt lat="43.6057" lon="1.02736">
        <ele>174.16882771461</ele>
        <time>2020-10-03T11:26:55.000Z</time>
      </trkpt>
      <trkpt lat="43.60569" lon="1.02732">
        <ele>175</ele>
        <time>2020-10-03T11:26:56.000Z</time>
      </trkpt>
      <trkpt lat="43.60568" lon="1.02729">
        <ele>175</ele>
        <time>2020-10-03T11:26:57.000Z</time>
      </trkpt>
      <trkpt lat="43.60567" lon="1.02725">
        <ele>175.35779794967</ele>
        <time>2020-10-03T11:26:58.000Z</time>
      </trkpt>
      <trkpt lat="43.60565" lon="1.02722">
        <ele>176</ele>
        <time>2020-10-03T11:26:59.000Z</time>
      </trkpt>
      <trkpt lat="43.60564" lon="1.02719">
        <ele>176</ele>
        <time>2020-10-03T11:27:00.000Z</time>
      </trkpt>
      <trkpt lat="43.60563" lon="1.02716">
        <ele>176</ele>
        <time>2020-10-03T11:27:01.000Z</time>
      </trkpt>
      <trkpt lat="43.60562" lon="1.02713">
        <ele>176</ele>
        <time>2020-10-03T11:27:02.000Z</time>
      </trkpt>
      <trkpt lat="43.6056" lon="1.02709">
        <ele>176</ele>
        <time>2020-10-03T11:27:03.000Z</time>
      </trkpt>
      <trkpt lat="43.60559" lon="1.02706">
        <ele>176</ele>
        <time>2020-10-03T11:27:04.000Z</time>
      </trkpt>
      <trkpt lat="43.60558" lon="1.02702">
        <ele>176</ele>
        <time>2020-10-03T11:27:05.000Z</time>
      </trkpt>
      <trkpt lat="43.60557" lon="1.02699">
        <ele>176</ele>
        <time>2020-10-03T11:27:06.000Z</time>
      </trkpt>
      <trkpt lat="43.60556" lon="1.02696">
        <ele>176</ele>
        <time>2020-10-03T11:27:07.000Z</time>
      </trkpt>
      <trkpt lat="43.60554" lon="1.02692">
        <ele>176</ele>
        <time>2020-10-03T11:27:08.000Z</time>
      </trkpt>
      <trkpt lat="43.60553" lon="1.02689">
        <ele>176</ele>
        <time>2020-10-03T11:27:09.000Z</time>
      </trkpt>
      <trkpt lat="43.60552" lon="1.02686">
        <ele>176</ele>
        <time>2020-10-03T11:27:10.000Z</time>
      </trkpt>
      <trkpt lat="43.6055" lon="1.02682">
        <ele>176</ele>
        <time>2020-10-03T11:27:11.000Z</time>
      </trkpt>
      <trkpt lat="43.60549" lon="1.0268">
        <ele>176</ele>
        <time>2020-10-03T11:27:12.000Z</time>
      </trkpt>
      <trkpt lat="43.60548" lon="1.02676">
        <ele>176</ele>
        <time>2020-10-03T11:27:13.000Z</time>
      </trkpt>
      <trkpt lat="43.60546" lon="1.02673">
        <ele>176</ele>
        <time>2020-10-03T11:27:14.000Z</time>
      </trkpt>
      <trkpt lat="43.60545" lon="1.0267">
        <ele>176</ele>
        <time>2020-10-03T11:27:15.000Z</time>
      </trkpt>
      <trkpt lat="43.60543" lon="1.02666">
        <ele>176</ele>
        <time>2020-10-03T11:27:16.000Z</time>
      </trkpt>
      <trkpt lat="43.60542" lon="1.02663">
        <ele>176</ele>
        <time>2020-10-03T11:27:17.000Z</time>
      </trkpt>
      <trkpt lat="43.60541" lon="1.02659">
        <ele>176</ele>
        <time>2020-10-03T11:27:18.000Z</time>
      </trkpt>
      <trkpt lat="43.60539" lon="1.02656">
        <ele>176</ele>
        <time>2020-10-03T11:27:19.000Z</time>
      </trkpt>
      <trkpt lat="43.60538" lon="1.02652">
        <ele>176</ele>
        <time>2020-10-03T11:27:20.000Z</time>
      </trkpt>
      <trkpt lat="43.60537" lon="1.02649">
        <ele>175.63528897991</ele>
        <time>2020-10-03T11:27:21.000Z</time>
      </trkpt>
      <trkpt lat="43.60536" lon="1.02645">
        <ele>175</ele>
        <time>2020-10-03T11:27:22.000Z</time>
      </trkpt>
      <trkpt lat="43.60535" lon="1.02642">
        <ele>175</ele>
        <time>2020-10-03T11:27:23.000Z</time>
      </trkpt>
      <trkpt lat="43.60533" lon="1.02638">
        <ele>175.45370074074</ele>
        <time>2020-10-03T11:27:24.000Z</time>
      </trkpt>
      <trkpt lat="43.60532" lon="1.02635">
        <ele>176</ele>
        <time>2020-10-03T11:27:25.000Z</time>
      </trkpt>
      <trkpt lat="43.60531" lon="1.02631">
        <ele>176</ele>
        <time>2020-10-03T11:27:26.000Z</time>
      </trkpt>
      <trkpt lat="43.6053" lon="1.02628">
        <ele>176</ele>
        <time>2020-10-03T11:27:27.000Z</time>
      </trkpt>
      <trkpt lat="43.60529" lon="1.02625">
        <ele>176</ele>
        <time>2020-10-03T11:27:28.000Z</time>
      </trkpt>
      <trkpt lat="43.60527" lon="1.02621">
        <ele>176</ele>
        <time>2020-10-03T11:27:29.000Z</time>
      </trkpt>
      <trkpt lat="43.60526" lon="1.02618">
        <ele>176</ele>
        <time>2020-10-03T11:27:30.000Z</time>
      </trkpt>
      <trkpt lat="43.60525" lon="1.02615">
        <ele>176</ele>
        <time>2020-10-03T11:27:31.000Z</time>
      </trkpt>
      <trkpt lat="43.60524" lon="1.02611">
        <ele>176</ele>
        <time>2020-10-03T11:27:32.000Z</time>
      </trkpt>
      <trkpt lat="43.60523" lon="1.02608">
        <ele>176</ele>
        <time>2020-10-03T11:27:33.000Z</time>
      </trkpt>
      <trkpt lat="43.60521" lon="1.02605">
        <ele>176</ele>
        <time>2020-10-03T11:27:34.000Z</time>
      </trkpt>
      <trkpt lat="43.60521" lon="1.02602">
        <ele>175.63953384533</ele>
        <time>2020-10-03T11:27:35.000Z</time>
      </trkpt>
      <trkpt lat="43.6052" lon="1.02599">
        <ele>175</ele>
        <time>2020-10-03T11:27:36.000Z</time>
      </trkpt>
      <trkpt lat="43.60518" lon="1.02596">
        <ele>175</ele>
        <time>2020-10-03T11:27:37.000Z</time>
      </trkpt>
      <trkpt lat="43.60517" lon="1.02593">
        <ele>175</ele>
        <time>2020-10-03T11:27:38.000Z</time>
      </trkpt>
      <trkpt lat="43.60516" lon="1.02589">
        <ele>175</ele>
        <time>2020-10-03T11:27:39.000Z</time>
      </trkpt>
      <trkpt lat="43.60515" lon="1.02586">
        <ele>175</ele>
        <time>2020-10-03T11:27:40.000Z</time>
      </trkpt>
      <trkpt lat="43.60514" lon="1.02583">
        <ele>175.38271546411</ele>
        <time>2020-10-03T11:27:41.000Z</time>
      </trkpt>
      <trkpt lat="43.60512" lon="1.0258">
        <ele>176</ele>
        <time>2020-10-03T11:27:42.000Z</time>
      </trkpt>
      <trkpt lat="43.60511" lon="1.02577">
        <ele>176</ele>
        <time>2020-10-03T11:27:43.000Z</time>
      </trkpt>
      <trkpt lat="43.6051" lon="1.02574">
        <ele>176</ele>
        <time>2020-10-03T11:27:44.000Z</time>
      </trkpt>
      <trkpt lat="43.60509" lon="1.0257">
        <ele>176</ele>
        <time>2020-10-03T11:27:45.000Z</time>
      </trkpt>
      <trkpt lat="43.60507" lon="1.02567">
        <ele>176</ele>
        <time>2020-10-03T11:27:46.000Z</time>
      </trkpt>
      <trkpt lat="43.60506" lon="1.02564">
        <ele>176</ele>
        <time>2020-10-03T11:27:47.000Z</time>
      </trkpt>
      <trkpt lat="43.60504" lon="1.0256">
        <ele>176</ele>
        <time>2020-10-03T11:27:48.000Z</time>
      </trkpt>
      <trkpt lat="43.60503" lon="1.02557">
        <ele>176</ele>
        <time>2020-10-03T11:27:49.000Z</time>
      </trkpt>
      <trkpt lat="43.60502" lon="1.02554">
        <ele>176</ele>
        <time>2020-10-03T11:27:50.000Z</time>
      </trkpt>
      <trkpt lat="43.60501" lon="1.02551">
        <ele>176</ele>
        <time>2020-10-03T11:27:51.000Z</time>
      </trkpt>
      <trkpt lat="43.60499" lon="1.02548">
        <ele>176</ele>
        <time>2020-10-03T11:27:52.000Z</time>
      </trkpt>
      <trkpt lat="43.60498" lon="1.02545">
        <ele>176</ele>
        <time>2020-10-03T11:27:53.000Z</time>
      </trkpt>
      <trkpt lat="43.60497" lon="1.02541">
        <ele>176.36111407407</ele>
        <time>2020-10-03T11:27:54.000Z</time>
      </trkpt>
      <trkpt lat="43.60496" lon="1.02538">
        <ele>177</ele>
        <time>2020-10-03T11:27:55.000Z</time>
      </trkpt>
      <trkpt lat="43.60495" lon="1.02535">
        <ele>177</ele>
        <time>2020-10-03T11:27:56.000Z</time>
      </trkpt>
      <trkpt lat="43.60494" lon="1.02531">
        <ele>177</ele>
        <time>2020-10-03T11:27:57.000Z</time>
      </trkpt>
      <trkpt lat="43.60492" lon="1.02527">
        <ele>177</ele>
        <time>2020-10-03T11:27:58.000Z</time>
      </trkpt>
      <trkpt lat="43.60491" lon="1.02524">
        <ele>177.3780497323</ele>
        <time>2020-10-03T11:27:59.000Z</time>
      </trkpt>
      <trkpt lat="43.6049" lon="1.02521">
        <ele>178</ele>
        <time>2020-10-03T11:28:00.000Z</time>
      </trkpt>
      <trkpt lat="43.6049" lon="1.02518">
        <ele>178</ele>
        <time>2020-10-03T11:28:01.000Z</time>
      </trkpt>
      <trkpt lat="43.60489" lon="1.02515">
        <ele>178</ele>
        <time>2020-10-03T11:28:02.000Z</time>
      </trkpt>
      <trkpt lat="43.60488" lon="1.02512">
        <ele>178</ele>
        <time>2020-10-03T11:28:03.000Z</time>
      </trkpt>
      <trkpt lat="43.60487" lon="1.02509">
        <ele>178.35714285714</ele>
        <time>2020-10-03T11:28:04.000Z</time>
      </trkpt>
      <trkpt lat="43.60486" lon="1.02506">
        <ele>179</ele>
        <time>2020-10-03T11:28:05.000Z</time>
      </trkpt>
      <trkpt lat="43.60484" lon="1.02504">
        <ele>179</ele>
        <time>2020-10-03T11:28:06.000Z</time>
      </trkpt>
      <trkpt lat="43.60483" lon="1.02501">
        <ele>179</ele>
        <time>2020-10-03T11:28:07.000Z</time>
      </trkpt>
      <trkpt lat="43.60482" lon="1.02498">
        <ele>179</ele>
        <time>2020-10-03T11:28:08.000Z</time>
      </trkpt>
      <trkpt lat="43.60481" lon="1.02495">
        <ele>179</ele>
        <time>2020-10-03T11:28:09.000Z</time>
      </trkpt>
      <trkpt lat="43.6048" lon="1.02491">
        <ele>179</ele>
        <time>2020-10-03T11:28:10.000Z</time>
      </trkpt>
      <trkpt lat="43.60479" lon="1.02488">
        <ele>179</ele>
        <time>2020-10-03T11:28:11.000Z</time>
      </trkpt>
      <trkpt lat="43.60478" lon="1.02485">
        <ele>179</ele>
        <time>2020-10-03T11:28:12.000Z</time>
      </trkpt>
      <trkpt lat="43.60476" lon="1.02482">
        <ele>179</ele>
        <time>2020-10-03T11:28:13.000Z</time>
      </trkpt>
      <trkpt lat="43.60475" lon="1.02479">
        <ele>179</ele>
        <time>2020-10-03T11:28:14.000Z</time>
      </trkpt>
      <trkpt lat="43.60474" lon="1.02475">
        <ele>179</ele>
        <time>2020-10-03T11:28:15.000Z</time>
      </trkpt>
      <trkpt lat="43.60473" lon="1.02472">
        <ele>179</ele>
        <time>2020-10-03T11:28:16.000Z</time>
      </trkpt>
      <trkpt lat="43.60471" lon="1.02469">
        <ele>179</ele>
        <time>2020-10-03T11:28:17.000Z</time>
      </trkpt>
      <trkpt lat="43.6047" lon="1.02466">
        <ele>179</ele>
        <time>2020-10-03T11:28:18.000Z</time>
      </trkpt>
      <trkpt lat="43.60469" lon="1.02463">
        <ele>179</ele>
        <time>2020-10-03T11:28:19.000Z</time>
      </trkpt>
      <trkpt lat="43.60468" lon="1.0246">
        <ele>179</ele>
        <time>2020-10-03T11:28:20.000Z</time>
      </trkpt>
      <trkpt lat="43.60467" lon="1.02457">
        <ele>179</ele>
        <time>2020-10-03T11:28:21.000Z</time>
      </trkpt>
      <trkpt lat="43.60466" lon="1.02453">
        <ele>179</ele>
        <time>2020-10-03T11:28:22.000Z</time>
      </trkpt>
      <trkpt lat="43.60465" lon="1.0245">
        <ele>179.45793956504</ele>
        <time>2020-10-03T11:28:23.000Z</time>
      </trkpt>
      <trkpt lat="43.60464" lon="1.02446">
        <ele>180</ele>
        <time>2020-10-03T11:28:24.000Z</time>
      </trkpt>
      <trkpt lat="43.60463" lon="1.02443">
        <ele>180.35897141357</ele>
        <time>2020-10-03T11:28:25.000Z</time>
      </trkpt>
      <trkpt lat="43.60462" lon="1.02439">
        <ele>181</ele>
        <time>2020-10-03T11:28:26.000Z</time>
      </trkpt>
      <trkpt lat="43.60461" lon="1.02436">
        <ele>181</ele>
        <time>2020-10-03T11:28:27.000Z</time>
      </trkpt>
      <trkpt lat="43.6046" lon="1.02432">
        <ele>181</ele>
        <time>2020-10-03T11:28:28.000Z</time>
      </trkpt>
      <trkpt lat="43.60458" lon="1.02425">
        <ele>181</ele>
        <time>2020-10-03T11:28:30.000Z</time>
      </trkpt>
      <trkpt lat="43.60457" lon="1.02422">
        <ele>181</ele>
        <time>2020-10-03T11:28:31.000Z</time>
      </trkpt>
      <trkpt lat="43.60456" lon="1.02419">
        <ele>181</ele>
        <time>2020-10-03T11:28:32.000Z</time>
      </trkpt>
      <trkpt lat="43.60455" lon="1.02415">
        <ele>181</ele>
        <time>2020-10-03T11:28:33.000Z</time>
      </trkpt>
      <trkpt lat="43.60454" lon="1.02412">
        <ele>181.39682233307</ele>
        <time>2020-10-03T11:28:34.000Z</time>
      </trkpt>
      <trkpt lat="43.60453" lon="1.0241">
        <ele>182.26086956522</ele>
        <time>2020-10-03T11:28:35.000Z</time>
      </trkpt>
      <trkpt lat="43.60452" lon="1.02405">
        <ele>183.14400401405</ele>
        <time>2020-10-03T11:28:37.000Z</time>
      </trkpt>
      <trkpt lat="43.60452" lon="1.02403">
        <ele>183.9439978701</ele>
        <time>2020-10-03T11:28:38.000Z</time>
      </trkpt>
      <trkpt lat="43.60451" lon="1.024">
        <ele>184</ele>
        <time>2020-10-03T11:28:39.000Z</time>
      </trkpt>
      <trkpt lat="43.60451" lon="1.02396">
        <ele>184</ele>
        <time>2020-10-03T11:28:41.000Z</time>
      </trkpt>
      <trkpt lat="43.6045" lon="1.02392">
        <ele>184</ele>
        <time>2020-10-03T11:28:43.000Z</time>
      </trkpt>
      <trkpt lat="43.60448" lon="1.02389">
        <ele>184</ele>
        <time>2020-10-03T11:28:45.000Z</time>
      </trkpt>
      <trkpt lat="43.60447" lon="1.02385">
        <ele>185</ele>
        <time>2020-10-03T11:28:47.000Z</time>
      </trkpt>
      <trkpt lat="43.60446" lon="1.02383">
        <ele>185</ele>
        <time>2020-10-03T11:28:49.000Z</time>
      </trkpt>
      <trkpt lat="43.60445" lon="1.0238">
        <ele>185</ele>
        <time>2020-10-03T11:28:51.000Z</time>
      </trkpt>
      <trkpt lat="43.60443" lon="1.02376">
        <ele>185</ele>
        <time>2020-10-03T11:28:53.000Z</time>
      </trkpt>
      <trkpt lat="43.60442" lon="1.02372">
        <ele>185</ele>
        <time>2020-10-03T11:28:55.000Z</time>
      </trkpt>
      <trkpt lat="43.60441" lon="1.02368">
        <ele>185</ele>
        <time>2020-10-03T11:28:57.000Z</time>
      </trkpt>
      <trkpt lat="43.6044" lon="1.02364">
        <ele>185.27678857143</ele>
        <time>2020-10-03T11:28:59.000Z</time>
      </trkpt>
      <trkpt lat="43.60438" lon="1.02361">
        <ele>186</ele>
        <time>2020-10-03T11:29:01.000Z</time>
      </trkpt>
      <trkpt lat="43.60437" lon="1.02357">
        <ele>186</ele>
        <time>2020-10-03T11:29:03.000Z</time>
      </trkpt>
      <trkpt lat="43.60435" lon="1.02353">
        <ele>186</ele>
        <time>2020-10-03T11:29:05.000Z</time>
      </trkpt>
      <trkpt lat="43.60434" lon="1.02351">
        <ele>186</ele>
        <time>2020-10-03T11:29:06.000Z</time>
      </trkpt>
      <trkpt lat="43.60433" lon="1.02347">
        <ele>187</ele>
        <time>2020-10-03T11:29:08.000Z</time>
      </trkpt>
      <trkpt lat="43.60432" lon="1.02345">
        <ele>187</ele>
        <time>2020-10-03T11:29:09.000Z</time>
      </trkpt>
      <trkpt lat="43.60431" lon="1.0234">
        <ele>186.64557105592</ele>
        <time>2020-10-03T11:29:11.000Z</time>
      </trkpt>
      <trkpt lat="43.6043" lon="1.02336">
        <ele>186</ele>
        <time>2020-10-03T11:29:13.000Z</time>
      </trkpt>
      <trkpt lat="43.60429" lon="1.02332">
        <ele>186</ele>
        <time>2020-10-03T11:29:15.000Z</time>
      </trkpt>
      <trkpt lat="43.60428" lon="1.02328">
        <ele>186.4336267147</ele>
        <time>2020-10-03T11:29:17.000Z</time>
      </trkpt>
      <trkpt lat="43.60426" lon="1.02324">
        <ele>187</ele>
        <time>2020-10-03T11:29:19.000Z</time>
      </trkpt>
      <trkpt lat="43.60425" lon="1.0232">
        <ele>189</ele>
        <time>2020-10-03T11:29:21.000Z</time>
      </trkpt>
      <trkpt lat="43.60424" lon="1.02316">
        <ele>189</ele>
        <time>2020-10-03T11:29:23.000Z</time>
      </trkpt>
      <trkpt lat="43.60423" lon="1.02312">
        <ele>189</ele>
        <time>2020-10-03T11:29:25.000Z</time>
      </trkpt>
      <trkpt lat="43.60422" lon="1.02308">
        <ele>189</ele>
        <time>2020-10-03T11:29:27.000Z</time>
      </trkpt>
      <trkpt lat="43.60421" lon="1.02304">
        <ele>189</ele>
        <time>2020-10-03T11:29:29.000Z</time>
      </trkpt>
      <trkpt lat="43.6042" lon="1.023">
        <ele>189</ele>
        <time>2020-10-03T11:29:31.000Z</time>
      </trkpt>
      <trkpt lat="43.60419" lon="1.02296">
        <ele>189</ele>
        <time>2020-10-03T11:29:33.000Z</time>
      </trkpt>
      <trkpt lat="43.60418" lon="1.02292">
        <ele>189.74545306445</ele>
        <time>2020-10-03T11:29:35.000Z</time>
      </trkpt>
      <trkpt lat="43.60417" lon="1.02289">
        <ele>191</ele>
        <time>2020-10-03T11:29:37.000Z</time>
      </trkpt>
      <trkpt lat="43.60415" lon="1.02285">
        <ele>191</ele>
        <time>2020-10-03T11:29:39.000Z</time>
      </trkpt>
      <trkpt lat="43.60414" lon="1.02281">
        <ele>191</ele>
        <time>2020-10-03T11:29:41.000Z</time>
      </trkpt>
      <trkpt lat="43.60412" lon="1.02277">
        <ele>191</ele>
        <time>2020-10-03T11:29:43.000Z</time>
      </trkpt>
      <trkpt lat="43.60411" lon="1.02274">
        <ele>191</ele>
        <time>2020-10-03T11:29:45.000Z</time>
      </trkpt>
      <trkpt lat="43.60409" lon="1.02271">
        <ele>192</ele>
        <time>2020-10-03T11:29:47.000Z</time>
      </trkpt>
      <trkpt lat="43.60408" lon="1.02267">
        <ele>192.46296340192</ele>
        <time>2020-10-03T11:29:49.000Z</time>
      </trkpt>
      <trkpt lat="43.60406" lon="1.02264">
        <ele>193</ele>
        <time>2020-10-03T11:29:51.000Z</time>
      </trkpt>
      <trkpt lat="43.60404" lon="1.02261">
        <ele>193</ele>
        <time>2020-10-03T11:29:53.000Z</time>
      </trkpt>
      <trkpt lat="43.60403" lon="1.02259">
        <ele>193</ele>
        <time>2020-10-03T11:29:55.000Z</time>
      </trkpt>
      <trkpt lat="43.60402" lon="1.02255">
        <ele>194</ele>
        <time>2020-10-03T11:29:57.000Z</time>
      </trkpt>
      <trkpt lat="43.604" lon="1.02252">
        <ele>194</ele>
        <time>2020-10-03T11:29:59.000Z</time>
      </trkpt>
      <trkpt lat="43.60398" lon="1.02248">
        <ele>194</ele>
        <time>2020-10-03T11:30:01.000Z</time>
      </trkpt>
      <trkpt lat="43.60397" lon="1.02244">
        <ele>194</ele>
        <time>2020-10-03T11:30:03.000Z</time>
      </trkpt>
      <trkpt lat="43.60396" lon="1.0224">
        <ele>194</ele>
        <time>2020-10-03T11:30:05.000Z</time>
      </trkpt>
      <trkpt lat="43.60395" lon="1.02235">
        <ele>194</ele>
        <time>2020-10-03T11:30:07.000Z</time>
      </trkpt>
      <trkpt lat="43.60394" lon="1.02231">
        <ele>194.36765176471</ele>
        <time>2020-10-03T11:30:09.000Z</time>
      </trkpt>
      <trkpt lat="43.60393" lon="1.02227">
        <ele>195</ele>
        <time>2020-10-03T11:30:11.000Z</time>
      </trkpt>
      <trkpt lat="43.60392" lon="1.02223">
        <ele>196</ele>
        <time>2020-10-03T11:30:13.000Z</time>
      </trkpt>
      <trkpt lat="43.6039" lon="1.02219">
        <ele>196</ele>
        <time>2020-10-03T11:30:15.000Z</time>
      </trkpt>
      <trkpt lat="43.60389" lon="1.02215">
        <ele>196</ele>
        <time>2020-10-03T11:30:17.000Z</time>
      </trkpt>
      <trkpt lat="43.60387" lon="1.02211">
        <ele>196</ele>
        <time>2020-10-03T11:30:19.000Z</time>
      </trkpt>
      <trkpt lat="43.60386" lon="1.02208">
        <ele>196</ele>
        <time>2020-10-03T11:30:21.000Z</time>
      </trkpt>
      <trkpt lat="43.60385" lon="1.02204">
        <ele>196</ele>
        <time>2020-10-03T11:30:23.000Z</time>
      </trkpt>
      <trkpt lat="43.60384" lon="1.02199">
        <ele>196</ele>
        <time>2020-10-03T11:30:25.000Z</time>
      </trkpt>
      <trkpt lat="43.60384" lon="1.02196">
        <ele>196</ele>
        <time>2020-10-03T11:30:26.000Z</time>
      </trkpt>
      <trkpt lat="43.60383" lon="1.02193">
        <ele>196</ele>
        <time>2020-10-03T11:30:27.000Z</time>
      </trkpt>
      <trkpt lat="43.60383" lon="1.0219">
        <ele>196</ele>
        <time>2020-10-03T11:30:28.000Z</time>
      </trkpt>
      <trkpt lat="43.60382" lon="1.02187">
        <ele>196</ele>
        <time>2020-10-03T11:30:29.000Z</time>
      </trkpt>
      <trkpt lat="43.60381" lon="1.02183">
        <ele>196</ele>
        <time>2020-10-03T11:30:30.000Z</time>
      </trkpt>
      <trkpt lat="43.6038" lon="1.0218">
        <ele>196</ele>
        <time>2020-10-03T11:30:31.000Z</time>
      </trkpt>
      <trkpt lat="43.60379" lon="1.02177">
        <ele>196</ele>
        <time>2020-10-03T11:30:32.000Z</time>
      </trkpt>
      <trkpt lat="43.60379" lon="1.02173">
        <ele>196</ele>
        <time>2020-10-03T11:30:33.000Z</time>
      </trkpt>
      <trkpt lat="43.60378" lon="1.02169">
        <ele>196</ele>
        <time>2020-10-03T11:30:34.000Z</time>
      </trkpt>
      <trkpt lat="43.60377" lon="1.02165">
        <ele>196</ele>
        <time>2020-10-03T11:30:35.000Z</time>
      </trkpt>
      <trkpt lat="43.60376" lon="1.02162">
        <ele>196</ele>
        <time>2020-10-03T11:30:36.000Z</time>
      </trkpt>
      <trkpt lat="43.60376" lon="1.02158">
        <ele>196.36708307004</ele>
        <time>2020-10-03T11:30:37.000Z</time>
      </trkpt>
      <trkpt lat="43.60375" lon="1.02154">
        <ele>197</ele>
        <time>2020-10-03T11:30:38.000Z</time>
      </trkpt>
      <trkpt lat="43.60374" lon="1.0215">
        <ele>197.43820111603</ele>
        <time>2020-10-03T11:30:39.000Z</time>
      </trkpt>
      <trkpt lat="43.60373" lon="1.02146">
        <ele>198</ele>
        <time>2020-10-03T11:30:40.000Z</time>
      </trkpt>
      <trkpt lat="43.60372" lon="1.02143">
        <ele>198</ele>
        <time>2020-10-03T11:30:41.000Z</time>
      </trkpt>
      <trkpt lat="43.60371" lon="1.02139">
        <ele>198</ele>
        <time>2020-10-03T11:30:42.000Z</time>
      </trkpt>
      <trkpt lat="43.60371" lon="1.02135">
        <ele>198</ele>
        <time>2020-10-03T11:30:43.000Z</time>
      </trkpt>
      <trkpt lat="43.6037" lon="1.02131">
        <ele>198</ele>
        <time>2020-10-03T11:30:44.000Z</time>
      </trkpt>
      <trkpt lat="43.60369" lon="1.02127">
        <ele>198</ele>
        <time>2020-10-03T11:30:45.000Z</time>
      </trkpt>
      <trkpt lat="43.60368" lon="1.02124">
        <ele>198</ele>
        <time>2020-10-03T11:30:46.000Z</time>
      </trkpt>
      <trkpt lat="43.60368" lon="1.0212">
        <ele>198</ele>
        <time>2020-10-03T11:30:47.000Z</time>
      </trkpt>
      <trkpt lat="43.60367" lon="1.02116">
        <ele>198</ele>
        <time>2020-10-03T11:30:48.000Z</time>
      </trkpt>
      <trkpt lat="43.60366" lon="1.02108">
        <ele>198</ele>
        <time>2020-10-03T11:30:50.000Z</time>
      </trkpt>
      <trkpt lat="43.60365" lon="1.02104">
        <ele>198</ele>
        <time>2020-10-03T11:30:51.000Z</time>
      </trkpt>
      <trkpt lat="43.60364" lon="1.02101">
        <ele>198</ele>
        <time>2020-10-03T11:30:52.000Z</time>
      </trkpt>
      <trkpt lat="43.60364" lon="1.02097">
        <ele>198</ele>
        <time>2020-10-03T11:30:53.000Z</time>
      </trkpt>
      <trkpt lat="43.60363" lon="1.02093">
        <ele>197.69306905598</ele>
        <time>2020-10-03T11:30:54.000Z</time>
      </trkpt>
      <trkpt lat="43.60363" lon="1.0209">
        <ele>197</ele>
        <time>2020-10-03T11:30:55.000Z</time>
      </trkpt>
      <trkpt lat="43.60362" lon="1.02086">
        <ele>197</ele>
        <time>2020-10-03T11:30:56.000Z</time>
      </trkpt>
      <trkpt lat="43.60361" lon="1.02082">
        <ele>197</ele>
        <time>2020-10-03T11:30:57.000Z</time>
      </trkpt>
      <trkpt lat="43.60361" lon="1.02079">
        <ele>197</ele>
        <time>2020-10-03T11:30:58.000Z</time>
      </trkpt>
      <trkpt lat="43.6036" lon="1.02076">
        <ele>197</ele>
        <time>2020-10-03T11:30:59.000Z</time>
      </trkpt>
      <trkpt lat="43.60359" lon="1.02072">
        <ele>197</ele>
        <time>2020-10-03T11:31:00.000Z</time>
      </trkpt>
      <trkpt lat="43.60358" lon="1.02069">
        <ele>197</ele>
        <time>2020-10-03T11:31:01.000Z</time>
      </trkpt>
      <trkpt lat="43.60357" lon="1.02065">
        <ele>197</ele>
        <time>2020-10-03T11:31:02.000Z</time>
      </trkpt>
      <trkpt lat="43.60356" lon="1.02062">
        <ele>197</ele>
        <time>2020-10-03T11:31:03.000Z</time>
      </trkpt>
      <trkpt lat="43.60356" lon="1.02058">
        <ele>197</ele>
        <time>2020-10-03T11:31:04.000Z</time>
      </trkpt>
      <trkpt lat="43.60355" lon="1.02054">
        <ele>197</ele>
        <time>2020-10-03T11:31:05.000Z</time>
      </trkpt>
      <trkpt lat="43.60355" lon="1.0205">
        <ele>197.36295973224</ele>
        <time>2020-10-03T11:31:06.000Z</time>
      </trkpt>
      <trkpt lat="43.60354" lon="1.02047">
        <ele>198</ele>
        <time>2020-10-03T11:31:07.000Z</time>
      </trkpt>
      <trkpt lat="43.60353" lon="1.02043">
        <ele>198</ele>
        <time>2020-10-03T11:31:08.000Z</time>
      </trkpt>
      <trkpt lat="43.60353" lon="1.02039">
        <ele>198</ele>
        <time>2020-10-03T11:31:09.000Z</time>
      </trkpt>
      <trkpt lat="43.60352" lon="1.02036">
        <ele>198</ele>
        <time>2020-10-03T11:31:10.000Z</time>
      </trkpt>
      <trkpt lat="43.60351" lon="1.02032">
        <ele>198</ele>
        <time>2020-10-03T11:31:11.000Z</time>
      </trkpt>
      <trkpt lat="43.60351" lon="1.02028">
        <ele>198</ele>
        <time>2020-10-03T11:31:12.000Z</time>
      </trkpt>
      <trkpt lat="43.6035" lon="1.02025">
        <ele>198</ele>
        <time>2020-10-03T11:31:13.000Z</time>
      </trkpt>
      <trkpt lat="43.60349" lon="1.02021">
        <ele>198.40776457722</ele>
        <time>2020-10-03T11:31:14.000Z</time>
      </trkpt>
      <trkpt lat="43.60348" lon="1.02018">
        <ele>199</ele>
        <time>2020-10-03T11:31:15.000Z</time>
      </trkpt>
      <trkpt lat="43.60348" lon="1.02014">
        <ele>199</ele>
        <time>2020-10-03T11:31:16.000Z</time>
      </trkpt>
      <trkpt lat="43.60347" lon="1.0201">
        <ele>199</ele>
        <time>2020-10-03T11:31:17.000Z</time>
      </trkpt>
      <trkpt lat="43.60347" lon="1.02007">
        <ele>199</ele>
        <time>2020-10-03T11:31:18.000Z</time>
      </trkpt>
      <trkpt lat="43.60346" lon="1.02003">
        <ele>199</ele>
        <time>2020-10-03T11:31:19.000Z</time>
      </trkpt>
      <trkpt lat="43.60346" lon="1.01999">
        <ele>199</ele>
        <time>2020-10-03T11:31:20.000Z</time>
      </trkpt>
      <trkpt lat="43.60345" lon="1.01996">
        <ele>199</ele>
        <time>2020-10-03T11:31:21.000Z</time>
      </trkpt>
      <trkpt lat="43.60344" lon="1.01992">
        <ele>199</ele>
        <time>2020-10-03T11:31:22.000Z</time>
      </trkpt>
      <trkpt lat="43.60344" lon="1.01989">
        <ele>199</ele>
        <time>2020-10-03T11:31:23.000Z</time>
      </trkpt>
      <trkpt lat="43.60344" lon="1.01985">
        <ele>199</ele>
        <time>2020-10-03T11:31:24.000Z</time>
      </trkpt>
      <trkpt lat="43.60343" lon="1.01981">
        <ele>199</ele>
        <time>2020-10-03T11:31:25.000Z</time>
      </trkpt>
      <trkpt lat="43.60343" lon="1.01978">
        <ele>198.86537846154</ele>
        <time>2020-10-03T11:31:26.000Z</time>
      </trkpt>
      <trkpt lat="43.60342" lon="1.01974">
        <ele>198</ele>
        <time>2020-10-03T11:31:27.000Z</time>
      </trkpt>
      <trkpt lat="43.60341" lon="1.01971">
        <ele>198</ele>
        <time>2020-10-03T11:31:28.000Z</time>
      </trkpt>
      <trkpt lat="43.60341" lon="1.01967">
        <ele>198</ele>
        <time>2020-10-03T11:31:29.000Z</time>
      </trkpt>
      <trkpt lat="43.6034" lon="1.01963">
        <ele>198.40196016916</ele>
        <time>2020-10-03T11:31:30.000Z</time>
      </trkpt>
      <trkpt lat="43.6034" lon="1.01959">
        <ele>199</ele>
        <time>2020-10-03T11:31:31.000Z</time>
      </trkpt>
      <trkpt lat="43.60339" lon="1.01956">
        <ele>199.45871107145</ele>
        <time>2020-10-03T11:31:32.000Z</time>
      </trkpt>
      <trkpt lat="43.60338" lon="1.01952">
        <ele>200</ele>
        <time>2020-10-03T11:31:33.000Z</time>
      </trkpt>
      <trkpt lat="43.60338" lon="1.01948">
        <ele>200.43820741827</ele>
        <time>2020-10-03T11:31:34.000Z</time>
      </trkpt>
      <trkpt lat="43.60337" lon="1.01945">
        <ele>201</ele>
        <time>2020-10-03T11:31:35.000Z</time>
      </trkpt>
      <trkpt lat="43.60336" lon="1.01941">
        <ele>201</ele>
        <time>2020-10-03T11:31:36.000Z</time>
      </trkpt>
      <trkpt lat="43.60335" lon="1.01938">
        <ele>201</ele>
        <time>2020-10-03T11:31:37.000Z</time>
      </trkpt>
      <trkpt lat="43.60335" lon="1.01934">
        <ele>200.56250285714</ele>
        <time>2020-10-03T11:31:38.000Z</time>
      </trkpt>
      <trkpt lat="43.60334" lon="1.0193">
        <ele>200</ele>
        <time>2020-10-03T11:31:39.000Z</time>
      </trkpt>
      <trkpt lat="43.60334" lon="1.01927">
        <ele>200</ele>
        <time>2020-10-03T11:31:40.000Z</time>
      </trkpt>
      <trkpt lat="43.60333" lon="1.01923">
        <ele>200.37614495749</ele>
        <time>2020-10-03T11:31:41.000Z</time>
      </trkpt>
      <trkpt lat="43.60332" lon="1.0192">
        <ele>201</ele>
        <time>2020-10-03T11:31:42.000Z</time>
      </trkpt>
      <trkpt lat="43.60332" lon="1.01916">
        <ele>201</ele>
        <time>2020-10-03T11:31:43.000Z</time>
      </trkpt>
      <trkpt lat="43.60331" lon="1.01913">
        <ele>201</ele>
        <time>2020-10-03T11:31:44.000Z</time>
      </trkpt>
      <trkpt lat="43.60331" lon="1.0191">
        <ele>201</ele>
        <time>2020-10-03T11:31:45.000Z</time>
      </trkpt>
      <trkpt lat="43.60331" lon="1.01907">
        <ele>201</ele>
        <time>2020-10-03T11:31:46.000Z</time>
      </trkpt>
      <trkpt lat="43.6033" lon="1.01903">
        <ele>201</ele>
        <time>2020-10-03T11:31:47.000Z</time>
      </trkpt>
      <trkpt lat="43.60329" lon="1.01899">
        <ele>201</ele>
        <time>2020-10-03T11:31:48.000Z</time>
      </trkpt>
      <trkpt lat="43.60328" lon="1.01896">
        <ele>201</ele>
        <time>2020-10-03T11:31:49.000Z</time>
      </trkpt>
      <trkpt lat="43.60327" lon="1.01892">
        <ele>201</ele>
        <time>2020-10-03T11:31:50.000Z</time>
      </trkpt>
      <trkpt lat="43.60327" lon="1.01889">
        <ele>201</ele>
        <time>2020-10-03T11:31:51.000Z</time>
      </trkpt>
      <trkpt lat="43.60326" lon="1.01885">
        <ele>201</ele>
        <time>2020-10-03T11:31:52.000Z</time>
      </trkpt>
      <trkpt lat="43.60326" lon="1.01881">
        <ele>201</ele>
        <time>2020-10-03T11:31:53.000Z</time>
      </trkpt>
      <trkpt lat="43.60325" lon="1.01878">
        <ele>201</ele>
        <time>2020-10-03T11:31:54.000Z</time>
      </trkpt>
      <trkpt lat="43.60325" lon="1.01874">
        <ele>201</ele>
        <time>2020-10-03T11:31:55.000Z</time>
      </trkpt>
      <trkpt lat="43.60324" lon="1.0187">
        <ele>201</ele>
        <time>2020-10-03T11:31:56.000Z</time>
      </trkpt>
      <trkpt lat="43.60323" lon="1.01866">
        <ele>201</ele>
        <time>2020-10-03T11:31:57.000Z</time>
      </trkpt>
      <trkpt lat="43.60322" lon="1.01862">
        <ele>201</ele>
        <time>2020-10-03T11:31:58.000Z</time>
      </trkpt>
      <trkpt lat="43.60321" lon="1.01858">
        <ele>201</ele>
        <time>2020-10-03T11:31:59.000Z</time>
      </trkpt>
      <trkpt lat="43.6032" lon="1.01854">
        <ele>201.72566010806</ele>
        <time>2020-10-03T11:32:00.000Z</time>
      </trkpt>
      <trkpt lat="43.60319" lon="1.0185">
        <ele>203</ele>
        <time>2020-10-03T11:32:01.000Z</time>
      </trkpt>
      <trkpt lat="43.60318" lon="1.01846">
        <ele>203</ele>
        <time>2020-10-03T11:32:02.000Z</time>
      </trkpt>
      <trkpt lat="43.60318" lon="1.01843">
        <ele>203</ele>
        <time>2020-10-03T11:32:03.000Z</time>
      </trkpt>
      <trkpt lat="43.60317" lon="1.01839">
        <ele>203</ele>
        <time>2020-10-03T11:32:04.000Z</time>
      </trkpt>
      <trkpt lat="43.60316" lon="1.01836">
        <ele>203</ele>
        <time>2020-10-03T11:32:05.000Z</time>
      </trkpt>
      <trkpt lat="43.60315" lon="1.01832">
        <ele>203</ele>
        <time>2020-10-03T11:32:06.000Z</time>
      </trkpt>
      <trkpt lat="43.60314" lon="1.01829">
        <ele>202.62727346777</ele>
        <time>2020-10-03T11:32:07.000Z</time>
      </trkpt>
      <trkpt lat="43.60313" lon="1.01826">
        <ele>202</ele>
        <time>2020-10-03T11:32:08.000Z</time>
      </trkpt>
      <trkpt lat="43.60312" lon="1.01822">
        <ele>202</ele>
        <time>2020-10-03T11:32:09.000Z</time>
      </trkpt>
      <trkpt lat="43.60311" lon="1.01819">
        <ele>202</ele>
        <time>2020-10-03T11:32:10.000Z</time>
      </trkpt>
      <trkpt lat="43.6031" lon="1.01815">
        <ele>202</ele>
        <time>2020-10-03T11:32:11.000Z</time>
      </trkpt>
      <trkpt lat="43.6031" lon="1.01812">
        <ele>202</ele>
        <time>2020-10-03T11:32:12.000Z</time>
      </trkpt>
      <trkpt lat="43.60309" lon="1.01808">
        <ele>202</ele>
        <time>2020-10-03T11:32:13.000Z</time>
      </trkpt>
      <trkpt lat="43.60308" lon="1.01804">
        <ele>202</ele>
        <time>2020-10-03T11:32:14.000Z</time>
      </trkpt>
      <trkpt lat="43.60308" lon="1.01801">
        <ele>202</ele>
        <time>2020-10-03T11:32:15.000Z</time>
      </trkpt>
      <trkpt lat="43.60307" lon="1.01797">
        <ele>202.45370074074</ele>
        <time>2020-10-03T11:32:16.000Z</time>
      </trkpt>
      <trkpt lat="43.60306" lon="1.01794">
        <ele>203</ele>
        <time>2020-10-03T11:32:17.000Z</time>
      </trkpt>
      <trkpt lat="43.60306" lon="1.0179">
        <ele>203</ele>
        <time>2020-10-03T11:32:18.000Z</time>
      </trkpt>
      <trkpt lat="43.60305" lon="1.01787">
        <ele>202.54206043496</ele>
        <time>2020-10-03T11:32:19.000Z</time>
      </trkpt>
      <trkpt lat="43.60304" lon="1.01783">
        <ele>202</ele>
        <time>2020-10-03T11:32:20.000Z</time>
      </trkpt>
      <trkpt lat="43.60304" lon="1.01779">
        <ele>202</ele>
        <time>2020-10-03T11:32:21.000Z</time>
      </trkpt>
      <trkpt lat="43.60303" lon="1.01775">
        <ele>202</ele>
        <time>2020-10-03T11:32:22.000Z</time>
      </trkpt>
      <trkpt lat="43.60303" lon="1.01772">
        <ele>202.10389653567</ele>
        <time>2020-10-03T11:32:23.000Z</time>
      </trkpt>
      <trkpt lat="43.60302" lon="1.01768">
        <ele>203</ele>
        <time>2020-10-03T11:32:24.000Z</time>
      </trkpt>
      <trkpt lat="43.60302" lon="1.01764">
        <ele>203</ele>
        <time>2020-10-03T11:32:25.000Z</time>
      </trkpt>
      <trkpt lat="43.60301" lon="1.0176">
        <ele>202.67816210331</ele>
        <time>2020-10-03T11:32:26.000Z</time>
      </trkpt>
      <trkpt lat="43.603" lon="1.01756">
        <ele>202</ele>
        <time>2020-10-03T11:32:27.000Z</time>
      </trkpt>
      <trkpt lat="43.60299" lon="1.01752">
        <ele>201.63953384533</ele>
        <time>2020-10-03T11:32:28.000Z</time>
      </trkpt>
      <trkpt lat="43.60298" lon="1.01747">
        <ele>201</ele>
        <time>2020-10-03T11:32:29.000Z</time>
      </trkpt>
      <trkpt lat="43.60297" lon="1.01744">
        <ele>201</ele>
        <time>2020-10-03T11:32:30.000Z</time>
      </trkpt>
      <trkpt lat="43.60296" lon="1.0174">
        <ele>201.40517517241</ele>
        <time>2020-10-03T11:32:31.000Z</time>
      </trkpt>
      <trkpt lat="43.60295" lon="1.01736">
        <ele>202</ele>
        <time>2020-10-03T11:32:32.000Z</time>
      </trkpt>
      <trkpt lat="43.60294" lon="1.01732">
        <ele>202</ele>
        <time>2020-10-03T11:32:33.000Z</time>
      </trkpt>
      <trkpt lat="43.60293" lon="1.01729">
        <ele>202</ele>
        <time>2020-10-03T11:32:34.000Z</time>
      </trkpt>
      <trkpt lat="43.60292" lon="1.01725">
        <ele>202</ele>
        <time>2020-10-03T11:32:35.000Z</time>
      </trkpt>
      <trkpt lat="43.60291" lon="1.01721">
        <ele>202</ele>
        <time>2020-10-03T11:32:36.000Z</time>
      </trkpt>
      <trkpt lat="43.60291" lon="1.01718">
        <ele>202</ele>
        <time>2020-10-03T11:32:37.000Z</time>
      </trkpt>
      <trkpt lat="43.6029" lon="1.01714">
        <ele>202</ele>
        <time>2020-10-03T11:32:38.000Z</time>
      </trkpt>
      <trkpt lat="43.60289" lon="1.01709">
        <ele>201.8125</ele>
        <time>2020-10-03T11:32:39.000Z</time>
      </trkpt>
      <trkpt lat="43.60288" lon="1.01705">
        <ele>201</ele>
        <time>2020-10-03T11:32:40.000Z</time>
      </trkpt>
      <trkpt lat="43.60288" lon="1.017">
        <ele>201</ele>
        <time>2020-10-03T11:32:41.000Z</time>
      </trkpt>
      <trkpt lat="43.60287" lon="1.01695">
        <ele>201</ele>
        <time>2020-10-03T11:32:42.000Z</time>
      </trkpt>
      <trkpt lat="43.60286" lon="1.01691">
        <ele>201</ele>
        <time>2020-10-03T11:32:43.000Z</time>
      </trkpt>
      <trkpt lat="43.60285" lon="1.01687">
        <ele>201</ele>
        <time>2020-10-03T11:32:44.000Z</time>
      </trkpt>
      <trkpt lat="43.60285" lon="1.01683">
        <ele>201</ele>
        <time>2020-10-03T11:32:45.000Z</time>
      </trkpt>
      <trkpt lat="43.60284" lon="1.01679">
        <ele>201</ele>
        <time>2020-10-03T11:32:46.000Z</time>
      </trkpt>
      <trkpt lat="43.60283" lon="1.01675">
        <ele>200.61165169196</ele>
        <time>2020-10-03T11:32:47.000Z</time>
      </trkpt>
      <trkpt lat="43.60283" lon="1.01671">
        <ele>200</ele>
        <time>2020-10-03T11:32:48.000Z</time>
      </trkpt>
      <trkpt lat="43.60282" lon="1.01667">
        <ele>200</ele>
        <time>2020-10-03T11:32:49.000Z</time>
      </trkpt>
      <trkpt lat="43.60281" lon="1.01663">
        <ele>200</ele>
        <time>2020-10-03T11:32:50.000Z</time>
      </trkpt>
      <trkpt lat="43.6028" lon="1.0166">
        <ele>200</ele>
        <time>2020-10-03T11:32:51.000Z</time>
      </trkpt>
      <trkpt lat="43.6028" lon="1.01656">
        <ele>200.45055068713</ele>
        <time>2020-10-03T11:32:52.000Z</time>
      </trkpt>
      <trkpt lat="43.60279" lon="1.01652">
        <ele>201</ele>
        <time>2020-10-03T11:32:53.000Z</time>
      </trkpt>
      <trkpt lat="43.60278" lon="1.01648">
        <ele>201</ele>
        <time>2020-10-03T11:32:54.000Z</time>
      </trkpt>
      <trkpt lat="43.60278" lon="1.01645">
        <ele>201</ele>
        <time>2020-10-03T11:32:55.000Z</time>
      </trkpt>
      <trkpt lat="43.60277" lon="1.01641">
        <ele>201</ele>
        <time>2020-10-03T11:32:56.000Z</time>
      </trkpt>
      <trkpt lat="43.60277" lon="1.01637">
        <ele>201</ele>
        <time>2020-10-03T11:32:57.000Z</time>
      </trkpt>
      <trkpt lat="43.60276" lon="1.01633">
        <ele>201</ele>
        <time>2020-10-03T11:32:58.000Z</time>
      </trkpt>
      <trkpt lat="43.60275" lon="1.0163">
        <ele>200.63291692996</ele>
        <time>2020-10-03T11:32:59.000Z</time>
      </trkpt>
      <trkpt lat="43.60275" lon="1.01626">
        <ele>200</ele>
        <time>2020-10-03T11:33:00.000Z</time>
      </trkpt>
      <trkpt lat="43.60274" lon="1.01622">
        <ele>200</ele>
        <time>2020-10-03T11:33:01.000Z</time>
      </trkpt>
      <trkpt lat="43.60274" lon="1.01619">
        <ele>200</ele>
        <time>2020-10-03T11:33:02.000Z</time>
      </trkpt>
      <trkpt lat="43.60273" lon="1.01615">
        <ele>200</ele>
        <time>2020-10-03T11:33:03.000Z</time>
      </trkpt>
      <trkpt lat="43.60273" lon="1.01611">
        <ele>200</ele>
        <time>2020-10-03T11:33:04.000Z</time>
      </trkpt>
      <trkpt lat="43.60273" lon="1.01608">
        <ele>200.46296340192</ele>
        <time>2020-10-03T11:33:05.000Z</time>
      </trkpt>
      <trkpt lat="43.60272" lon="1.01604">
        <ele>201</ele>
        <time>2020-10-03T11:33:06.000Z</time>
      </trkpt>
      <trkpt lat="43.60272" lon="1.016">
        <ele>201</ele>
        <time>2020-10-03T11:33:07.000Z</time>
      </trkpt>
      <trkpt lat="43.60272" lon="1.01597">
        <ele>201</ele>
        <time>2020-10-03T11:33:08.000Z</time>
      </trkpt>
      <trkpt lat="43.60272" lon="1.01593">
        <ele>201</ele>
        <time>2020-10-03T11:33:09.000Z</time>
      </trkpt>
      <trkpt lat="43.60272" lon="1.01589">
        <ele>201</ele>
        <time>2020-10-03T11:33:10.000Z</time>
      </trkpt>
      <trkpt lat="43.60272" lon="1.01585">
        <ele>201</ele>
        <time>2020-10-03T11:33:11.000Z</time>
      </trkpt>
      <trkpt lat="43.60272" lon="1.01582">
        <ele>201</ele>
        <time>2020-10-03T11:33:12.000Z</time>
      </trkpt>
      <trkpt lat="43.60272" lon="1.01578">
        <ele>201</ele>
        <time>2020-10-03T11:33:13.000Z</time>
      </trkpt>
      <trkpt lat="43.60271" lon="1.01574">
        <ele>201</ele>
        <time>2020-10-03T11:33:14.000Z</time>
      </trkpt>
      <trkpt lat="43.60271" lon="1.0157">
        <ele>201</ele>
        <time>2020-10-03T11:33:15.000Z</time>
      </trkpt>
      <trkpt lat="43.6027" lon="1.01567">
        <ele>201</ele>
        <time>2020-10-03T11:33:16.000Z</time>
      </trkpt>
      <trkpt lat="43.60269" lon="1.01563">
        <ele>201</ele>
        <time>2020-10-03T11:33:17.000Z</time>
      </trkpt>
      <trkpt lat="43.60268" lon="1.01561">
        <ele>201</ele>
        <time>2020-10-03T11:33:18.000Z</time>
      </trkpt>
      <trkpt lat="43.60267" lon="1.01558">
        <ele>201</ele>
        <time>2020-10-03T11:33:19.000Z</time>
      </trkpt>
      <trkpt lat="43.60265" lon="1.01556">
        <ele>201</ele>
        <time>2020-10-03T11:33:20.000Z</time>
      </trkpt>
      <trkpt lat="43.60263" lon="1.01553">
        <ele>201</ele>
        <time>2020-10-03T11:33:21.000Z</time>
      </trkpt>
      <trkpt lat="43.60261" lon="1.01551">
        <ele>201</ele>
        <time>2020-10-03T11:33:22.000Z</time>
      </trkpt>
      <trkpt lat="43.6026" lon="1.01548">
        <ele>201</ele>
        <time>2020-10-03T11:33:23.000Z</time>
      </trkpt>
      <trkpt lat="43.60259" lon="1.01545">
        <ele>201</ele>
        <time>2020-10-03T11:33:24.000Z</time>
      </trkpt>
      <trkpt lat="43.60259" lon="1.01541">
        <ele>201</ele>
        <time>2020-10-03T11:33:25.000Z</time>
      </trkpt>
      <trkpt lat="43.60258" lon="1.01538">
        <ele>201</ele>
        <time>2020-10-03T11:33:26.000Z</time>
      </trkpt>
      <trkpt lat="43.60258" lon="1.01534">
        <ele>201</ele>
        <time>2020-10-03T11:33:27.000Z</time>
      </trkpt>
      <trkpt lat="43.60258" lon="1.0153">
        <ele>201</ele>
        <time>2020-10-03T11:33:28.000Z</time>
      </trkpt>
      <trkpt lat="43.60257" lon="1.01526">
        <ele>201</ele>
        <time>2020-10-03T11:33:29.000Z</time>
      </trkpt>
      <trkpt lat="43.60257" lon="1.01522">
        <ele>201</ele>
        <time>2020-10-03T11:33:30.000Z</time>
      </trkpt>
      <trkpt lat="43.60257" lon="1.01518">
        <ele>201</ele>
        <time>2020-10-03T11:33:31.000Z</time>
      </trkpt>
      <trkpt lat="43.60257" lon="1.01514">
        <ele>201</ele>
        <time>2020-10-03T11:33:32.000Z</time>
      </trkpt>
      <trkpt lat="43.60257" lon="1.01511">
        <ele>201</ele>
        <time>2020-10-03T11:33:33.000Z</time>
      </trkpt>
      <trkpt lat="43.60257" lon="1.01507">
        <ele>201</ele>
        <time>2020-10-03T11:33:34.000Z</time>
      </trkpt>
      <trkpt lat="43.60257" lon="1.01504">
        <ele>201</ele>
        <time>2020-10-03T11:33:35.000Z</time>
      </trkpt>
      <trkpt lat="43.60257" lon="1.015">
        <ele>201</ele>
        <time>2020-10-03T11:33:36.000Z</time>
      </trkpt>
      <trkpt lat="43.60257" lon="1.01496">
        <ele>201</ele>
        <time>2020-10-03T11:33:37.000Z</time>
      </trkpt>
      <trkpt lat="43.60257" lon="1.01493">
        <ele>201.34188127694</ele>
        <time>2020-10-03T11:33:38.000Z</time>
      </trkpt>
      <trkpt lat="43.60257" lon="1.0149">
        <ele>202</ele>
        <time>2020-10-03T11:33:39.000Z</time>
      </trkpt>
      <trkpt lat="43.60257" lon="1.01486">
        <ele>202</ele>
        <time>2020-10-03T11:33:40.000Z</time>
      </trkpt>
      <trkpt lat="43.60257" lon="1.01482">
        <ele>202</ele>
        <time>2020-10-03T11:33:41.000Z</time>
      </trkpt>
      <trkpt lat="43.60257" lon="1.01478">
        <ele>202</ele>
        <time>2020-10-03T11:33:42.000Z</time>
      </trkpt>
      <trkpt lat="43.60257" lon="1.01475">
        <ele>202</ele>
        <time>2020-10-03T11:33:43.000Z</time>
      </trkpt>
      <trkpt lat="43.60257" lon="1.01471">
        <ele>202</ele>
        <time>2020-10-03T11:33:44.000Z</time>
      </trkpt>
      <trkpt lat="43.60257" lon="1.01468">
        <ele>202.36842459832</ele>
        <time>2020-10-03T11:33:45.000Z</time>
      </trkpt>
      <trkpt lat="43.60257" lon="1.01464">
        <ele>203</ele>
        <time>2020-10-03T11:33:46.000Z</time>
      </trkpt>
      <trkpt lat="43.60257" lon="1.01461">
        <ele>203</ele>
        <time>2020-10-03T11:33:47.000Z</time>
      </trkpt>
      <trkpt lat="43.60257" lon="1.01457">
        <ele>203</ele>
        <time>2020-10-03T11:33:48.000Z</time>
      </trkpt>
      <trkpt lat="43.60256" lon="1.01453">
        <ele>203</ele>
        <time>2020-10-03T11:33:49.000Z</time>
      </trkpt>
      <trkpt lat="43.60256" lon="1.0145">
        <ele>203</ele>
        <time>2020-10-03T11:33:50.000Z</time>
      </trkpt>
      <trkpt lat="43.60256" lon="1.01447">
        <ele>203</ele>
        <time>2020-10-03T11:33:51.000Z</time>
      </trkpt>
      <trkpt lat="43.60256" lon="1.01443">
        <ele>203</ele>
        <time>2020-10-03T11:33:52.000Z</time>
      </trkpt>
      <trkpt lat="43.60256" lon="1.0144">
        <ele>203</ele>
        <time>2020-10-03T11:33:53.000Z</time>
      </trkpt>
      <trkpt lat="43.60256" lon="1.01436">
        <ele>203.38596274547</ele>
        <time>2020-10-03T11:33:54.000Z</time>
      </trkpt>
      <trkpt lat="43.60256" lon="1.01433">
        <ele>204</ele>
        <time>2020-10-03T11:33:55.000Z</time>
      </trkpt>
      <trkpt lat="43.60255" lon="1.0143">
        <ele>204</ele>
        <time>2020-10-03T11:33:56.000Z</time>
      </trkpt>
      <trkpt lat="43.60255" lon="1.01427">
        <ele>204</ele>
        <time>2020-10-03T11:33:57.000Z</time>
      </trkpt>
      <trkpt lat="43.60255" lon="1.01423">
        <ele>204</ele>
        <time>2020-10-03T11:33:58.000Z</time>
      </trkpt>
      <trkpt lat="43.60255" lon="1.01419">
        <ele>204</ele>
        <time>2020-10-03T11:33:59.000Z</time>
      </trkpt>
      <trkpt lat="43.60255" lon="1.01415">
        <ele>204</ele>
        <time>2020-10-03T11:34:00.000Z</time>
      </trkpt>
      <trkpt lat="43.60255" lon="1.01412">
        <ele>203.6</ele>
        <time>2020-10-03T11:34:01.000Z</time>
      </trkpt>
      <trkpt lat="43.60255" lon="1.01408">
        <ele>203</ele>
        <time>2020-10-03T11:34:02.000Z</time>
      </trkpt>
      <trkpt lat="43.60255" lon="1.01404">
        <ele>203</ele>
        <time>2020-10-03T11:34:03.000Z</time>
      </trkpt>
      <trkpt lat="43.60255" lon="1.014">
        <ele>203</ele>
        <time>2020-10-03T11:34:04.000Z</time>
      </trkpt>
      <trkpt lat="43.60255" lon="1.01396">
        <ele>203</ele>
        <time>2020-10-03T11:34:05.000Z</time>
      </trkpt>
      <trkpt lat="43.60255" lon="1.01393">
        <ele>203.32954181818</ele>
        <time>2020-10-03T11:34:06.000Z</time>
      </trkpt>
      <trkpt lat="43.60255" lon="1.01389">
        <ele>204</ele>
        <time>2020-10-03T11:34:07.000Z</time>
      </trkpt>
      <trkpt lat="43.60255" lon="1.01385">
        <ele>204</ele>
        <time>2020-10-03T11:34:08.000Z</time>
      </trkpt>
      <trkpt lat="43.60255" lon="1.01381">
        <ele>204</ele>
        <time>2020-10-03T11:34:09.000Z</time>
      </trkpt>
      <trkpt lat="43.60255" lon="1.01378">
        <ele>204</ele>
        <time>2020-10-03T11:34:10.000Z</time>
      </trkpt>
      <trkpt lat="43.60255" lon="1.01374">
        <ele>204</ele>
        <time>2020-10-03T11:34:11.000Z</time>
      </trkpt>
      <trkpt lat="43.60255" lon="1.01371">
        <ele>204</ele>
        <time>2020-10-03T11:34:12.000Z</time>
      </trkpt>
      <trkpt lat="43.60255" lon="1.01367">
        <ele>204</ele>
        <time>2020-10-03T11:34:13.000Z</time>
      </trkpt>
      <trkpt lat="43.60255" lon="1.01363">
        <ele>204.40230104901</ele>
        <time>2020-10-03T11:34:14.000Z</time>
      </trkpt>
      <trkpt lat="43.60255" lon="1.0136">
        <ele>205</ele>
        <time>2020-10-03T11:34:15.000Z</time>
      </trkpt>
      <trkpt lat="43.60255" lon="1.01357">
        <ele>205</ele>
        <time>2020-10-03T11:34:16.000Z</time>
      </trkpt>
      <trkpt lat="43.60255" lon="1.01353">
        <ele>205.02564902032</ele>
        <time>2020-10-03T11:34:17.000Z</time>
      </trkpt>
      <trkpt lat="43.60255" lon="1.0135">
        <ele>206</ele>
        <time>2020-10-03T11:34:18.000Z</time>
      </trkpt>
      <trkpt lat="43.60255" lon="1.01346">
        <ele>206</ele>
        <time>2020-10-03T11:34:19.000Z</time>
      </trkpt>
      <trkpt lat="43.60255" lon="1.01343">
        <ele>206</ele>
        <time>2020-10-03T11:34:20.000Z</time>
      </trkpt>
      <trkpt lat="43.60256" lon="1.01339">
        <ele>206</ele>
        <time>2020-10-03T11:34:21.000Z</time>
      </trkpt>
      <trkpt lat="43.60256" lon="1.01336">
        <ele>206</ele>
        <time>2020-10-03T11:34:22.000Z</time>
      </trkpt>
      <trkpt lat="43.60256" lon="1.01332">
        <ele>206</ele>
        <time>2020-10-03T11:34:23.000Z</time>
      </trkpt>
      <trkpt lat="43.60256" lon="1.01329">
        <ele>206</ele>
        <time>2020-10-03T11:34:24.000Z</time>
      </trkpt>
      <trkpt lat="43.60255" lon="1.01325">
        <ele>206</ele>
        <time>2020-10-03T11:34:25.000Z</time>
      </trkpt>
      <trkpt lat="43.60255" lon="1.01322">
        <ele>206.45454228097</ele>
        <time>2020-10-03T11:34:26.000Z</time>
      </trkpt>
      <trkpt lat="43.60255" lon="1.01318">
        <ele>207</ele>
        <time>2020-10-03T11:34:27.000Z</time>
      </trkpt>
      <trkpt lat="43.60255" lon="1.01314">
        <ele>207</ele>
        <time>2020-10-03T11:34:28.000Z</time>
      </trkpt>
      <trkpt lat="43.60255" lon="1.0131">
        <ele>207</ele>
        <time>2020-10-03T11:34:29.000Z</time>
      </trkpt>
      <trkpt lat="43.60255" lon="1.01307">
        <ele>207</ele>
        <time>2020-10-03T11:34:30.000Z</time>
      </trkpt>
      <trkpt lat="43.60254" lon="1.01303">
        <ele>207.23863272727</ele>
        <time>2020-10-03T11:34:31.000Z</time>
      </trkpt>
      <trkpt lat="43.60254" lon="1.01299">
        <ele>208</ele>
        <time>2020-10-03T11:34:32.000Z</time>
      </trkpt>
      <trkpt lat="43.60254" lon="1.01296">
        <ele>208</ele>
        <time>2020-10-03T11:34:33.000Z</time>
      </trkpt>
      <trkpt lat="43.60254" lon="1.01292">
        <ele>208</ele>
        <time>2020-10-03T11:34:34.000Z</time>
      </trkpt>
      <trkpt lat="43.60254" lon="1.01289">
        <ele>208</ele>
        <time>2020-10-03T11:34:35.000Z</time>
      </trkpt>
      <trkpt lat="43.60254" lon="1.01285">
        <ele>208</ele>
        <time>2020-10-03T11:34:36.000Z</time>
      </trkpt>
      <trkpt lat="43.60254" lon="1.01282">
        <ele>208</ele>
        <time>2020-10-03T11:34:37.000Z</time>
      </trkpt>
      <trkpt lat="43.60253" lon="1.01279">
        <ele>208</ele>
        <time>2020-10-03T11:34:38.000Z</time>
      </trkpt>
      <trkpt lat="43.60253" lon="1.01275">
        <ele>208</ele>
        <time>2020-10-03T11:34:39.000Z</time>
      </trkpt>
      <trkpt lat="43.60253" lon="1.01272">
        <ele>208</ele>
        <time>2020-10-03T11:34:40.000Z</time>
      </trkpt>
      <trkpt lat="43.60253" lon="1.01269">
        <ele>208</ele>
        <time>2020-10-03T11:34:41.000Z</time>
      </trkpt>
      <trkpt lat="43.60253" lon="1.01265">
        <ele>208</ele>
        <time>2020-10-03T11:34:42.000Z</time>
      </trkpt>
      <trkpt lat="43.60253" lon="1.01262">
        <ele>208</ele>
        <time>2020-10-03T11:34:43.000Z</time>
      </trkpt>
      <trkpt lat="43.60253" lon="1.01258">
        <ele>207.51456479594</ele>
        <time>2020-10-03T11:34:44.000Z</time>
      </trkpt>
      <trkpt lat="43.60253" lon="1.01255">
        <ele>207</ele>
        <time>2020-10-03T11:34:45.000Z</time>
      </trkpt>
      <trkpt lat="43.60253" lon="1.01252">
        <ele>207</ele>
        <time>2020-10-03T11:34:46.000Z</time>
      </trkpt>
      <trkpt lat="43.60253" lon="1.01248">
        <ele>207.45370074074</ele>
        <time>2020-10-03T11:34:47.000Z</time>
      </trkpt>
      <trkpt lat="43.60252" lon="1.01245">
        <ele>208</ele>
        <time>2020-10-03T11:34:48.000Z</time>
      </trkpt>
      <trkpt lat="43.60252" lon="1.01241">
        <ele>208</ele>
        <time>2020-10-03T11:34:49.000Z</time>
      </trkpt>
      <trkpt lat="43.60252" lon="1.01237">
        <ele>208</ele>
        <time>2020-10-03T11:34:50.000Z</time>
      </trkpt>
      <trkpt lat="43.60251" lon="1.01234">
        <ele>208</ele>
        <time>2020-10-03T11:34:51.000Z</time>
      </trkpt>
      <trkpt lat="43.60251" lon="1.0123">
        <ele>208</ele>
        <time>2020-10-03T11:34:52.000Z</time>
      </trkpt>
      <trkpt lat="43.60251" lon="1.01227">
        <ele>208</ele>
        <time>2020-10-03T11:34:53.000Z</time>
      </trkpt>
      <trkpt lat="43.60251" lon="1.01223">
        <ele>208</ele>
        <time>2020-10-03T11:34:54.000Z</time>
      </trkpt>
      <trkpt lat="43.60251" lon="1.01219">
        <ele>208</ele>
        <time>2020-10-03T11:34:55.000Z</time>
      </trkpt>
      <trkpt lat="43.60251" lon="1.01216">
        <ele>208</ele>
        <time>2020-10-03T11:34:56.000Z</time>
      </trkpt>
      <trkpt lat="43.60251" lon="1.01212">
        <ele>208</ele>
        <time>2020-10-03T11:34:57.000Z</time>
      </trkpt>
      <trkpt lat="43.60251" lon="1.01208">
        <ele>208.18749333333</ele>
        <time>2020-10-03T11:34:58.000Z</time>
      </trkpt>
      <trkpt lat="43.60251" lon="1.01204">
        <ele>209</ele>
        <time>2020-10-03T11:34:59.000Z</time>
      </trkpt>
      <trkpt lat="43.60251" lon="1.01201">
        <ele>209</ele>
        <time>2020-10-03T11:35:00.000Z</time>
      </trkpt>
      <trkpt lat="43.6025" lon="1.01197">
        <ele>209</ele>
        <time>2020-10-03T11:35:01.000Z</time>
      </trkpt>
      <trkpt lat="43.6025" lon="1.01194">
        <ele>209</ele>
        <time>2020-10-03T11:35:02.000Z</time>
      </trkpt>
      <trkpt lat="43.6025" lon="1.01191">
        <ele>209</ele>
        <time>2020-10-03T11:35:03.000Z</time>
      </trkpt>
      <trkpt lat="43.6025" lon="1.01187">
        <ele>209.45055068713</ele>
        <time>2020-10-03T11:35:04.000Z</time>
      </trkpt>
      <trkpt lat="43.6025" lon="1.01183">
        <ele>210</ele>
        <time>2020-10-03T11:35:05.000Z</time>
      </trkpt>
      <trkpt lat="43.60249" lon="1.01179">
        <ele>210</ele>
        <time>2020-10-03T11:35:06.000Z</time>
      </trkpt>
      <trkpt lat="43.60249" lon="1.01176">
        <ele>210</ele>
        <time>2020-10-03T11:35:07.000Z</time>
      </trkpt>
      <trkpt lat="43.60249" lon="1.01172">
        <ele>210</ele>
        <time>2020-10-03T11:35:08.000Z</time>
      </trkpt>
      <trkpt lat="43.60249" lon="1.01168">
        <ele>210</ele>
        <time>2020-10-03T11:35:09.000Z</time>
      </trkpt>
      <trkpt lat="43.60249" lon="1.01165">
        <ele>210</ele>
        <time>2020-10-03T11:35:10.000Z</time>
      </trkpt>
      <trkpt lat="43.60249" lon="1.01161">
        <ele>210</ele>
        <time>2020-10-03T11:35:11.000Z</time>
      </trkpt>
      <trkpt lat="43.60249" lon="1.01158">
        <ele>210</ele>
        <time>2020-10-03T11:35:12.000Z</time>
      </trkpt>
      <trkpt lat="43.60249" lon="1.01154">
        <ele>210.30534276558</ele>
        <time>2020-10-03T11:35:13.000Z</time>
      </trkpt>
      <trkpt lat="43.60249" lon="1.01151">
        <ele>211</ele>
        <time>2020-10-03T11:35:14.000Z</time>
      </trkpt>
      <trkpt lat="43.60249" lon="1.01147">
        <ele>211</ele>
        <time>2020-10-03T11:35:15.000Z</time>
      </trkpt>
      <trkpt lat="43.60248" lon="1.01143">
        <ele>211</ele>
        <time>2020-10-03T11:35:16.000Z</time>
      </trkpt>
      <trkpt lat="43.60248" lon="1.0114">
        <ele>211</ele>
        <time>2020-10-03T11:35:17.000Z</time>
      </trkpt>
      <trkpt lat="43.60248" lon="1.01137">
        <ele>211</ele>
        <time>2020-10-03T11:35:18.000Z</time>
      </trkpt>
      <trkpt lat="43.60248" lon="1.01134">
        <ele>211.39773090909</ele>
        <time>2020-10-03T11:35:19.000Z</time>
      </trkpt>
      <trkpt lat="43.60248" lon="1.01131">
        <ele>212</ele>
        <time>2020-10-03T11:35:20.000Z</time>
      </trkpt>
      <trkpt lat="43.60247" lon="1.01128">
        <ele>212</ele>
        <time>2020-10-03T11:35:21.000Z</time>
      </trkpt>
      <trkpt lat="43.60247" lon="1.01124">
        <ele>212</ele>
        <time>2020-10-03T11:35:22.000Z</time>
      </trkpt>
      <trkpt lat="43.60247" lon="1.01121">
        <ele>212</ele>
        <time>2020-10-03T11:35:23.000Z</time>
      </trkpt>
      <trkpt lat="43.60247" lon="1.01117">
        <ele>212</ele>
        <time>2020-10-03T11:35:24.000Z</time>
      </trkpt>
      <trkpt lat="43.60248" lon="1.01113">
        <ele>212.44859678924</ele>
        <time>2020-10-03T11:35:25.000Z</time>
      </trkpt>
      <trkpt lat="43.60248" lon="1.0111">
        <ele>213</ele>
        <time>2020-10-03T11:35:26.000Z</time>
      </trkpt>
      <trkpt lat="43.60248" lon="1.01106">
        <ele>213</ele>
        <time>2020-10-03T11:35:27.000Z</time>
      </trkpt>
      <trkpt lat="43.60249" lon="1.01103">
        <ele>213</ele>
        <time>2020-10-03T11:35:28.000Z</time>
      </trkpt>
      <trkpt lat="43.60249" lon="1.011">
        <ele>213</ele>
        <time>2020-10-03T11:35:29.000Z</time>
      </trkpt>
      <trkpt lat="43.60249" lon="1.01096">
        <ele>213</ele>
        <time>2020-10-03T11:35:30.000Z</time>
      </trkpt>
      <trkpt lat="43.60249" lon="1.01092">
        <ele>214</ele>
        <time>2020-10-03T11:35:31.000Z</time>
      </trkpt>
      <trkpt lat="43.60249" lon="1.01088">
        <ele>214</ele>
        <time>2020-10-03T11:35:32.000Z</time>
      </trkpt>
      <trkpt lat="43.60249" lon="1.01085">
        <ele>214</ele>
        <time>2020-10-03T11:35:33.000Z</time>
      </trkpt>
      <trkpt lat="43.60249" lon="1.01081">
        <ele>214</ele>
        <time>2020-10-03T11:35:34.000Z</time>
      </trkpt>
      <trkpt lat="43.60249" lon="1.01078">
        <ele>214</ele>
        <time>2020-10-03T11:35:35.000Z</time>
      </trkpt>
      <trkpt lat="43.60249" lon="1.01074">
        <ele>214</ele>
        <time>2020-10-03T11:35:36.000Z</time>
      </trkpt>
      <trkpt lat="43.60249" lon="1.01071">
        <ele>214</ele>
        <time>2020-10-03T11:35:37.000Z</time>
      </trkpt>
      <trkpt lat="43.60249" lon="1.01067">
        <ele>214</ele>
        <time>2020-10-03T11:35:38.000Z</time>
      </trkpt>
      <trkpt lat="43.60249" lon="1.01063">
        <ele>214</ele>
        <time>2020-10-03T11:35:39.000Z</time>
      </trkpt>
      <trkpt lat="43.6025" lon="1.0106">
        <ele>214</ele>
        <time>2020-10-03T11:35:40.000Z</time>
      </trkpt>
      <trkpt lat="43.6025" lon="1.01056">
        <ele>214</ele>
        <time>2020-10-03T11:35:41.000Z</time>
      </trkpt>
      <trkpt lat="43.6025" lon="1.01053">
        <ele>214</ele>
        <time>2020-10-03T11:35:42.000Z</time>
      </trkpt>
      <trkpt lat="43.6025" lon="1.0105">
        <ele>214</ele>
        <time>2020-10-03T11:35:43.000Z</time>
      </trkpt>
      <trkpt lat="43.6025" lon="1.01046">
        <ele>214</ele>
        <time>2020-10-03T11:35:44.000Z</time>
      </trkpt>
      <trkpt lat="43.6025" lon="1.01043">
        <ele>214</ele>
        <time>2020-10-03T11:35:45.000Z</time>
      </trkpt>
      <trkpt lat="43.6025" lon="1.01039">
        <ele>214</ele>
        <time>2020-10-03T11:35:46.000Z</time>
      </trkpt>
      <trkpt lat="43.6025" lon="1.01036">
        <ele>214</ele>
        <time>2020-10-03T11:35:47.000Z</time>
      </trkpt>
      <trkpt lat="43.6025" lon="1.01033">
        <ele>214</ele>
        <time>2020-10-03T11:35:48.000Z</time>
      </trkpt>
      <trkpt lat="43.6025" lon="1.01029">
        <ele>214</ele>
        <time>2020-10-03T11:35:49.000Z</time>
      </trkpt>
      <trkpt lat="43.6025" lon="1.01026">
        <ele>214</ele>
        <time>2020-10-03T11:35:50.000Z</time>
      </trkpt>
      <trkpt lat="43.6025" lon="1.01022">
        <ele>214</ele>
        <time>2020-10-03T11:35:51.000Z</time>
      </trkpt>
      <trkpt lat="43.6025" lon="1.01019">
        <ele>214</ele>
        <time>2020-10-03T11:35:52.000Z</time>
      </trkpt>
      <trkpt lat="43.60251" lon="1.01015">
        <ele>214</ele>
        <time>2020-10-03T11:35:53.000Z</time>
      </trkpt>
      <trkpt lat="43.60251" lon="1.01012">
        <ele>214</ele>
        <time>2020-10-03T11:35:54.000Z</time>
      </trkpt>
      <trkpt lat="43.60251" lon="1.01008">
        <ele>214</ele>
        <time>2020-10-03T11:35:55.000Z</time>
      </trkpt>
      <trkpt lat="43.60251" lon="1.01005">
        <ele>214</ele>
        <time>2020-10-03T11:35:56.000Z</time>
      </trkpt>
      <trkpt lat="43.60251" lon="1.01001">
        <ele>214</ele>
        <time>2020-10-03T11:35:57.000Z</time>
      </trkpt>
      <trkpt lat="43.60251" lon="1.00998">
        <ele>214.45794504324</ele>
        <time>2020-10-03T11:35:58.000Z</time>
      </trkpt>
      <trkpt lat="43.60251" lon="1.00994">
        <ele>215</ele>
        <time>2020-10-03T11:35:59.000Z</time>
      </trkpt>
      <trkpt lat="43.60251" lon="1.0099">
        <ele>215</ele>
        <time>2020-10-03T11:36:00.000Z</time>
      </trkpt>
      <trkpt lat="43.60251" lon="1.00987">
        <ele>214.54206043496</ele>
        <time>2020-10-03T11:36:01.000Z</time>
      </trkpt>
      <trkpt lat="43.60251" lon="1.00983">
        <ele>214</ele>
        <time>2020-10-03T11:36:02.000Z</time>
      </trkpt>
      <trkpt lat="43.60252" lon="1.0098">
        <ele>214.7</ele>
        <time>2020-10-03T11:36:03.000Z</time>
      </trkpt>
      <trkpt lat="43.60253" lon="1.00976">
        <ele>216</ele>
        <time>2020-10-03T11:36:04.000Z</time>
      </trkpt>
      <trkpt lat="43.60253" lon="1.00973">
        <ele>216</ele>
        <time>2020-10-03T11:36:05.000Z</time>
      </trkpt>
      <trkpt lat="43.60254" lon="1.0097">
        <ele>216</ele>
        <time>2020-10-03T11:36:06.000Z</time>
      </trkpt>
      <trkpt lat="43.60254" lon="1.00966">
        <ele>216</ele>
        <time>2020-10-03T11:36:07.000Z</time>
      </trkpt>
      <trkpt lat="43.60255" lon="1.00963">
        <ele>216</ele>
        <time>2020-10-03T11:36:08.000Z</time>
      </trkpt>
      <trkpt lat="43.60255" lon="1.0096">
        <ele>216</ele>
        <time>2020-10-03T11:36:09.000Z</time>
      </trkpt>
      <trkpt lat="43.60256" lon="1.00956">
        <ele>216</ele>
        <time>2020-10-03T11:36:10.000Z</time>
      </trkpt>
      <trkpt lat="43.60257" lon="1.00953">
        <ele>216.01922461539</ele>
        <time>2020-10-03T11:36:11.000Z</time>
      </trkpt>
      <trkpt lat="43.60257" lon="1.00949">
        <ele>217</ele>
        <time>2020-10-03T11:36:12.000Z</time>
      </trkpt>
      <trkpt lat="43.60258" lon="1.00946">
        <ele>217</ele>
        <time>2020-10-03T11:36:13.000Z</time>
      </trkpt>
      <trkpt lat="43.60259" lon="1.00942">
        <ele>217</ele>
        <time>2020-10-03T11:36:14.000Z</time>
      </trkpt>
      <trkpt lat="43.60259" lon="1.00939">
        <ele>217</ele>
        <time>2020-10-03T11:36:15.000Z</time>
      </trkpt>
      <trkpt lat="43.6026" lon="1.00935">
        <ele>217</ele>
        <time>2020-10-03T11:36:16.000Z</time>
      </trkpt>
      <trkpt lat="43.6026" lon="1.00932">
        <ele>217</ele>
        <time>2020-10-03T11:36:17.000Z</time>
      </trkpt>
      <trkpt lat="43.60261" lon="1.00928">
        <ele>217</ele>
        <time>2020-10-03T11:36:18.000Z</time>
      </trkpt>
      <trkpt lat="43.60262" lon="1.00925">
        <ele>216.54128257219</ele>
        <time>2020-10-03T11:36:19.000Z</time>
      </trkpt>
      <trkpt lat="43.60262" lon="1.00921">
        <ele>216</ele>
        <time>2020-10-03T11:36:20.000Z</time>
      </trkpt>
      <trkpt lat="43.60263" lon="1.00918">
        <ele>215.64557105592</ele>
        <time>2020-10-03T11:36:21.000Z</time>
      </trkpt>
      <trkpt lat="43.60264" lon="1.00914">
        <ele>215</ele>
        <time>2020-10-03T11:36:22.000Z</time>
      </trkpt>
      <trkpt lat="43.60264" lon="1.00911">
        <ele>215</ele>
        <time>2020-10-03T11:36:23.000Z</time>
      </trkpt>
      <trkpt lat="43.60265" lon="1.00907">
        <ele>215.45794504324</ele>
        <time>2020-10-03T11:36:24.000Z</time>
      </trkpt>
      <trkpt lat="43.60266" lon="1.00903">
        <ele>216</ele>
        <time>2020-10-03T11:36:25.000Z</time>
      </trkpt>
      <trkpt lat="43.60266" lon="1.009">
        <ele>216</ele>
        <time>2020-10-03T11:36:26.000Z</time>
      </trkpt>
      <trkpt lat="43.60267" lon="1.00896">
        <ele>216.36029176471</ele>
        <time>2020-10-03T11:36:27.000Z</time>
      </trkpt>
      <trkpt lat="43.60268" lon="1.00893">
        <ele>217</ele>
        <time>2020-10-03T11:36:28.000Z</time>
      </trkpt>
      <trkpt lat="43.60268" lon="1.00889">
        <ele>217</ele>
        <time>2020-10-03T11:36:29.000Z</time>
      </trkpt>
      <trkpt lat="43.60269" lon="1.00886">
        <ele>217.10256494412</ele>
        <time>2020-10-03T11:36:30.000Z</time>
      </trkpt>
      <trkpt lat="43.6027" lon="1.00882">
        <ele>219</ele>
        <time>2020-10-03T11:36:31.000Z</time>
      </trkpt>
      <trkpt lat="43.60271" lon="1.00879">
        <ele>219</ele>
        <time>2020-10-03T11:36:32.000Z</time>
      </trkpt>
      <trkpt lat="43.60272" lon="1.00875">
        <ele>218.60784067665</ele>
        <time>2020-10-03T11:36:33.000Z</time>
      </trkpt>
      <trkpt lat="43.60273" lon="1.00872">
        <ele>218</ele>
        <time>2020-10-03T11:36:34.000Z</time>
      </trkpt>
      <trkpt lat="43.60273" lon="1.00868">
        <ele>218</ele>
        <time>2020-10-03T11:36:35.000Z</time>
      </trkpt>
      <trkpt lat="43.60274" lon="1.00864">
        <ele>218</ele>
        <time>2020-10-03T11:36:36.000Z</time>
      </trkpt>
      <trkpt lat="43.60275" lon="1.00861">
        <ele>218</ele>
        <time>2020-10-03T11:36:37.000Z</time>
      </trkpt>
      <trkpt lat="43.60276" lon="1.00857">
        <ele>218</ele>
        <time>2020-10-03T11:36:38.000Z</time>
      </trkpt>
      <trkpt lat="43.60277" lon="1.00854">
        <ele>218</ele>
        <time>2020-10-03T11:36:39.000Z</time>
      </trkpt>
      <trkpt lat="43.60278" lon="1.00851">
        <ele>218</ele>
        <time>2020-10-03T11:36:40.000Z</time>
      </trkpt>
      <trkpt lat="43.60279" lon="1.00848">
        <ele>218.45793956504</ele>
        <time>2020-10-03T11:36:41.000Z</time>
      </trkpt>
      <trkpt lat="43.6028" lon="1.00845">
        <ele>219</ele>
        <time>2020-10-03T11:36:42.000Z</time>
      </trkpt>
      <trkpt lat="43.6028" lon="1.00842">
        <ele>219</ele>
        <time>2020-10-03T11:36:43.000Z</time>
      </trkpt>
      <trkpt lat="43.6028" lon="1.0084">
        <ele>219</ele>
        <time>2020-10-03T11:36:44.000Z</time>
      </trkpt>
      <trkpt lat="43.60277" lon="1.00837">
        <ele>218.54955141954</ele>
        <time>2020-10-03T11:36:46.000Z</time>
      </trkpt>
      <trkpt lat="43.60276" lon="1.00835">
        <ele>218</ele>
        <time>2020-10-03T11:36:47.000Z</time>
      </trkpt>
      <trkpt lat="43.60274" lon="1.00833">
        <ele>218</ele>
        <time>2020-10-03T11:36:48.000Z</time>
      </trkpt>
      <trkpt lat="43.60273" lon="1.0083">
        <ele>217.75324567382</ele>
        <time>2020-10-03T11:36:49.000Z</time>
      </trkpt>
      <trkpt lat="43.60271" lon="1.00828">
        <ele>217</ele>
        <time>2020-10-03T11:36:50.000Z</time>
      </trkpt>
      <trkpt lat="43.60269" lon="1.00826">
        <ele>217</ele>
        <time>2020-10-03T11:36:51.000Z</time>
      </trkpt>
      <trkpt lat="43.60267" lon="1.00824">
        <ele>217</ele>
        <time>2020-10-03T11:36:52.000Z</time>
      </trkpt>
      <trkpt lat="43.60264" lon="1.00822">
        <ele>217</ele>
        <time>2020-10-03T11:36:53.000Z</time>
      </trkpt>
      <trkpt lat="43.60262" lon="1.0082">
        <ele>217</ele>
        <time>2020-10-03T11:36:54.000Z</time>
      </trkpt>
      <trkpt lat="43.6026" lon="1.00817">
        <ele>217</ele>
        <time>2020-10-03T11:36:55.000Z</time>
      </trkpt>
      <trkpt lat="43.60258" lon="1.00814">
        <ele>216.5666661926</ele>
        <time>2020-10-03T11:36:56.000Z</time>
      </trkpt>
      <trkpt lat="43.60258" lon="1.00811">
        <ele>216</ele>
        <time>2020-10-03T11:36:57.000Z</time>
      </trkpt>
      <trkpt lat="43.60257" lon="1.00806">
        <ele>216</ele>
        <time>2020-10-03T11:36:58.000Z</time>
      </trkpt>
      <trkpt lat="43.60256" lon="1.00803">
        <ele>215.57471788609</ele>
        <time>2020-10-03T11:36:59.000Z</time>
      </trkpt>
      <trkpt lat="43.60256" lon="1.00799">
        <ele>215</ele>
        <time>2020-10-03T11:37:00.000Z</time>
      </trkpt>
      <trkpt lat="43.60256" lon="1.00796">
        <ele>214.23213714286</ele>
        <time>2020-10-03T11:37:01.000Z</time>
      </trkpt>
      <trkpt lat="43.60255" lon="1.00792">
        <ele>213</ele>
        <time>2020-10-03T11:37:02.000Z</time>
      </trkpt>
      <trkpt lat="43.60255" lon="1.00788">
        <ele>213</ele>
        <time>2020-10-03T11:37:03.000Z</time>
      </trkpt>
      <trkpt lat="43.60255" lon="1.00784">
        <ele>213</ele>
        <time>2020-10-03T11:37:04.000Z</time>
      </trkpt>
      <trkpt lat="43.60254" lon="1.0078">
        <ele>213</ele>
        <time>2020-10-03T11:37:05.000Z</time>
      </trkpt>
      <trkpt lat="43.60253" lon="1.00776">
        <ele>212.70588235294</ele>
        <time>2020-10-03T11:37:06.000Z</time>
      </trkpt>
      <trkpt lat="43.60253" lon="1.00771">
        <ele>212</ele>
        <time>2020-10-03T11:37:07.000Z</time>
      </trkpt>
      <trkpt lat="43.60253" lon="1.00767">
        <ele>212</ele>
        <time>2020-10-03T11:37:08.000Z</time>
      </trkpt>
      <trkpt lat="43.60252" lon="1.00762">
        <ele>211.66292732738</ele>
        <time>2020-10-03T11:37:09.000Z</time>
      </trkpt>
      <trkpt lat="43.60252" lon="1.00758">
        <ele>211</ele>
        <time>2020-10-03T11:37:10.000Z</time>
      </trkpt>
      <trkpt lat="43.60251" lon="1.00754">
        <ele>210.59482482759</ele>
        <time>2020-10-03T11:37:11.000Z</time>
      </trkpt>
      <trkpt lat="43.6025" lon="1.00749">
        <ele>210</ele>
        <time>2020-10-03T11:37:12.000Z</time>
      </trkpt>
      <trkpt lat="43.6025" lon="1.00745">
        <ele>210</ele>
        <time>2020-10-03T11:37:13.000Z</time>
      </trkpt>
      <trkpt lat="43.60249" lon="1.0074">
        <ele>210</ele>
        <time>2020-10-03T11:37:14.000Z</time>
      </trkpt>
      <trkpt lat="43.60249" lon="1.00736">
        <ele>210</ele>
        <time>2020-10-03T11:37:15.000Z</time>
      </trkpt>
      <trkpt lat="43.60248" lon="1.00731">
        <ele>210</ele>
        <time>2020-10-03T11:37:16.000Z</time>
      </trkpt>
      <trkpt lat="43.60248" lon="1.00726">
        <ele>210</ele>
        <time>2020-10-03T11:37:17.000Z</time>
      </trkpt>
      <trkpt lat="43.60248" lon="1.00722">
        <ele>209.60226909091</ele>
        <time>2020-10-03T11:37:18.000Z</time>
      </trkpt>
      <trkpt lat="43.60247" lon="1.00717">
        <ele>209</ele>
        <time>2020-10-03T11:37:19.000Z</time>
      </trkpt>
      <trkpt lat="43.60246" lon="1.00713">
        <ele>208.65555444939</ele>
        <time>2020-10-03T11:37:20.000Z</time>
      </trkpt>
      <trkpt lat="43.60246" lon="1.00708">
        <ele>208</ele>
        <time>2020-10-03T11:37:21.000Z</time>
      </trkpt>
      <trkpt lat="43.60245" lon="1.00703">
        <ele>207.83720307198</ele>
        <time>2020-10-03T11:37:22.000Z</time>
      </trkpt>
      <trkpt lat="43.60244" lon="1.00699">
        <ele>207</ele>
        <time>2020-10-03T11:37:23.000Z</time>
      </trkpt>
      <trkpt lat="43.60244" lon="1.00695">
        <ele>207</ele>
        <time>2020-10-03T11:37:24.000Z</time>
      </trkpt>
      <trkpt lat="43.60243" lon="1.00691">
        <ele>207</ele>
        <time>2020-10-03T11:37:25.000Z</time>
      </trkpt>
      <trkpt lat="43.60243" lon="1.00687">
        <ele>207</ele>
        <time>2020-10-03T11:37:26.000Z</time>
      </trkpt>
      <trkpt lat="43.60242" lon="1.00683">
        <ele>206.98077538461</ele>
        <time>2020-10-03T11:37:27.000Z</time>
      </trkpt>
      <trkpt lat="43.60242" lon="1.00679">
        <ele>206</ele>
        <time>2020-10-03T11:37:28.000Z</time>
      </trkpt>
      <trkpt lat="43.60242" lon="1.00675">
        <ele>206</ele>
        <time>2020-10-03T11:37:29.000Z</time>
      </trkpt>
      <trkpt lat="43.60241" lon="1.0067">
        <ele>206</ele>
        <time>2020-10-03T11:37:30.000Z</time>
      </trkpt>
      <trkpt lat="43.60241" lon="1.00666">
        <ele>206</ele>
        <time>2020-10-03T11:37:31.000Z</time>
      </trkpt>
      <trkpt lat="43.60241" lon="1.00662">
        <ele>206</ele>
        <time>2020-10-03T11:37:32.000Z</time>
      </trkpt>
      <trkpt lat="43.60241" lon="1.00658">
        <ele>206</ele>
        <time>2020-10-03T11:37:33.000Z</time>
      </trkpt>
      <trkpt lat="43.6024" lon="1.00655">
        <ele>206</ele>
        <time>2020-10-03T11:37:34.000Z</time>
      </trkpt>
      <trkpt lat="43.6024" lon="1.00651">
        <ele>206</ele>
        <time>2020-10-03T11:37:35.000Z</time>
      </trkpt>
      <trkpt lat="43.60239" lon="1.00647">
        <ele>206</ele>
        <time>2020-10-03T11:37:36.000Z</time>
      </trkpt>
      <trkpt lat="43.60238" lon="1.00643">
        <ele>206</ele>
        <time>2020-10-03T11:37:37.000Z</time>
      </trkpt>
      <trkpt lat="43.60237" lon="1.00639">
        <ele>205.47457369723</ele>
        <time>2020-10-03T11:37:38.000Z</time>
      </trkpt>
      <trkpt lat="43.60237" lon="1.00636">
        <ele>204</ele>
        <time>2020-10-03T11:37:39.000Z</time>
      </trkpt>
      <trkpt lat="43.60236" lon="1.00632">
        <ele>203.67816210331</ele>
        <time>2020-10-03T11:37:40.000Z</time>
      </trkpt>
      <trkpt lat="43.60235" lon="1.00629">
        <ele>203</ele>
        <time>2020-10-03T11:37:41.000Z</time>
      </trkpt>
      <trkpt lat="43.60234" lon="1.00625">
        <ele>203</ele>
        <time>2020-10-03T11:37:42.000Z</time>
      </trkpt>
      <trkpt lat="43.60233" lon="1.00621">
        <ele>203</ele>
        <time>2020-10-03T11:37:43.000Z</time>
      </trkpt>
      <trkpt lat="43.60232" lon="1.00617">
        <ele>203</ele>
        <time>2020-10-03T11:37:44.000Z</time>
      </trkpt>
      <trkpt lat="43.6023" lon="1.00613">
        <ele>203</ele>
        <time>2020-10-03T11:37:45.000Z</time>
      </trkpt>
      <trkpt lat="43.60229" lon="1.00609">
        <ele>203</ele>
        <time>2020-10-03T11:37:46.000Z</time>
      </trkpt>
      <trkpt lat="43.60228" lon="1.00605">
        <ele>203</ele>
        <time>2020-10-03T11:37:47.000Z</time>
      </trkpt>
      <trkpt lat="43.60226" lon="1.00601">
        <ele>203</ele>
        <time>2020-10-03T11:37:48.000Z</time>
      </trkpt>
      <trkpt lat="43.60225" lon="1.00597">
        <ele>203</ele>
        <time>2020-10-03T11:37:49.000Z</time>
      </trkpt>
      <trkpt lat="43.60224" lon="1.00592">
        <ele>203</ele>
        <time>2020-10-03T11:37:50.000Z</time>
      </trkpt>
      <trkpt lat="43.60223" lon="1.00588">
        <ele>202.17647235984</ele>
        <time>2020-10-03T11:37:51.000Z</time>
      </trkpt>
      <trkpt lat="43.60222" lon="1.00584">
        <ele>201</ele>
        <time>2020-10-03T11:37:52.000Z</time>
      </trkpt>
      <trkpt lat="43.60221" lon="1.00579">
        <ele>201</ele>
        <time>2020-10-03T11:37:53.000Z</time>
      </trkpt>
      <trkpt lat="43.6022" lon="1.00575">
        <ele>200.63704026776</ele>
        <time>2020-10-03T11:37:54.000Z</time>
      </trkpt>
      <trkpt lat="43.6022" lon="1.00571">
        <ele>200</ele>
        <time>2020-10-03T11:37:55.000Z</time>
      </trkpt>
      <trkpt lat="43.60219" lon="1.00567">
        <ele>200</ele>
        <time>2020-10-03T11:37:56.000Z</time>
      </trkpt>
      <trkpt lat="43.60218" lon="1.00563">
        <ele>200</ele>
        <time>2020-10-03T11:37:57.000Z</time>
      </trkpt>
      <trkpt lat="43.60217" lon="1.00558">
        <ele>200</ele>
        <time>2020-10-03T11:37:58.000Z</time>
      </trkpt>
      <trkpt lat="43.60216" lon="1.00555">
        <ele>200</ele>
        <time>2020-10-03T11:37:59.000Z</time>
      </trkpt>
      <trkpt lat="43.60216" lon="1.00551">
        <ele>200</ele>
        <time>2020-10-03T11:38:00.000Z</time>
      </trkpt>
      <trkpt lat="43.60215" lon="1.00547">
        <ele>200</ele>
        <time>2020-10-03T11:38:01.000Z</time>
      </trkpt>
      <trkpt lat="43.60214" lon="1.00544">
        <ele>200</ele>
        <time>2020-10-03T11:38:02.000Z</time>
      </trkpt>
      <trkpt lat="43.60213" lon="1.00541">
        <ele>200</ele>
        <time>2020-10-03T11:38:03.000Z</time>
      </trkpt>
      <trkpt lat="43.60212" lon="1.00537">
        <ele>200</ele>
        <time>2020-10-03T11:38:04.000Z</time>
      </trkpt>
      <trkpt lat="43.60211" lon="1.00533">
        <ele>199.70129330408</ele>
        <time>2020-10-03T11:38:05.000Z</time>
      </trkpt>
      <trkpt lat="43.6021" lon="1.00529">
        <ele>199</ele>
        <time>2020-10-03T11:38:06.000Z</time>
      </trkpt>
      <trkpt lat="43.60209" lon="1.00526">
        <ele>199</ele>
        <time>2020-10-03T11:38:07.000Z</time>
      </trkpt>
      <trkpt lat="43.60208" lon="1.00522">
        <ele>199</ele>
        <time>2020-10-03T11:38:08.000Z</time>
      </trkpt>
      <trkpt lat="43.60207" lon="1.00518">
        <ele>199</ele>
        <time>2020-10-03T11:38:09.000Z</time>
      </trkpt>
      <trkpt lat="43.60206" lon="1.00515">
        <ele>199</ele>
        <time>2020-10-03T11:38:10.000Z</time>
      </trkpt>
      <trkpt lat="43.60205" lon="1.00511">
        <ele>199</ele>
        <time>2020-10-03T11:38:11.000Z</time>
      </trkpt>
      <trkpt lat="43.60203" lon="1.00507">
        <ele>199</ele>
        <time>2020-10-03T11:38:12.000Z</time>
      </trkpt>
      <trkpt lat="43.60202" lon="1.00503">
        <ele>199</ele>
        <time>2020-10-03T11:38:13.000Z</time>
      </trkpt>
      <trkpt lat="43.60201" lon="1.00499">
        <ele>199</ele>
        <time>2020-10-03T11:38:14.000Z</time>
      </trkpt>
      <trkpt lat="43.602" lon="1.00495">
        <ele>199</ele>
        <time>2020-10-03T11:38:15.000Z</time>
      </trkpt>
      <trkpt lat="43.60199" lon="1.00491">
        <ele>199</ele>
        <time>2020-10-03T11:38:16.000Z</time>
      </trkpt>
      <trkpt lat="43.60197" lon="1.00487">
        <ele>199</ele>
        <time>2020-10-03T11:38:17.000Z</time>
      </trkpt>
      <trkpt lat="43.60196" lon="1.00483">
        <ele>199</ele>
        <time>2020-10-03T11:38:18.000Z</time>
      </trkpt>
      <trkpt lat="43.60194" lon="1.0048">
        <ele>199</ele>
        <time>2020-10-03T11:38:19.000Z</time>
      </trkpt>
      <trkpt lat="43.60193" lon="1.00476">
        <ele>199</ele>
        <time>2020-10-03T11:38:20.000Z</time>
      </trkpt>
      <trkpt lat="43.60192" lon="1.00472">
        <ele>199</ele>
        <time>2020-10-03T11:38:21.000Z</time>
      </trkpt>
      <trkpt lat="43.6019" lon="1.00468">
        <ele>198.52884923077</ele>
        <time>2020-10-03T11:38:22.000Z</time>
      </trkpt>
      <trkpt lat="43.60189" lon="1.00465">
        <ele>198</ele>
        <time>2020-10-03T11:38:23.000Z</time>
      </trkpt>
      <trkpt lat="43.60188" lon="1.00461">
        <ele>198</ele>
        <time>2020-10-03T11:38:24.000Z</time>
      </trkpt>
      <trkpt lat="43.60186" lon="1.00457">
        <ele>198</ele>
        <time>2020-10-03T11:38:25.000Z</time>
      </trkpt>
      <trkpt lat="43.60184" lon="1.00453">
        <ele>198</ele>
        <time>2020-10-03T11:38:26.000Z</time>
      </trkpt>
      <trkpt lat="43.60183" lon="1.0045">
        <ele>198</ele>
        <time>2020-10-03T11:38:27.000Z</time>
      </trkpt>
      <trkpt lat="43.60181" lon="1.00446">
        <ele>198</ele>
        <time>2020-10-03T11:38:28.000Z</time>
      </trkpt>
      <trkpt lat="43.6018" lon="1.00442">
        <ele>197.65686176087</ele>
        <time>2020-10-03T11:38:29.000Z</time>
      </trkpt>
      <trkpt lat="43.60179" lon="1.00438">
        <ele>197</ele>
        <time>2020-10-03T11:38:30.000Z</time>
      </trkpt>
      <trkpt lat="43.60177" lon="1.00434">
        <ele>196.58035428571</ele>
        <time>2020-10-03T11:38:31.000Z</time>
      </trkpt>
      <trkpt lat="43.60176" lon="1.00429">
        <ele>196</ele>
        <time>2020-10-03T11:38:32.000Z</time>
      </trkpt>
      <trkpt lat="43.60174" lon="1.00425">
        <ele>196</ele>
        <time>2020-10-03T11:38:33.000Z</time>
      </trkpt>
      <trkpt lat="43.60173" lon="1.00421">
        <ele>195.60194609104</ele>
        <time>2020-10-03T11:38:34.000Z</time>
      </trkpt>
      <trkpt lat="43.60172" lon="1.00417">
        <ele>195</ele>
        <time>2020-10-03T11:38:35.000Z</time>
      </trkpt>
      <trkpt lat="43.60171" lon="1.00414">
        <ele>194.537037476</ele>
        <time>2020-10-03T11:38:36.000Z</time>
      </trkpt>
      <trkpt lat="43.6017" lon="1.0041">
        <ele>194</ele>
        <time>2020-10-03T11:38:37.000Z</time>
      </trkpt>
      <trkpt lat="43.60169" lon="1.00407">
        <ele>194</ele>
        <time>2020-10-03T11:38:38.000Z</time>
      </trkpt>
      <trkpt lat="43.60167" lon="1.00404">
        <ele>194</ele>
        <time>2020-10-03T11:38:39.000Z</time>
      </trkpt>
      <trkpt lat="43.60166" lon="1.00401">
        <ele>194</ele>
        <time>2020-10-03T11:38:40.000Z</time>
      </trkpt>
      <trkpt lat="43.60164" lon="1.00399">
        <ele>194</ele>
        <time>2020-10-03T11:38:41.000Z</time>
      </trkpt>
      <trkpt lat="43.60162" lon="1.00397">
        <ele>194</ele>
        <time>2020-10-03T11:38:42.000Z</time>
      </trkpt>
      <trkpt lat="43.60161" lon="1.00395">
        <ele>194</ele>
        <time>2020-10-03T11:38:43.000Z</time>
      </trkpt>
      <trkpt lat="43.60158" lon="1.00393">
        <ele>194</ele>
        <time>2020-10-03T11:38:44.000Z</time>
      </trkpt>
      <trkpt lat="43.60157" lon="1.00391">
        <ele>194</ele>
        <time>2020-10-03T11:38:45.000Z</time>
      </trkpt>
      <trkpt lat="43.60155" lon="1.0039">
        <ele>194</ele>
        <time>2020-10-03T11:38:46.000Z</time>
      </trkpt>
      <trkpt lat="43.60153" lon="1.00389">
        <ele>194</ele>
        <time>2020-10-03T11:38:47.000Z</time>
      </trkpt>
      <trkpt lat="43.60151" lon="1.00388">
        <ele>194</ele>
        <time>2020-10-03T11:38:48.000Z</time>
      </trkpt>
      <trkpt lat="43.60149" lon="1.00386">
        <ele>194</ele>
        <time>2020-10-03T11:38:49.000Z</time>
      </trkpt>
      <trkpt lat="43.60146" lon="1.00384">
        <ele>194.36363518825</ele>
        <time>2020-10-03T11:38:50.000Z</time>
      </trkpt>
      <trkpt lat="43.60144" lon="1.00382">
        <ele>195</ele>
        <time>2020-10-03T11:38:51.000Z</time>
      </trkpt>
      <trkpt lat="43.60142" lon="1.0038">
        <ele>195</ele>
        <time>2020-10-03T11:38:52.000Z</time>
      </trkpt>
      <trkpt lat="43.60139" lon="1.00378">
        <ele>195</ele>
        <time>2020-10-03T11:38:53.000Z</time>
      </trkpt>
      <trkpt lat="43.60137" lon="1.00377">
        <ele>195</ele>
        <time>2020-10-03T11:38:54.000Z</time>
      </trkpt>
      <trkpt lat="43.60135" lon="1.00375">
        <ele>195</ele>
        <time>2020-10-03T11:38:55.000Z</time>
      </trkpt>
      <trkpt lat="43.60132" lon="1.00374">
        <ele>195</ele>
        <time>2020-10-03T11:38:56.000Z</time>
      </trkpt>
      <trkpt lat="43.6013" lon="1.00373">
        <ele>195</ele>
        <time>2020-10-03T11:38:57.000Z</time>
      </trkpt>
      <trkpt lat="43.60127" lon="1.00371">
        <ele>195</ele>
        <time>2020-10-03T11:38:58.000Z</time>
      </trkpt>
      <trkpt lat="43.60125" lon="1.0037">
        <ele>195.40230104901</ele>
        <time>2020-10-03T11:38:59.000Z</time>
      </trkpt>
      <trkpt lat="43.60123" lon="1.00369">
        <ele>196</ele>
        <time>2020-10-03T11:39:00.000Z</time>
      </trkpt>
      <trkpt lat="43.60121" lon="1.00367">
        <ele>196</ele>
        <time>2020-10-03T11:39:01.000Z</time>
      </trkpt>
      <trkpt lat="43.60119" lon="1.00366">
        <ele>196</ele>
        <time>2020-10-03T11:39:02.000Z</time>
      </trkpt>
      <trkpt lat="43.60117" lon="1.00364">
        <ele>196</ele>
        <time>2020-10-03T11:39:03.000Z</time>
      </trkpt>
      <trkpt lat="43.60115" lon="1.00362">
        <ele>196</ele>
        <time>2020-10-03T11:39:04.000Z</time>
      </trkpt>
      <trkpt lat="43.60113" lon="1.0036">
        <ele>196</ele>
        <time>2020-10-03T11:39:05.000Z</time>
      </trkpt>
      <trkpt lat="43.6011" lon="1.00358">
        <ele>196</ele>
        <time>2020-10-03T11:39:06.000Z</time>
      </trkpt>
      <trkpt lat="43.60108" lon="1.00356">
        <ele>196</ele>
        <time>2020-10-03T11:39:07.000Z</time>
      </trkpt>
      <trkpt lat="43.60106" lon="1.00354">
        <ele>196</ele>
        <time>2020-10-03T11:39:08.000Z</time>
      </trkpt>
      <trkpt lat="43.60104" lon="1.00352">
        <ele>196.32183789669</ele>
        <time>2020-10-03T11:39:09.000Z</time>
      </trkpt>
      <trkpt lat="43.60102" lon="1.0035">
        <ele>197</ele>
        <time>2020-10-03T11:39:10.000Z</time>
      </trkpt>
      <trkpt lat="43.601" lon="1.00347">
        <ele>197.43181090909</ele>
        <time>2020-10-03T11:39:11.000Z</time>
      </trkpt>
      <trkpt lat="43.60098" lon="1.00345">
        <ele>198</ele>
        <time>2020-10-03T11:39:12.000Z</time>
      </trkpt>
      <trkpt lat="43.60096" lon="1.00343">
        <ele>198.36283005403</ele>
        <time>2020-10-03T11:39:13.000Z</time>
      </trkpt>
      <trkpt lat="43.60094" lon="1.0034">
        <ele>199</ele>
        <time>2020-10-03T11:39:14.000Z</time>
      </trkpt>
      <trkpt lat="43.60092" lon="1.00337">
        <ele>199</ele>
        <time>2020-10-03T11:39:15.000Z</time>
      </trkpt>
      <trkpt lat="43.60089" lon="1.00335">
        <ele>199</ele>
        <time>2020-10-03T11:39:16.000Z</time>
      </trkpt>
      <trkpt lat="43.60087" lon="1.00333">
        <ele>199</ele>
        <time>2020-10-03T11:39:17.000Z</time>
      </trkpt>
      <trkpt lat="43.60086" lon="1.0033">
        <ele>199</ele>
        <time>2020-10-03T11:39:18.000Z</time>
      </trkpt>
      <trkpt lat="43.60084" lon="1.00327">
        <ele>199</ele>
        <time>2020-10-03T11:39:19.000Z</time>
      </trkpt>
      <trkpt lat="43.60082" lon="1.00325">
        <ele>199.31297695006</ele>
        <time>2020-10-03T11:39:20.000Z</time>
      </trkpt>
      <trkpt lat="43.60081" lon="1.00322">
        <ele>200</ele>
        <time>2020-10-03T11:39:21.000Z</time>
      </trkpt>
      <trkpt lat="43.60079" lon="1.00319">
        <ele>200</ele>
        <time>2020-10-03T11:39:22.000Z</time>
      </trkpt>
      <trkpt lat="43.60078" lon="1.00315">
        <ele>200.38393142857</ele>
        <time>2020-10-03T11:39:23.000Z</time>
      </trkpt>
      <trkpt lat="43.60076" lon="1.00312">
        <ele>201</ele>
        <time>2020-10-03T11:39:24.000Z</time>
      </trkpt>
      <trkpt lat="43.60074" lon="1.0031">
        <ele>201</ele>
        <time>2020-10-03T11:39:25.000Z</time>
      </trkpt>
      <trkpt lat="43.60073" lon="1.00307">
        <ele>201</ele>
        <time>2020-10-03T11:39:26.000Z</time>
      </trkpt>
      <trkpt lat="43.60072" lon="1.00304">
        <ele>201</ele>
        <time>2020-10-03T11:39:27.000Z</time>
      </trkpt>
      <trkpt lat="43.60071" lon="1.00302">
        <ele>201</ele>
        <time>2020-10-03T11:39:28.000Z</time>
      </trkpt>
      <trkpt lat="43.6007" lon="1.00299">
        <ele>201</ele>
        <time>2020-10-03T11:39:29.000Z</time>
      </trkpt>
      <trkpt lat="43.60069" lon="1.00296">
        <ele>201</ele>
        <time>2020-10-03T11:39:30.000Z</time>
      </trkpt>
      <trkpt lat="43.60068" lon="1.00293">
        <ele>201.4333338074</ele>
        <time>2020-10-03T11:39:31.000Z</time>
      </trkpt>
      <trkpt lat="43.60066" lon="1.0029">
        <ele>202</ele>
        <time>2020-10-03T11:39:32.000Z</time>
      </trkpt>
      <trkpt lat="43.60065" lon="1.00287">
        <ele>202</ele>
        <time>2020-10-03T11:39:33.000Z</time>
      </trkpt>
      <trkpt lat="43.60064" lon="1.00284">
        <ele>202</ele>
        <time>2020-10-03T11:39:34.000Z</time>
      </trkpt>
      <trkpt lat="43.60063" lon="1.00281">
        <ele>202</ele>
        <time>2020-10-03T11:39:35.000Z</time>
      </trkpt>
      <trkpt lat="43.60061" lon="1.00278">
        <ele>202.36283005403</ele>
        <time>2020-10-03T11:39:36.000Z</time>
      </trkpt>
      <trkpt lat="43.6006" lon="1.00274">
        <ele>203</ele>
        <time>2020-10-03T11:39:37.000Z</time>
      </trkpt>
      <trkpt lat="43.6006" lon="1.00271">
        <ele>203</ele>
        <time>2020-10-03T11:39:38.000Z</time>
      </trkpt>
      <trkpt lat="43.60058" lon="1.00268">
        <ele>203</ele>
        <time>2020-10-03T11:39:39.000Z</time>
      </trkpt>
      <trkpt lat="43.60057" lon="1.00264">
        <ele>203</ele>
        <time>2020-10-03T11:39:40.000Z</time>
      </trkpt>
      <trkpt lat="43.60056" lon="1.00261">
        <ele>203.45454662995</ele>
        <time>2020-10-03T11:39:41.000Z</time>
      </trkpt>
      <trkpt lat="43.60054" lon="1.00258">
        <ele>204</ele>
        <time>2020-10-03T11:39:42.000Z</time>
      </trkpt>
      <trkpt lat="43.60053" lon="1.00255">
        <ele>204</ele>
        <time>2020-10-03T11:39:43.000Z</time>
      </trkpt>
      <trkpt lat="43.60052" lon="1.00253">
        <ele>204</ele>
        <time>2020-10-03T11:39:44.000Z</time>
      </trkpt>
      <trkpt lat="43.60051" lon="1.0025">
        <ele>204</ele>
        <time>2020-10-03T11:39:45.000Z</time>
      </trkpt>
      <trkpt lat="43.6005" lon="1.00248">
        <ele>203.59999767271</ele>
        <time>2020-10-03T11:39:46.000Z</time>
      </trkpt>
      <trkpt lat="43.60049" lon="1.00244">
        <ele>203</ele>
        <time>2020-10-03T11:39:47.000Z</time>
      </trkpt>
      <trkpt lat="43.60047" lon="1.00242">
        <ele>203.43518814815</ele>
        <time>2020-10-03T11:39:48.000Z</time>
      </trkpt>
      <trkpt lat="43.60046" lon="1.00238">
        <ele>204</ele>
        <time>2020-10-03T11:39:49.000Z</time>
      </trkpt>
      <trkpt lat="43.60045" lon="1.00235">
        <ele>204</ele>
        <time>2020-10-03T11:39:50.000Z</time>
      </trkpt>
      <trkpt lat="43.60043" lon="1.00233">
        <ele>204</ele>
        <time>2020-10-03T11:39:51.000Z</time>
      </trkpt>
      <trkpt lat="43.60042" lon="1.0023">
        <ele>204</ele>
        <time>2020-10-03T11:39:52.000Z</time>
      </trkpt>
      <trkpt lat="43.6004" lon="1.00227">
        <ele>204</ele>
        <time>2020-10-03T11:39:53.000Z</time>
      </trkpt>
      <trkpt lat="43.60039" lon="1.00225">
        <ele>204.45160757542</ele>
        <time>2020-10-03T11:39:54.000Z</time>
      </trkpt>
      <trkpt lat="43.60038" lon="1.00222">
        <ele>205</ele>
        <time>2020-10-03T11:39:55.000Z</time>
      </trkpt>
      <trkpt lat="43.60036" lon="1.0022">
        <ele>205</ele>
        <time>2020-10-03T11:39:56.000Z</time>
      </trkpt>
      <trkpt lat="43.60035" lon="1.00217">
        <ele>205.21052631579</ele>
        <time>2020-10-03T11:39:57.000Z</time>
      </trkpt>
      <trkpt lat="43.60034" lon="1.00215">
        <ele>206</ele>
        <time>2020-10-03T11:39:58.000Z</time>
      </trkpt>
      <trkpt lat="43.60032" lon="1.00212">
        <ele>206</ele>
        <time>2020-10-03T11:39:59.000Z</time>
      </trkpt>
      <trkpt lat="43.6003" lon="1.00209">
        <ele>206</ele>
        <time>2020-10-03T11:40:00.000Z</time>
      </trkpt>
      <trkpt lat="43.60029" lon="1.00207">
        <ele>206</ele>
        <time>2020-10-03T11:40:01.000Z</time>
      </trkpt>
      <trkpt lat="43.60027" lon="1.00204">
        <ele>206</ele>
        <time>2020-10-03T11:40:02.000Z</time>
      </trkpt>
      <trkpt lat="43.60026" lon="1.00202">
        <ele>206</ele>
        <time>2020-10-03T11:40:03.000Z</time>
      </trkpt>
      <trkpt lat="43.60024" lon="1.00199">
        <ele>206</ele>
        <time>2020-10-03T11:40:04.000Z</time>
      </trkpt>
      <trkpt lat="43.60023" lon="1.00196">
        <ele>206</ele>
        <time>2020-10-03T11:40:05.000Z</time>
      </trkpt>
      <trkpt lat="43.60021" lon="1.00193">
        <ele>206.28168887126</ele>
        <time>2020-10-03T11:40:06.000Z</time>
      </trkpt>
      <trkpt lat="43.6002" lon="1.00191">
        <ele>207</ele>
        <time>2020-10-03T11:40:07.000Z</time>
      </trkpt>
      <trkpt lat="43.60019" lon="1.00188">
        <ele>207</ele>
        <time>2020-10-03T11:40:08.000Z</time>
      </trkpt>
      <trkpt lat="43.60017" lon="1.00185">
        <ele>207.31818181818</ele>
        <time>2020-10-03T11:40:09.000Z</time>
      </trkpt>
      <trkpt lat="43.60016" lon="1.00183">
        <ele>208</ele>
        <time>2020-10-03T11:40:10.000Z</time>
      </trkpt>
      <trkpt lat="43.60015" lon="1.0018">
        <ele>208</ele>
        <time>2020-10-03T11:40:11.000Z</time>
      </trkpt>
      <trkpt lat="43.60013" lon="1.00177">
        <ele>208</ele>
        <time>2020-10-03T11:40:12.000Z</time>
      </trkpt>
      <trkpt lat="43.60012" lon="1.00175">
        <ele>208</ele>
        <time>2020-10-03T11:40:13.000Z</time>
      </trkpt>
      <trkpt lat="43.6001" lon="1.00172">
        <ele>208</ele>
        <time>2020-10-03T11:40:14.000Z</time>
      </trkpt>
      <trkpt lat="43.60009" lon="1.0017">
        <ele>208</ele>
        <time>2020-10-03T11:40:15.000Z</time>
      </trkpt>
      <trkpt lat="43.60007" lon="1.00167">
        <ele>208</ele>
        <time>2020-10-03T11:40:16.000Z</time>
      </trkpt>
      <trkpt lat="43.60006" lon="1.00164">
        <ele>208</ele>
        <time>2020-10-03T11:40:17.000Z</time>
      </trkpt>
      <trkpt lat="43.60005" lon="1.00162">
        <ele>208.22784276872</ele>
        <time>2020-10-03T11:40:18.000Z</time>
      </trkpt>
      <trkpt lat="43.60003" lon="1.00159">
        <ele>209</ele>
        <time>2020-10-03T11:40:19.000Z</time>
      </trkpt>
      <trkpt lat="43.60002" lon="1.00157">
        <ele>209</ele>
        <time>2020-10-03T11:40:20.000Z</time>
      </trkpt>
      <trkpt lat="43.60001" lon="1.00154">
        <ele>209</ele>
        <time>2020-10-03T11:40:21.000Z</time>
      </trkpt>
      <trkpt lat="43.59999" lon="1.00152">
        <ele>209.74545306445</ele>
        <time>2020-10-03T11:40:22.000Z</time>
      </trkpt>
      <trkpt lat="43.59998" lon="1.00149">
        <ele>211</ele>
        <time>2020-10-03T11:40:23.000Z</time>
      </trkpt>
      <trkpt lat="43.59997" lon="1.00146">
        <ele>211</ele>
        <time>2020-10-03T11:40:24.000Z</time>
      </trkpt>
      <trkpt lat="43.59995" lon="1.00144">
        <ele>211</ele>
        <time>2020-10-03T11:40:25.000Z</time>
      </trkpt>
      <trkpt lat="43.59994" lon="1.00141">
        <ele>211</ele>
        <time>2020-10-03T11:40:26.000Z</time>
      </trkpt>
      <trkpt lat="43.59991" lon="1.00136">
        <ele>211</ele>
        <time>2020-10-03T11:40:28.000Z</time>
      </trkpt>
      <trkpt lat="43.5999" lon="1.00134">
        <ele>211</ele>
        <time>2020-10-03T11:40:29.000Z</time>
      </trkpt>
      <trkpt lat="43.59988" lon="1.00131">
        <ele>211</ele>
        <time>2020-10-03T11:40:30.000Z</time>
      </trkpt>
      <trkpt lat="43.59987" lon="1.00128">
        <ele>211.47170130294</ele>
        <time>2020-10-03T11:40:31.000Z</time>
      </trkpt>
      <trkpt lat="43.59986" lon="1.00125">
        <ele>212</ele>
        <time>2020-10-03T11:40:32.000Z</time>
      </trkpt>
      <trkpt lat="43.59984" lon="1.00122">
        <ele>212</ele>
        <time>2020-10-03T11:40:33.000Z</time>
      </trkpt>
      <trkpt lat="43.59983" lon="1.00119">
        <ele>212</ele>
        <time>2020-10-03T11:40:34.000Z</time>
      </trkpt>
      <trkpt lat="43.59981" lon="1.00116">
        <ele>212</ele>
        <time>2020-10-03T11:40:35.000Z</time>
      </trkpt>
      <trkpt lat="43.59979" lon="1.00112">
        <ele>212</ele>
        <time>2020-10-03T11:40:36.000Z</time>
      </trkpt>
      <trkpt lat="43.59977" lon="1.00108">
        <ele>212</ele>
        <time>2020-10-03T11:40:37.000Z</time>
      </trkpt>
      <trkpt lat="43.59975" lon="1.00105">
        <ele>212</ele>
        <time>2020-10-03T11:40:38.000Z</time>
      </trkpt>
      <trkpt lat="43.59974" lon="1.00102">
        <ele>212</ele>
        <time>2020-10-03T11:40:39.000Z</time>
      </trkpt>
      <trkpt lat="43.59972" lon="1.00098">
        <ele>212</ele>
        <time>2020-10-03T11:40:40.000Z</time>
      </trkpt>
      <trkpt lat="43.5997" lon="1.00095">
        <ele>211.5798276845</ele>
        <time>2020-10-03T11:40:41.000Z</time>
      </trkpt>
      <trkpt lat="43.59968" lon="1.00091">
        <ele>211</ele>
        <time>2020-10-03T11:40:42.000Z</time>
      </trkpt>
      <trkpt lat="43.59966" lon="1.00088">
        <ele>210.54945565027</ele>
        <time>2020-10-03T11:40:43.000Z</time>
      </trkpt>
      <trkpt lat="43.59965" lon="1.00084">
        <ele>210</ele>
        <time>2020-10-03T11:40:44.000Z</time>
      </trkpt>
      <trkpt lat="43.59963" lon="1.00081">
        <ele>209.87301651801</ele>
        <time>2020-10-03T11:40:45.000Z</time>
      </trkpt>
      <trkpt lat="43.59961" lon="1.00077">
        <ele>208</ele>
        <time>2020-10-03T11:40:46.000Z</time>
      </trkpt>
      <trkpt lat="43.59959" lon="1.00073">
        <ele>207.5798276845</ele>
        <time>2020-10-03T11:40:47.000Z</time>
      </trkpt>
      <trkpt lat="43.59957" lon="1.0007">
        <ele>207</ele>
        <time>2020-10-03T11:40:48.000Z</time>
      </trkpt>
      <trkpt lat="43.59956" lon="1.00066">
        <ele>207</ele>
        <time>2020-10-03T11:40:49.000Z</time>
      </trkpt>
      <trkpt lat="43.59955" lon="1.00063">
        <ele>207</ele>
        <time>2020-10-03T11:40:50.000Z</time>
      </trkpt>
      <trkpt lat="43.59953" lon="1.00059">
        <ele>207</ele>
        <time>2020-10-03T11:40:51.000Z</time>
      </trkpt>
      <trkpt lat="43.59952" lon="1.00055">
        <ele>206.63094857143</ele>
        <time>2020-10-03T11:40:52.000Z</time>
      </trkpt>
      <trkpt lat="43.5995" lon="1.00051">
        <ele>206</ele>
        <time>2020-10-03T11:40:53.000Z</time>
      </trkpt>
      <trkpt lat="43.59949" lon="1.00048">
        <ele>206</ele>
        <time>2020-10-03T11:40:54.000Z</time>
      </trkpt>
      <trkpt lat="43.59947" lon="1.00044">
        <ele>206</ele>
        <time>2020-10-03T11:40:55.000Z</time>
      </trkpt>
      <trkpt lat="43.59946" lon="1.0004">
        <ele>205.80952477702</ele>
        <time>2020-10-03T11:40:56.000Z</time>
      </trkpt>
      <trkpt lat="43.59944" lon="1.00036">
        <ele>205</ele>
        <time>2020-10-03T11:40:57.000Z</time>
      </trkpt>
      <trkpt lat="43.59943" lon="1.00033">
        <ele>205</ele>
        <time>2020-10-03T11:40:58.000Z</time>
      </trkpt>
      <trkpt lat="43.59942" lon="1.00029">
        <ele>204.54545137192</ele>
        <time>2020-10-03T11:40:59.000Z</time>
      </trkpt>
      <trkpt lat="43.59941" lon="1.00025">
        <ele>204</ele>
        <time>2020-10-03T11:41:00.000Z</time>
      </trkpt>
      <trkpt lat="43.59939" lon="1.00021">
        <ele>204</ele>
        <time>2020-10-03T11:41:01.000Z</time>
      </trkpt>
      <trkpt lat="43.59938" lon="1.00018">
        <ele>204</ele>
        <time>2020-10-03T11:41:02.000Z</time>
      </trkpt>
      <trkpt lat="43.59937" lon="1.00014">
        <ele>204</ele>
        <time>2020-10-03T11:41:03.000Z</time>
      </trkpt>
      <trkpt lat="43.59936" lon="1.00011">
        <ele>204</ele>
        <time>2020-10-03T11:41:04.000Z</time>
      </trkpt>
      <trkpt lat="43.59935" lon="1.00007">
        <ele>204</ele>
        <time>2020-10-03T11:41:05.000Z</time>
      </trkpt>
      <trkpt lat="43.59933" lon="1.00003">
        <ele>204</ele>
        <time>2020-10-03T11:41:06.000Z</time>
      </trkpt>
      <trkpt lat="43.59932" lon="1">
        <ele>204</ele>
        <time>2020-10-03T11:41:07.000Z</time>
      </trkpt>
      <trkpt lat="43.59931" lon="0.99996">
        <ele>204</ele>
        <time>2020-10-03T11:41:08.000Z</time>
      </trkpt>
      <trkpt lat="43.5993" lon="0.99993">
        <ele>204</ele>
        <time>2020-10-03T11:41:09.000Z</time>
      </trkpt>
      <trkpt lat="43.59928" lon="0.9999">
        <ele>204</ele>
        <time>2020-10-03T11:41:10.000Z</time>
      </trkpt>
      <trkpt lat="43.59927" lon="0.99986">
        <ele>204</ele>
        <time>2020-10-03T11:41:11.000Z</time>
      </trkpt>
      <trkpt lat="43.59926" lon="0.99982">
        <ele>203.63529447197</ele>
        <time>2020-10-03T11:41:12.000Z</time>
      </trkpt>
      <trkpt lat="43.59925" lon="0.99979">
        <ele>203</ele>
        <time>2020-10-03T11:41:13.000Z</time>
      </trkpt>
      <trkpt lat="43.59923" lon="0.99975">
        <ele>203</ele>
        <time>2020-10-03T11:41:14.000Z</time>
      </trkpt>
      <trkpt lat="43.59922" lon="0.99971">
        <ele>203</ele>
        <time>2020-10-03T11:41:15.000Z</time>
      </trkpt>
      <trkpt lat="43.59922" lon="0.99967">
        <ele>203</ele>
        <time>2020-10-03T11:41:16.000Z</time>
      </trkpt>
      <trkpt lat="43.59921" lon="0.99963">
        <ele>203</ele>
        <time>2020-10-03T11:41:17.000Z</time>
      </trkpt>
      <trkpt lat="43.5992" lon="0.99959">
        <ele>203</ele>
        <time>2020-10-03T11:41:18.000Z</time>
      </trkpt>
      <trkpt lat="43.59919" lon="0.99955">
        <ele>203</ele>
        <time>2020-10-03T11:41:19.000Z</time>
      </trkpt>
      <trkpt lat="43.59918" lon="0.99951">
        <ele>203</ele>
        <time>2020-10-03T11:41:20.000Z</time>
      </trkpt>
      <trkpt lat="43.59917" lon="0.99947">
        <ele>203</ele>
        <time>2020-10-03T11:41:21.000Z</time>
      </trkpt>
      <trkpt lat="43.59916" lon="0.99943">
        <ele>203</ele>
        <time>2020-10-03T11:41:22.000Z</time>
      </trkpt>
      <trkpt lat="43.59915" lon="0.99938">
        <ele>203</ele>
        <time>2020-10-03T11:41:23.000Z</time>
      </trkpt>
      <trkpt lat="43.59914" lon="0.99934">
        <ele>203</ele>
        <time>2020-10-03T11:41:24.000Z</time>
      </trkpt>
      <trkpt lat="43.59913" lon="0.9993">
        <ele>203</ele>
        <time>2020-10-03T11:41:25.000Z</time>
      </trkpt>
      <trkpt lat="43.59912" lon="0.99926">
        <ele>202.54955141954</ele>
        <time>2020-10-03T11:41:26.000Z</time>
      </trkpt>
      <trkpt lat="43.59911" lon="0.99922">
        <ele>202</ele>
        <time>2020-10-03T11:41:27.000Z</time>
      </trkpt>
      <trkpt lat="43.5991" lon="0.99917">
        <ele>202</ele>
        <time>2020-10-03T11:41:28.000Z</time>
      </trkpt>
      <trkpt lat="43.59908" lon="0.99913">
        <ele>202</ele>
        <time>2020-10-03T11:41:29.000Z</time>
      </trkpt>
      <trkpt lat="43.59907" lon="0.99908">
        <ele>202</ele>
        <time>2020-10-03T11:41:30.000Z</time>
      </trkpt>
      <trkpt lat="43.59905" lon="0.99904">
        <ele>202</ele>
        <time>2020-10-03T11:41:31.000Z</time>
      </trkpt>
      <trkpt lat="43.59904" lon="0.99901">
        <ele>202</ele>
        <time>2020-10-03T11:41:32.000Z</time>
      </trkpt>
      <trkpt lat="43.59902" lon="0.99897">
        <ele>201.39598474305</ele>
        <time>2020-10-03T11:41:33.000Z</time>
      </trkpt>
      <trkpt lat="43.59901" lon="0.99894">
        <ele>199.38255760012</ele>
        <time>2020-10-03T11:41:34.000Z</time>
      </trkpt>
      <trkpt lat="43.59899" lon="0.99891">
        <ele>199</ele>
        <time>2020-10-03T11:41:35.000Z</time>
      </trkpt>
      <trkpt lat="43.59897" lon="0.99887">
        <ele>199</ele>
        <time>2020-10-03T11:41:36.000Z</time>
      </trkpt>
      <trkpt lat="43.59895" lon="0.99885">
        <ele>198.17241683709</ele>
        <time>2020-10-03T11:41:37.000Z</time>
      </trkpt>
      <trkpt lat="43.59893" lon="0.99882">
        <ele>197</ele>
        <time>2020-10-03T11:41:38.000Z</time>
      </trkpt>
      <trkpt lat="43.59891" lon="0.99879">
        <ele>197</ele>
        <time>2020-10-03T11:41:39.000Z</time>
      </trkpt>
      <trkpt lat="43.59889" lon="0.99875">
        <ele>197</ele>
        <time>2020-10-03T11:41:40.000Z</time>
      </trkpt>
      <trkpt lat="43.59887" lon="0.99872">
        <ele>196.25454693555</ele>
        <time>2020-10-03T11:41:41.000Z</time>
      </trkpt>
      <trkpt lat="43.59885" lon="0.99869">
        <ele>195</ele>
        <time>2020-10-03T11:41:42.000Z</time>
      </trkpt>
      <trkpt lat="43.59883" lon="0.99865">
        <ele>195</ele>
        <time>2020-10-03T11:41:43.000Z</time>
      </trkpt>
      <trkpt lat="43.59881" lon="0.99862">
        <ele>195</ele>
        <time>2020-10-03T11:41:44.000Z</time>
      </trkpt>
      <trkpt lat="43.59878" lon="0.99859">
        <ele>194.34066645099</ele>
        <time>2020-10-03T11:41:45.000Z</time>
      </trkpt>
      <trkpt lat="43.59877" lon="0.99856">
        <ele>193</ele>
        <time>2020-10-03T11:41:46.000Z</time>
      </trkpt>
      <trkpt lat="43.59874" lon="0.99853">
        <ele>193</ele>
        <time>2020-10-03T11:41:47.000Z</time>
      </trkpt>
      <trkpt lat="43.59872" lon="0.9985">
        <ele>192.09889862574</ele>
        <time>2020-10-03T11:41:48.000Z</time>
      </trkpt>
      <trkpt lat="43.59869" lon="0.99846">
        <ele>191</ele>
        <time>2020-10-03T11:41:49.000Z</time>
      </trkpt>
      <trkpt lat="43.59867" lon="0.99843">
        <ele>190.93650825901</ele>
        <time>2020-10-03T11:41:50.000Z</time>
      </trkpt>
      <trkpt lat="43.59865" lon="0.9984">
        <ele>190</ele>
        <time>2020-10-03T11:41:51.000Z</time>
      </trkpt>
      <trkpt lat="43.59863" lon="0.99837">
        <ele>190</ele>
        <time>2020-10-03T11:41:52.000Z</time>
      </trkpt>
      <trkpt lat="43.5986" lon="0.99833">
        <ele>189.92592680383</ele>
        <time>2020-10-03T11:41:53.000Z</time>
      </trkpt>
      <trkpt lat="43.59858" lon="0.99829">
        <ele>189</ele>
        <time>2020-10-03T11:41:54.000Z</time>
      </trkpt>
      <trkpt lat="43.59856" lon="0.99826">
        <ele>189</ele>
        <time>2020-10-03T11:41:55.000Z</time>
      </trkpt>
      <trkpt lat="43.59854" lon="0.99822">
        <ele>189</ele>
        <time>2020-10-03T11:41:56.000Z</time>
      </trkpt>
      <trkpt lat="43.59852" lon="0.99819">
        <ele>188.65454926283</ele>
        <time>2020-10-03T11:41:57.000Z</time>
      </trkpt>
      <trkpt lat="43.59851" lon="0.99815">
        <ele>188</ele>
        <time>2020-10-03T11:41:58.000Z</time>
      </trkpt>
      <trkpt lat="43.59849" lon="0.99812">
        <ele>188</ele>
        <time>2020-10-03T11:41:59.000Z</time>
      </trkpt>
      <trkpt lat="43.59848" lon="0.99808">
        <ele>188</ele>
        <time>2020-10-03T11:42:00.000Z</time>
      </trkpt>
      <trkpt lat="43.59847" lon="0.99804">
        <ele>188</ele>
        <time>2020-10-03T11:42:01.000Z</time>
      </trkpt>
      <trkpt lat="43.59846" lon="0.998">
        <ele>188</ele>
        <time>2020-10-03T11:42:02.000Z</time>
      </trkpt>
      <trkpt lat="43.59845" lon="0.99796">
        <ele>187.09909016478</ele>
        <time>2020-10-03T11:42:03.000Z</time>
      </trkpt>
      <trkpt lat="43.59844" lon="0.99793">
        <ele>186</ele>
        <time>2020-10-03T11:42:04.000Z</time>
      </trkpt>
      <trkpt lat="43.59843" lon="0.99789">
        <ele>186</ele>
        <time>2020-10-03T11:42:05.000Z</time>
      </trkpt>
      <trkpt lat="43.59841" lon="0.99786">
        <ele>185.93650825901</ele>
        <time>2020-10-03T11:42:06.000Z</time>
      </trkpt>
      <trkpt lat="43.5984" lon="0.99782">
        <ele>185</ele>
        <time>2020-10-03T11:42:07.000Z</time>
      </trkpt>
      <trkpt lat="43.59839" lon="0.99778">
        <ele>185</ele>
        <time>2020-10-03T11:42:08.000Z</time>
      </trkpt>
      <trkpt lat="43.59838" lon="0.99775">
        <ele>185</ele>
        <time>2020-10-03T11:42:09.000Z</time>
      </trkpt>
      <trkpt lat="43.59836" lon="0.99771">
        <ele>184.26189714286</ele>
        <time>2020-10-03T11:42:10.000Z</time>
      </trkpt>
      <trkpt lat="43.59835" lon="0.99768">
        <ele>183</ele>
        <time>2020-10-03T11:42:11.000Z</time>
      </trkpt>
      <trkpt lat="43.59834" lon="0.99764">
        <ele>183</ele>
        <time>2020-10-03T11:42:12.000Z</time>
      </trkpt>
      <trkpt lat="43.59833" lon="0.9976">
        <ele>183</ele>
        <time>2020-10-03T11:42:13.000Z</time>
      </trkpt>
      <trkpt lat="43.59832" lon="0.99755">
        <ele>183</ele>
        <time>2020-10-03T11:42:14.000Z</time>
      </trkpt>
      <trkpt lat="43.59831" lon="0.99751">
        <ele>183</ele>
        <time>2020-10-03T11:42:15.000Z</time>
      </trkpt>
      <trkpt lat="43.5983" lon="0.99746">
        <ele>183</ele>
        <time>2020-10-03T11:42:16.000Z</time>
      </trkpt>
      <trkpt lat="43.5983" lon="0.99741">
        <ele>182.17948493534</ele>
        <time>2020-10-03T11:42:17.000Z</time>
      </trkpt>
      <trkpt lat="43.59829" lon="0.99737">
        <ele>181</ele>
        <time>2020-10-03T11:42:18.000Z</time>
      </trkpt>
      <trkpt lat="43.59829" lon="0.99732">
        <ele>181</ele>
        <time>2020-10-03T11:42:19.000Z</time>
      </trkpt>
      <trkpt lat="43.59829" lon="0.99727">
        <ele>181</ele>
        <time>2020-10-03T11:42:20.000Z</time>
      </trkpt>
      <trkpt lat="43.59829" lon="0.99722">
        <ele>181</ele>
        <time>2020-10-03T11:42:21.000Z</time>
      </trkpt>
      <trkpt lat="43.59829" lon="0.99717">
        <ele>180.92537826685</ele>
        <time>2020-10-03T11:42:22.000Z</time>
      </trkpt>
      <trkpt lat="43.5983" lon="0.99713">
        <ele>180</ele>
        <time>2020-10-03T11:42:23.000Z</time>
      </trkpt>
      <trkpt lat="43.5983" lon="0.99708">
        <ele>180</ele>
        <time>2020-10-03T11:42:24.000Z</time>
      </trkpt>
      <trkpt lat="43.5983" lon="0.99704">
        <ele>180</ele>
        <time>2020-10-03T11:42:25.000Z</time>
      </trkpt>
      <trkpt lat="43.5983" lon="0.997">
        <ele>180</ele>
        <time>2020-10-03T11:42:26.000Z</time>
      </trkpt>
      <trkpt lat="43.59831" lon="0.99696">
        <ele>180</ele>
        <time>2020-10-03T11:42:27.000Z</time>
      </trkpt>
      <trkpt lat="43.59831" lon="0.99691">
        <ele>180</ele>
        <time>2020-10-03T11:42:28.000Z</time>
      </trkpt>
      <trkpt lat="43.5983" lon="0.99687">
        <ele>179.57954909091</ele>
        <time>2020-10-03T11:42:29.000Z</time>
      </trkpt>
      <trkpt lat="43.5983" lon="0.99684">
        <ele>179</ele>
        <time>2020-10-03T11:42:30.000Z</time>
      </trkpt>
      <trkpt lat="43.59831" lon="0.9968">
        <ele>179</ele>
        <time>2020-10-03T11:42:31.000Z</time>
      </trkpt>
      <trkpt lat="43.5983" lon="0.99676">
        <ele>179</ele>
        <time>2020-10-03T11:42:32.000Z</time>
      </trkpt>
      <trkpt lat="43.5983" lon="0.99672">
        <ele>178.61728453589</ele>
        <time>2020-10-03T11:42:33.000Z</time>
      </trkpt>
      <trkpt lat="43.5983" lon="0.99668">
        <ele>178</ele>
        <time>2020-10-03T11:42:34.000Z</time>
      </trkpt>
      <trkpt lat="43.5983" lon="0.99664">
        <ele>177.62650360866</ele>
        <time>2020-10-03T11:42:35.000Z</time>
      </trkpt>
      <trkpt lat="43.5983" lon="0.9966">
        <ele>177</ele>
        <time>2020-10-03T11:42:36.000Z</time>
      </trkpt>
      <trkpt lat="43.5983" lon="0.99656">
        <ele>177</ele>
        <time>2020-10-03T11:42:37.000Z</time>
      </trkpt>
      <trkpt lat="43.5983" lon="0.99652">
        <ele>177</ele>
        <time>2020-10-03T11:42:38.000Z</time>
      </trkpt>
      <trkpt lat="43.5983" lon="0.99647">
        <ele>177.43820111603</ele>
        <time>2020-10-03T11:42:39.000Z</time>
      </trkpt>
      <trkpt lat="43.59829" lon="0.99643">
        <ele>178</ele>
        <time>2020-10-03T11:42:40.000Z</time>
      </trkpt>
      <trkpt lat="43.59829" lon="0.99639">
        <ele>178</ele>
        <time>2020-10-03T11:42:41.000Z</time>
      </trkpt>
      <trkpt lat="43.59829" lon="0.99635">
        <ele>178</ele>
        <time>2020-10-03T11:42:42.000Z</time>
      </trkpt>
      <trkpt lat="43.59829" lon="0.99631">
        <ele>178</ele>
        <time>2020-10-03T11:42:43.000Z</time>
      </trkpt>
      <trkpt lat="43.59829" lon="0.99627">
        <ele>178</ele>
        <time>2020-10-03T11:42:44.000Z</time>
      </trkpt>
      <trkpt lat="43.59828" lon="0.99624">
        <ele>178</ele>
        <time>2020-10-03T11:42:45.000Z</time>
      </trkpt>
      <trkpt lat="43.59828" lon="0.9962">
        <ele>178</ele>
        <time>2020-10-03T11:42:46.000Z</time>
      </trkpt>
      <trkpt lat="43.59827" lon="0.99617">
        <ele>177.5545457719</ele>
        <time>2020-10-03T11:42:47.000Z</time>
      </trkpt>
      <trkpt lat="43.59827" lon="0.99613">
        <ele>177</ele>
        <time>2020-10-03T11:42:48.000Z</time>
      </trkpt>
      <trkpt lat="43.59826" lon="0.9961">
        <ele>177</ele>
        <time>2020-10-03T11:42:49.000Z</time>
      </trkpt>
      <trkpt lat="43.59825" lon="0.99606">
        <ele>176.83117228539</ele>
        <time>2020-10-03T11:42:50.000Z</time>
      </trkpt>
      <trkpt lat="43.59824" lon="0.99603">
        <ele>176</ele>
        <time>2020-10-03T11:42:51.000Z</time>
      </trkpt>
      <trkpt lat="43.59823" lon="0.99599">
        <ele>176</ele>
        <time>2020-10-03T11:42:52.000Z</time>
      </trkpt>
      <trkpt lat="43.59823" lon="0.99595">
        <ele>176</ele>
        <time>2020-10-03T11:42:53.000Z</time>
      </trkpt>
      <trkpt lat="43.59822" lon="0.99592">
        <ele>176</ele>
        <time>2020-10-03T11:42:54.000Z</time>
      </trkpt>
      <trkpt lat="43.59821" lon="0.99587">
        <ele>176</ele>
        <time>2020-10-03T11:42:55.000Z</time>
      </trkpt>
      <trkpt lat="43.5982" lon="0.99583">
        <ele>176</ele>
        <time>2020-10-03T11:42:56.000Z</time>
      </trkpt>
      <trkpt lat="43.59819" lon="0.9958">
        <ele>176</ele>
        <time>2020-10-03T11:42:57.000Z</time>
      </trkpt>
      <trkpt lat="43.59819" lon="0.99576">
        <ele>176</ele>
        <time>2020-10-03T11:42:58.000Z</time>
      </trkpt>
      <trkpt lat="43.59818" lon="0.99572">
        <ele>176</ele>
        <time>2020-10-03T11:42:59.000Z</time>
      </trkpt>
      <trkpt lat="43.59817" lon="0.99568">
        <ele>176</ele>
        <time>2020-10-03T11:43:00.000Z</time>
      </trkpt>
      <trkpt lat="43.59816" lon="0.99564">
        <ele>176.37272653223</ele>
        <time>2020-10-03T11:43:01.000Z</time>
      </trkpt>
      <trkpt lat="43.59815" lon="0.9956">
        <ele>177</ele>
        <time>2020-10-03T11:43:02.000Z</time>
      </trkpt>
      <trkpt lat="43.59815" lon="0.99557">
        <ele>177</ele>
        <time>2020-10-03T11:43:03.000Z</time>
      </trkpt>
      <trkpt lat="43.59814" lon="0.99553">
        <ele>177</ele>
        <time>2020-10-03T11:43:04.000Z</time>
      </trkpt>
      <trkpt lat="43.59814" lon="0.99549">
        <ele>176.55046033163</ele>
        <time>2020-10-03T11:43:05.000Z</time>
      </trkpt>
      <trkpt lat="43.59813" lon="0.99545">
        <ele>176</ele>
        <time>2020-10-03T11:43:06.000Z</time>
      </trkpt>
      <trkpt lat="43.59813" lon="0.99541">
        <ele>176</ele>
        <time>2020-10-03T11:43:07.000Z</time>
      </trkpt>
      <trkpt lat="43.59812" lon="0.99537">
        <ele>176</ele>
        <time>2020-10-03T11:43:08.000Z</time>
      </trkpt>
      <trkpt lat="43.59812" lon="0.99534">
        <ele>176</ele>
        <time>2020-10-03T11:43:09.000Z</time>
      </trkpt>
      <trkpt lat="43.59811" lon="0.9953">
        <ele>176</ele>
        <time>2020-10-03T11:43:10.000Z</time>
      </trkpt>
      <trkpt lat="43.59811" lon="0.99527">
        <ele>176</ele>
        <time>2020-10-03T11:43:11.000Z</time>
      </trkpt>
      <trkpt lat="43.5981" lon="0.99523">
        <ele>176.42592680383</ele>
        <time>2020-10-03T11:43:12.000Z</time>
      </trkpt>
      <trkpt lat="43.5981" lon="0.99519">
        <ele>177</ele>
        <time>2020-10-03T11:43:13.000Z</time>
      </trkpt>
      <trkpt lat="43.59809" lon="0.99516">
        <ele>177</ele>
        <time>2020-10-03T11:43:14.000Z</time>
      </trkpt>
      <trkpt lat="43.59808" lon="0.99512">
        <ele>177</ele>
        <time>2020-10-03T11:43:15.000Z</time>
      </trkpt>
      <trkpt lat="43.59808" lon="0.99508">
        <ele>177</ele>
        <time>2020-10-03T11:43:16.000Z</time>
      </trkpt>
      <trkpt lat="43.59807" lon="0.99505">
        <ele>176.61176700901</ele>
        <time>2020-10-03T11:43:17.000Z</time>
      </trkpt>
      <trkpt lat="43.59807" lon="0.99501">
        <ele>176</ele>
        <time>2020-10-03T11:43:18.000Z</time>
      </trkpt>
      <trkpt lat="43.59806" lon="0.99498">
        <ele>176</ele>
        <time>2020-10-03T11:43:19.000Z</time>
      </trkpt>
      <trkpt lat="43.59806" lon="0.99495">
        <ele>175.58260985709</ele>
        <time>2020-10-03T11:43:20.000Z</time>
      </trkpt>
      <trkpt lat="43.59806" lon="0.99491">
        <ele>175</ele>
        <time>2020-10-03T11:43:21.000Z</time>
      </trkpt>
      <trkpt lat="43.59805" lon="0.99488">
        <ele>175</ele>
        <time>2020-10-03T11:43:22.000Z</time>
      </trkpt>
      <trkpt lat="43.59804" lon="0.99484">
        <ele>175.77108136451</ele>
        <time>2020-10-03T11:43:23.000Z</time>
      </trkpt>
      <trkpt lat="43.59803" lon="0.99481">
        <ele>177</ele>
        <time>2020-10-03T11:43:24.000Z</time>
      </trkpt>
      <trkpt lat="43.59803" lon="0.99477">
        <ele>177</ele>
        <time>2020-10-03T11:43:25.000Z</time>
      </trkpt>
      <trkpt lat="43.59802" lon="0.99474">
        <ele>177</ele>
        <time>2020-10-03T11:43:26.000Z</time>
      </trkpt>
      <trkpt lat="43.59801" lon="0.9947">
        <ele>177</ele>
        <time>2020-10-03T11:43:27.000Z</time>
      </trkpt>
      <trkpt lat="43.598" lon="0.99467">
        <ele>177</ele>
        <time>2020-10-03T11:43:28.000Z</time>
      </trkpt>
      <trkpt lat="43.59799" lon="0.99463">
        <ele>177</ele>
        <time>2020-10-03T11:43:29.000Z</time>
      </trkpt>
      <trkpt lat="43.59798" lon="0.99459">
        <ele>177.45454228097</ele>
        <time>2020-10-03T11:43:30.000Z</time>
      </trkpt>
      <trkpt lat="43.59797" lon="0.99456">
        <ele>178</ele>
        <time>2020-10-03T11:43:31.000Z</time>
      </trkpt>
      <trkpt lat="43.59796" lon="0.99452">
        <ele>178</ele>
        <time>2020-10-03T11:43:32.000Z</time>
      </trkpt>
      <trkpt lat="43.59795" lon="0.99449">
        <ele>178</ele>
        <time>2020-10-03T11:43:33.000Z</time>
      </trkpt>
      <trkpt lat="43.59794" lon="0.99445">
        <ele>178</ele>
        <time>2020-10-03T11:43:34.000Z</time>
      </trkpt>
      <trkpt lat="43.59793" lon="0.99442">
        <ele>178</ele>
        <time>2020-10-03T11:43:35.000Z</time>
      </trkpt>
      <trkpt lat="43.59792" lon="0.99439">
        <ele>178</ele>
        <time>2020-10-03T11:43:36.000Z</time>
      </trkpt>
      <trkpt lat="43.59791" lon="0.99435">
        <ele>178</ele>
        <time>2020-10-03T11:43:37.000Z</time>
      </trkpt>
      <trkpt lat="43.59791" lon="0.99432">
        <ele>178</ele>
        <time>2020-10-03T11:43:38.000Z</time>
      </trkpt>
      <trkpt lat="43.59791" lon="0.99428">
        <ele>178</ele>
        <time>2020-10-03T11:43:39.000Z</time>
      </trkpt>
      <trkpt lat="43.59791" lon="0.99424">
        <ele>178</ele>
        <time>2020-10-03T11:43:40.000Z</time>
      </trkpt>
      <trkpt lat="43.59791" lon="0.9942">
        <ele>178</ele>
        <time>2020-10-03T11:43:41.000Z</time>
      </trkpt>
      <trkpt lat="43.59791" lon="0.99416">
        <ele>178</ele>
        <time>2020-10-03T11:43:42.000Z</time>
      </trkpt>
      <trkpt lat="43.59792" lon="0.99413">
        <ele>178</ele>
        <time>2020-10-03T11:43:43.000Z</time>
      </trkpt>
      <trkpt lat="43.59792" lon="0.9941">
        <ele>178</ele>
        <time>2020-10-03T11:43:44.000Z</time>
      </trkpt>
      <trkpt lat="43.59793" lon="0.99407">
        <ele>178</ele>
        <time>2020-10-03T11:43:45.000Z</time>
      </trkpt>
      <trkpt lat="43.59793" lon="0.99404">
        <ele>178</ele>
        <time>2020-10-03T11:43:46.000Z</time>
      </trkpt>
      <trkpt lat="43.59793" lon="0.99401">
        <ele>178</ele>
        <time>2020-10-03T11:43:47.000Z</time>
      </trkpt>
      <trkpt lat="43.59794" lon="0.99398">
        <ele>178</ele>
        <time>2020-10-03T11:43:48.000Z</time>
      </trkpt>
      <trkpt lat="43.59793" lon="0.99394">
        <ele>178</ele>
        <time>2020-10-03T11:43:49.000Z</time>
      </trkpt>
      <trkpt lat="43.59793" lon="0.99391">
        <ele>177.65094430759</ele>
        <time>2020-10-03T11:43:50.000Z</time>
      </trkpt>
      <trkpt lat="43.59793" lon="0.99388">
        <ele>177</ele>
        <time>2020-10-03T11:43:51.000Z</time>
      </trkpt>
      <trkpt lat="43.59793" lon="0.99384">
        <ele>177</ele>
        <time>2020-10-03T11:43:52.000Z</time>
      </trkpt>
      <trkpt lat="43.59793" lon="0.99381">
        <ele>177</ele>
        <time>2020-10-03T11:43:53.000Z</time>
      </trkpt>
      <trkpt lat="43.59793" lon="0.99377">
        <ele>177.4210512133</ele>
        <time>2020-10-03T11:43:54.000Z</time>
      </trkpt>
      <trkpt lat="43.59792" lon="0.99374">
        <ele>178</ele>
        <time>2020-10-03T11:43:55.000Z</time>
      </trkpt>
      <trkpt lat="43.59792" lon="0.9937">
        <ele>178</ele>
        <time>2020-10-03T11:43:56.000Z</time>
      </trkpt>
      <trkpt lat="43.59792" lon="0.99367">
        <ele>178</ele>
        <time>2020-10-03T11:43:57.000Z</time>
      </trkpt>
      <trkpt lat="43.59792" lon="0.99364">
        <ele>178</ele>
        <time>2020-10-03T11:43:58.000Z</time>
      </trkpt>
      <trkpt lat="43.59792" lon="0.9936">
        <ele>178</ele>
        <time>2020-10-03T11:43:59.000Z</time>
      </trkpt>
      <trkpt lat="43.59792" lon="0.99357">
        <ele>178</ele>
        <time>2020-10-03T11:44:00.000Z</time>
      </trkpt>
      <trkpt lat="43.59792" lon="0.99354">
        <ele>178.35714285714</ele>
        <time>2020-10-03T11:44:01.000Z</time>
      </trkpt>
      <trkpt lat="43.59791" lon="0.9935">
        <ele>179</ele>
        <time>2020-10-03T11:44:02.000Z</time>
      </trkpt>
      <trkpt lat="43.59791" lon="0.99347">
        <ele>179</ele>
        <time>2020-10-03T11:44:03.000Z</time>
      </trkpt>
      <trkpt lat="43.59791" lon="0.99344">
        <ele>179.41860776638</ele>
        <time>2020-10-03T11:44:04.000Z</time>
      </trkpt>
      <trkpt lat="43.59791" lon="0.99341">
        <ele>180</ele>
        <time>2020-10-03T11:44:05.000Z</time>
      </trkpt>
      <trkpt lat="43.59791" lon="0.99338">
        <ele>180</ele>
        <time>2020-10-03T11:44:06.000Z</time>
      </trkpt>
      <trkpt lat="43.59791" lon="0.99334">
        <ele>180</ele>
        <time>2020-10-03T11:44:07.000Z</time>
      </trkpt>
      <trkpt lat="43.5979" lon="0.99331">
        <ele>180</ele>
        <time>2020-10-03T11:44:08.000Z</time>
      </trkpt>
      <trkpt lat="43.5979" lon="0.99327">
        <ele>180</ele>
        <time>2020-10-03T11:44:09.000Z</time>
      </trkpt>
      <trkpt lat="43.5979" lon="0.99324">
        <ele>180</ele>
        <time>2020-10-03T11:44:10.000Z</time>
      </trkpt>
      <trkpt lat="43.5979" lon="0.9932">
        <ele>180</ele>
        <time>2020-10-03T11:44:11.000Z</time>
      </trkpt>
      <trkpt lat="43.5979" lon="0.99317">
        <ele>180</ele>
        <time>2020-10-03T11:44:12.000Z</time>
      </trkpt>
      <trkpt lat="43.59789" lon="0.99313">
        <ele>180</ele>
        <time>2020-10-03T11:44:13.000Z</time>
      </trkpt>
      <trkpt lat="43.59789" lon="0.9931">
        <ele>180</ele>
        <time>2020-10-03T11:44:14.000Z</time>
      </trkpt>
      <trkpt lat="43.59789" lon="0.99306">
        <ele>180</ele>
        <time>2020-10-03T11:44:15.000Z</time>
      </trkpt>
      <trkpt lat="43.59789" lon="0.99303">
        <ele>180</ele>
        <time>2020-10-03T11:44:16.000Z</time>
      </trkpt>
      <trkpt lat="43.59789" lon="0.993">
        <ele>180</ele>
        <time>2020-10-03T11:44:17.000Z</time>
      </trkpt>
      <trkpt lat="43.59789" lon="0.99297">
        <ele>180</ele>
        <time>2020-10-03T11:44:18.000Z</time>
      </trkpt>
      <trkpt lat="43.59789" lon="0.99293">
        <ele>180.29348173913</ele>
        <time>2020-10-03T11:44:19.000Z</time>
      </trkpt>
      <trkpt lat="43.5979" lon="0.99289">
        <ele>181</ele>
        <time>2020-10-03T11:44:20.000Z</time>
      </trkpt>
      <trkpt lat="43.5979" lon="0.99286">
        <ele>181</ele>
        <time>2020-10-03T11:44:21.000Z</time>
      </trkpt>
      <trkpt lat="43.5979" lon="0.99282">
        <ele>181.33027619898</ele>
        <time>2020-10-03T11:44:22.000Z</time>
      </trkpt>
      <trkpt lat="43.59789" lon="0.99279">
        <ele>182</ele>
        <time>2020-10-03T11:44:23.000Z</time>
      </trkpt>
      <trkpt lat="43.59789" lon="0.99276">
        <ele>182</ele>
        <time>2020-10-03T11:44:24.000Z</time>
      </trkpt>
      <trkpt lat="43.59789" lon="0.99273">
        <ele>182</ele>
        <time>2020-10-03T11:44:25.000Z</time>
      </trkpt>
      <trkpt lat="43.59789" lon="0.9927">
        <ele>182</ele>
        <time>2020-10-03T11:44:26.000Z</time>
      </trkpt>
      <trkpt lat="43.59789" lon="0.99266">
        <ele>182</ele>
        <time>2020-10-03T11:44:27.000Z</time>
      </trkpt>
      <trkpt lat="43.59788" lon="0.99264">
        <ele>182</ele>
        <time>2020-10-03T11:44:28.000Z</time>
      </trkpt>
      <trkpt lat="43.59788" lon="0.99261">
        <ele>182</ele>
        <time>2020-10-03T11:44:29.000Z</time>
      </trkpt>
      <trkpt lat="43.59788" lon="0.99257">
        <ele>182</ele>
        <time>2020-10-03T11:44:30.000Z</time>
      </trkpt>
      <trkpt lat="43.59788" lon="0.99254">
        <ele>182</ele>
        <time>2020-10-03T11:44:31.000Z</time>
      </trkpt>
      <trkpt lat="43.59788" lon="0.99251">
        <ele>182.57778114896</ele>
        <time>2020-10-03T11:44:32.000Z</time>
      </trkpt>
      <trkpt lat="43.59788" lon="0.99248">
        <ele>184</ele>
        <time>2020-10-03T11:44:33.000Z</time>
      </trkpt>
      <trkpt lat="43.59787" lon="0.99243">
        <ele>184</ele>
        <time>2020-10-03T11:44:35.000Z</time>
      </trkpt>
      <trkpt lat="43.59787" lon="0.9924">
        <ele>184</ele>
        <time>2020-10-03T11:44:36.000Z</time>
      </trkpt>
      <trkpt lat="43.59787" lon="0.99237">
        <ele>184</ele>
        <time>2020-10-03T11:44:37.000Z</time>
      </trkpt>
      <trkpt lat="43.59787" lon="0.99234">
        <ele>184</ele>
        <time>2020-10-03T11:44:38.000Z</time>
      </trkpt>
      <trkpt lat="43.59787" lon="0.99231">
        <ele>184</ele>
        <time>2020-10-03T11:44:39.000Z</time>
      </trkpt>
      <trkpt lat="43.59787" lon="0.99228">
        <ele>184</ele>
        <time>2020-10-03T11:44:40.000Z</time>
      </trkpt>
      <trkpt lat="43.59788" lon="0.99225">
        <ele>184</ele>
        <time>2020-10-03T11:44:41.000Z</time>
      </trkpt>
      <trkpt lat="43.59788" lon="0.99222">
        <ele>184.33644759193</ele>
        <time>2020-10-03T11:44:42.000Z</time>
      </trkpt>
      <trkpt lat="43.59788" lon="0.99219">
        <ele>185</ele>
        <time>2020-10-03T11:44:43.000Z</time>
      </trkpt>
      <trkpt lat="43.59788" lon="0.99216">
        <ele>185</ele>
        <time>2020-10-03T11:44:44.000Z</time>
      </trkpt>
      <trkpt lat="43.59788" lon="0.99213">
        <ele>185</ele>
        <time>2020-10-03T11:44:45.000Z</time>
      </trkpt>
      <trkpt lat="43.59788" lon="0.9921">
        <ele>185</ele>
        <time>2020-10-03T11:44:46.000Z</time>
      </trkpt>
      <trkpt lat="43.59787" lon="0.99207">
        <ele>185</ele>
        <time>2020-10-03T11:44:47.000Z</time>
      </trkpt>
      <trkpt lat="43.59787" lon="0.99204">
        <ele>185</ele>
        <time>2020-10-03T11:44:48.000Z</time>
      </trkpt>
      <trkpt lat="43.59787" lon="0.99201">
        <ele>185</ele>
        <time>2020-10-03T11:44:49.000Z</time>
      </trkpt>
      <trkpt lat="43.59786" lon="0.99198">
        <ele>185</ele>
        <time>2020-10-03T11:44:50.000Z</time>
      </trkpt>
      <trkpt lat="43.59786" lon="0.99194">
        <ele>185</ele>
        <time>2020-10-03T11:44:51.000Z</time>
      </trkpt>
      <trkpt lat="43.59786" lon="0.99191">
        <ele>185</ele>
        <time>2020-10-03T11:44:52.000Z</time>
      </trkpt>
      <trkpt lat="43.59786" lon="0.99187">
        <ele>185</ele>
        <time>2020-10-03T11:44:53.000Z</time>
      </trkpt>
      <trkpt lat="43.59786" lon="0.99184">
        <ele>185</ele>
        <time>2020-10-03T11:44:54.000Z</time>
      </trkpt>
      <trkpt lat="43.59786" lon="0.9918">
        <ele>185.27026684195</ele>
        <time>2020-10-03T11:44:55.000Z</time>
      </trkpt>
      <trkpt lat="43.59785" lon="0.99176">
        <ele>186</ele>
        <time>2020-10-03T11:44:56.000Z</time>
      </trkpt>
      <trkpt lat="43.59784" lon="0.99173">
        <ele>186</ele>
        <time>2020-10-03T11:44:57.000Z</time>
      </trkpt>
      <trkpt lat="43.59784" lon="0.9917">
        <ele>186.42391652174</ele>
        <time>2020-10-03T11:44:58.000Z</time>
      </trkpt>
      <trkpt lat="43.59784" lon="0.99166">
        <ele>187</ele>
        <time>2020-10-03T11:44:59.000Z</time>
      </trkpt>
      <trkpt lat="43.59783" lon="0.99163">
        <ele>187</ele>
        <time>2020-10-03T11:45:00.000Z</time>
      </trkpt>
      <trkpt lat="43.59784" lon="0.9916">
        <ele>187</ele>
        <time>2020-10-03T11:45:01.000Z</time>
      </trkpt>
      <trkpt lat="43.59784" lon="0.99157">
        <ele>187</ele>
        <time>2020-10-03T11:45:02.000Z</time>
      </trkpt>
      <trkpt lat="43.59784" lon="0.99155">
        <ele>187</ele>
        <time>2020-10-03T11:45:03.000Z</time>
      </trkpt>
      <trkpt lat="43.59784" lon="0.99152">
        <ele>187</ele>
        <time>2020-10-03T11:45:04.000Z</time>
      </trkpt>
      <trkpt lat="43.59784" lon="0.99148">
        <ele>187</ele>
        <time>2020-10-03T11:45:05.000Z</time>
      </trkpt>
      <trkpt lat="43.59784" lon="0.99145">
        <ele>186.52830507656</ele>
        <time>2020-10-03T11:45:06.000Z</time>
      </trkpt>
      <trkpt lat="43.59783" lon="0.99142">
        <ele>186</ele>
        <time>2020-10-03T11:45:07.000Z</time>
      </trkpt>
      <trkpt lat="43.59783" lon="0.99138">
        <ele>186</ele>
        <time>2020-10-03T11:45:08.000Z</time>
      </trkpt>
      <trkpt lat="43.59783" lon="0.99135">
        <ele>186</ele>
        <time>2020-10-03T11:45:09.000Z</time>
      </trkpt>
      <trkpt lat="43.59783" lon="0.99132">
        <ele>186</ele>
        <time>2020-10-03T11:45:10.000Z</time>
      </trkpt>
      <trkpt lat="43.59783" lon="0.99129">
        <ele>186</ele>
        <time>2020-10-03T11:45:11.000Z</time>
      </trkpt>
      <trkpt lat="43.59783" lon="0.99126">
        <ele>186</ele>
        <time>2020-10-03T11:45:12.000Z</time>
      </trkpt>
      <trkpt lat="43.59783" lon="0.99123">
        <ele>186</ele>
        <time>2020-10-03T11:45:13.000Z</time>
      </trkpt>
      <trkpt lat="43.59782" lon="0.9912">
        <ele>186</ele>
        <time>2020-10-03T11:45:14.000Z</time>
      </trkpt>
      <trkpt lat="43.59782" lon="0.99116">
        <ele>186</ele>
        <time>2020-10-03T11:45:15.000Z</time>
      </trkpt>
      <trkpt lat="43.59782" lon="0.99112">
        <ele>188</ele>
        <time>2020-10-03T11:45:17.000Z</time>
      </trkpt>
      <trkpt lat="43.59782" lon="0.99108">
        <ele>188.43119686223</ele>
        <time>2020-10-03T11:45:19.000Z</time>
      </trkpt>
      <trkpt lat="43.59782" lon="0.99106">
        <ele>189</ele>
        <time>2020-10-03T11:45:20.000Z</time>
      </trkpt>
      <trkpt lat="43.59782" lon="0.99103">
        <ele>188.67407484664</ele>
        <time>2020-10-03T11:45:21.000Z</time>
      </trkpt>
      <trkpt lat="43.59782" lon="0.991">
        <ele>188</ele>
        <time>2020-10-03T11:45:22.000Z</time>
      </trkpt>
      <trkpt lat="43.59782" lon="0.99097">
        <ele>188</ele>
        <time>2020-10-03T11:45:23.000Z</time>
      </trkpt>
      <trkpt lat="43.59782" lon="0.99093">
        <ele>188</ele>
        <time>2020-10-03T11:45:24.000Z</time>
      </trkpt>
      <trkpt lat="43.59782" lon="0.9909">
        <ele>188.35442894408</ele>
        <time>2020-10-03T11:45:25.000Z</time>
      </trkpt>
      <trkpt lat="43.59782" lon="0.99087">
        <ele>189</ele>
        <time>2020-10-03T11:45:26.000Z</time>
      </trkpt>
      <trkpt lat="43.59782" lon="0.99084">
        <ele>189</ele>
        <time>2020-10-03T11:45:27.000Z</time>
      </trkpt>
      <trkpt lat="43.59782" lon="0.99081">
        <ele>189.8909084562</ele>
        <time>2020-10-03T11:45:28.000Z</time>
      </trkpt>
      <trkpt lat="43.59781" lon="0.99077">
        <ele>191</ele>
        <time>2020-10-03T11:45:29.000Z</time>
      </trkpt>
      <trkpt lat="43.59781" lon="0.99074">
        <ele>191</ele>
        <time>2020-10-03T11:45:30.000Z</time>
      </trkpt>
      <trkpt lat="43.59781" lon="0.99071">
        <ele>191</ele>
        <time>2020-10-03T11:45:31.000Z</time>
      </trkpt>
      <trkpt lat="43.59781" lon="0.99068">
        <ele>191</ele>
        <time>2020-10-03T11:45:32.000Z</time>
      </trkpt>
      <trkpt lat="43.59781" lon="0.99065">
        <ele>191</ele>
        <time>2020-10-03T11:45:33.000Z</time>
      </trkpt>
      <trkpt lat="43.5978" lon="0.99062">
        <ele>191</ele>
        <time>2020-10-03T11:45:34.000Z</time>
      </trkpt>
      <trkpt lat="43.5978" lon="0.99058">
        <ele>191</ele>
        <time>2020-10-03T11:45:35.000Z</time>
      </trkpt>
      <trkpt lat="43.59779" lon="0.99055">
        <ele>191</ele>
        <time>2020-10-03T11:45:36.000Z</time>
      </trkpt>
      <trkpt lat="43.59779" lon="0.99052">
        <ele>191</ele>
        <time>2020-10-03T11:45:37.000Z</time>
      </trkpt>
      <trkpt lat="43.59779" lon="0.99049">
        <ele>191</ele>
        <time>2020-10-03T11:45:38.000Z</time>
      </trkpt>
      <trkpt lat="43.59778" lon="0.99045">
        <ele>191</ele>
        <time>2020-10-03T11:45:39.000Z</time>
      </trkpt>
      <trkpt lat="43.59778" lon="0.99042">
        <ele>191</ele>
        <time>2020-10-03T11:45:40.000Z</time>
      </trkpt>
      <trkpt lat="43.59778" lon="0.99039">
        <ele>191</ele>
        <time>2020-10-03T11:45:41.000Z</time>
      </trkpt>
      <trkpt lat="43.59778" lon="0.99035">
        <ele>191</ele>
        <time>2020-10-03T11:45:42.000Z</time>
      </trkpt>
      <trkpt lat="43.59777" lon="0.99032">
        <ele>191.38372006489</ele>
        <time>2020-10-03T11:45:43.000Z</time>
      </trkpt>
      <trkpt lat="43.59777" lon="0.99028">
        <ele>192</ele>
        <time>2020-10-03T11:45:44.000Z</time>
      </trkpt>
      <trkpt lat="43.59777" lon="0.99025">
        <ele>192</ele>
        <time>2020-10-03T11:45:45.000Z</time>
      </trkpt>
      <trkpt lat="43.59777" lon="0.99022">
        <ele>192</ele>
        <time>2020-10-03T11:45:46.000Z</time>
      </trkpt>
      <trkpt lat="43.59777" lon="0.99018">
        <ele>192</ele>
        <time>2020-10-03T11:45:47.000Z</time>
      </trkpt>
      <trkpt lat="43.59776" lon="0.99015">
        <ele>192</ele>
        <time>2020-10-03T11:45:48.000Z</time>
      </trkpt>
      <trkpt lat="43.59776" lon="0.99011">
        <ele>192</ele>
        <time>2020-10-03T11:45:49.000Z</time>
      </trkpt>
      <trkpt lat="43.59776" lon="0.99008">
        <ele>192</ele>
        <time>2020-10-03T11:45:50.000Z</time>
      </trkpt>
      <trkpt lat="43.59776" lon="0.99005">
        <ele>192</ele>
        <time>2020-10-03T11:45:51.000Z</time>
      </trkpt>
      <trkpt lat="43.59776" lon="0.99001">
        <ele>192</ele>
        <time>2020-10-03T11:45:52.000Z</time>
      </trkpt>
      <trkpt lat="43.59775" lon="0.98998">
        <ele>192.44339656817</ele>
        <time>2020-10-03T11:45:53.000Z</time>
      </trkpt>
      <trkpt lat="43.59775" lon="0.98995">
        <ele>193</ele>
        <time>2020-10-03T11:45:54.000Z</time>
      </trkpt>
      <trkpt lat="43.59775" lon="0.98991">
        <ele>193</ele>
        <time>2020-10-03T11:45:55.000Z</time>
      </trkpt>
      <trkpt lat="43.59775" lon="0.98988">
        <ele>193.7894725023</ele>
        <time>2020-10-03T11:45:56.000Z</time>
      </trkpt>
      <trkpt lat="43.59775" lon="0.98985">
        <ele>195</ele>
        <time>2020-10-03T11:45:57.000Z</time>
      </trkpt>
      <trkpt lat="43.59774" lon="0.98982">
        <ele>195</ele>
        <time>2020-10-03T11:45:58.000Z</time>
      </trkpt>
      <trkpt lat="43.59774" lon="0.98979">
        <ele>195</ele>
        <time>2020-10-03T11:45:59.000Z</time>
      </trkpt>
      <trkpt lat="43.59774" lon="0.98976">
        <ele>195</ele>
        <time>2020-10-03T11:46:00.000Z</time>
      </trkpt>
      <trkpt lat="43.59774" lon="0.98973">
        <ele>195</ele>
        <time>2020-10-03T11:46:01.000Z</time>
      </trkpt>
      <trkpt lat="43.59774" lon="0.9897">
        <ele>195</ele>
        <time>2020-10-03T11:46:02.000Z</time>
      </trkpt>
      <trkpt lat="43.59774" lon="0.98967">
        <ele>195</ele>
        <time>2020-10-03T11:46:03.000Z</time>
      </trkpt>
      <trkpt lat="43.59774" lon="0.98964">
        <ele>195</ele>
        <time>2020-10-03T11:46:04.000Z</time>
      </trkpt>
      <trkpt lat="43.59774" lon="0.98961">
        <ele>195</ele>
        <time>2020-10-03T11:46:05.000Z</time>
      </trkpt>
      <trkpt lat="43.59774" lon="0.98958">
        <ele>195.44247346541</ele>
        <time>2020-10-03T11:46:06.000Z</time>
      </trkpt>
      <trkpt lat="43.59773" lon="0.98955">
        <ele>196</ele>
        <time>2020-10-03T11:46:07.000Z</time>
      </trkpt>
      <trkpt lat="43.59773" lon="0.98952">
        <ele>196</ele>
        <time>2020-10-03T11:46:08.000Z</time>
      </trkpt>
      <trkpt lat="43.59772" lon="0.98948">
        <ele>196</ele>
        <time>2020-10-03T11:46:09.000Z</time>
      </trkpt>
      <trkpt lat="43.59772" lon="0.98946">
        <ele>196</ele>
        <time>2020-10-03T11:46:10.000Z</time>
      </trkpt>
      <trkpt lat="43.59772" lon="0.98943">
        <ele>196</ele>
        <time>2020-10-03T11:46:11.000Z</time>
      </trkpt>
      <trkpt lat="43.59771" lon="0.9894">
        <ele>196</ele>
        <time>2020-10-03T11:46:12.000Z</time>
      </trkpt>
      <trkpt lat="43.59771" lon="0.98937">
        <ele>196</ele>
        <time>2020-10-03T11:46:13.000Z</time>
      </trkpt>
      <trkpt lat="43.59771" lon="0.98934">
        <ele>196</ele>
        <time>2020-10-03T11:46:14.000Z</time>
      </trkpt>
      <trkpt lat="43.59771" lon="0.98931">
        <ele>196</ele>
        <time>2020-10-03T11:46:15.000Z</time>
      </trkpt>
      <trkpt lat="43.59771" lon="0.98928">
        <ele>196</ele>
        <time>2020-10-03T11:46:16.000Z</time>
      </trkpt>
      <trkpt lat="43.59771" lon="0.98924">
        <ele>196</ele>
        <time>2020-10-03T11:46:17.000Z</time>
      </trkpt>
      <trkpt lat="43.5977" lon="0.98921">
        <ele>196</ele>
        <time>2020-10-03T11:46:18.000Z</time>
      </trkpt>
      <trkpt lat="43.5977" lon="0.98917">
        <ele>196</ele>
        <time>2020-10-03T11:46:19.000Z</time>
      </trkpt>
      <trkpt lat="43.59769" lon="0.98914">
        <ele>196</ele>
        <time>2020-10-03T11:46:20.000Z</time>
      </trkpt>
      <trkpt lat="43.59769" lon="0.9891">
        <ele>196</ele>
        <time>2020-10-03T11:46:21.000Z</time>
      </trkpt>
      <trkpt lat="43.59768" lon="0.98907">
        <ele>196</ele>
        <time>2020-10-03T11:46:22.000Z</time>
      </trkpt>
      <trkpt lat="43.59768" lon="0.98903">
        <ele>196</ele>
        <time>2020-10-03T11:46:23.000Z</time>
      </trkpt>
      <trkpt lat="43.59768" lon="0.989">
        <ele>196</ele>
        <time>2020-10-03T11:46:24.000Z</time>
      </trkpt>
      <trkpt lat="43.59768" lon="0.98896">
        <ele>196</ele>
        <time>2020-10-03T11:46:25.000Z</time>
      </trkpt>
      <trkpt lat="43.59768" lon="0.98893">
        <ele>196</ele>
        <time>2020-10-03T11:46:26.000Z</time>
      </trkpt>
      <trkpt lat="43.59767" lon="0.98889">
        <ele>196</ele>
        <time>2020-10-03T11:46:27.000Z</time>
      </trkpt>
      <trkpt lat="43.59767" lon="0.98886">
        <ele>196</ele>
        <time>2020-10-03T11:46:28.000Z</time>
      </trkpt>
      <trkpt lat="43.59767" lon="0.98883">
        <ele>196</ele>
        <time>2020-10-03T11:46:29.000Z</time>
      </trkpt>
      <trkpt lat="43.59766" lon="0.9888">
        <ele>196</ele>
        <time>2020-10-03T11:46:30.000Z</time>
      </trkpt>
      <trkpt lat="43.59765" lon="0.98876">
        <ele>196</ele>
        <time>2020-10-03T11:46:31.000Z</time>
      </trkpt>
      <trkpt lat="43.59765" lon="0.98873">
        <ele>196</ele>
        <time>2020-10-03T11:46:32.000Z</time>
      </trkpt>
      <trkpt lat="43.59764" lon="0.9887">
        <ele>196.41817843304</ele>
        <time>2020-10-03T11:46:33.000Z</time>
      </trkpt>
      <trkpt lat="43.59763" lon="0.98867">
        <ele>197</ele>
        <time>2020-10-03T11:46:34.000Z</time>
      </trkpt>
      <trkpt lat="43.59762" lon="0.98864">
        <ele>197</ele>
        <time>2020-10-03T11:46:35.000Z</time>
      </trkpt>
      <trkpt lat="43.59761" lon="0.98861">
        <ele>197</ele>
        <time>2020-10-03T11:46:36.000Z</time>
      </trkpt>
      <trkpt lat="43.59761" lon="0.98858">
        <ele>197.33823058824</ele>
        <time>2020-10-03T11:46:37.000Z</time>
      </trkpt>
      <trkpt lat="43.5976" lon="0.98854">
        <ele>198</ele>
        <time>2020-10-03T11:46:38.000Z</time>
      </trkpt>
      <trkpt lat="43.59759" lon="0.98851">
        <ele>198</ele>
        <time>2020-10-03T11:46:39.000Z</time>
      </trkpt>
      <trkpt lat="43.59759" lon="0.98848">
        <ele>198</ele>
        <time>2020-10-03T11:46:40.000Z</time>
      </trkpt>
      <trkpt lat="43.59758" lon="0.98845">
        <ele>198</ele>
        <time>2020-10-03T11:46:41.000Z</time>
      </trkpt>
      <trkpt lat="43.59757" lon="0.98842">
        <ele>198</ele>
        <time>2020-10-03T11:46:42.000Z</time>
      </trkpt>
      <trkpt lat="43.59756" lon="0.98839">
        <ele>198</ele>
        <time>2020-10-03T11:46:43.000Z</time>
      </trkpt>
      <trkpt lat="43.59756" lon="0.98836">
        <ele>198</ele>
        <time>2020-10-03T11:46:44.000Z</time>
      </trkpt>
      <trkpt lat="43.59755" lon="0.98833">
        <ele>198.85392127253</ele>
        <time>2020-10-03T11:46:45.000Z</time>
      </trkpt>
      <trkpt lat="43.59755" lon="0.9883">
        <ele>200</ele>
        <time>2020-10-03T11:46:46.000Z</time>
      </trkpt>
      <trkpt lat="43.59754" lon="0.98827">
        <ele>200</ele>
        <time>2020-10-03T11:46:47.000Z</time>
      </trkpt>
      <trkpt lat="43.59754" lon="0.98824">
        <ele>200</ele>
        <time>2020-10-03T11:46:48.000Z</time>
      </trkpt>
      <trkpt lat="43.59753" lon="0.98821">
        <ele>200</ele>
        <time>2020-10-03T11:46:49.000Z</time>
      </trkpt>
      <trkpt lat="43.59753" lon="0.98817">
        <ele>200</ele>
        <time>2020-10-03T11:46:50.000Z</time>
      </trkpt>
      <trkpt lat="43.59752" lon="0.98814">
        <ele>200</ele>
        <time>2020-10-03T11:46:51.000Z</time>
      </trkpt>
      <trkpt lat="43.59752" lon="0.98811">
        <ele>200.31034736424</ele>
        <time>2020-10-03T11:46:52.000Z</time>
      </trkpt>
      <trkpt lat="43.59751" lon="0.98808">
        <ele>201</ele>
        <time>2020-10-03T11:46:53.000Z</time>
      </trkpt>
      <trkpt lat="43.59751" lon="0.98805">
        <ele>201</ele>
        <time>2020-10-03T11:46:54.000Z</time>
      </trkpt>
      <trkpt lat="43.5975" lon="0.98802">
        <ele>201</ele>
        <time>2020-10-03T11:46:55.000Z</time>
      </trkpt>
      <trkpt lat="43.5975" lon="0.98799">
        <ele>201</ele>
        <time>2020-10-03T11:46:56.000Z</time>
      </trkpt>
      <trkpt lat="43.59749" lon="0.98796">
        <ele>201</ele>
        <time>2020-10-03T11:46:57.000Z</time>
      </trkpt>
      <trkpt lat="43.59749" lon="0.98793">
        <ele>201</ele>
        <time>2020-10-03T11:46:58.000Z</time>
      </trkpt>
      <trkpt lat="43.59748" lon="0.9879">
        <ele>201</ele>
        <time>2020-10-03T11:46:59.000Z</time>
      </trkpt>
      <trkpt lat="43.59747" lon="0.98787">
        <ele>201.45055068713</ele>
        <time>2020-10-03T11:47:00.000Z</time>
      </trkpt>
      <trkpt lat="43.59746" lon="0.98784">
        <ele>202</ele>
        <time>2020-10-03T11:47:01.000Z</time>
      </trkpt>
      <trkpt lat="43.59746" lon="0.9878">
        <ele>202</ele>
        <time>2020-10-03T11:47:02.000Z</time>
      </trkpt>
      <trkpt lat="43.59745" lon="0.98777">
        <ele>202</ele>
        <time>2020-10-03T11:47:03.000Z</time>
      </trkpt>
      <trkpt lat="43.59744" lon="0.98774">
        <ele>202</ele>
        <time>2020-10-03T11:47:04.000Z</time>
      </trkpt>
      <trkpt lat="43.59743" lon="0.98771">
        <ele>202</ele>
        <time>2020-10-03T11:47:05.000Z</time>
      </trkpt>
      <trkpt lat="43.59743" lon="0.98768">
        <ele>202</ele>
        <time>2020-10-03T11:47:06.000Z</time>
      </trkpt>
      <trkpt lat="43.59742" lon="0.98765">
        <ele>202.34444555061</ele>
        <time>2020-10-03T11:47:07.000Z</time>
      </trkpt>
      <trkpt lat="43.59742" lon="0.98762">
        <ele>203</ele>
        <time>2020-10-03T11:47:08.000Z</time>
      </trkpt>
      <trkpt lat="43.59741" lon="0.98759">
        <ele>203</ele>
        <time>2020-10-03T11:47:09.000Z</time>
      </trkpt>
      <trkpt lat="43.5974" lon="0.98757">
        <ele>203</ele>
        <time>2020-10-03T11:47:10.000Z</time>
      </trkpt>
      <trkpt lat="43.5974" lon="0.98754">
        <ele>203</ele>
        <time>2020-10-03T11:47:11.000Z</time>
      </trkpt>
      <trkpt lat="43.59739" lon="0.98751">
        <ele>203</ele>
        <time>2020-10-03T11:47:12.000Z</time>
      </trkpt>
      <trkpt lat="43.59737" lon="0.98749">
        <ele>203</ele>
        <time>2020-10-03T11:47:13.000Z</time>
      </trkpt>
      <trkpt lat="43.59736" lon="0.98746">
        <ele>203</ele>
        <time>2020-10-03T11:47:14.000Z</time>
      </trkpt>
      <trkpt lat="43.59734" lon="0.98744">
        <ele>203.28357866784</ele>
        <time>2020-10-03T11:47:15.000Z</time>
      </trkpt>
      <trkpt lat="43.59733" lon="0.98741">
        <ele>204</ele>
        <time>2020-10-03T11:47:16.000Z</time>
      </trkpt>
      <trkpt lat="43.59732" lon="0.98739">
        <ele>204</ele>
        <time>2020-10-03T11:47:17.000Z</time>
      </trkpt>
      <trkpt lat="43.59731" lon="0.98737">
        <ele>204</ele>
        <time>2020-10-03T11:47:18.000Z</time>
      </trkpt>
      <trkpt lat="43.5973" lon="0.98734">
        <ele>204.36936968104</ele>
        <time>2020-10-03T11:47:19.000Z</time>
      </trkpt>
      <trkpt lat="43.59729" lon="0.98732">
        <ele>205</ele>
        <time>2020-10-03T11:47:20.000Z</time>
      </trkpt>
      <trkpt lat="43.59728" lon="0.98729">
        <ele>205</ele>
        <time>2020-10-03T11:47:21.000Z</time>
      </trkpt>
      <trkpt lat="43.59726" lon="0.98727">
        <ele>205</ele>
        <time>2020-10-03T11:47:22.000Z</time>
      </trkpt>
      <trkpt lat="43.59725" lon="0.98725">
        <ele>205.83332740741</ele>
        <time>2020-10-03T11:47:23.000Z</time>
      </trkpt>
      <trkpt lat="43.59723" lon="0.98723">
        <ele>207</ele>
        <time>2020-10-03T11:47:24.000Z</time>
      </trkpt>
      <trkpt lat="43.59721" lon="0.98721">
        <ele>207</ele>
        <time>2020-10-03T11:47:25.000Z</time>
      </trkpt>
      <trkpt lat="43.59719" lon="0.98719">
        <ele>207</ele>
        <time>2020-10-03T11:47:26.000Z</time>
      </trkpt>
      <trkpt lat="43.59718" lon="0.98717">
        <ele>207</ele>
        <time>2020-10-03T11:47:27.000Z</time>
      </trkpt>
      <trkpt lat="43.59716" lon="0.98715">
        <ele>207</ele>
        <time>2020-10-03T11:47:28.000Z</time>
      </trkpt>
      <trkpt lat="43.59715" lon="0.98713">
        <ele>207</ele>
        <time>2020-10-03T11:47:29.000Z</time>
      </trkpt>
      <trkpt lat="43.59713" lon="0.98712">
        <ele>207</ele>
        <time>2020-10-03T11:47:30.000Z</time>
      </trkpt>
      <trkpt lat="43.59712" lon="0.9871">
        <ele>207.37272653223</ele>
        <time>2020-10-03T11:47:31.000Z</time>
      </trkpt>
      <trkpt lat="43.5971" lon="0.98708">
        <ele>208</ele>
        <time>2020-10-03T11:47:32.000Z</time>
      </trkpt>
      <trkpt lat="43.59709" lon="0.98706">
        <ele>208</ele>
        <time>2020-10-03T11:47:33.000Z</time>
      </trkpt>
      <trkpt lat="43.59706" lon="0.98703">
        <ele>208.31506873334</ele>
        <time>2020-10-03T11:47:35.000Z</time>
      </trkpt>
      <trkpt lat="43.59704" lon="0.98701">
        <ele>209</ele>
        <time>2020-10-03T11:47:36.000Z</time>
      </trkpt>
      <trkpt lat="43.59702" lon="0.98698">
        <ele>209</ele>
        <time>2020-10-03T11:47:37.000Z</time>
      </trkpt>
      <trkpt lat="43.59701" lon="0.98697">
        <ele>209</ele>
        <time>2020-10-03T11:47:38.000Z</time>
      </trkpt>
      <trkpt lat="43.59699" lon="0.98694">
        <ele>209.89719357849</ele>
        <time>2020-10-03T11:47:39.000Z</time>
      </trkpt>
      <trkpt lat="43.59698" lon="0.98693">
        <ele>211</ele>
        <time>2020-10-03T11:47:40.000Z</time>
      </trkpt>
      <trkpt lat="43.59697" lon="0.98691">
        <ele>211</ele>
        <time>2020-10-03T11:47:41.000Z</time>
      </trkpt>
      <trkpt lat="43.59696" lon="0.98688">
        <ele>211.42727315041</ele>
        <time>2020-10-03T11:47:42.000Z</time>
      </trkpt>
      <trkpt lat="43.59695" lon="0.98686">
        <ele>212</ele>
        <time>2020-10-03T11:47:43.000Z</time>
      </trkpt>
      <trkpt lat="43.59694" lon="0.98683">
        <ele>211.54955141954</ele>
        <time>2020-10-03T11:47:44.000Z</time>
      </trkpt>
      <trkpt lat="43.59694" lon="0.98681">
        <ele>211</ele>
        <time>2020-10-03T11:47:45.000Z</time>
      </trkpt>
      <trkpt lat="43.59694" lon="0.98677">
        <ele>211</ele>
        <time>2020-10-03T11:47:47.000Z</time>
      </trkpt>
      <trkpt lat="43.59693" lon="0.98673">
        <ele>211.85454630082</ele>
        <time>2020-10-03T11:47:49.000Z</time>
      </trkpt>
      <trkpt lat="43.59693" lon="0.98669">
        <ele>213</ele>
        <time>2020-10-03T11:47:51.000Z</time>
      </trkpt>
      <trkpt lat="43.59694" lon="0.98666">
        <ele>213</ele>
        <time>2020-10-03T11:47:53.000Z</time>
      </trkpt>
      <trkpt lat="43.59694" lon="0.98662">
        <ele>213</ele>
        <time>2020-10-03T11:47:55.000Z</time>
      </trkpt>
      <trkpt lat="43.59693" lon="0.98658">
        <ele>213</ele>
        <time>2020-10-03T11:47:57.000Z</time>
      </trkpt>
      <trkpt lat="43.59693" lon="0.98653">
        <ele>213</ele>
        <time>2020-10-03T11:47:59.000Z</time>
      </trkpt>
      <trkpt lat="43.59693" lon="0.98649">
        <ele>214</ele>
        <time>2020-10-03T11:48:01.000Z</time>
      </trkpt>
      <trkpt lat="43.59692" lon="0.98644">
        <ele>214.44859678924</ele>
        <time>2020-10-03T11:48:03.000Z</time>
      </trkpt>
      <trkpt lat="43.59692" lon="0.98642">
        <ele>215</ele>
        <time>2020-10-03T11:48:04.000Z</time>
      </trkpt>
      <trkpt lat="43.59692" lon="0.98639">
        <ele>215</ele>
        <time>2020-10-03T11:48:05.000Z</time>
      </trkpt>
      <trkpt lat="43.59692" lon="0.98635">
        <ele>215</ele>
        <time>2020-10-03T11:48:07.000Z</time>
      </trkpt>
      <trkpt lat="43.59692" lon="0.98631">
        <ele>215</ele>
        <time>2020-10-03T11:48:09.000Z</time>
      </trkpt>
      <trkpt lat="43.59692" lon="0.98627">
        <ele>215</ele>
        <time>2020-10-03T11:48:11.000Z</time>
      </trkpt>
      <trkpt lat="43.59691" lon="0.98623">
        <ele>215</ele>
        <time>2020-10-03T11:48:13.000Z</time>
      </trkpt>
      <trkpt lat="43.59691" lon="0.98619">
        <ele>215</ele>
        <time>2020-10-03T11:48:15.000Z</time>
      </trkpt>
      <trkpt lat="43.59691" lon="0.98615">
        <ele>215</ele>
        <time>2020-10-03T11:48:17.000Z</time>
      </trkpt>
      <trkpt lat="43.59691" lon="0.98611">
        <ele>215</ele>
        <time>2020-10-03T11:48:19.000Z</time>
      </trkpt>
      <trkpt lat="43.59692" lon="0.98607">
        <ele>215</ele>
        <time>2020-10-03T11:48:21.000Z</time>
      </trkpt>
      <trkpt lat="43.59692" lon="0.98604">
        <ele>215</ele>
        <time>2020-10-03T11:48:23.000Z</time>
      </trkpt>
      <trkpt lat="43.59693" lon="0.986">
        <ele>215</ele>
        <time>2020-10-03T11:48:25.000Z</time>
      </trkpt>
      <trkpt lat="43.59693" lon="0.98596">
        <ele>215</ele>
        <time>2020-10-03T11:48:27.000Z</time>
      </trkpt>
      <trkpt lat="43.59693" lon="0.98592">
        <ele>216</ele>
        <time>2020-10-03T11:48:29.000Z</time>
      </trkpt>
      <trkpt lat="43.59694" lon="0.98587">
        <ele>216</ele>
        <time>2020-10-03T11:48:31.000Z</time>
      </trkpt>
      <trkpt lat="43.59694" lon="0.98583">
        <ele>216</ele>
        <time>2020-10-03T11:48:33.000Z</time>
      </trkpt>
      <trkpt lat="43.59694" lon="0.98579">
        <ele>216.43157994018</ele>
        <time>2020-10-03T11:48:35.000Z</time>
      </trkpt>
      <trkpt lat="43.59695" lon="0.98575">
        <ele>217</ele>
        <time>2020-10-03T11:48:37.000Z</time>
      </trkpt>
      <trkpt lat="43.59695" lon="0.9857">
        <ele>217.40425126299</ele>
        <time>2020-10-03T11:48:39.000Z</time>
      </trkpt>
      <trkpt lat="43.59695" lon="0.98567">
        <ele>218</ele>
        <time>2020-10-03T11:48:40.000Z</time>
      </trkpt>
      <trkpt lat="43.59695" lon="0.98565">
        <ele>218</ele>
        <time>2020-10-03T11:48:41.000Z</time>
      </trkpt>
      <trkpt lat="43.59696" lon="0.98562">
        <ele>218</ele>
        <time>2020-10-03T11:48:42.000Z</time>
      </trkpt>
      <trkpt lat="43.59696" lon="0.98558">
        <ele>218</ele>
        <time>2020-10-03T11:48:43.000Z</time>
      </trkpt>
      <trkpt lat="43.59696" lon="0.98555">
        <ele>218</ele>
        <time>2020-10-03T11:48:44.000Z</time>
      </trkpt>
      <trkpt lat="43.59697" lon="0.98552">
        <ele>218</ele>
        <time>2020-10-03T11:48:45.000Z</time>
      </trkpt>
      <trkpt lat="43.59697" lon="0.98549">
        <ele>218.41489419647</ele>
        <time>2020-10-03T11:48:46.000Z</time>
      </trkpt>
      <trkpt lat="43.59697" lon="0.98546">
        <ele>219</ele>
        <time>2020-10-03T11:48:47.000Z</time>
      </trkpt>
      <trkpt lat="43.59698" lon="0.98542">
        <ele>219</ele>
        <time>2020-10-03T11:48:48.000Z</time>
      </trkpt>
      <trkpt lat="43.59699" lon="0.98538">
        <ele>219</ele>
        <time>2020-10-03T11:48:49.000Z</time>
      </trkpt>
      <trkpt lat="43.597" lon="0.98535">
        <ele>219</ele>
        <time>2020-10-03T11:48:50.000Z</time>
      </trkpt>
      <trkpt lat="43.59701" lon="0.98531">
        <ele>219</ele>
        <time>2020-10-03T11:48:51.000Z</time>
      </trkpt>
      <trkpt lat="43.59701" lon="0.98528">
        <ele>219</ele>
        <time>2020-10-03T11:48:52.000Z</time>
      </trkpt>
      <trkpt lat="43.59702" lon="0.98524">
        <ele>219</ele>
        <time>2020-10-03T11:48:53.000Z</time>
      </trkpt>
      <trkpt lat="43.59703" lon="0.98521">
        <ele>219</ele>
        <time>2020-10-03T11:48:54.000Z</time>
      </trkpt>
      <trkpt lat="43.59704" lon="0.98518">
        <ele>219</ele>
        <time>2020-10-03T11:48:55.000Z</time>
      </trkpt>
      <trkpt lat="43.59704" lon="0.98515">
        <ele>219</ele>
        <time>2020-10-03T11:48:56.000Z</time>
      </trkpt>
      <trkpt lat="43.59705" lon="0.98512">
        <ele>219</ele>
        <time>2020-10-03T11:48:57.000Z</time>
      </trkpt>
      <trkpt lat="43.59705" lon="0.98508">
        <ele>219</ele>
        <time>2020-10-03T11:48:58.000Z</time>
      </trkpt>
      <trkpt lat="43.59706" lon="0.98505">
        <ele>219</ele>
        <time>2020-10-03T11:49:00.000Z</time>
      </trkpt>
      <trkpt lat="43.59707" lon="0.98501">
        <ele>219</ele>
        <time>2020-10-03T11:49:02.000Z</time>
      </trkpt>
      <trkpt lat="43.59708" lon="0.98497">
        <ele>219</ele>
        <time>2020-10-03T11:49:04.000Z</time>
      </trkpt>
      <trkpt lat="43.59709" lon="0.98494">
        <ele>220</ele>
        <time>2020-10-03T11:49:06.000Z</time>
      </trkpt>
      <trkpt lat="43.59711" lon="0.9849">
        <ele>220</ele>
        <time>2020-10-03T11:49:08.000Z</time>
      </trkpt>
      <trkpt lat="43.59712" lon="0.98488">
        <ele>220</ele>
        <time>2020-10-03T11:49:09.000Z</time>
      </trkpt>
      <trkpt lat="43.59714" lon="0.98485">
        <ele>220</ele>
        <time>2020-10-03T11:49:11.000Z</time>
      </trkpt>
      <trkpt lat="43.59716" lon="0.98481">
        <ele>220</ele>
        <time>2020-10-03T11:49:13.000Z</time>
      </trkpt>
      <trkpt lat="43.59718" lon="0.98478">
        <ele>220</ele>
        <time>2020-10-03T11:49:15.000Z</time>
      </trkpt>
      <trkpt lat="43.5972" lon="0.98476">
        <ele>220</ele>
        <time>2020-10-03T11:49:16.000Z</time>
      </trkpt>
      <trkpt lat="43.59721" lon="0.98473">
        <ele>220</ele>
        <time>2020-10-03T11:49:17.000Z</time>
      </trkpt>
      <trkpt lat="43.59722" lon="0.9847">
        <ele>219.54955141954</ele>
        <time>2020-10-03T11:49:18.000Z</time>
      </trkpt>
      <trkpt lat="43.59724" lon="0.98467">
        <ele>219</ele>
        <time>2020-10-03T11:49:19.000Z</time>
      </trkpt>
      <trkpt lat="43.59725" lon="0.98464">
        <ele>219</ele>
        <time>2020-10-03T11:49:20.000Z</time>
      </trkpt>
      <trkpt lat="43.59727" lon="0.9846">
        <ele>219</ele>
        <time>2020-10-03T11:49:21.000Z</time>
      </trkpt>
      <trkpt lat="43.59728" lon="0.98457">
        <ele>219</ele>
        <time>2020-10-03T11:49:22.000Z</time>
      </trkpt>
      <trkpt lat="43.5973" lon="0.98453">
        <ele>219</ele>
        <time>2020-10-03T11:49:23.000Z</time>
      </trkpt>
      <trkpt lat="43.59731" lon="0.98449">
        <ele>219</ele>
        <time>2020-10-03T11:49:24.000Z</time>
      </trkpt>
      <trkpt lat="43.59733" lon="0.98446">
        <ele>219</ele>
        <time>2020-10-03T11:49:25.000Z</time>
      </trkpt>
      <trkpt lat="43.59734" lon="0.98443">
        <ele>219</ele>
        <time>2020-10-03T11:49:26.000Z</time>
      </trkpt>
      <trkpt lat="43.59736" lon="0.98439">
        <ele>219</ele>
        <time>2020-10-03T11:49:27.000Z</time>
      </trkpt>
      <trkpt lat="43.59737" lon="0.98436">
        <ele>219</ele>
        <time>2020-10-03T11:49:28.000Z</time>
      </trkpt>
      <trkpt lat="43.59738" lon="0.98432">
        <ele>219</ele>
        <time>2020-10-03T11:49:29.000Z</time>
      </trkpt>
      <trkpt lat="43.59739" lon="0.98428">
        <ele>219</ele>
        <time>2020-10-03T11:49:30.000Z</time>
      </trkpt>
      <trkpt lat="43.59741" lon="0.98425">
        <ele>219</ele>
        <time>2020-10-03T11:49:31.000Z</time>
      </trkpt>
      <trkpt lat="43.59742" lon="0.98421">
        <ele>219</ele>
        <time>2020-10-03T11:49:32.000Z</time>
      </trkpt>
      <trkpt lat="43.59743" lon="0.98417">
        <ele>219</ele>
        <time>2020-10-03T11:49:33.000Z</time>
      </trkpt>
      <trkpt lat="43.59744" lon="0.98414">
        <ele>219</ele>
        <time>2020-10-03T11:49:34.000Z</time>
      </trkpt>
      <trkpt lat="43.59746" lon="0.9841">
        <ele>219</ele>
        <time>2020-10-03T11:49:35.000Z</time>
      </trkpt>
      <trkpt lat="43.59747" lon="0.98406">
        <ele>219</ele>
        <time>2020-10-03T11:49:36.000Z</time>
      </trkpt>
      <trkpt lat="43.59748" lon="0.98403">
        <ele>219</ele>
        <time>2020-10-03T11:49:37.000Z</time>
      </trkpt>
      <trkpt lat="43.59749" lon="0.98399">
        <ele>219</ele>
        <time>2020-10-03T11:49:38.000Z</time>
      </trkpt>
      <trkpt lat="43.5975" lon="0.98395">
        <ele>219</ele>
        <time>2020-10-03T11:49:39.000Z</time>
      </trkpt>
      <trkpt lat="43.5975" lon="0.98392">
        <ele>218.65933834079</ele>
        <time>2020-10-03T11:49:40.000Z</time>
      </trkpt>
      <trkpt lat="43.59751" lon="0.98388">
        <ele>218</ele>
        <time>2020-10-03T11:49:41.000Z</time>
      </trkpt>
      <trkpt lat="43.59752" lon="0.98384">
        <ele>218</ele>
        <time>2020-10-03T11:49:42.000Z</time>
      </trkpt>
      <trkpt lat="43.59753" lon="0.9838">
        <ele>218</ele>
        <time>2020-10-03T11:49:43.000Z</time>
      </trkpt>
      <trkpt lat="43.59754" lon="0.98376">
        <ele>218</ele>
        <time>2020-10-03T11:49:44.000Z</time>
      </trkpt>
      <trkpt lat="43.59755" lon="0.98372">
        <ele>218</ele>
        <time>2020-10-03T11:49:45.000Z</time>
      </trkpt>
      <trkpt lat="43.59756" lon="0.98368">
        <ele>218</ele>
        <time>2020-10-03T11:49:46.000Z</time>
      </trkpt>
      <trkpt lat="43.59756" lon="0.98365">
        <ele>218</ele>
        <time>2020-10-03T11:49:47.000Z</time>
      </trkpt>
      <trkpt lat="43.59757" lon="0.98361">
        <ele>218</ele>
        <time>2020-10-03T11:49:48.000Z</time>
      </trkpt>
      <trkpt lat="43.59758" lon="0.98356">
        <ele>218</ele>
        <time>2020-10-03T11:49:49.000Z</time>
      </trkpt>
      <trkpt lat="43.59759" lon="0.98352">
        <ele>218</ele>
        <time>2020-10-03T11:49:50.000Z</time>
      </trkpt>
      <trkpt lat="43.59759" lon="0.98349">
        <ele>218</ele>
        <time>2020-10-03T11:49:51.000Z</time>
      </trkpt>
      <trkpt lat="43.5976" lon="0.98345">
        <ele>218</ele>
        <time>2020-10-03T11:49:52.000Z</time>
      </trkpt>
      <trkpt lat="43.59761" lon="0.98341">
        <ele>218</ele>
        <time>2020-10-03T11:49:53.000Z</time>
      </trkpt>
      <trkpt lat="43.59762" lon="0.98337">
        <ele>218</ele>
        <time>2020-10-03T11:49:54.000Z</time>
      </trkpt>
      <trkpt lat="43.59763" lon="0.98333">
        <ele>218</ele>
        <time>2020-10-03T11:49:55.000Z</time>
      </trkpt>
      <trkpt lat="43.59764" lon="0.98329">
        <ele>217.52381416782</ele>
        <time>2020-10-03T11:49:56.000Z</time>
      </trkpt>
      <trkpt lat="43.59765" lon="0.98325">
        <ele>217</ele>
        <time>2020-10-03T11:49:57.000Z</time>
      </trkpt>
      <trkpt lat="43.59766" lon="0.98321">
        <ele>217</ele>
        <time>2020-10-03T11:49:58.000Z</time>
      </trkpt>
      <trkpt lat="43.59767" lon="0.98317">
        <ele>217</ele>
        <time>2020-10-03T11:49:59.000Z</time>
      </trkpt>
      <trkpt lat="43.59767" lon="0.98313">
        <ele>217</ele>
        <time>2020-10-03T11:50:00.000Z</time>
      </trkpt>
      <trkpt lat="43.59768" lon="0.98309">
        <ele>217</ele>
        <time>2020-10-03T11:50:01.000Z</time>
      </trkpt>
      <trkpt lat="43.59769" lon="0.98305">
        <ele>217.41414219774</ele>
        <time>2020-10-03T11:50:02.000Z</time>
      </trkpt>
      <trkpt lat="43.5977" lon="0.98301">
        <ele>218</ele>
        <time>2020-10-03T11:50:03.000Z</time>
      </trkpt>
      <trkpt lat="43.59771" lon="0.98297">
        <ele>218</ele>
        <time>2020-10-03T11:50:04.000Z</time>
      </trkpt>
      <trkpt lat="43.59772" lon="0.98292">
        <ele>217.53684366537</ele>
        <time>2020-10-03T11:50:05.000Z</time>
      </trkpt>
      <trkpt lat="43.59772" lon="0.98288">
        <ele>217</ele>
        <time>2020-10-03T11:50:06.000Z</time>
      </trkpt>
      <trkpt lat="43.59773" lon="0.98284">
        <ele>217</ele>
        <time>2020-10-03T11:50:07.000Z</time>
      </trkpt>
      <trkpt lat="43.59774" lon="0.9828">
        <ele>217</ele>
        <time>2020-10-03T11:50:08.000Z</time>
      </trkpt>
      <trkpt lat="43.59775" lon="0.98276">
        <ele>216.67777904198</ele>
        <time>2020-10-03T11:50:09.000Z</time>
      </trkpt>
      <trkpt lat="43.59777" lon="0.98272">
        <ele>216</ele>
        <time>2020-10-03T11:50:10.000Z</time>
      </trkpt>
      <trkpt lat="43.59778" lon="0.98268">
        <ele>216</ele>
        <time>2020-10-03T11:50:11.000Z</time>
      </trkpt>
      <trkpt lat="43.59779" lon="0.98264">
        <ele>216</ele>
        <time>2020-10-03T11:50:12.000Z</time>
      </trkpt>
      <trkpt lat="43.59779" lon="0.98261">
        <ele>216</ele>
        <time>2020-10-03T11:50:13.000Z</time>
      </trkpt>
      <trkpt lat="43.5978" lon="0.98257">
        <ele>216</ele>
        <time>2020-10-03T11:50:14.000Z</time>
      </trkpt>
      <trkpt lat="43.59781" lon="0.98253">
        <ele>216</ele>
        <time>2020-10-03T11:50:15.000Z</time>
      </trkpt>
      <trkpt lat="43.59781" lon="0.98249">
        <ele>216</ele>
        <time>2020-10-03T11:50:16.000Z</time>
      </trkpt>
      <trkpt lat="43.59782" lon="0.98246">
        <ele>215.50980072282</ele>
        <time>2020-10-03T11:50:17.000Z</time>
      </trkpt>
      <trkpt lat="43.59783" lon="0.98242">
        <ele>215</ele>
        <time>2020-10-03T11:50:18.000Z</time>
      </trkpt>
      <trkpt lat="43.59784" lon="0.98239">
        <ele>215</ele>
        <time>2020-10-03T11:50:19.000Z</time>
      </trkpt>
      <trkpt lat="43.59784" lon="0.98235">
        <ele>215</ele>
        <time>2020-10-03T11:50:20.000Z</time>
      </trkpt>
      <trkpt lat="43.59785" lon="0.98231">
        <ele>215</ele>
        <time>2020-10-03T11:50:21.000Z</time>
      </trkpt>
      <trkpt lat="43.59786" lon="0.98227">
        <ele>215</ele>
        <time>2020-10-03T11:50:22.000Z</time>
      </trkpt>
      <trkpt lat="43.59787" lon="0.98223">
        <ele>215</ele>
        <time>2020-10-03T11:50:23.000Z</time>
      </trkpt>
      <trkpt lat="43.59788" lon="0.9822">
        <ele>215</ele>
        <time>2020-10-03T11:50:24.000Z</time>
      </trkpt>
      <trkpt lat="43.59788" lon="0.98216">
        <ele>215</ele>
        <time>2020-10-03T11:50:25.000Z</time>
      </trkpt>
      <trkpt lat="43.59789" lon="0.98212">
        <ele>215</ele>
        <time>2020-10-03T11:50:26.000Z</time>
      </trkpt>
      <trkpt lat="43.59789" lon="0.98209">
        <ele>215</ele>
        <time>2020-10-03T11:50:27.000Z</time>
      </trkpt>
      <trkpt lat="43.5979" lon="0.98205">
        <ele>215</ele>
        <time>2020-10-03T11:50:28.000Z</time>
      </trkpt>
      <trkpt lat="43.5979" lon="0.98201">
        <ele>214.73255640888</ele>
        <time>2020-10-03T11:50:29.000Z</time>
      </trkpt>
      <trkpt lat="43.59791" lon="0.98197">
        <ele>214</ele>
        <time>2020-10-03T11:50:30.000Z</time>
      </trkpt>
      <trkpt lat="43.59791" lon="0.98193">
        <ele>214</ele>
        <time>2020-10-03T11:50:31.000Z</time>
      </trkpt>
      <trkpt lat="43.59792" lon="0.98189">
        <ele>214</ele>
        <time>2020-10-03T11:50:32.000Z</time>
      </trkpt>
      <trkpt lat="43.59792" lon="0.98185">
        <ele>214</ele>
        <time>2020-10-03T11:50:33.000Z</time>
      </trkpt>
      <trkpt lat="43.59793" lon="0.98181">
        <ele>214</ele>
        <time>2020-10-03T11:50:34.000Z</time>
      </trkpt>
      <trkpt lat="43.59793" lon="0.98177">
        <ele>214</ele>
        <time>2020-10-03T11:50:35.000Z</time>
      </trkpt>
      <trkpt lat="43.59794" lon="0.98173">
        <ele>214</ele>
        <time>2020-10-03T11:50:36.000Z</time>
      </trkpt>
      <trkpt lat="43.59795" lon="0.9817">
        <ele>214</ele>
        <time>2020-10-03T11:50:37.000Z</time>
      </trkpt>
      <trkpt lat="43.59795" lon="0.98166">
        <ele>214</ele>
        <time>2020-10-03T11:50:38.000Z</time>
      </trkpt>
      <trkpt lat="43.59795" lon="0.98162">
        <ele>214</ele>
        <time>2020-10-03T11:50:39.000Z</time>
      </trkpt>
      <trkpt lat="43.59795" lon="0.98158">
        <ele>214</ele>
        <time>2020-10-03T11:50:40.000Z</time>
      </trkpt>
      <trkpt lat="43.59796" lon="0.98154">
        <ele>213.63063031896</ele>
        <time>2020-10-03T11:50:41.000Z</time>
      </trkpt>
      <trkpt lat="43.59796" lon="0.98149">
        <ele>213</ele>
        <time>2020-10-03T11:50:42.000Z</time>
      </trkpt>
      <trkpt lat="43.59796" lon="0.98145">
        <ele>213</ele>
        <time>2020-10-03T11:50:43.000Z</time>
      </trkpt>
      <trkpt lat="43.59796" lon="0.98141">
        <ele>213</ele>
        <time>2020-10-03T11:50:44.000Z</time>
      </trkpt>
      <trkpt lat="43.59796" lon="0.98137">
        <ele>212.72000068267</ele>
        <time>2020-10-03T11:50:45.000Z</time>
      </trkpt>
      <trkpt lat="43.59795" lon="0.98134">
        <ele>212</ele>
        <time>2020-10-03T11:50:46.000Z</time>
      </trkpt>
      <trkpt lat="43.59793" lon="0.98132">
        <ele>212</ele>
        <time>2020-10-03T11:50:47.000Z</time>
      </trkpt>
      <trkpt lat="43.59791" lon="0.9813">
        <ele>211.63063031896</ele>
        <time>2020-10-03T11:50:49.000Z</time>
      </trkpt>
      <trkpt lat="43.5979" lon="0.98126">
        <ele>211</ele>
        <time>2020-10-03T11:50:51.000Z</time>
      </trkpt>
      <trkpt lat="43.59789" lon="0.98123">
        <ele>210.58929142857</ele>
        <time>2020-10-03T11:50:53.000Z</time>
      </trkpt>
      <trkpt lat="43.59787" lon="0.98122">
        <ele>210</ele>
        <time>2020-10-03T11:50:56.000Z</time>
      </trkpt>
      <trkpt lat="43.59789" lon="0.9812">
        <ele>210.27884307692</ele>
        <time>2020-10-03T11:51:01.000Z</time>
      </trkpt>
      <trkpt lat="43.59791" lon="0.98119">
        <ele>211</ele>
        <time>2020-10-03T11:51:05.000Z</time>
      </trkpt>
      <trkpt lat="43.59791" lon="0.98121">
        <ele>210</ele>
        <time>2020-10-03T11:51:12.000Z</time>
      </trkpt>
      <trkpt lat="43.59791" lon="0.98124">
        <ele>210</ele>
        <time>2020-10-03T11:51:15.000Z</time>
      </trkpt>
      <trkpt lat="43.59789" lon="0.98125">
        <ele>210</ele>
        <time>2020-10-03T11:51:23.000Z</time>
      </trkpt>
      <trkpt lat="43.59787" lon="0.98124">
        <ele>210</ele>
        <time>2020-10-03T11:51:25.000Z</time>
      </trkpt>
      <trkpt lat="43.59784" lon="0.98123">
        <ele>210</ele>
        <time>2020-10-03T11:51:27.000Z</time>
      </trkpt>
      <trkpt lat="43.59782" lon="0.98123">
        <ele>210</ele>
        <time>2020-10-03T11:51:29.000Z</time>
      </trkpt>
      <trkpt lat="43.59782" lon="0.9812">
        <ele>212</ele>
        <time>2020-10-03T11:52:02.000Z</time>
      </trkpt>
      <trkpt lat="43.59782" lon="0.98118">
        <ele>213</ele>
        <time>2020-10-03T11:55:07.000Z</time>
      </trkpt>
      <trkpt lat="43.59781" lon="0.98116">
        <ele>213</ele>
        <time>2020-10-03T11:55:16.000Z</time>
      </trkpt>
      <trkpt lat="43.59779" lon="0.98115">
        <ele>213</ele>
        <time>2020-10-03T11:55:19.000Z</time>
      </trkpt>
      <trkpt lat="43.59777" lon="0.98114">
        <ele>213</ele>
        <time>2020-10-03T11:55:21.000Z</time>
      </trkpt>
      <trkpt lat="43.59774" lon="0.98113">
        <ele>213</ele>
        <time>2020-10-03T11:55:23.000Z</time>
      </trkpt>
      <trkpt lat="43.59772" lon="0.98112">
        <ele>214</ele>
        <time>2020-10-03T11:55:25.000Z</time>
      </trkpt>
      <trkpt lat="43.5977" lon="0.98111">
        <ele>214</ele>
        <time>2020-10-03T11:55:27.000Z</time>
      </trkpt>
      <trkpt lat="43.59768" lon="0.9811">
        <ele>214</ele>
        <time>2020-10-03T11:55:29.000Z</time>
      </trkpt>
      <trkpt lat="43.59766" lon="0.98109">
        <ele>214</ele>
        <time>2020-10-03T11:55:31.000Z</time>
      </trkpt>
      <trkpt lat="43.59763" lon="0.98108">
        <ele>214</ele>
        <time>2020-10-03T11:55:33.000Z</time>
      </trkpt>
      <trkpt lat="43.5976" lon="0.98108">
        <ele>213.11711524712</ele>
        <time>2020-10-03T11:55:35.000Z</time>
      </trkpt>
      <trkpt lat="43.59757" lon="0.98106">
        <ele>212</ele>
        <time>2020-10-03T11:55:37.000Z</time>
      </trkpt>
      <trkpt lat="43.59755" lon="0.98104">
        <ele>212</ele>
        <time>2020-10-03T11:55:38.000Z</time>
      </trkpt>
      <trkpt lat="43.59753" lon="0.98102">
        <ele>212</ele>
        <time>2020-10-03T11:55:39.000Z</time>
      </trkpt>
      <trkpt lat="43.59752" lon="0.98098">
        <ele>212</ele>
        <time>2020-10-03T11:55:40.000Z</time>
      </trkpt>
      <trkpt lat="43.59752" lon="0.98094">
        <ele>212</ele>
        <time>2020-10-03T11:55:41.000Z</time>
      </trkpt>
      <trkpt lat="43.59752" lon="0.9809">
        <ele>211.59090961984</ele>
        <time>2020-10-03T11:55:42.000Z</time>
      </trkpt>
      <trkpt lat="43.59752" lon="0.98086">
        <ele>211</ele>
        <time>2020-10-03T11:55:43.000Z</time>
      </trkpt>
      <trkpt lat="43.59752" lon="0.98082">
        <ele>211</ele>
        <time>2020-10-03T11:55:44.000Z</time>
      </trkpt>
      <trkpt lat="43.59752" lon="0.98078">
        <ele>210.64151330725</ele>
        <time>2020-10-03T11:55:45.000Z</time>
      </trkpt>
      <trkpt lat="43.59752" lon="0.98074">
        <ele>210</ele>
        <time>2020-10-03T11:55:46.000Z</time>
      </trkpt>
      <trkpt lat="43.59753" lon="0.9807">
        <ele>210</ele>
        <time>2020-10-03T11:55:47.000Z</time>
      </trkpt>
      <trkpt lat="43.59754" lon="0.98066">
        <ele>209.36065384575</ele>
        <time>2020-10-03T11:55:48.000Z</time>
      </trkpt>
      <trkpt lat="43.59755" lon="0.98062">
        <ele>208</ele>
        <time>2020-10-03T11:55:49.000Z</time>
      </trkpt>
      <trkpt lat="43.59755" lon="0.98058">
        <ele>208</ele>
        <time>2020-10-03T11:55:50.000Z</time>
      </trkpt>
      <trkpt lat="43.59756" lon="0.98054">
        <ele>208</ele>
        <time>2020-10-03T11:55:51.000Z</time>
      </trkpt>
      <trkpt lat="43.59757" lon="0.98051">
        <ele>208</ele>
        <time>2020-10-03T11:55:52.000Z</time>
      </trkpt>
      <trkpt lat="43.59758" lon="0.98047">
        <ele>207.15216695652</ele>
        <time>2020-10-03T11:55:53.000Z</time>
      </trkpt>
      <trkpt lat="43.59759" lon="0.98042">
        <ele>206</ele>
        <time>2020-10-03T11:55:54.000Z</time>
      </trkpt>
      <trkpt lat="43.5976" lon="0.98038">
        <ele>206</ele>
        <time>2020-10-03T11:55:55.000Z</time>
      </trkpt>
      <trkpt lat="43.59761" lon="0.98034">
        <ele>205.01961424072</ele>
        <time>2020-10-03T11:55:56.000Z</time>
      </trkpt>
      <trkpt lat="43.59762" lon="0.9803">
        <ele>204</ele>
        <time>2020-10-03T11:55:57.000Z</time>
      </trkpt>
      <trkpt lat="43.59763" lon="0.98026">
        <ele>204</ele>
        <time>2020-10-03T11:55:58.000Z</time>
      </trkpt>
      <trkpt lat="43.59764" lon="0.98022">
        <ele>204</ele>
        <time>2020-10-03T11:55:59.000Z</time>
      </trkpt>
      <trkpt lat="43.59765" lon="0.98017">
        <ele>204</ele>
        <time>2020-10-03T11:56:00.000Z</time>
      </trkpt>
      <trkpt lat="43.59766" lon="0.98013">
        <ele>204</ele>
        <time>2020-10-03T11:56:01.000Z</time>
      </trkpt>
      <trkpt lat="43.59766" lon="0.9801">
        <ele>204</ele>
        <time>2020-10-03T11:56:02.000Z</time>
      </trkpt>
      <trkpt lat="43.59767" lon="0.98006">
        <ele>204</ele>
        <time>2020-10-03T11:56:03.000Z</time>
      </trkpt>
      <trkpt lat="43.59768" lon="0.98003">
        <ele>204</ele>
        <time>2020-10-03T11:56:04.000Z</time>
      </trkpt>
      <trkpt lat="43.59769" lon="0.97999">
        <ele>204</ele>
        <time>2020-10-03T11:56:05.000Z</time>
      </trkpt>
      <trkpt lat="43.5977" lon="0.97996">
        <ele>203.58558101454</ele>
        <time>2020-10-03T11:56:06.000Z</time>
      </trkpt>
      <trkpt lat="43.5977" lon="0.97993">
        <ele>203</ele>
        <time>2020-10-03T11:56:07.000Z</time>
      </trkpt>
      <trkpt lat="43.5977" lon="0.9799">
        <ele>203</ele>
        <time>2020-10-03T11:56:08.000Z</time>
      </trkpt>
      <trkpt lat="43.59768" lon="0.97987">
        <ele>203</ele>
        <time>2020-10-03T11:56:09.000Z</time>
      </trkpt>
      <trkpt lat="43.59766" lon="0.97987">
        <ele>202.51456479594</ele>
        <time>2020-10-03T11:56:10.000Z</time>
      </trkpt>
      <trkpt lat="43.59764" lon="0.97988">
        <ele>202</ele>
        <time>2020-10-03T11:56:11.000Z</time>
      </trkpt>
      <trkpt lat="43.59762" lon="0.9799">
        <ele>201.66666666667</ele>
        <time>2020-10-03T11:56:12.000Z</time>
      </trkpt>
      <trkpt lat="43.59759" lon="0.97992">
        <ele>201</ele>
        <time>2020-10-03T11:56:13.000Z</time>
      </trkpt>
      <trkpt lat="43.59757" lon="0.97993">
        <ele>201</ele>
        <time>2020-10-03T11:56:14.000Z</time>
      </trkpt>
      <trkpt lat="43.59754" lon="0.97994">
        <ele>200.64486260811</ele>
        <time>2020-10-03T11:56:15.000Z</time>
      </trkpt>
      <trkpt lat="43.59751" lon="0.97994">
        <ele>200</ele>
        <time>2020-10-03T11:56:16.000Z</time>
      </trkpt>
      <trkpt lat="43.59748" lon="0.97994">
        <ele>199.56481185185</ele>
        <time>2020-10-03T11:56:17.000Z</time>
      </trkpt>
      <trkpt lat="43.59745" lon="0.97994">
        <ele>199</ele>
        <time>2020-10-03T11:56:18.000Z</time>
      </trkpt>
      <trkpt lat="43.59741" lon="0.97993">
        <ele>198.5596317347</ele>
        <time>2020-10-03T11:56:19.000Z</time>
      </trkpt>
      <trkpt lat="43.59737" lon="0.97992">
        <ele>198</ele>
        <time>2020-10-03T11:56:20.000Z</time>
      </trkpt>
      <trkpt lat="43.59734" lon="0.9799">
        <ele>198</ele>
        <time>2020-10-03T11:56:21.000Z</time>
      </trkpt>
      <trkpt lat="43.59731" lon="0.97989">
        <ele>198</ele>
        <time>2020-10-03T11:56:22.000Z</time>
      </trkpt>
      <trkpt lat="43.59728" lon="0.97987">
        <ele>196.73948305349</ele>
        <time>2020-10-03T11:56:23.000Z</time>
      </trkpt>
      <trkpt lat="43.59725" lon="0.97985">
        <ele>195</ele>
        <time>2020-10-03T11:56:24.000Z</time>
      </trkpt>
      <trkpt lat="43.59721" lon="0.97982">
        <ele>194.80597214527</ele>
        <time>2020-10-03T11:56:25.000Z</time>
      </trkpt>
      <trkpt lat="43.59718" lon="0.9798">
        <ele>194</ele>
        <time>2020-10-03T11:56:26.000Z</time>
      </trkpt>
      <trkpt lat="43.59715" lon="0.97978">
        <ele>193.90319583798</ele>
        <time>2020-10-03T11:56:27.000Z</time>
      </trkpt>
      <trkpt lat="43.59712" lon="0.97976">
        <ele>191</ele>
        <time>2020-10-03T11:56:28.000Z</time>
      </trkpt>
      <trkpt lat="43.59708" lon="0.97974">
        <ele>191</ele>
        <time>2020-10-03T11:56:29.000Z</time>
      </trkpt>
      <trkpt lat="43.59705" lon="0.97972">
        <ele>190.33332385192</ele>
        <time>2020-10-03T11:56:30.000Z</time>
      </trkpt>
      <trkpt lat="43.59703" lon="0.9797">
        <ele>189</ele>
        <time>2020-10-03T11:56:31.000Z</time>
      </trkpt>
      <trkpt lat="43.597" lon="0.97967">
        <ele>189</ele>
        <time>2020-10-03T11:56:32.000Z</time>
      </trkpt>
      <trkpt lat="43.59697" lon="0.97965">
        <ele>189</ele>
        <time>2020-10-03T11:56:33.000Z</time>
      </trkpt>
      <trkpt lat="43.59694" lon="0.97962">
        <ele>189</ele>
        <time>2020-10-03T11:56:34.000Z</time>
      </trkpt>
      <trkpt lat="43.59691" lon="0.9796">
        <ele>187.749984</ele>
        <time>2020-10-03T11:56:35.000Z</time>
      </trkpt>
      <trkpt lat="43.59689" lon="0.97957">
        <ele>186</ele>
        <time>2020-10-03T11:56:36.000Z</time>
      </trkpt>
      <trkpt lat="43.59686" lon="0.97954">
        <ele>185.65</ele>
        <time>2020-10-03T11:56:37.000Z</time>
      </trkpt>
      <trkpt lat="43.59683" lon="0.97951">
        <ele>185</ele>
        <time>2020-10-03T11:56:38.000Z</time>
      </trkpt>
      <trkpt lat="43.5968" lon="0.97948">
        <ele>185</ele>
        <time>2020-10-03T11:56:39.000Z</time>
      </trkpt>
      <trkpt lat="43.59678" lon="0.97944">
        <ele>185</ele>
        <time>2020-10-03T11:56:40.000Z</time>
      </trkpt>
      <trkpt lat="43.59675" lon="0.97941">
        <ele>184.06796406069</ele>
        <time>2020-10-03T11:56:41.000Z</time>
      </trkpt>
      <trkpt lat="43.59673" lon="0.97938">
        <ele>183</ele>
        <time>2020-10-03T11:56:42.000Z</time>
      </trkpt>
      <trkpt lat="43.5967" lon="0.97935">
        <ele>183</ele>
        <time>2020-10-03T11:56:43.000Z</time>
      </trkpt>
      <trkpt lat="43.59667" lon="0.97932">
        <ele>182.5</ele>
        <time>2020-10-03T11:56:44.000Z</time>
      </trkpt>
      <trkpt lat="43.59664" lon="0.9793">
        <ele>181.60937</ele>
        <time>2020-10-03T11:56:45.000Z</time>
      </trkpt>
      <trkpt lat="43.59661" lon="0.97927">
        <ele>181</ele>
        <time>2020-10-03T11:56:46.000Z</time>
      </trkpt>
      <trkpt lat="43.59658" lon="0.97925">
        <ele>181</ele>
        <time>2020-10-03T11:56:47.000Z</time>
      </trkpt>
      <trkpt lat="43.59656" lon="0.97923">
        <ele>181</ele>
        <time>2020-10-03T11:56:48.000Z</time>
      </trkpt>
      <trkpt lat="43.59654" lon="0.9792">
        <ele>181</ele>
        <time>2020-10-03T11:56:49.000Z</time>
      </trkpt>
      <trkpt lat="43.59651" lon="0.97917">
        <ele>181</ele>
        <time>2020-10-03T11:56:50.000Z</time>
      </trkpt>
      <trkpt lat="43.59649" lon="0.97915">
        <ele>181</ele>
        <time>2020-10-03T11:56:51.000Z</time>
      </trkpt>
      <trkpt lat="43.59647" lon="0.97912">
        <ele>180.2612691567</ele>
        <time>2020-10-03T11:56:52.000Z</time>
      </trkpt>
      <trkpt lat="43.59645" lon="0.97909">
        <ele>179</ele>
        <time>2020-10-03T11:56:53.000Z</time>
      </trkpt>
      <trkpt lat="43.59644" lon="0.97907">
        <ele>178.69503249936</ele>
        <time>2020-10-03T11:56:54.000Z</time>
      </trkpt>
      <trkpt lat="43.59641" lon="0.97904">
        <ele>178</ele>
        <time>2020-10-03T11:56:55.000Z</time>
      </trkpt>
      <trkpt lat="43.59639" lon="0.979">
        <ele>178</ele>
        <time>2020-10-03T11:56:56.000Z</time>
      </trkpt>
      <trkpt lat="43.59637" lon="0.97897">
        <ele>178</ele>
        <time>2020-10-03T11:56:57.000Z</time>
      </trkpt>
      <trkpt lat="43.59635" lon="0.97894">
        <ele>178</ele>
        <time>2020-10-03T11:56:58.000Z</time>
      </trkpt>
      <trkpt lat="43.59633" lon="0.9789">
        <ele>178</ele>
        <time>2020-10-03T11:56:59.000Z</time>
      </trkpt>
      <trkpt lat="43.59632" lon="0.97887">
        <ele>178</ele>
        <time>2020-10-03T11:57:00.000Z</time>
      </trkpt>
      <trkpt lat="43.5963" lon="0.97884">
        <ele>178</ele>
        <time>2020-10-03T11:57:01.000Z</time>
      </trkpt>
      <trkpt lat="43.59628" lon="0.9788">
        <ele>177.60416</ele>
        <time>2020-10-03T11:57:02.000Z</time>
      </trkpt>
      <trkpt lat="43.59627" lon="0.97877">
        <ele>177</ele>
        <time>2020-10-03T11:57:03.000Z</time>
      </trkpt>
      <trkpt lat="43.59625" lon="0.97873">
        <ele>177</ele>
        <time>2020-10-03T11:57:04.000Z</time>
      </trkpt>
      <trkpt lat="43.59623" lon="0.9787">
        <ele>177</ele>
        <time>2020-10-03T11:57:05.000Z</time>
      </trkpt>
      <trkpt lat="43.59622" lon="0.97867">
        <ele>177</ele>
        <time>2020-10-03T11:57:06.000Z</time>
      </trkpt>
      <trkpt lat="43.5962" lon="0.97863">
        <ele>177.38271546411</ele>
        <time>2020-10-03T11:57:07.000Z</time>
      </trkpt>
      <trkpt lat="43.59619" lon="0.9786">
        <ele>178</ele>
        <time>2020-10-03T11:57:08.000Z</time>
      </trkpt>
      <trkpt lat="43.59618" lon="0.97856">
        <ele>178</ele>
        <time>2020-10-03T11:57:09.000Z</time>
      </trkpt>
      <trkpt lat="43.59616" lon="0.97853">
        <ele>178</ele>
        <time>2020-10-03T11:57:10.000Z</time>
      </trkpt>
      <trkpt lat="43.59615" lon="0.97849">
        <ele>178</ele>
        <time>2020-10-03T11:57:11.000Z</time>
      </trkpt>
      <trkpt lat="43.59614" lon="0.97846">
        <ele>178</ele>
        <time>2020-10-03T11:57:12.000Z</time>
      </trkpt>
      <trkpt lat="43.59612" lon="0.97843">
        <ele>178</ele>
        <time>2020-10-03T11:57:13.000Z</time>
      </trkpt>
      <trkpt lat="43.5961" lon="0.97841">
        <ele>178</ele>
        <time>2020-10-03T11:57:14.000Z</time>
      </trkpt>
      <trkpt lat="43.59608" lon="0.9784">
        <ele>178</ele>
        <time>2020-10-03T11:57:15.000Z</time>
      </trkpt>
      <trkpt lat="43.59606" lon="0.97839">
        <ele>177.58241201789</ele>
        <time>2020-10-03T11:57:16.000Z</time>
      </trkpt>
      <trkpt lat="43.59604" lon="0.97839">
        <ele>177</ele>
        <time>2020-10-03T11:57:17.000Z</time>
      </trkpt>
      <trkpt lat="43.59602" lon="0.97839">
        <ele>177</ele>
        <time>2020-10-03T11:57:18.000Z</time>
      </trkpt>
      <trkpt lat="43.59599" lon="0.9784">
        <ele>177</ele>
        <time>2020-10-03T11:57:19.000Z</time>
      </trkpt>
      <trkpt lat="43.59597" lon="0.97841">
        <ele>177</ele>
        <time>2020-10-03T11:57:20.000Z</time>
      </trkpt>
      <trkpt lat="43.59596" lon="0.97842">
        <ele>177</ele>
        <time>2020-10-03T11:57:21.000Z</time>
      </trkpt>
      <trkpt lat="43.59592" lon="0.97845">
        <ele>177</ele>
        <time>2020-10-03T11:57:23.000Z</time>
      </trkpt>
      <trkpt lat="43.5959" lon="0.97846">
        <ele>177</ele>
        <time>2020-10-03T11:57:24.000Z</time>
      </trkpt>
      <trkpt lat="43.59588" lon="0.97848">
        <ele>177</ele>
        <time>2020-10-03T11:57:25.000Z</time>
      </trkpt>
      <trkpt lat="43.59586" lon="0.97849">
        <ele>177</ele>
        <time>2020-10-03T11:57:26.000Z</time>
      </trkpt>
      <trkpt lat="43.59584" lon="0.97851">
        <ele>177</ele>
        <time>2020-10-03T11:57:27.000Z</time>
      </trkpt>
      <trkpt lat="43.59581" lon="0.97852">
        <ele>177</ele>
        <time>2020-10-03T11:57:28.000Z</time>
      </trkpt>
      <trkpt lat="43.59579" lon="0.97854">
        <ele>177</ele>
        <time>2020-10-03T11:57:29.000Z</time>
      </trkpt>
      <trkpt lat="43.59576" lon="0.97855">
        <ele>177</ele>
        <time>2020-10-03T11:57:30.000Z</time>
      </trkpt>
      <trkpt lat="43.59573" lon="0.97856">
        <ele>177</ele>
        <time>2020-10-03T11:57:31.000Z</time>
      </trkpt>
      <trkpt lat="43.59571" lon="0.97857">
        <ele>177</ele>
        <time>2020-10-03T11:57:32.000Z</time>
      </trkpt>
      <trkpt lat="43.59568" lon="0.97858">
        <ele>177</ele>
        <time>2020-10-03T11:57:33.000Z</time>
      </trkpt>
      <trkpt lat="43.59565" lon="0.97859">
        <ele>177</ele>
        <time>2020-10-03T11:57:34.000Z</time>
      </trkpt>
      <trkpt lat="43.59562" lon="0.97859">
        <ele>177</ele>
        <time>2020-10-03T11:57:35.000Z</time>
      </trkpt>
      <trkpt lat="43.59559" lon="0.97859">
        <ele>177</ele>
        <time>2020-10-03T11:57:36.000Z</time>
      </trkpt>
      <trkpt lat="43.59556" lon="0.9786">
        <ele>177</ele>
        <time>2020-10-03T11:57:37.000Z</time>
      </trkpt>
      <trkpt lat="43.59553" lon="0.9786">
        <ele>177</ele>
        <time>2020-10-03T11:57:38.000Z</time>
      </trkpt>
      <trkpt lat="43.59551" lon="0.97861">
        <ele>177</ele>
        <time>2020-10-03T11:57:39.000Z</time>
      </trkpt>
      <trkpt lat="43.59548" lon="0.97861">
        <ele>177</ele>
        <time>2020-10-03T11:57:40.000Z</time>
      </trkpt>
      <trkpt lat="43.59545" lon="0.97861">
        <ele>177</ele>
        <time>2020-10-03T11:57:41.000Z</time>
      </trkpt>
      <trkpt lat="43.59542" lon="0.97862">
        <ele>177</ele>
        <time>2020-10-03T11:57:42.000Z</time>
      </trkpt>
      <trkpt lat="43.59539" lon="0.97863">
        <ele>177</ele>
        <time>2020-10-03T11:57:43.000Z</time>
      </trkpt>
      <trkpt lat="43.59537" lon="0.97863">
        <ele>177</ele>
        <time>2020-10-03T11:57:44.000Z</time>
      </trkpt>
      <trkpt lat="43.59534" lon="0.97863">
        <ele>177</ele>
        <time>2020-10-03T11:57:45.000Z</time>
      </trkpt>
      <trkpt lat="43.59531" lon="0.97864">
        <ele>177</ele>
        <time>2020-10-03T11:57:46.000Z</time>
      </trkpt>
      <trkpt lat="43.59528" lon="0.97864">
        <ele>176.63528897991</ele>
        <time>2020-10-03T11:57:47.000Z</time>
      </trkpt>
      <trkpt lat="43.59525" lon="0.97865">
        <ele>176</ele>
        <time>2020-10-03T11:57:48.000Z</time>
      </trkpt>
      <trkpt lat="43.59522" lon="0.97866">
        <ele>176</ele>
        <time>2020-10-03T11:57:49.000Z</time>
      </trkpt>
      <trkpt lat="43.59519" lon="0.97866">
        <ele>176</ele>
        <time>2020-10-03T11:57:50.000Z</time>
      </trkpt>
      <trkpt lat="43.59517" lon="0.97867">
        <ele>176</ele>
        <time>2020-10-03T11:57:51.000Z</time>
      </trkpt>
      <trkpt lat="43.59513" lon="0.97867">
        <ele>176</ele>
        <time>2020-10-03T11:57:52.000Z</time>
      </trkpt>
      <trkpt lat="43.59511" lon="0.97868">
        <ele>176</ele>
        <time>2020-10-03T11:57:53.000Z</time>
      </trkpt>
      <trkpt lat="43.59508" lon="0.97869">
        <ele>176</ele>
        <time>2020-10-03T11:57:54.000Z</time>
      </trkpt>
      <trkpt lat="43.59505" lon="0.97869">
        <ele>176</ele>
        <time>2020-10-03T11:57:55.000Z</time>
      </trkpt>
      <trkpt lat="43.59502" lon="0.9787">
        <ele>176</ele>
        <time>2020-10-03T11:57:56.000Z</time>
      </trkpt>
      <trkpt lat="43.59499" lon="0.9787">
        <ele>176</ele>
        <time>2020-10-03T11:57:57.000Z</time>
      </trkpt>
      <trkpt lat="43.59497" lon="0.9787">
        <ele>176</ele>
        <time>2020-10-03T11:57:58.000Z</time>
      </trkpt>
      <trkpt lat="43.59494" lon="0.97869">
        <ele>176</ele>
        <time>2020-10-03T11:57:59.000Z</time>
      </trkpt>
      <trkpt lat="43.59492" lon="0.97869">
        <ele>176</ele>
        <time>2020-10-03T11:58:00.000Z</time>
      </trkpt>
      <trkpt lat="43.59489" lon="0.97868">
        <ele>176</ele>
        <time>2020-10-03T11:58:01.000Z</time>
      </trkpt>
      <trkpt lat="43.59487" lon="0.97867">
        <ele>176</ele>
        <time>2020-10-03T11:58:02.000Z</time>
      </trkpt>
      <trkpt lat="43.59484" lon="0.97865">
        <ele>176</ele>
        <time>2020-10-03T11:58:03.000Z</time>
      </trkpt>
      <trkpt lat="43.59483" lon="0.97863">
        <ele>176</ele>
        <time>2020-10-03T11:58:04.000Z</time>
      </trkpt>
      <trkpt lat="43.59481" lon="0.97861">
        <ele>176</ele>
        <time>2020-10-03T11:58:05.000Z</time>
      </trkpt>
      <trkpt lat="43.5948" lon="0.97859">
        <ele>176</ele>
        <time>2020-10-03T11:58:06.000Z</time>
      </trkpt>
      <trkpt lat="43.59479" lon="0.97856">
        <ele>176</ele>
        <time>2020-10-03T11:58:07.000Z</time>
      </trkpt>
      <trkpt lat="43.59478" lon="0.97853">
        <ele>176.29577414005</ele>
        <time>2020-10-03T11:58:08.000Z</time>
      </trkpt>
      <trkpt lat="43.59477" lon="0.97849">
        <ele>177</ele>
        <time>2020-10-03T11:58:09.000Z</time>
      </trkpt>
      <trkpt lat="43.59477" lon="0.97846">
        <ele>177</ele>
        <time>2020-10-03T11:58:10.000Z</time>
      </trkpt>
      <trkpt lat="43.59476" lon="0.97844">
        <ele>177.91304468807</ele>
        <time>2020-10-03T11:58:11.000Z</time>
      </trkpt>
      <trkpt lat="43.59476" lon="0.97841">
        <ele>179</ele>
        <time>2020-10-03T11:58:12.000Z</time>
      </trkpt>
      <trkpt lat="43.59476" lon="0.97838">
        <ele>179</ele>
        <time>2020-10-03T11:58:13.000Z</time>
      </trkpt>
      <trkpt lat="43.59475" lon="0.97835">
        <ele>179</ele>
        <time>2020-10-03T11:58:14.000Z</time>
      </trkpt>
      <trkpt lat="43.59476" lon="0.97832">
        <ele>179</ele>
        <time>2020-10-03T11:58:15.000Z</time>
      </trkpt>
      <trkpt lat="43.59476" lon="0.97829">
        <ele>179</ele>
        <time>2020-10-03T11:58:16.000Z</time>
      </trkpt>
      <trkpt lat="43.59476" lon="0.97825">
        <ele>179</ele>
        <time>2020-10-03T11:58:17.000Z</time>
      </trkpt>
      <trkpt lat="43.59476" lon="0.97822">
        <ele>179</ele>
        <time>2020-10-03T11:58:18.000Z</time>
      </trkpt>
      <trkpt lat="43.59476" lon="0.97819">
        <ele>179.36905142857</ele>
        <time>2020-10-03T11:58:19.000Z</time>
      </trkpt>
      <trkpt lat="43.59476" lon="0.97815">
        <ele>180</ele>
        <time>2020-10-03T11:58:20.000Z</time>
      </trkpt>
      <trkpt lat="43.59476" lon="0.97812">
        <ele>180</ele>
        <time>2020-10-03T11:58:21.000Z</time>
      </trkpt>
      <trkpt lat="43.59475" lon="0.97809">
        <ele>180</ele>
        <time>2020-10-03T11:58:22.000Z</time>
      </trkpt>
      <trkpt lat="43.59475" lon="0.97806">
        <ele>180.39130434783</ele>
        <time>2020-10-03T11:58:23.000Z</time>
      </trkpt>
      <trkpt lat="43.59475" lon="0.97803">
        <ele>181</ele>
        <time>2020-10-03T11:58:24.000Z</time>
      </trkpt>
      <trkpt lat="43.59474" lon="0.978">
        <ele>181</ele>
        <time>2020-10-03T11:58:25.000Z</time>
      </trkpt>
      <trkpt lat="43.59474" lon="0.97797">
        <ele>181.43636109754</ele>
        <time>2020-10-03T11:58:26.000Z</time>
      </trkpt>
      <trkpt lat="43.59474" lon="0.97794">
        <ele>182</ele>
        <time>2020-10-03T11:58:27.000Z</time>
      </trkpt>
      <trkpt lat="43.59473" lon="0.97791">
        <ele>182</ele>
        <time>2020-10-03T11:58:28.000Z</time>
      </trkpt>
      <trkpt lat="43.59471" lon="0.97789">
        <ele>182</ele>
        <time>2020-10-03T11:58:29.000Z</time>
      </trkpt>
      <trkpt lat="43.5947" lon="0.97786">
        <ele>182</ele>
        <time>2020-10-03T11:58:30.000Z</time>
      </trkpt>
      <trkpt lat="43.59468" lon="0.97783">
        <ele>182</ele>
        <time>2020-10-03T11:58:31.000Z</time>
      </trkpt>
      <trkpt lat="43.59467" lon="0.97781">
        <ele>182</ele>
        <time>2020-10-03T11:58:32.000Z</time>
      </trkpt>
      <trkpt lat="43.59465" lon="0.97779">
        <ele>182</ele>
        <time>2020-10-03T11:58:33.000Z</time>
      </trkpt>
      <trkpt lat="43.59463" lon="0.97777">
        <ele>182</ele>
        <time>2020-10-03T11:58:34.000Z</time>
      </trkpt>
      <trkpt lat="43.59461" lon="0.97775">
        <ele>182</ele>
        <time>2020-10-03T11:58:35.000Z</time>
      </trkpt>
      <trkpt lat="43.59459" lon="0.97773">
        <ele>182</ele>
        <time>2020-10-03T11:58:36.000Z</time>
      </trkpt>
      <trkpt lat="43.59458" lon="0.9777">
        <ele>182</ele>
        <time>2020-10-03T11:58:37.000Z</time>
      </trkpt>
      <trkpt lat="43.59456" lon="0.97768">
        <ele>182.87272219507</ele>
        <time>2020-10-03T11:58:38.000Z</time>
      </trkpt>
      <trkpt lat="43.59453" lon="0.97765">
        <ele>184</ele>
        <time>2020-10-03T11:58:40.000Z</time>
      </trkpt>
      <trkpt lat="43.59451" lon="0.97763">
        <ele>184</ele>
        <time>2020-10-03T11:58:41.000Z</time>
      </trkpt>
      <trkpt lat="43.59448" lon="0.97759">
        <ele>184</ele>
        <time>2020-10-03T11:58:43.000Z</time>
      </trkpt>
      <trkpt lat="43.59447" lon="0.97757">
        <ele>184.48543520406</ele>
        <time>2020-10-03T11:58:44.000Z</time>
      </trkpt>
      <trkpt lat="43.59445" lon="0.97755">
        <ele>185</ele>
        <time>2020-10-03T11:58:45.000Z</time>
      </trkpt>
      <trkpt lat="43.59443" lon="0.97752">
        <ele>185</ele>
        <time>2020-10-03T11:58:46.000Z</time>
      </trkpt>
      <trkpt lat="43.59442" lon="0.9775">
        <ele>185</ele>
        <time>2020-10-03T11:58:47.000Z</time>
      </trkpt>
      <trkpt lat="43.5944" lon="0.97747">
        <ele>185</ele>
        <time>2020-10-03T11:58:48.000Z</time>
      </trkpt>
      <trkpt lat="43.59442" lon="0.9775">
        <ele>185</ele>
        <time>2020-10-03T11:58:49.000Z</time>
      </trkpt>
      <trkpt lat="43.59441" lon="0.97747">
        <ele>185</ele>
        <time>2020-10-03T11:58:51.000Z</time>
      </trkpt>
      <trkpt lat="43.59439" lon="0.97745">
        <ele>185.22221735991</ele>
        <time>2020-10-03T11:58:52.000Z</time>
      </trkpt>
      <trkpt lat="43.59438" lon="0.97742">
        <ele>186</ele>
        <time>2020-10-03T11:58:53.000Z</time>
      </trkpt>
      <trkpt lat="43.59436" lon="0.97739">
        <ele>186</ele>
        <time>2020-10-03T11:58:54.000Z</time>
      </trkpt>
      <trkpt lat="43.59434" lon="0.97736">
        <ele>186</ele>
        <time>2020-10-03T11:58:55.000Z</time>
      </trkpt>
      <trkpt lat="43.59433" lon="0.97733">
        <ele>186</ele>
        <time>2020-10-03T11:58:56.000Z</time>
      </trkpt>
      <trkpt lat="43.59431" lon="0.9773">
        <ele>186</ele>
        <time>2020-10-03T11:58:57.000Z</time>
      </trkpt>
      <trkpt lat="43.5943" lon="0.97727">
        <ele>186</ele>
        <time>2020-10-03T11:58:58.000Z</time>
      </trkpt>
      <trkpt lat="43.59428" lon="0.97724">
        <ele>186</ele>
        <time>2020-10-03T11:58:59.000Z</time>
      </trkpt>
      <trkpt lat="43.59426" lon="0.97721">
        <ele>186.38384360778</ele>
        <time>2020-10-03T11:59:00.000Z</time>
      </trkpt>
      <trkpt lat="43.59425" lon="0.97718">
        <ele>187</ele>
        <time>2020-10-03T11:59:01.000Z</time>
      </trkpt>
      <trkpt lat="43.59423" lon="0.97715">
        <ele>187</ele>
        <time>2020-10-03T11:59:02.000Z</time>
      </trkpt>
      <trkpt lat="43.59422" lon="0.97712">
        <ele>187</ele>
        <time>2020-10-03T11:59:03.000Z</time>
      </trkpt>
      <trkpt lat="43.5942" lon="0.97709">
        <ele>187</ele>
        <time>2020-10-03T11:59:04.000Z</time>
      </trkpt>
      <trkpt lat="43.59419" lon="0.97707">
        <ele>187</ele>
        <time>2020-10-03T11:59:05.000Z</time>
      </trkpt>
      <trkpt lat="43.59417" lon="0.97704">
        <ele>187</ele>
        <time>2020-10-03T11:59:06.000Z</time>
      </trkpt>
      <trkpt lat="43.59416" lon="0.97702">
        <ele>187.45054434973</ele>
        <time>2020-10-03T11:59:07.000Z</time>
      </trkpt>
      <trkpt lat="43.59414" lon="0.97699">
        <ele>188</ele>
        <time>2020-10-03T11:59:08.000Z</time>
      </trkpt>
      <trkpt lat="43.59413" lon="0.97697">
        <ele>188</ele>
        <time>2020-10-03T11:59:09.000Z</time>
      </trkpt>
      <trkpt lat="43.59411" lon="0.97695">
        <ele>188</ele>
        <time>2020-10-03T11:59:10.000Z</time>
      </trkpt>
      <trkpt lat="43.5941" lon="0.97693">
        <ele>188</ele>
        <time>2020-10-03T11:59:11.000Z</time>
      </trkpt>
      <trkpt lat="43.59407" lon="0.9769">
        <ele>188</ele>
        <time>2020-10-03T11:59:12.000Z</time>
      </trkpt>
      <trkpt lat="43.59405" lon="0.97688">
        <ele>188</ele>
        <time>2020-10-03T11:59:13.000Z</time>
      </trkpt>
      <trkpt lat="43.59403" lon="0.97686">
        <ele>188</ele>
        <time>2020-10-03T11:59:14.000Z</time>
      </trkpt>
      <trkpt lat="43.59401" lon="0.97684">
        <ele>188</ele>
        <time>2020-10-03T11:59:15.000Z</time>
      </trkpt>
      <trkpt lat="43.59399" lon="0.97682">
        <ele>188</ele>
        <time>2020-10-03T11:59:16.000Z</time>
      </trkpt>
      <trkpt lat="43.59397" lon="0.9768">
        <ele>188.32758430438</ele>
        <time>2020-10-03T11:59:17.000Z</time>
      </trkpt>
      <trkpt lat="43.59395" lon="0.97679">
        <ele>189</ele>
        <time>2020-10-03T11:59:18.000Z</time>
      </trkpt>
      <trkpt lat="43.59393" lon="0.97677">
        <ele>189</ele>
        <time>2020-10-03T11:59:19.000Z</time>
      </trkpt>
      <trkpt lat="43.5939" lon="0.97675">
        <ele>189</ele>
        <time>2020-10-03T11:59:20.000Z</time>
      </trkpt>
      <trkpt lat="43.59388" lon="0.97673">
        <ele>189</ele>
        <time>2020-10-03T11:59:21.000Z</time>
      </trkpt>
      <trkpt lat="43.59386" lon="0.97672">
        <ele>189.31818181818</ele>
        <time>2020-10-03T11:59:22.000Z</time>
      </trkpt>
      <trkpt lat="43.59384" lon="0.97671">
        <ele>190</ele>
        <time>2020-10-03T11:59:23.000Z</time>
      </trkpt>
      <trkpt lat="43.59381" lon="0.9767">
        <ele>190</ele>
        <time>2020-10-03T11:59:24.000Z</time>
      </trkpt>
      <trkpt lat="43.59379" lon="0.97669">
        <ele>190</ele>
        <time>2020-10-03T11:59:25.000Z</time>
      </trkpt>
      <trkpt lat="43.59377" lon="0.97667">
        <ele>190</ele>
        <time>2020-10-03T11:59:26.000Z</time>
      </trkpt>
      <trkpt lat="43.59375" lon="0.97666">
        <ele>190</ele>
        <time>2020-10-03T11:59:27.000Z</time>
      </trkpt>
      <trkpt lat="43.59373" lon="0.97664">
        <ele>190</ele>
        <time>2020-10-03T11:59:28.000Z</time>
      </trkpt>
      <trkpt lat="43.59371" lon="0.97662">
        <ele>190</ele>
        <time>2020-10-03T11:59:29.000Z</time>
      </trkpt>
      <trkpt lat="43.59369" lon="0.97661">
        <ele>190.32038424735</ele>
        <time>2020-10-03T11:59:30.000Z</time>
      </trkpt>
      <trkpt lat="43.59367" lon="0.97659">
        <ele>191</ele>
        <time>2020-10-03T11:59:31.000Z</time>
      </trkpt>
      <trkpt lat="43.59365" lon="0.97657">
        <ele>191</ele>
        <time>2020-10-03T11:59:32.000Z</time>
      </trkpt>
      <trkpt lat="43.59364" lon="0.97655">
        <ele>191</ele>
        <time>2020-10-03T11:59:33.000Z</time>
      </trkpt>
      <trkpt lat="43.59362" lon="0.97654">
        <ele>191</ele>
        <time>2020-10-03T11:59:34.000Z</time>
      </trkpt>
      <trkpt lat="43.5936" lon="0.97651">
        <ele>191</ele>
        <time>2020-10-03T11:59:35.000Z</time>
      </trkpt>
      <trkpt lat="43.59359" lon="0.97649">
        <ele>191.73770354205</ele>
        <time>2020-10-03T11:59:36.000Z</time>
      </trkpt>
      <trkpt lat="43.59357" lon="0.97647">
        <ele>193</ele>
        <time>2020-10-03T11:59:37.000Z</time>
      </trkpt>
      <trkpt lat="43.59356" lon="0.97645">
        <ele>193</ele>
        <time>2020-10-03T11:59:38.000Z</time>
      </trkpt>
      <trkpt lat="43.59354" lon="0.97643">
        <ele>193.38182177849</ele>
        <time>2020-10-03T11:59:39.000Z</time>
      </trkpt>
      <trkpt lat="43.59353" lon="0.9764">
        <ele>194</ele>
        <time>2020-10-03T11:59:40.000Z</time>
      </trkpt>
      <trkpt lat="43.59351" lon="0.97638">
        <ele>194</ele>
        <time>2020-10-03T11:59:41.000Z</time>
      </trkpt>
      <trkpt lat="43.5935" lon="0.97636">
        <ele>194</ele>
        <time>2020-10-03T11:59:42.000Z</time>
      </trkpt>
      <trkpt lat="43.59348" lon="0.97633">
        <ele>194</ele>
        <time>2020-10-03T11:59:43.000Z</time>
      </trkpt>
      <trkpt lat="43.59347" lon="0.97631">
        <ele>194</ele>
        <time>2020-10-03T11:59:44.000Z</time>
      </trkpt>
      <trkpt lat="43.59345" lon="0.97628">
        <ele>194</ele>
        <time>2020-10-03T11:59:45.000Z</time>
      </trkpt>
      <trkpt lat="43.59343" lon="0.97625">
        <ele>194.35483648976</ele>
        <time>2020-10-03T11:59:46.000Z</time>
      </trkpt>
      <trkpt lat="43.59341" lon="0.97622">
        <ele>195</ele>
        <time>2020-10-03T11:59:47.000Z</time>
      </trkpt>
      <trkpt lat="43.59339" lon="0.9762">
        <ele>195</ele>
        <time>2020-10-03T11:59:48.000Z</time>
      </trkpt>
      <trkpt lat="43.59338" lon="0.97618">
        <ele>195</ele>
        <time>2020-10-03T11:59:49.000Z</time>
      </trkpt>
      <trkpt lat="43.59336" lon="0.97615">
        <ele>195</ele>
        <time>2020-10-03T11:59:50.000Z</time>
      </trkpt>
      <trkpt lat="43.59334" lon="0.97613">
        <ele>195</ele>
        <time>2020-10-03T11:59:51.000Z</time>
      </trkpt>
      <trkpt lat="43.59332" lon="0.97611">
        <ele>195</ele>
        <time>2020-10-03T11:59:52.000Z</time>
      </trkpt>
      <trkpt lat="43.5933" lon="0.97609">
        <ele>195</ele>
        <time>2020-10-03T11:59:53.000Z</time>
      </trkpt>
      <trkpt lat="43.59328" lon="0.97607">
        <ele>195</ele>
        <time>2020-10-03T11:59:54.000Z</time>
      </trkpt>
      <trkpt lat="43.59325" lon="0.97605">
        <ele>195</ele>
        <time>2020-10-03T11:59:55.000Z</time>
      </trkpt>
      <trkpt lat="43.59323" lon="0.97603">
        <ele>195</ele>
        <time>2020-10-03T11:59:56.000Z</time>
      </trkpt>
      <trkpt lat="43.59321" lon="0.97601">
        <ele>195</ele>
        <time>2020-10-03T11:59:57.000Z</time>
      </trkpt>
      <trkpt lat="43.59318" lon="0.97598">
        <ele>195</ele>
        <time>2020-10-03T11:59:58.000Z</time>
      </trkpt>
      <trkpt lat="43.59316" lon="0.97595">
        <ele>194.54368763126</ele>
        <time>2020-10-03T11:59:59.000Z</time>
      </trkpt>
      <trkpt lat="43.59314" lon="0.97593">
        <ele>194</ele>
        <time>2020-10-03T12:00:00.000Z</time>
      </trkpt>
      <trkpt lat="43.59312" lon="0.9759">
        <ele>194</ele>
        <time>2020-10-03T12:00:01.000Z</time>
      </trkpt>
      <trkpt lat="43.5931" lon="0.97587">
        <ele>194</ele>
        <time>2020-10-03T12:00:02.000Z</time>
      </trkpt>
      <trkpt lat="43.59308" lon="0.97585">
        <ele>193.29670576983</ele>
        <time>2020-10-03T12:00:03.000Z</time>
      </trkpt>
      <trkpt lat="43.59305" lon="0.97583">
        <ele>192</ele>
        <time>2020-10-03T12:00:04.000Z</time>
      </trkpt>
      <trkpt lat="43.59302" lon="0.9758">
        <ele>191.5901608385</ele>
        <time>2020-10-03T12:00:05.000Z</time>
      </trkpt>
      <trkpt lat="43.593" lon="0.97577">
        <ele>191</ele>
        <time>2020-10-03T12:00:06.000Z</time>
      </trkpt>
      <trkpt lat="43.59297" lon="0.97574">
        <ele>190.55555871603</ele>
        <time>2020-10-03T12:00:07.000Z</time>
      </trkpt>
      <trkpt lat="43.59295" lon="0.97571">
        <ele>190</ele>
        <time>2020-10-03T12:00:08.000Z</time>
      </trkpt>
      <trkpt lat="43.59292" lon="0.97568">
        <ele>190</ele>
        <time>2020-10-03T12:00:09.000Z</time>
      </trkpt>
      <trkpt lat="43.59289" lon="0.97564">
        <ele>188.94914739445</ele>
        <time>2020-10-03T12:00:10.000Z</time>
      </trkpt>
      <trkpt lat="43.59286" lon="0.97561">
        <ele>186</ele>
        <time>2020-10-03T12:00:11.000Z</time>
      </trkpt>
      <trkpt lat="43.59283" lon="0.97558">
        <ele>185.19999109568</ele>
        <time>2020-10-03T12:00:12.000Z</time>
      </trkpt>
      <trkpt lat="43.59279" lon="0.97556">
        <ele>184</ele>
        <time>2020-10-03T12:00:13.000Z</time>
      </trkpt>
      <trkpt lat="43.59275" lon="0.97553">
        <ele>183.66115877331</ele>
        <time>2020-10-03T12:00:14.000Z</time>
      </trkpt>
      <trkpt lat="43.59271" lon="0.9755">
        <ele>183</ele>
        <time>2020-10-03T12:00:15.000Z</time>
      </trkpt>
      <trkpt lat="43.59269" lon="0.97547">
        <ele>182.2727296235</ele>
        <time>2020-10-03T12:00:16.000Z</time>
      </trkpt>
      <trkpt lat="43.59266" lon="0.97544">
        <ele>181</ele>
        <time>2020-10-03T12:00:17.000Z</time>
      </trkpt>
      <trkpt lat="43.59264" lon="0.97541">
        <ele>180.62650360866</ele>
        <time>2020-10-03T12:00:18.000Z</time>
      </trkpt>
      <trkpt lat="43.59261" lon="0.97539">
        <ele>180</ele>
        <time>2020-10-03T12:00:19.000Z</time>
      </trkpt>
      <trkpt lat="43.59258" lon="0.97536">
        <ele>179.61061836635</ele>
        <time>2020-10-03T12:00:20.000Z</time>
      </trkpt>
      <trkpt lat="43.59255" lon="0.97534">
        <ele>179</ele>
        <time>2020-10-03T12:00:21.000Z</time>
      </trkpt>
      <trkpt lat="43.59251" lon="0.97531">
        <ele>178.67777904198</ele>
        <time>2020-10-03T12:00:22.000Z</time>
      </trkpt>
      <trkpt lat="43.59248" lon="0.97528">
        <ele>178</ele>
        <time>2020-10-03T12:00:23.000Z</time>
      </trkpt>
      <trkpt lat="43.59245" lon="0.97526">
        <ele>178</ele>
        <time>2020-10-03T12:00:24.000Z</time>
      </trkpt>
      <trkpt lat="43.59242" lon="0.97524">
        <ele>177.16666666667</ele>
        <time>2020-10-03T12:00:25.000Z</time>
      </trkpt>
      <trkpt lat="43.59239" lon="0.97521">
        <ele>176</ele>
        <time>2020-10-03T12:00:26.000Z</time>
      </trkpt>
      <trkpt lat="43.59234" lon="0.97515">
        <ele>175</ele>
        <time>2020-10-03T12:00:28.000Z</time>
      </trkpt>
      <trkpt lat="43.59231" lon="0.97512">
        <ele>174.53703659808</ele>
        <time>2020-10-03T12:00:29.000Z</time>
      </trkpt>
      <trkpt lat="43.59229" lon="0.97509">
        <ele>174</ele>
        <time>2020-10-03T12:00:30.000Z</time>
      </trkpt>
      <trkpt lat="43.59225" lon="0.97507">
        <ele>173.54128257219</ele>
        <time>2020-10-03T12:00:31.000Z</time>
      </trkpt>
      <trkpt lat="43.59222" lon="0.97503">
        <ele>173</ele>
        <time>2020-10-03T12:00:32.000Z</time>
      </trkpt>
      <trkpt lat="43.59219" lon="0.97499">
        <ele>173</ele>
        <time>2020-10-03T12:00:33.000Z</time>
      </trkpt>
      <trkpt lat="43.59216" lon="0.97496">
        <ele>173</ele>
        <time>2020-10-03T12:00:34.000Z</time>
      </trkpt>
      <trkpt lat="43.59214" lon="0.97493">
        <ele>173</ele>
        <time>2020-10-03T12:00:35.000Z</time>
      </trkpt>
      <trkpt lat="43.59213" lon="0.9749">
        <ele>172.58474622235</ele>
        <time>2020-10-03T12:00:36.000Z</time>
      </trkpt>
      <trkpt lat="43.59213" lon="0.97485">
        <ele>172</ele>
        <time>2020-10-03T12:00:37.000Z</time>
      </trkpt>
      <trkpt lat="43.59213" lon="0.97481">
        <ele>171.6879425542</ele>
        <time>2020-10-03T12:00:38.000Z</time>
      </trkpt>
      <trkpt lat="43.59216" lon="0.97474">
        <ele>171</ele>
        <time>2020-10-03T12:00:40.000Z</time>
      </trkpt>
      <trkpt lat="43.59218" lon="0.97471">
        <ele>170.58182156696</ele>
        <time>2020-10-03T12:00:41.000Z</time>
      </trkpt>
      <trkpt lat="43.59219" lon="0.97468">
        <ele>170</ele>
        <time>2020-10-03T12:00:42.000Z</time>
      </trkpt>
      <trkpt lat="43.59221" lon="0.97465">
        <ele>170</ele>
        <time>2020-10-03T12:00:43.000Z</time>
      </trkpt>
      <trkpt lat="43.59223" lon="0.97462">
        <ele>169.63888592593</ele>
        <time>2020-10-03T12:00:44.000Z</time>
      </trkpt>
      <trkpt lat="43.59225" lon="0.9746">
        <ele>169</ele>
        <time>2020-10-03T12:00:45.000Z</time>
      </trkpt>
      <trkpt lat="43.59231" lon="0.97449">
        <ele>171</ele>
        <time>2020-10-03T12:00:49.000Z</time>
      </trkpt>
      <trkpt lat="43.59232" lon="0.97447">
        <ele>171</ele>
        <time>2020-10-03T12:00:50.000Z</time>
      </trkpt>
      <trkpt lat="43.59233" lon="0.97445">
        <ele>171</ele>
        <time>2020-10-03T12:00:51.000Z</time>
      </trkpt>
      <trkpt lat="43.59236" lon="0.97442">
        <ele>171</ele>
        <time>2020-10-03T12:00:52.000Z</time>
      </trkpt>
      <trkpt lat="43.59244" lon="0.9743">
        <ele>171</ele>
        <time>2020-10-03T12:00:56.000Z</time>
      </trkpt>
      <trkpt lat="43.59248" lon="0.97422">
        <ele>171.4099968</ele>
        <time>2020-10-03T12:00:59.000Z</time>
      </trkpt>
      <trkpt lat="43.5925" lon="0.9742">
        <ele>172</ele>
        <time>2020-10-03T12:01:00.000Z</time>
      </trkpt>
      <trkpt lat="43.59257" lon="0.97414">
        <ele>172</ele>
        <time>2020-10-03T12:01:03.000Z</time>
      </trkpt>
      <trkpt lat="43.59259" lon="0.97413">
        <ele>171.69902695448</ele>
        <time>2020-10-03T12:01:04.000Z</time>
      </trkpt>
      <trkpt lat="43.59261" lon="0.97411">
        <ele>171</ele>
        <time>2020-10-03T12:01:05.000Z</time>
      </trkpt>
      <trkpt lat="43.59263" lon="0.97409">
        <ele>171</ele>
        <time>2020-10-03T12:01:06.000Z</time>
      </trkpt>
      <trkpt lat="43.59266" lon="0.97407">
        <ele>171</ele>
        <time>2020-10-03T12:01:07.000Z</time>
      </trkpt>
      <trkpt lat="43.59268" lon="0.97404">
        <ele>171</ele>
        <time>2020-10-03T12:01:08.000Z</time>
      </trkpt>
      <trkpt lat="43.59271" lon="0.97402">
        <ele>171</ele>
        <time>2020-10-03T12:01:09.000Z</time>
      </trkpt>
      <trkpt lat="43.59273" lon="0.974">
        <ele>171</ele>
        <time>2020-10-03T12:01:10.000Z</time>
      </trkpt>
      <trkpt lat="43.59276" lon="0.97398">
        <ele>171</ele>
        <time>2020-10-03T12:01:11.000Z</time>
      </trkpt>
      <trkpt lat="43.59278" lon="0.97395">
        <ele>171</ele>
        <time>2020-10-03T12:01:12.000Z</time>
      </trkpt>
      <trkpt lat="43.5928" lon="0.97393">
        <ele>171.46078455978</ele>
        <time>2020-10-03T12:01:13.000Z</time>
      </trkpt>
      <trkpt lat="43.59282" lon="0.97392">
        <ele>172</ele>
        <time>2020-10-03T12:01:14.000Z</time>
      </trkpt>
      <trkpt lat="43.59287" lon="0.97388">
        <ele>172</ele>
        <time>2020-10-03T12:01:16.000Z</time>
      </trkpt>
      <trkpt lat="43.59291" lon="0.97385">
        <ele>172</ele>
        <time>2020-10-03T12:01:18.000Z</time>
      </trkpt>
      <trkpt lat="43.59294" lon="0.97382">
        <ele>172</ele>
        <time>2020-10-03T12:01:19.000Z</time>
      </trkpt>
      <trkpt lat="43.59296" lon="0.9738">
        <ele>172</ele>
        <time>2020-10-03T12:01:20.000Z</time>
      </trkpt>
      <trkpt lat="43.59299" lon="0.97377">
        <ele>172</ele>
        <time>2020-10-03T12:01:21.000Z</time>
      </trkpt>
      <trkpt lat="43.59302" lon="0.97374">
        <ele>172</ele>
        <time>2020-10-03T12:01:22.000Z</time>
      </trkpt>
      <trkpt lat="43.59305" lon="0.97371">
        <ele>172</ele>
        <time>2020-10-03T12:01:23.000Z</time>
      </trkpt>
      <trkpt lat="43.59307" lon="0.97368">
        <ele>172</ele>
        <time>2020-10-03T12:01:24.000Z</time>
      </trkpt>
      <trkpt lat="43.59309" lon="0.97365">
        <ele>172</ele>
        <time>2020-10-03T12:01:25.000Z</time>
      </trkpt>
      <trkpt lat="43.59311" lon="0.97363">
        <ele>172</ele>
        <time>2020-10-03T12:01:26.000Z</time>
      </trkpt>
      <trkpt lat="43.59314" lon="0.9736">
        <ele>172</ele>
        <time>2020-10-03T12:01:27.000Z</time>
      </trkpt>
      <trkpt lat="43.59316" lon="0.97358">
        <ele>172</ele>
        <time>2020-10-03T12:01:28.000Z</time>
      </trkpt>
      <trkpt lat="43.59319" lon="0.97355">
        <ele>172</ele>
        <time>2020-10-03T12:01:29.000Z</time>
      </trkpt>
      <trkpt lat="43.59321" lon="0.97353">
        <ele>172</ele>
        <time>2020-10-03T12:01:30.000Z</time>
      </trkpt>
      <trkpt lat="43.59323" lon="0.97351">
        <ele>172</ele>
        <time>2020-10-03T12:01:31.000Z</time>
      </trkpt>
      <trkpt lat="43.59326" lon="0.97349">
        <ele>172</ele>
        <time>2020-10-03T12:01:32.000Z</time>
      </trkpt>
      <trkpt lat="43.59328" lon="0.97347">
        <ele>172</ele>
        <time>2020-10-03T12:01:33.000Z</time>
      </trkpt>
      <trkpt lat="43.5933" lon="0.97345">
        <ele>172</ele>
        <time>2020-10-03T12:01:34.000Z</time>
      </trkpt>
      <trkpt lat="43.59332" lon="0.97343">
        <ele>172</ele>
        <time>2020-10-03T12:01:35.000Z</time>
      </trkpt>
      <trkpt lat="43.59335" lon="0.97342">
        <ele>172</ele>
        <time>2020-10-03T12:01:36.000Z</time>
      </trkpt>
      <trkpt lat="43.59337" lon="0.9734">
        <ele>172</ele>
        <time>2020-10-03T12:01:37.000Z</time>
      </trkpt>
      <trkpt lat="43.59339" lon="0.97337">
        <ele>172.34444555061</ele>
        <time>2020-10-03T12:01:38.000Z</time>
      </trkpt>
      <trkpt lat="43.59341" lon="0.97334">
        <ele>173</ele>
        <time>2020-10-03T12:01:39.000Z</time>
      </trkpt>
      <trkpt lat="43.59343" lon="0.97331">
        <ele>173</ele>
        <time>2020-10-03T12:01:40.000Z</time>
      </trkpt>
      <trkpt lat="43.59348" lon="0.97323">
        <ele>173</ele>
        <time>2020-10-03T12:01:43.000Z</time>
      </trkpt>
      <trkpt lat="43.5935" lon="0.9732">
        <ele>173</ele>
        <time>2020-10-03T12:01:44.000Z</time>
      </trkpt>
      <trkpt lat="43.59351" lon="0.97317">
        <ele>173</ele>
        <time>2020-10-03T12:01:45.000Z</time>
      </trkpt>
      <trkpt lat="43.59352" lon="0.97314">
        <ele>172.65217391304</ele>
        <time>2020-10-03T12:01:46.000Z</time>
      </trkpt>
      <trkpt lat="43.59354" lon="0.97309">
        <ele>172</ele>
        <time>2020-10-03T12:01:48.000Z</time>
      </trkpt>
      <trkpt lat="43.59355" lon="0.97307">
        <ele>172</ele>
        <time>2020-10-03T12:01:49.000Z</time>
      </trkpt>
      <trkpt lat="43.59357" lon="0.97304">
        <ele>172</ele>
        <time>2020-10-03T12:01:50.000Z</time>
      </trkpt>
      <trkpt lat="43.59359" lon="0.97297">
        <ele>172</ele>
        <time>2020-10-03T12:01:52.000Z</time>
      </trkpt>
      <trkpt lat="43.59364" lon="0.97286">
        <ele>173</ele>
        <time>2020-10-03T12:01:55.000Z</time>
      </trkpt>
      <trkpt lat="43.59368" lon="0.97277">
        <ele>173</ele>
        <time>2020-10-03T12:01:58.000Z</time>
      </trkpt>
      <trkpt lat="43.5937" lon="0.97274">
        <ele>173</ele>
        <time>2020-10-03T12:01:59.000Z</time>
      </trkpt>
      <trkpt lat="43.59371" lon="0.9727">
        <ele>173</ele>
        <time>2020-10-03T12:02:00.000Z</time>
      </trkpt>
      <trkpt lat="43.59372" lon="0.97267">
        <ele>173</ele>
        <time>2020-10-03T12:02:01.000Z</time>
      </trkpt>
      <trkpt lat="43.59373" lon="0.97264">
        <ele>173</ele>
        <time>2020-10-03T12:02:02.000Z</time>
      </trkpt>
      <trkpt lat="43.59374" lon="0.97261">
        <ele>173.34782608696</ele>
        <time>2020-10-03T12:02:03.000Z</time>
      </trkpt>
      <trkpt lat="43.59375" lon="0.97257">
        <ele>174</ele>
        <time>2020-10-03T12:02:04.000Z</time>
      </trkpt>
      <trkpt lat="43.59376" lon="0.97254">
        <ele>174</ele>
        <time>2020-10-03T12:02:05.000Z</time>
      </trkpt>
      <trkpt lat="43.59377" lon="0.9725">
        <ele>174</ele>
        <time>2020-10-03T12:02:06.000Z</time>
      </trkpt>
      <trkpt lat="43.59378" lon="0.97247">
        <ele>174</ele>
        <time>2020-10-03T12:02:07.000Z</time>
      </trkpt>
      <trkpt lat="43.59378" lon="0.97244">
        <ele>174.26890683991</ele>
        <time>2020-10-03T12:02:08.000Z</time>
      </trkpt>
      <trkpt lat="43.59378" lon="0.97241">
        <ele>175</ele>
        <time>2020-10-03T12:02:09.000Z</time>
      </trkpt>
      <trkpt lat="43.59378" lon="0.97238">
        <ele>175</ele>
        <time>2020-10-03T12:02:10.000Z</time>
      </trkpt>
      <trkpt lat="43.59379" lon="0.97234">
        <ele>175</ele>
        <time>2020-10-03T12:02:11.000Z</time>
      </trkpt>
      <trkpt lat="43.59379" lon="0.97231">
        <ele>173</ele>
        <time>2020-10-03T12:02:12.000Z</time>
      </trkpt>
      <trkpt lat="43.59379" lon="0.97228">
        <ele>173</ele>
        <time>2020-10-03T12:02:13.000Z</time>
      </trkpt>
      <trkpt lat="43.59379" lon="0.97224">
        <ele>173</ele>
        <time>2020-10-03T12:02:14.000Z</time>
      </trkpt>
      <trkpt lat="43.5938" lon="0.97221">
        <ele>173</ele>
        <time>2020-10-03T12:02:15.000Z</time>
      </trkpt>
      <trkpt lat="43.5938" lon="0.97217">
        <ele>173</ele>
        <time>2020-10-03T12:02:16.000Z</time>
      </trkpt>
      <trkpt lat="43.59381" lon="0.97213">
        <ele>173</ele>
        <time>2020-10-03T12:02:17.000Z</time>
      </trkpt>
      <trkpt lat="43.59382" lon="0.9721">
        <ele>173</ele>
        <time>2020-10-03T12:02:18.000Z</time>
      </trkpt>
      <trkpt lat="43.59382" lon="0.97206">
        <ele>173.14400401405</ele>
        <time>2020-10-03T12:02:19.000Z</time>
      </trkpt>
      <trkpt lat="43.59383" lon="0.97203">
        <ele>173.9439978701</ele>
        <time>2020-10-03T12:02:20.000Z</time>
      </trkpt>
      <trkpt lat="43.59384" lon="0.972">
        <ele>174</ele>
        <time>2020-10-03T12:02:21.000Z</time>
      </trkpt>
      <trkpt lat="43.59385" lon="0.97196">
        <ele>174</ele>
        <time>2020-10-03T12:02:22.000Z</time>
      </trkpt>
      <trkpt lat="43.59385" lon="0.97194">
        <ele>173.58620841854</ele>
        <time>2020-10-03T12:02:23.000Z</time>
      </trkpt>
      <trkpt lat="43.59385" lon="0.9719">
        <ele>173</ele>
        <time>2020-10-03T12:02:24.000Z</time>
      </trkpt>
      <trkpt lat="43.59386" lon="0.97187">
        <ele>173</ele>
        <time>2020-10-03T12:02:25.000Z</time>
      </trkpt>
      <trkpt lat="43.59387" lon="0.97183">
        <ele>172.68084642828</ele>
        <time>2020-10-03T12:02:26.000Z</time>
      </trkpt>
      <trkpt lat="43.59387" lon="0.9718">
        <ele>172</ele>
        <time>2020-10-03T12:02:27.000Z</time>
      </trkpt>
      <trkpt lat="43.59387" lon="0.97176">
        <ele>172.08824304484</ele>
        <time>2020-10-03T12:02:28.000Z</time>
      </trkpt>
      <trkpt lat="43.59388" lon="0.97172">
        <ele>173</ele>
        <time>2020-10-03T12:02:29.000Z</time>
      </trkpt>
      <trkpt lat="43.59388" lon="0.97169">
        <ele>173</ele>
        <time>2020-10-03T12:02:30.000Z</time>
      </trkpt>
      <trkpt lat="43.59389" lon="0.97166">
        <ele>173</ele>
        <time>2020-10-03T12:02:31.000Z</time>
      </trkpt>
      <trkpt lat="43.59389" lon="0.97162">
        <ele>173</ele>
        <time>2020-10-03T12:02:32.000Z</time>
      </trkpt>
      <trkpt lat="43.5939" lon="0.97158">
        <ele>173</ele>
        <time>2020-10-03T12:02:33.000Z</time>
      </trkpt>
      <trkpt lat="43.59391" lon="0.97154">
        <ele>173</ele>
        <time>2020-10-03T12:02:34.000Z</time>
      </trkpt>
      <trkpt lat="43.59391" lon="0.9715">
        <ele>173</ele>
        <time>2020-10-03T12:02:35.000Z</time>
      </trkpt>
      <trkpt lat="43.59392" lon="0.97147">
        <ele>173</ele>
        <time>2020-10-03T12:02:36.000Z</time>
      </trkpt>
      <trkpt lat="43.59392" lon="0.97144">
        <ele>173</ele>
        <time>2020-10-03T12:02:37.000Z</time>
      </trkpt>
      <trkpt lat="43.59392" lon="0.97141">
        <ele>173</ele>
        <time>2020-10-03T12:02:38.000Z</time>
      </trkpt>
      <trkpt lat="43.59393" lon="0.97138">
        <ele>173</ele>
        <time>2020-10-03T12:02:39.000Z</time>
      </trkpt>
      <trkpt lat="43.59393" lon="0.97136">
        <ele>173</ele>
        <time>2020-10-03T12:02:40.000Z</time>
      </trkpt>
      <trkpt lat="43.59394" lon="0.97132">
        <ele>173</ele>
        <time>2020-10-03T12:02:41.000Z</time>
      </trkpt>
      <trkpt lat="43.59395" lon="0.97129">
        <ele>173</ele>
        <time>2020-10-03T12:02:42.000Z</time>
      </trkpt>
      <trkpt lat="43.59396" lon="0.97126">
        <ele>173</ele>
        <time>2020-10-03T12:02:43.000Z</time>
      </trkpt>
      <trkpt lat="43.59396" lon="0.97123">
        <ele>173</ele>
        <time>2020-10-03T12:02:44.000Z</time>
      </trkpt>
      <trkpt lat="43.59396" lon="0.97119">
        <ele>173</ele>
        <time>2020-10-03T12:02:45.000Z</time>
      </trkpt>
      <trkpt lat="43.59397" lon="0.97115">
        <ele>173.33333333333</ele>
        <time>2020-10-03T12:02:46.000Z</time>
      </trkpt>
      <trkpt lat="43.59397" lon="0.97112">
        <ele>174</ele>
        <time>2020-10-03T12:02:47.000Z</time>
      </trkpt>
      <trkpt lat="43.59398" lon="0.97108">
        <ele>174</ele>
        <time>2020-10-03T12:02:48.000Z</time>
      </trkpt>
      <trkpt lat="43.59398" lon="0.97104">
        <ele>174</ele>
        <time>2020-10-03T12:02:49.000Z</time>
      </trkpt>
      <trkpt lat="43.59399" lon="0.971">
        <ele>174</ele>
        <time>2020-10-03T12:02:50.000Z</time>
      </trkpt>
      <trkpt lat="43.59399" lon="0.97096">
        <ele>174</ele>
        <time>2020-10-03T12:02:51.000Z</time>
      </trkpt>
      <trkpt lat="43.594" lon="0.97092">
        <ele>174</ele>
        <time>2020-10-03T12:02:52.000Z</time>
      </trkpt>
      <trkpt lat="43.594" lon="0.97089">
        <ele>174</ele>
        <time>2020-10-03T12:02:53.000Z</time>
      </trkpt>
      <trkpt lat="43.59401" lon="0.97086">
        <ele>174.96078406767</ele>
        <time>2020-10-03T12:02:54.000Z</time>
      </trkpt>
      <trkpt lat="43.59401" lon="0.97083">
        <ele>176</ele>
        <time>2020-10-03T12:02:55.000Z</time>
      </trkpt>
      <trkpt lat="43.59401" lon="0.9708">
        <ele>176</ele>
        <time>2020-10-03T12:02:56.000Z</time>
      </trkpt>
      <trkpt lat="43.59402" lon="0.97076">
        <ele>176</ele>
        <time>2020-10-03T12:02:57.000Z</time>
      </trkpt>
      <trkpt lat="43.59402" lon="0.97072">
        <ele>176</ele>
        <time>2020-10-03T12:02:58.000Z</time>
      </trkpt>
      <trkpt lat="43.59402" lon="0.97069">
        <ele>176</ele>
        <time>2020-10-03T12:02:59.000Z</time>
      </trkpt>
      <trkpt lat="43.59402" lon="0.97066">
        <ele>176</ele>
        <time>2020-10-03T12:03:00.000Z</time>
      </trkpt>
      <trkpt lat="43.59402" lon="0.97063">
        <ele>175.55046033163</ele>
        <time>2020-10-03T12:03:01.000Z</time>
      </trkpt>
      <trkpt lat="43.59402" lon="0.9706">
        <ele>175</ele>
        <time>2020-10-03T12:03:02.000Z</time>
      </trkpt>
      <trkpt lat="43.59402" lon="0.97057">
        <ele>175</ele>
        <time>2020-10-03T12:03:03.000Z</time>
      </trkpt>
      <trkpt lat="43.59403" lon="0.97053">
        <ele>175</ele>
        <time>2020-10-03T12:03:04.000Z</time>
      </trkpt>
      <trkpt lat="43.59404" lon="0.97049">
        <ele>175</ele>
        <time>2020-10-03T12:03:05.000Z</time>
      </trkpt>
      <trkpt lat="43.59405" lon="0.97045">
        <ele>175</ele>
        <time>2020-10-03T12:03:06.000Z</time>
      </trkpt>
      <trkpt lat="43.59405" lon="0.97041">
        <ele>175</ele>
        <time>2020-10-03T12:03:07.000Z</time>
      </trkpt>
      <trkpt lat="43.59406" lon="0.97038">
        <ele>175</ele>
        <time>2020-10-03T12:03:08.000Z</time>
      </trkpt>
      <trkpt lat="43.59407" lon="0.97034">
        <ele>175</ele>
        <time>2020-10-03T12:03:09.000Z</time>
      </trkpt>
      <trkpt lat="43.59407" lon="0.97031">
        <ele>175.35922354228</ele>
        <time>2020-10-03T12:03:10.000Z</time>
      </trkpt>
      <trkpt lat="43.59408" lon="0.97027">
        <ele>176</ele>
        <time>2020-10-03T12:03:11.000Z</time>
      </trkpt>
      <trkpt lat="43.59409" lon="0.97024">
        <ele>176</ele>
        <time>2020-10-03T12:03:12.000Z</time>
      </trkpt>
      <trkpt lat="43.5941" lon="0.97021">
        <ele>176</ele>
        <time>2020-10-03T12:03:13.000Z</time>
      </trkpt>
      <trkpt lat="43.59411" lon="0.97018">
        <ele>176</ele>
        <time>2020-10-03T12:03:14.000Z</time>
      </trkpt>
      <trkpt lat="43.59412" lon="0.97014">
        <ele>176</ele>
        <time>2020-10-03T12:03:15.000Z</time>
      </trkpt>
      <trkpt lat="43.59412" lon="0.97011">
        <ele>176</ele>
        <time>2020-10-03T12:03:16.000Z</time>
      </trkpt>
      <trkpt lat="43.59413" lon="0.97007">
        <ele>176</ele>
        <time>2020-10-03T12:03:17.000Z</time>
      </trkpt>
      <trkpt lat="43.59414" lon="0.97003">
        <ele>176</ele>
        <time>2020-10-03T12:03:18.000Z</time>
      </trkpt>
      <trkpt lat="43.59414" lon="0.97">
        <ele>176</ele>
        <time>2020-10-03T12:03:19.000Z</time>
      </trkpt>
      <trkpt lat="43.59415" lon="0.96996">
        <ele>176</ele>
        <time>2020-10-03T12:03:20.000Z</time>
      </trkpt>
      <trkpt lat="43.59416" lon="0.96992">
        <ele>176</ele>
        <time>2020-10-03T12:03:21.000Z</time>
      </trkpt>
      <trkpt lat="43.59417" lon="0.96989">
        <ele>176</ele>
        <time>2020-10-03T12:03:22.000Z</time>
      </trkpt>
      <trkpt lat="43.59418" lon="0.96985">
        <ele>176</ele>
        <time>2020-10-03T12:03:23.000Z</time>
      </trkpt>
      <trkpt lat="43.59419" lon="0.96981">
        <ele>176</ele>
        <time>2020-10-03T12:03:24.000Z</time>
      </trkpt>
      <trkpt lat="43.59419" lon="0.96978">
        <ele>176</ele>
        <time>2020-10-03T12:03:25.000Z</time>
      </trkpt>
      <trkpt lat="43.5942" lon="0.96973">
        <ele>176</ele>
        <time>2020-10-03T12:03:26.000Z</time>
      </trkpt>
      <trkpt lat="43.59421" lon="0.9697">
        <ele>176</ele>
        <time>2020-10-03T12:03:27.000Z</time>
      </trkpt>
      <trkpt lat="43.59421" lon="0.96966">
        <ele>176</ele>
        <time>2020-10-03T12:03:28.000Z</time>
      </trkpt>
      <trkpt lat="43.59422" lon="0.96963">
        <ele>176</ele>
        <time>2020-10-03T12:03:29.000Z</time>
      </trkpt>
      <trkpt lat="43.59422" lon="0.9696">
        <ele>176</ele>
        <time>2020-10-03T12:03:30.000Z</time>
      </trkpt>
      <trkpt lat="43.59424" lon="0.96957">
        <ele>176</ele>
        <time>2020-10-03T12:03:31.000Z</time>
      </trkpt>
      <trkpt lat="43.59424" lon="0.96953">
        <ele>176</ele>
        <time>2020-10-03T12:03:32.000Z</time>
      </trkpt>
      <trkpt lat="43.59425" lon="0.9695">
        <ele>176</ele>
        <time>2020-10-03T12:03:33.000Z</time>
      </trkpt>
      <trkpt lat="43.59426" lon="0.96946">
        <ele>176</ele>
        <time>2020-10-03T12:03:34.000Z</time>
      </trkpt>
      <trkpt lat="43.59427" lon="0.96942">
        <ele>176</ele>
        <time>2020-10-03T12:03:35.000Z</time>
      </trkpt>
      <trkpt lat="43.59428" lon="0.96938">
        <ele>176</ele>
        <time>2020-10-03T12:03:36.000Z</time>
      </trkpt>
      <trkpt lat="43.5943" lon="0.96935">
        <ele>176</ele>
        <time>2020-10-03T12:03:37.000Z</time>
      </trkpt>
      <trkpt lat="43.59431" lon="0.96931">
        <ele>176</ele>
        <time>2020-10-03T12:03:38.000Z</time>
      </trkpt>
      <trkpt lat="43.59432" lon="0.96927">
        <ele>176</ele>
        <time>2020-10-03T12:03:39.000Z</time>
      </trkpt>
      <trkpt lat="43.59434" lon="0.96924">
        <ele>176</ele>
        <time>2020-10-03T12:03:40.000Z</time>
      </trkpt>
      <trkpt lat="43.59435" lon="0.96921">
        <ele>176</ele>
        <time>2020-10-03T12:03:41.000Z</time>
      </trkpt>
      <trkpt lat="43.59436" lon="0.96917">
        <ele>176</ele>
        <time>2020-10-03T12:03:42.000Z</time>
      </trkpt>
      <trkpt lat="43.59437" lon="0.96914">
        <ele>176</ele>
        <time>2020-10-03T12:03:43.000Z</time>
      </trkpt>
      <trkpt lat="43.59438" lon="0.96911">
        <ele>176</ele>
        <time>2020-10-03T12:03:44.000Z</time>
      </trkpt>
      <trkpt lat="43.5944" lon="0.96907">
        <ele>176</ele>
        <time>2020-10-03T12:03:45.000Z</time>
      </trkpt>
      <trkpt lat="43.59441" lon="0.96904">
        <ele>176</ele>
        <time>2020-10-03T12:03:46.000Z</time>
      </trkpt>
      <trkpt lat="43.59442" lon="0.969">
        <ele>176.41379158146</ele>
        <time>2020-10-03T12:03:47.000Z</time>
      </trkpt>
      <trkpt lat="43.59444" lon="0.96897">
        <ele>177</ele>
        <time>2020-10-03T12:03:48.000Z</time>
      </trkpt>
      <trkpt lat="43.59445" lon="0.96894">
        <ele>177</ele>
        <time>2020-10-03T12:03:49.000Z</time>
      </trkpt>
      <trkpt lat="43.59446" lon="0.9689">
        <ele>177</ele>
        <time>2020-10-03T12:03:50.000Z</time>
      </trkpt>
      <trkpt lat="43.59448" lon="0.96887">
        <ele>177</ele>
        <time>2020-10-03T12:03:51.000Z</time>
      </trkpt>
      <trkpt lat="43.59449" lon="0.96883">
        <ele>176.59574062474</ele>
        <time>2020-10-03T12:03:52.000Z</time>
      </trkpt>
      <trkpt lat="43.5945" lon="0.9688">
        <ele>176</ele>
        <time>2020-10-03T12:03:53.000Z</time>
      </trkpt>
      <trkpt lat="43.59451" lon="0.96877">
        <ele>176</ele>
        <time>2020-10-03T12:03:54.000Z</time>
      </trkpt>
      <trkpt lat="43.59452" lon="0.96874">
        <ele>176</ele>
        <time>2020-10-03T12:03:55.000Z</time>
      </trkpt>
      <trkpt lat="43.59453" lon="0.9687">
        <ele>176</ele>
        <time>2020-10-03T12:03:56.000Z</time>
      </trkpt>
      <trkpt lat="43.59454" lon="0.96867">
        <ele>176</ele>
        <time>2020-10-03T12:03:57.000Z</time>
      </trkpt>
      <trkpt lat="43.59457" lon="0.96861">
        <ele>176</ele>
        <time>2020-10-03T12:03:59.000Z</time>
      </trkpt>
      <trkpt lat="43.59458" lon="0.96858">
        <ele>176</ele>
        <time>2020-10-03T12:04:00.000Z</time>
      </trkpt>
      <trkpt lat="43.59464" lon="0.96845">
        <ele>177</ele>
        <time>2020-10-03T12:04:04.000Z</time>
      </trkpt>
      <trkpt lat="43.59468" lon="0.96831">
        <ele>177</ele>
        <time>2020-10-03T12:04:08.000Z</time>
      </trkpt>
      <trkpt lat="43.59469" lon="0.96827">
        <ele>177</ele>
        <time>2020-10-03T12:04:09.000Z</time>
      </trkpt>
      <trkpt lat="43.5947" lon="0.96824">
        <ele>177</ele>
        <time>2020-10-03T12:04:10.000Z</time>
      </trkpt>
      <trkpt lat="43.59471" lon="0.96821">
        <ele>177.34066165921</ele>
        <time>2020-10-03T12:04:11.000Z</time>
      </trkpt>
      <trkpt lat="43.59472" lon="0.96817">
        <ele>178</ele>
        <time>2020-10-03T12:04:12.000Z</time>
      </trkpt>
      <trkpt lat="43.59473" lon="0.96814">
        <ele>178.42221811355</ele>
        <time>2020-10-03T12:04:13.000Z</time>
      </trkpt>
      <trkpt lat="43.59475" lon="0.96812">
        <ele>179</ele>
        <time>2020-10-03T12:04:14.000Z</time>
      </trkpt>
      <trkpt lat="43.59476" lon="0.96809">
        <ele>179</ele>
        <time>2020-10-03T12:04:15.000Z</time>
      </trkpt>
      <trkpt lat="43.59478" lon="0.96804">
        <ele>179</ele>
        <time>2020-10-03T12:04:17.000Z</time>
      </trkpt>
      <trkpt lat="43.5948" lon="0.968">
        <ele>179</ele>
        <time>2020-10-03T12:04:18.000Z</time>
      </trkpt>
      <trkpt lat="43.59481" lon="0.96795">
        <ele>179</ele>
        <time>2020-10-03T12:04:19.000Z</time>
      </trkpt>
      <trkpt lat="43.59482" lon="0.96792">
        <ele>179</ele>
        <time>2020-10-03T12:04:20.000Z</time>
      </trkpt>
      <trkpt lat="43.59484" lon="0.96789">
        <ele>178.70895422589</ele>
        <time>2020-10-03T12:04:21.000Z</time>
      </trkpt>
      <trkpt lat="43.59485" lon="0.96787">
        <ele>178</ele>
        <time>2020-10-03T12:04:22.000Z</time>
      </trkpt>
      <trkpt lat="43.59487" lon="0.96783">
        <ele>178</ele>
        <time>2020-10-03T12:04:23.000Z</time>
      </trkpt>
      <trkpt lat="43.59489" lon="0.9678">
        <ele>178.32954181818</ele>
        <time>2020-10-03T12:04:24.000Z</time>
      </trkpt>
      <trkpt lat="43.59491" lon="0.96777">
        <ele>179</ele>
        <time>2020-10-03T12:04:25.000Z</time>
      </trkpt>
      <trkpt lat="43.59492" lon="0.96773">
        <ele>179</ele>
        <time>2020-10-03T12:04:26.000Z</time>
      </trkpt>
      <trkpt lat="43.59494" lon="0.96769">
        <ele>179</ele>
        <time>2020-10-03T12:04:27.000Z</time>
      </trkpt>
      <trkpt lat="43.59495" lon="0.96766">
        <ele>178.64864677868</ele>
        <time>2020-10-03T12:04:28.000Z</time>
      </trkpt>
      <trkpt lat="43.59497" lon="0.96763">
        <ele>178</ele>
        <time>2020-10-03T12:04:29.000Z</time>
      </trkpt>
      <trkpt lat="43.59498" lon="0.9676">
        <ele>177.6261693423</ele>
        <time>2020-10-03T12:04:30.000Z</time>
      </trkpt>
      <trkpt lat="43.595" lon="0.96757">
        <ele>177</ele>
        <time>2020-10-03T12:04:31.000Z</time>
      </trkpt>
      <trkpt lat="43.59501" lon="0.96754">
        <ele>177</ele>
        <time>2020-10-03T12:04:32.000Z</time>
      </trkpt>
      <trkpt lat="43.59508" lon="0.96742">
        <ele>176.63302644558</ele>
        <time>2020-10-03T12:04:36.000Z</time>
      </trkpt>
      <trkpt lat="43.59515" lon="0.96731">
        <ele>176</ele>
        <time>2020-10-03T12:04:40.000Z</time>
      </trkpt>
      <trkpt lat="43.5952" lon="0.9672">
        <ele>177</ele>
        <time>2020-10-03T12:04:44.000Z</time>
      </trkpt>
      <trkpt lat="43.59527" lon="0.96708">
        <ele>177.32352830449</ele>
        <time>2020-10-03T12:04:48.000Z</time>
      </trkpt>
      <trkpt lat="43.59534" lon="0.96696">
        <ele>179</ele>
        <time>2020-10-03T12:04:52.000Z</time>
      </trkpt>
      <trkpt lat="43.59538" lon="0.96689">
        <ele>178.683167313</ele>
        <time>2020-10-03T12:04:54.000Z</time>
      </trkpt>
      <trkpt lat="43.5954" lon="0.96686">
        <ele>178</ele>
        <time>2020-10-03T12:04:55.000Z</time>
      </trkpt>
      <trkpt lat="43.59542" lon="0.96683">
        <ele>178</ele>
        <time>2020-10-03T12:04:56.000Z</time>
      </trkpt>
      <trkpt lat="43.59546" lon="0.96677">
        <ele>177.68217223485</ele>
        <time>2020-10-03T12:04:58.000Z</time>
      </trkpt>
      <trkpt lat="43.59551" lon="0.96667">
        <ele>177</ele>
        <time>2020-10-03T12:05:01.000Z</time>
      </trkpt>
      <trkpt lat="43.59552" lon="0.96663">
        <ele>177</ele>
        <time>2020-10-03T12:05:02.000Z</time>
      </trkpt>
      <trkpt lat="43.59552" lon="0.96656">
        <ele>177</ele>
        <time>2020-10-03T12:05:04.000Z</time>
      </trkpt>
      <trkpt lat="43.59546" lon="0.96645">
        <ele>176</ele>
        <time>2020-10-03T12:05:08.000Z</time>
      </trkpt>
      <trkpt lat="43.59541" lon="0.96632">
        <ele>176</ele>
        <time>2020-10-03T12:05:12.000Z</time>
      </trkpt>
      <trkpt lat="43.5954" lon="0.96628">
        <ele>176</ele>
        <time>2020-10-03T12:05:13.000Z</time>
      </trkpt>
      <trkpt lat="43.59539" lon="0.96624">
        <ele>176</ele>
        <time>2020-10-03T12:05:14.000Z</time>
      </trkpt>
      <trkpt lat="43.59539" lon="0.96619">
        <ele>176</ele>
        <time>2020-10-03T12:05:15.000Z</time>
      </trkpt>
      <trkpt lat="43.59539" lon="0.96615">
        <ele>176</ele>
        <time>2020-10-03T12:05:16.000Z</time>
      </trkpt>
      <trkpt lat="43.59539" lon="0.96611">
        <ele>176</ele>
        <time>2020-10-03T12:05:17.000Z</time>
      </trkpt>
      <trkpt lat="43.59539" lon="0.96607">
        <ele>176</ele>
        <time>2020-10-03T12:05:18.000Z</time>
      </trkpt>
      <trkpt lat="43.5954" lon="0.96603">
        <ele>176</ele>
        <time>2020-10-03T12:05:19.000Z</time>
      </trkpt>
      <trkpt lat="43.5954" lon="0.96599">
        <ele>176</ele>
        <time>2020-10-03T12:05:20.000Z</time>
      </trkpt>
      <trkpt lat="43.59541" lon="0.96595">
        <ele>176.42990441783</ele>
        <time>2020-10-03T12:05:21.000Z</time>
      </trkpt>
      <trkpt lat="43.59541" lon="0.96592">
        <ele>177</ele>
        <time>2020-10-03T12:05:22.000Z</time>
      </trkpt>
      <trkpt lat="43.59542" lon="0.96589">
        <ele>177</ele>
        <time>2020-10-03T12:05:23.000Z</time>
      </trkpt>
      <trkpt lat="43.59544" lon="0.96586">
        <ele>177</ele>
        <time>2020-10-03T12:05:24.000Z</time>
      </trkpt>
      <trkpt lat="43.59545" lon="0.96583">
        <ele>176.66989772459</ele>
        <time>2020-10-03T12:05:25.000Z</time>
      </trkpt>
      <trkpt lat="43.59546" lon="0.96579">
        <ele>176</ele>
        <time>2020-10-03T12:05:26.000Z</time>
      </trkpt>
      <trkpt lat="43.59547" lon="0.96575">
        <ele>176</ele>
        <time>2020-10-03T12:05:27.000Z</time>
      </trkpt>
      <trkpt lat="43.59548" lon="0.96572">
        <ele>176</ele>
        <time>2020-10-03T12:05:28.000Z</time>
      </trkpt>
      <trkpt lat="43.59551" lon="0.96559">
        <ele>176</ele>
        <time>2020-10-03T12:05:32.000Z</time>
      </trkpt>
      <trkpt lat="43.59551" lon="0.96551">
        <ele>177</ele>
        <time>2020-10-03T12:05:34.000Z</time>
      </trkpt>
      <trkpt lat="43.59551" lon="0.96547">
        <ele>177</ele>
        <time>2020-10-03T12:05:35.000Z</time>
      </trkpt>
      <trkpt lat="43.59551" lon="0.96543">
        <ele>177</ele>
        <time>2020-10-03T12:05:36.000Z</time>
      </trkpt>
      <trkpt lat="43.59551" lon="0.9654">
        <ele>177</ele>
        <time>2020-10-03T12:05:37.000Z</time>
      </trkpt>
      <trkpt lat="43.59551" lon="0.96537">
        <ele>177</ele>
        <time>2020-10-03T12:05:38.000Z</time>
      </trkpt>
      <trkpt lat="43.59551" lon="0.96533">
        <ele>177</ele>
        <time>2020-10-03T12:05:39.000Z</time>
      </trkpt>
      <trkpt lat="43.59551" lon="0.96529">
        <ele>177</ele>
        <time>2020-10-03T12:05:40.000Z</time>
      </trkpt>
      <trkpt lat="43.59551" lon="0.96526">
        <ele>177</ele>
        <time>2020-10-03T12:05:41.000Z</time>
      </trkpt>
      <trkpt lat="43.59551" lon="0.96522">
        <ele>177.41414219774</ele>
        <time>2020-10-03T12:05:42.000Z</time>
      </trkpt>
      <trkpt lat="43.59552" lon="0.96518">
        <ele>178</ele>
        <time>2020-10-03T12:05:43.000Z</time>
      </trkpt>
      <trkpt lat="43.59553" lon="0.96515">
        <ele>178</ele>
        <time>2020-10-03T12:05:44.000Z</time>
      </trkpt>
      <trkpt lat="43.59553" lon="0.96511">
        <ele>178</ele>
        <time>2020-10-03T12:05:45.000Z</time>
      </trkpt>
      <trkpt lat="43.59554" lon="0.96508">
        <ele>178</ele>
        <time>2020-10-03T12:05:46.000Z</time>
      </trkpt>
      <trkpt lat="43.59554" lon="0.96505">
        <ele>178</ele>
        <time>2020-10-03T12:05:47.000Z</time>
      </trkpt>
      <trkpt lat="43.59555" lon="0.96502">
        <ele>178.44444760496</ele>
        <time>2020-10-03T12:05:48.000Z</time>
      </trkpt>
      <trkpt lat="43.59556" lon="0.96489">
        <ele>179</ele>
        <time>2020-10-03T12:05:52.000Z</time>
      </trkpt>
      <trkpt lat="43.59558" lon="0.96476">
        <ele>179</ele>
        <time>2020-10-03T12:05:56.000Z</time>
      </trkpt>
      <trkpt lat="43.59559" lon="0.96462">
        <ele>179</ele>
        <time>2020-10-03T12:06:00.000Z</time>
      </trkpt>
      <trkpt lat="43.59561" lon="0.96447">
        <ele>181</ele>
        <time>2020-10-03T12:06:05.000Z</time>
      </trkpt>
      <trkpt lat="43.59562" lon="0.96434">
        <ele>181</ele>
        <time>2020-10-03T12:06:09.000Z</time>
      </trkpt>
      <trkpt lat="43.59565" lon="0.96419">
        <ele>182</ele>
        <time>2020-10-03T12:06:14.000Z</time>
      </trkpt>
      <trkpt lat="43.59566" lon="0.96406">
        <ele>182</ele>
        <time>2020-10-03T12:06:18.000Z</time>
      </trkpt>
      <trkpt lat="43.59569" lon="0.96394">
        <ele>183</ele>
        <time>2020-10-03T12:06:22.000Z</time>
      </trkpt>
      <trkpt lat="43.59569" lon="0.96391">
        <ele>183.39604085874</ele>
        <time>2020-10-03T12:06:23.000Z</time>
      </trkpt>
      <trkpt lat="43.5957" lon="0.96386">
        <ele>184</ele>
        <time>2020-10-03T12:06:25.000Z</time>
      </trkpt>
      <trkpt lat="43.59571" lon="0.96372">
        <ele>185</ele>
        <time>2020-10-03T12:06:30.000Z</time>
      </trkpt>
      <trkpt lat="43.59572" lon="0.96366">
        <ele>185</ele>
        <time>2020-10-03T12:06:32.000Z</time>
      </trkpt>
      <trkpt lat="43.59573" lon="0.96363">
        <ele>185</ele>
        <time>2020-10-03T12:06:33.000Z</time>
      </trkpt>
      <trkpt lat="43.59573" lon="0.9636">
        <ele>185</ele>
        <time>2020-10-03T12:06:34.000Z</time>
      </trkpt>
      <trkpt lat="43.59574" lon="0.96357">
        <ele>185</ele>
        <time>2020-10-03T12:06:35.000Z</time>
      </trkpt>
      <trkpt lat="43.59574" lon="0.96354">
        <ele>185</ele>
        <time>2020-10-03T12:06:36.000Z</time>
      </trkpt>
      <trkpt lat="43.59575" lon="0.96352">
        <ele>185.36363847935</ele>
        <time>2020-10-03T12:06:37.000Z</time>
      </trkpt>
      <trkpt lat="43.59575" lon="0.96349">
        <ele>186</ele>
        <time>2020-10-03T12:06:38.000Z</time>
      </trkpt>
      <trkpt lat="43.59576" lon="0.96347">
        <ele>186.38596707911</ele>
        <time>2020-10-03T12:06:39.000Z</time>
      </trkpt>
      <trkpt lat="43.59577" lon="0.96344">
        <ele>187</ele>
        <time>2020-10-03T12:06:40.000Z</time>
      </trkpt>
      <trkpt lat="43.59577" lon="0.96341">
        <ele>187.19443555556</ele>
        <time>2020-10-03T12:06:41.000Z</time>
      </trkpt>
      <trkpt lat="43.59578" lon="0.96339">
        <ele>188</ele>
        <time>2020-10-03T12:06:42.000Z</time>
      </trkpt>
      <trkpt lat="43.59578" lon="0.96336">
        <ele>188</ele>
        <time>2020-10-03T12:06:43.000Z</time>
      </trkpt>
      <trkpt lat="43.59578" lon="0.96333">
        <ele>188.43925401345</ele>
        <time>2020-10-03T12:06:44.000Z</time>
      </trkpt>
      <trkpt lat="43.59579" lon="0.9633">
        <ele>189</ele>
        <time>2020-10-03T12:06:45.000Z</time>
      </trkpt>
      <trkpt lat="43.59579" lon="0.96327">
        <ele>189.45044858046</ele>
        <time>2020-10-03T12:06:46.000Z</time>
      </trkpt>
      <trkpt lat="43.59579" lon="0.96324">
        <ele>190</ele>
        <time>2020-10-03T12:06:47.000Z</time>
      </trkpt>
      <trkpt lat="43.5958" lon="0.96321">
        <ele>190.3486266543</ele>
        <time>2020-10-03T12:06:48.000Z</time>
      </trkpt>
      <trkpt lat="43.5958" lon="0.96318">
        <ele>191</ele>
        <time>2020-10-03T12:06:49.000Z</time>
      </trkpt>
      <trkpt lat="43.5958" lon="0.96316">
        <ele>191</ele>
        <time>2020-10-03T12:06:50.000Z</time>
      </trkpt>
      <trkpt lat="43.59581" lon="0.96313">
        <ele>191</ele>
        <time>2020-10-03T12:06:51.000Z</time>
      </trkpt>
      <trkpt lat="43.59581" lon="0.9631">
        <ele>191</ele>
        <time>2020-10-03T12:06:52.000Z</time>
      </trkpt>
      <trkpt lat="43.59581" lon="0.96307">
        <ele>191</ele>
        <time>2020-10-03T12:06:53.000Z</time>
      </trkpt>
      <trkpt lat="43.59582" lon="0.96303">
        <ele>191</ele>
        <time>2020-10-03T12:06:54.000Z</time>
      </trkpt>
      <trkpt lat="43.59582" lon="0.96301">
        <ele>191</ele>
        <time>2020-10-03T12:06:55.000Z</time>
      </trkpt>
      <trkpt lat="43.59582" lon="0.96298">
        <ele>191</ele>
        <time>2020-10-03T12:06:56.000Z</time>
      </trkpt>
      <trkpt lat="43.59583" lon="0.96295">
        <ele>190.63063031896</ele>
        <time>2020-10-03T12:06:57.000Z</time>
      </trkpt>
      <trkpt lat="43.59583" lon="0.96293">
        <ele>190</ele>
        <time>2020-10-03T12:06:58.000Z</time>
      </trkpt>
      <trkpt lat="43.59584" lon="0.9629">
        <ele>190</ele>
        <time>2020-10-03T12:06:59.000Z</time>
      </trkpt>
      <trkpt lat="43.59584" lon="0.96287">
        <ele>190</ele>
        <time>2020-10-03T12:07:00.000Z</time>
      </trkpt>
      <trkpt lat="43.59585" lon="0.96284">
        <ele>190</ele>
        <time>2020-10-03T12:07:01.000Z</time>
      </trkpt>
      <trkpt lat="43.59585" lon="0.96282">
        <ele>190.68817441092</ele>
        <time>2020-10-03T12:07:02.000Z</time>
      </trkpt>
      <trkpt lat="43.59585" lon="0.96279">
        <ele>192</ele>
        <time>2020-10-03T12:07:03.000Z</time>
      </trkpt>
      <trkpt lat="43.59586" lon="0.96274">
        <ele>192.35821066608</ele>
        <time>2020-10-03T12:07:05.000Z</time>
      </trkpt>
      <trkpt lat="43.59586" lon="0.96271">
        <ele>193</ele>
        <time>2020-10-03T12:07:06.000Z</time>
      </trkpt>
      <trkpt lat="43.59587" lon="0.96268">
        <ele>193</ele>
        <time>2020-10-03T12:07:07.000Z</time>
      </trkpt>
      <trkpt lat="43.59588" lon="0.96265">
        <ele>192.59341153965</ele>
        <time>2020-10-03T12:07:08.000Z</time>
      </trkpt>
      <trkpt lat="43.59588" lon="0.96262">
        <ele>192</ele>
        <time>2020-10-03T12:07:09.000Z</time>
      </trkpt>
      <trkpt lat="43.59589" lon="0.96258">
        <ele>192.41489419647</ele>
        <time>2020-10-03T12:07:10.000Z</time>
      </trkpt>
      <trkpt lat="43.59589" lon="0.96255">
        <ele>192.56731076923</ele>
        <time>2020-10-03T12:07:11.000Z</time>
      </trkpt>
      <trkpt lat="43.5959" lon="0.96252">
        <ele>192.34745679977</ele>
        <time>2020-10-03T12:07:12.000Z</time>
      </trkpt>
      <trkpt lat="43.59591" lon="0.96248">
        <ele>193</ele>
        <time>2020-10-03T12:07:13.000Z</time>
      </trkpt>
      <trkpt lat="43.59591" lon="0.96245">
        <ele>193</ele>
        <time>2020-10-03T12:07:14.000Z</time>
      </trkpt>
      <trkpt lat="43.59592" lon="0.96242">
        <ele>193</ele>
        <time>2020-10-03T12:07:15.000Z</time>
      </trkpt>
      <trkpt lat="43.59592" lon="0.9624">
        <ele>193</ele>
        <time>2020-10-03T12:07:16.000Z</time>
      </trkpt>
      <trkpt lat="43.59592" lon="0.96237">
        <ele>193.33333333333</ele>
        <time>2020-10-03T12:07:17.000Z</time>
      </trkpt>
      <trkpt lat="43.59593" lon="0.96234">
        <ele>194</ele>
        <time>2020-10-03T12:07:18.000Z</time>
      </trkpt>
      <trkpt lat="43.59594" lon="0.96231">
        <ele>194</ele>
        <time>2020-10-03T12:07:19.000Z</time>
      </trkpt>
      <trkpt lat="43.59594" lon="0.96228">
        <ele>194</ele>
        <time>2020-10-03T12:07:20.000Z</time>
      </trkpt>
      <trkpt lat="43.59595" lon="0.96224">
        <ele>194</ele>
        <time>2020-10-03T12:07:21.000Z</time>
      </trkpt>
      <trkpt lat="43.59595" lon="0.96222">
        <ele>194</ele>
        <time>2020-10-03T12:07:22.000Z</time>
      </trkpt>
      <trkpt lat="43.59596" lon="0.96219">
        <ele>194.90909725616</ele>
        <time>2020-10-03T12:07:23.000Z</time>
      </trkpt>
      <trkpt lat="43.59596" lon="0.96217">
        <ele>196</ele>
        <time>2020-10-03T12:07:24.000Z</time>
      </trkpt>
      <trkpt lat="43.59596" lon="0.96214">
        <ele>196</ele>
        <time>2020-10-03T12:07:25.000Z</time>
      </trkpt>
      <trkpt lat="43.59597" lon="0.96211">
        <ele>196</ele>
        <time>2020-10-03T12:07:26.000Z</time>
      </trkpt>
      <trkpt lat="43.59597" lon="0.96208">
        <ele>196</ele>
        <time>2020-10-03T12:07:27.000Z</time>
      </trkpt>
      <trkpt lat="43.59597" lon="0.96205">
        <ele>196</ele>
        <time>2020-10-03T12:07:28.000Z</time>
      </trkpt>
      <trkpt lat="43.59598" lon="0.96202">
        <ele>196</ele>
        <time>2020-10-03T12:07:29.000Z</time>
      </trkpt>
      <trkpt lat="43.59598" lon="0.96199">
        <ele>196</ele>
        <time>2020-10-03T12:07:30.000Z</time>
      </trkpt>
      <trkpt lat="43.59598" lon="0.96196">
        <ele>196</ele>
        <time>2020-10-03T12:07:31.000Z</time>
      </trkpt>
      <trkpt lat="43.59598" lon="0.96193">
        <ele>196.18182422661</ele>
        <time>2020-10-03T12:07:32.000Z</time>
      </trkpt>
      <trkpt lat="43.59598" lon="0.96191">
        <ele>197</ele>
        <time>2020-10-03T12:07:33.000Z</time>
      </trkpt>
      <trkpt lat="43.59599" lon="0.96186">
        <ele>197</ele>
        <time>2020-10-03T12:07:35.000Z</time>
      </trkpt>
      <trkpt lat="43.59598" lon="0.96183">
        <ele>197</ele>
        <time>2020-10-03T12:07:36.000Z</time>
      </trkpt>
      <trkpt lat="43.59598" lon="0.9618">
        <ele>197</ele>
        <time>2020-10-03T12:07:37.000Z</time>
      </trkpt>
      <trkpt lat="43.59598" lon="0.96177">
        <ele>197</ele>
        <time>2020-10-03T12:07:38.000Z</time>
      </trkpt>
      <trkpt lat="43.59598" lon="0.96174">
        <ele>197</ele>
        <time>2020-10-03T12:07:39.000Z</time>
      </trkpt>
      <trkpt lat="43.59599" lon="0.96171">
        <ele>197</ele>
        <time>2020-10-03T12:07:40.000Z</time>
      </trkpt>
      <trkpt lat="43.59599" lon="0.96168">
        <ele>196.62962962963</ele>
        <time>2020-10-03T12:07:41.000Z</time>
      </trkpt>
      <trkpt lat="43.59599" lon="0.96164">
        <ele>196</ele>
        <time>2020-10-03T12:07:42.000Z</time>
      </trkpt>
      <trkpt lat="43.59599" lon="0.96162">
        <ele>196</ele>
        <time>2020-10-03T12:07:43.000Z</time>
      </trkpt>
      <trkpt lat="43.59599" lon="0.96158">
        <ele>196.41176101497</ele>
        <time>2020-10-03T12:07:44.000Z</time>
      </trkpt>
      <trkpt lat="43.59599" lon="0.96156">
        <ele>197</ele>
        <time>2020-10-03T12:07:45.000Z</time>
      </trkpt>
      <trkpt lat="43.59599" lon="0.96153">
        <ele>197</ele>
        <time>2020-10-03T12:07:46.000Z</time>
      </trkpt>
      <trkpt lat="43.59599" lon="0.9615">
        <ele>197</ele>
        <time>2020-10-03T12:07:47.000Z</time>
      </trkpt>
      <trkpt lat="43.59599" lon="0.96148">
        <ele>197.316832687</ele>
        <time>2020-10-03T12:07:48.000Z</time>
      </trkpt>
      <trkpt lat="43.59599" lon="0.96145">
        <ele>198</ele>
        <time>2020-10-03T12:07:49.000Z</time>
      </trkpt>
      <trkpt lat="43.59599" lon="0.96142">
        <ele>198</ele>
        <time>2020-10-03T12:07:50.000Z</time>
      </trkpt>
      <trkpt lat="43.596" lon="0.96138">
        <ele>198</ele>
        <time>2020-10-03T12:07:52.000Z</time>
      </trkpt>
      <trkpt lat="43.59599" lon="0.96134">
        <ele>198</ele>
        <time>2020-10-03T12:07:54.000Z</time>
      </trkpt>
      <trkpt lat="43.59599" lon="0.96129">
        <ele>198</ele>
        <time>2020-10-03T12:07:56.000Z</time>
      </trkpt>
      <trkpt lat="43.59599" lon="0.96125">
        <ele>198.34444555061</ele>
        <time>2020-10-03T12:07:58.000Z</time>
      </trkpt>
      <trkpt lat="43.59599" lon="0.9612">
        <ele>199</ele>
        <time>2020-10-03T12:08:00.000Z</time>
      </trkpt>
      <trkpt lat="43.59599" lon="0.96116">
        <ele>199</ele>
        <time>2020-10-03T12:08:02.000Z</time>
      </trkpt>
      <trkpt lat="43.59599" lon="0.96112">
        <ele>199</ele>
        <time>2020-10-03T12:08:04.000Z</time>
      </trkpt>
      <trkpt lat="43.59599" lon="0.96108">
        <ele>199</ele>
        <time>2020-10-03T12:08:06.000Z</time>
      </trkpt>
      <trkpt lat="43.596" lon="0.96104">
        <ele>198</ele>
        <time>2020-10-03T12:08:08.000Z</time>
      </trkpt>
      <trkpt lat="43.59601" lon="0.961">
        <ele>197</ele>
        <time>2020-10-03T12:08:10.000Z</time>
      </trkpt>
      <trkpt lat="43.59601" lon="0.96097">
        <ele>197.67308307692</ele>
        <time>2020-10-03T12:08:12.000Z</time>
      </trkpt>
      <trkpt lat="43.59601" lon="0.96093">
        <ele>199</ele>
        <time>2020-10-03T12:08:14.000Z</time>
      </trkpt>
      <trkpt lat="43.59601" lon="0.96089">
        <ele>200</ele>
        <time>2020-10-03T12:08:16.000Z</time>
      </trkpt>
      <trkpt lat="43.59602" lon="0.96086">
        <ele>200</ele>
        <time>2020-10-03T12:08:18.000Z</time>
      </trkpt>
      <trkpt lat="43.59602" lon="0.96083">
        <ele>200</ele>
        <time>2020-10-03T12:08:21.000Z</time>
      </trkpt>
      <trkpt lat="43.59602" lon="0.9608">
        <ele>200.42528211391</ele>
        <time>2020-10-03T12:08:23.000Z</time>
      </trkpt>
      <trkpt lat="43.59602" lon="0.96077">
        <ele>201</ele>
        <time>2020-10-03T12:08:25.000Z</time>
      </trkpt>
      <trkpt lat="43.59602" lon="0.96073">
        <ele>201</ele>
        <time>2020-10-03T12:08:27.000Z</time>
      </trkpt>
      <trkpt lat="43.59602" lon="0.96068">
        <ele>201</ele>
        <time>2020-10-03T12:08:30.000Z</time>
      </trkpt>
      <trkpt lat="43.59603" lon="0.96064">
        <ele>201</ele>
        <time>2020-10-03T12:08:32.000Z</time>
      </trkpt>
      <trkpt lat="43.59604" lon="0.9606">
        <ele>201</ele>
        <time>2020-10-03T12:08:34.000Z</time>
      </trkpt>
      <trkpt lat="43.59604" lon="0.96054">
        <ele>201</ele>
        <time>2020-10-03T12:08:37.000Z</time>
      </trkpt>
      <trkpt lat="43.59604" lon="0.9605">
        <ele>201</ele>
        <time>2020-10-03T12:08:39.000Z</time>
      </trkpt>
      <trkpt lat="43.59605" lon="0.96046">
        <ele>201</ele>
        <time>2020-10-03T12:08:41.000Z</time>
      </trkpt>
      <trkpt lat="43.59605" lon="0.96042">
        <ele>201</ele>
        <time>2020-10-03T12:08:43.000Z</time>
      </trkpt>
      <trkpt lat="43.59606" lon="0.96038">
        <ele>202</ele>
        <time>2020-10-03T12:08:45.000Z</time>
      </trkpt>
      <trkpt lat="43.59606" lon="0.96034">
        <ele>202</ele>
        <time>2020-10-03T12:08:47.000Z</time>
      </trkpt>
      <trkpt lat="43.59607" lon="0.9603">
        <ele>202</ele>
        <time>2020-10-03T12:08:49.000Z</time>
      </trkpt>
      <trkpt lat="43.59607" lon="0.96026">
        <ele>202</ele>
        <time>2020-10-03T12:08:51.000Z</time>
      </trkpt>
      <trkpt lat="43.59608" lon="0.96022">
        <ele>202</ele>
        <time>2020-10-03T12:08:53.000Z</time>
      </trkpt>
      <trkpt lat="43.59608" lon="0.96018">
        <ele>202</ele>
        <time>2020-10-03T12:08:55.000Z</time>
      </trkpt>
      <trkpt lat="43.59609" lon="0.96014">
        <ele>202</ele>
        <time>2020-10-03T12:08:57.000Z</time>
      </trkpt>
      <trkpt lat="43.59609" lon="0.9601">
        <ele>202</ele>
        <time>2020-10-03T12:08:59.000Z</time>
      </trkpt>
      <trkpt lat="43.5961" lon="0.96005">
        <ele>202.35714416325</ele>
        <time>2020-10-03T12:09:01.000Z</time>
      </trkpt>
      <trkpt lat="43.59611" lon="0.96001">
        <ele>203</ele>
        <time>2020-10-03T12:09:03.000Z</time>
      </trkpt>
      <trkpt lat="43.59612" lon="0.95997">
        <ele>203</ele>
        <time>2020-10-03T12:09:05.000Z</time>
      </trkpt>
      <trkpt lat="43.59613" lon="0.95993">
        <ele>203</ele>
        <time>2020-10-03T12:09:07.000Z</time>
      </trkpt>
      <trkpt lat="43.59614" lon="0.95989">
        <ele>203.36144225283</ele>
        <time>2020-10-03T12:09:09.000Z</time>
      </trkpt>
      <trkpt lat="43.59615" lon="0.95986">
        <ele>204</ele>
        <time>2020-10-03T12:09:11.000Z</time>
      </trkpt>
      <trkpt lat="43.59615" lon="0.95983">
        <ele>205</ele>
        <time>2020-10-03T12:09:13.000Z</time>
      </trkpt>
      <trkpt lat="43.59616" lon="0.95979">
        <ele>205.39081051656</ele>
        <time>2020-10-03T12:09:15.000Z</time>
      </trkpt>
      <trkpt lat="43.59617" lon="0.95975">
        <ele>206</ele>
        <time>2020-10-03T12:09:17.000Z</time>
      </trkpt>
      <trkpt lat="43.59618" lon="0.9597">
        <ele>206</ele>
        <time>2020-10-03T12:09:19.000Z</time>
      </trkpt>
      <trkpt lat="43.59619" lon="0.95966">
        <ele>206</ele>
        <time>2020-10-03T12:09:21.000Z</time>
      </trkpt>
      <trkpt lat="43.5962" lon="0.95962">
        <ele>206</ele>
        <time>2020-10-03T12:09:23.000Z</time>
      </trkpt>
      <trkpt lat="43.59621" lon="0.95958">
        <ele>206</ele>
        <time>2020-10-03T12:09:25.000Z</time>
      </trkpt>
      <trkpt lat="43.59622" lon="0.95954">
        <ele>206</ele>
        <time>2020-10-03T12:09:27.000Z</time>
      </trkpt>
      <trkpt lat="43.59623" lon="0.95949">
        <ele>206</ele>
        <time>2020-10-03T12:09:29.000Z</time>
      </trkpt>
      <trkpt lat="43.59623" lon="0.95945">
        <ele>206</ele>
        <time>2020-10-03T12:09:30.000Z</time>
      </trkpt>
      <trkpt lat="43.59624" lon="0.95942">
        <ele>206</ele>
        <time>2020-10-03T12:09:31.000Z</time>
      </trkpt>
      <trkpt lat="43.59625" lon="0.95939">
        <ele>206</ele>
        <time>2020-10-03T12:09:32.000Z</time>
      </trkpt>
      <trkpt lat="43.59625" lon="0.95936">
        <ele>206</ele>
        <time>2020-10-03T12:09:33.000Z</time>
      </trkpt>
      <trkpt lat="43.59627" lon="0.95933">
        <ele>206</ele>
        <time>2020-10-03T12:09:34.000Z</time>
      </trkpt>
      <trkpt lat="43.59628" lon="0.9593">
        <ele>206</ele>
        <time>2020-10-03T12:09:35.000Z</time>
      </trkpt>
      <trkpt lat="43.59629" lon="0.95927">
        <ele>206</ele>
        <time>2020-10-03T12:09:36.000Z</time>
      </trkpt>
      <trkpt lat="43.59629" lon="0.95923">
        <ele>206</ele>
        <time>2020-10-03T12:09:37.000Z</time>
      </trkpt>
      <trkpt lat="43.5963" lon="0.9592">
        <ele>206</ele>
        <time>2020-10-03T12:09:38.000Z</time>
      </trkpt>
      <trkpt lat="43.5963" lon="0.95916">
        <ele>206.4454542281</ele>
        <time>2020-10-03T12:09:39.000Z</time>
      </trkpt>
      <trkpt lat="43.59631" lon="0.95913">
        <ele>207</ele>
        <time>2020-10-03T12:09:40.000Z</time>
      </trkpt>
      <trkpt lat="43.59632" lon="0.95909">
        <ele>207</ele>
        <time>2020-10-03T12:09:41.000Z</time>
      </trkpt>
      <trkpt lat="43.59633" lon="0.95906">
        <ele>207.47368562882</ele>
        <time>2020-10-03T12:09:42.000Z</time>
      </trkpt>
      <trkpt lat="43.59633" lon="0.95902">
        <ele>208</ele>
        <time>2020-10-03T12:09:43.000Z</time>
      </trkpt>
      <trkpt lat="43.59634" lon="0.95899">
        <ele>208</ele>
        <time>2020-10-03T12:09:44.000Z</time>
      </trkpt>
      <trkpt lat="43.59635" lon="0.95896">
        <ele>208</ele>
        <time>2020-10-03T12:09:45.000Z</time>
      </trkpt>
      <trkpt lat="43.59635" lon="0.95893">
        <ele>208</ele>
        <time>2020-10-03T12:09:46.000Z</time>
      </trkpt>
      <trkpt lat="43.59636" lon="0.9589">
        <ele>208</ele>
        <time>2020-10-03T12:09:47.000Z</time>
      </trkpt>
      <trkpt lat="43.59637" lon="0.95886">
        <ele>208</ele>
        <time>2020-10-03T12:09:48.000Z</time>
      </trkpt>
      <trkpt lat="43.59638" lon="0.95883">
        <ele>208.42156911957</ele>
        <time>2020-10-03T12:09:49.000Z</time>
      </trkpt>
      <trkpt lat="43.59638" lon="0.9588">
        <ele>209</ele>
        <time>2020-10-03T12:09:50.000Z</time>
      </trkpt>
      <trkpt lat="43.59639" lon="0.95877">
        <ele>209</ele>
        <time>2020-10-03T12:09:51.000Z</time>
      </trkpt>
      <trkpt lat="43.5964" lon="0.95873">
        <ele>209</ele>
        <time>2020-10-03T12:09:52.000Z</time>
      </trkpt>
      <trkpt lat="43.5964" lon="0.9587">
        <ele>209</ele>
        <time>2020-10-03T12:09:53.000Z</time>
      </trkpt>
      <trkpt lat="43.59641" lon="0.95867">
        <ele>209</ele>
        <time>2020-10-03T12:09:54.000Z</time>
      </trkpt>
      <trkpt lat="43.59642" lon="0.95864">
        <ele>209</ele>
        <time>2020-10-03T12:09:55.000Z</time>
      </trkpt>
      <trkpt lat="43.59643" lon="0.9586">
        <ele>209.45044858046</ele>
        <time>2020-10-03T12:09:56.000Z</time>
      </trkpt>
      <trkpt lat="43.59644" lon="0.95857">
        <ele>210</ele>
        <time>2020-10-03T12:09:57.000Z</time>
      </trkpt>
      <trkpt lat="43.59644" lon="0.95854">
        <ele>210</ele>
        <time>2020-10-03T12:09:58.000Z</time>
      </trkpt>
      <trkpt lat="43.59645" lon="0.95851">
        <ele>210.47916</ele>
        <time>2020-10-03T12:09:59.000Z</time>
      </trkpt>
      <trkpt lat="43.59646" lon="0.95848">
        <ele>211</ele>
        <time>2020-10-03T12:10:00.000Z</time>
      </trkpt>
      <trkpt lat="43.59647" lon="0.95844">
        <ele>210.57425830408</ele>
        <time>2020-10-03T12:10:01.000Z</time>
      </trkpt>
      <trkpt lat="43.59648" lon="0.95841">
        <ele>210</ele>
        <time>2020-10-03T12:10:02.000Z</time>
      </trkpt>
      <trkpt lat="43.59648" lon="0.95838">
        <ele>210</ele>
        <time>2020-10-03T12:10:03.000Z</time>
      </trkpt>
      <trkpt lat="43.59649" lon="0.95835">
        <ele>210</ele>
        <time>2020-10-03T12:10:04.000Z</time>
      </trkpt>
      <trkpt lat="43.5965" lon="0.95832">
        <ele>210</ele>
        <time>2020-10-03T12:10:05.000Z</time>
      </trkpt>
      <trkpt lat="43.59651" lon="0.95828">
        <ele>210</ele>
        <time>2020-10-03T12:10:06.000Z</time>
      </trkpt>
      <trkpt lat="43.59652" lon="0.95825">
        <ele>210</ele>
        <time>2020-10-03T12:10:07.000Z</time>
      </trkpt>
      <trkpt lat="43.59653" lon="0.95822">
        <ele>210.82242744695</ele>
        <time>2020-10-03T12:10:08.000Z</time>
      </trkpt>
      <trkpt lat="43.59654" lon="0.95819">
        <ele>212</ele>
        <time>2020-10-03T12:10:09.000Z</time>
      </trkpt>
      <trkpt lat="43.59655" lon="0.95815">
        <ele>212</ele>
        <time>2020-10-03T12:10:10.000Z</time>
      </trkpt>
      <trkpt lat="43.59655" lon="0.95812">
        <ele>212.42727315041</ele>
        <time>2020-10-03T12:10:11.000Z</time>
      </trkpt>
      <trkpt lat="43.59656" lon="0.95808">
        <ele>213</ele>
        <time>2020-10-03T12:10:12.000Z</time>
      </trkpt>
      <trkpt lat="43.59657" lon="0.95805">
        <ele>213</ele>
        <time>2020-10-03T12:10:13.000Z</time>
      </trkpt>
      <trkpt lat="43.59658" lon="0.95802">
        <ele>213</ele>
        <time>2020-10-03T12:10:14.000Z</time>
      </trkpt>
      <trkpt lat="43.59659" lon="0.95799">
        <ele>213</ele>
        <time>2020-10-03T12:10:15.000Z</time>
      </trkpt>
      <trkpt lat="43.5966" lon="0.95796">
        <ele>213</ele>
        <time>2020-10-03T12:10:16.000Z</time>
      </trkpt>
      <trkpt lat="43.59661" lon="0.95793">
        <ele>213</ele>
        <time>2020-10-03T12:10:17.000Z</time>
      </trkpt>
      <trkpt lat="43.59662" lon="0.9579">
        <ele>213</ele>
        <time>2020-10-03T12:10:18.000Z</time>
      </trkpt>
      <trkpt lat="43.59663" lon="0.95786">
        <ele>213</ele>
        <time>2020-10-03T12:10:19.000Z</time>
      </trkpt>
      <trkpt lat="43.59664" lon="0.95783">
        <ele>213</ele>
        <time>2020-10-03T12:10:20.000Z</time>
      </trkpt>
      <trkpt lat="43.59665" lon="0.95779">
        <ele>213</ele>
        <time>2020-10-03T12:10:21.000Z</time>
      </trkpt>
      <trkpt lat="43.59665" lon="0.95776">
        <ele>213</ele>
        <time>2020-10-03T12:10:22.000Z</time>
      </trkpt>
      <trkpt lat="43.59666" lon="0.95773">
        <ele>213</ele>
        <time>2020-10-03T12:10:23.000Z</time>
      </trkpt>
      <trkpt lat="43.59667" lon="0.9577">
        <ele>213</ele>
        <time>2020-10-03T12:10:24.000Z</time>
      </trkpt>
      <trkpt lat="43.59668" lon="0.95766">
        <ele>213</ele>
        <time>2020-10-03T12:10:25.000Z</time>
      </trkpt>
      <trkpt lat="43.59669" lon="0.95763">
        <ele>213</ele>
        <time>2020-10-03T12:10:26.000Z</time>
      </trkpt>
      <trkpt lat="43.59669" lon="0.95759">
        <ele>213</ele>
        <time>2020-10-03T12:10:27.000Z</time>
      </trkpt>
      <trkpt lat="43.5967" lon="0.95756">
        <ele>213</ele>
        <time>2020-10-03T12:10:28.000Z</time>
      </trkpt>
      <trkpt lat="43.59671" lon="0.95753">
        <ele>213</ele>
        <time>2020-10-03T12:10:29.000Z</time>
      </trkpt>
      <trkpt lat="43.59672" lon="0.95749">
        <ele>213.41111047901</ele>
        <time>2020-10-03T12:10:30.000Z</time>
      </trkpt>
      <trkpt lat="43.59673" lon="0.95746">
        <ele>214</ele>
        <time>2020-10-03T12:10:31.000Z</time>
      </trkpt>
      <trkpt lat="43.59674" lon="0.95742">
        <ele>214</ele>
        <time>2020-10-03T12:10:32.000Z</time>
      </trkpt>
      <trkpt lat="43.59675" lon="0.95739">
        <ele>214</ele>
        <time>2020-10-03T12:10:33.000Z</time>
      </trkpt>
      <trkpt lat="43.59676" lon="0.95735">
        <ele>214</ele>
        <time>2020-10-03T12:10:34.000Z</time>
      </trkpt>
      <trkpt lat="43.59677" lon="0.95732">
        <ele>214</ele>
        <time>2020-10-03T12:10:35.000Z</time>
      </trkpt>
      <trkpt lat="43.59678" lon="0.95729">
        <ele>214</ele>
        <time>2020-10-03T12:10:36.000Z</time>
      </trkpt>
      <trkpt lat="43.59679" lon="0.95725">
        <ele>214.47367924655</ele>
        <time>2020-10-03T12:10:37.000Z</time>
      </trkpt>
      <trkpt lat="43.59679" lon="0.95722">
        <ele>215</ele>
        <time>2020-10-03T12:10:38.000Z</time>
      </trkpt>
      <trkpt lat="43.5968" lon="0.95718">
        <ele>215</ele>
        <time>2020-10-03T12:10:39.000Z</time>
      </trkpt>
      <trkpt lat="43.59681" lon="0.95715">
        <ele>215</ele>
        <time>2020-10-03T12:10:40.000Z</time>
      </trkpt>
      <trkpt lat="43.59682" lon="0.95712">
        <ele>215</ele>
        <time>2020-10-03T12:10:41.000Z</time>
      </trkpt>
      <trkpt lat="43.59683" lon="0.95709">
        <ele>215</ele>
        <time>2020-10-03T12:10:42.000Z</time>
      </trkpt>
      <trkpt lat="43.59684" lon="0.95705">
        <ele>215</ele>
        <time>2020-10-03T12:10:43.000Z</time>
      </trkpt>
      <trkpt lat="43.59685" lon="0.95702">
        <ele>215</ele>
        <time>2020-10-03T12:10:44.000Z</time>
      </trkpt>
      <trkpt lat="43.59685" lon="0.95699">
        <ele>215</ele>
        <time>2020-10-03T12:10:45.000Z</time>
      </trkpt>
      <trkpt lat="43.59686" lon="0.95695">
        <ele>215</ele>
        <time>2020-10-03T12:10:46.000Z</time>
      </trkpt>
      <trkpt lat="43.59686" lon="0.95692">
        <ele>215</ele>
        <time>2020-10-03T12:10:47.000Z</time>
      </trkpt>
      <trkpt lat="43.59687" lon="0.95689">
        <ele>215</ele>
        <time>2020-10-03T12:10:48.000Z</time>
      </trkpt>
      <trkpt lat="43.59688" lon="0.95686">
        <ele>215</ele>
        <time>2020-10-03T12:10:49.000Z</time>
      </trkpt>
      <trkpt lat="43.59688" lon="0.95683">
        <ele>215</ele>
        <time>2020-10-03T12:10:50.000Z</time>
      </trkpt>
      <trkpt lat="43.59689" lon="0.9568">
        <ele>215</ele>
        <time>2020-10-03T12:10:51.000Z</time>
      </trkpt>
      <trkpt lat="43.5969" lon="0.95677">
        <ele>215</ele>
        <time>2020-10-03T12:10:52.000Z</time>
      </trkpt>
      <trkpt lat="43.5969" lon="0.95674">
        <ele>215.28571167349</ele>
        <time>2020-10-03T12:10:53.000Z</time>
      </trkpt>
      <trkpt lat="43.59691" lon="0.95671">
        <ele>216</ele>
        <time>2020-10-03T12:10:54.000Z</time>
      </trkpt>
      <trkpt lat="43.59691" lon="0.95668">
        <ele>216</ele>
        <time>2020-10-03T12:10:55.000Z</time>
      </trkpt>
      <trkpt lat="43.59692" lon="0.95665">
        <ele>216.49019287964</ele>
        <time>2020-10-03T12:10:56.000Z</time>
      </trkpt>
      <trkpt lat="43.59693" lon="0.95661">
        <ele>217</ele>
        <time>2020-10-03T12:10:57.000Z</time>
      </trkpt>
      <trkpt lat="43.59693" lon="0.95658">
        <ele>217</ele>
        <time>2020-10-03T12:10:58.000Z</time>
      </trkpt>
      <trkpt lat="43.59694" lon="0.95655">
        <ele>217</ele>
        <time>2020-10-03T12:10:59.000Z</time>
      </trkpt>
      <trkpt lat="43.59695" lon="0.95652">
        <ele>217</ele>
        <time>2020-10-03T12:11:00.000Z</time>
      </trkpt>
      <trkpt lat="43.59695" lon="0.95649">
        <ele>217</ele>
        <time>2020-10-03T12:11:01.000Z</time>
      </trkpt>
      <trkpt lat="43.59696" lon="0.95645">
        <ele>217</ele>
        <time>2020-10-03T12:11:02.000Z</time>
      </trkpt>
      <trkpt lat="43.59697" lon="0.95642">
        <ele>217</ele>
        <time>2020-10-03T12:11:03.000Z</time>
      </trkpt>
      <trkpt lat="43.59697" lon="0.95639">
        <ele>217.41414219774</ele>
        <time>2020-10-03T12:11:04.000Z</time>
      </trkpt>
      <trkpt lat="43.59698" lon="0.95636">
        <ele>218</ele>
        <time>2020-10-03T12:11:05.000Z</time>
      </trkpt>
      <trkpt lat="43.59698" lon="0.95633">
        <ele>218</ele>
        <time>2020-10-03T12:11:06.000Z</time>
      </trkpt>
      <trkpt lat="43.59699" lon="0.9563">
        <ele>218</ele>
        <time>2020-10-03T12:11:07.000Z</time>
      </trkpt>
      <trkpt lat="43.59699" lon="0.95627">
        <ele>218</ele>
        <time>2020-10-03T12:11:08.000Z</time>
      </trkpt>
      <trkpt lat="43.597" lon="0.95623">
        <ele>218</ele>
        <time>2020-10-03T12:11:10.000Z</time>
      </trkpt>
      <trkpt lat="43.597" lon="0.9562">
        <ele>218</ele>
        <time>2020-10-03T12:11:12.000Z</time>
      </trkpt>
      <trkpt lat="43.597" lon="0.95616">
        <ele>218</ele>
        <time>2020-10-03T12:11:14.000Z</time>
      </trkpt>
      <trkpt lat="43.597" lon="0.95614">
        <ele>219</ele>
        <time>2020-10-03T12:11:16.000Z</time>
      </trkpt>
      <trkpt lat="43.59699" lon="0.95611">
        <ele>220</ele>
        <time>2020-10-03T12:11:23.000Z</time>
      </trkpt>
      <trkpt lat="43.59701" lon="0.9561">
        <ele>219</ele>
        <time>2020-10-03T12:11:49.000Z</time>
      </trkpt>
      <trkpt lat="43.59702" lon="0.95607">
        <ele>219</ele>
        <time>2020-10-03T12:11:54.000Z</time>
      </trkpt>
      <trkpt lat="43.59703" lon="0.95605">
        <ele>219</ele>
        <time>2020-10-03T12:11:56.000Z</time>
      </trkpt>
      <trkpt lat="43.59704" lon="0.95601">
        <ele>219</ele>
        <time>2020-10-03T12:11:58.000Z</time>
      </trkpt>
      <trkpt lat="43.59704" lon="0.95598">
        <ele>218</ele>
        <time>2020-10-03T12:12:00.000Z</time>
      </trkpt>
      <trkpt lat="43.59704" lon="0.95594">
        <ele>218</ele>
        <time>2020-10-03T12:12:02.000Z</time>
      </trkpt>
      <trkpt lat="43.59704" lon="0.95591">
        <ele>218</ele>
        <time>2020-10-03T12:12:04.000Z</time>
      </trkpt>
      <trkpt lat="43.59704" lon="0.95588">
        <ele>219</ele>
        <time>2020-10-03T12:12:06.000Z</time>
      </trkpt>
      <trkpt lat="43.59705" lon="0.95585">
        <ele>219</ele>
        <time>2020-10-03T12:12:08.000Z</time>
      </trkpt>
      <trkpt lat="43.59705" lon="0.95581">
        <ele>219</ele>
        <time>2020-10-03T12:12:10.000Z</time>
      </trkpt>
      <trkpt lat="43.59706" lon="0.95578">
        <ele>219</ele>
        <time>2020-10-03T12:12:12.000Z</time>
      </trkpt>
      <trkpt lat="43.59706" lon="0.95574">
        <ele>219</ele>
        <time>2020-10-03T12:12:14.000Z</time>
      </trkpt>
      <trkpt lat="43.59707" lon="0.95571">
        <ele>219</ele>
        <time>2020-10-03T12:12:16.000Z</time>
      </trkpt>
      <trkpt lat="43.59707" lon="0.95567">
        <ele>219</ele>
        <time>2020-10-03T12:12:18.000Z</time>
      </trkpt>
      <trkpt lat="43.59707" lon="0.95564">
        <ele>219</ele>
        <time>2020-10-03T12:12:20.000Z</time>
      </trkpt>
      <trkpt lat="43.59708" lon="0.9556">
        <ele>219</ele>
        <time>2020-10-03T12:12:22.000Z</time>
      </trkpt>
      <trkpt lat="43.59708" lon="0.95557">
        <ele>219</ele>
        <time>2020-10-03T12:12:24.000Z</time>
      </trkpt>
      <trkpt lat="43.59709" lon="0.95553">
        <ele>219</ele>
        <time>2020-10-03T12:12:26.000Z</time>
      </trkpt>
      <trkpt lat="43.5971" lon="0.9555">
        <ele>219</ele>
        <time>2020-10-03T12:12:28.000Z</time>
      </trkpt>
      <trkpt lat="43.59711" lon="0.95546">
        <ele>219</ele>
        <time>2020-10-03T12:12:30.000Z</time>
      </trkpt>
      <trkpt lat="43.59712" lon="0.95542">
        <ele>219</ele>
        <time>2020-10-03T12:12:32.000Z</time>
      </trkpt>
      <trkpt lat="43.59713" lon="0.95539">
        <ele>219</ele>
        <time>2020-10-03T12:12:34.000Z</time>
      </trkpt>
      <trkpt lat="43.59714" lon="0.95535">
        <ele>219</ele>
        <time>2020-10-03T12:12:36.000Z</time>
      </trkpt>
      <trkpt lat="43.59715" lon="0.95532">
        <ele>219</ele>
        <time>2020-10-03T12:12:37.000Z</time>
      </trkpt>
      <trkpt lat="43.59715" lon="0.95529">
        <ele>219</ele>
        <time>2020-10-03T12:12:38.000Z</time>
      </trkpt>
      <trkpt lat="43.59716" lon="0.95526">
        <ele>219</ele>
        <time>2020-10-03T12:12:39.000Z</time>
      </trkpt>
      <trkpt lat="43.59717" lon="0.95522">
        <ele>219</ele>
        <time>2020-10-03T12:12:40.000Z</time>
      </trkpt>
      <trkpt lat="43.59718" lon="0.95519">
        <ele>218.55046033163</ele>
        <time>2020-10-03T12:12:41.000Z</time>
      </trkpt>
      <trkpt lat="43.59719" lon="0.95516">
        <ele>218</ele>
        <time>2020-10-03T12:12:42.000Z</time>
      </trkpt>
      <trkpt lat="43.5972" lon="0.95512">
        <ele>218</ele>
        <time>2020-10-03T12:12:43.000Z</time>
      </trkpt>
      <trkpt lat="43.59721" lon="0.95509">
        <ele>218</ele>
        <time>2020-10-03T12:12:44.000Z</time>
      </trkpt>
      <trkpt lat="43.59722" lon="0.95505">
        <ele>218.36905142857</ele>
        <time>2020-10-03T12:12:45.000Z</time>
      </trkpt>
      <trkpt lat="43.59723" lon="0.95501">
        <ele>219</ele>
        <time>2020-10-03T12:12:46.000Z</time>
      </trkpt>
      <trkpt lat="43.59724" lon="0.95498">
        <ele>219</ele>
        <time>2020-10-03T12:12:47.000Z</time>
      </trkpt>
      <trkpt lat="43.59725" lon="0.95495">
        <ele>219</ele>
        <time>2020-10-03T12:12:48.000Z</time>
      </trkpt>
      <trkpt lat="43.59725" lon="0.95492">
        <ele>219.41052830138</ele>
        <time>2020-10-03T12:12:49.000Z</time>
      </trkpt>
      <trkpt lat="43.59726" lon="0.95489">
        <ele>220</ele>
        <time>2020-10-03T12:12:50.000Z</time>
      </trkpt>
      <trkpt lat="43.59727" lon="0.95486">
        <ele>220</ele>
        <time>2020-10-03T12:12:51.000Z</time>
      </trkpt>
      <trkpt lat="43.59727" lon="0.95483">
        <ele>220</ele>
        <time>2020-10-03T12:12:52.000Z</time>
      </trkpt>
      <trkpt lat="43.59728" lon="0.95479">
        <ele>220</ele>
        <time>2020-10-03T12:12:53.000Z</time>
      </trkpt>
      <trkpt lat="43.59729" lon="0.95476">
        <ele>220</ele>
        <time>2020-10-03T12:12:54.000Z</time>
      </trkpt>
      <trkpt lat="43.59729" lon="0.95472">
        <ele>220</ele>
        <time>2020-10-03T12:12:55.000Z</time>
      </trkpt>
      <trkpt lat="43.5973" lon="0.95468">
        <ele>220</ele>
        <time>2020-10-03T12:12:56.000Z</time>
      </trkpt>
      <trkpt lat="43.59731" lon="0.95465">
        <ele>220</ele>
        <time>2020-10-03T12:12:57.000Z</time>
      </trkpt>
      <trkpt lat="43.59731" lon="0.95461">
        <ele>220</ele>
        <time>2020-10-03T12:12:58.000Z</time>
      </trkpt>
      <trkpt lat="43.59732" lon="0.95457">
        <ele>220</ele>
        <time>2020-10-03T12:12:59.000Z</time>
      </trkpt>
      <trkpt lat="43.59732" lon="0.95454">
        <ele>220</ele>
        <time>2020-10-03T12:13:00.000Z</time>
      </trkpt>
      <trkpt lat="43.59733" lon="0.9545">
        <ele>220</ele>
        <time>2020-10-03T12:13:01.000Z</time>
      </trkpt>
      <trkpt lat="43.59732" lon="0.95446">
        <ele>220</ele>
        <time>2020-10-03T12:13:02.000Z</time>
      </trkpt>
      <trkpt lat="43.59733" lon="0.95442">
        <ele>220</ele>
        <time>2020-10-03T12:13:03.000Z</time>
      </trkpt>
      <trkpt lat="43.59733" lon="0.95438">
        <ele>220</ele>
        <time>2020-10-03T12:13:04.000Z</time>
      </trkpt>
      <trkpt lat="43.59734" lon="0.95434">
        <ele>220.35442894408</ele>
        <time>2020-10-03T12:13:05.000Z</time>
      </trkpt>
      <trkpt lat="43.59734" lon="0.9543">
        <ele>221</ele>
        <time>2020-10-03T12:13:06.000Z</time>
      </trkpt>
      <trkpt lat="43.59734" lon="0.95426">
        <ele>221</ele>
        <time>2020-10-03T12:13:07.000Z</time>
      </trkpt>
      <trkpt lat="43.59734" lon="0.95422">
        <ele>221</ele>
        <time>2020-10-03T12:13:08.000Z</time>
      </trkpt>
      <trkpt lat="43.59734" lon="0.95419">
        <ele>221</ele>
        <time>2020-10-03T12:13:09.000Z</time>
      </trkpt>
      <trkpt lat="43.59734" lon="0.95415">
        <ele>221</ele>
        <time>2020-10-03T12:13:10.000Z</time>
      </trkpt>
      <trkpt lat="43.59734" lon="0.95411">
        <ele>221</ele>
        <time>2020-10-03T12:13:11.000Z</time>
      </trkpt>
      <trkpt lat="43.59733" lon="0.95407">
        <ele>221</ele>
        <time>2020-10-03T12:13:12.000Z</time>
      </trkpt>
      <trkpt lat="43.59733" lon="0.95404">
        <ele>221</ele>
        <time>2020-10-03T12:13:13.000Z</time>
      </trkpt>
      <trkpt lat="43.59734" lon="0.954">
        <ele>221</ele>
        <time>2020-10-03T12:13:14.000Z</time>
      </trkpt>
      <trkpt lat="43.59734" lon="0.95395">
        <ele>221</ele>
        <time>2020-10-03T12:13:15.000Z</time>
      </trkpt>
      <trkpt lat="43.59734" lon="0.95391">
        <ele>221</ele>
        <time>2020-10-03T12:13:16.000Z</time>
      </trkpt>
      <trkpt lat="43.59734" lon="0.95387">
        <ele>221</ele>
        <time>2020-10-03T12:13:17.000Z</time>
      </trkpt>
      <trkpt lat="43.59734" lon="0.95383">
        <ele>221</ele>
        <time>2020-10-03T12:13:18.000Z</time>
      </trkpt>
      <trkpt lat="43.59734" lon="0.95379">
        <ele>221</ele>
        <time>2020-10-03T12:13:19.000Z</time>
      </trkpt>
      <trkpt lat="43.59734" lon="0.95374">
        <ele>221</ele>
        <time>2020-10-03T12:13:20.000Z</time>
      </trkpt>
      <trkpt lat="43.59734" lon="0.9537">
        <ele>221</ele>
        <time>2020-10-03T12:13:21.000Z</time>
      </trkpt>
      <trkpt lat="43.59734" lon="0.95366">
        <ele>221</ele>
        <time>2020-10-03T12:13:22.000Z</time>
      </trkpt>
      <trkpt lat="43.59734" lon="0.95362">
        <ele>221</ele>
        <time>2020-10-03T12:13:23.000Z</time>
      </trkpt>
      <trkpt lat="43.59734" lon="0.95358">
        <ele>221</ele>
        <time>2020-10-03T12:13:24.000Z</time>
      </trkpt>
      <trkpt lat="43.59735" lon="0.95354">
        <ele>220.65094430759</ele>
        <time>2020-10-03T12:13:25.000Z</time>
      </trkpt>
      <trkpt lat="43.59735" lon="0.9535">
        <ele>220</ele>
        <time>2020-10-03T12:13:26.000Z</time>
      </trkpt>
      <trkpt lat="43.59736" lon="0.95347">
        <ele>220</ele>
        <time>2020-10-03T12:13:27.000Z</time>
      </trkpt>
      <trkpt lat="43.59737" lon="0.95343">
        <ele>220</ele>
        <time>2020-10-03T12:13:28.000Z</time>
      </trkpt>
      <trkpt lat="43.59737" lon="0.95338">
        <ele>220</ele>
        <time>2020-10-03T12:13:29.000Z</time>
      </trkpt>
      <trkpt lat="43.59738" lon="0.95334">
        <ele>220</ele>
        <time>2020-10-03T12:13:30.000Z</time>
      </trkpt>
      <trkpt lat="43.59738" lon="0.95331">
        <ele>220</ele>
        <time>2020-10-03T12:13:31.000Z</time>
      </trkpt>
      <trkpt lat="43.59739" lon="0.95327">
        <ele>220.27678857143</ele>
        <time>2020-10-03T12:13:32.000Z</time>
      </trkpt>
      <trkpt lat="43.59739" lon="0.95322">
        <ele>221</ele>
        <time>2020-10-03T12:13:33.000Z</time>
      </trkpt>
      <trkpt lat="43.5974" lon="0.95318">
        <ele>221</ele>
        <time>2020-10-03T12:13:34.000Z</time>
      </trkpt>
      <trkpt lat="43.59741" lon="0.95315">
        <ele>221</ele>
        <time>2020-10-03T12:13:35.000Z</time>
      </trkpt>
      <trkpt lat="43.59742" lon="0.95311">
        <ele>221</ele>
        <time>2020-10-03T12:13:36.000Z</time>
      </trkpt>
      <trkpt lat="43.59743" lon="0.95307">
        <ele>221</ele>
        <time>2020-10-03T12:13:37.000Z</time>
      </trkpt>
      <trkpt lat="43.59744" lon="0.95304">
        <ele>221</ele>
        <time>2020-10-03T12:13:38.000Z</time>
      </trkpt>
      <trkpt lat="43.59745" lon="0.953">
        <ele>221</ele>
        <time>2020-10-03T12:13:39.000Z</time>
      </trkpt>
      <trkpt lat="43.59746" lon="0.95296">
        <ele>221</ele>
        <time>2020-10-03T12:13:40.000Z</time>
      </trkpt>
      <trkpt lat="43.59747" lon="0.95293">
        <ele>221</ele>
        <time>2020-10-03T12:13:41.000Z</time>
      </trkpt>
      <trkpt lat="43.59748" lon="0.95289">
        <ele>221</ele>
        <time>2020-10-03T12:13:42.000Z</time>
      </trkpt>
      <trkpt lat="43.5975" lon="0.95286">
        <ele>221</ele>
        <time>2020-10-03T12:13:43.000Z</time>
      </trkpt>
      <trkpt lat="43.59751" lon="0.95283">
        <ele>221</ele>
        <time>2020-10-03T12:13:44.000Z</time>
      </trkpt>
      <trkpt lat="43.59752" lon="0.9528">
        <ele>221</ele>
        <time>2020-10-03T12:13:45.000Z</time>
      </trkpt>
      <trkpt lat="43.59753" lon="0.95277">
        <ele>221</ele>
        <time>2020-10-03T12:13:46.000Z</time>
      </trkpt>
      <trkpt lat="43.59755" lon="0.95274">
        <ele>221</ele>
        <time>2020-10-03T12:13:47.000Z</time>
      </trkpt>
      <trkpt lat="43.59756" lon="0.95271">
        <ele>221</ele>
        <time>2020-10-03T12:13:48.000Z</time>
      </trkpt>
      <trkpt lat="43.59757" lon="0.95268">
        <ele>221</ele>
        <time>2020-10-03T12:13:49.000Z</time>
      </trkpt>
      <trkpt lat="43.59758" lon="0.95265">
        <ele>221</ele>
        <time>2020-10-03T12:13:50.000Z</time>
      </trkpt>
      <trkpt lat="43.59759" lon="0.95261">
        <ele>221</ele>
        <time>2020-10-03T12:13:51.000Z</time>
      </trkpt>
      <trkpt lat="43.5976" lon="0.95258">
        <ele>221</ele>
        <time>2020-10-03T12:13:52.000Z</time>
      </trkpt>
      <trkpt lat="43.59761" lon="0.95254">
        <ele>221</ele>
        <time>2020-10-03T12:13:53.000Z</time>
      </trkpt>
      <trkpt lat="43.59762" lon="0.95251">
        <ele>221</ele>
        <time>2020-10-03T12:13:54.000Z</time>
      </trkpt>
      <trkpt lat="43.59763" lon="0.95248">
        <ele>221</ele>
        <time>2020-10-03T12:13:55.000Z</time>
      </trkpt>
      <trkpt lat="43.59765" lon="0.95244">
        <ele>221.41441898546</ele>
        <time>2020-10-03T12:13:56.000Z</time>
      </trkpt>
      <trkpt lat="43.59766" lon="0.95241">
        <ele>222</ele>
        <time>2020-10-03T12:13:57.000Z</time>
      </trkpt>
      <trkpt lat="43.59767" lon="0.95238">
        <ele>222</ele>
        <time>2020-10-03T12:13:58.000Z</time>
      </trkpt>
      <trkpt lat="43.59768" lon="0.95235">
        <ele>222</ele>
        <time>2020-10-03T12:13:59.000Z</time>
      </trkpt>
      <trkpt lat="43.5977" lon="0.95232">
        <ele>222</ele>
        <time>2020-10-03T12:14:00.000Z</time>
      </trkpt>
      <trkpt lat="43.59771" lon="0.95229">
        <ele>222</ele>
        <time>2020-10-03T12:14:01.000Z</time>
      </trkpt>
      <trkpt lat="43.59772" lon="0.95226">
        <ele>222</ele>
        <time>2020-10-03T12:14:02.000Z</time>
      </trkpt>
      <trkpt lat="43.59774" lon="0.95222">
        <ele>222</ele>
        <time>2020-10-03T12:14:03.000Z</time>
      </trkpt>
      <trkpt lat="43.59775" lon="0.95219">
        <ele>222</ele>
        <time>2020-10-03T12:14:04.000Z</time>
      </trkpt>
      <trkpt lat="43.59776" lon="0.95216">
        <ele>222</ele>
        <time>2020-10-03T12:14:05.000Z</time>
      </trkpt>
      <trkpt lat="43.59778" lon="0.95213">
        <ele>222</ele>
        <time>2020-10-03T12:14:06.000Z</time>
      </trkpt>
      <trkpt lat="43.59779" lon="0.9521">
        <ele>222</ele>
        <time>2020-10-03T12:14:07.000Z</time>
      </trkpt>
      <trkpt lat="43.5978" lon="0.95207">
        <ele>222</ele>
        <time>2020-10-03T12:14:08.000Z</time>
      </trkpt>
      <trkpt lat="43.5978" lon="0.95204">
        <ele>222.34482403484</ele>
        <time>2020-10-03T12:14:09.000Z</time>
      </trkpt>
      <trkpt lat="43.59781" lon="0.95201">
        <ele>223</ele>
        <time>2020-10-03T12:14:10.000Z</time>
      </trkpt>
      <trkpt lat="43.59782" lon="0.95197">
        <ele>223</ele>
        <time>2020-10-03T12:14:11.000Z</time>
      </trkpt>
      <trkpt lat="43.59784" lon="0.95194">
        <ele>223</ele>
        <time>2020-10-03T12:14:12.000Z</time>
      </trkpt>
      <trkpt lat="43.59785" lon="0.95191">
        <ele>223</ele>
        <time>2020-10-03T12:14:13.000Z</time>
      </trkpt>
      <trkpt lat="43.59786" lon="0.95188">
        <ele>223</ele>
        <time>2020-10-03T12:14:14.000Z</time>
      </trkpt>
      <trkpt lat="43.59788" lon="0.95185">
        <ele>223</ele>
        <time>2020-10-03T12:14:15.000Z</time>
      </trkpt>
      <trkpt lat="43.59789" lon="0.95182">
        <ele>223.44143728595</ele>
        <time>2020-10-03T12:14:16.000Z</time>
      </trkpt>
      <trkpt lat="43.5979" lon="0.95178">
        <ele>224</ele>
        <time>2020-10-03T12:14:17.000Z</time>
      </trkpt>
      <trkpt lat="43.59791" lon="0.95175">
        <ele>224</ele>
        <time>2020-10-03T12:14:18.000Z</time>
      </trkpt>
      <trkpt lat="43.59792" lon="0.95171">
        <ele>224</ele>
        <time>2020-10-03T12:14:19.000Z</time>
      </trkpt>
      <trkpt lat="43.59794" lon="0.95168">
        <ele>224.43119179868</ele>
        <time>2020-10-03T12:14:20.000Z</time>
      </trkpt>
      <trkpt lat="43.59795" lon="0.95165">
        <ele>225</ele>
        <time>2020-10-03T12:14:21.000Z</time>
      </trkpt>
      <trkpt lat="43.59796" lon="0.95161">
        <ele>225</ele>
        <time>2020-10-03T12:14:22.000Z</time>
      </trkpt>
      <trkpt lat="43.59797" lon="0.95158">
        <ele>225.36885177103</ele>
        <time>2020-10-03T12:14:23.000Z</time>
      </trkpt>
      <trkpt lat="43.59798" lon="0.95155">
        <ele>226</ele>
        <time>2020-10-03T12:14:24.000Z</time>
      </trkpt>
      <trkpt lat="43.59799" lon="0.95152">
        <ele>226</ele>
        <time>2020-10-03T12:14:25.000Z</time>
      </trkpt>
      <trkpt lat="43.598" lon="0.95149">
        <ele>226</ele>
        <time>2020-10-03T12:14:26.000Z</time>
      </trkpt>
      <trkpt lat="43.59801" lon="0.95146">
        <ele>226</ele>
        <time>2020-10-03T12:14:27.000Z</time>
      </trkpt>
      <trkpt lat="43.59803" lon="0.95142">
        <ele>226</ele>
        <time>2020-10-03T12:14:28.000Z</time>
      </trkpt>
      <trkpt lat="43.59804" lon="0.95139">
        <ele>226</ele>
        <time>2020-10-03T12:14:29.000Z</time>
      </trkpt>
      <trkpt lat="43.59805" lon="0.95135">
        <ele>226</ele>
        <time>2020-10-03T12:14:30.000Z</time>
      </trkpt>
      <trkpt lat="43.59806" lon="0.95132">
        <ele>226</ele>
        <time>2020-10-03T12:14:31.000Z</time>
      </trkpt>
      <trkpt lat="43.59807" lon="0.95129">
        <ele>226</ele>
        <time>2020-10-03T12:14:32.000Z</time>
      </trkpt>
      <trkpt lat="43.59809" lon="0.95126">
        <ele>226</ele>
        <time>2020-10-03T12:14:33.000Z</time>
      </trkpt>
      <trkpt lat="43.5981" lon="0.95123">
        <ele>226</ele>
        <time>2020-10-03T12:14:34.000Z</time>
      </trkpt>
      <trkpt lat="43.59812" lon="0.9512">
        <ele>226</ele>
        <time>2020-10-03T12:14:35.000Z</time>
      </trkpt>
      <trkpt lat="43.59813" lon="0.95117">
        <ele>226</ele>
        <time>2020-10-03T12:14:36.000Z</time>
      </trkpt>
      <trkpt lat="43.59814" lon="0.95113">
        <ele>226</ele>
        <time>2020-10-03T12:14:37.000Z</time>
      </trkpt>
      <trkpt lat="43.59816" lon="0.9511">
        <ele>226</ele>
        <time>2020-10-03T12:14:38.000Z</time>
      </trkpt>
      <trkpt lat="43.59817" lon="0.95106">
        <ele>226</ele>
        <time>2020-10-03T12:14:39.000Z</time>
      </trkpt>
      <trkpt lat="43.59818" lon="0.95103">
        <ele>226</ele>
        <time>2020-10-03T12:14:40.000Z</time>
      </trkpt>
      <trkpt lat="43.5982" lon="0.951">
        <ele>226.90909725616</ele>
        <time>2020-10-03T12:14:41.000Z</time>
      </trkpt>
      <trkpt lat="43.59822" lon="0.95097">
        <ele>228</ele>
        <time>2020-10-03T12:14:42.000Z</time>
      </trkpt>
      <trkpt lat="43.59823" lon="0.95094">
        <ele>228</ele>
        <time>2020-10-03T12:14:43.000Z</time>
      </trkpt>
      <trkpt lat="43.59825" lon="0.9509">
        <ele>228</ele>
        <time>2020-10-03T12:14:44.000Z</time>
      </trkpt>
      <trkpt lat="43.59827" lon="0.95087">
        <ele>228</ele>
        <time>2020-10-03T12:14:45.000Z</time>
      </trkpt>
      <trkpt lat="43.59829" lon="0.95084">
        <ele>228</ele>
        <time>2020-10-03T12:14:46.000Z</time>
      </trkpt>
      <trkpt lat="43.59831" lon="0.95081">
        <ele>228</ele>
        <time>2020-10-03T12:14:47.000Z</time>
      </trkpt>
      <trkpt lat="43.59832" lon="0.95078">
        <ele>228</ele>
        <time>2020-10-03T12:14:48.000Z</time>
      </trkpt>
      <trkpt lat="43.59834" lon="0.95075">
        <ele>228</ele>
        <time>2020-10-03T12:14:49.000Z</time>
      </trkpt>
      <trkpt lat="43.59836" lon="0.95072">
        <ele>228</ele>
        <time>2020-10-03T12:14:50.000Z</time>
      </trkpt>
      <trkpt lat="43.59838" lon="0.95069">
        <ele>228</ele>
        <time>2020-10-03T12:14:51.000Z</time>
      </trkpt>
      <trkpt lat="43.59839" lon="0.95066">
        <ele>227.64485489389</ele>
        <time>2020-10-03T12:14:52.000Z</time>
      </trkpt>
      <trkpt lat="43.59841" lon="0.95063">
        <ele>227</ele>
        <time>2020-10-03T12:14:53.000Z</time>
      </trkpt>
      <trkpt lat="43.59843" lon="0.95061">
        <ele>227</ele>
        <time>2020-10-03T12:14:54.000Z</time>
      </trkpt>
      <trkpt lat="43.59845" lon="0.95058">
        <ele>226.63888592593</ele>
        <time>2020-10-03T12:14:55.000Z</time>
      </trkpt>
      <trkpt lat="43.59847" lon="0.95055">
        <ele>226</ele>
        <time>2020-10-03T12:14:56.000Z</time>
      </trkpt>
      <trkpt lat="43.59848" lon="0.95052">
        <ele>226</ele>
        <time>2020-10-03T12:14:57.000Z</time>
      </trkpt>
      <trkpt lat="43.5985" lon="0.95049">
        <ele>226</ele>
        <time>2020-10-03T12:14:58.000Z</time>
      </trkpt>
      <trkpt lat="43.59852" lon="0.95046">
        <ele>226</ele>
        <time>2020-10-03T12:14:59.000Z</time>
      </trkpt>
      <trkpt lat="43.59853" lon="0.95043">
        <ele>226</ele>
        <time>2020-10-03T12:15:00.000Z</time>
      </trkpt>
      <trkpt lat="43.59855" lon="0.9504">
        <ele>226</ele>
        <time>2020-10-03T12:15:01.000Z</time>
      </trkpt>
      <trkpt lat="43.59857" lon="0.95037">
        <ele>228</ele>
        <time>2020-10-03T12:15:02.000Z</time>
      </trkpt>
      <trkpt lat="43.59859" lon="0.95034">
        <ele>228</ele>
        <time>2020-10-03T12:15:03.000Z</time>
      </trkpt>
      <trkpt lat="43.59861" lon="0.95032">
        <ele>228</ele>
        <time>2020-10-03T12:15:04.000Z</time>
      </trkpt>
      <trkpt lat="43.59863" lon="0.95029">
        <ele>228</ele>
        <time>2020-10-03T12:15:05.000Z</time>
      </trkpt>
      <trkpt lat="43.59865" lon="0.95026">
        <ele>228</ele>
        <time>2020-10-03T12:15:06.000Z</time>
      </trkpt>
      <trkpt lat="43.59866" lon="0.95023">
        <ele>228</ele>
        <time>2020-10-03T12:15:07.000Z</time>
      </trkpt>
      <trkpt lat="43.59868" lon="0.9502">
        <ele>228</ele>
        <time>2020-10-03T12:15:08.000Z</time>
      </trkpt>
      <trkpt lat="43.5987" lon="0.95017">
        <ele>228</ele>
        <time>2020-10-03T12:15:09.000Z</time>
      </trkpt>
      <trkpt lat="43.59871" lon="0.95014">
        <ele>228</ele>
        <time>2020-10-03T12:15:10.000Z</time>
      </trkpt>
      <trkpt lat="43.59873" lon="0.95012">
        <ele>228</ele>
        <time>2020-10-03T12:15:11.000Z</time>
      </trkpt>
      <trkpt lat="43.59875" lon="0.95009">
        <ele>228</ele>
        <time>2020-10-03T12:15:12.000Z</time>
      </trkpt>
      <trkpt lat="43.59876" lon="0.95006">
        <ele>228</ele>
        <time>2020-10-03T12:15:13.000Z</time>
      </trkpt>
      <trkpt lat="43.59877" lon="0.95003">
        <ele>228</ele>
        <time>2020-10-03T12:15:14.000Z</time>
      </trkpt>
      <trkpt lat="43.59879" lon="0.95">
        <ele>228</ele>
        <time>2020-10-03T12:15:15.000Z</time>
      </trkpt>
      <trkpt lat="43.5988" lon="0.94997">
        <ele>228</ele>
        <time>2020-10-03T12:15:16.000Z</time>
      </trkpt>
      <trkpt lat="43.59882" lon="0.94995">
        <ele>228.8199936</ele>
        <time>2020-10-03T12:15:17.000Z</time>
      </trkpt>
      <trkpt lat="43.59883" lon="0.94992">
        <ele>230</ele>
        <time>2020-10-03T12:15:18.000Z</time>
      </trkpt>
      <trkpt lat="43.59885" lon="0.94989">
        <ele>230</ele>
        <time>2020-10-03T12:15:19.000Z</time>
      </trkpt>
      <trkpt lat="43.59886" lon="0.94987">
        <ele>230.2027052739</ele>
        <time>2020-10-03T12:15:20.000Z</time>
      </trkpt>
      <trkpt lat="43.59888" lon="0.94984">
        <ele>231</ele>
        <time>2020-10-03T12:15:21.000Z</time>
      </trkpt>
      <trkpt lat="43.59889" lon="0.94981">
        <ele>231</ele>
        <time>2020-10-03T12:15:22.000Z</time>
      </trkpt>
      <trkpt lat="43.59891" lon="0.94978">
        <ele>231</ele>
        <time>2020-10-03T12:15:23.000Z</time>
      </trkpt>
      <trkpt lat="43.59892" lon="0.94976">
        <ele>230.5666661926</ele>
        <time>2020-10-03T12:15:24.000Z</time>
      </trkpt>
      <trkpt lat="43.59894" lon="0.94973">
        <ele>230</ele>
        <time>2020-10-03T12:15:25.000Z</time>
      </trkpt>
      <trkpt lat="43.59896" lon="0.9497">
        <ele>230</ele>
        <time>2020-10-03T12:15:26.000Z</time>
      </trkpt>
      <trkpt lat="43.59897" lon="0.94968">
        <ele>230</ele>
        <time>2020-10-03T12:15:27.000Z</time>
      </trkpt>
      <trkpt lat="43.59899" lon="0.94965">
        <ele>230</ele>
        <time>2020-10-03T12:15:28.000Z</time>
      </trkpt>
      <trkpt lat="43.599" lon="0.94962">
        <ele>230</ele>
        <time>2020-10-03T12:15:29.000Z</time>
      </trkpt>
      <trkpt lat="43.59902" lon="0.9496">
        <ele>230</ele>
        <time>2020-10-03T12:15:30.000Z</time>
      </trkpt>
      <trkpt lat="43.59903" lon="0.94957">
        <ele>229.59769895099</ele>
        <time>2020-10-03T12:15:31.000Z</time>
      </trkpt>
      <trkpt lat="43.59905" lon="0.94954">
        <ele>229</ele>
        <time>2020-10-03T12:15:32.000Z</time>
      </trkpt>
      <trkpt lat="43.59906" lon="0.94951">
        <ele>229</ele>
        <time>2020-10-03T12:15:33.000Z</time>
      </trkpt>
      <trkpt lat="43.59908" lon="0.94949">
        <ele>229</ele>
        <time>2020-10-03T12:15:34.000Z</time>
      </trkpt>
      <trkpt lat="43.59909" lon="0.94946">
        <ele>229</ele>
        <time>2020-10-03T12:15:35.000Z</time>
      </trkpt>
      <trkpt lat="43.59911" lon="0.94943">
        <ele>229</ele>
        <time>2020-10-03T12:15:36.000Z</time>
      </trkpt>
      <trkpt lat="43.59912" lon="0.9494">
        <ele>229</ele>
        <time>2020-10-03T12:15:37.000Z</time>
      </trkpt>
      <trkpt lat="43.59914" lon="0.94938">
        <ele>229</ele>
        <time>2020-10-03T12:15:38.000Z</time>
      </trkpt>
      <trkpt lat="43.59915" lon="0.94935">
        <ele>229</ele>
        <time>2020-10-03T12:15:39.000Z</time>
      </trkpt>
      <trkpt lat="43.59918" lon="0.9493">
        <ele>229</ele>
        <time>2020-10-03T12:15:41.000Z</time>
      </trkpt>
      <trkpt lat="43.5992" lon="0.94927">
        <ele>228.74117186441</ele>
        <time>2020-10-03T12:15:42.000Z</time>
      </trkpt>
      <trkpt lat="43.59921" lon="0.94925">
        <ele>228</ele>
        <time>2020-10-03T12:15:43.000Z</time>
      </trkpt>
      <trkpt lat="43.59923" lon="0.94922">
        <ele>228</ele>
        <time>2020-10-03T12:15:44.000Z</time>
      </trkpt>
      <trkpt lat="43.59924" lon="0.9492">
        <ele>228</ele>
        <time>2020-10-03T12:15:45.000Z</time>
      </trkpt>
      <trkpt lat="43.59926" lon="0.94917">
        <ele>228.1666595554</ele>
        <time>2020-10-03T12:15:46.000Z</time>
      </trkpt>
      <trkpt lat="43.59927" lon="0.94914">
        <ele>229</ele>
        <time>2020-10-03T12:15:47.000Z</time>
      </trkpt>
      <trkpt lat="43.59929" lon="0.94912">
        <ele>229</ele>
        <time>2020-10-03T12:15:48.000Z</time>
      </trkpt>
      <trkpt lat="43.5993" lon="0.94909">
        <ele>229</ele>
        <time>2020-10-03T12:15:49.000Z</time>
      </trkpt>
      <trkpt lat="43.59931" lon="0.94906">
        <ele>229</ele>
        <time>2020-10-03T12:15:50.000Z</time>
      </trkpt>
      <trkpt lat="43.59933" lon="0.94903">
        <ele>229</ele>
        <time>2020-10-03T12:15:51.000Z</time>
      </trkpt>
      <trkpt lat="43.59934" lon="0.94901">
        <ele>229</ele>
        <time>2020-10-03T12:15:52.000Z</time>
      </trkpt>
      <trkpt lat="43.59935" lon="0.94898">
        <ele>229.4403682653</ele>
        <time>2020-10-03T12:15:53.000Z</time>
      </trkpt>
      <trkpt lat="43.59937" lon="0.94896">
        <ele>230</ele>
        <time>2020-10-03T12:15:54.000Z</time>
      </trkpt>
      <trkpt lat="43.59938" lon="0.94893">
        <ele>230</ele>
        <time>2020-10-03T12:15:55.000Z</time>
      </trkpt>
      <trkpt lat="43.5994" lon="0.9489">
        <ele>230</ele>
        <time>2020-10-03T12:15:56.000Z</time>
      </trkpt>
      <trkpt lat="43.59941" lon="0.94887">
        <ele>230</ele>
        <time>2020-10-03T12:15:57.000Z</time>
      </trkpt>
      <trkpt lat="43.59943" lon="0.94885">
        <ele>230.37349639134</ele>
        <time>2020-10-03T12:15:58.000Z</time>
      </trkpt>
      <trkpt lat="43.59944" lon="0.94882">
        <ele>231</ele>
        <time>2020-10-03T12:15:59.000Z</time>
      </trkpt>
      <trkpt lat="43.59945" lon="0.9488">
        <ele>231</ele>
        <time>2020-10-03T12:16:00.000Z</time>
      </trkpt>
      <trkpt lat="43.59946" lon="0.94878">
        <ele>231.26315789474</ele>
        <time>2020-10-03T12:16:01.000Z</time>
      </trkpt>
      <trkpt lat="43.59947" lon="0.94875">
        <ele>236</ele>
        <time>2020-10-03T12:16:02.000Z</time>
      </trkpt>
      <trkpt lat="43.59948" lon="0.94872">
        <ele>236</ele>
        <time>2020-10-03T12:16:03.000Z</time>
      </trkpt>
      <trkpt lat="43.5995" lon="0.9487">
        <ele>236</ele>
        <time>2020-10-03T12:16:04.000Z</time>
      </trkpt>
      <trkpt lat="43.59951" lon="0.94867">
        <ele>235.48051732163</ele>
        <time>2020-10-03T12:16:05.000Z</time>
      </trkpt>
      <trkpt lat="43.59953" lon="0.94865">
        <ele>234</ele>
        <time>2020-10-03T12:16:06.000Z</time>
      </trkpt>
      <trkpt lat="43.59954" lon="0.94862">
        <ele>234</ele>
        <time>2020-10-03T12:16:07.000Z</time>
      </trkpt>
      <trkpt lat="43.59955" lon="0.9486">
        <ele>233.54128892855</ele>
        <time>2020-10-03T12:16:08.000Z</time>
      </trkpt>
      <trkpt lat="43.59957" lon="0.94857">
        <ele>233</ele>
        <time>2020-10-03T12:16:09.000Z</time>
      </trkpt>
      <trkpt lat="43.59958" lon="0.94855">
        <ele>233</ele>
        <time>2020-10-03T12:16:10.000Z</time>
      </trkpt>
      <trkpt lat="43.5996" lon="0.94852">
        <ele>233</ele>
        <time>2020-10-03T12:16:11.000Z</time>
      </trkpt>
      <trkpt lat="43.59961" lon="0.9485">
        <ele>233</ele>
        <time>2020-10-03T12:16:12.000Z</time>
      </trkpt>
      <trkpt lat="43.59963" lon="0.94848">
        <ele>233</ele>
        <time>2020-10-03T12:16:13.000Z</time>
      </trkpt>
      <trkpt lat="43.59965" lon="0.94846">
        <ele>233</ele>
        <time>2020-10-03T12:16:14.000Z</time>
      </trkpt>
      <trkpt lat="43.59967" lon="0.94845">
        <ele>233</ele>
        <time>2020-10-03T12:16:15.000Z</time>
      </trkpt>
      <trkpt lat="43.59969" lon="0.94844">
        <ele>233</ele>
        <time>2020-10-03T12:16:16.000Z</time>
      </trkpt>
      <trkpt lat="43.59972" lon="0.94844">
        <ele>233.36448788191</ele>
        <time>2020-10-03T12:16:17.000Z</time>
      </trkpt>
      <trkpt lat="43.59974" lon="0.94845">
        <ele>234</ele>
        <time>2020-10-03T12:16:18.000Z</time>
      </trkpt>
      <trkpt lat="43.59976" lon="0.94845">
        <ele>234</ele>
        <time>2020-10-03T12:16:19.000Z</time>
      </trkpt>
      <trkpt lat="43.59979" lon="0.94846">
        <ele>234</ele>
        <time>2020-10-03T12:16:20.000Z</time>
      </trkpt>
      <trkpt lat="43.59981" lon="0.94847">
        <ele>234</ele>
        <time>2020-10-03T12:16:21.000Z</time>
      </trkpt>
      <trkpt lat="43.59983" lon="0.94849">
        <ele>234</ele>
        <time>2020-10-03T12:16:22.000Z</time>
      </trkpt>
      <trkpt lat="43.59986" lon="0.9485">
        <ele>234</ele>
        <time>2020-10-03T12:16:23.000Z</time>
      </trkpt>
      <trkpt lat="43.59988" lon="0.94851">
        <ele>234</ele>
        <time>2020-10-03T12:16:24.000Z</time>
      </trkpt>
      <trkpt lat="43.59991" lon="0.94852">
        <ele>234</ele>
        <time>2020-10-03T12:16:25.000Z</time>
      </trkpt>
      <trkpt lat="43.59993" lon="0.94853">
        <ele>234</ele>
        <time>2020-10-03T12:16:26.000Z</time>
      </trkpt>
      <trkpt lat="43.59995" lon="0.94855">
        <ele>234</ele>
        <time>2020-10-03T12:16:27.000Z</time>
      </trkpt>
      <trkpt lat="43.59998" lon="0.94857">
        <ele>234</ele>
        <time>2020-10-03T12:16:28.000Z</time>
      </trkpt>
      <trkpt lat="43.6" lon="0.94858">
        <ele>234</ele>
        <time>2020-10-03T12:16:29.000Z</time>
      </trkpt>
      <trkpt lat="43.60002" lon="0.9486">
        <ele>234</ele>
        <time>2020-10-03T12:16:30.000Z</time>
      </trkpt>
      <trkpt lat="43.60005" lon="0.94861">
        <ele>234</ele>
        <time>2020-10-03T12:16:31.000Z</time>
      </trkpt>
      <trkpt lat="43.60007" lon="0.94863">
        <ele>234</ele>
        <time>2020-10-03T12:16:32.000Z</time>
      </trkpt>
      <trkpt lat="43.60009" lon="0.94864">
        <ele>234</ele>
        <time>2020-10-03T12:16:33.000Z</time>
      </trkpt>
      <trkpt lat="43.60012" lon="0.94865">
        <ele>233.63094857143</ele>
        <time>2020-10-03T12:16:34.000Z</time>
      </trkpt>
      <trkpt lat="43.60014" lon="0.94866">
        <ele>233</ele>
        <time>2020-10-03T12:16:35.000Z</time>
      </trkpt>
      <trkpt lat="43.60017" lon="0.94867">
        <ele>233</ele>
        <time>2020-10-03T12:16:36.000Z</time>
      </trkpt>
      <trkpt lat="43.60019" lon="0.94868">
        <ele>233</ele>
        <time>2020-10-03T12:16:37.000Z</time>
      </trkpt>
      <trkpt lat="43.60021" lon="0.9487">
        <ele>233</ele>
        <time>2020-10-03T12:16:38.000Z</time>
      </trkpt>
      <trkpt lat="43.60024" lon="0.94871">
        <ele>233</ele>
        <time>2020-10-03T12:16:39.000Z</time>
      </trkpt>
      <trkpt lat="43.60026" lon="0.94873">
        <ele>232.54545771903</ele>
        <time>2020-10-03T12:16:40.000Z</time>
      </trkpt>
      <trkpt lat="43.60029" lon="0.94874">
        <ele>232</ele>
        <time>2020-10-03T12:16:41.000Z</time>
      </trkpt>
      <trkpt lat="43.60031" lon="0.94876">
        <ele>232</ele>
        <time>2020-10-03T12:16:42.000Z</time>
      </trkpt>
      <trkpt lat="43.60034" lon="0.94877">
        <ele>231.71621808621</ele>
        <time>2020-10-03T12:16:43.000Z</time>
      </trkpt>
      <trkpt lat="43.60037" lon="0.94879">
        <ele>231</ele>
        <time>2020-10-03T12:16:44.000Z</time>
      </trkpt>
      <trkpt lat="43.6004" lon="0.9488">
        <ele>231</ele>
        <time>2020-10-03T12:16:45.000Z</time>
      </trkpt>
      <trkpt lat="43.60043" lon="0.94882">
        <ele>231</ele>
        <time>2020-10-03T12:16:46.000Z</time>
      </trkpt>
      <trkpt lat="43.60045" lon="0.94883">
        <ele>231</ele>
        <time>2020-10-03T12:16:47.000Z</time>
      </trkpt>
      <trkpt lat="43.60048" lon="0.94885">
        <ele>231</ele>
        <time>2020-10-03T12:16:48.000Z</time>
      </trkpt>
      <trkpt lat="43.60051" lon="0.94886">
        <ele>230.06250666667</ele>
        <time>2020-10-03T12:16:49.000Z</time>
      </trkpt>
      <trkpt lat="43.60054" lon="0.94888">
        <ele>229</ele>
        <time>2020-10-03T12:16:50.000Z</time>
      </trkpt>
      <trkpt lat="43.60056" lon="0.94889">
        <ele>229</ele>
        <time>2020-10-03T12:16:51.000Z</time>
      </trkpt>
      <trkpt lat="43.60059" lon="0.94891">
        <ele>228.52884923077</ele>
        <time>2020-10-03T12:16:52.000Z</time>
      </trkpt>
      <trkpt lat="43.60062" lon="0.94892">
        <ele>228</ele>
        <time>2020-10-03T12:16:53.000Z</time>
      </trkpt>
      <trkpt lat="43.60065" lon="0.94894">
        <ele>228</ele>
        <time>2020-10-03T12:16:54.000Z</time>
      </trkpt>
      <trkpt lat="43.60068" lon="0.94895">
        <ele>228</ele>
        <time>2020-10-03T12:16:55.000Z</time>
      </trkpt>
      <trkpt lat="43.60071" lon="0.94897">
        <ele>228</ele>
        <time>2020-10-03T12:16:56.000Z</time>
      </trkpt>
      <trkpt lat="43.60074" lon="0.94898">
        <ele>228</ele>
        <time>2020-10-03T12:16:57.000Z</time>
      </trkpt>
      <trkpt lat="43.60077" lon="0.94899">
        <ele>228</ele>
        <time>2020-10-03T12:16:58.000Z</time>
      </trkpt>
      <trkpt lat="43.60079" lon="0.949">
        <ele>228</ele>
        <time>2020-10-03T12:16:59.000Z</time>
      </trkpt>
      <trkpt lat="43.60082" lon="0.94902">
        <ele>228</ele>
        <time>2020-10-03T12:17:00.000Z</time>
      </trkpt>
      <trkpt lat="43.60084" lon="0.94903">
        <ele>227.65671955448</ele>
        <time>2020-10-03T12:17:01.000Z</time>
      </trkpt>
      <trkpt lat="43.60087" lon="0.94904">
        <ele>227</ele>
        <time>2020-10-03T12:17:02.000Z</time>
      </trkpt>
      <trkpt lat="43.60089" lon="0.94905">
        <ele>227</ele>
        <time>2020-10-03T12:17:03.000Z</time>
      </trkpt>
      <trkpt lat="43.60091" lon="0.94907">
        <ele>227</ele>
        <time>2020-10-03T12:17:04.000Z</time>
      </trkpt>
      <trkpt lat="43.60093" lon="0.94909">
        <ele>227.33332842914</ele>
        <time>2020-10-03T12:17:05.000Z</time>
      </trkpt>
      <trkpt lat="43.60095" lon="0.9491">
        <ele>228</ele>
        <time>2020-10-03T12:17:06.000Z</time>
      </trkpt>
      <trkpt lat="43.60097" lon="0.94911">
        <ele>228</ele>
        <time>2020-10-03T12:17:07.000Z</time>
      </trkpt>
      <trkpt lat="43.601" lon="0.94912">
        <ele>228</ele>
        <time>2020-10-03T12:17:08.000Z</time>
      </trkpt>
      <trkpt lat="43.60102" lon="0.94913">
        <ele>228</ele>
        <time>2020-10-03T12:17:09.000Z</time>
      </trkpt>
      <trkpt lat="43.60104" lon="0.94915">
        <ele>228</ele>
        <time>2020-10-03T12:17:10.000Z</time>
      </trkpt>
      <trkpt lat="43.60107" lon="0.94916">
        <ele>228</ele>
        <time>2020-10-03T12:17:11.000Z</time>
      </trkpt>
      <trkpt lat="43.60109" lon="0.94917">
        <ele>228</ele>
        <time>2020-10-03T12:17:12.000Z</time>
      </trkpt>
      <trkpt lat="43.60111" lon="0.94919">
        <ele>228</ele>
        <time>2020-10-03T12:17:13.000Z</time>
      </trkpt>
      <trkpt lat="43.60114" lon="0.9492">
        <ele>228</ele>
        <time>2020-10-03T12:17:14.000Z</time>
      </trkpt>
      <trkpt lat="43.60116" lon="0.94921">
        <ele>228</ele>
        <time>2020-10-03T12:17:15.000Z</time>
      </trkpt>
      <trkpt lat="43.60118" lon="0.94923">
        <ele>228</ele>
        <time>2020-10-03T12:17:16.000Z</time>
      </trkpt>
      <trkpt lat="43.60121" lon="0.94924">
        <ele>228</ele>
        <time>2020-10-03T12:17:17.000Z</time>
      </trkpt>
      <trkpt lat="43.60123" lon="0.94925">
        <ele>228</ele>
        <time>2020-10-03T12:17:18.000Z</time>
      </trkpt>
      <trkpt lat="43.60125" lon="0.94926">
        <ele>228</ele>
        <time>2020-10-03T12:17:19.000Z</time>
      </trkpt>
      <trkpt lat="43.60127" lon="0.94927">
        <ele>228</ele>
        <time>2020-10-03T12:17:20.000Z</time>
      </trkpt>
      <trkpt lat="43.6013" lon="0.94929">
        <ele>228</ele>
        <time>2020-10-03T12:17:21.000Z</time>
      </trkpt>
      <trkpt lat="43.60133" lon="0.9493">
        <ele>228</ele>
        <time>2020-10-03T12:17:22.000Z</time>
      </trkpt>
      <trkpt lat="43.60135" lon="0.94931">
        <ele>228</ele>
        <time>2020-10-03T12:17:23.000Z</time>
      </trkpt>
      <trkpt lat="43.60137" lon="0.94932">
        <ele>228</ele>
        <time>2020-10-03T12:17:24.000Z</time>
      </trkpt>
      <trkpt lat="43.6014" lon="0.94933">
        <ele>228.4099968</ele>
        <time>2020-10-03T12:17:25.000Z</time>
      </trkpt>
      <trkpt lat="43.60142" lon="0.94935">
        <ele>229</ele>
        <time>2020-10-03T12:17:26.000Z</time>
      </trkpt>
      <trkpt lat="43.60144" lon="0.94937">
        <ele>229</ele>
        <time>2020-10-03T12:17:27.000Z</time>
      </trkpt>
      <trkpt lat="43.60147" lon="0.94938">
        <ele>229</ele>
        <time>2020-10-03T12:17:28.000Z</time>
      </trkpt>
      <trkpt lat="43.60149" lon="0.9494">
        <ele>229</ele>
        <time>2020-10-03T12:17:29.000Z</time>
      </trkpt>
      <trkpt lat="43.60151" lon="0.94941">
        <ele>229</ele>
        <time>2020-10-03T12:17:30.000Z</time>
      </trkpt>
      <trkpt lat="43.60153" lon="0.94943">
        <ele>229</ele>
        <time>2020-10-03T12:17:31.000Z</time>
      </trkpt>
      <trkpt lat="43.60155" lon="0.94944">
        <ele>229</ele>
        <time>2020-10-03T12:17:32.000Z</time>
      </trkpt>
      <trkpt lat="43.60157" lon="0.94945">
        <ele>229</ele>
        <time>2020-10-03T12:17:33.000Z</time>
      </trkpt>
      <trkpt lat="43.6016" lon="0.94947">
        <ele>229.80899167278</ele>
        <time>2020-10-03T12:17:34.000Z</time>
      </trkpt>
      <trkpt lat="43.60162" lon="0.94948">
        <ele>231</ele>
        <time>2020-10-03T12:17:35.000Z</time>
      </trkpt>
      <trkpt lat="43.60164" lon="0.94949">
        <ele>231</ele>
        <time>2020-10-03T12:17:36.000Z</time>
      </trkpt>
      <trkpt lat="43.60166" lon="0.9495">
        <ele>231</ele>
        <time>2020-10-03T12:17:37.000Z</time>
      </trkpt>
      <trkpt lat="43.60169" lon="0.94951">
        <ele>231</ele>
        <time>2020-10-03T12:17:38.000Z</time>
      </trkpt>
      <trkpt lat="43.60171" lon="0.94952">
        <ele>231</ele>
        <time>2020-10-03T12:17:39.000Z</time>
      </trkpt>
      <trkpt lat="43.60173" lon="0.94953">
        <ele>231</ele>
        <time>2020-10-03T12:17:40.000Z</time>
      </trkpt>
      <trkpt lat="43.60176" lon="0.94954">
        <ele>231</ele>
        <time>2020-10-03T12:17:41.000Z</time>
      </trkpt>
      <trkpt lat="43.60178" lon="0.94955">
        <ele>231</ele>
        <time>2020-10-03T12:17:42.000Z</time>
      </trkpt>
      <trkpt lat="43.6018" lon="0.94956">
        <ele>231</ele>
        <time>2020-10-03T12:17:43.000Z</time>
      </trkpt>
      <trkpt lat="43.60182" lon="0.94958">
        <ele>231</ele>
        <time>2020-10-03T12:17:44.000Z</time>
      </trkpt>
      <trkpt lat="43.60184" lon="0.94959">
        <ele>231.88888256795</ele>
        <time>2020-10-03T12:17:45.000Z</time>
      </trkpt>
      <trkpt lat="43.60186" lon="0.9496">
        <ele>233</ele>
        <time>2020-10-03T12:17:46.000Z</time>
      </trkpt>
      <trkpt lat="43.60188" lon="0.94962">
        <ele>233</ele>
        <time>2020-10-03T12:17:47.000Z</time>
      </trkpt>
      <trkpt lat="43.6019" lon="0.94963">
        <ele>233.33636268429</ele>
        <time>2020-10-03T12:17:48.000Z</time>
      </trkpt>
      <trkpt lat="43.60192" lon="0.94964">
        <ele>234</ele>
        <time>2020-10-03T12:17:49.000Z</time>
      </trkpt>
      <trkpt lat="43.60194" lon="0.94965">
        <ele>234</ele>
        <time>2020-10-03T12:17:50.000Z</time>
      </trkpt>
      <trkpt lat="43.60196" lon="0.94967">
        <ele>234</ele>
        <time>2020-10-03T12:17:51.000Z</time>
      </trkpt>
      <trkpt lat="43.60198" lon="0.94968">
        <ele>234</ele>
        <time>2020-10-03T12:17:52.000Z</time>
      </trkpt>
      <trkpt lat="43.602" lon="0.94969">
        <ele>234</ele>
        <time>2020-10-03T12:17:53.000Z</time>
      </trkpt>
      <trkpt lat="43.60202" lon="0.94971">
        <ele>234.34258962963</ele>
        <time>2020-10-03T12:17:54.000Z</time>
      </trkpt>
      <trkpt lat="43.60204" lon="0.94972">
        <ele>235</ele>
        <time>2020-10-03T12:17:55.000Z</time>
      </trkpt>
      <trkpt lat="43.60206" lon="0.94974">
        <ele>235</ele>
        <time>2020-10-03T12:17:56.000Z</time>
      </trkpt>
      <trkpt lat="43.60207" lon="0.94975">
        <ele>235.60215260956</ele>
        <time>2020-10-03T12:17:57.000Z</time>
      </trkpt>
      <trkpt lat="43.60209" lon="0.94977">
        <ele>237</ele>
        <time>2020-10-03T12:17:58.000Z</time>
      </trkpt>
      <trkpt lat="43.60212" lon="0.94978">
        <ele>237</ele>
        <time>2020-10-03T12:17:59.000Z</time>
      </trkpt>
      <trkpt lat="43.60214" lon="0.94979">
        <ele>237</ele>
        <time>2020-10-03T12:18:00.000Z</time>
      </trkpt>
      <trkpt lat="43.60217" lon="0.9498">
        <ele>236.73077112428</ele>
        <time>2020-10-03T12:18:01.000Z</time>
      </trkpt>
      <trkpt lat="43.6022" lon="0.94982">
        <ele>236</ele>
        <time>2020-10-03T12:18:02.000Z</time>
      </trkpt>
      <trkpt lat="43.60222" lon="0.94983">
        <ele>236</ele>
        <time>2020-10-03T12:18:03.000Z</time>
      </trkpt>
      <trkpt lat="43.60225" lon="0.94985">
        <ele>236</ele>
        <time>2020-10-03T12:18:04.000Z</time>
      </trkpt>
      <trkpt lat="43.60227" lon="0.94987">
        <ele>236</ele>
        <time>2020-10-03T12:18:05.000Z</time>
      </trkpt>
      <trkpt lat="43.6023" lon="0.94988">
        <ele>236</ele>
        <time>2020-10-03T12:18:06.000Z</time>
      </trkpt>
      <trkpt lat="43.60233" lon="0.9499">
        <ele>236</ele>
        <time>2020-10-03T12:18:07.000Z</time>
      </trkpt>
      <trkpt lat="43.60236" lon="0.94991">
        <ele>235.16000204803</ele>
        <time>2020-10-03T12:18:08.000Z</time>
      </trkpt>
      <trkpt lat="43.60239" lon="0.94993">
        <ele>234</ele>
        <time>2020-10-03T12:18:09.000Z</time>
      </trkpt>
      <trkpt lat="43.60241" lon="0.94995">
        <ele>234</ele>
        <time>2020-10-03T12:18:10.000Z</time>
      </trkpt>
      <trkpt lat="43.60244" lon="0.94997">
        <ele>233.54255290177</ele>
        <time>2020-10-03T12:18:11.000Z</time>
      </trkpt>
      <trkpt lat="43.60247" lon="0.94999">
        <ele>233</ele>
        <time>2020-10-03T12:18:12.000Z</time>
      </trkpt>
      <trkpt lat="43.60249" lon="0.95">
        <ele>233</ele>
        <time>2020-10-03T12:18:13.000Z</time>
      </trkpt>
      <trkpt lat="43.60252" lon="0.95002">
        <ele>232</ele>
        <time>2020-10-03T12:18:15.000Z</time>
      </trkpt>
      <trkpt lat="43.60255" lon="0.95003">
        <ele>231.66176941176</ele>
        <time>2020-10-03T12:18:17.000Z</time>
      </trkpt>
      <trkpt lat="43.60257" lon="0.95005">
        <ele>231</ele>
        <time>2020-10-03T12:18:18.000Z</time>
      </trkpt>
      <trkpt lat="43.6026" lon="0.95006">
        <ele>231</ele>
        <time>2020-10-03T12:18:19.000Z</time>
      </trkpt>
      <trkpt lat="43.60263" lon="0.95008">
        <ele>231</ele>
        <time>2020-10-03T12:18:20.000Z</time>
      </trkpt>
      <trkpt lat="43.60266" lon="0.9501">
        <ele>230.12359776793</ele>
        <time>2020-10-03T12:18:21.000Z</time>
      </trkpt>
      <trkpt lat="43.60269" lon="0.95011">
        <ele>229</ele>
        <time>2020-10-03T12:18:22.000Z</time>
      </trkpt>
      <trkpt lat="43.60272" lon="0.95013">
        <ele>229</ele>
        <time>2020-10-03T12:18:23.000Z</time>
      </trkpt>
      <trkpt lat="43.60275" lon="0.95014">
        <ele>228.58241201789</ele>
        <time>2020-10-03T12:18:24.000Z</time>
      </trkpt>
      <trkpt lat="43.60278" lon="0.95016">
        <ele>228</ele>
        <time>2020-10-03T12:18:25.000Z</time>
      </trkpt>
      <trkpt lat="43.60282" lon="0.95017">
        <ele>228</ele>
        <time>2020-10-03T12:18:26.000Z</time>
      </trkpt>
      <trkpt lat="43.60285" lon="0.95019">
        <ele>227.13760627554</ele>
        <time>2020-10-03T12:18:27.000Z</time>
      </trkpt>
      <trkpt lat="43.60287" lon="0.9502">
        <ele>226</ele>
        <time>2020-10-03T12:18:28.000Z</time>
      </trkpt>
      <trkpt lat="43.6029" lon="0.95022">
        <ele>226</ele>
        <time>2020-10-03T12:18:29.000Z</time>
      </trkpt>
      <trkpt lat="43.60293" lon="0.95024">
        <ele>225.56179258173</ele>
        <time>2020-10-03T12:18:30.000Z</time>
      </trkpt>
      <trkpt lat="43.60296" lon="0.95026">
        <ele>225</ele>
        <time>2020-10-03T12:18:31.000Z</time>
      </trkpt>
      <trkpt lat="43.60299" lon="0.95028">
        <ele>225</ele>
        <time>2020-10-03T12:18:32.000Z</time>
      </trkpt>
      <trkpt lat="43.60302" lon="0.9503">
        <ele>224.18181818182</ele>
        <time>2020-10-03T12:18:33.000Z</time>
      </trkpt>
      <trkpt lat="43.60306" lon="0.95032">
        <ele>223</ele>
        <time>2020-10-03T12:18:34.000Z</time>
      </trkpt>
      <trkpt lat="43.60309" lon="0.95033">
        <ele>223</ele>
        <time>2020-10-03T12:18:35.000Z</time>
      </trkpt>
      <trkpt lat="43.60312" lon="0.95035">
        <ele>223</ele>
        <time>2020-10-03T12:18:36.000Z</time>
      </trkpt>
      <trkpt lat="43.60315" lon="0.95037">
        <ele>223</ele>
        <time>2020-10-03T12:18:37.000Z</time>
      </trkpt>
      <trkpt lat="43.60317" lon="0.95038">
        <ele>223</ele>
        <time>2020-10-03T12:18:38.000Z</time>
      </trkpt>
      <trkpt lat="43.6032" lon="0.9504">
        <ele>223</ele>
        <time>2020-10-03T12:18:39.000Z</time>
      </trkpt>
      <trkpt lat="43.60323" lon="0.95042">
        <ele>223</ele>
        <time>2020-10-03T12:18:40.000Z</time>
      </trkpt>
      <trkpt lat="43.60326" lon="0.95043">
        <ele>222.66055239795</ele>
        <time>2020-10-03T12:18:41.000Z</time>
      </trkpt>
      <trkpt lat="43.60329" lon="0.95045">
        <ele>222</ele>
        <time>2020-10-03T12:18:42.000Z</time>
      </trkpt>
      <trkpt lat="43.60332" lon="0.95046">
        <ele>221.66355240807</ele>
        <time>2020-10-03T12:18:43.000Z</time>
      </trkpt>
      <trkpt lat="43.60335" lon="0.95048">
        <ele>221</ele>
        <time>2020-10-03T12:18:44.000Z</time>
      </trkpt>
      <trkpt lat="43.60338" lon="0.9505">
        <ele>220.66666666667</ele>
        <time>2020-10-03T12:18:45.000Z</time>
      </trkpt>
      <trkpt lat="43.60341" lon="0.95051">
        <ele>220</ele>
        <time>2020-10-03T12:18:46.000Z</time>
      </trkpt>
      <trkpt lat="43.60343" lon="0.95053">
        <ele>220</ele>
        <time>2020-10-03T12:18:47.000Z</time>
      </trkpt>
      <trkpt lat="43.60346" lon="0.95055">
        <ele>220</ele>
        <time>2020-10-03T12:18:48.000Z</time>
      </trkpt>
      <trkpt lat="43.60349" lon="0.95056">
        <ele>220</ele>
        <time>2020-10-03T12:18:49.000Z</time>
      </trkpt>
      <trkpt lat="43.60352" lon="0.95058">
        <ele>220</ele>
        <time>2020-10-03T12:18:50.000Z</time>
      </trkpt>
      <trkpt lat="43.60355" lon="0.95059">
        <ele>220</ele>
        <time>2020-10-03T12:18:51.000Z</time>
      </trkpt>
      <trkpt lat="43.60358" lon="0.95061">
        <ele>220</ele>
        <time>2020-10-03T12:18:52.000Z</time>
      </trkpt>
      <trkpt lat="43.60361" lon="0.95063">
        <ele>220</ele>
        <time>2020-10-03T12:18:53.000Z</time>
      </trkpt>
      <trkpt lat="43.60364" lon="0.95065">
        <ele>220</ele>
        <time>2020-10-03T12:18:54.000Z</time>
      </trkpt>
      <trkpt lat="43.60367" lon="0.95067">
        <ele>220</ele>
        <time>2020-10-03T12:18:55.000Z</time>
      </trkpt>
      <trkpt lat="43.6037" lon="0.95068">
        <ele>220</ele>
        <time>2020-10-03T12:18:56.000Z</time>
      </trkpt>
      <trkpt lat="43.60372" lon="0.9507">
        <ele>220</ele>
        <time>2020-10-03T12:18:57.000Z</time>
      </trkpt>
      <trkpt lat="43.60375" lon="0.95071">
        <ele>220</ele>
        <time>2020-10-03T12:18:58.000Z</time>
      </trkpt>
      <trkpt lat="43.60377" lon="0.95073">
        <ele>220</ele>
        <time>2020-10-03T12:18:59.000Z</time>
      </trkpt>
      <trkpt lat="43.6038" lon="0.95074">
        <ele>219.66363731571</ele>
        <time>2020-10-03T12:19:00.000Z</time>
      </trkpt>
      <trkpt lat="43.60383" lon="0.95076">
        <ele>219</ele>
        <time>2020-10-03T12:19:01.000Z</time>
      </trkpt>
      <trkpt lat="43.60386" lon="0.95078">
        <ele>219</ele>
        <time>2020-10-03T12:19:02.000Z</time>
      </trkpt>
      <trkpt lat="43.60388" lon="0.95079">
        <ele>218.68478608696</ele>
        <time>2020-10-03T12:19:03.000Z</time>
      </trkpt>
      <trkpt lat="43.6039" lon="0.9508">
        <ele>218</ele>
        <time>2020-10-03T12:19:04.000Z</time>
      </trkpt>
      <trkpt lat="43.60393" lon="0.95081">
        <ele>218</ele>
        <time>2020-10-03T12:19:05.000Z</time>
      </trkpt>
      <trkpt lat="43.60395" lon="0.95082">
        <ele>218</ele>
        <time>2020-10-03T12:19:06.000Z</time>
      </trkpt>
      <trkpt lat="43.60398" lon="0.95084">
        <ele>218.376922471</ele>
        <time>2020-10-03T12:19:07.000Z</time>
      </trkpt>
      <trkpt lat="43.604" lon="0.95085">
        <ele>219</ele>
        <time>2020-10-03T12:19:08.000Z</time>
      </trkpt>
      <trkpt lat="43.60402" lon="0.95086">
        <ele>219</ele>
        <time>2020-10-03T12:19:09.000Z</time>
      </trkpt>
      <trkpt lat="43.60405" lon="0.95088">
        <ele>219</ele>
        <time>2020-10-03T12:19:10.000Z</time>
      </trkpt>
      <trkpt lat="43.60407" lon="0.9509">
        <ele>219</ele>
        <time>2020-10-03T12:19:11.000Z</time>
      </trkpt>
      <trkpt lat="43.6041" lon="0.95091">
        <ele>219</ele>
        <time>2020-10-03T12:19:12.000Z</time>
      </trkpt>
      <trkpt lat="43.60412" lon="0.95093">
        <ele>219</ele>
        <time>2020-10-03T12:19:13.000Z</time>
      </trkpt>
      <trkpt lat="43.60415" lon="0.95095">
        <ele>219</ele>
        <time>2020-10-03T12:19:14.000Z</time>
      </trkpt>
      <trkpt lat="43.60417" lon="0.95096">
        <ele>219</ele>
        <time>2020-10-03T12:19:15.000Z</time>
      </trkpt>
      <trkpt lat="43.60419" lon="0.95097">
        <ele>219</ele>
        <time>2020-10-03T12:19:16.000Z</time>
      </trkpt>
      <trkpt lat="43.60422" lon="0.95097">
        <ele>219</ele>
        <time>2020-10-03T12:19:17.000Z</time>
      </trkpt>
      <trkpt lat="43.60423" lon="0.95095">
        <ele>219</ele>
        <time>2020-10-03T12:19:18.000Z</time>
      </trkpt>
      <trkpt lat="43.60424" lon="0.95093">
        <ele>219</ele>
        <time>2020-10-03T12:19:19.000Z</time>
      </trkpt>
      <trkpt lat="43.60425" lon="0.9509">
        <ele>219</ele>
        <time>2020-10-03T12:19:20.000Z</time>
      </trkpt>
      <trkpt lat="43.60426" lon="0.95086">
        <ele>219.44953966837</ele>
        <time>2020-10-03T12:19:21.000Z</time>
      </trkpt>
      <trkpt lat="43.60426" lon="0.95083">
        <ele>220</ele>
        <time>2020-10-03T12:19:22.000Z</time>
      </trkpt>
      <trkpt lat="43.60426" lon="0.95079">
        <ele>220</ele>
        <time>2020-10-03T12:19:23.000Z</time>
      </trkpt>
      <trkpt lat="43.60426" lon="0.95076">
        <ele>220</ele>
        <time>2020-10-03T12:19:24.000Z</time>
      </trkpt>
      <trkpt lat="43.60426" lon="0.95072">
        <ele>220</ele>
        <time>2020-10-03T12:19:25.000Z</time>
      </trkpt>
      <trkpt lat="43.60426" lon="0.95069">
        <ele>220</ele>
        <time>2020-10-03T12:19:26.000Z</time>
      </trkpt>
      <trkpt lat="43.60426" lon="0.95065">
        <ele>220</ele>
        <time>2020-10-03T12:19:27.000Z</time>
      </trkpt>
      <trkpt lat="43.60427" lon="0.95061">
        <ele>220</ele>
        <time>2020-10-03T12:19:28.000Z</time>
      </trkpt>
      <trkpt lat="43.60427" lon="0.95058">
        <ele>220</ele>
        <time>2020-10-03T12:19:29.000Z</time>
      </trkpt>
      <trkpt lat="43.60427" lon="0.95054">
        <ele>220</ele>
        <time>2020-10-03T12:19:30.000Z</time>
      </trkpt>
      <trkpt lat="43.60427" lon="0.95051">
        <ele>220</ele>
        <time>2020-10-03T12:19:31.000Z</time>
      </trkpt>
      <trkpt lat="43.60428" lon="0.95047">
        <ele>220</ele>
        <time>2020-10-03T12:19:32.000Z</time>
      </trkpt>
      <trkpt lat="43.60428" lon="0.95043">
        <ele>220</ele>
        <time>2020-10-03T12:19:33.000Z</time>
      </trkpt>
      <trkpt lat="43.60428" lon="0.9504">
        <ele>220</ele>
        <time>2020-10-03T12:19:34.000Z</time>
      </trkpt>
      <trkpt lat="43.60428" lon="0.95036">
        <ele>220</ele>
        <time>2020-10-03T12:19:35.000Z</time>
      </trkpt>
      <trkpt lat="43.60428" lon="0.95032">
        <ele>220</ele>
        <time>2020-10-03T12:19:36.000Z</time>
      </trkpt>
      <trkpt lat="43.60428" lon="0.95029">
        <ele>220</ele>
        <time>2020-10-03T12:19:37.000Z</time>
      </trkpt>
      <trkpt lat="43.60429" lon="0.95025">
        <ele>220</ele>
        <time>2020-10-03T12:19:38.000Z</time>
      </trkpt>
      <trkpt lat="43.60429" lon="0.95022">
        <ele>220</ele>
        <time>2020-10-03T12:19:39.000Z</time>
      </trkpt>
      <trkpt lat="43.60429" lon="0.95018">
        <ele>220</ele>
        <time>2020-10-03T12:19:40.000Z</time>
      </trkpt>
      <trkpt lat="43.60429" lon="0.95014">
        <ele>220</ele>
        <time>2020-10-03T12:19:41.000Z</time>
      </trkpt>
      <trkpt lat="43.60429" lon="0.95011">
        <ele>220</ele>
        <time>2020-10-03T12:19:42.000Z</time>
      </trkpt>
      <trkpt lat="43.60429" lon="0.95007">
        <ele>220</ele>
        <time>2020-10-03T12:19:43.000Z</time>
      </trkpt>
      <trkpt lat="43.6043" lon="0.95004">
        <ele>220</ele>
        <time>2020-10-03T12:19:44.000Z</time>
      </trkpt>
      <trkpt lat="43.6043" lon="0.95">
        <ele>220</ele>
        <time>2020-10-03T12:19:45.000Z</time>
      </trkpt>
      <trkpt lat="43.6043" lon="0.94996">
        <ele>220</ele>
        <time>2020-10-03T12:19:46.000Z</time>
      </trkpt>
      <trkpt lat="43.6043" lon="0.94992">
        <ele>220</ele>
        <time>2020-10-03T12:19:47.000Z</time>
      </trkpt>
      <trkpt lat="43.6043" lon="0.94989">
        <ele>220</ele>
        <time>2020-10-03T12:19:48.000Z</time>
      </trkpt>
      <trkpt lat="43.60431" lon="0.94985">
        <ele>220</ele>
        <time>2020-10-03T12:19:49.000Z</time>
      </trkpt>
      <trkpt lat="43.60431" lon="0.94981">
        <ele>220</ele>
        <time>2020-10-03T12:19:50.000Z</time>
      </trkpt>
      <trkpt lat="43.6043" lon="0.94977">
        <ele>220</ele>
        <time>2020-10-03T12:19:51.000Z</time>
      </trkpt>
      <trkpt lat="43.6043" lon="0.94974">
        <ele>220.2761183337</ele>
        <time>2020-10-03T12:19:52.000Z</time>
      </trkpt>
      <trkpt lat="43.60431" lon="0.9497">
        <ele>221</ele>
        <time>2020-10-03T12:19:53.000Z</time>
      </trkpt>
      <trkpt lat="43.60431" lon="0.94967">
        <ele>221</ele>
        <time>2020-10-03T12:19:54.000Z</time>
      </trkpt>
      <trkpt lat="43.60431" lon="0.94964">
        <ele>221</ele>
        <time>2020-10-03T12:19:55.000Z</time>
      </trkpt>
      <trkpt lat="43.60431" lon="0.9496">
        <ele>221</ele>
        <time>2020-10-03T12:19:56.000Z</time>
      </trkpt>
      <trkpt lat="43.60431" lon="0.94957">
        <ele>221</ele>
        <time>2020-10-03T12:19:57.000Z</time>
      </trkpt>
      <trkpt lat="43.60431" lon="0.94953">
        <ele>221</ele>
        <time>2020-10-03T12:19:58.000Z</time>
      </trkpt>
      <trkpt lat="43.60431" lon="0.9495">
        <ele>221.39285714286</ele>
        <time>2020-10-03T12:19:59.000Z</time>
      </trkpt>
      <trkpt lat="43.60432" lon="0.94947">
        <ele>222</ele>
        <time>2020-10-03T12:20:00.000Z</time>
      </trkpt>
      <trkpt lat="43.60432" lon="0.94943">
        <ele>222</ele>
        <time>2020-10-03T12:20:01.000Z</time>
      </trkpt>
      <trkpt lat="43.60433" lon="0.9494">
        <ele>222</ele>
        <time>2020-10-03T12:20:02.000Z</time>
      </trkpt>
      <trkpt lat="43.60433" lon="0.94937">
        <ele>222.4333338074</ele>
        <time>2020-10-03T12:20:03.000Z</time>
      </trkpt>
      <trkpt lat="43.60433" lon="0.94933">
        <ele>223</ele>
        <time>2020-10-03T12:20:04.000Z</time>
      </trkpt>
      <trkpt lat="43.60433" lon="0.94929">
        <ele>223</ele>
        <time>2020-10-03T12:20:05.000Z</time>
      </trkpt>
      <trkpt lat="43.60434" lon="0.94926">
        <ele>223</ele>
        <time>2020-10-03T12:20:06.000Z</time>
      </trkpt>
      <trkpt lat="43.60434" lon="0.94922">
        <ele>223</ele>
        <time>2020-10-03T12:20:07.000Z</time>
      </trkpt>
      <trkpt lat="43.60434" lon="0.94919">
        <ele>223</ele>
        <time>2020-10-03T12:20:08.000Z</time>
      </trkpt>
      <trkpt lat="43.60433" lon="0.94915">
        <ele>223</ele>
        <time>2020-10-03T12:20:09.000Z</time>
      </trkpt>
      <trkpt lat="43.60434" lon="0.94912">
        <ele>223</ele>
        <time>2020-10-03T12:20:10.000Z</time>
      </trkpt>
      <trkpt lat="43.60434" lon="0.94909">
        <ele>223</ele>
        <time>2020-10-03T12:20:11.000Z</time>
      </trkpt>
      <trkpt lat="43.60434" lon="0.94906">
        <ele>223</ele>
        <time>2020-10-03T12:20:12.000Z</time>
      </trkpt>
      <trkpt lat="43.60435" lon="0.94902">
        <ele>223</ele>
        <time>2020-10-03T12:20:13.000Z</time>
      </trkpt>
      <trkpt lat="43.60435" lon="0.94899">
        <ele>223.67272536858</ele>
        <time>2020-10-03T12:20:14.000Z</time>
      </trkpt>
      <trkpt lat="43.60435" lon="0.94896">
        <ele>225</ele>
        <time>2020-10-03T12:20:15.000Z</time>
      </trkpt>
      <trkpt lat="43.60435" lon="0.94892">
        <ele>225</ele>
        <time>2020-10-03T12:20:16.000Z</time>
      </trkpt>
      <trkpt lat="43.60435" lon="0.94889">
        <ele>225.30434782609</ele>
        <time>2020-10-03T12:20:17.000Z</time>
      </trkpt>
      <trkpt lat="43.60435" lon="0.94886">
        <ele>226</ele>
        <time>2020-10-03T12:20:18.000Z</time>
      </trkpt>
      <trkpt lat="43.60436" lon="0.94883">
        <ele>226</ele>
        <time>2020-10-03T12:20:19.000Z</time>
      </trkpt>
      <trkpt lat="43.60436" lon="0.9488">
        <ele>226</ele>
        <time>2020-10-03T12:20:20.000Z</time>
      </trkpt>
      <trkpt lat="43.60436" lon="0.94877">
        <ele>226</ele>
        <time>2020-10-03T12:20:21.000Z</time>
      </trkpt>
      <trkpt lat="43.60436" lon="0.94874">
        <ele>226</ele>
        <time>2020-10-03T12:20:22.000Z</time>
      </trkpt>
      <trkpt lat="43.60437" lon="0.94871">
        <ele>226.41935972253</ele>
        <time>2020-10-03T12:20:23.000Z</time>
      </trkpt>
      <trkpt lat="43.60437" lon="0.94868">
        <ele>227</ele>
        <time>2020-10-03T12:20:24.000Z</time>
      </trkpt>
      <trkpt lat="43.60437" lon="0.94864">
        <ele>227</ele>
        <time>2020-10-03T12:20:25.000Z</time>
      </trkpt>
      <trkpt lat="43.60438" lon="0.94861">
        <ele>227</ele>
        <time>2020-10-03T12:20:26.000Z</time>
      </trkpt>
      <trkpt lat="43.60438" lon="0.94857">
        <ele>227</ele>
        <time>2020-10-03T12:20:27.000Z</time>
      </trkpt>
      <trkpt lat="43.60438" lon="0.94854">
        <ele>227</ele>
        <time>2020-10-03T12:20:28.000Z</time>
      </trkpt>
      <trkpt lat="43.60438" lon="0.94851">
        <ele>227</ele>
        <time>2020-10-03T12:20:29.000Z</time>
      </trkpt>
      <trkpt lat="43.60438" lon="0.94847">
        <ele>227</ele>
        <time>2020-10-03T12:20:30.000Z</time>
      </trkpt>
      <trkpt lat="43.60438" lon="0.94844">
        <ele>227</ele>
        <time>2020-10-03T12:20:31.000Z</time>
      </trkpt>
      <trkpt lat="43.60438" lon="0.94841">
        <ele>227</ele>
        <time>2020-10-03T12:20:32.000Z</time>
      </trkpt>
      <trkpt lat="43.60439" lon="0.94838">
        <ele>227</ele>
        <time>2020-10-03T12:20:33.000Z</time>
      </trkpt>
      <trkpt lat="43.60439" lon="0.94834">
        <ele>227</ele>
        <time>2020-10-03T12:20:34.000Z</time>
      </trkpt>
      <trkpt lat="43.6044" lon="0.94831">
        <ele>227</ele>
        <time>2020-10-03T12:20:35.000Z</time>
      </trkpt>
      <trkpt lat="43.6044" lon="0.94828">
        <ele>227.37349639134</ele>
        <time>2020-10-03T12:20:36.000Z</time>
      </trkpt>
      <trkpt lat="43.60441" lon="0.94825">
        <ele>228</ele>
        <time>2020-10-03T12:20:37.000Z</time>
      </trkpt>
      <trkpt lat="43.60441" lon="0.94822">
        <ele>228</ele>
        <time>2020-10-03T12:20:38.000Z</time>
      </trkpt>
      <trkpt lat="43.60441" lon="0.94819">
        <ele>228.45871742781</ele>
        <time>2020-10-03T12:20:39.000Z</time>
      </trkpt>
      <trkpt lat="43.6044" lon="0.94816">
        <ele>229</ele>
        <time>2020-10-03T12:20:40.000Z</time>
      </trkpt>
      <trkpt lat="43.6044" lon="0.94812">
        <ele>229</ele>
        <time>2020-10-03T12:20:41.000Z</time>
      </trkpt>
      <trkpt lat="43.6044" lon="0.94809">
        <ele>228.30188861518</ele>
        <time>2020-10-03T12:20:42.000Z</time>
      </trkpt>
      <trkpt lat="43.60439" lon="0.94805">
        <ele>227</ele>
        <time>2020-10-03T12:20:43.000Z</time>
      </trkpt>
      <trkpt lat="43.60439" lon="0.94801">
        <ele>227</ele>
        <time>2020-10-03T12:20:44.000Z</time>
      </trkpt>
      <trkpt lat="43.60439" lon="0.94798">
        <ele>227.34861900512</ele>
        <time>2020-10-03T12:20:45.000Z</time>
      </trkpt>
      <trkpt lat="43.60439" lon="0.94794">
        <ele>228</ele>
        <time>2020-10-03T12:20:46.000Z</time>
      </trkpt>
      <trkpt lat="43.60439" lon="0.94791">
        <ele>228</ele>
        <time>2020-10-03T12:20:47.000Z</time>
      </trkpt>
      <trkpt lat="43.60439" lon="0.94787">
        <ele>228</ele>
        <time>2020-10-03T12:20:48.000Z</time>
      </trkpt>
      <trkpt lat="43.60439" lon="0.94784">
        <ele>228</ele>
        <time>2020-10-03T12:20:49.000Z</time>
      </trkpt>
      <trkpt lat="43.60438" lon="0.9478">
        <ele>228</ele>
        <time>2020-10-03T12:20:50.000Z</time>
      </trkpt>
      <trkpt lat="43.60438" lon="0.94777">
        <ele>228</ele>
        <time>2020-10-03T12:20:51.000Z</time>
      </trkpt>
      <trkpt lat="43.60437" lon="0.94773">
        <ele>228</ele>
        <time>2020-10-03T12:20:52.000Z</time>
      </trkpt>
      <trkpt lat="43.60437" lon="0.94769">
        <ele>227.57303936374</ele>
        <time>2020-10-03T12:20:53.000Z</time>
      </trkpt>
      <trkpt lat="43.60436" lon="0.94766">
        <ele>227</ele>
        <time>2020-10-03T12:20:54.000Z</time>
      </trkpt>
      <trkpt lat="43.60435" lon="0.94762">
        <ele>227</ele>
        <time>2020-10-03T12:20:55.000Z</time>
      </trkpt>
      <trkpt lat="43.60434" lon="0.94759">
        <ele>227</ele>
        <time>2020-10-03T12:20:56.000Z</time>
      </trkpt>
      <trkpt lat="43.60433" lon="0.94756">
        <ele>227</ele>
        <time>2020-10-03T12:20:57.000Z</time>
      </trkpt>
      <trkpt lat="43.60432" lon="0.94752">
        <ele>227</ele>
        <time>2020-10-03T12:20:58.000Z</time>
      </trkpt>
      <trkpt lat="43.60432" lon="0.94749">
        <ele>227</ele>
        <time>2020-10-03T12:20:59.000Z</time>
      </trkpt>
      <trkpt lat="43.60431" lon="0.94745">
        <ele>227</ele>
        <time>2020-10-03T12:21:00.000Z</time>
      </trkpt>
      <trkpt lat="43.60431" lon="0.94742">
        <ele>227</ele>
        <time>2020-10-03T12:21:01.000Z</time>
      </trkpt>
      <trkpt lat="43.60431" lon="0.94738">
        <ele>227</ele>
        <time>2020-10-03T12:21:02.000Z</time>
      </trkpt>
      <trkpt lat="43.60431" lon="0.94735">
        <ele>227</ele>
        <time>2020-10-03T12:21:03.000Z</time>
      </trkpt>
      <trkpt lat="43.60432" lon="0.94731">
        <ele>227</ele>
        <time>2020-10-03T12:21:04.000Z</time>
      </trkpt>
      <trkpt lat="43.60432" lon="0.94727">
        <ele>227</ele>
        <time>2020-10-03T12:21:05.000Z</time>
      </trkpt>
      <trkpt lat="43.60433" lon="0.94724">
        <ele>226.65693116947</ele>
        <time>2020-10-03T12:21:06.000Z</time>
      </trkpt>
      <trkpt lat="43.60434" lon="0.9472">
        <ele>226</ele>
        <time>2020-10-03T12:21:07.000Z</time>
      </trkpt>
      <trkpt lat="43.60434" lon="0.94716">
        <ele>226</ele>
        <time>2020-10-03T12:21:08.000Z</time>
      </trkpt>
      <trkpt lat="43.60435" lon="0.94711">
        <ele>226</ele>
        <time>2020-10-03T12:21:09.000Z</time>
      </trkpt>
      <trkpt lat="43.60435" lon="0.94707">
        <ele>226</ele>
        <time>2020-10-03T12:21:10.000Z</time>
      </trkpt>
      <trkpt lat="43.60436" lon="0.94703">
        <ele>226</ele>
        <time>2020-10-03T12:21:11.000Z</time>
      </trkpt>
      <trkpt lat="43.60436" lon="0.94698">
        <ele>226</ele>
        <time>2020-10-03T12:21:12.000Z</time>
      </trkpt>
      <trkpt lat="43.60437" lon="0.94693">
        <ele>226</ele>
        <time>2020-10-03T12:21:13.000Z</time>
      </trkpt>
      <trkpt lat="43.60437" lon="0.94689">
        <ele>225.66291779325</ele>
        <time>2020-10-03T12:21:14.000Z</time>
      </trkpt>
      <trkpt lat="43.60438" lon="0.94684">
        <ele>225</ele>
        <time>2020-10-03T12:21:15.000Z</time>
      </trkpt>
      <trkpt lat="43.60438" lon="0.9468">
        <ele>224.56565473728</ele>
        <time>2020-10-03T12:21:16.000Z</time>
      </trkpt>
      <trkpt lat="43.60439" lon="0.94676">
        <ele>224</ele>
        <time>2020-10-03T12:21:17.000Z</time>
      </trkpt>
      <trkpt lat="43.6044" lon="0.94672">
        <ele>224</ele>
        <time>2020-10-03T12:21:18.000Z</time>
      </trkpt>
      <trkpt lat="43.6044" lon="0.94668">
        <ele>224</ele>
        <time>2020-10-03T12:21:19.000Z</time>
      </trkpt>
      <trkpt lat="43.60441" lon="0.94664">
        <ele>224</ele>
        <time>2020-10-03T12:21:20.000Z</time>
      </trkpt>
      <trkpt lat="43.60441" lon="0.9466">
        <ele>224</ele>
        <time>2020-10-03T12:21:21.000Z</time>
      </trkpt>
      <trkpt lat="43.60441" lon="0.94656">
        <ele>223.825</ele>
        <time>2020-10-03T12:21:22.000Z</time>
      </trkpt>
      <trkpt lat="43.60441" lon="0.94652">
        <ele>223.2</ele>
        <time>2020-10-03T12:21:23.000Z</time>
      </trkpt>
      <trkpt lat="43.60441" lon="0.94648">
        <ele>223</ele>
        <time>2020-10-03T12:21:24.000Z</time>
      </trkpt>
      <trkpt lat="43.60442" lon="0.94644">
        <ele>223</ele>
        <time>2020-10-03T12:21:25.000Z</time>
      </trkpt>
      <trkpt lat="43.60443" lon="0.94641">
        <ele>222.54955141954</ele>
        <time>2020-10-03T12:21:26.000Z</time>
      </trkpt>
      <trkpt lat="43.60443" lon="0.94637">
        <ele>221.66379034483</ele>
        <time>2020-10-03T12:21:27.000Z</time>
      </trkpt>
      <trkpt lat="43.60443" lon="0.94633">
        <ele>221</ele>
        <time>2020-10-03T12:21:28.000Z</time>
      </trkpt>
      <trkpt lat="43.60443" lon="0.94629">
        <ele>221</ele>
        <time>2020-10-03T12:21:29.000Z</time>
      </trkpt>
      <trkpt lat="43.60443" lon="0.94625">
        <ele>221</ele>
        <time>2020-10-03T12:21:30.000Z</time>
      </trkpt>
      <trkpt lat="43.60444" lon="0.94617">
        <ele>221</ele>
        <time>2020-10-03T12:21:32.000Z</time>
      </trkpt>
      <trkpt lat="43.60445" lon="0.94613">
        <ele>221</ele>
        <time>2020-10-03T12:21:33.000Z</time>
      </trkpt>
      <trkpt lat="43.60445" lon="0.94609">
        <ele>221</ele>
        <time>2020-10-03T12:21:34.000Z</time>
      </trkpt>
      <trkpt lat="43.60446" lon="0.94605">
        <ele>221</ele>
        <time>2020-10-03T12:21:35.000Z</time>
      </trkpt>
      <trkpt lat="43.60446" lon="0.94601">
        <ele>221</ele>
        <time>2020-10-03T12:21:36.000Z</time>
      </trkpt>
      <trkpt lat="43.60447" lon="0.94597">
        <ele>221</ele>
        <time>2020-10-03T12:21:37.000Z</time>
      </trkpt>
      <trkpt lat="43.60447" lon="0.94593">
        <ele>221</ele>
        <time>2020-10-03T12:21:38.000Z</time>
      </trkpt>
      <trkpt lat="43.60447" lon="0.94589">
        <ele>220.32203022118</ele>
        <time>2020-10-03T12:21:39.000Z</time>
      </trkpt>
      <trkpt lat="43.60448" lon="0.94585">
        <ele>219</ele>
        <time>2020-10-03T12:21:40.000Z</time>
      </trkpt>
      <trkpt lat="43.60448" lon="0.9458">
        <ele>219</ele>
        <time>2020-10-03T12:21:41.000Z</time>
      </trkpt>
      <trkpt lat="43.60448" lon="0.94576">
        <ele>219</ele>
        <time>2020-10-03T12:21:42.000Z</time>
      </trkpt>
      <trkpt lat="43.60449" lon="0.94572">
        <ele>219</ele>
        <time>2020-10-03T12:21:43.000Z</time>
      </trkpt>
      <trkpt lat="43.60449" lon="0.94568">
        <ele>219</ele>
        <time>2020-10-03T12:21:44.000Z</time>
      </trkpt>
      <trkpt lat="43.6045" lon="0.94563">
        <ele>219</ele>
        <time>2020-10-03T12:21:45.000Z</time>
      </trkpt>
      <trkpt lat="43.6045" lon="0.94559">
        <ele>219</ele>
        <time>2020-10-03T12:21:46.000Z</time>
      </trkpt>
      <trkpt lat="43.60451" lon="0.94555">
        <ele>219</ele>
        <time>2020-10-03T12:21:47.000Z</time>
      </trkpt>
      <trkpt lat="43.60451" lon="0.94551">
        <ele>219</ele>
        <time>2020-10-03T12:21:48.000Z</time>
      </trkpt>
      <trkpt lat="43.60451" lon="0.94547">
        <ele>219</ele>
        <time>2020-10-03T12:21:49.000Z</time>
      </trkpt>
      <trkpt lat="43.60452" lon="0.94542">
        <ele>219</ele>
        <time>2020-10-03T12:21:50.000Z</time>
      </trkpt>
      <trkpt lat="43.60452" lon="0.94538">
        <ele>219</ele>
        <time>2020-10-03T12:21:51.000Z</time>
      </trkpt>
      <trkpt lat="43.60452" lon="0.94534">
        <ele>219</ele>
        <time>2020-10-03T12:21:52.000Z</time>
      </trkpt>
      <trkpt lat="43.60453" lon="0.9453">
        <ele>218.58586315681</ele>
        <time>2020-10-03T12:21:53.000Z</time>
      </trkpt>
      <trkpt lat="43.60454" lon="0.94526">
        <ele>218</ele>
        <time>2020-10-03T12:21:54.000Z</time>
      </trkpt>
      <trkpt lat="43.60454" lon="0.94522">
        <ele>218</ele>
        <time>2020-10-03T12:21:55.000Z</time>
      </trkpt>
      <trkpt lat="43.60455" lon="0.94518">
        <ele>217.66666666667</ele>
        <time>2020-10-03T12:21:56.000Z</time>
      </trkpt>
      <trkpt lat="43.60456" lon="0.94514">
        <ele>217</ele>
        <time>2020-10-03T12:21:57.000Z</time>
      </trkpt>
      <trkpt lat="43.60456" lon="0.9451">
        <ele>217</ele>
        <time>2020-10-03T12:21:58.000Z</time>
      </trkpt>
      <trkpt lat="43.60457" lon="0.94506">
        <ele>217</ele>
        <time>2020-10-03T12:21:59.000Z</time>
      </trkpt>
      <trkpt lat="43.60458" lon="0.94502">
        <ele>216.55555555556</ele>
        <time>2020-10-03T12:22:00.000Z</time>
      </trkpt>
      <trkpt lat="43.60458" lon="0.94499">
        <ele>216</ele>
        <time>2020-10-03T12:22:01.000Z</time>
      </trkpt>
      <trkpt lat="43.60459" lon="0.94495">
        <ele>216</ele>
        <time>2020-10-03T12:22:02.000Z</time>
      </trkpt>
      <trkpt lat="43.60459" lon="0.94491">
        <ele>216</ele>
        <time>2020-10-03T12:22:03.000Z</time>
      </trkpt>
      <trkpt lat="43.60459" lon="0.94488">
        <ele>216</ele>
        <time>2020-10-03T12:22:04.000Z</time>
      </trkpt>
      <trkpt lat="43.60459" lon="0.94484">
        <ele>216</ele>
        <time>2020-10-03T12:22:05.000Z</time>
      </trkpt>
      <trkpt lat="43.6046" lon="0.9448">
        <ele>216</ele>
        <time>2020-10-03T12:22:06.000Z</time>
      </trkpt>
      <trkpt lat="43.6046" lon="0.94476">
        <ele>216</ele>
        <time>2020-10-03T12:22:07.000Z</time>
      </trkpt>
      <trkpt lat="43.60461" lon="0.94472">
        <ele>216</ele>
        <time>2020-10-03T12:22:08.000Z</time>
      </trkpt>
      <trkpt lat="43.60461" lon="0.94468">
        <ele>216</ele>
        <time>2020-10-03T12:22:09.000Z</time>
      </trkpt>
      <trkpt lat="43.60462" lon="0.94464">
        <ele>216</ele>
        <time>2020-10-03T12:22:10.000Z</time>
      </trkpt>
      <trkpt lat="43.60462" lon="0.9446">
        <ele>216</ele>
        <time>2020-10-03T12:22:11.000Z</time>
      </trkpt>
      <trkpt lat="43.60463" lon="0.94456">
        <ele>215.59782956522</ele>
        <time>2020-10-03T12:22:12.000Z</time>
      </trkpt>
      <trkpt lat="43.60463" lon="0.94452">
        <ele>215</ele>
        <time>2020-10-03T12:22:13.000Z</time>
      </trkpt>
      <trkpt lat="43.60464" lon="0.94448">
        <ele>215</ele>
        <time>2020-10-03T12:22:14.000Z</time>
      </trkpt>
      <trkpt lat="43.60464" lon="0.94445">
        <ele>215</ele>
        <time>2020-10-03T12:22:15.000Z</time>
      </trkpt>
      <trkpt lat="43.60465" lon="0.94441">
        <ele>215</ele>
        <time>2020-10-03T12:22:16.000Z</time>
      </trkpt>
      <trkpt lat="43.60465" lon="0.94437">
        <ele>215</ele>
        <time>2020-10-03T12:22:17.000Z</time>
      </trkpt>
      <trkpt lat="43.60465" lon="0.94433">
        <ele>215</ele>
        <time>2020-10-03T12:22:18.000Z</time>
      </trkpt>
      <trkpt lat="43.60465" lon="0.94429">
        <ele>215</ele>
        <time>2020-10-03T12:22:19.000Z</time>
      </trkpt>
      <trkpt lat="43.60465" lon="0.94426">
        <ele>215</ele>
        <time>2020-10-03T12:22:20.000Z</time>
      </trkpt>
      <trkpt lat="43.60465" lon="0.94422">
        <ele>215</ele>
        <time>2020-10-03T12:22:21.000Z</time>
      </trkpt>
      <trkpt lat="43.60465" lon="0.94418">
        <ele>215</ele>
        <time>2020-10-03T12:22:22.000Z</time>
      </trkpt>
      <trkpt lat="43.60465" lon="0.94415">
        <ele>215</ele>
        <time>2020-10-03T12:22:23.000Z</time>
      </trkpt>
      <trkpt lat="43.60465" lon="0.94411">
        <ele>215</ele>
        <time>2020-10-03T12:22:24.000Z</time>
      </trkpt>
      <trkpt lat="43.60464" lon="0.94407">
        <ele>215</ele>
        <time>2020-10-03T12:22:25.000Z</time>
      </trkpt>
      <trkpt lat="43.60463" lon="0.94403">
        <ele>215</ele>
        <time>2020-10-03T12:22:26.000Z</time>
      </trkpt>
      <trkpt lat="43.60463" lon="0.94399">
        <ele>215</ele>
        <time>2020-10-03T12:22:27.000Z</time>
      </trkpt>
      <trkpt lat="43.60462" lon="0.94395">
        <ele>214.20791828251</ele>
        <time>2020-10-03T12:22:28.000Z</time>
      </trkpt>
      <trkpt lat="43.60462" lon="0.94391">
        <ele>213</ele>
        <time>2020-10-03T12:22:29.000Z</time>
      </trkpt>
      <trkpt lat="43.60462" lon="0.94387">
        <ele>213</ele>
        <time>2020-10-03T12:22:30.000Z</time>
      </trkpt>
      <trkpt lat="43.60461" lon="0.94383">
        <ele>212.68032692287</ele>
        <time>2020-10-03T12:22:31.000Z</time>
      </trkpt>
      <trkpt lat="43.60461" lon="0.94379">
        <ele>212</ele>
        <time>2020-10-03T12:22:32.000Z</time>
      </trkpt>
      <trkpt lat="43.60461" lon="0.94374">
        <ele>212</ele>
        <time>2020-10-03T12:22:33.000Z</time>
      </trkpt>
      <trkpt lat="43.60461" lon="0.9437">
        <ele>212</ele>
        <time>2020-10-03T12:22:34.000Z</time>
      </trkpt>
      <trkpt lat="43.60461" lon="0.94366">
        <ele>211.66292732738</ele>
        <time>2020-10-03T12:22:35.000Z</time>
      </trkpt>
      <trkpt lat="43.6046" lon="0.94361">
        <ele>211</ele>
        <time>2020-10-03T12:22:36.000Z</time>
      </trkpt>
      <trkpt lat="43.6046" lon="0.94357">
        <ele>211</ele>
        <time>2020-10-03T12:22:37.000Z</time>
      </trkpt>
      <trkpt lat="43.6046" lon="0.94353">
        <ele>211</ele>
        <time>2020-10-03T12:22:38.000Z</time>
      </trkpt>
      <trkpt lat="43.60459" lon="0.94349">
        <ele>210.58427176367</ele>
        <time>2020-10-03T12:22:39.000Z</time>
      </trkpt>
      <trkpt lat="43.60459" lon="0.94344">
        <ele>210</ele>
        <time>2020-10-03T12:22:40.000Z</time>
      </trkpt>
      <trkpt lat="43.60458" lon="0.9434">
        <ele>210</ele>
        <time>2020-10-03T12:22:41.000Z</time>
      </trkpt>
      <trkpt lat="43.60458" lon="0.94336">
        <ele>210</ele>
        <time>2020-10-03T12:22:42.000Z</time>
      </trkpt>
      <trkpt lat="43.60458" lon="0.94332">
        <ele>209.69642285714</ele>
        <time>2020-10-03T12:22:43.000Z</time>
      </trkpt>
      <trkpt lat="43.60458" lon="0.94328">
        <ele>209</ele>
        <time>2020-10-03T12:22:44.000Z</time>
      </trkpt>
      <trkpt lat="43.60458" lon="0.94324">
        <ele>209</ele>
        <time>2020-10-03T12:22:45.000Z</time>
      </trkpt>
      <trkpt lat="43.60458" lon="0.9432">
        <ele>208.50980712036</ele>
        <time>2020-10-03T12:22:46.000Z</time>
      </trkpt>
      <trkpt lat="43.60459" lon="0.94315">
        <ele>208</ele>
        <time>2020-10-03T12:22:47.000Z</time>
      </trkpt>
      <trkpt lat="43.60459" lon="0.94311">
        <ele>208</ele>
        <time>2020-10-03T12:22:48.000Z</time>
      </trkpt>
      <trkpt lat="43.60459" lon="0.94307">
        <ele>208</ele>
        <time>2020-10-03T12:22:49.000Z</time>
      </trkpt>
      <trkpt lat="43.60459" lon="0.94303">
        <ele>208</ele>
        <time>2020-10-03T12:22:50.000Z</time>
      </trkpt>
      <trkpt lat="43.6046" lon="0.94299">
        <ele>208</ele>
        <time>2020-10-03T12:22:51.000Z</time>
      </trkpt>
      <trkpt lat="43.6046" lon="0.94296">
        <ele>208</ele>
        <time>2020-10-03T12:22:52.000Z</time>
      </trkpt>
      <trkpt lat="43.6046" lon="0.94291">
        <ele>208</ele>
        <time>2020-10-03T12:22:53.000Z</time>
      </trkpt>
      <trkpt lat="43.6046" lon="0.94287">
        <ele>208</ele>
        <time>2020-10-03T12:22:54.000Z</time>
      </trkpt>
      <trkpt lat="43.6046" lon="0.94283">
        <ele>208</ele>
        <time>2020-10-03T12:22:55.000Z</time>
      </trkpt>
      <trkpt lat="43.6046" lon="0.94279">
        <ele>207.5596317347</ele>
        <time>2020-10-03T12:22:56.000Z</time>
      </trkpt>
      <trkpt lat="43.6046" lon="0.94275">
        <ele>207</ele>
        <time>2020-10-03T12:22:57.000Z</time>
      </trkpt>
      <trkpt lat="43.6046" lon="0.94271">
        <ele>207</ele>
        <time>2020-10-03T12:22:58.000Z</time>
      </trkpt>
      <trkpt lat="43.6046" lon="0.94266">
        <ele>207.41860153599</ele>
        <time>2020-10-03T12:22:59.000Z</time>
      </trkpt>
      <trkpt lat="43.6046" lon="0.94262">
        <ele>207.54955141954</ele>
        <time>2020-10-03T12:23:00.000Z</time>
      </trkpt>
      <trkpt lat="43.6046" lon="0.94258">
        <ele>207</ele>
        <time>2020-10-03T12:23:01.000Z</time>
      </trkpt>
      <trkpt lat="43.6046" lon="0.94254">
        <ele>207</ele>
        <time>2020-10-03T12:23:02.000Z</time>
      </trkpt>
      <trkpt lat="43.60461" lon="0.94249">
        <ele>207</ele>
        <time>2020-10-03T12:23:03.000Z</time>
      </trkpt>
      <trkpt lat="43.60462" lon="0.94245">
        <ele>207</ele>
        <time>2020-10-03T12:23:04.000Z</time>
      </trkpt>
      <trkpt lat="43.60463" lon="0.9424">
        <ele>207</ele>
        <time>2020-10-03T12:23:05.000Z</time>
      </trkpt>
      <trkpt lat="43.60464" lon="0.94236">
        <ele>207</ele>
        <time>2020-10-03T12:23:06.000Z</time>
      </trkpt>
      <trkpt lat="43.60465" lon="0.94232">
        <ele>207</ele>
        <time>2020-10-03T12:23:07.000Z</time>
      </trkpt>
      <trkpt lat="43.60466" lon="0.94228">
        <ele>207</ele>
        <time>2020-10-03T12:23:08.000Z</time>
      </trkpt>
      <trkpt lat="43.60467" lon="0.94223">
        <ele>207</ele>
        <time>2020-10-03T12:23:09.000Z</time>
      </trkpt>
      <trkpt lat="43.60468" lon="0.94219">
        <ele>206.58139223362</ele>
        <time>2020-10-03T12:23:10.000Z</time>
      </trkpt>
      <trkpt lat="43.60469" lon="0.94215">
        <ele>206</ele>
        <time>2020-10-03T12:23:11.000Z</time>
      </trkpt>
      <trkpt lat="43.60469" lon="0.94211">
        <ele>206</ele>
        <time>2020-10-03T12:23:12.000Z</time>
      </trkpt>
      <trkpt lat="43.60471" lon="0.94206">
        <ele>206</ele>
        <time>2020-10-03T12:23:13.000Z</time>
      </trkpt>
      <trkpt lat="43.60472" lon="0.94202">
        <ele>206</ele>
        <time>2020-10-03T12:23:14.000Z</time>
      </trkpt>
      <trkpt lat="43.60473" lon="0.94198">
        <ele>206</ele>
        <time>2020-10-03T12:23:15.000Z</time>
      </trkpt>
      <trkpt lat="43.60474" lon="0.94194">
        <ele>206</ele>
        <time>2020-10-03T12:23:16.000Z</time>
      </trkpt>
      <trkpt lat="43.60475" lon="0.9419">
        <ele>206</ele>
        <time>2020-10-03T12:23:17.000Z</time>
      </trkpt>
      <trkpt lat="43.60476" lon="0.94186">
        <ele>206</ele>
        <time>2020-10-03T12:23:18.000Z</time>
      </trkpt>
      <trkpt lat="43.60476" lon="0.94182">
        <ele>206</ele>
        <time>2020-10-03T12:23:19.000Z</time>
      </trkpt>
      <trkpt lat="43.60477" lon="0.94179">
        <ele>206</ele>
        <time>2020-10-03T12:23:20.000Z</time>
      </trkpt>
      <trkpt lat="43.60478" lon="0.94175">
        <ele>206</ele>
        <time>2020-10-03T12:23:21.000Z</time>
      </trkpt>
      <trkpt lat="43.60479" lon="0.94171">
        <ele>206</ele>
        <time>2020-10-03T12:23:22.000Z</time>
      </trkpt>
      <trkpt lat="43.6048" lon="0.94167">
        <ele>206</ele>
        <time>2020-10-03T12:23:23.000Z</time>
      </trkpt>
      <trkpt lat="43.60481" lon="0.94163">
        <ele>206</ele>
        <time>2020-10-03T12:23:24.000Z</time>
      </trkpt>
      <trkpt lat="43.60482" lon="0.9416">
        <ele>205.58427176367</ele>
        <time>2020-10-03T12:23:25.000Z</time>
      </trkpt>
      <trkpt lat="43.60483" lon="0.94156">
        <ele>205</ele>
        <time>2020-10-03T12:23:26.000Z</time>
      </trkpt>
      <trkpt lat="43.60484" lon="0.94152">
        <ele>205</ele>
        <time>2020-10-03T12:23:27.000Z</time>
      </trkpt>
      <trkpt lat="43.60485" lon="0.94148">
        <ele>205</ele>
        <time>2020-10-03T12:23:28.000Z</time>
      </trkpt>
      <trkpt lat="43.60486" lon="0.94144">
        <ele>205</ele>
        <time>2020-10-03T12:23:29.000Z</time>
      </trkpt>
      <trkpt lat="43.60487" lon="0.9414">
        <ele>205</ele>
        <time>2020-10-03T12:23:30.000Z</time>
      </trkpt>
      <trkpt lat="43.60488" lon="0.94137">
        <ele>204.58182156696</ele>
        <time>2020-10-03T12:23:31.000Z</time>
      </trkpt>
      <trkpt lat="43.60489" lon="0.94133">
        <ele>204</ele>
        <time>2020-10-03T12:23:32.000Z</time>
      </trkpt>
      <trkpt lat="43.6049" lon="0.94129">
        <ele>204</ele>
        <time>2020-10-03T12:23:33.000Z</time>
      </trkpt>
      <trkpt lat="43.60491" lon="0.94125">
        <ele>204</ele>
        <time>2020-10-03T12:23:34.000Z</time>
      </trkpt>
      <trkpt lat="43.60492" lon="0.94122">
        <ele>204</ele>
        <time>2020-10-03T12:23:35.000Z</time>
      </trkpt>
      <trkpt lat="43.60493" lon="0.94118">
        <ele>204</ele>
        <time>2020-10-03T12:23:36.000Z</time>
      </trkpt>
      <trkpt lat="43.60493" lon="0.94115">
        <ele>204</ele>
        <time>2020-10-03T12:23:37.000Z</time>
      </trkpt>
      <trkpt lat="43.60494" lon="0.94112">
        <ele>204</ele>
        <time>2020-10-03T12:23:38.000Z</time>
      </trkpt>
      <trkpt lat="43.60495" lon="0.94108">
        <ele>204</ele>
        <time>2020-10-03T12:23:39.000Z</time>
      </trkpt>
      <trkpt lat="43.60496" lon="0.94105">
        <ele>204</ele>
        <time>2020-10-03T12:23:40.000Z</time>
      </trkpt>
      <trkpt lat="43.60496" lon="0.94101">
        <ele>204</ele>
        <time>2020-10-03T12:23:41.000Z</time>
      </trkpt>
      <trkpt lat="43.60497" lon="0.94098">
        <ele>204</ele>
        <time>2020-10-03T12:23:42.000Z</time>
      </trkpt>
      <trkpt lat="43.60497" lon="0.94094">
        <ele>204</ele>
        <time>2020-10-03T12:23:43.000Z</time>
      </trkpt>
      <trkpt lat="43.60498" lon="0.9409">
        <ele>204</ele>
        <time>2020-10-03T12:23:44.000Z</time>
      </trkpt>
      <trkpt lat="43.60498" lon="0.94086">
        <ele>204</ele>
        <time>2020-10-03T12:23:45.000Z</time>
      </trkpt>
      <trkpt lat="43.60499" lon="0.94082">
        <ele>204</ele>
        <time>2020-10-03T12:23:46.000Z</time>
      </trkpt>
      <trkpt lat="43.60498" lon="0.94078">
        <ele>204</ele>
        <time>2020-10-03T12:23:47.000Z</time>
      </trkpt>
      <trkpt lat="43.60497" lon="0.94074">
        <ele>204</ele>
        <time>2020-10-03T12:23:48.000Z</time>
      </trkpt>
      <trkpt lat="43.60496" lon="0.94069">
        <ele>204</ele>
        <time>2020-10-03T12:23:49.000Z</time>
      </trkpt>
      <trkpt lat="43.60496" lon="0.94065">
        <ele>204</ele>
        <time>2020-10-03T12:23:50.000Z</time>
      </trkpt>
      <trkpt lat="43.60495" lon="0.94061">
        <ele>204</ele>
        <time>2020-10-03T12:23:51.000Z</time>
      </trkpt>
      <trkpt lat="43.60494" lon="0.94056">
        <ele>204</ele>
        <time>2020-10-03T12:23:52.000Z</time>
      </trkpt>
      <trkpt lat="43.60494" lon="0.94052">
        <ele>204</ele>
        <time>2020-10-03T12:23:53.000Z</time>
      </trkpt>
      <trkpt lat="43.60494" lon="0.94048">
        <ele>203.68292505255</ele>
        <time>2020-10-03T12:23:54.000Z</time>
      </trkpt>
      <trkpt lat="43.60494" lon="0.94045">
        <ele>203</ele>
        <time>2020-10-03T12:23:55.000Z</time>
      </trkpt>
      <trkpt lat="43.60494" lon="0.94041">
        <ele>203</ele>
        <time>2020-10-03T12:23:56.000Z</time>
      </trkpt>
      <trkpt lat="43.60493" lon="0.94037">
        <ele>203</ele>
        <time>2020-10-03T12:23:57.000Z</time>
      </trkpt>
      <trkpt lat="43.60493" lon="0.94033">
        <ele>203.49504473677</ele>
        <time>2020-10-03T12:23:58.000Z</time>
      </trkpt>
      <trkpt lat="43.60493" lon="0.94029">
        <ele>204</ele>
        <time>2020-10-03T12:23:59.000Z</time>
      </trkpt>
      <trkpt lat="43.60493" lon="0.94024">
        <ele>204</ele>
        <time>2020-10-03T12:24:00.000Z</time>
      </trkpt>
      <trkpt lat="43.60492" lon="0.9402">
        <ele>204</ele>
        <time>2020-10-03T12:24:01.000Z</time>
      </trkpt>
      <trkpt lat="43.60492" lon="0.94016">
        <ele>204</ele>
        <time>2020-10-03T12:24:02.000Z</time>
      </trkpt>
      <trkpt lat="43.60492" lon="0.94012">
        <ele>204</ele>
        <time>2020-10-03T12:24:03.000Z</time>
      </trkpt>
      <trkpt lat="43.60492" lon="0.94007">
        <ele>204</ele>
        <time>2020-10-03T12:24:04.000Z</time>
      </trkpt>
      <trkpt lat="43.60492" lon="0.94003">
        <ele>204</ele>
        <time>2020-10-03T12:24:05.000Z</time>
      </trkpt>
      <trkpt lat="43.60493" lon="0.93999">
        <ele>203.66666666667</ele>
        <time>2020-10-03T12:24:06.000Z</time>
      </trkpt>
      <trkpt lat="43.60493" lon="0.93994">
        <ele>203</ele>
        <time>2020-10-03T12:24:07.000Z</time>
      </trkpt>
      <trkpt lat="43.60494" lon="0.9399">
        <ele>203</ele>
        <time>2020-10-03T12:24:08.000Z</time>
      </trkpt>
      <trkpt lat="43.60494" lon="0.93986">
        <ele>203</ele>
        <time>2020-10-03T12:24:09.000Z</time>
      </trkpt>
      <trkpt lat="43.60495" lon="0.93982">
        <ele>203</ele>
        <time>2020-10-03T12:24:10.000Z</time>
      </trkpt>
      <trkpt lat="43.60495" lon="0.93978">
        <ele>203</ele>
        <time>2020-10-03T12:24:11.000Z</time>
      </trkpt>
      <trkpt lat="43.60496" lon="0.93975">
        <ele>203</ele>
        <time>2020-10-03T12:24:12.000Z</time>
      </trkpt>
      <trkpt lat="43.60497" lon="0.93971">
        <ele>203</ele>
        <time>2020-10-03T12:24:13.000Z</time>
      </trkpt>
      <trkpt lat="43.60498" lon="0.93967">
        <ele>203</ele>
        <time>2020-10-03T12:24:14.000Z</time>
      </trkpt>
      <trkpt lat="43.60498" lon="0.93963">
        <ele>203</ele>
        <time>2020-10-03T12:24:15.000Z</time>
      </trkpt>
      <trkpt lat="43.60498" lon="0.93959">
        <ele>203</ele>
        <time>2020-10-03T12:24:16.000Z</time>
      </trkpt>
      <trkpt lat="43.60499" lon="0.93955">
        <ele>203</ele>
        <time>2020-10-03T12:24:17.000Z</time>
      </trkpt>
      <trkpt lat="43.60499" lon="0.93952">
        <ele>203</ele>
        <time>2020-10-03T12:24:18.000Z</time>
      </trkpt>
      <trkpt lat="43.60499" lon="0.93948">
        <ele>203</ele>
        <time>2020-10-03T12:24:19.000Z</time>
      </trkpt>
      <trkpt lat="43.60499" lon="0.93944">
        <ele>203</ele>
        <time>2020-10-03T12:24:20.000Z</time>
      </trkpt>
      <trkpt lat="43.60499" lon="0.93941">
        <ele>203</ele>
        <time>2020-10-03T12:24:21.000Z</time>
      </trkpt>
      <trkpt lat="43.60499" lon="0.93937">
        <ele>203</ele>
        <time>2020-10-03T12:24:22.000Z</time>
      </trkpt>
      <trkpt lat="43.605" lon="0.93933">
        <ele>203</ele>
        <time>2020-10-03T12:24:23.000Z</time>
      </trkpt>
      <trkpt lat="43.605" lon="0.93929">
        <ele>203</ele>
        <time>2020-10-03T12:24:24.000Z</time>
      </trkpt>
      <trkpt lat="43.60499" lon="0.93925">
        <ele>203</ele>
        <time>2020-10-03T12:24:25.000Z</time>
      </trkpt>
      <trkpt lat="43.60499" lon="0.93921">
        <ele>203</ele>
        <time>2020-10-03T12:24:26.000Z</time>
      </trkpt>
      <trkpt lat="43.60498" lon="0.93918">
        <ele>203</ele>
        <time>2020-10-03T12:24:27.000Z</time>
      </trkpt>
      <trkpt lat="43.60497" lon="0.93914">
        <ele>203</ele>
        <time>2020-10-03T12:24:28.000Z</time>
      </trkpt>
      <trkpt lat="43.60497" lon="0.93911">
        <ele>203</ele>
        <time>2020-10-03T12:24:29.000Z</time>
      </trkpt>
      <trkpt lat="43.60496" lon="0.93908">
        <ele>203</ele>
        <time>2020-10-03T12:24:30.000Z</time>
      </trkpt>
      <trkpt lat="43.60495" lon="0.93904">
        <ele>203</ele>
        <time>2020-10-03T12:24:31.000Z</time>
      </trkpt>
      <trkpt lat="43.60494" lon="0.93901">
        <ele>203</ele>
        <time>2020-10-03T12:24:32.000Z</time>
      </trkpt>
      <trkpt lat="43.60494" lon="0.93897">
        <ele>203</ele>
        <time>2020-10-03T12:24:33.000Z</time>
      </trkpt>
      <trkpt lat="43.60493" lon="0.93894">
        <ele>203</ele>
        <time>2020-10-03T12:24:34.000Z</time>
      </trkpt>
      <trkpt lat="43.60493" lon="0.9389">
        <ele>203</ele>
        <time>2020-10-03T12:24:35.000Z</time>
      </trkpt>
      <trkpt lat="43.60492" lon="0.93887">
        <ele>203</ele>
        <time>2020-10-03T12:24:36.000Z</time>
      </trkpt>
      <trkpt lat="43.60491" lon="0.93884">
        <ele>203</ele>
        <time>2020-10-03T12:24:37.000Z</time>
      </trkpt>
      <trkpt lat="43.60491" lon="0.93881">
        <ele>203</ele>
        <time>2020-10-03T12:24:38.000Z</time>
      </trkpt>
      <trkpt lat="43.6049" lon="0.93878">
        <ele>203</ele>
        <time>2020-10-03T12:24:39.000Z</time>
      </trkpt>
      <trkpt lat="43.60489" lon="0.93875">
        <ele>203</ele>
        <time>2020-10-03T12:24:40.000Z</time>
      </trkpt>
      <trkpt lat="43.60488" lon="0.93871">
        <ele>203</ele>
        <time>2020-10-03T12:24:41.000Z</time>
      </trkpt>
      <trkpt lat="43.60488" lon="0.93868">
        <ele>203.40000538946</ele>
        <time>2020-10-03T12:24:42.000Z</time>
      </trkpt>
      <trkpt lat="43.60487" lon="0.93864">
        <ele>204</ele>
        <time>2020-10-03T12:24:43.000Z</time>
      </trkpt>
      <trkpt lat="43.60487" lon="0.93861">
        <ele>204</ele>
        <time>2020-10-03T12:24:44.000Z</time>
      </trkpt>
      <trkpt lat="43.60487" lon="0.93858">
        <ele>204</ele>
        <time>2020-10-03T12:24:45.000Z</time>
      </trkpt>
      <trkpt lat="43.60487" lon="0.93854">
        <ele>204.38834830804</ele>
        <time>2020-10-03T12:24:46.000Z</time>
      </trkpt>
      <trkpt lat="43.60487" lon="0.93851">
        <ele>205</ele>
        <time>2020-10-03T12:24:47.000Z</time>
      </trkpt>
      <trkpt lat="43.60486" lon="0.93848">
        <ele>205</ele>
        <time>2020-10-03T12:24:48.000Z</time>
      </trkpt>
      <trkpt lat="43.60486" lon="0.93844">
        <ele>205</ele>
        <time>2020-10-03T12:24:49.000Z</time>
      </trkpt>
      <trkpt lat="43.60486" lon="0.93841">
        <ele>205</ele>
        <time>2020-10-03T12:24:50.000Z</time>
      </trkpt>
      <trkpt lat="43.60485" lon="0.93838">
        <ele>205</ele>
        <time>2020-10-03T12:24:51.000Z</time>
      </trkpt>
      <trkpt lat="43.60486" lon="0.93835">
        <ele>205</ele>
        <time>2020-10-03T12:24:52.000Z</time>
      </trkpt>
      <trkpt lat="43.60486" lon="0.93832">
        <ele>205.48544159863</ele>
        <time>2020-10-03T12:24:53.000Z</time>
      </trkpt>
      <trkpt lat="43.60486" lon="0.93828">
        <ele>206</ele>
        <time>2020-10-03T12:24:54.000Z</time>
      </trkpt>
      <trkpt lat="43.60486" lon="0.93825">
        <ele>206</ele>
        <time>2020-10-03T12:24:55.000Z</time>
      </trkpt>
      <trkpt lat="43.60486" lon="0.93822">
        <ele>206</ele>
        <time>2020-10-03T12:24:56.000Z</time>
      </trkpt>
      <trkpt lat="43.60486" lon="0.93819">
        <ele>206</ele>
        <time>2020-10-03T12:24:57.000Z</time>
      </trkpt>
      <trkpt lat="43.60486" lon="0.93816">
        <ele>206</ele>
        <time>2020-10-03T12:24:58.000Z</time>
      </trkpt>
      <trkpt lat="43.60486" lon="0.93813">
        <ele>206.39999730524</ele>
        <time>2020-10-03T12:24:59.000Z</time>
      </trkpt>
      <trkpt lat="43.60486" lon="0.9381">
        <ele>207</ele>
        <time>2020-10-03T12:25:00.000Z</time>
      </trkpt>
      <trkpt lat="43.60486" lon="0.93807">
        <ele>207</ele>
        <time>2020-10-03T12:25:01.000Z</time>
      </trkpt>
      <trkpt lat="43.60486" lon="0.93804">
        <ele>207.39639525364</ele>
        <time>2020-10-03T12:25:02.000Z</time>
      </trkpt>
      <trkpt lat="43.60486" lon="0.93801">
        <ele>208</ele>
        <time>2020-10-03T12:25:03.000Z</time>
      </trkpt>
      <trkpt lat="43.60486" lon="0.93797">
        <ele>208</ele>
        <time>2020-10-03T12:25:04.000Z</time>
      </trkpt>
      <trkpt lat="43.60486" lon="0.93794">
        <ele>208</ele>
        <time>2020-10-03T12:25:05.000Z</time>
      </trkpt>
      <trkpt lat="43.60486" lon="0.93791">
        <ele>208</ele>
        <time>2020-10-03T12:25:06.000Z</time>
      </trkpt>
      <trkpt lat="43.60486" lon="0.93788">
        <ele>208</ele>
        <time>2020-10-03T12:25:07.000Z</time>
      </trkpt>
      <trkpt lat="43.60486" lon="0.93785">
        <ele>208</ele>
        <time>2020-10-03T12:25:08.000Z</time>
      </trkpt>
      <trkpt lat="43.60486" lon="0.93782">
        <ele>208</ele>
        <time>2020-10-03T12:25:09.000Z</time>
      </trkpt>
      <trkpt lat="43.60486" lon="0.9378">
        <ele>208</ele>
        <time>2020-10-03T12:25:10.000Z</time>
      </trkpt>
      <trkpt lat="43.60486" lon="0.93777">
        <ele>208</ele>
        <time>2020-10-03T12:25:11.000Z</time>
      </trkpt>
      <trkpt lat="43.60487" lon="0.93774">
        <ele>208.22580378771</ele>
        <time>2020-10-03T12:25:12.000Z</time>
      </trkpt>
      <trkpt lat="43.60486" lon="0.93771">
        <ele>209</ele>
        <time>2020-10-03T12:25:13.000Z</time>
      </trkpt>
      <trkpt lat="43.60486" lon="0.93767">
        <ele>209</ele>
        <time>2020-10-03T12:25:15.000Z</time>
      </trkpt>
      <trkpt lat="43.60486" lon="0.93763">
        <ele>210</ele>
        <time>2020-10-03T12:25:17.000Z</time>
      </trkpt>
      <trkpt lat="43.60487" lon="0.93758">
        <ele>210</ele>
        <time>2020-10-03T12:25:19.000Z</time>
      </trkpt>
      <trkpt lat="43.60487" lon="0.93754">
        <ele>210.36697355442</ele>
        <time>2020-10-03T12:25:21.000Z</time>
      </trkpt>
      <trkpt lat="43.60487" lon="0.9375">
        <ele>211</ele>
        <time>2020-10-03T12:25:23.000Z</time>
      </trkpt>
      <trkpt lat="43.60488" lon="0.93746">
        <ele>211</ele>
        <time>2020-10-03T12:25:25.000Z</time>
      </trkpt>
      <trkpt lat="43.60488" lon="0.93742">
        <ele>211</ele>
        <time>2020-10-03T12:25:27.000Z</time>
      </trkpt>
      <trkpt lat="43.60488" lon="0.93738">
        <ele>211.48039203383</ele>
        <time>2020-10-03T12:25:29.000Z</time>
      </trkpt>
      <trkpt lat="43.60488" lon="0.93733">
        <ele>212</ele>
        <time>2020-10-03T12:25:31.000Z</time>
      </trkpt>
      <trkpt lat="43.60489" lon="0.93729">
        <ele>213</ele>
        <time>2020-10-03T12:25:33.000Z</time>
      </trkpt>
      <trkpt lat="43.60489" lon="0.93726">
        <ele>213</ele>
        <time>2020-10-03T12:25:35.000Z</time>
      </trkpt>
      <trkpt lat="43.60489" lon="0.93722">
        <ele>214</ele>
        <time>2020-10-03T12:25:37.000Z</time>
      </trkpt>
      <trkpt lat="43.6049" lon="0.93718">
        <ele>214</ele>
        <time>2020-10-03T12:25:39.000Z</time>
      </trkpt>
      <trkpt lat="43.6049" lon="0.93713">
        <ele>214</ele>
        <time>2020-10-03T12:25:41.000Z</time>
      </trkpt>
      <trkpt lat="43.60491" lon="0.93709">
        <ele>213.61538158581</ele>
        <time>2020-10-03T12:25:43.000Z</time>
      </trkpt>
      <trkpt lat="43.60491" lon="0.93704">
        <ele>213</ele>
        <time>2020-10-03T12:25:45.000Z</time>
      </trkpt>
      <trkpt lat="43.60491" lon="0.937">
        <ele>214</ele>
        <time>2020-10-03T12:25:47.000Z</time>
      </trkpt>
      <trkpt lat="43.60491" lon="0.93696">
        <ele>214</ele>
        <time>2020-10-03T12:25:49.000Z</time>
      </trkpt>
      <trkpt lat="43.60492" lon="0.93692">
        <ele>214</ele>
        <time>2020-10-03T12:25:51.000Z</time>
      </trkpt>
      <trkpt lat="43.60492" lon="0.93689">
        <ele>214.33620965517</ele>
        <time>2020-10-03T12:25:53.000Z</time>
      </trkpt>
      <trkpt lat="43.60493" lon="0.93686">
        <ele>215</ele>
        <time>2020-10-03T12:25:55.000Z</time>
      </trkpt>
      <trkpt lat="43.60493" lon="0.93683">
        <ele>215</ele>
        <time>2020-10-03T12:25:57.000Z</time>
      </trkpt>
      <trkpt lat="43.60494" lon="0.9368">
        <ele>215</ele>
        <time>2020-10-03T12:25:59.000Z</time>
      </trkpt>
      <trkpt lat="43.60494" lon="0.93677">
        <ele>216</ele>
        <time>2020-10-03T12:26:01.000Z</time>
      </trkpt>
      <trkpt lat="43.60494" lon="0.93673">
        <ele>216</ele>
        <time>2020-10-03T12:26:03.000Z</time>
      </trkpt>
      <trkpt lat="43.60494" lon="0.9367">
        <ele>216</ele>
        <time>2020-10-03T12:26:05.000Z</time>
      </trkpt>
      <trkpt lat="43.60495" lon="0.93666">
        <ele>216</ele>
        <time>2020-10-03T12:26:07.000Z</time>
      </trkpt>
      <trkpt lat="43.60496" lon="0.93663">
        <ele>216</ele>
        <time>2020-10-03T12:26:09.000Z</time>
      </trkpt>
      <trkpt lat="43.60496" lon="0.9366">
        <ele>217</ele>
        <time>2020-10-03T12:26:11.000Z</time>
      </trkpt>
      <trkpt lat="43.60497" lon="0.93656">
        <ele>217.16438428223</ele>
        <time>2020-10-03T12:26:13.000Z</time>
      </trkpt>
      <trkpt lat="43.60497" lon="0.93653">
        <ele>218</ele>
        <time>2020-10-03T12:26:15.000Z</time>
      </trkpt>
      <trkpt lat="43.60496" lon="0.9365">
        <ele>218</ele>
        <time>2020-10-03T12:26:17.000Z</time>
      </trkpt>
      <trkpt lat="43.60497" lon="0.93646">
        <ele>218</ele>
        <time>2020-10-03T12:26:19.000Z</time>
      </trkpt>
      <trkpt lat="43.60498" lon="0.93642">
        <ele>218</ele>
        <time>2020-10-03T12:26:21.000Z</time>
      </trkpt>
      <trkpt lat="43.60498" lon="0.93639">
        <ele>220</ele>
        <time>2020-10-03T12:26:23.000Z</time>
      </trkpt>
      <trkpt lat="43.60498" lon="0.93635">
        <ele>220</ele>
        <time>2020-10-03T12:26:25.000Z</time>
      </trkpt>
      <trkpt lat="43.60499" lon="0.93631">
        <ele>220</ele>
        <time>2020-10-03T12:26:27.000Z</time>
      </trkpt>
      <trkpt lat="43.60499" lon="0.93627">
        <ele>220</ele>
        <time>2020-10-03T12:26:29.000Z</time>
      </trkpt>
      <trkpt lat="43.605" lon="0.93623">
        <ele>219</ele>
        <time>2020-10-03T12:26:31.000Z</time>
      </trkpt>
      <trkpt lat="43.605" lon="0.9362">
        <ele>219</ele>
        <time>2020-10-03T12:26:33.000Z</time>
      </trkpt>
      <trkpt lat="43.605" lon="0.93616">
        <ele>220</ele>
        <time>2020-10-03T12:26:35.000Z</time>
      </trkpt>
      <trkpt lat="43.60501" lon="0.93612">
        <ele>220</ele>
        <time>2020-10-03T12:26:37.000Z</time>
      </trkpt>
      <trkpt lat="43.60501" lon="0.93608">
        <ele>220</ele>
        <time>2020-10-03T12:26:39.000Z</time>
      </trkpt>
      <trkpt lat="43.60501" lon="0.93604">
        <ele>220</ele>
        <time>2020-10-03T12:26:41.000Z</time>
      </trkpt>
      <trkpt lat="43.60503" lon="0.93599">
        <ele>220</ele>
        <time>2020-10-03T12:26:43.000Z</time>
      </trkpt>
      <trkpt lat="43.60504" lon="0.93596">
        <ele>220.41379158146</ele>
        <time>2020-10-03T12:26:45.000Z</time>
      </trkpt>
      <trkpt lat="43.60505" lon="0.93592">
        <ele>221</ele>
        <time>2020-10-03T12:26:47.000Z</time>
      </trkpt>
      <trkpt lat="43.60507" lon="0.93588">
        <ele>221.33333333333</ele>
        <time>2020-10-03T12:26:49.000Z</time>
      </trkpt>
      <trkpt lat="43.60508" lon="0.93584">
        <ele>222</ele>
        <time>2020-10-03T12:26:51.000Z</time>
      </trkpt>
      <trkpt lat="43.60509" lon="0.9358">
        <ele>222</ele>
        <time>2020-10-03T12:26:53.000Z</time>
      </trkpt>
      <trkpt lat="43.60511" lon="0.93576">
        <ele>222.36471102009</ele>
        <time>2020-10-03T12:26:55.000Z</time>
      </trkpt>
      <trkpt lat="43.60511" lon="0.93572">
        <ele>223</ele>
        <time>2020-10-03T12:26:57.000Z</time>
      </trkpt>
      <trkpt lat="43.60511" lon="0.93568">
        <ele>223</ele>
        <time>2020-10-03T12:26:59.000Z</time>
      </trkpt>
      <trkpt lat="43.60512" lon="0.93564">
        <ele>223</ele>
        <time>2020-10-03T12:27:01.000Z</time>
      </trkpt>
      <trkpt lat="43.60513" lon="0.9356">
        <ele>223</ele>
        <time>2020-10-03T12:27:03.000Z</time>
      </trkpt>
      <trkpt lat="43.60514" lon="0.93556">
        <ele>223</ele>
        <time>2020-10-03T12:27:05.000Z</time>
      </trkpt>
      <trkpt lat="43.60515" lon="0.93553">
        <ele>223</ele>
        <time>2020-10-03T12:27:07.000Z</time>
      </trkpt>
      <trkpt lat="43.60516" lon="0.93549">
        <ele>223</ele>
        <time>2020-10-03T12:27:09.000Z</time>
      </trkpt>
      <trkpt lat="43.60518" lon="0.93544">
        <ele>223</ele>
        <time>2020-10-03T12:27:11.000Z</time>
      </trkpt>
      <trkpt lat="43.60519" lon="0.93541">
        <ele>224</ele>
        <time>2020-10-03T12:27:13.000Z</time>
      </trkpt>
      <trkpt lat="43.60521" lon="0.93537">
        <ele>224</ele>
        <time>2020-10-03T12:27:15.000Z</time>
      </trkpt>
      <trkpt lat="43.60522" lon="0.93534">
        <ele>224</ele>
        <time>2020-10-03T12:27:17.000Z</time>
      </trkpt>
      <trkpt lat="43.60524" lon="0.9353">
        <ele>224</ele>
        <time>2020-10-03T12:27:19.000Z</time>
      </trkpt>
      <trkpt lat="43.60527" lon="0.93526">
        <ele>224</ele>
        <time>2020-10-03T12:27:21.000Z</time>
      </trkpt>
      <trkpt lat="43.60528" lon="0.93524">
        <ele>224</ele>
        <time>2020-10-03T12:27:22.000Z</time>
      </trkpt>
      <trkpt lat="43.60529" lon="0.93522">
        <ele>224.41379158146</ele>
        <time>2020-10-03T12:27:23.000Z</time>
      </trkpt>
      <trkpt lat="43.60531" lon="0.93518">
        <ele>225</ele>
        <time>2020-10-03T12:27:25.000Z</time>
      </trkpt>
      <trkpt lat="43.60533" lon="0.93514">
        <ele>225</ele>
        <time>2020-10-03T12:27:27.000Z</time>
      </trkpt>
      <trkpt lat="43.60535" lon="0.93511">
        <ele>225</ele>
        <time>2020-10-03T12:27:29.000Z</time>
      </trkpt>
      <trkpt lat="43.60537" lon="0.93507">
        <ele>224.58620841854</ele>
        <time>2020-10-03T12:27:31.000Z</time>
      </trkpt>
      <trkpt lat="43.60539" lon="0.93503">
        <ele>224</ele>
        <time>2020-10-03T12:27:33.000Z</time>
      </trkpt>
      <trkpt lat="43.60541" lon="0.935">
        <ele>224.41176382008</ele>
        <time>2020-10-03T12:27:35.000Z</time>
      </trkpt>
      <trkpt lat="43.60542" lon="0.93496">
        <ele>225</ele>
        <time>2020-10-03T12:27:37.000Z</time>
      </trkpt>
      <trkpt lat="43.60544" lon="0.93493">
        <ele>225</ele>
        <time>2020-10-03T12:27:39.000Z</time>
      </trkpt>
      <trkpt lat="43.60546" lon="0.93489">
        <ele>225</ele>
        <time>2020-10-03T12:27:41.000Z</time>
      </trkpt>
      <trkpt lat="43.60548" lon="0.93486">
        <ele>225</ele>
        <time>2020-10-03T12:27:43.000Z</time>
      </trkpt>
      <trkpt lat="43.6055" lon="0.93483">
        <ele>225</ele>
        <time>2020-10-03T12:27:45.000Z</time>
      </trkpt>
      <trkpt lat="43.60552" lon="0.93479">
        <ele>225</ele>
        <time>2020-10-03T12:27:47.000Z</time>
      </trkpt>
      <trkpt lat="43.60554" lon="0.93475">
        <ele>225</ele>
        <time>2020-10-03T12:27:49.000Z</time>
      </trkpt>
      <trkpt lat="43.60556" lon="0.93471">
        <ele>225</ele>
        <time>2020-10-03T12:27:51.000Z</time>
      </trkpt>
      <trkpt lat="43.60558" lon="0.93468">
        <ele>225</ele>
        <time>2020-10-03T12:27:53.000Z</time>
      </trkpt>
      <trkpt lat="43.6056" lon="0.93465">
        <ele>225</ele>
        <time>2020-10-03T12:27:55.000Z</time>
      </trkpt>
      <trkpt lat="43.60561" lon="0.93462">
        <ele>225</ele>
        <time>2020-10-03T12:27:57.000Z</time>
      </trkpt>
      <trkpt lat="43.60563" lon="0.93459">
        <ele>225</ele>
        <time>2020-10-03T12:27:59.000Z</time>
      </trkpt>
      <trkpt lat="43.60564" lon="0.93455">
        <ele>225.18627647827</ele>
        <time>2020-10-03T12:28:01.000Z</time>
      </trkpt>
      <trkpt lat="43.60567" lon="0.93451">
        <ele>226</ele>
        <time>2020-10-03T12:28:03.000Z</time>
      </trkpt>
      <trkpt lat="43.60568" lon="0.93448">
        <ele>226</ele>
        <time>2020-10-03T12:28:05.000Z</time>
      </trkpt>
      <trkpt lat="43.6057" lon="0.93445">
        <ele>226</ele>
        <time>2020-10-03T12:28:07.000Z</time>
      </trkpt>
      <trkpt lat="43.60571" lon="0.93441">
        <ele>226</ele>
        <time>2020-10-03T12:28:09.000Z</time>
      </trkpt>
      <trkpt lat="43.60573" lon="0.93438">
        <ele>226</ele>
        <time>2020-10-03T12:28:11.000Z</time>
      </trkpt>
      <trkpt lat="43.60575" lon="0.93434">
        <ele>226</ele>
        <time>2020-10-03T12:28:13.000Z</time>
      </trkpt>
      <trkpt lat="43.60576" lon="0.93431">
        <ele>226</ele>
        <time>2020-10-03T12:28:15.000Z</time>
      </trkpt>
      <trkpt lat="43.60578" lon="0.93428">
        <ele>226</ele>
        <time>2020-10-03T12:28:17.000Z</time>
      </trkpt>
      <trkpt lat="43.6058" lon="0.93425">
        <ele>226</ele>
        <time>2020-10-03T12:28:19.000Z</time>
      </trkpt>
      <trkpt lat="43.60581" lon="0.93421">
        <ele>225.58586315681</ele>
        <time>2020-10-03T12:28:21.000Z</time>
      </trkpt>
      <trkpt lat="43.60582" lon="0.93418">
        <ele>225</ele>
        <time>2020-10-03T12:28:23.000Z</time>
      </trkpt>
      <trkpt lat="43.60583" lon="0.93414">
        <ele>225</ele>
        <time>2020-10-03T12:28:25.000Z</time>
      </trkpt>
      <trkpt lat="43.60584" lon="0.93411">
        <ele>225</ele>
        <time>2020-10-03T12:28:27.000Z</time>
      </trkpt>
      <trkpt lat="43.60585" lon="0.93406">
        <ele>225</ele>
        <time>2020-10-03T12:28:29.000Z</time>
      </trkpt>
      <trkpt lat="43.60587" lon="0.93402">
        <ele>224</ele>
        <time>2020-10-03T12:28:31.000Z</time>
      </trkpt>
      <trkpt lat="43.60588" lon="0.93399">
        <ele>224</ele>
        <time>2020-10-03T12:28:33.000Z</time>
      </trkpt>
      <trkpt lat="43.60589" lon="0.93395">
        <ele>224</ele>
        <time>2020-10-03T12:28:35.000Z</time>
      </trkpt>
      <trkpt lat="43.6059" lon="0.93392">
        <ele>224</ele>
        <time>2020-10-03T12:28:37.000Z</time>
      </trkpt>
      <trkpt lat="43.60591" lon="0.93389">
        <ele>224</ele>
        <time>2020-10-03T12:28:39.000Z</time>
      </trkpt>
      <trkpt lat="43.60593" lon="0.93385">
        <ele>224</ele>
        <time>2020-10-03T12:28:41.000Z</time>
      </trkpt>
      <trkpt lat="43.60593" lon="0.93381">
        <ele>223.61403292089</ele>
        <time>2020-10-03T12:28:43.000Z</time>
      </trkpt>
      <trkpt lat="43.60594" lon="0.93377">
        <ele>223</ele>
        <time>2020-10-03T12:28:45.000Z</time>
      </trkpt>
      <trkpt lat="43.60595" lon="0.93373">
        <ele>223</ele>
        <time>2020-10-03T12:28:47.000Z</time>
      </trkpt>
      <trkpt lat="43.60597" lon="0.93369">
        <ele>223</ele>
        <time>2020-10-03T12:28:49.000Z</time>
      </trkpt>
      <trkpt lat="43.60599" lon="0.93365">
        <ele>222</ele>
        <time>2020-10-03T12:28:51.000Z</time>
      </trkpt>
      <trkpt lat="43.606" lon="0.93362">
        <ele>222</ele>
        <time>2020-10-03T12:28:53.000Z</time>
      </trkpt>
      <trkpt lat="43.60602" lon="0.93358">
        <ele>222</ele>
        <time>2020-10-03T12:28:55.000Z</time>
      </trkpt>
      <trkpt lat="43.60603" lon="0.93355">
        <ele>222</ele>
        <time>2020-10-03T12:28:57.000Z</time>
      </trkpt>
      <trkpt lat="43.60605" lon="0.93353">
        <ele>223</ele>
        <time>2020-10-03T12:29:15.000Z</time>
      </trkpt>
      <trkpt lat="43.60606" lon="0.93352">
        <ele>223</ele>
        <time>2020-10-03T12:29:17.000Z</time>
      </trkpt>
      <trkpt lat="43.60608" lon="0.93349">
        <ele>222</ele>
        <time>2020-10-03T12:29:19.000Z</time>
      </trkpt>
      <trkpt lat="43.60609" lon="0.93346">
        <ele>222</ele>
        <time>2020-10-03T12:29:21.000Z</time>
      </trkpt>
      <trkpt lat="43.6061" lon="0.93343">
        <ele>222</ele>
        <time>2020-10-03T12:29:23.000Z</time>
      </trkpt>
      <trkpt lat="43.60611" lon="0.9334">
        <ele>220</ele>
        <time>2020-10-03T12:29:31.000Z</time>
      </trkpt>
      <trkpt lat="43.60612" lon="0.93337">
        <ele>221</ele>
        <time>2020-10-03T12:29:33.000Z</time>
      </trkpt>
      <trkpt lat="43.60613" lon="0.93334">
        <ele>221</ele>
        <time>2020-10-03T12:29:35.000Z</time>
      </trkpt>
      <trkpt lat="43.60615" lon="0.9333">
        <ele>221</ele>
        <time>2020-10-03T12:29:37.000Z</time>
      </trkpt>
      <trkpt lat="43.60616" lon="0.93327">
        <ele>221</ele>
        <time>2020-10-03T12:29:39.000Z</time>
      </trkpt>
      <trkpt lat="43.60618" lon="0.93323">
        <ele>220.68056</ele>
        <time>2020-10-03T12:29:41.000Z</time>
      </trkpt>
      <trkpt lat="43.6062" lon="0.9332">
        <ele>220</ele>
        <time>2020-10-03T12:29:43.000Z</time>
      </trkpt>
      <trkpt lat="43.60622" lon="0.93316">
        <ele>220</ele>
        <time>2020-10-03T12:29:45.000Z</time>
      </trkpt>
      <trkpt lat="43.60624" lon="0.93314">
        <ele>220</ele>
        <time>2020-10-03T12:29:46.000Z</time>
      </trkpt>
      <trkpt lat="43.60626" lon="0.9331">
        <ele>220</ele>
        <time>2020-10-03T12:29:48.000Z</time>
      </trkpt>
      <trkpt lat="43.60626" lon="0.93307">
        <ele>220</ele>
        <time>2020-10-03T12:29:49.000Z</time>
      </trkpt>
      <trkpt lat="43.60628" lon="0.93303">
        <ele>220</ele>
        <time>2020-10-03T12:29:51.000Z</time>
      </trkpt>
      <trkpt lat="43.6063" lon="0.93299">
        <ele>220</ele>
        <time>2020-10-03T12:29:53.000Z</time>
      </trkpt>
      <trkpt lat="43.60631" lon="0.93295">
        <ele>220</ele>
        <time>2020-10-03T12:29:55.000Z</time>
      </trkpt>
      <trkpt lat="43.60633" lon="0.93291">
        <ele>219</ele>
        <time>2020-10-03T12:29:57.000Z</time>
      </trkpt>
      <trkpt lat="43.60635" lon="0.93286">
        <ele>219.44444300786</ele>
        <time>2020-10-03T12:29:59.000Z</time>
      </trkpt>
      <trkpt lat="43.60636" lon="0.93284">
        <ele>220</ele>
        <time>2020-10-03T12:30:00.000Z</time>
      </trkpt>
      <trkpt lat="43.60637" lon="0.9328">
        <ele>219</ele>
        <time>2020-10-03T12:30:02.000Z</time>
      </trkpt>
      <trkpt lat="43.60638" lon="0.93275">
        <ele>219</ele>
        <time>2020-10-03T12:30:04.000Z</time>
      </trkpt>
      <trkpt lat="43.6064" lon="0.93271">
        <ele>219</ele>
        <time>2020-10-03T12:30:06.000Z</time>
      </trkpt>
      <trkpt lat="43.60641" lon="0.93267">
        <ele>220</ele>
        <time>2020-10-03T12:30:08.000Z</time>
      </trkpt>
      <trkpt lat="43.60642" lon="0.93263">
        <ele>220</ele>
        <time>2020-10-03T12:30:10.000Z</time>
      </trkpt>
      <trkpt lat="43.60644" lon="0.9326">
        <ele>219.5773214922</ele>
        <time>2020-10-03T12:30:12.000Z</time>
      </trkpt>
      <trkpt lat="43.60645" lon="0.93256">
        <ele>219</ele>
        <time>2020-10-03T12:30:14.000Z</time>
      </trkpt>
      <trkpt lat="43.60646" lon="0.93252">
        <ele>219</ele>
        <time>2020-10-03T12:30:16.000Z</time>
      </trkpt>
      <trkpt lat="43.60647" lon="0.93247">
        <ele>218</ele>
        <time>2020-10-03T12:30:18.000Z</time>
      </trkpt>
      <trkpt lat="43.60648" lon="0.93243">
        <ele>218</ele>
        <time>2020-10-03T12:30:20.000Z</time>
      </trkpt>
      <trkpt lat="43.60649" lon="0.93239">
        <ele>218</ele>
        <time>2020-10-03T12:30:22.000Z</time>
      </trkpt>
      <trkpt lat="43.6065" lon="0.93234">
        <ele>218</ele>
        <time>2020-10-03T12:30:24.000Z</time>
      </trkpt>
      <trkpt lat="43.60651" lon="0.9323">
        <ele>218</ele>
        <time>2020-10-03T12:30:26.000Z</time>
      </trkpt>
      <trkpt lat="43.60652" lon="0.93226">
        <ele>218</ele>
        <time>2020-10-03T12:30:28.000Z</time>
      </trkpt>
      <trkpt lat="43.60653" lon="0.93223">
        <ele>218</ele>
        <time>2020-10-03T12:30:30.000Z</time>
      </trkpt>
      <trkpt lat="43.60653" lon="0.93218">
        <ele>218</ele>
        <time>2020-10-03T12:30:32.000Z</time>
      </trkpt>
      <trkpt lat="43.60654" lon="0.93214">
        <ele>218</ele>
        <time>2020-10-03T12:30:34.000Z</time>
      </trkpt>
      <trkpt lat="43.60654" lon="0.93211">
        <ele>218</ele>
        <time>2020-10-03T12:30:35.000Z</time>
      </trkpt>
      <trkpt lat="43.60655" lon="0.93206">
        <ele>217.57292</ele>
        <time>2020-10-03T12:30:37.000Z</time>
      </trkpt>
      <trkpt lat="43.60656" lon="0.93203">
        <ele>217</ele>
        <time>2020-10-03T12:30:38.000Z</time>
      </trkpt>
      <trkpt lat="43.60656" lon="0.932">
        <ele>217</ele>
        <time>2020-10-03T12:30:39.000Z</time>
      </trkpt>
      <trkpt lat="43.60657" lon="0.93197">
        <ele>217</ele>
        <time>2020-10-03T12:30:40.000Z</time>
      </trkpt>
      <trkpt lat="43.60657" lon="0.93193">
        <ele>217</ele>
        <time>2020-10-03T12:30:41.000Z</time>
      </trkpt>
      <trkpt lat="43.60658" lon="0.9319">
        <ele>217</ele>
        <time>2020-10-03T12:30:42.000Z</time>
      </trkpt>
      <trkpt lat="43.60658" lon="0.93186">
        <ele>216.58163318618</ele>
        <time>2020-10-03T12:30:43.000Z</time>
      </trkpt>
      <trkpt lat="43.60659" lon="0.93183">
        <ele>216</ele>
        <time>2020-10-03T12:30:44.000Z</time>
      </trkpt>
      <trkpt lat="43.6066" lon="0.93179">
        <ele>216</ele>
        <time>2020-10-03T12:30:45.000Z</time>
      </trkpt>
      <trkpt lat="43.6066" lon="0.93176">
        <ele>216</ele>
        <time>2020-10-03T12:30:46.000Z</time>
      </trkpt>
      <trkpt lat="43.60661" lon="0.93172">
        <ele>216</ele>
        <time>2020-10-03T12:30:47.000Z</time>
      </trkpt>
      <trkpt lat="43.60661" lon="0.93168">
        <ele>216</ele>
        <time>2020-10-03T12:30:48.000Z</time>
      </trkpt>
      <trkpt lat="43.60662" lon="0.93164">
        <ele>216</ele>
        <time>2020-10-03T12:30:49.000Z</time>
      </trkpt>
      <trkpt lat="43.60662" lon="0.93161">
        <ele>216</ele>
        <time>2020-10-03T12:30:50.000Z</time>
      </trkpt>
      <trkpt lat="43.60663" lon="0.93157">
        <ele>216</ele>
        <time>2020-10-03T12:30:51.000Z</time>
      </trkpt>
      <trkpt lat="43.60664" lon="0.93154">
        <ele>216</ele>
        <time>2020-10-03T12:30:52.000Z</time>
      </trkpt>
      <trkpt lat="43.60664" lon="0.9315">
        <ele>216</ele>
        <time>2020-10-03T12:30:53.000Z</time>
      </trkpt>
      <trkpt lat="43.60665" lon="0.93146">
        <ele>216</ele>
        <time>2020-10-03T12:30:54.000Z</time>
      </trkpt>
      <trkpt lat="43.60666" lon="0.93143">
        <ele>216</ele>
        <time>2020-10-03T12:30:55.000Z</time>
      </trkpt>
      <trkpt lat="43.60667" lon="0.93139">
        <ele>216</ele>
        <time>2020-10-03T12:30:56.000Z</time>
      </trkpt>
      <trkpt lat="43.60667" lon="0.93136">
        <ele>216</ele>
        <time>2020-10-03T12:30:57.000Z</time>
      </trkpt>
      <trkpt lat="43.60668" lon="0.93132">
        <ele>216.22077598245</ele>
        <time>2020-10-03T12:30:58.000Z</time>
      </trkpt>
      <trkpt lat="43.60669" lon="0.93128">
        <ele>217</ele>
        <time>2020-10-03T12:30:59.000Z</time>
      </trkpt>
      <trkpt lat="43.60669" lon="0.93124">
        <ele>217</ele>
        <time>2020-10-03T12:31:00.000Z</time>
      </trkpt>
      <trkpt lat="43.6067" lon="0.9312">
        <ele>216.24323389338</ele>
        <time>2020-10-03T12:31:01.000Z</time>
      </trkpt>
      <trkpt lat="43.60671" lon="0.93117">
        <ele>215</ele>
        <time>2020-10-03T12:31:02.000Z</time>
      </trkpt>
      <trkpt lat="43.60671" lon="0.93113">
        <ele>215.41817843304</ele>
        <time>2020-10-03T12:31:03.000Z</time>
      </trkpt>
      <trkpt lat="43.60671" lon="0.93109">
        <ele>216</ele>
        <time>2020-10-03T12:31:04.000Z</time>
      </trkpt>
      <trkpt lat="43.60672" lon="0.93106">
        <ele>216</ele>
        <time>2020-10-03T12:31:05.000Z</time>
      </trkpt>
      <trkpt lat="43.60672" lon="0.93102">
        <ele>216</ele>
        <time>2020-10-03T12:31:06.000Z</time>
      </trkpt>
      <trkpt lat="43.60673" lon="0.93098">
        <ele>216</ele>
        <time>2020-10-03T12:31:07.000Z</time>
      </trkpt>
      <trkpt lat="43.60674" lon="0.93095">
        <ele>216</ele>
        <time>2020-10-03T12:31:08.000Z</time>
      </trkpt>
      <trkpt lat="43.60674" lon="0.93091">
        <ele>216</ele>
        <time>2020-10-03T12:31:09.000Z</time>
      </trkpt>
      <trkpt lat="43.60675" lon="0.93087">
        <ele>216</ele>
        <time>2020-10-03T12:31:10.000Z</time>
      </trkpt>
      <trkpt lat="43.60676" lon="0.93083">
        <ele>216</ele>
        <time>2020-10-03T12:31:11.000Z</time>
      </trkpt>
      <trkpt lat="43.60677" lon="0.9308">
        <ele>216</ele>
        <time>2020-10-03T12:31:12.000Z</time>
      </trkpt>
      <trkpt lat="43.60678" lon="0.93076">
        <ele>216</ele>
        <time>2020-10-03T12:31:13.000Z</time>
      </trkpt>
      <trkpt lat="43.60679" lon="0.93072">
        <ele>216</ele>
        <time>2020-10-03T12:31:14.000Z</time>
      </trkpt>
      <trkpt lat="43.6068" lon="0.93068">
        <ele>216</ele>
        <time>2020-10-03T12:31:15.000Z</time>
      </trkpt>
      <trkpt lat="43.60681" lon="0.93064">
        <ele>216.31896275862</ele>
        <time>2020-10-03T12:31:16.000Z</time>
      </trkpt>
      <trkpt lat="43.60682" lon="0.93061">
        <ele>217</ele>
        <time>2020-10-03T12:31:17.000Z</time>
      </trkpt>
      <trkpt lat="43.60683" lon="0.93057">
        <ele>217</ele>
        <time>2020-10-03T12:31:18.000Z</time>
      </trkpt>
      <trkpt lat="43.60683" lon="0.93054">
        <ele>217</ele>
        <time>2020-10-03T12:31:19.000Z</time>
      </trkpt>
      <trkpt lat="43.60684" lon="0.9305">
        <ele>217</ele>
        <time>2020-10-03T12:31:20.000Z</time>
      </trkpt>
      <trkpt lat="43.60685" lon="0.93046">
        <ele>217</ele>
        <time>2020-10-03T12:31:21.000Z</time>
      </trkpt>
      <trkpt lat="43.60686" lon="0.93043">
        <ele>217</ele>
        <time>2020-10-03T12:31:22.000Z</time>
      </trkpt>
      <trkpt lat="43.60687" lon="0.93039">
        <ele>217</ele>
        <time>2020-10-03T12:31:23.000Z</time>
      </trkpt>
      <trkpt lat="43.60688" lon="0.93035">
        <ele>216.59374666667</ele>
        <time>2020-10-03T12:31:24.000Z</time>
      </trkpt>
      <trkpt lat="43.6069" lon="0.93032">
        <ele>216</ele>
        <time>2020-10-03T12:31:25.000Z</time>
      </trkpt>
      <trkpt lat="43.60691" lon="0.93028">
        <ele>215.52631437118</ele>
        <time>2020-10-03T12:31:26.000Z</time>
      </trkpt>
      <trkpt lat="43.60692" lon="0.93024">
        <ele>215</ele>
        <time>2020-10-03T12:31:27.000Z</time>
      </trkpt>
      <trkpt lat="43.60694" lon="0.9302">
        <ele>215.31110889878</ele>
        <time>2020-10-03T12:31:28.000Z</time>
      </trkpt>
      <trkpt lat="43.60695" lon="0.93017">
        <ele>216</ele>
        <time>2020-10-03T12:31:29.000Z</time>
      </trkpt>
      <trkpt lat="43.60696" lon="0.93013">
        <ele>216</ele>
        <time>2020-10-03T12:31:30.000Z</time>
      </trkpt>
      <trkpt lat="43.60697" lon="0.93009">
        <ele>216</ele>
        <time>2020-10-03T12:31:31.000Z</time>
      </trkpt>
      <trkpt lat="43.60698" lon="0.93006">
        <ele>216</ele>
        <time>2020-10-03T12:31:32.000Z</time>
      </trkpt>
      <trkpt lat="43.60699" lon="0.93002">
        <ele>216</ele>
        <time>2020-10-03T12:31:33.000Z</time>
      </trkpt>
      <trkpt lat="43.607" lon="0.92998">
        <ele>216</ele>
        <time>2020-10-03T12:31:34.000Z</time>
      </trkpt>
      <trkpt lat="43.60701" lon="0.92994">
        <ele>216</ele>
        <time>2020-10-03T12:31:35.000Z</time>
      </trkpt>
      <trkpt lat="43.60702" lon="0.92991">
        <ele>215.85897141357</ele>
        <time>2020-10-03T12:31:36.000Z</time>
      </trkpt>
      <trkpt lat="43.60703" lon="0.92987">
        <ele>215</ele>
        <time>2020-10-03T12:31:37.000Z</time>
      </trkpt>
      <trkpt lat="43.60704" lon="0.92983">
        <ele>215</ele>
        <time>2020-10-03T12:31:38.000Z</time>
      </trkpt>
      <trkpt lat="43.60705" lon="0.92979">
        <ele>215</ele>
        <time>2020-10-03T12:31:39.000Z</time>
      </trkpt>
      <trkpt lat="43.60705" lon="0.92976">
        <ele>215</ele>
        <time>2020-10-03T12:31:40.000Z</time>
      </trkpt>
      <trkpt lat="43.60706" lon="0.92972">
        <ele>215</ele>
        <time>2020-10-03T12:31:41.000Z</time>
      </trkpt>
      <trkpt lat="43.60707" lon="0.92968">
        <ele>215</ele>
        <time>2020-10-03T12:31:42.000Z</time>
      </trkpt>
      <trkpt lat="43.60707" lon="0.92964">
        <ele>215</ele>
        <time>2020-10-03T12:31:43.000Z</time>
      </trkpt>
      <trkpt lat="43.60708" lon="0.9296">
        <ele>215</ele>
        <time>2020-10-03T12:31:44.000Z</time>
      </trkpt>
      <trkpt lat="43.60708" lon="0.92956">
        <ele>215</ele>
        <time>2020-10-03T12:31:45.000Z</time>
      </trkpt>
      <trkpt lat="43.60709" lon="0.92953">
        <ele>215</ele>
        <time>2020-10-03T12:31:46.000Z</time>
      </trkpt>
      <trkpt lat="43.60709" lon="0.92949">
        <ele>215</ele>
        <time>2020-10-03T12:31:47.000Z</time>
      </trkpt>
      <trkpt lat="43.6071" lon="0.92945">
        <ele>215</ele>
        <time>2020-10-03T12:31:48.000Z</time>
      </trkpt>
      <trkpt lat="43.6071" lon="0.92941">
        <ele>215</ele>
        <time>2020-10-03T12:31:49.000Z</time>
      </trkpt>
      <trkpt lat="43.60711" lon="0.92937">
        <ele>215</ele>
        <time>2020-10-03T12:31:50.000Z</time>
      </trkpt>
      <trkpt lat="43.60711" lon="0.92933">
        <ele>215</ele>
        <time>2020-10-03T12:31:51.000Z</time>
      </trkpt>
      <trkpt lat="43.60712" lon="0.92929">
        <ele>215</ele>
        <time>2020-10-03T12:31:52.000Z</time>
      </trkpt>
      <trkpt lat="43.60712" lon="0.92925">
        <ele>214.69662452719</ele>
        <time>2020-10-03T12:31:53.000Z</time>
      </trkpt>
      <trkpt lat="43.60713" lon="0.92921">
        <ele>214</ele>
        <time>2020-10-03T12:31:54.000Z</time>
      </trkpt>
      <trkpt lat="43.60713" lon="0.92917">
        <ele>214</ele>
        <time>2020-10-03T12:31:55.000Z</time>
      </trkpt>
      <trkpt lat="43.60714" lon="0.92913">
        <ele>214</ele>
        <time>2020-10-03T12:31:56.000Z</time>
      </trkpt>
      <trkpt lat="43.60714" lon="0.92909">
        <ele>214</ele>
        <time>2020-10-03T12:31:57.000Z</time>
      </trkpt>
      <trkpt lat="43.60714" lon="0.92905">
        <ele>214</ele>
        <time>2020-10-03T12:31:58.000Z</time>
      </trkpt>
      <trkpt lat="43.60715" lon="0.92901">
        <ele>214</ele>
        <time>2020-10-03T12:31:59.000Z</time>
      </trkpt>
      <trkpt lat="43.60715" lon="0.92897">
        <ele>214</ele>
        <time>2020-10-03T12:32:00.000Z</time>
      </trkpt>
      <trkpt lat="43.60715" lon="0.92893">
        <ele>214</ele>
        <time>2020-10-03T12:32:01.000Z</time>
      </trkpt>
      <trkpt lat="43.60716" lon="0.92889">
        <ele>214</ele>
        <time>2020-10-03T12:32:02.000Z</time>
      </trkpt>
      <trkpt lat="43.60717" lon="0.92885">
        <ele>214</ele>
        <time>2020-10-03T12:32:03.000Z</time>
      </trkpt>
      <trkpt lat="43.60717" lon="0.92881">
        <ele>214</ele>
        <time>2020-10-03T12:32:04.000Z</time>
      </trkpt>
      <trkpt lat="43.60718" lon="0.92877">
        <ele>214</ele>
        <time>2020-10-03T12:32:05.000Z</time>
      </trkpt>
      <trkpt lat="43.60718" lon="0.92873">
        <ele>214</ele>
        <time>2020-10-03T12:32:06.000Z</time>
      </trkpt>
      <trkpt lat="43.60718" lon="0.92869">
        <ele>213.61946511707</ele>
        <time>2020-10-03T12:32:07.000Z</time>
      </trkpt>
      <trkpt lat="43.60719" lon="0.92865">
        <ele>213</ele>
        <time>2020-10-03T12:32:08.000Z</time>
      </trkpt>
      <trkpt lat="43.60719" lon="0.92861">
        <ele>212.61061836635</ele>
        <time>2020-10-03T12:32:09.000Z</time>
      </trkpt>
      <trkpt lat="43.6072" lon="0.92857">
        <ele>212</ele>
        <time>2020-10-03T12:32:10.000Z</time>
      </trkpt>
      <trkpt lat="43.6072" lon="0.92853">
        <ele>212.46535117735</ele>
        <time>2020-10-03T12:32:11.000Z</time>
      </trkpt>
      <trkpt lat="43.60721" lon="0.92849">
        <ele>213</ele>
        <time>2020-10-03T12:32:12.000Z</time>
      </trkpt>
      <trkpt lat="43.60721" lon="0.92845">
        <ele>213</ele>
        <time>2020-10-03T12:32:13.000Z</time>
      </trkpt>
      <trkpt lat="43.60722" lon="0.92841">
        <ele>213</ele>
        <time>2020-10-03T12:32:14.000Z</time>
      </trkpt>
      <trkpt lat="43.60722" lon="0.92838">
        <ele>213</ele>
        <time>2020-10-03T12:32:15.000Z</time>
      </trkpt>
      <trkpt lat="43.60722" lon="0.92834">
        <ele>213</ele>
        <time>2020-10-03T12:32:16.000Z</time>
      </trkpt>
      <trkpt lat="43.60722" lon="0.9283">
        <ele>213</ele>
        <time>2020-10-03T12:32:17.000Z</time>
      </trkpt>
      <trkpt lat="43.60722" lon="0.92827">
        <ele>213</ele>
        <time>2020-10-03T12:32:18.000Z</time>
      </trkpt>
      <trkpt lat="43.60723" lon="0.92823">
        <ele>213</ele>
        <time>2020-10-03T12:32:19.000Z</time>
      </trkpt>
      <trkpt lat="43.60723" lon="0.92819">
        <ele>213</ele>
        <time>2020-10-03T12:32:20.000Z</time>
      </trkpt>
      <trkpt lat="43.60723" lon="0.92816">
        <ele>213</ele>
        <time>2020-10-03T12:32:21.000Z</time>
      </trkpt>
      <trkpt lat="43.60724" lon="0.92812">
        <ele>213.23077528997</ele>
        <time>2020-10-03T12:32:22.000Z</time>
      </trkpt>
      <trkpt lat="43.60724" lon="0.92809">
        <ele>214</ele>
        <time>2020-10-03T12:32:23.000Z</time>
      </trkpt>
      <trkpt lat="43.60725" lon="0.92805">
        <ele>214</ele>
        <time>2020-10-03T12:32:24.000Z</time>
      </trkpt>
      <trkpt lat="43.60725" lon="0.92802">
        <ele>214</ele>
        <time>2020-10-03T12:32:25.000Z</time>
      </trkpt>
      <trkpt lat="43.60726" lon="0.92798">
        <ele>214</ele>
        <time>2020-10-03T12:32:26.000Z</time>
      </trkpt>
      <trkpt lat="43.60726" lon="0.92795">
        <ele>214</ele>
        <time>2020-10-03T12:32:27.000Z</time>
      </trkpt>
      <trkpt lat="43.60727" lon="0.92791">
        <ele>214</ele>
        <time>2020-10-03T12:32:28.000Z</time>
      </trkpt>
      <trkpt lat="43.60727" lon="0.92787">
        <ele>214</ele>
        <time>2020-10-03T12:32:29.000Z</time>
      </trkpt>
      <trkpt lat="43.60728" lon="0.92784">
        <ele>214</ele>
        <time>2020-10-03T12:32:30.000Z</time>
      </trkpt>
      <trkpt lat="43.60728" lon="0.9278">
        <ele>213.66292732738</ele>
        <time>2020-10-03T12:32:31.000Z</time>
      </trkpt>
      <trkpt lat="43.60729" lon="0.92777">
        <ele>213</ele>
        <time>2020-10-03T12:32:32.000Z</time>
      </trkpt>
      <trkpt lat="43.6073" lon="0.92774">
        <ele>212.97467554562</ele>
        <time>2020-10-03T12:32:33.000Z</time>
      </trkpt>
      <trkpt lat="43.6073" lon="0.92771">
        <ele>212</ele>
        <time>2020-10-03T12:32:34.000Z</time>
      </trkpt>
      <trkpt lat="43.60731" lon="0.92768">
        <ele>212</ele>
        <time>2020-10-03T12:32:35.000Z</time>
      </trkpt>
      <trkpt lat="43.60733" lon="0.92767">
        <ele>213</ele>
        <time>2020-10-03T12:32:40.000Z</time>
      </trkpt>
      <trkpt lat="43.60734" lon="0.92765">
        <ele>213</ele>
        <time>2020-10-03T12:32:51.000Z</time>
      </trkpt>
      <trkpt lat="43.60732" lon="0.92766">
        <ele>213</ele>
        <time>2020-10-03T12:33:35.000Z</time>
      </trkpt>
      <trkpt lat="43.60731" lon="0.92763">
        <ele>213</ele>
        <time>2020-10-03T12:33:40.000Z</time>
      </trkpt>
      <trkpt lat="43.60732" lon="0.92761">
        <ele>213</ele>
        <time>2020-10-03T12:34:01.000Z</time>
      </trkpt>
      <trkpt lat="43.60734" lon="0.92759">
        <ele>213</ele>
        <time>2020-10-03T12:34:16.000Z</time>
      </trkpt>
      <trkpt lat="43.60734" lon="0.92755">
        <ele>213</ele>
        <time>2020-10-03T12:34:18.000Z</time>
      </trkpt>
      <trkpt lat="43.60734" lon="0.92751">
        <ele>213</ele>
        <time>2020-10-03T12:34:19.000Z</time>
      </trkpt>
      <trkpt lat="43.60735" lon="0.92747">
        <ele>213</ele>
        <time>2020-10-03T12:34:20.000Z</time>
      </trkpt>
      <trkpt lat="43.60735" lon="0.92743">
        <ele>213</ele>
        <time>2020-10-03T12:34:21.000Z</time>
      </trkpt>
      <trkpt lat="43.60736" lon="0.92739">
        <ele>212.58947169862</ele>
        <time>2020-10-03T12:34:22.000Z</time>
      </trkpt>
      <trkpt lat="43.60737" lon="0.92736">
        <ele>212</ele>
        <time>2020-10-03T12:34:23.000Z</time>
      </trkpt>
      <trkpt lat="43.60737" lon="0.92732">
        <ele>212</ele>
        <time>2020-10-03T12:34:24.000Z</time>
      </trkpt>
      <trkpt lat="43.60738" lon="0.92728">
        <ele>212</ele>
        <time>2020-10-03T12:34:25.000Z</time>
      </trkpt>
      <trkpt lat="43.60739" lon="0.92724">
        <ele>212</ele>
        <time>2020-10-03T12:34:26.000Z</time>
      </trkpt>
      <trkpt lat="43.6074" lon="0.92719">
        <ele>212</ele>
        <time>2020-10-03T12:34:27.000Z</time>
      </trkpt>
      <trkpt lat="43.6074" lon="0.92715">
        <ele>212</ele>
        <time>2020-10-03T12:34:28.000Z</time>
      </trkpt>
      <trkpt lat="43.6074" lon="0.92711">
        <ele>211.61061836635</ele>
        <time>2020-10-03T12:34:29.000Z</time>
      </trkpt>
      <trkpt lat="43.6074" lon="0.92706">
        <ele>211</ele>
        <time>2020-10-03T12:34:30.000Z</time>
      </trkpt>
      <trkpt lat="43.60741" lon="0.92702">
        <ele>211</ele>
        <time>2020-10-03T12:34:31.000Z</time>
      </trkpt>
      <trkpt lat="43.60741" lon="0.92698">
        <ele>211</ele>
        <time>2020-10-03T12:34:32.000Z</time>
      </trkpt>
      <trkpt lat="43.60742" lon="0.92693">
        <ele>211</ele>
        <time>2020-10-03T12:34:33.000Z</time>
      </trkpt>
      <trkpt lat="43.60743" lon="0.92688">
        <ele>211</ele>
        <time>2020-10-03T12:34:34.000Z</time>
      </trkpt>
      <trkpt lat="43.60744" lon="0.92683">
        <ele>211</ele>
        <time>2020-10-03T12:34:35.000Z</time>
      </trkpt>
      <trkpt lat="43.60745" lon="0.92679">
        <ele>211</ele>
        <time>2020-10-03T12:34:36.000Z</time>
      </trkpt>
      <trkpt lat="43.60746" lon="0.92675">
        <ele>211</ele>
        <time>2020-10-03T12:34:37.000Z</time>
      </trkpt>
      <trkpt lat="43.60748" lon="0.9267">
        <ele>211</ele>
        <time>2020-10-03T12:34:38.000Z</time>
      </trkpt>
      <trkpt lat="43.60749" lon="0.92666">
        <ele>211</ele>
        <time>2020-10-03T12:34:39.000Z</time>
      </trkpt>
      <trkpt lat="43.6075" lon="0.92662">
        <ele>210.56565473728</ele>
        <time>2020-10-03T12:34:40.000Z</time>
      </trkpt>
      <trkpt lat="43.60751" lon="0.92657">
        <ele>210</ele>
        <time>2020-10-03T12:34:41.000Z</time>
      </trkpt>
      <trkpt lat="43.60751" lon="0.92653">
        <ele>210</ele>
        <time>2020-10-03T12:34:42.000Z</time>
      </trkpt>
      <trkpt lat="43.60752" lon="0.92649">
        <ele>210</ele>
        <time>2020-10-03T12:34:43.000Z</time>
      </trkpt>
      <trkpt lat="43.60753" lon="0.92644">
        <ele>210</ele>
        <time>2020-10-03T12:34:44.000Z</time>
      </trkpt>
      <trkpt lat="43.60755" lon="0.9264">
        <ele>210</ele>
        <time>2020-10-03T12:34:45.000Z</time>
      </trkpt>
      <trkpt lat="43.60756" lon="0.92636">
        <ele>210</ele>
        <time>2020-10-03T12:34:46.000Z</time>
      </trkpt>
      <trkpt lat="43.60757" lon="0.92632">
        <ele>210</ele>
        <time>2020-10-03T12:34:47.000Z</time>
      </trkpt>
      <trkpt lat="43.60758" lon="0.92627">
        <ele>210</ele>
        <time>2020-10-03T12:34:48.000Z</time>
      </trkpt>
      <trkpt lat="43.60759" lon="0.92623">
        <ele>210</ele>
        <time>2020-10-03T12:34:49.000Z</time>
      </trkpt>
      <trkpt lat="43.6076" lon="0.92619">
        <ele>210</ele>
        <time>2020-10-03T12:34:50.000Z</time>
      </trkpt>
      <trkpt lat="43.60761" lon="0.92614">
        <ele>210</ele>
        <time>2020-10-03T12:34:51.000Z</time>
      </trkpt>
      <trkpt lat="43.60761" lon="0.9261">
        <ele>210</ele>
        <time>2020-10-03T12:34:52.000Z</time>
      </trkpt>
      <trkpt lat="43.60763" lon="0.92606">
        <ele>210</ele>
        <time>2020-10-03T12:34:53.000Z</time>
      </trkpt>
      <trkpt lat="43.60764" lon="0.92602">
        <ele>210</ele>
        <time>2020-10-03T12:34:54.000Z</time>
      </trkpt>
      <trkpt lat="43.60764" lon="0.92598">
        <ele>210</ele>
        <time>2020-10-03T12:34:55.000Z</time>
      </trkpt>
      <trkpt lat="43.60765" lon="0.92594">
        <ele>210</ele>
        <time>2020-10-03T12:34:56.000Z</time>
      </trkpt>
      <trkpt lat="43.60766" lon="0.92589">
        <ele>210</ele>
        <time>2020-10-03T12:34:57.000Z</time>
      </trkpt>
      <trkpt lat="43.60767" lon="0.92585">
        <ele>210</ele>
        <time>2020-10-03T12:34:58.000Z</time>
      </trkpt>
      <trkpt lat="43.60768" lon="0.92581">
        <ele>210</ele>
        <time>2020-10-03T12:34:59.000Z</time>
      </trkpt>
      <trkpt lat="43.60769" lon="0.92577">
        <ele>210</ele>
        <time>2020-10-03T12:35:00.000Z</time>
      </trkpt>
      <trkpt lat="43.60771" lon="0.92573">
        <ele>210</ele>
        <time>2020-10-03T12:35:01.000Z</time>
      </trkpt>
      <trkpt lat="43.60771" lon="0.92568">
        <ele>209.56179258173</ele>
        <time>2020-10-03T12:35:02.000Z</time>
      </trkpt>
      <trkpt lat="43.60772" lon="0.92564">
        <ele>209</ele>
        <time>2020-10-03T12:35:03.000Z</time>
      </trkpt>
      <trkpt lat="43.60772" lon="0.9256">
        <ele>209</ele>
        <time>2020-10-03T12:35:04.000Z</time>
      </trkpt>
      <trkpt lat="43.60773" lon="0.92555">
        <ele>209</ele>
        <time>2020-10-03T12:35:05.000Z</time>
      </trkpt>
      <trkpt lat="43.60773" lon="0.92551">
        <ele>209</ele>
        <time>2020-10-03T12:35:06.000Z</time>
      </trkpt>
      <trkpt lat="43.60774" lon="0.92548">
        <ele>209</ele>
        <time>2020-10-03T12:35:07.000Z</time>
      </trkpt>
      <trkpt lat="43.60775" lon="0.92544">
        <ele>209</ele>
        <time>2020-10-03T12:35:08.000Z</time>
      </trkpt>
      <trkpt lat="43.60776" lon="0.92539">
        <ele>209</ele>
        <time>2020-10-03T12:35:09.000Z</time>
      </trkpt>
      <trkpt lat="43.60778" lon="0.92536">
        <ele>209</ele>
        <time>2020-10-03T12:35:10.000Z</time>
      </trkpt>
      <trkpt lat="43.60779" lon="0.92532">
        <ele>209</ele>
        <time>2020-10-03T12:35:11.000Z</time>
      </trkpt>
      <trkpt lat="43.60781" lon="0.92529">
        <ele>209</ele>
        <time>2020-10-03T12:35:12.000Z</time>
      </trkpt>
      <trkpt lat="43.60783" lon="0.92525">
        <ele>209</ele>
        <time>2020-10-03T12:35:13.000Z</time>
      </trkpt>
      <trkpt lat="43.60784" lon="0.92521">
        <ele>209</ele>
        <time>2020-10-03T12:35:14.000Z</time>
      </trkpt>
      <trkpt lat="43.60786" lon="0.92518">
        <ele>209</ele>
        <time>2020-10-03T12:35:15.000Z</time>
      </trkpt>
      <trkpt lat="43.60787" lon="0.92514">
        <ele>209</ele>
        <time>2020-10-03T12:35:16.000Z</time>
      </trkpt>
      <trkpt lat="43.60789" lon="0.9251">
        <ele>209</ele>
        <time>2020-10-03T12:35:17.000Z</time>
      </trkpt>
      <trkpt lat="43.6079" lon="0.92506">
        <ele>209</ele>
        <time>2020-10-03T12:35:18.000Z</time>
      </trkpt>
      <trkpt lat="43.60791" lon="0.92502">
        <ele>209</ele>
        <time>2020-10-03T12:35:19.000Z</time>
      </trkpt>
      <trkpt lat="43.60793" lon="0.92498">
        <ele>209</ele>
        <time>2020-10-03T12:35:20.000Z</time>
      </trkpt>
      <trkpt lat="43.60795" lon="0.92494">
        <ele>209</ele>
        <time>2020-10-03T12:35:21.000Z</time>
      </trkpt>
      <trkpt lat="43.60797" lon="0.9249">
        <ele>209</ele>
        <time>2020-10-03T12:35:22.000Z</time>
      </trkpt>
      <trkpt lat="43.60798" lon="0.92486">
        <ele>209</ele>
        <time>2020-10-03T12:35:23.000Z</time>
      </trkpt>
      <trkpt lat="43.608" lon="0.92482">
        <ele>209</ele>
        <time>2020-10-03T12:35:24.000Z</time>
      </trkpt>
      <trkpt lat="43.60802" lon="0.92478">
        <ele>209</ele>
        <time>2020-10-03T12:35:25.000Z</time>
      </trkpt>
      <trkpt lat="43.60804" lon="0.92474">
        <ele>209</ele>
        <time>2020-10-03T12:35:26.000Z</time>
      </trkpt>
      <trkpt lat="43.60806" lon="0.92471">
        <ele>209</ele>
        <time>2020-10-03T12:35:27.000Z</time>
      </trkpt>
      <trkpt lat="43.60807" lon="0.92467">
        <ele>209</ele>
        <time>2020-10-03T12:35:28.000Z</time>
      </trkpt>
      <trkpt lat="43.60809" lon="0.92463">
        <ele>209</ele>
        <time>2020-10-03T12:35:29.000Z</time>
      </trkpt>
      <trkpt lat="43.60811" lon="0.92459">
        <ele>209</ele>
        <time>2020-10-03T12:35:30.000Z</time>
      </trkpt>
      <trkpt lat="43.60812" lon="0.92456">
        <ele>209</ele>
        <time>2020-10-03T12:35:31.000Z</time>
      </trkpt>
      <trkpt lat="43.60814" lon="0.92452">
        <ele>208.58585780226</ele>
        <time>2020-10-03T12:35:32.000Z</time>
      </trkpt>
      <trkpt lat="43.60816" lon="0.92449">
        <ele>208</ele>
        <time>2020-10-03T12:35:33.000Z</time>
      </trkpt>
      <trkpt lat="43.60818" lon="0.92445">
        <ele>208.4300032</ele>
        <time>2020-10-03T12:35:34.000Z</time>
      </trkpt>
      <trkpt lat="43.6082" lon="0.92442">
        <ele>209</ele>
        <time>2020-10-03T12:35:35.000Z</time>
      </trkpt>
      <trkpt lat="43.60821" lon="0.92438">
        <ele>209.41999897599</ele>
        <time>2020-10-03T12:35:36.000Z</time>
      </trkpt>
      <trkpt lat="43.60823" lon="0.92434">
        <ele>210</ele>
        <time>2020-10-03T12:35:37.000Z</time>
      </trkpt>
      <trkpt lat="43.60824" lon="0.92431">
        <ele>210</ele>
        <time>2020-10-03T12:35:38.000Z</time>
      </trkpt>
      <trkpt lat="43.60826" lon="0.92427">
        <ele>210</ele>
        <time>2020-10-03T12:35:39.000Z</time>
      </trkpt>
      <trkpt lat="43.60828" lon="0.92423">
        <ele>210</ele>
        <time>2020-10-03T12:35:40.000Z</time>
      </trkpt>
      <trkpt lat="43.60829" lon="0.9242">
        <ele>209.56481185185</ele>
        <time>2020-10-03T12:35:41.000Z</time>
      </trkpt>
      <trkpt lat="43.60831" lon="0.92416">
        <ele>209</ele>
        <time>2020-10-03T12:35:42.000Z</time>
      </trkpt>
      <trkpt lat="43.60833" lon="0.92413">
        <ele>208.75640815255</ele>
        <time>2020-10-03T12:35:43.000Z</time>
      </trkpt>
      <trkpt lat="43.60834" lon="0.92409">
        <ele>208</ele>
        <time>2020-10-03T12:35:44.000Z</time>
      </trkpt>
      <trkpt lat="43.60836" lon="0.92406">
        <ele>208</ele>
        <time>2020-10-03T12:35:45.000Z</time>
      </trkpt>
      <trkpt lat="43.60837" lon="0.92402">
        <ele>208.42424007344</ele>
        <time>2020-10-03T12:35:46.000Z</time>
      </trkpt>
      <trkpt lat="43.60839" lon="0.92399">
        <ele>209</ele>
        <time>2020-10-03T12:35:47.000Z</time>
      </trkpt>
      <trkpt lat="43.6084" lon="0.92395">
        <ele>209</ele>
        <time>2020-10-03T12:35:48.000Z</time>
      </trkpt>
      <trkpt lat="43.60842" lon="0.92392">
        <ele>209</ele>
        <time>2020-10-03T12:35:49.000Z</time>
      </trkpt>
      <trkpt lat="43.60843" lon="0.92388">
        <ele>209</ele>
        <time>2020-10-03T12:35:50.000Z</time>
      </trkpt>
      <trkpt lat="43.60845" lon="0.92384">
        <ele>209</ele>
        <time>2020-10-03T12:35:51.000Z</time>
      </trkpt>
      <trkpt lat="43.60847" lon="0.92381">
        <ele>209</ele>
        <time>2020-10-03T12:35:52.000Z</time>
      </trkpt>
      <trkpt lat="43.60849" lon="0.92377">
        <ele>209</ele>
        <time>2020-10-03T12:35:53.000Z</time>
      </trkpt>
      <trkpt lat="43.6085" lon="0.92373">
        <ele>209</ele>
        <time>2020-10-03T12:35:54.000Z</time>
      </trkpt>
      <trkpt lat="43.60852" lon="0.92369">
        <ele>209</ele>
        <time>2020-10-03T12:35:55.000Z</time>
      </trkpt>
      <trkpt lat="43.60854" lon="0.92365">
        <ele>209</ele>
        <time>2020-10-03T12:35:56.000Z</time>
      </trkpt>
      <trkpt lat="43.60856" lon="0.92361">
        <ele>208.65741037037</ele>
        <time>2020-10-03T12:35:57.000Z</time>
      </trkpt>
      <trkpt lat="43.60857" lon="0.92358">
        <ele>208</ele>
        <time>2020-10-03T12:35:58.000Z</time>
      </trkpt>
      <trkpt lat="43.60859" lon="0.92353">
        <ele>208</ele>
        <time>2020-10-03T12:35:59.000Z</time>
      </trkpt>
      <trkpt lat="43.6086" lon="0.92349">
        <ele>208</ele>
        <time>2020-10-03T12:36:00.000Z</time>
      </trkpt>
      <trkpt lat="43.60862" lon="0.92345">
        <ele>207.66956802422</ele>
        <time>2020-10-03T12:36:01.000Z</time>
      </trkpt>
      <trkpt lat="43.60864" lon="0.92342">
        <ele>207</ele>
        <time>2020-10-03T12:36:02.000Z</time>
      </trkpt>
      <trkpt lat="43.60865" lon="0.92338">
        <ele>207</ele>
        <time>2020-10-03T12:36:03.000Z</time>
      </trkpt>
      <trkpt lat="43.60867" lon="0.92333">
        <ele>207</ele>
        <time>2020-10-03T12:36:04.000Z</time>
      </trkpt>
      <trkpt lat="43.60869" lon="0.92329">
        <ele>207</ele>
        <time>2020-10-03T12:36:05.000Z</time>
      </trkpt>
      <trkpt lat="43.60871" lon="0.92326">
        <ele>206.66666666667</ele>
        <time>2020-10-03T12:36:06.000Z</time>
      </trkpt>
      <trkpt lat="43.60873" lon="0.92322">
        <ele>206</ele>
        <time>2020-10-03T12:36:07.000Z</time>
      </trkpt>
      <trkpt lat="43.60874" lon="0.92318">
        <ele>206</ele>
        <time>2020-10-03T12:36:08.000Z</time>
      </trkpt>
      <trkpt lat="43.60878" lon="0.92311">
        <ele>206</ele>
        <time>2020-10-03T12:36:10.000Z</time>
      </trkpt>
      <trkpt lat="43.60879" lon="0.92307">
        <ele>206.3820255422</ele>
        <time>2020-10-03T12:36:11.000Z</time>
      </trkpt>
      <trkpt lat="43.60881" lon="0.92303">
        <ele>207</ele>
        <time>2020-10-03T12:36:12.000Z</time>
      </trkpt>
      <trkpt lat="43.60883" lon="0.92299">
        <ele>207</ele>
        <time>2020-10-03T12:36:13.000Z</time>
      </trkpt>
      <trkpt lat="43.60884" lon="0.92295">
        <ele>207</ele>
        <time>2020-10-03T12:36:14.000Z</time>
      </trkpt>
      <trkpt lat="43.60885" lon="0.92291">
        <ele>207</ele>
        <time>2020-10-03T12:36:15.000Z</time>
      </trkpt>
      <trkpt lat="43.60887" lon="0.92287">
        <ele>207</ele>
        <time>2020-10-03T12:36:16.000Z</time>
      </trkpt>
      <trkpt lat="43.60888" lon="0.92283">
        <ele>207</ele>
        <time>2020-10-03T12:36:17.000Z</time>
      </trkpt>
      <trkpt lat="43.60889" lon="0.9228">
        <ele>207</ele>
        <time>2020-10-03T12:36:18.000Z</time>
      </trkpt>
      <trkpt lat="43.60891" lon="0.92276">
        <ele>207</ele>
        <time>2020-10-03T12:36:19.000Z</time>
      </trkpt>
      <trkpt lat="43.60892" lon="0.92272">
        <ele>207</ele>
        <time>2020-10-03T12:36:20.000Z</time>
      </trkpt>
      <trkpt lat="43.60893" lon="0.92268">
        <ele>206.90410646654</ele>
        <time>2020-10-03T12:36:21.000Z</time>
      </trkpt>
      <trkpt lat="43.60894" lon="0.92264">
        <ele>206</ele>
        <time>2020-10-03T12:36:22.000Z</time>
      </trkpt>
      <trkpt lat="43.60895" lon="0.92259">
        <ele>206</ele>
        <time>2020-10-03T12:36:23.000Z</time>
      </trkpt>
      <trkpt lat="43.60897" lon="0.92254">
        <ele>205.69064589204</ele>
        <time>2020-10-03T12:36:24.000Z</time>
      </trkpt>
      <trkpt lat="43.60898" lon="0.9225">
        <ele>205</ele>
        <time>2020-10-03T12:36:25.000Z</time>
      </trkpt>
      <trkpt lat="43.60899" lon="0.92246">
        <ele>205</ele>
        <time>2020-10-03T12:36:26.000Z</time>
      </trkpt>
      <trkpt lat="43.60901" lon="0.92242">
        <ele>205</ele>
        <time>2020-10-03T12:36:27.000Z</time>
      </trkpt>
      <trkpt lat="43.60903" lon="0.92238">
        <ele>205</ele>
        <time>2020-10-03T12:36:28.000Z</time>
      </trkpt>
      <trkpt lat="43.60905" lon="0.92234">
        <ele>204.6219502677</ele>
        <time>2020-10-03T12:36:29.000Z</time>
      </trkpt>
      <trkpt lat="43.60907" lon="0.9223">
        <ele>204</ele>
        <time>2020-10-03T12:36:30.000Z</time>
      </trkpt>
      <trkpt lat="43.60908" lon="0.92226">
        <ele>203.58586315681</ele>
        <time>2020-10-03T12:36:31.000Z</time>
      </trkpt>
      <trkpt lat="43.6091" lon="0.92221">
        <ele>203</ele>
        <time>2020-10-03T12:36:32.000Z</time>
      </trkpt>
      <trkpt lat="43.60912" lon="0.92217">
        <ele>203</ele>
        <time>2020-10-03T12:36:33.000Z</time>
      </trkpt>
      <trkpt lat="43.60914" lon="0.92213">
        <ele>203</ele>
        <time>2020-10-03T12:36:34.000Z</time>
      </trkpt>
      <trkpt lat="43.60915" lon="0.92209">
        <ele>202.574074952</ele>
        <time>2020-10-03T12:36:35.000Z</time>
      </trkpt>
      <trkpt lat="43.60918" lon="0.92206">
        <ele>202</ele>
        <time>2020-10-03T12:36:36.000Z</time>
      </trkpt>
      <trkpt lat="43.60919" lon="0.92202">
        <ele>202</ele>
        <time>2020-10-03T12:36:37.000Z</time>
      </trkpt>
      <trkpt lat="43.60921" lon="0.92199">
        <ele>202</ele>
        <time>2020-10-03T12:36:38.000Z</time>
      </trkpt>
      <trkpt lat="43.60923" lon="0.92195">
        <ele>202</ele>
        <time>2020-10-03T12:36:39.000Z</time>
      </trkpt>
      <trkpt lat="43.60924" lon="0.92192">
        <ele>202</ele>
        <time>2020-10-03T12:36:40.000Z</time>
      </trkpt>
      <trkpt lat="43.60926" lon="0.92188">
        <ele>201</ele>
        <time>2020-10-03T12:36:41.000Z</time>
      </trkpt>
      <trkpt lat="43.60928" lon="0.92184">
        <ele>201</ele>
        <time>2020-10-03T12:36:42.000Z</time>
      </trkpt>
      <trkpt lat="43.6093" lon="0.9218">
        <ele>200.21568135329</ele>
        <time>2020-10-03T12:36:43.000Z</time>
      </trkpt>
      <trkpt lat="43.60932" lon="0.92177">
        <ele>199</ele>
        <time>2020-10-03T12:36:44.000Z</time>
      </trkpt>
      <trkpt lat="43.60934" lon="0.92173">
        <ele>199</ele>
        <time>2020-10-03T12:36:45.000Z</time>
      </trkpt>
      <trkpt lat="43.60936" lon="0.9217">
        <ele>198.59999767271</ele>
        <time>2020-10-03T12:36:46.000Z</time>
      </trkpt>
      <trkpt lat="43.60938" lon="0.92166">
        <ele>198</ele>
        <time>2020-10-03T12:36:47.000Z</time>
      </trkpt>
      <trkpt lat="43.60939" lon="0.92163">
        <ele>197.5663732853</ele>
        <time>2020-10-03T12:36:48.000Z</time>
      </trkpt>
      <trkpt lat="43.60941" lon="0.92159">
        <ele>197</ele>
        <time>2020-10-03T12:36:49.000Z</time>
      </trkpt>
      <trkpt lat="43.60943" lon="0.92155">
        <ele>196.69565217391</ele>
        <time>2020-10-03T12:36:50.000Z</time>
      </trkpt>
      <trkpt lat="43.60945" lon="0.92151">
        <ele>196</ele>
        <time>2020-10-03T12:36:51.000Z</time>
      </trkpt>
      <trkpt lat="43.60947" lon="0.92147">
        <ele>195.6923087743</ele>
        <time>2020-10-03T12:36:52.000Z</time>
      </trkpt>
      <trkpt lat="43.60949" lon="0.92142">
        <ele>195</ele>
        <time>2020-10-03T12:36:53.000Z</time>
      </trkpt>
      <trkpt lat="43.60951" lon="0.92138">
        <ele>195</ele>
        <time>2020-10-03T12:36:54.000Z</time>
      </trkpt>
      <trkpt lat="43.60953" lon="0.92134">
        <ele>195</ele>
        <time>2020-10-03T12:36:55.000Z</time>
      </trkpt>
      <trkpt lat="43.60955" lon="0.9213">
        <ele>195</ele>
        <time>2020-10-03T12:36:56.000Z</time>
      </trkpt>
      <trkpt lat="43.60957" lon="0.92126">
        <ele>193.72825043478</ele>
        <time>2020-10-03T12:36:57.000Z</time>
      </trkpt>
      <trkpt lat="43.60959" lon="0.92121">
        <ele>192</ele>
        <time>2020-10-03T12:36:58.000Z</time>
      </trkpt>
      <trkpt lat="43.60962" lon="0.92117">
        <ele>191.84810188111</ele>
        <time>2020-10-03T12:36:59.000Z</time>
      </trkpt>
      <trkpt lat="43.60963" lon="0.92112">
        <ele>191</ele>
        <time>2020-10-03T12:37:00.000Z</time>
      </trkpt>
      <trkpt lat="43.60965" lon="0.92108">
        <ele>191</ele>
        <time>2020-10-03T12:37:01.000Z</time>
      </trkpt>
      <trkpt lat="43.60967" lon="0.92104">
        <ele>190.14286062586</ele>
        <time>2020-10-03T12:37:02.000Z</time>
      </trkpt>
      <trkpt lat="43.60969" lon="0.92099">
        <ele>189</ele>
        <time>2020-10-03T12:37:03.000Z</time>
      </trkpt>
      <trkpt lat="43.60971" lon="0.92095">
        <ele>188.54545771903</ele>
        <time>2020-10-03T12:37:04.000Z</time>
      </trkpt>
      <trkpt lat="43.60973" lon="0.9209">
        <ele>188</ele>
        <time>2020-10-03T12:37:05.000Z</time>
      </trkpt>
      <trkpt lat="43.60975" lon="0.92086">
        <ele>187.59374666667</ele>
        <time>2020-10-03T12:37:06.000Z</time>
      </trkpt>
      <trkpt lat="43.60977" lon="0.92082">
        <ele>187</ele>
        <time>2020-10-03T12:37:07.000Z</time>
      </trkpt>
      <trkpt lat="43.60979" lon="0.92078">
        <ele>186.61364363636</ele>
        <time>2020-10-03T12:37:08.000Z</time>
      </trkpt>
      <trkpt lat="43.60981" lon="0.92074">
        <ele>185</ele>
        <time>2020-10-03T12:37:09.000Z</time>
      </trkpt>
      <trkpt lat="43.60983" lon="0.9207">
        <ele>185</ele>
        <time>2020-10-03T12:37:10.000Z</time>
      </trkpt>
      <trkpt lat="43.60985" lon="0.92066">
        <ele>184.69565217391</ele>
        <time>2020-10-03T12:37:11.000Z</time>
      </trkpt>
      <trkpt lat="43.60986" lon="0.92063">
        <ele>184</ele>
        <time>2020-10-03T12:37:12.000Z</time>
      </trkpt>
      <trkpt lat="43.60988" lon="0.92059">
        <ele>184</ele>
        <time>2020-10-03T12:37:13.000Z</time>
      </trkpt>
      <trkpt lat="43.60989" lon="0.92055">
        <ele>184</ele>
        <time>2020-10-03T12:37:14.000Z</time>
      </trkpt>
      <trkpt lat="43.60989" lon="0.92051">
        <ele>184</ele>
        <time>2020-10-03T12:37:15.000Z</time>
      </trkpt>
      <trkpt lat="43.6099" lon="0.92047">
        <ele>184</ele>
        <time>2020-10-03T12:37:16.000Z</time>
      </trkpt>
      <trkpt lat="43.60992" lon="0.92043">
        <ele>183.73684624194</ele>
        <time>2020-10-03T12:37:17.000Z</time>
      </trkpt>
      <trkpt lat="43.60993" lon="0.92039">
        <ele>183</ele>
        <time>2020-10-03T12:37:18.000Z</time>
      </trkpt>
      <trkpt lat="43.60994" lon="0.92035">
        <ele>183</ele>
        <time>2020-10-03T12:37:19.000Z</time>
      </trkpt>
      <trkpt lat="43.60996" lon="0.92031">
        <ele>183</ele>
        <time>2020-10-03T12:37:20.000Z</time>
      </trkpt>
      <trkpt lat="43.60997" lon="0.92027">
        <ele>183</ele>
        <time>2020-10-03T12:37:21.000Z</time>
      </trkpt>
      <trkpt lat="43.60998" lon="0.92022">
        <ele>183.3125</ele>
        <time>2020-10-03T12:37:22.000Z</time>
      </trkpt>
      <trkpt lat="43.60999" lon="0.92018">
        <ele>184</ele>
        <time>2020-10-03T12:37:23.000Z</time>
      </trkpt>
      <trkpt lat="43.61" lon="0.92014">
        <ele>184</ele>
        <time>2020-10-03T12:37:24.000Z</time>
      </trkpt>
      <trkpt lat="43.61001" lon="0.9201">
        <ele>184</ele>
        <time>2020-10-03T12:37:25.000Z</time>
      </trkpt>
      <trkpt lat="43.61002" lon="0.92006">
        <ele>184</ele>
        <time>2020-10-03T12:37:26.000Z</time>
      </trkpt>
      <trkpt lat="43.61003" lon="0.92002">
        <ele>183.61061836635</ele>
        <time>2020-10-03T12:37:27.000Z</time>
      </trkpt>
      <trkpt lat="43.61004" lon="0.91998">
        <ele>183</ele>
        <time>2020-10-03T12:37:28.000Z</time>
      </trkpt>
      <trkpt lat="43.61004" lon="0.91995">
        <ele>183</ele>
        <time>2020-10-03T12:37:29.000Z</time>
      </trkpt>
      <trkpt lat="43.61005" lon="0.91992">
        <ele>183</ele>
        <time>2020-10-03T12:37:30.000Z</time>
      </trkpt>
      <trkpt lat="43.61005" lon="0.91989">
        <ele>183</ele>
        <time>2020-10-03T12:37:31.000Z</time>
      </trkpt>
      <trkpt lat="43.61006" lon="0.91986">
        <ele>183.41414219774</ele>
        <time>2020-10-03T12:37:32.000Z</time>
      </trkpt>
      <trkpt lat="43.61006" lon="0.91983">
        <ele>184</ele>
        <time>2020-10-03T12:37:33.000Z</time>
      </trkpt>
      <trkpt lat="43.61006" lon="0.91981">
        <ele>184</ele>
        <time>2020-10-03T12:37:34.000Z</time>
      </trkpt>
      <trkpt lat="43.61006" lon="0.91977">
        <ele>184</ele>
        <time>2020-10-03T12:37:35.000Z</time>
      </trkpt>
      <trkpt lat="43.61007" lon="0.91975">
        <ele>184.33599574015</ele>
        <time>2020-10-03T12:37:36.000Z</time>
      </trkpt>
      <trkpt lat="43.61007" lon="0.91972">
        <ele>185</ele>
        <time>2020-10-03T12:37:37.000Z</time>
      </trkpt>
      <trkpt lat="43.61008" lon="0.91968">
        <ele>185.422013716</ele>
        <time>2020-10-03T12:37:39.000Z</time>
      </trkpt>
      <trkpt lat="43.61009" lon="0.91964">
        <ele>186</ele>
        <time>2020-10-03T12:37:41.000Z</time>
      </trkpt>
      <trkpt lat="43.61009" lon="0.91961">
        <ele>186</ele>
        <time>2020-10-03T12:37:43.000Z</time>
      </trkpt>
      <trkpt lat="43.61009" lon="0.91956">
        <ele>187</ele>
        <time>2020-10-03T12:37:45.000Z</time>
      </trkpt>
      <trkpt lat="43.6101" lon="0.91952">
        <ele>188</ele>
        <time>2020-10-03T12:37:47.000Z</time>
      </trkpt>
      <trkpt lat="43.61011" lon="0.91948">
        <ele>188</ele>
        <time>2020-10-03T12:37:49.000Z</time>
      </trkpt>
      <trkpt lat="43.61011" lon="0.91946">
        <ele>188.36905142857</ele>
        <time>2020-10-03T12:37:51.000Z</time>
      </trkpt>
      <trkpt lat="43.61012" lon="0.91942">
        <ele>189</ele>
        <time>2020-10-03T12:37:53.000Z</time>
      </trkpt>
      <trkpt lat="43.61012" lon="0.91939">
        <ele>189</ele>
        <time>2020-10-03T12:37:55.000Z</time>
      </trkpt>
      <trkpt lat="43.61013" lon="0.91936">
        <ele>189.87233955635</ele>
        <time>2020-10-03T12:37:57.000Z</time>
      </trkpt>
      <trkpt lat="43.61014" lon="0.91932">
        <ele>191</ele>
        <time>2020-10-03T12:37:59.000Z</time>
      </trkpt>
      <trkpt lat="43.61014" lon="0.91929">
        <ele>191</ele>
        <time>2020-10-03T12:38:01.000Z</time>
      </trkpt>
      <trkpt lat="43.61015" lon="0.91926">
        <ele>191.43299200338</ele>
        <time>2020-10-03T12:38:03.000Z</time>
      </trkpt>
      <trkpt lat="43.61016" lon="0.91923">
        <ele>192.41836681382</ele>
        <time>2020-10-03T12:38:05.000Z</time>
      </trkpt>
      <trkpt lat="43.61017" lon="0.9192">
        <ele>193</ele>
        <time>2020-10-03T12:38:07.000Z</time>
      </trkpt>
      <trkpt lat="43.61017" lon="0.91916">
        <ele>194</ele>
        <time>2020-10-03T12:38:09.000Z</time>
      </trkpt>
      <trkpt lat="43.61018" lon="0.91913">
        <ele>195</ele>
        <time>2020-10-03T12:38:11.000Z</time>
      </trkpt>
      <trkpt lat="43.61018" lon="0.9191">
        <ele>195</ele>
        <time>2020-10-03T12:38:13.000Z</time>
      </trkpt>
      <trkpt lat="43.61018" lon="0.91907">
        <ele>195</ele>
        <time>2020-10-03T12:38:15.000Z</time>
      </trkpt>
      <trkpt lat="43.61019" lon="0.91903">
        <ele>195</ele>
        <time>2020-10-03T12:38:17.000Z</time>
      </trkpt>
      <trkpt lat="43.6102" lon="0.919">
        <ele>197</ele>
        <time>2020-10-03T12:38:19.000Z</time>
      </trkpt>
      <trkpt lat="43.6102" lon="0.91897">
        <ele>197.3699968</ele>
        <time>2020-10-03T12:38:21.000Z</time>
      </trkpt>
      <trkpt lat="43.61021" lon="0.91893">
        <ele>198.29670576983</ele>
        <time>2020-10-03T12:38:23.000Z</time>
      </trkpt>
      <trkpt lat="43.61021" lon="0.9189">
        <ele>199</ele>
        <time>2020-10-03T12:38:25.000Z</time>
      </trkpt>
      <trkpt lat="43.61022" lon="0.91887">
        <ele>199</ele>
        <time>2020-10-03T12:38:27.000Z</time>
      </trkpt>
      <trkpt lat="43.61022" lon="0.91883">
        <ele>200</ele>
        <time>2020-10-03T12:38:29.000Z</time>
      </trkpt>
      <trkpt lat="43.61023" lon="0.91878">
        <ele>201</ele>
        <time>2020-10-03T12:38:31.000Z</time>
      </trkpt>
      <trkpt lat="43.61023" lon="0.91875">
        <ele>201</ele>
        <time>2020-10-03T12:38:32.000Z</time>
      </trkpt>
      <trkpt lat="43.61023" lon="0.91873">
        <ele>201</ele>
        <time>2020-10-03T12:38:33.000Z</time>
      </trkpt>
      <trkpt lat="43.61024" lon="0.9187">
        <ele>201</ele>
        <time>2020-10-03T12:38:34.000Z</time>
      </trkpt>
      <trkpt lat="43.61025" lon="0.91868">
        <ele>201</ele>
        <time>2020-10-03T12:38:35.000Z</time>
      </trkpt>
      <trkpt lat="43.61025" lon="0.91865">
        <ele>201</ele>
        <time>2020-10-03T12:38:36.000Z</time>
      </trkpt>
      <trkpt lat="43.61025" lon="0.91862">
        <ele>201</ele>
        <time>2020-10-03T12:38:37.000Z</time>
      </trkpt>
      <trkpt lat="43.61025" lon="0.91859">
        <ele>201</ele>
        <time>2020-10-03T12:38:38.000Z</time>
      </trkpt>
      <trkpt lat="43.61026" lon="0.91856">
        <ele>201.90909725616</ele>
        <time>2020-10-03T12:38:39.000Z</time>
      </trkpt>
      <trkpt lat="43.61026" lon="0.91853">
        <ele>203</ele>
        <time>2020-10-03T12:38:40.000Z</time>
      </trkpt>
      <trkpt lat="43.61026" lon="0.9185">
        <ele>203.40625333333</ele>
        <time>2020-10-03T12:38:41.000Z</time>
      </trkpt>
      <trkpt lat="43.61027" lon="0.91846">
        <ele>204</ele>
        <time>2020-10-03T12:38:42.000Z</time>
      </trkpt>
      <trkpt lat="43.61028" lon="0.91843">
        <ele>204</ele>
        <time>2020-10-03T12:38:43.000Z</time>
      </trkpt>
      <trkpt lat="43.61029" lon="0.91841">
        <ele>204</ele>
        <time>2020-10-03T12:38:44.000Z</time>
      </trkpt>
      <trkpt lat="43.6103" lon="0.91838">
        <ele>204</ele>
        <time>2020-10-03T12:38:45.000Z</time>
      </trkpt>
      <trkpt lat="43.6103" lon="0.91835">
        <ele>204</ele>
        <time>2020-10-03T12:38:46.000Z</time>
      </trkpt>
      <trkpt lat="43.61031" lon="0.91832">
        <ele>204</ele>
        <time>2020-10-03T12:38:47.000Z</time>
      </trkpt>
      <trkpt lat="43.61031" lon="0.91828">
        <ele>204.41414219774</ele>
        <time>2020-10-03T12:38:48.000Z</time>
      </trkpt>
      <trkpt lat="43.61031" lon="0.91826">
        <ele>205</ele>
        <time>2020-10-03T12:38:49.000Z</time>
      </trkpt>
      <trkpt lat="43.61032" lon="0.91822">
        <ele>205</ele>
        <time>2020-10-03T12:38:50.000Z</time>
      </trkpt>
      <trkpt lat="43.61032" lon="0.91819">
        <ele>205.32283456631</ele>
        <time>2020-10-03T12:38:51.000Z</time>
      </trkpt>
      <trkpt lat="43.61033" lon="0.91816">
        <ele>206</ele>
        <time>2020-10-03T12:38:52.000Z</time>
      </trkpt>
      <trkpt lat="43.61034" lon="0.91812">
        <ele>206</ele>
        <time>2020-10-03T12:38:53.000Z</time>
      </trkpt>
      <trkpt lat="43.61034" lon="0.91809">
        <ele>206</ele>
        <time>2020-10-03T12:38:54.000Z</time>
      </trkpt>
      <trkpt lat="43.61035" lon="0.91807">
        <ele>206</ele>
        <time>2020-10-03T12:38:55.000Z</time>
      </trkpt>
      <trkpt lat="43.61036" lon="0.91804">
        <ele>206</ele>
        <time>2020-10-03T12:38:56.000Z</time>
      </trkpt>
      <trkpt lat="43.61036" lon="0.91801">
        <ele>206</ele>
        <time>2020-10-03T12:38:57.000Z</time>
      </trkpt>
      <trkpt lat="43.61037" lon="0.91797">
        <ele>206</ele>
        <time>2020-10-03T12:38:58.000Z</time>
      </trkpt>
      <trkpt lat="43.61038" lon="0.91793">
        <ele>206</ele>
        <time>2020-10-03T12:38:59.000Z</time>
      </trkpt>
      <trkpt lat="43.61039" lon="0.9179">
        <ele>206.36448788191</ele>
        <time>2020-10-03T12:39:00.000Z</time>
      </trkpt>
      <trkpt lat="43.61039" lon="0.91786">
        <ele>207</ele>
        <time>2020-10-03T12:39:01.000Z</time>
      </trkpt>
      <trkpt lat="43.6104" lon="0.91783">
        <ele>207</ele>
        <time>2020-10-03T12:39:02.000Z</time>
      </trkpt>
      <trkpt lat="43.6104" lon="0.9178">
        <ele>207</ele>
        <time>2020-10-03T12:39:03.000Z</time>
      </trkpt>
      <trkpt lat="43.61042" lon="0.91777">
        <ele>207</ele>
        <time>2020-10-03T12:39:04.000Z</time>
      </trkpt>
      <trkpt lat="43.61043" lon="0.91773">
        <ele>207</ele>
        <time>2020-10-03T12:39:05.000Z</time>
      </trkpt>
      <trkpt lat="43.61044" lon="0.9177">
        <ele>207</ele>
        <time>2020-10-03T12:39:06.000Z</time>
      </trkpt>
      <trkpt lat="43.61044" lon="0.91766">
        <ele>207</ele>
        <time>2020-10-03T12:39:07.000Z</time>
      </trkpt>
      <trkpt lat="43.61045" lon="0.91762">
        <ele>207</ele>
        <time>2020-10-03T12:39:08.000Z</time>
      </trkpt>
      <trkpt lat="43.61046" lon="0.91758">
        <ele>207</ele>
        <time>2020-10-03T12:39:09.000Z</time>
      </trkpt>
      <trkpt lat="43.61047" lon="0.91754">
        <ele>207</ele>
        <time>2020-10-03T12:39:10.000Z</time>
      </trkpt>
      <trkpt lat="43.61048" lon="0.91751">
        <ele>207</ele>
        <time>2020-10-03T12:39:11.000Z</time>
      </trkpt>
      <trkpt lat="43.61049" lon="0.91748">
        <ele>207</ele>
        <time>2020-10-03T12:39:12.000Z</time>
      </trkpt>
      <trkpt lat="43.6105" lon="0.91745">
        <ele>207</ele>
        <time>2020-10-03T12:39:13.000Z</time>
      </trkpt>
      <trkpt lat="43.61051" lon="0.91741">
        <ele>207</ele>
        <time>2020-10-03T12:39:14.000Z</time>
      </trkpt>
      <trkpt lat="43.61052" lon="0.91737">
        <ele>207</ele>
        <time>2020-10-03T12:39:15.000Z</time>
      </trkpt>
      <trkpt lat="43.61053" lon="0.91734">
        <ele>207</ele>
        <time>2020-10-03T12:39:16.000Z</time>
      </trkpt>
      <trkpt lat="43.61054" lon="0.9173">
        <ele>207</ele>
        <time>2020-10-03T12:39:17.000Z</time>
      </trkpt>
      <trkpt lat="43.61054" lon="0.91726">
        <ele>207</ele>
        <time>2020-10-03T12:39:18.000Z</time>
      </trkpt>
      <trkpt lat="43.61055" lon="0.91723">
        <ele>207</ele>
        <time>2020-10-03T12:39:19.000Z</time>
      </trkpt>
      <trkpt lat="43.61056" lon="0.91719">
        <ele>207</ele>
        <time>2020-10-03T12:39:20.000Z</time>
      </trkpt>
      <trkpt lat="43.61057" lon="0.91715">
        <ele>207</ele>
        <time>2020-10-03T12:39:21.000Z</time>
      </trkpt>
      <trkpt lat="43.61058" lon="0.91711">
        <ele>207</ele>
        <time>2020-10-03T12:39:22.000Z</time>
      </trkpt>
      <trkpt lat="43.61058" lon="0.91707">
        <ele>207</ele>
        <time>2020-10-03T12:39:23.000Z</time>
      </trkpt>
      <trkpt lat="43.61059" lon="0.91703">
        <ele>207</ele>
        <time>2020-10-03T12:39:24.000Z</time>
      </trkpt>
      <trkpt lat="43.6106" lon="0.91699">
        <ele>207</ele>
        <time>2020-10-03T12:39:25.000Z</time>
      </trkpt>
      <trkpt lat="43.6106" lon="0.91695">
        <ele>207</ele>
        <time>2020-10-03T12:39:26.000Z</time>
      </trkpt>
      <trkpt lat="43.61061" lon="0.91691">
        <ele>207</ele>
        <time>2020-10-03T12:39:27.000Z</time>
      </trkpt>
      <trkpt lat="43.61062" lon="0.91688">
        <ele>207</ele>
        <time>2020-10-03T12:39:28.000Z</time>
      </trkpt>
      <trkpt lat="43.61063" lon="0.91684">
        <ele>207</ele>
        <time>2020-10-03T12:39:29.000Z</time>
      </trkpt>
      <trkpt lat="43.61064" lon="0.9168">
        <ele>207</ele>
        <time>2020-10-03T12:39:30.000Z</time>
      </trkpt>
      <trkpt lat="43.61065" lon="0.91676">
        <ele>207</ele>
        <time>2020-10-03T12:39:31.000Z</time>
      </trkpt>
      <trkpt lat="43.61065" lon="0.91673">
        <ele>207</ele>
        <time>2020-10-03T12:39:32.000Z</time>
      </trkpt>
      <trkpt lat="43.61066" lon="0.91669">
        <ele>207</ele>
        <time>2020-10-03T12:39:33.000Z</time>
      </trkpt>
      <trkpt lat="43.61067" lon="0.91665">
        <ele>207</ele>
        <time>2020-10-03T12:39:34.000Z</time>
      </trkpt>
      <trkpt lat="43.61068" lon="0.91661">
        <ele>207</ele>
        <time>2020-10-03T12:39:35.000Z</time>
      </trkpt>
      <trkpt lat="43.61069" lon="0.91656">
        <ele>207</ele>
        <time>2020-10-03T12:39:36.000Z</time>
      </trkpt>
      <trkpt lat="43.6107" lon="0.91652">
        <ele>207</ele>
        <time>2020-10-03T12:39:37.000Z</time>
      </trkpt>
      <trkpt lat="43.6107" lon="0.91648">
        <ele>207</ele>
        <time>2020-10-03T12:39:38.000Z</time>
      </trkpt>
      <trkpt lat="43.61071" lon="0.91645">
        <ele>207</ele>
        <time>2020-10-03T12:39:39.000Z</time>
      </trkpt>
      <trkpt lat="43.61072" lon="0.91641">
        <ele>207</ele>
        <time>2020-10-03T12:39:40.000Z</time>
      </trkpt>
      <trkpt lat="43.61072" lon="0.91638">
        <ele>207</ele>
        <time>2020-10-03T12:39:41.000Z</time>
      </trkpt>
      <trkpt lat="43.61073" lon="0.91633">
        <ele>207</ele>
        <time>2020-10-03T12:39:42.000Z</time>
      </trkpt>
      <trkpt lat="43.61073" lon="0.91629">
        <ele>207</ele>
        <time>2020-10-03T12:39:43.000Z</time>
      </trkpt>
      <trkpt lat="43.61073" lon="0.91625">
        <ele>207</ele>
        <time>2020-10-03T12:39:44.000Z</time>
      </trkpt>
      <trkpt lat="43.61074" lon="0.91622">
        <ele>207</ele>
        <time>2020-10-03T12:39:45.000Z</time>
      </trkpt>
      <trkpt lat="43.61074" lon="0.91618">
        <ele>207</ele>
        <time>2020-10-03T12:39:46.000Z</time>
      </trkpt>
      <trkpt lat="43.61074" lon="0.91614">
        <ele>207</ele>
        <time>2020-10-03T12:39:47.000Z</time>
      </trkpt>
      <trkpt lat="43.61075" lon="0.91611">
        <ele>207</ele>
        <time>2020-10-03T12:39:48.000Z</time>
      </trkpt>
      <trkpt lat="43.61075" lon="0.91607">
        <ele>207</ele>
        <time>2020-10-03T12:39:49.000Z</time>
      </trkpt>
      <trkpt lat="43.61076" lon="0.91603">
        <ele>207</ele>
        <time>2020-10-03T12:39:50.000Z</time>
      </trkpt>
      <trkpt lat="43.61076" lon="0.91599">
        <ele>207</ele>
        <time>2020-10-03T12:39:51.000Z</time>
      </trkpt>
      <trkpt lat="43.61075" lon="0.91595">
        <ele>207</ele>
        <time>2020-10-03T12:39:52.000Z</time>
      </trkpt>
      <trkpt lat="43.61075" lon="0.9159">
        <ele>207.86869052545</ele>
        <time>2020-10-03T12:39:53.000Z</time>
      </trkpt>
      <trkpt lat="43.61075" lon="0.91586">
        <ele>209</ele>
        <time>2020-10-03T12:39:54.000Z</time>
      </trkpt>
      <trkpt lat="43.61075" lon="0.91582">
        <ele>209</ele>
        <time>2020-10-03T12:39:55.000Z</time>
      </trkpt>
      <trkpt lat="43.61076" lon="0.91578">
        <ele>209</ele>
        <time>2020-10-03T12:39:56.000Z</time>
      </trkpt>
      <trkpt lat="43.61077" lon="0.91575">
        <ele>209</ele>
        <time>2020-10-03T12:39:57.000Z</time>
      </trkpt>
      <trkpt lat="43.61077" lon="0.9157">
        <ele>209</ele>
        <time>2020-10-03T12:39:58.000Z</time>
      </trkpt>
      <trkpt lat="43.61077" lon="0.91567">
        <ele>208.69306516615</ele>
        <time>2020-10-03T12:39:59.000Z</time>
      </trkpt>
      <trkpt lat="43.61077" lon="0.91563">
        <ele>208</ele>
        <time>2020-10-03T12:40:00.000Z</time>
      </trkpt>
      <trkpt lat="43.61078" lon="0.91558">
        <ele>208</ele>
        <time>2020-10-03T12:40:01.000Z</time>
      </trkpt>
      <trkpt lat="43.61078" lon="0.91554">
        <ele>208</ele>
        <time>2020-10-03T12:40:02.000Z</time>
      </trkpt>
      <trkpt lat="43.61078" lon="0.9155">
        <ele>208</ele>
        <time>2020-10-03T12:40:03.000Z</time>
      </trkpt>
      <trkpt lat="43.61079" lon="0.91545">
        <ele>208</ele>
        <time>2020-10-03T12:40:04.000Z</time>
      </trkpt>
      <trkpt lat="43.61078" lon="0.91541">
        <ele>208.42528211391</ele>
        <time>2020-10-03T12:40:05.000Z</time>
      </trkpt>
      <trkpt lat="43.61078" lon="0.91537">
        <ele>209</ele>
        <time>2020-10-03T12:40:06.000Z</time>
      </trkpt>
      <trkpt lat="43.61077" lon="0.91533">
        <ele>209</ele>
        <time>2020-10-03T12:40:07.000Z</time>
      </trkpt>
      <trkpt lat="43.61076" lon="0.91529">
        <ele>209</ele>
        <time>2020-10-03T12:40:08.000Z</time>
      </trkpt>
      <trkpt lat="43.61076" lon="0.91525">
        <ele>209</ele>
        <time>2020-10-03T12:40:09.000Z</time>
      </trkpt>
      <trkpt lat="43.61076" lon="0.91521">
        <ele>209</ele>
        <time>2020-10-03T12:40:10.000Z</time>
      </trkpt>
      <trkpt lat="43.61076" lon="0.91517">
        <ele>209</ele>
        <time>2020-10-03T12:40:11.000Z</time>
      </trkpt>
      <trkpt lat="43.61076" lon="0.91514">
        <ele>209.45871107145</ele>
        <time>2020-10-03T12:40:12.000Z</time>
      </trkpt>
      <trkpt lat="43.61076" lon="0.9151">
        <ele>210</ele>
        <time>2020-10-03T12:40:13.000Z</time>
      </trkpt>
      <trkpt lat="43.61076" lon="0.91507">
        <ele>210</ele>
        <time>2020-10-03T12:40:14.000Z</time>
      </trkpt>
      <trkpt lat="43.61076" lon="0.91503">
        <ele>210</ele>
        <time>2020-10-03T12:40:15.000Z</time>
      </trkpt>
      <trkpt lat="43.61075" lon="0.91499">
        <ele>210</ele>
        <time>2020-10-03T12:40:16.000Z</time>
      </trkpt>
      <trkpt lat="43.61075" lon="0.91495">
        <ele>210</ele>
        <time>2020-10-03T12:40:17.000Z</time>
      </trkpt>
      <trkpt lat="43.61074" lon="0.91491">
        <ele>210</ele>
        <time>2020-10-03T12:40:18.000Z</time>
      </trkpt>
      <trkpt lat="43.61073" lon="0.91487">
        <ele>210</ele>
        <time>2020-10-03T12:40:19.000Z</time>
      </trkpt>
      <trkpt lat="43.61073" lon="0.91483">
        <ele>210</ele>
        <time>2020-10-03T12:40:20.000Z</time>
      </trkpt>
      <trkpt lat="43.61073" lon="0.91479">
        <ele>210</ele>
        <time>2020-10-03T12:40:21.000Z</time>
      </trkpt>
      <trkpt lat="43.61073" lon="0.91475">
        <ele>210</ele>
        <time>2020-10-03T12:40:22.000Z</time>
      </trkpt>
      <trkpt lat="43.61072" lon="0.91471">
        <ele>210</ele>
        <time>2020-10-03T12:40:23.000Z</time>
      </trkpt>
      <trkpt lat="43.61071" lon="0.91467">
        <ele>210</ele>
        <time>2020-10-03T12:40:24.000Z</time>
      </trkpt>
      <trkpt lat="43.61071" lon="0.91462">
        <ele>209.59574873701</ele>
        <time>2020-10-03T12:40:25.000Z</time>
      </trkpt>
      <trkpt lat="43.61071" lon="0.91458">
        <ele>209</ele>
        <time>2020-10-03T12:40:26.000Z</time>
      </trkpt>
      <trkpt lat="43.6107" lon="0.91454">
        <ele>209</ele>
        <time>2020-10-03T12:40:27.000Z</time>
      </trkpt>
      <trkpt lat="43.6107" lon="0.91449">
        <ele>208.83720307198</ele>
        <time>2020-10-03T12:40:28.000Z</time>
      </trkpt>
      <trkpt lat="43.61069" lon="0.91445">
        <ele>208</ele>
        <time>2020-10-03T12:40:29.000Z</time>
      </trkpt>
      <trkpt lat="43.61069" lon="0.91441">
        <ele>208</ele>
        <time>2020-10-03T12:40:30.000Z</time>
      </trkpt>
      <trkpt lat="43.61069" lon="0.91437">
        <ele>208</ele>
        <time>2020-10-03T12:40:31.000Z</time>
      </trkpt>
      <trkpt lat="43.61069" lon="0.91433">
        <ele>208</ele>
        <time>2020-10-03T12:40:32.000Z</time>
      </trkpt>
      <trkpt lat="43.61068" lon="0.9143">
        <ele>208</ele>
        <time>2020-10-03T12:40:33.000Z</time>
      </trkpt>
      <trkpt lat="43.61067" lon="0.91426">
        <ele>208</ele>
        <time>2020-10-03T12:40:34.000Z</time>
      </trkpt>
      <trkpt lat="43.61067" lon="0.91421">
        <ele>208</ele>
        <time>2020-10-03T12:40:35.000Z</time>
      </trkpt>
      <trkpt lat="43.61068" lon="0.91417">
        <ele>208</ele>
        <time>2020-10-03T12:40:36.000Z</time>
      </trkpt>
      <trkpt lat="43.61069" lon="0.91413">
        <ele>208</ele>
        <time>2020-10-03T12:40:37.000Z</time>
      </trkpt>
      <trkpt lat="43.61069" lon="0.91409">
        <ele>208.34615384615</ele>
        <time>2020-10-03T12:40:38.000Z</time>
      </trkpt>
      <trkpt lat="43.61068" lon="0.91405">
        <ele>209</ele>
        <time>2020-10-03T12:40:39.000Z</time>
      </trkpt>
      <trkpt lat="43.61068" lon="0.91401">
        <ele>209</ele>
        <time>2020-10-03T12:40:40.000Z</time>
      </trkpt>
      <trkpt lat="43.61068" lon="0.91397">
        <ele>209</ele>
        <time>2020-10-03T12:40:41.000Z</time>
      </trkpt>
      <trkpt lat="43.61068" lon="0.91393">
        <ele>208.5596317347</ele>
        <time>2020-10-03T12:40:42.000Z</time>
      </trkpt>
      <trkpt lat="43.61068" lon="0.91388">
        <ele>208</ele>
        <time>2020-10-03T12:40:43.000Z</time>
      </trkpt>
      <trkpt lat="43.61068" lon="0.91384">
        <ele>208</ele>
        <time>2020-10-03T12:40:44.000Z</time>
      </trkpt>
      <trkpt lat="43.61069" lon="0.91379">
        <ele>208</ele>
        <time>2020-10-03T12:40:45.000Z</time>
      </trkpt>
      <trkpt lat="43.61069" lon="0.91375">
        <ele>208</ele>
        <time>2020-10-03T12:40:46.000Z</time>
      </trkpt>
      <trkpt lat="43.6107" lon="0.91371">
        <ele>208</ele>
        <time>2020-10-03T12:40:47.000Z</time>
      </trkpt>
      <trkpt lat="43.61071" lon="0.91367">
        <ele>208</ele>
        <time>2020-10-03T12:40:48.000Z</time>
      </trkpt>
      <trkpt lat="43.61072" lon="0.91362">
        <ele>208</ele>
        <time>2020-10-03T12:40:49.000Z</time>
      </trkpt>
      <trkpt lat="43.61072" lon="0.91358">
        <ele>208</ele>
        <time>2020-10-03T12:40:50.000Z</time>
      </trkpt>
      <trkpt lat="43.61073" lon="0.91355">
        <ele>208</ele>
        <time>2020-10-03T12:40:51.000Z</time>
      </trkpt>
      <trkpt lat="43.61074" lon="0.91351">
        <ele>207.68292505255</ele>
        <time>2020-10-03T12:40:52.000Z</time>
      </trkpt>
      <trkpt lat="43.61075" lon="0.91347">
        <ele>207</ele>
        <time>2020-10-03T12:40:53.000Z</time>
      </trkpt>
      <trkpt lat="43.61077" lon="0.91343">
        <ele>207</ele>
        <time>2020-10-03T12:40:54.000Z</time>
      </trkpt>
      <trkpt lat="43.61077" lon="0.9134">
        <ele>207</ele>
        <time>2020-10-03T12:40:55.000Z</time>
      </trkpt>
      <trkpt lat="43.61078" lon="0.91335">
        <ele>207</ele>
        <time>2020-10-03T12:40:56.000Z</time>
      </trkpt>
      <trkpt lat="43.61079" lon="0.91331">
        <ele>207</ele>
        <time>2020-10-03T12:40:57.000Z</time>
      </trkpt>
      <trkpt lat="43.6108" lon="0.91328">
        <ele>207</ele>
        <time>2020-10-03T12:40:58.000Z</time>
      </trkpt>
      <trkpt lat="43.61081" lon="0.91324">
        <ele>207</ele>
        <time>2020-10-03T12:40:59.000Z</time>
      </trkpt>
      <trkpt lat="43.61082" lon="0.9132">
        <ele>207</ele>
        <time>2020-10-03T12:41:00.000Z</time>
      </trkpt>
      <trkpt lat="43.61082" lon="0.91316">
        <ele>207</ele>
        <time>2020-10-03T12:41:01.000Z</time>
      </trkpt>
      <trkpt lat="43.61083" lon="0.91312">
        <ele>207</ele>
        <time>2020-10-03T12:41:02.000Z</time>
      </trkpt>
      <trkpt lat="43.61083" lon="0.91307">
        <ele>207</ele>
        <time>2020-10-03T12:41:03.000Z</time>
      </trkpt>
      <trkpt lat="43.61083" lon="0.91303">
        <ele>207</ele>
        <time>2020-10-03T12:41:04.000Z</time>
      </trkpt>
      <trkpt lat="43.61084" lon="0.91298">
        <ele>207</ele>
        <time>2020-10-03T12:41:05.000Z</time>
      </trkpt>
      <trkpt lat="43.61085" lon="0.91294">
        <ele>207</ele>
        <time>2020-10-03T12:41:06.000Z</time>
      </trkpt>
      <trkpt lat="43.61085" lon="0.91289">
        <ele>206.61855874164</ele>
        <time>2020-10-03T12:41:07.000Z</time>
      </trkpt>
      <trkpt lat="43.61086" lon="0.91285">
        <ele>206</ele>
        <time>2020-10-03T12:41:08.000Z</time>
      </trkpt>
      <trkpt lat="43.61086" lon="0.91281">
        <ele>205.96225275919</ele>
        <time>2020-10-03T12:41:09.000Z</time>
      </trkpt>
      <trkpt lat="43.61087" lon="0.91277">
        <ele>205</ele>
        <time>2020-10-03T12:41:10.000Z</time>
      </trkpt>
      <trkpt lat="43.61087" lon="0.91273">
        <ele>205</ele>
        <time>2020-10-03T12:41:11.000Z</time>
      </trkpt>
      <trkpt lat="43.61088" lon="0.91269">
        <ele>205</ele>
        <time>2020-10-03T12:41:12.000Z</time>
      </trkpt>
      <trkpt lat="43.61089" lon="0.91265">
        <ele>205</ele>
        <time>2020-10-03T12:41:13.000Z</time>
      </trkpt>
      <trkpt lat="43.6109" lon="0.91261">
        <ele>205</ele>
        <time>2020-10-03T12:41:14.000Z</time>
      </trkpt>
      <trkpt lat="43.61091" lon="0.91257">
        <ele>204.57843088043</ele>
        <time>2020-10-03T12:41:15.000Z</time>
      </trkpt>
      <trkpt lat="43.61091" lon="0.91253">
        <ele>204</ele>
        <time>2020-10-03T12:41:16.000Z</time>
      </trkpt>
      <trkpt lat="43.61092" lon="0.91249">
        <ele>204</ele>
        <time>2020-10-03T12:41:17.000Z</time>
      </trkpt>
      <trkpt lat="43.61092" lon="0.91245">
        <ele>204</ele>
        <time>2020-10-03T12:41:18.000Z</time>
      </trkpt>
      <trkpt lat="43.61093" lon="0.91241">
        <ele>204</ele>
        <time>2020-10-03T12:41:19.000Z</time>
      </trkpt>
      <trkpt lat="43.61093" lon="0.91236">
        <ele>204</ele>
        <time>2020-10-03T12:41:20.000Z</time>
      </trkpt>
      <trkpt lat="43.61094" lon="0.91232">
        <ele>204</ele>
        <time>2020-10-03T12:41:21.000Z</time>
      </trkpt>
      <trkpt lat="43.61095" lon="0.91228">
        <ele>204</ele>
        <time>2020-10-03T12:41:22.000Z</time>
      </trkpt>
      <trkpt lat="43.61096" lon="0.91225">
        <ele>204</ele>
        <time>2020-10-03T12:41:23.000Z</time>
      </trkpt>
      <trkpt lat="43.61097" lon="0.91221">
        <ele>204</ele>
        <time>2020-10-03T12:41:24.000Z</time>
      </trkpt>
      <trkpt lat="43.61098" lon="0.91217">
        <ele>203.79048164718</ele>
        <time>2020-10-03T12:41:25.000Z</time>
      </trkpt>
      <trkpt lat="43.61099" lon="0.91213">
        <ele>203</ele>
        <time>2020-10-03T12:41:26.000Z</time>
      </trkpt>
      <trkpt lat="43.61099" lon="0.91209">
        <ele>203</ele>
        <time>2020-10-03T12:41:27.000Z</time>
      </trkpt>
      <trkpt lat="43.611" lon="0.91205">
        <ele>203.37837588505</ele>
        <time>2020-10-03T12:41:28.000Z</time>
      </trkpt>
      <trkpt lat="43.61101" lon="0.91201">
        <ele>204</ele>
        <time>2020-10-03T12:41:29.000Z</time>
      </trkpt>
      <trkpt lat="43.61101" lon="0.91197">
        <ele>204</ele>
        <time>2020-10-03T12:41:30.000Z</time>
      </trkpt>
      <trkpt lat="43.61102" lon="0.91193">
        <ele>204</ele>
        <time>2020-10-03T12:41:31.000Z</time>
      </trkpt>
      <trkpt lat="43.61103" lon="0.91189">
        <ele>204</ele>
        <time>2020-10-03T12:41:32.000Z</time>
      </trkpt>
      <trkpt lat="43.61105" lon="0.91185">
        <ele>204</ele>
        <time>2020-10-03T12:41:33.000Z</time>
      </trkpt>
      <trkpt lat="43.61106" lon="0.91181">
        <ele>204</ele>
        <time>2020-10-03T12:41:34.000Z</time>
      </trkpt>
      <trkpt lat="43.61107" lon="0.91178">
        <ele>204.4166637037</ele>
        <time>2020-10-03T12:41:35.000Z</time>
      </trkpt>
      <trkpt lat="43.61107" lon="0.91174">
        <ele>205</ele>
        <time>2020-10-03T12:41:36.000Z</time>
      </trkpt>
      <trkpt lat="43.61108" lon="0.9117">
        <ele>205</ele>
        <time>2020-10-03T12:41:37.000Z</time>
      </trkpt>
      <trkpt lat="43.61109" lon="0.91166">
        <ele>205</ele>
        <time>2020-10-03T12:41:38.000Z</time>
      </trkpt>
      <trkpt lat="43.6111" lon="0.91162">
        <ele>205</ele>
        <time>2020-10-03T12:41:39.000Z</time>
      </trkpt>
      <trkpt lat="43.61111" lon="0.91158">
        <ele>205</ele>
        <time>2020-10-03T12:41:40.000Z</time>
      </trkpt>
      <trkpt lat="43.61112" lon="0.91154">
        <ele>205</ele>
        <time>2020-10-03T12:41:41.000Z</time>
      </trkpt>
      <trkpt lat="43.61114" lon="0.9115">
        <ele>205</ele>
        <time>2020-10-03T12:41:42.000Z</time>
      </trkpt>
      <trkpt lat="43.61115" lon="0.91147">
        <ele>205</ele>
        <time>2020-10-03T12:41:43.000Z</time>
      </trkpt>
      <trkpt lat="43.61116" lon="0.91143">
        <ele>205</ele>
        <time>2020-10-03T12:41:44.000Z</time>
      </trkpt>
      <trkpt lat="43.61117" lon="0.9114">
        <ele>205</ele>
        <time>2020-10-03T12:41:45.000Z</time>
      </trkpt>
      <trkpt lat="43.61118" lon="0.91136">
        <ele>205</ele>
        <time>2020-10-03T12:41:46.000Z</time>
      </trkpt>
      <trkpt lat="43.6112" lon="0.91133">
        <ele>205</ele>
        <time>2020-10-03T12:41:47.000Z</time>
      </trkpt>
      <trkpt lat="43.6112" lon="0.9113">
        <ele>205.5</ele>
        <time>2020-10-03T12:41:48.000Z</time>
      </trkpt>
      <trkpt lat="43.61121" lon="0.91128">
        <ele>206</ele>
        <time>2020-10-03T12:41:49.000Z</time>
      </trkpt>
      <trkpt lat="43.61122" lon="0.91124">
        <ele>206</ele>
        <time>2020-10-03T12:41:50.000Z</time>
      </trkpt>
      <trkpt lat="43.61122" lon="0.91121">
        <ele>206</ele>
        <time>2020-10-03T12:41:51.000Z</time>
      </trkpt>
      <trkpt lat="43.61122" lon="0.91117">
        <ele>206</ele>
        <time>2020-10-03T12:41:52.000Z</time>
      </trkpt>
      <trkpt lat="43.61123" lon="0.91113">
        <ele>206</ele>
        <time>2020-10-03T12:41:53.000Z</time>
      </trkpt>
      <trkpt lat="43.61123" lon="0.9111">
        <ele>206</ele>
        <time>2020-10-03T12:41:54.000Z</time>
      </trkpt>
      <trkpt lat="43.61124" lon="0.91106">
        <ele>206</ele>
        <time>2020-10-03T12:41:55.000Z</time>
      </trkpt>
      <trkpt lat="43.61124" lon="0.91102">
        <ele>206</ele>
        <time>2020-10-03T12:41:56.000Z</time>
      </trkpt>
      <trkpt lat="43.61123" lon="0.91099">
        <ele>206</ele>
        <time>2020-10-03T12:41:57.000Z</time>
      </trkpt>
      <trkpt lat="43.61121" lon="0.91097">
        <ele>206</ele>
        <time>2020-10-03T12:41:59.000Z</time>
      </trkpt>
      <trkpt lat="43.61117" lon="0.91097">
        <ele>207</ele>
        <time>2020-10-03T12:42:01.000Z</time>
      </trkpt>
      <trkpt lat="43.61115" lon="0.91098">
        <ele>207</ele>
        <time>2020-10-03T12:42:02.000Z</time>
      </trkpt>
      <trkpt lat="43.61112" lon="0.91099">
        <ele>207</ele>
        <time>2020-10-03T12:42:03.000Z</time>
      </trkpt>
      <trkpt lat="43.6111" lon="0.911">
        <ele>207</ele>
        <time>2020-10-03T12:42:04.000Z</time>
      </trkpt>
      <trkpt lat="43.61108" lon="0.91101">
        <ele>207</ele>
        <time>2020-10-03T12:42:05.000Z</time>
      </trkpt>
      <trkpt lat="43.61106" lon="0.91102">
        <ele>207</ele>
        <time>2020-10-03T12:42:06.000Z</time>
      </trkpt>
      <trkpt lat="43.61103" lon="0.91104">
        <ele>207</ele>
        <time>2020-10-03T12:42:07.000Z</time>
      </trkpt>
      <trkpt lat="43.61101" lon="0.91105">
        <ele>207</ele>
        <time>2020-10-03T12:42:08.000Z</time>
      </trkpt>
      <trkpt lat="43.61098" lon="0.91107">
        <ele>207</ele>
        <time>2020-10-03T12:42:09.000Z</time>
      </trkpt>
      <trkpt lat="43.61096" lon="0.91108">
        <ele>207</ele>
        <time>2020-10-03T12:42:10.000Z</time>
      </trkpt>
      <trkpt lat="43.61093" lon="0.9111">
        <ele>207.38938163365</ele>
        <time>2020-10-03T12:42:11.000Z</time>
      </trkpt>
      <trkpt lat="43.61091" lon="0.91111">
        <ele>208</ele>
        <time>2020-10-03T12:42:12.000Z</time>
      </trkpt>
      <trkpt lat="43.61088" lon="0.91113">
        <ele>208</ele>
        <time>2020-10-03T12:42:13.000Z</time>
      </trkpt>
      <trkpt lat="43.61086" lon="0.91114">
        <ele>208</ele>
        <time>2020-10-03T12:42:14.000Z</time>
      </trkpt>
      <trkpt lat="43.61083" lon="0.91115">
        <ele>208.3820255422</ele>
        <time>2020-10-03T12:42:15.000Z</time>
      </trkpt>
      <trkpt lat="43.6108" lon="0.91117">
        <ele>209</ele>
        <time>2020-10-03T12:42:16.000Z</time>
      </trkpt>
      <trkpt lat="43.61078" lon="0.91118">
        <ele>209</ele>
        <time>2020-10-03T12:42:17.000Z</time>
      </trkpt>
      <trkpt lat="43.61076" lon="0.91119">
        <ele>209</ele>
        <time>2020-10-03T12:42:18.000Z</time>
      </trkpt>
      <trkpt lat="43.61073" lon="0.91121">
        <ele>209</ele>
        <time>2020-10-03T12:42:19.000Z</time>
      </trkpt>
      <trkpt lat="43.6107" lon="0.91122">
        <ele>209</ele>
        <time>2020-10-03T12:42:20.000Z</time>
      </trkpt>
      <trkpt lat="43.61068" lon="0.91124">
        <ele>209</ele>
        <time>2020-10-03T12:42:21.000Z</time>
      </trkpt>
      <trkpt lat="43.61065" lon="0.91125">
        <ele>209</ele>
        <time>2020-10-03T12:42:22.000Z</time>
      </trkpt>
      <trkpt lat="43.61063" lon="0.91126">
        <ele>209</ele>
        <time>2020-10-03T12:42:23.000Z</time>
      </trkpt>
      <trkpt lat="43.6106" lon="0.91128">
        <ele>209</ele>
        <time>2020-10-03T12:42:24.000Z</time>
      </trkpt>
      <trkpt lat="43.61057" lon="0.91129">
        <ele>209</ele>
        <time>2020-10-03T12:42:25.000Z</time>
      </trkpt>
      <trkpt lat="43.61055" lon="0.91131">
        <ele>209</ele>
        <time>2020-10-03T12:42:26.000Z</time>
      </trkpt>
      <trkpt lat="43.61052" lon="0.91132">
        <ele>209</ele>
        <time>2020-10-03T12:42:27.000Z</time>
      </trkpt>
      <trkpt lat="43.6105" lon="0.91134">
        <ele>209</ele>
        <time>2020-10-03T12:42:28.000Z</time>
      </trkpt>
      <trkpt lat="43.61047" lon="0.91136">
        <ele>209</ele>
        <time>2020-10-03T12:42:29.000Z</time>
      </trkpt>
      <trkpt lat="43.61044" lon="0.91137">
        <ele>209</ele>
        <time>2020-10-03T12:42:30.000Z</time>
      </trkpt>
      <trkpt lat="43.61042" lon="0.91138">
        <ele>209</ele>
        <time>2020-10-03T12:42:31.000Z</time>
      </trkpt>
      <trkpt lat="43.61039" lon="0.9114">
        <ele>209</ele>
        <time>2020-10-03T12:42:32.000Z</time>
      </trkpt>
      <trkpt lat="43.61036" lon="0.91141">
        <ele>209</ele>
        <time>2020-10-03T12:42:33.000Z</time>
      </trkpt>
      <trkpt lat="43.61034" lon="0.91143">
        <ele>209</ele>
        <time>2020-10-03T12:42:34.000Z</time>
      </trkpt>
      <trkpt lat="43.61031" lon="0.91144">
        <ele>209</ele>
        <time>2020-10-03T12:42:35.000Z</time>
      </trkpt>
      <trkpt lat="43.61029" lon="0.91146">
        <ele>209</ele>
        <time>2020-10-03T12:42:36.000Z</time>
      </trkpt>
      <trkpt lat="43.61026" lon="0.91147">
        <ele>209.93616383888</ele>
        <time>2020-10-03T12:42:37.000Z</time>
      </trkpt>
      <trkpt lat="43.61024" lon="0.91149">
        <ele>211</ele>
        <time>2020-10-03T12:42:38.000Z</time>
      </trkpt>
      <trkpt lat="43.61021" lon="0.9115">
        <ele>211</ele>
        <time>2020-10-03T12:42:39.000Z</time>
      </trkpt>
      <trkpt lat="43.61019" lon="0.91152">
        <ele>211</ele>
        <time>2020-10-03T12:42:40.000Z</time>
      </trkpt>
      <trkpt lat="43.61016" lon="0.91153">
        <ele>211</ele>
        <time>2020-10-03T12:42:41.000Z</time>
      </trkpt>
      <trkpt lat="43.61013" lon="0.91154">
        <ele>211</ele>
        <time>2020-10-03T12:42:42.000Z</time>
      </trkpt>
      <trkpt lat="43.61011" lon="0.91155">
        <ele>211.40816059977</ele>
        <time>2020-10-03T12:42:43.000Z</time>
      </trkpt>
      <trkpt lat="43.61008" lon="0.91157">
        <ele>212</ele>
        <time>2020-10-03T12:42:44.000Z</time>
      </trkpt>
      <trkpt lat="43.61006" lon="0.91158">
        <ele>212</ele>
        <time>2020-10-03T12:42:45.000Z</time>
      </trkpt>
      <trkpt lat="43.61004" lon="0.9116">
        <ele>212</ele>
        <time>2020-10-03T12:42:46.000Z</time>
      </trkpt>
      <trkpt lat="43.61001" lon="0.91161">
        <ele>211.61061836635</ele>
        <time>2020-10-03T12:42:47.000Z</time>
      </trkpt>
      <trkpt lat="43.60998" lon="0.91163">
        <ele>211</ele>
        <time>2020-10-03T12:42:48.000Z</time>
      </trkpt>
      <trkpt lat="43.60996" lon="0.91164">
        <ele>211</ele>
        <time>2020-10-03T12:42:49.000Z</time>
      </trkpt>
      <trkpt lat="43.60993" lon="0.91166">
        <ele>211</ele>
        <time>2020-10-03T12:42:50.000Z</time>
      </trkpt>
      <trkpt lat="43.6099" lon="0.91168">
        <ele>211</ele>
        <time>2020-10-03T12:42:51.000Z</time>
      </trkpt>
      <trkpt lat="43.60988" lon="0.91169">
        <ele>211</ele>
        <time>2020-10-03T12:42:52.000Z</time>
      </trkpt>
      <trkpt lat="43.60985" lon="0.91171">
        <ele>211.35632420662</ele>
        <time>2020-10-03T12:42:53.000Z</time>
      </trkpt>
      <trkpt lat="43.60983" lon="0.91172">
        <ele>212</ele>
        <time>2020-10-03T12:42:54.000Z</time>
      </trkpt>
      <trkpt lat="43.6098" lon="0.91174">
        <ele>212.37349639134</ele>
        <time>2020-10-03T12:42:55.000Z</time>
      </trkpt>
      <trkpt lat="43.60978" lon="0.91176">
        <ele>213</ele>
        <time>2020-10-03T12:42:56.000Z</time>
      </trkpt>
      <trkpt lat="43.60975" lon="0.91177">
        <ele>213</ele>
        <time>2020-10-03T12:42:57.000Z</time>
      </trkpt>
      <trkpt lat="43.60973" lon="0.91179">
        <ele>213</ele>
        <time>2020-10-03T12:42:58.000Z</time>
      </trkpt>
      <trkpt lat="43.6097" lon="0.91181">
        <ele>213</ele>
        <time>2020-10-03T12:42:59.000Z</time>
      </trkpt>
      <trkpt lat="43.60968" lon="0.91182">
        <ele>213</ele>
        <time>2020-10-03T12:43:00.000Z</time>
      </trkpt>
      <trkpt lat="43.60965" lon="0.91183">
        <ele>213</ele>
        <time>2020-10-03T12:43:01.000Z</time>
      </trkpt>
      <trkpt lat="43.60962" lon="0.91183">
        <ele>213</ele>
        <time>2020-10-03T12:43:02.000Z</time>
      </trkpt>
      <trkpt lat="43.60959" lon="0.91182">
        <ele>213</ele>
        <time>2020-10-03T12:43:03.000Z</time>
      </trkpt>
      <trkpt lat="43.60957" lon="0.9118">
        <ele>213</ele>
        <time>2020-10-03T12:43:04.000Z</time>
      </trkpt>
      <trkpt lat="43.60955" lon="0.91177">
        <ele>213.4226785078</ele>
        <time>2020-10-03T12:43:05.000Z</time>
      </trkpt>
      <trkpt lat="43.60953" lon="0.91173">
        <ele>214</ele>
        <time>2020-10-03T12:43:06.000Z</time>
      </trkpt>
      <trkpt lat="43.60952" lon="0.9117">
        <ele>214</ele>
        <time>2020-10-03T12:43:07.000Z</time>
      </trkpt>
      <trkpt lat="43.6095" lon="0.91166">
        <ele>214</ele>
        <time>2020-10-03T12:43:08.000Z</time>
      </trkpt>
      <trkpt lat="43.60949" lon="0.91162">
        <ele>214</ele>
        <time>2020-10-03T12:43:09.000Z</time>
      </trkpt>
      <trkpt lat="43.60949" lon="0.91158">
        <ele>214</ele>
        <time>2020-10-03T12:43:10.000Z</time>
      </trkpt>
      <trkpt lat="43.60948" lon="0.91154">
        <ele>214</ele>
        <time>2020-10-03T12:43:11.000Z</time>
      </trkpt>
      <trkpt lat="43.60948" lon="0.91149">
        <ele>214</ele>
        <time>2020-10-03T12:43:12.000Z</time>
      </trkpt>
      <trkpt lat="43.60947" lon="0.91145">
        <ele>213.56363382478</ele>
        <time>2020-10-03T12:43:13.000Z</time>
      </trkpt>
      <trkpt lat="43.60947" lon="0.91141">
        <ele>213</ele>
        <time>2020-10-03T12:43:14.000Z</time>
      </trkpt>
      <trkpt lat="43.60947" lon="0.91137">
        <ele>213</ele>
        <time>2020-10-03T12:43:15.000Z</time>
      </trkpt>
      <trkpt lat="43.60946" lon="0.91132">
        <ele>212.56310583089</ele>
        <time>2020-10-03T12:43:16.000Z</time>
      </trkpt>
      <trkpt lat="43.60946" lon="0.91128">
        <ele>212</ele>
        <time>2020-10-03T12:43:17.000Z</time>
      </trkpt>
      <trkpt lat="43.60946" lon="0.91124">
        <ele>212</ele>
        <time>2020-10-03T12:43:18.000Z</time>
      </trkpt>
      <trkpt lat="43.60946" lon="0.91119">
        <ele>212</ele>
        <time>2020-10-03T12:43:19.000Z</time>
      </trkpt>
      <trkpt lat="43.60946" lon="0.91115">
        <ele>212</ele>
        <time>2020-10-03T12:43:20.000Z</time>
      </trkpt>
      <trkpt lat="43.60945" lon="0.9111">
        <ele>212</ele>
        <time>2020-10-03T12:43:21.000Z</time>
      </trkpt>
      <trkpt lat="43.60945" lon="0.91106">
        <ele>212</ele>
        <time>2020-10-03T12:43:22.000Z</time>
      </trkpt>
      <trkpt lat="43.60945" lon="0.91102">
        <ele>212</ele>
        <time>2020-10-03T12:43:23.000Z</time>
      </trkpt>
      <trkpt lat="43.60945" lon="0.91097">
        <ele>212</ele>
        <time>2020-10-03T12:43:24.000Z</time>
      </trkpt>
      <trkpt lat="43.60945" lon="0.91093">
        <ele>212</ele>
        <time>2020-10-03T12:43:25.000Z</time>
      </trkpt>
      <trkpt lat="43.60945" lon="0.91089">
        <ele>211.65115794487</ele>
        <time>2020-10-03T12:43:26.000Z</time>
      </trkpt>
      <trkpt lat="43.60946" lon="0.91084">
        <ele>211</ele>
        <time>2020-10-03T12:43:27.000Z</time>
      </trkpt>
      <trkpt lat="43.60946" lon="0.9108">
        <ele>211</ele>
        <time>2020-10-03T12:43:28.000Z</time>
      </trkpt>
      <trkpt lat="43.60946" lon="0.91076">
        <ele>211</ele>
        <time>2020-10-03T12:43:29.000Z</time>
      </trkpt>
      <trkpt lat="43.60946" lon="0.91071">
        <ele>211</ele>
        <time>2020-10-03T12:43:30.000Z</time>
      </trkpt>
      <trkpt lat="43.60946" lon="0.91067">
        <ele>211</ele>
        <time>2020-10-03T12:43:31.000Z</time>
      </trkpt>
      <trkpt lat="43.60946" lon="0.91063">
        <ele>211</ele>
        <time>2020-10-03T12:43:32.000Z</time>
      </trkpt>
      <trkpt lat="43.60947" lon="0.91059">
        <ele>211</ele>
        <time>2020-10-03T12:43:33.000Z</time>
      </trkpt>
      <trkpt lat="43.60947" lon="0.91055">
        <ele>211</ele>
        <time>2020-10-03T12:43:34.000Z</time>
      </trkpt>
      <trkpt lat="43.60947" lon="0.91051">
        <ele>211</ele>
        <time>2020-10-03T12:43:35.000Z</time>
      </trkpt>
      <trkpt lat="43.60948" lon="0.91047">
        <ele>211</ele>
        <time>2020-10-03T12:43:36.000Z</time>
      </trkpt>
      <trkpt lat="43.60948" lon="0.91043">
        <ele>211</ele>
        <time>2020-10-03T12:43:37.000Z</time>
      </trkpt>
      <trkpt lat="43.60949" lon="0.91039">
        <ele>211</ele>
        <time>2020-10-03T12:43:38.000Z</time>
      </trkpt>
      <trkpt lat="43.60949" lon="0.91035">
        <ele>211</ele>
        <time>2020-10-03T12:43:39.000Z</time>
      </trkpt>
      <trkpt lat="43.60949" lon="0.91031">
        <ele>211</ele>
        <time>2020-10-03T12:43:40.000Z</time>
      </trkpt>
      <trkpt lat="43.60949" lon="0.91027">
        <ele>210.60395914126</ele>
        <time>2020-10-03T12:43:41.000Z</time>
      </trkpt>
      <trkpt lat="43.6095" lon="0.91023">
        <ele>209.64864677868</ele>
        <time>2020-10-03T12:43:42.000Z</time>
      </trkpt>
      <trkpt lat="43.6095" lon="0.91019">
        <ele>209</ele>
        <time>2020-10-03T12:43:43.000Z</time>
      </trkpt>
      <trkpt lat="43.6095" lon="0.91015">
        <ele>209</ele>
        <time>2020-10-03T12:43:44.000Z</time>
      </trkpt>
      <trkpt lat="43.6095" lon="0.91011">
        <ele>209</ele>
        <time>2020-10-03T12:43:45.000Z</time>
      </trkpt>
      <trkpt lat="43.6095" lon="0.91007">
        <ele>209</ele>
        <time>2020-10-03T12:43:46.000Z</time>
      </trkpt>
      <trkpt lat="43.60951" lon="0.91003">
        <ele>209</ele>
        <time>2020-10-03T12:43:47.000Z</time>
      </trkpt>
      <trkpt lat="43.60951" lon="0.90999">
        <ele>209</ele>
        <time>2020-10-03T12:43:48.000Z</time>
      </trkpt>
      <trkpt lat="43.60951" lon="0.90995">
        <ele>208.5663732853</ele>
        <time>2020-10-03T12:43:49.000Z</time>
      </trkpt>
      <trkpt lat="43.60951" lon="0.90991">
        <ele>208</ele>
        <time>2020-10-03T12:43:50.000Z</time>
      </trkpt>
      <trkpt lat="43.60951" lon="0.90987">
        <ele>208</ele>
        <time>2020-10-03T12:43:51.000Z</time>
      </trkpt>
      <trkpt lat="43.60952" lon="0.90982">
        <ele>208</ele>
        <time>2020-10-03T12:43:52.000Z</time>
      </trkpt>
      <trkpt lat="43.60952" lon="0.90978">
        <ele>208</ele>
        <time>2020-10-03T12:43:53.000Z</time>
      </trkpt>
      <trkpt lat="43.60953" lon="0.90974">
        <ele>207.58163318618</ele>
        <time>2020-10-03T12:43:54.000Z</time>
      </trkpt>
      <trkpt lat="43.60953" lon="0.9097">
        <ele>207</ele>
        <time>2020-10-03T12:43:55.000Z</time>
      </trkpt>
      <trkpt lat="43.60953" lon="0.90966">
        <ele>207</ele>
        <time>2020-10-03T12:43:56.000Z</time>
      </trkpt>
      <trkpt lat="43.60953" lon="0.90962">
        <ele>207</ele>
        <time>2020-10-03T12:43:57.000Z</time>
      </trkpt>
      <trkpt lat="43.60953" lon="0.90958">
        <ele>207</ele>
        <time>2020-10-03T12:43:58.000Z</time>
      </trkpt>
      <trkpt lat="43.60953" lon="0.90954">
        <ele>207</ele>
        <time>2020-10-03T12:43:59.000Z</time>
      </trkpt>
      <trkpt lat="43.60953" lon="0.9095">
        <ele>207.45871107145</ele>
        <time>2020-10-03T12:44:00.000Z</time>
      </trkpt>
      <trkpt lat="43.60953" lon="0.90946">
        <ele>208</ele>
        <time>2020-10-03T12:44:01.000Z</time>
      </trkpt>
      <trkpt lat="43.60953" lon="0.90942">
        <ele>208</ele>
        <time>2020-10-03T12:44:02.000Z</time>
      </trkpt>
      <trkpt lat="43.60953" lon="0.90938">
        <ele>208</ele>
        <time>2020-10-03T12:44:03.000Z</time>
      </trkpt>
      <trkpt lat="43.60953" lon="0.90934">
        <ele>208</ele>
        <time>2020-10-03T12:44:04.000Z</time>
      </trkpt>
      <trkpt lat="43.60953" lon="0.9093">
        <ele>208.18604789617</ele>
        <time>2020-10-03T12:44:05.000Z</time>
      </trkpt>
      <trkpt lat="43.60953" lon="0.90926">
        <ele>209</ele>
        <time>2020-10-03T12:44:06.000Z</time>
      </trkpt>
      <trkpt lat="43.60953" lon="0.90922">
        <ele>209</ele>
        <time>2020-10-03T12:44:07.000Z</time>
      </trkpt>
      <trkpt lat="43.60953" lon="0.90918">
        <ele>209</ele>
        <time>2020-10-03T12:44:08.000Z</time>
      </trkpt>
      <trkpt lat="43.60953" lon="0.90914">
        <ele>208.5900032</ele>
        <time>2020-10-03T12:44:09.000Z</time>
      </trkpt>
      <trkpt lat="43.60953" lon="0.9091">
        <ele>208</ele>
        <time>2020-10-03T12:44:10.000Z</time>
      </trkpt>
      <trkpt lat="43.60952" lon="0.90907">
        <ele>208</ele>
        <time>2020-10-03T12:44:11.000Z</time>
      </trkpt>
      <trkpt lat="43.60952" lon="0.90903">
        <ele>208.39473625115</ele>
        <time>2020-10-03T12:44:12.000Z</time>
      </trkpt>
      <trkpt lat="43.60952" lon="0.90899">
        <ele>209</ele>
        <time>2020-10-03T12:44:13.000Z</time>
      </trkpt>
      <trkpt lat="43.60952" lon="0.90896">
        <ele>209</ele>
        <time>2020-10-03T12:44:14.000Z</time>
      </trkpt>
      <trkpt lat="43.60952" lon="0.90892">
        <ele>209</ele>
        <time>2020-10-03T12:44:15.000Z</time>
      </trkpt>
      <trkpt lat="43.60952" lon="0.90888">
        <ele>209</ele>
        <time>2020-10-03T12:44:16.000Z</time>
      </trkpt>
      <trkpt lat="43.60952" lon="0.90884">
        <ele>208.57446518785</ele>
        <time>2020-10-03T12:44:17.000Z</time>
      </trkpt>
      <trkpt lat="43.60952" lon="0.9088">
        <ele>208</ele>
        <time>2020-10-03T12:44:18.000Z</time>
      </trkpt>
      <trkpt lat="43.60952" lon="0.90876">
        <ele>208</ele>
        <time>2020-10-03T12:44:19.000Z</time>
      </trkpt>
      <trkpt lat="43.60952" lon="0.90873">
        <ele>208</ele>
        <time>2020-10-03T12:44:20.000Z</time>
      </trkpt>
      <trkpt lat="43.60953" lon="0.90869">
        <ele>208</ele>
        <time>2020-10-03T12:44:21.000Z</time>
      </trkpt>
      <trkpt lat="43.60953" lon="0.90865">
        <ele>208</ele>
        <time>2020-10-03T12:44:22.000Z</time>
      </trkpt>
      <trkpt lat="43.60953" lon="0.90861">
        <ele>207.81579479233</ele>
        <time>2020-10-03T12:44:23.000Z</time>
      </trkpt>
      <trkpt lat="43.60953" lon="0.90857">
        <ele>207</ele>
        <time>2020-10-03T12:44:24.000Z</time>
      </trkpt>
      <trkpt lat="43.60953" lon="0.90853">
        <ele>207</ele>
        <time>2020-10-03T12:44:25.000Z</time>
      </trkpt>
      <trkpt lat="43.60953" lon="0.90849">
        <ele>207</ele>
        <time>2020-10-03T12:44:26.000Z</time>
      </trkpt>
      <trkpt lat="43.60953" lon="0.90845">
        <ele>207</ele>
        <time>2020-10-03T12:44:27.000Z</time>
      </trkpt>
      <trkpt lat="43.60954" lon="0.90842">
        <ele>207</ele>
        <time>2020-10-03T12:44:28.000Z</time>
      </trkpt>
      <trkpt lat="43.60954" lon="0.90838">
        <ele>207</ele>
        <time>2020-10-03T12:44:29.000Z</time>
      </trkpt>
      <trkpt lat="43.60954" lon="0.90834">
        <ele>207</ele>
        <time>2020-10-03T12:44:30.000Z</time>
      </trkpt>
      <trkpt lat="43.60954" lon="0.9083">
        <ele>207.45454662995</ele>
        <time>2020-10-03T12:44:31.000Z</time>
      </trkpt>
      <trkpt lat="43.60955" lon="0.90826">
        <ele>208</ele>
        <time>2020-10-03T12:44:32.000Z</time>
      </trkpt>
      <trkpt lat="43.60955" lon="0.90822">
        <ele>208</ele>
        <time>2020-10-03T12:44:33.000Z</time>
      </trkpt>
      <trkpt lat="43.60956" lon="0.90818">
        <ele>208</ele>
        <time>2020-10-03T12:44:34.000Z</time>
      </trkpt>
      <trkpt lat="43.60956" lon="0.90815">
        <ele>208</ele>
        <time>2020-10-03T12:44:35.000Z</time>
      </trkpt>
      <trkpt lat="43.60957" lon="0.9081">
        <ele>208</ele>
        <time>2020-10-03T12:44:36.000Z</time>
      </trkpt>
      <trkpt lat="43.60958" lon="0.90806">
        <ele>208</ele>
        <time>2020-10-03T12:44:37.000Z</time>
      </trkpt>
      <trkpt lat="43.60958" lon="0.90802">
        <ele>208</ele>
        <time>2020-10-03T12:44:38.000Z</time>
      </trkpt>
      <trkpt lat="43.60959" lon="0.90798">
        <ele>207.72794352941</ele>
        <time>2020-10-03T12:44:39.000Z</time>
      </trkpt>
      <trkpt lat="43.6096" lon="0.90795">
        <ele>207</ele>
        <time>2020-10-03T12:44:40.000Z</time>
      </trkpt>
      <trkpt lat="43.60961" lon="0.90791">
        <ele>207</ele>
        <time>2020-10-03T12:44:41.000Z</time>
      </trkpt>
      <trkpt lat="43.60962" lon="0.90787">
        <ele>207</ele>
        <time>2020-10-03T12:44:42.000Z</time>
      </trkpt>
      <trkpt lat="43.60964" lon="0.90783">
        <ele>207</ele>
        <time>2020-10-03T12:44:43.000Z</time>
      </trkpt>
      <trkpt lat="43.60965" lon="0.90779">
        <ele>207</ele>
        <time>2020-10-03T12:44:44.000Z</time>
      </trkpt>
      <trkpt lat="43.60966" lon="0.90775">
        <ele>207</ele>
        <time>2020-10-03T12:44:45.000Z</time>
      </trkpt>
      <trkpt lat="43.60967" lon="0.90771">
        <ele>207</ele>
        <time>2020-10-03T12:44:46.000Z</time>
      </trkpt>
      <trkpt lat="43.60967" lon="0.90767">
        <ele>207</ele>
        <time>2020-10-03T12:44:47.000Z</time>
      </trkpt>
      <trkpt lat="43.60968" lon="0.90763">
        <ele>207</ele>
        <time>2020-10-03T12:44:48.000Z</time>
      </trkpt>
      <trkpt lat="43.60969" lon="0.90759">
        <ele>207</ele>
        <time>2020-10-03T12:44:49.000Z</time>
      </trkpt>
      <trkpt lat="43.6097" lon="0.90755">
        <ele>207</ele>
        <time>2020-10-03T12:44:50.000Z</time>
      </trkpt>
      <trkpt lat="43.60971" lon="0.90751">
        <ele>207</ele>
        <time>2020-10-03T12:44:51.000Z</time>
      </trkpt>
      <trkpt lat="43.60971" lon="0.90748">
        <ele>207</ele>
        <time>2020-10-03T12:44:52.000Z</time>
      </trkpt>
      <trkpt lat="43.60972" lon="0.90744">
        <ele>207</ele>
        <time>2020-10-03T12:44:53.000Z</time>
      </trkpt>
      <trkpt lat="43.60973" lon="0.90739">
        <ele>207</ele>
        <time>2020-10-03T12:44:54.000Z</time>
      </trkpt>
      <trkpt lat="43.60974" lon="0.90735">
        <ele>207</ele>
        <time>2020-10-03T12:44:55.000Z</time>
      </trkpt>
      <trkpt lat="43.60975" lon="0.90731">
        <ele>207.34188127694</ele>
        <time>2020-10-03T12:44:56.000Z</time>
      </trkpt>
      <trkpt lat="43.60976" lon="0.90727">
        <ele>208</ele>
        <time>2020-10-03T12:44:57.000Z</time>
      </trkpt>
      <trkpt lat="43.60977" lon="0.90723">
        <ele>208</ele>
        <time>2020-10-03T12:44:58.000Z</time>
      </trkpt>
      <trkpt lat="43.60978" lon="0.90719">
        <ele>208</ele>
        <time>2020-10-03T12:44:59.000Z</time>
      </trkpt>
      <trkpt lat="43.60978" lon="0.90715">
        <ele>208</ele>
        <time>2020-10-03T12:45:00.000Z</time>
      </trkpt>
      <trkpt lat="43.60979" lon="0.90711">
        <ele>208</ele>
        <time>2020-10-03T12:45:01.000Z</time>
      </trkpt>
      <trkpt lat="43.6098" lon="0.90707">
        <ele>208</ele>
        <time>2020-10-03T12:45:02.000Z</time>
      </trkpt>
      <trkpt lat="43.60981" lon="0.90703">
        <ele>207.56818909091</ele>
        <time>2020-10-03T12:45:03.000Z</time>
      </trkpt>
      <trkpt lat="43.60982" lon="0.90699">
        <ele>207</ele>
        <time>2020-10-03T12:45:04.000Z</time>
      </trkpt>
      <trkpt lat="43.60983" lon="0.90695">
        <ele>207</ele>
        <time>2020-10-03T12:45:05.000Z</time>
      </trkpt>
      <trkpt lat="43.60984" lon="0.9069">
        <ele>207</ele>
        <time>2020-10-03T12:45:06.000Z</time>
      </trkpt>
      <trkpt lat="43.60985" lon="0.90686">
        <ele>206.54255290177</ele>
        <time>2020-10-03T12:45:07.000Z</time>
      </trkpt>
      <trkpt lat="43.60986" lon="0.90681">
        <ele>206</ele>
        <time>2020-10-03T12:45:08.000Z</time>
      </trkpt>
      <trkpt lat="43.60987" lon="0.90677">
        <ele>206</ele>
        <time>2020-10-03T12:45:09.000Z</time>
      </trkpt>
      <trkpt lat="43.60988" lon="0.90673">
        <ele>205.60869565217</ele>
        <time>2020-10-03T12:45:10.000Z</time>
      </trkpt>
      <trkpt lat="43.60989" lon="0.90669">
        <ele>205</ele>
        <time>2020-10-03T12:45:11.000Z</time>
      </trkpt>
      <trkpt lat="43.6099" lon="0.90665">
        <ele>205</ele>
        <time>2020-10-03T12:45:12.000Z</time>
      </trkpt>
      <trkpt lat="43.6099" lon="0.90661">
        <ele>205</ele>
        <time>2020-10-03T12:45:13.000Z</time>
      </trkpt>
      <trkpt lat="43.60992" lon="0.90657">
        <ele>205</ele>
        <time>2020-10-03T12:45:14.000Z</time>
      </trkpt>
      <trkpt lat="43.60993" lon="0.90653">
        <ele>205</ele>
        <time>2020-10-03T12:45:15.000Z</time>
      </trkpt>
      <trkpt lat="43.60993" lon="0.90649">
        <ele>205</ele>
        <time>2020-10-03T12:45:16.000Z</time>
      </trkpt>
      <trkpt lat="43.60994" lon="0.90645">
        <ele>205</ele>
        <time>2020-10-03T12:45:17.000Z</time>
      </trkpt>
      <trkpt lat="43.60995" lon="0.9064">
        <ele>205</ele>
        <time>2020-10-03T12:45:18.000Z</time>
      </trkpt>
      <trkpt lat="43.60996" lon="0.90636">
        <ele>205</ele>
        <time>2020-10-03T12:45:19.000Z</time>
      </trkpt>
      <trkpt lat="43.60997" lon="0.90632">
        <ele>205</ele>
        <time>2020-10-03T12:45:20.000Z</time>
      </trkpt>
      <trkpt lat="43.60998" lon="0.90628">
        <ele>205</ele>
        <time>2020-10-03T12:45:21.000Z</time>
      </trkpt>
      <trkpt lat="43.60999" lon="0.90625">
        <ele>205</ele>
        <time>2020-10-03T12:45:22.000Z</time>
      </trkpt>
      <trkpt lat="43.61" lon="0.90621">
        <ele>205</ele>
        <time>2020-10-03T12:45:23.000Z</time>
      </trkpt>
      <trkpt lat="43.61001" lon="0.90617">
        <ele>205</ele>
        <time>2020-10-03T12:45:24.000Z</time>
      </trkpt>
      <trkpt lat="43.61001" lon="0.90613">
        <ele>205</ele>
        <time>2020-10-03T12:45:25.000Z</time>
      </trkpt>
      <trkpt lat="43.61002" lon="0.90609">
        <ele>205</ele>
        <time>2020-10-03T12:45:26.000Z</time>
      </trkpt>
      <trkpt lat="43.61002" lon="0.90605">
        <ele>205</ele>
        <time>2020-10-03T12:45:27.000Z</time>
      </trkpt>
      <trkpt lat="43.61003" lon="0.90601">
        <ele>205</ele>
        <time>2020-10-03T12:45:28.000Z</time>
      </trkpt>
      <trkpt lat="43.61004" lon="0.90598">
        <ele>205</ele>
        <time>2020-10-03T12:45:29.000Z</time>
      </trkpt>
      <trkpt lat="43.61004" lon="0.90594">
        <ele>205</ele>
        <time>2020-10-03T12:45:30.000Z</time>
      </trkpt>
      <trkpt lat="43.61005" lon="0.9059">
        <ele>205</ele>
        <time>2020-10-03T12:45:31.000Z</time>
      </trkpt>
      <trkpt lat="43.61005" lon="0.90586">
        <ele>205</ele>
        <time>2020-10-03T12:45:32.000Z</time>
      </trkpt>
      <trkpt lat="43.61006" lon="0.90582">
        <ele>205</ele>
        <time>2020-10-03T12:45:33.000Z</time>
      </trkpt>
      <trkpt lat="43.61006" lon="0.90578">
        <ele>205</ele>
        <time>2020-10-03T12:45:34.000Z</time>
      </trkpt>
      <trkpt lat="43.61007" lon="0.90575">
        <ele>205.45454862808</ele>
        <time>2020-10-03T12:45:35.000Z</time>
      </trkpt>
      <trkpt lat="43.61008" lon="0.90571">
        <ele>206</ele>
        <time>2020-10-03T12:45:36.000Z</time>
      </trkpt>
      <trkpt lat="43.61009" lon="0.90567">
        <ele>206</ele>
        <time>2020-10-03T12:45:37.000Z</time>
      </trkpt>
      <trkpt lat="43.61009" lon="0.90563">
        <ele>206</ele>
        <time>2020-10-03T12:45:38.000Z</time>
      </trkpt>
      <trkpt lat="43.6101" lon="0.9056">
        <ele>206</ele>
        <time>2020-10-03T12:45:39.000Z</time>
      </trkpt>
      <trkpt lat="43.61011" lon="0.90556">
        <ele>206</ele>
        <time>2020-10-03T12:45:40.000Z</time>
      </trkpt>
      <trkpt lat="43.61012" lon="0.90552">
        <ele>206</ele>
        <time>2020-10-03T12:45:41.000Z</time>
      </trkpt>
      <trkpt lat="43.61013" lon="0.90549">
        <ele>206</ele>
        <time>2020-10-03T12:45:42.000Z</time>
      </trkpt>
      <trkpt lat="43.61014" lon="0.90545">
        <ele>206</ele>
        <time>2020-10-03T12:45:43.000Z</time>
      </trkpt>
      <trkpt lat="43.61014" lon="0.90542">
        <ele>206</ele>
        <time>2020-10-03T12:45:44.000Z</time>
      </trkpt>
      <trkpt lat="43.61015" lon="0.90538">
        <ele>206</ele>
        <time>2020-10-03T12:45:45.000Z</time>
      </trkpt>
      <trkpt lat="43.61016" lon="0.90534">
        <ele>206</ele>
        <time>2020-10-03T12:45:46.000Z</time>
      </trkpt>
      <trkpt lat="43.61017" lon="0.9053">
        <ele>206</ele>
        <time>2020-10-03T12:45:47.000Z</time>
      </trkpt>
      <trkpt lat="43.61017" lon="0.90527">
        <ele>206</ele>
        <time>2020-10-03T12:45:48.000Z</time>
      </trkpt>
      <trkpt lat="43.61018" lon="0.90522">
        <ele>206</ele>
        <time>2020-10-03T12:45:49.000Z</time>
      </trkpt>
      <trkpt lat="43.61018" lon="0.90518">
        <ele>206</ele>
        <time>2020-10-03T12:45:50.000Z</time>
      </trkpt>
      <trkpt lat="43.61019" lon="0.90514">
        <ele>206</ele>
        <time>2020-10-03T12:45:51.000Z</time>
      </trkpt>
      <trkpt lat="43.61019" lon="0.9051">
        <ele>206</ele>
        <time>2020-10-03T12:45:52.000Z</time>
      </trkpt>
      <trkpt lat="43.6102" lon="0.90506">
        <ele>205.5588238985</ele>
        <time>2020-10-03T12:45:53.000Z</time>
      </trkpt>
      <trkpt lat="43.6102" lon="0.90502">
        <ele>205</ele>
        <time>2020-10-03T12:45:54.000Z</time>
      </trkpt>
      <trkpt lat="43.61021" lon="0.90498">
        <ele>205</ele>
        <time>2020-10-03T12:45:55.000Z</time>
      </trkpt>
      <trkpt lat="43.61021" lon="0.90494">
        <ele>205</ele>
        <time>2020-10-03T12:45:56.000Z</time>
      </trkpt>
      <trkpt lat="43.61022" lon="0.9049">
        <ele>205</ele>
        <time>2020-10-03T12:45:57.000Z</time>
      </trkpt>
      <trkpt lat="43.61022" lon="0.90486">
        <ele>205</ele>
        <time>2020-10-03T12:45:58.000Z</time>
      </trkpt>
      <trkpt lat="43.61023" lon="0.90482">
        <ele>205</ele>
        <time>2020-10-03T12:45:59.000Z</time>
      </trkpt>
      <trkpt lat="43.61023" lon="0.90477">
        <ele>205</ele>
        <time>2020-10-03T12:46:00.000Z</time>
      </trkpt>
      <trkpt lat="43.61023" lon="0.90473">
        <ele>204.5699968</ele>
        <time>2020-10-03T12:46:01.000Z</time>
      </trkpt>
      <trkpt lat="43.61023" lon="0.90469">
        <ele>204</ele>
        <time>2020-10-03T12:46:02.000Z</time>
      </trkpt>
      <trkpt lat="43.61024" lon="0.90465">
        <ele>204</ele>
        <time>2020-10-03T12:46:03.000Z</time>
      </trkpt>
      <trkpt lat="43.61024" lon="0.9046">
        <ele>204</ele>
        <time>2020-10-03T12:46:04.000Z</time>
      </trkpt>
      <trkpt lat="43.61024" lon="0.90456">
        <ele>204</ele>
        <time>2020-10-03T12:46:05.000Z</time>
      </trkpt>
      <trkpt lat="43.61024" lon="0.90452">
        <ele>204</ele>
        <time>2020-10-03T12:46:06.000Z</time>
      </trkpt>
      <trkpt lat="43.61024" lon="0.90447">
        <ele>204</ele>
        <time>2020-10-03T12:46:07.000Z</time>
      </trkpt>
      <trkpt lat="43.61024" lon="0.90443">
        <ele>203.54285574966</ele>
        <time>2020-10-03T12:46:08.000Z</time>
      </trkpt>
      <trkpt lat="43.61025" lon="0.90438">
        <ele>203</ele>
        <time>2020-10-03T12:46:09.000Z</time>
      </trkpt>
      <trkpt lat="43.61025" lon="0.90434">
        <ele>203</ele>
        <time>2020-10-03T12:46:10.000Z</time>
      </trkpt>
      <trkpt lat="43.61025" lon="0.90429">
        <ele>203</ele>
        <time>2020-10-03T12:46:11.000Z</time>
      </trkpt>
      <trkpt lat="43.61025" lon="0.90425">
        <ele>203</ele>
        <time>2020-10-03T12:46:12.000Z</time>
      </trkpt>
      <trkpt lat="43.61025" lon="0.90421">
        <ele>203</ele>
        <time>2020-10-03T12:46:13.000Z</time>
      </trkpt>
      <trkpt lat="43.61026" lon="0.90417">
        <ele>203</ele>
        <time>2020-10-03T12:46:14.000Z</time>
      </trkpt>
      <trkpt lat="43.61026" lon="0.90413">
        <ele>203</ele>
        <time>2020-10-03T12:46:15.000Z</time>
      </trkpt>
      <trkpt lat="43.61027" lon="0.90409">
        <ele>203</ele>
        <time>2020-10-03T12:46:16.000Z</time>
      </trkpt>
      <trkpt lat="43.61027" lon="0.90405">
        <ele>203</ele>
        <time>2020-10-03T12:46:17.000Z</time>
      </trkpt>
      <trkpt lat="43.61028" lon="0.90401">
        <ele>203</ele>
        <time>2020-10-03T12:46:18.000Z</time>
      </trkpt>
      <trkpt lat="43.61028" lon="0.90398">
        <ele>203.25</ele>
        <time>2020-10-03T12:46:19.000Z</time>
      </trkpt>
      <trkpt lat="43.61028" lon="0.90394">
        <ele>204</ele>
        <time>2020-10-03T12:46:20.000Z</time>
      </trkpt>
      <trkpt lat="43.61029" lon="0.9039">
        <ele>204</ele>
        <time>2020-10-03T12:46:21.000Z</time>
      </trkpt>
      <trkpt lat="43.61029" lon="0.90387">
        <ele>204</ele>
        <time>2020-10-03T12:46:22.000Z</time>
      </trkpt>
      <trkpt lat="43.6103" lon="0.90383">
        <ele>204</ele>
        <time>2020-10-03T12:46:23.000Z</time>
      </trkpt>
      <trkpt lat="43.61031" lon="0.90379">
        <ele>204</ele>
        <time>2020-10-03T12:46:24.000Z</time>
      </trkpt>
      <trkpt lat="43.61031" lon="0.90376">
        <ele>204</ele>
        <time>2020-10-03T12:46:25.000Z</time>
      </trkpt>
      <trkpt lat="43.61032" lon="0.90372">
        <ele>204</ele>
        <time>2020-10-03T12:46:26.000Z</time>
      </trkpt>
      <trkpt lat="43.61032" lon="0.90368">
        <ele>204</ele>
        <time>2020-10-03T12:46:27.000Z</time>
      </trkpt>
      <trkpt lat="43.61033" lon="0.90364">
        <ele>204</ele>
        <time>2020-10-03T12:46:28.000Z</time>
      </trkpt>
      <trkpt lat="43.61033" lon="0.9036">
        <ele>204</ele>
        <time>2020-10-03T12:46:29.000Z</time>
      </trkpt>
      <trkpt lat="43.61034" lon="0.90356">
        <ele>204</ele>
        <time>2020-10-03T12:46:30.000Z</time>
      </trkpt>
      <trkpt lat="43.61034" lon="0.90352">
        <ele>204</ele>
        <time>2020-10-03T12:46:31.000Z</time>
      </trkpt>
      <trkpt lat="43.61035" lon="0.90349">
        <ele>204</ele>
        <time>2020-10-03T12:46:32.000Z</time>
      </trkpt>
      <trkpt lat="43.61035" lon="0.90345">
        <ele>204</ele>
        <time>2020-10-03T12:46:33.000Z</time>
      </trkpt>
      <trkpt lat="43.61036" lon="0.90342">
        <ele>204</ele>
        <time>2020-10-03T12:46:34.000Z</time>
      </trkpt>
      <trkpt lat="43.61036" lon="0.90338">
        <ele>204</ele>
        <time>2020-10-03T12:46:35.000Z</time>
      </trkpt>
      <trkpt lat="43.61036" lon="0.90334">
        <ele>204</ele>
        <time>2020-10-03T12:46:36.000Z</time>
      </trkpt>
      <trkpt lat="43.61037" lon="0.9033">
        <ele>204</ele>
        <time>2020-10-03T12:46:37.000Z</time>
      </trkpt>
      <trkpt lat="43.61038" lon="0.90326">
        <ele>204</ele>
        <time>2020-10-03T12:46:38.000Z</time>
      </trkpt>
      <trkpt lat="43.61038" lon="0.90323">
        <ele>204</ele>
        <time>2020-10-03T12:46:39.000Z</time>
      </trkpt>
      <trkpt lat="43.61039" lon="0.90319">
        <ele>204</ele>
        <time>2020-10-03T12:46:40.000Z</time>
      </trkpt>
      <trkpt lat="43.61039" lon="0.90315">
        <ele>204</ele>
        <time>2020-10-03T12:46:41.000Z</time>
      </trkpt>
      <trkpt lat="43.61039" lon="0.90312">
        <ele>204.79208171749</ele>
        <time>2020-10-03T12:46:42.000Z</time>
      </trkpt>
      <trkpt lat="43.61039" lon="0.90309">
        <ele>206</ele>
        <time>2020-10-03T12:46:43.000Z</time>
      </trkpt>
      <trkpt lat="43.6104" lon="0.90305">
        <ele>206</ele>
        <time>2020-10-03T12:46:44.000Z</time>
      </trkpt>
      <trkpt lat="43.6104" lon="0.90301">
        <ele>206</ele>
        <time>2020-10-03T12:46:45.000Z</time>
      </trkpt>
      <trkpt lat="43.6104" lon="0.90298">
        <ele>206</ele>
        <time>2020-10-03T12:46:46.000Z</time>
      </trkpt>
      <trkpt lat="43.6104" lon="0.90294">
        <ele>205.68085260903</ele>
        <time>2020-10-03T12:46:47.000Z</time>
      </trkpt>
      <trkpt lat="43.6104" lon="0.90291">
        <ele>205</ele>
        <time>2020-10-03T12:46:48.000Z</time>
      </trkpt>
      <trkpt lat="43.6104" lon="0.90287">
        <ele>205</ele>
        <time>2020-10-03T12:46:49.000Z</time>
      </trkpt>
      <trkpt lat="43.61041" lon="0.90283">
        <ele>205</ele>
        <time>2020-10-03T12:46:50.000Z</time>
      </trkpt>
      <trkpt lat="43.61041" lon="0.90279">
        <ele>205</ele>
        <time>2020-10-03T12:46:51.000Z</time>
      </trkpt>
      <trkpt lat="43.61041" lon="0.90276">
        <ele>205</ele>
        <time>2020-10-03T12:46:52.000Z</time>
      </trkpt>
      <trkpt lat="43.61041" lon="0.90272">
        <ele>205</ele>
        <time>2020-10-03T12:46:53.000Z</time>
      </trkpt>
      <trkpt lat="43.61041" lon="0.90268">
        <ele>205</ele>
        <time>2020-10-03T12:46:54.000Z</time>
      </trkpt>
      <trkpt lat="43.61041" lon="0.90264">
        <ele>205</ele>
        <time>2020-10-03T12:46:55.000Z</time>
      </trkpt>
      <trkpt lat="43.61041" lon="0.9026">
        <ele>205</ele>
        <time>2020-10-03T12:46:56.000Z</time>
      </trkpt>
      <trkpt lat="43.61041" lon="0.90256">
        <ele>205</ele>
        <time>2020-10-03T12:46:57.000Z</time>
      </trkpt>
      <trkpt lat="43.61042" lon="0.90252">
        <ele>204</ele>
        <time>2020-10-03T12:46:58.000Z</time>
      </trkpt>
      <trkpt lat="43.61042" lon="0.90249">
        <ele>204</ele>
        <time>2020-10-03T12:46:59.000Z</time>
      </trkpt>
      <trkpt lat="43.61042" lon="0.90245">
        <ele>203.05661015312</ele>
        <time>2020-10-03T12:47:00.000Z</time>
      </trkpt>
      <trkpt lat="43.61042" lon="0.90241">
        <ele>201.53191808056</ele>
        <time>2020-10-03T12:47:01.000Z</time>
      </trkpt>
      <trkpt lat="43.61042" lon="0.90237">
        <ele>201.5</ele>
        <time>2020-10-03T12:47:02.000Z</time>
      </trkpt>
      <trkpt lat="43.61041" lon="0.90233">
        <ele>202</ele>
        <time>2020-10-03T12:47:03.000Z</time>
      </trkpt>
      <trkpt lat="43.61041" lon="0.90229">
        <ele>202</ele>
        <time>2020-10-03T12:47:04.000Z</time>
      </trkpt>
      <trkpt lat="43.61041" lon="0.90221">
        <ele>202</ele>
        <time>2020-10-03T12:47:06.000Z</time>
      </trkpt>
      <trkpt lat="43.61041" lon="0.90217">
        <ele>202</ele>
        <time>2020-10-03T12:47:07.000Z</time>
      </trkpt>
      <trkpt lat="43.6104" lon="0.90213">
        <ele>202</ele>
        <time>2020-10-03T12:47:08.000Z</time>
      </trkpt>
      <trkpt lat="43.6104" lon="0.90209">
        <ele>202</ele>
        <time>2020-10-03T12:47:09.000Z</time>
      </trkpt>
      <trkpt lat="43.6104" lon="0.90204">
        <ele>201.59574062474</ele>
        <time>2020-10-03T12:47:10.000Z</time>
      </trkpt>
      <trkpt lat="43.6104" lon="0.902">
        <ele>201</ele>
        <time>2020-10-03T12:47:11.000Z</time>
      </trkpt>
      <trkpt lat="43.6104" lon="0.90196">
        <ele>201</ele>
        <time>2020-10-03T12:47:12.000Z</time>
      </trkpt>
      <trkpt lat="43.6104" lon="0.90192">
        <ele>200.73451818625</ele>
        <time>2020-10-03T12:47:13.000Z</time>
      </trkpt>
      <trkpt lat="43.61039" lon="0.90188">
        <ele>200</ele>
        <time>2020-10-03T12:47:14.000Z</time>
      </trkpt>
      <trkpt lat="43.61039" lon="0.90184">
        <ele>200</ele>
        <time>2020-10-03T12:47:15.000Z</time>
      </trkpt>
      <trkpt lat="43.61039" lon="0.9018">
        <ele>200</ele>
        <time>2020-10-03T12:47:16.000Z</time>
      </trkpt>
      <trkpt lat="43.61038" lon="0.90176">
        <ele>200</ele>
        <time>2020-10-03T12:47:17.000Z</time>
      </trkpt>
      <trkpt lat="43.61038" lon="0.90172">
        <ele>200</ele>
        <time>2020-10-03T12:47:18.000Z</time>
      </trkpt>
      <trkpt lat="43.61038" lon="0.90168">
        <ele>199.58427176367</ele>
        <time>2020-10-03T12:47:19.000Z</time>
      </trkpt>
      <trkpt lat="43.61037" lon="0.90163">
        <ele>199</ele>
        <time>2020-10-03T12:47:20.000Z</time>
      </trkpt>
      <trkpt lat="43.61037" lon="0.9016">
        <ele>199</ele>
        <time>2020-10-03T12:47:21.000Z</time>
      </trkpt>
      <trkpt lat="43.61037" lon="0.90156">
        <ele>199</ele>
        <time>2020-10-03T12:47:22.000Z</time>
      </trkpt>
      <trkpt lat="43.61036" lon="0.90152">
        <ele>199</ele>
        <time>2020-10-03T12:47:23.000Z</time>
      </trkpt>
      <trkpt lat="43.61035" lon="0.90148">
        <ele>199</ele>
        <time>2020-10-03T12:47:24.000Z</time>
      </trkpt>
      <trkpt lat="43.61034" lon="0.90144">
        <ele>199</ele>
        <time>2020-10-03T12:47:25.000Z</time>
      </trkpt>
      <trkpt lat="43.61034" lon="0.9014">
        <ele>199</ele>
        <time>2020-10-03T12:47:26.000Z</time>
      </trkpt>
      <trkpt lat="43.61033" lon="0.90136">
        <ele>199</ele>
        <time>2020-10-03T12:47:27.000Z</time>
      </trkpt>
      <trkpt lat="43.61032" lon="0.90132">
        <ele>199</ele>
        <time>2020-10-03T12:47:28.000Z</time>
      </trkpt>
      <trkpt lat="43.61032" lon="0.90128">
        <ele>199</ele>
        <time>2020-10-03T12:47:29.000Z</time>
      </trkpt>
      <trkpt lat="43.61031" lon="0.90124">
        <ele>199</ele>
        <time>2020-10-03T12:47:30.000Z</time>
      </trkpt>
      <trkpt lat="43.61031" lon="0.9012">
        <ele>199</ele>
        <time>2020-10-03T12:47:31.000Z</time>
      </trkpt>
      <trkpt lat="43.61031" lon="0.90116">
        <ele>199</ele>
        <time>2020-10-03T12:47:32.000Z</time>
      </trkpt>
      <trkpt lat="43.61032" lon="0.90113">
        <ele>199</ele>
        <time>2020-10-03T12:47:33.000Z</time>
      </trkpt>
      <trkpt lat="43.61032" lon="0.90109">
        <ele>198.62727346777</ele>
        <time>2020-10-03T12:47:34.000Z</time>
      </trkpt>
      <trkpt lat="43.61032" lon="0.90105">
        <ele>198</ele>
        <time>2020-10-03T12:47:35.000Z</time>
      </trkpt>
      <trkpt lat="43.61032" lon="0.90102">
        <ele>198</ele>
        <time>2020-10-03T12:47:36.000Z</time>
      </trkpt>
      <trkpt lat="43.61032" lon="0.90098">
        <ele>198</ele>
        <time>2020-10-03T12:47:37.000Z</time>
      </trkpt>
      <trkpt lat="43.61032" lon="0.90095">
        <ele>198</ele>
        <time>2020-10-03T12:47:38.000Z</time>
      </trkpt>
      <trkpt lat="43.61031" lon="0.90092">
        <ele>198</ele>
        <time>2020-10-03T12:47:39.000Z</time>
      </trkpt>
      <trkpt lat="43.61031" lon="0.90088">
        <ele>198</ele>
        <time>2020-10-03T12:47:40.000Z</time>
      </trkpt>
      <trkpt lat="43.61031" lon="0.90084">
        <ele>198</ele>
        <time>2020-10-03T12:47:41.000Z</time>
      </trkpt>
      <trkpt lat="43.61031" lon="0.90081">
        <ele>198.48543520406</ele>
        <time>2020-10-03T12:47:42.000Z</time>
      </trkpt>
      <trkpt lat="43.6103" lon="0.90077">
        <ele>199</ele>
        <time>2020-10-03T12:47:43.000Z</time>
      </trkpt>
      <trkpt lat="43.6103" lon="0.90073">
        <ele>199</ele>
        <time>2020-10-03T12:47:44.000Z</time>
      </trkpt>
      <trkpt lat="43.61029" lon="0.9007">
        <ele>198.71233188967</ele>
        <time>2020-10-03T12:47:45.000Z</time>
      </trkpt>
      <trkpt lat="43.61029" lon="0.90067">
        <ele>198</ele>
        <time>2020-10-03T12:47:46.000Z</time>
      </trkpt>
      <trkpt lat="43.61028" lon="0.90063">
        <ele>198</ele>
        <time>2020-10-03T12:47:47.000Z</time>
      </trkpt>
      <trkpt lat="43.61027" lon="0.9006">
        <ele>197.65555444939</ele>
        <time>2020-10-03T12:47:48.000Z</time>
      </trkpt>
      <trkpt lat="43.61026" lon="0.90056">
        <ele>197</ele>
        <time>2020-10-03T12:47:49.000Z</time>
      </trkpt>
      <trkpt lat="43.61025" lon="0.90053">
        <ele>197</ele>
        <time>2020-10-03T12:47:50.000Z</time>
      </trkpt>
      <trkpt lat="43.61023" lon="0.90049">
        <ele>197</ele>
        <time>2020-10-03T12:47:51.000Z</time>
      </trkpt>
      <trkpt lat="43.61022" lon="0.90046">
        <ele>197</ele>
        <time>2020-10-03T12:47:52.000Z</time>
      </trkpt>
      <trkpt lat="43.61021" lon="0.90043">
        <ele>197</ele>
        <time>2020-10-03T12:47:53.000Z</time>
      </trkpt>
      <trkpt lat="43.61019" lon="0.90039">
        <ele>197</ele>
        <time>2020-10-03T12:47:54.000Z</time>
      </trkpt>
      <trkpt lat="43.61018" lon="0.90035">
        <ele>196.50980072282</ele>
        <time>2020-10-03T12:47:55.000Z</time>
      </trkpt>
      <trkpt lat="43.61017" lon="0.90032">
        <ele>196</ele>
        <time>2020-10-03T12:47:56.000Z</time>
      </trkpt>
      <trkpt lat="43.61015" lon="0.90029">
        <ele>196</ele>
        <time>2020-10-03T12:47:57.000Z</time>
      </trkpt>
      <trkpt lat="43.61014" lon="0.90025">
        <ele>196</ele>
        <time>2020-10-03T12:47:58.000Z</time>
      </trkpt>
      <trkpt lat="43.61012" lon="0.90022">
        <ele>196</ele>
        <time>2020-10-03T12:47:59.000Z</time>
      </trkpt>
      <trkpt lat="43.61011" lon="0.90019">
        <ele>196</ele>
        <time>2020-10-03T12:48:00.000Z</time>
      </trkpt>
      <trkpt lat="43.61009" lon="0.90015">
        <ele>196</ele>
        <time>2020-10-03T12:48:01.000Z</time>
      </trkpt>
      <trkpt lat="43.61008" lon="0.90012">
        <ele>195.59259259259</ele>
        <time>2020-10-03T12:48:02.000Z</time>
      </trkpt>
      <trkpt lat="43.61006" lon="0.90008">
        <ele>195</ele>
        <time>2020-10-03T12:48:03.000Z</time>
      </trkpt>
      <trkpt lat="43.61005" lon="0.90005">
        <ele>195</ele>
        <time>2020-10-03T12:48:04.000Z</time>
      </trkpt>
      <trkpt lat="43.61004" lon="0.90001">
        <ele>195</ele>
        <time>2020-10-03T12:48:05.000Z</time>
      </trkpt>
      <trkpt lat="43.61002" lon="0.89997">
        <ele>195</ele>
        <time>2020-10-03T12:48:06.000Z</time>
      </trkpt>
      <trkpt lat="43.61001" lon="0.89993">
        <ele>194.65467705398</ele>
        <time>2020-10-03T12:48:07.000Z</time>
      </trkpt>
      <trkpt lat="43.61" lon="0.89989">
        <ele>194</ele>
        <time>2020-10-03T12:48:08.000Z</time>
      </trkpt>
      <trkpt lat="43.60999" lon="0.89985">
        <ele>194</ele>
        <time>2020-10-03T12:48:09.000Z</time>
      </trkpt>
      <trkpt lat="43.60998" lon="0.8998">
        <ele>194</ele>
        <time>2020-10-03T12:48:10.000Z</time>
      </trkpt>
      <trkpt lat="43.60998" lon="0.89976">
        <ele>193.25454693555</ele>
        <time>2020-10-03T12:48:11.000Z</time>
      </trkpt>
      <trkpt lat="43.60997" lon="0.89973">
        <ele>192</ele>
        <time>2020-10-03T12:48:12.000Z</time>
      </trkpt>
      <trkpt lat="43.60996" lon="0.89969">
        <ele>192</ele>
        <time>2020-10-03T12:48:13.000Z</time>
      </trkpt>
      <trkpt lat="43.60995" lon="0.89966">
        <ele>192</ele>
        <time>2020-10-03T12:48:14.000Z</time>
      </trkpt>
      <trkpt lat="43.60995" lon="0.89961">
        <ele>191</ele>
        <time>2020-10-03T12:48:16.000Z</time>
      </trkpt>
      <trkpt lat="43.60995" lon="0.89958">
        <ele>191</ele>
        <time>2020-10-03T12:48:18.000Z</time>
      </trkpt>
      <trkpt lat="43.60994" lon="0.89955">
        <ele>190</ele>
        <time>2020-10-03T12:48:22.000Z</time>
      </trkpt>
      <trkpt lat="43.60997" lon="0.89955">
        <ele>189</ele>
        <time>2020-10-03T12:48:25.000Z</time>
      </trkpt>
      <trkpt lat="43.60998" lon="0.89953">
        <ele>190</ele>
        <time>2020-10-03T12:48:29.000Z</time>
      </trkpt>
      <trkpt lat="43.61" lon="0.89951">
        <ele>190</ele>
        <time>2020-10-03T12:48:31.000Z</time>
      </trkpt>
      <trkpt lat="43.61002" lon="0.8995">
        <ele>190</ele>
        <time>2020-10-03T12:48:33.000Z</time>
      </trkpt>
      <trkpt lat="43.61005" lon="0.8995">
        <ele>191</ele>
        <time>2020-10-03T12:48:38.000Z</time>
      </trkpt>
      <trkpt lat="43.61006" lon="0.89951">
        <ele>191</ele>
        <time>2020-10-03T12:48:47.000Z</time>
      </trkpt>
      <trkpt lat="43.61004" lon="0.89954">
        <ele>191</ele>
        <time>2020-10-03T12:48:51.000Z</time>
      </trkpt>
      <trkpt lat="43.61004" lon="0.89958">
        <ele>191</ele>
        <time>2020-10-03T12:48:53.000Z</time>
      </trkpt>
      <trkpt lat="43.61002" lon="0.89961">
        <ele>191</ele>
        <time>2020-10-03T12:48:55.000Z</time>
      </trkpt>
      <trkpt lat="43.61" lon="0.89964">
        <ele>191</ele>
        <time>2020-10-03T12:48:57.000Z</time>
      </trkpt>
      <trkpt lat="43.60998" lon="0.89967">
        <ele>191</ele>
        <time>2020-10-03T12:48:58.000Z</time>
      </trkpt>
      <trkpt lat="43.60999" lon="0.89971">
        <ele>191</ele>
        <time>2020-10-03T12:49:00.000Z</time>
      </trkpt>
      <trkpt lat="43.61" lon="0.89974">
        <ele>190</ele>
        <time>2020-10-03T12:49:02.000Z</time>
      </trkpt>
      <trkpt lat="43.61001" lon="0.89978">
        <ele>190</ele>
        <time>2020-10-03T12:49:04.000Z</time>
      </trkpt>
      <trkpt lat="43.61002" lon="0.89982">
        <ele>190</ele>
        <time>2020-10-03T12:49:06.000Z</time>
      </trkpt>
      <trkpt lat="43.61002" lon="0.89986">
        <ele>190</ele>
        <time>2020-10-03T12:49:08.000Z</time>
      </trkpt>
      <trkpt lat="43.61003" lon="0.89989">
        <ele>190</ele>
        <time>2020-10-03T12:49:10.000Z</time>
      </trkpt>
      <trkpt lat="43.61004" lon="0.89993">
        <ele>190.86238359736</ele>
        <time>2020-10-03T12:49:12.000Z</time>
      </trkpt>
      <trkpt lat="43.61004" lon="0.89996">
        <ele>192</ele>
        <time>2020-10-03T12:49:14.000Z</time>
      </trkpt>
      <trkpt lat="43.61005" lon="0.89999">
        <ele>192</ele>
        <time>2020-10-03T12:49:16.000Z</time>
      </trkpt>
      <trkpt lat="43.61006" lon="0.90002">
        <ele>192</ele>
        <time>2020-10-03T12:49:18.000Z</time>
      </trkpt>
      <trkpt lat="43.61007" lon="0.90006">
        <ele>192</ele>
        <time>2020-10-03T12:49:20.000Z</time>
      </trkpt>
      <trkpt lat="43.61008" lon="0.90008">
        <ele>192</ele>
        <time>2020-10-03T12:49:22.000Z</time>
      </trkpt>
      <trkpt lat="43.61009" lon="0.90011">
        <ele>192.675008</ele>
        <time>2020-10-03T12:49:24.000Z</time>
      </trkpt>
      <trkpt lat="43.6101" lon="0.90014">
        <ele>194</ele>
        <time>2020-10-03T12:49:26.000Z</time>
      </trkpt>
      <trkpt lat="43.61012" lon="0.90017">
        <ele>195</ele>
        <time>2020-10-03T12:49:28.000Z</time>
      </trkpt>
      <trkpt lat="43.61014" lon="0.9002">
        <ele>195</ele>
        <time>2020-10-03T12:49:30.000Z</time>
      </trkpt>
      <trkpt lat="43.61015" lon="0.90023">
        <ele>196</ele>
        <time>2020-10-03T12:49:32.000Z</time>
      </trkpt>
      <trkpt lat="43.61017" lon="0.90026">
        <ele>196</ele>
        <time>2020-10-03T12:49:34.000Z</time>
      </trkpt>
      <trkpt lat="43.61018" lon="0.9003">
        <ele>197</ele>
        <time>2020-10-03T12:49:36.000Z</time>
      </trkpt>
      <trkpt lat="43.61019" lon="0.90034">
        <ele>197</ele>
        <time>2020-10-03T12:49:38.000Z</time>
      </trkpt>
      <trkpt lat="43.6102" lon="0.90037">
        <ele>197</ele>
        <time>2020-10-03T12:49:40.000Z</time>
      </trkpt>
      <trkpt lat="43.61022" lon="0.9004">
        <ele>197</ele>
        <time>2020-10-03T12:49:42.000Z</time>
      </trkpt>
      <trkpt lat="43.61024" lon="0.90044">
        <ele>198</ele>
        <time>2020-10-03T12:49:44.000Z</time>
      </trkpt>
      <trkpt lat="43.61025" lon="0.90047">
        <ele>198.41052830138</ele>
        <time>2020-10-03T12:49:46.000Z</time>
      </trkpt>
      <trkpt lat="43.61027" lon="0.90051">
        <ele>199</ele>
        <time>2020-10-03T12:49:48.000Z</time>
      </trkpt>
      <trkpt lat="43.61028" lon="0.90054">
        <ele>199</ele>
        <time>2020-10-03T12:49:50.000Z</time>
      </trkpt>
      <trkpt lat="43.6103" lon="0.90057">
        <ele>199</ele>
        <time>2020-10-03T12:49:52.000Z</time>
      </trkpt>
      <trkpt lat="43.61032" lon="0.9006">
        <ele>200</ele>
        <time>2020-10-03T12:49:54.000Z</time>
      </trkpt>
      <trkpt lat="43.61034" lon="0.90062">
        <ele>200</ele>
        <time>2020-10-03T12:49:56.000Z</time>
      </trkpt>
      <trkpt lat="43.61036" lon="0.90064">
        <ele>200</ele>
        <time>2020-10-03T12:50:01.000Z</time>
      </trkpt>
      <trkpt lat="43.61039" lon="0.90066">
        <ele>200</ele>
        <time>2020-10-03T12:50:03.000Z</time>
      </trkpt>
      <trkpt lat="43.61042" lon="0.90069">
        <ele>200</ele>
        <time>2020-10-03T12:50:05.000Z</time>
      </trkpt>
      <trkpt lat="43.61043" lon="0.90071">
        <ele>200</ele>
        <time>2020-10-03T12:50:06.000Z</time>
      </trkpt>
      <trkpt lat="43.61046" lon="0.90073">
        <ele>199</ele>
        <time>2020-10-03T12:50:08.000Z</time>
      </trkpt>
      <trkpt lat="43.61049" lon="0.90076">
        <ele>199</ele>
        <time>2020-10-03T12:50:10.000Z</time>
      </trkpt>
      <trkpt lat="43.61051" lon="0.90079">
        <ele>199</ele>
        <time>2020-10-03T12:50:12.000Z</time>
      </trkpt>
      <trkpt lat="43.61053" lon="0.90081">
        <ele>198.59550416361</ele>
        <time>2020-10-03T12:50:14.000Z</time>
      </trkpt>
      <trkpt lat="43.61056" lon="0.90081">
        <ele>198</ele>
        <time>2020-10-03T12:50:23.000Z</time>
      </trkpt>
      <trkpt lat="43.61058" lon="0.90082">
        <ele>198</ele>
        <time>2020-10-03T12:50:25.000Z</time>
      </trkpt>
      <trkpt lat="43.6106" lon="0.90084">
        <ele>198</ele>
        <time>2020-10-03T12:50:27.000Z</time>
      </trkpt>
      <trkpt lat="43.61058" lon="0.90084">
        <ele>198</ele>
        <time>2020-10-03T12:50:33.000Z</time>
      </trkpt>
      <trkpt lat="43.61056" lon="0.90082">
        <ele>195</ele>
        <time>2020-10-03T12:50:35.000Z</time>
      </trkpt>
      <trkpt lat="43.61054" lon="0.90081">
        <ele>195</ele>
        <time>2020-10-03T12:50:37.000Z</time>
      </trkpt>
      <trkpt lat="43.61052" lon="0.90079">
        <ele>195</ele>
        <time>2020-10-03T12:50:39.000Z</time>
      </trkpt>
      <trkpt lat="43.6105" lon="0.90078">
        <ele>195</ele>
        <time>2020-10-03T12:50:42.000Z</time>
      </trkpt>
      <trkpt lat="43.61047" lon="0.90076">
        <ele>195</ele>
        <time>2020-10-03T12:50:44.000Z</time>
      </trkpt>
      <trkpt lat="43.61045" lon="0.90074">
        <ele>195.77227622391</ele>
        <time>2020-10-03T12:50:46.000Z</time>
      </trkpt>
      <trkpt lat="43.61043" lon="0.90072">
        <ele>197</ele>
        <time>2020-10-03T12:50:48.000Z</time>
      </trkpt>
      <trkpt lat="43.61041" lon="0.90071">
        <ele>199</ele>
        <time>2020-10-03T12:50:50.000Z</time>
      </trkpt>
      <trkpt lat="43.61038" lon="0.90069">
        <ele>199</ele>
        <time>2020-10-03T12:50:52.000Z</time>
      </trkpt>
      <trkpt lat="43.61036" lon="0.90066">
        <ele>199</ele>
        <time>2020-10-03T12:50:54.000Z</time>
      </trkpt>
      <trkpt lat="43.61035" lon="0.90063">
        <ele>199</ele>
        <time>2020-10-03T12:50:56.000Z</time>
      </trkpt>
      <trkpt lat="43.61034" lon="0.90061">
        <ele>199</ele>
        <time>2020-10-03T12:50:58.000Z</time>
      </trkpt>
      <trkpt lat="43.61032" lon="0.90058">
        <ele>198</ele>
        <time>2020-10-03T12:51:23.000Z</time>
      </trkpt>
      <trkpt lat="43.61029" lon="0.90054">
        <ele>199</ele>
        <time>2020-10-03T12:51:25.000Z</time>
      </trkpt>
      <trkpt lat="43.61028" lon="0.9005">
        <ele>199</ele>
        <time>2020-10-03T12:51:26.000Z</time>
      </trkpt>
      <trkpt lat="43.61026" lon="0.90047">
        <ele>199</ele>
        <time>2020-10-03T12:51:27.000Z</time>
      </trkpt>
      <trkpt lat="43.61025" lon="0.90044">
        <ele>198.63953384533</ele>
        <time>2020-10-03T12:51:28.000Z</time>
      </trkpt>
      <trkpt lat="43.61023" lon="0.9004">
        <ele>198</ele>
        <time>2020-10-03T12:51:29.000Z</time>
      </trkpt>
      <trkpt lat="43.61021" lon="0.90037">
        <ele>198</ele>
        <time>2020-10-03T12:51:30.000Z</time>
      </trkpt>
      <trkpt lat="43.61019" lon="0.90033">
        <ele>198</ele>
        <time>2020-10-03T12:51:31.000Z</time>
      </trkpt>
      <trkpt lat="43.61018" lon="0.90029">
        <ele>197.68852097825</ele>
        <time>2020-10-03T12:51:32.000Z</time>
      </trkpt>
      <trkpt lat="43.61016" lon="0.90025">
        <ele>197</ele>
        <time>2020-10-03T12:51:33.000Z</time>
      </trkpt>
      <trkpt lat="43.61015" lon="0.90021">
        <ele>197</ele>
        <time>2020-10-03T12:51:34.000Z</time>
      </trkpt>
      <trkpt lat="43.61013" lon="0.90017">
        <ele>197</ele>
        <time>2020-10-03T12:51:35.000Z</time>
      </trkpt>
      <trkpt lat="43.61011" lon="0.90013">
        <ele>196.67289518386</ele>
        <time>2020-10-03T12:51:36.000Z</time>
      </trkpt>
      <trkpt lat="43.6101" lon="0.90009">
        <ele>196</ele>
        <time>2020-10-03T12:51:37.000Z</time>
      </trkpt>
      <trkpt lat="43.61008" lon="0.90005">
        <ele>196</ele>
        <time>2020-10-03T12:51:38.000Z</time>
      </trkpt>
      <trkpt lat="43.61007" lon="0.90001">
        <ele>195.3565219327</ele>
        <time>2020-10-03T12:51:39.000Z</time>
      </trkpt>
      <trkpt lat="43.61005" lon="0.89997">
        <ele>194</ele>
        <time>2020-10-03T12:51:40.000Z</time>
      </trkpt>
      <trkpt lat="43.61004" lon="0.89992">
        <ele>194</ele>
        <time>2020-10-03T12:51:41.000Z</time>
      </trkpt>
      <trkpt lat="43.61003" lon="0.89988">
        <ele>193.64285714286</ele>
        <time>2020-10-03T12:51:42.000Z</time>
      </trkpt>
      <trkpt lat="43.61001" lon="0.89984">
        <ele>193</ele>
        <time>2020-10-03T12:51:43.000Z</time>
      </trkpt>
      <trkpt lat="43.61" lon="0.8998">
        <ele>193</ele>
        <time>2020-10-03T12:51:44.000Z</time>
      </trkpt>
      <trkpt lat="43.60999" lon="0.89976">
        <ele>192.58620841854</ele>
        <time>2020-10-03T12:51:45.000Z</time>
      </trkpt>
      <trkpt lat="43.60998" lon="0.89971">
        <ele>192</ele>
        <time>2020-10-03T12:51:46.000Z</time>
      </trkpt>
      <trkpt lat="43.60997" lon="0.89967">
        <ele>192</ele>
        <time>2020-10-03T12:51:47.000Z</time>
      </trkpt>
      <trkpt lat="43.60995" lon="0.89963">
        <ele>192</ele>
        <time>2020-10-03T12:51:48.000Z</time>
      </trkpt>
      <trkpt lat="43.60994" lon="0.89958">
        <ele>191.58139846401</ele>
        <time>2020-10-03T12:51:49.000Z</time>
      </trkpt>
      <trkpt lat="43.60993" lon="0.89954">
        <ele>191</ele>
        <time>2020-10-03T12:51:50.000Z</time>
      </trkpt>
      <trkpt lat="43.60992" lon="0.89949">
        <ele>191</ele>
        <time>2020-10-03T12:51:51.000Z</time>
      </trkpt>
      <trkpt lat="43.60991" lon="0.89945">
        <ele>190.68831039298</ele>
        <time>2020-10-03T12:51:52.000Z</time>
      </trkpt>
      <trkpt lat="43.60991" lon="0.8994">
        <ele>188</ele>
        <time>2020-10-03T12:51:53.000Z</time>
      </trkpt>
      <trkpt lat="43.6099" lon="0.89936">
        <ele>188</ele>
        <time>2020-10-03T12:51:54.000Z</time>
      </trkpt>
      <trkpt lat="43.60989" lon="0.89932">
        <ele>188</ele>
        <time>2020-10-03T12:51:55.000Z</time>
      </trkpt>
      <trkpt lat="43.60988" lon="0.89928">
        <ele>188</ele>
        <time>2020-10-03T12:51:56.000Z</time>
      </trkpt>
      <trkpt lat="43.60987" lon="0.89923">
        <ele>188</ele>
        <time>2020-10-03T12:51:57.000Z</time>
      </trkpt>
      <trkpt lat="43.60986" lon="0.89919">
        <ele>188</ele>
        <time>2020-10-03T12:51:58.000Z</time>
      </trkpt>
      <trkpt lat="43.60985" lon="0.89915">
        <ele>188</ele>
        <time>2020-10-03T12:51:59.000Z</time>
      </trkpt>
      <trkpt lat="43.60985" lon="0.8991">
        <ele>187.04545454545</ele>
        <time>2020-10-03T12:52:00.000Z</time>
      </trkpt>
      <trkpt lat="43.60984" lon="0.89906">
        <ele>185</ele>
        <time>2020-10-03T12:52:01.000Z</time>
      </trkpt>
      <trkpt lat="43.60983" lon="0.89902">
        <ele>185</ele>
        <time>2020-10-03T12:52:02.000Z</time>
      </trkpt>
      <trkpt lat="43.60982" lon="0.89898">
        <ele>185</ele>
        <time>2020-10-03T12:52:03.000Z</time>
      </trkpt>
      <trkpt lat="43.60981" lon="0.89893">
        <ele>184.28570993204</ele>
        <time>2020-10-03T12:52:04.000Z</time>
      </trkpt>
      <trkpt lat="43.6098" lon="0.8989">
        <ele>183</ele>
        <time>2020-10-03T12:52:05.000Z</time>
      </trkpt>
      <trkpt lat="43.60979" lon="0.89885">
        <ele>183</ele>
        <time>2020-10-03T12:52:06.000Z</time>
      </trkpt>
      <trkpt lat="43.60978" lon="0.89881">
        <ele>183</ele>
        <time>2020-10-03T12:52:07.000Z</time>
      </trkpt>
      <trkpt lat="43.60977" lon="0.89878">
        <ele>183</ele>
        <time>2020-10-03T12:52:08.000Z</time>
      </trkpt>
      <trkpt lat="43.60976" lon="0.89874">
        <ele>183</ele>
        <time>2020-10-03T12:52:09.000Z</time>
      </trkpt>
      <trkpt lat="43.60974" lon="0.8987">
        <ele>183</ele>
        <time>2020-10-03T12:52:10.000Z</time>
      </trkpt>
      <trkpt lat="43.60973" lon="0.89866">
        <ele>183</ele>
        <time>2020-10-03T12:52:11.000Z</time>
      </trkpt>
      <trkpt lat="43.60972" lon="0.89863">
        <ele>183</ele>
        <time>2020-10-03T12:52:12.000Z</time>
      </trkpt>
      <trkpt lat="43.60971" lon="0.89859">
        <ele>183</ele>
        <time>2020-10-03T12:52:13.000Z</time>
      </trkpt>
      <trkpt lat="43.6097" lon="0.89855">
        <ele>183</ele>
        <time>2020-10-03T12:52:14.000Z</time>
      </trkpt>
      <trkpt lat="43.60969" lon="0.89851">
        <ele>180.2783415368</ele>
        <time>2020-10-03T12:52:15.000Z</time>
      </trkpt>
      <trkpt lat="43.60968" lon="0.89847">
        <ele>177</ele>
        <time>2020-10-03T12:52:16.000Z</time>
      </trkpt>
      <trkpt lat="43.60966" lon="0.89844">
        <ele>177</ele>
        <time>2020-10-03T12:52:17.000Z</time>
      </trkpt>
      <trkpt lat="43.60965" lon="0.8984">
        <ele>176.2352926413</ele>
        <time>2020-10-03T12:52:18.000Z</time>
      </trkpt>
      <trkpt lat="43.60963" lon="0.89836">
        <ele>175</ele>
        <time>2020-10-03T12:52:19.000Z</time>
      </trkpt>
      <trkpt lat="43.60962" lon="0.89832">
        <ele>175</ele>
        <time>2020-10-03T12:52:20.000Z</time>
      </trkpt>
      <trkpt lat="43.6096" lon="0.89828">
        <ele>175</ele>
        <time>2020-10-03T12:52:21.000Z</time>
      </trkpt>
      <trkpt lat="43.60959" lon="0.89824">
        <ele>175</ele>
        <time>2020-10-03T12:52:22.000Z</time>
      </trkpt>
      <trkpt lat="43.60957" lon="0.89821">
        <ele>175</ele>
        <time>2020-10-03T12:52:23.000Z</time>
      </trkpt>
      <trkpt lat="43.60956" lon="0.89817">
        <ele>175</ele>
        <time>2020-10-03T12:52:24.000Z</time>
      </trkpt>
      <trkpt lat="43.60954" lon="0.89813">
        <ele>174.15517793103</ele>
        <time>2020-10-03T12:52:25.000Z</time>
      </trkpt>
      <trkpt lat="43.60952" lon="0.89809">
        <ele>173</ele>
        <time>2020-10-03T12:52:26.000Z</time>
      </trkpt>
      <trkpt lat="43.6095" lon="0.89805">
        <ele>173</ele>
        <time>2020-10-03T12:52:27.000Z</time>
      </trkpt>
      <trkpt lat="43.60948" lon="0.89801">
        <ele>173</ele>
        <time>2020-10-03T12:52:28.000Z</time>
      </trkpt>
      <trkpt lat="43.60946" lon="0.89797">
        <ele>172.39007053569</ele>
        <time>2020-10-03T12:52:29.000Z</time>
      </trkpt>
      <trkpt lat="43.60944" lon="0.89794">
        <ele>171</ele>
        <time>2020-10-03T12:52:30.000Z</time>
      </trkpt>
      <trkpt lat="43.60942" lon="0.8979">
        <ele>171</ele>
        <time>2020-10-03T12:52:31.000Z</time>
      </trkpt>
      <trkpt lat="43.6094" lon="0.89786">
        <ele>170.28440410066</ele>
        <time>2020-10-03T12:52:32.000Z</time>
      </trkpt>
      <trkpt lat="43.60938" lon="0.89782">
        <ele>169</ele>
        <time>2020-10-03T12:52:33.000Z</time>
      </trkpt>
      <trkpt lat="43.60936" lon="0.89778">
        <ele>169</ele>
        <time>2020-10-03T12:52:34.000Z</time>
      </trkpt>
      <trkpt lat="43.60934" lon="0.89775">
        <ele>168.34146074957</ele>
        <time>2020-10-03T12:52:35.000Z</time>
      </trkpt>
      <trkpt lat="43.60932" lon="0.89771">
        <ele>167</ele>
        <time>2020-10-03T12:52:36.000Z</time>
      </trkpt>
      <trkpt lat="43.6093" lon="0.89768">
        <ele>167</ele>
        <time>2020-10-03T12:52:37.000Z</time>
      </trkpt>
      <trkpt lat="43.60928" lon="0.89765">
        <ele>167</ele>
        <time>2020-10-03T12:52:38.000Z</time>
      </trkpt>
      <trkpt lat="43.60926" lon="0.89761">
        <ele>166.18867810609</ele>
        <time>2020-10-03T12:52:39.000Z</time>
      </trkpt>
      <trkpt lat="43.60924" lon="0.89757">
        <ele>165</ele>
        <time>2020-10-03T12:52:40.000Z</time>
      </trkpt>
      <trkpt lat="43.60923" lon="0.89754">
        <ele>165</ele>
        <time>2020-10-03T12:52:41.000Z</time>
      </trkpt>
      <trkpt lat="43.60921" lon="0.8975">
        <ele>164.73493307014</ele>
        <time>2020-10-03T12:52:42.000Z</time>
      </trkpt>
      <trkpt lat="43.60919" lon="0.89747">
        <ele>163</ele>
        <time>2020-10-03T12:52:43.000Z</time>
      </trkpt>
      <trkpt lat="43.60917" lon="0.89743">
        <ele>163</ele>
        <time>2020-10-03T12:52:44.000Z</time>
      </trkpt>
      <trkpt lat="43.60916" lon="0.89739">
        <ele>163</ele>
        <time>2020-10-03T12:52:45.000Z</time>
      </trkpt>
      <trkpt lat="43.60914" lon="0.89736">
        <ele>162.6315824931</ele>
        <time>2020-10-03T12:52:46.000Z</time>
      </trkpt>
      <trkpt lat="43.60912" lon="0.89732">
        <ele>162</ele>
        <time>2020-10-03T12:52:47.000Z</time>
      </trkpt>
      <trkpt lat="43.6091" lon="0.89729">
        <ele>162</ele>
        <time>2020-10-03T12:52:48.000Z</time>
      </trkpt>
      <trkpt lat="43.60908" lon="0.89726">
        <ele>162</ele>
        <time>2020-10-03T12:52:49.000Z</time>
      </trkpt>
      <trkpt lat="43.60907" lon="0.89723">
        <ele>161.5699968</ele>
        <time>2020-10-03T12:52:50.000Z</time>
      </trkpt>
      <trkpt lat="43.60905" lon="0.89719">
        <ele>161</ele>
        <time>2020-10-03T12:52:51.000Z</time>
      </trkpt>
      <trkpt lat="43.60904" lon="0.89716">
        <ele>161</ele>
        <time>2020-10-03T12:52:52.000Z</time>
      </trkpt>
      <trkpt lat="43.60903" lon="0.89712">
        <ele>161</ele>
        <time>2020-10-03T12:52:53.000Z</time>
      </trkpt>
      <trkpt lat="43.60901" lon="0.89709">
        <ele>161</ele>
        <time>2020-10-03T12:52:54.000Z</time>
      </trkpt>
      <trkpt lat="43.60901" lon="0.89704">
        <ele>161</ele>
        <time>2020-10-03T12:52:55.000Z</time>
      </trkpt>
      <trkpt lat="43.609" lon="0.897">
        <ele>161</ele>
        <time>2020-10-03T12:52:56.000Z</time>
      </trkpt>
      <trkpt lat="43.60899" lon="0.89696">
        <ele>161</ele>
        <time>2020-10-03T12:52:57.000Z</time>
      </trkpt>
      <trkpt lat="43.60898" lon="0.89692">
        <ele>161</ele>
        <time>2020-10-03T12:52:58.000Z</time>
      </trkpt>
      <trkpt lat="43.60898" lon="0.89689">
        <ele>161</ele>
        <time>2020-10-03T12:52:59.000Z</time>
      </trkpt>
      <trkpt lat="43.60897" lon="0.89685">
        <ele>161</ele>
        <time>2020-10-03T12:53:00.000Z</time>
      </trkpt>
      <trkpt lat="43.60897" lon="0.89681">
        <ele>161</ele>
        <time>2020-10-03T12:53:01.000Z</time>
      </trkpt>
      <trkpt lat="43.60896" lon="0.89677">
        <ele>161</ele>
        <time>2020-10-03T12:53:02.000Z</time>
      </trkpt>
      <trkpt lat="43.60895" lon="0.89673">
        <ele>161</ele>
        <time>2020-10-03T12:53:03.000Z</time>
      </trkpt>
      <trkpt lat="43.60895" lon="0.8967">
        <ele>161</ele>
        <time>2020-10-03T12:53:04.000Z</time>
      </trkpt>
      <trkpt lat="43.60894" lon="0.89666">
        <ele>161</ele>
        <time>2020-10-03T12:53:05.000Z</time>
      </trkpt>
      <trkpt lat="43.60893" lon="0.89663">
        <ele>161</ele>
        <time>2020-10-03T12:53:06.000Z</time>
      </trkpt>
      <trkpt lat="43.60893" lon="0.89659">
        <ele>161</ele>
        <time>2020-10-03T12:53:07.000Z</time>
      </trkpt>
      <trkpt lat="43.60892" lon="0.89655">
        <ele>161</ele>
        <time>2020-10-03T12:53:08.000Z</time>
      </trkpt>
      <trkpt lat="43.60892" lon="0.89652">
        <ele>161</ele>
        <time>2020-10-03T12:53:09.000Z</time>
      </trkpt>
      <trkpt lat="43.60891" lon="0.89648">
        <ele>161</ele>
        <time>2020-10-03T12:53:10.000Z</time>
      </trkpt>
      <trkpt lat="43.6089" lon="0.89645">
        <ele>161</ele>
        <time>2020-10-03T12:53:11.000Z</time>
      </trkpt>
      <trkpt lat="43.60889" lon="0.89641">
        <ele>160.57407319617</ele>
        <time>2020-10-03T12:53:12.000Z</time>
      </trkpt>
      <trkpt lat="43.60888" lon="0.89637">
        <ele>160</ele>
        <time>2020-10-03T12:53:13.000Z</time>
      </trkpt>
      <trkpt lat="43.60888" lon="0.89633">
        <ele>160</ele>
        <time>2020-10-03T12:53:14.000Z</time>
      </trkpt>
      <trkpt lat="43.60886" lon="0.8963">
        <ele>160.36046615467</ele>
        <time>2020-10-03T12:53:15.000Z</time>
      </trkpt>
      <trkpt lat="43.60885" lon="0.89626">
        <ele>161</ele>
        <time>2020-10-03T12:53:16.000Z</time>
      </trkpt>
      <trkpt lat="43.60885" lon="0.89622">
        <ele>161</ele>
        <time>2020-10-03T12:53:17.000Z</time>
      </trkpt>
      <trkpt lat="43.60884" lon="0.89619">
        <ele>161</ele>
        <time>2020-10-03T12:53:18.000Z</time>
      </trkpt>
      <trkpt lat="43.60883" lon="0.89615">
        <ele>161</ele>
        <time>2020-10-03T12:53:19.000Z</time>
      </trkpt>
      <trkpt lat="43.60882" lon="0.89612">
        <ele>161</ele>
        <time>2020-10-03T12:53:20.000Z</time>
      </trkpt>
      <trkpt lat="43.60881" lon="0.89608">
        <ele>161</ele>
        <time>2020-10-03T12:53:21.000Z</time>
      </trkpt>
      <trkpt lat="43.6088" lon="0.89605">
        <ele>161</ele>
        <time>2020-10-03T12:53:22.000Z</time>
      </trkpt>
      <trkpt lat="43.60879" lon="0.89602">
        <ele>161</ele>
        <time>2020-10-03T12:53:23.000Z</time>
      </trkpt>
      <trkpt lat="43.60878" lon="0.89598">
        <ele>161</ele>
        <time>2020-10-03T12:53:24.000Z</time>
      </trkpt>
      <trkpt lat="43.60876" lon="0.89595">
        <ele>161</ele>
        <time>2020-10-03T12:53:25.000Z</time>
      </trkpt>
      <trkpt lat="43.60875" lon="0.89592">
        <ele>161</ele>
        <time>2020-10-03T12:53:26.000Z</time>
      </trkpt>
      <trkpt lat="43.60873" lon="0.8959">
        <ele>161</ele>
        <time>2020-10-03T12:53:27.000Z</time>
      </trkpt>
      <trkpt lat="43.6087" lon="0.89588">
        <ele>161</ele>
        <time>2020-10-03T12:53:28.000Z</time>
      </trkpt>
      <trkpt lat="43.60868" lon="0.89587">
        <ele>161</ele>
        <time>2020-10-03T12:53:29.000Z</time>
      </trkpt>
      <trkpt lat="43.60866" lon="0.89586">
        <ele>161</ele>
        <time>2020-10-03T12:53:30.000Z</time>
      </trkpt>
      <trkpt lat="43.60864" lon="0.89584">
        <ele>161</ele>
        <time>2020-10-03T12:53:31.000Z</time>
      </trkpt>
      <trkpt lat="43.60861" lon="0.89583">
        <ele>161</ele>
        <time>2020-10-03T12:53:32.000Z</time>
      </trkpt>
      <trkpt lat="43.60858" lon="0.89581">
        <ele>160.62105390803</ele>
        <time>2020-10-03T12:53:33.000Z</time>
      </trkpt>
      <trkpt lat="43.60856" lon="0.8958">
        <ele>160</ele>
        <time>2020-10-03T12:53:34.000Z</time>
      </trkpt>
      <trkpt lat="43.60853" lon="0.89578">
        <ele>160</ele>
        <time>2020-10-03T12:53:35.000Z</time>
      </trkpt>
      <trkpt lat="43.60851" lon="0.89576">
        <ele>160</ele>
        <time>2020-10-03T12:53:36.000Z</time>
      </trkpt>
      <trkpt lat="43.60849" lon="0.89575">
        <ele>160.39285714286</ele>
        <time>2020-10-03T12:53:37.000Z</time>
      </trkpt>
      <trkpt lat="43.60846" lon="0.89573">
        <ele>161</ele>
        <time>2020-10-03T12:53:38.000Z</time>
      </trkpt>
      <trkpt lat="43.60843" lon="0.89572">
        <ele>161</ele>
        <time>2020-10-03T12:53:39.000Z</time>
      </trkpt>
      <trkpt lat="43.6084" lon="0.89571">
        <ele>161.2976152381</ele>
        <time>2020-10-03T12:53:40.000Z</time>
      </trkpt>
      <trkpt lat="43.60837" lon="0.8957">
        <ele>162</ele>
        <time>2020-10-03T12:53:41.000Z</time>
      </trkpt>
      <trkpt lat="43.60834" lon="0.89568">
        <ele>162</ele>
        <time>2020-10-03T12:53:42.000Z</time>
      </trkpt>
      <trkpt lat="43.60831" lon="0.89568">
        <ele>162</ele>
        <time>2020-10-03T12:53:43.000Z</time>
      </trkpt>
      <trkpt lat="43.60829" lon="0.89567">
        <ele>162</ele>
        <time>2020-10-03T12:53:44.000Z</time>
      </trkpt>
      <trkpt lat="43.60826" lon="0.89566">
        <ele>162</ele>
        <time>2020-10-03T12:53:45.000Z</time>
      </trkpt>
      <trkpt lat="43.60823" lon="0.89565">
        <ele>162</ele>
        <time>2020-10-03T12:53:46.000Z</time>
      </trkpt>
      <trkpt lat="43.6082" lon="0.89564">
        <ele>161.62499692308</ele>
        <time>2020-10-03T12:53:47.000Z</time>
      </trkpt>
      <trkpt lat="43.60818" lon="0.89563">
        <ele>161</ele>
        <time>2020-10-03T12:53:48.000Z</time>
      </trkpt>
      <trkpt lat="43.60815" lon="0.89562">
        <ele>161</ele>
        <time>2020-10-03T12:53:49.000Z</time>
      </trkpt>
      <trkpt lat="43.60812" lon="0.89561">
        <ele>161</ele>
        <time>2020-10-03T12:53:50.000Z</time>
      </trkpt>
      <trkpt lat="43.60809" lon="0.89559">
        <ele>161</ele>
        <time>2020-10-03T12:53:51.000Z</time>
      </trkpt>
      <trkpt lat="43.60806" lon="0.89557">
        <ele>161</ele>
        <time>2020-10-03T12:53:52.000Z</time>
      </trkpt>
      <trkpt lat="43.60803" lon="0.89556">
        <ele>161</ele>
        <time>2020-10-03T12:53:53.000Z</time>
      </trkpt>
      <trkpt lat="43.608" lon="0.89554">
        <ele>161</ele>
        <time>2020-10-03T12:53:54.000Z</time>
      </trkpt>
      <trkpt lat="43.60797" lon="0.89553">
        <ele>160.54945565027</ele>
        <time>2020-10-03T12:53:55.000Z</time>
      </trkpt>
      <trkpt lat="43.60795" lon="0.89552">
        <ele>160</ele>
        <time>2020-10-03T12:53:56.000Z</time>
      </trkpt>
      <trkpt lat="43.60792" lon="0.89551">
        <ele>160</ele>
        <time>2020-10-03T12:53:57.000Z</time>
      </trkpt>
      <trkpt lat="43.60789" lon="0.8955">
        <ele>159.57777366916</ele>
        <time>2020-10-03T12:53:58.000Z</time>
      </trkpt>
      <trkpt lat="43.60786" lon="0.8955">
        <ele>159</ele>
        <time>2020-10-03T12:53:59.000Z</time>
      </trkpt>
      <trkpt lat="43.60784" lon="0.89549">
        <ele>159</ele>
        <time>2020-10-03T12:54:00.000Z</time>
      </trkpt>
      <trkpt lat="43.60781" lon="0.89548">
        <ele>159.31460787275</ele>
        <time>2020-10-03T12:54:01.000Z</time>
      </trkpt>
      <trkpt lat="43.60778" lon="0.89548">
        <ele>160</ele>
        <time>2020-10-03T12:54:02.000Z</time>
      </trkpt>
      <trkpt lat="43.60775" lon="0.89547">
        <ele>160</ele>
        <time>2020-10-03T12:54:03.000Z</time>
      </trkpt>
      <trkpt lat="43.60772" lon="0.89546">
        <ele>160</ele>
        <time>2020-10-03T12:54:04.000Z</time>
      </trkpt>
      <trkpt lat="43.60769" lon="0.89545">
        <ele>160.29729121982</ele>
        <time>2020-10-03T12:54:05.000Z</time>
      </trkpt>
      <trkpt lat="43.60766" lon="0.89545">
        <ele>161</ele>
        <time>2020-10-03T12:54:06.000Z</time>
      </trkpt>
      <trkpt lat="43.60764" lon="0.89545">
        <ele>161</ele>
        <time>2020-10-03T12:54:07.000Z</time>
      </trkpt>
      <trkpt lat="43.60761" lon="0.89545">
        <ele>161</ele>
        <time>2020-10-03T12:54:08.000Z</time>
      </trkpt>
      <trkpt lat="43.60759" lon="0.89545">
        <ele>161.25280809998</ele>
        <time>2020-10-03T12:54:09.000Z</time>
      </trkpt>
      <trkpt lat="43.60756" lon="0.89546">
        <ele>161.81460787275</ele>
        <time>2020-10-03T12:54:10.000Z</time>
      </trkpt>
      <trkpt lat="43.60754" lon="0.89547">
        <ele>162</ele>
        <time>2020-10-03T12:54:11.000Z</time>
      </trkpt>
      <trkpt lat="43.60751" lon="0.89547">
        <ele>162</ele>
        <time>2020-10-03T12:54:12.000Z</time>
      </trkpt>
      <trkpt lat="43.60748" lon="0.89548">
        <ele>162</ele>
        <time>2020-10-03T12:54:13.000Z</time>
      </trkpt>
      <trkpt lat="43.60745" lon="0.89548">
        <ele>162</ele>
        <time>2020-10-03T12:54:14.000Z</time>
      </trkpt>
      <trkpt lat="43.60742" lon="0.89549">
        <ele>162</ele>
        <time>2020-10-03T12:54:15.000Z</time>
      </trkpt>
      <trkpt lat="43.60739" lon="0.89548">
        <ele>162</ele>
        <time>2020-10-03T12:54:16.000Z</time>
      </trkpt>
      <trkpt lat="43.60736" lon="0.89548">
        <ele>162</ele>
        <time>2020-10-03T12:54:17.000Z</time>
      </trkpt>
      <trkpt lat="43.60734" lon="0.89548">
        <ele>162</ele>
        <time>2020-10-03T12:54:18.000Z</time>
      </trkpt>
      <trkpt lat="43.60731" lon="0.89547">
        <ele>162</ele>
        <time>2020-10-03T12:54:19.000Z</time>
      </trkpt>
      <trkpt lat="43.60728" lon="0.89547">
        <ele>162</ele>
        <time>2020-10-03T12:54:20.000Z</time>
      </trkpt>
      <trkpt lat="43.60725" lon="0.89547">
        <ele>162</ele>
        <time>2020-10-03T12:54:21.000Z</time>
      </trkpt>
      <trkpt lat="43.60722" lon="0.89547">
        <ele>162</ele>
        <time>2020-10-03T12:54:22.000Z</time>
      </trkpt>
      <trkpt lat="43.60719" lon="0.89547">
        <ele>162</ele>
        <time>2020-10-03T12:54:23.000Z</time>
      </trkpt>
      <trkpt lat="43.60716" lon="0.89546">
        <ele>162</ele>
        <time>2020-10-03T12:54:24.000Z</time>
      </trkpt>
      <trkpt lat="43.60714" lon="0.89546">
        <ele>161.59374666667</ele>
        <time>2020-10-03T12:54:25.000Z</time>
      </trkpt>
      <trkpt lat="43.60711" lon="0.89546">
        <ele>161</ele>
        <time>2020-10-03T12:54:26.000Z</time>
      </trkpt>
      <trkpt lat="43.60708" lon="0.89546">
        <ele>161</ele>
        <time>2020-10-03T12:54:27.000Z</time>
      </trkpt>
      <trkpt lat="43.60705" lon="0.89545">
        <ele>161</ele>
        <time>2020-10-03T12:54:28.000Z</time>
      </trkpt>
      <trkpt lat="43.60702" lon="0.89545">
        <ele>161</ele>
        <time>2020-10-03T12:54:29.000Z</time>
      </trkpt>
      <trkpt lat="43.60699" lon="0.89544">
        <ele>161</ele>
        <time>2020-10-03T12:54:30.000Z</time>
      </trkpt>
      <trkpt lat="43.60696" lon="0.89544">
        <ele>161</ele>
        <time>2020-10-03T12:54:31.000Z</time>
      </trkpt>
      <trkpt lat="43.60693" lon="0.89544">
        <ele>160.12727780493</ele>
        <time>2020-10-03T12:54:32.000Z</time>
      </trkpt>
      <trkpt lat="43.6069" lon="0.89543">
        <ele>159</ele>
        <time>2020-10-03T12:54:33.000Z</time>
      </trkpt>
      <trkpt lat="43.60687" lon="0.89543">
        <ele>159</ele>
        <time>2020-10-03T12:54:34.000Z</time>
      </trkpt>
      <trkpt lat="43.60684" lon="0.89542">
        <ele>159.38372006489</ele>
        <time>2020-10-03T12:54:35.000Z</time>
      </trkpt>
      <trkpt lat="43.60681" lon="0.89542">
        <ele>160</ele>
        <time>2020-10-03T12:54:36.000Z</time>
      </trkpt>
      <trkpt lat="43.60678" lon="0.89541">
        <ele>160</ele>
        <time>2020-10-03T12:54:37.000Z</time>
      </trkpt>
      <trkpt lat="43.60675" lon="0.89541">
        <ele>159.65094430759</ele>
        <time>2020-10-03T12:54:38.000Z</time>
      </trkpt>
      <trkpt lat="43.60672" lon="0.89539">
        <ele>159</ele>
        <time>2020-10-03T12:54:39.000Z</time>
      </trkpt>
      <trkpt lat="43.6067" lon="0.89536">
        <ele>159</ele>
        <time>2020-10-03T12:54:40.000Z</time>
      </trkpt>
      <trkpt lat="43.60668" lon="0.89532">
        <ele>159</ele>
        <time>2020-10-03T12:54:41.000Z</time>
      </trkpt>
      <trkpt lat="43.60669" lon="0.89528">
        <ele>159</ele>
        <time>2020-10-03T12:54:42.000Z</time>
      </trkpt>
      <trkpt lat="43.60671" lon="0.89524">
        <ele>159</ele>
        <time>2020-10-03T12:54:43.000Z</time>
      </trkpt>
      <trkpt lat="43.60673" lon="0.89521">
        <ele>159</ele>
        <time>2020-10-03T12:54:44.000Z</time>
      </trkpt>
      <trkpt lat="43.60676" lon="0.89518">
        <ele>159</ele>
        <time>2020-10-03T12:54:45.000Z</time>
      </trkpt>
      <trkpt lat="43.60679" lon="0.89514">
        <ele>159</ele>
        <time>2020-10-03T12:54:46.000Z</time>
      </trkpt>
      <trkpt lat="43.60681" lon="0.89511">
        <ele>159</ele>
        <time>2020-10-03T12:54:47.000Z</time>
      </trkpt>
      <trkpt lat="43.60683" lon="0.89508">
        <ele>159</ele>
        <time>2020-10-03T12:54:48.000Z</time>
      </trkpt>
      <trkpt lat="43.60686" lon="0.89505">
        <ele>159</ele>
        <time>2020-10-03T12:54:49.000Z</time>
      </trkpt>
      <trkpt lat="43.60687" lon="0.89502">
        <ele>159</ele>
        <time>2020-10-03T12:54:50.000Z</time>
      </trkpt>
      <trkpt lat="43.6069" lon="0.89499">
        <ele>159</ele>
        <time>2020-10-03T12:54:51.000Z</time>
      </trkpt>
      <trkpt lat="43.60691" lon="0.89496">
        <ele>159</ele>
        <time>2020-10-03T12:54:52.000Z</time>
      </trkpt>
      <trkpt lat="43.60694" lon="0.89494">
        <ele>159</ele>
        <time>2020-10-03T12:54:53.000Z</time>
      </trkpt>
      <trkpt lat="43.60696" lon="0.89491">
        <ele>159</ele>
        <time>2020-10-03T12:54:54.000Z</time>
      </trkpt>
      <trkpt lat="43.60698" lon="0.89488">
        <ele>159</ele>
        <time>2020-10-03T12:54:55.000Z</time>
      </trkpt>
      <trkpt lat="43.607" lon="0.89485">
        <ele>159</ele>
        <time>2020-10-03T12:54:56.000Z</time>
      </trkpt>
      <trkpt lat="43.60702" lon="0.89482">
        <ele>159</ele>
        <time>2020-10-03T12:54:57.000Z</time>
      </trkpt>
      <trkpt lat="43.60704" lon="0.89479">
        <ele>159</ele>
        <time>2020-10-03T12:54:58.000Z</time>
      </trkpt>
      <trkpt lat="43.60706" lon="0.89476">
        <ele>159</ele>
        <time>2020-10-03T12:54:59.000Z</time>
      </trkpt>
      <trkpt lat="43.60708" lon="0.89473">
        <ele>159</ele>
        <time>2020-10-03T12:55:00.000Z</time>
      </trkpt>
      <trkpt lat="43.6071" lon="0.8947">
        <ele>159</ele>
        <time>2020-10-03T12:55:01.000Z</time>
      </trkpt>
      <trkpt lat="43.60711" lon="0.89468">
        <ele>159</ele>
        <time>2020-10-03T12:55:02.000Z</time>
      </trkpt>
      <trkpt lat="43.60713" lon="0.89465">
        <ele>159</ele>
        <time>2020-10-03T12:55:03.000Z</time>
      </trkpt>
      <trkpt lat="43.60714" lon="0.89463">
        <ele>159</ele>
        <time>2020-10-03T12:55:04.000Z</time>
      </trkpt>
      <trkpt lat="43.60716" lon="0.8946">
        <ele>159</ele>
        <time>2020-10-03T12:55:05.000Z</time>
      </trkpt>
      <trkpt lat="43.60717" lon="0.89457">
        <ele>159</ele>
        <time>2020-10-03T12:55:06.000Z</time>
      </trkpt>
      <trkpt lat="43.60719" lon="0.89454">
        <ele>159</ele>
        <time>2020-10-03T12:55:07.000Z</time>
      </trkpt>
      <trkpt lat="43.6072" lon="0.8945">
        <ele>159</ele>
        <time>2020-10-03T12:55:08.000Z</time>
      </trkpt>
      <trkpt lat="43.6072" lon="0.89446">
        <ele>159</ele>
        <time>2020-10-03T12:55:09.000Z</time>
      </trkpt>
      <trkpt lat="43.60721" lon="0.89442">
        <ele>159</ele>
        <time>2020-10-03T12:55:10.000Z</time>
      </trkpt>
      <trkpt lat="43.60722" lon="0.89438">
        <ele>159</ele>
        <time>2020-10-03T12:55:11.000Z</time>
      </trkpt>
      <trkpt lat="43.60723" lon="0.89435">
        <ele>159</ele>
        <time>2020-10-03T12:55:12.000Z</time>
      </trkpt>
      <trkpt lat="43.60724" lon="0.89431">
        <ele>159</ele>
        <time>2020-10-03T12:55:13.000Z</time>
      </trkpt>
      <trkpt lat="43.60726" lon="0.89427">
        <ele>159</ele>
        <time>2020-10-03T12:55:14.000Z</time>
      </trkpt>
      <trkpt lat="43.60728" lon="0.89423">
        <ele>159</ele>
        <time>2020-10-03T12:55:15.000Z</time>
      </trkpt>
      <trkpt lat="43.60729" lon="0.8942">
        <ele>159</ele>
        <time>2020-10-03T12:55:16.000Z</time>
      </trkpt>
      <trkpt lat="43.6073" lon="0.89417">
        <ele>159</ele>
        <time>2020-10-03T12:55:17.000Z</time>
      </trkpt>
      <trkpt lat="43.60731" lon="0.89414">
        <ele>159</ele>
        <time>2020-10-03T12:55:18.000Z</time>
      </trkpt>
      <trkpt lat="43.60732" lon="0.89412">
        <ele>159</ele>
        <time>2020-10-03T12:55:19.000Z</time>
      </trkpt>
      <trkpt lat="43.60733" lon="0.89409">
        <ele>159</ele>
        <time>2020-10-03T12:55:20.000Z</time>
      </trkpt>
      <trkpt lat="43.60734" lon="0.89406">
        <ele>159</ele>
        <time>2020-10-03T12:55:21.000Z</time>
      </trkpt>
      <trkpt lat="43.60735" lon="0.89403">
        <ele>159</ele>
        <time>2020-10-03T12:55:22.000Z</time>
      </trkpt>
      <trkpt lat="43.60736" lon="0.89399">
        <ele>159</ele>
        <time>2020-10-03T12:55:23.000Z</time>
      </trkpt>
      <trkpt lat="43.60738" lon="0.89395">
        <ele>159</ele>
        <time>2020-10-03T12:55:24.000Z</time>
      </trkpt>
      <trkpt lat="43.60739" lon="0.89392">
        <ele>159</ele>
        <time>2020-10-03T12:55:25.000Z</time>
      </trkpt>
      <trkpt lat="43.6074" lon="0.89388">
        <ele>159</ele>
        <time>2020-10-03T12:55:26.000Z</time>
      </trkpt>
      <trkpt lat="43.60742" lon="0.89385">
        <ele>159</ele>
        <time>2020-10-03T12:55:27.000Z</time>
      </trkpt>
      <trkpt lat="43.60744" lon="0.89381">
        <ele>159</ele>
        <time>2020-10-03T12:55:28.000Z</time>
      </trkpt>
      <trkpt lat="43.60745" lon="0.89378">
        <ele>159</ele>
        <time>2020-10-03T12:55:29.000Z</time>
      </trkpt>
      <trkpt lat="43.60747" lon="0.89374">
        <ele>159</ele>
        <time>2020-10-03T12:55:30.000Z</time>
      </trkpt>
      <trkpt lat="43.60749" lon="0.89371">
        <ele>159</ele>
        <time>2020-10-03T12:55:31.000Z</time>
      </trkpt>
      <trkpt lat="43.6075" lon="0.89368">
        <ele>159</ele>
        <time>2020-10-03T12:55:32.000Z</time>
      </trkpt>
      <trkpt lat="43.60752" lon="0.89364">
        <ele>159</ele>
        <time>2020-10-03T12:55:33.000Z</time>
      </trkpt>
      <trkpt lat="43.60753" lon="0.8936">
        <ele>159</ele>
        <time>2020-10-03T12:55:34.000Z</time>
      </trkpt>
      <trkpt lat="43.60755" lon="0.89357">
        <ele>159</ele>
        <time>2020-10-03T12:55:35.000Z</time>
      </trkpt>
      <trkpt lat="43.60757" lon="0.89354">
        <ele>159</ele>
        <time>2020-10-03T12:55:36.000Z</time>
      </trkpt>
      <trkpt lat="43.60759" lon="0.89351">
        <ele>159</ele>
        <time>2020-10-03T12:55:37.000Z</time>
      </trkpt>
      <trkpt lat="43.6076" lon="0.89347">
        <ele>159</ele>
        <time>2020-10-03T12:55:38.000Z</time>
      </trkpt>
      <trkpt lat="43.60762" lon="0.89344">
        <ele>159</ele>
        <time>2020-10-03T12:55:39.000Z</time>
      </trkpt>
      <trkpt lat="43.60764" lon="0.8934">
        <ele>159</ele>
        <time>2020-10-03T12:55:40.000Z</time>
      </trkpt>
      <trkpt lat="43.60766" lon="0.89337">
        <ele>159</ele>
        <time>2020-10-03T12:55:41.000Z</time>
      </trkpt>
      <trkpt lat="43.60767" lon="0.89334">
        <ele>159</ele>
        <time>2020-10-03T12:55:42.000Z</time>
      </trkpt>
      <trkpt lat="43.60769" lon="0.89331">
        <ele>159</ele>
        <time>2020-10-03T12:55:43.000Z</time>
      </trkpt>
      <trkpt lat="43.6077" lon="0.89328">
        <ele>159</ele>
        <time>2020-10-03T12:55:44.000Z</time>
      </trkpt>
      <trkpt lat="43.60772" lon="0.89324">
        <ele>159</ele>
        <time>2020-10-03T12:55:45.000Z</time>
      </trkpt>
      <trkpt lat="43.60774" lon="0.89321">
        <ele>159</ele>
        <time>2020-10-03T12:55:46.000Z</time>
      </trkpt>
      <trkpt lat="43.60776" lon="0.89319">
        <ele>159</ele>
        <time>2020-10-03T12:55:47.000Z</time>
      </trkpt>
      <trkpt lat="43.60778" lon="0.89316">
        <ele>159</ele>
        <time>2020-10-03T12:55:48.000Z</time>
      </trkpt>
      <trkpt lat="43.60781" lon="0.89314">
        <ele>159</ele>
        <time>2020-10-03T12:55:49.000Z</time>
      </trkpt>
      <trkpt lat="43.60783" lon="0.89311">
        <ele>159</ele>
        <time>2020-10-03T12:55:50.000Z</time>
      </trkpt>
      <trkpt lat="43.60785" lon="0.89308">
        <ele>159</ele>
        <time>2020-10-03T12:55:51.000Z</time>
      </trkpt>
      <trkpt lat="43.60787" lon="0.89305">
        <ele>159</ele>
        <time>2020-10-03T12:55:52.000Z</time>
      </trkpt>
      <trkpt lat="43.60789" lon="0.89302">
        <ele>159</ele>
        <time>2020-10-03T12:55:53.000Z</time>
      </trkpt>
      <trkpt lat="43.60791" lon="0.893">
        <ele>159</ele>
        <time>2020-10-03T12:55:54.000Z</time>
      </trkpt>
      <trkpt lat="43.60794" lon="0.89297">
        <ele>159</ele>
        <time>2020-10-03T12:55:55.000Z</time>
      </trkpt>
      <trkpt lat="43.60795" lon="0.89295">
        <ele>159</ele>
        <time>2020-10-03T12:55:56.000Z</time>
      </trkpt>
      <trkpt lat="43.60798" lon="0.89292">
        <ele>159</ele>
        <time>2020-10-03T12:55:57.000Z</time>
      </trkpt>
      <trkpt lat="43.608" lon="0.89289">
        <ele>159</ele>
        <time>2020-10-03T12:55:58.000Z</time>
      </trkpt>
      <trkpt lat="43.60803" lon="0.89287">
        <ele>159</ele>
        <time>2020-10-03T12:55:59.000Z</time>
      </trkpt>
      <trkpt lat="43.60805" lon="0.89284">
        <ele>159</ele>
        <time>2020-10-03T12:56:00.000Z</time>
      </trkpt>
      <trkpt lat="43.60807" lon="0.89281">
        <ele>159</ele>
        <time>2020-10-03T12:56:01.000Z</time>
      </trkpt>
      <trkpt lat="43.60809" lon="0.89278">
        <ele>159</ele>
        <time>2020-10-03T12:56:02.000Z</time>
      </trkpt>
      <trkpt lat="43.60812" lon="0.89275">
        <ele>159</ele>
        <time>2020-10-03T12:56:03.000Z</time>
      </trkpt>
      <trkpt lat="43.60814" lon="0.89273">
        <ele>159</ele>
        <time>2020-10-03T12:56:04.000Z</time>
      </trkpt>
      <trkpt lat="43.60816" lon="0.8927">
        <ele>159</ele>
        <time>2020-10-03T12:56:05.000Z</time>
      </trkpt>
      <trkpt lat="43.60818" lon="0.89267">
        <ele>159</ele>
        <time>2020-10-03T12:56:06.000Z</time>
      </trkpt>
      <trkpt lat="43.6082" lon="0.89265">
        <ele>159</ele>
        <time>2020-10-03T12:56:07.000Z</time>
      </trkpt>
      <trkpt lat="43.60822" lon="0.89262">
        <ele>159</ele>
        <time>2020-10-03T12:56:08.000Z</time>
      </trkpt>
      <trkpt lat="43.60824" lon="0.89259">
        <ele>159</ele>
        <time>2020-10-03T12:56:09.000Z</time>
      </trkpt>
      <trkpt lat="43.60827" lon="0.89257">
        <ele>159</ele>
        <time>2020-10-03T12:56:10.000Z</time>
      </trkpt>
      <trkpt lat="43.60829" lon="0.89254">
        <ele>159</ele>
        <time>2020-10-03T12:56:11.000Z</time>
      </trkpt>
      <trkpt lat="43.60832" lon="0.89252">
        <ele>159</ele>
        <time>2020-10-03T12:56:12.000Z</time>
      </trkpt>
      <trkpt lat="43.60834" lon="0.89249">
        <ele>159</ele>
        <time>2020-10-03T12:56:13.000Z</time>
      </trkpt>
      <trkpt lat="43.60836" lon="0.89247">
        <ele>159</ele>
        <time>2020-10-03T12:56:14.000Z</time>
      </trkpt>
      <trkpt lat="43.60839" lon="0.89245">
        <ele>159</ele>
        <time>2020-10-03T12:56:15.000Z</time>
      </trkpt>
      <trkpt lat="43.60841" lon="0.89243">
        <ele>159</ele>
        <time>2020-10-03T12:56:16.000Z</time>
      </trkpt>
      <trkpt lat="43.60844" lon="0.8924">
        <ele>159</ele>
        <time>2020-10-03T12:56:17.000Z</time>
      </trkpt>
      <trkpt lat="43.60852" lon="0.89232">
        <ele>159</ele>
        <time>2020-10-03T12:56:20.000Z</time>
      </trkpt>
      <trkpt lat="43.6086" lon="0.89225">
        <ele>159</ele>
        <time>2020-10-03T12:56:23.000Z</time>
      </trkpt>
      <trkpt lat="43.60866" lon="0.89214">
        <ele>159</ele>
        <time>2020-10-03T12:56:27.000Z</time>
      </trkpt>
      <trkpt lat="43.60867" lon="0.89211">
        <ele>159</ele>
        <time>2020-10-03T12:56:28.000Z</time>
      </trkpt>
      <trkpt lat="43.60868" lon="0.89209">
        <ele>159</ele>
        <time>2020-10-03T12:56:29.000Z</time>
      </trkpt>
      <trkpt lat="43.6087" lon="0.89206">
        <ele>159</ele>
        <time>2020-10-03T12:56:30.000Z</time>
      </trkpt>
      <trkpt lat="43.60872" lon="0.89203">
        <ele>159.38182177849</ele>
        <time>2020-10-03T12:56:31.000Z</time>
      </trkpt>
      <trkpt lat="43.60874" lon="0.89201">
        <ele>160</ele>
        <time>2020-10-03T12:56:32.000Z</time>
      </trkpt>
      <trkpt lat="43.60875" lon="0.89198">
        <ele>160</ele>
        <time>2020-10-03T12:56:33.000Z</time>
      </trkpt>
      <trkpt lat="43.60878" lon="0.89195">
        <ele>160</ele>
        <time>2020-10-03T12:56:34.000Z</time>
      </trkpt>
      <trkpt lat="43.60879" lon="0.89193">
        <ele>160</ele>
        <time>2020-10-03T12:56:35.000Z</time>
      </trkpt>
      <trkpt lat="43.60882" lon="0.89191">
        <ele>160.30434459986</ele>
        <time>2020-10-03T12:56:36.000Z</time>
      </trkpt>
      <trkpt lat="43.60884" lon="0.89189">
        <ele>161</ele>
        <time>2020-10-03T12:56:37.000Z</time>
      </trkpt>
      <trkpt lat="43.60886" lon="0.89187">
        <ele>161</ele>
        <time>2020-10-03T12:56:38.000Z</time>
      </trkpt>
      <trkpt lat="43.60888" lon="0.89186">
        <ele>161.31325951514</ele>
        <time>2020-10-03T12:56:39.000Z</time>
      </trkpt>
      <trkpt lat="43.6089" lon="0.89184">
        <ele>162</ele>
        <time>2020-10-03T12:56:40.000Z</time>
      </trkpt>
      <trkpt lat="43.60892" lon="0.89182">
        <ele>162</ele>
        <time>2020-10-03T12:56:41.000Z</time>
      </trkpt>
      <trkpt lat="43.60894" lon="0.8918">
        <ele>162</ele>
        <time>2020-10-03T12:56:42.000Z</time>
      </trkpt>
      <trkpt lat="43.60896" lon="0.89178">
        <ele>162</ele>
        <time>2020-10-03T12:56:43.000Z</time>
      </trkpt>
      <trkpt lat="43.60898" lon="0.89175">
        <ele>162</ele>
        <time>2020-10-03T12:56:44.000Z</time>
      </trkpt>
      <trkpt lat="43.609" lon="0.89173">
        <ele>162</ele>
        <time>2020-10-03T12:56:45.000Z</time>
      </trkpt>
      <trkpt lat="43.60902" lon="0.89171">
        <ele>162</ele>
        <time>2020-10-03T12:56:46.000Z</time>
      </trkpt>
      <trkpt lat="43.60905" lon="0.89169">
        <ele>162</ele>
        <time>2020-10-03T12:56:47.000Z</time>
      </trkpt>
      <trkpt lat="43.60907" lon="0.89167">
        <ele>162</ele>
        <time>2020-10-03T12:56:48.000Z</time>
      </trkpt>
      <trkpt lat="43.60909" lon="0.89164">
        <ele>162</ele>
        <time>2020-10-03T12:56:49.000Z</time>
      </trkpt>
      <trkpt lat="43.60911" lon="0.89162">
        <ele>162</ele>
        <time>2020-10-03T12:56:50.000Z</time>
      </trkpt>
      <trkpt lat="43.60913" lon="0.8916">
        <ele>162</ele>
        <time>2020-10-03T12:56:51.000Z</time>
      </trkpt>
      <trkpt lat="43.60916" lon="0.89157">
        <ele>162</ele>
        <time>2020-10-03T12:56:52.000Z</time>
      </trkpt>
      <trkpt lat="43.60918" lon="0.89155">
        <ele>162</ele>
        <time>2020-10-03T12:56:53.000Z</time>
      </trkpt>
      <trkpt lat="43.60921" lon="0.89153">
        <ele>162</ele>
        <time>2020-10-03T12:56:54.000Z</time>
      </trkpt>
      <trkpt lat="43.60923" lon="0.89151">
        <ele>162</ele>
        <time>2020-10-03T12:56:55.000Z</time>
      </trkpt>
      <trkpt lat="43.60926" lon="0.89148">
        <ele>162</ele>
        <time>2020-10-03T12:56:56.000Z</time>
      </trkpt>
      <trkpt lat="43.60928" lon="0.89146">
        <ele>162</ele>
        <time>2020-10-03T12:56:57.000Z</time>
      </trkpt>
      <trkpt lat="43.60931" lon="0.89144">
        <ele>162</ele>
        <time>2020-10-03T12:56:58.000Z</time>
      </trkpt>
      <trkpt lat="43.60933" lon="0.89142">
        <ele>162.32941300485</ele>
        <time>2020-10-03T12:56:59.000Z</time>
      </trkpt>
      <trkpt lat="43.60936" lon="0.8914">
        <ele>163</ele>
        <time>2020-10-03T12:57:00.000Z</time>
      </trkpt>
      <trkpt lat="43.60938" lon="0.89138">
        <ele>163</ele>
        <time>2020-10-03T12:57:01.000Z</time>
      </trkpt>
      <trkpt lat="43.60941" lon="0.89136">
        <ele>163</ele>
        <time>2020-10-03T12:57:02.000Z</time>
      </trkpt>
      <trkpt lat="43.60943" lon="0.89134">
        <ele>163</ele>
        <time>2020-10-03T12:57:03.000Z</time>
      </trkpt>
      <trkpt lat="43.60945" lon="0.89132">
        <ele>163</ele>
        <time>2020-10-03T12:57:04.000Z</time>
      </trkpt>
      <trkpt lat="43.60947" lon="0.89131">
        <ele>164</ele>
        <time>2020-10-03T12:57:05.000Z</time>
      </trkpt>
      <trkpt lat="43.60949" lon="0.89129">
        <ele>164</ele>
        <time>2020-10-03T12:57:06.000Z</time>
      </trkpt>
      <trkpt lat="43.60952" lon="0.89127">
        <ele>164</ele>
        <time>2020-10-03T12:57:07.000Z</time>
      </trkpt>
      <trkpt lat="43.60954" lon="0.89124">
        <ele>164</ele>
        <time>2020-10-03T12:57:08.000Z</time>
      </trkpt>
      <trkpt lat="43.60956" lon="0.89122">
        <ele>164</ele>
        <time>2020-10-03T12:57:09.000Z</time>
      </trkpt>
      <trkpt lat="43.60959" lon="0.8912">
        <ele>164</ele>
        <time>2020-10-03T12:57:10.000Z</time>
      </trkpt>
      <trkpt lat="43.60961" lon="0.89117">
        <ele>164</ele>
        <time>2020-10-03T12:57:11.000Z</time>
      </trkpt>
      <trkpt lat="43.60964" lon="0.89114">
        <ele>164</ele>
        <time>2020-10-03T12:57:12.000Z</time>
      </trkpt>
      <trkpt lat="43.60966" lon="0.89111">
        <ele>164</ele>
        <time>2020-10-03T12:57:13.000Z</time>
      </trkpt>
      <trkpt lat="43.60968" lon="0.89108">
        <ele>164</ele>
        <time>2020-10-03T12:57:14.000Z</time>
      </trkpt>
      <trkpt lat="43.6097" lon="0.89105">
        <ele>163.83117228539</ele>
        <time>2020-10-03T12:57:15.000Z</time>
      </trkpt>
      <trkpt lat="43.60972" lon="0.89102">
        <ele>163</ele>
        <time>2020-10-03T12:57:16.000Z</time>
      </trkpt>
      <trkpt lat="43.60974" lon="0.891">
        <ele>163</ele>
        <time>2020-10-03T12:57:17.000Z</time>
      </trkpt>
      <trkpt lat="43.60976" lon="0.89097">
        <ele>163</ele>
        <time>2020-10-03T12:57:18.000Z</time>
      </trkpt>
      <trkpt lat="43.60978" lon="0.89094">
        <ele>163.45045491761</ele>
        <time>2020-10-03T12:57:19.000Z</time>
      </trkpt>
      <trkpt lat="43.6098" lon="0.89092">
        <ele>164</ele>
        <time>2020-10-03T12:57:20.000Z</time>
      </trkpt>
      <trkpt lat="43.60982" lon="0.8909">
        <ele>164</ele>
        <time>2020-10-03T12:57:21.000Z</time>
      </trkpt>
      <trkpt lat="43.60984" lon="0.89087">
        <ele>164</ele>
        <time>2020-10-03T12:57:22.000Z</time>
      </trkpt>
      <trkpt lat="43.60987" lon="0.89084">
        <ele>164</ele>
        <time>2020-10-03T12:57:23.000Z</time>
      </trkpt>
      <trkpt lat="43.60988" lon="0.8908">
        <ele>164</ele>
        <time>2020-10-03T12:57:24.000Z</time>
      </trkpt>
      <trkpt lat="43.60991" lon="0.89077">
        <ele>164</ele>
        <time>2020-10-03T12:57:25.000Z</time>
      </trkpt>
      <trkpt lat="43.60992" lon="0.89074">
        <ele>164</ele>
        <time>2020-10-03T12:57:26.000Z</time>
      </trkpt>
      <trkpt lat="43.60994" lon="0.89071">
        <ele>164</ele>
        <time>2020-10-03T12:57:27.000Z</time>
      </trkpt>
      <trkpt lat="43.60996" lon="0.89068">
        <ele>164</ele>
        <time>2020-10-03T12:57:28.000Z</time>
      </trkpt>
      <trkpt lat="43.60998" lon="0.89066">
        <ele>164</ele>
        <time>2020-10-03T12:57:29.000Z</time>
      </trkpt>
      <trkpt lat="43.61" lon="0.89063">
        <ele>164</ele>
        <time>2020-10-03T12:57:30.000Z</time>
      </trkpt>
      <trkpt lat="43.61002" lon="0.89059">
        <ele>164</ele>
        <time>2020-10-03T12:57:31.000Z</time>
      </trkpt>
      <trkpt lat="43.61005" lon="0.89056">
        <ele>164</ele>
        <time>2020-10-03T12:57:32.000Z</time>
      </trkpt>
      <trkpt lat="43.61006" lon="0.89053">
        <ele>164</ele>
        <time>2020-10-03T12:57:33.000Z</time>
      </trkpt>
      <trkpt lat="43.61009" lon="0.8905">
        <ele>164</ele>
        <time>2020-10-03T12:57:34.000Z</time>
      </trkpt>
      <trkpt lat="43.61011" lon="0.89047">
        <ele>163.58510580353</ele>
        <time>2020-10-03T12:57:35.000Z</time>
      </trkpt>
      <trkpt lat="43.61013" lon="0.89044">
        <ele>163</ele>
        <time>2020-10-03T12:57:36.000Z</time>
      </trkpt>
      <trkpt lat="43.61015" lon="0.8904">
        <ele>163</ele>
        <time>2020-10-03T12:57:37.000Z</time>
      </trkpt>
      <trkpt lat="43.61017" lon="0.89037">
        <ele>163.25287998941</ele>
        <time>2020-10-03T12:57:38.000Z</time>
      </trkpt>
      <trkpt lat="43.61019" lon="0.89034">
        <ele>164</ele>
        <time>2020-10-03T12:57:39.000Z</time>
      </trkpt>
      <trkpt lat="43.61021" lon="0.89031">
        <ele>164</ele>
        <time>2020-10-03T12:57:40.000Z</time>
      </trkpt>
      <trkpt lat="43.61023" lon="0.89028">
        <ele>164</ele>
        <time>2020-10-03T12:57:41.000Z</time>
      </trkpt>
      <trkpt lat="43.61025" lon="0.89026">
        <ele>164</ele>
        <time>2020-10-03T12:57:42.000Z</time>
      </trkpt>
      <trkpt lat="43.61027" lon="0.89023">
        <ele>164</ele>
        <time>2020-10-03T12:57:43.000Z</time>
      </trkpt>
      <trkpt lat="43.61029" lon="0.8902">
        <ele>164</ele>
        <time>2020-10-03T12:57:44.000Z</time>
      </trkpt>
      <trkpt lat="43.61032" lon="0.89017">
        <ele>164</ele>
        <time>2020-10-03T12:57:45.000Z</time>
      </trkpt>
      <trkpt lat="43.61034" lon="0.89014">
        <ele>164</ele>
        <time>2020-10-03T12:57:46.000Z</time>
      </trkpt>
      <trkpt lat="43.61036" lon="0.89011">
        <ele>163.56565473728</ele>
        <time>2020-10-03T12:57:47.000Z</time>
      </trkpt>
      <trkpt lat="43.61039" lon="0.89008">
        <ele>163</ele>
        <time>2020-10-03T12:57:48.000Z</time>
      </trkpt>
      <trkpt lat="43.61041" lon="0.89006">
        <ele>163</ele>
        <time>2020-10-03T12:57:49.000Z</time>
      </trkpt>
      <trkpt lat="43.61043" lon="0.89003">
        <ele>163.43298452119</ele>
        <time>2020-10-03T12:57:50.000Z</time>
      </trkpt>
      <trkpt lat="43.61045" lon="0.89001">
        <ele>164</ele>
        <time>2020-10-03T12:57:51.000Z</time>
      </trkpt>
      <trkpt lat="43.61047" lon="0.88998">
        <ele>164</ele>
        <time>2020-10-03T12:57:52.000Z</time>
      </trkpt>
      <trkpt lat="43.61049" lon="0.88995">
        <ele>164</ele>
        <time>2020-10-03T12:57:53.000Z</time>
      </trkpt>
      <trkpt lat="43.61051" lon="0.88993">
        <ele>164</ele>
        <time>2020-10-03T12:57:54.000Z</time>
      </trkpt>
      <trkpt lat="43.61053" lon="0.8899">
        <ele>164</ele>
        <time>2020-10-03T12:57:55.000Z</time>
      </trkpt>
      <trkpt lat="43.61056" lon="0.88987">
        <ele>163.65384489153</ele>
        <time>2020-10-03T12:57:56.000Z</time>
      </trkpt>
      <trkpt lat="43.61058" lon="0.88985">
        <ele>163</ele>
        <time>2020-10-03T12:57:57.000Z</time>
      </trkpt>
      <trkpt lat="43.6106" lon="0.88983">
        <ele>163</ele>
        <time>2020-10-03T12:57:58.000Z</time>
      </trkpt>
      <trkpt lat="43.61062" lon="0.8898">
        <ele>163</ele>
        <time>2020-10-03T12:57:59.000Z</time>
      </trkpt>
      <trkpt lat="43.61064" lon="0.88978">
        <ele>163</ele>
        <time>2020-10-03T12:58:00.000Z</time>
      </trkpt>
      <trkpt lat="43.61066" lon="0.88975">
        <ele>163</ele>
        <time>2020-10-03T12:58:01.000Z</time>
      </trkpt>
      <trkpt lat="43.61068" lon="0.88972">
        <ele>163</ele>
        <time>2020-10-03T12:58:02.000Z</time>
      </trkpt>
      <trkpt lat="43.6107" lon="0.88969">
        <ele>163</ele>
        <time>2020-10-03T12:58:03.000Z</time>
      </trkpt>
      <trkpt lat="43.61073" lon="0.88967">
        <ele>163</ele>
        <time>2020-10-03T12:58:04.000Z</time>
      </trkpt>
      <trkpt lat="43.61075" lon="0.88964">
        <ele>163</ele>
        <time>2020-10-03T12:58:05.000Z</time>
      </trkpt>
      <trkpt lat="43.61077" lon="0.88962">
        <ele>162.58585780226</ele>
        <time>2020-10-03T12:58:06.000Z</time>
      </trkpt>
      <trkpt lat="43.61079" lon="0.88959">
        <ele>162</ele>
        <time>2020-10-03T12:58:07.000Z</time>
      </trkpt>
      <trkpt lat="43.61081" lon="0.88957">
        <ele>162</ele>
        <time>2020-10-03T12:58:08.000Z</time>
      </trkpt>
      <trkpt lat="43.61084" lon="0.88954">
        <ele>162</ele>
        <time>2020-10-03T12:58:09.000Z</time>
      </trkpt>
      <trkpt lat="43.61086" lon="0.88952">
        <ele>162.39815111111</ele>
        <time>2020-10-03T12:58:10.000Z</time>
      </trkpt>
      <trkpt lat="43.61088" lon="0.88949">
        <ele>163</ele>
        <time>2020-10-03T12:58:11.000Z</time>
      </trkpt>
      <trkpt lat="43.6109" lon="0.88947">
        <ele>163</ele>
        <time>2020-10-03T12:58:12.000Z</time>
      </trkpt>
      <trkpt lat="43.61092" lon="0.88944">
        <ele>163</ele>
        <time>2020-10-03T12:58:13.000Z</time>
      </trkpt>
      <trkpt lat="43.61094" lon="0.88941">
        <ele>163</ele>
        <time>2020-10-03T12:58:14.000Z</time>
      </trkpt>
      <trkpt lat="43.61097" lon="0.8894">
        <ele>163.40196016916</ele>
        <time>2020-10-03T12:58:15.000Z</time>
      </trkpt>
      <trkpt lat="43.61099" lon="0.88939">
        <ele>164</ele>
        <time>2020-10-03T12:58:16.000Z</time>
      </trkpt>
      <trkpt lat="43.61101" lon="0.88937">
        <ele>164</ele>
        <time>2020-10-03T12:58:17.000Z</time>
      </trkpt>
      <trkpt lat="43.61103" lon="0.88934">
        <ele>164</ele>
        <time>2020-10-03T12:58:18.000Z</time>
      </trkpt>
      <trkpt lat="43.61105" lon="0.88932">
        <ele>164</ele>
        <time>2020-10-03T12:58:19.000Z</time>
      </trkpt>
      <trkpt lat="43.61107" lon="0.8893">
        <ele>164</ele>
        <time>2020-10-03T12:58:20.000Z</time>
      </trkpt>
      <trkpt lat="43.6111" lon="0.88928">
        <ele>164</ele>
        <time>2020-10-03T12:58:21.000Z</time>
      </trkpt>
      <trkpt lat="43.61112" lon="0.88925">
        <ele>164</ele>
        <time>2020-10-03T12:58:22.000Z</time>
      </trkpt>
      <trkpt lat="43.61114" lon="0.88923">
        <ele>164</ele>
        <time>2020-10-03T12:58:23.000Z</time>
      </trkpt>
      <trkpt lat="43.61117" lon="0.8892">
        <ele>164</ele>
        <time>2020-10-03T12:58:24.000Z</time>
      </trkpt>
      <trkpt lat="43.61119" lon="0.88918">
        <ele>164</ele>
        <time>2020-10-03T12:58:25.000Z</time>
      </trkpt>
      <trkpt lat="43.61121" lon="0.88916">
        <ele>164</ele>
        <time>2020-10-03T12:58:26.000Z</time>
      </trkpt>
      <trkpt lat="43.61123" lon="0.88914">
        <ele>164</ele>
        <time>2020-10-03T12:58:27.000Z</time>
      </trkpt>
      <trkpt lat="43.61126" lon="0.88912">
        <ele>164</ele>
        <time>2020-10-03T12:58:28.000Z</time>
      </trkpt>
      <trkpt lat="43.61128" lon="0.8891">
        <ele>164</ele>
        <time>2020-10-03T12:58:29.000Z</time>
      </trkpt>
      <trkpt lat="43.6113" lon="0.88907">
        <ele>164</ele>
        <time>2020-10-03T12:58:30.000Z</time>
      </trkpt>
      <trkpt lat="43.61132" lon="0.88905">
        <ele>164</ele>
        <time>2020-10-03T12:58:31.000Z</time>
      </trkpt>
      <trkpt lat="43.61135" lon="0.88902">
        <ele>164</ele>
        <time>2020-10-03T12:58:32.000Z</time>
      </trkpt>
      <trkpt lat="43.61137" lon="0.889">
        <ele>163.59812905232</ele>
        <time>2020-10-03T12:58:33.000Z</time>
      </trkpt>
      <trkpt lat="43.61139" lon="0.88898">
        <ele>163</ele>
        <time>2020-10-03T12:58:34.000Z</time>
      </trkpt>
      <trkpt lat="43.61141" lon="0.88895">
        <ele>163.45871742781</ele>
        <time>2020-10-03T12:58:35.000Z</time>
      </trkpt>
      <trkpt lat="43.61143" lon="0.88893">
        <ele>164</ele>
        <time>2020-10-03T12:58:36.000Z</time>
      </trkpt>
      <trkpt lat="43.61146" lon="0.88891">
        <ele>164</ele>
        <time>2020-10-03T12:58:37.000Z</time>
      </trkpt>
      <trkpt lat="43.61148" lon="0.88889">
        <ele>164</ele>
        <time>2020-10-03T12:58:38.000Z</time>
      </trkpt>
      <trkpt lat="43.6115" lon="0.88887">
        <ele>164.40816059977</ele>
        <time>2020-10-03T12:58:39.000Z</time>
      </trkpt>
      <trkpt lat="43.61153" lon="0.88884">
        <ele>165</ele>
        <time>2020-10-03T12:58:40.000Z</time>
      </trkpt>
      <trkpt lat="43.61155" lon="0.88882">
        <ele>165</ele>
        <time>2020-10-03T12:58:41.000Z</time>
      </trkpt>
      <trkpt lat="43.61158" lon="0.8888">
        <ele>165</ele>
        <time>2020-10-03T12:58:42.000Z</time>
      </trkpt>
      <trkpt lat="43.6116" lon="0.88878">
        <ele>165</ele>
        <time>2020-10-03T12:58:43.000Z</time>
      </trkpt>
      <trkpt lat="43.61162" lon="0.88876">
        <ele>165</ele>
        <time>2020-10-03T12:58:44.000Z</time>
      </trkpt>
      <trkpt lat="43.61164" lon="0.88874">
        <ele>165</ele>
        <time>2020-10-03T12:58:45.000Z</time>
      </trkpt>
      <trkpt lat="43.61167" lon="0.88872">
        <ele>165</ele>
        <time>2020-10-03T12:58:46.000Z</time>
      </trkpt>
      <trkpt lat="43.61169" lon="0.8887">
        <ele>165</ele>
        <time>2020-10-03T12:58:47.000Z</time>
      </trkpt>
      <trkpt lat="43.61171" lon="0.88868">
        <ele>165</ele>
        <time>2020-10-03T12:58:48.000Z</time>
      </trkpt>
      <trkpt lat="43.61174" lon="0.88866">
        <ele>165</ele>
        <time>2020-10-03T12:58:49.000Z</time>
      </trkpt>
      <trkpt lat="43.61176" lon="0.88864">
        <ele>165</ele>
        <time>2020-10-03T12:58:50.000Z</time>
      </trkpt>
      <trkpt lat="43.61179" lon="0.88863">
        <ele>165</ele>
        <time>2020-10-03T12:58:51.000Z</time>
      </trkpt>
      <trkpt lat="43.61181" lon="0.88861">
        <ele>165</ele>
        <time>2020-10-03T12:58:52.000Z</time>
      </trkpt>
      <trkpt lat="43.61184" lon="0.88859">
        <ele>165</ele>
        <time>2020-10-03T12:58:53.000Z</time>
      </trkpt>
      <trkpt lat="43.61186" lon="0.88857">
        <ele>165</ele>
        <time>2020-10-03T12:58:54.000Z</time>
      </trkpt>
      <trkpt lat="43.61188" lon="0.88855">
        <ele>165</ele>
        <time>2020-10-03T12:58:55.000Z</time>
      </trkpt>
      <trkpt lat="43.61191" lon="0.88853">
        <ele>165</ele>
        <time>2020-10-03T12:58:56.000Z</time>
      </trkpt>
      <trkpt lat="43.61193" lon="0.88852">
        <ele>165</ele>
        <time>2020-10-03T12:58:57.000Z</time>
      </trkpt>
      <trkpt lat="43.61196" lon="0.8885">
        <ele>165</ele>
        <time>2020-10-03T12:58:58.000Z</time>
      </trkpt>
      <trkpt lat="43.61198" lon="0.88848">
        <ele>165</ele>
        <time>2020-10-03T12:58:59.000Z</time>
      </trkpt>
      <trkpt lat="43.61201" lon="0.88846">
        <ele>165</ele>
        <time>2020-10-03T12:59:00.000Z</time>
      </trkpt>
      <trkpt lat="43.61203" lon="0.88844">
        <ele>165</ele>
        <time>2020-10-03T12:59:01.000Z</time>
      </trkpt>
      <trkpt lat="43.61206" lon="0.88843">
        <ele>165</ele>
        <time>2020-10-03T12:59:02.000Z</time>
      </trkpt>
      <trkpt lat="43.61208" lon="0.88841">
        <ele>165</ele>
        <time>2020-10-03T12:59:03.000Z</time>
      </trkpt>
      <trkpt lat="43.6121" lon="0.88839">
        <ele>165</ele>
        <time>2020-10-03T12:59:04.000Z</time>
      </trkpt>
      <trkpt lat="43.61213" lon="0.88837">
        <ele>165</ele>
        <time>2020-10-03T12:59:05.000Z</time>
      </trkpt>
      <trkpt lat="43.61215" lon="0.88835">
        <ele>165</ele>
        <time>2020-10-03T12:59:06.000Z</time>
      </trkpt>
      <trkpt lat="43.61218" lon="0.88834">
        <ele>165</ele>
        <time>2020-10-03T12:59:07.000Z</time>
      </trkpt>
      <trkpt lat="43.6122" lon="0.88832">
        <ele>165</ele>
        <time>2020-10-03T12:59:08.000Z</time>
      </trkpt>
      <trkpt lat="43.61223" lon="0.8883">
        <ele>165</ele>
        <time>2020-10-03T12:59:09.000Z</time>
      </trkpt>
      <trkpt lat="43.61225" lon="0.88828">
        <ele>165</ele>
        <time>2020-10-03T12:59:10.000Z</time>
      </trkpt>
      <trkpt lat="43.61228" lon="0.88826">
        <ele>165</ele>
        <time>2020-10-03T12:59:11.000Z</time>
      </trkpt>
      <trkpt lat="43.6123" lon="0.88825">
        <ele>165</ele>
        <time>2020-10-03T12:59:12.000Z</time>
      </trkpt>
      <trkpt lat="43.61233" lon="0.88823">
        <ele>165</ele>
        <time>2020-10-03T12:59:13.000Z</time>
      </trkpt>
      <trkpt lat="43.61235" lon="0.88821">
        <ele>165</ele>
        <time>2020-10-03T12:59:14.000Z</time>
      </trkpt>
      <trkpt lat="43.61237" lon="0.88819">
        <ele>165.39285714286</ele>
        <time>2020-10-03T12:59:15.000Z</time>
      </trkpt>
      <trkpt lat="43.6124" lon="0.88817">
        <ele>166</ele>
        <time>2020-10-03T12:59:16.000Z</time>
      </trkpt>
      <trkpt lat="43.61242" lon="0.88816">
        <ele>166</ele>
        <time>2020-10-03T12:59:17.000Z</time>
      </trkpt>
      <trkpt lat="43.61245" lon="0.88814">
        <ele>166</ele>
        <time>2020-10-03T12:59:18.000Z</time>
      </trkpt>
      <trkpt lat="43.61247" lon="0.88812">
        <ele>166</ele>
        <time>2020-10-03T12:59:19.000Z</time>
      </trkpt>
      <trkpt lat="43.6125" lon="0.8881">
        <ele>166</ele>
        <time>2020-10-03T12:59:20.000Z</time>
      </trkpt>
      <trkpt lat="43.61252" lon="0.88809">
        <ele>166</ele>
        <time>2020-10-03T12:59:21.000Z</time>
      </trkpt>
      <trkpt lat="43.61255" lon="0.88807">
        <ele>166</ele>
        <time>2020-10-03T12:59:22.000Z</time>
      </trkpt>
      <trkpt lat="43.61258" lon="0.88805">
        <ele>166</ele>
        <time>2020-10-03T12:59:23.000Z</time>
      </trkpt>
      <trkpt lat="43.6126" lon="0.88804">
        <ele>166</ele>
        <time>2020-10-03T12:59:24.000Z</time>
      </trkpt>
      <trkpt lat="43.61262" lon="0.88802">
        <ele>166</ele>
        <time>2020-10-03T12:59:25.000Z</time>
      </trkpt>
      <trkpt lat="43.61265" lon="0.88801">
        <ele>166</ele>
        <time>2020-10-03T12:59:26.000Z</time>
      </trkpt>
      <trkpt lat="43.61267" lon="0.88799">
        <ele>166</ele>
        <time>2020-10-03T12:59:27.000Z</time>
      </trkpt>
      <trkpt lat="43.61269" lon="0.88797">
        <ele>166</ele>
        <time>2020-10-03T12:59:28.000Z</time>
      </trkpt>
      <trkpt lat="43.61271" lon="0.88796">
        <ele>166</ele>
        <time>2020-10-03T12:59:29.000Z</time>
      </trkpt>
      <trkpt lat="43.61274" lon="0.88794">
        <ele>166</ele>
        <time>2020-10-03T12:59:30.000Z</time>
      </trkpt>
      <trkpt lat="43.61276" lon="0.88793">
        <ele>166</ele>
        <time>2020-10-03T12:59:31.000Z</time>
      </trkpt>
      <trkpt lat="43.61281" lon="0.88789">
        <ele>166</ele>
        <time>2020-10-03T12:59:33.000Z</time>
      </trkpt>
      <trkpt lat="43.61284" lon="0.88787">
        <ele>166</ele>
        <time>2020-10-03T12:59:34.000Z</time>
      </trkpt>
      <trkpt lat="43.61286" lon="0.88785">
        <ele>166</ele>
        <time>2020-10-03T12:59:35.000Z</time>
      </trkpt>
      <trkpt lat="43.61288" lon="0.88783">
        <ele>166</ele>
        <time>2020-10-03T12:59:36.000Z</time>
      </trkpt>
      <trkpt lat="43.6129" lon="0.88781">
        <ele>166</ele>
        <time>2020-10-03T12:59:37.000Z</time>
      </trkpt>
      <trkpt lat="43.61292" lon="0.88779">
        <ele>166</ele>
        <time>2020-10-03T12:59:38.000Z</time>
      </trkpt>
      <trkpt lat="43.61295" lon="0.88777">
        <ele>166</ele>
        <time>2020-10-03T12:59:39.000Z</time>
      </trkpt>
      <trkpt lat="43.61297" lon="0.88775">
        <ele>166</ele>
        <time>2020-10-03T12:59:40.000Z</time>
      </trkpt>
      <trkpt lat="43.61299" lon="0.88773">
        <ele>166</ele>
        <time>2020-10-03T12:59:41.000Z</time>
      </trkpt>
      <trkpt lat="43.61302" lon="0.88771">
        <ele>166</ele>
        <time>2020-10-03T12:59:42.000Z</time>
      </trkpt>
      <trkpt lat="43.61304" lon="0.88769">
        <ele>166</ele>
        <time>2020-10-03T12:59:43.000Z</time>
      </trkpt>
      <trkpt lat="43.61306" lon="0.88766">
        <ele>166</ele>
        <time>2020-10-03T12:59:44.000Z</time>
      </trkpt>
      <trkpt lat="43.61308" lon="0.88764">
        <ele>166</ele>
        <time>2020-10-03T12:59:45.000Z</time>
      </trkpt>
      <trkpt lat="43.61311" lon="0.88761">
        <ele>166</ele>
        <time>2020-10-03T12:59:46.000Z</time>
      </trkpt>
      <trkpt lat="43.61313" lon="0.88759">
        <ele>166.17807858884</ele>
        <time>2020-10-03T12:59:47.000Z</time>
      </trkpt>
      <trkpt lat="43.61315" lon="0.88758">
        <ele>167</ele>
        <time>2020-10-03T12:59:48.000Z</time>
      </trkpt>
      <trkpt lat="43.61317" lon="0.88755">
        <ele>167</ele>
        <time>2020-10-03T12:59:49.000Z</time>
      </trkpt>
      <trkpt lat="43.61319" lon="0.88753">
        <ele>167</ele>
        <time>2020-10-03T12:59:50.000Z</time>
      </trkpt>
      <trkpt lat="43.61321" lon="0.88752">
        <ele>167.84090181818</ele>
        <time>2020-10-03T12:59:51.000Z</time>
      </trkpt>
      <trkpt lat="43.61323" lon="0.88751">
        <ele>169</ele>
        <time>2020-10-03T12:59:53.000Z</time>
      </trkpt>
      <trkpt lat="43.61322" lon="0.88755">
        <ele>169</ele>
        <time>2020-10-03T13:00:04.000Z</time>
      </trkpt>
      <trkpt lat="43.61319" lon="0.88758">
        <ele>169</ele>
        <time>2020-10-03T13:00:06.000Z</time>
      </trkpt>
      <trkpt lat="43.61318" lon="0.88759">
        <ele>169</ele>
        <time>2020-10-03T13:00:07.000Z</time>
      </trkpt>
      <trkpt lat="43.61315" lon="0.88761">
        <ele>169</ele>
        <time>2020-10-03T13:00:09.000Z</time>
      </trkpt>
      <trkpt lat="43.61313" lon="0.88763">
        <ele>168</ele>
        <time>2020-10-03T13:00:11.000Z</time>
      </trkpt>
      <trkpt lat="43.61315" lon="0.88761">
        <ele>168</ele>
        <time>2020-10-03T13:00:14.000Z</time>
      </trkpt>
      <trkpt lat="43.61317" lon="0.88759">
        <ele>168</ele>
        <time>2020-10-03T13:00:16.000Z</time>
      </trkpt>
      <trkpt lat="43.6132" lon="0.88755">
        <ele>168</ele>
        <time>2020-10-03T13:00:18.000Z</time>
      </trkpt>
      <trkpt lat="43.61322" lon="0.88753">
        <ele>168.27067734298</ele>
        <time>2020-10-03T13:00:20.000Z</time>
      </trkpt>
      <trkpt lat="43.61324" lon="0.88751">
        <ele>169</ele>
        <time>2020-10-03T13:00:22.000Z</time>
      </trkpt>
      <trkpt lat="43.61326" lon="0.88749">
        <ele>169</ele>
        <time>2020-10-03T13:00:24.000Z</time>
      </trkpt>
      <trkpt lat="43.61329" lon="0.88747">
        <ele>169</ele>
        <time>2020-10-03T13:00:26.000Z</time>
      </trkpt>
      <trkpt lat="43.61331" lon="0.88745">
        <ele>169</ele>
        <time>2020-10-03T13:00:28.000Z</time>
      </trkpt>
      <trkpt lat="43.61332" lon="0.88743">
        <ele>169</ele>
        <time>2020-10-03T13:00:30.000Z</time>
      </trkpt>
      <trkpt lat="43.61331" lon="0.88745">
        <ele>169</ele>
        <time>2020-10-03T13:00:34.000Z</time>
      </trkpt>
      <trkpt lat="43.61328" lon="0.88748">
        <ele>169</ele>
        <time>2020-10-03T13:00:36.000Z</time>
      </trkpt>
      <trkpt lat="43.61326" lon="0.8875">
        <ele>169</ele>
        <time>2020-10-03T13:00:37.000Z</time>
      </trkpt>
      <trkpt lat="43.61324" lon="0.88752">
        <ele>169</ele>
        <time>2020-10-03T13:00:38.000Z</time>
      </trkpt>
      <trkpt lat="43.61322" lon="0.88755">
        <ele>169</ele>
        <time>2020-10-03T13:00:39.000Z</time>
      </trkpt>
      <trkpt lat="43.61319" lon="0.88757">
        <ele>169</ele>
        <time>2020-10-03T13:00:40.000Z</time>
      </trkpt>
      <trkpt lat="43.61317" lon="0.8876">
        <ele>169</ele>
        <time>2020-10-03T13:00:41.000Z</time>
      </trkpt>
      <trkpt lat="43.61315" lon="0.88762">
        <ele>168.54955141954</ele>
        <time>2020-10-03T13:00:42.000Z</time>
      </trkpt>
      <trkpt lat="43.61312" lon="0.88765">
        <ele>168</ele>
        <time>2020-10-03T13:00:43.000Z</time>
      </trkpt>
      <trkpt lat="43.6131" lon="0.88767">
        <ele>168</ele>
        <time>2020-10-03T13:00:44.000Z</time>
      </trkpt>
      <trkpt lat="43.61307" lon="0.8877">
        <ele>168</ele>
        <time>2020-10-03T13:00:45.000Z</time>
      </trkpt>
      <trkpt lat="43.61305" lon="0.88772">
        <ele>168</ele>
        <time>2020-10-03T13:00:46.000Z</time>
      </trkpt>
      <trkpt lat="43.61303" lon="0.88774">
        <ele>168</ele>
        <time>2020-10-03T13:00:47.000Z</time>
      </trkpt>
      <trkpt lat="43.613" lon="0.88776">
        <ele>168</ele>
        <time>2020-10-03T13:00:48.000Z</time>
      </trkpt>
      <trkpt lat="43.61298" lon="0.88777">
        <ele>168</ele>
        <time>2020-10-03T13:00:49.000Z</time>
      </trkpt>
      <trkpt lat="43.61296" lon="0.88777">
        <ele>168</ele>
        <time>2020-10-03T13:00:50.000Z</time>
      </trkpt>
      <trkpt lat="43.61297" lon="0.88774">
        <ele>167</ele>
        <time>2020-10-03T13:00:53.000Z</time>
      </trkpt>
      <trkpt lat="43.61297" lon="0.8877">
        <ele>167</ele>
        <time>2020-10-03T13:00:55.000Z</time>
      </trkpt>
      <trkpt lat="43.61297" lon="0.88767">
        <ele>167</ele>
        <time>2020-10-03T13:00:57.000Z</time>
      </trkpt>
      <trkpt lat="43.61297" lon="0.88763">
        <ele>167</ele>
        <time>2020-10-03T13:00:59.000Z</time>
      </trkpt>
      <trkpt lat="43.61298" lon="0.88759">
        <ele>167</ele>
        <time>2020-10-03T13:01:01.000Z</time>
      </trkpt>
      <trkpt lat="43.61298" lon="0.88755">
        <ele>167</ele>
        <time>2020-10-03T13:01:03.000Z</time>
      </trkpt>
      <trkpt lat="43.61298" lon="0.88751">
        <ele>168</ele>
        <time>2020-10-03T13:01:05.000Z</time>
      </trkpt>
      <trkpt lat="43.61298" lon="0.88747">
        <ele>168.73810285714</ele>
        <time>2020-10-03T13:01:07.000Z</time>
      </trkpt>
      <trkpt lat="43.61299" lon="0.88743">
        <ele>170</ele>
        <time>2020-10-03T13:01:09.000Z</time>
      </trkpt>
      <trkpt lat="43.61299" lon="0.88739">
        <ele>170.40625333333</ele>
        <time>2020-10-03T13:01:11.000Z</time>
      </trkpt>
      <trkpt lat="43.613" lon="0.88735">
        <ele>171</ele>
        <time>2020-10-03T13:01:13.000Z</time>
      </trkpt>
      <trkpt lat="43.61301" lon="0.88732">
        <ele>171</ele>
        <time>2020-10-03T13:01:15.000Z</time>
      </trkpt>
      <trkpt lat="43.61302" lon="0.88728">
        <ele>171</ele>
        <time>2020-10-03T13:01:17.000Z</time>
      </trkpt>
      <trkpt lat="43.61303" lon="0.88723">
        <ele>173</ele>
        <time>2020-10-03T13:01:19.000Z</time>
      </trkpt>
      <trkpt lat="43.61304" lon="0.88719">
        <ele>173</ele>
        <time>2020-10-03T13:01:21.000Z</time>
      </trkpt>
      <trkpt lat="43.61305" lon="0.88716">
        <ele>173</ele>
        <time>2020-10-03T13:01:22.000Z</time>
      </trkpt>
      <trkpt lat="43.61305" lon="0.88713">
        <ele>173</ele>
        <time>2020-10-03T13:01:23.000Z</time>
      </trkpt>
      <trkpt lat="43.61306" lon="0.8871">
        <ele>173</ele>
        <time>2020-10-03T13:01:24.000Z</time>
      </trkpt>
      <trkpt lat="43.61307" lon="0.88707">
        <ele>173</ele>
        <time>2020-10-03T13:01:25.000Z</time>
      </trkpt>
      <trkpt lat="43.61308" lon="0.88704">
        <ele>173</ele>
        <time>2020-10-03T13:01:26.000Z</time>
      </trkpt>
      <trkpt lat="43.61308" lon="0.887">
        <ele>173</ele>
        <time>2020-10-03T13:01:27.000Z</time>
      </trkpt>
      <trkpt lat="43.61309" lon="0.88697">
        <ele>173</ele>
        <time>2020-10-03T13:01:28.000Z</time>
      </trkpt>
      <trkpt lat="43.61309" lon="0.88693">
        <ele>173</ele>
        <time>2020-10-03T13:01:29.000Z</time>
      </trkpt>
      <trkpt lat="43.6131" lon="0.8869">
        <ele>173.80374189535</ele>
        <time>2020-10-03T13:01:30.000Z</time>
      </trkpt>
      <trkpt lat="43.61311" lon="0.88686">
        <ele>175</ele>
        <time>2020-10-03T13:01:31.000Z</time>
      </trkpt>
      <trkpt lat="43.61312" lon="0.88683">
        <ele>175</ele>
        <time>2020-10-03T13:01:32.000Z</time>
      </trkpt>
      <trkpt lat="43.61312" lon="0.88679">
        <ele>175</ele>
        <time>2020-10-03T13:01:33.000Z</time>
      </trkpt>
      <trkpt lat="43.61313" lon="0.88676">
        <ele>175</ele>
        <time>2020-10-03T13:01:34.000Z</time>
      </trkpt>
      <trkpt lat="43.61313" lon="0.88673">
        <ele>175</ele>
        <time>2020-10-03T13:01:35.000Z</time>
      </trkpt>
      <trkpt lat="43.61314" lon="0.88671">
        <ele>175</ele>
        <time>2020-10-03T13:01:36.000Z</time>
      </trkpt>
      <trkpt lat="43.61314" lon="0.88668">
        <ele>175.40740740741</ele>
        <time>2020-10-03T13:01:37.000Z</time>
      </trkpt>
      <trkpt lat="43.61315" lon="0.88665">
        <ele>176</ele>
        <time>2020-10-03T13:01:38.000Z</time>
      </trkpt>
      <trkpt lat="43.61315" lon="0.88662">
        <ele>176</ele>
        <time>2020-10-03T13:01:39.000Z</time>
      </trkpt>
      <trkpt lat="43.61315" lon="0.88659">
        <ele>176</ele>
        <time>2020-10-03T13:01:40.000Z</time>
      </trkpt>
      <trkpt lat="43.61315" lon="0.88655">
        <ele>176</ele>
        <time>2020-10-03T13:01:41.000Z</time>
      </trkpt>
      <trkpt lat="43.61314" lon="0.88652">
        <ele>176</ele>
        <time>2020-10-03T13:01:42.000Z</time>
      </trkpt>
      <trkpt lat="43.61314" lon="0.88649">
        <ele>176</ele>
        <time>2020-10-03T13:01:43.000Z</time>
      </trkpt>
      <trkpt lat="43.61314" lon="0.88645">
        <ele>176</ele>
        <time>2020-10-03T13:01:44.000Z</time>
      </trkpt>
      <trkpt lat="43.61314" lon="0.88642">
        <ele>176.37272653223</ele>
        <time>2020-10-03T13:01:45.000Z</time>
      </trkpt>
      <trkpt lat="43.61314" lon="0.88639">
        <ele>177</ele>
        <time>2020-10-03T13:01:46.000Z</time>
      </trkpt>
      <trkpt lat="43.61314" lon="0.88636">
        <ele>177</ele>
        <time>2020-10-03T13:01:47.000Z</time>
      </trkpt>
      <trkpt lat="43.61314" lon="0.88632">
        <ele>177</ele>
        <time>2020-10-03T13:01:48.000Z</time>
      </trkpt>
      <trkpt lat="43.61314" lon="0.88629">
        <ele>177.40000284447</ele>
        <time>2020-10-03T13:01:49.000Z</time>
      </trkpt>
      <trkpt lat="43.61313" lon="0.88626">
        <ele>178</ele>
        <time>2020-10-03T13:01:50.000Z</time>
      </trkpt>
      <trkpt lat="43.61313" lon="0.88623">
        <ele>178</ele>
        <time>2020-10-03T13:01:51.000Z</time>
      </trkpt>
      <trkpt lat="43.61313" lon="0.88619">
        <ele>178</ele>
        <time>2020-10-03T13:01:52.000Z</time>
      </trkpt>
      <trkpt lat="43.61313" lon="0.88616">
        <ele>178</ele>
        <time>2020-10-03T13:01:53.000Z</time>
      </trkpt>
      <trkpt lat="43.61313" lon="0.88612">
        <ele>178</ele>
        <time>2020-10-03T13:01:54.000Z</time>
      </trkpt>
      <trkpt lat="43.61313" lon="0.88608">
        <ele>178</ele>
        <time>2020-10-03T13:01:55.000Z</time>
      </trkpt>
      <trkpt lat="43.61313" lon="0.88605">
        <ele>178</ele>
        <time>2020-10-03T13:01:56.000Z</time>
      </trkpt>
      <trkpt lat="43.61313" lon="0.88601">
        <ele>178</ele>
        <time>2020-10-03T13:01:57.000Z</time>
      </trkpt>
      <trkpt lat="43.61313" lon="0.88598">
        <ele>178</ele>
        <time>2020-10-03T13:01:58.000Z</time>
      </trkpt>
      <trkpt lat="43.61312" lon="0.88594">
        <ele>178</ele>
        <time>2020-10-03T13:01:59.000Z</time>
      </trkpt>
      <trkpt lat="43.61312" lon="0.88591">
        <ele>178</ele>
        <time>2020-10-03T13:02:00.000Z</time>
      </trkpt>
      <trkpt lat="43.61312" lon="0.88587">
        <ele>178</ele>
        <time>2020-10-03T13:02:01.000Z</time>
      </trkpt>
      <trkpt lat="43.61312" lon="0.88583">
        <ele>178</ele>
        <time>2020-10-03T13:02:02.000Z</time>
      </trkpt>
      <trkpt lat="43.61312" lon="0.8858">
        <ele>178</ele>
        <time>2020-10-03T13:02:03.000Z</time>
      </trkpt>
      <trkpt lat="43.61311" lon="0.88576">
        <ele>178</ele>
        <time>2020-10-03T13:02:04.000Z</time>
      </trkpt>
      <trkpt lat="43.61311" lon="0.88573">
        <ele>178.39815111111</ele>
        <time>2020-10-03T13:02:05.000Z</time>
      </trkpt>
      <trkpt lat="43.61311" lon="0.88569">
        <ele>179</ele>
        <time>2020-10-03T13:02:06.000Z</time>
      </trkpt>
      <trkpt lat="43.61311" lon="0.88566">
        <ele>179</ele>
        <time>2020-10-03T13:02:07.000Z</time>
      </trkpt>
      <trkpt lat="43.61311" lon="0.88562">
        <ele>179</ele>
        <time>2020-10-03T13:02:08.000Z</time>
      </trkpt>
      <trkpt lat="43.61311" lon="0.88559">
        <ele>179</ele>
        <time>2020-10-03T13:02:09.000Z</time>
      </trkpt>
      <trkpt lat="43.6131" lon="0.88555">
        <ele>179</ele>
        <time>2020-10-03T13:02:10.000Z</time>
      </trkpt>
      <trkpt lat="43.6131" lon="0.88552">
        <ele>179</ele>
        <time>2020-10-03T13:02:11.000Z</time>
      </trkpt>
      <trkpt lat="43.6131" lon="0.88549">
        <ele>179</ele>
        <time>2020-10-03T13:02:12.000Z</time>
      </trkpt>
      <trkpt lat="43.6131" lon="0.88547">
        <ele>179.40000301173</ele>
        <time>2020-10-03T13:02:13.000Z</time>
      </trkpt>
      <trkpt lat="43.6131" lon="0.88541">
        <ele>180</ele>
        <time>2020-10-03T13:02:15.000Z</time>
      </trkpt>
      <trkpt lat="43.6131" lon="0.88538">
        <ele>180</ele>
        <time>2020-10-03T13:02:16.000Z</time>
      </trkpt>
      <trkpt lat="43.61309" lon="0.88535">
        <ele>180</ele>
        <time>2020-10-03T13:02:17.000Z</time>
      </trkpt>
      <trkpt lat="43.61309" lon="0.88532">
        <ele>180</ele>
        <time>2020-10-03T13:02:18.000Z</time>
      </trkpt>
      <trkpt lat="43.61309" lon="0.88528">
        <ele>180</ele>
        <time>2020-10-03T13:02:19.000Z</time>
      </trkpt>
      <trkpt lat="43.61309" lon="0.88524">
        <ele>180</ele>
        <time>2020-10-03T13:02:20.000Z</time>
      </trkpt>
      <trkpt lat="43.61308" lon="0.8852">
        <ele>180</ele>
        <time>2020-10-03T13:02:21.000Z</time>
      </trkpt>
      <trkpt lat="43.61308" lon="0.88517">
        <ele>180</ele>
        <time>2020-10-03T13:02:22.000Z</time>
      </trkpt>
      <trkpt lat="43.61308" lon="0.88514">
        <ele>180</ele>
        <time>2020-10-03T13:02:23.000Z</time>
      </trkpt>
      <trkpt lat="43.61308" lon="0.8851">
        <ele>180</ele>
        <time>2020-10-03T13:02:24.000Z</time>
      </trkpt>
      <trkpt lat="43.61308" lon="0.88507">
        <ele>180</ele>
        <time>2020-10-03T13:02:25.000Z</time>
      </trkpt>
      <trkpt lat="43.61308" lon="0.88504">
        <ele>180</ele>
        <time>2020-10-03T13:02:26.000Z</time>
      </trkpt>
      <trkpt lat="43.61309" lon="0.885">
        <ele>180</ele>
        <time>2020-10-03T13:02:27.000Z</time>
      </trkpt>
      <trkpt lat="43.61309" lon="0.88497">
        <ele>180</ele>
        <time>2020-10-03T13:02:28.000Z</time>
      </trkpt>
      <trkpt lat="43.61309" lon="0.88494">
        <ele>180</ele>
        <time>2020-10-03T13:02:29.000Z</time>
      </trkpt>
      <trkpt lat="43.61308" lon="0.88491">
        <ele>180.41177002078</ele>
        <time>2020-10-03T13:02:30.000Z</time>
      </trkpt>
      <trkpt lat="43.61308" lon="0.88488">
        <ele>181</ele>
        <time>2020-10-03T13:02:31.000Z</time>
      </trkpt>
      <trkpt lat="43.61308" lon="0.88484">
        <ele>181</ele>
        <time>2020-10-03T13:02:32.000Z</time>
      </trkpt>
      <trkpt lat="43.61308" lon="0.88481">
        <ele>181</ele>
        <time>2020-10-03T13:02:33.000Z</time>
      </trkpt>
      <trkpt lat="43.61309" lon="0.88478">
        <ele>181</ele>
        <time>2020-10-03T13:02:34.000Z</time>
      </trkpt>
      <trkpt lat="43.61309" lon="0.88474">
        <ele>181</ele>
        <time>2020-10-03T13:02:35.000Z</time>
      </trkpt>
      <trkpt lat="43.6131" lon="0.88471">
        <ele>181</ele>
        <time>2020-10-03T13:02:36.000Z</time>
      </trkpt>
      <trkpt lat="43.6131" lon="0.88468">
        <ele>181</ele>
        <time>2020-10-03T13:02:37.000Z</time>
      </trkpt>
      <trkpt lat="43.61311" lon="0.88465">
        <ele>181</ele>
        <time>2020-10-03T13:02:38.000Z</time>
      </trkpt>
      <trkpt lat="43.61311" lon="0.88461">
        <ele>181</ele>
        <time>2020-10-03T13:02:39.000Z</time>
      </trkpt>
      <trkpt lat="43.61311" lon="0.88457">
        <ele>181</ele>
        <time>2020-10-03T13:02:40.000Z</time>
      </trkpt>
      <trkpt lat="43.61311" lon="0.88453">
        <ele>181.39215932335</ele>
        <time>2020-10-03T13:02:41.000Z</time>
      </trkpt>
      <trkpt lat="43.61311" lon="0.88449">
        <ele>182</ele>
        <time>2020-10-03T13:02:42.000Z</time>
      </trkpt>
      <trkpt lat="43.61312" lon="0.88446">
        <ele>182</ele>
        <time>2020-10-03T13:02:43.000Z</time>
      </trkpt>
      <trkpt lat="43.61312" lon="0.88443">
        <ele>182.42045090909</ele>
        <time>2020-10-03T13:02:44.000Z</time>
      </trkpt>
      <trkpt lat="43.61313" lon="0.8844">
        <ele>183</ele>
        <time>2020-10-03T13:02:45.000Z</time>
      </trkpt>
      <trkpt lat="43.61313" lon="0.88437">
        <ele>183</ele>
        <time>2020-10-03T13:02:46.000Z</time>
      </trkpt>
      <trkpt lat="43.61313" lon="0.88434">
        <ele>183</ele>
        <time>2020-10-03T13:02:47.000Z</time>
      </trkpt>
      <trkpt lat="43.61314" lon="0.8843">
        <ele>183.40697743645</ele>
        <time>2020-10-03T13:02:48.000Z</time>
      </trkpt>
      <trkpt lat="43.61314" lon="0.88426">
        <ele>184</ele>
        <time>2020-10-03T13:02:49.000Z</time>
      </trkpt>
      <trkpt lat="43.61314" lon="0.88423">
        <ele>184</ele>
        <time>2020-10-03T13:02:50.000Z</time>
      </trkpt>
      <trkpt lat="43.61314" lon="0.8842">
        <ele>184</ele>
        <time>2020-10-03T13:02:51.000Z</time>
      </trkpt>
      <trkpt lat="43.61314" lon="0.88416">
        <ele>184</ele>
        <time>2020-10-03T13:02:52.000Z</time>
      </trkpt>
      <trkpt lat="43.61314" lon="0.88413">
        <ele>184</ele>
        <time>2020-10-03T13:02:53.000Z</time>
      </trkpt>
      <trkpt lat="43.61314" lon="0.88409">
        <ele>184</ele>
        <time>2020-10-03T13:02:54.000Z</time>
      </trkpt>
      <trkpt lat="43.61313" lon="0.88406">
        <ele>184</ele>
        <time>2020-10-03T13:02:55.000Z</time>
      </trkpt>
      <trkpt lat="43.61313" lon="0.88403">
        <ele>184</ele>
        <time>2020-10-03T13:02:56.000Z</time>
      </trkpt>
      <trkpt lat="43.61313" lon="0.884">
        <ele>184</ele>
        <time>2020-10-03T13:02:57.000Z</time>
      </trkpt>
      <trkpt lat="43.61313" lon="0.88398">
        <ele>184</ele>
        <time>2020-10-03T13:02:58.000Z</time>
      </trkpt>
      <trkpt lat="43.61314" lon="0.88395">
        <ele>184</ele>
        <time>2020-10-03T13:02:59.000Z</time>
      </trkpt>
      <trkpt lat="43.61314" lon="0.88392">
        <ele>184.34285818776</ele>
        <time>2020-10-03T13:03:00.000Z</time>
      </trkpt>
      <trkpt lat="43.61315" lon="0.88388">
        <ele>185</ele>
        <time>2020-10-03T13:03:01.000Z</time>
      </trkpt>
      <trkpt lat="43.61315" lon="0.88384">
        <ele>185</ele>
        <time>2020-10-03T13:03:02.000Z</time>
      </trkpt>
      <trkpt lat="43.61316" lon="0.88381">
        <ele>185</ele>
        <time>2020-10-03T13:03:03.000Z</time>
      </trkpt>
      <trkpt lat="43.61316" lon="0.88378">
        <ele>185</ele>
        <time>2020-10-03T13:03:04.000Z</time>
      </trkpt>
      <trkpt lat="43.61317" lon="0.88375">
        <ele>185</ele>
        <time>2020-10-03T13:03:05.000Z</time>
      </trkpt>
      <trkpt lat="43.61318" lon="0.88371">
        <ele>185</ele>
        <time>2020-10-03T13:03:06.000Z</time>
      </trkpt>
      <trkpt lat="43.61318" lon="0.88368">
        <ele>185</ele>
        <time>2020-10-03T13:03:07.000Z</time>
      </trkpt>
      <trkpt lat="43.61319" lon="0.88365">
        <ele>185</ele>
        <time>2020-10-03T13:03:08.000Z</time>
      </trkpt>
      <trkpt lat="43.61319" lon="0.88361">
        <ele>185</ele>
        <time>2020-10-03T13:03:09.000Z</time>
      </trkpt>
      <trkpt lat="43.61319" lon="0.88358">
        <ele>185</ele>
        <time>2020-10-03T13:03:10.000Z</time>
      </trkpt>
      <trkpt lat="43.6132" lon="0.88354">
        <ele>185</ele>
        <time>2020-10-03T13:03:11.000Z</time>
      </trkpt>
      <trkpt lat="43.61321" lon="0.88351">
        <ele>185</ele>
        <time>2020-10-03T13:03:12.000Z</time>
      </trkpt>
      <trkpt lat="43.61321" lon="0.88348">
        <ele>185.39604085874</ele>
        <time>2020-10-03T13:03:13.000Z</time>
      </trkpt>
      <trkpt lat="43.61323" lon="0.88345">
        <ele>186</ele>
        <time>2020-10-03T13:03:14.000Z</time>
      </trkpt>
      <trkpt lat="43.61324" lon="0.88342">
        <ele>186</ele>
        <time>2020-10-03T13:03:15.000Z</time>
      </trkpt>
      <trkpt lat="43.61325" lon="0.88338">
        <ele>186.15068733343</ele>
        <time>2020-10-03T13:03:16.000Z</time>
      </trkpt>
      <trkpt lat="43.61326" lon="0.88334">
        <ele>187</ele>
        <time>2020-10-03T13:03:17.000Z</time>
      </trkpt>
      <trkpt lat="43.61327" lon="0.88331">
        <ele>187</ele>
        <time>2020-10-03T13:03:18.000Z</time>
      </trkpt>
      <trkpt lat="43.61326" lon="0.88328">
        <ele>187</ele>
        <time>2020-10-03T13:03:19.000Z</time>
      </trkpt>
      <trkpt lat="43.61327" lon="0.88325">
        <ele>187</ele>
        <time>2020-10-03T13:03:20.000Z</time>
      </trkpt>
      <trkpt lat="43.61328" lon="0.88321">
        <ele>187</ele>
        <time>2020-10-03T13:03:21.000Z</time>
      </trkpt>
      <trkpt lat="43.61329" lon="0.88317">
        <ele>187</ele>
        <time>2020-10-03T13:03:22.000Z</time>
      </trkpt>
      <trkpt lat="43.6133" lon="0.88313">
        <ele>187</ele>
        <time>2020-10-03T13:03:23.000Z</time>
      </trkpt>
      <trkpt lat="43.6133" lon="0.88309">
        <ele>187</ele>
        <time>2020-10-03T13:03:24.000Z</time>
      </trkpt>
      <trkpt lat="43.61331" lon="0.88305">
        <ele>187</ele>
        <time>2020-10-03T13:03:25.000Z</time>
      </trkpt>
      <trkpt lat="43.61332" lon="0.88302">
        <ele>187</ele>
        <time>2020-10-03T13:03:26.000Z</time>
      </trkpt>
      <trkpt lat="43.61332" lon="0.88299">
        <ele>187</ele>
        <time>2020-10-03T13:03:27.000Z</time>
      </trkpt>
      <trkpt lat="43.61332" lon="0.88296">
        <ele>187</ele>
        <time>2020-10-03T13:03:28.000Z</time>
      </trkpt>
      <trkpt lat="43.61333" lon="0.88293">
        <ele>187</ele>
        <time>2020-10-03T13:03:29.000Z</time>
      </trkpt>
      <trkpt lat="43.61335" lon="0.88289">
        <ele>187</ele>
        <time>2020-10-03T13:03:30.000Z</time>
      </trkpt>
      <trkpt lat="43.61337" lon="0.88286">
        <ele>187.40476335599</ele>
        <time>2020-10-03T13:03:31.000Z</time>
      </trkpt>
      <trkpt lat="43.61339" lon="0.88284">
        <ele>188</ele>
        <time>2020-10-03T13:03:32.000Z</time>
      </trkpt>
      <trkpt lat="43.6134" lon="0.88282">
        <ele>188</ele>
        <time>2020-10-03T13:03:33.000Z</time>
      </trkpt>
      <trkpt lat="43.61342" lon="0.8828">
        <ele>188</ele>
        <time>2020-10-03T13:03:34.000Z</time>
      </trkpt>
      <trkpt lat="43.61345" lon="0.88279">
        <ele>188.28378191379</ele>
        <time>2020-10-03T13:03:35.000Z</time>
      </trkpt>
      <trkpt lat="43.61347" lon="0.88277">
        <ele>189</ele>
        <time>2020-10-03T13:03:36.000Z</time>
      </trkpt>
      <trkpt lat="43.6135" lon="0.88275">
        <ele>189</ele>
        <time>2020-10-03T13:03:37.000Z</time>
      </trkpt>
      <trkpt lat="43.61352" lon="0.88274">
        <ele>189</ele>
        <time>2020-10-03T13:03:38.000Z</time>
      </trkpt>
      <trkpt lat="43.61355" lon="0.88272">
        <ele>189</ele>
        <time>2020-10-03T13:03:39.000Z</time>
      </trkpt>
      <trkpt lat="43.61357" lon="0.8827">
        <ele>189</ele>
        <time>2020-10-03T13:03:40.000Z</time>
      </trkpt>
      <trkpt lat="43.61359" lon="0.88267">
        <ele>189</ele>
        <time>2020-10-03T13:03:41.000Z</time>
      </trkpt>
      <trkpt lat="43.6136" lon="0.88265">
        <ele>189.11594256669</ele>
        <time>2020-10-03T13:03:42.000Z</time>
      </trkpt>
      <trkpt lat="43.61361" lon="0.88262">
        <ele>190</ele>
        <time>2020-10-03T13:03:43.000Z</time>
      </trkpt>
      <trkpt lat="43.61362" lon="0.88259">
        <ele>190</ele>
        <time>2020-10-03T13:03:44.000Z</time>
      </trkpt>
      <trkpt lat="43.61362" lon="0.88256">
        <ele>190</ele>
        <time>2020-10-03T13:03:45.000Z</time>
      </trkpt>
      <trkpt lat="43.61363" lon="0.88253">
        <ele>190</ele>
        <time>2020-10-03T13:03:46.000Z</time>
      </trkpt>
      <trkpt lat="43.61364" lon="0.8825">
        <ele>190</ele>
        <time>2020-10-03T13:03:47.000Z</time>
      </trkpt>
      <trkpt lat="43.61365" lon="0.88247">
        <ele>190</ele>
        <time>2020-10-03T13:03:48.000Z</time>
      </trkpt>
      <trkpt lat="43.61366" lon="0.88244">
        <ele>190</ele>
        <time>2020-10-03T13:03:49.000Z</time>
      </trkpt>
      <trkpt lat="43.61367" lon="0.88242">
        <ele>190</ele>
        <time>2020-10-03T13:03:50.000Z</time>
      </trkpt>
      <trkpt lat="43.61369" lon="0.8824">
        <ele>190</ele>
        <time>2020-10-03T13:03:51.000Z</time>
      </trkpt>
      <trkpt lat="43.6137" lon="0.88238">
        <ele>190</ele>
        <time>2020-10-03T13:03:52.000Z</time>
      </trkpt>
      <trkpt lat="43.6137" lon="0.88236">
        <ele>190</ele>
        <time>2020-10-03T13:03:53.000Z</time>
      </trkpt>
      <trkpt lat="43.61372" lon="0.88233">
        <ele>190</ele>
        <time>2020-10-03T13:03:54.000Z</time>
      </trkpt>
      <trkpt lat="43.61373" lon="0.88231">
        <ele>190</ele>
        <time>2020-10-03T13:03:55.000Z</time>
      </trkpt>
      <trkpt lat="43.61374" lon="0.88228">
        <ele>190</ele>
        <time>2020-10-03T13:03:56.000Z</time>
      </trkpt>
      <trkpt lat="43.61374" lon="0.88225">
        <ele>190</ele>
        <time>2020-10-03T13:03:57.000Z</time>
      </trkpt>
      <trkpt lat="43.61375" lon="0.88221">
        <ele>190.36470552803</ele>
        <time>2020-10-03T13:03:58.000Z</time>
      </trkpt>
      <trkpt lat="43.61376" lon="0.88218">
        <ele>191</ele>
        <time>2020-10-03T13:03:59.000Z</time>
      </trkpt>
      <trkpt lat="43.61376" lon="0.88214">
        <ele>191</ele>
        <time>2020-10-03T13:04:00.000Z</time>
      </trkpt>
      <trkpt lat="43.61377" lon="0.88211">
        <ele>191</ele>
        <time>2020-10-03T13:04:01.000Z</time>
      </trkpt>
      <trkpt lat="43.61377" lon="0.88207">
        <ele>191.4336267147</ele>
        <time>2020-10-03T13:04:02.000Z</time>
      </trkpt>
      <trkpt lat="43.61378" lon="0.88204">
        <ele>192</ele>
        <time>2020-10-03T13:04:03.000Z</time>
      </trkpt>
      <trkpt lat="43.6138" lon="0.88201">
        <ele>192</ele>
        <time>2020-10-03T13:04:04.000Z</time>
      </trkpt>
      <trkpt lat="43.61382" lon="0.88197">
        <ele>192</ele>
        <time>2020-10-03T13:04:05.000Z</time>
      </trkpt>
      <trkpt lat="43.61384" lon="0.88194">
        <ele>192</ele>
        <time>2020-10-03T13:04:06.000Z</time>
      </trkpt>
      <trkpt lat="43.61386" lon="0.88191">
        <ele>192</ele>
        <time>2020-10-03T13:04:07.000Z</time>
      </trkpt>
      <trkpt lat="43.61388" lon="0.88182">
        <ele>193</ele>
        <time>2020-10-03T13:04:09.000Z</time>
      </trkpt>
      <trkpt lat="43.61388" lon="0.88179">
        <ele>193</ele>
        <time>2020-10-03T13:04:10.000Z</time>
      </trkpt>
      <trkpt lat="43.61389" lon="0.88176">
        <ele>193</ele>
        <time>2020-10-03T13:04:11.000Z</time>
      </trkpt>
      <trkpt lat="43.61391" lon="0.88173">
        <ele>193</ele>
        <time>2020-10-03T13:04:12.000Z</time>
      </trkpt>
      <trkpt lat="43.61392" lon="0.8817">
        <ele>193</ele>
        <time>2020-10-03T13:04:13.000Z</time>
      </trkpt>
      <trkpt lat="43.61393" lon="0.88167">
        <ele>193</ele>
        <time>2020-10-03T13:04:14.000Z</time>
      </trkpt>
      <trkpt lat="43.61394" lon="0.88164">
        <ele>193</ele>
        <time>2020-10-03T13:04:15.000Z</time>
      </trkpt>
      <trkpt lat="43.61396" lon="0.88161">
        <ele>193.42156911957</ele>
        <time>2020-10-03T13:04:16.000Z</time>
      </trkpt>
      <trkpt lat="43.61397" lon="0.88159">
        <ele>194</ele>
        <time>2020-10-03T13:04:17.000Z</time>
      </trkpt>
      <trkpt lat="43.61398" lon="0.88157">
        <ele>194</ele>
        <time>2020-10-03T13:04:18.000Z</time>
      </trkpt>
      <trkpt lat="43.61399" lon="0.88154">
        <ele>194</ele>
        <time>2020-10-03T13:04:19.000Z</time>
      </trkpt>
      <trkpt lat="43.614" lon="0.88151">
        <ele>194</ele>
        <time>2020-10-03T13:04:20.000Z</time>
      </trkpt>
      <trkpt lat="43.61402" lon="0.88147">
        <ele>194</ele>
        <time>2020-10-03T13:04:21.000Z</time>
      </trkpt>
      <trkpt lat="43.61403" lon="0.88144">
        <ele>194</ele>
        <time>2020-10-03T13:04:22.000Z</time>
      </trkpt>
      <trkpt lat="43.61404" lon="0.88139">
        <ele>194</ele>
        <time>2020-10-03T13:04:23.000Z</time>
      </trkpt>
      <trkpt lat="43.61405" lon="0.88135">
        <ele>194</ele>
        <time>2020-10-03T13:04:24.000Z</time>
      </trkpt>
      <trkpt lat="43.61405" lon="0.88132">
        <ele>194</ele>
        <time>2020-10-03T13:04:25.000Z</time>
      </trkpt>
      <trkpt lat="43.61406" lon="0.88128">
        <ele>194</ele>
        <time>2020-10-03T13:04:26.000Z</time>
      </trkpt>
      <trkpt lat="43.61406" lon="0.88125">
        <ele>194</ele>
        <time>2020-10-03T13:04:27.000Z</time>
      </trkpt>
      <trkpt lat="43.61407" lon="0.88121">
        <ele>194</ele>
        <time>2020-10-03T13:04:28.000Z</time>
      </trkpt>
      <trkpt lat="43.61408" lon="0.88118">
        <ele>194</ele>
        <time>2020-10-03T13:04:29.000Z</time>
      </trkpt>
      <trkpt lat="43.61409" lon="0.88114">
        <ele>194</ele>
        <time>2020-10-03T13:04:30.000Z</time>
      </trkpt>
      <trkpt lat="43.6141" lon="0.8811">
        <ele>194</ele>
        <time>2020-10-03T13:04:31.000Z</time>
      </trkpt>
      <trkpt lat="43.61411" lon="0.88107">
        <ele>194</ele>
        <time>2020-10-03T13:04:32.000Z</time>
      </trkpt>
      <trkpt lat="43.61412" lon="0.88103">
        <ele>194</ele>
        <time>2020-10-03T13:04:33.000Z</time>
      </trkpt>
      <trkpt lat="43.61413" lon="0.88101">
        <ele>194</ele>
        <time>2020-10-03T13:04:34.000Z</time>
      </trkpt>
      <trkpt lat="43.61414" lon="0.88098">
        <ele>194</ele>
        <time>2020-10-03T13:04:35.000Z</time>
      </trkpt>
      <trkpt lat="43.61415" lon="0.88095">
        <ele>194</ele>
        <time>2020-10-03T13:04:36.000Z</time>
      </trkpt>
      <trkpt lat="43.61416" lon="0.88092">
        <ele>194</ele>
        <time>2020-10-03T13:04:37.000Z</time>
      </trkpt>
      <trkpt lat="43.61417" lon="0.88089">
        <ele>194</ele>
        <time>2020-10-03T13:04:38.000Z</time>
      </trkpt>
      <trkpt lat="43.61418" lon="0.88085">
        <ele>194.89907933675</ele>
        <time>2020-10-03T13:04:39.000Z</time>
      </trkpt>
      <trkpt lat="43.61419" lon="0.88082">
        <ele>196</ele>
        <time>2020-10-03T13:04:40.000Z</time>
      </trkpt>
      <trkpt lat="43.6142" lon="0.88078">
        <ele>196</ele>
        <time>2020-10-03T13:04:41.000Z</time>
      </trkpt>
      <trkpt lat="43.61421" lon="0.88076">
        <ele>196</ele>
        <time>2020-10-03T13:04:42.000Z</time>
      </trkpt>
      <trkpt lat="43.61422" lon="0.88073">
        <ele>196</ele>
        <time>2020-10-03T13:04:43.000Z</time>
      </trkpt>
      <trkpt lat="43.61423" lon="0.8807">
        <ele>196</ele>
        <time>2020-10-03T13:04:44.000Z</time>
      </trkpt>
      <trkpt lat="43.61425" lon="0.88068">
        <ele>196</ele>
        <time>2020-10-03T13:04:45.000Z</time>
      </trkpt>
      <trkpt lat="43.61427" lon="0.88066">
        <ele>196</ele>
        <time>2020-10-03T13:04:46.000Z</time>
      </trkpt>
      <trkpt lat="43.61429" lon="0.88067">
        <ele>196</ele>
        <time>2020-10-03T13:04:47.000Z</time>
      </trkpt>
      <trkpt lat="43.61432" lon="0.88067">
        <ele>196</ele>
        <time>2020-10-03T13:04:48.000Z</time>
      </trkpt>
      <trkpt lat="43.61434" lon="0.88067">
        <ele>196</ele>
        <time>2020-10-03T13:04:49.000Z</time>
      </trkpt>
      <trkpt lat="43.61436" lon="0.88068">
        <ele>196</ele>
        <time>2020-10-03T13:04:50.000Z</time>
      </trkpt>
      <trkpt lat="43.61438" lon="0.88069">
        <ele>196</ele>
        <time>2020-10-03T13:04:51.000Z</time>
      </trkpt>
      <trkpt lat="43.6144" lon="0.88069">
        <ele>196</ele>
        <time>2020-10-03T13:04:52.000Z</time>
      </trkpt>
      <trkpt lat="43.61443" lon="0.88071">
        <ele>196</ele>
        <time>2020-10-03T13:04:53.000Z</time>
      </trkpt>
      <trkpt lat="43.61445" lon="0.88072">
        <ele>196</ele>
        <time>2020-10-03T13:04:54.000Z</time>
      </trkpt>
      <trkpt lat="43.61448" lon="0.88072">
        <ele>196</ele>
        <time>2020-10-03T13:04:55.000Z</time>
      </trkpt>
      <trkpt lat="43.6145" lon="0.88073">
        <ele>196</ele>
        <time>2020-10-03T13:04:56.000Z</time>
      </trkpt>
      <trkpt lat="43.61453" lon="0.88073">
        <ele>196</ele>
        <time>2020-10-03T13:04:57.000Z</time>
      </trkpt>
      <trkpt lat="43.61456" lon="0.88074">
        <ele>196</ele>
        <time>2020-10-03T13:04:58.000Z</time>
      </trkpt>
      <trkpt lat="43.61459" lon="0.88074">
        <ele>196.40625333333</ele>
        <time>2020-10-03T13:04:59.000Z</time>
      </trkpt>
      <trkpt lat="43.61462" lon="0.88075">
        <ele>197</ele>
        <time>2020-10-03T13:05:00.000Z</time>
      </trkpt>
      <trkpt lat="43.61465" lon="0.88076">
        <ele>197</ele>
        <time>2020-10-03T13:05:01.000Z</time>
      </trkpt>
      <trkpt lat="43.61468" lon="0.88077">
        <ele>197</ele>
        <time>2020-10-03T13:05:02.000Z</time>
      </trkpt>
      <trkpt lat="43.6147" lon="0.88078">
        <ele>197</ele>
        <time>2020-10-03T13:05:03.000Z</time>
      </trkpt>
      <trkpt lat="43.61473" lon="0.88079">
        <ele>197</ele>
        <time>2020-10-03T13:05:04.000Z</time>
      </trkpt>
      <trkpt lat="43.61476" lon="0.88079">
        <ele>197</ele>
        <time>2020-10-03T13:05:05.000Z</time>
      </trkpt>
      <trkpt lat="43.61479" lon="0.88079">
        <ele>197</ele>
        <time>2020-10-03T13:05:06.000Z</time>
      </trkpt>
      <trkpt lat="43.61481" lon="0.88078">
        <ele>197</ele>
        <time>2020-10-03T13:05:07.000Z</time>
      </trkpt>
      <trkpt lat="43.61484" lon="0.88077">
        <ele>197</ele>
        <time>2020-10-03T13:05:08.000Z</time>
      </trkpt>
      <trkpt lat="43.61486" lon="0.88076">
        <ele>197</ele>
        <time>2020-10-03T13:05:09.000Z</time>
      </trkpt>
      <trkpt lat="43.61488" lon="0.88073">
        <ele>197</ele>
        <time>2020-10-03T13:05:10.000Z</time>
      </trkpt>
      <trkpt lat="43.6149" lon="0.8807">
        <ele>197.32978839293</ele>
        <time>2020-10-03T13:05:11.000Z</time>
      </trkpt>
      <trkpt lat="43.61491" lon="0.88067">
        <ele>198</ele>
        <time>2020-10-03T13:05:12.000Z</time>
      </trkpt>
      <trkpt lat="43.61493" lon="0.88064">
        <ele>198</ele>
        <time>2020-10-03T13:05:13.000Z</time>
      </trkpt>
      <trkpt lat="43.61494" lon="0.88061">
        <ele>198</ele>
        <time>2020-10-03T13:05:14.000Z</time>
      </trkpt>
      <trkpt lat="43.61496" lon="0.88059">
        <ele>198.42045090909</ele>
        <time>2020-10-03T13:05:15.000Z</time>
      </trkpt>
      <trkpt lat="43.61497" lon="0.88057">
        <ele>199</ele>
        <time>2020-10-03T13:05:16.000Z</time>
      </trkpt>
      <trkpt lat="43.61498" lon="0.88054">
        <ele>199</ele>
        <time>2020-10-03T13:05:18.000Z</time>
      </trkpt>
      <trkpt lat="43.61499" lon="0.8805">
        <ele>199</ele>
        <time>2020-10-03T13:05:20.000Z</time>
      </trkpt>
      <trkpt lat="43.61501" lon="0.88048">
        <ele>199</ele>
        <time>2020-10-03T13:05:22.000Z</time>
      </trkpt>
      <trkpt lat="43.61503" lon="0.88046">
        <ele>199</ele>
        <time>2020-10-03T13:05:24.000Z</time>
      </trkpt>
      <trkpt lat="43.61506" lon="0.88048">
        <ele>199</ele>
        <time>2020-10-03T13:05:26.000Z</time>
      </trkpt>
      <trkpt lat="43.61508" lon="0.88048">
        <ele>199</ele>
        <time>2020-10-03T13:05:27.000Z</time>
      </trkpt>
      <trkpt lat="43.61511" lon="0.88049">
        <ele>199</ele>
        <time>2020-10-03T13:05:28.000Z</time>
      </trkpt>
      <trkpt lat="43.61513" lon="0.8805">
        <ele>199</ele>
        <time>2020-10-03T13:05:29.000Z</time>
      </trkpt>
      <trkpt lat="43.61516" lon="0.88051">
        <ele>199.32292</ele>
        <time>2020-10-03T13:05:30.000Z</time>
      </trkpt>
      <trkpt lat="43.61519" lon="0.88052">
        <ele>200</ele>
        <time>2020-10-03T13:05:31.000Z</time>
      </trkpt>
      <trkpt lat="43.61521" lon="0.88053">
        <ele>200</ele>
        <time>2020-10-03T13:05:32.000Z</time>
      </trkpt>
      <trkpt lat="43.61524" lon="0.88054">
        <ele>200</ele>
        <time>2020-10-03T13:05:33.000Z</time>
      </trkpt>
      <trkpt lat="43.61527" lon="0.88055">
        <ele>200</ele>
        <time>2020-10-03T13:05:34.000Z</time>
      </trkpt>
      <trkpt lat="43.6153" lon="0.88056">
        <ele>200</ele>
        <time>2020-10-03T13:05:35.000Z</time>
      </trkpt>
      <trkpt lat="43.61532" lon="0.88057">
        <ele>200.32584027268</ele>
        <time>2020-10-03T13:05:36.000Z</time>
      </trkpt>
      <trkpt lat="43.61535" lon="0.88058">
        <ele>201</ele>
        <time>2020-10-03T13:05:37.000Z</time>
      </trkpt>
      <trkpt lat="43.61538" lon="0.88059">
        <ele>201</ele>
        <time>2020-10-03T13:05:38.000Z</time>
      </trkpt>
      <trkpt lat="43.61541" lon="0.8806">
        <ele>201</ele>
        <time>2020-10-03T13:05:39.000Z</time>
      </trkpt>
      <trkpt lat="43.61544" lon="0.88061">
        <ele>201</ele>
        <time>2020-10-03T13:05:40.000Z</time>
      </trkpt>
      <trkpt lat="43.61546" lon="0.88062">
        <ele>201</ele>
        <time>2020-10-03T13:05:41.000Z</time>
      </trkpt>
      <trkpt lat="43.61549" lon="0.88063">
        <ele>201</ele>
        <time>2020-10-03T13:05:42.000Z</time>
      </trkpt>
      <trkpt lat="43.61551" lon="0.88063">
        <ele>201</ele>
        <time>2020-10-03T13:05:43.000Z</time>
      </trkpt>
      <trkpt lat="43.61554" lon="0.88064">
        <ele>201</ele>
        <time>2020-10-03T13:05:44.000Z</time>
      </trkpt>
      <trkpt lat="43.61557" lon="0.88066">
        <ele>201</ele>
        <time>2020-10-03T13:05:45.000Z</time>
      </trkpt>
      <trkpt lat="43.61559" lon="0.88066">
        <ele>201</ele>
        <time>2020-10-03T13:05:46.000Z</time>
      </trkpt>
      <trkpt lat="43.61562" lon="0.88067">
        <ele>200.68217223485</ele>
        <time>2020-10-03T13:05:47.000Z</time>
      </trkpt>
      <trkpt lat="43.61565" lon="0.88068">
        <ele>200</ele>
        <time>2020-10-03T13:05:48.000Z</time>
      </trkpt>
      <trkpt lat="43.61567" lon="0.88069">
        <ele>200</ele>
        <time>2020-10-03T13:05:49.000Z</time>
      </trkpt>
      <trkpt lat="43.6157" lon="0.8807">
        <ele>200</ele>
        <time>2020-10-03T13:05:50.000Z</time>
      </trkpt>
      <trkpt lat="43.61572" lon="0.88071">
        <ele>200</ele>
        <time>2020-10-03T13:05:51.000Z</time>
      </trkpt>
      <trkpt lat="43.61575" lon="0.88071">
        <ele>200.39024694827</ele>
        <time>2020-10-03T13:05:52.000Z</time>
      </trkpt>
      <trkpt lat="43.61578" lon="0.88072">
        <ele>201</ele>
        <time>2020-10-03T13:05:53.000Z</time>
      </trkpt>
      <trkpt lat="43.61581" lon="0.88073">
        <ele>201</ele>
        <time>2020-10-03T13:05:54.000Z</time>
      </trkpt>
      <trkpt lat="43.61583" lon="0.88074">
        <ele>201</ele>
        <time>2020-10-03T13:05:55.000Z</time>
      </trkpt>
      <trkpt lat="43.61586" lon="0.88075">
        <ele>201</ele>
        <time>2020-10-03T13:05:56.000Z</time>
      </trkpt>
      <trkpt lat="43.61589" lon="0.88076">
        <ele>201</ele>
        <time>2020-10-03T13:05:57.000Z</time>
      </trkpt>
      <trkpt lat="43.61591" lon="0.88077">
        <ele>201</ele>
        <time>2020-10-03T13:05:58.000Z</time>
      </trkpt>
      <trkpt lat="43.61594" lon="0.88078">
        <ele>201</ele>
        <time>2020-10-03T13:05:59.000Z</time>
      </trkpt>
      <trkpt lat="43.61597" lon="0.88079">
        <ele>201</ele>
        <time>2020-10-03T13:06:00.000Z</time>
      </trkpt>
      <trkpt lat="43.61599" lon="0.8808">
        <ele>201</ele>
        <time>2020-10-03T13:06:01.000Z</time>
      </trkpt>
      <trkpt lat="43.61602" lon="0.88081">
        <ele>201</ele>
        <time>2020-10-03T13:06:02.000Z</time>
      </trkpt>
      <trkpt lat="43.61604" lon="0.88082">
        <ele>201</ele>
        <time>2020-10-03T13:06:03.000Z</time>
      </trkpt>
      <trkpt lat="43.61607" lon="0.88083">
        <ele>201.45714425034</ele>
        <time>2020-10-03T13:06:04.000Z</time>
      </trkpt>
      <trkpt lat="43.6161" lon="0.88084">
        <ele>202</ele>
        <time>2020-10-03T13:06:05.000Z</time>
      </trkpt>
      <trkpt lat="43.61613" lon="0.88084">
        <ele>202</ele>
        <time>2020-10-03T13:06:06.000Z</time>
      </trkpt>
      <trkpt lat="43.61615" lon="0.88084">
        <ele>202</ele>
        <time>2020-10-03T13:06:07.000Z</time>
      </trkpt>
      <trkpt lat="43.61618" lon="0.88084">
        <ele>202</ele>
        <time>2020-10-03T13:06:08.000Z</time>
      </trkpt>
      <trkpt lat="43.61621" lon="0.88084">
        <ele>202</ele>
        <time>2020-10-03T13:06:09.000Z</time>
      </trkpt>
      <trkpt lat="43.61623" lon="0.88083">
        <ele>202</ele>
        <time>2020-10-03T13:06:10.000Z</time>
      </trkpt>
      <trkpt lat="43.61626" lon="0.88082">
        <ele>202</ele>
        <time>2020-10-03T13:06:11.000Z</time>
      </trkpt>
      <trkpt lat="43.61628" lon="0.8808">
        <ele>202</ele>
        <time>2020-10-03T13:06:12.000Z</time>
      </trkpt>
      <trkpt lat="43.6163" lon="0.88078">
        <ele>202</ele>
        <time>2020-10-03T13:06:13.000Z</time>
      </trkpt>
      <trkpt lat="43.61631" lon="0.88075">
        <ele>202</ele>
        <time>2020-10-03T13:06:14.000Z</time>
      </trkpt>
      <trkpt lat="43.61632" lon="0.88071">
        <ele>202</ele>
        <time>2020-10-03T13:06:15.000Z</time>
      </trkpt>
      <trkpt lat="43.61632" lon="0.88068">
        <ele>202</ele>
        <time>2020-10-03T13:06:16.000Z</time>
      </trkpt>
      <trkpt lat="43.61633" lon="0.88065">
        <ele>202</ele>
        <time>2020-10-03T13:06:17.000Z</time>
      </trkpt>
      <trkpt lat="43.61634" lon="0.88062">
        <ele>202</ele>
        <time>2020-10-03T13:06:18.000Z</time>
      </trkpt>
      <trkpt lat="43.61635" lon="0.88059">
        <ele>202</ele>
        <time>2020-10-03T13:06:19.000Z</time>
      </trkpt>
      <trkpt lat="43.61636" lon="0.88056">
        <ele>202</ele>
        <time>2020-10-03T13:06:20.000Z</time>
      </trkpt>
      <trkpt lat="43.61636" lon="0.88052">
        <ele>202</ele>
        <time>2020-10-03T13:06:21.000Z</time>
      </trkpt>
      <trkpt lat="43.61637" lon="0.88049">
        <ele>202</ele>
        <time>2020-10-03T13:06:22.000Z</time>
      </trkpt>
      <trkpt lat="43.61637" lon="0.88046">
        <ele>202</ele>
        <time>2020-10-03T13:06:23.000Z</time>
      </trkpt>
      <trkpt lat="43.61638" lon="0.88043">
        <ele>202</ele>
        <time>2020-10-03T13:06:24.000Z</time>
      </trkpt>
      <trkpt lat="43.61638" lon="0.88039">
        <ele>202</ele>
        <time>2020-10-03T13:06:25.000Z</time>
      </trkpt>
      <trkpt lat="43.61639" lon="0.88036">
        <ele>202</ele>
        <time>2020-10-03T13:06:26.000Z</time>
      </trkpt>
      <trkpt lat="43.6164" lon="0.88032">
        <ele>202</ele>
        <time>2020-10-03T13:06:27.000Z</time>
      </trkpt>
      <trkpt lat="43.61641" lon="0.88029">
        <ele>202</ele>
        <time>2020-10-03T13:06:28.000Z</time>
      </trkpt>
      <trkpt lat="43.61641" lon="0.88026">
        <ele>202</ele>
        <time>2020-10-03T13:06:29.000Z</time>
      </trkpt>
      <trkpt lat="43.61642" lon="0.88023">
        <ele>202</ele>
        <time>2020-10-03T13:06:30.000Z</time>
      </trkpt>
      <trkpt lat="43.61643" lon="0.8802">
        <ele>201.57575248242</ele>
        <time>2020-10-03T13:06:31.000Z</time>
      </trkpt>
      <trkpt lat="43.61644" lon="0.88017">
        <ele>201</ele>
        <time>2020-10-03T13:06:32.000Z</time>
      </trkpt>
      <trkpt lat="43.61645" lon="0.88013">
        <ele>201</ele>
        <time>2020-10-03T13:06:33.000Z</time>
      </trkpt>
      <trkpt lat="43.61646" lon="0.8801">
        <ele>201.42856769677</ele>
        <time>2020-10-03T13:06:34.000Z</time>
      </trkpt>
      <trkpt lat="43.61646" lon="0.88007">
        <ele>202</ele>
        <time>2020-10-03T13:06:35.000Z</time>
      </trkpt>
      <trkpt lat="43.61647" lon="0.88003">
        <ele>202</ele>
        <time>2020-10-03T13:06:37.000Z</time>
      </trkpt>
      <trkpt lat="43.61647" lon="0.88">
        <ele>202</ele>
        <time>2020-10-03T13:06:48.000Z</time>
      </trkpt>
      <trkpt lat="43.61649" lon="0.87997">
        <ele>202</ele>
        <time>2020-10-03T13:06:50.000Z</time>
      </trkpt>
      <trkpt lat="43.61649" lon="0.87994">
        <ele>202</ele>
        <time>2020-10-03T13:06:51.000Z</time>
      </trkpt>
      <trkpt lat="43.6165" lon="0.8799">
        <ele>202</ele>
        <time>2020-10-03T13:06:52.000Z</time>
      </trkpt>
      <trkpt lat="43.61651" lon="0.87987">
        <ele>202</ele>
        <time>2020-10-03T13:06:53.000Z</time>
      </trkpt>
      <trkpt lat="43.61652" lon="0.87984">
        <ele>202</ele>
        <time>2020-10-03T13:06:54.000Z</time>
      </trkpt>
      <trkpt lat="43.61654" lon="0.8798">
        <ele>202</ele>
        <time>2020-10-03T13:06:55.000Z</time>
      </trkpt>
      <trkpt lat="43.61655" lon="0.87977">
        <ele>201.61207172414</ele>
        <time>2020-10-03T13:06:56.000Z</time>
      </trkpt>
      <trkpt lat="43.61655" lon="0.87973">
        <ele>201</ele>
        <time>2020-10-03T13:06:57.000Z</time>
      </trkpt>
      <trkpt lat="43.61655" lon="0.8797">
        <ele>201</ele>
        <time>2020-10-03T13:06:58.000Z</time>
      </trkpt>
      <trkpt lat="43.61656" lon="0.87967">
        <ele>201</ele>
        <time>2020-10-03T13:06:59.000Z</time>
      </trkpt>
      <trkpt lat="43.61656" lon="0.87964">
        <ele>201</ele>
        <time>2020-10-03T13:07:00.000Z</time>
      </trkpt>
      <trkpt lat="43.61657" lon="0.8796">
        <ele>201</ele>
        <time>2020-10-03T13:07:01.000Z</time>
      </trkpt>
      <trkpt lat="43.61658" lon="0.87957">
        <ele>201.36708901779</ele>
        <time>2020-10-03T13:07:02.000Z</time>
      </trkpt>
      <trkpt lat="43.61659" lon="0.87953">
        <ele>202</ele>
        <time>2020-10-03T13:07:03.000Z</time>
      </trkpt>
      <trkpt lat="43.61659" lon="0.8795">
        <ele>202</ele>
        <time>2020-10-03T13:07:04.000Z</time>
      </trkpt>
      <trkpt lat="43.6166" lon="0.87946">
        <ele>202</ele>
        <time>2020-10-03T13:07:05.000Z</time>
      </trkpt>
      <trkpt lat="43.61661" lon="0.87942">
        <ele>202</ele>
        <time>2020-10-03T13:07:06.000Z</time>
      </trkpt>
      <trkpt lat="43.61662" lon="0.87938">
        <ele>202</ele>
        <time>2020-10-03T13:07:07.000Z</time>
      </trkpt>
      <trkpt lat="43.61663" lon="0.87935">
        <ele>202</ele>
        <time>2020-10-03T13:07:08.000Z</time>
      </trkpt>
      <trkpt lat="43.61664" lon="0.87931">
        <ele>202</ele>
        <time>2020-10-03T13:07:09.000Z</time>
      </trkpt>
      <trkpt lat="43.61665" lon="0.87928">
        <ele>202</ele>
        <time>2020-10-03T13:07:10.000Z</time>
      </trkpt>
      <trkpt lat="43.61667" lon="0.87924">
        <ele>202</ele>
        <time>2020-10-03T13:07:11.000Z</time>
      </trkpt>
      <trkpt lat="43.61668" lon="0.8792">
        <ele>202</ele>
        <time>2020-10-03T13:07:12.000Z</time>
      </trkpt>
      <trkpt lat="43.61669" lon="0.87916">
        <ele>202</ele>
        <time>2020-10-03T13:07:13.000Z</time>
      </trkpt>
      <trkpt lat="43.6167" lon="0.87912">
        <ele>202</ele>
        <time>2020-10-03T13:07:14.000Z</time>
      </trkpt>
      <trkpt lat="43.61671" lon="0.87908">
        <ele>202</ele>
        <time>2020-10-03T13:07:15.000Z</time>
      </trkpt>
      <trkpt lat="43.61672" lon="0.87904">
        <ele>202</ele>
        <time>2020-10-03T13:07:16.000Z</time>
      </trkpt>
      <trkpt lat="43.61672" lon="0.879">
        <ele>202</ele>
        <time>2020-10-03T13:07:17.000Z</time>
      </trkpt>
      <trkpt lat="43.61673" lon="0.87897">
        <ele>202</ele>
        <time>2020-10-03T13:07:18.000Z</time>
      </trkpt>
      <trkpt lat="43.61674" lon="0.87892">
        <ele>202</ele>
        <time>2020-10-03T13:07:19.000Z</time>
      </trkpt>
      <trkpt lat="43.61675" lon="0.87889">
        <ele>202</ele>
        <time>2020-10-03T13:07:20.000Z</time>
      </trkpt>
      <trkpt lat="43.61676" lon="0.87885">
        <ele>202</ele>
        <time>2020-10-03T13:07:21.000Z</time>
      </trkpt>
      <trkpt lat="43.61677" lon="0.87881">
        <ele>202</ele>
        <time>2020-10-03T13:07:22.000Z</time>
      </trkpt>
      <trkpt lat="43.61679" lon="0.87878">
        <ele>202</ele>
        <time>2020-10-03T13:07:23.000Z</time>
      </trkpt>
      <trkpt lat="43.6168" lon="0.87874">
        <ele>202</ele>
        <time>2020-10-03T13:07:24.000Z</time>
      </trkpt>
      <trkpt lat="43.6168" lon="0.8787">
        <ele>202</ele>
        <time>2020-10-03T13:07:25.000Z</time>
      </trkpt>
      <trkpt lat="43.61681" lon="0.87867">
        <ele>202</ele>
        <time>2020-10-03T13:07:26.000Z</time>
      </trkpt>
      <trkpt lat="43.61682" lon="0.87863">
        <ele>202</ele>
        <time>2020-10-03T13:07:27.000Z</time>
      </trkpt>
      <trkpt lat="43.61683" lon="0.87859">
        <ele>202</ele>
        <time>2020-10-03T13:07:28.000Z</time>
      </trkpt>
      <trkpt lat="43.61684" lon="0.87855">
        <ele>202</ele>
        <time>2020-10-03T13:07:29.000Z</time>
      </trkpt>
      <trkpt lat="43.61685" lon="0.87851">
        <ele>202</ele>
        <time>2020-10-03T13:07:30.000Z</time>
      </trkpt>
      <trkpt lat="43.61687" lon="0.87848">
        <ele>202</ele>
        <time>2020-10-03T13:07:31.000Z</time>
      </trkpt>
      <trkpt lat="43.61688" lon="0.87844">
        <ele>201.54128892855</ele>
        <time>2020-10-03T13:07:32.000Z</time>
      </trkpt>
      <trkpt lat="43.61689" lon="0.8784">
        <ele>201</ele>
        <time>2020-10-03T13:07:33.000Z</time>
      </trkpt>
      <trkpt lat="43.61691" lon="0.87837">
        <ele>200.57143230323</ele>
        <time>2020-10-03T13:07:34.000Z</time>
      </trkpt>
      <trkpt lat="43.61692" lon="0.87834">
        <ele>200</ele>
        <time>2020-10-03T13:07:35.000Z</time>
      </trkpt>
      <trkpt lat="43.61693" lon="0.8783">
        <ele>200</ele>
        <time>2020-10-03T13:07:36.000Z</time>
      </trkpt>
      <trkpt lat="43.61694" lon="0.87826">
        <ele>199.15464298439</ele>
        <time>2020-10-03T13:07:37.000Z</time>
      </trkpt>
      <trkpt lat="43.61695" lon="0.87823">
        <ele>198</ele>
        <time>2020-10-03T13:07:38.000Z</time>
      </trkpt>
      <trkpt lat="43.61696" lon="0.87819">
        <ele>198.39130483176</ele>
        <time>2020-10-03T13:07:39.000Z</time>
      </trkpt>
      <trkpt lat="43.61698" lon="0.87816">
        <ele>199</ele>
        <time>2020-10-03T13:07:40.000Z</time>
      </trkpt>
      <trkpt lat="43.61699" lon="0.87812">
        <ele>199</ele>
        <time>2020-10-03T13:07:41.000Z</time>
      </trkpt>
      <trkpt lat="43.617" lon="0.87808">
        <ele>199</ele>
        <time>2020-10-03T13:07:42.000Z</time>
      </trkpt>
      <trkpt lat="43.61702" lon="0.87805">
        <ele>199</ele>
        <time>2020-10-03T13:07:43.000Z</time>
      </trkpt>
      <trkpt lat="43.61703" lon="0.87801">
        <ele>199</ele>
        <time>2020-10-03T13:07:44.000Z</time>
      </trkpt>
      <trkpt lat="43.61704" lon="0.87798">
        <ele>199</ele>
        <time>2020-10-03T13:07:45.000Z</time>
      </trkpt>
      <trkpt lat="43.61705" lon="0.87794">
        <ele>199</ele>
        <time>2020-10-03T13:07:46.000Z</time>
      </trkpt>
      <trkpt lat="43.61707" lon="0.87791">
        <ele>199</ele>
        <time>2020-10-03T13:07:47.000Z</time>
      </trkpt>
      <trkpt lat="43.61708" lon="0.87787">
        <ele>199</ele>
        <time>2020-10-03T13:07:48.000Z</time>
      </trkpt>
      <trkpt lat="43.61709" lon="0.87783">
        <ele>199</ele>
        <time>2020-10-03T13:07:49.000Z</time>
      </trkpt>
      <trkpt lat="43.61711" lon="0.87779">
        <ele>199</ele>
        <time>2020-10-03T13:07:50.000Z</time>
      </trkpt>
      <trkpt lat="43.61712" lon="0.87776">
        <ele>199</ele>
        <time>2020-10-03T13:07:51.000Z</time>
      </trkpt>
      <trkpt lat="43.61713" lon="0.87772">
        <ele>199</ele>
        <time>2020-10-03T13:07:52.000Z</time>
      </trkpt>
      <trkpt lat="43.61714" lon="0.87769">
        <ele>199.3076912257</ele>
        <time>2020-10-03T13:07:53.000Z</time>
      </trkpt>
      <trkpt lat="43.61716" lon="0.87765">
        <ele>200</ele>
        <time>2020-10-03T13:07:54.000Z</time>
      </trkpt>
      <trkpt lat="43.61717" lon="0.87761">
        <ele>200</ele>
        <time>2020-10-03T13:07:55.000Z</time>
      </trkpt>
      <trkpt lat="43.61718" lon="0.87757">
        <ele>200</ele>
        <time>2020-10-03T13:07:56.000Z</time>
      </trkpt>
      <trkpt lat="43.6172" lon="0.87754">
        <ele>200</ele>
        <time>2020-10-03T13:07:57.000Z</time>
      </trkpt>
      <trkpt lat="43.61721" lon="0.8775">
        <ele>200</ele>
        <time>2020-10-03T13:07:58.000Z</time>
      </trkpt>
      <trkpt lat="43.61722" lon="0.87747">
        <ele>200</ele>
        <time>2020-10-03T13:07:59.000Z</time>
      </trkpt>
      <trkpt lat="43.61724" lon="0.87743">
        <ele>200</ele>
        <time>2020-10-03T13:08:00.000Z</time>
      </trkpt>
      <trkpt lat="43.61725" lon="0.87739">
        <ele>200</ele>
        <time>2020-10-03T13:08:01.000Z</time>
      </trkpt>
      <trkpt lat="43.61727" lon="0.87736">
        <ele>200</ele>
        <time>2020-10-03T13:08:02.000Z</time>
      </trkpt>
      <trkpt lat="43.61728" lon="0.87732">
        <ele>200</ele>
        <time>2020-10-03T13:08:03.000Z</time>
      </trkpt>
      <trkpt lat="43.6173" lon="0.87729">
        <ele>200</ele>
        <time>2020-10-03T13:08:04.000Z</time>
      </trkpt>
      <trkpt lat="43.61731" lon="0.87725">
        <ele>200</ele>
        <time>2020-10-03T13:08:05.000Z</time>
      </trkpt>
      <trkpt lat="43.61732" lon="0.87721">
        <ele>200</ele>
        <time>2020-10-03T13:08:06.000Z</time>
      </trkpt>
      <trkpt lat="43.61733" lon="0.87717">
        <ele>199.57575248242</ele>
        <time>2020-10-03T13:08:07.000Z</time>
      </trkpt>
      <trkpt lat="43.61735" lon="0.87713">
        <ele>199</ele>
        <time>2020-10-03T13:08:08.000Z</time>
      </trkpt>
      <trkpt lat="43.61736" lon="0.8771">
        <ele>199</ele>
        <time>2020-10-03T13:08:09.000Z</time>
      </trkpt>
      <trkpt lat="43.61737" lon="0.87706">
        <ele>199</ele>
        <time>2020-10-03T13:08:10.000Z</time>
      </trkpt>
      <trkpt lat="43.61738" lon="0.87702">
        <ele>199</ele>
        <time>2020-10-03T13:08:11.000Z</time>
      </trkpt>
      <trkpt lat="43.61739" lon="0.87699">
        <ele>199</ele>
        <time>2020-10-03T13:08:12.000Z</time>
      </trkpt>
      <trkpt lat="43.6174" lon="0.87695">
        <ele>199</ele>
        <time>2020-10-03T13:08:13.000Z</time>
      </trkpt>
      <trkpt lat="43.61741" lon="0.87691">
        <ele>199</ele>
        <time>2020-10-03T13:08:14.000Z</time>
      </trkpt>
      <trkpt lat="43.61742" lon="0.87687">
        <ele>199</ele>
        <time>2020-10-03T13:08:15.000Z</time>
      </trkpt>
      <trkpt lat="43.61743" lon="0.87683">
        <ele>199</ele>
        <time>2020-10-03T13:08:16.000Z</time>
      </trkpt>
      <trkpt lat="43.61744" lon="0.8768">
        <ele>198.57142483967</ele>
        <time>2020-10-03T13:08:17.000Z</time>
      </trkpt>
      <trkpt lat="43.61745" lon="0.87676">
        <ele>198</ele>
        <time>2020-10-03T13:08:18.000Z</time>
      </trkpt>
      <trkpt lat="43.61746" lon="0.87672">
        <ele>198</ele>
        <time>2020-10-03T13:08:19.000Z</time>
      </trkpt>
      <trkpt lat="43.61747" lon="0.87668">
        <ele>198</ele>
        <time>2020-10-03T13:08:20.000Z</time>
      </trkpt>
      <trkpt lat="43.61748" lon="0.87665">
        <ele>198</ele>
        <time>2020-10-03T13:08:21.000Z</time>
      </trkpt>
      <trkpt lat="43.61749" lon="0.87661">
        <ele>198</ele>
        <time>2020-10-03T13:08:22.000Z</time>
      </trkpt>
      <trkpt lat="43.6175" lon="0.87657">
        <ele>198</ele>
        <time>2020-10-03T13:08:23.000Z</time>
      </trkpt>
      <trkpt lat="43.61751" lon="0.87654">
        <ele>198</ele>
        <time>2020-10-03T13:08:24.000Z</time>
      </trkpt>
      <trkpt lat="43.61752" lon="0.87651">
        <ele>198</ele>
        <time>2020-10-03T13:08:25.000Z</time>
      </trkpt>
      <trkpt lat="43.61753" lon="0.87647">
        <ele>198</ele>
        <time>2020-10-03T13:08:26.000Z</time>
      </trkpt>
      <trkpt lat="43.61754" lon="0.87644">
        <ele>198</ele>
        <time>2020-10-03T13:08:27.000Z</time>
      </trkpt>
      <trkpt lat="43.61755" lon="0.8764">
        <ele>198</ele>
        <time>2020-10-03T13:08:28.000Z</time>
      </trkpt>
      <trkpt lat="43.61756" lon="0.87636">
        <ele>198</ele>
        <time>2020-10-03T13:08:29.000Z</time>
      </trkpt>
      <trkpt lat="43.61757" lon="0.87632">
        <ele>198</ele>
        <time>2020-10-03T13:08:30.000Z</time>
      </trkpt>
      <trkpt lat="43.61757" lon="0.87629">
        <ele>198</ele>
        <time>2020-10-03T13:08:31.000Z</time>
      </trkpt>
      <trkpt lat="43.61759" lon="0.87625">
        <ele>198</ele>
        <time>2020-10-03T13:08:32.000Z</time>
      </trkpt>
      <trkpt lat="43.61759" lon="0.87621">
        <ele>198</ele>
        <time>2020-10-03T13:08:33.000Z</time>
      </trkpt>
      <trkpt lat="43.6176" lon="0.87618">
        <ele>198</ele>
        <time>2020-10-03T13:08:34.000Z</time>
      </trkpt>
      <trkpt lat="43.61761" lon="0.87614">
        <ele>198</ele>
        <time>2020-10-03T13:08:35.000Z</time>
      </trkpt>
      <trkpt lat="43.61762" lon="0.87611">
        <ele>198</ele>
        <time>2020-10-03T13:08:36.000Z</time>
      </trkpt>
      <trkpt lat="43.61763" lon="0.87607">
        <ele>198</ele>
        <time>2020-10-03T13:08:37.000Z</time>
      </trkpt>
      <trkpt lat="43.61763" lon="0.87603">
        <ele>198</ele>
        <time>2020-10-03T13:08:38.000Z</time>
      </trkpt>
      <trkpt lat="43.61764" lon="0.876">
        <ele>198</ele>
        <time>2020-10-03T13:08:39.000Z</time>
      </trkpt>
      <trkpt lat="43.61765" lon="0.87596">
        <ele>198.34177481813</ele>
        <time>2020-10-03T13:08:40.000Z</time>
      </trkpt>
      <trkpt lat="43.61766" lon="0.87592">
        <ele>199</ele>
        <time>2020-10-03T13:08:41.000Z</time>
      </trkpt>
      <trkpt lat="43.61767" lon="0.87588">
        <ele>199</ele>
        <time>2020-10-03T13:08:42.000Z</time>
      </trkpt>
      <trkpt lat="43.61768" lon="0.87584">
        <ele>198.57303936374</ele>
        <time>2020-10-03T13:08:43.000Z</time>
      </trkpt>
      <trkpt lat="43.61769" lon="0.8758">
        <ele>198</ele>
        <time>2020-10-03T13:08:44.000Z</time>
      </trkpt>
      <trkpt lat="43.61769" lon="0.87576">
        <ele>198</ele>
        <time>2020-10-03T13:08:45.000Z</time>
      </trkpt>
      <trkpt lat="43.6177" lon="0.87573">
        <ele>197.56731076923</ele>
        <time>2020-10-03T13:08:46.000Z</time>
      </trkpt>
      <trkpt lat="43.61771" lon="0.87569">
        <ele>197</ele>
        <time>2020-10-03T13:08:47.000Z</time>
      </trkpt>
      <trkpt lat="43.61772" lon="0.87565">
        <ele>196.56701547881</ele>
        <time>2020-10-03T13:08:48.000Z</time>
      </trkpt>
      <trkpt lat="43.61773" lon="0.87561">
        <ele>196</ele>
        <time>2020-10-03T13:08:49.000Z</time>
      </trkpt>
      <trkpt lat="43.61773" lon="0.87557">
        <ele>196</ele>
        <time>2020-10-03T13:08:50.000Z</time>
      </trkpt>
      <trkpt lat="43.61774" lon="0.87553">
        <ele>196</ele>
        <time>2020-10-03T13:08:51.000Z</time>
      </trkpt>
      <trkpt lat="43.61775" lon="0.87549">
        <ele>196</ele>
        <time>2020-10-03T13:08:52.000Z</time>
      </trkpt>
      <trkpt lat="43.61776" lon="0.87546">
        <ele>196</ele>
        <time>2020-10-03T13:08:53.000Z</time>
      </trkpt>
      <trkpt lat="43.61778" lon="0.87542">
        <ele>196</ele>
        <time>2020-10-03T13:08:54.000Z</time>
      </trkpt>
      <trkpt lat="43.61779" lon="0.87539">
        <ele>196</ele>
        <time>2020-10-03T13:08:55.000Z</time>
      </trkpt>
      <trkpt lat="43.61781" lon="0.87536">
        <ele>196</ele>
        <time>2020-10-03T13:08:56.000Z</time>
      </trkpt>
      <trkpt lat="43.61784" lon="0.87535">
        <ele>196</ele>
        <time>2020-10-03T13:08:57.000Z</time>
      </trkpt>
      <trkpt lat="43.61787" lon="0.87536">
        <ele>196</ele>
        <time>2020-10-03T13:08:58.000Z</time>
      </trkpt>
      <trkpt lat="43.6179" lon="0.87537">
        <ele>196</ele>
        <time>2020-10-03T13:08:59.000Z</time>
      </trkpt>
      <trkpt lat="43.61793" lon="0.87539">
        <ele>196</ele>
        <time>2020-10-03T13:09:00.000Z</time>
      </trkpt>
      <trkpt lat="43.61796" lon="0.87541">
        <ele>196</ele>
        <time>2020-10-03T13:09:01.000Z</time>
      </trkpt>
      <trkpt lat="43.61798" lon="0.87543">
        <ele>196</ele>
        <time>2020-10-03T13:09:02.000Z</time>
      </trkpt>
      <trkpt lat="43.61801" lon="0.87546">
        <ele>196</ele>
        <time>2020-10-03T13:09:03.000Z</time>
      </trkpt>
      <trkpt lat="43.61803" lon="0.87549">
        <ele>195.57692307692</ele>
        <time>2020-10-03T13:09:04.000Z</time>
      </trkpt>
      <trkpt lat="43.61806" lon="0.87552">
        <ele>195</ele>
        <time>2020-10-03T13:09:05.000Z</time>
      </trkpt>
      <trkpt lat="43.61808" lon="0.87554">
        <ele>195</ele>
        <time>2020-10-03T13:09:06.000Z</time>
      </trkpt>
      <trkpt lat="43.61811" lon="0.87557">
        <ele>194.57692307692</ele>
        <time>2020-10-03T13:09:07.000Z</time>
      </trkpt>
      <trkpt lat="43.61814" lon="0.87559">
        <ele>194</ele>
        <time>2020-10-03T13:09:08.000Z</time>
      </trkpt>
      <trkpt lat="43.61816" lon="0.87562">
        <ele>193.5773214922</ele>
        <time>2020-10-03T13:09:09.000Z</time>
      </trkpt>
      <trkpt lat="43.61819" lon="0.87564">
        <ele>193</ele>
        <time>2020-10-03T13:09:10.000Z</time>
      </trkpt>
      <trkpt lat="43.61821" lon="0.87567">
        <ele>193</ele>
        <time>2020-10-03T13:09:11.000Z</time>
      </trkpt>
      <trkpt lat="43.61824" lon="0.8757">
        <ele>193</ele>
        <time>2020-10-03T13:09:12.000Z</time>
      </trkpt>
      <trkpt lat="43.61826" lon="0.87572">
        <ele>193</ele>
        <time>2020-10-03T13:09:13.000Z</time>
      </trkpt>
      <trkpt lat="43.61828" lon="0.87575">
        <ele>193</ele>
        <time>2020-10-03T13:09:14.000Z</time>
      </trkpt>
      <trkpt lat="43.6183" lon="0.87577">
        <ele>193</ele>
        <time>2020-10-03T13:09:15.000Z</time>
      </trkpt>
      <trkpt lat="43.61833" lon="0.87579">
        <ele>193</ele>
        <time>2020-10-03T13:09:16.000Z</time>
      </trkpt>
      <trkpt lat="43.61835" lon="0.87581">
        <ele>193</ele>
        <time>2020-10-03T13:09:17.000Z</time>
      </trkpt>
      <trkpt lat="43.61838" lon="0.87584">
        <ele>193</ele>
        <time>2020-10-03T13:09:18.000Z</time>
      </trkpt>
      <trkpt lat="43.61841" lon="0.87585">
        <ele>193</ele>
        <time>2020-10-03T13:09:19.000Z</time>
      </trkpt>
      <trkpt lat="43.61844" lon="0.87586">
        <ele>193</ele>
        <time>2020-10-03T13:09:20.000Z</time>
      </trkpt>
      <trkpt lat="43.61847" lon="0.87586">
        <ele>193</ele>
        <time>2020-10-03T13:09:21.000Z</time>
      </trkpt>
      <trkpt lat="43.61849" lon="0.87585">
        <ele>193</ele>
        <time>2020-10-03T13:09:22.000Z</time>
      </trkpt>
      <trkpt lat="43.61852" lon="0.87583">
        <ele>192.68181818182</ele>
        <time>2020-10-03T13:09:23.000Z</time>
      </trkpt>
      <trkpt lat="43.61855" lon="0.87581">
        <ele>192</ele>
        <time>2020-10-03T13:09:24.000Z</time>
      </trkpt>
      <trkpt lat="43.61857" lon="0.87578">
        <ele>192</ele>
        <time>2020-10-03T13:09:25.000Z</time>
      </trkpt>
      <trkpt lat="43.61859" lon="0.87575">
        <ele>191.5900032</ele>
        <time>2020-10-03T13:09:26.000Z</time>
      </trkpt>
      <trkpt lat="43.61861" lon="0.87572">
        <ele>191</ele>
        <time>2020-10-03T13:09:27.000Z</time>
      </trkpt>
      <trkpt lat="43.61862" lon="0.87569">
        <ele>190.76056896645</ele>
        <time>2020-10-03T13:09:28.000Z</time>
      </trkpt>
      <trkpt lat="43.61864" lon="0.87566">
        <ele>190</ele>
        <time>2020-10-03T13:09:29.000Z</time>
      </trkpt>
      <trkpt lat="43.61866" lon="0.87563">
        <ele>190</ele>
        <time>2020-10-03T13:09:30.000Z</time>
      </trkpt>
      <trkpt lat="43.61868" lon="0.87561">
        <ele>190</ele>
        <time>2020-10-03T13:09:31.000Z</time>
      </trkpt>
      <trkpt lat="43.6187" lon="0.87558">
        <ele>190</ele>
        <time>2020-10-03T13:09:32.000Z</time>
      </trkpt>
      <trkpt lat="43.61871" lon="0.87555">
        <ele>190</ele>
        <time>2020-10-03T13:09:33.000Z</time>
      </trkpt>
      <trkpt lat="43.61873" lon="0.87552">
        <ele>190</ele>
        <time>2020-10-03T13:09:34.000Z</time>
      </trkpt>
      <trkpt lat="43.61875" lon="0.8755">
        <ele>190</ele>
        <time>2020-10-03T13:09:35.000Z</time>
      </trkpt>
      <trkpt lat="43.61877" lon="0.87547">
        <ele>190</ele>
        <time>2020-10-03T13:09:36.000Z</time>
      </trkpt>
      <trkpt lat="43.61879" lon="0.87544">
        <ele>190</ele>
        <time>2020-10-03T13:09:37.000Z</time>
      </trkpt>
      <trkpt lat="43.61881" lon="0.87541">
        <ele>190</ele>
        <time>2020-10-03T13:09:38.000Z</time>
      </trkpt>
      <trkpt lat="43.61882" lon="0.87538">
        <ele>190</ele>
        <time>2020-10-03T13:09:39.000Z</time>
      </trkpt>
      <trkpt lat="43.61884" lon="0.87534">
        <ele>190</ele>
        <time>2020-10-03T13:09:40.000Z</time>
      </trkpt>
      <trkpt lat="43.61886" lon="0.87531">
        <ele>190</ele>
        <time>2020-10-03T13:09:41.000Z</time>
      </trkpt>
      <trkpt lat="43.61887" lon="0.87528">
        <ele>189.61061836635</ele>
        <time>2020-10-03T13:09:42.000Z</time>
      </trkpt>
      <trkpt lat="43.61889" lon="0.87525">
        <ele>189</ele>
        <time>2020-10-03T13:09:43.000Z</time>
      </trkpt>
      <trkpt lat="43.61891" lon="0.87523">
        <ele>188.67045818182</ele>
        <time>2020-10-03T13:09:44.000Z</time>
      </trkpt>
      <trkpt lat="43.61893" lon="0.87519">
        <ele>188</ele>
        <time>2020-10-03T13:09:45.000Z</time>
      </trkpt>
      <trkpt lat="43.61895" lon="0.87516">
        <ele>188</ele>
        <time>2020-10-03T13:09:46.000Z</time>
      </trkpt>
      <trkpt lat="43.61897" lon="0.87513">
        <ele>188</ele>
        <time>2020-10-03T13:09:47.000Z</time>
      </trkpt>
      <trkpt lat="43.61899" lon="0.87509">
        <ele>188</ele>
        <time>2020-10-03T13:09:48.000Z</time>
      </trkpt>
      <trkpt lat="43.61901" lon="0.87506">
        <ele>187.63302644558</ele>
        <time>2020-10-03T13:09:49.000Z</time>
      </trkpt>
      <trkpt lat="43.61903" lon="0.87503">
        <ele>187</ele>
        <time>2020-10-03T13:09:50.000Z</time>
      </trkpt>
      <trkpt lat="43.61906" lon="0.875">
        <ele>186.54629925926</ele>
        <time>2020-10-03T13:09:51.000Z</time>
      </trkpt>
      <trkpt lat="43.61908" lon="0.87497">
        <ele>186</ele>
        <time>2020-10-03T13:09:52.000Z</time>
      </trkpt>
      <trkpt lat="43.6191" lon="0.87494">
        <ele>186</ele>
        <time>2020-10-03T13:09:53.000Z</time>
      </trkpt>
      <trkpt lat="43.61911" lon="0.87491">
        <ele>186</ele>
        <time>2020-10-03T13:09:54.000Z</time>
      </trkpt>
      <trkpt lat="43.61913" lon="0.87488">
        <ele>186</ele>
        <time>2020-10-03T13:09:55.000Z</time>
      </trkpt>
      <trkpt lat="43.61915" lon="0.87484">
        <ele>186</ele>
        <time>2020-10-03T13:09:56.000Z</time>
      </trkpt>
      <trkpt lat="43.61917" lon="0.87481">
        <ele>186</ele>
        <time>2020-10-03T13:09:57.000Z</time>
      </trkpt>
      <trkpt lat="43.61919" lon="0.87479">
        <ele>185.62727346777</ele>
        <time>2020-10-03T13:09:58.000Z</time>
      </trkpt>
      <trkpt lat="43.61921" lon="0.87476">
        <ele>185</ele>
        <time>2020-10-03T13:09:59.000Z</time>
      </trkpt>
      <trkpt lat="43.61923" lon="0.87473">
        <ele>185</ele>
        <time>2020-10-03T13:10:00.000Z</time>
      </trkpt>
      <trkpt lat="43.61925" lon="0.8747">
        <ele>185</ele>
        <time>2020-10-03T13:10:01.000Z</time>
      </trkpt>
      <trkpt lat="43.61927" lon="0.87467">
        <ele>185</ele>
        <time>2020-10-03T13:10:02.000Z</time>
      </trkpt>
      <trkpt lat="43.61929" lon="0.87465">
        <ele>185</ele>
        <time>2020-10-03T13:10:03.000Z</time>
      </trkpt>
      <trkpt lat="43.61931" lon="0.87462">
        <ele>185</ele>
        <time>2020-10-03T13:10:04.000Z</time>
      </trkpt>
      <trkpt lat="43.61933" lon="0.87459">
        <ele>185</ele>
        <time>2020-10-03T13:10:05.000Z</time>
      </trkpt>
      <trkpt lat="43.61935" lon="0.87456">
        <ele>185</ele>
        <time>2020-10-03T13:10:06.000Z</time>
      </trkpt>
      <trkpt lat="43.61937" lon="0.87453">
        <ele>185</ele>
        <time>2020-10-03T13:10:07.000Z</time>
      </trkpt>
      <trkpt lat="43.61939" lon="0.8745">
        <ele>185</ele>
        <time>2020-10-03T13:10:08.000Z</time>
      </trkpt>
      <trkpt lat="43.61941" lon="0.87447">
        <ele>185</ele>
        <time>2020-10-03T13:10:09.000Z</time>
      </trkpt>
      <trkpt lat="43.61943" lon="0.87445">
        <ele>185</ele>
        <time>2020-10-03T13:10:10.000Z</time>
      </trkpt>
      <trkpt lat="43.61945" lon="0.87442">
        <ele>185</ele>
        <time>2020-10-03T13:10:11.000Z</time>
      </trkpt>
      <trkpt lat="43.61947" lon="0.87439">
        <ele>184.61061836635</ele>
        <time>2020-10-03T13:10:12.000Z</time>
      </trkpt>
      <trkpt lat="43.61949" lon="0.87436">
        <ele>184</ele>
        <time>2020-10-03T13:10:13.000Z</time>
      </trkpt>
      <trkpt lat="43.61951" lon="0.87434">
        <ele>184</ele>
        <time>2020-10-03T13:10:14.000Z</time>
      </trkpt>
      <trkpt lat="43.61953" lon="0.87431">
        <ele>184</ele>
        <time>2020-10-03T13:10:15.000Z</time>
      </trkpt>
      <trkpt lat="43.61954" lon="0.87427">
        <ele>184</ele>
        <time>2020-10-03T13:10:16.000Z</time>
      </trkpt>
      <trkpt lat="43.61956" lon="0.87424">
        <ele>184</ele>
        <time>2020-10-03T13:10:17.000Z</time>
      </trkpt>
      <trkpt lat="43.61958" lon="0.87421">
        <ele>184</ele>
        <time>2020-10-03T13:10:18.000Z</time>
      </trkpt>
      <trkpt lat="43.6196" lon="0.87418">
        <ele>184</ele>
        <time>2020-10-03T13:10:19.000Z</time>
      </trkpt>
      <trkpt lat="43.61962" lon="0.87414">
        <ele>184</ele>
        <time>2020-10-03T13:10:20.000Z</time>
      </trkpt>
      <trkpt lat="43.61964" lon="0.87411">
        <ele>184</ele>
        <time>2020-10-03T13:10:21.000Z</time>
      </trkpt>
      <trkpt lat="43.61966" lon="0.87408">
        <ele>184</ele>
        <time>2020-10-03T13:10:22.000Z</time>
      </trkpt>
      <trkpt lat="43.61968" lon="0.87405">
        <ele>184</ele>
        <time>2020-10-03T13:10:23.000Z</time>
      </trkpt>
      <trkpt lat="43.6197" lon="0.87402">
        <ele>183.58333333333</ele>
        <time>2020-10-03T13:10:24.000Z</time>
      </trkpt>
      <trkpt lat="43.61972" lon="0.87399">
        <ele>183</ele>
        <time>2020-10-03T13:10:25.000Z</time>
      </trkpt>
      <trkpt lat="43.61973" lon="0.87396">
        <ele>183</ele>
        <time>2020-10-03T13:10:26.000Z</time>
      </trkpt>
      <trkpt lat="43.61975" lon="0.87392">
        <ele>182.57292</ele>
        <time>2020-10-03T13:10:27.000Z</time>
      </trkpt>
      <trkpt lat="43.61977" lon="0.87389">
        <ele>182</ele>
        <time>2020-10-03T13:10:28.000Z</time>
      </trkpt>
      <trkpt lat="43.61979" lon="0.87386">
        <ele>182</ele>
        <time>2020-10-03T13:10:29.000Z</time>
      </trkpt>
      <trkpt lat="43.61981" lon="0.87383">
        <ele>182</ele>
        <time>2020-10-03T13:10:30.000Z</time>
      </trkpt>
      <trkpt lat="43.61983" lon="0.8738">
        <ele>182</ele>
        <time>2020-10-03T13:10:31.000Z</time>
      </trkpt>
      <trkpt lat="43.61985" lon="0.87377">
        <ele>182</ele>
        <time>2020-10-03T13:10:32.000Z</time>
      </trkpt>
      <trkpt lat="43.61987" lon="0.87375">
        <ele>182</ele>
        <time>2020-10-03T13:10:33.000Z</time>
      </trkpt>
      <trkpt lat="43.61989" lon="0.87372">
        <ele>182</ele>
        <time>2020-10-03T13:10:34.000Z</time>
      </trkpt>
      <trkpt lat="43.61991" lon="0.87369">
        <ele>182</ele>
        <time>2020-10-03T13:10:35.000Z</time>
      </trkpt>
      <trkpt lat="43.61993" lon="0.87366">
        <ele>181.67716868745</ele>
        <time>2020-10-03T13:10:36.000Z</time>
      </trkpt>
      <trkpt lat="43.61995" lon="0.87364">
        <ele>181</ele>
        <time>2020-10-03T13:10:37.000Z</time>
      </trkpt>
      <trkpt lat="43.61997" lon="0.87361">
        <ele>181</ele>
        <time>2020-10-03T13:10:38.000Z</time>
      </trkpt>
      <trkpt lat="43.61998" lon="0.87358">
        <ele>181.42708</ele>
        <time>2020-10-03T13:10:39.000Z</time>
      </trkpt>
      <trkpt lat="43.62" lon="0.87355">
        <ele>182</ele>
        <time>2020-10-03T13:10:40.000Z</time>
      </trkpt>
      <trkpt lat="43.62002" lon="0.87352">
        <ele>182</ele>
        <time>2020-10-03T13:10:41.000Z</time>
      </trkpt>
      <trkpt lat="43.62003" lon="0.87349">
        <ele>182</ele>
        <time>2020-10-03T13:10:42.000Z</time>
      </trkpt>
      <trkpt lat="43.62005" lon="0.87347">
        <ele>182</ele>
        <time>2020-10-03T13:10:43.000Z</time>
      </trkpt>
      <trkpt lat="43.62007" lon="0.87344">
        <ele>182</ele>
        <time>2020-10-03T13:10:44.000Z</time>
      </trkpt>
      <trkpt lat="43.62008" lon="0.87341">
        <ele>182</ele>
        <time>2020-10-03T13:10:45.000Z</time>
      </trkpt>
      <trkpt lat="43.6201" lon="0.87338">
        <ele>182</ele>
        <time>2020-10-03T13:10:46.000Z</time>
      </trkpt>
      <trkpt lat="43.62012" lon="0.87335">
        <ele>182</ele>
        <time>2020-10-03T13:10:47.000Z</time>
      </trkpt>
      <trkpt lat="43.62014" lon="0.87332">
        <ele>182</ele>
        <time>2020-10-03T13:10:48.000Z</time>
      </trkpt>
      <trkpt lat="43.62015" lon="0.87329">
        <ele>182</ele>
        <time>2020-10-03T13:10:49.000Z</time>
      </trkpt>
      <trkpt lat="43.62017" lon="0.87326">
        <ele>182</ele>
        <time>2020-10-03T13:10:50.000Z</time>
      </trkpt>
      <trkpt lat="43.62018" lon="0.87324">
        <ele>181.74336493696</ele>
        <time>2020-10-03T13:10:51.000Z</time>
      </trkpt>
      <trkpt lat="43.6202" lon="0.87321">
        <ele>181</ele>
        <time>2020-10-03T13:10:52.000Z</time>
      </trkpt>
      <trkpt lat="43.62022" lon="0.87318">
        <ele>181</ele>
        <time>2020-10-03T13:10:53.000Z</time>
      </trkpt>
      <trkpt lat="43.62023" lon="0.87314">
        <ele>181</ele>
        <time>2020-10-03T13:10:54.000Z</time>
      </trkpt>
      <trkpt lat="43.62025" lon="0.87311">
        <ele>181</ele>
        <time>2020-10-03T13:10:55.000Z</time>
      </trkpt>
      <trkpt lat="43.62026" lon="0.87309">
        <ele>180.91548432458</ele>
        <time>2020-10-03T13:10:56.000Z</time>
      </trkpt>
      <trkpt lat="43.62027" lon="0.87306">
        <ele>180</ele>
        <time>2020-10-03T13:10:57.000Z</time>
      </trkpt>
      <trkpt lat="43.62029" lon="0.87304">
        <ele>180</ele>
        <time>2020-10-03T13:10:58.000Z</time>
      </trkpt>
      <trkpt lat="43.6203" lon="0.87301">
        <ele>180</ele>
        <time>2020-10-03T13:10:59.000Z</time>
      </trkpt>
      <trkpt lat="43.62032" lon="0.87299">
        <ele>180</ele>
        <time>2020-10-03T13:11:00.000Z</time>
      </trkpt>
      <trkpt lat="43.62034" lon="0.87296">
        <ele>180</ele>
        <time>2020-10-03T13:11:01.000Z</time>
      </trkpt>
      <trkpt lat="43.62036" lon="0.87293">
        <ele>180</ele>
        <time>2020-10-03T13:11:02.000Z</time>
      </trkpt>
      <trkpt lat="43.62037" lon="0.8729">
        <ele>180</ele>
        <time>2020-10-03T13:11:03.000Z</time>
      </trkpt>
      <trkpt lat="43.62039" lon="0.87287">
        <ele>180</ele>
        <time>2020-10-03T13:11:04.000Z</time>
      </trkpt>
      <trkpt lat="43.6204" lon="0.87284">
        <ele>180</ele>
        <time>2020-10-03T13:11:05.000Z</time>
      </trkpt>
      <trkpt lat="43.62042" lon="0.87281">
        <ele>180</ele>
        <time>2020-10-03T13:11:06.000Z</time>
      </trkpt>
      <trkpt lat="43.62043" lon="0.87278">
        <ele>180</ele>
        <time>2020-10-03T13:11:07.000Z</time>
      </trkpt>
      <trkpt lat="43.62045" lon="0.87275">
        <ele>180</ele>
        <time>2020-10-03T13:11:08.000Z</time>
      </trkpt>
      <trkpt lat="43.62047" lon="0.87272">
        <ele>180</ele>
        <time>2020-10-03T13:11:09.000Z</time>
      </trkpt>
      <trkpt lat="43.62048" lon="0.87269">
        <ele>180</ele>
        <time>2020-10-03T13:11:10.000Z</time>
      </trkpt>
      <trkpt lat="43.6205" lon="0.87267">
        <ele>180</ele>
        <time>2020-10-03T13:11:11.000Z</time>
      </trkpt>
      <trkpt lat="43.62052" lon="0.87264">
        <ele>180</ele>
        <time>2020-10-03T13:11:12.000Z</time>
      </trkpt>
      <trkpt lat="43.62054" lon="0.87261">
        <ele>180</ele>
        <time>2020-10-03T13:11:13.000Z</time>
      </trkpt>
      <trkpt lat="43.62055" lon="0.87257">
        <ele>180</ele>
        <time>2020-10-03T13:11:14.000Z</time>
      </trkpt>
      <trkpt lat="43.62057" lon="0.87253">
        <ele>180.22222222222</ele>
        <time>2020-10-03T13:11:15.000Z</time>
      </trkpt>
      <trkpt lat="43.62059" lon="0.8725">
        <ele>181</ele>
        <time>2020-10-03T13:11:16.000Z</time>
      </trkpt>
      <trkpt lat="43.6206" lon="0.87247">
        <ele>181</ele>
        <time>2020-10-03T13:11:17.000Z</time>
      </trkpt>
      <trkpt lat="43.62062" lon="0.87243">
        <ele>181</ele>
        <time>2020-10-03T13:11:18.000Z</time>
      </trkpt>
      <trkpt lat="43.62064" lon="0.8724">
        <ele>181</ele>
        <time>2020-10-03T13:11:19.000Z</time>
      </trkpt>
      <trkpt lat="43.62066" lon="0.87237">
        <ele>180.5833362963</ele>
        <time>2020-10-03T13:11:20.000Z</time>
      </trkpt>
      <trkpt lat="43.62069" lon="0.87233">
        <ele>180</ele>
        <time>2020-10-03T13:11:21.000Z</time>
      </trkpt>
      <trkpt lat="43.62071" lon="0.8723">
        <ele>179.56880820132</ele>
        <time>2020-10-03T13:11:22.000Z</time>
      </trkpt>
      <trkpt lat="43.62073" lon="0.87227">
        <ele>179</ele>
        <time>2020-10-03T13:11:23.000Z</time>
      </trkpt>
      <trkpt lat="43.62075" lon="0.87223">
        <ele>179</ele>
        <time>2020-10-03T13:11:24.000Z</time>
      </trkpt>
      <trkpt lat="43.62077" lon="0.8722">
        <ele>179</ele>
        <time>2020-10-03T13:11:25.000Z</time>
      </trkpt>
      <trkpt lat="43.62078" lon="0.87217">
        <ele>179</ele>
        <time>2020-10-03T13:11:26.000Z</time>
      </trkpt>
      <trkpt lat="43.6208" lon="0.87213">
        <ele>179</ele>
        <time>2020-10-03T13:11:27.000Z</time>
      </trkpt>
      <trkpt lat="43.62081" lon="0.8721">
        <ele>178.50980712036</ele>
        <time>2020-10-03T13:11:28.000Z</time>
      </trkpt>
      <trkpt lat="43.62083" lon="0.87206">
        <ele>178</ele>
        <time>2020-10-03T13:11:29.000Z</time>
      </trkpt>
      <trkpt lat="43.62085" lon="0.87203">
        <ele>178</ele>
        <time>2020-10-03T13:11:30.000Z</time>
      </trkpt>
      <trkpt lat="43.62088" lon="0.87195">
        <ele>178</ele>
        <time>2020-10-03T13:11:32.000Z</time>
      </trkpt>
      <trkpt lat="43.62089" lon="0.87192">
        <ele>178</ele>
        <time>2020-10-03T13:11:33.000Z</time>
      </trkpt>
      <trkpt lat="43.62091" lon="0.87189">
        <ele>178</ele>
        <time>2020-10-03T13:11:34.000Z</time>
      </trkpt>
      <trkpt lat="43.62092" lon="0.87186">
        <ele>178</ele>
        <time>2020-10-03T13:11:35.000Z</time>
      </trkpt>
      <trkpt lat="43.62094" lon="0.87182">
        <ele>177.52381416782</ele>
        <time>2020-10-03T13:11:36.000Z</time>
      </trkpt>
      <trkpt lat="43.62095" lon="0.87179">
        <ele>177</ele>
        <time>2020-10-03T13:11:37.000Z</time>
      </trkpt>
      <trkpt lat="43.62097" lon="0.87177">
        <ele>177</ele>
        <time>2020-10-03T13:11:38.000Z</time>
      </trkpt>
      <trkpt lat="43.621" lon="0.87171">
        <ele>177</ele>
        <time>2020-10-03T13:11:40.000Z</time>
      </trkpt>
      <trkpt lat="43.62101" lon="0.87168">
        <ele>177</ele>
        <time>2020-10-03T13:11:41.000Z</time>
      </trkpt>
      <trkpt lat="43.62103" lon="0.87165">
        <ele>177</ele>
        <time>2020-10-03T13:11:42.000Z</time>
      </trkpt>
      <trkpt lat="43.62105" lon="0.87161">
        <ele>177</ele>
        <time>2020-10-03T13:11:43.000Z</time>
      </trkpt>
      <trkpt lat="43.62106" lon="0.87158">
        <ele>177</ele>
        <time>2020-10-03T13:11:44.000Z</time>
      </trkpt>
      <trkpt lat="43.62108" lon="0.87155">
        <ele>177</ele>
        <time>2020-10-03T13:11:45.000Z</time>
      </trkpt>
      <trkpt lat="43.6211" lon="0.87152">
        <ele>177</ele>
        <time>2020-10-03T13:11:46.000Z</time>
      </trkpt>
      <trkpt lat="43.62112" lon="0.87148">
        <ele>177</ele>
        <time>2020-10-03T13:11:47.000Z</time>
      </trkpt>
      <trkpt lat="43.62114" lon="0.87145">
        <ele>177</ele>
        <time>2020-10-03T13:11:48.000Z</time>
      </trkpt>
      <trkpt lat="43.62115" lon="0.87142">
        <ele>177</ele>
        <time>2020-10-03T13:11:49.000Z</time>
      </trkpt>
      <trkpt lat="43.62117" lon="0.87139">
        <ele>177</ele>
        <time>2020-10-03T13:11:50.000Z</time>
      </trkpt>
      <trkpt lat="43.62119" lon="0.87136">
        <ele>177</ele>
        <time>2020-10-03T13:11:51.000Z</time>
      </trkpt>
      <trkpt lat="43.6212" lon="0.87134">
        <ele>177</ele>
        <time>2020-10-03T13:11:52.000Z</time>
      </trkpt>
      <trkpt lat="43.62122" lon="0.87131">
        <ele>177</ele>
        <time>2020-10-03T13:11:53.000Z</time>
      </trkpt>
      <trkpt lat="43.62124" lon="0.87128">
        <ele>177</ele>
        <time>2020-10-03T13:11:54.000Z</time>
      </trkpt>
      <trkpt lat="43.62125" lon="0.87125">
        <ele>177</ele>
        <time>2020-10-03T13:11:55.000Z</time>
      </trkpt>
      <trkpt lat="43.62126" lon="0.87122">
        <ele>177</ele>
        <time>2020-10-03T13:11:56.000Z</time>
      </trkpt>
      <trkpt lat="43.62127" lon="0.87118">
        <ele>177</ele>
        <time>2020-10-03T13:11:57.000Z</time>
      </trkpt>
      <trkpt lat="43.62129" lon="0.87115">
        <ele>177</ele>
        <time>2020-10-03T13:11:58.000Z</time>
      </trkpt>
      <trkpt lat="43.6213" lon="0.87111">
        <ele>177</ele>
        <time>2020-10-03T13:11:59.000Z</time>
      </trkpt>
      <trkpt lat="43.62132" lon="0.87108">
        <ele>177</ele>
        <time>2020-10-03T13:12:00.000Z</time>
      </trkpt>
      <trkpt lat="43.62134" lon="0.87104">
        <ele>177</ele>
        <time>2020-10-03T13:12:01.000Z</time>
      </trkpt>
      <trkpt lat="43.62136" lon="0.87101">
        <ele>177</ele>
        <time>2020-10-03T13:12:02.000Z</time>
      </trkpt>
      <trkpt lat="43.62138" lon="0.87097">
        <ele>177</ele>
        <time>2020-10-03T13:12:03.000Z</time>
      </trkpt>
      <trkpt lat="43.62139" lon="0.87092">
        <ele>177</ele>
        <time>2020-10-03T13:12:04.000Z</time>
      </trkpt>
      <trkpt lat="43.62141" lon="0.87088">
        <ele>177</ele>
        <time>2020-10-03T13:12:05.000Z</time>
      </trkpt>
      <trkpt lat="43.62142" lon="0.87084">
        <ele>177</ele>
        <time>2020-10-03T13:12:06.000Z</time>
      </trkpt>
      <trkpt lat="43.62143" lon="0.8708">
        <ele>177</ele>
        <time>2020-10-03T13:12:07.000Z</time>
      </trkpt>
      <trkpt lat="43.62144" lon="0.87077">
        <ele>177</ele>
        <time>2020-10-03T13:12:08.000Z</time>
      </trkpt>
      <trkpt lat="43.62145" lon="0.87073">
        <ele>177</ele>
        <time>2020-10-03T13:12:09.000Z</time>
      </trkpt>
      <trkpt lat="43.62146" lon="0.8707">
        <ele>177</ele>
        <time>2020-10-03T13:12:10.000Z</time>
      </trkpt>
      <trkpt lat="43.62147" lon="0.87066">
        <ele>177</ele>
        <time>2020-10-03T13:12:11.000Z</time>
      </trkpt>
      <trkpt lat="43.62149" lon="0.87063">
        <ele>177</ele>
        <time>2020-10-03T13:12:12.000Z</time>
      </trkpt>
      <trkpt lat="43.62151" lon="0.8706">
        <ele>177</ele>
        <time>2020-10-03T13:12:13.000Z</time>
      </trkpt>
      <trkpt lat="43.62152" lon="0.87057">
        <ele>177</ele>
        <time>2020-10-03T13:12:14.000Z</time>
      </trkpt>
      <trkpt lat="43.62155" lon="0.87055">
        <ele>177</ele>
        <time>2020-10-03T13:12:15.000Z</time>
      </trkpt>
      <trkpt lat="43.62157" lon="0.87052">
        <ele>177</ele>
        <time>2020-10-03T13:12:16.000Z</time>
      </trkpt>
      <trkpt lat="43.62159" lon="0.8705">
        <ele>176.59374666667</ele>
        <time>2020-10-03T13:12:17.000Z</time>
      </trkpt>
      <trkpt lat="43.6216" lon="0.87048">
        <ele>176</ele>
        <time>2020-10-03T13:12:18.000Z</time>
      </trkpt>
      <trkpt lat="43.62162" lon="0.87045">
        <ele>176</ele>
        <time>2020-10-03T13:12:19.000Z</time>
      </trkpt>
      <trkpt lat="43.62164" lon="0.87043">
        <ele>176</ele>
        <time>2020-10-03T13:12:20.000Z</time>
      </trkpt>
      <trkpt lat="43.62166" lon="0.8704">
        <ele>176.4336267147</ele>
        <time>2020-10-03T13:12:21.000Z</time>
      </trkpt>
      <trkpt lat="43.62169" lon="0.87038">
        <ele>177</ele>
        <time>2020-10-03T13:12:22.000Z</time>
      </trkpt>
      <trkpt lat="43.62171" lon="0.87037">
        <ele>177</ele>
        <time>2020-10-03T13:12:23.000Z</time>
      </trkpt>
      <trkpt lat="43.62174" lon="0.87037">
        <ele>177</ele>
        <time>2020-10-03T13:12:24.000Z</time>
      </trkpt>
      <trkpt lat="43.62177" lon="0.87038">
        <ele>177</ele>
        <time>2020-10-03T13:12:25.000Z</time>
      </trkpt>
      <trkpt lat="43.62179" lon="0.87038">
        <ele>177</ele>
        <time>2020-10-03T13:12:26.000Z</time>
      </trkpt>
      <trkpt lat="43.62182" lon="0.87038">
        <ele>177</ele>
        <time>2020-10-03T13:12:27.000Z</time>
      </trkpt>
      <trkpt lat="43.62185" lon="0.87038">
        <ele>177</ele>
        <time>2020-10-03T13:12:28.000Z</time>
      </trkpt>
      <trkpt lat="43.62188" lon="0.87037">
        <ele>177</ele>
        <time>2020-10-03T13:12:29.000Z</time>
      </trkpt>
      <trkpt lat="43.62191" lon="0.87035">
        <ele>177</ele>
        <time>2020-10-03T13:12:30.000Z</time>
      </trkpt>
      <trkpt lat="43.62194" lon="0.87033">
        <ele>177</ele>
        <time>2020-10-03T13:12:31.000Z</time>
      </trkpt>
      <trkpt lat="43.62197" lon="0.87032">
        <ele>176.61061836635</ele>
        <time>2020-10-03T13:12:32.000Z</time>
      </trkpt>
      <trkpt lat="43.62199" lon="0.87031">
        <ele>176</ele>
        <time>2020-10-03T13:12:33.000Z</time>
      </trkpt>
      <trkpt lat="43.62202" lon="0.87029">
        <ele>176</ele>
        <time>2020-10-03T13:12:34.000Z</time>
      </trkpt>
      <trkpt lat="43.62204" lon="0.87028">
        <ele>175.58139846401</ele>
        <time>2020-10-03T13:12:35.000Z</time>
      </trkpt>
      <trkpt lat="43.62207" lon="0.87026">
        <ele>175</ele>
        <time>2020-10-03T13:12:36.000Z</time>
      </trkpt>
      <trkpt lat="43.6221" lon="0.87025">
        <ele>175</ele>
        <time>2020-10-03T13:12:37.000Z</time>
      </trkpt>
      <trkpt lat="43.62213" lon="0.87024">
        <ele>174.63529447197</ele>
        <time>2020-10-03T13:12:38.000Z</time>
      </trkpt>
      <trkpt lat="43.62215" lon="0.87023">
        <ele>174</ele>
        <time>2020-10-03T13:12:39.000Z</time>
      </trkpt>
      <trkpt lat="43.62218" lon="0.87021">
        <ele>174</ele>
        <time>2020-10-03T13:12:40.000Z</time>
      </trkpt>
      <trkpt lat="43.6222" lon="0.8702">
        <ele>174</ele>
        <time>2020-10-03T13:12:41.000Z</time>
      </trkpt>
      <trkpt lat="43.62223" lon="0.8702">
        <ele>173.85508106704</ele>
        <time>2020-10-03T13:12:42.000Z</time>
      </trkpt>
      <trkpt lat="43.62227" lon="0.87019">
        <ele>173</ele>
        <time>2020-10-03T13:12:43.000Z</time>
      </trkpt>
      <trkpt lat="43.6223" lon="0.87019">
        <ele>173</ele>
        <time>2020-10-03T13:12:44.000Z</time>
      </trkpt>
      <trkpt lat="43.62234" lon="0.87019">
        <ele>173</ele>
        <time>2020-10-03T13:12:45.000Z</time>
      </trkpt>
      <trkpt lat="43.62238" lon="0.87021">
        <ele>172.81817577339</ele>
        <time>2020-10-03T13:12:46.000Z</time>
      </trkpt>
      <trkpt lat="43.62241" lon="0.87022">
        <ele>171</ele>
        <time>2020-10-03T13:12:47.000Z</time>
      </trkpt>
      <trkpt lat="43.62243" lon="0.87023">
        <ele>171</ele>
        <time>2020-10-03T13:12:48.000Z</time>
      </trkpt>
      <trkpt lat="43.62246" lon="0.87024">
        <ele>171</ele>
        <time>2020-10-03T13:12:49.000Z</time>
      </trkpt>
      <trkpt lat="43.62248" lon="0.87025">
        <ele>170.18181923968</ele>
        <time>2020-10-03T13:12:50.000Z</time>
      </trkpt>
      <trkpt lat="43.62251" lon="0.87026">
        <ele>169</ele>
        <time>2020-10-03T13:12:51.000Z</time>
      </trkpt>
      <trkpt lat="43.62255" lon="0.87027">
        <ele>169</ele>
        <time>2020-10-03T13:12:52.000Z</time>
      </trkpt>
      <trkpt lat="43.62258" lon="0.87027">
        <ele>169</ele>
        <time>2020-10-03T13:12:53.000Z</time>
      </trkpt>
      <trkpt lat="43.62261" lon="0.87028">
        <ele>168.59047688707</ele>
        <time>2020-10-03T13:12:54.000Z</time>
      </trkpt>
      <trkpt lat="43.62264" lon="0.87028">
        <ele>168</ele>
        <time>2020-10-03T13:12:55.000Z</time>
      </trkpt>
      <trkpt lat="43.62268" lon="0.87028">
        <ele>168</ele>
        <time>2020-10-03T13:12:56.000Z</time>
      </trkpt>
      <trkpt lat="43.62271" lon="0.87028">
        <ele>167.27143562455</ele>
        <time>2020-10-03T13:12:57.000Z</time>
      </trkpt>
      <trkpt lat="43.62275" lon="0.87028">
        <ele>165</ele>
        <time>2020-10-03T13:12:58.000Z</time>
      </trkpt>
      <trkpt lat="43.62278" lon="0.87028">
        <ele>165</ele>
        <time>2020-10-03T13:12:59.000Z</time>
      </trkpt>
      <trkpt lat="43.62282" lon="0.87028">
        <ele>165</ele>
        <time>2020-10-03T13:13:00.000Z</time>
      </trkpt>
      <trkpt lat="43.62285" lon="0.87028">
        <ele>163.3265327447</ele>
        <time>2020-10-03T13:13:01.000Z</time>
      </trkpt>
      <trkpt lat="43.62288" lon="0.87027">
        <ele>161</ele>
        <time>2020-10-03T13:13:02.000Z</time>
      </trkpt>
      <trkpt lat="43.62292" lon="0.87027">
        <ele>161</ele>
        <time>2020-10-03T13:13:03.000Z</time>
      </trkpt>
      <trkpt lat="43.62295" lon="0.87027">
        <ele>160.74358637741</ele>
        <time>2020-10-03T13:13:04.000Z</time>
      </trkpt>
      <trkpt lat="43.62298" lon="0.87027">
        <ele>160</ele>
        <time>2020-10-03T13:13:05.000Z</time>
      </trkpt>
      <trkpt lat="43.62301" lon="0.87027">
        <ele>160</ele>
        <time>2020-10-03T13:13:06.000Z</time>
      </trkpt>
      <trkpt lat="43.62304" lon="0.87026">
        <ele>160</ele>
        <time>2020-10-03T13:13:07.000Z</time>
      </trkpt>
      <trkpt lat="43.62308" lon="0.87026">
        <ele>160</ele>
        <time>2020-10-03T13:13:08.000Z</time>
      </trkpt>
      <trkpt lat="43.62311" lon="0.87026">
        <ele>159.69902695448</ele>
        <time>2020-10-03T13:13:09.000Z</time>
      </trkpt>
      <trkpt lat="43.62315" lon="0.87025">
        <ele>159</ele>
        <time>2020-10-03T13:13:10.000Z</time>
      </trkpt>
      <trkpt lat="43.62318" lon="0.87024">
        <ele>159</ele>
        <time>2020-10-03T13:13:11.000Z</time>
      </trkpt>
      <trkpt lat="43.62321" lon="0.87023">
        <ele>158.76811486662</ele>
        <time>2020-10-03T13:13:12.000Z</time>
      </trkpt>
      <trkpt lat="43.62325" lon="0.87023">
        <ele>157</ele>
        <time>2020-10-03T13:13:13.000Z</time>
      </trkpt>
      <trkpt lat="43.62327" lon="0.87021">
        <ele>157</ele>
        <time>2020-10-03T13:13:14.000Z</time>
      </trkpt>
      <trkpt lat="43.6233" lon="0.87021">
        <ele>157</ele>
        <time>2020-10-03T13:13:15.000Z</time>
      </trkpt>
      <trkpt lat="43.62333" lon="0.8702">
        <ele>156.16278446723</ele>
        <time>2020-10-03T13:13:16.000Z</time>
      </trkpt>
      <trkpt lat="43.62336" lon="0.87019">
        <ele>155</ele>
        <time>2020-10-03T13:13:17.000Z</time>
      </trkpt>
      <trkpt lat="43.6234" lon="0.87018">
        <ele>155</ele>
        <time>2020-10-03T13:13:18.000Z</time>
      </trkpt>
      <trkpt lat="43.62343" lon="0.87018">
        <ele>154.65217391304</ele>
        <time>2020-10-03T13:13:19.000Z</time>
      </trkpt>
      <trkpt lat="43.62346" lon="0.87017">
        <ele>154</ele>
        <time>2020-10-03T13:13:20.000Z</time>
      </trkpt>
      <trkpt lat="43.62349" lon="0.87017">
        <ele>154</ele>
        <time>2020-10-03T13:13:21.000Z</time>
      </trkpt>
      <trkpt lat="43.62353" lon="0.87016">
        <ele>154</ele>
        <time>2020-10-03T13:13:22.000Z</time>
      </trkpt>
      <trkpt lat="43.62356" lon="0.87016">
        <ele>154</ele>
        <time>2020-10-03T13:13:23.000Z</time>
      </trkpt>
      <trkpt lat="43.62359" lon="0.87016">
        <ele>154</ele>
        <time>2020-10-03T13:13:24.000Z</time>
      </trkpt>
      <trkpt lat="43.62361" lon="0.87016">
        <ele>154</ele>
        <time>2020-10-03T13:13:25.000Z</time>
      </trkpt>
      <trkpt lat="43.62364" lon="0.87018">
        <ele>154</ele>
        <time>2020-10-03T13:13:26.000Z</time>
      </trkpt>
      <trkpt lat="43.62366" lon="0.87021">
        <ele>153.74138197387</ele>
        <time>2020-10-03T13:13:27.000Z</time>
      </trkpt>
      <trkpt lat="43.62367" lon="0.87025">
        <ele>153</ele>
        <time>2020-10-03T13:13:28.000Z</time>
      </trkpt>
      <trkpt lat="43.62368" lon="0.87028">
        <ele>153</ele>
        <time>2020-10-03T13:13:29.000Z</time>
      </trkpt>
      <trkpt lat="43.62368" lon="0.87031">
        <ele>153</ele>
        <time>2020-10-03T13:13:30.000Z</time>
      </trkpt>
      <trkpt lat="43.62369" lon="0.87035">
        <ele>152.60784067665</ele>
        <time>2020-10-03T13:13:31.000Z</time>
      </trkpt>
      <trkpt lat="43.62369" lon="0.87038">
        <ele>152</ele>
        <time>2020-10-03T13:13:32.000Z</time>
      </trkpt>
      <trkpt lat="43.6237" lon="0.87041">
        <ele>152</ele>
        <time>2020-10-03T13:13:33.000Z</time>
      </trkpt>
      <trkpt lat="43.62371" lon="0.87043">
        <ele>152.42857343798</ele>
        <time>2020-10-03T13:13:34.000Z</time>
      </trkpt>
      <trkpt lat="43.62373" lon="0.87046">
        <ele>153</ele>
        <time>2020-10-03T13:13:35.000Z</time>
      </trkpt>
      <trkpt lat="43.62376" lon="0.87048">
        <ele>153</ele>
        <time>2020-10-03T13:13:36.000Z</time>
      </trkpt>
      <trkpt lat="43.62378" lon="0.8705">
        <ele>153</ele>
        <time>2020-10-03T13:13:37.000Z</time>
      </trkpt>
      <trkpt lat="43.6238" lon="0.87053">
        <ele>153</ele>
        <time>2020-10-03T13:13:38.000Z</time>
      </trkpt>
      <trkpt lat="43.62383" lon="0.87055">
        <ele>153</ele>
        <time>2020-10-03T13:13:39.000Z</time>
      </trkpt>
      <trkpt lat="43.62385" lon="0.87058">
        <ele>153</ele>
        <time>2020-10-03T13:13:40.000Z</time>
      </trkpt>
      <trkpt lat="43.62388" lon="0.8706">
        <ele>153</ele>
        <time>2020-10-03T13:13:41.000Z</time>
      </trkpt>
      <trkpt lat="43.6239" lon="0.87062">
        <ele>152.64705882353</ele>
        <time>2020-10-03T13:13:42.000Z</time>
      </trkpt>
      <trkpt lat="43.62392" lon="0.87064">
        <ele>152</ele>
        <time>2020-10-03T13:13:43.000Z</time>
      </trkpt>
      <trkpt lat="43.62395" lon="0.87067">
        <ele>152</ele>
        <time>2020-10-03T13:13:44.000Z</time>
      </trkpt>
      <trkpt lat="43.62397" lon="0.87069">
        <ele>152</ele>
        <time>2020-10-03T13:13:45.000Z</time>
      </trkpt>
      <trkpt lat="43.62399" lon="0.87071">
        <ele>151.64101217631</ele>
        <time>2020-10-03T13:13:46.000Z</time>
      </trkpt>
      <trkpt lat="43.62402" lon="0.87073">
        <ele>150</ele>
        <time>2020-10-03T13:13:47.000Z</time>
      </trkpt>
      <trkpt lat="43.62404" lon="0.87075">
        <ele>150</ele>
        <time>2020-10-03T13:13:48.000Z</time>
      </trkpt>
      <trkpt lat="43.62407" lon="0.87077">
        <ele>150</ele>
        <time>2020-10-03T13:13:49.000Z</time>
      </trkpt>
      <trkpt lat="43.62409" lon="0.87078">
        <ele>150</ele>
        <time>2020-10-03T13:13:50.000Z</time>
      </trkpt>
      <trkpt lat="43.62412" lon="0.87078">
        <ele>150</ele>
        <time>2020-10-03T13:13:51.000Z</time>
      </trkpt>
      <trkpt lat="43.62414" lon="0.87077">
        <ele>149.5596317347</ele>
        <time>2020-10-03T13:13:52.000Z</time>
      </trkpt>
      <trkpt lat="43.62416" lon="0.87074">
        <ele>149</ele>
        <time>2020-10-03T13:13:53.000Z</time>
      </trkpt>
      <trkpt lat="43.62418" lon="0.87072">
        <ele>149</ele>
        <time>2020-10-03T13:13:54.000Z</time>
      </trkpt>
      <trkpt lat="43.6242" lon="0.8707">
        <ele>149</ele>
        <time>2020-10-03T13:13:55.000Z</time>
      </trkpt>
      <trkpt lat="43.62422" lon="0.87068">
        <ele>148.5545457719</ele>
        <time>2020-10-03T13:13:56.000Z</time>
      </trkpt>
      <trkpt lat="43.62424" lon="0.87065">
        <ele>148</ele>
        <time>2020-10-03T13:13:57.000Z</time>
      </trkpt>
      <trkpt lat="43.62426" lon="0.87062">
        <ele>148</ele>
        <time>2020-10-03T13:13:58.000Z</time>
      </trkpt>
      <trkpt lat="43.62428" lon="0.87059">
        <ele>147.56363382478</ele>
        <time>2020-10-03T13:13:59.000Z</time>
      </trkpt>
      <trkpt lat="43.6243" lon="0.87055">
        <ele>147</ele>
        <time>2020-10-03T13:14:00.000Z</time>
      </trkpt>
      <trkpt lat="43.62431" lon="0.87052">
        <ele>147</ele>
        <time>2020-10-03T13:14:01.000Z</time>
      </trkpt>
      <trkpt lat="43.62433" lon="0.87049">
        <ele>147</ele>
        <time>2020-10-03T13:14:02.000Z</time>
      </trkpt>
      <trkpt lat="43.62435" lon="0.87046">
        <ele>147</ele>
        <time>2020-10-03T13:14:03.000Z</time>
      </trkpt>
      <trkpt lat="43.62437" lon="0.87043">
        <ele>147</ele>
        <time>2020-10-03T13:14:04.000Z</time>
      </trkpt>
      <trkpt lat="43.62438" lon="0.87039">
        <ele>147</ele>
        <time>2020-10-03T13:14:05.000Z</time>
      </trkpt>
      <trkpt lat="43.6244" lon="0.87036">
        <ele>147</ele>
        <time>2020-10-03T13:14:06.000Z</time>
      </trkpt>
      <trkpt lat="43.62442" lon="0.87033">
        <ele>146.66667140744</ele>
        <time>2020-10-03T13:14:07.000Z</time>
      </trkpt>
      <trkpt lat="43.62444" lon="0.87029">
        <ele>146</ele>
        <time>2020-10-03T13:14:08.000Z</time>
      </trkpt>
      <trkpt lat="43.62446" lon="0.87026">
        <ele>146</ele>
        <time>2020-10-03T13:14:09.000Z</time>
      </trkpt>
      <trkpt lat="43.62448" lon="0.87023">
        <ele>146</ele>
        <time>2020-10-03T13:14:10.000Z</time>
      </trkpt>
      <trkpt lat="43.62449" lon="0.87019">
        <ele>146</ele>
        <time>2020-10-03T13:14:11.000Z</time>
      </trkpt>
      <trkpt lat="43.62451" lon="0.87017">
        <ele>146</ele>
        <time>2020-10-03T13:14:12.000Z</time>
      </trkpt>
      <trkpt lat="43.62454" lon="0.87015">
        <ele>146</ele>
        <time>2020-10-03T13:14:13.000Z</time>
      </trkpt>
      <trkpt lat="43.62457" lon="0.87015">
        <ele>146</ele>
        <time>2020-10-03T13:14:14.000Z</time>
      </trkpt>
      <trkpt lat="43.6246" lon="0.87016">
        <ele>146</ele>
        <time>2020-10-03T13:14:15.000Z</time>
      </trkpt>
      <trkpt lat="43.62463" lon="0.87016">
        <ele>146</ele>
        <time>2020-10-03T13:14:16.000Z</time>
      </trkpt>
      <trkpt lat="43.62465" lon="0.87016">
        <ele>146</ele>
        <time>2020-10-03T13:14:17.000Z</time>
      </trkpt>
      <trkpt lat="43.62468" lon="0.87017">
        <ele>146</ele>
        <time>2020-10-03T13:14:18.000Z</time>
      </trkpt>
      <trkpt lat="43.6247" lon="0.87017">
        <ele>146</ele>
        <time>2020-10-03T13:14:19.000Z</time>
      </trkpt>
      <trkpt lat="43.62474" lon="0.87018">
        <ele>146</ele>
        <time>2020-10-03T13:14:20.000Z</time>
      </trkpt>
      <trkpt lat="43.62477" lon="0.87019">
        <ele>146</ele>
        <time>2020-10-03T13:14:21.000Z</time>
      </trkpt>
      <trkpt lat="43.6248" lon="0.8702">
        <ele>146</ele>
        <time>2020-10-03T13:14:22.000Z</time>
      </trkpt>
      <trkpt lat="43.62482" lon="0.87021">
        <ele>146</ele>
        <time>2020-10-03T13:14:23.000Z</time>
      </trkpt>
      <trkpt lat="43.62485" lon="0.87022">
        <ele>146</ele>
        <time>2020-10-03T13:14:24.000Z</time>
      </trkpt>
      <trkpt lat="43.62488" lon="0.87022">
        <ele>146</ele>
        <time>2020-10-03T13:14:25.000Z</time>
      </trkpt>
      <trkpt lat="43.6249" lon="0.87023">
        <ele>146</ele>
        <time>2020-10-03T13:14:26.000Z</time>
      </trkpt>
      <trkpt lat="43.62493" lon="0.87024">
        <ele>146</ele>
        <time>2020-10-03T13:14:27.000Z</time>
      </trkpt>
      <trkpt lat="43.62496" lon="0.87025">
        <ele>146</ele>
        <time>2020-10-03T13:14:28.000Z</time>
      </trkpt>
      <trkpt lat="43.62499" lon="0.87026">
        <ele>146</ele>
        <time>2020-10-03T13:14:29.000Z</time>
      </trkpt>
      <trkpt lat="43.62501" lon="0.87027">
        <ele>146</ele>
        <time>2020-10-03T13:14:30.000Z</time>
      </trkpt>
      <trkpt lat="43.62504" lon="0.87027">
        <ele>146</ele>
        <time>2020-10-03T13:14:31.000Z</time>
      </trkpt>
      <trkpt lat="43.62507" lon="0.87026">
        <ele>146</ele>
        <time>2020-10-03T13:14:32.000Z</time>
      </trkpt>
      <trkpt lat="43.62509" lon="0.87024">
        <ele>146</ele>
        <time>2020-10-03T13:14:33.000Z</time>
      </trkpt>
      <trkpt lat="43.62512" lon="0.87022">
        <ele>146</ele>
        <time>2020-10-03T13:14:34.000Z</time>
      </trkpt>
      <trkpt lat="43.62514" lon="0.8702">
        <ele>146</ele>
        <time>2020-10-03T13:14:35.000Z</time>
      </trkpt>
      <trkpt lat="43.62516" lon="0.87018">
        <ele>146</ele>
        <time>2020-10-03T13:14:36.000Z</time>
      </trkpt>
      <trkpt lat="43.62517" lon="0.87016">
        <ele>146</ele>
        <time>2020-10-03T13:14:37.000Z</time>
      </trkpt>
      <trkpt lat="43.62519" lon="0.87013">
        <ele>146</ele>
        <time>2020-10-03T13:14:38.000Z</time>
      </trkpt>
      <trkpt lat="43.6252" lon="0.8701">
        <ele>146</ele>
        <time>2020-10-03T13:14:39.000Z</time>
      </trkpt>
      <trkpt lat="43.62521" lon="0.87007">
        <ele>146</ele>
        <time>2020-10-03T13:14:40.000Z</time>
      </trkpt>
      <trkpt lat="43.62523" lon="0.87004">
        <ele>146</ele>
        <time>2020-10-03T13:14:41.000Z</time>
      </trkpt>
      <trkpt lat="43.62524" lon="0.87001">
        <ele>146</ele>
        <time>2020-10-03T13:14:42.000Z</time>
      </trkpt>
      <trkpt lat="43.62525" lon="0.86997">
        <ele>146</ele>
        <time>2020-10-03T13:14:43.000Z</time>
      </trkpt>
      <trkpt lat="43.62526" lon="0.86994">
        <ele>146</ele>
        <time>2020-10-03T13:14:44.000Z</time>
      </trkpt>
      <trkpt lat="43.62527" lon="0.86991">
        <ele>146</ele>
        <time>2020-10-03T13:14:45.000Z</time>
      </trkpt>
      <trkpt lat="43.62529" lon="0.86988">
        <ele>146</ele>
        <time>2020-10-03T13:14:46.000Z</time>
      </trkpt>
      <trkpt lat="43.6253" lon="0.86985">
        <ele>146</ele>
        <time>2020-10-03T13:14:47.000Z</time>
      </trkpt>
      <trkpt lat="43.62532" lon="0.86982">
        <ele>146</ele>
        <time>2020-10-03T13:14:48.000Z</time>
      </trkpt>
      <trkpt lat="43.62534" lon="0.86979">
        <ele>146</ele>
        <time>2020-10-03T13:14:49.000Z</time>
      </trkpt>
      <trkpt lat="43.62537" lon="0.86976">
        <ele>146</ele>
        <time>2020-10-03T13:14:50.000Z</time>
      </trkpt>
      <trkpt lat="43.62539" lon="0.86974">
        <ele>146</ele>
        <time>2020-10-03T13:14:51.000Z</time>
      </trkpt>
      <trkpt lat="43.62541" lon="0.86972">
        <ele>146</ele>
        <time>2020-10-03T13:14:52.000Z</time>
      </trkpt>
      <trkpt lat="43.62543" lon="0.8697">
        <ele>146</ele>
        <time>2020-10-03T13:14:53.000Z</time>
      </trkpt>
      <trkpt lat="43.62545" lon="0.86968">
        <ele>146</ele>
        <time>2020-10-03T13:14:54.000Z</time>
      </trkpt>
      <trkpt lat="43.62547" lon="0.86965">
        <ele>146</ele>
        <time>2020-10-03T13:14:55.000Z</time>
      </trkpt>
      <trkpt lat="43.62548" lon="0.86963">
        <ele>146</ele>
        <time>2020-10-03T13:14:56.000Z</time>
      </trkpt>
      <trkpt lat="43.6255" lon="0.86961">
        <ele>146</ele>
        <time>2020-10-03T13:14:57.000Z</time>
      </trkpt>
      <trkpt lat="43.62551" lon="0.86958">
        <ele>146</ele>
        <time>2020-10-03T13:14:58.000Z</time>
      </trkpt>
      <trkpt lat="43.62552" lon="0.86955">
        <ele>146</ele>
        <time>2020-10-03T13:14:59.000Z</time>
      </trkpt>
      <trkpt lat="43.62553" lon="0.86952">
        <ele>146</ele>
        <time>2020-10-03T13:15:00.000Z</time>
      </trkpt>
      <trkpt lat="43.62554" lon="0.86949">
        <ele>146</ele>
        <time>2020-10-03T13:15:01.000Z</time>
      </trkpt>
      <trkpt lat="43.62555" lon="0.86946">
        <ele>146</ele>
        <time>2020-10-03T13:15:02.000Z</time>
      </trkpt>
      <trkpt lat="43.62556" lon="0.86943">
        <ele>146</ele>
        <time>2020-10-03T13:15:03.000Z</time>
      </trkpt>
      <trkpt lat="43.62557" lon="0.8694">
        <ele>146</ele>
        <time>2020-10-03T13:15:04.000Z</time>
      </trkpt>
      <trkpt lat="43.62557" lon="0.86937">
        <ele>146.32584027268</ele>
        <time>2020-10-03T13:15:05.000Z</time>
      </trkpt>
      <trkpt lat="43.62558" lon="0.86934">
        <ele>147</ele>
        <time>2020-10-03T13:15:06.000Z</time>
      </trkpt>
      <trkpt lat="43.62559" lon="0.86931">
        <ele>147</ele>
        <time>2020-10-03T13:15:07.000Z</time>
      </trkpt>
      <trkpt lat="43.62559" lon="0.86927">
        <ele>147</ele>
        <time>2020-10-03T13:15:08.000Z</time>
      </trkpt>
      <trkpt lat="43.6256" lon="0.86924">
        <ele>147</ele>
        <time>2020-10-03T13:15:09.000Z</time>
      </trkpt>
      <trkpt lat="43.6256" lon="0.8692">
        <ele>147</ele>
        <time>2020-10-03T13:15:10.000Z</time>
      </trkpt>
      <trkpt lat="43.62561" lon="0.86916">
        <ele>146.67045818182</ele>
        <time>2020-10-03T13:15:11.000Z</time>
      </trkpt>
      <trkpt lat="43.62561" lon="0.86913">
        <ele>146</ele>
        <time>2020-10-03T13:15:12.000Z</time>
      </trkpt>
      <trkpt lat="43.62562" lon="0.86909">
        <ele>146</ele>
        <time>2020-10-03T13:15:13.000Z</time>
      </trkpt>
      <trkpt lat="43.62563" lon="0.86905">
        <ele>146</ele>
        <time>2020-10-03T13:15:14.000Z</time>
      </trkpt>
      <trkpt lat="43.62564" lon="0.86901">
        <ele>146</ele>
        <time>2020-10-03T13:15:15.000Z</time>
      </trkpt>
      <trkpt lat="43.62564" lon="0.86898">
        <ele>146</ele>
        <time>2020-10-03T13:15:16.000Z</time>
      </trkpt>
      <trkpt lat="43.62565" lon="0.86894">
        <ele>146</ele>
        <time>2020-10-03T13:15:17.000Z</time>
      </trkpt>
      <trkpt lat="43.62565" lon="0.8689">
        <ele>146</ele>
        <time>2020-10-03T13:15:18.000Z</time>
      </trkpt>
      <trkpt lat="43.62566" lon="0.86886">
        <ele>146</ele>
        <time>2020-10-03T13:15:19.000Z</time>
      </trkpt>
      <trkpt lat="43.62566" lon="0.86882">
        <ele>146</ele>
        <time>2020-10-03T13:15:20.000Z</time>
      </trkpt>
      <trkpt lat="43.62566" lon="0.86878">
        <ele>146</ele>
        <time>2020-10-03T13:15:21.000Z</time>
      </trkpt>
      <trkpt lat="43.62567" lon="0.86874">
        <ele>146</ele>
        <time>2020-10-03T13:15:22.000Z</time>
      </trkpt>
      <trkpt lat="43.62567" lon="0.86869">
        <ele>146</ele>
        <time>2020-10-03T13:15:23.000Z</time>
      </trkpt>
      <trkpt lat="43.62567" lon="0.86865">
        <ele>146</ele>
        <time>2020-10-03T13:15:24.000Z</time>
      </trkpt>
      <trkpt lat="43.62567" lon="0.86861">
        <ele>146</ele>
        <time>2020-10-03T13:15:25.000Z</time>
      </trkpt>
      <trkpt lat="43.62567" lon="0.86857">
        <ele>146</ele>
        <time>2020-10-03T13:15:26.000Z</time>
      </trkpt>
      <trkpt lat="43.62567" lon="0.86854">
        <ele>146</ele>
        <time>2020-10-03T13:15:27.000Z</time>
      </trkpt>
      <trkpt lat="43.62567" lon="0.8685">
        <ele>146</ele>
        <time>2020-10-03T13:15:28.000Z</time>
      </trkpt>
      <trkpt lat="43.62567" lon="0.86846">
        <ele>146</ele>
        <time>2020-10-03T13:15:29.000Z</time>
      </trkpt>
      <trkpt lat="43.62567" lon="0.86842">
        <ele>146</ele>
        <time>2020-10-03T13:15:30.000Z</time>
      </trkpt>
      <trkpt lat="43.62566" lon="0.86838">
        <ele>146</ele>
        <time>2020-10-03T13:15:31.000Z</time>
      </trkpt>
      <trkpt lat="43.62566" lon="0.86834">
        <ele>146</ele>
        <time>2020-10-03T13:15:32.000Z</time>
      </trkpt>
      <trkpt lat="43.62566" lon="0.8683">
        <ele>146</ele>
        <time>2020-10-03T13:15:33.000Z</time>
      </trkpt>
      <trkpt lat="43.62566" lon="0.86827">
        <ele>146</ele>
        <time>2020-10-03T13:15:34.000Z</time>
      </trkpt>
      <trkpt lat="43.62567" lon="0.86823">
        <ele>146</ele>
        <time>2020-10-03T13:15:35.000Z</time>
      </trkpt>
      <trkpt lat="43.62567" lon="0.86819">
        <ele>146</ele>
        <time>2020-10-03T13:15:36.000Z</time>
      </trkpt>
      <trkpt lat="43.62568" lon="0.86816">
        <ele>146</ele>
        <time>2020-10-03T13:15:37.000Z</time>
      </trkpt>
      <trkpt lat="43.62569" lon="0.86812">
        <ele>146</ele>
        <time>2020-10-03T13:15:38.000Z</time>
      </trkpt>
      <trkpt lat="43.62571" lon="0.8681">
        <ele>146</ele>
        <time>2020-10-03T13:15:39.000Z</time>
      </trkpt>
      <trkpt lat="43.62574" lon="0.86809">
        <ele>146</ele>
        <time>2020-10-03T13:15:40.000Z</time>
      </trkpt>
      <trkpt lat="43.62576" lon="0.86809">
        <ele>146</ele>
        <time>2020-10-03T13:15:41.000Z</time>
      </trkpt>
      <trkpt lat="43.62579" lon="0.86809">
        <ele>146</ele>
        <time>2020-10-03T13:15:42.000Z</time>
      </trkpt>
      <trkpt lat="43.62582" lon="0.8681">
        <ele>146</ele>
        <time>2020-10-03T13:15:43.000Z</time>
      </trkpt>
      <trkpt lat="43.62584" lon="0.86811">
        <ele>146</ele>
        <time>2020-10-03T13:15:44.000Z</time>
      </trkpt>
      <trkpt lat="43.62587" lon="0.86812">
        <ele>146</ele>
        <time>2020-10-03T13:15:45.000Z</time>
      </trkpt>
      <trkpt lat="43.6259" lon="0.86812">
        <ele>146</ele>
        <time>2020-10-03T13:15:46.000Z</time>
      </trkpt>
      <trkpt lat="43.62593" lon="0.86813">
        <ele>146</ele>
        <time>2020-10-03T13:15:47.000Z</time>
      </trkpt>
      <trkpt lat="43.62596" lon="0.86814">
        <ele>145.67442275826</ele>
        <time>2020-10-03T13:15:48.000Z</time>
      </trkpt>
      <trkpt lat="43.62599" lon="0.86814">
        <ele>145</ele>
        <time>2020-10-03T13:15:49.000Z</time>
      </trkpt>
      <trkpt lat="43.62602" lon="0.86815">
        <ele>145</ele>
        <time>2020-10-03T13:15:50.000Z</time>
      </trkpt>
      <trkpt lat="43.62605" lon="0.86816">
        <ele>145</ele>
        <time>2020-10-03T13:15:51.000Z</time>
      </trkpt>
      <trkpt lat="43.62608" lon="0.86817">
        <ele>145.33708220675</ele>
        <time>2020-10-03T13:15:52.000Z</time>
      </trkpt>
      <trkpt lat="43.6261" lon="0.86818">
        <ele>146</ele>
        <time>2020-10-03T13:15:53.000Z</time>
      </trkpt>
      <trkpt lat="43.62614" lon="0.86819">
        <ele>146</ele>
        <time>2020-10-03T13:15:54.000Z</time>
      </trkpt>
      <trkpt lat="43.62616" lon="0.8682">
        <ele>146</ele>
        <time>2020-10-03T13:15:55.000Z</time>
      </trkpt>
      <trkpt lat="43.62619" lon="0.86822">
        <ele>146</ele>
        <time>2020-10-03T13:15:56.000Z</time>
      </trkpt>
      <trkpt lat="43.62622" lon="0.86823">
        <ele>146</ele>
        <time>2020-10-03T13:15:57.000Z</time>
      </trkpt>
      <trkpt lat="43.62625" lon="0.86824">
        <ele>146</ele>
        <time>2020-10-03T13:15:58.000Z</time>
      </trkpt>
      <trkpt lat="43.62628" lon="0.86825">
        <ele>146</ele>
        <time>2020-10-03T13:15:59.000Z</time>
      </trkpt>
      <trkpt lat="43.62631" lon="0.86825">
        <ele>146</ele>
        <time>2020-10-03T13:16:00.000Z</time>
      </trkpt>
      <trkpt lat="43.62633" lon="0.86826">
        <ele>146</ele>
        <time>2020-10-03T13:16:01.000Z</time>
      </trkpt>
      <trkpt lat="43.62636" lon="0.86827">
        <ele>146</ele>
        <time>2020-10-03T13:16:02.000Z</time>
      </trkpt>
      <trkpt lat="43.62639" lon="0.86828">
        <ele>146</ele>
        <time>2020-10-03T13:16:03.000Z</time>
      </trkpt>
      <trkpt lat="43.62642" lon="0.86828">
        <ele>146</ele>
        <time>2020-10-03T13:16:04.000Z</time>
      </trkpt>
      <trkpt lat="43.62645" lon="0.86829">
        <ele>146</ele>
        <time>2020-10-03T13:16:05.000Z</time>
      </trkpt>
      <trkpt lat="43.62647" lon="0.86829">
        <ele>146</ele>
        <time>2020-10-03T13:16:06.000Z</time>
      </trkpt>
      <trkpt lat="43.6265" lon="0.8683">
        <ele>145.53398203035</ele>
        <time>2020-10-03T13:16:07.000Z</time>
      </trkpt>
      <trkpt lat="43.62653" lon="0.8683">
        <ele>145</ele>
        <time>2020-10-03T13:16:08.000Z</time>
      </trkpt>
      <trkpt lat="43.62656" lon="0.86831">
        <ele>145</ele>
        <time>2020-10-03T13:16:09.000Z</time>
      </trkpt>
      <trkpt lat="43.62658" lon="0.86832">
        <ele>145.36641131869</ele>
        <time>2020-10-03T13:16:10.000Z</time>
      </trkpt>
      <trkpt lat="43.62661" lon="0.86833">
        <ele>146</ele>
        <time>2020-10-03T13:16:11.000Z</time>
      </trkpt>
      <trkpt lat="43.62664" lon="0.86833">
        <ele>146</ele>
        <time>2020-10-03T13:16:12.000Z</time>
      </trkpt>
      <trkpt lat="43.62666" lon="0.86834">
        <ele>146</ele>
        <time>2020-10-03T13:16:13.000Z</time>
      </trkpt>
      <trkpt lat="43.62669" lon="0.86834">
        <ele>146</ele>
        <time>2020-10-03T13:16:14.000Z</time>
      </trkpt>
      <trkpt lat="43.62672" lon="0.86835">
        <ele>146</ele>
        <time>2020-10-03T13:16:15.000Z</time>
      </trkpt>
      <trkpt lat="43.62675" lon="0.86836">
        <ele>146</ele>
        <time>2020-10-03T13:16:16.000Z</time>
      </trkpt>
      <trkpt lat="43.62677" lon="0.86837">
        <ele>146</ele>
        <time>2020-10-03T13:16:17.000Z</time>
      </trkpt>
      <trkpt lat="43.6268" lon="0.86838">
        <ele>146</ele>
        <time>2020-10-03T13:16:18.000Z</time>
      </trkpt>
      <trkpt lat="43.62683" lon="0.86839">
        <ele>146</ele>
        <time>2020-10-03T13:16:19.000Z</time>
      </trkpt>
      <trkpt lat="43.62685" lon="0.86839">
        <ele>146</ele>
        <time>2020-10-03T13:16:20.000Z</time>
      </trkpt>
      <trkpt lat="43.62688" lon="0.8684">
        <ele>146</ele>
        <time>2020-10-03T13:16:21.000Z</time>
      </trkpt>
      <trkpt lat="43.62691" lon="0.86841">
        <ele>146</ele>
        <time>2020-10-03T13:16:22.000Z</time>
      </trkpt>
      <trkpt lat="43.62694" lon="0.86842">
        <ele>146</ele>
        <time>2020-10-03T13:16:23.000Z</time>
      </trkpt>
      <trkpt lat="43.62697" lon="0.86843">
        <ele>146</ele>
        <time>2020-10-03T13:16:24.000Z</time>
      </trkpt>
      <trkpt lat="43.62699" lon="0.86844">
        <ele>146</ele>
        <time>2020-10-03T13:16:25.000Z</time>
      </trkpt>
      <trkpt lat="43.62702" lon="0.86845">
        <ele>146</ele>
        <time>2020-10-03T13:16:26.000Z</time>
      </trkpt>
      <trkpt lat="43.62705" lon="0.86846">
        <ele>146</ele>
        <time>2020-10-03T13:16:27.000Z</time>
      </trkpt>
      <trkpt lat="43.62708" lon="0.86847">
        <ele>146</ele>
        <time>2020-10-03T13:16:28.000Z</time>
      </trkpt>
      <trkpt lat="43.6271" lon="0.86847">
        <ele>146</ele>
        <time>2020-10-03T13:16:29.000Z</time>
      </trkpt>
      <trkpt lat="43.62713" lon="0.86848">
        <ele>146</ele>
        <time>2020-10-03T13:16:30.000Z</time>
      </trkpt>
      <trkpt lat="43.62715" lon="0.86849">
        <ele>146</ele>
        <time>2020-10-03T13:16:31.000Z</time>
      </trkpt>
      <trkpt lat="43.62718" lon="0.86849">
        <ele>146</ele>
        <time>2020-10-03T13:16:32.000Z</time>
      </trkpt>
      <trkpt lat="43.6272" lon="0.8685">
        <ele>146</ele>
        <time>2020-10-03T13:16:33.000Z</time>
      </trkpt>
      <trkpt lat="43.62723" lon="0.86852">
        <ele>146</ele>
        <time>2020-10-03T13:16:34.000Z</time>
      </trkpt>
      <trkpt lat="43.62726" lon="0.86852">
        <ele>146</ele>
        <time>2020-10-03T13:16:35.000Z</time>
      </trkpt>
      <trkpt lat="43.62729" lon="0.86853">
        <ele>146</ele>
        <time>2020-10-03T13:16:36.000Z</time>
      </trkpt>
      <trkpt lat="43.62732" lon="0.86853">
        <ele>146</ele>
        <time>2020-10-03T13:16:37.000Z</time>
      </trkpt>
      <trkpt lat="43.62735" lon="0.86852">
        <ele>146</ele>
        <time>2020-10-03T13:16:38.000Z</time>
      </trkpt>
      <trkpt lat="43.62738" lon="0.86851">
        <ele>146</ele>
        <time>2020-10-03T13:16:39.000Z</time>
      </trkpt>
      <trkpt lat="43.62741" lon="0.8685">
        <ele>146</ele>
        <time>2020-10-03T13:16:40.000Z</time>
      </trkpt>
      <trkpt lat="43.62743" lon="0.86848">
        <ele>146</ele>
        <time>2020-10-03T13:16:41.000Z</time>
      </trkpt>
      <trkpt lat="43.62745" lon="0.86847">
        <ele>146</ele>
        <time>2020-10-03T13:16:42.000Z</time>
      </trkpt>
      <trkpt lat="43.62747" lon="0.86846">
        <ele>146</ele>
        <time>2020-10-03T13:16:43.000Z</time>
      </trkpt>
      <trkpt lat="43.62749" lon="0.86845">
        <ele>146</ele>
        <time>2020-10-03T13:16:44.000Z</time>
      </trkpt>
      <trkpt lat="43.62752" lon="0.86844">
        <ele>146</ele>
        <time>2020-10-03T13:16:45.000Z</time>
      </trkpt>
      <trkpt lat="43.62755" lon="0.86843">
        <ele>146</ele>
        <time>2020-10-03T13:16:46.000Z</time>
      </trkpt>
      <trkpt lat="43.62758" lon="0.86843">
        <ele>146</ele>
        <time>2020-10-03T13:16:47.000Z</time>
      </trkpt>
      <trkpt lat="43.6276" lon="0.86843">
        <ele>146</ele>
        <time>2020-10-03T13:16:48.000Z</time>
      </trkpt>
      <trkpt lat="43.62763" lon="0.86844">
        <ele>146</ele>
        <time>2020-10-03T13:16:49.000Z</time>
      </trkpt>
      <trkpt lat="43.62765" lon="0.86846">
        <ele>146</ele>
        <time>2020-10-03T13:16:50.000Z</time>
      </trkpt>
      <trkpt lat="43.62768" lon="0.86847">
        <ele>146</ele>
        <time>2020-10-03T13:16:51.000Z</time>
      </trkpt>
      <trkpt lat="43.62771" lon="0.86847">
        <ele>146</ele>
        <time>2020-10-03T13:16:52.000Z</time>
      </trkpt>
      <trkpt lat="43.62773" lon="0.86848">
        <ele>146</ele>
        <time>2020-10-03T13:16:53.000Z</time>
      </trkpt>
      <trkpt lat="43.62776" lon="0.86849">
        <ele>146</ele>
        <time>2020-10-03T13:16:54.000Z</time>
      </trkpt>
      <trkpt lat="43.62781" lon="0.8685">
        <ele>146</ele>
        <time>2020-10-03T13:16:56.000Z</time>
      </trkpt>
      <trkpt lat="43.62784" lon="0.86851">
        <ele>146</ele>
        <time>2020-10-03T13:16:57.000Z</time>
      </trkpt>
      <trkpt lat="43.62786" lon="0.86852">
        <ele>146</ele>
        <time>2020-10-03T13:16:58.000Z</time>
      </trkpt>
      <trkpt lat="43.62789" lon="0.86852">
        <ele>146</ele>
        <time>2020-10-03T13:16:59.000Z</time>
      </trkpt>
      <trkpt lat="43.62791" lon="0.86853">
        <ele>146</ele>
        <time>2020-10-03T13:17:00.000Z</time>
      </trkpt>
      <trkpt lat="43.62794" lon="0.86854">
        <ele>146</ele>
        <time>2020-10-03T13:17:01.000Z</time>
      </trkpt>
      <trkpt lat="43.62797" lon="0.86854">
        <ele>146</ele>
        <time>2020-10-03T13:17:02.000Z</time>
      </trkpt>
      <trkpt lat="43.62799" lon="0.86855">
        <ele>146</ele>
        <time>2020-10-03T13:17:03.000Z</time>
      </trkpt>
      <trkpt lat="43.62802" lon="0.86855">
        <ele>146</ele>
        <time>2020-10-03T13:17:04.000Z</time>
      </trkpt>
      <trkpt lat="43.62805" lon="0.86857">
        <ele>146</ele>
        <time>2020-10-03T13:17:05.000Z</time>
      </trkpt>
      <trkpt lat="43.62807" lon="0.86857">
        <ele>146</ele>
        <time>2020-10-03T13:17:06.000Z</time>
      </trkpt>
      <trkpt lat="43.6281" lon="0.86857">
        <ele>146</ele>
        <time>2020-10-03T13:17:07.000Z</time>
      </trkpt>
      <trkpt lat="43.62813" lon="0.86858">
        <ele>146</ele>
        <time>2020-10-03T13:17:08.000Z</time>
      </trkpt>
      <trkpt lat="43.62816" lon="0.86859">
        <ele>146</ele>
        <time>2020-10-03T13:17:09.000Z</time>
      </trkpt>
      <trkpt lat="43.62818" lon="0.8686">
        <ele>146</ele>
        <time>2020-10-03T13:17:10.000Z</time>
      </trkpt>
      <trkpt lat="43.62821" lon="0.86861">
        <ele>146</ele>
        <time>2020-10-03T13:17:11.000Z</time>
      </trkpt>
      <trkpt lat="43.62824" lon="0.86863">
        <ele>146</ele>
        <time>2020-10-03T13:17:12.000Z</time>
      </trkpt>
      <trkpt lat="43.62826" lon="0.86865">
        <ele>146</ele>
        <time>2020-10-03T13:17:13.000Z</time>
      </trkpt>
      <trkpt lat="43.62829" lon="0.86866">
        <ele>146</ele>
        <time>2020-10-03T13:17:14.000Z</time>
      </trkpt>
      <trkpt lat="43.62832" lon="0.86868">
        <ele>146</ele>
        <time>2020-10-03T13:17:15.000Z</time>
      </trkpt>
      <trkpt lat="43.62835" lon="0.86869">
        <ele>146</ele>
        <time>2020-10-03T13:17:16.000Z</time>
      </trkpt>
      <trkpt lat="43.62837" lon="0.86871">
        <ele>146</ele>
        <time>2020-10-03T13:17:17.000Z</time>
      </trkpt>
      <trkpt lat="43.6284" lon="0.86873">
        <ele>146</ele>
        <time>2020-10-03T13:17:18.000Z</time>
      </trkpt>
      <trkpt lat="43.62843" lon="0.86875">
        <ele>146</ele>
        <time>2020-10-03T13:17:19.000Z</time>
      </trkpt>
      <trkpt lat="43.62845" lon="0.86876">
        <ele>146</ele>
        <time>2020-10-03T13:17:20.000Z</time>
      </trkpt>
      <trkpt lat="43.62848" lon="0.86878">
        <ele>146</ele>
        <time>2020-10-03T13:17:21.000Z</time>
      </trkpt>
      <trkpt lat="43.62851" lon="0.86879">
        <ele>146</ele>
        <time>2020-10-03T13:17:22.000Z</time>
      </trkpt>
      <trkpt lat="43.62853" lon="0.86881">
        <ele>146</ele>
        <time>2020-10-03T13:17:23.000Z</time>
      </trkpt>
      <trkpt lat="43.62856" lon="0.86883">
        <ele>146</ele>
        <time>2020-10-03T13:17:24.000Z</time>
      </trkpt>
      <trkpt lat="43.62858" lon="0.86884">
        <ele>146</ele>
        <time>2020-10-03T13:17:25.000Z</time>
      </trkpt>
      <trkpt lat="43.62861" lon="0.86886">
        <ele>146</ele>
        <time>2020-10-03T13:17:26.000Z</time>
      </trkpt>
      <trkpt lat="43.62864" lon="0.86888">
        <ele>146</ele>
        <time>2020-10-03T13:17:27.000Z</time>
      </trkpt>
      <trkpt lat="43.62866" lon="0.86889">
        <ele>146</ele>
        <time>2020-10-03T13:17:28.000Z</time>
      </trkpt>
      <trkpt lat="43.62869" lon="0.86891">
        <ele>146</ele>
        <time>2020-10-03T13:17:29.000Z</time>
      </trkpt>
      <trkpt lat="43.62871" lon="0.86893">
        <ele>146</ele>
        <time>2020-10-03T13:17:30.000Z</time>
      </trkpt>
      <trkpt lat="43.62874" lon="0.86895">
        <ele>146</ele>
        <time>2020-10-03T13:17:31.000Z</time>
      </trkpt>
      <trkpt lat="43.62876" lon="0.86898">
        <ele>146</ele>
        <time>2020-10-03T13:17:32.000Z</time>
      </trkpt>
      <trkpt lat="43.62879" lon="0.869">
        <ele>146</ele>
        <time>2020-10-03T13:17:33.000Z</time>
      </trkpt>
      <trkpt lat="43.62881" lon="0.86902">
        <ele>146</ele>
        <time>2020-10-03T13:17:34.000Z</time>
      </trkpt>
      <trkpt lat="43.62884" lon="0.86903">
        <ele>146</ele>
        <time>2020-10-03T13:17:35.000Z</time>
      </trkpt>
      <trkpt lat="43.62887" lon="0.86906">
        <ele>146</ele>
        <time>2020-10-03T13:17:36.000Z</time>
      </trkpt>
      <trkpt lat="43.62889" lon="0.86907">
        <ele>146</ele>
        <time>2020-10-03T13:17:37.000Z</time>
      </trkpt>
      <trkpt lat="43.62892" lon="0.86909">
        <ele>146</ele>
        <time>2020-10-03T13:17:38.000Z</time>
      </trkpt>
      <trkpt lat="43.62894" lon="0.86911">
        <ele>146</ele>
        <time>2020-10-03T13:17:39.000Z</time>
      </trkpt>
      <trkpt lat="43.62896" lon="0.86913">
        <ele>146</ele>
        <time>2020-10-03T13:17:40.000Z</time>
      </trkpt>
      <trkpt lat="43.62899" lon="0.86914">
        <ele>146</ele>
        <time>2020-10-03T13:17:41.000Z</time>
      </trkpt>
      <trkpt lat="43.62901" lon="0.86916">
        <ele>146</ele>
        <time>2020-10-03T13:17:42.000Z</time>
      </trkpt>
      <trkpt lat="43.62904" lon="0.86918">
        <ele>146</ele>
        <time>2020-10-03T13:17:43.000Z</time>
      </trkpt>
      <trkpt lat="43.62906" lon="0.8692">
        <ele>146</ele>
        <time>2020-10-03T13:17:44.000Z</time>
      </trkpt>
      <trkpt lat="43.62909" lon="0.86921">
        <ele>146</ele>
        <time>2020-10-03T13:17:45.000Z</time>
      </trkpt>
      <trkpt lat="43.62911" lon="0.86922">
        <ele>146</ele>
        <time>2020-10-03T13:17:46.000Z</time>
      </trkpt>
      <trkpt lat="43.62914" lon="0.86924">
        <ele>146</ele>
        <time>2020-10-03T13:17:47.000Z</time>
      </trkpt>
      <trkpt lat="43.62917" lon="0.86925">
        <ele>146</ele>
        <time>2020-10-03T13:17:48.000Z</time>
      </trkpt>
      <trkpt lat="43.6292" lon="0.86926">
        <ele>146</ele>
        <time>2020-10-03T13:17:49.000Z</time>
      </trkpt>
      <trkpt lat="43.62922" lon="0.86928">
        <ele>146</ele>
        <time>2020-10-03T13:17:50.000Z</time>
      </trkpt>
      <trkpt lat="43.62925" lon="0.86929">
        <ele>146</ele>
        <time>2020-10-03T13:17:51.000Z</time>
      </trkpt>
      <trkpt lat="43.62928" lon="0.86931">
        <ele>146</ele>
        <time>2020-10-03T13:17:52.000Z</time>
      </trkpt>
      <trkpt lat="43.62931" lon="0.86933">
        <ele>146</ele>
        <time>2020-10-03T13:17:53.000Z</time>
      </trkpt>
      <trkpt lat="43.62934" lon="0.86935">
        <ele>146</ele>
        <time>2020-10-03T13:17:54.000Z</time>
      </trkpt>
      <trkpt lat="43.62936" lon="0.86937">
        <ele>146</ele>
        <time>2020-10-03T13:17:55.000Z</time>
      </trkpt>
      <trkpt lat="43.62939" lon="0.86938">
        <ele>146</ele>
        <time>2020-10-03T13:17:56.000Z</time>
      </trkpt>
      <trkpt lat="43.62941" lon="0.8694">
        <ele>146</ele>
        <time>2020-10-03T13:17:57.000Z</time>
      </trkpt>
      <trkpt lat="43.62943" lon="0.86941">
        <ele>146</ele>
        <time>2020-10-03T13:17:58.000Z</time>
      </trkpt>
      <trkpt lat="43.62946" lon="0.86943">
        <ele>146</ele>
        <time>2020-10-03T13:17:59.000Z</time>
      </trkpt>
      <trkpt lat="43.62948" lon="0.86944">
        <ele>146</ele>
        <time>2020-10-03T13:18:00.000Z</time>
      </trkpt>
      <trkpt lat="43.6295" lon="0.86945">
        <ele>146</ele>
        <time>2020-10-03T13:18:01.000Z</time>
      </trkpt>
      <trkpt lat="43.62953" lon="0.86946">
        <ele>146</ele>
        <time>2020-10-03T13:18:02.000Z</time>
      </trkpt>
      <trkpt lat="43.62955" lon="0.86946">
        <ele>146</ele>
        <time>2020-10-03T13:18:03.000Z</time>
      </trkpt>
      <trkpt lat="43.62958" lon="0.86945">
        <ele>146</ele>
        <time>2020-10-03T13:18:04.000Z</time>
      </trkpt>
      <trkpt lat="43.62959" lon="0.86943">
        <ele>146</ele>
        <time>2020-10-03T13:18:05.000Z</time>
      </trkpt>
      <trkpt lat="43.62961" lon="0.8694">
        <ele>146</ele>
        <time>2020-10-03T13:18:06.000Z</time>
      </trkpt>
      <trkpt lat="43.62962" lon="0.86936">
        <ele>146</ele>
        <time>2020-10-03T13:18:07.000Z</time>
      </trkpt>
      <trkpt lat="43.62963" lon="0.86933">
        <ele>146</ele>
        <time>2020-10-03T13:18:08.000Z</time>
      </trkpt>
      <trkpt lat="43.62963" lon="0.86929">
        <ele>146</ele>
        <time>2020-10-03T13:18:09.000Z</time>
      </trkpt>
      <trkpt lat="43.62964" lon="0.86926">
        <ele>146</ele>
        <time>2020-10-03T13:18:10.000Z</time>
      </trkpt>
      <trkpt lat="43.62965" lon="0.86922">
        <ele>146</ele>
        <time>2020-10-03T13:18:11.000Z</time>
      </trkpt>
      <trkpt lat="43.62966" lon="0.86919">
        <ele>146</ele>
        <time>2020-10-03T13:18:12.000Z</time>
      </trkpt>
      <trkpt lat="43.62967" lon="0.86916">
        <ele>146</ele>
        <time>2020-10-03T13:18:13.000Z</time>
      </trkpt>
      <trkpt lat="43.62968" lon="0.86912">
        <ele>146</ele>
        <time>2020-10-03T13:18:14.000Z</time>
      </trkpt>
      <trkpt lat="43.62968" lon="0.86909">
        <ele>146</ele>
        <time>2020-10-03T13:18:15.000Z</time>
      </trkpt>
      <trkpt lat="43.62969" lon="0.86905">
        <ele>146</ele>
        <time>2020-10-03T13:18:16.000Z</time>
      </trkpt>
      <trkpt lat="43.6297" lon="0.86902">
        <ele>146</ele>
        <time>2020-10-03T13:18:17.000Z</time>
      </trkpt>
      <trkpt lat="43.6297" lon="0.86898">
        <ele>146</ele>
        <time>2020-10-03T13:18:18.000Z</time>
      </trkpt>
      <trkpt lat="43.62971" lon="0.86894">
        <ele>146</ele>
        <time>2020-10-03T13:18:19.000Z</time>
      </trkpt>
      <trkpt lat="43.62972" lon="0.86891">
        <ele>146</ele>
        <time>2020-10-03T13:18:20.000Z</time>
      </trkpt>
      <trkpt lat="43.62973" lon="0.86887">
        <ele>146</ele>
        <time>2020-10-03T13:18:21.000Z</time>
      </trkpt>
      <trkpt lat="43.62974" lon="0.86884">
        <ele>146</ele>
        <time>2020-10-03T13:18:22.000Z</time>
      </trkpt>
      <trkpt lat="43.62975" lon="0.8688">
        <ele>146</ele>
        <time>2020-10-03T13:18:23.000Z</time>
      </trkpt>
      <trkpt lat="43.62977" lon="0.86876">
        <ele>146</ele>
        <time>2020-10-03T13:18:24.000Z</time>
      </trkpt>
      <trkpt lat="43.62978" lon="0.86873">
        <ele>146</ele>
        <time>2020-10-03T13:18:25.000Z</time>
      </trkpt>
      <trkpt lat="43.62979" lon="0.8687">
        <ele>146</ele>
        <time>2020-10-03T13:18:26.000Z</time>
      </trkpt>
      <trkpt lat="43.6298" lon="0.86866">
        <ele>146</ele>
        <time>2020-10-03T13:18:27.000Z</time>
      </trkpt>
      <trkpt lat="43.62981" lon="0.86862">
        <ele>146</ele>
        <time>2020-10-03T13:18:28.000Z</time>
      </trkpt>
      <trkpt lat="43.62981" lon="0.86858">
        <ele>146</ele>
        <time>2020-10-03T13:18:29.000Z</time>
      </trkpt>
      <trkpt lat="43.62982" lon="0.86854">
        <ele>146</ele>
        <time>2020-10-03T13:18:30.000Z</time>
      </trkpt>
      <trkpt lat="43.62983" lon="0.86851">
        <ele>146</ele>
        <time>2020-10-03T13:18:31.000Z</time>
      </trkpt>
      <trkpt lat="43.62983" lon="0.86848">
        <ele>145.60975305173</ele>
        <time>2020-10-03T13:18:32.000Z</time>
      </trkpt>
      <trkpt lat="43.62984" lon="0.86844">
        <ele>145</ele>
        <time>2020-10-03T13:18:33.000Z</time>
      </trkpt>
      <trkpt lat="43.62985" lon="0.86841">
        <ele>145</ele>
        <time>2020-10-03T13:18:34.000Z</time>
      </trkpt>
      <trkpt lat="43.62986" lon="0.86837">
        <ele>145</ele>
        <time>2020-10-03T13:18:35.000Z</time>
      </trkpt>
      <trkpt lat="43.62987" lon="0.86834">
        <ele>145</ele>
        <time>2020-10-03T13:18:36.000Z</time>
      </trkpt>
      <trkpt lat="43.62988" lon="0.8683">
        <ele>145</ele>
        <time>2020-10-03T13:18:37.000Z</time>
      </trkpt>
      <trkpt lat="43.62989" lon="0.86826">
        <ele>145.42727315041</ele>
        <time>2020-10-03T13:18:38.000Z</time>
      </trkpt>
      <trkpt lat="43.6299" lon="0.86823">
        <ele>146</ele>
        <time>2020-10-03T13:18:39.000Z</time>
      </trkpt>
      <trkpt lat="43.62991" lon="0.86819">
        <ele>146</ele>
        <time>2020-10-03T13:18:40.000Z</time>
      </trkpt>
      <trkpt lat="43.62992" lon="0.86815">
        <ele>146</ele>
        <time>2020-10-03T13:18:41.000Z</time>
      </trkpt>
      <trkpt lat="43.62993" lon="0.86811">
        <ele>146</ele>
        <time>2020-10-03T13:18:42.000Z</time>
      </trkpt>
      <trkpt lat="43.62994" lon="0.86808">
        <ele>146</ele>
        <time>2020-10-03T13:18:43.000Z</time>
      </trkpt>
      <trkpt lat="43.62994" lon="0.86804">
        <ele>146</ele>
        <time>2020-10-03T13:18:44.000Z</time>
      </trkpt>
      <trkpt lat="43.62995" lon="0.868">
        <ele>146</ele>
        <time>2020-10-03T13:18:45.000Z</time>
      </trkpt>
      <trkpt lat="43.62997" lon="0.86797">
        <ele>146</ele>
        <time>2020-10-03T13:18:46.000Z</time>
      </trkpt>
      <trkpt lat="43.62998" lon="0.86794">
        <ele>145.79220692865</ele>
        <time>2020-10-03T13:18:47.000Z</time>
      </trkpt>
      <trkpt lat="43.62999" lon="0.8679">
        <ele>145</ele>
        <time>2020-10-03T13:18:48.000Z</time>
      </trkpt>
      <trkpt lat="43.63" lon="0.86787">
        <ele>145</ele>
        <time>2020-10-03T13:18:49.000Z</time>
      </trkpt>
      <trkpt lat="43.63001" lon="0.86784">
        <ele>145</ele>
        <time>2020-10-03T13:18:50.000Z</time>
      </trkpt>
      <trkpt lat="43.63002" lon="0.8678">
        <ele>145</ele>
        <time>2020-10-03T13:18:51.000Z</time>
      </trkpt>
      <trkpt lat="43.63002" lon="0.86777">
        <ele>145.40625333333</ele>
        <time>2020-10-03T13:18:52.000Z</time>
      </trkpt>
      <trkpt lat="43.63003" lon="0.86774">
        <ele>146</ele>
        <time>2020-10-03T13:18:53.000Z</time>
      </trkpt>
      <trkpt lat="43.63004" lon="0.86771">
        <ele>146</ele>
        <time>2020-10-03T13:18:54.000Z</time>
      </trkpt>
      <trkpt lat="43.63005" lon="0.86767">
        <ele>146</ele>
        <time>2020-10-03T13:18:55.000Z</time>
      </trkpt>
      <trkpt lat="43.63006" lon="0.86764">
        <ele>146</ele>
        <time>2020-10-03T13:18:56.000Z</time>
      </trkpt>
      <trkpt lat="43.63007" lon="0.8676">
        <ele>146</ele>
        <time>2020-10-03T13:18:57.000Z</time>
      </trkpt>
      <trkpt lat="43.63008" lon="0.86756">
        <ele>146</ele>
        <time>2020-10-03T13:18:58.000Z</time>
      </trkpt>
      <trkpt lat="43.63009" lon="0.86753">
        <ele>146</ele>
        <time>2020-10-03T13:18:59.000Z</time>
      </trkpt>
      <trkpt lat="43.63009" lon="0.8675">
        <ele>146</ele>
        <time>2020-10-03T13:19:00.000Z</time>
      </trkpt>
      <trkpt lat="43.6301" lon="0.86746">
        <ele>146</ele>
        <time>2020-10-03T13:19:01.000Z</time>
      </trkpt>
      <trkpt lat="43.63012" lon="0.86743">
        <ele>146</ele>
        <time>2020-10-03T13:19:02.000Z</time>
      </trkpt>
      <trkpt lat="43.63013" lon="0.86739">
        <ele>146</ele>
        <time>2020-10-03T13:19:03.000Z</time>
      </trkpt>
      <trkpt lat="43.63014" lon="0.86736">
        <ele>146</ele>
        <time>2020-10-03T13:19:04.000Z</time>
      </trkpt>
      <trkpt lat="43.63015" lon="0.86732">
        <ele>146</ele>
        <time>2020-10-03T13:19:05.000Z</time>
      </trkpt>
      <trkpt lat="43.63016" lon="0.86729">
        <ele>146</ele>
        <time>2020-10-03T13:19:06.000Z</time>
      </trkpt>
      <trkpt lat="43.63017" lon="0.86725">
        <ele>146</ele>
        <time>2020-10-03T13:19:07.000Z</time>
      </trkpt>
      <trkpt lat="43.63018" lon="0.86722">
        <ele>145.5699968</ele>
        <time>2020-10-03T13:19:08.000Z</time>
      </trkpt>
      <trkpt lat="43.6302" lon="0.86719">
        <ele>145</ele>
        <time>2020-10-03T13:19:09.000Z</time>
      </trkpt>
      <trkpt lat="43.63021" lon="0.86716">
        <ele>145</ele>
        <time>2020-10-03T13:19:10.000Z</time>
      </trkpt>
      <trkpt lat="43.63021" lon="0.86713">
        <ele>145</ele>
        <time>2020-10-03T13:19:11.000Z</time>
      </trkpt>
      <trkpt lat="43.63022" lon="0.8671">
        <ele>145</ele>
        <time>2020-10-03T13:19:12.000Z</time>
      </trkpt>
      <trkpt lat="43.63022" lon="0.86707">
        <ele>145</ele>
        <time>2020-10-03T13:19:13.000Z</time>
      </trkpt>
      <trkpt lat="43.63023" lon="0.86704">
        <ele>145</ele>
        <time>2020-10-03T13:19:14.000Z</time>
      </trkpt>
      <trkpt lat="43.63024" lon="0.86701">
        <ele>145</ele>
        <time>2020-10-03T13:19:15.000Z</time>
      </trkpt>
      <trkpt lat="43.63024" lon="0.86698">
        <ele>145</ele>
        <time>2020-10-03T13:19:16.000Z</time>
      </trkpt>
      <trkpt lat="43.63024" lon="0.86695">
        <ele>145</ele>
        <time>2020-10-03T13:19:17.000Z</time>
      </trkpt>
      <trkpt lat="43.63024" lon="0.86692">
        <ele>145</ele>
        <time>2020-10-03T13:19:18.000Z</time>
      </trkpt>
      <trkpt lat="43.63026" lon="0.86689">
        <ele>145.39081051656</ele>
        <time>2020-10-03T13:19:19.000Z</time>
      </trkpt>
      <trkpt lat="43.63028" lon="0.86685">
        <ele>146</ele>
        <time>2020-10-03T13:19:20.000Z</time>
      </trkpt>
      <trkpt lat="43.63029" lon="0.86682">
        <ele>146</ele>
        <time>2020-10-03T13:19:21.000Z</time>
      </trkpt>
      <trkpt lat="43.6303" lon="0.86679">
        <ele>146</ele>
        <time>2020-10-03T13:19:22.000Z</time>
      </trkpt>
      <trkpt lat="43.63031" lon="0.86675">
        <ele>146</ele>
        <time>2020-10-03T13:19:23.000Z</time>
      </trkpt>
      <trkpt lat="43.63032" lon="0.86672">
        <ele>146</ele>
        <time>2020-10-03T13:19:24.000Z</time>
      </trkpt>
      <trkpt lat="43.63033" lon="0.86669">
        <ele>146</ele>
        <time>2020-10-03T13:19:25.000Z</time>
      </trkpt>
      <trkpt lat="43.63035" lon="0.86667">
        <ele>146</ele>
        <time>2020-10-03T13:19:26.000Z</time>
      </trkpt>
      <trkpt lat="43.63036" lon="0.86664">
        <ele>146</ele>
        <time>2020-10-03T13:19:27.000Z</time>
      </trkpt>
      <trkpt lat="43.63037" lon="0.86661">
        <ele>146</ele>
        <time>2020-10-03T13:19:28.000Z</time>
      </trkpt>
      <trkpt lat="43.63038" lon="0.86658">
        <ele>146</ele>
        <time>2020-10-03T13:19:29.000Z</time>
      </trkpt>
      <trkpt lat="43.63039" lon="0.86654">
        <ele>146.39759110467</ele>
        <time>2020-10-03T13:19:30.000Z</time>
      </trkpt>
      <trkpt lat="43.6304" lon="0.8665">
        <ele>147</ele>
        <time>2020-10-03T13:19:31.000Z</time>
      </trkpt>
      <trkpt lat="43.63041" lon="0.86646">
        <ele>147</ele>
        <time>2020-10-03T13:19:32.000Z</time>
      </trkpt>
      <trkpt lat="43.63042" lon="0.86643">
        <ele>147</ele>
        <time>2020-10-03T13:19:33.000Z</time>
      </trkpt>
      <trkpt lat="43.63043" lon="0.8664">
        <ele>147</ele>
        <time>2020-10-03T13:19:34.000Z</time>
      </trkpt>
      <trkpt lat="43.63044" lon="0.86637">
        <ele>147</ele>
        <time>2020-10-03T13:19:35.000Z</time>
      </trkpt>
      <trkpt lat="43.63045" lon="0.86635">
        <ele>147</ele>
        <time>2020-10-03T13:19:36.000Z</time>
      </trkpt>
      <trkpt lat="43.63046" lon="0.86632">
        <ele>147</ele>
        <time>2020-10-03T13:19:37.000Z</time>
      </trkpt>
      <trkpt lat="43.63047" lon="0.86629">
        <ele>147</ele>
        <time>2020-10-03T13:19:38.000Z</time>
      </trkpt>
      <trkpt lat="43.63048" lon="0.86626">
        <ele>147</ele>
        <time>2020-10-03T13:19:39.000Z</time>
      </trkpt>
      <trkpt lat="43.63049" lon="0.86623">
        <ele>147</ele>
        <time>2020-10-03T13:19:40.000Z</time>
      </trkpt>
      <trkpt lat="43.6305" lon="0.8662">
        <ele>147</ele>
        <time>2020-10-03T13:19:41.000Z</time>
      </trkpt>
      <trkpt lat="43.63051" lon="0.86617">
        <ele>147</ele>
        <time>2020-10-03T13:19:42.000Z</time>
      </trkpt>
      <trkpt lat="43.63052" lon="0.86614">
        <ele>147</ele>
        <time>2020-10-03T13:19:43.000Z</time>
      </trkpt>
      <trkpt lat="43.63053" lon="0.86611">
        <ele>147</ele>
        <time>2020-10-03T13:19:44.000Z</time>
      </trkpt>
      <trkpt lat="43.63053" lon="0.86607">
        <ele>147</ele>
        <time>2020-10-03T13:19:45.000Z</time>
      </trkpt>
      <trkpt lat="43.63055" lon="0.86604">
        <ele>147</ele>
        <time>2020-10-03T13:19:46.000Z</time>
      </trkpt>
      <trkpt lat="43.63056" lon="0.86601">
        <ele>147.41025753233</ele>
        <time>2020-10-03T13:19:47.000Z</time>
      </trkpt>
      <trkpt lat="43.63057" lon="0.86599">
        <ele>148</ele>
        <time>2020-10-03T13:19:48.000Z</time>
      </trkpt>
      <trkpt lat="43.63058" lon="0.86596">
        <ele>148</ele>
        <time>2020-10-03T13:19:49.000Z</time>
      </trkpt>
      <trkpt lat="43.63059" lon="0.86594">
        <ele>148.38554068225</ele>
        <time>2020-10-03T13:19:50.000Z</time>
      </trkpt>
      <trkpt lat="43.63061" lon="0.86591">
        <ele>149</ele>
        <time>2020-10-03T13:19:51.000Z</time>
      </trkpt>
      <trkpt lat="43.63063" lon="0.86589">
        <ele>149</ele>
        <time>2020-10-03T13:19:52.000Z</time>
      </trkpt>
      <trkpt lat="43.63065" lon="0.86585">
        <ele>149</ele>
        <time>2020-10-03T13:19:53.000Z</time>
      </trkpt>
      <trkpt lat="43.63066" lon="0.86582">
        <ele>149</ele>
        <time>2020-10-03T13:19:54.000Z</time>
      </trkpt>
      <trkpt lat="43.63067" lon="0.86579">
        <ele>149</ele>
        <time>2020-10-03T13:19:55.000Z</time>
      </trkpt>
      <trkpt lat="43.63068" lon="0.86576">
        <ele>149</ele>
        <time>2020-10-03T13:19:56.000Z</time>
      </trkpt>
      <trkpt lat="43.63069" lon="0.86572">
        <ele>149</ele>
        <time>2020-10-03T13:19:57.000Z</time>
      </trkpt>
      <trkpt lat="43.6307" lon="0.86568">
        <ele>149</ele>
        <time>2020-10-03T13:19:58.000Z</time>
      </trkpt>
      <trkpt lat="43.63071" lon="0.86565">
        <ele>149.425925048</ele>
        <time>2020-10-03T13:19:59.000Z</time>
      </trkpt>
      <trkpt lat="43.63072" lon="0.86563">
        <ele>150</ele>
        <time>2020-10-03T13:20:00.000Z</time>
      </trkpt>
      <trkpt lat="43.63072" lon="0.8656">
        <ele>150</ele>
        <time>2020-10-03T13:20:01.000Z</time>
      </trkpt>
      <trkpt lat="43.63073" lon="0.86557">
        <ele>150</ele>
        <time>2020-10-03T13:20:02.000Z</time>
      </trkpt>
      <trkpt lat="43.63073" lon="0.86554">
        <ele>150</ele>
        <time>2020-10-03T13:20:03.000Z</time>
      </trkpt>
      <trkpt lat="43.63074" lon="0.86551">
        <ele>150</ele>
        <time>2020-10-03T13:20:04.000Z</time>
      </trkpt>
      <trkpt lat="43.63075" lon="0.86548">
        <ele>150</ele>
        <time>2020-10-03T13:20:05.000Z</time>
      </trkpt>
      <trkpt lat="43.63076" lon="0.86545">
        <ele>150</ele>
        <time>2020-10-03T13:20:06.000Z</time>
      </trkpt>
      <trkpt lat="43.63078" lon="0.86542">
        <ele>150</ele>
        <time>2020-10-03T13:20:07.000Z</time>
      </trkpt>
      <trkpt lat="43.63079" lon="0.86538">
        <ele>150</ele>
        <time>2020-10-03T13:20:08.000Z</time>
      </trkpt>
      <trkpt lat="43.6308" lon="0.86535">
        <ele>149.5</ele>
        <time>2020-10-03T13:20:09.000Z</time>
      </trkpt>
      <trkpt lat="43.63081" lon="0.86531">
        <ele>149</ele>
        <time>2020-10-03T13:20:10.000Z</time>
      </trkpt>
      <trkpt lat="43.63082" lon="0.86527">
        <ele>149.33644759193</ele>
        <time>2020-10-03T13:20:11.000Z</time>
      </trkpt>
      <trkpt lat="43.63083" lon="0.86524">
        <ele>150</ele>
        <time>2020-10-03T13:20:12.000Z</time>
      </trkpt>
      <trkpt lat="43.63084" lon="0.86521">
        <ele>150</ele>
        <time>2020-10-03T13:20:13.000Z</time>
      </trkpt>
      <trkpt lat="43.63085" lon="0.86518">
        <ele>150</ele>
        <time>2020-10-03T13:20:14.000Z</time>
      </trkpt>
      <trkpt lat="43.63086" lon="0.86515">
        <ele>150</ele>
        <time>2020-10-03T13:20:15.000Z</time>
      </trkpt>
      <trkpt lat="43.63086" lon="0.86511">
        <ele>150</ele>
        <time>2020-10-03T13:20:16.000Z</time>
      </trkpt>
      <trkpt lat="43.63087" lon="0.86508">
        <ele>150</ele>
        <time>2020-10-03T13:20:17.000Z</time>
      </trkpt>
      <trkpt lat="43.63087" lon="0.86505">
        <ele>150</ele>
        <time>2020-10-03T13:20:18.000Z</time>
      </trkpt>
      <trkpt lat="43.63088" lon="0.86502">
        <ele>150</ele>
        <time>2020-10-03T13:20:19.000Z</time>
      </trkpt>
      <trkpt lat="43.63089" lon="0.86499">
        <ele>150</ele>
        <time>2020-10-03T13:20:20.000Z</time>
      </trkpt>
      <trkpt lat="43.6309" lon="0.86496">
        <ele>150.36232179793</ele>
        <time>2020-10-03T13:20:21.000Z</time>
      </trkpt>
      <trkpt lat="43.63092" lon="0.86493">
        <ele>151</ele>
        <time>2020-10-03T13:20:22.000Z</time>
      </trkpt>
      <trkpt lat="43.63094" lon="0.86491">
        <ele>151</ele>
        <time>2020-10-03T13:20:23.000Z</time>
      </trkpt>
      <trkpt lat="43.63096" lon="0.86488">
        <ele>151.41052830138</ele>
        <time>2020-10-03T13:20:24.000Z</time>
      </trkpt>
      <trkpt lat="43.63099" lon="0.86486">
        <ele>152</ele>
        <time>2020-10-03T13:20:25.000Z</time>
      </trkpt>
      <trkpt lat="43.631" lon="0.86484">
        <ele>152</ele>
        <time>2020-10-03T13:20:26.000Z</time>
      </trkpt>
      <trkpt lat="43.63102" lon="0.86483">
        <ele>152</ele>
        <time>2020-10-03T13:20:27.000Z</time>
      </trkpt>
      <trkpt lat="43.63105" lon="0.8648">
        <ele>152</ele>
        <time>2020-10-03T13:20:29.000Z</time>
      </trkpt>
      <trkpt lat="43.63108" lon="0.86478">
        <ele>152</ele>
        <time>2020-10-03T13:20:31.000Z</time>
      </trkpt>
      <trkpt lat="43.6311" lon="0.86478">
        <ele>152</ele>
        <time>2020-10-03T13:20:33.000Z</time>
      </trkpt>
      <trkpt lat="43.63113" lon="0.86478">
        <ele>152</ele>
        <time>2020-10-03T13:20:35.000Z</time>
      </trkpt>
      <trkpt lat="43.63115" lon="0.8648">
        <ele>152</ele>
        <time>2020-10-03T13:20:38.000Z</time>
      </trkpt>
      <trkpt lat="43.63116" lon="0.8648">
        <ele>152</ele>
        <time>2020-10-03T13:20:45.000Z</time>
      </trkpt>
      <trkpt lat="43.63116" lon="0.86482">
        <ele>152</ele>
        <time>2020-10-03T13:21:28.000Z</time>
      </trkpt>
      <trkpt lat="43.63117" lon="0.86481">
        <ele>151.45054434973</ele>
        <time>2020-10-03T13:21:53.000Z</time>
      </trkpt>
      <trkpt lat="43.63116" lon="0.8648">
        <ele>152</ele>
        <time>2020-10-03T13:22:06.000Z</time>
      </trkpt>
      <trkpt lat="43.63118" lon="0.86481">
        <ele>152</ele>
        <time>2020-10-03T13:22:19.000Z</time>
      </trkpt>
      <trkpt lat="43.63116" lon="0.86483">
        <ele>153</ele>
        <time>2020-10-03T13:22:51.000Z</time>
      </trkpt>
      <trkpt lat="43.63116" lon="0.86486">
        <ele>152</ele>
        <time>2020-10-03T13:23:17.000Z</time>
      </trkpt>
      <trkpt lat="43.63114" lon="0.86484">
        <ele>152</ele>
        <time>2020-10-03T13:23:42.000Z</time>
      </trkpt>
      <trkpt lat="43.63116" lon="0.86483">
        <ele>153</ele>
        <time>2020-10-03T13:24:10.000Z</time>
      </trkpt>
      <trkpt lat="43.63115" lon="0.86485">
        <ele>153</ele>
        <time>2020-10-03T13:24:33.000Z</time>
      </trkpt>
      <trkpt lat="43.63114" lon="0.86489">
        <ele>153</ele>
        <time>2020-10-03T13:24:36.000Z</time>
      </trkpt>
      <trkpt lat="43.63114" lon="0.86492">
        <ele>153</ele>
        <time>2020-10-03T13:24:39.000Z</time>
      </trkpt>
      <trkpt lat="43.63112" lon="0.86495">
        <ele>153</ele>
        <time>2020-10-03T13:24:46.000Z</time>
      </trkpt>
      <trkpt lat="43.63113" lon="0.86492">
        <ele>152</ele>
        <time>2020-10-03T13:24:53.000Z</time>
      </trkpt>
      <trkpt lat="43.63114" lon="0.86489">
        <ele>152</ele>
        <time>2020-10-03T13:24:57.000Z</time>
      </trkpt>
      <trkpt lat="43.63115" lon="0.86487">
        <ele>152.46296340192</ele>
        <time>2020-10-03T13:25:01.000Z</time>
      </trkpt>
      <trkpt lat="43.63117" lon="0.86486">
        <ele>153.39369872402</ele>
        <time>2020-10-03T13:25:06.000Z</time>
      </trkpt>
      <trkpt lat="43.63117" lon="0.86484">
        <ele>153</ele>
        <time>2020-10-03T13:25:12.000Z</time>
      </trkpt>
      <trkpt lat="43.63117" lon="0.86481">
        <ele>153</ele>
        <time>2020-10-03T13:25:24.000Z</time>
      </trkpt>
      <trkpt lat="43.63119" lon="0.8648">
        <ele>153</ele>
        <time>2020-10-03T13:26:53.000Z</time>
      </trkpt>
      <trkpt lat="43.63117" lon="0.86482">
        <ele>153</ele>
        <time>2020-10-03T13:27:45.000Z</time>
      </trkpt>
      <trkpt lat="43.63115" lon="0.8648">
        <ele>152</ele>
        <time>2020-10-03T13:28:29.000Z</time>
      </trkpt>
      <trkpt lat="43.63116" lon="0.86478">
        <ele>152</ele>
        <time>2020-10-03T13:28:48.000Z</time>
      </trkpt>
      <trkpt lat="43.63118" lon="0.86478">
        <ele>153</ele>
        <time>2020-10-03T13:28:53.000Z</time>
      </trkpt>
      <trkpt lat="43.63117" lon="0.86476">
        <ele>153</ele>
        <time>2020-10-03T13:29:16.000Z</time>
      </trkpt>
      <trkpt lat="43.63116" lon="0.86479">
        <ele>152</ele>
        <time>2020-10-03T13:29:44.000Z</time>
      </trkpt>
      <trkpt lat="43.63115" lon="0.86482">
        <ele>152</ele>
        <time>2020-10-03T13:29:52.000Z</time>
      </trkpt>
      <trkpt lat="43.63116" lon="0.86484">
        <ele>152</ele>
        <time>2020-10-03T13:29:58.000Z</time>
      </trkpt>
      <trkpt lat="43.63118" lon="0.86483">
        <ele>153</ele>
        <time>2020-10-03T13:30:09.000Z</time>
      </trkpt>
      <trkpt lat="43.6312" lon="0.86482">
        <ele>152</ele>
        <time>2020-10-03T13:30:36.000Z</time>
      </trkpt>
      <trkpt lat="43.6312" lon="0.86484">
        <ele>152</ele>
        <time>2020-10-03T13:31:12.000Z</time>
      </trkpt>
      <trkpt lat="43.63118" lon="0.86486">
        <ele>152</ele>
        <time>2020-10-03T13:31:56.000Z</time>
      </trkpt>
      <trkpt lat="43.63116" lon="0.86486">
        <ele>152</ele>
        <time>2020-10-03T13:32:41.000Z</time>
      </trkpt>
      <trkpt lat="43.63117" lon="0.86484">
        <ele>152</ele>
        <time>2020-10-03T13:33:30.000Z</time>
      </trkpt>
      <trkpt lat="43.63118" lon="0.86481">
        <ele>152</ele>
        <time>2020-10-03T13:34:07.000Z</time>
      </trkpt>
      <trkpt lat="43.63118" lon="0.86479">
        <ele>152</ele>
        <time>2020-10-03T13:34:38.000Z</time>
      </trkpt>
      <trkpt lat="43.63119" lon="0.86481">
        <ele>152</ele>
        <time>2020-10-03T13:34:45.000Z</time>
      </trkpt>
      <trkpt lat="43.63118" lon="0.86484">
        <ele>153</ele>
        <time>2020-10-03T13:34:49.000Z</time>
      </trkpt>
      <trkpt lat="43.63116" lon="0.86485">
        <ele>152</ele>
        <time>2020-10-03T13:35:36.000Z</time>
      </trkpt>
      <trkpt lat="43.63117" lon="0.86482">
        <ele>152</ele>
        <time>2020-10-03T13:35:46.000Z</time>
      </trkpt>
      <trkpt lat="43.63118" lon="0.86479">
        <ele>152</ele>
        <time>2020-10-03T13:36:03.000Z</time>
      </trkpt>
      <trkpt lat="43.63117" lon="0.86482">
        <ele>152</ele>
        <time>2020-10-03T13:36:32.000Z</time>
      </trkpt>
      <trkpt lat="43.63117" lon="0.86484">
        <ele>152</ele>
        <time>2020-10-03T13:37:06.000Z</time>
      </trkpt>
      <trkpt lat="43.63115" lon="0.86485">
        <ele>151</ele>
        <time>2020-10-03T13:37:40.000Z</time>
      </trkpt>
      <trkpt lat="43.63113" lon="0.86484">
        <ele>151.38272151199</ele>
        <time>2020-10-03T13:37:58.000Z</time>
      </trkpt>
      <trkpt lat="43.63111" lon="0.86483">
        <ele>152</ele>
        <time>2020-10-03T13:38:01.000Z</time>
      </trkpt>
      <trkpt lat="43.63109" lon="0.8648">
        <ele>152</ele>
        <time>2020-10-03T13:38:03.000Z</time>
      </trkpt>
      <trkpt lat="43.6311" lon="0.86476">
        <ele>152</ele>
        <time>2020-10-03T13:38:05.000Z</time>
      </trkpt>
      <trkpt lat="43.63112" lon="0.86473">
        <ele>152</ele>
        <time>2020-10-03T13:38:06.000Z</time>
      </trkpt>
      <trkpt lat="43.63113" lon="0.8647">
        <ele>152</ele>
        <time>2020-10-03T13:38:07.000Z</time>
      </trkpt>
      <trkpt lat="43.63114" lon="0.86467">
        <ele>152</ele>
        <time>2020-10-03T13:38:08.000Z</time>
      </trkpt>
      <trkpt lat="43.63115" lon="0.86464">
        <ele>152</ele>
        <time>2020-10-03T13:38:09.000Z</time>
      </trkpt>
      <trkpt lat="43.63114" lon="0.86462">
        <ele>152</ele>
        <time>2020-10-03T13:38:10.000Z</time>
      </trkpt>
      <trkpt lat="43.63114" lon="0.86459">
        <ele>152</ele>
        <time>2020-10-03T13:38:11.000Z</time>
      </trkpt>
      <trkpt lat="43.63112" lon="0.86455">
        <ele>152</ele>
        <time>2020-10-03T13:38:12.000Z</time>
      </trkpt>
      <trkpt lat="43.63111" lon="0.86452">
        <ele>152.36035932149</ele>
        <time>2020-10-03T13:38:13.000Z</time>
      </trkpt>
      <trkpt lat="43.63109" lon="0.86449">
        <ele>153</ele>
        <time>2020-10-03T13:38:14.000Z</time>
      </trkpt>
      <trkpt lat="43.63107" lon="0.86446">
        <ele>153</ele>
        <time>2020-10-03T13:38:15.000Z</time>
      </trkpt>
      <trkpt lat="43.63106" lon="0.86444">
        <ele>153</ele>
        <time>2020-10-03T13:38:16.000Z</time>
      </trkpt>
      <trkpt lat="43.63105" lon="0.86441">
        <ele>153</ele>
        <time>2020-10-03T13:38:17.000Z</time>
      </trkpt>
      <trkpt lat="43.63104" lon="0.86439">
        <ele>153</ele>
        <time>2020-10-03T13:38:18.000Z</time>
      </trkpt>
      <trkpt lat="43.63102" lon="0.86437">
        <ele>153</ele>
        <time>2020-10-03T13:38:19.000Z</time>
      </trkpt>
      <trkpt lat="43.631" lon="0.86435">
        <ele>153</ele>
        <time>2020-10-03T13:38:20.000Z</time>
      </trkpt>
      <trkpt lat="43.63098" lon="0.86433">
        <ele>152.60184888889</ele>
        <time>2020-10-03T13:38:21.000Z</time>
      </trkpt>
      <trkpt lat="43.63096" lon="0.86431">
        <ele>152</ele>
        <time>2020-10-03T13:38:22.000Z</time>
      </trkpt>
      <trkpt lat="43.63094" lon="0.86429">
        <ele>152</ele>
        <time>2020-10-03T13:38:23.000Z</time>
      </trkpt>
      <trkpt lat="43.63092" lon="0.86427">
        <ele>152</ele>
        <time>2020-10-03T13:38:24.000Z</time>
      </trkpt>
      <trkpt lat="43.63091" lon="0.86425">
        <ele>152</ele>
        <time>2020-10-03T13:38:25.000Z</time>
      </trkpt>
      <trkpt lat="43.63089" lon="0.86424">
        <ele>152</ele>
        <time>2020-10-03T13:38:26.000Z</time>
      </trkpt>
      <trkpt lat="43.63088" lon="0.86422">
        <ele>152</ele>
        <time>2020-10-03T13:38:27.000Z</time>
      </trkpt>
      <trkpt lat="43.63086" lon="0.8642">
        <ele>152</ele>
        <time>2020-10-03T13:38:28.000Z</time>
      </trkpt>
      <trkpt lat="43.63084" lon="0.86419">
        <ele>152</ele>
        <time>2020-10-03T13:38:29.000Z</time>
      </trkpt>
      <trkpt lat="43.63083" lon="0.86417">
        <ele>152</ele>
        <time>2020-10-03T13:38:30.000Z</time>
      </trkpt>
      <trkpt lat="43.63081" lon="0.86415">
        <ele>152</ele>
        <time>2020-10-03T13:38:31.000Z</time>
      </trkpt>
      <trkpt lat="43.63079" lon="0.86414">
        <ele>152</ele>
        <time>2020-10-03T13:38:32.000Z</time>
      </trkpt>
      <trkpt lat="43.63077" lon="0.86412">
        <ele>151.58878627653</ele>
        <time>2020-10-03T13:38:33.000Z</time>
      </trkpt>
      <trkpt lat="43.63075" lon="0.8641">
        <ele>151</ele>
        <time>2020-10-03T13:38:34.000Z</time>
      </trkpt>
      <trkpt lat="43.63073" lon="0.86409">
        <ele>151</ele>
        <time>2020-10-03T13:38:35.000Z</time>
      </trkpt>
      <trkpt lat="43.63071" lon="0.86407">
        <ele>151</ele>
        <time>2020-10-03T13:38:36.000Z</time>
      </trkpt>
      <trkpt lat="43.63069" lon="0.86406">
        <ele>151</ele>
        <time>2020-10-03T13:38:37.000Z</time>
      </trkpt>
      <trkpt lat="43.63066" lon="0.86404">
        <ele>151</ele>
        <time>2020-10-03T13:38:38.000Z</time>
      </trkpt>
      <trkpt lat="43.63065" lon="0.86402">
        <ele>151</ele>
        <time>2020-10-03T13:38:39.000Z</time>
      </trkpt>
      <trkpt lat="43.63063" lon="0.864">
        <ele>150.60714285714</ele>
        <time>2020-10-03T13:38:40.000Z</time>
      </trkpt>
      <trkpt lat="43.63061" lon="0.86397">
        <ele>150</ele>
        <time>2020-10-03T13:38:41.000Z</time>
      </trkpt>
      <trkpt lat="43.6306" lon="0.86395">
        <ele>150</ele>
        <time>2020-10-03T13:38:42.000Z</time>
      </trkpt>
      <trkpt lat="43.63058" lon="0.86393">
        <ele>150</ele>
        <time>2020-10-03T13:38:43.000Z</time>
      </trkpt>
      <trkpt lat="43.63057" lon="0.8639">
        <ele>150</ele>
        <time>2020-10-03T13:38:44.000Z</time>
      </trkpt>
      <trkpt lat="43.63055" lon="0.86388">
        <ele>150</ele>
        <time>2020-10-03T13:38:45.000Z</time>
      </trkpt>
      <trkpt lat="43.63053" lon="0.86386">
        <ele>150</ele>
        <time>2020-10-03T13:38:46.000Z</time>
      </trkpt>
      <trkpt lat="43.63051" lon="0.86384">
        <ele>150</ele>
        <time>2020-10-03T13:38:47.000Z</time>
      </trkpt>
      <trkpt lat="43.6305" lon="0.86381">
        <ele>150</ele>
        <time>2020-10-03T13:38:48.000Z</time>
      </trkpt>
      <trkpt lat="43.63048" lon="0.86379">
        <ele>150</ele>
        <time>2020-10-03T13:38:49.000Z</time>
      </trkpt>
      <trkpt lat="43.63046" lon="0.86377">
        <ele>150</ele>
        <time>2020-10-03T13:38:50.000Z</time>
      </trkpt>
      <trkpt lat="43.63044" lon="0.86375">
        <ele>150</ele>
        <time>2020-10-03T13:38:51.000Z</time>
      </trkpt>
      <trkpt lat="43.63042" lon="0.86373">
        <ele>150</ele>
        <time>2020-10-03T13:38:52.000Z</time>
      </trkpt>
      <trkpt lat="43.63041" lon="0.8637">
        <ele>150</ele>
        <time>2020-10-03T13:38:53.000Z</time>
      </trkpt>
      <trkpt lat="43.63039" lon="0.86368">
        <ele>150</ele>
        <time>2020-10-03T13:38:54.000Z</time>
      </trkpt>
      <trkpt lat="43.63037" lon="0.86366">
        <ele>150</ele>
        <time>2020-10-03T13:38:55.000Z</time>
      </trkpt>
      <trkpt lat="43.63035" lon="0.86364">
        <ele>150</ele>
        <time>2020-10-03T13:38:56.000Z</time>
      </trkpt>
      <trkpt lat="43.63033" lon="0.86362">
        <ele>150</ele>
        <time>2020-10-03T13:38:57.000Z</time>
      </trkpt>
      <trkpt lat="43.63031" lon="0.86359">
        <ele>150</ele>
        <time>2020-10-03T13:38:58.000Z</time>
      </trkpt>
      <trkpt lat="43.6303" lon="0.86357">
        <ele>150</ele>
        <time>2020-10-03T13:38:59.000Z</time>
      </trkpt>
      <trkpt lat="43.63028" lon="0.86354">
        <ele>150</ele>
        <time>2020-10-03T13:39:00.000Z</time>
      </trkpt>
      <trkpt lat="43.63027" lon="0.86351">
        <ele>150</ele>
        <time>2020-10-03T13:39:01.000Z</time>
      </trkpt>
      <trkpt lat="43.63025" lon="0.86348">
        <ele>150</ele>
        <time>2020-10-03T13:39:02.000Z</time>
      </trkpt>
      <trkpt lat="43.63024" lon="0.86345">
        <ele>150</ele>
        <time>2020-10-03T13:39:03.000Z</time>
      </trkpt>
      <trkpt lat="43.63023" lon="0.86341">
        <ele>150</ele>
        <time>2020-10-03T13:39:04.000Z</time>
      </trkpt>
      <trkpt lat="43.63022" lon="0.86338">
        <ele>150</ele>
        <time>2020-10-03T13:39:05.000Z</time>
      </trkpt>
      <trkpt lat="43.63021" lon="0.86335">
        <ele>150</ele>
        <time>2020-10-03T13:39:06.000Z</time>
      </trkpt>
      <trkpt lat="43.6302" lon="0.86331">
        <ele>150</ele>
        <time>2020-10-03T13:39:07.000Z</time>
      </trkpt>
      <trkpt lat="43.6302" lon="0.86328">
        <ele>150</ele>
        <time>2020-10-03T13:39:08.000Z</time>
      </trkpt>
      <trkpt lat="43.63019" lon="0.86324">
        <ele>150</ele>
        <time>2020-10-03T13:39:09.000Z</time>
      </trkpt>
      <trkpt lat="43.63018" lon="0.86321">
        <ele>150</ele>
        <time>2020-10-03T13:39:10.000Z</time>
      </trkpt>
      <trkpt lat="43.63018" lon="0.86318">
        <ele>150</ele>
        <time>2020-10-03T13:39:11.000Z</time>
      </trkpt>
      <trkpt lat="43.63017" lon="0.86314">
        <ele>150</ele>
        <time>2020-10-03T13:39:12.000Z</time>
      </trkpt>
      <trkpt lat="43.63017" lon="0.86311">
        <ele>150</ele>
        <time>2020-10-03T13:39:13.000Z</time>
      </trkpt>
      <trkpt lat="43.63017" lon="0.86308">
        <ele>150</ele>
        <time>2020-10-03T13:39:14.000Z</time>
      </trkpt>
      <trkpt lat="43.63016" lon="0.86304">
        <ele>150</ele>
        <time>2020-10-03T13:39:15.000Z</time>
      </trkpt>
      <trkpt lat="43.63016" lon="0.86301">
        <ele>150</ele>
        <time>2020-10-03T13:39:16.000Z</time>
      </trkpt>
      <trkpt lat="43.63015" lon="0.86298">
        <ele>150</ele>
        <time>2020-10-03T13:39:17.000Z</time>
      </trkpt>
      <trkpt lat="43.63014" lon="0.86295">
        <ele>150</ele>
        <time>2020-10-03T13:39:18.000Z</time>
      </trkpt>
      <trkpt lat="43.63014" lon="0.86292">
        <ele>150</ele>
        <time>2020-10-03T13:39:19.000Z</time>
      </trkpt>
      <trkpt lat="43.63013" lon="0.86288">
        <ele>149.50980712036</ele>
        <time>2020-10-03T13:39:20.000Z</time>
      </trkpt>
      <trkpt lat="43.63012" lon="0.86285">
        <ele>149</ele>
        <time>2020-10-03T13:39:21.000Z</time>
      </trkpt>
      <trkpt lat="43.63012" lon="0.86282">
        <ele>149</ele>
        <time>2020-10-03T13:39:22.000Z</time>
      </trkpt>
      <trkpt lat="43.63011" lon="0.86278">
        <ele>149</ele>
        <time>2020-10-03T13:39:23.000Z</time>
      </trkpt>
      <trkpt lat="43.63011" lon="0.86275">
        <ele>149</ele>
        <time>2020-10-03T13:39:24.000Z</time>
      </trkpt>
      <trkpt lat="43.6301" lon="0.86271">
        <ele>149</ele>
        <time>2020-10-03T13:39:25.000Z</time>
      </trkpt>
      <trkpt lat="43.6301" lon="0.86268">
        <ele>149</ele>
        <time>2020-10-03T13:39:26.000Z</time>
      </trkpt>
      <trkpt lat="43.63009" lon="0.86264">
        <ele>149</ele>
        <time>2020-10-03T13:39:27.000Z</time>
      </trkpt>
      <trkpt lat="43.63009" lon="0.86261">
        <ele>149</ele>
        <time>2020-10-03T13:39:28.000Z</time>
      </trkpt>
      <trkpt lat="43.63009" lon="0.86257">
        <ele>149</ele>
        <time>2020-10-03T13:39:29.000Z</time>
      </trkpt>
      <trkpt lat="43.63008" lon="0.86254">
        <ele>149</ele>
        <time>2020-10-03T13:39:30.000Z</time>
      </trkpt>
      <trkpt lat="43.63008" lon="0.8625">
        <ele>149</ele>
        <time>2020-10-03T13:39:31.000Z</time>
      </trkpt>
      <trkpt lat="43.63007" lon="0.86247">
        <ele>149</ele>
        <time>2020-10-03T13:39:32.000Z</time>
      </trkpt>
      <trkpt lat="43.63006" lon="0.86244">
        <ele>149</ele>
        <time>2020-10-03T13:39:33.000Z</time>
      </trkpt>
      <trkpt lat="43.63005" lon="0.8624">
        <ele>149</ele>
        <time>2020-10-03T13:39:34.000Z</time>
      </trkpt>
      <trkpt lat="43.63005" lon="0.86237">
        <ele>149.34965404273</ele>
        <time>2020-10-03T13:39:35.000Z</time>
      </trkpt>
      <trkpt lat="43.63004" lon="0.86234">
        <ele>150</ele>
        <time>2020-10-03T13:39:36.000Z</time>
      </trkpt>
      <trkpt lat="43.63003" lon="0.86231">
        <ele>150</ele>
        <time>2020-10-03T13:39:37.000Z</time>
      </trkpt>
      <trkpt lat="43.63003" lon="0.86228">
        <ele>150</ele>
        <time>2020-10-03T13:39:38.000Z</time>
      </trkpt>
      <trkpt lat="43.63002" lon="0.86225">
        <ele>150</ele>
        <time>2020-10-03T13:39:39.000Z</time>
      </trkpt>
      <trkpt lat="43.63001" lon="0.86221">
        <ele>149.68085260903</ele>
        <time>2020-10-03T13:39:40.000Z</time>
      </trkpt>
      <trkpt lat="43.63001" lon="0.86218">
        <ele>149</ele>
        <time>2020-10-03T13:39:41.000Z</time>
      </trkpt>
      <trkpt lat="43.63" lon="0.86215">
        <ele>149</ele>
        <time>2020-10-03T13:39:42.000Z</time>
      </trkpt>
      <trkpt lat="43.62999" lon="0.86212">
        <ele>149</ele>
        <time>2020-10-03T13:39:43.000Z</time>
      </trkpt>
      <trkpt lat="43.62998" lon="0.86209">
        <ele>149</ele>
        <time>2020-10-03T13:39:44.000Z</time>
      </trkpt>
      <trkpt lat="43.62998" lon="0.86205">
        <ele>149</ele>
        <time>2020-10-03T13:39:45.000Z</time>
      </trkpt>
      <trkpt lat="43.62998" lon="0.86202">
        <ele>149</ele>
        <time>2020-10-03T13:39:46.000Z</time>
      </trkpt>
      <trkpt lat="43.62997" lon="0.86199">
        <ele>149</ele>
        <time>2020-10-03T13:39:47.000Z</time>
      </trkpt>
      <trkpt lat="43.62997" lon="0.86196">
        <ele>149</ele>
        <time>2020-10-03T13:39:48.000Z</time>
      </trkpt>
      <trkpt lat="43.62996" lon="0.86193">
        <ele>149</ele>
        <time>2020-10-03T13:39:49.000Z</time>
      </trkpt>
      <trkpt lat="43.62996" lon="0.86189">
        <ele>149.41904889615</ele>
        <time>2020-10-03T13:39:50.000Z</time>
      </trkpt>
      <trkpt lat="43.62995" lon="0.86186">
        <ele>150</ele>
        <time>2020-10-03T13:39:51.000Z</time>
      </trkpt>
      <trkpt lat="43.62995" lon="0.86183">
        <ele>150</ele>
        <time>2020-10-03T13:39:52.000Z</time>
      </trkpt>
      <trkpt lat="43.62994" lon="0.86179">
        <ele>150</ele>
        <time>2020-10-03T13:39:53.000Z</time>
      </trkpt>
      <trkpt lat="43.62994" lon="0.86176">
        <ele>149.57407319617</ele>
        <time>2020-10-03T13:39:54.000Z</time>
      </trkpt>
      <trkpt lat="43.62993" lon="0.86173">
        <ele>149</ele>
        <time>2020-10-03T13:39:55.000Z</time>
      </trkpt>
      <trkpt lat="43.62992" lon="0.8617">
        <ele>149</ele>
        <time>2020-10-03T13:39:56.000Z</time>
      </trkpt>
      <trkpt lat="43.62991" lon="0.86167">
        <ele>149</ele>
        <time>2020-10-03T13:39:57.000Z</time>
      </trkpt>
      <trkpt lat="43.62991" lon="0.86164">
        <ele>149</ele>
        <time>2020-10-03T13:39:58.000Z</time>
      </trkpt>
      <trkpt lat="43.6299" lon="0.8616">
        <ele>149</ele>
        <time>2020-10-03T13:39:59.000Z</time>
      </trkpt>
      <trkpt lat="43.62989" lon="0.86157">
        <ele>149</ele>
        <time>2020-10-03T13:40:00.000Z</time>
      </trkpt>
      <trkpt lat="43.62988" lon="0.86154">
        <ele>149</ele>
        <time>2020-10-03T13:40:01.000Z</time>
      </trkpt>
      <trkpt lat="43.62988" lon="0.86151">
        <ele>149</ele>
        <time>2020-10-03T13:40:02.000Z</time>
      </trkpt>
      <trkpt lat="43.62987" lon="0.86148">
        <ele>149.28572031395</ele>
        <time>2020-10-03T13:40:03.000Z</time>
      </trkpt>
      <trkpt lat="43.62986" lon="0.86145">
        <ele>150</ele>
        <time>2020-10-03T13:40:04.000Z</time>
      </trkpt>
      <trkpt lat="43.62985" lon="0.86142">
        <ele>150</ele>
        <time>2020-10-03T13:40:05.000Z</time>
      </trkpt>
      <trkpt lat="43.62985" lon="0.86138">
        <ele>150</ele>
        <time>2020-10-03T13:40:06.000Z</time>
      </trkpt>
      <trkpt lat="43.62984" lon="0.86135">
        <ele>150</ele>
        <time>2020-10-03T13:40:07.000Z</time>
      </trkpt>
      <trkpt lat="43.62983" lon="0.86132">
        <ele>150</ele>
        <time>2020-10-03T13:40:08.000Z</time>
      </trkpt>
      <trkpt lat="43.62983" lon="0.86129">
        <ele>150</ele>
        <time>2020-10-03T13:40:09.000Z</time>
      </trkpt>
      <trkpt lat="43.62982" lon="0.86125">
        <ele>150</ele>
        <time>2020-10-03T13:40:10.000Z</time>
      </trkpt>
      <trkpt lat="43.62981" lon="0.86122">
        <ele>150</ele>
        <time>2020-10-03T13:40:11.000Z</time>
      </trkpt>
      <trkpt lat="43.6298" lon="0.86119">
        <ele>149.6292157455</ele>
        <time>2020-10-03T13:40:12.000Z</time>
      </trkpt>
      <trkpt lat="43.62979" lon="0.86116">
        <ele>149</ele>
        <time>2020-10-03T13:40:13.000Z</time>
      </trkpt>
      <trkpt lat="43.62978" lon="0.86113">
        <ele>149</ele>
        <time>2020-10-03T13:40:14.000Z</time>
      </trkpt>
      <trkpt lat="43.62977" lon="0.8611">
        <ele>149</ele>
        <time>2020-10-03T13:40:15.000Z</time>
      </trkpt>
      <trkpt lat="43.62977" lon="0.86107">
        <ele>149</ele>
        <time>2020-10-03T13:40:16.000Z</time>
      </trkpt>
      <trkpt lat="43.62976" lon="0.86103">
        <ele>149.41346461539</ele>
        <time>2020-10-03T13:40:17.000Z</time>
      </trkpt>
      <trkpt lat="43.62975" lon="0.861">
        <ele>150</ele>
        <time>2020-10-03T13:40:18.000Z</time>
      </trkpt>
      <trkpt lat="43.62975" lon="0.86096">
        <ele>150</ele>
        <time>2020-10-03T13:40:19.000Z</time>
      </trkpt>
      <trkpt lat="43.62974" lon="0.86093">
        <ele>150</ele>
        <time>2020-10-03T13:40:20.000Z</time>
      </trkpt>
      <trkpt lat="43.62974" lon="0.86089">
        <ele>150</ele>
        <time>2020-10-03T13:40:21.000Z</time>
      </trkpt>
      <trkpt lat="43.62974" lon="0.86086">
        <ele>150</ele>
        <time>2020-10-03T13:40:22.000Z</time>
      </trkpt>
      <trkpt lat="43.62973" lon="0.86082">
        <ele>150</ele>
        <time>2020-10-03T13:40:23.000Z</time>
      </trkpt>
      <trkpt lat="43.62973" lon="0.86079">
        <ele>150</ele>
        <time>2020-10-03T13:40:24.000Z</time>
      </trkpt>
      <trkpt lat="43.62973" lon="0.86075">
        <ele>150</ele>
        <time>2020-10-03T13:40:25.000Z</time>
      </trkpt>
      <trkpt lat="43.62973" lon="0.86072">
        <ele>150</ele>
        <time>2020-10-03T13:40:26.000Z</time>
      </trkpt>
      <trkpt lat="43.62973" lon="0.86068">
        <ele>150</ele>
        <time>2020-10-03T13:40:27.000Z</time>
      </trkpt>
      <trkpt lat="43.62973" lon="0.86065">
        <ele>150</ele>
        <time>2020-10-03T13:40:28.000Z</time>
      </trkpt>
      <trkpt lat="43.62973" lon="0.86062">
        <ele>150</ele>
        <time>2020-10-03T13:40:29.000Z</time>
      </trkpt>
      <trkpt lat="43.62974" lon="0.86058">
        <ele>150</ele>
        <time>2020-10-03T13:40:30.000Z</time>
      </trkpt>
      <trkpt lat="43.62974" lon="0.86055">
        <ele>150</ele>
        <time>2020-10-03T13:40:31.000Z</time>
      </trkpt>
      <trkpt lat="43.62974" lon="0.86051">
        <ele>150</ele>
        <time>2020-10-03T13:40:32.000Z</time>
      </trkpt>
      <trkpt lat="43.62974" lon="0.86048">
        <ele>150</ele>
        <time>2020-10-03T13:40:33.000Z</time>
      </trkpt>
      <trkpt lat="43.62974" lon="0.86045">
        <ele>150</ele>
        <time>2020-10-03T13:40:34.000Z</time>
      </trkpt>
      <trkpt lat="43.62974" lon="0.86041">
        <ele>150</ele>
        <time>2020-10-03T13:40:35.000Z</time>
      </trkpt>
      <trkpt lat="43.62974" lon="0.86037">
        <ele>150</ele>
        <time>2020-10-03T13:40:36.000Z</time>
      </trkpt>
      <trkpt lat="43.62975" lon="0.86034">
        <ele>150</ele>
        <time>2020-10-03T13:40:37.000Z</time>
      </trkpt>
      <trkpt lat="43.62975" lon="0.8603">
        <ele>150</ele>
        <time>2020-10-03T13:40:38.000Z</time>
      </trkpt>
      <trkpt lat="43.62976" lon="0.86027">
        <ele>150</ele>
        <time>2020-10-03T13:40:39.000Z</time>
      </trkpt>
      <trkpt lat="43.62976" lon="0.86023">
        <ele>150</ele>
        <time>2020-10-03T13:40:40.000Z</time>
      </trkpt>
      <trkpt lat="43.62976" lon="0.8602">
        <ele>150</ele>
        <time>2020-10-03T13:40:41.000Z</time>
      </trkpt>
      <trkpt lat="43.62977" lon="0.86016">
        <ele>150</ele>
        <time>2020-10-03T13:40:42.000Z</time>
      </trkpt>
      <trkpt lat="43.62977" lon="0.86013">
        <ele>150</ele>
        <time>2020-10-03T13:40:43.000Z</time>
      </trkpt>
      <trkpt lat="43.62977" lon="0.86009">
        <ele>150</ele>
        <time>2020-10-03T13:40:44.000Z</time>
      </trkpt>
      <trkpt lat="43.62978" lon="0.86005">
        <ele>150</ele>
        <time>2020-10-03T13:40:45.000Z</time>
      </trkpt>
      <trkpt lat="43.62978" lon="0.86002">
        <ele>150</ele>
        <time>2020-10-03T13:40:46.000Z</time>
      </trkpt>
      <trkpt lat="43.62979" lon="0.85998">
        <ele>150</ele>
        <time>2020-10-03T13:40:47.000Z</time>
      </trkpt>
      <trkpt lat="43.6298" lon="0.85995">
        <ele>150</ele>
        <time>2020-10-03T13:40:48.000Z</time>
      </trkpt>
      <trkpt lat="43.62981" lon="0.85992">
        <ele>150</ele>
        <time>2020-10-03T13:40:49.000Z</time>
      </trkpt>
      <trkpt lat="43.62981" lon="0.85988">
        <ele>150</ele>
        <time>2020-10-03T13:40:50.000Z</time>
      </trkpt>
      <trkpt lat="43.62982" lon="0.85985">
        <ele>150</ele>
        <time>2020-10-03T13:40:51.000Z</time>
      </trkpt>
      <trkpt lat="43.62983" lon="0.85982">
        <ele>150</ele>
        <time>2020-10-03T13:40:52.000Z</time>
      </trkpt>
      <trkpt lat="43.62983" lon="0.85978">
        <ele>150</ele>
        <time>2020-10-03T13:40:53.000Z</time>
      </trkpt>
      <trkpt lat="43.62984" lon="0.85975">
        <ele>150.43877591003</ele>
        <time>2020-10-03T13:40:54.000Z</time>
      </trkpt>
      <trkpt lat="43.62985" lon="0.85972">
        <ele>151</ele>
        <time>2020-10-03T13:40:55.000Z</time>
      </trkpt>
      <trkpt lat="43.62985" lon="0.85969">
        <ele>151</ele>
        <time>2020-10-03T13:40:56.000Z</time>
      </trkpt>
      <trkpt lat="43.62986" lon="0.85966">
        <ele>151</ele>
        <time>2020-10-03T13:40:57.000Z</time>
      </trkpt>
      <trkpt lat="43.62987" lon="0.85963">
        <ele>151</ele>
        <time>2020-10-03T13:40:58.000Z</time>
      </trkpt>
      <trkpt lat="43.62987" lon="0.8596">
        <ele>151</ele>
        <time>2020-10-03T13:40:59.000Z</time>
      </trkpt>
      <trkpt lat="43.62988" lon="0.85957">
        <ele>151</ele>
        <time>2020-10-03T13:41:00.000Z</time>
      </trkpt>
      <trkpt lat="43.62989" lon="0.85954">
        <ele>151</ele>
        <time>2020-10-03T13:41:01.000Z</time>
      </trkpt>
      <trkpt lat="43.6299" lon="0.85951">
        <ele>151.36</ele>
        <time>2020-10-03T13:41:02.000Z</time>
      </trkpt>
      <trkpt lat="43.62991" lon="0.85948">
        <ele>152</ele>
        <time>2020-10-03T13:41:03.000Z</time>
      </trkpt>
      <trkpt lat="43.62991" lon="0.85944">
        <ele>152</ele>
        <time>2020-10-03T13:41:04.000Z</time>
      </trkpt>
      <trkpt lat="43.62992" lon="0.85941">
        <ele>152</ele>
        <time>2020-10-03T13:41:05.000Z</time>
      </trkpt>
      <trkpt lat="43.62993" lon="0.85938">
        <ele>152</ele>
        <time>2020-10-03T13:41:06.000Z</time>
      </trkpt>
      <trkpt lat="43.62993" lon="0.85935">
        <ele>152</ele>
        <time>2020-10-03T13:41:07.000Z</time>
      </trkpt>
      <trkpt lat="43.62994" lon="0.85932">
        <ele>152</ele>
        <time>2020-10-03T13:41:08.000Z</time>
      </trkpt>
      <trkpt lat="43.62995" lon="0.85928">
        <ele>152</ele>
        <time>2020-10-03T13:41:09.000Z</time>
      </trkpt>
      <trkpt lat="43.62996" lon="0.85925">
        <ele>152</ele>
        <time>2020-10-03T13:41:10.000Z</time>
      </trkpt>
      <trkpt lat="43.62997" lon="0.85922">
        <ele>151.62745491736</ele>
        <time>2020-10-03T13:41:11.000Z</time>
      </trkpt>
      <trkpt lat="43.62998" lon="0.85919">
        <ele>151</ele>
        <time>2020-10-03T13:41:12.000Z</time>
      </trkpt>
      <trkpt lat="43.62998" lon="0.85916">
        <ele>151</ele>
        <time>2020-10-03T13:41:13.000Z</time>
      </trkpt>
      <trkpt lat="43.62999" lon="0.85913">
        <ele>151</ele>
        <time>2020-10-03T13:41:14.000Z</time>
      </trkpt>
      <trkpt lat="43.63" lon="0.8591">
        <ele>151</ele>
        <time>2020-10-03T13:41:15.000Z</time>
      </trkpt>
      <trkpt lat="43.63001" lon="0.85907">
        <ele>151</ele>
        <time>2020-10-03T13:41:16.000Z</time>
      </trkpt>
      <trkpt lat="43.63001" lon="0.85904">
        <ele>151.4099968</ele>
        <time>2020-10-03T13:41:17.000Z</time>
      </trkpt>
      <trkpt lat="43.63002" lon="0.859">
        <ele>152</ele>
        <time>2020-10-03T13:41:18.000Z</time>
      </trkpt>
      <trkpt lat="43.63003" lon="0.85897">
        <ele>152</ele>
        <time>2020-10-03T13:41:19.000Z</time>
      </trkpt>
      <trkpt lat="43.63004" lon="0.85894">
        <ele>152</ele>
        <time>2020-10-03T13:41:20.000Z</time>
      </trkpt>
      <trkpt lat="43.63005" lon="0.85891">
        <ele>152</ele>
        <time>2020-10-03T13:41:21.000Z</time>
      </trkpt>
      <trkpt lat="43.63006" lon="0.85888">
        <ele>152</ele>
        <time>2020-10-03T13:41:22.000Z</time>
      </trkpt>
      <trkpt lat="43.63007" lon="0.85886">
        <ele>152</ele>
        <time>2020-10-03T13:41:23.000Z</time>
      </trkpt>
      <trkpt lat="43.63008" lon="0.85882">
        <ele>152</ele>
        <time>2020-10-03T13:41:24.000Z</time>
      </trkpt>
      <trkpt lat="43.63008" lon="0.85879">
        <ele>152</ele>
        <time>2020-10-03T13:41:25.000Z</time>
      </trkpt>
      <trkpt lat="43.63009" lon="0.85876">
        <ele>152</ele>
        <time>2020-10-03T13:41:26.000Z</time>
      </trkpt>
      <trkpt lat="43.6301" lon="0.85873">
        <ele>151.5900032</ele>
        <time>2020-10-03T13:41:27.000Z</time>
      </trkpt>
      <trkpt lat="43.6301" lon="0.8587">
        <ele>151</ele>
        <time>2020-10-03T13:41:28.000Z</time>
      </trkpt>
      <trkpt lat="43.63011" lon="0.85867">
        <ele>151</ele>
        <time>2020-10-03T13:41:29.000Z</time>
      </trkpt>
      <trkpt lat="43.63012" lon="0.85864">
        <ele>151</ele>
        <time>2020-10-03T13:41:30.000Z</time>
      </trkpt>
      <trkpt lat="43.63013" lon="0.85861">
        <ele>151</ele>
        <time>2020-10-03T13:41:31.000Z</time>
      </trkpt>
      <trkpt lat="43.63014" lon="0.85858">
        <ele>151</ele>
        <time>2020-10-03T13:41:32.000Z</time>
      </trkpt>
      <trkpt lat="43.63014" lon="0.85855">
        <ele>151</ele>
        <time>2020-10-03T13:41:33.000Z</time>
      </trkpt>
      <trkpt lat="43.63015" lon="0.85852">
        <ele>151</ele>
        <time>2020-10-03T13:41:34.000Z</time>
      </trkpt>
      <trkpt lat="43.63016" lon="0.85848">
        <ele>151</ele>
        <time>2020-10-03T13:41:35.000Z</time>
      </trkpt>
      <trkpt lat="43.63017" lon="0.85845">
        <ele>151</ele>
        <time>2020-10-03T13:41:36.000Z</time>
      </trkpt>
      <trkpt lat="43.63017" lon="0.85842">
        <ele>151.3861430056</ele>
        <time>2020-10-03T13:41:37.000Z</time>
      </trkpt>
      <trkpt lat="43.63018" lon="0.85839">
        <ele>152</ele>
        <time>2020-10-03T13:41:38.000Z</time>
      </trkpt>
      <trkpt lat="43.63019" lon="0.85835">
        <ele>152.30434782609</ele>
        <time>2020-10-03T13:41:39.000Z</time>
      </trkpt>
      <trkpt lat="43.63019" lon="0.85832">
        <ele>153</ele>
        <time>2020-10-03T13:41:40.000Z</time>
      </trkpt>
      <trkpt lat="43.6302" lon="0.85829">
        <ele>153</ele>
        <time>2020-10-03T13:41:41.000Z</time>
      </trkpt>
      <trkpt lat="43.63021" lon="0.85826">
        <ele>153</ele>
        <time>2020-10-03T13:41:42.000Z</time>
      </trkpt>
      <trkpt lat="43.63022" lon="0.85823">
        <ele>153</ele>
        <time>2020-10-03T13:41:43.000Z</time>
      </trkpt>
      <trkpt lat="43.63022" lon="0.8582">
        <ele>153</ele>
        <time>2020-10-03T13:41:44.000Z</time>
      </trkpt>
      <trkpt lat="43.63023" lon="0.85817">
        <ele>153</ele>
        <time>2020-10-03T13:41:45.000Z</time>
      </trkpt>
      <trkpt lat="43.63023" lon="0.85814">
        <ele>153</ele>
        <time>2020-10-03T13:41:46.000Z</time>
      </trkpt>
      <trkpt lat="43.63024" lon="0.85811">
        <ele>153</ele>
        <time>2020-10-03T13:41:47.000Z</time>
      </trkpt>
      <trkpt lat="43.63024" lon="0.85808">
        <ele>153</ele>
        <time>2020-10-03T13:41:48.000Z</time>
      </trkpt>
      <trkpt lat="43.63025" lon="0.85805">
        <ele>153</ele>
        <time>2020-10-03T13:41:49.000Z</time>
      </trkpt>
      <trkpt lat="43.63025" lon="0.85802">
        <ele>153</ele>
        <time>2020-10-03T13:41:50.000Z</time>
      </trkpt>
      <trkpt lat="43.63026" lon="0.85799">
        <ele>153</ele>
        <time>2020-10-03T13:41:51.000Z</time>
      </trkpt>
      <trkpt lat="43.63027" lon="0.85795">
        <ele>153</ele>
        <time>2020-10-03T13:41:52.000Z</time>
      </trkpt>
      <trkpt lat="43.63028" lon="0.85792">
        <ele>153</ele>
        <time>2020-10-03T13:41:53.000Z</time>
      </trkpt>
      <trkpt lat="43.63028" lon="0.85789">
        <ele>153</ele>
        <time>2020-10-03T13:41:54.000Z</time>
      </trkpt>
      <trkpt lat="43.63029" lon="0.85786">
        <ele>153</ele>
        <time>2020-10-03T13:41:55.000Z</time>
      </trkpt>
      <trkpt lat="43.6303" lon="0.85783">
        <ele>153.49019287964</ele>
        <time>2020-10-03T13:41:56.000Z</time>
      </trkpt>
      <trkpt lat="43.63031" lon="0.8578">
        <ele>154</ele>
        <time>2020-10-03T13:41:57.000Z</time>
      </trkpt>
      <trkpt lat="43.63032" lon="0.85776">
        <ele>154</ele>
        <time>2020-10-03T13:41:58.000Z</time>
      </trkpt>
      <trkpt lat="43.63033" lon="0.85773">
        <ele>154</ele>
        <time>2020-10-03T13:41:59.000Z</time>
      </trkpt>
      <trkpt lat="43.63034" lon="0.8577">
        <ele>153.58510580353</ele>
        <time>2020-10-03T13:42:00.000Z</time>
      </trkpt>
      <trkpt lat="43.63035" lon="0.85766">
        <ele>153</ele>
        <time>2020-10-03T13:42:01.000Z</time>
      </trkpt>
      <trkpt lat="43.63035" lon="0.85763">
        <ele>153</ele>
        <time>2020-10-03T13:42:02.000Z</time>
      </trkpt>
      <trkpt lat="43.63036" lon="0.8576">
        <ele>153.45454862808</ele>
        <time>2020-10-03T13:42:03.000Z</time>
      </trkpt>
      <trkpt lat="43.63037" lon="0.85757">
        <ele>154</ele>
        <time>2020-10-03T13:42:04.000Z</time>
      </trkpt>
      <trkpt lat="43.63037" lon="0.85754">
        <ele>154</ele>
        <time>2020-10-03T13:42:05.000Z</time>
      </trkpt>
      <trkpt lat="43.63038" lon="0.8575">
        <ele>154</ele>
        <time>2020-10-03T13:42:06.000Z</time>
      </trkpt>
      <trkpt lat="43.63038" lon="0.85747">
        <ele>154</ele>
        <time>2020-10-03T13:42:07.000Z</time>
      </trkpt>
      <trkpt lat="43.63038" lon="0.85744">
        <ele>154</ele>
        <time>2020-10-03T13:42:08.000Z</time>
      </trkpt>
      <trkpt lat="43.63038" lon="0.8574">
        <ele>154</ele>
        <time>2020-10-03T13:42:09.000Z</time>
      </trkpt>
      <trkpt lat="43.63039" lon="0.85737">
        <ele>154</ele>
        <time>2020-10-03T13:42:10.000Z</time>
      </trkpt>
      <trkpt lat="43.63039" lon="0.85733">
        <ele>154</ele>
        <time>2020-10-03T13:42:11.000Z</time>
      </trkpt>
      <trkpt lat="43.63038" lon="0.8573">
        <ele>154</ele>
        <time>2020-10-03T13:42:12.000Z</time>
      </trkpt>
      <trkpt lat="43.63038" lon="0.85727">
        <ele>154</ele>
        <time>2020-10-03T13:42:13.000Z</time>
      </trkpt>
      <trkpt lat="43.63037" lon="0.85723">
        <ele>154</ele>
        <time>2020-10-03T13:42:14.000Z</time>
      </trkpt>
      <trkpt lat="43.63037" lon="0.8572">
        <ele>154</ele>
        <time>2020-10-03T13:42:15.000Z</time>
      </trkpt>
      <trkpt lat="43.63036" lon="0.85717">
        <ele>154</ele>
        <time>2020-10-03T13:42:16.000Z</time>
      </trkpt>
      <trkpt lat="43.63035" lon="0.85714">
        <ele>154</ele>
        <time>2020-10-03T13:42:17.000Z</time>
      </trkpt>
      <trkpt lat="43.63035" lon="0.85711">
        <ele>154</ele>
        <time>2020-10-03T13:42:18.000Z</time>
      </trkpt>
      <trkpt lat="43.63034" lon="0.85708">
        <ele>154</ele>
        <time>2020-10-03T13:42:19.000Z</time>
      </trkpt>
      <trkpt lat="43.63033" lon="0.85705">
        <ele>154</ele>
        <time>2020-10-03T13:42:20.000Z</time>
      </trkpt>
      <trkpt lat="43.63032" lon="0.85702">
        <ele>154</ele>
        <time>2020-10-03T13:42:21.000Z</time>
      </trkpt>
      <trkpt lat="43.63031" lon="0.85699">
        <ele>154</ele>
        <time>2020-10-03T13:42:22.000Z</time>
      </trkpt>
      <trkpt lat="43.63031" lon="0.85696">
        <ele>154</ele>
        <time>2020-10-03T13:42:23.000Z</time>
      </trkpt>
      <trkpt lat="43.6303" lon="0.85693">
        <ele>154</ele>
        <time>2020-10-03T13:42:24.000Z</time>
      </trkpt>
      <trkpt lat="43.63029" lon="0.85691">
        <ele>154</ele>
        <time>2020-10-03T13:42:25.000Z</time>
      </trkpt>
      <trkpt lat="43.63028" lon="0.85688">
        <ele>154</ele>
        <time>2020-10-03T13:42:26.000Z</time>
      </trkpt>
      <trkpt lat="43.63027" lon="0.85685">
        <ele>154</ele>
        <time>2020-10-03T13:42:27.000Z</time>
      </trkpt>
      <trkpt lat="43.63026" lon="0.85682">
        <ele>154</ele>
        <time>2020-10-03T13:42:28.000Z</time>
      </trkpt>
      <trkpt lat="43.63025" lon="0.85679">
        <ele>154</ele>
        <time>2020-10-03T13:42:29.000Z</time>
      </trkpt>
      <trkpt lat="43.63024" lon="0.85676">
        <ele>154.41666666667</ele>
        <time>2020-10-03T13:42:30.000Z</time>
      </trkpt>
      <trkpt lat="43.63024" lon="0.85672">
        <ele>155</ele>
        <time>2020-10-03T13:42:31.000Z</time>
      </trkpt>
      <trkpt lat="43.63023" lon="0.85669">
        <ele>155</ele>
        <time>2020-10-03T13:42:32.000Z</time>
      </trkpt>
      <trkpt lat="43.63022" lon="0.85666">
        <ele>155</ele>
        <time>2020-10-03T13:42:33.000Z</time>
      </trkpt>
      <trkpt lat="43.63021" lon="0.85663">
        <ele>155</ele>
        <time>2020-10-03T13:42:34.000Z</time>
      </trkpt>
      <trkpt lat="43.6302" lon="0.85659">
        <ele>155</ele>
        <time>2020-10-03T13:42:35.000Z</time>
      </trkpt>
      <trkpt lat="43.6302" lon="0.85656">
        <ele>155</ele>
        <time>2020-10-03T13:42:36.000Z</time>
      </trkpt>
      <trkpt lat="43.63019" lon="0.85653">
        <ele>155</ele>
        <time>2020-10-03T13:42:37.000Z</time>
      </trkpt>
      <trkpt lat="43.63019" lon="0.8565">
        <ele>155</ele>
        <time>2020-10-03T13:42:38.000Z</time>
      </trkpt>
      <trkpt lat="43.63019" lon="0.85647">
        <ele>155</ele>
        <time>2020-10-03T13:42:39.000Z</time>
      </trkpt>
      <trkpt lat="43.63018" lon="0.85644">
        <ele>155</ele>
        <time>2020-10-03T13:42:40.000Z</time>
      </trkpt>
      <trkpt lat="43.63018" lon="0.85641">
        <ele>155</ele>
        <time>2020-10-03T13:42:41.000Z</time>
      </trkpt>
      <trkpt lat="43.63017" lon="0.85638">
        <ele>155</ele>
        <time>2020-10-03T13:42:42.000Z</time>
      </trkpt>
      <trkpt lat="43.63017" lon="0.85635">
        <ele>155</ele>
        <time>2020-10-03T13:42:43.000Z</time>
      </trkpt>
      <trkpt lat="43.63016" lon="0.85632">
        <ele>155</ele>
        <time>2020-10-03T13:42:44.000Z</time>
      </trkpt>
      <trkpt lat="43.63016" lon="0.85629">
        <ele>155</ele>
        <time>2020-10-03T13:42:45.000Z</time>
      </trkpt>
      <trkpt lat="43.63015" lon="0.85626">
        <ele>155</ele>
        <time>2020-10-03T13:42:46.000Z</time>
      </trkpt>
      <trkpt lat="43.63015" lon="0.85623">
        <ele>155</ele>
        <time>2020-10-03T13:42:47.000Z</time>
      </trkpt>
      <trkpt lat="43.63014" lon="0.85619">
        <ele>155</ele>
        <time>2020-10-03T13:42:48.000Z</time>
      </trkpt>
      <trkpt lat="43.63014" lon="0.85616">
        <ele>155</ele>
        <time>2020-10-03T13:42:49.000Z</time>
      </trkpt>
      <trkpt lat="43.63013" lon="0.85613">
        <ele>155</ele>
        <time>2020-10-03T13:42:50.000Z</time>
      </trkpt>
      <trkpt lat="43.63013" lon="0.8561">
        <ele>155</ele>
        <time>2020-10-03T13:42:51.000Z</time>
      </trkpt>
      <trkpt lat="43.63012" lon="0.85606">
        <ele>155</ele>
        <time>2020-10-03T13:42:52.000Z</time>
      </trkpt>
      <trkpt lat="43.63012" lon="0.85603">
        <ele>155</ele>
        <time>2020-10-03T13:42:53.000Z</time>
      </trkpt>
      <trkpt lat="43.63012" lon="0.856">
        <ele>155.31745870497</ele>
        <time>2020-10-03T13:42:54.000Z</time>
      </trkpt>
      <trkpt lat="43.63011" lon="0.85597">
        <ele>156</ele>
        <time>2020-10-03T13:42:55.000Z</time>
      </trkpt>
      <trkpt lat="43.63011" lon="0.85594">
        <ele>156</ele>
        <time>2020-10-03T13:42:56.000Z</time>
      </trkpt>
      <trkpt lat="43.6301" lon="0.8559">
        <ele>156</ele>
        <time>2020-10-03T13:42:57.000Z</time>
      </trkpt>
      <trkpt lat="43.6301" lon="0.85587">
        <ele>156</ele>
        <time>2020-10-03T13:42:58.000Z</time>
      </trkpt>
      <trkpt lat="43.6301" lon="0.85584">
        <ele>156</ele>
        <time>2020-10-03T13:42:59.000Z</time>
      </trkpt>
      <trkpt lat="43.63009" lon="0.85581">
        <ele>156</ele>
        <time>2020-10-03T13:43:00.000Z</time>
      </trkpt>
      <trkpt lat="43.63009" lon="0.85577">
        <ele>156</ele>
        <time>2020-10-03T13:43:01.000Z</time>
      </trkpt>
      <trkpt lat="43.63008" lon="0.85574">
        <ele>156</ele>
        <time>2020-10-03T13:43:02.000Z</time>
      </trkpt>
      <trkpt lat="43.63008" lon="0.8557">
        <ele>156</ele>
        <time>2020-10-03T13:43:03.000Z</time>
      </trkpt>
      <trkpt lat="43.63007" lon="0.85567">
        <ele>156</ele>
        <time>2020-10-03T13:43:04.000Z</time>
      </trkpt>
      <trkpt lat="43.63007" lon="0.85564">
        <ele>156</ele>
        <time>2020-10-03T13:43:05.000Z</time>
      </trkpt>
      <trkpt lat="43.63007" lon="0.8556">
        <ele>156</ele>
        <time>2020-10-03T13:43:06.000Z</time>
      </trkpt>
      <trkpt lat="43.63007" lon="0.85557">
        <ele>156</ele>
        <time>2020-10-03T13:43:07.000Z</time>
      </trkpt>
      <trkpt lat="43.63006" lon="0.85554">
        <ele>156</ele>
        <time>2020-10-03T13:43:08.000Z</time>
      </trkpt>
      <trkpt lat="43.63006" lon="0.85551">
        <ele>156</ele>
        <time>2020-10-03T13:43:09.000Z</time>
      </trkpt>
      <trkpt lat="43.63006" lon="0.85548">
        <ele>156</ele>
        <time>2020-10-03T13:43:10.000Z</time>
      </trkpt>
      <trkpt lat="43.63006" lon="0.85545">
        <ele>156</ele>
        <time>2020-10-03T13:43:11.000Z</time>
      </trkpt>
      <trkpt lat="43.63005" lon="0.85542">
        <ele>156</ele>
        <time>2020-10-03T13:43:12.000Z</time>
      </trkpt>
      <trkpt lat="43.63005" lon="0.85539">
        <ele>156</ele>
        <time>2020-10-03T13:43:13.000Z</time>
      </trkpt>
      <trkpt lat="43.63005" lon="0.85536">
        <ele>156.41666666667</ele>
        <time>2020-10-03T13:43:14.000Z</time>
      </trkpt>
      <trkpt lat="43.63005" lon="0.85533">
        <ele>157</ele>
        <time>2020-10-03T13:43:15.000Z</time>
      </trkpt>
      <trkpt lat="43.63005" lon="0.85529">
        <ele>157</ele>
        <time>2020-10-03T13:43:16.000Z</time>
      </trkpt>
      <trkpt lat="43.63005" lon="0.85526">
        <ele>157</ele>
        <time>2020-10-03T13:43:17.000Z</time>
      </trkpt>
      <trkpt lat="43.63005" lon="0.85523">
        <ele>157</ele>
        <time>2020-10-03T13:43:18.000Z</time>
      </trkpt>
      <trkpt lat="43.63005" lon="0.85519">
        <ele>157</ele>
        <time>2020-10-03T13:43:19.000Z</time>
      </trkpt>
      <trkpt lat="43.63005" lon="0.85516">
        <ele>156.5789487867</ele>
        <time>2020-10-03T13:43:20.000Z</time>
      </trkpt>
      <trkpt lat="43.63005" lon="0.85513">
        <ele>156</ele>
        <time>2020-10-03T13:43:21.000Z</time>
      </trkpt>
      <trkpt lat="43.63005" lon="0.85509">
        <ele>156</ele>
        <time>2020-10-03T13:43:22.000Z</time>
      </trkpt>
      <trkpt lat="43.63005" lon="0.85506">
        <ele>156</ele>
        <time>2020-10-03T13:43:23.000Z</time>
      </trkpt>
      <trkpt lat="43.63005" lon="0.85502">
        <ele>156.32584027268</ele>
        <time>2020-10-03T13:43:24.000Z</time>
      </trkpt>
      <trkpt lat="43.63005" lon="0.85499">
        <ele>157</ele>
        <time>2020-10-03T13:43:25.000Z</time>
      </trkpt>
      <trkpt lat="43.63005" lon="0.85496">
        <ele>157</ele>
        <time>2020-10-03T13:43:26.000Z</time>
      </trkpt>
      <trkpt lat="43.63004" lon="0.85493">
        <ele>157</ele>
        <time>2020-10-03T13:43:27.000Z</time>
      </trkpt>
      <trkpt lat="43.63003" lon="0.85491">
        <ele>157</ele>
        <time>2020-10-03T13:43:28.000Z</time>
      </trkpt>
      <trkpt lat="43.63001" lon="0.85489">
        <ele>157</ele>
        <time>2020-10-03T13:43:29.000Z</time>
      </trkpt>
      <trkpt lat="43.62999" lon="0.85487">
        <ele>157</ele>
        <time>2020-10-03T13:43:30.000Z</time>
      </trkpt>
      <trkpt lat="43.62996" lon="0.85485">
        <ele>157</ele>
        <time>2020-10-03T13:43:31.000Z</time>
      </trkpt>
      <trkpt lat="43.62994" lon="0.85483">
        <ele>157</ele>
        <time>2020-10-03T13:43:32.000Z</time>
      </trkpt>
      <trkpt lat="43.62992" lon="0.85482">
        <ele>156.58510580353</ele>
        <time>2020-10-03T13:43:33.000Z</time>
      </trkpt>
      <trkpt lat="43.62989" lon="0.8548">
        <ele>156</ele>
        <time>2020-10-03T13:43:34.000Z</time>
      </trkpt>
      <trkpt lat="43.62987" lon="0.85479">
        <ele>156</ele>
        <time>2020-10-03T13:43:35.000Z</time>
      </trkpt>
      <trkpt lat="43.62985" lon="0.85477">
        <ele>156</ele>
        <time>2020-10-03T13:43:36.000Z</time>
      </trkpt>
      <trkpt lat="43.62983" lon="0.85475">
        <ele>156</ele>
        <time>2020-10-03T13:43:37.000Z</time>
      </trkpt>
      <trkpt lat="43.62981" lon="0.85474">
        <ele>156</ele>
        <time>2020-10-03T13:43:38.000Z</time>
      </trkpt>
      <trkpt lat="43.62978" lon="0.85472">
        <ele>156</ele>
        <time>2020-10-03T13:43:39.000Z</time>
      </trkpt>
      <trkpt lat="43.62976" lon="0.85471">
        <ele>156</ele>
        <time>2020-10-03T13:43:40.000Z</time>
      </trkpt>
      <trkpt lat="43.62974" lon="0.8547">
        <ele>156</ele>
        <time>2020-10-03T13:43:41.000Z</time>
      </trkpt>
      <trkpt lat="43.62972" lon="0.85468">
        <ele>156</ele>
        <time>2020-10-03T13:43:42.000Z</time>
      </trkpt>
      <trkpt lat="43.62969" lon="0.85466">
        <ele>156</ele>
        <time>2020-10-03T13:43:43.000Z</time>
      </trkpt>
      <trkpt lat="43.62968" lon="0.85464">
        <ele>156</ele>
        <time>2020-10-03T13:43:44.000Z</time>
      </trkpt>
      <trkpt lat="43.62966" lon="0.85462">
        <ele>156.30392279892</ele>
        <time>2020-10-03T13:43:45.000Z</time>
      </trkpt>
      <trkpt lat="43.62964" lon="0.8546">
        <ele>157</ele>
        <time>2020-10-03T13:43:46.000Z</time>
      </trkpt>
      <trkpt lat="43.62962" lon="0.85457">
        <ele>157</ele>
        <time>2020-10-03T13:43:47.000Z</time>
      </trkpt>
      <trkpt lat="43.62961" lon="0.85455">
        <ele>157</ele>
        <time>2020-10-03T13:43:48.000Z</time>
      </trkpt>
      <trkpt lat="43.6296" lon="0.85454">
        <ele>157</ele>
        <time>2020-10-03T13:43:49.000Z</time>
      </trkpt>
      <trkpt lat="43.62958" lon="0.85452">
        <ele>157</ele>
        <time>2020-10-03T13:43:50.000Z</time>
      </trkpt>
      <trkpt lat="43.62956" lon="0.85448">
        <ele>157</ele>
        <time>2020-10-03T13:43:52.000Z</time>
      </trkpt>
      <trkpt lat="43.62955" lon="0.85447">
        <ele>157</ele>
        <time>2020-10-03T13:43:53.000Z</time>
      </trkpt>
      <trkpt lat="43.62953" lon="0.85444">
        <ele>157</ele>
        <time>2020-10-03T13:43:54.000Z</time>
      </trkpt>
      <trkpt lat="43.62951" lon="0.85442">
        <ele>157</ele>
        <time>2020-10-03T13:43:55.000Z</time>
      </trkpt>
      <trkpt lat="43.62949" lon="0.8544">
        <ele>157</ele>
        <time>2020-10-03T13:43:56.000Z</time>
      </trkpt>
      <trkpt lat="43.62948" lon="0.85438">
        <ele>157</ele>
        <time>2020-10-03T13:43:57.000Z</time>
      </trkpt>
      <trkpt lat="43.62946" lon="0.85436">
        <ele>157</ele>
        <time>2020-10-03T13:43:58.000Z</time>
      </trkpt>
      <trkpt lat="43.62944" lon="0.85435">
        <ele>157.19177289544</ele>
        <time>2020-10-03T13:43:59.000Z</time>
      </trkpt>
      <trkpt lat="43.62942" lon="0.85432">
        <ele>158</ele>
        <time>2020-10-03T13:44:00.000Z</time>
      </trkpt>
      <trkpt lat="43.6294" lon="0.8543">
        <ele>158</ele>
        <time>2020-10-03T13:44:01.000Z</time>
      </trkpt>
      <trkpt lat="43.62939" lon="0.85428">
        <ele>158.45098383696</ele>
        <time>2020-10-03T13:44:02.000Z</time>
      </trkpt>
      <trkpt lat="43.62938" lon="0.85426">
        <ele>159</ele>
        <time>2020-10-03T13:44:03.000Z</time>
      </trkpt>
      <trkpt lat="43.62936" lon="0.85424">
        <ele>159</ele>
        <time>2020-10-03T13:44:04.000Z</time>
      </trkpt>
      <trkpt lat="43.62934" lon="0.85421">
        <ele>159</ele>
        <time>2020-10-03T13:44:06.000Z</time>
      </trkpt>
      <trkpt lat="43.62931" lon="0.85419">
        <ele>159</ele>
        <time>2020-10-03T13:44:08.000Z</time>
      </trkpt>
      <trkpt lat="43.62929" lon="0.85416">
        <ele>159</ele>
        <time>2020-10-03T13:44:10.000Z</time>
      </trkpt>
      <trkpt lat="43.62926" lon="0.85415">
        <ele>159</ele>
        <time>2020-10-03T13:44:12.000Z</time>
      </trkpt>
      <trkpt lat="43.62923" lon="0.85414">
        <ele>160</ele>
        <time>2020-10-03T13:44:14.000Z</time>
      </trkpt>
      <trkpt lat="43.6292" lon="0.85413">
        <ele>160</ele>
        <time>2020-10-03T13:44:16.000Z</time>
      </trkpt>
      <trkpt lat="43.62918" lon="0.85412">
        <ele>160</ele>
        <time>2020-10-03T13:44:18.000Z</time>
      </trkpt>
      <trkpt lat="43.62915" lon="0.85409">
        <ele>161</ele>
        <time>2020-10-03T13:44:20.000Z</time>
      </trkpt>
      <trkpt lat="43.62912" lon="0.85408">
        <ele>161</ele>
        <time>2020-10-03T13:44:22.000Z</time>
      </trkpt>
      <trkpt lat="43.6291" lon="0.85406">
        <ele>161</ele>
        <time>2020-10-03T13:44:24.000Z</time>
      </trkpt>
      <trkpt lat="43.62908" lon="0.85404">
        <ele>161.8510696243</ele>
        <time>2020-10-03T13:44:27.000Z</time>
      </trkpt>
      <trkpt lat="43.62905" lon="0.85403">
        <ele>163</ele>
        <time>2020-10-03T13:44:29.000Z</time>
      </trkpt>
      <trkpt lat="43.62903" lon="0.85402">
        <ele>163</ele>
        <time>2020-10-03T13:44:30.000Z</time>
      </trkpt>
      <trkpt lat="43.62901" lon="0.85402">
        <ele>163</ele>
        <time>2020-10-03T13:44:31.000Z</time>
      </trkpt>
      <trkpt lat="43.62898" lon="0.85401">
        <ele>163</ele>
        <time>2020-10-03T13:44:33.000Z</time>
      </trkpt>
      <trkpt lat="43.62896" lon="0.854">
        <ele>164</ele>
        <time>2020-10-03T13:44:35.000Z</time>
      </trkpt>
      <trkpt lat="43.62894" lon="0.854">
        <ele>164</ele>
        <time>2020-10-03T13:44:37.000Z</time>
      </trkpt>
      <trkpt lat="43.62892" lon="0.854">
        <ele>164</ele>
        <time>2020-10-03T13:44:39.000Z</time>
      </trkpt>
      <trkpt lat="43.62889" lon="0.85399">
        <ele>164</ele>
        <time>2020-10-03T13:44:41.000Z</time>
      </trkpt>
      <trkpt lat="43.62886" lon="0.85399">
        <ele>164.42857516033</ele>
        <time>2020-10-03T13:44:43.000Z</time>
      </trkpt>
      <trkpt lat="43.62883" lon="0.85399">
        <ele>165</ele>
        <time>2020-10-03T13:44:45.000Z</time>
      </trkpt>
      <trkpt lat="43.62881" lon="0.85399">
        <ele>165</ele>
        <time>2020-10-03T13:44:47.000Z</time>
      </trkpt>
      <trkpt lat="43.62878" lon="0.85398">
        <ele>165</ele>
        <time>2020-10-03T13:44:49.000Z</time>
      </trkpt>
      <trkpt lat="43.62875" lon="0.85397">
        <ele>165</ele>
        <time>2020-10-03T13:44:51.000Z</time>
      </trkpt>
      <trkpt lat="43.62873" lon="0.85396">
        <ele>165</ele>
        <time>2020-10-03T13:44:53.000Z</time>
      </trkpt>
      <trkpt lat="43.6287" lon="0.85395">
        <ele>166</ele>
        <time>2020-10-03T13:44:55.000Z</time>
      </trkpt>
      <trkpt lat="43.62868" lon="0.85394">
        <ele>166.42708</ele>
        <time>2020-10-03T13:44:57.000Z</time>
      </trkpt>
      <trkpt lat="43.62866" lon="0.85392">
        <ele>167</ele>
        <time>2020-10-03T13:44:59.000Z</time>
      </trkpt>
      <trkpt lat="43.62864" lon="0.85392">
        <ele>168</ele>
        <time>2020-10-03T13:45:01.000Z</time>
      </trkpt>
      <trkpt lat="43.62862" lon="0.85391">
        <ele>168.26548181375</ele>
        <time>2020-10-03T13:45:03.000Z</time>
      </trkpt>
      <trkpt lat="43.62859" lon="0.8539">
        <ele>169</ele>
        <time>2020-10-03T13:45:05.000Z</time>
      </trkpt>
      <trkpt lat="43.62857" lon="0.85389">
        <ele>170</ele>
        <time>2020-10-03T13:45:07.000Z</time>
      </trkpt>
      <trkpt lat="43.62854" lon="0.85389">
        <ele>170</ele>
        <time>2020-10-03T13:45:10.000Z</time>
      </trkpt>
      <trkpt lat="43.62852" lon="0.85389">
        <ele>170</ele>
        <time>2020-10-03T13:45:12.000Z</time>
      </trkpt>
      <trkpt lat="43.6285" lon="0.85388">
        <ele>170.42156911957</ele>
        <time>2020-10-03T13:45:14.000Z</time>
      </trkpt>
      <trkpt lat="43.62848" lon="0.85388">
        <ele>171</ele>
        <time>2020-10-03T13:45:16.000Z</time>
      </trkpt>
      <trkpt lat="43.62845" lon="0.85386">
        <ele>172</ele>
        <time>2020-10-03T13:45:18.000Z</time>
      </trkpt>
      <trkpt lat="43.62843" lon="0.85385">
        <ele>173</ele>
        <time>2020-10-03T13:45:20.000Z</time>
      </trkpt>
      <trkpt lat="43.6284" lon="0.85383">
        <ele>173.34058044948</ele>
        <time>2020-10-03T13:45:22.000Z</time>
      </trkpt>
      <trkpt lat="43.62838" lon="0.85379">
        <ele>174</ele>
        <time>2020-10-03T13:45:24.000Z</time>
      </trkpt>
      <trkpt lat="43.62837" lon="0.85375">
        <ele>174</ele>
        <time>2020-10-03T13:45:26.000Z</time>
      </trkpt>
      <trkpt lat="43.62835" lon="0.85373">
        <ele>174</ele>
        <time>2020-10-03T13:45:27.000Z</time>
      </trkpt>
      <trkpt lat="43.62835" lon="0.85371">
        <ele>174</ele>
        <time>2020-10-03T13:45:28.000Z</time>
      </trkpt>
      <trkpt lat="43.62833" lon="0.85367">
        <ele>174</ele>
        <time>2020-10-03T13:45:30.000Z</time>
      </trkpt>
      <trkpt lat="43.62832" lon="0.85364">
        <ele>174.4554406509</ele>
        <time>2020-10-03T13:45:31.000Z</time>
      </trkpt>
      <trkpt lat="43.62831" lon="0.85362">
        <ele>175</ele>
        <time>2020-10-03T13:45:32.000Z</time>
      </trkpt>
      <trkpt lat="43.62829" lon="0.8536">
        <ele>175</ele>
        <time>2020-10-03T13:45:33.000Z</time>
      </trkpt>
      <trkpt lat="43.62828" lon="0.85358">
        <ele>175</ele>
        <time>2020-10-03T13:45:34.000Z</time>
      </trkpt>
      <trkpt lat="43.62826" lon="0.85355">
        <ele>175</ele>
        <time>2020-10-03T13:45:35.000Z</time>
      </trkpt>
      <trkpt lat="43.62825" lon="0.85352">
        <ele>175</ele>
        <time>2020-10-03T13:45:36.000Z</time>
      </trkpt>
      <trkpt lat="43.62824" lon="0.85348">
        <ele>175</ele>
        <time>2020-10-03T13:45:37.000Z</time>
      </trkpt>
      <trkpt lat="43.62823" lon="0.85345">
        <ele>175</ele>
        <time>2020-10-03T13:45:38.000Z</time>
      </trkpt>
      <trkpt lat="43.62822" lon="0.85342">
        <ele>175</ele>
        <time>2020-10-03T13:45:39.000Z</time>
      </trkpt>
      <trkpt lat="43.62821" lon="0.85339">
        <ele>175</ele>
        <time>2020-10-03T13:45:40.000Z</time>
      </trkpt>
      <trkpt lat="43.6282" lon="0.85336">
        <ele>175</ele>
        <time>2020-10-03T13:45:41.000Z</time>
      </trkpt>
      <trkpt lat="43.62819" lon="0.85333">
        <ele>175</ele>
        <time>2020-10-03T13:45:42.000Z</time>
      </trkpt>
      <trkpt lat="43.62818" lon="0.85329">
        <ele>175</ele>
        <time>2020-10-03T13:45:43.000Z</time>
      </trkpt>
      <trkpt lat="43.62817" lon="0.85326">
        <ele>175</ele>
        <time>2020-10-03T13:45:44.000Z</time>
      </trkpt>
      <trkpt lat="43.62816" lon="0.85323">
        <ele>175.40593871188</ele>
        <time>2020-10-03T13:45:45.000Z</time>
      </trkpt>
      <trkpt lat="43.62815" lon="0.8532">
        <ele>176</ele>
        <time>2020-10-03T13:45:46.000Z</time>
      </trkpt>
      <trkpt lat="43.62814" lon="0.85317">
        <ele>176</ele>
        <time>2020-10-03T13:45:47.000Z</time>
      </trkpt>
      <trkpt lat="43.62813" lon="0.85314">
        <ele>176</ele>
        <time>2020-10-03T13:45:48.000Z</time>
      </trkpt>
      <trkpt lat="43.62812" lon="0.85311">
        <ele>176</ele>
        <time>2020-10-03T13:45:49.000Z</time>
      </trkpt>
      <trkpt lat="43.6281" lon="0.85308">
        <ele>176</ele>
        <time>2020-10-03T13:45:50.000Z</time>
      </trkpt>
      <trkpt lat="43.62809" lon="0.85305">
        <ele>176</ele>
        <time>2020-10-03T13:45:51.000Z</time>
      </trkpt>
      <trkpt lat="43.62807" lon="0.85303">
        <ele>176</ele>
        <time>2020-10-03T13:45:52.000Z</time>
      </trkpt>
      <trkpt lat="43.62805" lon="0.85301">
        <ele>176</ele>
        <time>2020-10-03T13:45:53.000Z</time>
      </trkpt>
      <trkpt lat="43.62804" lon="0.85301">
        <ele>176</ele>
        <time>2020-10-03T13:45:54.000Z</time>
      </trkpt>
      <trkpt lat="43.628" lon="0.85298">
        <ele>176</ele>
        <time>2020-10-03T13:45:56.000Z</time>
      </trkpt>
      <trkpt lat="43.62799" lon="0.85298">
        <ele>176.40403909805</ele>
        <time>2020-10-03T13:45:57.000Z</time>
      </trkpt>
      <trkpt lat="43.62797" lon="0.85297">
        <ele>177</ele>
        <time>2020-10-03T13:45:58.000Z</time>
      </trkpt>
      <trkpt lat="43.62795" lon="0.85296">
        <ele>177</ele>
        <time>2020-10-03T13:45:59.000Z</time>
      </trkpt>
      <trkpt lat="43.62792" lon="0.85296">
        <ele>177</ele>
        <time>2020-10-03T13:46:00.000Z</time>
      </trkpt>
      <trkpt lat="43.62791" lon="0.85295">
        <ele>177</ele>
        <time>2020-10-03T13:46:01.000Z</time>
      </trkpt>
      <trkpt lat="43.62789" lon="0.85294">
        <ele>177</ele>
        <time>2020-10-03T13:46:02.000Z</time>
      </trkpt>
      <trkpt lat="43.62787" lon="0.85293">
        <ele>177</ele>
        <time>2020-10-03T13:46:03.000Z</time>
      </trkpt>
      <trkpt lat="43.62784" lon="0.85291">
        <ele>178</ele>
        <time>2020-10-03T13:46:05.000Z</time>
      </trkpt>
      <trkpt lat="43.62781" lon="0.85289">
        <ele>178.74419158468</ele>
        <time>2020-10-03T13:46:07.000Z</time>
      </trkpt>
      <trkpt lat="43.62777" lon="0.85288">
        <ele>180</ele>
        <time>2020-10-03T13:46:09.000Z</time>
      </trkpt>
      <trkpt lat="43.62774" lon="0.85287">
        <ele>180</ele>
        <time>2020-10-03T13:46:11.000Z</time>
      </trkpt>
      <trkpt lat="43.62772" lon="0.85286">
        <ele>180</ele>
        <time>2020-10-03T13:46:12.000Z</time>
      </trkpt>
      <trkpt lat="43.6277" lon="0.85286">
        <ele>180.4403682653</ele>
        <time>2020-10-03T13:46:13.000Z</time>
      </trkpt>
      <trkpt lat="43.62768" lon="0.85285">
        <ele>181</ele>
        <time>2020-10-03T13:46:14.000Z</time>
      </trkpt>
      <trkpt lat="43.62766" lon="0.85285">
        <ele>181</ele>
        <time>2020-10-03T13:46:16.000Z</time>
      </trkpt>
      <trkpt lat="43.62763" lon="0.85285">
        <ele>181.36363424795</ele>
        <time>2020-10-03T13:46:18.000Z</time>
      </trkpt>
      <trkpt lat="43.62761" lon="0.85284">
        <ele>182</ele>
        <time>2020-10-03T13:46:19.000Z</time>
      </trkpt>
      <trkpt lat="43.62759" lon="0.85284">
        <ele>182</ele>
        <time>2020-10-03T13:46:20.000Z</time>
      </trkpt>
      <trkpt lat="43.62756" lon="0.85283">
        <ele>182</ele>
        <time>2020-10-03T13:46:22.000Z</time>
      </trkpt>
      <trkpt lat="43.62753" lon="0.85283">
        <ele>182.34483367417</ele>
        <time>2020-10-03T13:46:24.000Z</time>
      </trkpt>
      <trkpt lat="43.6275" lon="0.85282">
        <ele>183</ele>
        <time>2020-10-03T13:46:26.000Z</time>
      </trkpt>
      <trkpt lat="43.62748" lon="0.85282">
        <ele>183.35714068024</ele>
        <time>2020-10-03T13:46:27.000Z</time>
      </trkpt>
      <trkpt lat="43.62745" lon="0.85281">
        <ele>184</ele>
        <time>2020-10-03T13:46:28.000Z</time>
      </trkpt>
      <trkpt lat="43.62744" lon="0.85281">
        <ele>184</ele>
        <time>2020-10-03T13:46:29.000Z</time>
      </trkpt>
      <trkpt lat="43.62741" lon="0.85281">
        <ele>184.50261695897</ele>
        <time>2020-10-03T13:46:30.000Z</time>
      </trkpt>
      <trkpt lat="43.6274" lon="0.85281">
        <ele>185.54973562348</ele>
        <time>2020-10-03T13:46:31.000Z</time>
      </trkpt>
      <trkpt lat="43.62738" lon="0.8528">
        <ele>186</ele>
        <time>2020-10-03T13:46:32.000Z</time>
      </trkpt>
      <trkpt lat="43.62736" lon="0.85279">
        <ele>186.30554666667</ele>
        <time>2020-10-03T13:46:33.000Z</time>
      </trkpt>
      <trkpt lat="43.62734" lon="0.85279">
        <ele>187.5</ele>
        <time>2020-10-03T13:46:34.000Z</time>
      </trkpt>
      <trkpt lat="43.62732" lon="0.85279">
        <ele>188</ele>
        <time>2020-10-03T13:46:35.000Z</time>
      </trkpt>
      <trkpt lat="43.6273" lon="0.85279">
        <ele>188</ele>
        <time>2020-10-03T13:46:36.000Z</time>
      </trkpt>
      <trkpt lat="43.62728" lon="0.85279">
        <ele>188</ele>
        <time>2020-10-03T13:46:37.000Z</time>
      </trkpt>
      <trkpt lat="43.62725" lon="0.85278">
        <ele>188</ele>
        <time>2020-10-03T13:46:38.000Z</time>
      </trkpt>
      <trkpt lat="43.62721" lon="0.85277">
        <ele>188</ele>
        <time>2020-10-03T13:46:40.000Z</time>
      </trkpt>
      <trkpt lat="43.62719" lon="0.85276">
        <ele>188</ele>
        <time>2020-10-03T13:46:41.000Z</time>
      </trkpt>
      <trkpt lat="43.62717" lon="0.85274">
        <ele>188</ele>
        <time>2020-10-03T13:46:42.000Z</time>
      </trkpt>
      <trkpt lat="43.62716" lon="0.85272">
        <ele>188.4054013538</ele>
        <time>2020-10-03T13:46:43.000Z</time>
      </trkpt>
      <trkpt lat="43.62714" lon="0.8527">
        <ele>189</ele>
        <time>2020-10-03T13:46:44.000Z</time>
      </trkpt>
      <trkpt lat="43.62713" lon="0.85268">
        <ele>189</ele>
        <time>2020-10-03T13:46:45.000Z</time>
      </trkpt>
      <trkpt lat="43.62712" lon="0.85265">
        <ele>189.40000538946</ele>
        <time>2020-10-03T13:46:46.000Z</time>
      </trkpt>
      <trkpt lat="43.62711" lon="0.85261">
        <ele>190</ele>
        <time>2020-10-03T13:46:48.000Z</time>
      </trkpt>
      <trkpt lat="43.62711" lon="0.85259">
        <ele>190</ele>
        <time>2020-10-03T13:46:49.000Z</time>
      </trkpt>
      <trkpt lat="43.62711" lon="0.85256">
        <ele>190</ele>
        <time>2020-10-03T13:46:50.000Z</time>
      </trkpt>
      <trkpt lat="43.6271" lon="0.85253">
        <ele>190</ele>
        <time>2020-10-03T13:46:51.000Z</time>
      </trkpt>
      <trkpt lat="43.6271" lon="0.8525">
        <ele>190</ele>
        <time>2020-10-03T13:46:52.000Z</time>
      </trkpt>
      <trkpt lat="43.6271" lon="0.85247">
        <ele>190.41666666667</ele>
        <time>2020-10-03T13:46:53.000Z</time>
      </trkpt>
      <trkpt lat="43.62709" lon="0.85244">
        <ele>191</ele>
        <time>2020-10-03T13:46:54.000Z</time>
      </trkpt>
      <trkpt lat="43.62709" lon="0.85242">
        <ele>191</ele>
        <time>2020-10-03T13:46:55.000Z</time>
      </trkpt>
      <trkpt lat="43.62709" lon="0.85239">
        <ele>191.32691692308</ele>
        <time>2020-10-03T13:46:56.000Z</time>
      </trkpt>
      <trkpt lat="43.62709" lon="0.85236">
        <ele>192</ele>
        <time>2020-10-03T13:46:57.000Z</time>
      </trkpt>
      <trkpt lat="43.62709" lon="0.85234">
        <ele>192</ele>
        <time>2020-10-03T13:46:58.000Z</time>
      </trkpt>
      <trkpt lat="43.62709" lon="0.85229">
        <ele>192</ele>
        <time>2020-10-03T13:47:00.000Z</time>
      </trkpt>
      <trkpt lat="43.62709" lon="0.85226">
        <ele>192</ele>
        <time>2020-10-03T13:47:01.000Z</time>
      </trkpt>
      <trkpt lat="43.62709" lon="0.85223">
        <ele>192.40909038016</ele>
        <time>2020-10-03T13:47:02.000Z</time>
      </trkpt>
      <trkpt lat="43.62709" lon="0.85221">
        <ele>193</ele>
        <time>2020-10-03T13:47:03.000Z</time>
      </trkpt>
      <trkpt lat="43.6271" lon="0.85216">
        <ele>192</ele>
        <time>2020-10-03T13:47:05.000Z</time>
      </trkpt>
      <trkpt lat="43.6271" lon="0.85213">
        <ele>192</ele>
        <time>2020-10-03T13:47:06.000Z</time>
      </trkpt>
      <trkpt lat="43.6271" lon="0.8521">
        <ele>192</ele>
        <time>2020-10-03T13:47:07.000Z</time>
      </trkpt>
      <trkpt lat="43.62709" lon="0.85207">
        <ele>192.46078455978</ele>
        <time>2020-10-03T13:47:08.000Z</time>
      </trkpt>
      <trkpt lat="43.62708" lon="0.85203">
        <ele>193</ele>
        <time>2020-10-03T13:47:09.000Z</time>
      </trkpt>
      <trkpt lat="43.62708" lon="0.852">
        <ele>193</ele>
        <time>2020-10-03T13:47:10.000Z</time>
      </trkpt>
      <trkpt lat="43.62708" lon="0.85197">
        <ele>193</ele>
        <time>2020-10-03T13:47:11.000Z</time>
      </trkpt>
      <trkpt lat="43.62708" lon="0.85194">
        <ele>193</ele>
        <time>2020-10-03T13:47:12.000Z</time>
      </trkpt>
      <trkpt lat="43.62708" lon="0.85191">
        <ele>193</ele>
        <time>2020-10-03T13:47:13.000Z</time>
      </trkpt>
      <trkpt lat="43.62708" lon="0.85189">
        <ele>193</ele>
        <time>2020-10-03T13:47:14.000Z</time>
      </trkpt>
      <trkpt lat="43.62708" lon="0.85185">
        <ele>193</ele>
        <time>2020-10-03T13:47:15.000Z</time>
      </trkpt>
      <trkpt lat="43.62708" lon="0.85182">
        <ele>193.24137931034</ele>
        <time>2020-10-03T13:47:16.000Z</time>
      </trkpt>
      <trkpt lat="43.62707" lon="0.85179">
        <ele>194</ele>
        <time>2020-10-03T13:47:17.000Z</time>
      </trkpt>
      <trkpt lat="43.62706" lon="0.85176">
        <ele>194</ele>
        <time>2020-10-03T13:47:18.000Z</time>
      </trkpt>
      <trkpt lat="43.62706" lon="0.85173">
        <ele>194</ele>
        <time>2020-10-03T13:47:19.000Z</time>
      </trkpt>
      <trkpt lat="43.62706" lon="0.85169">
        <ele>194</ele>
        <time>2020-10-03T13:47:20.000Z</time>
      </trkpt>
      <trkpt lat="43.62705" lon="0.85166">
        <ele>194</ele>
        <time>2020-10-03T13:47:21.000Z</time>
      </trkpt>
      <trkpt lat="43.62705" lon="0.85163">
        <ele>193.58163318618</ele>
        <time>2020-10-03T13:47:22.000Z</time>
      </trkpt>
      <trkpt lat="43.62705" lon="0.8516">
        <ele>193</ele>
        <time>2020-10-03T13:47:23.000Z</time>
      </trkpt>
      <trkpt lat="43.62704" lon="0.85157">
        <ele>193.77876326729</ele>
        <time>2020-10-03T13:47:24.000Z</time>
      </trkpt>
      <trkpt lat="43.62703" lon="0.85154">
        <ele>195</ele>
        <time>2020-10-03T13:47:25.000Z</time>
      </trkpt>
      <trkpt lat="43.62702" lon="0.85151">
        <ele>195</ele>
        <time>2020-10-03T13:47:26.000Z</time>
      </trkpt>
      <trkpt lat="43.62701" lon="0.85148">
        <ele>195</ele>
        <time>2020-10-03T13:47:27.000Z</time>
      </trkpt>
      <trkpt lat="43.62699" lon="0.85146">
        <ele>195</ele>
        <time>2020-10-03T13:47:28.000Z</time>
      </trkpt>
      <trkpt lat="43.62698" lon="0.85143">
        <ele>195.40403909805</ele>
        <time>2020-10-03T13:47:29.000Z</time>
      </trkpt>
      <trkpt lat="43.62696" lon="0.8514">
        <ele>196</ele>
        <time>2020-10-03T13:47:30.000Z</time>
      </trkpt>
      <trkpt lat="43.62695" lon="0.85137">
        <ele>196</ele>
        <time>2020-10-03T13:47:31.000Z</time>
      </trkpt>
      <trkpt lat="43.62694" lon="0.85134">
        <ele>196</ele>
        <time>2020-10-03T13:47:32.000Z</time>
      </trkpt>
      <trkpt lat="43.62692" lon="0.85132">
        <ele>196</ele>
        <time>2020-10-03T13:47:33.000Z</time>
      </trkpt>
      <trkpt lat="43.62691" lon="0.85129">
        <ele>196</ele>
        <time>2020-10-03T13:47:34.000Z</time>
      </trkpt>
      <trkpt lat="43.6269" lon="0.85126">
        <ele>196</ele>
        <time>2020-10-03T13:47:35.000Z</time>
      </trkpt>
      <trkpt lat="43.62689" lon="0.85124">
        <ele>196</ele>
        <time>2020-10-03T13:47:36.000Z</time>
      </trkpt>
      <trkpt lat="43.62688" lon="0.85121">
        <ele>196</ele>
        <time>2020-10-03T13:47:37.000Z</time>
      </trkpt>
      <trkpt lat="43.62686" lon="0.85118">
        <ele>196</ele>
        <time>2020-10-03T13:47:38.000Z</time>
      </trkpt>
      <trkpt lat="43.62685" lon="0.85116">
        <ele>196</ele>
        <time>2020-10-03T13:47:39.000Z</time>
      </trkpt>
      <trkpt lat="43.62683" lon="0.85113">
        <ele>196</ele>
        <time>2020-10-03T13:47:40.000Z</time>
      </trkpt>
      <trkpt lat="43.62682" lon="0.85111">
        <ele>196.25352899818</ele>
        <time>2020-10-03T13:47:41.000Z</time>
      </trkpt>
      <trkpt lat="43.6268" lon="0.85109">
        <ele>197</ele>
        <time>2020-10-03T13:47:42.000Z</time>
      </trkpt>
      <trkpt lat="43.62679" lon="0.85106">
        <ele>197</ele>
        <time>2020-10-03T13:47:43.000Z</time>
      </trkpt>
      <trkpt lat="43.62677" lon="0.85104">
        <ele>197</ele>
        <time>2020-10-03T13:47:44.000Z</time>
      </trkpt>
      <trkpt lat="43.62676" lon="0.85101">
        <ele>197</ele>
        <time>2020-10-03T13:47:45.000Z</time>
      </trkpt>
      <trkpt lat="43.62675" lon="0.85098">
        <ele>197</ele>
        <time>2020-10-03T13:47:46.000Z</time>
      </trkpt>
      <trkpt lat="43.62673" lon="0.85096">
        <ele>197</ele>
        <time>2020-10-03T13:47:47.000Z</time>
      </trkpt>
      <trkpt lat="43.62672" lon="0.85093">
        <ele>197</ele>
        <time>2020-10-03T13:47:48.000Z</time>
      </trkpt>
      <trkpt lat="43.6267" lon="0.8509">
        <ele>197</ele>
        <time>2020-10-03T13:47:49.000Z</time>
      </trkpt>
      <trkpt lat="43.62669" lon="0.85087">
        <ele>197</ele>
        <time>2020-10-03T13:47:50.000Z</time>
      </trkpt>
      <trkpt lat="43.62667" lon="0.85083">
        <ele>197</ele>
        <time>2020-10-03T13:47:51.000Z</time>
      </trkpt>
      <trkpt lat="43.62666" lon="0.8508">
        <ele>196.7058779239</ele>
        <time>2020-10-03T13:47:52.000Z</time>
      </trkpt>
      <trkpt lat="43.62665" lon="0.85077">
        <ele>196</ele>
        <time>2020-10-03T13:47:53.000Z</time>
      </trkpt>
      <trkpt lat="43.62663" lon="0.85075">
        <ele>196</ele>
        <time>2020-10-03T13:47:54.000Z</time>
      </trkpt>
      <trkpt lat="43.62662" lon="0.85073">
        <ele>196</ele>
        <time>2020-10-03T13:47:55.000Z</time>
      </trkpt>
      <trkpt lat="43.6266" lon="0.8507">
        <ele>196</ele>
        <time>2020-10-03T13:47:56.000Z</time>
      </trkpt>
      <trkpt lat="43.62659" lon="0.85066">
        <ele>196</ele>
        <time>2020-10-03T13:47:57.000Z</time>
      </trkpt>
      <trkpt lat="43.62658" lon="0.85063">
        <ele>196</ele>
        <time>2020-10-03T13:47:58.000Z</time>
      </trkpt>
      <trkpt lat="43.62657" lon="0.8506">
        <ele>196</ele>
        <time>2020-10-03T13:47:59.000Z</time>
      </trkpt>
      <trkpt lat="43.62656" lon="0.85057">
        <ele>196</ele>
        <time>2020-10-03T13:48:00.000Z</time>
      </trkpt>
      <trkpt lat="43.62655" lon="0.85054">
        <ele>196.23077074554</ele>
        <time>2020-10-03T13:48:01.000Z</time>
      </trkpt>
      <trkpt lat="43.62653" lon="0.85052">
        <ele>197</ele>
        <time>2020-10-03T13:48:02.000Z</time>
      </trkpt>
      <trkpt lat="43.62652" lon="0.85049">
        <ele>197</ele>
        <time>2020-10-03T13:48:03.000Z</time>
      </trkpt>
      <trkpt lat="43.62651" lon="0.85045">
        <ele>197</ele>
        <time>2020-10-03T13:48:04.000Z</time>
      </trkpt>
      <trkpt lat="43.6265" lon="0.85042">
        <ele>197</ele>
        <time>2020-10-03T13:48:05.000Z</time>
      </trkpt>
      <trkpt lat="43.62649" lon="0.85039">
        <ele>196.5789487867</ele>
        <time>2020-10-03T13:48:06.000Z</time>
      </trkpt>
      <trkpt lat="43.62648" lon="0.85035">
        <ele>196</ele>
        <time>2020-10-03T13:48:07.000Z</time>
      </trkpt>
      <trkpt lat="43.62647" lon="0.85032">
        <ele>196</ele>
        <time>2020-10-03T13:48:08.000Z</time>
      </trkpt>
      <trkpt lat="43.62646" lon="0.85029">
        <ele>196</ele>
        <time>2020-10-03T13:48:09.000Z</time>
      </trkpt>
      <trkpt lat="43.62645" lon="0.85026">
        <ele>196</ele>
        <time>2020-10-03T13:48:10.000Z</time>
      </trkpt>
      <trkpt lat="43.62645" lon="0.85023">
        <ele>196</ele>
        <time>2020-10-03T13:48:11.000Z</time>
      </trkpt>
      <trkpt lat="43.62644" lon="0.8502">
        <ele>196</ele>
        <time>2020-10-03T13:48:12.000Z</time>
      </trkpt>
      <trkpt lat="43.62643" lon="0.85017">
        <ele>196.32539593852</ele>
        <time>2020-10-03T13:48:13.000Z</time>
      </trkpt>
      <trkpt lat="43.62642" lon="0.85014">
        <ele>197</ele>
        <time>2020-10-03T13:48:14.000Z</time>
      </trkpt>
      <trkpt lat="43.62641" lon="0.85011">
        <ele>197</ele>
        <time>2020-10-03T13:48:15.000Z</time>
      </trkpt>
      <trkpt lat="43.62639" lon="0.85009">
        <ele>197</ele>
        <time>2020-10-03T13:48:16.000Z</time>
      </trkpt>
      <trkpt lat="43.62638" lon="0.85006">
        <ele>197</ele>
        <time>2020-10-03T13:48:17.000Z</time>
      </trkpt>
      <trkpt lat="43.62638" lon="0.85003">
        <ele>197</ele>
        <time>2020-10-03T13:48:18.000Z</time>
      </trkpt>
      <trkpt lat="43.62637" lon="0.85001">
        <ele>197</ele>
        <time>2020-10-03T13:48:19.000Z</time>
      </trkpt>
      <trkpt lat="43.62636" lon="0.84996">
        <ele>197</ele>
        <time>2020-10-03T13:48:21.000Z</time>
      </trkpt>
      <trkpt lat="43.62635" lon="0.84993">
        <ele>197</ele>
        <time>2020-10-03T13:48:22.000Z</time>
      </trkpt>
      <trkpt lat="43.62635" lon="0.8499">
        <ele>197</ele>
        <time>2020-10-03T13:48:23.000Z</time>
      </trkpt>
      <trkpt lat="43.62634" lon="0.84986">
        <ele>197</ele>
        <time>2020-10-03T13:48:24.000Z</time>
      </trkpt>
      <trkpt lat="43.62633" lon="0.84983">
        <ele>197</ele>
        <time>2020-10-03T13:48:25.000Z</time>
      </trkpt>
      <trkpt lat="43.62633" lon="0.8498">
        <ele>197</ele>
        <time>2020-10-03T13:48:26.000Z</time>
      </trkpt>
      <trkpt lat="43.62632" lon="0.84978">
        <ele>197</ele>
        <time>2020-10-03T13:48:27.000Z</time>
      </trkpt>
      <trkpt lat="43.62631" lon="0.84975">
        <ele>197</ele>
        <time>2020-10-03T13:48:28.000Z</time>
      </trkpt>
      <trkpt lat="43.6263" lon="0.84972">
        <ele>197</ele>
        <time>2020-10-03T13:48:29.000Z</time>
      </trkpt>
      <trkpt lat="43.62629" lon="0.84969">
        <ele>197</ele>
        <time>2020-10-03T13:48:30.000Z</time>
      </trkpt>
      <trkpt lat="43.62628" lon="0.84966">
        <ele>197.43299200338</ele>
        <time>2020-10-03T13:48:31.000Z</time>
      </trkpt>
      <trkpt lat="43.62627" lon="0.84963">
        <ele>198</ele>
        <time>2020-10-03T13:48:32.000Z</time>
      </trkpt>
      <trkpt lat="43.62626" lon="0.84959">
        <ele>198</ele>
        <time>2020-10-03T13:48:33.000Z</time>
      </trkpt>
      <trkpt lat="43.62625" lon="0.84956">
        <ele>198</ele>
        <time>2020-10-03T13:48:34.000Z</time>
      </trkpt>
      <trkpt lat="43.62624" lon="0.84952">
        <ele>198</ele>
        <time>2020-10-03T13:48:35.000Z</time>
      </trkpt>
      <trkpt lat="43.62624" lon="0.84948">
        <ele>198</ele>
        <time>2020-10-03T13:48:36.000Z</time>
      </trkpt>
      <trkpt lat="43.62623" lon="0.84945">
        <ele>198</ele>
        <time>2020-10-03T13:48:37.000Z</time>
      </trkpt>
      <trkpt lat="43.62623" lon="0.84942">
        <ele>198</ele>
        <time>2020-10-03T13:48:38.000Z</time>
      </trkpt>
      <trkpt lat="43.62622" lon="0.84938">
        <ele>198</ele>
        <time>2020-10-03T13:48:39.000Z</time>
      </trkpt>
      <trkpt lat="43.62621" lon="0.84935">
        <ele>198</ele>
        <time>2020-10-03T13:48:40.000Z</time>
      </trkpt>
      <trkpt lat="43.6262" lon="0.84932">
        <ele>198</ele>
        <time>2020-10-03T13:48:41.000Z</time>
      </trkpt>
      <trkpt lat="43.6262" lon="0.84929">
        <ele>198</ele>
        <time>2020-10-03T13:48:42.000Z</time>
      </trkpt>
      <trkpt lat="43.62619" lon="0.84925">
        <ele>198</ele>
        <time>2020-10-03T13:48:43.000Z</time>
      </trkpt>
      <trkpt lat="43.62619" lon="0.84922">
        <ele>198</ele>
        <time>2020-10-03T13:48:44.000Z</time>
      </trkpt>
      <trkpt lat="43.62618" lon="0.84919">
        <ele>198</ele>
        <time>2020-10-03T13:48:45.000Z</time>
      </trkpt>
      <trkpt lat="43.62617" lon="0.84915">
        <ele>198</ele>
        <time>2020-10-03T13:48:46.000Z</time>
      </trkpt>
      <trkpt lat="43.62616" lon="0.84912">
        <ele>198</ele>
        <time>2020-10-03T13:48:47.000Z</time>
      </trkpt>
      <trkpt lat="43.62615" lon="0.84909">
        <ele>198</ele>
        <time>2020-10-03T13:48:48.000Z</time>
      </trkpt>
      <trkpt lat="43.62615" lon="0.84906">
        <ele>198</ele>
        <time>2020-10-03T13:48:49.000Z</time>
      </trkpt>
      <trkpt lat="43.62614" lon="0.84903">
        <ele>198</ele>
        <time>2020-10-03T13:48:50.000Z</time>
      </trkpt>
      <trkpt lat="43.62614" lon="0.849">
        <ele>198</ele>
        <time>2020-10-03T13:48:51.000Z</time>
      </trkpt>
      <trkpt lat="43.62614" lon="0.84897">
        <ele>198</ele>
        <time>2020-10-03T13:48:52.000Z</time>
      </trkpt>
      <trkpt lat="43.62613" lon="0.84894">
        <ele>198</ele>
        <time>2020-10-03T13:48:53.000Z</time>
      </trkpt>
      <trkpt lat="43.62613" lon="0.84891">
        <ele>198</ele>
        <time>2020-10-03T13:48:54.000Z</time>
      </trkpt>
      <trkpt lat="43.62612" lon="0.84888">
        <ele>198.41836681382</ele>
        <time>2020-10-03T13:48:55.000Z</time>
      </trkpt>
      <trkpt lat="43.62611" lon="0.84885">
        <ele>199</ele>
        <time>2020-10-03T13:48:56.000Z</time>
      </trkpt>
      <trkpt lat="43.62611" lon="0.84882">
        <ele>199</ele>
        <time>2020-10-03T13:48:57.000Z</time>
      </trkpt>
      <trkpt lat="43.6261" lon="0.84879">
        <ele>199</ele>
        <time>2020-10-03T13:48:58.000Z</time>
      </trkpt>
      <trkpt lat="43.6261" lon="0.84876">
        <ele>199</ele>
        <time>2020-10-03T13:48:59.000Z</time>
      </trkpt>
      <trkpt lat="43.62609" lon="0.84873">
        <ele>199</ele>
        <time>2020-10-03T13:49:00.000Z</time>
      </trkpt>
      <trkpt lat="43.62608" lon="0.84869">
        <ele>199</ele>
        <time>2020-10-03T13:49:01.000Z</time>
      </trkpt>
      <trkpt lat="43.62608" lon="0.84866">
        <ele>199</ele>
        <time>2020-10-03T13:49:02.000Z</time>
      </trkpt>
      <trkpt lat="43.62607" lon="0.84862">
        <ele>199</ele>
        <time>2020-10-03T13:49:03.000Z</time>
      </trkpt>
      <trkpt lat="43.62607" lon="0.84859">
        <ele>199</ele>
        <time>2020-10-03T13:49:04.000Z</time>
      </trkpt>
      <trkpt lat="43.62606" lon="0.84856">
        <ele>199</ele>
        <time>2020-10-03T13:49:05.000Z</time>
      </trkpt>
      <trkpt lat="43.62605" lon="0.84853">
        <ele>199</ele>
        <time>2020-10-03T13:49:06.000Z</time>
      </trkpt>
      <trkpt lat="43.62605" lon="0.8485">
        <ele>199</ele>
        <time>2020-10-03T13:49:07.000Z</time>
      </trkpt>
      <trkpt lat="43.62604" lon="0.84847">
        <ele>199.40000538946</ele>
        <time>2020-10-03T13:49:08.000Z</time>
      </trkpt>
      <trkpt lat="43.62603" lon="0.84844">
        <ele>200</ele>
        <time>2020-10-03T13:49:09.000Z</time>
      </trkpt>
      <trkpt lat="43.62602" lon="0.84841">
        <ele>200.30769314925</ele>
        <time>2020-10-03T13:49:10.000Z</time>
      </trkpt>
      <trkpt lat="43.62602" lon="0.84838">
        <ele>201</ele>
        <time>2020-10-03T13:49:11.000Z</time>
      </trkpt>
      <trkpt lat="43.62601" lon="0.84835">
        <ele>201</ele>
        <time>2020-10-03T13:49:12.000Z</time>
      </trkpt>
      <trkpt lat="43.62601" lon="0.84832">
        <ele>201</ele>
        <time>2020-10-03T13:49:13.000Z</time>
      </trkpt>
      <trkpt lat="43.626" lon="0.84829">
        <ele>201</ele>
        <time>2020-10-03T13:49:14.000Z</time>
      </trkpt>
      <trkpt lat="43.626" lon="0.84826">
        <ele>201</ele>
        <time>2020-10-03T13:49:15.000Z</time>
      </trkpt>
      <trkpt lat="43.62599" lon="0.84823">
        <ele>201</ele>
        <time>2020-10-03T13:49:16.000Z</time>
      </trkpt>
      <trkpt lat="43.62598" lon="0.84819">
        <ele>201</ele>
        <time>2020-10-03T13:49:17.000Z</time>
      </trkpt>
      <trkpt lat="43.62597" lon="0.84816">
        <ele>201</ele>
        <time>2020-10-03T13:49:18.000Z</time>
      </trkpt>
      <trkpt lat="43.62597" lon="0.84813">
        <ele>201</ele>
        <time>2020-10-03T13:49:19.000Z</time>
      </trkpt>
      <trkpt lat="43.62596" lon="0.84809">
        <ele>201</ele>
        <time>2020-10-03T13:49:20.000Z</time>
      </trkpt>
      <trkpt lat="43.62595" lon="0.84806">
        <ele>201</ele>
        <time>2020-10-03T13:49:21.000Z</time>
      </trkpt>
      <trkpt lat="43.62594" lon="0.84803">
        <ele>201</ele>
        <time>2020-10-03T13:49:22.000Z</time>
      </trkpt>
      <trkpt lat="43.62593" lon="0.84801">
        <ele>201.40593871188</ele>
        <time>2020-10-03T13:49:23.000Z</time>
      </trkpt>
      <trkpt lat="43.62592" lon="0.84798">
        <ele>202</ele>
        <time>2020-10-03T13:49:24.000Z</time>
      </trkpt>
      <trkpt lat="43.62592" lon="0.84795">
        <ele>202</ele>
        <time>2020-10-03T13:49:25.000Z</time>
      </trkpt>
      <trkpt lat="43.62591" lon="0.84791">
        <ele>202</ele>
        <time>2020-10-03T13:49:26.000Z</time>
      </trkpt>
      <trkpt lat="43.6259" lon="0.84789">
        <ele>202</ele>
        <time>2020-10-03T13:49:27.000Z</time>
      </trkpt>
      <trkpt lat="43.6259" lon="0.84786">
        <ele>202</ele>
        <time>2020-10-03T13:49:28.000Z</time>
      </trkpt>
      <trkpt lat="43.62589" lon="0.84783">
        <ele>202</ele>
        <time>2020-10-03T13:49:29.000Z</time>
      </trkpt>
      <trkpt lat="43.62589" lon="0.8478">
        <ele>202</ele>
        <time>2020-10-03T13:49:30.000Z</time>
      </trkpt>
      <trkpt lat="43.62588" lon="0.84777">
        <ele>202</ele>
        <time>2020-10-03T13:49:31.000Z</time>
      </trkpt>
      <trkpt lat="43.62588" lon="0.84774">
        <ele>202</ele>
        <time>2020-10-03T13:49:32.000Z</time>
      </trkpt>
      <trkpt lat="43.62588" lon="0.84771">
        <ele>202</ele>
        <time>2020-10-03T13:49:33.000Z</time>
      </trkpt>
      <trkpt lat="43.62588" lon="0.84767">
        <ele>202</ele>
        <time>2020-10-03T13:49:34.000Z</time>
      </trkpt>
      <trkpt lat="43.62588" lon="0.84764">
        <ele>202</ele>
        <time>2020-10-03T13:49:35.000Z</time>
      </trkpt>
      <trkpt lat="43.62588" lon="0.84761">
        <ele>202</ele>
        <time>2020-10-03T13:49:36.000Z</time>
      </trkpt>
      <trkpt lat="43.62588" lon="0.84757">
        <ele>202</ele>
        <time>2020-10-03T13:49:37.000Z</time>
      </trkpt>
      <trkpt lat="43.62588" lon="0.84754">
        <ele>202.33696</ele>
        <time>2020-10-03T13:49:38.000Z</time>
      </trkpt>
      <trkpt lat="43.62589" lon="0.84751">
        <ele>203</ele>
        <time>2020-10-03T13:49:39.000Z</time>
      </trkpt>
      <trkpt lat="43.62589" lon="0.84747">
        <ele>203</ele>
        <time>2020-10-03T13:49:40.000Z</time>
      </trkpt>
      <trkpt lat="43.62589" lon="0.84744">
        <ele>203.8199936</ele>
        <time>2020-10-03T13:49:41.000Z</time>
      </trkpt>
      <trkpt lat="43.6259" lon="0.84741">
        <ele>205</ele>
        <time>2020-10-03T13:49:42.000Z</time>
      </trkpt>
      <trkpt lat="43.6259" lon="0.84737">
        <ele>205</ele>
        <time>2020-10-03T13:49:43.000Z</time>
      </trkpt>
      <trkpt lat="43.62591" lon="0.84734">
        <ele>205</ele>
        <time>2020-10-03T13:49:44.000Z</time>
      </trkpt>
      <trkpt lat="43.62591" lon="0.84731">
        <ele>205</ele>
        <time>2020-10-03T13:49:45.000Z</time>
      </trkpt>
      <trkpt lat="43.62592" lon="0.84728">
        <ele>205</ele>
        <time>2020-10-03T13:49:46.000Z</time>
      </trkpt>
      <trkpt lat="43.62593" lon="0.84724">
        <ele>205</ele>
        <time>2020-10-03T13:49:47.000Z</time>
      </trkpt>
      <trkpt lat="43.62594" lon="0.84721">
        <ele>205</ele>
        <time>2020-10-03T13:49:48.000Z</time>
      </trkpt>
      <trkpt lat="43.62595" lon="0.84718">
        <ele>205</ele>
        <time>2020-10-03T13:49:49.000Z</time>
      </trkpt>
      <trkpt lat="43.62595" lon="0.84715">
        <ele>205</ele>
        <time>2020-10-03T13:49:50.000Z</time>
      </trkpt>
      <trkpt lat="43.62596" lon="0.84712">
        <ele>205</ele>
        <time>2020-10-03T13:49:51.000Z</time>
      </trkpt>
      <trkpt lat="43.62597" lon="0.84708">
        <ele>205</ele>
        <time>2020-10-03T13:49:52.000Z</time>
      </trkpt>
      <trkpt lat="43.62598" lon="0.84705">
        <ele>205</ele>
        <time>2020-10-03T13:49:53.000Z</time>
      </trkpt>
      <trkpt lat="43.62599" lon="0.84701">
        <ele>205</ele>
        <time>2020-10-03T13:49:54.000Z</time>
      </trkpt>
      <trkpt lat="43.62599" lon="0.84698">
        <ele>205.41836681382</ele>
        <time>2020-10-03T13:49:55.000Z</time>
      </trkpt>
      <trkpt lat="43.626" lon="0.84695">
        <ele>206</ele>
        <time>2020-10-03T13:49:56.000Z</time>
      </trkpt>
      <trkpt lat="43.62601" lon="0.84692">
        <ele>206</ele>
        <time>2020-10-03T13:49:57.000Z</time>
      </trkpt>
      <trkpt lat="43.62602" lon="0.84688">
        <ele>206</ele>
        <time>2020-10-03T13:49:58.000Z</time>
      </trkpt>
      <trkpt lat="43.62603" lon="0.84685">
        <ele>205.683167313</ele>
        <time>2020-10-03T13:49:59.000Z</time>
      </trkpt>
      <trkpt lat="43.62605" lon="0.84682">
        <ele>205</ele>
        <time>2020-10-03T13:50:00.000Z</time>
      </trkpt>
      <trkpt lat="43.62606" lon="0.84679">
        <ele>205</ele>
        <time>2020-10-03T13:50:01.000Z</time>
      </trkpt>
      <trkpt lat="43.62607" lon="0.84676">
        <ele>205</ele>
        <time>2020-10-03T13:50:02.000Z</time>
      </trkpt>
      <trkpt lat="43.62608" lon="0.84673">
        <ele>205</ele>
        <time>2020-10-03T13:50:03.000Z</time>
      </trkpt>
      <trkpt lat="43.62609" lon="0.8467">
        <ele>205</ele>
        <time>2020-10-03T13:50:04.000Z</time>
      </trkpt>
      <trkpt lat="43.6261" lon="0.84667">
        <ele>205</ele>
        <time>2020-10-03T13:50:05.000Z</time>
      </trkpt>
      <trkpt lat="43.62612" lon="0.84664">
        <ele>205.03845017724</ele>
        <time>2020-10-03T13:50:06.000Z</time>
      </trkpt>
      <trkpt lat="43.62613" lon="0.84662">
        <ele>206</ele>
        <time>2020-10-03T13:50:07.000Z</time>
      </trkpt>
      <trkpt lat="43.62614" lon="0.84659">
        <ele>206</ele>
        <time>2020-10-03T13:50:08.000Z</time>
      </trkpt>
      <trkpt lat="43.62615" lon="0.84656">
        <ele>206</ele>
        <time>2020-10-03T13:50:09.000Z</time>
      </trkpt>
      <trkpt lat="43.62616" lon="0.84653">
        <ele>206</ele>
        <time>2020-10-03T13:50:10.000Z</time>
      </trkpt>
      <trkpt lat="43.62618" lon="0.8465">
        <ele>206</ele>
        <time>2020-10-03T13:50:11.000Z</time>
      </trkpt>
      <trkpt lat="43.62619" lon="0.84647">
        <ele>206.28712645426</ele>
        <time>2020-10-03T13:50:12.000Z</time>
      </trkpt>
      <trkpt lat="43.6262" lon="0.84644">
        <ele>207</ele>
        <time>2020-10-03T13:50:13.000Z</time>
      </trkpt>
      <trkpt lat="43.62622" lon="0.84641">
        <ele>207</ele>
        <time>2020-10-03T13:50:14.000Z</time>
      </trkpt>
      <trkpt lat="43.62624" lon="0.84638">
        <ele>207</ele>
        <time>2020-10-03T13:50:15.000Z</time>
      </trkpt>
      <trkpt lat="43.62625" lon="0.84636">
        <ele>207</ele>
        <time>2020-10-03T13:50:16.000Z</time>
      </trkpt>
      <trkpt lat="43.62627" lon="0.84633">
        <ele>207</ele>
        <time>2020-10-03T13:50:17.000Z</time>
      </trkpt>
      <trkpt lat="43.62629" lon="0.8463">
        <ele>207</ele>
        <time>2020-10-03T13:50:18.000Z</time>
      </trkpt>
      <trkpt lat="43.62631" lon="0.84628">
        <ele>207</ele>
        <time>2020-10-03T13:50:19.000Z</time>
      </trkpt>
      <trkpt lat="43.62632" lon="0.84625">
        <ele>207</ele>
        <time>2020-10-03T13:50:20.000Z</time>
      </trkpt>
      <trkpt lat="43.62635" lon="0.84623">
        <ele>207</ele>
        <time>2020-10-03T13:50:21.000Z</time>
      </trkpt>
      <trkpt lat="43.62637" lon="0.84621">
        <ele>207</ele>
        <time>2020-10-03T13:50:22.000Z</time>
      </trkpt>
      <trkpt lat="43.62639" lon="0.84618">
        <ele>207</ele>
        <time>2020-10-03T13:50:23.000Z</time>
      </trkpt>
      <trkpt lat="43.62641" lon="0.84616">
        <ele>207</ele>
        <time>2020-10-03T13:50:24.000Z</time>
      </trkpt>
      <trkpt lat="43.62643" lon="0.84614">
        <ele>207</ele>
        <time>2020-10-03T13:50:25.000Z</time>
      </trkpt>
      <trkpt lat="43.62645" lon="0.84612">
        <ele>207</ele>
        <time>2020-10-03T13:50:26.000Z</time>
      </trkpt>
      <trkpt lat="43.62647" lon="0.8461">
        <ele>207</ele>
        <time>2020-10-03T13:50:27.000Z</time>
      </trkpt>
      <trkpt lat="43.6265" lon="0.84607">
        <ele>207</ele>
        <time>2020-10-03T13:50:28.000Z</time>
      </trkpt>
      <trkpt lat="43.62652" lon="0.84605">
        <ele>207</ele>
        <time>2020-10-03T13:50:29.000Z</time>
      </trkpt>
      <trkpt lat="43.62654" lon="0.84603">
        <ele>207</ele>
        <time>2020-10-03T13:50:30.000Z</time>
      </trkpt>
      <trkpt lat="43.62657" lon="0.84601">
        <ele>207</ele>
        <time>2020-10-03T13:50:31.000Z</time>
      </trkpt>
      <trkpt lat="43.62659" lon="0.846">
        <ele>206.58585780226</ele>
        <time>2020-10-03T13:50:32.000Z</time>
      </trkpt>
      <trkpt lat="43.62662" lon="0.84598">
        <ele>206</ele>
        <time>2020-10-03T13:50:33.000Z</time>
      </trkpt>
      <trkpt lat="43.62664" lon="0.84597">
        <ele>206.40816593088</ele>
        <time>2020-10-03T13:50:34.000Z</time>
      </trkpt>
      <trkpt lat="43.62667" lon="0.84595">
        <ele>207</ele>
        <time>2020-10-03T13:50:35.000Z</time>
      </trkpt>
      <trkpt lat="43.62669" lon="0.84594">
        <ele>207</ele>
        <time>2020-10-03T13:50:36.000Z</time>
      </trkpt>
      <trkpt lat="43.62672" lon="0.84593">
        <ele>207</ele>
        <time>2020-10-03T13:50:37.000Z</time>
      </trkpt>
      <trkpt lat="43.62674" lon="0.84592">
        <ele>207</ele>
        <time>2020-10-03T13:50:38.000Z</time>
      </trkpt>
      <trkpt lat="43.62677" lon="0.84591">
        <ele>207</ele>
        <time>2020-10-03T13:50:39.000Z</time>
      </trkpt>
      <trkpt lat="43.6268" lon="0.8459">
        <ele>207</ele>
        <time>2020-10-03T13:50:40.000Z</time>
      </trkpt>
      <trkpt lat="43.62683" lon="0.84589">
        <ele>206.58415603178</ele>
        <time>2020-10-03T13:50:41.000Z</time>
      </trkpt>
      <trkpt lat="43.62686" lon="0.84588">
        <ele>206</ele>
        <time>2020-10-03T13:50:42.000Z</time>
      </trkpt>
      <trkpt lat="43.62688" lon="0.84588">
        <ele>206</ele>
        <time>2020-10-03T13:50:43.000Z</time>
      </trkpt>
      <trkpt lat="43.62691" lon="0.84587">
        <ele>206</ele>
        <time>2020-10-03T13:50:44.000Z</time>
      </trkpt>
      <trkpt lat="43.62694" lon="0.84586">
        <ele>206</ele>
        <time>2020-10-03T13:50:45.000Z</time>
      </trkpt>
      <trkpt lat="43.62697" lon="0.84585">
        <ele>205.92404283932</ele>
        <time>2020-10-03T13:50:46.000Z</time>
      </trkpt>
      <trkpt lat="43.62699" lon="0.84584">
        <ele>205</ele>
        <time>2020-10-03T13:50:47.000Z</time>
      </trkpt>
      <trkpt lat="43.62702" lon="0.84583">
        <ele>205</ele>
        <time>2020-10-03T13:50:48.000Z</time>
      </trkpt>
      <trkpt lat="43.62704" lon="0.84581">
        <ele>205</ele>
        <time>2020-10-03T13:50:49.000Z</time>
      </trkpt>
      <trkpt lat="43.62707" lon="0.8458">
        <ele>205</ele>
        <time>2020-10-03T13:50:50.000Z</time>
      </trkpt>
      <trkpt lat="43.6271" lon="0.84578">
        <ele>205</ele>
        <time>2020-10-03T13:50:51.000Z</time>
      </trkpt>
      <trkpt lat="43.62712" lon="0.84577">
        <ele>205</ele>
        <time>2020-10-03T13:50:52.000Z</time>
      </trkpt>
      <trkpt lat="43.62715" lon="0.84576">
        <ele>204.6511676366</ele>
        <time>2020-10-03T13:50:53.000Z</time>
      </trkpt>
      <trkpt lat="43.62718" lon="0.84574">
        <ele>204</ele>
        <time>2020-10-03T13:50:54.000Z</time>
      </trkpt>
      <trkpt lat="43.62721" lon="0.84573">
        <ele>203.64706502424</ele>
        <time>2020-10-03T13:50:55.000Z</time>
      </trkpt>
      <trkpt lat="43.62723" lon="0.84572">
        <ele>203</ele>
        <time>2020-10-03T13:50:56.000Z</time>
      </trkpt>
      <trkpt lat="43.62726" lon="0.84571">
        <ele>203</ele>
        <time>2020-10-03T13:50:57.000Z</time>
      </trkpt>
      <trkpt lat="43.62729" lon="0.8457">
        <ele>203</ele>
        <time>2020-10-03T13:50:58.000Z</time>
      </trkpt>
      <trkpt lat="43.62732" lon="0.84569">
        <ele>202.61403292089</ele>
        <time>2020-10-03T13:50:59.000Z</time>
      </trkpt>
      <trkpt lat="43.62734" lon="0.84567">
        <ele>202</ele>
        <time>2020-10-03T13:51:00.000Z</time>
      </trkpt>
      <trkpt lat="43.62737" lon="0.84566">
        <ele>202</ele>
        <time>2020-10-03T13:51:01.000Z</time>
      </trkpt>
      <trkpt lat="43.6274" lon="0.84564">
        <ele>202</ele>
        <time>2020-10-03T13:51:02.000Z</time>
      </trkpt>
      <trkpt lat="43.62742" lon="0.84562">
        <ele>202</ele>
        <time>2020-10-03T13:51:03.000Z</time>
      </trkpt>
      <trkpt lat="43.62745" lon="0.8456">
        <ele>202</ele>
        <time>2020-10-03T13:51:04.000Z</time>
      </trkpt>
      <trkpt lat="43.62747" lon="0.84559">
        <ele>201.87341013302</ele>
        <time>2020-10-03T13:51:05.000Z</time>
      </trkpt>
      <trkpt lat="43.6275" lon="0.84557">
        <ele>201</ele>
        <time>2020-10-03T13:51:06.000Z</time>
      </trkpt>
      <trkpt lat="43.62752" lon="0.84555">
        <ele>201</ele>
        <time>2020-10-03T13:51:07.000Z</time>
      </trkpt>
      <trkpt lat="43.62755" lon="0.84553">
        <ele>200.50980712036</ele>
        <time>2020-10-03T13:51:08.000Z</time>
      </trkpt>
      <trkpt lat="43.62757" lon="0.8455">
        <ele>200</ele>
        <time>2020-10-03T13:51:09.000Z</time>
      </trkpt>
      <trkpt lat="43.62759" lon="0.84548">
        <ele>199.5913951856</ele>
        <time>2020-10-03T13:51:10.000Z</time>
      </trkpt>
      <trkpt lat="43.62762" lon="0.84545">
        <ele>199</ele>
        <time>2020-10-03T13:51:11.000Z</time>
      </trkpt>
      <trkpt lat="43.62764" lon="0.84543">
        <ele>199</ele>
        <time>2020-10-03T13:51:12.000Z</time>
      </trkpt>
      <trkpt lat="43.62766" lon="0.8454">
        <ele>199</ele>
        <time>2020-10-03T13:51:13.000Z</time>
      </trkpt>
      <trkpt lat="43.62769" lon="0.84538">
        <ele>199</ele>
        <time>2020-10-03T13:51:14.000Z</time>
      </trkpt>
      <trkpt lat="43.62771" lon="0.84535">
        <ele>198.57943846973</ele>
        <time>2020-10-03T13:51:15.000Z</time>
      </trkpt>
      <trkpt lat="43.62773" lon="0.84532">
        <ele>198</ele>
        <time>2020-10-03T13:51:16.000Z</time>
      </trkpt>
      <trkpt lat="43.62775" lon="0.84529">
        <ele>198</ele>
        <time>2020-10-03T13:51:17.000Z</time>
      </trkpt>
      <trkpt lat="43.62776" lon="0.84526">
        <ele>198</ele>
        <time>2020-10-03T13:51:18.000Z</time>
      </trkpt>
      <trkpt lat="43.62778" lon="0.84523">
        <ele>198</ele>
        <time>2020-10-03T13:51:19.000Z</time>
      </trkpt>
      <trkpt lat="43.6278" lon="0.84521">
        <ele>198</ele>
        <time>2020-10-03T13:51:20.000Z</time>
      </trkpt>
      <trkpt lat="43.62782" lon="0.84518">
        <ele>198</ele>
        <time>2020-10-03T13:51:21.000Z</time>
      </trkpt>
      <trkpt lat="43.62784" lon="0.84515">
        <ele>198</ele>
        <time>2020-10-03T13:51:22.000Z</time>
      </trkpt>
      <trkpt lat="43.62785" lon="0.84512">
        <ele>198</ele>
        <time>2020-10-03T13:51:23.000Z</time>
      </trkpt>
      <trkpt lat="43.62787" lon="0.84509">
        <ele>197.78205359634</ele>
        <time>2020-10-03T13:51:24.000Z</time>
      </trkpt>
      <trkpt lat="43.62788" lon="0.84505">
        <ele>197</ele>
        <time>2020-10-03T13:51:25.000Z</time>
      </trkpt>
      <trkpt lat="43.6279" lon="0.84502">
        <ele>197</ele>
        <time>2020-10-03T13:51:26.000Z</time>
      </trkpt>
      <trkpt lat="43.62791" lon="0.845">
        <ele>197</ele>
        <time>2020-10-03T13:51:27.000Z</time>
      </trkpt>
      <trkpt lat="43.62793" lon="0.84497">
        <ele>197</ele>
        <time>2020-10-03T13:51:28.000Z</time>
      </trkpt>
      <trkpt lat="43.62794" lon="0.84494">
        <ele>197</ele>
        <time>2020-10-03T13:51:29.000Z</time>
      </trkpt>
      <trkpt lat="43.62796" lon="0.84491">
        <ele>197</ele>
        <time>2020-10-03T13:51:30.000Z</time>
      </trkpt>
      <trkpt lat="43.62797" lon="0.84488">
        <ele>197</ele>
        <time>2020-10-03T13:51:31.000Z</time>
      </trkpt>
      <trkpt lat="43.62798" lon="0.84484">
        <ele>196.34579036773</ele>
        <time>2020-10-03T13:51:32.000Z</time>
      </trkpt>
      <trkpt lat="43.62799" lon="0.84481">
        <ele>195</ele>
        <time>2020-10-03T13:51:33.000Z</time>
      </trkpt>
      <trkpt lat="43.628" lon="0.84478">
        <ele>194.59349796551</ele>
        <time>2020-10-03T13:51:34.000Z</time>
      </trkpt>
      <trkpt lat="43.628" lon="0.84474">
        <ele>194</ele>
        <time>2020-10-03T13:51:35.000Z</time>
      </trkpt>
      <trkpt lat="43.62801" lon="0.84471">
        <ele>194</ele>
        <time>2020-10-03T13:51:36.000Z</time>
      </trkpt>
      <trkpt lat="43.62802" lon="0.84468">
        <ele>194.2203432117</ele>
        <time>2020-10-03T13:51:37.000Z</time>
      </trkpt>
      <trkpt lat="43.62802" lon="0.84465">
        <ele>195</ele>
        <time>2020-10-03T13:51:38.000Z</time>
      </trkpt>
      <trkpt lat="43.62803" lon="0.84462">
        <ele>195</ele>
        <time>2020-10-03T13:51:39.000Z</time>
      </trkpt>
      <trkpt lat="43.62803" lon="0.84459">
        <ele>195</ele>
        <time>2020-10-03T13:51:40.000Z</time>
      </trkpt>
      <trkpt lat="43.62804" lon="0.84455">
        <ele>195</ele>
        <time>2020-10-03T13:51:41.000Z</time>
      </trkpt>
      <trkpt lat="43.62804" lon="0.84452">
        <ele>195</ele>
        <time>2020-10-03T13:51:42.000Z</time>
      </trkpt>
      <trkpt lat="43.62804" lon="0.84448">
        <ele>195</ele>
        <time>2020-10-03T13:51:43.000Z</time>
      </trkpt>
      <trkpt lat="43.62805" lon="0.84445">
        <ele>195</ele>
        <time>2020-10-03T13:51:44.000Z</time>
      </trkpt>
      <trkpt lat="43.62805" lon="0.84441">
        <ele>195</ele>
        <time>2020-10-03T13:51:45.000Z</time>
      </trkpt>
      <trkpt lat="43.62805" lon="0.84438">
        <ele>195</ele>
        <time>2020-10-03T13:51:46.000Z</time>
      </trkpt>
      <trkpt lat="43.62805" lon="0.84435">
        <ele>195</ele>
        <time>2020-10-03T13:51:47.000Z</time>
      </trkpt>
      <trkpt lat="43.62805" lon="0.84431">
        <ele>195</ele>
        <time>2020-10-03T13:51:48.000Z</time>
      </trkpt>
      <trkpt lat="43.62806" lon="0.84428">
        <ele>195</ele>
        <time>2020-10-03T13:51:49.000Z</time>
      </trkpt>
      <trkpt lat="43.62806" lon="0.84425">
        <ele>195</ele>
        <time>2020-10-03T13:51:50.000Z</time>
      </trkpt>
      <trkpt lat="43.62806" lon="0.84422">
        <ele>195</ele>
        <time>2020-10-03T13:51:51.000Z</time>
      </trkpt>
      <trkpt lat="43.62806" lon="0.84418">
        <ele>195</ele>
        <time>2020-10-03T13:51:52.000Z</time>
      </trkpt>
      <trkpt lat="43.62806" lon="0.84416">
        <ele>195.40859667474</ele>
        <time>2020-10-03T13:51:53.000Z</time>
      </trkpt>
      <trkpt lat="43.62806" lon="0.84413">
        <ele>196</ele>
        <time>2020-10-03T13:51:54.000Z</time>
      </trkpt>
      <trkpt lat="43.62806" lon="0.8441">
        <ele>196</ele>
        <time>2020-10-03T13:51:55.000Z</time>
      </trkpt>
      <trkpt lat="43.62806" lon="0.84407">
        <ele>196</ele>
        <time>2020-10-03T13:51:56.000Z</time>
      </trkpt>
      <trkpt lat="43.62807" lon="0.84403">
        <ele>196.42202050331</ele>
        <time>2020-10-03T13:51:58.000Z</time>
      </trkpt>
      <trkpt lat="43.62807" lon="0.84398">
        <ele>197</ele>
        <time>2020-10-03T13:52:00.000Z</time>
      </trkpt>
      <trkpt lat="43.62805" lon="0.84382">
        <ele>196.65765287884</ele>
        <time>2020-10-03T13:52:04.000Z</time>
      </trkpt>
      <trkpt lat="43.62805" lon="0.84378">
        <ele>196</ele>
        <time>2020-10-03T13:52:05.000Z</time>
      </trkpt>
      <trkpt lat="43.62804" lon="0.84374">
        <ele>196.64815407407</ele>
        <time>2020-10-03T13:52:06.000Z</time>
      </trkpt>
      <trkpt lat="43.62804" lon="0.84371">
        <ele>198</ele>
        <time>2020-10-03T13:52:07.000Z</time>
      </trkpt>
      <trkpt lat="43.62803" lon="0.84366">
        <ele>197.66666666667</ele>
        <time>2020-10-03T13:52:08.000Z</time>
      </trkpt>
      <trkpt lat="43.62803" lon="0.84362">
        <ele>197</ele>
        <time>2020-10-03T13:52:09.000Z</time>
      </trkpt>
      <trkpt lat="43.62803" lon="0.84359">
        <ele>196.54255290177</ele>
        <time>2020-10-03T13:52:10.000Z</time>
      </trkpt>
      <trkpt lat="43.62803" lon="0.84355">
        <ele>196</ele>
        <time>2020-10-03T13:52:11.000Z</time>
      </trkpt>
      <trkpt lat="43.62804" lon="0.84352">
        <ele>196</ele>
        <time>2020-10-03T13:52:12.000Z</time>
      </trkpt>
      <trkpt lat="43.62804" lon="0.84348">
        <ele>196</ele>
        <time>2020-10-03T13:52:13.000Z</time>
      </trkpt>
      <trkpt lat="43.62804" lon="0.84344">
        <ele>196</ele>
        <time>2020-10-03T13:52:14.000Z</time>
      </trkpt>
      <trkpt lat="43.62804" lon="0.84341">
        <ele>196.41817843304</ele>
        <time>2020-10-03T13:52:15.000Z</time>
      </trkpt>
      <trkpt lat="43.62804" lon="0.84338">
        <ele>197</ele>
        <time>2020-10-03T13:52:16.000Z</time>
      </trkpt>
      <trkpt lat="43.62804" lon="0.84335">
        <ele>197</ele>
        <time>2020-10-03T13:52:17.000Z</time>
      </trkpt>
      <trkpt lat="43.62804" lon="0.84332">
        <ele>197</ele>
        <time>2020-10-03T13:52:18.000Z</time>
      </trkpt>
      <trkpt lat="43.62803" lon="0.84328">
        <ele>197</ele>
        <time>2020-10-03T13:52:19.000Z</time>
      </trkpt>
      <trkpt lat="43.62803" lon="0.84325">
        <ele>197</ele>
        <time>2020-10-03T13:52:20.000Z</time>
      </trkpt>
      <trkpt lat="43.62803" lon="0.84322">
        <ele>197</ele>
        <time>2020-10-03T13:52:21.000Z</time>
      </trkpt>
      <trkpt lat="43.62804" lon="0.84319">
        <ele>197</ele>
        <time>2020-10-03T13:52:22.000Z</time>
      </trkpt>
      <trkpt lat="43.62804" lon="0.84316">
        <ele>197</ele>
        <time>2020-10-03T13:52:23.000Z</time>
      </trkpt>
      <trkpt lat="43.62805" lon="0.84313">
        <ele>198</ele>
        <time>2020-10-03T13:52:25.000Z</time>
      </trkpt>
      <trkpt lat="43.62805" lon="0.8431">
        <ele>199</ele>
        <time>2020-10-03T13:52:28.000Z</time>
      </trkpt>
      <trkpt lat="43.62804" lon="0.84306">
        <ele>199</ele>
        <time>2020-10-03T13:52:30.000Z</time>
      </trkpt>
      <trkpt lat="43.62804" lon="0.84302">
        <ele>199</ele>
        <time>2020-10-03T13:52:32.000Z</time>
      </trkpt>
      <trkpt lat="43.62804" lon="0.84298">
        <ele>199</ele>
        <time>2020-10-03T13:52:34.000Z</time>
      </trkpt>
      <trkpt lat="43.62804" lon="0.84294">
        <ele>198.60605864708</ele>
        <time>2020-10-03T13:52:36.000Z</time>
      </trkpt>
      <trkpt lat="43.62804" lon="0.8429">
        <ele>198.4099968</ele>
        <time>2020-10-03T13:52:38.000Z</time>
      </trkpt>
      <trkpt lat="43.62804" lon="0.84286">
        <ele>199.162496</ele>
        <time>2020-10-03T13:52:40.000Z</time>
      </trkpt>
      <trkpt lat="43.62804" lon="0.84282">
        <ele>200</ele>
        <time>2020-10-03T13:52:42.000Z</time>
      </trkpt>
      <trkpt lat="43.62804" lon="0.84278">
        <ele>201</ele>
        <time>2020-10-03T13:52:44.000Z</time>
      </trkpt>
      <trkpt lat="43.62804" lon="0.84274">
        <ele>201</ele>
        <time>2020-10-03T13:52:46.000Z</time>
      </trkpt>
      <trkpt lat="43.62803" lon="0.8427">
        <ele>201.3684175069</ele>
        <time>2020-10-03T13:52:48.000Z</time>
      </trkpt>
      <trkpt lat="43.62803" lon="0.84267">
        <ele>202.37624038425</ele>
        <time>2020-10-03T13:52:50.000Z</time>
      </trkpt>
      <trkpt lat="43.62803" lon="0.84263">
        <ele>203</ele>
        <time>2020-10-03T13:52:52.000Z</time>
      </trkpt>
      <trkpt lat="43.62803" lon="0.84259">
        <ele>203</ele>
        <time>2020-10-03T13:52:54.000Z</time>
      </trkpt>
      <trkpt lat="43.62803" lon="0.84256">
        <ele>203</ele>
        <time>2020-10-03T13:52:56.000Z</time>
      </trkpt>
      <trkpt lat="43.62803" lon="0.84252">
        <ele>203</ele>
        <time>2020-10-03T13:52:58.000Z</time>
      </trkpt>
      <trkpt lat="43.62803" lon="0.84248">
        <ele>203</ele>
        <time>2020-10-03T13:53:00.000Z</time>
      </trkpt>
      <trkpt lat="43.62803" lon="0.84244">
        <ele>204</ele>
        <time>2020-10-03T13:53:02.000Z</time>
      </trkpt>
      <trkpt lat="43.62804" lon="0.8424">
        <ele>204</ele>
        <time>2020-10-03T13:53:04.000Z</time>
      </trkpt>
      <trkpt lat="43.62804" lon="0.84236">
        <ele>204</ele>
        <time>2020-10-03T13:53:06.000Z</time>
      </trkpt>
      <trkpt lat="43.62803" lon="0.84232">
        <ele>204</ele>
        <time>2020-10-03T13:53:08.000Z</time>
      </trkpt>
      <trkpt lat="43.62804" lon="0.84228">
        <ele>206</ele>
        <time>2020-10-03T13:53:10.000Z</time>
      </trkpt>
      <trkpt lat="43.62804" lon="0.84224">
        <ele>206</ele>
        <time>2020-10-03T13:53:12.000Z</time>
      </trkpt>
      <trkpt lat="43.62803" lon="0.8422">
        <ele>206</ele>
        <time>2020-10-03T13:53:14.000Z</time>
      </trkpt>
      <trkpt lat="43.62803" lon="0.84216">
        <ele>206</ele>
        <time>2020-10-03T13:53:16.000Z</time>
      </trkpt>
      <trkpt lat="43.62803" lon="0.84212">
        <ele>206</ele>
        <time>2020-10-03T13:53:18.000Z</time>
      </trkpt>
      <trkpt lat="43.62803" lon="0.84208">
        <ele>206</ele>
        <time>2020-10-03T13:53:20.000Z</time>
      </trkpt>
      <trkpt lat="43.62803" lon="0.84205">
        <ele>206</ele>
        <time>2020-10-03T13:53:22.000Z</time>
      </trkpt>
      <trkpt lat="43.62803" lon="0.84201">
        <ele>206.36035932149</ele>
        <time>2020-10-03T13:53:24.000Z</time>
      </trkpt>
      <trkpt lat="43.62803" lon="0.84198">
        <ele>206.62832319525</ele>
        <time>2020-10-03T13:53:26.000Z</time>
      </trkpt>
      <trkpt lat="43.62803" lon="0.84194">
        <ele>208</ele>
        <time>2020-10-03T13:53:28.000Z</time>
      </trkpt>
      <trkpt lat="43.62802" lon="0.8419">
        <ele>208</ele>
        <time>2020-10-03T13:53:30.000Z</time>
      </trkpt>
      <trkpt lat="43.62802" lon="0.84186">
        <ele>208</ele>
        <time>2020-10-03T13:53:32.000Z</time>
      </trkpt>
      <trkpt lat="43.62802" lon="0.84183">
        <ele>209</ele>
        <time>2020-10-03T13:53:34.000Z</time>
      </trkpt>
      <trkpt lat="43.628" lon="0.8418">
        <ele>209</ele>
        <time>2020-10-03T13:53:36.000Z</time>
      </trkpt>
      <trkpt lat="43.62798" lon="0.84178">
        <ele>209</ele>
        <time>2020-10-03T13:53:38.000Z</time>
      </trkpt>
      <trkpt lat="43.62796" lon="0.84177">
        <ele>209</ele>
        <time>2020-10-03T13:53:39.000Z</time>
      </trkpt>
      <trkpt lat="43.62794" lon="0.84176">
        <ele>209</ele>
        <time>2020-10-03T13:53:40.000Z</time>
      </trkpt>
      <trkpt lat="43.62792" lon="0.84175">
        <ele>209</ele>
        <time>2020-10-03T13:53:41.000Z</time>
      </trkpt>
      <trkpt lat="43.6279" lon="0.84176">
        <ele>209</ele>
        <time>2020-10-03T13:53:42.000Z</time>
      </trkpt>
      <trkpt lat="43.62787" lon="0.84177">
        <ele>209</ele>
        <time>2020-10-03T13:53:43.000Z</time>
      </trkpt>
      <trkpt lat="43.62785" lon="0.84178">
        <ele>209.27906769066</ele>
        <time>2020-10-03T13:53:44.000Z</time>
      </trkpt>
      <trkpt lat="43.62783" lon="0.8418">
        <ele>210</ele>
        <time>2020-10-03T13:53:45.000Z</time>
      </trkpt>
      <trkpt lat="43.62781" lon="0.84182">
        <ele>210</ele>
        <time>2020-10-03T13:53:46.000Z</time>
      </trkpt>
      <trkpt lat="43.6278" lon="0.84184">
        <ele>210.36283005403</ele>
        <time>2020-10-03T13:53:47.000Z</time>
      </trkpt>
      <trkpt lat="43.62778" lon="0.84187">
        <ele>211</ele>
        <time>2020-10-03T13:53:48.000Z</time>
      </trkpt>
      <trkpt lat="43.62777" lon="0.8419">
        <ele>211</ele>
        <time>2020-10-03T13:53:49.000Z</time>
      </trkpt>
      <trkpt lat="43.62776" lon="0.84193">
        <ele>211</ele>
        <time>2020-10-03T13:53:50.000Z</time>
      </trkpt>
      <trkpt lat="43.62774" lon="0.84196">
        <ele>211</ele>
        <time>2020-10-03T13:53:51.000Z</time>
      </trkpt>
      <trkpt lat="43.62774" lon="0.84199">
        <ele>211</ele>
        <time>2020-10-03T13:53:52.000Z</time>
      </trkpt>
      <trkpt lat="43.62773" lon="0.84203">
        <ele>211</ele>
        <time>2020-10-03T13:53:53.000Z</time>
      </trkpt>
      <trkpt lat="43.62772" lon="0.84206">
        <ele>211</ele>
        <time>2020-10-03T13:53:54.000Z</time>
      </trkpt>
      <trkpt lat="43.62771" lon="0.84209">
        <ele>211</ele>
        <time>2020-10-03T13:53:55.000Z</time>
      </trkpt>
      <trkpt lat="43.6277" lon="0.84213">
        <ele>210.82895157895</ele>
        <time>2020-10-03T13:53:56.000Z</time>
      </trkpt>
      <trkpt lat="43.6277" lon="0.84217">
        <ele>210</ele>
        <time>2020-10-03T13:53:57.000Z</time>
      </trkpt>
      <trkpt lat="43.62769" lon="0.8422">
        <ele>210</ele>
        <time>2020-10-03T13:53:58.000Z</time>
      </trkpt>
      <trkpt lat="43.62768" lon="0.84223">
        <ele>210.39285333333</ele>
        <time>2020-10-03T13:53:59.000Z</time>
      </trkpt>
      <trkpt lat="43.62767" lon="0.84227">
        <ele>211</ele>
        <time>2020-10-03T13:54:00.000Z</time>
      </trkpt>
      <trkpt lat="43.62767" lon="0.8423">
        <ele>211</ele>
        <time>2020-10-03T13:54:01.000Z</time>
      </trkpt>
      <trkpt lat="43.62766" lon="0.84234">
        <ele>211</ele>
        <time>2020-10-03T13:54:02.000Z</time>
      </trkpt>
      <trkpt lat="43.62765" lon="0.84237">
        <ele>211.42696063626</ele>
        <time>2020-10-03T13:54:03.000Z</time>
      </trkpt>
      <trkpt lat="43.62765" lon="0.8424">
        <ele>212</ele>
        <time>2020-10-03T13:54:04.000Z</time>
      </trkpt>
      <trkpt lat="43.62764" lon="0.84244">
        <ele>212</ele>
        <time>2020-10-03T13:54:05.000Z</time>
      </trkpt>
      <trkpt lat="43.62764" lon="0.84247">
        <ele>212</ele>
        <time>2020-10-03T13:54:06.000Z</time>
      </trkpt>
      <trkpt lat="43.62763" lon="0.8425">
        <ele>212</ele>
        <time>2020-10-03T13:54:07.000Z</time>
      </trkpt>
      <trkpt lat="43.62762" lon="0.84254">
        <ele>212</ele>
        <time>2020-10-03T13:54:08.000Z</time>
      </trkpt>
      <trkpt lat="43.62761" lon="0.84257">
        <ele>212.43955889386</ele>
        <time>2020-10-03T13:54:09.000Z</time>
      </trkpt>
      <trkpt lat="43.6276" lon="0.84261">
        <ele>213</ele>
        <time>2020-10-03T13:54:10.000Z</time>
      </trkpt>
      <trkpt lat="43.62759" lon="0.84264">
        <ele>213</ele>
        <time>2020-10-03T13:54:11.000Z</time>
      </trkpt>
      <trkpt lat="43.62758" lon="0.84267">
        <ele>213</ele>
        <time>2020-10-03T13:54:12.000Z</time>
      </trkpt>
      <trkpt lat="43.62756" lon="0.8427">
        <ele>213</ele>
        <time>2020-10-03T13:54:13.000Z</time>
      </trkpt>
      <trkpt lat="43.62755" lon="0.84274">
        <ele>213</ele>
        <time>2020-10-03T13:54:14.000Z</time>
      </trkpt>
      <trkpt lat="43.62754" lon="0.84278">
        <ele>213</ele>
        <time>2020-10-03T13:54:15.000Z</time>
      </trkpt>
      <trkpt lat="43.62754" lon="0.84282">
        <ele>213</ele>
        <time>2020-10-03T13:54:16.000Z</time>
      </trkpt>
      <trkpt lat="43.62753" lon="0.84285">
        <ele>213</ele>
        <time>2020-10-03T13:54:17.000Z</time>
      </trkpt>
      <trkpt lat="43.62753" lon="0.84289">
        <ele>213</ele>
        <time>2020-10-03T13:54:18.000Z</time>
      </trkpt>
      <trkpt lat="43.62752" lon="0.84293">
        <ele>213</ele>
        <time>2020-10-03T13:54:19.000Z</time>
      </trkpt>
      <trkpt lat="43.62751" lon="0.84297">
        <ele>212.55237654058</ele>
        <time>2020-10-03T13:54:20.000Z</time>
      </trkpt>
      <trkpt lat="43.6275" lon="0.843">
        <ele>212</ele>
        <time>2020-10-03T13:54:21.000Z</time>
      </trkpt>
      <trkpt lat="43.62749" lon="0.84304">
        <ele>212</ele>
        <time>2020-10-03T13:54:22.000Z</time>
      </trkpt>
      <trkpt lat="43.62748" lon="0.84308">
        <ele>212</ele>
        <time>2020-10-03T13:54:23.000Z</time>
      </trkpt>
      <trkpt lat="43.62747" lon="0.84311">
        <ele>212</ele>
        <time>2020-10-03T13:54:24.000Z</time>
      </trkpt>
      <trkpt lat="43.62746" lon="0.84315">
        <ele>212</ele>
        <time>2020-10-03T13:54:25.000Z</time>
      </trkpt>
      <trkpt lat="43.62745" lon="0.84318">
        <ele>212</ele>
        <time>2020-10-03T13:54:26.000Z</time>
      </trkpt>
      <trkpt lat="43.62744" lon="0.84322">
        <ele>212</ele>
        <time>2020-10-03T13:54:27.000Z</time>
      </trkpt>
      <trkpt lat="43.62743" lon="0.84326">
        <ele>212</ele>
        <time>2020-10-03T13:54:28.000Z</time>
      </trkpt>
      <trkpt lat="43.62742" lon="0.84329">
        <ele>212</ele>
        <time>2020-10-03T13:54:29.000Z</time>
      </trkpt>
      <trkpt lat="43.62741" lon="0.84333">
        <ele>211.57143031293</ele>
        <time>2020-10-03T13:54:30.000Z</time>
      </trkpt>
      <trkpt lat="43.62739" lon="0.84337">
        <ele>211</ele>
        <time>2020-10-03T13:54:31.000Z</time>
      </trkpt>
      <trkpt lat="43.62738" lon="0.8434">
        <ele>211</ele>
        <time>2020-10-03T13:54:32.000Z</time>
      </trkpt>
      <trkpt lat="43.62737" lon="0.84343">
        <ele>211</ele>
        <time>2020-10-03T13:54:33.000Z</time>
      </trkpt>
      <trkpt lat="43.62734" lon="0.84346">
        <ele>211</ele>
        <time>2020-10-03T13:54:34.000Z</time>
      </trkpt>
      <trkpt lat="43.62732" lon="0.84349">
        <ele>211</ele>
        <time>2020-10-03T13:54:35.000Z</time>
      </trkpt>
      <trkpt lat="43.6273" lon="0.84352">
        <ele>211</ele>
        <time>2020-10-03T13:54:36.000Z</time>
      </trkpt>
      <trkpt lat="43.62728" lon="0.84354">
        <ele>211</ele>
        <time>2020-10-03T13:54:37.000Z</time>
      </trkpt>
      <trkpt lat="43.62726" lon="0.84357">
        <ele>211</ele>
        <time>2020-10-03T13:54:38.000Z</time>
      </trkpt>
      <trkpt lat="43.62723" lon="0.84359">
        <ele>211</ele>
        <time>2020-10-03T13:54:39.000Z</time>
      </trkpt>
      <trkpt lat="43.62721" lon="0.84361">
        <ele>211</ele>
        <time>2020-10-03T13:54:40.000Z</time>
      </trkpt>
      <trkpt lat="43.62718" lon="0.84363">
        <ele>211</ele>
        <time>2020-10-03T13:54:41.000Z</time>
      </trkpt>
      <trkpt lat="43.62715" lon="0.84364">
        <ele>211</ele>
        <time>2020-10-03T13:54:42.000Z</time>
      </trkpt>
      <trkpt lat="43.62713" lon="0.84365">
        <ele>211</ele>
        <time>2020-10-03T13:54:43.000Z</time>
      </trkpt>
      <trkpt lat="43.6271" lon="0.84367">
        <ele>211</ele>
        <time>2020-10-03T13:54:44.000Z</time>
      </trkpt>
      <trkpt lat="43.62708" lon="0.84368">
        <ele>211</ele>
        <time>2020-10-03T13:54:45.000Z</time>
      </trkpt>
      <trkpt lat="43.62705" lon="0.84369">
        <ele>211</ele>
        <time>2020-10-03T13:54:46.000Z</time>
      </trkpt>
      <trkpt lat="43.62702" lon="0.84369">
        <ele>211</ele>
        <time>2020-10-03T13:54:47.000Z</time>
      </trkpt>
      <trkpt lat="43.62699" lon="0.8437">
        <ele>211</ele>
        <time>2020-10-03T13:54:48.000Z</time>
      </trkpt>
      <trkpt lat="43.62697" lon="0.84371">
        <ele>210.85</ele>
        <time>2020-10-03T13:54:49.000Z</time>
      </trkpt>
      <trkpt lat="43.62694" lon="0.84372">
        <ele>210</ele>
        <time>2020-10-03T13:54:50.000Z</time>
      </trkpt>
      <trkpt lat="43.62692" lon="0.84373">
        <ele>210</ele>
        <time>2020-10-03T13:54:51.000Z</time>
      </trkpt>
      <trkpt lat="43.62689" lon="0.84374">
        <ele>210</ele>
        <time>2020-10-03T13:54:52.000Z</time>
      </trkpt>
      <trkpt lat="43.62686" lon="0.84375">
        <ele>210</ele>
        <time>2020-10-03T13:54:53.000Z</time>
      </trkpt>
      <trkpt lat="43.62683" lon="0.84376">
        <ele>210</ele>
        <time>2020-10-03T13:54:54.000Z</time>
      </trkpt>
      <trkpt lat="43.62681" lon="0.84377">
        <ele>210</ele>
        <time>2020-10-03T13:54:55.000Z</time>
      </trkpt>
      <trkpt lat="43.62678" lon="0.84378">
        <ele>209.64102269557</ele>
        <time>2020-10-03T13:54:56.000Z</time>
      </trkpt>
      <trkpt lat="43.62675" lon="0.84379">
        <ele>209</ele>
        <time>2020-10-03T13:54:57.000Z</time>
      </trkpt>
      <trkpt lat="43.62672" lon="0.8438">
        <ele>209</ele>
        <time>2020-10-03T13:54:58.000Z</time>
      </trkpt>
      <trkpt lat="43.6267" lon="0.84381">
        <ele>208.66666666667</ele>
        <time>2020-10-03T13:54:59.000Z</time>
      </trkpt>
      <trkpt lat="43.62667" lon="0.84382">
        <ele>208</ele>
        <time>2020-10-03T13:55:00.000Z</time>
      </trkpt>
      <trkpt lat="43.62664" lon="0.84383">
        <ele>208</ele>
        <time>2020-10-03T13:55:01.000Z</time>
      </trkpt>
      <trkpt lat="43.62662" lon="0.84384">
        <ele>208</ele>
        <time>2020-10-03T13:55:02.000Z</time>
      </trkpt>
      <trkpt lat="43.62659" lon="0.84385">
        <ele>208</ele>
        <time>2020-10-03T13:55:03.000Z</time>
      </trkpt>
      <trkpt lat="43.62656" lon="0.84386">
        <ele>208</ele>
        <time>2020-10-03T13:55:04.000Z</time>
      </trkpt>
      <trkpt lat="43.62653" lon="0.84387">
        <ele>208</ele>
        <time>2020-10-03T13:55:05.000Z</time>
      </trkpt>
      <trkpt lat="43.62651" lon="0.84388">
        <ele>208</ele>
        <time>2020-10-03T13:55:06.000Z</time>
      </trkpt>
      <trkpt lat="43.62648" lon="0.84389">
        <ele>208</ele>
        <time>2020-10-03T13:55:07.000Z</time>
      </trkpt>
      <trkpt lat="43.62645" lon="0.8439">
        <ele>207.57797949669</ele>
        <time>2020-10-03T13:55:08.000Z</time>
      </trkpt>
      <trkpt lat="43.62643" lon="0.84391">
        <ele>207</ele>
        <time>2020-10-03T13:55:09.000Z</time>
      </trkpt>
      <trkpt lat="43.6264" lon="0.84392">
        <ele>207</ele>
        <time>2020-10-03T13:55:10.000Z</time>
      </trkpt>
      <trkpt lat="43.62637" lon="0.84393">
        <ele>207</ele>
        <time>2020-10-03T13:55:11.000Z</time>
      </trkpt>
      <trkpt lat="43.62634" lon="0.84394">
        <ele>207</ele>
        <time>2020-10-03T13:55:12.000Z</time>
      </trkpt>
      <trkpt lat="43.62631" lon="0.84395">
        <ele>207</ele>
        <time>2020-10-03T13:55:13.000Z</time>
      </trkpt>
      <trkpt lat="43.62628" lon="0.84396">
        <ele>207</ele>
        <time>2020-10-03T13:55:14.000Z</time>
      </trkpt>
      <trkpt lat="43.62626" lon="0.84396">
        <ele>206.58823160325</ele>
        <time>2020-10-03T13:55:15.000Z</time>
      </trkpt>
      <trkpt lat="43.62623" lon="0.84397">
        <ele>206</ele>
        <time>2020-10-03T13:55:16.000Z</time>
      </trkpt>
      <trkpt lat="43.6262" lon="0.84398">
        <ele>206</ele>
        <time>2020-10-03T13:55:17.000Z</time>
      </trkpt>
      <trkpt lat="43.62617" lon="0.84398">
        <ele>205.34091636364</ele>
        <time>2020-10-03T13:55:18.000Z</time>
      </trkpt>
      <trkpt lat="43.62615" lon="0.84399">
        <ele>204</ele>
        <time>2020-10-03T13:55:19.000Z</time>
      </trkpt>
      <trkpt lat="43.62612" lon="0.84399">
        <ele>204</ele>
        <time>2020-10-03T13:55:20.000Z</time>
      </trkpt>
      <trkpt lat="43.62609" lon="0.844">
        <ele>204</ele>
        <time>2020-10-03T13:55:21.000Z</time>
      </trkpt>
      <trkpt lat="43.62606" lon="0.844">
        <ele>204</ele>
        <time>2020-10-03T13:55:22.000Z</time>
      </trkpt>
      <trkpt lat="43.62603" lon="0.84399">
        <ele>204</ele>
        <time>2020-10-03T13:55:23.000Z</time>
      </trkpt>
      <trkpt lat="43.626" lon="0.84399">
        <ele>204</ele>
        <time>2020-10-03T13:55:24.000Z</time>
      </trkpt>
      <trkpt lat="43.62597" lon="0.84398">
        <ele>204</ele>
        <time>2020-10-03T13:55:25.000Z</time>
      </trkpt>
      <trkpt lat="43.62595" lon="0.84396">
        <ele>204</ele>
        <time>2020-10-03T13:55:26.000Z</time>
      </trkpt>
      <trkpt lat="43.62592" lon="0.84395">
        <ele>203.55238199727</ele>
        <time>2020-10-03T13:55:27.000Z</time>
      </trkpt>
      <trkpt lat="43.6259" lon="0.84393">
        <ele>203</ele>
        <time>2020-10-03T13:55:28.000Z</time>
      </trkpt>
      <trkpt lat="43.62587" lon="0.84392">
        <ele>203</ele>
        <time>2020-10-03T13:55:29.000Z</time>
      </trkpt>
      <trkpt lat="43.62585" lon="0.8439">
        <ele>202.67188</ele>
        <time>2020-10-03T13:55:30.000Z</time>
      </trkpt>
      <trkpt lat="43.62582" lon="0.84388">
        <ele>202</ele>
        <time>2020-10-03T13:55:31.000Z</time>
      </trkpt>
      <trkpt lat="43.62579" lon="0.84386">
        <ele>202.3505100223</ele>
        <time>2020-10-03T13:55:32.000Z</time>
      </trkpt>
      <trkpt lat="43.62577" lon="0.84385">
        <ele>203</ele>
        <time>2020-10-03T13:55:33.000Z</time>
      </trkpt>
      <trkpt lat="43.62574" lon="0.84383">
        <ele>203</ele>
        <time>2020-10-03T13:55:34.000Z</time>
      </trkpt>
      <trkpt lat="43.62572" lon="0.8438">
        <ele>203</ele>
        <time>2020-10-03T13:55:35.000Z</time>
      </trkpt>
      <trkpt lat="43.6257" lon="0.84378">
        <ele>202.66291779325</ele>
        <time>2020-10-03T13:55:36.000Z</time>
      </trkpt>
      <trkpt lat="43.62567" lon="0.84375">
        <ele>202</ele>
        <time>2020-10-03T13:55:37.000Z</time>
      </trkpt>
      <trkpt lat="43.62565" lon="0.84372">
        <ele>202</ele>
        <time>2020-10-03T13:55:38.000Z</time>
      </trkpt>
      <trkpt lat="43.62564" lon="0.84369">
        <ele>201.59406128812</ele>
        <time>2020-10-03T13:55:39.000Z</time>
      </trkpt>
      <trkpt lat="43.62562" lon="0.84366">
        <ele>201</ele>
        <time>2020-10-03T13:55:40.000Z</time>
      </trkpt>
      <trkpt lat="43.6256" lon="0.84363">
        <ele>201</ele>
        <time>2020-10-03T13:55:41.000Z</time>
      </trkpt>
      <trkpt lat="43.62558" lon="0.8436">
        <ele>201</ele>
        <time>2020-10-03T13:55:42.000Z</time>
      </trkpt>
      <trkpt lat="43.62556" lon="0.84357">
        <ele>201</ele>
        <time>2020-10-03T13:55:43.000Z</time>
      </trkpt>
      <trkpt lat="43.62554" lon="0.84354">
        <ele>201</ele>
        <time>2020-10-03T13:55:44.000Z</time>
      </trkpt>
      <trkpt lat="43.62553" lon="0.84351">
        <ele>201</ele>
        <time>2020-10-03T13:55:45.000Z</time>
      </trkpt>
      <trkpt lat="43.62551" lon="0.84348">
        <ele>201</ele>
        <time>2020-10-03T13:55:46.000Z</time>
      </trkpt>
      <trkpt lat="43.62549" lon="0.84345">
        <ele>201</ele>
        <time>2020-10-03T13:55:47.000Z</time>
      </trkpt>
      <trkpt lat="43.62547" lon="0.84342">
        <ele>200.58416343497</ele>
        <time>2020-10-03T13:55:48.000Z</time>
      </trkpt>
      <trkpt lat="43.62546" lon="0.84339">
        <ele>200</ele>
        <time>2020-10-03T13:55:49.000Z</time>
      </trkpt>
      <trkpt lat="43.62544" lon="0.84336">
        <ele>200</ele>
        <time>2020-10-03T13:55:50.000Z</time>
      </trkpt>
      <trkpt lat="43.62542" lon="0.84334">
        <ele>200</ele>
        <time>2020-10-03T13:55:51.000Z</time>
      </trkpt>
      <trkpt lat="43.6254" lon="0.8433">
        <ele>200</ele>
        <time>2020-10-03T13:55:52.000Z</time>
      </trkpt>
      <trkpt lat="43.62538" lon="0.84327">
        <ele>200</ele>
        <time>2020-10-03T13:55:53.000Z</time>
      </trkpt>
      <trkpt lat="43.62536" lon="0.84324">
        <ele>200</ele>
        <time>2020-10-03T13:55:54.000Z</time>
      </trkpt>
      <trkpt lat="43.62535" lon="0.84321">
        <ele>200</ele>
        <time>2020-10-03T13:55:55.000Z</time>
      </trkpt>
      <trkpt lat="43.62533" lon="0.84318">
        <ele>200.33644759193</ele>
        <time>2020-10-03T13:55:56.000Z</time>
      </trkpt>
      <trkpt lat="43.62531" lon="0.84315">
        <ele>201</ele>
        <time>2020-10-03T13:55:57.000Z</time>
      </trkpt>
      <trkpt lat="43.62529" lon="0.84313">
        <ele>201</ele>
        <time>2020-10-03T13:55:58.000Z</time>
      </trkpt>
      <trkpt lat="43.62528" lon="0.8431">
        <ele>201</ele>
        <time>2020-10-03T13:55:59.000Z</time>
      </trkpt>
      <trkpt lat="43.62526" lon="0.84307">
        <ele>201</ele>
        <time>2020-10-03T13:56:00.000Z</time>
      </trkpt>
      <trkpt lat="43.62524" lon="0.84304">
        <ele>201</ele>
        <time>2020-10-03T13:56:01.000Z</time>
      </trkpt>
      <trkpt lat="43.62523" lon="0.84301">
        <ele>201</ele>
        <time>2020-10-03T13:56:02.000Z</time>
      </trkpt>
      <trkpt lat="43.62521" lon="0.84298">
        <ele>201</ele>
        <time>2020-10-03T13:56:03.000Z</time>
      </trkpt>
      <trkpt lat="43.62519" lon="0.84295">
        <ele>201</ele>
        <time>2020-10-03T13:56:04.000Z</time>
      </trkpt>
      <trkpt lat="43.62518" lon="0.84292">
        <ele>200.53684366537</ele>
        <time>2020-10-03T13:56:05.000Z</time>
      </trkpt>
      <trkpt lat="43.62516" lon="0.84289">
        <ele>200</ele>
        <time>2020-10-03T13:56:06.000Z</time>
      </trkpt>
      <trkpt lat="43.62514" lon="0.84286">
        <ele>200</ele>
        <time>2020-10-03T13:56:07.000Z</time>
      </trkpt>
      <trkpt lat="43.62512" lon="0.84284">
        <ele>200</ele>
        <time>2020-10-03T13:56:08.000Z</time>
      </trkpt>
      <trkpt lat="43.62511" lon="0.84281">
        <ele>200</ele>
        <time>2020-10-03T13:56:09.000Z</time>
      </trkpt>
      <trkpt lat="43.62509" lon="0.84278">
        <ele>200</ele>
        <time>2020-10-03T13:56:10.000Z</time>
      </trkpt>
      <trkpt lat="43.62508" lon="0.84276">
        <ele>200</ele>
        <time>2020-10-03T13:56:11.000Z</time>
      </trkpt>
      <trkpt lat="43.62507" lon="0.84272">
        <ele>200</ele>
        <time>2020-10-03T13:56:12.000Z</time>
      </trkpt>
      <trkpt lat="43.62505" lon="0.8427">
        <ele>200</ele>
        <time>2020-10-03T13:56:13.000Z</time>
      </trkpt>
      <trkpt lat="43.62503" lon="0.84266">
        <ele>200</ele>
        <time>2020-10-03T13:56:14.000Z</time>
      </trkpt>
      <trkpt lat="43.62502" lon="0.84264">
        <ele>199.58762750557</ele>
        <time>2020-10-03T13:56:15.000Z</time>
      </trkpt>
      <trkpt lat="43.625" lon="0.84261">
        <ele>199</ele>
        <time>2020-10-03T13:56:16.000Z</time>
      </trkpt>
      <trkpt lat="43.62499" lon="0.84258">
        <ele>199</ele>
        <time>2020-10-03T13:56:17.000Z</time>
      </trkpt>
      <trkpt lat="43.62497" lon="0.84255">
        <ele>199.72991936915</ele>
        <time>2020-10-03T13:56:18.000Z</time>
      </trkpt>
      <trkpt lat="43.62496" lon="0.84252">
        <ele>201</ele>
        <time>2020-10-03T13:56:19.000Z</time>
      </trkpt>
      <trkpt lat="43.62494" lon="0.84249">
        <ele>201</ele>
        <time>2020-10-03T13:56:20.000Z</time>
      </trkpt>
      <trkpt lat="43.62492" lon="0.84247">
        <ele>201</ele>
        <time>2020-10-03T13:56:21.000Z</time>
      </trkpt>
      <trkpt lat="43.62491" lon="0.84244">
        <ele>201.33644759193</ele>
        <time>2020-10-03T13:56:22.000Z</time>
      </trkpt>
      <trkpt lat="43.62489" lon="0.84241">
        <ele>202</ele>
        <time>2020-10-03T13:56:23.000Z</time>
      </trkpt>
      <trkpt lat="43.62488" lon="0.84239">
        <ele>202</ele>
        <time>2020-10-03T13:56:24.000Z</time>
      </trkpt>
      <trkpt lat="43.62486" lon="0.84236">
        <ele>202</ele>
        <time>2020-10-03T13:56:25.000Z</time>
      </trkpt>
      <trkpt lat="43.62485" lon="0.84234">
        <ele>202</ele>
        <time>2020-10-03T13:56:26.000Z</time>
      </trkpt>
      <trkpt lat="43.62483" lon="0.84231">
        <ele>202</ele>
        <time>2020-10-03T13:56:27.000Z</time>
      </trkpt>
      <trkpt lat="43.62481" lon="0.84229">
        <ele>202</ele>
        <time>2020-10-03T13:56:28.000Z</time>
      </trkpt>
      <trkpt lat="43.62479" lon="0.84227">
        <ele>202</ele>
        <time>2020-10-03T13:56:29.000Z</time>
      </trkpt>
      <trkpt lat="43.62478" lon="0.84224">
        <ele>202</ele>
        <time>2020-10-03T13:56:30.000Z</time>
      </trkpt>
      <trkpt lat="43.62476" lon="0.84222">
        <ele>202</ele>
        <time>2020-10-03T13:56:31.000Z</time>
      </trkpt>
      <trkpt lat="43.62475" lon="0.84219">
        <ele>202</ele>
        <time>2020-10-03T13:56:32.000Z</time>
      </trkpt>
      <trkpt lat="43.62473" lon="0.84217">
        <ele>202</ele>
        <time>2020-10-03T13:56:33.000Z</time>
      </trkpt>
      <trkpt lat="43.62472" lon="0.84215">
        <ele>202</ele>
        <time>2020-10-03T13:56:34.000Z</time>
      </trkpt>
      <trkpt lat="43.6247" lon="0.84212">
        <ele>202</ele>
        <time>2020-10-03T13:56:35.000Z</time>
      </trkpt>
      <trkpt lat="43.62468" lon="0.8421">
        <ele>202</ele>
        <time>2020-10-03T13:56:36.000Z</time>
      </trkpt>
      <trkpt lat="43.62467" lon="0.84207">
        <ele>202.35714068024</ele>
        <time>2020-10-03T13:56:37.000Z</time>
      </trkpt>
      <trkpt lat="43.62465" lon="0.84205">
        <ele>203</ele>
        <time>2020-10-03T13:56:38.000Z</time>
      </trkpt>
      <trkpt lat="43.62464" lon="0.84203">
        <ele>203</ele>
        <time>2020-10-03T13:56:39.000Z</time>
      </trkpt>
      <trkpt lat="43.62463" lon="0.842">
        <ele>203</ele>
        <time>2020-10-03T13:56:40.000Z</time>
      </trkpt>
      <trkpt lat="43.62461" lon="0.84198">
        <ele>203</ele>
        <time>2020-10-03T13:56:41.000Z</time>
      </trkpt>
      <trkpt lat="43.6246" lon="0.84196">
        <ele>203</ele>
        <time>2020-10-03T13:56:42.000Z</time>
      </trkpt>
      <trkpt lat="43.62458" lon="0.84193">
        <ele>203</ele>
        <time>2020-10-03T13:56:43.000Z</time>
      </trkpt>
      <trkpt lat="43.62457" lon="0.84191">
        <ele>203</ele>
        <time>2020-10-03T13:56:44.000Z</time>
      </trkpt>
      <trkpt lat="43.62455" lon="0.84188">
        <ele>203</ele>
        <time>2020-10-03T13:56:45.000Z</time>
      </trkpt>
      <trkpt lat="43.62454" lon="0.84186">
        <ele>203.68116089896</ele>
        <time>2020-10-03T13:56:46.000Z</time>
      </trkpt>
      <trkpt lat="43.62452" lon="0.84183">
        <ele>205</ele>
        <time>2020-10-03T13:56:47.000Z</time>
      </trkpt>
      <trkpt lat="43.62451" lon="0.84181">
        <ele>205</ele>
        <time>2020-10-03T13:56:48.000Z</time>
      </trkpt>
      <trkpt lat="43.62449" lon="0.84179">
        <ele>205</ele>
        <time>2020-10-03T13:56:49.000Z</time>
      </trkpt>
      <trkpt lat="43.62448" lon="0.84177">
        <ele>205</ele>
        <time>2020-10-03T13:56:50.000Z</time>
      </trkpt>
      <trkpt lat="43.62447" lon="0.84174">
        <ele>205</ele>
        <time>2020-10-03T13:56:51.000Z</time>
      </trkpt>
      <trkpt lat="43.62445" lon="0.84172">
        <ele>205</ele>
        <time>2020-10-03T13:56:52.000Z</time>
      </trkpt>
      <trkpt lat="43.62444" lon="0.84169">
        <ele>205</ele>
        <time>2020-10-03T13:56:53.000Z</time>
      </trkpt>
      <trkpt lat="43.62442" lon="0.84167">
        <ele>205</ele>
        <time>2020-10-03T13:56:54.000Z</time>
      </trkpt>
      <trkpt lat="43.62441" lon="0.84164">
        <ele>205</ele>
        <time>2020-10-03T13:56:55.000Z</time>
      </trkpt>
      <trkpt lat="43.6244" lon="0.84162">
        <ele>205</ele>
        <time>2020-10-03T13:56:56.000Z</time>
      </trkpt>
      <trkpt lat="43.62438" lon="0.84159">
        <ele>205</ele>
        <time>2020-10-03T13:56:57.000Z</time>
      </trkpt>
      <trkpt lat="43.62437" lon="0.84157">
        <ele>205</ele>
        <time>2020-10-03T13:56:58.000Z</time>
      </trkpt>
      <trkpt lat="43.62435" lon="0.84155">
        <ele>205</ele>
        <time>2020-10-03T13:56:59.000Z</time>
      </trkpt>
      <trkpt lat="43.62434" lon="0.84153">
        <ele>205</ele>
        <time>2020-10-03T13:57:00.000Z</time>
      </trkpt>
      <trkpt lat="43.62432" lon="0.84151">
        <ele>205</ele>
        <time>2020-10-03T13:57:01.000Z</time>
      </trkpt>
      <trkpt lat="43.62431" lon="0.84149">
        <ele>205</ele>
        <time>2020-10-03T13:57:02.000Z</time>
      </trkpt>
      <trkpt lat="43.62429" lon="0.84147">
        <ele>205</ele>
        <time>2020-10-03T13:57:03.000Z</time>
      </trkpt>
      <trkpt lat="43.62428" lon="0.84145">
        <ele>205</ele>
        <time>2020-10-03T13:57:04.000Z</time>
      </trkpt>
      <trkpt lat="43.62426" lon="0.84143">
        <ele>205</ele>
        <time>2020-10-03T13:57:05.000Z</time>
      </trkpt>
      <trkpt lat="43.62424" lon="0.8414">
        <ele>205</ele>
        <time>2020-10-03T13:57:06.000Z</time>
      </trkpt>
      <trkpt lat="43.62422" lon="0.84138">
        <ele>205</ele>
        <time>2020-10-03T13:57:07.000Z</time>
      </trkpt>
      <trkpt lat="43.6242" lon="0.84136">
        <ele>205</ele>
        <time>2020-10-03T13:57:08.000Z</time>
      </trkpt>
      <trkpt lat="43.62417" lon="0.84134">
        <ele>205</ele>
        <time>2020-10-03T13:57:09.000Z</time>
      </trkpt>
      <trkpt lat="43.62415" lon="0.84132">
        <ele>205</ele>
        <time>2020-10-03T13:57:10.000Z</time>
      </trkpt>
      <trkpt lat="43.62412" lon="0.84129">
        <ele>205</ele>
        <time>2020-10-03T13:57:11.000Z</time>
      </trkpt>
      <trkpt lat="43.6241" lon="0.84125">
        <ele>205</ele>
        <time>2020-10-03T13:57:12.000Z</time>
      </trkpt>
      <trkpt lat="43.62409" lon="0.84122">
        <ele>205</ele>
        <time>2020-10-03T13:57:13.000Z</time>
      </trkpt>
      <trkpt lat="43.62407" lon="0.84119">
        <ele>205</ele>
        <time>2020-10-03T13:57:14.000Z</time>
      </trkpt>
      <trkpt lat="43.62405" lon="0.84116">
        <ele>205</ele>
        <time>2020-10-03T13:57:15.000Z</time>
      </trkpt>
      <trkpt lat="43.62404" lon="0.84112">
        <ele>204.31428362448</ele>
        <time>2020-10-03T13:57:16.000Z</time>
      </trkpt>
      <trkpt lat="43.62403" lon="0.84108">
        <ele>203</ele>
        <time>2020-10-03T13:57:17.000Z</time>
      </trkpt>
      <trkpt lat="43.62401" lon="0.84104">
        <ele>203</ele>
        <time>2020-10-03T13:57:18.000Z</time>
      </trkpt>
      <trkpt lat="43.62399" lon="0.841">
        <ele>202.48090752755</ele>
        <time>2020-10-03T13:57:19.000Z</time>
      </trkpt>
      <trkpt lat="43.62397" lon="0.84096">
        <ele>201</ele>
        <time>2020-10-03T13:57:20.000Z</time>
      </trkpt>
      <trkpt lat="43.62396" lon="0.84092">
        <ele>201</ele>
        <time>2020-10-03T13:57:21.000Z</time>
      </trkpt>
      <trkpt lat="43.62395" lon="0.84089">
        <ele>200.31816727273</ele>
        <time>2020-10-03T13:57:22.000Z</time>
      </trkpt>
      <trkpt lat="43.62393" lon="0.84086">
        <ele>199</ele>
        <time>2020-10-03T13:57:23.000Z</time>
      </trkpt>
      <trkpt lat="43.62392" lon="0.84083">
        <ele>199</ele>
        <time>2020-10-03T13:57:24.000Z</time>
      </trkpt>
      <trkpt lat="43.62391" lon="0.8408">
        <ele>198.92592680383</ele>
        <time>2020-10-03T13:57:25.000Z</time>
      </trkpt>
      <trkpt lat="43.62389" lon="0.84076">
        <ele>198</ele>
        <time>2020-10-03T13:57:26.000Z</time>
      </trkpt>
      <trkpt lat="43.62388" lon="0.84072">
        <ele>198</ele>
        <time>2020-10-03T13:57:27.000Z</time>
      </trkpt>
      <trkpt lat="43.62386" lon="0.84068">
        <ele>198</ele>
        <time>2020-10-03T13:57:28.000Z</time>
      </trkpt>
      <trkpt lat="43.62385" lon="0.84064">
        <ele>197.09909016478</ele>
        <time>2020-10-03T13:57:29.000Z</time>
      </trkpt>
      <trkpt lat="43.62383" lon="0.8406">
        <ele>196</ele>
        <time>2020-10-03T13:57:30.000Z</time>
      </trkpt>
      <trkpt lat="43.62382" lon="0.84056">
        <ele>196</ele>
        <time>2020-10-03T13:57:31.000Z</time>
      </trkpt>
      <trkpt lat="43.6238" lon="0.84053">
        <ele>195.56521932705</ele>
        <time>2020-10-03T13:57:32.000Z</time>
      </trkpt>
      <trkpt lat="43.62379" lon="0.84049">
        <ele>195</ele>
        <time>2020-10-03T13:57:33.000Z</time>
      </trkpt>
      <trkpt lat="43.62377" lon="0.84046">
        <ele>195</ele>
        <time>2020-10-03T13:57:34.000Z</time>
      </trkpt>
      <trkpt lat="43.62376" lon="0.84042">
        <ele>194.27535640414</ele>
        <time>2020-10-03T13:57:35.000Z</time>
      </trkpt>
      <trkpt lat="43.62374" lon="0.84039">
        <ele>193</ele>
        <time>2020-10-03T13:57:36.000Z</time>
      </trkpt>
      <trkpt lat="43.62372" lon="0.84035">
        <ele>193</ele>
        <time>2020-10-03T13:57:37.000Z</time>
      </trkpt>
      <trkpt lat="43.62371" lon="0.8403">
        <ele>192.29090739836</ele>
        <time>2020-10-03T13:57:38.000Z</time>
      </trkpt>
      <trkpt lat="43.62369" lon="0.84026">
        <ele>191</ele>
        <time>2020-10-03T13:57:39.000Z</time>
      </trkpt>
      <trkpt lat="43.62368" lon="0.84022">
        <ele>191</ele>
        <time>2020-10-03T13:57:40.000Z</time>
      </trkpt>
      <trkpt lat="43.62366" lon="0.84017">
        <ele>190.78788642799</ele>
        <time>2020-10-03T13:57:41.000Z</time>
      </trkpt>
      <trkpt lat="43.62365" lon="0.84013">
        <ele>190</ele>
        <time>2020-10-03T13:57:42.000Z</time>
      </trkpt>
      <trkpt lat="43.62364" lon="0.8401">
        <ele>190</ele>
        <time>2020-10-03T13:57:43.000Z</time>
      </trkpt>
      <trkpt lat="43.62362" lon="0.84006">
        <ele>190</ele>
        <time>2020-10-03T13:57:44.000Z</time>
      </trkpt>
      <trkpt lat="43.62361" lon="0.84003">
        <ele>190</ele>
        <time>2020-10-03T13:57:45.000Z</time>
      </trkpt>
      <trkpt lat="43.6236" lon="0.83999">
        <ele>189.09091543805</ele>
        <time>2020-10-03T13:57:46.000Z</time>
      </trkpt>
      <trkpt lat="43.62359" lon="0.83995">
        <ele>188</ele>
        <time>2020-10-03T13:57:47.000Z</time>
      </trkpt>
      <trkpt lat="43.62358" lon="0.83992">
        <ele>188</ele>
        <time>2020-10-03T13:57:48.000Z</time>
      </trkpt>
      <trkpt lat="43.62356" lon="0.83988">
        <ele>188</ele>
        <time>2020-10-03T13:57:49.000Z</time>
      </trkpt>
      <trkpt lat="43.62355" lon="0.83985">
        <ele>187.59999461054</ele>
        <time>2020-10-03T13:57:50.000Z</time>
      </trkpt>
      <trkpt lat="43.62353" lon="0.83982">
        <ele>187</ele>
        <time>2020-10-03T13:57:51.000Z</time>
      </trkpt>
      <trkpt lat="43.62352" lon="0.83979">
        <ele>187</ele>
        <time>2020-10-03T13:57:52.000Z</time>
      </trkpt>
      <trkpt lat="43.6235" lon="0.83976">
        <ele>187</ele>
        <time>2020-10-03T13:57:53.000Z</time>
      </trkpt>
      <trkpt lat="43.62348" lon="0.83972">
        <ele>186.59523954651</ele>
        <time>2020-10-03T13:57:54.000Z</time>
      </trkpt>
      <trkpt lat="43.62347" lon="0.83969">
        <ele>186</ele>
        <time>2020-10-03T13:57:55.000Z</time>
      </trkpt>
      <trkpt lat="43.62346" lon="0.83965">
        <ele>185.60975305173</ele>
        <time>2020-10-03T13:57:56.000Z</time>
      </trkpt>
      <trkpt lat="43.62344" lon="0.83961">
        <ele>185</ele>
        <time>2020-10-03T13:57:57.000Z</time>
      </trkpt>
      <trkpt lat="43.62343" lon="0.83958">
        <ele>184.63636575205</ele>
        <time>2020-10-03T13:57:58.000Z</time>
      </trkpt>
      <trkpt lat="43.62342" lon="0.83955">
        <ele>184</ele>
        <time>2020-10-03T13:57:59.000Z</time>
      </trkpt>
      <trkpt lat="43.6234" lon="0.83952">
        <ele>184</ele>
        <time>2020-10-03T13:58:00.000Z</time>
      </trkpt>
      <trkpt lat="43.62338" lon="0.83948">
        <ele>184</ele>
        <time>2020-10-03T13:58:01.000Z</time>
      </trkpt>
      <trkpt lat="43.62336" lon="0.83944">
        <ele>183.72641646138</ele>
        <time>2020-10-03T13:58:02.000Z</time>
      </trkpt>
      <trkpt lat="43.62334" lon="0.8394">
        <ele>183</ele>
        <time>2020-10-03T13:58:03.000Z</time>
      </trkpt>
      <trkpt lat="43.62332" lon="0.83937">
        <ele>183</ele>
        <time>2020-10-03T13:58:04.000Z</time>
      </trkpt>
      <trkpt lat="43.6233" lon="0.83933">
        <ele>183</ele>
        <time>2020-10-03T13:58:05.000Z</time>
      </trkpt>
      <trkpt lat="43.62328" lon="0.8393">
        <ele>183</ele>
        <time>2020-10-03T13:58:06.000Z</time>
      </trkpt>
      <trkpt lat="43.62326" lon="0.83926">
        <ele>183</ele>
        <time>2020-10-03T13:58:07.000Z</time>
      </trkpt>
      <trkpt lat="43.62324" lon="0.83923">
        <ele>183</ele>
        <time>2020-10-03T13:58:08.000Z</time>
      </trkpt>
      <trkpt lat="43.62322" lon="0.8392">
        <ele>182.20879399105</ele>
        <time>2020-10-03T13:58:09.000Z</time>
      </trkpt>
      <trkpt lat="43.6232" lon="0.83917">
        <ele>180</ele>
        <time>2020-10-03T13:58:10.000Z</time>
      </trkpt>
      <trkpt lat="43.62318" lon="0.83914">
        <ele>180</ele>
        <time>2020-10-03T13:58:11.000Z</time>
      </trkpt>
      <trkpt lat="43.62317" lon="0.83911">
        <ele>179.29090739836</ele>
        <time>2020-10-03T13:58:12.000Z</time>
      </trkpt>
      <trkpt lat="43.62315" lon="0.83908">
        <ele>178</ele>
        <time>2020-10-03T13:58:13.000Z</time>
      </trkpt>
      <trkpt lat="43.62313" lon="0.83904">
        <ele>178</ele>
        <time>2020-10-03T13:58:14.000Z</time>
      </trkpt>
      <trkpt lat="43.62311" lon="0.839">
        <ele>177.67618734153</ele>
        <time>2020-10-03T13:58:15.000Z</time>
      </trkpt>
      <trkpt lat="43.62308" lon="0.83895">
        <ele>177</ele>
        <time>2020-10-03T13:58:16.000Z</time>
      </trkpt>
      <trkpt lat="43.62306" lon="0.83891">
        <ele>177</ele>
        <time>2020-10-03T13:58:17.000Z</time>
      </trkpt>
      <trkpt lat="43.62304" lon="0.83887">
        <ele>177</ele>
        <time>2020-10-03T13:58:18.000Z</time>
      </trkpt>
      <trkpt lat="43.62301" lon="0.83883">
        <ele>177</ele>
        <time>2020-10-03T13:58:19.000Z</time>
      </trkpt>
      <trkpt lat="43.623" lon="0.83879">
        <ele>177</ele>
        <time>2020-10-03T13:58:20.000Z</time>
      </trkpt>
      <trkpt lat="43.62298" lon="0.83876">
        <ele>177</ele>
        <time>2020-10-03T13:58:21.000Z</time>
      </trkpt>
      <trkpt lat="43.62297" lon="0.83872">
        <ele>177</ele>
        <time>2020-10-03T13:58:22.000Z</time>
      </trkpt>
      <trkpt lat="43.62296" lon="0.83869">
        <ele>177</ele>
        <time>2020-10-03T13:58:23.000Z</time>
      </trkpt>
      <trkpt lat="43.62295" lon="0.83865">
        <ele>177</ele>
        <time>2020-10-03T13:58:24.000Z</time>
      </trkpt>
      <trkpt lat="43.62294" lon="0.83862">
        <ele>177</ele>
        <time>2020-10-03T13:58:25.000Z</time>
      </trkpt>
      <trkpt lat="43.62293" lon="0.83859">
        <ele>176.59459397126</ele>
        <time>2020-10-03T13:58:26.000Z</time>
      </trkpt>
      <trkpt lat="43.6229" lon="0.83855">
        <ele>176</ele>
        <time>2020-10-03T13:58:27.000Z</time>
      </trkpt>
      <trkpt lat="43.62288" lon="0.83851">
        <ele>176</ele>
        <time>2020-10-03T13:58:28.000Z</time>
      </trkpt>
      <trkpt lat="43.62286" lon="0.83848">
        <ele>175.54545137192</ele>
        <time>2020-10-03T13:58:29.000Z</time>
      </trkpt>
      <trkpt lat="43.62285" lon="0.83844">
        <ele>175</ele>
        <time>2020-10-03T13:58:30.000Z</time>
      </trkpt>
      <trkpt lat="43.62283" lon="0.83841">
        <ele>175</ele>
        <time>2020-10-03T13:58:31.000Z</time>
      </trkpt>
      <trkpt lat="43.62282" lon="0.83838">
        <ele>175</ele>
        <time>2020-10-03T13:58:32.000Z</time>
      </trkpt>
      <trkpt lat="43.62281" lon="0.83835">
        <ele>175</ele>
        <time>2020-10-03T13:58:33.000Z</time>
      </trkpt>
      <trkpt lat="43.62279" lon="0.83831">
        <ele>175</ele>
        <time>2020-10-03T13:58:34.000Z</time>
      </trkpt>
      <trkpt lat="43.62278" lon="0.83828">
        <ele>174.58586315681</ele>
        <time>2020-10-03T13:58:35.000Z</time>
      </trkpt>
      <trkpt lat="43.62276" lon="0.83825">
        <ele>174</ele>
        <time>2020-10-03T13:58:36.000Z</time>
      </trkpt>
      <trkpt lat="43.62274" lon="0.83822">
        <ele>174</ele>
        <time>2020-10-03T13:58:37.000Z</time>
      </trkpt>
      <trkpt lat="43.62272" lon="0.83819">
        <ele>174</ele>
        <time>2020-10-03T13:58:38.000Z</time>
      </trkpt>
      <trkpt lat="43.6227" lon="0.83816">
        <ele>174</ele>
        <time>2020-10-03T13:58:39.000Z</time>
      </trkpt>
      <trkpt lat="43.62268" lon="0.83812">
        <ele>173.78027080858</ele>
        <time>2020-10-03T13:58:40.000Z</time>
      </trkpt>
      <trkpt lat="43.62265" lon="0.83806">
        <ele>173</ele>
        <time>2020-10-03T13:58:42.000Z</time>
      </trkpt>
      <trkpt lat="43.62263" lon="0.83803">
        <ele>173</ele>
        <time>2020-10-03T13:58:43.000Z</time>
      </trkpt>
      <trkpt lat="43.62262" lon="0.838">
        <ele>173</ele>
        <time>2020-10-03T13:58:44.000Z</time>
      </trkpt>
      <trkpt lat="43.6226" lon="0.83797">
        <ele>173</ele>
        <time>2020-10-03T13:58:45.000Z</time>
      </trkpt>
      <trkpt lat="43.62258" lon="0.83794">
        <ele>173</ele>
        <time>2020-10-03T13:58:46.000Z</time>
      </trkpt>
      <trkpt lat="43.62256" lon="0.83791">
        <ele>173</ele>
        <time>2020-10-03T13:58:47.000Z</time>
      </trkpt>
      <trkpt lat="43.62254" lon="0.83788">
        <ele>173</ele>
        <time>2020-10-03T13:58:48.000Z</time>
      </trkpt>
      <trkpt lat="43.62251" lon="0.8378">
        <ele>172</ele>
        <time>2020-10-03T13:58:50.000Z</time>
      </trkpt>
      <trkpt lat="43.6225" lon="0.83776">
        <ele>172</ele>
        <time>2020-10-03T13:58:51.000Z</time>
      </trkpt>
      <trkpt lat="43.62248" lon="0.83772">
        <ele>172</ele>
        <time>2020-10-03T13:58:52.000Z</time>
      </trkpt>
      <trkpt lat="43.62247" lon="0.83768">
        <ele>171.57391701171</ele>
        <time>2020-10-03T13:58:53.000Z</time>
      </trkpt>
      <trkpt lat="43.62245" lon="0.83765">
        <ele>171</ele>
        <time>2020-10-03T13:58:54.000Z</time>
      </trkpt>
      <trkpt lat="43.62244" lon="0.83762">
        <ele>171</ele>
        <time>2020-10-03T13:58:55.000Z</time>
      </trkpt>
      <trkpt lat="43.62243" lon="0.83757">
        <ele>171</ele>
        <time>2020-10-03T13:58:56.000Z</time>
      </trkpt>
      <trkpt lat="43.62242" lon="0.83752">
        <ele>171</ele>
        <time>2020-10-03T13:58:57.000Z</time>
      </trkpt>
      <trkpt lat="43.62241" lon="0.83747">
        <ele>171</ele>
        <time>2020-10-03T13:58:58.000Z</time>
      </trkpt>
      <trkpt lat="43.6224" lon="0.83743">
        <ele>171</ele>
        <time>2020-10-03T13:58:59.000Z</time>
      </trkpt>
      <trkpt lat="43.62239" lon="0.83739">
        <ele>170.98246165592</ele>
        <time>2020-10-03T13:59:00.000Z</time>
      </trkpt>
      <trkpt lat="43.62238" lon="0.83735">
        <ele>170</ele>
        <time>2020-10-03T13:59:01.000Z</time>
      </trkpt>
      <trkpt lat="43.62237" lon="0.83731">
        <ele>170</ele>
        <time>2020-10-03T13:59:02.000Z</time>
      </trkpt>
      <trkpt lat="43.62235" lon="0.83728">
        <ele>170</ele>
        <time>2020-10-03T13:59:03.000Z</time>
      </trkpt>
      <trkpt lat="43.62234" lon="0.83724">
        <ele>169.64864677868</ele>
        <time>2020-10-03T13:59:04.000Z</time>
      </trkpt>
      <trkpt lat="43.62234" lon="0.8372">
        <ele>169</ele>
        <time>2020-10-03T13:59:05.000Z</time>
      </trkpt>
      <trkpt lat="43.62233" lon="0.83717">
        <ele>169</ele>
        <time>2020-10-03T13:59:06.000Z</time>
      </trkpt>
      <trkpt lat="43.62232" lon="0.83714">
        <ele>168.57471788609</ele>
        <time>2020-10-03T13:59:07.000Z</time>
      </trkpt>
      <trkpt lat="43.62232" lon="0.83711">
        <ele>168</ele>
        <time>2020-10-03T13:59:08.000Z</time>
      </trkpt>
      <trkpt lat="43.62232" lon="0.83707">
        <ele>168</ele>
        <time>2020-10-03T13:59:09.000Z</time>
      </trkpt>
      <trkpt lat="43.62232" lon="0.83703">
        <ele>168</ele>
        <time>2020-10-03T13:59:10.000Z</time>
      </trkpt>
      <trkpt lat="43.62232" lon="0.83699">
        <ele>168</ele>
        <time>2020-10-03T13:59:11.000Z</time>
      </trkpt>
      <trkpt lat="43.62232" lon="0.83696">
        <ele>168</ele>
        <time>2020-10-03T13:59:12.000Z</time>
      </trkpt>
      <trkpt lat="43.62232" lon="0.83693">
        <ele>168</ele>
        <time>2020-10-03T13:59:13.000Z</time>
      </trkpt>
      <trkpt lat="43.62231" lon="0.83691">
        <ele>168.86365090909</ele>
        <time>2020-10-03T13:59:14.000Z</time>
      </trkpt>
      <trkpt lat="43.6223" lon="0.83688">
        <ele>170</ele>
        <time>2020-10-03T13:59:15.000Z</time>
      </trkpt>
      <trkpt lat="43.6223" lon="0.83685">
        <ele>170</ele>
        <time>2020-10-03T13:59:16.000Z</time>
      </trkpt>
      <trkpt lat="43.62229" lon="0.83682">
        <ele>170</ele>
        <time>2020-10-03T13:59:17.000Z</time>
      </trkpt>
      <trkpt lat="43.62229" lon="0.83679">
        <ele>170</ele>
        <time>2020-10-03T13:59:18.000Z</time>
      </trkpt>
      <trkpt lat="43.62229" lon="0.83676">
        <ele>170</ele>
        <time>2020-10-03T13:59:19.000Z</time>
      </trkpt>
      <trkpt lat="43.62228" lon="0.83673">
        <ele>170</ele>
        <time>2020-10-03T13:59:20.000Z</time>
      </trkpt>
      <trkpt lat="43.62228" lon="0.8367">
        <ele>170</ele>
        <time>2020-10-03T13:59:21.000Z</time>
      </trkpt>
      <trkpt lat="43.62227" lon="0.83667">
        <ele>169.64485489389</ele>
        <time>2020-10-03T13:59:22.000Z</time>
      </trkpt>
      <trkpt lat="43.62227" lon="0.83664">
        <ele>169</ele>
        <time>2020-10-03T13:59:23.000Z</time>
      </trkpt>
      <trkpt lat="43.62227" lon="0.83661">
        <ele>169</ele>
        <time>2020-10-03T13:59:24.000Z</time>
      </trkpt>
      <trkpt lat="43.62227" lon="0.83658">
        <ele>169.41666666667</ele>
        <time>2020-10-03T13:59:25.000Z</time>
      </trkpt>
      <trkpt lat="43.62227" lon="0.83655">
        <ele>170</ele>
        <time>2020-10-03T13:59:26.000Z</time>
      </trkpt>
      <trkpt lat="43.62227" lon="0.83652">
        <ele>170</ele>
        <time>2020-10-03T13:59:27.000Z</time>
      </trkpt>
      <trkpt lat="43.62226" lon="0.83649">
        <ele>170.5</ele>
        <time>2020-10-03T13:59:28.000Z</time>
      </trkpt>
      <trkpt lat="43.62226" lon="0.83646">
        <ele>171</ele>
        <time>2020-10-03T13:59:29.000Z</time>
      </trkpt>
      <trkpt lat="43.62226" lon="0.83643">
        <ele>171</ele>
        <time>2020-10-03T13:59:30.000Z</time>
      </trkpt>
      <trkpt lat="43.62226" lon="0.83639">
        <ele>171</ele>
        <time>2020-10-03T13:59:31.000Z</time>
      </trkpt>
      <trkpt lat="43.62226" lon="0.83635">
        <ele>171</ele>
        <time>2020-10-03T13:59:32.000Z</time>
      </trkpt>
      <trkpt lat="43.62226" lon="0.83632">
        <ele>171</ele>
        <time>2020-10-03T13:59:33.000Z</time>
      </trkpt>
      <trkpt lat="43.62225" lon="0.83628">
        <ele>171</ele>
        <time>2020-10-03T13:59:34.000Z</time>
      </trkpt>
      <trkpt lat="43.62225" lon="0.83624">
        <ele>171.43636617522</ele>
        <time>2020-10-03T13:59:35.000Z</time>
      </trkpt>
      <trkpt lat="43.62225" lon="0.83622">
        <ele>172</ele>
        <time>2020-10-03T13:59:36.000Z</time>
      </trkpt>
      <trkpt lat="43.62224" lon="0.83619">
        <ele>172</ele>
        <time>2020-10-03T13:59:37.000Z</time>
      </trkpt>
      <trkpt lat="43.62224" lon="0.83617">
        <ele>172</ele>
        <time>2020-10-03T13:59:38.000Z</time>
      </trkpt>
      <trkpt lat="43.62224" lon="0.83614">
        <ele>172</ele>
        <time>2020-10-03T13:59:39.000Z</time>
      </trkpt>
      <trkpt lat="43.62224" lon="0.83611">
        <ele>172</ele>
        <time>2020-10-03T13:59:40.000Z</time>
      </trkpt>
      <trkpt lat="43.62224" lon="0.83607">
        <ele>172</ele>
        <time>2020-10-03T13:59:41.000Z</time>
      </trkpt>
      <trkpt lat="43.62224" lon="0.83603">
        <ele>172</ele>
        <time>2020-10-03T13:59:42.000Z</time>
      </trkpt>
      <trkpt lat="43.62223" lon="0.836">
        <ele>172</ele>
        <time>2020-10-03T13:59:43.000Z</time>
      </trkpt>
      <trkpt lat="43.62223" lon="0.83598">
        <ele>172</ele>
        <time>2020-10-03T13:59:44.000Z</time>
      </trkpt>
      <trkpt lat="43.62223" lon="0.83595">
        <ele>172</ele>
        <time>2020-10-03T13:59:45.000Z</time>
      </trkpt>
      <trkpt lat="43.62222" lon="0.83593">
        <ele>172.45454228097</ele>
        <time>2020-10-03T13:59:46.000Z</time>
      </trkpt>
      <trkpt lat="43.62221" lon="0.8359">
        <ele>173</ele>
        <time>2020-10-03T13:59:47.000Z</time>
      </trkpt>
      <trkpt lat="43.6222" lon="0.83587">
        <ele>173</ele>
        <time>2020-10-03T13:59:48.000Z</time>
      </trkpt>
      <trkpt lat="43.62219" lon="0.83584">
        <ele>173.30337547281</ele>
        <time>2020-10-03T13:59:49.000Z</time>
      </trkpt>
      <trkpt lat="43.62219" lon="0.83581">
        <ele>174</ele>
        <time>2020-10-03T13:59:50.000Z</time>
      </trkpt>
      <trkpt lat="43.62219" lon="0.83578">
        <ele>174</ele>
        <time>2020-10-03T13:59:51.000Z</time>
      </trkpt>
      <trkpt lat="43.62218" lon="0.83575">
        <ele>174</ele>
        <time>2020-10-03T13:59:52.000Z</time>
      </trkpt>
      <trkpt lat="43.62218" lon="0.83573">
        <ele>174.43518814815</ele>
        <time>2020-10-03T13:59:53.000Z</time>
      </trkpt>
      <trkpt lat="43.62217" lon="0.8357">
        <ele>175</ele>
        <time>2020-10-03T13:59:54.000Z</time>
      </trkpt>
      <trkpt lat="43.62217" lon="0.83567">
        <ele>175</ele>
        <time>2020-10-03T13:59:55.000Z</time>
      </trkpt>
      <trkpt lat="43.62216" lon="0.83564">
        <ele>175</ele>
        <time>2020-10-03T13:59:56.000Z</time>
      </trkpt>
      <trkpt lat="43.62215" lon="0.83561">
        <ele>175</ele>
        <time>2020-10-03T13:59:57.000Z</time>
      </trkpt>
      <trkpt lat="43.62215" lon="0.83558">
        <ele>175</ele>
        <time>2020-10-03T13:59:58.000Z</time>
      </trkpt>
      <trkpt lat="43.62214" lon="0.83555">
        <ele>175</ele>
        <time>2020-10-03T13:59:59.000Z</time>
      </trkpt>
      <trkpt lat="43.62213" lon="0.83551">
        <ele>175.36190754827</ele>
        <time>2020-10-03T14:00:00.000Z</time>
      </trkpt>
      <trkpt lat="43.62212" lon="0.83548">
        <ele>176</ele>
        <time>2020-10-03T14:00:01.000Z</time>
      </trkpt>
      <trkpt lat="43.62212" lon="0.83545">
        <ele>176</ele>
        <time>2020-10-03T14:00:02.000Z</time>
      </trkpt>
      <trkpt lat="43.62211" lon="0.83542">
        <ele>176</ele>
        <time>2020-10-03T14:00:03.000Z</time>
      </trkpt>
      <trkpt lat="43.6221" lon="0.83539">
        <ele>176</ele>
        <time>2020-10-03T14:00:04.000Z</time>
      </trkpt>
      <trkpt lat="43.6221" lon="0.83536">
        <ele>176.38938163365</ele>
        <time>2020-10-03T14:00:05.000Z</time>
      </trkpt>
      <trkpt lat="43.6221" lon="0.83534">
        <ele>177</ele>
        <time>2020-10-03T14:00:06.000Z</time>
      </trkpt>
      <trkpt lat="43.62208" lon="0.83529">
        <ele>177</ele>
        <time>2020-10-03T14:00:08.000Z</time>
      </trkpt>
      <trkpt lat="43.62207" lon="0.83526">
        <ele>177</ele>
        <time>2020-10-03T14:00:09.000Z</time>
      </trkpt>
      <trkpt lat="43.62206" lon="0.83523">
        <ele>177</ele>
        <time>2020-10-03T14:00:10.000Z</time>
      </trkpt>
      <trkpt lat="43.62205" lon="0.8352">
        <ele>177.49019927718</ele>
        <time>2020-10-03T14:00:11.000Z</time>
      </trkpt>
      <trkpt lat="43.62204" lon="0.83517">
        <ele>178</ele>
        <time>2020-10-03T14:00:12.000Z</time>
      </trkpt>
      <trkpt lat="43.62203" lon="0.83514">
        <ele>178</ele>
        <time>2020-10-03T14:00:13.000Z</time>
      </trkpt>
      <trkpt lat="43.62202" lon="0.83511">
        <ele>178</ele>
        <time>2020-10-03T14:00:14.000Z</time>
      </trkpt>
      <trkpt lat="43.62201" lon="0.83508">
        <ele>178</ele>
        <time>2020-10-03T14:00:15.000Z</time>
      </trkpt>
      <trkpt lat="43.622" lon="0.83505">
        <ele>178</ele>
        <time>2020-10-03T14:00:16.000Z</time>
      </trkpt>
      <trkpt lat="43.62199" lon="0.83501">
        <ele>178</ele>
        <time>2020-10-03T14:00:17.000Z</time>
      </trkpt>
      <trkpt lat="43.62198" lon="0.83498">
        <ele>178</ele>
        <time>2020-10-03T14:00:18.000Z</time>
      </trkpt>
      <trkpt lat="43.62197" lon="0.83495">
        <ele>178</ele>
        <time>2020-10-03T14:00:19.000Z</time>
      </trkpt>
      <trkpt lat="43.62197" lon="0.83492">
        <ele>178</ele>
        <time>2020-10-03T14:00:20.000Z</time>
      </trkpt>
      <trkpt lat="43.62196" lon="0.83489">
        <ele>178.42045090909</ele>
        <time>2020-10-03T14:00:21.000Z</time>
      </trkpt>
      <trkpt lat="43.62195" lon="0.83487">
        <ele>179</ele>
        <time>2020-10-03T14:00:22.000Z</time>
      </trkpt>
      <trkpt lat="43.62194" lon="0.83484">
        <ele>179</ele>
        <time>2020-10-03T14:00:23.000Z</time>
      </trkpt>
      <trkpt lat="43.62193" lon="0.8348">
        <ele>179</ele>
        <time>2020-10-03T14:00:25.000Z</time>
      </trkpt>
      <trkpt lat="43.62193" lon="0.83477">
        <ele>179</ele>
        <time>2020-10-03T14:00:26.000Z</time>
      </trkpt>
      <trkpt lat="43.62192" lon="0.83474">
        <ele>179</ele>
        <time>2020-10-03T14:00:27.000Z</time>
      </trkpt>
      <trkpt lat="43.62191" lon="0.83472">
        <ele>179</ele>
        <time>2020-10-03T14:00:28.000Z</time>
      </trkpt>
      <trkpt lat="43.6219" lon="0.83469">
        <ele>179</ele>
        <time>2020-10-03T14:00:29.000Z</time>
      </trkpt>
      <trkpt lat="43.6219" lon="0.83467">
        <ele>179</ele>
        <time>2020-10-03T14:00:30.000Z</time>
      </trkpt>
      <trkpt lat="43.62188" lon="0.83464">
        <ele>179</ele>
        <time>2020-10-03T14:00:31.000Z</time>
      </trkpt>
      <trkpt lat="43.62187" lon="0.83461">
        <ele>179</ele>
        <time>2020-10-03T14:00:32.000Z</time>
      </trkpt>
      <trkpt lat="43.62186" lon="0.83458">
        <ele>179</ele>
        <time>2020-10-03T14:00:33.000Z</time>
      </trkpt>
      <trkpt lat="43.62185" lon="0.83456">
        <ele>179</ele>
        <time>2020-10-03T14:00:34.000Z</time>
      </trkpt>
      <trkpt lat="43.62184" lon="0.83453">
        <ele>179</ele>
        <time>2020-10-03T14:00:35.000Z</time>
      </trkpt>
      <trkpt lat="43.62183" lon="0.83451">
        <ele>179</ele>
        <time>2020-10-03T14:00:36.000Z</time>
      </trkpt>
      <trkpt lat="43.62182" lon="0.83449">
        <ele>179.86869052545</ele>
        <time>2020-10-03T14:00:37.000Z</time>
      </trkpt>
      <trkpt lat="43.6218" lon="0.83446">
        <ele>181</ele>
        <time>2020-10-03T14:00:38.000Z</time>
      </trkpt>
      <trkpt lat="43.62179" lon="0.83444">
        <ele>181</ele>
        <time>2020-10-03T14:00:39.000Z</time>
      </trkpt>
      <trkpt lat="43.62178" lon="0.83442">
        <ele>181.44444444444</ele>
        <time>2020-10-03T14:00:40.000Z</time>
      </trkpt>
      <trkpt lat="43.62177" lon="0.83439">
        <ele>182</ele>
        <time>2020-10-03T14:00:41.000Z</time>
      </trkpt>
      <trkpt lat="43.62176" lon="0.83437">
        <ele>182</ele>
        <time>2020-10-03T14:00:42.000Z</time>
      </trkpt>
      <trkpt lat="43.62175" lon="0.83435">
        <ele>182</ele>
        <time>2020-10-03T14:00:43.000Z</time>
      </trkpt>
      <trkpt lat="43.62175" lon="0.83432">
        <ele>182</ele>
        <time>2020-10-03T14:00:44.000Z</time>
      </trkpt>
      <trkpt lat="43.62174" lon="0.83429">
        <ele>182</ele>
        <time>2020-10-03T14:00:45.000Z</time>
      </trkpt>
      <trkpt lat="43.62174" lon="0.83427">
        <ele>182</ele>
        <time>2020-10-03T14:00:46.000Z</time>
      </trkpt>
      <trkpt lat="43.62172" lon="0.83422">
        <ele>182</ele>
        <time>2020-10-03T14:00:48.000Z</time>
      </trkpt>
      <trkpt lat="43.62171" lon="0.8342">
        <ele>182</ele>
        <time>2020-10-03T14:00:49.000Z</time>
      </trkpt>
      <trkpt lat="43.62169" lon="0.83416">
        <ele>182.5</ele>
        <time>2020-10-03T14:00:51.000Z</time>
      </trkpt>
      <trkpt lat="43.62167" lon="0.83413">
        <ele>183</ele>
        <time>2020-10-03T14:00:52.000Z</time>
      </trkpt>
      <trkpt lat="43.62166" lon="0.8341">
        <ele>183.62294359577</ele>
        <time>2020-10-03T14:00:53.000Z</time>
      </trkpt>
      <trkpt lat="43.62166" lon="0.83408">
        <ele>185</ele>
        <time>2020-10-03T14:00:54.000Z</time>
      </trkpt>
      <trkpt lat="43.62164" lon="0.83405">
        <ele>185</ele>
        <time>2020-10-03T14:00:55.000Z</time>
      </trkpt>
      <trkpt lat="43.62162" lon="0.83402">
        <ele>185</ele>
        <time>2020-10-03T14:00:57.000Z</time>
      </trkpt>
      <trkpt lat="43.62161" lon="0.834">
        <ele>185</ele>
        <time>2020-10-03T14:00:58.000Z</time>
      </trkpt>
      <trkpt lat="43.6216" lon="0.83398">
        <ele>185</ele>
        <time>2020-10-03T14:00:59.000Z</time>
      </trkpt>
      <trkpt lat="43.62158" lon="0.83395">
        <ele>185</ele>
        <time>2020-10-03T14:01:00.000Z</time>
      </trkpt>
      <trkpt lat="43.62157" lon="0.83392">
        <ele>185.89907933675</ele>
        <time>2020-10-03T14:01:01.000Z</time>
      </trkpt>
      <trkpt lat="43.62156" lon="0.8339">
        <ele>187</ele>
        <time>2020-10-03T14:01:02.000Z</time>
      </trkpt>
      <trkpt lat="43.62155" lon="0.83387">
        <ele>187</ele>
        <time>2020-10-03T14:01:03.000Z</time>
      </trkpt>
      <trkpt lat="43.62153" lon="0.83384">
        <ele>187</ele>
        <time>2020-10-03T14:01:04.000Z</time>
      </trkpt>
      <trkpt lat="43.62152" lon="0.83382">
        <ele>187</ele>
        <time>2020-10-03T14:01:05.000Z</time>
      </trkpt>
      <trkpt lat="43.6215" lon="0.83379">
        <ele>187</ele>
        <time>2020-10-03T14:01:06.000Z</time>
      </trkpt>
      <trkpt lat="43.62149" lon="0.83377">
        <ele>187</ele>
        <time>2020-10-03T14:01:07.000Z</time>
      </trkpt>
      <trkpt lat="43.62147" lon="0.83375">
        <ele>187</ele>
        <time>2020-10-03T14:01:08.000Z</time>
      </trkpt>
      <trkpt lat="43.62146" lon="0.83372">
        <ele>187</ele>
        <time>2020-10-03T14:01:09.000Z</time>
      </trkpt>
      <trkpt lat="43.62145" lon="0.83369">
        <ele>187</ele>
        <time>2020-10-03T14:01:10.000Z</time>
      </trkpt>
      <trkpt lat="43.62144" lon="0.83367">
        <ele>187.25580841532</ele>
        <time>2020-10-03T14:01:11.000Z</time>
      </trkpt>
      <trkpt lat="43.62142" lon="0.83365">
        <ele>188</ele>
        <time>2020-10-03T14:01:12.000Z</time>
      </trkpt>
      <trkpt lat="43.62141" lon="0.83363">
        <ele>188</ele>
        <time>2020-10-03T14:01:13.000Z</time>
      </trkpt>
      <trkpt lat="43.62139" lon="0.8336">
        <ele>188</ele>
        <time>2020-10-03T14:01:14.000Z</time>
      </trkpt>
      <trkpt lat="43.62138" lon="0.83358">
        <ele>188</ele>
        <time>2020-10-03T14:01:15.000Z</time>
      </trkpt>
      <trkpt lat="43.62137" lon="0.83355">
        <ele>188</ele>
        <time>2020-10-03T14:01:16.000Z</time>
      </trkpt>
      <trkpt lat="43.62135" lon="0.83352">
        <ele>188</ele>
        <time>2020-10-03T14:01:17.000Z</time>
      </trkpt>
      <trkpt lat="43.62134" lon="0.83349">
        <ele>188</ele>
        <time>2020-10-03T14:01:18.000Z</time>
      </trkpt>
      <trkpt lat="43.62133" lon="0.83346">
        <ele>188</ele>
        <time>2020-10-03T14:01:19.000Z</time>
      </trkpt>
      <trkpt lat="43.62131" lon="0.83342">
        <ele>188</ele>
        <time>2020-10-03T14:01:21.000Z</time>
      </trkpt>
      <trkpt lat="43.6213" lon="0.83339">
        <ele>188</ele>
        <time>2020-10-03T14:01:22.000Z</time>
      </trkpt>
      <trkpt lat="43.62129" lon="0.83336">
        <ele>188.42857142857</ele>
        <time>2020-10-03T14:01:23.000Z</time>
      </trkpt>
      <trkpt lat="43.62129" lon="0.83334">
        <ele>189</ele>
        <time>2020-10-03T14:01:24.000Z</time>
      </trkpt>
      <trkpt lat="43.62128" lon="0.83331">
        <ele>189</ele>
        <time>2020-10-03T14:01:25.000Z</time>
      </trkpt>
      <trkpt lat="43.62127" lon="0.83328">
        <ele>189</ele>
        <time>2020-10-03T14:01:26.000Z</time>
      </trkpt>
      <trkpt lat="43.62126" lon="0.83325">
        <ele>189</ele>
        <time>2020-10-03T14:01:27.000Z</time>
      </trkpt>
      <trkpt lat="43.62125" lon="0.83322">
        <ele>189</ele>
        <time>2020-10-03T14:01:28.000Z</time>
      </trkpt>
      <trkpt lat="43.62124" lon="0.83318">
        <ele>189</ele>
        <time>2020-10-03T14:01:29.000Z</time>
      </trkpt>
      <trkpt lat="43.62123" lon="0.83315">
        <ele>189</ele>
        <time>2020-10-03T14:01:30.000Z</time>
      </trkpt>
      <trkpt lat="43.62122" lon="0.83312">
        <ele>189</ele>
        <time>2020-10-03T14:01:31.000Z</time>
      </trkpt>
      <trkpt lat="43.62121" lon="0.8331">
        <ele>189</ele>
        <time>2020-10-03T14:01:32.000Z</time>
      </trkpt>
      <trkpt lat="43.62119" lon="0.83307">
        <ele>189</ele>
        <time>2020-10-03T14:01:33.000Z</time>
      </trkpt>
      <trkpt lat="43.62118" lon="0.83304">
        <ele>189.35227636364</ele>
        <time>2020-10-03T14:01:34.000Z</time>
      </trkpt>
      <trkpt lat="43.62117" lon="0.83302">
        <ele>190</ele>
        <time>2020-10-03T14:01:35.000Z</time>
      </trkpt>
      <trkpt lat="43.62115" lon="0.83299">
        <ele>190</ele>
        <time>2020-10-03T14:01:36.000Z</time>
      </trkpt>
      <trkpt lat="43.62115" lon="0.83297">
        <ele>190</ele>
        <time>2020-10-03T14:01:37.000Z</time>
      </trkpt>
      <trkpt lat="43.62114" lon="0.83294">
        <ele>190</ele>
        <time>2020-10-03T14:01:38.000Z</time>
      </trkpt>
      <trkpt lat="43.62113" lon="0.83291">
        <ele>190</ele>
        <time>2020-10-03T14:01:39.000Z</time>
      </trkpt>
      <trkpt lat="43.62112" lon="0.83289">
        <ele>190.39215440217</ele>
        <time>2020-10-03T14:01:40.000Z</time>
      </trkpt>
      <trkpt lat="43.62112" lon="0.83286">
        <ele>191</ele>
        <time>2020-10-03T14:01:41.000Z</time>
      </trkpt>
      <trkpt lat="43.62111" lon="0.83283">
        <ele>191</ele>
        <time>2020-10-03T14:01:42.000Z</time>
      </trkpt>
      <trkpt lat="43.6211" lon="0.8328">
        <ele>191</ele>
        <time>2020-10-03T14:01:43.000Z</time>
      </trkpt>
      <trkpt lat="43.6211" lon="0.83278">
        <ele>191</ele>
        <time>2020-10-03T14:01:44.000Z</time>
      </trkpt>
      <trkpt lat="43.62109" lon="0.83275">
        <ele>191</ele>
        <time>2020-10-03T14:01:45.000Z</time>
      </trkpt>
      <trkpt lat="43.62108" lon="0.83272">
        <ele>191</ele>
        <time>2020-10-03T14:01:46.000Z</time>
      </trkpt>
      <trkpt lat="43.62108" lon="0.83269">
        <ele>191</ele>
        <time>2020-10-03T14:01:47.000Z</time>
      </trkpt>
      <trkpt lat="43.62107" lon="0.83266">
        <ele>191</ele>
        <time>2020-10-03T14:01:48.000Z</time>
      </trkpt>
      <trkpt lat="43.62107" lon="0.83262">
        <ele>191</ele>
        <time>2020-10-03T14:01:49.000Z</time>
      </trkpt>
      <trkpt lat="43.62106" lon="0.83259">
        <ele>191</ele>
        <time>2020-10-03T14:01:50.000Z</time>
      </trkpt>
      <trkpt lat="43.62105" lon="0.83256">
        <ele>191.14102858643</ele>
        <time>2020-10-03T14:01:51.000Z</time>
      </trkpt>
      <trkpt lat="43.62104" lon="0.83253">
        <ele>192</ele>
        <time>2020-10-03T14:01:52.000Z</time>
      </trkpt>
      <trkpt lat="43.62103" lon="0.8325">
        <ele>192</ele>
        <time>2020-10-03T14:01:53.000Z</time>
      </trkpt>
      <trkpt lat="43.62102" lon="0.83247">
        <ele>192</ele>
        <time>2020-10-03T14:01:54.000Z</time>
      </trkpt>
      <trkpt lat="43.62101" lon="0.83244">
        <ele>192</ele>
        <time>2020-10-03T14:01:55.000Z</time>
      </trkpt>
      <trkpt lat="43.62101" lon="0.83241">
        <ele>192</ele>
        <time>2020-10-03T14:01:56.000Z</time>
      </trkpt>
      <trkpt lat="43.621" lon="0.83238">
        <ele>192</ele>
        <time>2020-10-03T14:01:57.000Z</time>
      </trkpt>
      <trkpt lat="43.62099" lon="0.83235">
        <ele>192</ele>
        <time>2020-10-03T14:01:58.000Z</time>
      </trkpt>
      <trkpt lat="43.62099" lon="0.83232">
        <ele>192.39090972562</ele>
        <time>2020-10-03T14:01:59.000Z</time>
      </trkpt>
      <trkpt lat="43.62098" lon="0.83229">
        <ele>193</ele>
        <time>2020-10-03T14:02:00.000Z</time>
      </trkpt>
      <trkpt lat="43.62097" lon="0.83226">
        <ele>193</ele>
        <time>2020-10-03T14:02:01.000Z</time>
      </trkpt>
      <trkpt lat="43.62097" lon="0.83223">
        <ele>193</ele>
        <time>2020-10-03T14:02:02.000Z</time>
      </trkpt>
      <trkpt lat="43.62096" lon="0.83219">
        <ele>193</ele>
        <time>2020-10-03T14:02:03.000Z</time>
      </trkpt>
      <trkpt lat="43.62096" lon="0.83217">
        <ele>193</ele>
        <time>2020-10-03T14:02:04.000Z</time>
      </trkpt>
      <trkpt lat="43.62095" lon="0.83214">
        <ele>193</ele>
        <time>2020-10-03T14:02:05.000Z</time>
      </trkpt>
      <trkpt lat="43.62094" lon="0.83211">
        <ele>193.45044858046</ele>
        <time>2020-10-03T14:02:06.000Z</time>
      </trkpt>
      <trkpt lat="43.62092" lon="0.83208">
        <ele>194</ele>
        <time>2020-10-03T14:02:08.000Z</time>
      </trkpt>
      <trkpt lat="43.62091" lon="0.83206">
        <ele>194</ele>
        <time>2020-10-03T14:02:09.000Z</time>
      </trkpt>
      <trkpt lat="43.6209" lon="0.83203">
        <ele>194.27026793282</ele>
        <time>2020-10-03T14:02:10.000Z</time>
      </trkpt>
      <trkpt lat="43.62089" lon="0.83199">
        <ele>195</ele>
        <time>2020-10-03T14:02:12.000Z</time>
      </trkpt>
      <trkpt lat="43.62088" lon="0.83194">
        <ele>195</ele>
        <time>2020-10-03T14:02:14.000Z</time>
      </trkpt>
      <trkpt lat="43.62087" lon="0.83191">
        <ele>195</ele>
        <time>2020-10-03T14:02:15.000Z</time>
      </trkpt>
      <trkpt lat="43.62087" lon="0.83189">
        <ele>195</ele>
        <time>2020-10-03T14:02:16.000Z</time>
      </trkpt>
      <trkpt lat="43.62086" lon="0.83187">
        <ele>195.41176382008</ele>
        <time>2020-10-03T14:02:17.000Z</time>
      </trkpt>
      <trkpt lat="43.62085" lon="0.83184">
        <ele>196</ele>
        <time>2020-10-03T14:02:18.000Z</time>
      </trkpt>
      <trkpt lat="43.62085" lon="0.83181">
        <ele>196</ele>
        <time>2020-10-03T14:02:19.000Z</time>
      </trkpt>
      <trkpt lat="43.62083" lon="0.83179">
        <ele>196</ele>
        <time>2020-10-03T14:02:20.000Z</time>
      </trkpt>
      <trkpt lat="43.62083" lon="0.83174">
        <ele>197</ele>
        <time>2020-10-03T14:02:22.000Z</time>
      </trkpt>
      <trkpt lat="43.62082" lon="0.83171">
        <ele>197</ele>
        <time>2020-10-03T14:02:24.000Z</time>
      </trkpt>
      <trkpt lat="43.62081" lon="0.83166">
        <ele>198</ele>
        <time>2020-10-03T14:02:26.000Z</time>
      </trkpt>
      <trkpt lat="43.62081" lon="0.83164">
        <ele>198</ele>
        <time>2020-10-03T14:02:27.000Z</time>
      </trkpt>
      <trkpt lat="43.6208" lon="0.83161">
        <ele>198</ele>
        <time>2020-10-03T14:02:28.000Z</time>
      </trkpt>
      <trkpt lat="43.62079" lon="0.83158">
        <ele>198</ele>
        <time>2020-10-03T14:02:29.000Z</time>
      </trkpt>
      <trkpt lat="43.62079" lon="0.83155">
        <ele>198</ele>
        <time>2020-10-03T14:02:30.000Z</time>
      </trkpt>
      <trkpt lat="43.62078" lon="0.83152">
        <ele>198</ele>
        <time>2020-10-03T14:02:31.000Z</time>
      </trkpt>
      <trkpt lat="43.62077" lon="0.83149">
        <ele>198</ele>
        <time>2020-10-03T14:02:32.000Z</time>
      </trkpt>
      <trkpt lat="43.62076" lon="0.83145">
        <ele>198</ele>
        <time>2020-10-03T14:02:33.000Z</time>
      </trkpt>
      <trkpt lat="43.62075" lon="0.83143">
        <ele>198</ele>
        <time>2020-10-03T14:02:34.000Z</time>
      </trkpt>
      <trkpt lat="43.62075" lon="0.83141">
        <ele>198</ele>
        <time>2020-10-03T14:02:35.000Z</time>
      </trkpt>
      <trkpt lat="43.62074" lon="0.83138">
        <ele>198</ele>
        <time>2020-10-03T14:02:36.000Z</time>
      </trkpt>
      <trkpt lat="43.62074" lon="0.83136">
        <ele>198</ele>
        <time>2020-10-03T14:02:37.000Z</time>
      </trkpt>
      <trkpt lat="43.62073" lon="0.83131">
        <ele>198</ele>
        <time>2020-10-03T14:02:39.000Z</time>
      </trkpt>
      <trkpt lat="43.62072" lon="0.83128">
        <ele>198</ele>
        <time>2020-10-03T14:02:40.000Z</time>
      </trkpt>
      <trkpt lat="43.62072" lon="0.83125">
        <ele>198.84685017124</ele>
        <time>2020-10-03T14:02:41.000Z</time>
      </trkpt>
      <trkpt lat="43.62071" lon="0.83122">
        <ele>200</ele>
        <time>2020-10-03T14:02:42.000Z</time>
      </trkpt>
      <trkpt lat="43.6207" lon="0.8312">
        <ele>200</ele>
        <time>2020-10-03T14:02:43.000Z</time>
      </trkpt>
      <trkpt lat="43.6207" lon="0.83118">
        <ele>200</ele>
        <time>2020-10-03T14:02:44.000Z</time>
      </trkpt>
      <trkpt lat="43.62069" lon="0.83115">
        <ele>200.31387168204</ele>
        <time>2020-10-03T14:02:45.000Z</time>
      </trkpt>
      <trkpt lat="43.62069" lon="0.83112">
        <ele>201</ele>
        <time>2020-10-03T14:02:46.000Z</time>
      </trkpt>
      <trkpt lat="43.62068" lon="0.83109">
        <ele>201</ele>
        <time>2020-10-03T14:02:47.000Z</time>
      </trkpt>
      <trkpt lat="43.62067" lon="0.83106">
        <ele>201</ele>
        <time>2020-10-03T14:02:48.000Z</time>
      </trkpt>
      <trkpt lat="43.62066" lon="0.83103">
        <ele>201</ele>
        <time>2020-10-03T14:02:49.000Z</time>
      </trkpt>
      <trkpt lat="43.62065" lon="0.831">
        <ele>201.3831780173</ele>
        <time>2020-10-03T14:02:50.000Z</time>
      </trkpt>
      <trkpt lat="43.62065" lon="0.83098">
        <ele>202</ele>
        <time>2020-10-03T14:02:51.000Z</time>
      </trkpt>
      <trkpt lat="43.62064" lon="0.83095">
        <ele>202</ele>
        <time>2020-10-03T14:02:53.000Z</time>
      </trkpt>
      <trkpt lat="43.62063" lon="0.8309">
        <ele>203</ele>
        <time>2020-10-03T14:02:55.000Z</time>
      </trkpt>
      <trkpt lat="43.62062" lon="0.83086">
        <ele>203</ele>
        <time>2020-10-03T14:02:57.000Z</time>
      </trkpt>
      <trkpt lat="43.62061" lon="0.83083">
        <ele>203</ele>
        <time>2020-10-03T14:02:59.000Z</time>
      </trkpt>
      <trkpt lat="43.62061" lon="0.83079">
        <ele>203</ele>
        <time>2020-10-03T14:03:01.000Z</time>
      </trkpt>
      <trkpt lat="43.6206" lon="0.83076">
        <ele>204</ele>
        <time>2020-10-03T14:03:03.000Z</time>
      </trkpt>
      <trkpt lat="43.62059" lon="0.83072">
        <ele>204</ele>
        <time>2020-10-03T14:03:05.000Z</time>
      </trkpt>
      <trkpt lat="43.62058" lon="0.83068">
        <ele>204</ele>
        <time>2020-10-03T14:03:07.000Z</time>
      </trkpt>
      <trkpt lat="43.62057" lon="0.83064">
        <ele>204</ele>
        <time>2020-10-03T14:03:09.000Z</time>
      </trkpt>
      <trkpt lat="43.62056" lon="0.83061">
        <ele>204</ele>
        <time>2020-10-03T14:03:11.000Z</time>
      </trkpt>
      <trkpt lat="43.62056" lon="0.83058">
        <ele>204</ele>
        <time>2020-10-03T14:03:13.000Z</time>
      </trkpt>
      <trkpt lat="43.62055" lon="0.83055">
        <ele>205</ele>
        <time>2020-10-03T14:03:15.000Z</time>
      </trkpt>
      <trkpt lat="43.62054" lon="0.83051">
        <ele>205</ele>
        <time>2020-10-03T14:03:17.000Z</time>
      </trkpt>
      <trkpt lat="43.62054" lon="0.83047">
        <ele>205</ele>
        <time>2020-10-03T14:03:19.000Z</time>
      </trkpt>
      <trkpt lat="43.62053" lon="0.83044">
        <ele>205</ele>
        <time>2020-10-03T14:03:21.000Z</time>
      </trkpt>
      <trkpt lat="43.62053" lon="0.83041">
        <ele>207</ele>
        <time>2020-10-03T14:03:23.000Z</time>
      </trkpt>
      <trkpt lat="43.62052" lon="0.83037">
        <ele>207.32258064516</ele>
        <time>2020-10-03T14:03:25.000Z</time>
      </trkpt>
      <trkpt lat="43.6205" lon="0.83033">
        <ele>208</ele>
        <time>2020-10-03T14:03:27.000Z</time>
      </trkpt>
      <trkpt lat="43.62049" lon="0.83029">
        <ele>208</ele>
        <time>2020-10-03T14:03:29.000Z</time>
      </trkpt>
      <trkpt lat="43.62048" lon="0.83026">
        <ele>208</ele>
        <time>2020-10-03T14:03:31.000Z</time>
      </trkpt>
      <trkpt lat="43.62048" lon="0.83023">
        <ele>210</ele>
        <time>2020-10-03T14:03:33.000Z</time>
      </trkpt>
      <trkpt lat="43.62047" lon="0.8302">
        <ele>210</ele>
        <time>2020-10-03T14:03:35.000Z</time>
      </trkpt>
      <trkpt lat="43.62047" lon="0.83017">
        <ele>210</ele>
        <time>2020-10-03T14:03:37.000Z</time>
      </trkpt>
      <trkpt lat="43.62047" lon="0.83014">
        <ele>210</ele>
        <time>2020-10-03T14:03:39.000Z</time>
      </trkpt>
      <trkpt lat="43.62046" lon="0.83009">
        <ele>210</ele>
        <time>2020-10-03T14:03:41.000Z</time>
      </trkpt>
      <trkpt lat="43.62045" lon="0.83006">
        <ele>210</ele>
        <time>2020-10-03T14:03:43.000Z</time>
      </trkpt>
      <trkpt lat="43.62045" lon="0.83003">
        <ele>210</ele>
        <time>2020-10-03T14:03:45.000Z</time>
      </trkpt>
      <trkpt lat="43.62044" lon="0.82999">
        <ele>210</ele>
        <time>2020-10-03T14:03:47.000Z</time>
      </trkpt>
      <trkpt lat="43.62043" lon="0.82996">
        <ele>210</ele>
        <time>2020-10-03T14:03:49.000Z</time>
      </trkpt>
      <trkpt lat="43.62042" lon="0.82993">
        <ele>210</ele>
        <time>2020-10-03T14:03:51.000Z</time>
      </trkpt>
      <trkpt lat="43.62042" lon="0.8299">
        <ele>210</ele>
        <time>2020-10-03T14:03:53.000Z</time>
      </trkpt>
      <trkpt lat="43.62041" lon="0.82985">
        <ele>210</ele>
        <time>2020-10-03T14:03:55.000Z</time>
      </trkpt>
      <trkpt lat="43.6204" lon="0.82982">
        <ele>210</ele>
        <time>2020-10-03T14:03:57.000Z</time>
      </trkpt>
      <trkpt lat="43.6204" lon="0.82978">
        <ele>210</ele>
        <time>2020-10-03T14:03:59.000Z</time>
      </trkpt>
      <trkpt lat="43.62038" lon="0.82975">
        <ele>210</ele>
        <time>2020-10-03T14:04:01.000Z</time>
      </trkpt>
      <trkpt lat="43.62038" lon="0.82971">
        <ele>211</ele>
        <time>2020-10-03T14:04:03.000Z</time>
      </trkpt>
      <trkpt lat="43.62037" lon="0.82967">
        <ele>211</ele>
        <time>2020-10-03T14:04:05.000Z</time>
      </trkpt>
      <trkpt lat="43.62037" lon="0.82963">
        <ele>212</ele>
        <time>2020-10-03T14:04:07.000Z</time>
      </trkpt>
      <trkpt lat="43.62037" lon="0.8296">
        <ele>212</ele>
        <time>2020-10-03T14:04:09.000Z</time>
      </trkpt>
      <trkpt lat="43.62037" lon="0.82957">
        <ele>212</ele>
        <time>2020-10-03T14:04:11.000Z</time>
      </trkpt>
      <trkpt lat="43.62037" lon="0.82953">
        <ele>212</ele>
        <time>2020-10-03T14:04:13.000Z</time>
      </trkpt>
      <trkpt lat="43.62037" lon="0.82949">
        <ele>212.39024085666</ele>
        <time>2020-10-03T14:04:15.000Z</time>
      </trkpt>
      <trkpt lat="43.62037" lon="0.82945">
        <ele>213</ele>
        <time>2020-10-03T14:04:17.000Z</time>
      </trkpt>
      <trkpt lat="43.62036" lon="0.82942">
        <ele>213</ele>
        <time>2020-10-03T14:04:19.000Z</time>
      </trkpt>
      <trkpt lat="43.62036" lon="0.82939">
        <ele>213</ele>
        <time>2020-10-03T14:04:21.000Z</time>
      </trkpt>
      <trkpt lat="43.62037" lon="0.82935">
        <ele>213</ele>
        <time>2020-10-03T14:04:23.000Z</time>
      </trkpt>
      <trkpt lat="43.62037" lon="0.82932">
        <ele>213.3703639323</ele>
        <time>2020-10-03T14:04:25.000Z</time>
      </trkpt>
      <trkpt lat="43.62037" lon="0.82929">
        <ele>214</ele>
        <time>2020-10-03T14:04:27.000Z</time>
      </trkpt>
      <trkpt lat="43.62036" lon="0.82926">
        <ele>215</ele>
        <time>2020-10-03T14:04:29.000Z</time>
      </trkpt>
      <trkpt lat="43.62037" lon="0.82923">
        <ele>215</ele>
        <time>2020-10-03T14:04:31.000Z</time>
      </trkpt>
      <trkpt lat="43.62037" lon="0.82919">
        <ele>216</ele>
        <time>2020-10-03T14:04:33.000Z</time>
      </trkpt>
      <trkpt lat="43.62038" lon="0.82915">
        <ele>216</ele>
        <time>2020-10-03T14:04:35.000Z</time>
      </trkpt>
      <trkpt lat="43.62039" lon="0.82912">
        <ele>216</ele>
        <time>2020-10-03T14:04:37.000Z</time>
      </trkpt>
      <trkpt lat="43.62039" lon="0.82908">
        <ele>216</ele>
        <time>2020-10-03T14:04:39.000Z</time>
      </trkpt>
      <trkpt lat="43.62039" lon="0.82904">
        <ele>216</ele>
        <time>2020-10-03T14:04:41.000Z</time>
      </trkpt>
      <trkpt lat="43.62038" lon="0.82901">
        <ele>216</ele>
        <time>2020-10-03T14:04:42.000Z</time>
      </trkpt>
      <trkpt lat="43.62038" lon="0.82898">
        <ele>216</ele>
        <time>2020-10-03T14:04:44.000Z</time>
      </trkpt>
      <trkpt lat="43.62038" lon="0.82895">
        <ele>216</ele>
        <time>2020-10-03T14:04:46.000Z</time>
      </trkpt>
      <trkpt lat="43.62038" lon="0.82892">
        <ele>216.43955889386</ele>
        <time>2020-10-03T14:04:48.000Z</time>
      </trkpt>
      <trkpt lat="43.62038" lon="0.82888">
        <ele>217</ele>
        <time>2020-10-03T14:04:50.000Z</time>
      </trkpt>
      <trkpt lat="43.62038" lon="0.82884">
        <ele>218</ele>
        <time>2020-10-03T14:04:52.000Z</time>
      </trkpt>
      <trkpt lat="43.62037" lon="0.82879">
        <ele>218</ele>
        <time>2020-10-03T14:04:54.000Z</time>
      </trkpt>
      <trkpt lat="43.62037" lon="0.82875">
        <ele>218</ele>
        <time>2020-10-03T14:04:56.000Z</time>
      </trkpt>
      <trkpt lat="43.62036" lon="0.8287">
        <ele>219</ele>
        <time>2020-10-03T14:04:58.000Z</time>
      </trkpt>
      <trkpt lat="43.62036" lon="0.82868">
        <ele>219</ele>
        <time>2020-10-03T14:04:59.000Z</time>
      </trkpt>
      <trkpt lat="43.62037" lon="0.82865">
        <ele>219</ele>
        <time>2020-10-03T14:05:00.000Z</time>
      </trkpt>
      <trkpt lat="43.62038" lon="0.82862">
        <ele>219</ele>
        <time>2020-10-03T14:05:01.000Z</time>
      </trkpt>
      <trkpt lat="43.62038" lon="0.82859">
        <ele>219</ele>
        <time>2020-10-03T14:05:02.000Z</time>
      </trkpt>
      <trkpt lat="43.62037" lon="0.82855">
        <ele>219</ele>
        <time>2020-10-03T14:05:03.000Z</time>
      </trkpt>
      <trkpt lat="43.62036" lon="0.82852">
        <ele>219</ele>
        <time>2020-10-03T14:05:04.000Z</time>
      </trkpt>
      <trkpt lat="43.62035" lon="0.8285">
        <ele>219</ele>
        <time>2020-10-03T14:05:05.000Z</time>
      </trkpt>
      <trkpt lat="43.62033" lon="0.82847">
        <ele>219</ele>
        <time>2020-10-03T14:05:06.000Z</time>
      </trkpt>
      <trkpt lat="43.62032" lon="0.82844">
        <ele>219</ele>
        <time>2020-10-03T14:05:07.000Z</time>
      </trkpt>
      <trkpt lat="43.62032" lon="0.82841">
        <ele>219.43749714286</ele>
        <time>2020-10-03T14:05:08.000Z</time>
      </trkpt>
      <trkpt lat="43.62032" lon="0.82838">
        <ele>220</ele>
        <time>2020-10-03T14:05:09.000Z</time>
      </trkpt>
      <trkpt lat="43.62032" lon="0.82835">
        <ele>220</ele>
        <time>2020-10-03T14:05:10.000Z</time>
      </trkpt>
      <trkpt lat="43.62034" lon="0.82831">
        <ele>220</ele>
        <time>2020-10-03T14:05:11.000Z</time>
      </trkpt>
      <trkpt lat="43.62035" lon="0.82828">
        <ele>220</ele>
        <time>2020-10-03T14:05:12.000Z</time>
      </trkpt>
      <trkpt lat="43.62036" lon="0.82824">
        <ele>220</ele>
        <time>2020-10-03T14:05:13.000Z</time>
      </trkpt>
      <trkpt lat="43.62037" lon="0.8282">
        <ele>220</ele>
        <time>2020-10-03T14:05:14.000Z</time>
      </trkpt>
      <trkpt lat="43.62038" lon="0.82817">
        <ele>220</ele>
        <time>2020-10-03T14:05:15.000Z</time>
      </trkpt>
      <trkpt lat="43.6204" lon="0.82813">
        <ele>220</ele>
        <time>2020-10-03T14:05:16.000Z</time>
      </trkpt>
      <trkpt lat="43.62041" lon="0.8281">
        <ele>220</ele>
        <time>2020-10-03T14:05:17.000Z</time>
      </trkpt>
      <trkpt lat="43.62043" lon="0.82806">
        <ele>220</ele>
        <time>2020-10-03T14:05:18.000Z</time>
      </trkpt>
      <trkpt lat="43.62044" lon="0.82802">
        <ele>220</ele>
        <time>2020-10-03T14:05:19.000Z</time>
      </trkpt>
      <trkpt lat="43.62045" lon="0.82799">
        <ele>220</ele>
        <time>2020-10-03T14:05:20.000Z</time>
      </trkpt>
      <trkpt lat="43.62046" lon="0.82796">
        <ele>220</ele>
        <time>2020-10-03T14:05:21.000Z</time>
      </trkpt>
      <trkpt lat="43.62048" lon="0.82792">
        <ele>220</ele>
        <time>2020-10-03T14:05:22.000Z</time>
      </trkpt>
      <trkpt lat="43.62049" lon="0.82789">
        <ele>220</ele>
        <time>2020-10-03T14:05:23.000Z</time>
      </trkpt>
      <trkpt lat="43.6205" lon="0.82786">
        <ele>220</ele>
        <time>2020-10-03T14:05:24.000Z</time>
      </trkpt>
      <trkpt lat="43.62051" lon="0.82783">
        <ele>220</ele>
        <time>2020-10-03T14:05:25.000Z</time>
      </trkpt>
      <trkpt lat="43.62052" lon="0.82779">
        <ele>220</ele>
        <time>2020-10-03T14:05:26.000Z</time>
      </trkpt>
      <trkpt lat="43.62052" lon="0.82775">
        <ele>220.34090181818</ele>
        <time>2020-10-03T14:05:27.000Z</time>
      </trkpt>
      <trkpt lat="43.62053" lon="0.82772">
        <ele>221</ele>
        <time>2020-10-03T14:05:28.000Z</time>
      </trkpt>
      <trkpt lat="43.62053" lon="0.82768">
        <ele>221</ele>
        <time>2020-10-03T14:05:29.000Z</time>
      </trkpt>
      <trkpt lat="43.62052" lon="0.82764">
        <ele>221</ele>
        <time>2020-10-03T14:05:30.000Z</time>
      </trkpt>
      <trkpt lat="43.62052" lon="0.8276">
        <ele>221</ele>
        <time>2020-10-03T14:05:31.000Z</time>
      </trkpt>
      <trkpt lat="43.62052" lon="0.82756">
        <ele>220.63393142857</ele>
        <time>2020-10-03T14:05:32.000Z</time>
      </trkpt>
      <trkpt lat="43.62051" lon="0.82752">
        <ele>220</ele>
        <time>2020-10-03T14:05:33.000Z</time>
      </trkpt>
      <trkpt lat="43.62051" lon="0.82748">
        <ele>219.54955141954</ele>
        <time>2020-10-03T14:05:34.000Z</time>
      </trkpt>
      <trkpt lat="43.6205" lon="0.82744">
        <ele>219</ele>
        <time>2020-10-03T14:05:35.000Z</time>
      </trkpt>
      <trkpt lat="43.62049" lon="0.8274">
        <ele>219.36708901779</ele>
        <time>2020-10-03T14:05:36.000Z</time>
      </trkpt>
      <trkpt lat="43.62049" lon="0.82736">
        <ele>220</ele>
        <time>2020-10-03T14:05:37.000Z</time>
      </trkpt>
      <trkpt lat="43.62048" lon="0.82732">
        <ele>220</ele>
        <time>2020-10-03T14:05:38.000Z</time>
      </trkpt>
      <trkpt lat="43.62048" lon="0.82728">
        <ele>219.89089808932</ele>
        <time>2020-10-03T14:05:39.000Z</time>
      </trkpt>
      <trkpt lat="43.62048" lon="0.82724">
        <ele>218</ele>
        <time>2020-10-03T14:05:40.000Z</time>
      </trkpt>
      <trkpt lat="43.62048" lon="0.8272">
        <ele>218</ele>
        <time>2020-10-03T14:05:41.000Z</time>
      </trkpt>
      <trkpt lat="43.62047" lon="0.82715">
        <ele>218</ele>
        <time>2020-10-03T14:05:42.000Z</time>
      </trkpt>
      <trkpt lat="43.62047" lon="0.82711">
        <ele>218</ele>
        <time>2020-10-03T14:05:43.000Z</time>
      </trkpt>
      <trkpt lat="43.62047" lon="0.82707">
        <ele>217.66666666667</ele>
        <time>2020-10-03T14:05:44.000Z</time>
      </trkpt>
      <trkpt lat="43.62046" lon="0.82703">
        <ele>217</ele>
        <time>2020-10-03T14:05:45.000Z</time>
      </trkpt>
      <trkpt lat="43.62046" lon="0.82699">
        <ele>217</ele>
        <time>2020-10-03T14:05:46.000Z</time>
      </trkpt>
      <trkpt lat="43.62045" lon="0.82695">
        <ele>216.66292732738</ele>
        <time>2020-10-03T14:05:47.000Z</time>
      </trkpt>
      <trkpt lat="43.62045" lon="0.82691">
        <ele>216</ele>
        <time>2020-10-03T14:05:48.000Z</time>
      </trkpt>
      <trkpt lat="43.62045" lon="0.82687">
        <ele>216</ele>
        <time>2020-10-03T14:05:49.000Z</time>
      </trkpt>
      <trkpt lat="43.62045" lon="0.82682">
        <ele>215.65168054537</ele>
        <time>2020-10-03T14:05:50.000Z</time>
      </trkpt>
      <trkpt lat="43.62045" lon="0.82678">
        <ele>215</ele>
        <time>2020-10-03T14:05:51.000Z</time>
      </trkpt>
      <trkpt lat="43.62045" lon="0.82674">
        <ele>215</ele>
        <time>2020-10-03T14:05:52.000Z</time>
      </trkpt>
      <trkpt lat="43.62045" lon="0.8267">
        <ele>215</ele>
        <time>2020-10-03T14:05:53.000Z</time>
      </trkpt>
      <trkpt lat="43.62045" lon="0.82666">
        <ele>215</ele>
        <time>2020-10-03T14:05:54.000Z</time>
      </trkpt>
      <trkpt lat="43.62045" lon="0.82661">
        <ele>215</ele>
        <time>2020-10-03T14:05:55.000Z</time>
      </trkpt>
      <trkpt lat="43.62044" lon="0.82657">
        <ele>215</ele>
        <time>2020-10-03T14:05:56.000Z</time>
      </trkpt>
      <trkpt lat="43.62044" lon="0.82653">
        <ele>215</ele>
        <time>2020-10-03T14:05:57.000Z</time>
      </trkpt>
      <trkpt lat="43.62044" lon="0.8265">
        <ele>215</ele>
        <time>2020-10-03T14:05:58.000Z</time>
      </trkpt>
      <trkpt lat="43.62044" lon="0.82645">
        <ele>214.03447210452</ele>
        <time>2020-10-03T14:05:59.000Z</time>
      </trkpt>
      <trkpt lat="43.62044" lon="0.82641">
        <ele>214</ele>
        <time>2020-10-03T14:06:00.000Z</time>
      </trkpt>
      <trkpt lat="43.62044" lon="0.82637">
        <ele>214</ele>
        <time>2020-10-03T14:06:01.000Z</time>
      </trkpt>
      <trkpt lat="43.62044" lon="0.82633">
        <ele>213.58139223362</ele>
        <time>2020-10-03T14:06:02.000Z</time>
      </trkpt>
      <trkpt lat="43.62044" lon="0.82628">
        <ele>212.5</ele>
        <time>2020-10-03T14:06:03.000Z</time>
      </trkpt>
      <trkpt lat="43.62044" lon="0.82624">
        <ele>212.5</ele>
        <time>2020-10-03T14:06:04.000Z</time>
      </trkpt>
      <trkpt lat="43.62044" lon="0.8262">
        <ele>213</ele>
        <time>2020-10-03T14:06:05.000Z</time>
      </trkpt>
      <trkpt lat="43.62044" lon="0.82616">
        <ele>212.86508121946</ele>
        <time>2020-10-03T14:06:06.000Z</time>
      </trkpt>
      <trkpt lat="43.62044" lon="0.82612">
        <ele>212.07142639455</ele>
        <time>2020-10-03T14:06:07.000Z</time>
      </trkpt>
      <trkpt lat="43.62044" lon="0.82608">
        <ele>212</ele>
        <time>2020-10-03T14:06:08.000Z</time>
      </trkpt>
      <trkpt lat="43.62043" lon="0.82604">
        <ele>212</ele>
        <time>2020-10-03T14:06:09.000Z</time>
      </trkpt>
      <trkpt lat="43.62043" lon="0.826">
        <ele>211.61445931775</ele>
        <time>2020-10-03T14:06:10.000Z</time>
      </trkpt>
      <trkpt lat="43.62043" lon="0.82596">
        <ele>211</ele>
        <time>2020-10-03T14:06:11.000Z</time>
      </trkpt>
      <trkpt lat="43.62042" lon="0.82591">
        <ele>210.5789450046</ele>
        <time>2020-10-03T14:06:12.000Z</time>
      </trkpt>
      <trkpt lat="43.62042" lon="0.82587">
        <ele>210</ele>
        <time>2020-10-03T14:06:13.000Z</time>
      </trkpt>
      <trkpt lat="43.62042" lon="0.82583">
        <ele>210</ele>
        <time>2020-10-03T14:06:14.000Z</time>
      </trkpt>
      <trkpt lat="43.62042" lon="0.82579">
        <ele>210</ele>
        <time>2020-10-03T14:06:15.000Z</time>
      </trkpt>
      <trkpt lat="43.62042" lon="0.82575">
        <ele>210</ele>
        <time>2020-10-03T14:06:16.000Z</time>
      </trkpt>
      <trkpt lat="43.62042" lon="0.82571">
        <ele>210</ele>
        <time>2020-10-03T14:06:17.000Z</time>
      </trkpt>
      <trkpt lat="43.62042" lon="0.82567">
        <ele>210</ele>
        <time>2020-10-03T14:06:18.000Z</time>
      </trkpt>
      <trkpt lat="43.62042" lon="0.82563">
        <ele>210</ele>
        <time>2020-10-03T14:06:19.000Z</time>
      </trkpt>
      <trkpt lat="43.62042" lon="0.82559">
        <ele>208.51486578967</ele>
        <time>2020-10-03T14:06:20.000Z</time>
      </trkpt>
      <trkpt lat="43.62041" lon="0.82555">
        <ele>207</ele>
        <time>2020-10-03T14:06:21.000Z</time>
      </trkpt>
      <trkpt lat="43.62041" lon="0.82551">
        <ele>206.65420963227</ele>
        <time>2020-10-03T14:06:22.000Z</time>
      </trkpt>
      <trkpt lat="43.62041" lon="0.82547">
        <ele>206</ele>
        <time>2020-10-03T14:06:23.000Z</time>
      </trkpt>
      <trkpt lat="43.62041" lon="0.82543">
        <ele>206.38053057248</ele>
        <time>2020-10-03T14:06:24.000Z</time>
      </trkpt>
      <trkpt lat="43.62041" lon="0.82539">
        <ele>207</ele>
        <time>2020-10-03T14:06:25.000Z</time>
      </trkpt>
      <trkpt lat="43.62041" lon="0.82535">
        <ele>207.38738915347</ele>
        <time>2020-10-03T14:06:26.000Z</time>
      </trkpt>
      <trkpt lat="43.62041" lon="0.82531">
        <ele>208</ele>
        <time>2020-10-03T14:06:27.000Z</time>
      </trkpt>
      <trkpt lat="43.62041" lon="0.82527">
        <ele>208</ele>
        <time>2020-10-03T14:06:28.000Z</time>
      </trkpt>
      <trkpt lat="43.62041" lon="0.82523">
        <ele>207.15789946442</ele>
        <time>2020-10-03T14:06:29.000Z</time>
      </trkpt>
      <trkpt lat="43.62041" lon="0.82519">
        <ele>206</ele>
        <time>2020-10-03T14:06:30.000Z</time>
      </trkpt>
      <trkpt lat="43.62041" lon="0.82515">
        <ele>206</ele>
        <time>2020-10-03T14:06:31.000Z</time>
      </trkpt>
      <trkpt lat="43.62041" lon="0.82511">
        <ele>206</ele>
        <time>2020-10-03T14:06:32.000Z</time>
      </trkpt>
      <trkpt lat="43.6204" lon="0.82507">
        <ele>206</ele>
        <time>2020-10-03T14:06:33.000Z</time>
      </trkpt>
      <trkpt lat="43.6204" lon="0.82503">
        <ele>206</ele>
        <time>2020-10-03T14:06:34.000Z</time>
      </trkpt>
      <trkpt lat="43.6204" lon="0.82499">
        <ele>206</ele>
        <time>2020-10-03T14:06:35.000Z</time>
      </trkpt>
      <trkpt lat="43.6204" lon="0.82494">
        <ele>205.96202141966</ele>
        <time>2020-10-03T14:06:36.000Z</time>
      </trkpt>
      <trkpt lat="43.6204" lon="0.8249">
        <ele>205</ele>
        <time>2020-10-03T14:06:37.000Z</time>
      </trkpt>
      <trkpt lat="43.6204" lon="0.82486">
        <ele>205</ele>
        <time>2020-10-03T14:06:38.000Z</time>
      </trkpt>
      <trkpt lat="43.62039" lon="0.82482">
        <ele>205</ele>
        <time>2020-10-03T14:06:39.000Z</time>
      </trkpt>
      <trkpt lat="43.62039" lon="0.82478">
        <ele>205</ele>
        <time>2020-10-03T14:06:40.000Z</time>
      </trkpt>
      <trkpt lat="43.62039" lon="0.82475">
        <ele>204.63528897991</ele>
        <time>2020-10-03T14:06:41.000Z</time>
      </trkpt>
      <trkpt lat="43.62039" lon="0.82471">
        <ele>204</ele>
        <time>2020-10-03T14:06:42.000Z</time>
      </trkpt>
      <trkpt lat="43.62039" lon="0.82467">
        <ele>204</ele>
        <time>2020-10-03T14:06:43.000Z</time>
      </trkpt>
      <trkpt lat="43.62039" lon="0.82463">
        <ele>204</ele>
        <time>2020-10-03T14:06:44.000Z</time>
      </trkpt>
      <trkpt lat="43.62039" lon="0.82459">
        <ele>204</ele>
        <time>2020-10-03T14:06:45.000Z</time>
      </trkpt>
      <trkpt lat="43.62039" lon="0.82455">
        <ele>204</ele>
        <time>2020-10-03T14:06:46.000Z</time>
      </trkpt>
      <trkpt lat="43.62039" lon="0.82452">
        <ele>203.63528897991</ele>
        <time>2020-10-03T14:06:47.000Z</time>
      </trkpt>
      <trkpt lat="43.62039" lon="0.82448">
        <ele>203</ele>
        <time>2020-10-03T14:06:48.000Z</time>
      </trkpt>
      <trkpt lat="43.62039" lon="0.82445">
        <ele>203</ele>
        <time>2020-10-03T14:06:49.000Z</time>
      </trkpt>
      <trkpt lat="43.62038" lon="0.82441">
        <ele>203</ele>
        <time>2020-10-03T14:06:50.000Z</time>
      </trkpt>
      <trkpt lat="43.62038" lon="0.82437">
        <ele>203</ele>
        <time>2020-10-03T14:06:51.000Z</time>
      </trkpt>
      <trkpt lat="43.62038" lon="0.82434">
        <ele>203</ele>
        <time>2020-10-03T14:06:52.000Z</time>
      </trkpt>
      <trkpt lat="43.62038" lon="0.8243">
        <ele>203.33720809085</ele>
        <time>2020-10-03T14:06:53.000Z</time>
      </trkpt>
      <trkpt lat="43.62038" lon="0.82426">
        <ele>204</ele>
        <time>2020-10-03T14:06:54.000Z</time>
      </trkpt>
      <trkpt lat="43.62038" lon="0.82423">
        <ele>204</ele>
        <time>2020-10-03T14:06:55.000Z</time>
      </trkpt>
      <trkpt lat="43.62038" lon="0.8242">
        <ele>204</ele>
        <time>2020-10-03T14:06:56.000Z</time>
      </trkpt>
      <trkpt lat="43.62038" lon="0.82416">
        <ele>204</ele>
        <time>2020-10-03T14:06:57.000Z</time>
      </trkpt>
      <trkpt lat="43.62038" lon="0.82413">
        <ele>204.42045090909</ele>
        <time>2020-10-03T14:06:58.000Z</time>
      </trkpt>
      <trkpt lat="43.62038" lon="0.82409">
        <ele>205</ele>
        <time>2020-10-03T14:06:59.000Z</time>
      </trkpt>
      <trkpt lat="43.62038" lon="0.82406">
        <ele>205</ele>
        <time>2020-10-03T14:07:00.000Z</time>
      </trkpt>
      <trkpt lat="43.62038" lon="0.82403">
        <ele>205</ele>
        <time>2020-10-03T14:07:01.000Z</time>
      </trkpt>
      <trkpt lat="43.62038" lon="0.824">
        <ele>205</ele>
        <time>2020-10-03T14:07:02.000Z</time>
      </trkpt>
      <trkpt lat="43.62038" lon="0.82396">
        <ele>205.39582666667</ele>
        <time>2020-10-03T14:07:03.000Z</time>
      </trkpt>
      <trkpt lat="43.62038" lon="0.82393">
        <ele>206</ele>
        <time>2020-10-03T14:07:04.000Z</time>
      </trkpt>
      <trkpt lat="43.62037" lon="0.8239">
        <ele>206</ele>
        <time>2020-10-03T14:07:05.000Z</time>
      </trkpt>
      <trkpt lat="43.62037" lon="0.82387">
        <ele>206</ele>
        <time>2020-10-03T14:07:06.000Z</time>
      </trkpt>
      <trkpt lat="43.62037" lon="0.82383">
        <ele>206</ele>
        <time>2020-10-03T14:07:07.000Z</time>
      </trkpt>
      <trkpt lat="43.62037" lon="0.82379">
        <ele>206</ele>
        <time>2020-10-03T14:07:08.000Z</time>
      </trkpt>
      <trkpt lat="43.62037" lon="0.82375">
        <ele>206</ele>
        <time>2020-10-03T14:07:09.000Z</time>
      </trkpt>
      <trkpt lat="43.62037" lon="0.82372">
        <ele>206</ele>
        <time>2020-10-03T14:07:10.000Z</time>
      </trkpt>
      <trkpt lat="43.62037" lon="0.82368">
        <ele>206</ele>
        <time>2020-10-03T14:07:11.000Z</time>
      </trkpt>
      <trkpt lat="43.62037" lon="0.82364">
        <ele>206</ele>
        <time>2020-10-03T14:07:12.000Z</time>
      </trkpt>
      <trkpt lat="43.62036" lon="0.82359">
        <ele>205.72071864297</ele>
        <time>2020-10-03T14:07:13.000Z</time>
      </trkpt>
      <trkpt lat="43.62036" lon="0.82355">
        <ele>205</ele>
        <time>2020-10-03T14:07:14.000Z</time>
      </trkpt>
      <trkpt lat="43.62036" lon="0.82352">
        <ele>205</ele>
        <time>2020-10-03T14:07:15.000Z</time>
      </trkpt>
      <trkpt lat="43.62035" lon="0.82348">
        <ele>205</ele>
        <time>2020-10-03T14:07:16.000Z</time>
      </trkpt>
      <trkpt lat="43.62035" lon="0.82344">
        <ele>205</ele>
        <time>2020-10-03T14:07:17.000Z</time>
      </trkpt>
      <trkpt lat="43.62034" lon="0.8234">
        <ele>205</ele>
        <time>2020-10-03T14:07:18.000Z</time>
      </trkpt>
      <trkpt lat="43.62034" lon="0.82336">
        <ele>204.66279190915</ele>
        <time>2020-10-03T14:07:19.000Z</time>
      </trkpt>
      <trkpt lat="43.62034" lon="0.82332">
        <ele>204</ele>
        <time>2020-10-03T14:07:20.000Z</time>
      </trkpt>
      <trkpt lat="43.62033" lon="0.82328">
        <ele>203.65909818182</ele>
        <time>2020-10-03T14:07:21.000Z</time>
      </trkpt>
      <trkpt lat="43.62033" lon="0.82324">
        <ele>203</ele>
        <time>2020-10-03T14:07:22.000Z</time>
      </trkpt>
      <trkpt lat="43.62033" lon="0.82321">
        <ele>203</ele>
        <time>2020-10-03T14:07:23.000Z</time>
      </trkpt>
      <trkpt lat="43.62033" lon="0.82317">
        <ele>203</ele>
        <time>2020-10-03T14:07:24.000Z</time>
      </trkpt>
      <trkpt lat="43.62032" lon="0.82313">
        <ele>203</ele>
        <time>2020-10-03T14:07:25.000Z</time>
      </trkpt>
      <trkpt lat="43.62032" lon="0.82309">
        <ele>202.70689883475</ele>
        <time>2020-10-03T14:07:26.000Z</time>
      </trkpt>
      <trkpt lat="43.62032" lon="0.82305">
        <ele>202</ele>
        <time>2020-10-03T14:07:27.000Z</time>
      </trkpt>
      <trkpt lat="43.62032" lon="0.82301">
        <ele>202</ele>
        <time>2020-10-03T14:07:28.000Z</time>
      </trkpt>
      <trkpt lat="43.62032" lon="0.82297">
        <ele>202</ele>
        <time>2020-10-03T14:07:29.000Z</time>
      </trkpt>
      <trkpt lat="43.62031" lon="0.82293">
        <ele>202</ele>
        <time>2020-10-03T14:07:30.000Z</time>
      </trkpt>
      <trkpt lat="43.62031" lon="0.8229">
        <ele>201.57575248242</ele>
        <time>2020-10-03T14:07:31.000Z</time>
      </trkpt>
      <trkpt lat="43.62031" lon="0.82286">
        <ele>201</ele>
        <time>2020-10-03T14:07:32.000Z</time>
      </trkpt>
      <trkpt lat="43.62031" lon="0.82282">
        <ele>201</ele>
        <time>2020-10-03T14:07:33.000Z</time>
      </trkpt>
      <trkpt lat="43.62031" lon="0.82279">
        <ele>201</ele>
        <time>2020-10-03T14:07:34.000Z</time>
      </trkpt>
      <trkpt lat="43.6203" lon="0.82275">
        <ele>201</ele>
        <time>2020-10-03T14:07:35.000Z</time>
      </trkpt>
      <trkpt lat="43.6203" lon="0.82271">
        <ele>200.58000102401</ele>
        <time>2020-10-03T14:07:36.000Z</time>
      </trkpt>
      <trkpt lat="43.6203" lon="0.82267">
        <ele>200</ele>
        <time>2020-10-03T14:07:37.000Z</time>
      </trkpt>
      <trkpt lat="43.6203" lon="0.82263">
        <ele>200</ele>
        <time>2020-10-03T14:07:38.000Z</time>
      </trkpt>
      <trkpt lat="43.62029" lon="0.82259">
        <ele>200</ele>
        <time>2020-10-03T14:07:39.000Z</time>
      </trkpt>
      <trkpt lat="43.62029" lon="0.82255">
        <ele>200</ele>
        <time>2020-10-03T14:07:40.000Z</time>
      </trkpt>
      <trkpt lat="43.62029" lon="0.82251">
        <ele>200</ele>
        <time>2020-10-03T14:07:41.000Z</time>
      </trkpt>
      <trkpt lat="43.62029" lon="0.82247">
        <ele>200</ele>
        <time>2020-10-03T14:07:42.000Z</time>
      </trkpt>
      <trkpt lat="43.62029" lon="0.82243">
        <ele>200</ele>
        <time>2020-10-03T14:07:43.000Z</time>
      </trkpt>
      <trkpt lat="43.62029" lon="0.8224">
        <ele>200</ele>
        <time>2020-10-03T14:07:44.000Z</time>
      </trkpt>
      <trkpt lat="43.62029" lon="0.82236">
        <ele>200</ele>
        <time>2020-10-03T14:07:45.000Z</time>
      </trkpt>
      <trkpt lat="43.62029" lon="0.82232">
        <ele>200</ele>
        <time>2020-10-03T14:07:46.000Z</time>
      </trkpt>
      <trkpt lat="43.62029" lon="0.82228">
        <ele>200.3076912257</ele>
        <time>2020-10-03T14:07:47.000Z</time>
      </trkpt>
      <trkpt lat="43.62028" lon="0.82224">
        <ele>201</ele>
        <time>2020-10-03T14:07:48.000Z</time>
      </trkpt>
      <trkpt lat="43.62028" lon="0.8222">
        <ele>201</ele>
        <time>2020-10-03T14:07:49.000Z</time>
      </trkpt>
      <trkpt lat="43.62028" lon="0.82216">
        <ele>201</ele>
        <time>2020-10-03T14:07:50.000Z</time>
      </trkpt>
      <trkpt lat="43.62028" lon="0.82212">
        <ele>200.73451818625</ele>
        <time>2020-10-03T14:07:51.000Z</time>
      </trkpt>
      <trkpt lat="43.62028" lon="0.82208">
        <ele>200</ele>
        <time>2020-10-03T14:07:52.000Z</time>
      </trkpt>
      <trkpt lat="43.62027" lon="0.82204">
        <ele>200</ele>
        <time>2020-10-03T14:07:53.000Z</time>
      </trkpt>
      <trkpt lat="43.62027" lon="0.822">
        <ele>200</ele>
        <time>2020-10-03T14:07:54.000Z</time>
      </trkpt>
      <trkpt lat="43.62027" lon="0.82196">
        <ele>200</ele>
        <time>2020-10-03T14:07:55.000Z</time>
      </trkpt>
      <trkpt lat="43.62026" lon="0.82192">
        <ele>200</ele>
        <time>2020-10-03T14:07:56.000Z</time>
      </trkpt>
      <trkpt lat="43.62026" lon="0.82189">
        <ele>199.21951828669</ele>
        <time>2020-10-03T14:07:57.000Z</time>
      </trkpt>
      <trkpt lat="43.62026" lon="0.82185">
        <ele>198</ele>
        <time>2020-10-03T14:07:58.000Z</time>
      </trkpt>
      <trkpt lat="43.62026" lon="0.82181">
        <ele>197.6</ele>
        <time>2020-10-03T14:07:59.000Z</time>
      </trkpt>
      <trkpt lat="43.62026" lon="0.82176">
        <ele>197</ele>
        <time>2020-10-03T14:08:00.000Z</time>
      </trkpt>
      <trkpt lat="43.62025" lon="0.82172">
        <ele>197</ele>
        <time>2020-10-03T14:08:01.000Z</time>
      </trkpt>
      <trkpt lat="43.62025" lon="0.82168">
        <ele>197</ele>
        <time>2020-10-03T14:08:02.000Z</time>
      </trkpt>
      <trkpt lat="43.62025" lon="0.82164">
        <ele>197</ele>
        <time>2020-10-03T14:08:03.000Z</time>
      </trkpt>
      <trkpt lat="43.62025" lon="0.82161">
        <ele>197</ele>
        <time>2020-10-03T14:08:04.000Z</time>
      </trkpt>
      <trkpt lat="43.62024" lon="0.82157">
        <ele>197</ele>
        <time>2020-10-03T14:08:05.000Z</time>
      </trkpt>
      <trkpt lat="43.62024" lon="0.82153">
        <ele>197</ele>
        <time>2020-10-03T14:08:06.000Z</time>
      </trkpt>
      <trkpt lat="43.62024" lon="0.8215">
        <ele>197</ele>
        <time>2020-10-03T14:08:07.000Z</time>
      </trkpt>
      <trkpt lat="43.62024" lon="0.82146">
        <ele>197</ele>
        <time>2020-10-03T14:08:08.000Z</time>
      </trkpt>
      <trkpt lat="43.62023" lon="0.82143">
        <ele>197</ele>
        <time>2020-10-03T14:08:09.000Z</time>
      </trkpt>
      <trkpt lat="43.62023" lon="0.82139">
        <ele>197</ele>
        <time>2020-10-03T14:08:10.000Z</time>
      </trkpt>
      <trkpt lat="43.62023" lon="0.82135">
        <ele>197</ele>
        <time>2020-10-03T14:08:11.000Z</time>
      </trkpt>
      <trkpt lat="43.62023" lon="0.82132">
        <ele>197</ele>
        <time>2020-10-03T14:08:12.000Z</time>
      </trkpt>
      <trkpt lat="43.62023" lon="0.82128">
        <ele>197</ele>
        <time>2020-10-03T14:08:13.000Z</time>
      </trkpt>
      <trkpt lat="43.62022" lon="0.82124">
        <ele>197</ele>
        <time>2020-10-03T14:08:14.000Z</time>
      </trkpt>
      <trkpt lat="43.62022" lon="0.82121">
        <ele>197</ele>
        <time>2020-10-03T14:08:15.000Z</time>
      </trkpt>
      <trkpt lat="43.62022" lon="0.82117">
        <ele>197</ele>
        <time>2020-10-03T14:08:16.000Z</time>
      </trkpt>
      <trkpt lat="43.62022" lon="0.82113">
        <ele>197.35293497576</ele>
        <time>2020-10-03T14:08:17.000Z</time>
      </trkpt>
      <trkpt lat="43.62022" lon="0.82109">
        <ele>198</ele>
        <time>2020-10-03T14:08:18.000Z</time>
      </trkpt>
      <trkpt lat="43.62021" lon="0.82105">
        <ele>198</ele>
        <time>2020-10-03T14:08:19.000Z</time>
      </trkpt>
      <trkpt lat="43.62021" lon="0.82101">
        <ele>198</ele>
        <time>2020-10-03T14:08:20.000Z</time>
      </trkpt>
      <trkpt lat="43.62021" lon="0.82097">
        <ele>197.87324222975</ele>
        <time>2020-10-03T14:08:21.000Z</time>
      </trkpt>
      <trkpt lat="43.62021" lon="0.82093">
        <ele>197</ele>
        <time>2020-10-03T14:08:22.000Z</time>
      </trkpt>
      <trkpt lat="43.62021" lon="0.82089">
        <ele>197</ele>
        <time>2020-10-03T14:08:23.000Z</time>
      </trkpt>
      <trkpt lat="43.62021" lon="0.82085">
        <ele>196.6588260097</ele>
        <time>2020-10-03T14:08:24.000Z</time>
      </trkpt>
      <trkpt lat="43.62021" lon="0.82081">
        <ele>196</ele>
        <time>2020-10-03T14:08:25.000Z</time>
      </trkpt>
      <trkpt lat="43.62021" lon="0.82077">
        <ele>195.56179258173</ele>
        <time>2020-10-03T14:08:26.000Z</time>
      </trkpt>
      <trkpt lat="43.62021" lon="0.82073">
        <ele>195</ele>
        <time>2020-10-03T14:08:27.000Z</time>
      </trkpt>
      <trkpt lat="43.62022" lon="0.82069">
        <ele>195</ele>
        <time>2020-10-03T14:08:28.000Z</time>
      </trkpt>
      <trkpt lat="43.62022" lon="0.82065">
        <ele>195</ele>
        <time>2020-10-03T14:08:29.000Z</time>
      </trkpt>
      <trkpt lat="43.62022" lon="0.82061">
        <ele>195</ele>
        <time>2020-10-03T14:08:30.000Z</time>
      </trkpt>
      <trkpt lat="43.62022" lon="0.82057">
        <ele>195</ele>
        <time>2020-10-03T14:08:31.000Z</time>
      </trkpt>
      <trkpt lat="43.62022" lon="0.82053">
        <ele>195</ele>
        <time>2020-10-03T14:08:32.000Z</time>
      </trkpt>
      <trkpt lat="43.62023" lon="0.82049">
        <ele>195</ele>
        <time>2020-10-03T14:08:33.000Z</time>
      </trkpt>
      <trkpt lat="43.62023" lon="0.82045">
        <ele>194.222224856</ele>
        <time>2020-10-03T14:08:34.000Z</time>
      </trkpt>
      <trkpt lat="43.62023" lon="0.82041">
        <ele>193</ele>
        <time>2020-10-03T14:08:35.000Z</time>
      </trkpt>
      <trkpt lat="43.62023" lon="0.82037">
        <ele>193</ele>
        <time>2020-10-03T14:08:36.000Z</time>
      </trkpt>
      <trkpt lat="43.62023" lon="0.82033">
        <ele>193</ele>
        <time>2020-10-03T14:08:37.000Z</time>
      </trkpt>
      <trkpt lat="43.62024" lon="0.82029">
        <ele>193</ele>
        <time>2020-10-03T14:08:38.000Z</time>
      </trkpt>
      <trkpt lat="43.62024" lon="0.82025">
        <ele>193</ele>
        <time>2020-10-03T14:08:39.000Z</time>
      </trkpt>
      <trkpt lat="43.62024" lon="0.82021">
        <ele>193</ele>
        <time>2020-10-03T14:08:40.000Z</time>
      </trkpt>
      <trkpt lat="43.62024" lon="0.82017">
        <ele>193</ele>
        <time>2020-10-03T14:08:41.000Z</time>
      </trkpt>
      <trkpt lat="43.62025" lon="0.82014">
        <ele>193</ele>
        <time>2020-10-03T14:08:42.000Z</time>
      </trkpt>
      <trkpt lat="43.62025" lon="0.82009">
        <ele>193</ele>
        <time>2020-10-03T14:08:43.000Z</time>
      </trkpt>
      <trkpt lat="43.62025" lon="0.82005">
        <ele>193</ele>
        <time>2020-10-03T14:08:44.000Z</time>
      </trkpt>
      <trkpt lat="43.62025" lon="0.82001">
        <ele>193</ele>
        <time>2020-10-03T14:08:45.000Z</time>
      </trkpt>
      <trkpt lat="43.62025" lon="0.81997">
        <ele>193</ele>
        <time>2020-10-03T14:08:46.000Z</time>
      </trkpt>
      <trkpt lat="43.62026" lon="0.81993">
        <ele>193</ele>
        <time>2020-10-03T14:08:47.000Z</time>
      </trkpt>
      <trkpt lat="43.62026" lon="0.81989">
        <ele>193</ele>
        <time>2020-10-03T14:08:48.000Z</time>
      </trkpt>
      <trkpt lat="43.62026" lon="0.81986">
        <ele>193</ele>
        <time>2020-10-03T14:08:49.000Z</time>
      </trkpt>
      <trkpt lat="43.62027" lon="0.81982">
        <ele>193</ele>
        <time>2020-10-03T14:08:50.000Z</time>
      </trkpt>
      <trkpt lat="43.62027" lon="0.81978">
        <ele>193</ele>
        <time>2020-10-03T14:08:51.000Z</time>
      </trkpt>
      <trkpt lat="43.62027" lon="0.81974">
        <ele>193</ele>
        <time>2020-10-03T14:08:52.000Z</time>
      </trkpt>
      <trkpt lat="43.62028" lon="0.8197">
        <ele>193</ele>
        <time>2020-10-03T14:08:53.000Z</time>
      </trkpt>
      <trkpt lat="43.62029" lon="0.81966">
        <ele>193</ele>
        <time>2020-10-03T14:08:54.000Z</time>
      </trkpt>
      <trkpt lat="43.6203" lon="0.81963">
        <ele>193</ele>
        <time>2020-10-03T14:08:55.000Z</time>
      </trkpt>
      <trkpt lat="43.62031" lon="0.81959">
        <ele>193</ele>
        <time>2020-10-03T14:08:56.000Z</time>
      </trkpt>
      <trkpt lat="43.62032" lon="0.81956">
        <ele>193</ele>
        <time>2020-10-03T14:08:57.000Z</time>
      </trkpt>
      <trkpt lat="43.62033" lon="0.81952">
        <ele>193</ele>
        <time>2020-10-03T14:08:58.000Z</time>
      </trkpt>
      <trkpt lat="43.62034" lon="0.81949">
        <ele>192.58620841854</ele>
        <time>2020-10-03T14:08:59.000Z</time>
      </trkpt>
      <trkpt lat="43.62035" lon="0.81945">
        <ele>192</ele>
        <time>2020-10-03T14:09:00.000Z</time>
      </trkpt>
      <trkpt lat="43.62036" lon="0.81942">
        <ele>192</ele>
        <time>2020-10-03T14:09:01.000Z</time>
      </trkpt>
      <trkpt lat="43.62037" lon="0.81938">
        <ele>192</ele>
        <time>2020-10-03T14:09:02.000Z</time>
      </trkpt>
      <trkpt lat="43.62038" lon="0.81935">
        <ele>192</ele>
        <time>2020-10-03T14:09:03.000Z</time>
      </trkpt>
      <trkpt lat="43.62039" lon="0.81932">
        <ele>192</ele>
        <time>2020-10-03T14:09:04.000Z</time>
      </trkpt>
      <trkpt lat="43.6204" lon="0.81929">
        <ele>192</ele>
        <time>2020-10-03T14:09:05.000Z</time>
      </trkpt>
      <trkpt lat="43.62041" lon="0.81925">
        <ele>192</ele>
        <time>2020-10-03T14:09:06.000Z</time>
      </trkpt>
      <trkpt lat="43.62042" lon="0.81922">
        <ele>192.28181945123</ele>
        <time>2020-10-03T14:09:07.000Z</time>
      </trkpt>
      <trkpt lat="43.62043" lon="0.81919">
        <ele>193</ele>
        <time>2020-10-03T14:09:08.000Z</time>
      </trkpt>
      <trkpt lat="43.62044" lon="0.81915">
        <ele>193</ele>
        <time>2020-10-03T14:09:09.000Z</time>
      </trkpt>
      <trkpt lat="43.62045" lon="0.81912">
        <ele>193</ele>
        <time>2020-10-03T14:09:10.000Z</time>
      </trkpt>
      <trkpt lat="43.62046" lon="0.81909">
        <ele>193</ele>
        <time>2020-10-03T14:09:11.000Z</time>
      </trkpt>
      <trkpt lat="43.62047" lon="0.81905">
        <ele>192.66345846154</ele>
        <time>2020-10-03T14:09:12.000Z</time>
      </trkpt>
      <trkpt lat="43.62048" lon="0.81902">
        <ele>192</ele>
        <time>2020-10-03T14:09:13.000Z</time>
      </trkpt>
      <trkpt lat="43.62049" lon="0.81899">
        <ele>192</ele>
        <time>2020-10-03T14:09:14.000Z</time>
      </trkpt>
      <trkpt lat="43.6205" lon="0.81895">
        <ele>192</ele>
        <time>2020-10-03T14:09:15.000Z</time>
      </trkpt>
      <trkpt lat="43.62051" lon="0.81892">
        <ele>192</ele>
        <time>2020-10-03T14:09:16.000Z</time>
      </trkpt>
      <trkpt lat="43.62052" lon="0.81888">
        <ele>192</ele>
        <time>2020-10-03T14:09:17.000Z</time>
      </trkpt>
      <trkpt lat="43.62054" lon="0.81885">
        <ele>192</ele>
        <time>2020-10-03T14:09:18.000Z</time>
      </trkpt>
      <trkpt lat="43.62055" lon="0.81881">
        <ele>192</ele>
        <time>2020-10-03T14:09:19.000Z</time>
      </trkpt>
      <trkpt lat="43.62056" lon="0.81878">
        <ele>192</ele>
        <time>2020-10-03T14:09:20.000Z</time>
      </trkpt>
      <trkpt lat="43.62058" lon="0.81875">
        <ele>192</ele>
        <time>2020-10-03T14:09:21.000Z</time>
      </trkpt>
      <trkpt lat="43.62059" lon="0.81871">
        <ele>192</ele>
        <time>2020-10-03T14:09:22.000Z</time>
      </trkpt>
      <trkpt lat="43.62061" lon="0.81868">
        <ele>192</ele>
        <time>2020-10-03T14:09:23.000Z</time>
      </trkpt>
      <trkpt lat="43.62063" lon="0.81865">
        <ele>192</ele>
        <time>2020-10-03T14:09:24.000Z</time>
      </trkpt>
      <trkpt lat="43.62064" lon="0.81863">
        <ele>192</ele>
        <time>2020-10-03T14:09:25.000Z</time>
      </trkpt>
      <trkpt lat="43.62066" lon="0.8186">
        <ele>192</ele>
        <time>2020-10-03T14:09:26.000Z</time>
      </trkpt>
      <trkpt lat="43.62068" lon="0.81857">
        <ele>192</ele>
        <time>2020-10-03T14:09:27.000Z</time>
      </trkpt>
      <trkpt lat="43.6207" lon="0.81855">
        <ele>191.55768615385</ele>
        <time>2020-10-03T14:09:28.000Z</time>
      </trkpt>
      <trkpt lat="43.62072" lon="0.81852">
        <ele>191</ele>
        <time>2020-10-03T14:09:29.000Z</time>
      </trkpt>
      <trkpt lat="43.62073" lon="0.8185">
        <ele>191</ele>
        <time>2020-10-03T14:09:30.000Z</time>
      </trkpt>
      <trkpt lat="43.62076" lon="0.81848">
        <ele>191</ele>
        <time>2020-10-03T14:09:31.000Z</time>
      </trkpt>
      <trkpt lat="43.62078" lon="0.81846">
        <ele>191</ele>
        <time>2020-10-03T14:09:32.000Z</time>
      </trkpt>
      <trkpt lat="43.6208" lon="0.81843">
        <ele>191</ele>
        <time>2020-10-03T14:09:33.000Z</time>
      </trkpt>
      <trkpt lat="43.62082" lon="0.81841">
        <ele>191.34884205513</ele>
        <time>2020-10-03T14:09:34.000Z</time>
      </trkpt>
      <trkpt lat="43.62084" lon="0.81838">
        <ele>192</ele>
        <time>2020-10-03T14:09:35.000Z</time>
      </trkpt>
      <trkpt lat="43.62086" lon="0.81836">
        <ele>192</ele>
        <time>2020-10-03T14:09:36.000Z</time>
      </trkpt>
      <trkpt lat="43.62088" lon="0.81833">
        <ele>192</ele>
        <time>2020-10-03T14:09:37.000Z</time>
      </trkpt>
      <trkpt lat="43.6209" lon="0.81831">
        <ele>192</ele>
        <time>2020-10-03T14:09:38.000Z</time>
      </trkpt>
      <trkpt lat="43.62092" lon="0.81828">
        <ele>192</ele>
        <time>2020-10-03T14:09:39.000Z</time>
      </trkpt>
      <trkpt lat="43.62094" lon="0.81825">
        <ele>192</ele>
        <time>2020-10-03T14:09:40.000Z</time>
      </trkpt>
      <trkpt lat="43.62095" lon="0.81822">
        <ele>192</ele>
        <time>2020-10-03T14:09:41.000Z</time>
      </trkpt>
      <trkpt lat="43.62097" lon="0.8182">
        <ele>192</ele>
        <time>2020-10-03T14:09:42.000Z</time>
      </trkpt>
      <trkpt lat="43.62098" lon="0.81817">
        <ele>192</ele>
        <time>2020-10-03T14:09:43.000Z</time>
      </trkpt>
      <trkpt lat="43.62099" lon="0.81814">
        <ele>192</ele>
        <time>2020-10-03T14:09:44.000Z</time>
      </trkpt>
      <trkpt lat="43.62099" lon="0.81811">
        <ele>192.26717736262</ele>
        <time>2020-10-03T14:09:45.000Z</time>
      </trkpt>
      <trkpt lat="43.62098" lon="0.81808">
        <ele>193</ele>
        <time>2020-10-03T14:09:46.000Z</time>
      </trkpt>
      <trkpt lat="43.62096" lon="0.81805">
        <ele>193</ele>
        <time>2020-10-03T14:09:47.000Z</time>
      </trkpt>
      <trkpt lat="43.62095" lon="0.81802">
        <ele>193</ele>
        <time>2020-10-03T14:09:48.000Z</time>
      </trkpt>
      <trkpt lat="43.62093" lon="0.818">
        <ele>193</ele>
        <time>2020-10-03T14:09:49.000Z</time>
      </trkpt>
      <trkpt lat="43.62091" lon="0.81798">
        <ele>193</ele>
        <time>2020-10-03T14:09:50.000Z</time>
      </trkpt>
      <trkpt lat="43.6209" lon="0.81795">
        <ele>193</ele>
        <time>2020-10-03T14:09:51.000Z</time>
      </trkpt>
      <trkpt lat="43.62088" lon="0.81793">
        <ele>193</ele>
        <time>2020-10-03T14:09:52.000Z</time>
      </trkpt>
      <trkpt lat="43.62086" lon="0.81791">
        <ele>193</ele>
        <time>2020-10-03T14:09:53.000Z</time>
      </trkpt>
      <trkpt lat="43.62084" lon="0.81789">
        <ele>193</ele>
        <time>2020-10-03T14:09:54.000Z</time>
      </trkpt>
      <trkpt lat="43.62083" lon="0.81786">
        <ele>193</ele>
        <time>2020-10-03T14:09:55.000Z</time>
      </trkpt>
      <trkpt lat="43.62082" lon="0.81783">
        <ele>193</ele>
        <time>2020-10-03T14:09:56.000Z</time>
      </trkpt>
      <trkpt lat="43.62081" lon="0.81779">
        <ele>193</ele>
        <time>2020-10-03T14:09:57.000Z</time>
      </trkpt>
      <trkpt lat="43.62081" lon="0.81775">
        <ele>193</ele>
        <time>2020-10-03T14:09:58.000Z</time>
      </trkpt>
      <trkpt lat="43.62081" lon="0.81771">
        <ele>193</ele>
        <time>2020-10-03T14:09:59.000Z</time>
      </trkpt>
      <trkpt lat="43.62081" lon="0.81768">
        <ele>193</ele>
        <time>2020-10-03T14:10:00.000Z</time>
      </trkpt>
      <trkpt lat="43.62082" lon="0.81764">
        <ele>193.39449487417</ele>
        <time>2020-10-03T14:10:01.000Z</time>
      </trkpt>
      <trkpt lat="43.62082" lon="0.81761">
        <ele>194</ele>
        <time>2020-10-03T14:10:02.000Z</time>
      </trkpt>
      <trkpt lat="43.62082" lon="0.81757">
        <ele>194</ele>
        <time>2020-10-03T14:10:03.000Z</time>
      </trkpt>
      <trkpt lat="43.62082" lon="0.81754">
        <ele>194</ele>
        <time>2020-10-03T14:10:04.000Z</time>
      </trkpt>
      <trkpt lat="43.62083" lon="0.81751">
        <ele>194</ele>
        <time>2020-10-03T14:10:05.000Z</time>
      </trkpt>
      <trkpt lat="43.62083" lon="0.81747">
        <ele>194</ele>
        <time>2020-10-03T14:10:06.000Z</time>
      </trkpt>
      <trkpt lat="43.62083" lon="0.81744">
        <ele>194</ele>
        <time>2020-10-03T14:10:07.000Z</time>
      </trkpt>
      <trkpt lat="43.62083" lon="0.81741">
        <ele>193.71818054877</ele>
        <time>2020-10-03T14:10:08.000Z</time>
      </trkpt>
      <trkpt lat="43.62084" lon="0.81738">
        <ele>193</ele>
        <time>2020-10-03T14:10:09.000Z</time>
      </trkpt>
      <trkpt lat="43.62084" lon="0.81735">
        <ele>193</ele>
        <time>2020-10-03T14:10:10.000Z</time>
      </trkpt>
      <trkpt lat="43.62083" lon="0.81732">
        <ele>193.44953966837</ele>
        <time>2020-10-03T14:10:11.000Z</time>
      </trkpt>
      <trkpt lat="43.62083" lon="0.81729">
        <ele>194</ele>
        <time>2020-10-03T14:10:12.000Z</time>
      </trkpt>
      <trkpt lat="43.62083" lon="0.81726">
        <ele>194</ele>
        <time>2020-10-03T14:10:13.000Z</time>
      </trkpt>
      <trkpt lat="43.62083" lon="0.81722">
        <ele>194</ele>
        <time>2020-10-03T14:10:14.000Z</time>
      </trkpt>
      <trkpt lat="43.62084" lon="0.81719">
        <ele>194</ele>
        <time>2020-10-03T14:10:15.000Z</time>
      </trkpt>
      <trkpt lat="43.62084" lon="0.81716">
        <ele>194.37349639134</ele>
        <time>2020-10-03T14:10:16.000Z</time>
      </trkpt>
      <trkpt lat="43.62084" lon="0.81713">
        <ele>195</ele>
        <time>2020-10-03T14:10:17.000Z</time>
      </trkpt>
      <trkpt lat="43.62085" lon="0.8171">
        <ele>195</ele>
        <time>2020-10-03T14:10:18.000Z</time>
      </trkpt>
      <trkpt lat="43.62085" lon="0.81707">
        <ele>195.45871742781</ele>
        <time>2020-10-03T14:10:19.000Z</time>
      </trkpt>
      <trkpt lat="43.62085" lon="0.81704">
        <ele>196</ele>
        <time>2020-10-03T14:10:20.000Z</time>
      </trkpt>
      <trkpt lat="43.62085" lon="0.81701">
        <ele>196</ele>
        <time>2020-10-03T14:10:21.000Z</time>
      </trkpt>
      <trkpt lat="43.62085" lon="0.81698">
        <ele>196</ele>
        <time>2020-10-03T14:10:22.000Z</time>
      </trkpt>
      <trkpt lat="43.62085" lon="0.81695">
        <ele>196</ele>
        <time>2020-10-03T14:10:23.000Z</time>
      </trkpt>
      <trkpt lat="43.62085" lon="0.81692">
        <ele>196</ele>
        <time>2020-10-03T14:10:24.000Z</time>
      </trkpt>
      <trkpt lat="43.62085" lon="0.81689">
        <ele>196</ele>
        <time>2020-10-03T14:10:25.000Z</time>
      </trkpt>
      <trkpt lat="43.62086" lon="0.81686">
        <ele>196.41836681382</ele>
        <time>2020-10-03T14:10:26.000Z</time>
      </trkpt>
      <trkpt lat="43.62086" lon="0.81683">
        <ele>197</ele>
        <time>2020-10-03T14:10:27.000Z</time>
      </trkpt>
      <trkpt lat="43.62086" lon="0.8168">
        <ele>197</ele>
        <time>2020-10-03T14:10:28.000Z</time>
      </trkpt>
      <trkpt lat="43.62086" lon="0.81677">
        <ele>197</ele>
        <time>2020-10-03T14:10:29.000Z</time>
      </trkpt>
      <trkpt lat="43.62087" lon="0.81675">
        <ele>197</ele>
        <time>2020-10-03T14:10:30.000Z</time>
      </trkpt>
      <trkpt lat="43.62087" lon="0.81672">
        <ele>197</ele>
        <time>2020-10-03T14:10:31.000Z</time>
      </trkpt>
      <trkpt lat="43.62088" lon="0.81669">
        <ele>197</ele>
        <time>2020-10-03T14:10:32.000Z</time>
      </trkpt>
      <trkpt lat="43.62088" lon="0.81666">
        <ele>197</ele>
        <time>2020-10-03T14:10:33.000Z</time>
      </trkpt>
      <trkpt lat="43.62089" lon="0.81663">
        <ele>197</ele>
        <time>2020-10-03T14:10:34.000Z</time>
      </trkpt>
      <trkpt lat="43.62089" lon="0.81659">
        <ele>197</ele>
        <time>2020-10-03T14:10:35.000Z</time>
      </trkpt>
      <trkpt lat="43.62089" lon="0.81656">
        <ele>197</ele>
        <time>2020-10-03T14:10:36.000Z</time>
      </trkpt>
      <trkpt lat="43.6209" lon="0.81653">
        <ele>197</ele>
        <time>2020-10-03T14:10:37.000Z</time>
      </trkpt>
      <trkpt lat="43.6209" lon="0.81649">
        <ele>197</ele>
        <time>2020-10-03T14:10:38.000Z</time>
      </trkpt>
      <trkpt lat="43.6209" lon="0.81646">
        <ele>197</ele>
        <time>2020-10-03T14:10:39.000Z</time>
      </trkpt>
      <trkpt lat="43.62091" lon="0.81643">
        <ele>197.39999715558</ele>
        <time>2020-10-03T14:10:40.000Z</time>
      </trkpt>
      <trkpt lat="43.62091" lon="0.8164">
        <ele>198</ele>
        <time>2020-10-03T14:10:41.000Z</time>
      </trkpt>
      <trkpt lat="43.62091" lon="0.81638">
        <ele>198</ele>
        <time>2020-10-03T14:10:42.000Z</time>
      </trkpt>
      <trkpt lat="43.62091" lon="0.81634">
        <ele>198</ele>
        <time>2020-10-03T14:10:44.000Z</time>
      </trkpt>
      <trkpt lat="43.62091" lon="0.8163">
        <ele>198</ele>
        <time>2020-10-03T14:10:46.000Z</time>
      </trkpt>
      <trkpt lat="43.62091" lon="0.81625">
        <ele>197</ele>
        <time>2020-10-03T14:10:48.000Z</time>
      </trkpt>
      <trkpt lat="43.62091" lon="0.81621">
        <ele>197</ele>
        <time>2020-10-03T14:10:50.000Z</time>
      </trkpt>
      <trkpt lat="43.62092" lon="0.81618">
        <ele>197</ele>
        <time>2020-10-03T14:10:52.000Z</time>
      </trkpt>
      <trkpt lat="43.62092" lon="0.81615">
        <ele>197</ele>
        <time>2020-10-03T14:10:54.000Z</time>
      </trkpt>
      <trkpt lat="43.62093" lon="0.81611">
        <ele>197.38053057248</ele>
        <time>2020-10-03T14:10:56.000Z</time>
      </trkpt>
      <trkpt lat="43.62093" lon="0.81608">
        <ele>198.78571428571</ele>
        <time>2020-10-03T14:10:58.000Z</time>
      </trkpt>
      <trkpt lat="43.62093" lon="0.81603">
        <ele>200</ele>
        <time>2020-10-03T14:11:00.000Z</time>
      </trkpt>
      <trkpt lat="43.62093" lon="0.816">
        <ele>200</ele>
        <time>2020-10-03T14:11:02.000Z</time>
      </trkpt>
      <trkpt lat="43.62094" lon="0.81596">
        <ele>200</ele>
        <time>2020-10-03T14:11:04.000Z</time>
      </trkpt>
      <trkpt lat="43.62094" lon="0.81592">
        <ele>200</ele>
        <time>2020-10-03T14:11:06.000Z</time>
      </trkpt>
      <trkpt lat="43.62095" lon="0.81588">
        <ele>200</ele>
        <time>2020-10-03T14:11:08.000Z</time>
      </trkpt>
      <trkpt lat="43.62094" lon="0.81584">
        <ele>200.43396568172</ele>
        <time>2020-10-03T14:11:10.000Z</time>
      </trkpt>
      <trkpt lat="43.62095" lon="0.8158">
        <ele>201.33944760205</ele>
        <time>2020-10-03T14:11:12.000Z</time>
      </trkpt>
      <trkpt lat="43.62095" lon="0.81577">
        <ele>202</ele>
        <time>2020-10-03T14:11:14.000Z</time>
      </trkpt>
      <trkpt lat="43.62095" lon="0.81573">
        <ele>201.59616</ele>
        <time>2020-10-03T14:11:16.000Z</time>
      </trkpt>
      <trkpt lat="43.62096" lon="0.81569">
        <ele>201</ele>
        <time>2020-10-03T14:11:18.000Z</time>
      </trkpt>
      <trkpt lat="43.62096" lon="0.81566">
        <ele>201</ele>
        <time>2020-10-03T14:11:20.000Z</time>
      </trkpt>
      <trkpt lat="43.62095" lon="0.81562">
        <ele>203</ele>
        <time>2020-10-03T14:11:22.000Z</time>
      </trkpt>
      <trkpt lat="43.62095" lon="0.81558">
        <ele>203</ele>
        <time>2020-10-03T14:11:24.000Z</time>
      </trkpt>
      <trkpt lat="43.62096" lon="0.81554">
        <ele>203</ele>
        <time>2020-10-03T14:11:26.000Z</time>
      </trkpt>
      <trkpt lat="43.62097" lon="0.81551">
        <ele>203</ele>
        <time>2020-10-03T14:11:28.000Z</time>
      </trkpt>
      <trkpt lat="43.62097" lon="0.81547">
        <ele>203</ele>
        <time>2020-10-03T14:11:30.000Z</time>
      </trkpt>
      <trkpt lat="43.62097" lon="0.81543">
        <ele>203</ele>
        <time>2020-10-03T14:11:32.000Z</time>
      </trkpt>
      <trkpt lat="43.62097" lon="0.81539">
        <ele>203.41379310345</ele>
        <time>2020-10-03T14:11:34.000Z</time>
      </trkpt>
      <trkpt lat="43.62097" lon="0.81535">
        <ele>204</ele>
        <time>2020-10-03T14:11:36.000Z</time>
      </trkpt>
      <trkpt lat="43.62097" lon="0.81532">
        <ele>204</ele>
        <time>2020-10-03T14:11:38.000Z</time>
      </trkpt>
      <trkpt lat="43.62097" lon="0.81529">
        <ele>204</ele>
        <time>2020-10-03T14:11:40.000Z</time>
      </trkpt>
      <trkpt lat="43.62098" lon="0.81525">
        <ele>204</ele>
        <time>2020-10-03T14:11:42.000Z</time>
      </trkpt>
      <trkpt lat="43.62098" lon="0.81522">
        <ele>204</ele>
        <time>2020-10-03T14:11:44.000Z</time>
      </trkpt>
      <trkpt lat="43.62098" lon="0.81518">
        <ele>204</ele>
        <time>2020-10-03T14:11:46.000Z</time>
      </trkpt>
      <trkpt lat="43.62098" lon="0.81514">
        <ele>205</ele>
        <time>2020-10-03T14:11:48.000Z</time>
      </trkpt>
      <trkpt lat="43.62098" lon="0.81511">
        <ele>206</ele>
        <time>2020-10-03T14:11:50.000Z</time>
      </trkpt>
      <trkpt lat="43.62098" lon="0.81507">
        <ele>207</ele>
        <time>2020-10-03T14:11:52.000Z</time>
      </trkpt>
      <trkpt lat="43.62099" lon="0.81503">
        <ele>207</ele>
        <time>2020-10-03T14:11:54.000Z</time>
      </trkpt>
      <trkpt lat="43.62099" lon="0.81499">
        <ele>207</ele>
        <time>2020-10-03T14:11:56.000Z</time>
      </trkpt>
      <trkpt lat="43.62099" lon="0.81495">
        <ele>207</ele>
        <time>2020-10-03T14:11:58.000Z</time>
      </trkpt>
      <trkpt lat="43.62099" lon="0.81491">
        <ele>207</ele>
        <time>2020-10-03T14:12:00.000Z</time>
      </trkpt>
      <trkpt lat="43.621" lon="0.81487">
        <ele>207</ele>
        <time>2020-10-03T14:12:02.000Z</time>
      </trkpt>
      <trkpt lat="43.62101" lon="0.81483">
        <ele>207</ele>
        <time>2020-10-03T14:12:04.000Z</time>
      </trkpt>
      <trkpt lat="43.62102" lon="0.81479">
        <ele>207</ele>
        <time>2020-10-03T14:12:06.000Z</time>
      </trkpt>
      <trkpt lat="43.62102" lon="0.81474">
        <ele>207</ele>
        <time>2020-10-03T14:12:08.000Z</time>
      </trkpt>
      <trkpt lat="43.62103" lon="0.81471">
        <ele>207</ele>
        <time>2020-10-03T14:12:09.000Z</time>
      </trkpt>
      <trkpt lat="43.62103" lon="0.81468">
        <ele>207</ele>
        <time>2020-10-03T14:12:10.000Z</time>
      </trkpt>
      <trkpt lat="43.62104" lon="0.81466">
        <ele>207.36905142857</ele>
        <time>2020-10-03T14:12:11.000Z</time>
      </trkpt>
      <trkpt lat="43.62104" lon="0.81463">
        <ele>208</ele>
        <time>2020-10-03T14:12:12.000Z</time>
      </trkpt>
      <trkpt lat="43.62105" lon="0.8146">
        <ele>208</ele>
        <time>2020-10-03T14:12:13.000Z</time>
      </trkpt>
      <trkpt lat="43.62105" lon="0.81457">
        <ele>208</ele>
        <time>2020-10-03T14:12:14.000Z</time>
      </trkpt>
      <trkpt lat="43.62106" lon="0.81454">
        <ele>208</ele>
        <time>2020-10-03T14:12:15.000Z</time>
      </trkpt>
      <trkpt lat="43.62106" lon="0.81451">
        <ele>208</ele>
        <time>2020-10-03T14:12:16.000Z</time>
      </trkpt>
      <trkpt lat="43.62106" lon="0.81448">
        <ele>208</ele>
        <time>2020-10-03T14:12:17.000Z</time>
      </trkpt>
      <trkpt lat="43.62106" lon="0.81445">
        <ele>208</ele>
        <time>2020-10-03T14:12:18.000Z</time>
      </trkpt>
      <trkpt lat="43.62106" lon="0.81442">
        <ele>208</ele>
        <time>2020-10-03T14:12:19.000Z</time>
      </trkpt>
      <trkpt lat="43.62107" lon="0.81439">
        <ele>208.5</ele>
        <time>2020-10-03T14:12:20.000Z</time>
      </trkpt>
      <trkpt lat="43.62107" lon="0.81437">
        <ele>209</ele>
        <time>2020-10-03T14:12:21.000Z</time>
      </trkpt>
      <trkpt lat="43.62107" lon="0.81434">
        <ele>209</ele>
        <time>2020-10-03T14:12:22.000Z</time>
      </trkpt>
      <trkpt lat="43.62108" lon="0.81431">
        <ele>209</ele>
        <time>2020-10-03T14:12:23.000Z</time>
      </trkpt>
      <trkpt lat="43.62108" lon="0.81428">
        <ele>209</ele>
        <time>2020-10-03T14:12:24.000Z</time>
      </trkpt>
      <trkpt lat="43.62109" lon="0.81425">
        <ele>209</ele>
        <time>2020-10-03T14:12:25.000Z</time>
      </trkpt>
      <trkpt lat="43.62109" lon="0.81422">
        <ele>209</ele>
        <time>2020-10-03T14:12:26.000Z</time>
      </trkpt>
      <trkpt lat="43.6211" lon="0.81418">
        <ele>209</ele>
        <time>2020-10-03T14:12:27.000Z</time>
      </trkpt>
      <trkpt lat="43.6211" lon="0.81415">
        <ele>209</ele>
        <time>2020-10-03T14:12:28.000Z</time>
      </trkpt>
      <trkpt lat="43.62111" lon="0.81411">
        <ele>209</ele>
        <time>2020-10-03T14:12:29.000Z</time>
      </trkpt>
      <trkpt lat="43.62111" lon="0.81408">
        <ele>209</ele>
        <time>2020-10-03T14:12:30.000Z</time>
      </trkpt>
      <trkpt lat="43.62112" lon="0.81405">
        <ele>208.59523664401</ele>
        <time>2020-10-03T14:12:31.000Z</time>
      </trkpt>
      <trkpt lat="43.62112" lon="0.81401">
        <ele>208</ele>
        <time>2020-10-03T14:12:32.000Z</time>
      </trkpt>
      <trkpt lat="43.62113" lon="0.81398">
        <ele>208</ele>
        <time>2020-10-03T14:12:33.000Z</time>
      </trkpt>
      <trkpt lat="43.62113" lon="0.81395">
        <ele>208</ele>
        <time>2020-10-03T14:12:34.000Z</time>
      </trkpt>
      <trkpt lat="43.62113" lon="0.81392">
        <ele>208</ele>
        <time>2020-10-03T14:12:35.000Z</time>
      </trkpt>
      <trkpt lat="43.62114" lon="0.81389">
        <ele>208.5190780024</ele>
        <time>2020-10-03T14:12:36.000Z</time>
      </trkpt>
      <trkpt lat="43.62114" lon="0.81386">
        <ele>210</ele>
        <time>2020-10-03T14:12:37.000Z</time>
      </trkpt>
      <trkpt lat="43.62114" lon="0.81383">
        <ele>210</ele>
        <time>2020-10-03T14:12:38.000Z</time>
      </trkpt>
      <trkpt lat="43.62115" lon="0.8138">
        <ele>210</ele>
        <time>2020-10-03T14:12:39.000Z</time>
      </trkpt>
      <trkpt lat="43.62115" lon="0.81378">
        <ele>210</ele>
        <time>2020-10-03T14:12:40.000Z</time>
      </trkpt>
      <trkpt lat="43.62115" lon="0.81375">
        <ele>210</ele>
        <time>2020-10-03T14:12:41.000Z</time>
      </trkpt>
      <trkpt lat="43.62115" lon="0.81372">
        <ele>210</ele>
        <time>2020-10-03T14:12:42.000Z</time>
      </trkpt>
      <trkpt lat="43.62115" lon="0.81369">
        <ele>210</ele>
        <time>2020-10-03T14:12:43.000Z</time>
      </trkpt>
      <trkpt lat="43.62116" lon="0.81366">
        <ele>210</ele>
        <time>2020-10-03T14:12:44.000Z</time>
      </trkpt>
      <trkpt lat="43.62116" lon="0.81363">
        <ele>210</ele>
        <time>2020-10-03T14:12:45.000Z</time>
      </trkpt>
      <trkpt lat="43.62116" lon="0.8136">
        <ele>210</ele>
        <time>2020-10-03T14:12:46.000Z</time>
      </trkpt>
      <trkpt lat="43.62116" lon="0.81357">
        <ele>210</ele>
        <time>2020-10-03T14:12:47.000Z</time>
      </trkpt>
      <trkpt lat="43.62116" lon="0.81354">
        <ele>210</ele>
        <time>2020-10-03T14:12:48.000Z</time>
      </trkpt>
      <trkpt lat="43.62116" lon="0.81351">
        <ele>210.37349639134</ele>
        <time>2020-10-03T14:12:49.000Z</time>
      </trkpt>
      <trkpt lat="43.62117" lon="0.81347">
        <ele>211</ele>
        <time>2020-10-03T14:12:51.000Z</time>
      </trkpt>
      <trkpt lat="43.62117" lon="0.81344">
        <ele>211.36585860793</ele>
        <time>2020-10-03T14:12:52.000Z</time>
      </trkpt>
      <trkpt lat="43.62117" lon="0.81341">
        <ele>212</ele>
        <time>2020-10-03T14:12:53.000Z</time>
      </trkpt>
      <trkpt lat="43.62117" lon="0.81338">
        <ele>212</ele>
        <time>2020-10-03T14:12:54.000Z</time>
      </trkpt>
      <trkpt lat="43.62116" lon="0.81336">
        <ele>212</ele>
        <time>2020-10-03T14:12:55.000Z</time>
      </trkpt>
      <trkpt lat="43.62116" lon="0.81333">
        <ele>212</ele>
        <time>2020-10-03T14:12:56.000Z</time>
      </trkpt>
      <trkpt lat="43.62116" lon="0.8133">
        <ele>212</ele>
        <time>2020-10-03T14:12:57.000Z</time>
      </trkpt>
      <trkpt lat="43.62116" lon="0.81328">
        <ele>212</ele>
        <time>2020-10-03T14:12:58.000Z</time>
      </trkpt>
      <trkpt lat="43.62117" lon="0.81325">
        <ele>212</ele>
        <time>2020-10-03T14:12:59.000Z</time>
      </trkpt>
      <trkpt lat="43.62117" lon="0.81321">
        <ele>212</ele>
        <time>2020-10-03T14:13:01.000Z</time>
      </trkpt>
      <trkpt lat="43.62117" lon="0.81317">
        <ele>212</ele>
        <time>2020-10-03T14:13:03.000Z</time>
      </trkpt>
      <trkpt lat="43.62117" lon="0.81312">
        <ele>212</ele>
        <time>2020-10-03T14:13:05.000Z</time>
      </trkpt>
      <trkpt lat="43.62116" lon="0.81308">
        <ele>212</ele>
        <time>2020-10-03T14:13:07.000Z</time>
      </trkpt>
      <trkpt lat="43.62116" lon="0.81304">
        <ele>212</ele>
        <time>2020-10-03T14:13:09.000Z</time>
      </trkpt>
      <trkpt lat="43.62117" lon="0.813">
        <ele>212</ele>
        <time>2020-10-03T14:13:11.000Z</time>
      </trkpt>
      <trkpt lat="43.62117" lon="0.81296">
        <ele>212</ele>
        <time>2020-10-03T14:13:13.000Z</time>
      </trkpt>
      <trkpt lat="43.62117" lon="0.81293">
        <ele>213</ele>
        <time>2020-10-03T14:13:15.000Z</time>
      </trkpt>
      <trkpt lat="43.62117" lon="0.81289">
        <ele>213</ele>
        <time>2020-10-03T14:13:17.000Z</time>
      </trkpt>
      <trkpt lat="43.62117" lon="0.81285">
        <ele>213</ele>
        <time>2020-10-03T14:13:19.000Z</time>
      </trkpt>
      <trkpt lat="43.62117" lon="0.81281">
        <ele>213.41592850185</ele>
        <time>2020-10-03T14:13:21.000Z</time>
      </trkpt>
      <trkpt lat="43.62117" lon="0.81278">
        <ele>214</ele>
        <time>2020-10-03T14:13:23.000Z</time>
      </trkpt>
      <trkpt lat="43.62117" lon="0.81274">
        <ele>214</ele>
        <time>2020-10-03T14:13:25.000Z</time>
      </trkpt>
      <trkpt lat="43.62116" lon="0.81271">
        <ele>214</ele>
        <time>2020-10-03T14:13:27.000Z</time>
      </trkpt>
      <trkpt lat="43.62116" lon="0.81268">
        <ele>214</ele>
        <time>2020-10-03T14:13:29.000Z</time>
      </trkpt>
      <trkpt lat="43.62116" lon="0.81264">
        <ele>215</ele>
        <time>2020-10-03T14:13:31.000Z</time>
      </trkpt>
      <trkpt lat="43.62117" lon="0.81261">
        <ele>215</ele>
        <time>2020-10-03T14:13:33.000Z</time>
      </trkpt>
      <trkpt lat="43.62117" lon="0.81257">
        <ele>215</ele>
        <time>2020-10-03T14:13:35.000Z</time>
      </trkpt>
      <trkpt lat="43.62117" lon="0.81254">
        <ele>215</ele>
        <time>2020-10-03T14:13:37.000Z</time>
      </trkpt>
      <trkpt lat="43.62117" lon="0.81251">
        <ele>216</ele>
        <time>2020-10-03T14:13:39.000Z</time>
      </trkpt>
      <trkpt lat="43.62117" lon="0.81247">
        <ele>216</ele>
        <time>2020-10-03T14:13:41.000Z</time>
      </trkpt>
      <trkpt lat="43.62116" lon="0.81243">
        <ele>216</ele>
        <time>2020-10-03T14:13:43.000Z</time>
      </trkpt>
      <trkpt lat="43.62116" lon="0.8124">
        <ele>216</ele>
        <time>2020-10-03T14:13:45.000Z</time>
      </trkpt>
      <trkpt lat="43.62116" lon="0.81236">
        <ele>216.30337547281</ele>
        <time>2020-10-03T14:13:47.000Z</time>
      </trkpt>
      <trkpt lat="43.62116" lon="0.81233">
        <ele>217</ele>
        <time>2020-10-03T14:13:49.000Z</time>
      </trkpt>
      <trkpt lat="43.62116" lon="0.81229">
        <ele>217</ele>
        <time>2020-10-03T14:13:51.000Z</time>
      </trkpt>
      <trkpt lat="43.62116" lon="0.81226">
        <ele>217</ele>
        <time>2020-10-03T14:13:53.000Z</time>
      </trkpt>
      <trkpt lat="43.62116" lon="0.81222">
        <ele>217</ele>
        <time>2020-10-03T14:13:55.000Z</time>
      </trkpt>
      <trkpt lat="43.62116" lon="0.81218">
        <ele>217</ele>
        <time>2020-10-03T14:13:57.000Z</time>
      </trkpt>
      <trkpt lat="43.62116" lon="0.81214">
        <ele>217.39639525364</ele>
        <time>2020-10-03T14:13:59.000Z</time>
      </trkpt>
      <trkpt lat="43.62116" lon="0.8121">
        <ele>218</ele>
        <time>2020-10-03T14:14:01.000Z</time>
      </trkpt>
      <trkpt lat="43.62116" lon="0.81207">
        <ele>218</ele>
        <time>2020-10-03T14:14:03.000Z</time>
      </trkpt>
      <trkpt lat="43.62116" lon="0.81203">
        <ele>218</ele>
        <time>2020-10-03T14:14:05.000Z</time>
      </trkpt>
      <trkpt lat="43.62115" lon="0.81198">
        <ele>218</ele>
        <time>2020-10-03T14:14:07.000Z</time>
      </trkpt>
      <trkpt lat="43.62115" lon="0.81195">
        <ele>218</ele>
        <time>2020-10-03T14:14:09.000Z</time>
      </trkpt>
      <trkpt lat="43.62115" lon="0.81191">
        <ele>218</ele>
        <time>2020-10-03T14:14:11.000Z</time>
      </trkpt>
      <trkpt lat="43.62115" lon="0.81188">
        <ele>218</ele>
        <time>2020-10-03T14:14:13.000Z</time>
      </trkpt>
      <trkpt lat="43.62114" lon="0.81184">
        <ele>218</ele>
        <time>2020-10-03T14:14:15.000Z</time>
      </trkpt>
      <trkpt lat="43.62115" lon="0.81181">
        <ele>218</ele>
        <time>2020-10-03T14:14:17.000Z</time>
      </trkpt>
      <trkpt lat="43.62115" lon="0.81177">
        <ele>219</ele>
        <time>2020-10-03T14:14:19.000Z</time>
      </trkpt>
      <trkpt lat="43.62114" lon="0.81175">
        <ele>219</ele>
        <time>2020-10-03T14:14:21.000Z</time>
      </trkpt>
      <trkpt lat="43.62114" lon="0.81172">
        <ele>219</ele>
        <time>2020-10-03T14:14:23.000Z</time>
      </trkpt>
      <trkpt lat="43.62114" lon="0.81168">
        <ele>219</ele>
        <time>2020-10-03T14:14:25.000Z</time>
      </trkpt>
      <trkpt lat="43.62114" lon="0.81165">
        <ele>219</ele>
        <time>2020-10-03T14:15:07.000Z</time>
      </trkpt>
      <trkpt lat="43.62114" lon="0.81162">
        <ele>219</ele>
        <time>2020-10-03T14:15:10.000Z</time>
      </trkpt>
      <trkpt lat="43.62114" lon="0.81159">
        <ele>219</ele>
        <time>2020-10-03T14:15:12.000Z</time>
      </trkpt>
      <trkpt lat="43.62113" lon="0.81155">
        <ele>219</ele>
        <time>2020-10-03T14:15:14.000Z</time>
      </trkpt>
      <trkpt lat="43.62113" lon="0.81151">
        <ele>220</ele>
        <time>2020-10-03T14:15:16.000Z</time>
      </trkpt>
      <trkpt lat="43.62113" lon="0.81148">
        <ele>220.40178285714</ele>
        <time>2020-10-03T14:15:18.000Z</time>
      </trkpt>
      <trkpt lat="43.62113" lon="0.81144">
        <ele>221</ele>
        <time>2020-10-03T14:15:20.000Z</time>
      </trkpt>
      <trkpt lat="43.62113" lon="0.81141">
        <ele>221</ele>
        <time>2020-10-03T14:15:22.000Z</time>
      </trkpt>
      <trkpt lat="43.62112" lon="0.81137">
        <ele>221</ele>
        <time>2020-10-03T14:15:24.000Z</time>
      </trkpt>
      <trkpt lat="43.62112" lon="0.81133">
        <ele>221</ele>
        <time>2020-10-03T14:15:26.000Z</time>
      </trkpt>
      <trkpt lat="43.62112" lon="0.81129">
        <ele>221</ele>
        <time>2020-10-03T14:15:28.000Z</time>
      </trkpt>
      <trkpt lat="43.62112" lon="0.81126">
        <ele>221</ele>
        <time>2020-10-03T14:15:30.000Z</time>
      </trkpt>
      <trkpt lat="43.62112" lon="0.81122">
        <ele>221</ele>
        <time>2020-10-03T14:15:32.000Z</time>
      </trkpt>
      <trkpt lat="43.62112" lon="0.81119">
        <ele>222</ele>
        <time>2020-10-03T14:15:34.000Z</time>
      </trkpt>
      <trkpt lat="43.62111" lon="0.81115">
        <ele>222</ele>
        <time>2020-10-03T14:15:36.000Z</time>
      </trkpt>
      <trkpt lat="43.62111" lon="0.81112">
        <ele>222.33070612187</ele>
        <time>2020-10-03T14:15:38.000Z</time>
      </trkpt>
      <trkpt lat="43.62111" lon="0.81109">
        <ele>223</ele>
        <time>2020-10-03T14:15:40.000Z</time>
      </trkpt>
      <trkpt lat="43.62111" lon="0.81105">
        <ele>224</ele>
        <time>2020-10-03T14:15:42.000Z</time>
      </trkpt>
      <trkpt lat="43.62111" lon="0.81101">
        <ele>224</ele>
        <time>2020-10-03T14:15:44.000Z</time>
      </trkpt>
      <trkpt lat="43.6211" lon="0.81098">
        <ele>224</ele>
        <time>2020-10-03T14:15:46.000Z</time>
      </trkpt>
      <trkpt lat="43.6211" lon="0.81094">
        <ele>224</ele>
        <time>2020-10-03T14:15:48.000Z</time>
      </trkpt>
      <trkpt lat="43.6211" lon="0.81091">
        <ele>224</ele>
        <time>2020-10-03T14:15:50.000Z</time>
      </trkpt>
      <trkpt lat="43.6211" lon="0.81087">
        <ele>225</ele>
        <time>2020-10-03T14:15:52.000Z</time>
      </trkpt>
      <trkpt lat="43.6211" lon="0.81085">
        <ele>225</ele>
        <time>2020-10-03T14:15:54.000Z</time>
      </trkpt>
      <trkpt lat="43.6211" lon="0.81082">
        <ele>225</ele>
        <time>2020-10-03T14:15:56.000Z</time>
      </trkpt>
      <trkpt lat="43.6211" lon="0.81078">
        <ele>225</ele>
        <time>2020-10-03T14:15:58.000Z</time>
      </trkpt>
      <trkpt lat="43.62109" lon="0.81074">
        <ele>225</ele>
        <time>2020-10-03T14:16:00.000Z</time>
      </trkpt>
      <trkpt lat="43.62109" lon="0.8107">
        <ele>225.39639525364</ele>
        <time>2020-10-03T14:16:02.000Z</time>
      </trkpt>
      <trkpt lat="43.62109" lon="0.81067">
        <ele>226</ele>
        <time>2020-10-03T14:16:04.000Z</time>
      </trkpt>
      <trkpt lat="43.62109" lon="0.81064">
        <ele>226</ele>
        <time>2020-10-03T14:16:06.000Z</time>
      </trkpt>
      <trkpt lat="43.62109" lon="0.8106">
        <ele>226</ele>
        <time>2020-10-03T14:16:08.000Z</time>
      </trkpt>
      <trkpt lat="43.62109" lon="0.81058">
        <ele>226</ele>
        <time>2020-10-03T14:16:10.000Z</time>
      </trkpt>
      <trkpt lat="43.62109" lon="0.81054">
        <ele>226.38053057248</ele>
        <time>2020-10-03T14:16:12.000Z</time>
      </trkpt>
      <trkpt lat="43.62108" lon="0.8105">
        <ele>227.39285714286</ele>
        <time>2020-10-03T14:16:14.000Z</time>
      </trkpt>
      <trkpt lat="43.62108" lon="0.81047">
        <ele>228</ele>
        <time>2020-10-03T14:16:16.000Z</time>
      </trkpt>
      <trkpt lat="43.62108" lon="0.81043">
        <ele>228</ele>
        <time>2020-10-03T14:16:18.000Z</time>
      </trkpt>
      <trkpt lat="43.62107" lon="0.81039">
        <ele>228</ele>
        <time>2020-10-03T14:16:20.000Z</time>
      </trkpt>
      <trkpt lat="43.62108" lon="0.81035">
        <ele>228</ele>
        <time>2020-10-03T14:16:22.000Z</time>
      </trkpt>
      <trkpt lat="43.62108" lon="0.81031">
        <ele>230</ele>
        <time>2020-10-03T14:16:24.000Z</time>
      </trkpt>
      <trkpt lat="43.62108" lon="0.81027">
        <ele>230</ele>
        <time>2020-10-03T14:16:26.000Z</time>
      </trkpt>
      <trkpt lat="43.62108" lon="0.81023">
        <ele>230</ele>
        <time>2020-10-03T14:16:28.000Z</time>
      </trkpt>
      <trkpt lat="43.62107" lon="0.8102">
        <ele>230</ele>
        <time>2020-10-03T14:16:30.000Z</time>
      </trkpt>
      <trkpt lat="43.62106" lon="0.81016">
        <ele>230</ele>
        <time>2020-10-03T14:16:32.000Z</time>
      </trkpt>
      <trkpt lat="43.62106" lon="0.81013">
        <ele>230.42477996398</ele>
        <time>2020-10-03T14:16:34.000Z</time>
      </trkpt>
      <trkpt lat="43.62105" lon="0.81009">
        <ele>231</ele>
        <time>2020-10-03T14:16:36.000Z</time>
      </trkpt>
      <trkpt lat="43.62104" lon="0.81005">
        <ele>231</ele>
        <time>2020-10-03T14:16:38.000Z</time>
      </trkpt>
      <trkpt lat="43.62103" lon="0.81001">
        <ele>231</ele>
        <time>2020-10-03T14:16:40.000Z</time>
      </trkpt>
      <trkpt lat="43.62102" lon="0.80997">
        <ele>231</ele>
        <time>2020-10-03T14:16:42.000Z</time>
      </trkpt>
      <trkpt lat="43.62102" lon="0.80993">
        <ele>231</ele>
        <time>2020-10-03T14:16:44.000Z</time>
      </trkpt>
      <trkpt lat="43.62102" lon="0.80989">
        <ele>231</ele>
        <time>2020-10-03T14:16:46.000Z</time>
      </trkpt>
      <trkpt lat="43.62101" lon="0.80985">
        <ele>232</ele>
        <time>2020-10-03T14:16:48.000Z</time>
      </trkpt>
      <trkpt lat="43.621" lon="0.80981">
        <ele>232</ele>
        <time>2020-10-03T14:16:50.000Z</time>
      </trkpt>
      <trkpt lat="43.621" lon="0.80977">
        <ele>232</ele>
        <time>2020-10-03T14:16:52.000Z</time>
      </trkpt>
      <trkpt lat="43.621" lon="0.80974">
        <ele>232</ele>
        <time>2020-10-03T14:16:54.000Z</time>
      </trkpt>
      <trkpt lat="43.62099" lon="0.80972">
        <ele>232</ele>
        <time>2020-10-03T14:16:55.000Z</time>
      </trkpt>
      <trkpt lat="43.62098" lon="0.80969">
        <ele>232</ele>
        <time>2020-10-03T14:16:56.000Z</time>
      </trkpt>
      <trkpt lat="43.62097" lon="0.80967">
        <ele>232</ele>
        <time>2020-10-03T14:16:57.000Z</time>
      </trkpt>
      <trkpt lat="43.62095" lon="0.80964">
        <ele>232</ele>
        <time>2020-10-03T14:16:58.000Z</time>
      </trkpt>
      <trkpt lat="43.62094" lon="0.80961">
        <ele>232</ele>
        <time>2020-10-03T14:16:59.000Z</time>
      </trkpt>
      <trkpt lat="43.62093" lon="0.80958">
        <ele>232</ele>
        <time>2020-10-03T14:17:00.000Z</time>
      </trkpt>
      <trkpt lat="43.62092" lon="0.80955">
        <ele>231.20000465452</ele>
        <time>2020-10-03T14:17:01.000Z</time>
      </trkpt>
      <trkpt lat="43.62091" lon="0.80952">
        <ele>230</ele>
        <time>2020-10-03T14:17:02.000Z</time>
      </trkpt>
      <trkpt lat="43.62089" lon="0.80949">
        <ele>230</ele>
        <time>2020-10-03T14:17:03.000Z</time>
      </trkpt>
      <trkpt lat="43.62088" lon="0.80946">
        <ele>230</ele>
        <time>2020-10-03T14:17:04.000Z</time>
      </trkpt>
      <trkpt lat="43.62087" lon="0.80943">
        <ele>230</ele>
        <time>2020-10-03T14:17:05.000Z</time>
      </trkpt>
      <trkpt lat="43.62085" lon="0.8094">
        <ele>230</ele>
        <time>2020-10-03T14:17:06.000Z</time>
      </trkpt>
      <trkpt lat="43.62084" lon="0.80937">
        <ele>230</ele>
        <time>2020-10-03T14:17:07.000Z</time>
      </trkpt>
      <trkpt lat="43.62082" lon="0.80934">
        <ele>230</ele>
        <time>2020-10-03T14:17:08.000Z</time>
      </trkpt>
      <trkpt lat="43.62081" lon="0.80931">
        <ele>229.54128257219</ele>
        <time>2020-10-03T14:17:09.000Z</time>
      </trkpt>
      <trkpt lat="43.62079" lon="0.80928">
        <ele>229</ele>
        <time>2020-10-03T14:17:10.000Z</time>
      </trkpt>
      <trkpt lat="43.62078" lon="0.80924">
        <ele>229</ele>
        <time>2020-10-03T14:17:11.000Z</time>
      </trkpt>
      <trkpt lat="43.62076" lon="0.80921">
        <ele>229</ele>
        <time>2020-10-03T14:17:12.000Z</time>
      </trkpt>
      <trkpt lat="43.62075" lon="0.80918">
        <ele>229</ele>
        <time>2020-10-03T14:17:13.000Z</time>
      </trkpt>
      <trkpt lat="43.62073" lon="0.80915">
        <ele>228.26471529412</ele>
        <time>2020-10-03T14:17:14.000Z</time>
      </trkpt>
      <trkpt lat="43.62071" lon="0.80913">
        <ele>227</ele>
        <time>2020-10-03T14:17:15.000Z</time>
      </trkpt>
      <trkpt lat="43.62069" lon="0.8091">
        <ele>226.63366537399</ele>
        <time>2020-10-03T14:17:16.000Z</time>
      </trkpt>
      <trkpt lat="43.62067" lon="0.80908">
        <ele>226</ele>
        <time>2020-10-03T14:17:17.000Z</time>
      </trkpt>
      <trkpt lat="43.62065" lon="0.80905">
        <ele>226</ele>
        <time>2020-10-03T14:17:18.000Z</time>
      </trkpt>
      <trkpt lat="43.62062" lon="0.80903">
        <ele>225.17894339724</ele>
        <time>2020-10-03T14:17:19.000Z</time>
      </trkpt>
      <trkpt lat="43.6206" lon="0.80901">
        <ele>224</ele>
        <time>2020-10-03T14:17:20.000Z</time>
      </trkpt>
      <trkpt lat="43.62058" lon="0.80899">
        <ele>224</ele>
        <time>2020-10-03T14:17:21.000Z</time>
      </trkpt>
      <trkpt lat="43.62056" lon="0.80897">
        <ele>223.68421052632</ele>
        <time>2020-10-03T14:17:22.000Z</time>
      </trkpt>
      <trkpt lat="43.62054" lon="0.80894">
        <ele>223</ele>
        <time>2020-10-03T14:17:23.000Z</time>
      </trkpt>
      <trkpt lat="43.62051" lon="0.80891">
        <ele>223</ele>
        <time>2020-10-03T14:17:24.000Z</time>
      </trkpt>
      <trkpt lat="43.62049" lon="0.80889">
        <ele>222.6179744578</ele>
        <time>2020-10-03T14:17:25.000Z</time>
      </trkpt>
      <trkpt lat="43.62047" lon="0.80887">
        <ele>222</ele>
        <time>2020-10-03T14:17:26.000Z</time>
      </trkpt>
      <trkpt lat="43.62044" lon="0.80884">
        <ele>222</ele>
        <time>2020-10-03T14:17:27.000Z</time>
      </trkpt>
      <trkpt lat="43.62042" lon="0.80882">
        <ele>222</ele>
        <time>2020-10-03T14:17:28.000Z</time>
      </trkpt>
      <trkpt lat="43.6204" lon="0.8088">
        <ele>221.58586315681</ele>
        <time>2020-10-03T14:17:29.000Z</time>
      </trkpt>
      <trkpt lat="43.62038" lon="0.80877">
        <ele>221</ele>
        <time>2020-10-03T14:17:30.000Z</time>
      </trkpt>
      <trkpt lat="43.62035" lon="0.80875">
        <ele>221</ele>
        <time>2020-10-03T14:17:31.000Z</time>
      </trkpt>
      <trkpt lat="43.62033" lon="0.80873">
        <ele>221</ele>
        <time>2020-10-03T14:17:32.000Z</time>
      </trkpt>
      <trkpt lat="43.62031" lon="0.8087">
        <ele>221</ele>
        <time>2020-10-03T14:17:33.000Z</time>
      </trkpt>
      <trkpt lat="43.62028" lon="0.80868">
        <ele>221</ele>
        <time>2020-10-03T14:17:34.000Z</time>
      </trkpt>
      <trkpt lat="43.62026" lon="0.80865">
        <ele>220.58490315413</ele>
        <time>2020-10-03T14:17:35.000Z</time>
      </trkpt>
      <trkpt lat="43.62023" lon="0.80862">
        <ele>220</ele>
        <time>2020-10-03T14:17:36.000Z</time>
      </trkpt>
      <trkpt lat="43.62021" lon="0.8086">
        <ele>219.62650360866</ele>
        <time>2020-10-03T14:17:37.000Z</time>
      </trkpt>
      <trkpt lat="43.62019" lon="0.80858">
        <ele>219</ele>
        <time>2020-10-03T14:17:38.000Z</time>
      </trkpt>
      <trkpt lat="43.62017" lon="0.80856">
        <ele>219.38095238095</ele>
        <time>2020-10-03T14:17:39.000Z</time>
      </trkpt>
      <trkpt lat="43.62015" lon="0.80853">
        <ele>220</ele>
        <time>2020-10-03T14:17:40.000Z</time>
      </trkpt>
      <trkpt lat="43.62013" lon="0.80851">
        <ele>220</ele>
        <time>2020-10-03T14:17:41.000Z</time>
      </trkpt>
      <trkpt lat="43.6201" lon="0.80849">
        <ele>220</ele>
        <time>2020-10-03T14:17:42.000Z</time>
      </trkpt>
      <trkpt lat="43.62008" lon="0.80846">
        <ele>220</ele>
        <time>2020-10-03T14:17:43.000Z</time>
      </trkpt>
      <trkpt lat="43.62006" lon="0.80843">
        <ele>220</ele>
        <time>2020-10-03T14:17:44.000Z</time>
      </trkpt>
      <trkpt lat="43.62004" lon="0.80841">
        <ele>220</ele>
        <time>2020-10-03T14:17:45.000Z</time>
      </trkpt>
      <trkpt lat="43.62002" lon="0.80838">
        <ele>220</ele>
        <time>2020-10-03T14:17:46.000Z</time>
      </trkpt>
      <trkpt lat="43.62" lon="0.80836">
        <ele>220</ele>
        <time>2020-10-03T14:17:47.000Z</time>
      </trkpt>
      <trkpt lat="43.61997" lon="0.80834">
        <ele>220</ele>
        <time>2020-10-03T14:17:48.000Z</time>
      </trkpt>
      <trkpt lat="43.61995" lon="0.80831">
        <ele>220</ele>
        <time>2020-10-03T14:17:49.000Z</time>
      </trkpt>
      <trkpt lat="43.61993" lon="0.80829">
        <ele>219.89999634289</ele>
        <time>2020-10-03T14:17:50.000Z</time>
      </trkpt>
      <trkpt lat="43.61991" lon="0.80827">
        <ele>219</ele>
        <time>2020-10-03T14:17:51.000Z</time>
      </trkpt>
      <trkpt lat="43.61988" lon="0.80825">
        <ele>219</ele>
        <time>2020-10-03T14:17:52.000Z</time>
      </trkpt>
      <trkpt lat="43.61986" lon="0.80822">
        <ele>218.59047189477</ele>
        <time>2020-10-03T14:17:53.000Z</time>
      </trkpt>
      <trkpt lat="43.61984" lon="0.8082">
        <ele>218</ele>
        <time>2020-10-03T14:17:54.000Z</time>
      </trkpt>
      <trkpt lat="43.61981" lon="0.80818">
        <ele>218</ele>
        <time>2020-10-03T14:17:55.000Z</time>
      </trkpt>
      <trkpt lat="43.61979" lon="0.80816">
        <ele>218</ele>
        <time>2020-10-03T14:17:56.000Z</time>
      </trkpt>
      <trkpt lat="43.61977" lon="0.80813">
        <ele>218</ele>
        <time>2020-10-03T14:17:57.000Z</time>
      </trkpt>
      <trkpt lat="43.61975" lon="0.80811">
        <ele>218</ele>
        <time>2020-10-03T14:17:58.000Z</time>
      </trkpt>
      <trkpt lat="43.61972" lon="0.80808">
        <ele>218</ele>
        <time>2020-10-03T14:17:59.000Z</time>
      </trkpt>
      <trkpt lat="43.61971" lon="0.80805">
        <ele>218</ele>
        <time>2020-10-03T14:18:00.000Z</time>
      </trkpt>
      <trkpt lat="43.61969" lon="0.80803">
        <ele>218</ele>
        <time>2020-10-03T14:18:01.000Z</time>
      </trkpt>
      <trkpt lat="43.61967" lon="0.808">
        <ele>218</ele>
        <time>2020-10-03T14:18:02.000Z</time>
      </trkpt>
      <trkpt lat="43.61965" lon="0.80798">
        <ele>218</ele>
        <time>2020-10-03T14:18:03.000Z</time>
      </trkpt>
      <trkpt lat="43.61963" lon="0.80795">
        <ele>218</ele>
        <time>2020-10-03T14:18:04.000Z</time>
      </trkpt>
      <trkpt lat="43.61961" lon="0.80793">
        <ele>218</ele>
        <time>2020-10-03T14:18:05.000Z</time>
      </trkpt>
      <trkpt lat="43.61959" lon="0.8079">
        <ele>218</ele>
        <time>2020-10-03T14:18:06.000Z</time>
      </trkpt>
      <trkpt lat="43.61958" lon="0.80787">
        <ele>218</ele>
        <time>2020-10-03T14:18:07.000Z</time>
      </trkpt>
      <trkpt lat="43.61956" lon="0.80785">
        <ele>218</ele>
        <time>2020-10-03T14:18:08.000Z</time>
      </trkpt>
      <trkpt lat="43.61955" lon="0.80782">
        <ele>218</ele>
        <time>2020-10-03T14:18:09.000Z</time>
      </trkpt>
      <trkpt lat="43.61953" lon="0.80779">
        <ele>218</ele>
        <time>2020-10-03T14:18:10.000Z</time>
      </trkpt>
      <trkpt lat="43.61951" lon="0.80777">
        <ele>218</ele>
        <time>2020-10-03T14:18:11.000Z</time>
      </trkpt>
      <trkpt lat="43.6195" lon="0.80774">
        <ele>217.5789450046</ele>
        <time>2020-10-03T14:18:12.000Z</time>
      </trkpt>
      <trkpt lat="43.61948" lon="0.80771">
        <ele>217</ele>
        <time>2020-10-03T14:18:13.000Z</time>
      </trkpt>
      <trkpt lat="43.61946" lon="0.80769">
        <ele>217</ele>
        <time>2020-10-03T14:18:14.000Z</time>
      </trkpt>
      <trkpt lat="43.61945" lon="0.80766">
        <ele>217</ele>
        <time>2020-10-03T14:18:15.000Z</time>
      </trkpt>
      <trkpt lat="43.61943" lon="0.80763">
        <ele>217</ele>
        <time>2020-10-03T14:18:16.000Z</time>
      </trkpt>
      <trkpt lat="43.61942" lon="0.80761">
        <ele>217.3780497323</ele>
        <time>2020-10-03T14:18:17.000Z</time>
      </trkpt>
      <trkpt lat="43.6194" lon="0.80758">
        <ele>218</ele>
        <time>2020-10-03T14:18:18.000Z</time>
      </trkpt>
      <trkpt lat="43.61939" lon="0.80756">
        <ele>218</ele>
        <time>2020-10-03T14:18:19.000Z</time>
      </trkpt>
      <trkpt lat="43.61937" lon="0.80754">
        <ele>218</ele>
        <time>2020-10-03T14:18:20.000Z</time>
      </trkpt>
      <trkpt lat="43.61935" lon="0.80751">
        <ele>218</ele>
        <time>2020-10-03T14:18:21.000Z</time>
      </trkpt>
      <trkpt lat="43.61934" lon="0.80749">
        <ele>217.54128892855</ele>
        <time>2020-10-03T14:18:22.000Z</time>
      </trkpt>
      <trkpt lat="43.61933" lon="0.80747">
        <ele>217</ele>
        <time>2020-10-03T14:18:23.000Z</time>
      </trkpt>
      <trkpt lat="43.61932" lon="0.80744">
        <ele>217.43298452119</ele>
        <time>2020-10-03T14:18:24.000Z</time>
      </trkpt>
      <trkpt lat="43.61931" lon="0.80742">
        <ele>218</ele>
        <time>2020-10-03T14:18:25.000Z</time>
      </trkpt>
      <trkpt lat="43.6193" lon="0.80739">
        <ele>218</ele>
        <time>2020-10-03T14:18:26.000Z</time>
      </trkpt>
      <trkpt lat="43.61928" lon="0.80736">
        <ele>218</ele>
        <time>2020-10-03T14:18:27.000Z</time>
      </trkpt>
      <trkpt lat="43.61927" lon="0.80733">
        <ele>218</ele>
        <time>2020-10-03T14:18:28.000Z</time>
      </trkpt>
      <trkpt lat="43.61926" lon="0.80731">
        <ele>218</ele>
        <time>2020-10-03T14:18:29.000Z</time>
      </trkpt>
      <trkpt lat="43.61924" lon="0.80728">
        <ele>218</ele>
        <time>2020-10-03T14:18:30.000Z</time>
      </trkpt>
      <trkpt lat="43.61923" lon="0.80726">
        <ele>218</ele>
        <time>2020-10-03T14:18:31.000Z</time>
      </trkpt>
      <trkpt lat="43.61921" lon="0.80723">
        <ele>218</ele>
        <time>2020-10-03T14:18:32.000Z</time>
      </trkpt>
      <trkpt lat="43.6192" lon="0.8072">
        <ele>218</ele>
        <time>2020-10-03T14:18:33.000Z</time>
      </trkpt>
      <trkpt lat="43.61919" lon="0.80717">
        <ele>218.32075061585</ele>
        <time>2020-10-03T14:18:34.000Z</time>
      </trkpt>
      <trkpt lat="43.61917" lon="0.80715">
        <ele>219</ele>
        <time>2020-10-03T14:18:35.000Z</time>
      </trkpt>
      <trkpt lat="43.61916" lon="0.80712">
        <ele>219</ele>
        <time>2020-10-03T14:18:36.000Z</time>
      </trkpt>
      <trkpt lat="43.61914" lon="0.80709">
        <ele>219</ele>
        <time>2020-10-03T14:18:37.000Z</time>
      </trkpt>
      <trkpt lat="43.61913" lon="0.80708">
        <ele>218.73077112428</ele>
        <time>2020-10-03T14:18:38.000Z</time>
      </trkpt>
      <trkpt lat="43.61911" lon="0.80706">
        <ele>218</ele>
        <time>2020-10-03T14:18:40.000Z</time>
      </trkpt>
      <trkpt lat="43.61909" lon="0.80702">
        <ele>218</ele>
        <time>2020-10-03T14:18:42.000Z</time>
      </trkpt>
      <trkpt lat="43.61908" lon="0.807">
        <ele>218</ele>
        <time>2020-10-03T14:18:43.000Z</time>
      </trkpt>
      <trkpt lat="43.61906" lon="0.80698">
        <ele>218.43636109754</ele>
        <time>2020-10-03T14:18:44.000Z</time>
      </trkpt>
      <trkpt lat="43.61905" lon="0.80695">
        <ele>219</ele>
        <time>2020-10-03T14:18:45.000Z</time>
      </trkpt>
      <trkpt lat="43.61903" lon="0.80692">
        <ele>219</ele>
        <time>2020-10-03T14:18:46.000Z</time>
      </trkpt>
      <trkpt lat="43.61902" lon="0.8069">
        <ele>219</ele>
        <time>2020-10-03T14:18:47.000Z</time>
      </trkpt>
      <trkpt lat="43.619" lon="0.80688">
        <ele>219</ele>
        <time>2020-10-03T14:18:48.000Z</time>
      </trkpt>
      <trkpt lat="43.61899" lon="0.80686">
        <ele>219</ele>
        <time>2020-10-03T14:18:49.000Z</time>
      </trkpt>
      <trkpt lat="43.61898" lon="0.80683">
        <ele>219</ele>
        <time>2020-10-03T14:18:50.000Z</time>
      </trkpt>
      <trkpt lat="43.61896" lon="0.80681">
        <ele>219</ele>
        <time>2020-10-03T14:18:51.000Z</time>
      </trkpt>
      <trkpt lat="43.61895" lon="0.80679">
        <ele>219.31386874953</ele>
        <time>2020-10-03T14:18:52.000Z</time>
      </trkpt>
      <trkpt lat="43.61893" lon="0.80676">
        <ele>220</ele>
        <time>2020-10-03T14:18:53.000Z</time>
      </trkpt>
      <trkpt lat="43.61892" lon="0.80674">
        <ele>220</ele>
        <time>2020-10-03T14:18:54.000Z</time>
      </trkpt>
      <trkpt lat="43.61891" lon="0.80671">
        <ele>220</ele>
        <time>2020-10-03T14:18:55.000Z</time>
      </trkpt>
      <trkpt lat="43.6189" lon="0.80669">
        <ele>220</ele>
        <time>2020-10-03T14:18:56.000Z</time>
      </trkpt>
      <trkpt lat="43.61889" lon="0.80666">
        <ele>220</ele>
        <time>2020-10-03T14:18:57.000Z</time>
      </trkpt>
      <trkpt lat="43.61888" lon="0.80664">
        <ele>220</ele>
        <time>2020-10-03T14:18:58.000Z</time>
      </trkpt>
      <trkpt lat="43.61886" lon="0.80662">
        <ele>220</ele>
        <time>2020-10-03T14:18:59.000Z</time>
      </trkpt>
      <trkpt lat="43.61885" lon="0.80659">
        <ele>220</ele>
        <time>2020-10-03T14:19:00.000Z</time>
      </trkpt>
      <trkpt lat="43.61883" lon="0.80657">
        <ele>220</ele>
        <time>2020-10-03T14:19:01.000Z</time>
      </trkpt>
      <trkpt lat="43.61882" lon="0.80654">
        <ele>220</ele>
        <time>2020-10-03T14:19:02.000Z</time>
      </trkpt>
      <trkpt lat="43.6188" lon="0.80651">
        <ele>220</ele>
        <time>2020-10-03T14:19:03.000Z</time>
      </trkpt>
      <trkpt lat="43.61879" lon="0.80648">
        <ele>220</ele>
        <time>2020-10-03T14:19:04.000Z</time>
      </trkpt>
      <trkpt lat="43.61877" lon="0.80646">
        <ele>220.41817843304</ele>
        <time>2020-10-03T14:19:05.000Z</time>
      </trkpt>
      <trkpt lat="43.61876" lon="0.80643">
        <ele>221</ele>
        <time>2020-10-03T14:19:06.000Z</time>
      </trkpt>
      <trkpt lat="43.61875" lon="0.8064">
        <ele>221</ele>
        <time>2020-10-03T14:19:07.000Z</time>
      </trkpt>
      <trkpt lat="43.61873" lon="0.80637">
        <ele>221</ele>
        <time>2020-10-03T14:19:08.000Z</time>
      </trkpt>
      <trkpt lat="43.61872" lon="0.80634">
        <ele>221</ele>
        <time>2020-10-03T14:19:09.000Z</time>
      </trkpt>
      <trkpt lat="43.61871" lon="0.80632">
        <ele>221</ele>
        <time>2020-10-03T14:19:10.000Z</time>
      </trkpt>
      <trkpt lat="43.61869" lon="0.8063">
        <ele>221</ele>
        <time>2020-10-03T14:19:11.000Z</time>
      </trkpt>
      <trkpt lat="43.61868" lon="0.80627">
        <ele>221</ele>
        <time>2020-10-03T14:19:12.000Z</time>
      </trkpt>
      <trkpt lat="43.61866" lon="0.80625">
        <ele>221</ele>
        <time>2020-10-03T14:19:13.000Z</time>
      </trkpt>
      <trkpt lat="43.61865" lon="0.80622">
        <ele>221</ele>
        <time>2020-10-03T14:19:14.000Z</time>
      </trkpt>
      <trkpt lat="43.61864" lon="0.8062">
        <ele>221</ele>
        <time>2020-10-03T14:19:15.000Z</time>
      </trkpt>
      <trkpt lat="43.61863" lon="0.80618">
        <ele>221.25641236031</ele>
        <time>2020-10-03T14:19:16.000Z</time>
      </trkpt>
      <trkpt lat="43.61861" lon="0.80615">
        <ele>222</ele>
        <time>2020-10-03T14:19:17.000Z</time>
      </trkpt>
      <trkpt lat="43.6186" lon="0.80613">
        <ele>222</ele>
        <time>2020-10-03T14:19:18.000Z</time>
      </trkpt>
      <trkpt lat="43.61858" lon="0.8061">
        <ele>222</ele>
        <time>2020-10-03T14:19:19.000Z</time>
      </trkpt>
      <trkpt lat="43.61857" lon="0.80607">
        <ele>222</ele>
        <time>2020-10-03T14:19:20.000Z</time>
      </trkpt>
      <trkpt lat="43.61855" lon="0.80605">
        <ele>222</ele>
        <time>2020-10-03T14:19:21.000Z</time>
      </trkpt>
      <trkpt lat="43.61854" lon="0.80602">
        <ele>222</ele>
        <time>2020-10-03T14:19:22.000Z</time>
      </trkpt>
      <trkpt lat="43.61852" lon="0.80599">
        <ele>222.37778220244</ele>
        <time>2020-10-03T14:19:23.000Z</time>
      </trkpt>
      <trkpt lat="43.61851" lon="0.80597">
        <ele>223</ele>
        <time>2020-10-03T14:19:24.000Z</time>
      </trkpt>
      <trkpt lat="43.6185" lon="0.80595">
        <ele>223</ele>
        <time>2020-10-03T14:19:25.000Z</time>
      </trkpt>
      <trkpt lat="43.61848" lon="0.80592">
        <ele>223</ele>
        <time>2020-10-03T14:19:26.000Z</time>
      </trkpt>
      <trkpt lat="43.61847" lon="0.8059">
        <ele>223</ele>
        <time>2020-10-03T14:19:27.000Z</time>
      </trkpt>
      <trkpt lat="43.61846" lon="0.80587">
        <ele>223</ele>
        <time>2020-10-03T14:19:28.000Z</time>
      </trkpt>
      <trkpt lat="43.61844" lon="0.80585">
        <ele>223</ele>
        <time>2020-10-03T14:19:29.000Z</time>
      </trkpt>
      <trkpt lat="43.61843" lon="0.80582">
        <ele>223</ele>
        <time>2020-10-03T14:19:30.000Z</time>
      </trkpt>
      <trkpt lat="43.61842" lon="0.8058">
        <ele>223</ele>
        <time>2020-10-03T14:19:31.000Z</time>
      </trkpt>
      <trkpt lat="43.61841" lon="0.80578">
        <ele>223</ele>
        <time>2020-10-03T14:19:32.000Z</time>
      </trkpt>
      <trkpt lat="43.6184" lon="0.80575">
        <ele>223.45631236874</ele>
        <time>2020-10-03T14:19:33.000Z</time>
      </trkpt>
      <trkpt lat="43.61839" lon="0.80573">
        <ele>224</ele>
        <time>2020-10-03T14:19:34.000Z</time>
      </trkpt>
      <trkpt lat="43.61838" lon="0.8057">
        <ele>224</ele>
        <time>2020-10-03T14:19:35.000Z</time>
      </trkpt>
      <trkpt lat="43.61837" lon="0.80567">
        <ele>224</ele>
        <time>2020-10-03T14:19:36.000Z</time>
      </trkpt>
      <trkpt lat="43.61836" lon="0.80565">
        <ele>224</ele>
        <time>2020-10-03T14:19:37.000Z</time>
      </trkpt>
      <trkpt lat="43.61835" lon="0.80562">
        <ele>224</ele>
        <time>2020-10-03T14:19:38.000Z</time>
      </trkpt>
      <trkpt lat="43.61834" lon="0.80559">
        <ele>224</ele>
        <time>2020-10-03T14:19:39.000Z</time>
      </trkpt>
      <trkpt lat="43.61834" lon="0.80556">
        <ele>224</ele>
        <time>2020-10-03T14:19:40.000Z</time>
      </trkpt>
      <trkpt lat="43.61833" lon="0.80554">
        <ele>224</ele>
        <time>2020-10-03T14:19:41.000Z</time>
      </trkpt>
      <trkpt lat="43.61832" lon="0.80551">
        <ele>224</ele>
        <time>2020-10-03T14:19:42.000Z</time>
      </trkpt>
      <trkpt lat="43.61832" lon="0.80548">
        <ele>224.32710481614</ele>
        <time>2020-10-03T14:19:43.000Z</time>
      </trkpt>
      <trkpt lat="43.61831" lon="0.80546">
        <ele>225</ele>
        <time>2020-10-03T14:19:44.000Z</time>
      </trkpt>
      <trkpt lat="43.61831" lon="0.80543">
        <ele>225</ele>
        <time>2020-10-03T14:19:45.000Z</time>
      </trkpt>
      <trkpt lat="43.6183" lon="0.8054">
        <ele>225.43268923077</ele>
        <time>2020-10-03T14:19:46.000Z</time>
      </trkpt>
      <trkpt lat="43.6183" lon="0.80537">
        <ele>226</ele>
        <time>2020-10-03T14:19:47.000Z</time>
      </trkpt>
      <trkpt lat="43.61829" lon="0.80532">
        <ele>226</ele>
        <time>2020-10-03T14:19:49.000Z</time>
      </trkpt>
      <trkpt lat="43.61828" lon="0.8053">
        <ele>226</ele>
        <time>2020-10-03T14:19:50.000Z</time>
      </trkpt>
      <trkpt lat="43.61828" lon="0.80527">
        <ele>226</ele>
        <time>2020-10-03T14:19:51.000Z</time>
      </trkpt>
      <trkpt lat="43.61827" lon="0.80524">
        <ele>226</ele>
        <time>2020-10-03T14:19:52.000Z</time>
      </trkpt>
      <trkpt lat="43.61826" lon="0.80521">
        <ele>226</ele>
        <time>2020-10-03T14:19:53.000Z</time>
      </trkpt>
      <trkpt lat="43.61826" lon="0.80518">
        <ele>226</ele>
        <time>2020-10-03T14:19:54.000Z</time>
      </trkpt>
      <trkpt lat="43.61825" lon="0.80515">
        <ele>226</ele>
        <time>2020-10-03T14:19:55.000Z</time>
      </trkpt>
      <trkpt lat="43.61825" lon="0.80512">
        <ele>226</ele>
        <time>2020-10-03T14:19:56.000Z</time>
      </trkpt>
      <trkpt lat="43.61824" lon="0.80509">
        <ele>226</ele>
        <time>2020-10-03T14:19:57.000Z</time>
      </trkpt>
      <trkpt lat="43.61823" lon="0.80507">
        <ele>226.34285818776</ele>
        <time>2020-10-03T14:19:58.000Z</time>
      </trkpt>
      <trkpt lat="43.61823" lon="0.80505">
        <ele>227</ele>
        <time>2020-10-03T14:19:59.000Z</time>
      </trkpt>
      <trkpt lat="43.61822" lon="0.80502">
        <ele>227</ele>
        <time>2020-10-03T14:20:00.000Z</time>
      </trkpt>
      <trkpt lat="43.61821" lon="0.80499">
        <ele>227.2073147888</ele>
        <time>2020-10-03T14:20:01.000Z</time>
      </trkpt>
      <trkpt lat="43.61821" lon="0.80496">
        <ele>228</ele>
        <time>2020-10-03T14:20:02.000Z</time>
      </trkpt>
      <trkpt lat="43.6182" lon="0.80494">
        <ele>228</ele>
        <time>2020-10-03T14:20:03.000Z</time>
      </trkpt>
      <trkpt lat="43.6182" lon="0.80491">
        <ele>228</ele>
        <time>2020-10-03T14:20:04.000Z</time>
      </trkpt>
      <trkpt lat="43.61819" lon="0.80487">
        <ele>228</ele>
        <time>2020-10-03T14:20:05.000Z</time>
      </trkpt>
      <trkpt lat="43.61818" lon="0.80484">
        <ele>228</ele>
        <time>2020-10-03T14:20:06.000Z</time>
      </trkpt>
      <trkpt lat="43.61818" lon="0.80481">
        <ele>228</ele>
        <time>2020-10-03T14:20:07.000Z</time>
      </trkpt>
      <trkpt lat="43.61817" lon="0.80478">
        <ele>228.33654153846</ele>
        <time>2020-10-03T14:20:08.000Z</time>
      </trkpt>
      <trkpt lat="43.61817" lon="0.80475">
        <ele>229</ele>
        <time>2020-10-03T14:20:09.000Z</time>
      </trkpt>
      <trkpt lat="43.61816" lon="0.80473">
        <ele>229</ele>
        <time>2020-10-03T14:20:10.000Z</time>
      </trkpt>
      <trkpt lat="43.61815" lon="0.8047">
        <ele>229.41860153599</ele>
        <time>2020-10-03T14:20:11.000Z</time>
      </trkpt>
      <trkpt lat="43.61815" lon="0.80467">
        <ele>230</ele>
        <time>2020-10-03T14:20:12.000Z</time>
      </trkpt>
      <trkpt lat="43.61815" lon="0.80464">
        <ele>230</ele>
        <time>2020-10-03T14:20:13.000Z</time>
      </trkpt>
      <trkpt lat="43.61814" lon="0.80461">
        <ele>230</ele>
        <time>2020-10-03T14:20:14.000Z</time>
      </trkpt>
      <trkpt lat="43.61814" lon="0.80458">
        <ele>230</ele>
        <time>2020-10-03T14:20:15.000Z</time>
      </trkpt>
      <trkpt lat="43.61813" lon="0.80455">
        <ele>230</ele>
        <time>2020-10-03T14:20:16.000Z</time>
      </trkpt>
      <trkpt lat="43.61813" lon="0.80452">
        <ele>230</ele>
        <time>2020-10-03T14:20:17.000Z</time>
      </trkpt>
      <trkpt lat="43.61813" lon="0.80449">
        <ele>230</ele>
        <time>2020-10-03T14:20:18.000Z</time>
      </trkpt>
      <trkpt lat="43.61812" lon="0.80446">
        <ele>230</ele>
        <time>2020-10-03T14:20:19.000Z</time>
      </trkpt>
      <trkpt lat="43.61812" lon="0.80444">
        <ele>230</ele>
        <time>2020-10-03T14:20:20.000Z</time>
      </trkpt>
      <trkpt lat="43.61811" lon="0.8044">
        <ele>230</ele>
        <time>2020-10-03T14:20:21.000Z</time>
      </trkpt>
      <trkpt lat="43.61811" lon="0.80437">
        <ele>230</ele>
        <time>2020-10-03T14:20:22.000Z</time>
      </trkpt>
      <trkpt lat="43.6181" lon="0.80434">
        <ele>230</ele>
        <time>2020-10-03T14:20:23.000Z</time>
      </trkpt>
      <trkpt lat="43.61809" lon="0.80431">
        <ele>230</ele>
        <time>2020-10-03T14:20:24.000Z</time>
      </trkpt>
      <trkpt lat="43.61809" lon="0.80428">
        <ele>230</ele>
        <time>2020-10-03T14:20:25.000Z</time>
      </trkpt>
      <trkpt lat="43.61808" lon="0.80425">
        <ele>230</ele>
        <time>2020-10-03T14:20:26.000Z</time>
      </trkpt>
      <trkpt lat="43.61808" lon="0.80422">
        <ele>230</ele>
        <time>2020-10-03T14:20:27.000Z</time>
      </trkpt>
      <trkpt lat="43.61808" lon="0.8042">
        <ele>230</ele>
        <time>2020-10-03T14:20:28.000Z</time>
      </trkpt>
      <trkpt lat="43.61807" lon="0.80417">
        <ele>230</ele>
        <time>2020-10-03T14:20:29.000Z</time>
      </trkpt>
      <trkpt lat="43.61807" lon="0.80414">
        <ele>230</ele>
        <time>2020-10-03T14:20:30.000Z</time>
      </trkpt>
      <trkpt lat="43.61807" lon="0.80411">
        <ele>230.3120574458</ele>
        <time>2020-10-03T14:20:31.000Z</time>
      </trkpt>
      <trkpt lat="43.61807" lon="0.80408">
        <ele>231</ele>
        <time>2020-10-03T14:20:32.000Z</time>
      </trkpt>
      <trkpt lat="43.61806" lon="0.80405">
        <ele>231</ele>
        <time>2020-10-03T14:20:33.000Z</time>
      </trkpt>
      <trkpt lat="43.61806" lon="0.80402">
        <ele>231</ele>
        <time>2020-10-03T14:20:34.000Z</time>
      </trkpt>
      <trkpt lat="43.61806" lon="0.80398">
        <ele>231</ele>
        <time>2020-10-03T14:20:35.000Z</time>
      </trkpt>
      <trkpt lat="43.61805" lon="0.80395">
        <ele>231</ele>
        <time>2020-10-03T14:20:36.000Z</time>
      </trkpt>
      <trkpt lat="43.61805" lon="0.80391">
        <ele>231</ele>
        <time>2020-10-03T14:20:37.000Z</time>
      </trkpt>
      <trkpt lat="43.61805" lon="0.80388">
        <ele>231</ele>
        <time>2020-10-03T14:20:38.000Z</time>
      </trkpt>
      <trkpt lat="43.61805" lon="0.80385">
        <ele>231</ele>
        <time>2020-10-03T14:20:39.000Z</time>
      </trkpt>
      <trkpt lat="43.61804" lon="0.80382">
        <ele>231</ele>
        <time>2020-10-03T14:20:40.000Z</time>
      </trkpt>
      <trkpt lat="43.61804" lon="0.80379">
        <ele>231</ele>
        <time>2020-10-03T14:20:41.000Z</time>
      </trkpt>
      <trkpt lat="43.61803" lon="0.80376">
        <ele>231.42991123765</ele>
        <time>2020-10-03T14:20:42.000Z</time>
      </trkpt>
      <trkpt lat="43.61803" lon="0.80373">
        <ele>232</ele>
        <time>2020-10-03T14:20:43.000Z</time>
      </trkpt>
      <trkpt lat="43.61802" lon="0.8037">
        <ele>232.75609946459</ele>
        <time>2020-10-03T14:20:44.000Z</time>
      </trkpt>
      <trkpt lat="43.61802" lon="0.80367">
        <ele>234</ele>
        <time>2020-10-03T14:20:45.000Z</time>
      </trkpt>
      <trkpt lat="43.61801" lon="0.80364">
        <ele>234</ele>
        <time>2020-10-03T14:20:46.000Z</time>
      </trkpt>
      <trkpt lat="43.61801" lon="0.80361">
        <ele>234</ele>
        <time>2020-10-03T14:20:47.000Z</time>
      </trkpt>
      <trkpt lat="43.61801" lon="0.80357">
        <ele>234</ele>
        <time>2020-10-03T14:20:48.000Z</time>
      </trkpt>
      <trkpt lat="43.61802" lon="0.80354">
        <ele>234</ele>
        <time>2020-10-03T14:20:49.000Z</time>
      </trkpt>
      <trkpt lat="43.61802" lon="0.8035">
        <ele>233.60630127598</ele>
        <time>2020-10-03T14:20:50.000Z</time>
      </trkpt>
      <trkpt lat="43.61802" lon="0.80347">
        <ele>233</ele>
        <time>2020-10-03T14:20:51.000Z</time>
      </trkpt>
      <trkpt lat="43.61803" lon="0.80344">
        <ele>233</ele>
        <time>2020-10-03T14:20:52.000Z</time>
      </trkpt>
      <trkpt lat="43.61803" lon="0.8034">
        <ele>233.36922895149</ele>
        <time>2020-10-03T14:20:53.000Z</time>
      </trkpt>
      <trkpt lat="43.61803" lon="0.80333">
        <ele>234</ele>
        <time>2020-10-03T14:20:55.000Z</time>
      </trkpt>
      <trkpt lat="43.61804" lon="0.8033">
        <ele>234</ele>
        <time>2020-10-03T14:20:56.000Z</time>
      </trkpt>
      <trkpt lat="43.61805" lon="0.80326">
        <ele>234</ele>
        <time>2020-10-03T14:20:57.000Z</time>
      </trkpt>
      <trkpt lat="43.61805" lon="0.80322">
        <ele>234</ele>
        <time>2020-10-03T14:20:58.000Z</time>
      </trkpt>
      <trkpt lat="43.61806" lon="0.80318">
        <ele>234</ele>
        <time>2020-10-03T14:20:59.000Z</time>
      </trkpt>
      <trkpt lat="43.61806" lon="0.80315">
        <ele>234</ele>
        <time>2020-10-03T14:21:00.000Z</time>
      </trkpt>
      <trkpt lat="43.61807" lon="0.80311">
        <ele>234</ele>
        <time>2020-10-03T14:21:01.000Z</time>
      </trkpt>
      <trkpt lat="43.61808" lon="0.80307">
        <ele>234</ele>
        <time>2020-10-03T14:21:02.000Z</time>
      </trkpt>
      <trkpt lat="43.61808" lon="0.80303">
        <ele>234</ele>
        <time>2020-10-03T14:21:03.000Z</time>
      </trkpt>
      <trkpt lat="43.61809" lon="0.80299">
        <ele>233.6376841168</ele>
        <time>2020-10-03T14:21:04.000Z</time>
      </trkpt>
      <trkpt lat="43.6181" lon="0.80295">
        <ele>233</ele>
        <time>2020-10-03T14:21:05.000Z</time>
      </trkpt>
      <trkpt lat="43.6181" lon="0.80291">
        <ele>233</ele>
        <time>2020-10-03T14:21:06.000Z</time>
      </trkpt>
      <trkpt lat="43.61811" lon="0.80287">
        <ele>233</ele>
        <time>2020-10-03T14:21:07.000Z</time>
      </trkpt>
      <trkpt lat="43.61812" lon="0.80283">
        <ele>233</ele>
        <time>2020-10-03T14:21:08.000Z</time>
      </trkpt>
      <trkpt lat="43.61813" lon="0.8028">
        <ele>233</ele>
        <time>2020-10-03T14:21:09.000Z</time>
      </trkpt>
      <trkpt lat="43.61813" lon="0.80276">
        <ele>232.78205359634</ele>
        <time>2020-10-03T14:21:10.000Z</time>
      </trkpt>
      <trkpt lat="43.61814" lon="0.80272">
        <ele>232</ele>
        <time>2020-10-03T14:21:11.000Z</time>
      </trkpt>
      <trkpt lat="43.61815" lon="0.80269">
        <ele>232</ele>
        <time>2020-10-03T14:21:12.000Z</time>
      </trkpt>
      <trkpt lat="43.61816" lon="0.80265">
        <ele>232</ele>
        <time>2020-10-03T14:21:13.000Z</time>
      </trkpt>
      <trkpt lat="43.61817" lon="0.80262">
        <ele>232</ele>
        <time>2020-10-03T14:21:14.000Z</time>
      </trkpt>
      <trkpt lat="43.61818" lon="0.80258">
        <ele>232</ele>
        <time>2020-10-03T14:21:15.000Z</time>
      </trkpt>
      <trkpt lat="43.61819" lon="0.80255">
        <ele>232</ele>
        <time>2020-10-03T14:21:16.000Z</time>
      </trkpt>
      <trkpt lat="43.61819" lon="0.80252">
        <ele>232</ele>
        <time>2020-10-03T14:21:17.000Z</time>
      </trkpt>
      <trkpt lat="43.6182" lon="0.80249">
        <ele>232</ele>
        <time>2020-10-03T14:21:18.000Z</time>
      </trkpt>
      <trkpt lat="43.61821" lon="0.80246">
        <ele>232</ele>
        <time>2020-10-03T14:21:19.000Z</time>
      </trkpt>
      <trkpt lat="43.61822" lon="0.80242">
        <ele>232</ele>
        <time>2020-10-03T14:21:20.000Z</time>
      </trkpt>
      <trkpt lat="43.61823" lon="0.80239">
        <ele>232</ele>
        <time>2020-10-03T14:21:21.000Z</time>
      </trkpt>
      <trkpt lat="43.61823" lon="0.80235">
        <ele>232</ele>
        <time>2020-10-03T14:21:22.000Z</time>
      </trkpt>
      <trkpt lat="43.61824" lon="0.80232">
        <ele>232</ele>
        <time>2020-10-03T14:21:23.000Z</time>
      </trkpt>
      <trkpt lat="43.61825" lon="0.80229">
        <ele>232</ele>
        <time>2020-10-03T14:21:24.000Z</time>
      </trkpt>
      <trkpt lat="43.61826" lon="0.80225">
        <ele>232</ele>
        <time>2020-10-03T14:21:25.000Z</time>
      </trkpt>
      <trkpt lat="43.61827" lon="0.80222">
        <ele>232</ele>
        <time>2020-10-03T14:21:26.000Z</time>
      </trkpt>
      <trkpt lat="43.61828" lon="0.80219">
        <ele>232</ele>
        <time>2020-10-03T14:21:27.000Z</time>
      </trkpt>
      <trkpt lat="43.61829" lon="0.80215">
        <ele>231.67521087007</ele>
        <time>2020-10-03T14:21:28.000Z</time>
      </trkpt>
      <trkpt lat="43.6183" lon="0.80212">
        <ele>231</ele>
        <time>2020-10-03T14:21:29.000Z</time>
      </trkpt>
      <trkpt lat="43.61831" lon="0.80208">
        <ele>231</ele>
        <time>2020-10-03T14:21:30.000Z</time>
      </trkpt>
      <trkpt lat="43.61832" lon="0.80205">
        <ele>231</ele>
        <time>2020-10-03T14:21:31.000Z</time>
      </trkpt>
      <trkpt lat="43.61833" lon="0.80201">
        <ele>231.34091636364</ele>
        <time>2020-10-03T14:21:32.000Z</time>
      </trkpt>
      <trkpt lat="43.61833" lon="0.80197">
        <ele>232</ele>
        <time>2020-10-03T14:21:33.000Z</time>
      </trkpt>
      <trkpt lat="43.61834" lon="0.80194">
        <ele>232</ele>
        <time>2020-10-03T14:21:34.000Z</time>
      </trkpt>
      <trkpt lat="43.61835" lon="0.8019">
        <ele>232</ele>
        <time>2020-10-03T14:21:35.000Z</time>
      </trkpt>
      <trkpt lat="43.61836" lon="0.80186">
        <ele>232</ele>
        <time>2020-10-03T14:21:36.000Z</time>
      </trkpt>
      <trkpt lat="43.61836" lon="0.80182">
        <ele>232</ele>
        <time>2020-10-03T14:21:37.000Z</time>
      </trkpt>
      <trkpt lat="43.61837" lon="0.80179">
        <ele>231.57843088043</ele>
        <time>2020-10-03T14:21:38.000Z</time>
      </trkpt>
      <trkpt lat="43.61838" lon="0.80175">
        <ele>231</ele>
        <time>2020-10-03T14:21:39.000Z</time>
      </trkpt>
      <trkpt lat="43.61838" lon="0.80172">
        <ele>231</ele>
        <time>2020-10-03T14:21:40.000Z</time>
      </trkpt>
      <trkpt lat="43.61839" lon="0.80168">
        <ele>231</ele>
        <time>2020-10-03T14:21:41.000Z</time>
      </trkpt>
      <trkpt lat="43.61839" lon="0.80165">
        <ele>231</ele>
        <time>2020-10-03T14:21:42.000Z</time>
      </trkpt>
      <trkpt lat="43.6184" lon="0.80161">
        <ele>231</ele>
        <time>2020-10-03T14:21:43.000Z</time>
      </trkpt>
      <trkpt lat="43.61841" lon="0.80157">
        <ele>230.62499692308</ele>
        <time>2020-10-03T14:21:44.000Z</time>
      </trkpt>
      <trkpt lat="43.61841" lon="0.80154">
        <ele>230</ele>
        <time>2020-10-03T14:21:45.000Z</time>
      </trkpt>
      <trkpt lat="43.61842" lon="0.8015">
        <ele>230</ele>
        <time>2020-10-03T14:21:46.000Z</time>
      </trkpt>
      <trkpt lat="43.61843" lon="0.80147">
        <ele>230</ele>
        <time>2020-10-03T14:21:47.000Z</time>
      </trkpt>
      <trkpt lat="43.61844" lon="0.80143">
        <ele>230</ele>
        <time>2020-10-03T14:21:48.000Z</time>
      </trkpt>
      <trkpt lat="43.61844" lon="0.80139">
        <ele>230</ele>
        <time>2020-10-03T14:21:49.000Z</time>
      </trkpt>
      <trkpt lat="43.61845" lon="0.80135">
        <ele>230</ele>
        <time>2020-10-03T14:21:50.000Z</time>
      </trkpt>
      <trkpt lat="43.61846" lon="0.80132">
        <ele>229.09614769231</ele>
        <time>2020-10-03T14:21:51.000Z</time>
      </trkpt>
      <trkpt lat="43.61847" lon="0.80128">
        <ele>228</ele>
        <time>2020-10-03T14:21:52.000Z</time>
      </trkpt>
      <trkpt lat="43.61848" lon="0.80124">
        <ele>227.66667157086</ele>
        <time>2020-10-03T14:21:53.000Z</time>
      </trkpt>
      <trkpt lat="43.61849" lon="0.8012">
        <ele>227</ele>
        <time>2020-10-03T14:21:54.000Z</time>
      </trkpt>
      <trkpt lat="43.6185" lon="0.80116">
        <ele>227</ele>
        <time>2020-10-03T14:21:55.000Z</time>
      </trkpt>
      <trkpt lat="43.61851" lon="0.80113">
        <ele>226.58416343497</ele>
        <time>2020-10-03T14:21:56.000Z</time>
      </trkpt>
      <trkpt lat="43.61851" lon="0.80109">
        <ele>226</ele>
        <time>2020-10-03T14:21:57.000Z</time>
      </trkpt>
      <trkpt lat="43.61852" lon="0.80105">
        <ele>226</ele>
        <time>2020-10-03T14:21:58.000Z</time>
      </trkpt>
      <trkpt lat="43.61853" lon="0.80101">
        <ele>226</ele>
        <time>2020-10-03T14:21:59.000Z</time>
      </trkpt>
      <trkpt lat="43.61854" lon="0.80097">
        <ele>226</ele>
        <time>2020-10-03T14:22:00.000Z</time>
      </trkpt>
      <trkpt lat="43.61854" lon="0.80093">
        <ele>226</ele>
        <time>2020-10-03T14:22:01.000Z</time>
      </trkpt>
      <trkpt lat="43.61855" lon="0.80089">
        <ele>226</ele>
        <time>2020-10-03T14:22:02.000Z</time>
      </trkpt>
      <trkpt lat="43.61856" lon="0.80086">
        <ele>226</ele>
        <time>2020-10-03T14:22:03.000Z</time>
      </trkpt>
      <trkpt lat="43.61857" lon="0.80082">
        <ele>226</ele>
        <time>2020-10-03T14:22:04.000Z</time>
      </trkpt>
      <trkpt lat="43.61857" lon="0.80078">
        <ele>226</ele>
        <time>2020-10-03T14:22:05.000Z</time>
      </trkpt>
      <trkpt lat="43.61858" lon="0.80074">
        <ele>226</ele>
        <time>2020-10-03T14:22:06.000Z</time>
      </trkpt>
      <trkpt lat="43.61859" lon="0.80071">
        <ele>226</ele>
        <time>2020-10-03T14:22:07.000Z</time>
      </trkpt>
      <trkpt lat="43.6186" lon="0.80067">
        <ele>226</ele>
        <time>2020-10-03T14:22:08.000Z</time>
      </trkpt>
      <trkpt lat="43.61861" lon="0.80064">
        <ele>225.52632075345</ele>
        <time>2020-10-03T14:22:09.000Z</time>
      </trkpt>
      <trkpt lat="43.61862" lon="0.8006">
        <ele>225</ele>
        <time>2020-10-03T14:22:10.000Z</time>
      </trkpt>
      <trkpt lat="43.61863" lon="0.80056">
        <ele>225</ele>
        <time>2020-10-03T14:22:11.000Z</time>
      </trkpt>
      <trkpt lat="43.61863" lon="0.80053">
        <ele>225</ele>
        <time>2020-10-03T14:22:12.000Z</time>
      </trkpt>
      <trkpt lat="43.61864" lon="0.80049">
        <ele>225</ele>
        <time>2020-10-03T14:22:13.000Z</time>
      </trkpt>
      <trkpt lat="43.61865" lon="0.80046">
        <ele>225</ele>
        <time>2020-10-03T14:22:14.000Z</time>
      </trkpt>
      <trkpt lat="43.61866" lon="0.80043">
        <ele>224.55555871603</ele>
        <time>2020-10-03T14:22:15.000Z</time>
      </trkpt>
      <trkpt lat="43.61867" lon="0.80039">
        <ele>224</ele>
        <time>2020-10-03T14:22:16.000Z</time>
      </trkpt>
      <trkpt lat="43.61867" lon="0.80035">
        <ele>224</ele>
        <time>2020-10-03T14:22:17.000Z</time>
      </trkpt>
      <trkpt lat="43.61868" lon="0.80031">
        <ele>224</ele>
        <time>2020-10-03T14:22:18.000Z</time>
      </trkpt>
      <trkpt lat="43.61869" lon="0.80027">
        <ele>224</ele>
        <time>2020-10-03T14:22:19.000Z</time>
      </trkpt>
      <trkpt lat="43.6187" lon="0.80023">
        <ele>224</ele>
        <time>2020-10-03T14:22:20.000Z</time>
      </trkpt>
      <trkpt lat="43.61871" lon="0.80019">
        <ele>224</ele>
        <time>2020-10-03T14:22:21.000Z</time>
      </trkpt>
      <trkpt lat="43.61871" lon="0.80016">
        <ele>223.26212578757</ele>
        <time>2020-10-03T14:22:22.000Z</time>
      </trkpt>
      <trkpt lat="43.61872" lon="0.80012">
        <ele>222</ele>
        <time>2020-10-03T14:22:23.000Z</time>
      </trkpt>
      <trkpt lat="43.61873" lon="0.80008">
        <ele>222</ele>
        <time>2020-10-03T14:22:24.000Z</time>
      </trkpt>
      <trkpt lat="43.61874" lon="0.80004">
        <ele>221.66101511059</ele>
        <time>2020-10-03T14:22:25.000Z</time>
      </trkpt>
      <trkpt lat="43.61874" lon="0.8">
        <ele>221</ele>
        <time>2020-10-03T14:22:26.000Z</time>
      </trkpt>
      <trkpt lat="43.61875" lon="0.79996">
        <ele>221</ele>
        <time>2020-10-03T14:22:27.000Z</time>
      </trkpt>
      <trkpt lat="43.61876" lon="0.79993">
        <ele>221.41414219774</ele>
        <time>2020-10-03T14:22:28.000Z</time>
      </trkpt>
      <trkpt lat="43.61877" lon="0.79989">
        <ele>222</ele>
        <time>2020-10-03T14:22:29.000Z</time>
      </trkpt>
      <trkpt lat="43.61878" lon="0.79985">
        <ele>222</ele>
        <time>2020-10-03T14:22:30.000Z</time>
      </trkpt>
      <trkpt lat="43.61879" lon="0.79981">
        <ele>222</ele>
        <time>2020-10-03T14:22:31.000Z</time>
      </trkpt>
      <trkpt lat="43.6188" lon="0.79978">
        <ele>222</ele>
        <time>2020-10-03T14:22:32.000Z</time>
      </trkpt>
      <trkpt lat="43.61881" lon="0.79974">
        <ele>222</ele>
        <time>2020-10-03T14:22:33.000Z</time>
      </trkpt>
      <trkpt lat="43.61882" lon="0.7997">
        <ele>222</ele>
        <time>2020-10-03T14:22:34.000Z</time>
      </trkpt>
      <trkpt lat="43.61883" lon="0.79966">
        <ele>222</ele>
        <time>2020-10-03T14:22:35.000Z</time>
      </trkpt>
      <trkpt lat="43.61884" lon="0.79963">
        <ele>222</ele>
        <time>2020-10-03T14:22:36.000Z</time>
      </trkpt>
      <trkpt lat="43.61884" lon="0.79959">
        <ele>222</ele>
        <time>2020-10-03T14:22:37.000Z</time>
      </trkpt>
      <trkpt lat="43.61885" lon="0.79955">
        <ele>221.55555555556</ele>
        <time>2020-10-03T14:22:38.000Z</time>
      </trkpt>
      <trkpt lat="43.61887" lon="0.79951">
        <ele>221</ele>
        <time>2020-10-03T14:22:39.000Z</time>
      </trkpt>
      <trkpt lat="43.61888" lon="0.79948">
        <ele>220.55856271405</ele>
        <time>2020-10-03T14:22:40.000Z</time>
      </trkpt>
      <trkpt lat="43.61889" lon="0.79944">
        <ele>220</ele>
        <time>2020-10-03T14:22:41.000Z</time>
      </trkpt>
      <trkpt lat="43.6189" lon="0.7994">
        <ele>220</ele>
        <time>2020-10-03T14:22:42.000Z</time>
      </trkpt>
      <trkpt lat="43.61891" lon="0.79937">
        <ele>220</ele>
        <time>2020-10-03T14:22:43.000Z</time>
      </trkpt>
      <trkpt lat="43.61891" lon="0.79933">
        <ele>220</ele>
        <time>2020-10-03T14:22:44.000Z</time>
      </trkpt>
      <trkpt lat="43.61892" lon="0.7993">
        <ele>220</ele>
        <time>2020-10-03T14:22:45.000Z</time>
      </trkpt>
      <trkpt lat="43.61894" lon="0.79927">
        <ele>220</ele>
        <time>2020-10-03T14:22:46.000Z</time>
      </trkpt>
      <trkpt lat="43.61895" lon="0.79923">
        <ele>220</ele>
        <time>2020-10-03T14:22:47.000Z</time>
      </trkpt>
      <trkpt lat="43.61896" lon="0.7992">
        <ele>220</ele>
        <time>2020-10-03T14:22:48.000Z</time>
      </trkpt>
      <trkpt lat="43.61897" lon="0.79916">
        <ele>220</ele>
        <time>2020-10-03T14:22:49.000Z</time>
      </trkpt>
      <trkpt lat="43.61897" lon="0.79912">
        <ele>220</ele>
        <time>2020-10-03T14:22:50.000Z</time>
      </trkpt>
      <trkpt lat="43.61898" lon="0.79908">
        <ele>220</ele>
        <time>2020-10-03T14:22:51.000Z</time>
      </trkpt>
      <trkpt lat="43.61899" lon="0.79904">
        <ele>220</ele>
        <time>2020-10-03T14:22:52.000Z</time>
      </trkpt>
      <trkpt lat="43.619" lon="0.79901">
        <ele>220</ele>
        <time>2020-10-03T14:22:53.000Z</time>
      </trkpt>
      <trkpt lat="43.61901" lon="0.79897">
        <ele>220</ele>
        <time>2020-10-03T14:22:54.000Z</time>
      </trkpt>
      <trkpt lat="43.61902" lon="0.79893">
        <ele>220</ele>
        <time>2020-10-03T14:22:55.000Z</time>
      </trkpt>
      <trkpt lat="43.61903" lon="0.79889">
        <ele>220</ele>
        <time>2020-10-03T14:22:56.000Z</time>
      </trkpt>
      <trkpt lat="43.61904" lon="0.79885">
        <ele>220</ele>
        <time>2020-10-03T14:22:57.000Z</time>
      </trkpt>
      <trkpt lat="43.61905" lon="0.79882">
        <ele>220</ele>
        <time>2020-10-03T14:22:58.000Z</time>
      </trkpt>
      <trkpt lat="43.61905" lon="0.79878">
        <ele>219.625008</ele>
        <time>2020-10-03T14:22:59.000Z</time>
      </trkpt>
      <trkpt lat="43.61906" lon="0.79874">
        <ele>219</ele>
        <time>2020-10-03T14:23:00.000Z</time>
      </trkpt>
      <trkpt lat="43.61907" lon="0.79871">
        <ele>219</ele>
        <time>2020-10-03T14:23:01.000Z</time>
      </trkpt>
      <trkpt lat="43.61908" lon="0.79867">
        <ele>219</ele>
        <time>2020-10-03T14:23:02.000Z</time>
      </trkpt>
      <trkpt lat="43.61909" lon="0.79863">
        <ele>219</ele>
        <time>2020-10-03T14:23:03.000Z</time>
      </trkpt>
      <trkpt lat="43.6191" lon="0.79859">
        <ele>219</ele>
        <time>2020-10-03T14:23:04.000Z</time>
      </trkpt>
      <trkpt lat="43.61911" lon="0.79855">
        <ele>219</ele>
        <time>2020-10-03T14:23:05.000Z</time>
      </trkpt>
      <trkpt lat="43.61912" lon="0.79852">
        <ele>219</ele>
        <time>2020-10-03T14:23:06.000Z</time>
      </trkpt>
      <trkpt lat="43.61913" lon="0.79848">
        <ele>219</ele>
        <time>2020-10-03T14:23:07.000Z</time>
      </trkpt>
      <trkpt lat="43.61913" lon="0.79845">
        <ele>219</ele>
        <time>2020-10-03T14:23:08.000Z</time>
      </trkpt>
      <trkpt lat="43.61914" lon="0.79841">
        <ele>219</ele>
        <time>2020-10-03T14:23:09.000Z</time>
      </trkpt>
      <trkpt lat="43.61915" lon="0.79838">
        <ele>219</ele>
        <time>2020-10-03T14:23:10.000Z</time>
      </trkpt>
      <trkpt lat="43.61916" lon="0.79834">
        <ele>219</ele>
        <time>2020-10-03T14:23:11.000Z</time>
      </trkpt>
      <trkpt lat="43.61917" lon="0.7983">
        <ele>219</ele>
        <time>2020-10-03T14:23:12.000Z</time>
      </trkpt>
      <trkpt lat="43.61917" lon="0.79827">
        <ele>219.41666666667</ele>
        <time>2020-10-03T14:23:13.000Z</time>
      </trkpt>
      <trkpt lat="43.61918" lon="0.79823">
        <ele>220</ele>
        <time>2020-10-03T14:23:14.000Z</time>
      </trkpt>
      <trkpt lat="43.61919" lon="0.7982">
        <ele>220</ele>
        <time>2020-10-03T14:23:15.000Z</time>
      </trkpt>
      <trkpt lat="43.6192" lon="0.79816">
        <ele>220</ele>
        <time>2020-10-03T14:23:16.000Z</time>
      </trkpt>
      <trkpt lat="43.61921" lon="0.79813">
        <ele>220</ele>
        <time>2020-10-03T14:23:17.000Z</time>
      </trkpt>
      <trkpt lat="43.61922" lon="0.7981">
        <ele>220</ele>
        <time>2020-10-03T14:23:18.000Z</time>
      </trkpt>
      <trkpt lat="43.61923" lon="0.79806">
        <ele>220</ele>
        <time>2020-10-03T14:23:19.000Z</time>
      </trkpt>
      <trkpt lat="43.61924" lon="0.79803">
        <ele>219.60526374885</ele>
        <time>2020-10-03T14:23:20.000Z</time>
      </trkpt>
      <trkpt lat="43.61925" lon="0.798">
        <ele>219</ele>
        <time>2020-10-03T14:23:21.000Z</time>
      </trkpt>
      <trkpt lat="43.61926" lon="0.79796">
        <ele>219</ele>
        <time>2020-10-03T14:23:22.000Z</time>
      </trkpt>
      <trkpt lat="43.61927" lon="0.79793">
        <ele>219</ele>
        <time>2020-10-03T14:23:23.000Z</time>
      </trkpt>
      <trkpt lat="43.61928" lon="0.7979">
        <ele>219</ele>
        <time>2020-10-03T14:23:24.000Z</time>
      </trkpt>
      <trkpt lat="43.61929" lon="0.79786">
        <ele>219</ele>
        <time>2020-10-03T14:23:25.000Z</time>
      </trkpt>
      <trkpt lat="43.6193" lon="0.79783">
        <ele>219</ele>
        <time>2020-10-03T14:23:26.000Z</time>
      </trkpt>
      <trkpt lat="43.61931" lon="0.7978">
        <ele>219</ele>
        <time>2020-10-03T14:23:27.000Z</time>
      </trkpt>
      <trkpt lat="43.61932" lon="0.79777">
        <ele>219</ele>
        <time>2020-10-03T14:23:28.000Z</time>
      </trkpt>
      <trkpt lat="43.61933" lon="0.79773">
        <ele>219</ele>
        <time>2020-10-03T14:23:29.000Z</time>
      </trkpt>
      <trkpt lat="43.61934" lon="0.7977">
        <ele>219</ele>
        <time>2020-10-03T14:23:30.000Z</time>
      </trkpt>
      <trkpt lat="43.61935" lon="0.79767">
        <ele>219</ele>
        <time>2020-10-03T14:23:31.000Z</time>
      </trkpt>
      <trkpt lat="43.61936" lon="0.79763">
        <ele>219</ele>
        <time>2020-10-03T14:23:32.000Z</time>
      </trkpt>
      <trkpt lat="43.61937" lon="0.7976">
        <ele>219</ele>
        <time>2020-10-03T14:23:33.000Z</time>
      </trkpt>
      <trkpt lat="43.61938" lon="0.79757">
        <ele>219</ele>
        <time>2020-10-03T14:23:34.000Z</time>
      </trkpt>
      <trkpt lat="43.61939" lon="0.79753">
        <ele>219</ele>
        <time>2020-10-03T14:23:35.000Z</time>
      </trkpt>
      <trkpt lat="43.6194" lon="0.7975">
        <ele>219</ele>
        <time>2020-10-03T14:23:36.000Z</time>
      </trkpt>
      <trkpt lat="43.61941" lon="0.79747">
        <ele>219</ele>
        <time>2020-10-03T14:23:37.000Z</time>
      </trkpt>
      <trkpt lat="43.61942" lon="0.79744">
        <ele>219</ele>
        <time>2020-10-03T14:23:38.000Z</time>
      </trkpt>
      <trkpt lat="43.61943" lon="0.7974">
        <ele>219</ele>
        <time>2020-10-03T14:23:39.000Z</time>
      </trkpt>
      <trkpt lat="43.61944" lon="0.79737">
        <ele>219</ele>
        <time>2020-10-03T14:23:40.000Z</time>
      </trkpt>
      <trkpt lat="43.61945" lon="0.79733">
        <ele>219</ele>
        <time>2020-10-03T14:23:41.000Z</time>
      </trkpt>
      <trkpt lat="43.61946" lon="0.79729">
        <ele>219</ele>
        <time>2020-10-03T14:23:42.000Z</time>
      </trkpt>
      <trkpt lat="43.61947" lon="0.79726">
        <ele>219</ele>
        <time>2020-10-03T14:23:43.000Z</time>
      </trkpt>
      <trkpt lat="43.61947" lon="0.79722">
        <ele>219.43955889386</ele>
        <time>2020-10-03T14:23:44.000Z</time>
      </trkpt>
      <trkpt lat="43.61948" lon="0.79719">
        <ele>220</ele>
        <time>2020-10-03T14:23:45.000Z</time>
      </trkpt>
      <trkpt lat="43.61949" lon="0.79716">
        <ele>220</ele>
        <time>2020-10-03T14:23:46.000Z</time>
      </trkpt>
      <trkpt lat="43.6195" lon="0.79712">
        <ele>220</ele>
        <time>2020-10-03T14:23:47.000Z</time>
      </trkpt>
      <trkpt lat="43.61952" lon="0.79709">
        <ele>220</ele>
        <time>2020-10-03T14:23:48.000Z</time>
      </trkpt>
      <trkpt lat="43.61953" lon="0.79705">
        <ele>220</ele>
        <time>2020-10-03T14:23:49.000Z</time>
      </trkpt>
      <trkpt lat="43.61954" lon="0.79702">
        <ele>220</ele>
        <time>2020-10-03T14:23:50.000Z</time>
      </trkpt>
      <trkpt lat="43.61955" lon="0.79699">
        <ele>220</ele>
        <time>2020-10-03T14:23:51.000Z</time>
      </trkpt>
      <trkpt lat="43.61956" lon="0.79696">
        <ele>220</ele>
        <time>2020-10-03T14:23:52.000Z</time>
      </trkpt>
      <trkpt lat="43.61958" lon="0.79693">
        <ele>220</ele>
        <time>2020-10-03T14:23:53.000Z</time>
      </trkpt>
      <trkpt lat="43.61958" lon="0.79689">
        <ele>220</ele>
        <time>2020-10-03T14:23:54.000Z</time>
      </trkpt>
      <trkpt lat="43.61959" lon="0.79686">
        <ele>220</ele>
        <time>2020-10-03T14:23:55.000Z</time>
      </trkpt>
      <trkpt lat="43.6196" lon="0.79682">
        <ele>220</ele>
        <time>2020-10-03T14:23:56.000Z</time>
      </trkpt>
      <trkpt lat="43.61961" lon="0.79679">
        <ele>220</ele>
        <time>2020-10-03T14:23:57.000Z</time>
      </trkpt>
      <trkpt lat="43.61962" lon="0.79676">
        <ele>220</ele>
        <time>2020-10-03T14:23:58.000Z</time>
      </trkpt>
      <trkpt lat="43.61963" lon="0.79672">
        <ele>220</ele>
        <time>2020-10-03T14:23:59.000Z</time>
      </trkpt>
      <trkpt lat="43.61964" lon="0.79669">
        <ele>220</ele>
        <time>2020-10-03T14:24:00.000Z</time>
      </trkpt>
      <trkpt lat="43.61965" lon="0.79665">
        <ele>220</ele>
        <time>2020-10-03T14:24:01.000Z</time>
      </trkpt>
      <trkpt lat="43.61966" lon="0.79662">
        <ele>220</ele>
        <time>2020-10-03T14:24:02.000Z</time>
      </trkpt>
      <trkpt lat="43.61967" lon="0.79658">
        <ele>220</ele>
        <time>2020-10-03T14:24:03.000Z</time>
      </trkpt>
      <trkpt lat="43.61967" lon="0.79655">
        <ele>219.12727780493</ele>
        <time>2020-10-03T14:24:04.000Z</time>
      </trkpt>
      <trkpt lat="43.61968" lon="0.79652">
        <ele>218</ele>
        <time>2020-10-03T14:24:05.000Z</time>
      </trkpt>
      <trkpt lat="43.61969" lon="0.79648">
        <ele>218</ele>
        <time>2020-10-03T14:24:06.000Z</time>
      </trkpt>
      <trkpt lat="43.6197" lon="0.79645">
        <ele>218</ele>
        <time>2020-10-03T14:24:07.000Z</time>
      </trkpt>
      <trkpt lat="43.6197" lon="0.79642">
        <ele>218</ele>
        <time>2020-10-03T14:24:08.000Z</time>
      </trkpt>
      <trkpt lat="43.61971" lon="0.79638">
        <ele>218</ele>
        <time>2020-10-03T14:24:09.000Z</time>
      </trkpt>
      <trkpt lat="43.61971" lon="0.79634">
        <ele>218</ele>
        <time>2020-10-03T14:24:10.000Z</time>
      </trkpt>
      <trkpt lat="43.61972" lon="0.7963">
        <ele>218</ele>
        <time>2020-10-03T14:24:11.000Z</time>
      </trkpt>
      <trkpt lat="43.61972" lon="0.79626">
        <ele>218</ele>
        <time>2020-10-03T14:24:12.000Z</time>
      </trkpt>
      <trkpt lat="43.61973" lon="0.79622">
        <ele>218</ele>
        <time>2020-10-03T14:24:13.000Z</time>
      </trkpt>
      <trkpt lat="43.61973" lon="0.79618">
        <ele>218</ele>
        <time>2020-10-03T14:24:14.000Z</time>
      </trkpt>
      <trkpt lat="43.61973" lon="0.79614">
        <ele>218</ele>
        <time>2020-10-03T14:24:15.000Z</time>
      </trkpt>
      <trkpt lat="43.61974" lon="0.79611">
        <ele>218</ele>
        <time>2020-10-03T14:24:16.000Z</time>
      </trkpt>
      <trkpt lat="43.61974" lon="0.79607">
        <ele>218</ele>
        <time>2020-10-03T14:24:17.000Z</time>
      </trkpt>
      <trkpt lat="43.61974" lon="0.79604">
        <ele>217.6761955846</ele>
        <time>2020-10-03T14:24:18.000Z</time>
      </trkpt>
      <trkpt lat="43.61975" lon="0.796">
        <ele>217</ele>
        <time>2020-10-03T14:24:19.000Z</time>
      </trkpt>
      <trkpt lat="43.61975" lon="0.79596">
        <ele>217</ele>
        <time>2020-10-03T14:24:20.000Z</time>
      </trkpt>
      <trkpt lat="43.61975" lon="0.79593">
        <ele>217</ele>
        <time>2020-10-03T14:24:21.000Z</time>
      </trkpt>
      <trkpt lat="43.61976" lon="0.79589">
        <ele>216.56122408997</ele>
        <time>2020-10-03T14:24:22.000Z</time>
      </trkpt>
      <trkpt lat="43.61976" lon="0.79585">
        <ele>216</ele>
        <time>2020-10-03T14:24:23.000Z</time>
      </trkpt>
      <trkpt lat="43.61976" lon="0.79582">
        <ele>216</ele>
        <time>2020-10-03T14:24:24.000Z</time>
      </trkpt>
      <trkpt lat="43.61977" lon="0.79578">
        <ele>215.60937</ele>
        <time>2020-10-03T14:24:25.000Z</time>
      </trkpt>
      <trkpt lat="43.61977" lon="0.79574">
        <ele>215</ele>
        <time>2020-10-03T14:24:26.000Z</time>
      </trkpt>
      <trkpt lat="43.61977" lon="0.79571">
        <ele>215</ele>
        <time>2020-10-03T14:24:27.000Z</time>
      </trkpt>
      <trkpt lat="43.61978" lon="0.79567">
        <ele>215</ele>
        <time>2020-10-03T14:24:28.000Z</time>
      </trkpt>
      <trkpt lat="43.61978" lon="0.79563">
        <ele>215</ele>
        <time>2020-10-03T14:24:29.000Z</time>
      </trkpt>
      <trkpt lat="43.61978" lon="0.79559">
        <ele>215</ele>
        <time>2020-10-03T14:24:30.000Z</time>
      </trkpt>
      <trkpt lat="43.61979" lon="0.79555">
        <ele>215</ele>
        <time>2020-10-03T14:24:31.000Z</time>
      </trkpt>
      <trkpt lat="43.61979" lon="0.79551">
        <ele>215</ele>
        <time>2020-10-03T14:24:32.000Z</time>
      </trkpt>
      <trkpt lat="43.61979" lon="0.79547">
        <ele>215</ele>
        <time>2020-10-03T14:24:33.000Z</time>
      </trkpt>
      <trkpt lat="43.61979" lon="0.79543">
        <ele>215</ele>
        <time>2020-10-03T14:24:34.000Z</time>
      </trkpt>
      <trkpt lat="43.61979" lon="0.79539">
        <ele>214.59632909014</ele>
        <time>2020-10-03T14:24:35.000Z</time>
      </trkpt>
      <trkpt lat="43.61979" lon="0.79535">
        <ele>214</ele>
        <time>2020-10-03T14:24:36.000Z</time>
      </trkpt>
      <trkpt lat="43.61979" lon="0.79531">
        <ele>214</ele>
        <time>2020-10-03T14:24:37.000Z</time>
      </trkpt>
      <trkpt lat="43.61979" lon="0.79527">
        <ele>214</ele>
        <time>2020-10-03T14:24:38.000Z</time>
      </trkpt>
      <trkpt lat="43.61979" lon="0.79523">
        <ele>214</ele>
        <time>2020-10-03T14:24:39.000Z</time>
      </trkpt>
      <trkpt lat="43.61979" lon="0.79519">
        <ele>214</ele>
        <time>2020-10-03T14:24:40.000Z</time>
      </trkpt>
      <trkpt lat="43.61979" lon="0.79515">
        <ele>214</ele>
        <time>2020-10-03T14:24:41.000Z</time>
      </trkpt>
      <trkpt lat="43.61979" lon="0.79511">
        <ele>214</ele>
        <time>2020-10-03T14:24:42.000Z</time>
      </trkpt>
      <trkpt lat="43.61979" lon="0.79507">
        <ele>213.63234823529</ele>
        <time>2020-10-03T14:24:43.000Z</time>
      </trkpt>
      <trkpt lat="43.61978" lon="0.79504">
        <ele>213</ele>
        <time>2020-10-03T14:24:44.000Z</time>
      </trkpt>
      <trkpt lat="43.61978" lon="0.795">
        <ele>213</ele>
        <time>2020-10-03T14:24:45.000Z</time>
      </trkpt>
      <trkpt lat="43.61977" lon="0.79495">
        <ele>212.62650360866</ele>
        <time>2020-10-03T14:24:46.000Z</time>
      </trkpt>
      <trkpt lat="43.61977" lon="0.79491">
        <ele>212</ele>
        <time>2020-10-03T14:24:47.000Z</time>
      </trkpt>
      <trkpt lat="43.61976" lon="0.79486">
        <ele>212</ele>
        <time>2020-10-03T14:24:48.000Z</time>
      </trkpt>
      <trkpt lat="43.61976" lon="0.79482">
        <ele>212</ele>
        <time>2020-10-03T14:24:49.000Z</time>
      </trkpt>
      <trkpt lat="43.61975" lon="0.79478">
        <ele>212</ele>
        <time>2020-10-03T14:24:50.000Z</time>
      </trkpt>
      <trkpt lat="43.61974" lon="0.79474">
        <ele>212</ele>
        <time>2020-10-03T14:24:51.000Z</time>
      </trkpt>
      <trkpt lat="43.61974" lon="0.7947">
        <ele>211.54128892855</ele>
        <time>2020-10-03T14:24:52.000Z</time>
      </trkpt>
      <trkpt lat="43.61973" lon="0.79466">
        <ele>211</ele>
        <time>2020-10-03T14:24:53.000Z</time>
      </trkpt>
      <trkpt lat="43.61973" lon="0.79462">
        <ele>211</ele>
        <time>2020-10-03T14:24:54.000Z</time>
      </trkpt>
      <trkpt lat="43.61972" lon="0.79458">
        <ele>210.67924118194</ele>
        <time>2020-10-03T14:24:55.000Z</time>
      </trkpt>
      <trkpt lat="43.61972" lon="0.79454">
        <ele>210</ele>
        <time>2020-10-03T14:24:56.000Z</time>
      </trkpt>
      <trkpt lat="43.61971" lon="0.7945">
        <ele>210</ele>
        <time>2020-10-03T14:24:57.000Z</time>
      </trkpt>
      <trkpt lat="43.6197" lon="0.79446">
        <ele>210</ele>
        <time>2020-10-03T14:24:58.000Z</time>
      </trkpt>
      <trkpt lat="43.6197" lon="0.79442">
        <ele>210</ele>
        <time>2020-10-03T14:24:59.000Z</time>
      </trkpt>
      <trkpt lat="43.61969" lon="0.79438">
        <ele>210</ele>
        <time>2020-10-03T14:25:00.000Z</time>
      </trkpt>
      <trkpt lat="43.61968" lon="0.79434">
        <ele>210</ele>
        <time>2020-10-03T14:25:01.000Z</time>
      </trkpt>
      <trkpt lat="43.61967" lon="0.79431">
        <ele>209.69607720108</ele>
        <time>2020-10-03T14:25:02.000Z</time>
      </trkpt>
      <trkpt lat="43.61966" lon="0.79427">
        <ele>209</ele>
        <time>2020-10-03T14:25:03.000Z</time>
      </trkpt>
      <trkpt lat="43.61965" lon="0.79423">
        <ele>208.6181854149</ele>
        <time>2020-10-03T14:25:04.000Z</time>
      </trkpt>
      <trkpt lat="43.61964" lon="0.7942">
        <ele>208</ele>
        <time>2020-10-03T14:25:05.000Z</time>
      </trkpt>
      <trkpt lat="43.61964" lon="0.79416">
        <ele>208</ele>
        <time>2020-10-03T14:25:06.000Z</time>
      </trkpt>
      <trkpt lat="43.61963" lon="0.79412">
        <ele>208</ele>
        <time>2020-10-03T14:25:07.000Z</time>
      </trkpt>
      <trkpt lat="43.61962" lon="0.79408">
        <ele>208</ele>
        <time>2020-10-03T14:25:08.000Z</time>
      </trkpt>
      <trkpt lat="43.61961" lon="0.79405">
        <ele>208</ele>
        <time>2020-10-03T14:25:09.000Z</time>
      </trkpt>
      <trkpt lat="43.6196" lon="0.79401">
        <ele>207.65</ele>
        <time>2020-10-03T14:25:10.000Z</time>
      </trkpt>
      <trkpt lat="43.61959" lon="0.79397">
        <ele>207</ele>
        <time>2020-10-03T14:25:11.000Z</time>
      </trkpt>
      <trkpt lat="43.61958" lon="0.79393">
        <ele>207</ele>
        <time>2020-10-03T14:25:12.000Z</time>
      </trkpt>
      <trkpt lat="43.61957" lon="0.79389">
        <ele>206.55855762356</ele>
        <time>2020-10-03T14:25:13.000Z</time>
      </trkpt>
      <trkpt lat="43.61956" lon="0.79385">
        <ele>206</ele>
        <time>2020-10-03T14:25:14.000Z</time>
      </trkpt>
      <trkpt lat="43.61956" lon="0.79382">
        <ele>206</ele>
        <time>2020-10-03T14:25:15.000Z</time>
      </trkpt>
      <trkpt lat="43.61955" lon="0.79378">
        <ele>206</ele>
        <time>2020-10-03T14:25:16.000Z</time>
      </trkpt>
      <trkpt lat="43.61954" lon="0.79374">
        <ele>206</ele>
        <time>2020-10-03T14:25:17.000Z</time>
      </trkpt>
      <trkpt lat="43.61953" lon="0.7937">
        <ele>206</ele>
        <time>2020-10-03T14:25:18.000Z</time>
      </trkpt>
      <trkpt lat="43.61952" lon="0.79366">
        <ele>206</ele>
        <time>2020-10-03T14:25:19.000Z</time>
      </trkpt>
      <trkpt lat="43.61952" lon="0.79362">
        <ele>206</ele>
        <time>2020-10-03T14:25:20.000Z</time>
      </trkpt>
      <trkpt lat="43.61951" lon="0.79358">
        <ele>205.6511676366</ele>
        <time>2020-10-03T14:25:21.000Z</time>
      </trkpt>
      <trkpt lat="43.6195" lon="0.79354">
        <ele>205</ele>
        <time>2020-10-03T14:25:22.000Z</time>
      </trkpt>
      <trkpt lat="43.61949" lon="0.7935">
        <ele>205</ele>
        <time>2020-10-03T14:25:23.000Z</time>
      </trkpt>
      <trkpt lat="43.61948" lon="0.79346">
        <ele>204.57575992656</ele>
        <time>2020-10-03T14:25:24.000Z</time>
      </trkpt>
      <trkpt lat="43.61947" lon="0.79342">
        <ele>204</ele>
        <time>2020-10-03T14:25:25.000Z</time>
      </trkpt>
      <trkpt lat="43.61946" lon="0.79338">
        <ele>204</ele>
        <time>2020-10-03T14:25:26.000Z</time>
      </trkpt>
      <trkpt lat="43.61945" lon="0.79334">
        <ele>204</ele>
        <time>2020-10-03T14:25:27.000Z</time>
      </trkpt>
      <trkpt lat="43.61944" lon="0.7933">
        <ele>204</ele>
        <time>2020-10-03T14:25:28.000Z</time>
      </trkpt>
      <trkpt lat="43.61943" lon="0.79327">
        <ele>204</ele>
        <time>2020-10-03T14:25:29.000Z</time>
      </trkpt>
      <trkpt lat="43.61942" lon="0.79323">
        <ele>203.59793351896</ele>
        <time>2020-10-03T14:25:30.000Z</time>
      </trkpt>
      <trkpt lat="43.61941" lon="0.79319">
        <ele>203</ele>
        <time>2020-10-03T14:25:31.000Z</time>
      </trkpt>
      <trkpt lat="43.6194" lon="0.79315">
        <ele>203</ele>
        <time>2020-10-03T14:25:32.000Z</time>
      </trkpt>
      <trkpt lat="43.61939" lon="0.79311">
        <ele>203</ele>
        <time>2020-10-03T14:25:33.000Z</time>
      </trkpt>
      <trkpt lat="43.61938" lon="0.79307">
        <ele>203</ele>
        <time>2020-10-03T14:25:34.000Z</time>
      </trkpt>
      <trkpt lat="43.61937" lon="0.79303">
        <ele>203</ele>
        <time>2020-10-03T14:25:35.000Z</time>
      </trkpt>
      <trkpt lat="43.61936" lon="0.79299">
        <ele>202.80644961496</ele>
        <time>2020-10-03T14:25:36.000Z</time>
      </trkpt>
      <trkpt lat="43.61936" lon="0.79295">
        <ele>202</ele>
        <time>2020-10-03T14:25:37.000Z</time>
      </trkpt>
      <trkpt lat="43.61935" lon="0.79291">
        <ele>202</ele>
        <time>2020-10-03T14:25:38.000Z</time>
      </trkpt>
      <trkpt lat="43.61935" lon="0.79286">
        <ele>202</ele>
        <time>2020-10-03T14:25:39.000Z</time>
      </trkpt>
      <trkpt lat="43.61934" lon="0.79282">
        <ele>202</ele>
        <time>2020-10-03T14:25:40.000Z</time>
      </trkpt>
      <trkpt lat="43.61933" lon="0.79278">
        <ele>202</ele>
        <time>2020-10-03T14:25:41.000Z</time>
      </trkpt>
      <trkpt lat="43.61933" lon="0.79275">
        <ele>202</ele>
        <time>2020-10-03T14:25:42.000Z</time>
      </trkpt>
      <trkpt lat="43.61932" lon="0.79271">
        <ele>202</ele>
        <time>2020-10-03T14:25:43.000Z</time>
      </trkpt>
      <trkpt lat="43.61932" lon="0.79267">
        <ele>202</ele>
        <time>2020-10-03T14:25:44.000Z</time>
      </trkpt>
      <trkpt lat="43.61931" lon="0.79263">
        <ele>202</ele>
        <time>2020-10-03T14:25:45.000Z</time>
      </trkpt>
      <trkpt lat="43.6193" lon="0.79259">
        <ele>201.66055239795</ele>
        <time>2020-10-03T14:25:46.000Z</time>
      </trkpt>
      <trkpt lat="43.6193" lon="0.79255">
        <ele>201</ele>
        <time>2020-10-03T14:25:47.000Z</time>
      </trkpt>
      <trkpt lat="43.6193" lon="0.79251">
        <ele>201</ele>
        <time>2020-10-03T14:25:48.000Z</time>
      </trkpt>
      <trkpt lat="43.61929" lon="0.79247">
        <ele>200.63393142857</ele>
        <time>2020-10-03T14:25:49.000Z</time>
      </trkpt>
      <trkpt lat="43.61929" lon="0.79243">
        <ele>200</ele>
        <time>2020-10-03T14:25:50.000Z</time>
      </trkpt>
      <trkpt lat="43.61929" lon="0.79239">
        <ele>200</ele>
        <time>2020-10-03T14:25:51.000Z</time>
      </trkpt>
      <trkpt lat="43.61928" lon="0.79235">
        <ele>199.61445931775</ele>
        <time>2020-10-03T14:25:52.000Z</time>
      </trkpt>
      <trkpt lat="43.61928" lon="0.79231">
        <ele>199</ele>
        <time>2020-10-03T14:25:53.000Z</time>
      </trkpt>
      <trkpt lat="43.61928" lon="0.79227">
        <ele>199</ele>
        <time>2020-10-03T14:25:54.000Z</time>
      </trkpt>
      <trkpt lat="43.61927" lon="0.79222">
        <ele>199</ele>
        <time>2020-10-03T14:25:55.000Z</time>
      </trkpt>
      <trkpt lat="43.61927" lon="0.79218">
        <ele>199</ele>
        <time>2020-10-03T14:25:56.000Z</time>
      </trkpt>
      <trkpt lat="43.61927" lon="0.79214">
        <ele>199</ele>
        <time>2020-10-03T14:25:57.000Z</time>
      </trkpt>
      <trkpt lat="43.61927" lon="0.7921">
        <ele>199</ele>
        <time>2020-10-03T14:25:58.000Z</time>
      </trkpt>
      <trkpt lat="43.61927" lon="0.79206">
        <ele>199</ele>
        <time>2020-10-03T14:25:59.000Z</time>
      </trkpt>
      <trkpt lat="43.61927" lon="0.79202">
        <ele>199</ele>
        <time>2020-10-03T14:26:00.000Z</time>
      </trkpt>
      <trkpt lat="43.61927" lon="0.79198">
        <ele>198.68181818182</ele>
        <time>2020-10-03T14:26:01.000Z</time>
      </trkpt>
      <trkpt lat="43.61927" lon="0.79194">
        <ele>198</ele>
        <time>2020-10-03T14:26:02.000Z</time>
      </trkpt>
      <trkpt lat="43.61928" lon="0.7919">
        <ele>198</ele>
        <time>2020-10-03T14:26:03.000Z</time>
      </trkpt>
      <trkpt lat="43.61928" lon="0.79186">
        <ele>198</ele>
        <time>2020-10-03T14:26:04.000Z</time>
      </trkpt>
      <trkpt lat="43.61928" lon="0.79181">
        <ele>198</ele>
        <time>2020-10-03T14:26:05.000Z</time>
      </trkpt>
      <trkpt lat="43.61928" lon="0.79177">
        <ele>198</ele>
        <time>2020-10-03T14:26:06.000Z</time>
      </trkpt>
      <trkpt lat="43.61928" lon="0.79172">
        <ele>198</ele>
        <time>2020-10-03T14:26:07.000Z</time>
      </trkpt>
      <trkpt lat="43.61929" lon="0.79168">
        <ele>198</ele>
        <time>2020-10-03T14:26:08.000Z</time>
      </trkpt>
      <trkpt lat="43.61929" lon="0.79164">
        <ele>198</ele>
        <time>2020-10-03T14:26:09.000Z</time>
      </trkpt>
      <trkpt lat="43.61929" lon="0.7916">
        <ele>198</ele>
        <time>2020-10-03T14:26:10.000Z</time>
      </trkpt>
      <trkpt lat="43.61929" lon="0.79156">
        <ele>197.5</ele>
        <time>2020-10-03T14:26:11.000Z</time>
      </trkpt>
      <trkpt lat="43.61929" lon="0.79152">
        <ele>196.53271206919</ele>
        <time>2020-10-03T14:26:12.000Z</time>
      </trkpt>
      <trkpt lat="43.6193" lon="0.79148">
        <ele>196.358336</ele>
        <time>2020-10-03T14:26:13.000Z</time>
      </trkpt>
      <trkpt lat="43.6193" lon="0.79145">
        <ele>197</ele>
        <time>2020-10-03T14:26:14.000Z</time>
      </trkpt>
      <trkpt lat="43.6193" lon="0.79141">
        <ele>197</ele>
        <time>2020-10-03T14:26:15.000Z</time>
      </trkpt>
      <trkpt lat="43.6193" lon="0.79136">
        <ele>196.81443897547</ele>
        <time>2020-10-03T14:26:16.000Z</time>
      </trkpt>
      <trkpt lat="43.61931" lon="0.79133">
        <ele>196</ele>
        <time>2020-10-03T14:26:17.000Z</time>
      </trkpt>
      <trkpt lat="43.61931" lon="0.79129">
        <ele>196</ele>
        <time>2020-10-03T14:26:18.000Z</time>
      </trkpt>
      <trkpt lat="43.61932" lon="0.79125">
        <ele>196</ele>
        <time>2020-10-03T14:26:19.000Z</time>
      </trkpt>
      <trkpt lat="43.61932" lon="0.79121">
        <ele>196</ele>
        <time>2020-10-03T14:26:20.000Z</time>
      </trkpt>
      <trkpt lat="43.61933" lon="0.79117">
        <ele>196</ele>
        <time>2020-10-03T14:26:21.000Z</time>
      </trkpt>
      <trkpt lat="43.61934" lon="0.79114">
        <ele>196</ele>
        <time>2020-10-03T14:26:22.000Z</time>
      </trkpt>
      <trkpt lat="43.61934" lon="0.7911">
        <ele>196</ele>
        <time>2020-10-03T14:26:23.000Z</time>
      </trkpt>
      <trkpt lat="43.61935" lon="0.79107">
        <ele>196</ele>
        <time>2020-10-03T14:26:24.000Z</time>
      </trkpt>
      <trkpt lat="43.61936" lon="0.79103">
        <ele>196</ele>
        <time>2020-10-03T14:26:25.000Z</time>
      </trkpt>
      <trkpt lat="43.61937" lon="0.79099">
        <ele>196</ele>
        <time>2020-10-03T14:26:26.000Z</time>
      </trkpt>
      <trkpt lat="43.61938" lon="0.79095">
        <ele>196</ele>
        <time>2020-10-03T14:26:27.000Z</time>
      </trkpt>
      <trkpt lat="43.61938" lon="0.79091">
        <ele>196</ele>
        <time>2020-10-03T14:26:28.000Z</time>
      </trkpt>
      <trkpt lat="43.61939" lon="0.79087">
        <ele>196</ele>
        <time>2020-10-03T14:26:29.000Z</time>
      </trkpt>
      <trkpt lat="43.61939" lon="0.79083">
        <ele>196</ele>
        <time>2020-10-03T14:26:30.000Z</time>
      </trkpt>
      <trkpt lat="43.6194" lon="0.7908">
        <ele>196</ele>
        <time>2020-10-03T14:26:31.000Z</time>
      </trkpt>
      <trkpt lat="43.61941" lon="0.79076">
        <ele>195.63235764706</ele>
        <time>2020-10-03T14:26:32.000Z</time>
      </trkpt>
      <trkpt lat="43.61942" lon="0.79073">
        <ele>195</ele>
        <time>2020-10-03T14:26:33.000Z</time>
      </trkpt>
      <trkpt lat="43.61943" lon="0.79069">
        <ele>195</ele>
        <time>2020-10-03T14:26:34.000Z</time>
      </trkpt>
      <trkpt lat="43.61943" lon="0.79066">
        <ele>195</ele>
        <time>2020-10-03T14:26:35.000Z</time>
      </trkpt>
      <trkpt lat="43.61944" lon="0.79061">
        <ele>195</ele>
        <time>2020-10-03T14:26:36.000Z</time>
      </trkpt>
      <trkpt lat="43.61945" lon="0.79058">
        <ele>194.58095110385</ele>
        <time>2020-10-03T14:26:37.000Z</time>
      </trkpt>
      <trkpt lat="43.61945" lon="0.79054">
        <ele>194</ele>
        <time>2020-10-03T14:26:38.000Z</time>
      </trkpt>
      <trkpt lat="43.61946" lon="0.7905">
        <ele>194</ele>
        <time>2020-10-03T14:26:39.000Z</time>
      </trkpt>
      <trkpt lat="43.61947" lon="0.79046">
        <ele>194</ele>
        <time>2020-10-03T14:26:40.000Z</time>
      </trkpt>
      <trkpt lat="43.61947" lon="0.79042">
        <ele>194</ele>
        <time>2020-10-03T14:26:41.000Z</time>
      </trkpt>
      <trkpt lat="43.61947" lon="0.79038">
        <ele>194</ele>
        <time>2020-10-03T14:26:42.000Z</time>
      </trkpt>
      <trkpt lat="43.61948" lon="0.79034">
        <ele>194</ele>
        <time>2020-10-03T14:26:43.000Z</time>
      </trkpt>
      <trkpt lat="43.61948" lon="0.7903">
        <ele>194</ele>
        <time>2020-10-03T14:26:44.000Z</time>
      </trkpt>
      <trkpt lat="43.61949" lon="0.79027">
        <ele>193.61946511707</ele>
        <time>2020-10-03T14:26:45.000Z</time>
      </trkpt>
      <trkpt lat="43.6195" lon="0.79023">
        <ele>193</ele>
        <time>2020-10-03T14:26:46.000Z</time>
      </trkpt>
      <trkpt lat="43.6195" lon="0.79019">
        <ele>193</ele>
        <time>2020-10-03T14:26:47.000Z</time>
      </trkpt>
      <trkpt lat="43.61951" lon="0.79015">
        <ele>193</ele>
        <time>2020-10-03T14:26:48.000Z</time>
      </trkpt>
      <trkpt lat="43.61952" lon="0.79012">
        <ele>193</ele>
        <time>2020-10-03T14:26:49.000Z</time>
      </trkpt>
      <trkpt lat="43.61952" lon="0.79008">
        <ele>193</ele>
        <time>2020-10-03T14:26:50.000Z</time>
      </trkpt>
      <trkpt lat="43.61953" lon="0.79005">
        <ele>193</ele>
        <time>2020-10-03T14:26:51.000Z</time>
      </trkpt>
      <trkpt lat="43.61954" lon="0.79001">
        <ele>193</ele>
        <time>2020-10-03T14:26:52.000Z</time>
      </trkpt>
      <trkpt lat="43.61954" lon="0.78998">
        <ele>193</ele>
        <time>2020-10-03T14:26:53.000Z</time>
      </trkpt>
      <trkpt lat="43.61955" lon="0.78994">
        <ele>193</ele>
        <time>2020-10-03T14:26:54.000Z</time>
      </trkpt>
      <trkpt lat="43.61956" lon="0.78991">
        <ele>193</ele>
        <time>2020-10-03T14:26:55.000Z</time>
      </trkpt>
      <trkpt lat="43.61956" lon="0.78987">
        <ele>193</ele>
        <time>2020-10-03T14:26:56.000Z</time>
      </trkpt>
      <trkpt lat="43.61957" lon="0.78983">
        <ele>193</ele>
        <time>2020-10-03T14:26:57.000Z</time>
      </trkpt>
      <trkpt lat="43.61957" lon="0.7898">
        <ele>193</ele>
        <time>2020-10-03T14:26:58.000Z</time>
      </trkpt>
      <trkpt lat="43.61958" lon="0.78976">
        <ele>193</ele>
        <time>2020-10-03T14:26:59.000Z</time>
      </trkpt>
      <trkpt lat="43.61959" lon="0.78972">
        <ele>193</ele>
        <time>2020-10-03T14:27:00.000Z</time>
      </trkpt>
      <trkpt lat="43.61959" lon="0.78969">
        <ele>193</ele>
        <time>2020-10-03T14:27:01.000Z</time>
      </trkpt>
      <trkpt lat="43.6196" lon="0.78965">
        <ele>193</ele>
        <time>2020-10-03T14:27:02.000Z</time>
      </trkpt>
      <trkpt lat="43.6196" lon="0.78961">
        <ele>193.39795985006</ele>
        <time>2020-10-03T14:27:03.000Z</time>
      </trkpt>
      <trkpt lat="43.6196" lon="0.78958">
        <ele>194</ele>
        <time>2020-10-03T14:27:04.000Z</time>
      </trkpt>
      <trkpt lat="43.6196" lon="0.78954">
        <ele>194</ele>
        <time>2020-10-03T14:27:05.000Z</time>
      </trkpt>
      <trkpt lat="43.61961" lon="0.78951">
        <ele>194</ele>
        <time>2020-10-03T14:27:06.000Z</time>
      </trkpt>
      <trkpt lat="43.61961" lon="0.78948">
        <ele>194</ele>
        <time>2020-10-03T14:27:07.000Z</time>
      </trkpt>
      <trkpt lat="43.61962" lon="0.78945">
        <ele>194</ele>
        <time>2020-10-03T14:27:08.000Z</time>
      </trkpt>
      <trkpt lat="43.61962" lon="0.78941">
        <ele>194</ele>
        <time>2020-10-03T14:27:09.000Z</time>
      </trkpt>
      <trkpt lat="43.61963" lon="0.78938">
        <ele>194</ele>
        <time>2020-10-03T14:27:10.000Z</time>
      </trkpt>
      <trkpt lat="43.61964" lon="0.78935">
        <ele>194</ele>
        <time>2020-10-03T14:27:11.000Z</time>
      </trkpt>
      <trkpt lat="43.61965" lon="0.78932">
        <ele>194</ele>
        <time>2020-10-03T14:27:12.000Z</time>
      </trkpt>
      <trkpt lat="43.61965" lon="0.78928">
        <ele>194</ele>
        <time>2020-10-03T14:27:13.000Z</time>
      </trkpt>
      <trkpt lat="43.61966" lon="0.78925">
        <ele>194</ele>
        <time>2020-10-03T14:27:14.000Z</time>
      </trkpt>
      <trkpt lat="43.61967" lon="0.78922">
        <ele>194</ele>
        <time>2020-10-03T14:27:15.000Z</time>
      </trkpt>
      <trkpt lat="43.61967" lon="0.78918">
        <ele>194.40650203449</ele>
        <time>2020-10-03T14:27:16.000Z</time>
      </trkpt>
      <trkpt lat="43.61968" lon="0.78915">
        <ele>195</ele>
        <time>2020-10-03T14:27:17.000Z</time>
      </trkpt>
      <trkpt lat="43.61969" lon="0.78912">
        <ele>195</ele>
        <time>2020-10-03T14:27:18.000Z</time>
      </trkpt>
      <trkpt lat="43.6197" lon="0.78908">
        <ele>195</ele>
        <time>2020-10-03T14:27:19.000Z</time>
      </trkpt>
      <trkpt lat="43.6197" lon="0.78904">
        <ele>195</ele>
        <time>2020-10-03T14:27:20.000Z</time>
      </trkpt>
      <trkpt lat="43.61971" lon="0.78901">
        <ele>195</ele>
        <time>2020-10-03T14:27:21.000Z</time>
      </trkpt>
      <trkpt lat="43.61971" lon="0.78897">
        <ele>195</ele>
        <time>2020-10-03T14:27:22.000Z</time>
      </trkpt>
      <trkpt lat="43.61972" lon="0.78893">
        <ele>195</ele>
        <time>2020-10-03T14:27:23.000Z</time>
      </trkpt>
      <trkpt lat="43.61972" lon="0.7889">
        <ele>195</ele>
        <time>2020-10-03T14:27:24.000Z</time>
      </trkpt>
      <trkpt lat="43.61973" lon="0.78886">
        <ele>195.49505113615</ele>
        <time>2020-10-03T14:27:25.000Z</time>
      </trkpt>
      <trkpt lat="43.61974" lon="0.78883">
        <ele>196</ele>
        <time>2020-10-03T14:27:26.000Z</time>
      </trkpt>
      <trkpt lat="43.61974" lon="0.78879">
        <ele>197</ele>
        <time>2020-10-03T14:27:28.000Z</time>
      </trkpt>
      <trkpt lat="43.61974" lon="0.78875">
        <ele>197</ele>
        <time>2020-10-03T14:27:30.000Z</time>
      </trkpt>
      <trkpt lat="43.61974" lon="0.78872">
        <ele>197</ele>
        <time>2020-10-03T14:27:32.000Z</time>
      </trkpt>
      <trkpt lat="43.61975" lon="0.78868">
        <ele>197</ele>
        <time>2020-10-03T14:27:34.000Z</time>
      </trkpt>
      <trkpt lat="43.61976" lon="0.78865">
        <ele>197</ele>
        <time>2020-10-03T14:27:36.000Z</time>
      </trkpt>
      <trkpt lat="43.61976" lon="0.78863">
        <ele>197</ele>
        <time>2020-10-03T14:27:38.000Z</time>
      </trkpt>
      <trkpt lat="43.61976" lon="0.78859">
        <ele>197</ele>
        <time>2020-10-03T14:27:40.000Z</time>
      </trkpt>
      <trkpt lat="43.61977" lon="0.78856">
        <ele>197</ele>
        <time>2020-10-03T14:27:42.000Z</time>
      </trkpt>
      <trkpt lat="43.61977" lon="0.78853">
        <ele>197</ele>
        <time>2020-10-03T14:27:44.000Z</time>
      </trkpt>
      <trkpt lat="43.61978" lon="0.78849">
        <ele>196</ele>
        <time>2020-10-03T14:27:46.000Z</time>
      </trkpt>
      <trkpt lat="43.61978" lon="0.78845">
        <ele>196.33333048888</ele>
        <time>2020-10-03T14:27:48.000Z</time>
      </trkpt>
      <trkpt lat="43.61979" lon="0.78842">
        <ele>197</ele>
        <time>2020-10-03T14:27:49.000Z</time>
      </trkpt>
      <trkpt lat="43.6198" lon="0.78839">
        <ele>197</ele>
        <time>2020-10-03T14:27:50.000Z</time>
      </trkpt>
      <trkpt lat="43.6198" lon="0.78836">
        <ele>197</ele>
        <time>2020-10-03T14:27:51.000Z</time>
      </trkpt>
      <trkpt lat="43.61981" lon="0.78833">
        <ele>197</ele>
        <time>2020-10-03T14:27:52.000Z</time>
      </trkpt>
      <trkpt lat="43.61981" lon="0.78831">
        <ele>197</ele>
        <time>2020-10-03T14:27:53.000Z</time>
      </trkpt>
      <trkpt lat="43.61982" lon="0.78828">
        <ele>197</ele>
        <time>2020-10-03T14:27:54.000Z</time>
      </trkpt>
      <trkpt lat="43.61983" lon="0.78823">
        <ele>197</ele>
        <time>2020-10-03T14:27:56.000Z</time>
      </trkpt>
      <trkpt lat="43.61984" lon="0.7882">
        <ele>197</ele>
        <time>2020-10-03T14:27:58.000Z</time>
      </trkpt>
      <trkpt lat="43.61984" lon="0.78816">
        <ele>197</ele>
        <time>2020-10-03T14:28:00.000Z</time>
      </trkpt>
      <trkpt lat="43.61985" lon="0.78812">
        <ele>197</ele>
        <time>2020-10-03T14:28:02.000Z</time>
      </trkpt>
      <trkpt lat="43.61985" lon="0.78809">
        <ele>197</ele>
        <time>2020-10-03T14:28:04.000Z</time>
      </trkpt>
      <trkpt lat="43.61985" lon="0.78806">
        <ele>197</ele>
        <time>2020-10-03T14:28:06.000Z</time>
      </trkpt>
      <trkpt lat="43.61986" lon="0.78802">
        <ele>197</ele>
        <time>2020-10-03T14:28:08.000Z</time>
      </trkpt>
      <trkpt lat="43.61987" lon="0.78799">
        <ele>197</ele>
        <time>2020-10-03T14:28:10.000Z</time>
      </trkpt>
      <trkpt lat="43.61988" lon="0.78795">
        <ele>197</ele>
        <time>2020-10-03T14:28:12.000Z</time>
      </trkpt>
      <trkpt lat="43.61988" lon="0.78793">
        <ele>196.59632909014</ele>
        <time>2020-10-03T14:28:13.000Z</time>
      </trkpt>
      <trkpt lat="43.61989" lon="0.7879">
        <ele>196</ele>
        <time>2020-10-03T14:28:14.000Z</time>
      </trkpt>
      <trkpt lat="43.61989" lon="0.78786">
        <ele>196</ele>
        <time>2020-10-03T14:28:15.000Z</time>
      </trkpt>
      <trkpt lat="43.6199" lon="0.78783">
        <ele>196</ele>
        <time>2020-10-03T14:28:16.000Z</time>
      </trkpt>
      <trkpt lat="43.61991" lon="0.7878">
        <ele>195.67592296296</ele>
        <time>2020-10-03T14:28:17.000Z</time>
      </trkpt>
      <trkpt lat="43.61991" lon="0.78776">
        <ele>195</ele>
        <time>2020-10-03T14:28:18.000Z</time>
      </trkpt>
      <trkpt lat="43.61992" lon="0.78773">
        <ele>195</ele>
        <time>2020-10-03T14:28:19.000Z</time>
      </trkpt>
      <trkpt lat="43.61993" lon="0.78769">
        <ele>195.24999384615</ele>
        <time>2020-10-03T14:28:20.000Z</time>
      </trkpt>
      <trkpt lat="43.61994" lon="0.78765">
        <ele>196</ele>
        <time>2020-10-03T14:28:21.000Z</time>
      </trkpt>
      <trkpt lat="43.61994" lon="0.78762">
        <ele>196</ele>
        <time>2020-10-03T14:28:22.000Z</time>
      </trkpt>
      <trkpt lat="43.61995" lon="0.78758">
        <ele>196</ele>
        <time>2020-10-03T14:28:23.000Z</time>
      </trkpt>
      <trkpt lat="43.61996" lon="0.78754">
        <ele>196</ele>
        <time>2020-10-03T14:28:24.000Z</time>
      </trkpt>
      <trkpt lat="43.61997" lon="0.78751">
        <ele>196</ele>
        <time>2020-10-03T14:28:25.000Z</time>
      </trkpt>
      <trkpt lat="43.61997" lon="0.78747">
        <ele>196</ele>
        <time>2020-10-03T14:28:26.000Z</time>
      </trkpt>
      <trkpt lat="43.61998" lon="0.78743">
        <ele>196</ele>
        <time>2020-10-03T14:28:27.000Z</time>
      </trkpt>
      <trkpt lat="43.61999" lon="0.7874">
        <ele>196.48</ele>
        <time>2020-10-03T14:28:28.000Z</time>
      </trkpt>
      <trkpt lat="43.61999" lon="0.78736">
        <ele>197</ele>
        <time>2020-10-03T14:28:29.000Z</time>
      </trkpt>
      <trkpt lat="43.62" lon="0.78732">
        <ele>197</ele>
        <time>2020-10-03T14:28:30.000Z</time>
      </trkpt>
      <trkpt lat="43.62" lon="0.78728">
        <ele>197</ele>
        <time>2020-10-03T14:28:31.000Z</time>
      </trkpt>
      <trkpt lat="43.62001" lon="0.78724">
        <ele>197</ele>
        <time>2020-10-03T14:28:32.000Z</time>
      </trkpt>
      <trkpt lat="43.62002" lon="0.7872">
        <ele>197</ele>
        <time>2020-10-03T14:28:33.000Z</time>
      </trkpt>
      <trkpt lat="43.62003" lon="0.78716">
        <ele>197</ele>
        <time>2020-10-03T14:28:34.000Z</time>
      </trkpt>
      <trkpt lat="43.62003" lon="0.78713">
        <ele>197</ele>
        <time>2020-10-03T14:28:35.000Z</time>
      </trkpt>
      <trkpt lat="43.62004" lon="0.78709">
        <ele>197</ele>
        <time>2020-10-03T14:28:36.000Z</time>
      </trkpt>
      <trkpt lat="43.62005" lon="0.78706">
        <ele>197</ele>
        <time>2020-10-03T14:28:37.000Z</time>
      </trkpt>
      <trkpt lat="43.62005" lon="0.78702">
        <ele>197</ele>
        <time>2020-10-03T14:28:38.000Z</time>
      </trkpt>
      <trkpt lat="43.62006" lon="0.78698">
        <ele>197</ele>
        <time>2020-10-03T14:28:39.000Z</time>
      </trkpt>
      <trkpt lat="43.62006" lon="0.78694">
        <ele>197</ele>
        <time>2020-10-03T14:28:40.000Z</time>
      </trkpt>
      <trkpt lat="43.62007" lon="0.78691">
        <ele>197</ele>
        <time>2020-10-03T14:28:41.000Z</time>
      </trkpt>
      <trkpt lat="43.62008" lon="0.78687">
        <ele>197</ele>
        <time>2020-10-03T14:28:42.000Z</time>
      </trkpt>
      <trkpt lat="43.62009" lon="0.78683">
        <ele>197</ele>
        <time>2020-10-03T14:28:43.000Z</time>
      </trkpt>
      <trkpt lat="43.62009" lon="0.78679">
        <ele>197</ele>
        <time>2020-10-03T14:28:44.000Z</time>
      </trkpt>
      <trkpt lat="43.6201" lon="0.78676">
        <ele>197</ele>
        <time>2020-10-03T14:28:45.000Z</time>
      </trkpt>
      <trkpt lat="43.62011" lon="0.78672">
        <ele>197</ele>
        <time>2020-10-03T14:28:46.000Z</time>
      </trkpt>
      <trkpt lat="43.62012" lon="0.78668">
        <ele>197</ele>
        <time>2020-10-03T14:28:47.000Z</time>
      </trkpt>
      <trkpt lat="43.62013" lon="0.78665">
        <ele>197</ele>
        <time>2020-10-03T14:28:48.000Z</time>
      </trkpt>
      <trkpt lat="43.62014" lon="0.78661">
        <ele>197</ele>
        <time>2020-10-03T14:28:49.000Z</time>
      </trkpt>
      <trkpt lat="43.62015" lon="0.78658">
        <ele>197</ele>
        <time>2020-10-03T14:28:50.000Z</time>
      </trkpt>
      <trkpt lat="43.62016" lon="0.78654">
        <ele>197</ele>
        <time>2020-10-03T14:28:51.000Z</time>
      </trkpt>
      <trkpt lat="43.62017" lon="0.7865">
        <ele>197</ele>
        <time>2020-10-03T14:28:52.000Z</time>
      </trkpt>
      <trkpt lat="43.62018" lon="0.78646">
        <ele>197.29348173913</ele>
        <time>2020-10-03T14:28:53.000Z</time>
      </trkpt>
      <trkpt lat="43.62019" lon="0.78642">
        <ele>198</ele>
        <time>2020-10-03T14:28:54.000Z</time>
      </trkpt>
      <trkpt lat="43.62019" lon="0.78639">
        <ele>198.25961846154</ele>
        <time>2020-10-03T14:28:55.000Z</time>
      </trkpt>
      <trkpt lat="43.6202" lon="0.78635">
        <ele>199</ele>
        <time>2020-10-03T14:28:56.000Z</time>
      </trkpt>
      <trkpt lat="43.6202" lon="0.78631">
        <ele>199</ele>
        <time>2020-10-03T14:28:57.000Z</time>
      </trkpt>
      <trkpt lat="43.62021" lon="0.78627">
        <ele>198.66981029549</ele>
        <time>2020-10-03T14:28:58.000Z</time>
      </trkpt>
      <trkpt lat="43.62022" lon="0.78624">
        <ele>198</ele>
        <time>2020-10-03T14:28:59.000Z</time>
      </trkpt>
      <trkpt lat="43.62023" lon="0.7862">
        <ele>198</ele>
        <time>2020-10-03T14:29:00.000Z</time>
      </trkpt>
      <trkpt lat="43.62023" lon="0.78617">
        <ele>197.67045818182</ele>
        <time>2020-10-03T14:29:01.000Z</time>
      </trkpt>
      <trkpt lat="43.62024" lon="0.78613">
        <ele>197</ele>
        <time>2020-10-03T14:29:02.000Z</time>
      </trkpt>
      <trkpt lat="43.62025" lon="0.78609">
        <ele>197</ele>
        <time>2020-10-03T14:29:03.000Z</time>
      </trkpt>
      <trkpt lat="43.62025" lon="0.78605">
        <ele>197</ele>
        <time>2020-10-03T14:29:04.000Z</time>
      </trkpt>
      <trkpt lat="43.62026" lon="0.78601">
        <ele>197</ele>
        <time>2020-10-03T14:29:05.000Z</time>
      </trkpt>
      <trkpt lat="43.62026" lon="0.78598">
        <ele>197.30526287424</ele>
        <time>2020-10-03T14:29:06.000Z</time>
      </trkpt>
      <trkpt lat="43.62026" lon="0.78594">
        <ele>198</ele>
        <time>2020-10-03T14:29:07.000Z</time>
      </trkpt>
      <trkpt lat="43.62026" lon="0.78591">
        <ele>198</ele>
        <time>2020-10-03T14:29:08.000Z</time>
      </trkpt>
      <trkpt lat="43.62026" lon="0.78587">
        <ele>198</ele>
        <time>2020-10-03T14:29:09.000Z</time>
      </trkpt>
      <trkpt lat="43.62026" lon="0.78583">
        <ele>198</ele>
        <time>2020-10-03T14:29:10.000Z</time>
      </trkpt>
      <trkpt lat="43.62027" lon="0.78579">
        <ele>198</ele>
        <time>2020-10-03T14:29:11.000Z</time>
      </trkpt>
      <trkpt lat="43.62027" lon="0.78574">
        <ele>198</ele>
        <time>2020-10-03T14:29:12.000Z</time>
      </trkpt>
      <trkpt lat="43.62027" lon="0.7857">
        <ele>198</ele>
        <time>2020-10-03T14:29:13.000Z</time>
      </trkpt>
      <trkpt lat="43.62027" lon="0.78566">
        <ele>198</ele>
        <time>2020-10-03T14:29:14.000Z</time>
      </trkpt>
      <trkpt lat="43.62028" lon="0.78562">
        <ele>198</ele>
        <time>2020-10-03T14:29:15.000Z</time>
      </trkpt>
      <trkpt lat="43.62028" lon="0.78559">
        <ele>198</ele>
        <time>2020-10-03T14:29:16.000Z</time>
      </trkpt>
      <trkpt lat="43.62029" lon="0.78555">
        <ele>198</ele>
        <time>2020-10-03T14:29:17.000Z</time>
      </trkpt>
      <trkpt lat="43.62029" lon="0.78552">
        <ele>198</ele>
        <time>2020-10-03T14:29:18.000Z</time>
      </trkpt>
      <trkpt lat="43.62029" lon="0.78548">
        <ele>198</ele>
        <time>2020-10-03T14:29:19.000Z</time>
      </trkpt>
      <trkpt lat="43.62028" lon="0.78544">
        <ele>198</ele>
        <time>2020-10-03T14:29:20.000Z</time>
      </trkpt>
      <trkpt lat="43.62028" lon="0.7854">
        <ele>198</ele>
        <time>2020-10-03T14:29:21.000Z</time>
      </trkpt>
      <trkpt lat="43.62027" lon="0.78536">
        <ele>198</ele>
        <time>2020-10-03T14:29:22.000Z</time>
      </trkpt>
      <trkpt lat="43.62027" lon="0.78532">
        <ele>197.76055995241</ele>
        <time>2020-10-03T14:29:23.000Z</time>
      </trkpt>
      <trkpt lat="43.62027" lon="0.78528">
        <ele>197.05633777425</ele>
        <time>2020-10-03T14:29:24.000Z</time>
      </trkpt>
      <trkpt lat="43.62027" lon="0.78523">
        <ele>197</ele>
        <time>2020-10-03T14:29:25.000Z</time>
      </trkpt>
      <trkpt lat="43.62026" lon="0.78519">
        <ele>197</ele>
        <time>2020-10-03T14:29:26.000Z</time>
      </trkpt>
      <trkpt lat="43.62026" lon="0.78515">
        <ele>197</ele>
        <time>2020-10-03T14:29:27.000Z</time>
      </trkpt>
      <trkpt lat="43.62026" lon="0.7851">
        <ele>197</ele>
        <time>2020-10-03T14:29:28.000Z</time>
      </trkpt>
      <trkpt lat="43.62026" lon="0.78506">
        <ele>196.14943577219</ele>
        <time>2020-10-03T14:29:29.000Z</time>
      </trkpt>
      <trkpt lat="43.62026" lon="0.78503">
        <ele>195</ele>
        <time>2020-10-03T14:29:30.000Z</time>
      </trkpt>
      <trkpt lat="43.62026" lon="0.78499">
        <ele>195</ele>
        <time>2020-10-03T14:29:31.000Z</time>
      </trkpt>
      <trkpt lat="43.62026" lon="0.78495">
        <ele>195</ele>
        <time>2020-10-03T14:29:32.000Z</time>
      </trkpt>
      <trkpt lat="43.62026" lon="0.7849">
        <ele>195</ele>
        <time>2020-10-03T14:29:33.000Z</time>
      </trkpt>
      <trkpt lat="43.62026" lon="0.78486">
        <ele>195</ele>
        <time>2020-10-03T14:29:34.000Z</time>
      </trkpt>
      <trkpt lat="43.62025" lon="0.78482">
        <ele>195</ele>
        <time>2020-10-03T14:29:35.000Z</time>
      </trkpt>
      <trkpt lat="43.62025" lon="0.78478">
        <ele>194.63854789957</ele>
        <time>2020-10-03T14:29:36.000Z</time>
      </trkpt>
      <trkpt lat="43.62025" lon="0.78474">
        <ele>194</ele>
        <time>2020-10-03T14:29:37.000Z</time>
      </trkpt>
      <trkpt lat="43.62025" lon="0.7847">
        <ele>194.35714503398</ele>
        <time>2020-10-03T14:29:38.000Z</time>
      </trkpt>
      <trkpt lat="43.62025" lon="0.78467">
        <ele>195</ele>
        <time>2020-10-03T14:29:39.000Z</time>
      </trkpt>
      <trkpt lat="43.62025" lon="0.78463">
        <ele>195</ele>
        <time>2020-10-03T14:29:40.000Z</time>
      </trkpt>
      <trkpt lat="43.62025" lon="0.78459">
        <ele>195</ele>
        <time>2020-10-03T14:29:41.000Z</time>
      </trkpt>
      <trkpt lat="43.62025" lon="0.78455">
        <ele>195</ele>
        <time>2020-10-03T14:29:42.000Z</time>
      </trkpt>
      <trkpt lat="43.62025" lon="0.78451">
        <ele>195</ele>
        <time>2020-10-03T14:29:43.000Z</time>
      </trkpt>
      <trkpt lat="43.62025" lon="0.78447">
        <ele>195</ele>
        <time>2020-10-03T14:29:44.000Z</time>
      </trkpt>
      <trkpt lat="43.62025" lon="0.78443">
        <ele>195</ele>
        <time>2020-10-03T14:29:45.000Z</time>
      </trkpt>
      <trkpt lat="43.62025" lon="0.78439">
        <ele>195</ele>
        <time>2020-10-03T14:29:46.000Z</time>
      </trkpt>
      <trkpt lat="43.62025" lon="0.78435">
        <ele>195</ele>
        <time>2020-10-03T14:29:47.000Z</time>
      </trkpt>
      <trkpt lat="43.62024" lon="0.78431">
        <ele>195</ele>
        <time>2020-10-03T14:29:48.000Z</time>
      </trkpt>
      <trkpt lat="43.62024" lon="0.78428">
        <ele>195</ele>
        <time>2020-10-03T14:29:49.000Z</time>
      </trkpt>
      <trkpt lat="43.62024" lon="0.78424">
        <ele>195</ele>
        <time>2020-10-03T14:29:50.000Z</time>
      </trkpt>
      <trkpt lat="43.62024" lon="0.78421">
        <ele>195</ele>
        <time>2020-10-03T14:29:51.000Z</time>
      </trkpt>
      <trkpt lat="43.62024" lon="0.78417">
        <ele>195</ele>
        <time>2020-10-03T14:29:52.000Z</time>
      </trkpt>
      <trkpt lat="43.62024" lon="0.78413">
        <ele>195</ele>
        <time>2020-10-03T14:29:53.000Z</time>
      </trkpt>
      <trkpt lat="43.62024" lon="0.7841">
        <ele>195</ele>
        <time>2020-10-03T14:29:54.000Z</time>
      </trkpt>
      <trkpt lat="43.62024" lon="0.78406">
        <ele>195</ele>
        <time>2020-10-03T14:29:55.000Z</time>
      </trkpt>
      <trkpt lat="43.62024" lon="0.78402">
        <ele>195</ele>
        <time>2020-10-03T14:29:56.000Z</time>
      </trkpt>
      <trkpt lat="43.62024" lon="0.78399">
        <ele>195</ele>
        <time>2020-10-03T14:29:57.000Z</time>
      </trkpt>
      <trkpt lat="43.62024" lon="0.78395">
        <ele>194.60344713438</ele>
        <time>2020-10-03T14:29:58.000Z</time>
      </trkpt>
      <trkpt lat="43.62024" lon="0.78392">
        <ele>194</ele>
        <time>2020-10-03T14:29:59.000Z</time>
      </trkpt>
      <trkpt lat="43.62024" lon="0.78388">
        <ele>194</ele>
        <time>2020-10-03T14:30:00.000Z</time>
      </trkpt>
      <trkpt lat="43.62024" lon="0.78385">
        <ele>194</ele>
        <time>2020-10-03T14:30:01.000Z</time>
      </trkpt>
      <trkpt lat="43.62024" lon="0.78381">
        <ele>194</ele>
        <time>2020-10-03T14:30:02.000Z</time>
      </trkpt>
      <trkpt lat="43.62024" lon="0.78378">
        <ele>194</ele>
        <time>2020-10-03T14:30:03.000Z</time>
      </trkpt>
      <trkpt lat="43.62024" lon="0.78374">
        <ele>194</ele>
        <time>2020-10-03T14:30:04.000Z</time>
      </trkpt>
      <trkpt lat="43.62024" lon="0.7837">
        <ele>194.34233953735</ele>
        <time>2020-10-03T14:30:05.000Z</time>
      </trkpt>
      <trkpt lat="43.62024" lon="0.78366">
        <ele>195</ele>
        <time>2020-10-03T14:30:06.000Z</time>
      </trkpt>
      <trkpt lat="43.62024" lon="0.78362">
        <ele>194.66666382223</ele>
        <time>2020-10-03T14:30:07.000Z</time>
      </trkpt>
      <trkpt lat="43.62024" lon="0.78358">
        <ele>194</ele>
        <time>2020-10-03T14:30:08.000Z</time>
      </trkpt>
      <trkpt lat="43.62024" lon="0.78355">
        <ele>194</ele>
        <time>2020-10-03T14:30:09.000Z</time>
      </trkpt>
      <trkpt lat="43.62023" lon="0.78351">
        <ele>194</ele>
        <time>2020-10-03T14:30:10.000Z</time>
      </trkpt>
      <trkpt lat="43.62023" lon="0.78348">
        <ele>194</ele>
        <time>2020-10-03T14:30:11.000Z</time>
      </trkpt>
      <trkpt lat="43.62022" lon="0.78344">
        <ele>194</ele>
        <time>2020-10-03T14:30:12.000Z</time>
      </trkpt>
      <trkpt lat="43.62021" lon="0.78341">
        <ele>194</ele>
        <time>2020-10-03T14:30:13.000Z</time>
      </trkpt>
      <trkpt lat="43.62019" lon="0.78338">
        <ele>194</ele>
        <time>2020-10-03T14:30:14.000Z</time>
      </trkpt>
      <trkpt lat="43.62017" lon="0.78336">
        <ele>194</ele>
        <time>2020-10-03T14:30:15.000Z</time>
      </trkpt>
      <trkpt lat="43.62015" lon="0.78334">
        <ele>194.41414219774</ele>
        <time>2020-10-03T14:30:16.000Z</time>
      </trkpt>
      <trkpt lat="43.62013" lon="0.78333">
        <ele>195</ele>
        <time>2020-10-03T14:30:17.000Z</time>
      </trkpt>
      <trkpt lat="43.6201" lon="0.78331">
        <ele>195</ele>
        <time>2020-10-03T14:30:18.000Z</time>
      </trkpt>
      <trkpt lat="43.62007" lon="0.78331">
        <ele>195</ele>
        <time>2020-10-03T14:30:19.000Z</time>
      </trkpt>
      <trkpt lat="43.62005" lon="0.7833">
        <ele>195</ele>
        <time>2020-10-03T14:30:20.000Z</time>
      </trkpt>
      <trkpt lat="43.62002" lon="0.78329">
        <ele>195</ele>
        <time>2020-10-03T14:30:21.000Z</time>
      </trkpt>
      <trkpt lat="43.62" lon="0.78329">
        <ele>195</ele>
        <time>2020-10-03T14:30:22.000Z</time>
      </trkpt>
      <trkpt lat="43.61997" lon="0.78328">
        <ele>195</ele>
        <time>2020-10-03T14:30:23.000Z</time>
      </trkpt>
      <trkpt lat="43.61995" lon="0.78328">
        <ele>195</ele>
        <time>2020-10-03T14:30:24.000Z</time>
      </trkpt>
      <trkpt lat="43.61992" lon="0.78327">
        <ele>195</ele>
        <time>2020-10-03T14:30:25.000Z</time>
      </trkpt>
      <trkpt lat="43.6199" lon="0.78326">
        <ele>195.27273150411</ele>
        <time>2020-10-03T14:30:26.000Z</time>
      </trkpt>
      <trkpt lat="43.61988" lon="0.78325">
        <ele>196</ele>
        <time>2020-10-03T14:30:27.000Z</time>
      </trkpt>
      <trkpt lat="43.61985" lon="0.78325">
        <ele>196</ele>
        <time>2020-10-03T14:30:28.000Z</time>
      </trkpt>
      <trkpt lat="43.61983" lon="0.78325">
        <ele>196</ele>
        <time>2020-10-03T14:30:29.000Z</time>
      </trkpt>
      <trkpt lat="43.6198" lon="0.78324">
        <ele>196</ele>
        <time>2020-10-03T14:30:30.000Z</time>
      </trkpt>
      <trkpt lat="43.61978" lon="0.78323">
        <ele>196</ele>
        <time>2020-10-03T14:30:31.000Z</time>
      </trkpt>
      <trkpt lat="43.61975" lon="0.78321">
        <ele>196</ele>
        <time>2020-10-03T14:30:32.000Z</time>
      </trkpt>
      <trkpt lat="43.61973" lon="0.7832">
        <ele>196</ele>
        <time>2020-10-03T14:30:33.000Z</time>
      </trkpt>
      <trkpt lat="43.61971" lon="0.78318">
        <ele>196</ele>
        <time>2020-10-03T14:30:34.000Z</time>
      </trkpt>
      <trkpt lat="43.61969" lon="0.78316">
        <ele>196.43299200338</ele>
        <time>2020-10-03T14:30:35.000Z</time>
      </trkpt>
      <trkpt lat="43.61966" lon="0.78315">
        <ele>197</ele>
        <time>2020-10-03T14:30:36.000Z</time>
      </trkpt>
      <trkpt lat="43.61964" lon="0.78312">
        <ele>197</ele>
        <time>2020-10-03T14:30:37.000Z</time>
      </trkpt>
      <trkpt lat="43.61962" lon="0.7831">
        <ele>197</ele>
        <time>2020-10-03T14:30:38.000Z</time>
      </trkpt>
      <trkpt lat="43.6196" lon="0.78308">
        <ele>197</ele>
        <time>2020-10-03T14:30:39.000Z</time>
      </trkpt>
      <trkpt lat="43.61959" lon="0.78305">
        <ele>196.9090878867</ele>
        <time>2020-10-03T14:30:40.000Z</time>
      </trkpt>
      <trkpt lat="43.61957" lon="0.78301">
        <ele>196</ele>
        <time>2020-10-03T14:30:41.000Z</time>
      </trkpt>
      <trkpt lat="43.61956" lon="0.78298">
        <ele>196</ele>
        <time>2020-10-03T14:30:42.000Z</time>
      </trkpt>
      <trkpt lat="43.61955" lon="0.78295">
        <ele>196</ele>
        <time>2020-10-03T14:30:43.000Z</time>
      </trkpt>
      <trkpt lat="43.61953" lon="0.78292">
        <ele>196</ele>
        <time>2020-10-03T14:30:44.000Z</time>
      </trkpt>
      <trkpt lat="43.61952" lon="0.78289">
        <ele>196.3360025395</ele>
        <time>2020-10-03T14:30:45.000Z</time>
      </trkpt>
      <trkpt lat="43.61951" lon="0.78285">
        <ele>197</ele>
        <time>2020-10-03T14:30:46.000Z</time>
      </trkpt>
      <trkpt lat="43.6195" lon="0.78282">
        <ele>197</ele>
        <time>2020-10-03T14:30:47.000Z</time>
      </trkpt>
      <trkpt lat="43.61949" lon="0.78278">
        <ele>197</ele>
        <time>2020-10-03T14:30:48.000Z</time>
      </trkpt>
      <trkpt lat="43.61948" lon="0.78275">
        <ele>197</ele>
        <time>2020-10-03T14:30:49.000Z</time>
      </trkpt>
      <trkpt lat="43.61947" lon="0.78271">
        <ele>197</ele>
        <time>2020-10-03T14:30:50.000Z</time>
      </trkpt>
      <trkpt lat="43.61945" lon="0.78268">
        <ele>196.63302644558</ele>
        <time>2020-10-03T14:30:51.000Z</time>
      </trkpt>
      <trkpt lat="43.61944" lon="0.78264">
        <ele>196</ele>
        <time>2020-10-03T14:30:52.000Z</time>
      </trkpt>
      <trkpt lat="43.61943" lon="0.78261">
        <ele>196</ele>
        <time>2020-10-03T14:30:53.000Z</time>
      </trkpt>
      <trkpt lat="43.61942" lon="0.78257">
        <ele>196</ele>
        <time>2020-10-03T14:30:54.000Z</time>
      </trkpt>
      <trkpt lat="43.61942" lon="0.78254">
        <ele>196</ele>
        <time>2020-10-03T14:30:55.000Z</time>
      </trkpt>
      <trkpt lat="43.61941" lon="0.7825">
        <ele>196</ele>
        <time>2020-10-03T14:30:56.000Z</time>
      </trkpt>
      <trkpt lat="43.6194" lon="0.78246">
        <ele>195.5789487867</ele>
        <time>2020-10-03T14:30:57.000Z</time>
      </trkpt>
      <trkpt lat="43.61939" lon="0.78243">
        <ele>195</ele>
        <time>2020-10-03T14:30:58.000Z</time>
      </trkpt>
      <trkpt lat="43.61938" lon="0.78239">
        <ele>195</ele>
        <time>2020-10-03T14:30:59.000Z</time>
      </trkpt>
      <trkpt lat="43.61937" lon="0.78235">
        <ele>194.66666666667</ele>
        <time>2020-10-03T14:31:00.000Z</time>
      </trkpt>
      <trkpt lat="43.61936" lon="0.78232">
        <ele>194</ele>
        <time>2020-10-03T14:31:01.000Z</time>
      </trkpt>
      <trkpt lat="43.61935" lon="0.78228">
        <ele>194</ele>
        <time>2020-10-03T14:31:02.000Z</time>
      </trkpt>
      <trkpt lat="43.61933" lon="0.78225">
        <ele>194</ele>
        <time>2020-10-03T14:31:03.000Z</time>
      </trkpt>
      <trkpt lat="43.61932" lon="0.78221">
        <ele>194</ele>
        <time>2020-10-03T14:31:04.000Z</time>
      </trkpt>
      <trkpt lat="43.61931" lon="0.78218">
        <ele>194</ele>
        <time>2020-10-03T14:31:05.000Z</time>
      </trkpt>
      <trkpt lat="43.6193" lon="0.78215">
        <ele>194.38635636364</ele>
        <time>2020-10-03T14:31:06.000Z</time>
      </trkpt>
      <trkpt lat="43.61929" lon="0.78211">
        <ele>195</ele>
        <time>2020-10-03T14:31:07.000Z</time>
      </trkpt>
      <trkpt lat="43.61927" lon="0.78208">
        <ele>195</ele>
        <time>2020-10-03T14:31:08.000Z</time>
      </trkpt>
      <trkpt lat="43.61926" lon="0.78204">
        <ele>195</ele>
        <time>2020-10-03T14:31:09.000Z</time>
      </trkpt>
      <trkpt lat="43.61925" lon="0.78201">
        <ele>195</ele>
        <time>2020-10-03T14:31:10.000Z</time>
      </trkpt>
      <trkpt lat="43.61924" lon="0.78197">
        <ele>195</ele>
        <time>2020-10-03T14:31:11.000Z</time>
      </trkpt>
      <trkpt lat="43.61923" lon="0.78194">
        <ele>195</ele>
        <time>2020-10-03T14:31:12.000Z</time>
      </trkpt>
      <trkpt lat="43.61922" lon="0.78191">
        <ele>195</ele>
        <time>2020-10-03T14:31:13.000Z</time>
      </trkpt>
      <trkpt lat="43.6192" lon="0.78188">
        <ele>195</ele>
        <time>2020-10-03T14:31:14.000Z</time>
      </trkpt>
      <trkpt lat="43.61919" lon="0.78184">
        <ele>195</ele>
        <time>2020-10-03T14:31:15.000Z</time>
      </trkpt>
      <trkpt lat="43.61918" lon="0.78181">
        <ele>195</ele>
        <time>2020-10-03T14:31:16.000Z</time>
      </trkpt>
      <trkpt lat="43.61916" lon="0.78177">
        <ele>194.68345396615</ele>
        <time>2020-10-03T14:31:17.000Z</time>
      </trkpt>
      <trkpt lat="43.61915" lon="0.78174">
        <ele>194</ele>
        <time>2020-10-03T14:31:18.000Z</time>
      </trkpt>
      <trkpt lat="43.61915" lon="0.7817">
        <ele>194</ele>
        <time>2020-10-03T14:31:19.000Z</time>
      </trkpt>
      <trkpt lat="43.61914" lon="0.78166">
        <ele>194</ele>
        <time>2020-10-03T14:31:20.000Z</time>
      </trkpt>
      <trkpt lat="43.61913" lon="0.78163">
        <ele>194.38281</ele>
        <time>2020-10-03T14:31:21.000Z</time>
      </trkpt>
      <trkpt lat="43.61912" lon="0.78159">
        <ele>195</ele>
        <time>2020-10-03T14:31:22.000Z</time>
      </trkpt>
      <trkpt lat="43.61911" lon="0.78156">
        <ele>195</ele>
        <time>2020-10-03T14:31:23.000Z</time>
      </trkpt>
      <trkpt lat="43.6191" lon="0.78152">
        <ele>195</ele>
        <time>2020-10-03T14:31:24.000Z</time>
      </trkpt>
      <trkpt lat="43.61909" lon="0.78148">
        <ele>195</ele>
        <time>2020-10-03T14:31:25.000Z</time>
      </trkpt>
      <trkpt lat="43.61908" lon="0.78145">
        <ele>195</ele>
        <time>2020-10-03T14:31:26.000Z</time>
      </trkpt>
      <trkpt lat="43.61907" lon="0.78141">
        <ele>195</ele>
        <time>2020-10-03T14:31:27.000Z</time>
      </trkpt>
      <trkpt lat="43.61906" lon="0.78138">
        <ele>195</ele>
        <time>2020-10-03T14:31:28.000Z</time>
      </trkpt>
      <trkpt lat="43.61905" lon="0.78134">
        <ele>195</ele>
        <time>2020-10-03T14:31:29.000Z</time>
      </trkpt>
      <trkpt lat="43.61904" lon="0.78131">
        <ele>195</ele>
        <time>2020-10-03T14:31:30.000Z</time>
      </trkpt>
      <trkpt lat="43.61903" lon="0.78128">
        <ele>195</ele>
        <time>2020-10-03T14:31:31.000Z</time>
      </trkpt>
      <trkpt lat="43.61902" lon="0.78124">
        <ele>195</ele>
        <time>2020-10-03T14:31:32.000Z</time>
      </trkpt>
      <trkpt lat="43.61901" lon="0.78121">
        <ele>195</ele>
        <time>2020-10-03T14:31:33.000Z</time>
      </trkpt>
      <trkpt lat="43.619" lon="0.78117">
        <ele>195</ele>
        <time>2020-10-03T14:31:34.000Z</time>
      </trkpt>
      <trkpt lat="43.61899" lon="0.78113">
        <ele>195</ele>
        <time>2020-10-03T14:31:35.000Z</time>
      </trkpt>
      <trkpt lat="43.61898" lon="0.7811">
        <ele>195</ele>
        <time>2020-10-03T14:31:36.000Z</time>
      </trkpt>
      <trkpt lat="43.61898" lon="0.78106">
        <ele>195</ele>
        <time>2020-10-03T14:31:37.000Z</time>
      </trkpt>
      <trkpt lat="43.61897" lon="0.78103">
        <ele>195</ele>
        <time>2020-10-03T14:31:38.000Z</time>
      </trkpt>
      <trkpt lat="43.61896" lon="0.78099">
        <ele>195</ele>
        <time>2020-10-03T14:31:39.000Z</time>
      </trkpt>
      <trkpt lat="43.61896" lon="0.78095">
        <ele>195</ele>
        <time>2020-10-03T14:31:40.000Z</time>
      </trkpt>
      <trkpt lat="43.61895" lon="0.78092">
        <ele>195</ele>
        <time>2020-10-03T14:31:41.000Z</time>
      </trkpt>
      <trkpt lat="43.61894" lon="0.78088">
        <ele>195</ele>
        <time>2020-10-03T14:31:42.000Z</time>
      </trkpt>
      <trkpt lat="43.61894" lon="0.78084">
        <ele>195</ele>
        <time>2020-10-03T14:31:43.000Z</time>
      </trkpt>
      <trkpt lat="43.61893" lon="0.78081">
        <ele>195</ele>
        <time>2020-10-03T14:31:44.000Z</time>
      </trkpt>
      <trkpt lat="43.61893" lon="0.78077">
        <ele>195</ele>
        <time>2020-10-03T14:31:45.000Z</time>
      </trkpt>
      <trkpt lat="43.61893" lon="0.78073">
        <ele>195</ele>
        <time>2020-10-03T14:31:46.000Z</time>
      </trkpt>
      <trkpt lat="43.61893" lon="0.78069">
        <ele>195</ele>
        <time>2020-10-03T14:31:47.000Z</time>
      </trkpt>
      <trkpt lat="43.61893" lon="0.78066">
        <ele>195.45871107145</ele>
        <time>2020-10-03T14:31:48.000Z</time>
      </trkpt>
      <trkpt lat="43.61893" lon="0.78062">
        <ele>196</ele>
        <time>2020-10-03T14:31:49.000Z</time>
      </trkpt>
      <trkpt lat="43.61893" lon="0.78058">
        <ele>196</ele>
        <time>2020-10-03T14:31:50.000Z</time>
      </trkpt>
      <trkpt lat="43.61894" lon="0.78054">
        <ele>196</ele>
        <time>2020-10-03T14:31:51.000Z</time>
      </trkpt>
      <trkpt lat="43.61894" lon="0.78051">
        <ele>196</ele>
        <time>2020-10-03T14:31:52.000Z</time>
      </trkpt>
      <trkpt lat="43.61895" lon="0.78047">
        <ele>196</ele>
        <time>2020-10-03T14:31:53.000Z</time>
      </trkpt>
      <trkpt lat="43.61895" lon="0.78043">
        <ele>196</ele>
        <time>2020-10-03T14:31:54.000Z</time>
      </trkpt>
      <trkpt lat="43.61895" lon="0.7804">
        <ele>196</ele>
        <time>2020-10-03T14:31:55.000Z</time>
      </trkpt>
      <trkpt lat="43.61895" lon="0.78036">
        <ele>196</ele>
        <time>2020-10-03T14:31:56.000Z</time>
      </trkpt>
      <trkpt lat="43.61896" lon="0.78033">
        <ele>196</ele>
        <time>2020-10-03T14:31:57.000Z</time>
      </trkpt>
      <trkpt lat="43.61896" lon="0.78029">
        <ele>196</ele>
        <time>2020-10-03T14:31:58.000Z</time>
      </trkpt>
      <trkpt lat="43.61897" lon="0.78025">
        <ele>196</ele>
        <time>2020-10-03T14:31:59.000Z</time>
      </trkpt>
      <trkpt lat="43.61897" lon="0.78022">
        <ele>195.54455244782</ele>
        <time>2020-10-03T14:32:00.000Z</time>
      </trkpt>
      <trkpt lat="43.61897" lon="0.78018">
        <ele>195</ele>
        <time>2020-10-03T14:32:01.000Z</time>
      </trkpt>
      <trkpt lat="43.61898" lon="0.78014">
        <ele>195.5</ele>
        <time>2020-10-03T14:32:02.000Z</time>
      </trkpt>
      <trkpt lat="43.61898" lon="0.78011">
        <ele>196</ele>
        <time>2020-10-03T14:32:03.000Z</time>
      </trkpt>
      <trkpt lat="43.61899" lon="0.78007">
        <ele>196</ele>
        <time>2020-10-03T14:32:04.000Z</time>
      </trkpt>
      <trkpt lat="43.61899" lon="0.78004">
        <ele>196</ele>
        <time>2020-10-03T14:32:05.000Z</time>
      </trkpt>
      <trkpt lat="43.619" lon="0.78">
        <ele>196.35460619485</ele>
        <time>2020-10-03T14:32:06.000Z</time>
      </trkpt>
      <trkpt lat="43.619" lon="0.77997">
        <ele>197</ele>
        <time>2020-10-03T14:32:07.000Z</time>
      </trkpt>
      <trkpt lat="43.61901" lon="0.77993">
        <ele>197</ele>
        <time>2020-10-03T14:32:08.000Z</time>
      </trkpt>
      <trkpt lat="43.61901" lon="0.77989">
        <ele>197</ele>
        <time>2020-10-03T14:32:09.000Z</time>
      </trkpt>
      <trkpt lat="43.61902" lon="0.77985">
        <ele>197</ele>
        <time>2020-10-03T14:32:10.000Z</time>
      </trkpt>
      <trkpt lat="43.61902" lon="0.77981">
        <ele>197.36905142857</ele>
        <time>2020-10-03T14:32:11.000Z</time>
      </trkpt>
      <trkpt lat="43.61903" lon="0.77978">
        <ele>198</ele>
        <time>2020-10-03T14:32:12.000Z</time>
      </trkpt>
      <trkpt lat="43.61903" lon="0.77974">
        <ele>198</ele>
        <time>2020-10-03T14:32:13.000Z</time>
      </trkpt>
      <trkpt lat="43.61904" lon="0.77971">
        <ele>197.72071864297</ele>
        <time>2020-10-03T14:32:14.000Z</time>
      </trkpt>
      <trkpt lat="43.61905" lon="0.77968">
        <ele>197</ele>
        <time>2020-10-03T14:32:15.000Z</time>
      </trkpt>
      <trkpt lat="43.61906" lon="0.77964">
        <ele>197</ele>
        <time>2020-10-03T14:32:16.000Z</time>
      </trkpt>
      <trkpt lat="43.61907" lon="0.77961">
        <ele>197</ele>
        <time>2020-10-03T14:32:17.000Z</time>
      </trkpt>
      <trkpt lat="43.61907" lon="0.77957">
        <ele>197</ele>
        <time>2020-10-03T14:32:18.000Z</time>
      </trkpt>
      <trkpt lat="43.61908" lon="0.77953">
        <ele>197</ele>
        <time>2020-10-03T14:32:19.000Z</time>
      </trkpt>
      <trkpt lat="43.61909" lon="0.77949">
        <ele>197</ele>
        <time>2020-10-03T14:32:20.000Z</time>
      </trkpt>
      <trkpt lat="43.6191" lon="0.77946">
        <ele>197</ele>
        <time>2020-10-03T14:32:21.000Z</time>
      </trkpt>
      <trkpt lat="43.61911" lon="0.77942">
        <ele>197</ele>
        <time>2020-10-03T14:32:22.000Z</time>
      </trkpt>
      <trkpt lat="43.61912" lon="0.77939">
        <ele>197</ele>
        <time>2020-10-03T14:32:23.000Z</time>
      </trkpt>
      <trkpt lat="43.61913" lon="0.77935">
        <ele>197</ele>
        <time>2020-10-03T14:32:24.000Z</time>
      </trkpt>
      <trkpt lat="43.61914" lon="0.77931">
        <ele>197</ele>
        <time>2020-10-03T14:32:25.000Z</time>
      </trkpt>
      <trkpt lat="43.61914" lon="0.77927">
        <ele>197</ele>
        <time>2020-10-03T14:32:26.000Z</time>
      </trkpt>
      <trkpt lat="43.61915" lon="0.77923">
        <ele>196.67592296296</ele>
        <time>2020-10-03T14:32:27.000Z</time>
      </trkpt>
      <trkpt lat="43.61916" lon="0.7792">
        <ele>196</ele>
        <time>2020-10-03T14:32:28.000Z</time>
      </trkpt>
      <trkpt lat="43.61917" lon="0.77916">
        <ele>195.34579036773</ele>
        <time>2020-10-03T14:32:29.000Z</time>
      </trkpt>
      <trkpt lat="43.61918" lon="0.77912">
        <ele>194</ele>
        <time>2020-10-03T14:32:30.000Z</time>
      </trkpt>
      <trkpt lat="43.61919" lon="0.77908">
        <ele>194</ele>
        <time>2020-10-03T14:32:31.000Z</time>
      </trkpt>
      <trkpt lat="43.61919" lon="0.77905">
        <ele>194</ele>
        <time>2020-10-03T14:32:32.000Z</time>
      </trkpt>
      <trkpt lat="43.6192" lon="0.77901">
        <ele>194.53333206914</ele>
        <time>2020-10-03T14:32:33.000Z</time>
      </trkpt>
      <trkpt lat="43.61921" lon="0.77897">
        <ele>196</ele>
        <time>2020-10-03T14:32:34.000Z</time>
      </trkpt>
      <trkpt lat="43.61922" lon="0.77894">
        <ele>196</ele>
        <time>2020-10-03T14:32:35.000Z</time>
      </trkpt>
      <trkpt lat="43.61923" lon="0.77891">
        <ele>196</ele>
        <time>2020-10-03T14:32:36.000Z</time>
      </trkpt>
      <trkpt lat="43.61923" lon="0.77887">
        <ele>197</ele>
        <time>2020-10-03T14:32:37.000Z</time>
      </trkpt>
      <trkpt lat="43.61924" lon="0.77883">
        <ele>197</ele>
        <time>2020-10-03T14:32:38.000Z</time>
      </trkpt>
      <trkpt lat="43.61924" lon="0.77879">
        <ele>196.53464882265</ele>
        <time>2020-10-03T14:32:39.000Z</time>
      </trkpt>
      <trkpt lat="43.61925" lon="0.77875">
        <ele>196</ele>
        <time>2020-10-03T14:32:40.000Z</time>
      </trkpt>
      <trkpt lat="43.61925" lon="0.77871">
        <ele>196</ele>
        <time>2020-10-03T14:32:41.000Z</time>
      </trkpt>
      <trkpt lat="43.61925" lon="0.77867">
        <ele>196</ele>
        <time>2020-10-03T14:32:42.000Z</time>
      </trkpt>
      <trkpt lat="43.61925" lon="0.77863">
        <ele>196</ele>
        <time>2020-10-03T14:32:43.000Z</time>
      </trkpt>
      <trkpt lat="43.61926" lon="0.77859">
        <ele>195.63094857143</ele>
        <time>2020-10-03T14:32:44.000Z</time>
      </trkpt>
      <trkpt lat="43.61926" lon="0.77854">
        <ele>195</ele>
        <time>2020-10-03T14:32:45.000Z</time>
      </trkpt>
      <trkpt lat="43.61926" lon="0.7785">
        <ele>195</ele>
        <time>2020-10-03T14:32:46.000Z</time>
      </trkpt>
      <trkpt lat="43.61926" lon="0.77846">
        <ele>194.54128257219</ele>
        <time>2020-10-03T14:32:47.000Z</time>
      </trkpt>
      <trkpt lat="43.61926" lon="0.77842">
        <ele>194</ele>
        <time>2020-10-03T14:32:48.000Z</time>
      </trkpt>
      <trkpt lat="43.61926" lon="0.77838">
        <ele>194</ele>
        <time>2020-10-03T14:32:49.000Z</time>
      </trkpt>
      <trkpt lat="43.61925" lon="0.77834">
        <ele>194</ele>
        <time>2020-10-03T14:32:50.000Z</time>
      </trkpt>
      <trkpt lat="43.61925" lon="0.7783">
        <ele>194</ele>
        <time>2020-10-03T14:32:51.000Z</time>
      </trkpt>
      <trkpt lat="43.61924" lon="0.77826">
        <ele>194</ele>
        <time>2020-10-03T14:32:52.000Z</time>
      </trkpt>
      <trkpt lat="43.61924" lon="0.77822">
        <ele>194</ele>
        <time>2020-10-03T14:32:53.000Z</time>
      </trkpt>
      <trkpt lat="43.61924" lon="0.77818">
        <ele>194</ele>
        <time>2020-10-03T14:32:54.000Z</time>
      </trkpt>
      <trkpt lat="43.61923" lon="0.77814">
        <ele>194</ele>
        <time>2020-10-03T14:32:55.000Z</time>
      </trkpt>
      <trkpt lat="43.61923" lon="0.7781">
        <ele>193.60919844633</ele>
        <time>2020-10-03T14:32:56.000Z</time>
      </trkpt>
      <trkpt lat="43.61922" lon="0.77806">
        <ele>193</ele>
        <time>2020-10-03T14:32:57.000Z</time>
      </trkpt>
      <trkpt lat="43.61921" lon="0.77802">
        <ele>193</ele>
        <time>2020-10-03T14:32:58.000Z</time>
      </trkpt>
      <trkpt lat="43.61921" lon="0.77798">
        <ele>192.58823617992</ele>
        <time>2020-10-03T14:32:59.000Z</time>
      </trkpt>
      <trkpt lat="43.6192" lon="0.77794">
        <ele>192</ele>
        <time>2020-10-03T14:33:00.000Z</time>
      </trkpt>
      <trkpt lat="43.61919" lon="0.7779">
        <ele>191.26733074798</ele>
        <time>2020-10-03T14:33:01.000Z</time>
      </trkpt>
      <trkpt lat="43.61917" lon="0.77787">
        <ele>190</ele>
        <time>2020-10-03T14:33:02.000Z</time>
      </trkpt>
      <trkpt lat="43.61916" lon="0.77783">
        <ele>190</ele>
        <time>2020-10-03T14:33:03.000Z</time>
      </trkpt>
      <trkpt lat="43.61914" lon="0.7778">
        <ele>190</ele>
        <time>2020-10-03T14:33:04.000Z</time>
      </trkpt>
      <trkpt lat="43.61912" lon="0.77776">
        <ele>190</ele>
        <time>2020-10-03T14:33:05.000Z</time>
      </trkpt>
      <trkpt lat="43.6191" lon="0.77773">
        <ele>190</ele>
        <time>2020-10-03T14:33:06.000Z</time>
      </trkpt>
      <trkpt lat="43.61908" lon="0.7777">
        <ele>190</ele>
        <time>2020-10-03T14:33:07.000Z</time>
      </trkpt>
      <trkpt lat="43.61906" lon="0.77767">
        <ele>190</ele>
        <time>2020-10-03T14:33:08.000Z</time>
      </trkpt>
      <trkpt lat="43.61904" lon="0.77764">
        <ele>189.66666328044</ele>
        <time>2020-10-03T14:33:09.000Z</time>
      </trkpt>
      <trkpt lat="43.61902" lon="0.77761">
        <ele>189</ele>
        <time>2020-10-03T14:33:10.000Z</time>
      </trkpt>
      <trkpt lat="43.619" lon="0.77758">
        <ele>189</ele>
        <time>2020-10-03T14:33:11.000Z</time>
      </trkpt>
      <trkpt lat="43.61898" lon="0.77755">
        <ele>189</ele>
        <time>2020-10-03T14:33:12.000Z</time>
      </trkpt>
      <trkpt lat="43.61896" lon="0.77753">
        <ele>189</ele>
        <time>2020-10-03T14:33:13.000Z</time>
      </trkpt>
      <trkpt lat="43.61893" lon="0.7775">
        <ele>189</ele>
        <time>2020-10-03T14:33:14.000Z</time>
      </trkpt>
      <trkpt lat="43.61891" lon="0.77748">
        <ele>188.5945986462</ele>
        <time>2020-10-03T14:33:15.000Z</time>
      </trkpt>
      <trkpt lat="43.61888" lon="0.77745">
        <ele>188</ele>
        <time>2020-10-03T14:33:16.000Z</time>
      </trkpt>
      <trkpt lat="43.61886" lon="0.77744">
        <ele>188</ele>
        <time>2020-10-03T14:33:17.000Z</time>
      </trkpt>
      <trkpt lat="43.61883" lon="0.77741">
        <ele>187.5900032</ele>
        <time>2020-10-03T14:33:18.000Z</time>
      </trkpt>
      <trkpt lat="43.61881" lon="0.77739">
        <ele>187</ele>
        <time>2020-10-03T14:33:19.000Z</time>
      </trkpt>
      <trkpt lat="43.61878" lon="0.77737">
        <ele>187</ele>
        <time>2020-10-03T14:33:20.000Z</time>
      </trkpt>
      <trkpt lat="43.61876" lon="0.77735">
        <ele>187</ele>
        <time>2020-10-03T14:33:21.000Z</time>
      </trkpt>
      <trkpt lat="43.61873" lon="0.77732">
        <ele>187</ele>
        <time>2020-10-03T14:33:22.000Z</time>
      </trkpt>
      <trkpt lat="43.61871" lon="0.7773">
        <ele>187</ele>
        <time>2020-10-03T14:33:23.000Z</time>
      </trkpt>
      <trkpt lat="43.61869" lon="0.77727">
        <ele>186.35294339102</ele>
        <time>2020-10-03T14:33:24.000Z</time>
      </trkpt>
      <trkpt lat="43.61867" lon="0.77725">
        <ele>185</ele>
        <time>2020-10-03T14:33:25.000Z</time>
      </trkpt>
      <trkpt lat="43.61864" lon="0.77722">
        <ele>185</ele>
        <time>2020-10-03T14:33:26.000Z</time>
      </trkpt>
      <trkpt lat="43.61862" lon="0.7772">
        <ele>184.66666666667</ele>
        <time>2020-10-03T14:33:27.000Z</time>
      </trkpt>
      <trkpt lat="43.61859" lon="0.77717">
        <ele>184</ele>
        <time>2020-10-03T14:33:28.000Z</time>
      </trkpt>
      <trkpt lat="43.61857" lon="0.77715">
        <ele>184</ele>
        <time>2020-10-03T14:33:29.000Z</time>
      </trkpt>
      <trkpt lat="43.61855" lon="0.77713">
        <ele>184</ele>
        <time>2020-10-03T14:33:30.000Z</time>
      </trkpt>
      <trkpt lat="43.61852" lon="0.7771">
        <ele>184</ele>
        <time>2020-10-03T14:33:31.000Z</time>
      </trkpt>
      <trkpt lat="43.6185" lon="0.77708">
        <ele>184</ele>
        <time>2020-10-03T14:33:32.000Z</time>
      </trkpt>
      <trkpt lat="43.61847" lon="0.77706">
        <ele>184</ele>
        <time>2020-10-03T14:33:33.000Z</time>
      </trkpt>
      <trkpt lat="43.61845" lon="0.77703">
        <ele>184</ele>
        <time>2020-10-03T14:33:34.000Z</time>
      </trkpt>
      <trkpt lat="43.61842" lon="0.777">
        <ele>184</ele>
        <time>2020-10-03T14:33:35.000Z</time>
      </trkpt>
      <trkpt lat="43.6184" lon="0.77697">
        <ele>184</ele>
        <time>2020-10-03T14:33:36.000Z</time>
      </trkpt>
      <trkpt lat="43.61838" lon="0.77695">
        <ele>184</ele>
        <time>2020-10-03T14:33:37.000Z</time>
      </trkpt>
      <trkpt lat="43.61835" lon="0.77692">
        <ele>183.63854789957</ele>
        <time>2020-10-03T14:33:38.000Z</time>
      </trkpt>
      <trkpt lat="43.61833" lon="0.7769">
        <ele>183</ele>
        <time>2020-10-03T14:33:39.000Z</time>
      </trkpt>
      <trkpt lat="43.6183" lon="0.77687">
        <ele>183</ele>
        <time>2020-10-03T14:33:40.000Z</time>
      </trkpt>
      <trkpt lat="43.61828" lon="0.77684">
        <ele>182.54128257219</ele>
        <time>2020-10-03T14:33:41.000Z</time>
      </trkpt>
      <trkpt lat="43.61826" lon="0.77682">
        <ele>182</ele>
        <time>2020-10-03T14:33:42.000Z</time>
      </trkpt>
      <trkpt lat="43.61824" lon="0.77679">
        <ele>181.82758316291</ele>
        <time>2020-10-03T14:33:43.000Z</time>
      </trkpt>
      <trkpt lat="43.61821" lon="0.77676">
        <ele>181</ele>
        <time>2020-10-03T14:33:44.000Z</time>
      </trkpt>
      <trkpt lat="43.61819" lon="0.77672">
        <ele>181</ele>
        <time>2020-10-03T14:33:45.000Z</time>
      </trkpt>
      <trkpt lat="43.61818" lon="0.77669">
        <ele>181</ele>
        <time>2020-10-03T14:33:46.000Z</time>
      </trkpt>
      <trkpt lat="43.61816" lon="0.77665">
        <ele>180.58929142857</ele>
        <time>2020-10-03T14:33:47.000Z</time>
      </trkpt>
      <trkpt lat="43.61814" lon="0.77661">
        <ele>180</ele>
        <time>2020-10-03T14:33:48.000Z</time>
      </trkpt>
      <trkpt lat="43.61813" lon="0.77658">
        <ele>180</ele>
        <time>2020-10-03T14:33:49.000Z</time>
      </trkpt>
      <trkpt lat="43.61812" lon="0.77654">
        <ele>180</ele>
        <time>2020-10-03T14:33:50.000Z</time>
      </trkpt>
      <trkpt lat="43.6181" lon="0.7765">
        <ele>180</ele>
        <time>2020-10-03T14:33:51.000Z</time>
      </trkpt>
      <trkpt lat="43.61809" lon="0.77646">
        <ele>179.57265387392</ele>
        <time>2020-10-03T14:33:52.000Z</time>
      </trkpt>
      <trkpt lat="43.61808" lon="0.77642">
        <ele>179</ele>
        <time>2020-10-03T14:33:53.000Z</time>
      </trkpt>
      <trkpt lat="43.61807" lon="0.77638">
        <ele>178.54128892855</ele>
        <time>2020-10-03T14:33:54.000Z</time>
      </trkpt>
      <trkpt lat="43.61806" lon="0.77634">
        <ele>178</ele>
        <time>2020-10-03T14:33:55.000Z</time>
      </trkpt>
      <trkpt lat="43.61805" lon="0.77629">
        <ele>178</ele>
        <time>2020-10-03T14:33:56.000Z</time>
      </trkpt>
      <trkpt lat="43.61805" lon="0.77625">
        <ele>178</ele>
        <time>2020-10-03T14:33:57.000Z</time>
      </trkpt>
      <trkpt lat="43.61804" lon="0.77621">
        <ele>178</ele>
        <time>2020-10-03T14:33:58.000Z</time>
      </trkpt>
      <trkpt lat="43.61804" lon="0.77617">
        <ele>177.74999652174</ele>
        <time>2020-10-03T14:33:59.000Z</time>
      </trkpt>
      <trkpt lat="43.61803" lon="0.77613">
        <ele>177</ele>
        <time>2020-10-03T14:34:00.000Z</time>
      </trkpt>
      <trkpt lat="43.61803" lon="0.77609">
        <ele>177</ele>
        <time>2020-10-03T14:34:01.000Z</time>
      </trkpt>
      <trkpt lat="43.61802" lon="0.77605">
        <ele>176.16278446723</ele>
        <time>2020-10-03T14:34:02.000Z</time>
      </trkpt>
      <trkpt lat="43.61801" lon="0.77601">
        <ele>175</ele>
        <time>2020-10-03T14:34:03.000Z</time>
      </trkpt>
      <trkpt lat="43.61801" lon="0.77597">
        <ele>175</ele>
        <time>2020-10-03T14:34:04.000Z</time>
      </trkpt>
      <trkpt lat="43.61801" lon="0.77593">
        <ele>175</ele>
        <time>2020-10-03T14:34:05.000Z</time>
      </trkpt>
      <trkpt lat="43.618" lon="0.77589">
        <ele>175</ele>
        <time>2020-10-03T14:34:06.000Z</time>
      </trkpt>
      <trkpt lat="43.61801" lon="0.77585">
        <ele>175</ele>
        <time>2020-10-03T14:34:07.000Z</time>
      </trkpt>
      <trkpt lat="43.61801" lon="0.7758">
        <ele>175</ele>
        <time>2020-10-03T14:34:08.000Z</time>
      </trkpt>
      <trkpt lat="43.61801" lon="0.77576">
        <ele>175</ele>
        <time>2020-10-03T14:34:09.000Z</time>
      </trkpt>
      <trkpt lat="43.61801" lon="0.77572">
        <ele>175</ele>
        <time>2020-10-03T14:34:10.000Z</time>
      </trkpt>
      <trkpt lat="43.61802" lon="0.77568">
        <ele>175</ele>
        <time>2020-10-03T14:34:11.000Z</time>
      </trkpt>
      <trkpt lat="43.61802" lon="0.77563">
        <ele>175</ele>
        <time>2020-10-03T14:34:12.000Z</time>
      </trkpt>
      <trkpt lat="43.61803" lon="0.77559">
        <ele>174.61061836635</ele>
        <time>2020-10-03T14:34:13.000Z</time>
      </trkpt>
      <trkpt lat="43.61804" lon="0.77554">
        <ele>174</ele>
        <time>2020-10-03T14:34:14.000Z</time>
      </trkpt>
      <trkpt lat="43.61804" lon="0.7755">
        <ele>173.45713867759</ele>
        <time>2020-10-03T14:34:15.000Z</time>
      </trkpt>
      <trkpt lat="43.61805" lon="0.77545">
        <ele>172</ele>
        <time>2020-10-03T14:34:16.000Z</time>
      </trkpt>
      <trkpt lat="43.61805" lon="0.7754">
        <ele>172</ele>
        <time>2020-10-03T14:34:17.000Z</time>
      </trkpt>
      <trkpt lat="43.61806" lon="0.77535">
        <ele>171.63094857143</ele>
        <time>2020-10-03T14:34:18.000Z</time>
      </trkpt>
      <trkpt lat="43.61807" lon="0.7753">
        <ele>171</ele>
        <time>2020-10-03T14:34:19.000Z</time>
      </trkpt>
      <trkpt lat="43.61807" lon="0.77526">
        <ele>171</ele>
        <time>2020-10-03T14:34:20.000Z</time>
      </trkpt>
      <trkpt lat="43.61808" lon="0.77522">
        <ele>170.64285931976</ele>
        <time>2020-10-03T14:34:21.000Z</time>
      </trkpt>
      <trkpt lat="43.61809" lon="0.77517">
        <ele>170</ele>
        <time>2020-10-03T14:34:22.000Z</time>
      </trkpt>
      <trkpt lat="43.6181" lon="0.77513">
        <ele>170</ele>
        <time>2020-10-03T14:34:23.000Z</time>
      </trkpt>
      <trkpt lat="43.61811" lon="0.77509">
        <ele>169.54128892855</ele>
        <time>2020-10-03T14:34:24.000Z</time>
      </trkpt>
      <trkpt lat="43.61811" lon="0.77505">
        <ele>169</ele>
        <time>2020-10-03T14:34:25.000Z</time>
      </trkpt>
      <trkpt lat="43.61812" lon="0.775">
        <ele>168.63953384533</ele>
        <time>2020-10-03T14:34:26.000Z</time>
      </trkpt>
      <trkpt lat="43.61812" lon="0.77496">
        <ele>168</ele>
        <time>2020-10-03T14:34:27.000Z</time>
      </trkpt>
      <trkpt lat="43.61813" lon="0.77492">
        <ele>168</ele>
        <time>2020-10-03T14:34:28.000Z</time>
      </trkpt>
      <trkpt lat="43.61814" lon="0.77488">
        <ele>168</ele>
        <time>2020-10-03T14:34:29.000Z</time>
      </trkpt>
      <trkpt lat="43.61814" lon="0.77484">
        <ele>168</ele>
        <time>2020-10-03T14:34:30.000Z</time>
      </trkpt>
      <trkpt lat="43.61815" lon="0.77481">
        <ele>168</ele>
        <time>2020-10-03T14:34:31.000Z</time>
      </trkpt>
      <trkpt lat="43.61815" lon="0.77476">
        <ele>167.36469596121</ele>
        <time>2020-10-03T14:34:32.000Z</time>
      </trkpt>
      <trkpt lat="43.61816" lon="0.77472">
        <ele>166</ele>
        <time>2020-10-03T14:34:33.000Z</time>
      </trkpt>
      <trkpt lat="43.61817" lon="0.77468">
        <ele>165.59793351896</ele>
        <time>2020-10-03T14:34:34.000Z</time>
      </trkpt>
      <trkpt lat="43.61817" lon="0.77464">
        <ele>165</ele>
        <time>2020-10-03T14:34:35.000Z</time>
      </trkpt>
      <trkpt lat="43.61818" lon="0.7746">
        <ele>164.16832686995</ele>
        <time>2020-10-03T14:34:36.000Z</time>
      </trkpt>
      <trkpt lat="43.61819" lon="0.77455">
        <ele>163</ele>
        <time>2020-10-03T14:34:37.000Z</time>
      </trkpt>
      <trkpt lat="43.6182" lon="0.7745">
        <ele>163</ele>
        <time>2020-10-03T14:34:38.000Z</time>
      </trkpt>
      <trkpt lat="43.6182" lon="0.77446">
        <ele>163</ele>
        <time>2020-10-03T14:34:39.000Z</time>
      </trkpt>
      <trkpt lat="43.61821" lon="0.77442">
        <ele>163</ele>
        <time>2020-10-03T14:34:40.000Z</time>
      </trkpt>
      <trkpt lat="43.61822" lon="0.77437">
        <ele>163</ele>
        <time>2020-10-03T14:34:41.000Z</time>
      </trkpt>
      <trkpt lat="43.61823" lon="0.77433">
        <ele>162.58416343497</ele>
        <time>2020-10-03T14:34:42.000Z</time>
      </trkpt>
      <trkpt lat="43.61823" lon="0.77428">
        <ele>162</ele>
        <time>2020-10-03T14:34:43.000Z</time>
      </trkpt>
      <trkpt lat="43.61823" lon="0.77424">
        <ele>162</ele>
        <time>2020-10-03T14:34:44.000Z</time>
      </trkpt>
      <trkpt lat="43.61823" lon="0.77419">
        <ele>162</ele>
        <time>2020-10-03T14:34:45.000Z</time>
      </trkpt>
      <trkpt lat="43.61823" lon="0.77415">
        <ele>161.87068689655</ele>
        <time>2020-10-03T14:34:46.000Z</time>
      </trkpt>
      <trkpt lat="43.61822" lon="0.77411">
        <ele>161.00861793103</ele>
        <time>2020-10-03T14:34:47.000Z</time>
      </trkpt>
      <trkpt lat="43.61822" lon="0.77407">
        <ele>161</ele>
        <time>2020-10-03T14:34:48.000Z</time>
      </trkpt>
      <trkpt lat="43.61821" lon="0.77403">
        <ele>160.35713523809</ele>
        <time>2020-10-03T14:34:49.000Z</time>
      </trkpt>
      <trkpt lat="43.6182" lon="0.774">
        <ele>159</ele>
        <time>2020-10-03T14:34:50.000Z</time>
      </trkpt>
      <trkpt lat="43.61818" lon="0.77396">
        <ele>158.63953384533</ele>
        <time>2020-10-03T14:34:51.000Z</time>
      </trkpt>
      <trkpt lat="43.61816" lon="0.77393">
        <ele>158</ele>
        <time>2020-10-03T14:34:52.000Z</time>
      </trkpt>
      <trkpt lat="43.61814" lon="0.7739">
        <ele>158</ele>
        <time>2020-10-03T14:34:53.000Z</time>
      </trkpt>
      <trkpt lat="43.61812" lon="0.77387">
        <ele>158</ele>
        <time>2020-10-03T14:34:54.000Z</time>
      </trkpt>
      <trkpt lat="43.6181" lon="0.77384">
        <ele>158</ele>
        <time>2020-10-03T14:34:55.000Z</time>
      </trkpt>
      <trkpt lat="43.61808" lon="0.77381">
        <ele>158</ele>
        <time>2020-10-03T14:34:56.000Z</time>
      </trkpt>
      <trkpt lat="43.61805" lon="0.77378">
        <ele>157.61946511707</ele>
        <time>2020-10-03T14:34:57.000Z</time>
      </trkpt>
      <trkpt lat="43.61803" lon="0.77376">
        <ele>157</ele>
        <time>2020-10-03T14:34:58.000Z</time>
      </trkpt>
      <trkpt lat="43.61801" lon="0.77374">
        <ele>157</ele>
        <time>2020-10-03T14:34:59.000Z</time>
      </trkpt>
      <trkpt lat="43.61798" lon="0.77372">
        <ele>157</ele>
        <time>2020-10-03T14:35:00.000Z</time>
      </trkpt>
      <trkpt lat="43.61795" lon="0.77369">
        <ele>156.17543761158</ele>
        <time>2020-10-03T14:35:01.000Z</time>
      </trkpt>
      <trkpt lat="43.61793" lon="0.77367">
        <ele>155</ele>
        <time>2020-10-03T14:35:02.000Z</time>
      </trkpt>
      <trkpt lat="43.6179" lon="0.77364">
        <ele>155</ele>
        <time>2020-10-03T14:35:03.000Z</time>
      </trkpt>
      <trkpt lat="43.61787" lon="0.77362">
        <ele>155</ele>
        <time>2020-10-03T14:35:04.000Z</time>
      </trkpt>
      <trkpt lat="43.61784" lon="0.7736">
        <ele>155</ele>
        <time>2020-10-03T14:35:05.000Z</time>
      </trkpt>
      <trkpt lat="43.61782" lon="0.77357">
        <ele>155</ele>
        <time>2020-10-03T14:35:06.000Z</time>
      </trkpt>
      <trkpt lat="43.61779" lon="0.77355">
        <ele>155</ele>
        <time>2020-10-03T14:35:07.000Z</time>
      </trkpt>
      <trkpt lat="43.61776" lon="0.77352">
        <ele>155</ele>
        <time>2020-10-03T14:35:08.000Z</time>
      </trkpt>
      <trkpt lat="43.61773" lon="0.7735">
        <ele>154.58771880579</ele>
        <time>2020-10-03T14:35:09.000Z</time>
      </trkpt>
      <trkpt lat="43.61771" lon="0.77348">
        <ele>154</ele>
        <time>2020-10-03T14:35:10.000Z</time>
      </trkpt>
      <trkpt lat="43.61768" lon="0.77345">
        <ele>154</ele>
        <time>2020-10-03T14:35:11.000Z</time>
      </trkpt>
      <trkpt lat="43.61766" lon="0.77343">
        <ele>154</ele>
        <time>2020-10-03T14:35:12.000Z</time>
      </trkpt>
      <trkpt lat="43.61763" lon="0.77341">
        <ele>153.63953384533</ele>
        <time>2020-10-03T14:35:13.000Z</time>
      </trkpt>
      <trkpt lat="43.61761" lon="0.77339">
        <ele>153</ele>
        <time>2020-10-03T14:35:14.000Z</time>
      </trkpt>
      <trkpt lat="43.61758" lon="0.77337">
        <ele>153</ele>
        <time>2020-10-03T14:35:15.000Z</time>
      </trkpt>
      <trkpt lat="43.61756" lon="0.77334">
        <ele>153</ele>
        <time>2020-10-03T14:35:16.000Z</time>
      </trkpt>
      <trkpt lat="43.61753" lon="0.77332">
        <ele>153</ele>
        <time>2020-10-03T14:35:17.000Z</time>
      </trkpt>
      <trkpt lat="43.61751" lon="0.7733">
        <ele>153</ele>
        <time>2020-10-03T14:35:18.000Z</time>
      </trkpt>
      <trkpt lat="43.61748" lon="0.77327">
        <ele>152.72222222222</ele>
        <time>2020-10-03T14:35:19.000Z</time>
      </trkpt>
      <trkpt lat="43.61746" lon="0.77325">
        <ele>152</ele>
        <time>2020-10-03T14:35:20.000Z</time>
      </trkpt>
      <trkpt lat="43.61744" lon="0.77323">
        <ele>152</ele>
        <time>2020-10-03T14:35:21.000Z</time>
      </trkpt>
      <trkpt lat="43.61741" lon="0.77321">
        <ele>151.59793351896</ele>
        <time>2020-10-03T14:35:22.000Z</time>
      </trkpt>
      <trkpt lat="43.61739" lon="0.77318">
        <ele>151</ele>
        <time>2020-10-03T14:35:23.000Z</time>
      </trkpt>
      <trkpt lat="43.61736" lon="0.77316">
        <ele>151</ele>
        <time>2020-10-03T14:35:24.000Z</time>
      </trkpt>
      <trkpt lat="43.61734" lon="0.77313">
        <ele>151</ele>
        <time>2020-10-03T14:35:25.000Z</time>
      </trkpt>
      <trkpt lat="43.61732" lon="0.77311">
        <ele>151.36448788191</ele>
        <time>2020-10-03T14:35:26.000Z</time>
      </trkpt>
      <trkpt lat="43.61729" lon="0.77309">
        <ele>152</ele>
        <time>2020-10-03T14:35:27.000Z</time>
      </trkpt>
      <trkpt lat="43.61727" lon="0.77306">
        <ele>152</ele>
        <time>2020-10-03T14:35:28.000Z</time>
      </trkpt>
      <trkpt lat="43.61725" lon="0.77304">
        <ele>152</ele>
        <time>2020-10-03T14:35:29.000Z</time>
      </trkpt>
      <trkpt lat="43.61723" lon="0.77302">
        <ele>152</ele>
        <time>2020-10-03T14:35:30.000Z</time>
      </trkpt>
      <trkpt lat="43.6172" lon="0.77299">
        <ele>152</ele>
        <time>2020-10-03T14:35:31.000Z</time>
      </trkpt>
      <trkpt lat="43.61718" lon="0.77296">
        <ele>152</ele>
        <time>2020-10-03T14:35:32.000Z</time>
      </trkpt>
      <trkpt lat="43.61716" lon="0.77294">
        <ele>152</ele>
        <time>2020-10-03T14:35:33.000Z</time>
      </trkpt>
      <trkpt lat="43.61713" lon="0.77292">
        <ele>152</ele>
        <time>2020-10-03T14:35:34.000Z</time>
      </trkpt>
      <trkpt lat="43.61711" lon="0.77289">
        <ele>152</ele>
        <time>2020-10-03T14:35:35.000Z</time>
      </trkpt>
      <trkpt lat="43.61709" lon="0.77287">
        <ele>152</ele>
        <time>2020-10-03T14:35:36.000Z</time>
      </trkpt>
      <trkpt lat="43.61707" lon="0.77284">
        <ele>152</ele>
        <time>2020-10-03T14:35:37.000Z</time>
      </trkpt>
      <trkpt lat="43.61705" lon="0.77281">
        <ele>152</ele>
        <time>2020-10-03T14:35:38.000Z</time>
      </trkpt>
      <trkpt lat="43.61702" lon="0.77279">
        <ele>152</ele>
        <time>2020-10-03T14:35:39.000Z</time>
      </trkpt>
      <trkpt lat="43.61701" lon="0.77276">
        <ele>152</ele>
        <time>2020-10-03T14:35:40.000Z</time>
      </trkpt>
      <trkpt lat="43.61698" lon="0.77274">
        <ele>152</ele>
        <time>2020-10-03T14:35:41.000Z</time>
      </trkpt>
      <trkpt lat="43.61696" lon="0.77272">
        <ele>152</ele>
        <time>2020-10-03T14:35:42.000Z</time>
      </trkpt>
      <trkpt lat="43.61694" lon="0.77269">
        <ele>152</ele>
        <time>2020-10-03T14:35:43.000Z</time>
      </trkpt>
      <trkpt lat="43.61691" lon="0.77267">
        <ele>152</ele>
        <time>2020-10-03T14:35:44.000Z</time>
      </trkpt>
      <trkpt lat="43.61689" lon="0.77264">
        <ele>152</ele>
        <time>2020-10-03T14:35:45.000Z</time>
      </trkpt>
      <trkpt lat="43.61687" lon="0.77261">
        <ele>152</ele>
        <time>2020-10-03T14:35:46.000Z</time>
      </trkpt>
      <trkpt lat="43.61685" lon="0.77259">
        <ele>152</ele>
        <time>2020-10-03T14:35:47.000Z</time>
      </trkpt>
      <trkpt lat="43.61683" lon="0.77256">
        <ele>152</ele>
        <time>2020-10-03T14:35:48.000Z</time>
      </trkpt>
      <trkpt lat="43.6168" lon="0.77254">
        <ele>152</ele>
        <time>2020-10-03T14:35:49.000Z</time>
      </trkpt>
      <trkpt lat="43.61678" lon="0.77252">
        <ele>152</ele>
        <time>2020-10-03T14:35:50.000Z</time>
      </trkpt>
      <trkpt lat="43.61676" lon="0.7725">
        <ele>152</ele>
        <time>2020-10-03T14:35:51.000Z</time>
      </trkpt>
      <trkpt lat="43.61674" lon="0.77248">
        <ele>152</ele>
        <time>2020-10-03T14:35:52.000Z</time>
      </trkpt>
      <trkpt lat="43.61672" lon="0.77246">
        <ele>152</ele>
        <time>2020-10-03T14:35:53.000Z</time>
      </trkpt>
      <trkpt lat="43.6167" lon="0.77244">
        <ele>152.23595230904</ele>
        <time>2020-10-03T14:35:54.000Z</time>
      </trkpt>
      <trkpt lat="43.61667" lon="0.77242">
        <ele>153</ele>
        <time>2020-10-03T14:35:55.000Z</time>
      </trkpt>
      <trkpt lat="43.61665" lon="0.77239">
        <ele>153</ele>
        <time>2020-10-03T14:35:56.000Z</time>
      </trkpt>
      <trkpt lat="43.61663" lon="0.77237">
        <ele>153</ele>
        <time>2020-10-03T14:35:57.000Z</time>
      </trkpt>
      <trkpt lat="43.61661" lon="0.77234">
        <ele>153</ele>
        <time>2020-10-03T14:35:58.000Z</time>
      </trkpt>
      <trkpt lat="43.61659" lon="0.77232">
        <ele>153</ele>
        <time>2020-10-03T14:35:59.000Z</time>
      </trkpt>
      <trkpt lat="43.61657" lon="0.7723">
        <ele>153</ele>
        <time>2020-10-03T14:36:00.000Z</time>
      </trkpt>
      <trkpt lat="43.61655" lon="0.77228">
        <ele>153</ele>
        <time>2020-10-03T14:36:01.000Z</time>
      </trkpt>
      <trkpt lat="43.61652" lon="0.77225">
        <ele>153</ele>
        <time>2020-10-03T14:36:02.000Z</time>
      </trkpt>
      <trkpt lat="43.6165" lon="0.77223">
        <ele>153</ele>
        <time>2020-10-03T14:36:03.000Z</time>
      </trkpt>
      <trkpt lat="43.61648" lon="0.77221">
        <ele>153</ele>
        <time>2020-10-03T14:36:04.000Z</time>
      </trkpt>
      <trkpt lat="43.61646" lon="0.77219">
        <ele>153.46729430342</ele>
        <time>2020-10-03T14:36:05.000Z</time>
      </trkpt>
      <trkpt lat="43.61644" lon="0.77217">
        <ele>154</ele>
        <time>2020-10-03T14:36:06.000Z</time>
      </trkpt>
      <trkpt lat="43.61642" lon="0.77215">
        <ele>154</ele>
        <time>2020-10-03T14:36:07.000Z</time>
      </trkpt>
      <trkpt lat="43.6164" lon="0.77213">
        <ele>154</ele>
        <time>2020-10-03T14:36:08.000Z</time>
      </trkpt>
      <trkpt lat="43.61638" lon="0.77211">
        <ele>154</ele>
        <time>2020-10-03T14:36:09.000Z</time>
      </trkpt>
      <trkpt lat="43.61636" lon="0.77209">
        <ele>154</ele>
        <time>2020-10-03T14:36:10.000Z</time>
      </trkpt>
      <trkpt lat="43.61634" lon="0.77206">
        <ele>154</ele>
        <time>2020-10-03T14:36:11.000Z</time>
      </trkpt>
      <trkpt lat="43.61632" lon="0.77203">
        <ele>154</ele>
        <time>2020-10-03T14:36:12.000Z</time>
      </trkpt>
      <trkpt lat="43.6163" lon="0.772">
        <ele>154</ele>
        <time>2020-10-03T14:36:13.000Z</time>
      </trkpt>
      <trkpt lat="43.61628" lon="0.77198">
        <ele>154</ele>
        <time>2020-10-03T14:36:14.000Z</time>
      </trkpt>
      <trkpt lat="43.61626" lon="0.77195">
        <ele>154</ele>
        <time>2020-10-03T14:36:15.000Z</time>
      </trkpt>
      <trkpt lat="43.61625" lon="0.77193">
        <ele>154</ele>
        <time>2020-10-03T14:36:16.000Z</time>
      </trkpt>
      <trkpt lat="43.61623" lon="0.77191">
        <ele>154</ele>
        <time>2020-10-03T14:36:17.000Z</time>
      </trkpt>
      <trkpt lat="43.61621" lon="0.77189">
        <ele>154</ele>
        <time>2020-10-03T14:36:18.000Z</time>
      </trkpt>
      <trkpt lat="43.61619" lon="0.77186">
        <ele>154</ele>
        <time>2020-10-03T14:36:19.000Z</time>
      </trkpt>
      <trkpt lat="43.61616" lon="0.77184">
        <ele>154</ele>
        <time>2020-10-03T14:36:20.000Z</time>
      </trkpt>
      <trkpt lat="43.61614" lon="0.77181">
        <ele>154</ele>
        <time>2020-10-03T14:36:21.000Z</time>
      </trkpt>
      <trkpt lat="43.61612" lon="0.77179">
        <ele>154</ele>
        <time>2020-10-03T14:36:22.000Z</time>
      </trkpt>
      <trkpt lat="43.6161" lon="0.77176">
        <ele>154</ele>
        <time>2020-10-03T14:36:23.000Z</time>
      </trkpt>
      <trkpt lat="43.61608" lon="0.77174">
        <ele>153.57944350073</ele>
        <time>2020-10-03T14:36:24.000Z</time>
      </trkpt>
      <trkpt lat="43.61606" lon="0.77171">
        <ele>153</ele>
        <time>2020-10-03T14:36:25.000Z</time>
      </trkpt>
      <trkpt lat="43.61605" lon="0.77168">
        <ele>153.40658846035</ele>
        <time>2020-10-03T14:36:26.000Z</time>
      </trkpt>
      <trkpt lat="43.61603" lon="0.77165">
        <ele>154</ele>
        <time>2020-10-03T14:36:27.000Z</time>
      </trkpt>
      <trkpt lat="43.61602" lon="0.77163">
        <ele>154</ele>
        <time>2020-10-03T14:36:28.000Z</time>
      </trkpt>
      <trkpt lat="43.616" lon="0.7716">
        <ele>153.58182156696</ele>
        <time>2020-10-03T14:36:29.000Z</time>
      </trkpt>
      <trkpt lat="43.61599" lon="0.77156">
        <ele>153</ele>
        <time>2020-10-03T14:36:30.000Z</time>
      </trkpt>
      <trkpt lat="43.61597" lon="0.77153">
        <ele>153</ele>
        <time>2020-10-03T14:36:31.000Z</time>
      </trkpt>
      <trkpt lat="43.61596" lon="0.77149">
        <ele>153</ele>
        <time>2020-10-03T14:36:32.000Z</time>
      </trkpt>
      <trkpt lat="43.61595" lon="0.77145">
        <ele>153</ele>
        <time>2020-10-03T14:36:33.000Z</time>
      </trkpt>
      <trkpt lat="43.61594" lon="0.77141">
        <ele>153</ele>
        <time>2020-10-03T14:36:34.000Z</time>
      </trkpt>
      <trkpt lat="43.61592" lon="0.77138">
        <ele>153</ele>
        <time>2020-10-03T14:36:35.000Z</time>
      </trkpt>
      <trkpt lat="43.61591" lon="0.77134">
        <ele>153</ele>
        <time>2020-10-03T14:36:36.000Z</time>
      </trkpt>
      <trkpt lat="43.6159" lon="0.7713">
        <ele>153</ele>
        <time>2020-10-03T14:36:37.000Z</time>
      </trkpt>
      <trkpt lat="43.61589" lon="0.77127">
        <ele>152.6219502677</ele>
        <time>2020-10-03T14:36:38.000Z</time>
      </trkpt>
      <trkpt lat="43.61588" lon="0.77123">
        <ele>152</ele>
        <time>2020-10-03T14:36:39.000Z</time>
      </trkpt>
      <trkpt lat="43.61586" lon="0.7712">
        <ele>152</ele>
        <time>2020-10-03T14:36:40.000Z</time>
      </trkpt>
      <trkpt lat="43.61585" lon="0.77117">
        <ele>152</ele>
        <time>2020-10-03T14:36:41.000Z</time>
      </trkpt>
      <trkpt lat="43.61583" lon="0.77114">
        <ele>152</ele>
        <time>2020-10-03T14:36:42.000Z</time>
      </trkpt>
      <trkpt lat="43.61581" lon="0.77111">
        <ele>152</ele>
        <time>2020-10-03T14:36:43.000Z</time>
      </trkpt>
      <trkpt lat="43.6158" lon="0.77108">
        <ele>152</ele>
        <time>2020-10-03T14:36:44.000Z</time>
      </trkpt>
      <trkpt lat="43.61578" lon="0.77106">
        <ele>151.577986284</ele>
        <time>2020-10-03T14:36:45.000Z</time>
      </trkpt>
      <trkpt lat="43.61576" lon="0.77104">
        <ele>151</ele>
        <time>2020-10-03T14:36:46.000Z</time>
      </trkpt>
      <trkpt lat="43.61574" lon="0.77101">
        <ele>151</ele>
        <time>2020-10-03T14:36:47.000Z</time>
      </trkpt>
      <trkpt lat="43.61572" lon="0.77099">
        <ele>151</ele>
        <time>2020-10-03T14:36:48.000Z</time>
      </trkpt>
      <trkpt lat="43.6157" lon="0.77096">
        <ele>151</ele>
        <time>2020-10-03T14:36:49.000Z</time>
      </trkpt>
      <trkpt lat="43.61568" lon="0.77093">
        <ele>151</ele>
        <time>2020-10-03T14:36:50.000Z</time>
      </trkpt>
      <trkpt lat="43.61566" lon="0.7709">
        <ele>151</ele>
        <time>2020-10-03T14:36:51.000Z</time>
      </trkpt>
      <trkpt lat="43.61564" lon="0.77087">
        <ele>151</ele>
        <time>2020-10-03T14:36:52.000Z</time>
      </trkpt>
      <trkpt lat="43.61562" lon="0.77085">
        <ele>151</ele>
        <time>2020-10-03T14:36:53.000Z</time>
      </trkpt>
      <trkpt lat="43.61561" lon="0.77081">
        <ele>151</ele>
        <time>2020-10-03T14:36:54.000Z</time>
      </trkpt>
      <trkpt lat="43.61559" lon="0.77078">
        <ele>151</ele>
        <time>2020-10-03T14:36:55.000Z</time>
      </trkpt>
      <trkpt lat="43.61558" lon="0.77075">
        <ele>151</ele>
        <time>2020-10-03T14:36:56.000Z</time>
      </trkpt>
      <trkpt lat="43.61556" lon="0.77072">
        <ele>151.42477996398</ele>
        <time>2020-10-03T14:36:57.000Z</time>
      </trkpt>
      <trkpt lat="43.61555" lon="0.77069">
        <ele>152</ele>
        <time>2020-10-03T14:36:58.000Z</time>
      </trkpt>
      <trkpt lat="43.61553" lon="0.77067">
        <ele>152</ele>
        <time>2020-10-03T14:36:59.000Z</time>
      </trkpt>
      <trkpt lat="43.61551" lon="0.77064">
        <ele>152</ele>
        <time>2020-10-03T14:37:00.000Z</time>
      </trkpt>
      <trkpt lat="43.6155" lon="0.77061">
        <ele>152</ele>
        <time>2020-10-03T14:37:01.000Z</time>
      </trkpt>
      <trkpt lat="43.61548" lon="0.77059">
        <ele>152</ele>
        <time>2020-10-03T14:37:02.000Z</time>
      </trkpt>
      <trkpt lat="43.61546" lon="0.77056">
        <ele>151.58163318618</ele>
        <time>2020-10-03T14:37:03.000Z</time>
      </trkpt>
      <trkpt lat="43.61544" lon="0.77054">
        <ele>151</ele>
        <time>2020-10-03T14:37:04.000Z</time>
      </trkpt>
      <trkpt lat="43.61543" lon="0.77051">
        <ele>151</ele>
        <time>2020-10-03T14:37:05.000Z</time>
      </trkpt>
      <trkpt lat="43.61541" lon="0.77048">
        <ele>151</ele>
        <time>2020-10-03T14:37:06.000Z</time>
      </trkpt>
      <trkpt lat="43.61539" lon="0.77046">
        <ele>151</ele>
        <time>2020-10-03T14:37:07.000Z</time>
      </trkpt>
      <trkpt lat="43.61537" lon="0.77043">
        <ele>151</ele>
        <time>2020-10-03T14:37:08.000Z</time>
      </trkpt>
      <trkpt lat="43.61536" lon="0.7704">
        <ele>151</ele>
        <time>2020-10-03T14:37:09.000Z</time>
      </trkpt>
      <trkpt lat="43.61535" lon="0.77037">
        <ele>151</ele>
        <time>2020-10-03T14:37:10.000Z</time>
      </trkpt>
      <trkpt lat="43.61535" lon="0.77034">
        <ele>150.55356571429</ele>
        <time>2020-10-03T14:37:11.000Z</time>
      </trkpt>
      <trkpt lat="43.61535" lon="0.77031">
        <ele>150.43182545454</ele>
        <time>2020-10-03T14:37:12.000Z</time>
      </trkpt>
      <trkpt lat="43.61535" lon="0.77029">
        <ele>151</ele>
        <time>2020-10-03T14:37:13.000Z</time>
      </trkpt>
      <trkpt lat="43.61536" lon="0.77026">
        <ele>151</ele>
        <time>2020-10-03T14:37:14.000Z</time>
      </trkpt>
      <trkpt lat="43.61537" lon="0.77022">
        <ele>151</ele>
        <time>2020-10-03T14:37:16.000Z</time>
      </trkpt>
      <trkpt lat="43.61539" lon="0.77018">
        <ele>151</ele>
        <time>2020-10-03T14:37:18.000Z</time>
      </trkpt>
      <trkpt lat="43.61541" lon="0.77014">
        <ele>151</ele>
        <time>2020-10-03T14:37:20.000Z</time>
      </trkpt>
      <trkpt lat="43.61542" lon="0.77011">
        <ele>151</ele>
        <time>2020-10-03T14:37:22.000Z</time>
      </trkpt>
      <trkpt lat="43.61544" lon="0.77007">
        <ele>151</ele>
        <time>2020-10-03T14:37:24.000Z</time>
      </trkpt>
      <trkpt lat="43.61544" lon="0.77003">
        <ele>151</ele>
        <time>2020-10-03T14:37:26.000Z</time>
      </trkpt>
      <trkpt lat="43.61546" lon="0.76999">
        <ele>151</ele>
        <time>2020-10-03T14:37:28.000Z</time>
      </trkpt>
      <trkpt lat="43.61548" lon="0.76996">
        <ele>151</ele>
        <time>2020-10-03T14:37:30.000Z</time>
      </trkpt>
      <trkpt lat="43.61549" lon="0.76993">
        <ele>151</ele>
        <time>2020-10-03T14:37:32.000Z</time>
      </trkpt>
      <trkpt lat="43.61551" lon="0.7699">
        <ele>151</ele>
        <time>2020-10-03T14:37:34.000Z</time>
      </trkpt>
      <trkpt lat="43.61553" lon="0.76987">
        <ele>150.54128892855</ele>
        <time>2020-10-03T14:37:36.000Z</time>
      </trkpt>
      <trkpt lat="43.61553" lon="0.76985">
        <ele>150</ele>
        <time>2020-10-03T14:37:38.000Z</time>
      </trkpt>
      <trkpt lat="43.61553" lon="0.76987">
        <ele>151</ele>
        <time>2020-10-03T14:38:06.000Z</time>
      </trkpt>
      <trkpt lat="43.61551" lon="0.76988">
        <ele>150</ele>
        <time>2020-10-03T14:39:24.000Z</time>
      </trkpt>
      <trkpt lat="43.61549" lon="0.76989">
        <ele>150</ele>
        <time>2020-10-03T14:40:12.000Z</time>
      </trkpt>
      <trkpt lat="43.61551" lon="0.76989">
        <ele>150</ele>
        <time>2020-10-03T14:42:21.000Z</time>
      </trkpt>
      <trkpt lat="43.61553" lon="0.76987">
        <ele>150</ele>
        <time>2020-10-03T14:42:37.000Z</time>
      </trkpt>
      <trkpt lat="43.61554" lon="0.76989">
        <ele>150</ele>
        <time>2020-10-03T14:43:40.000Z</time>
      </trkpt>
      <trkpt lat="43.61556" lon="0.76988">
        <ele>150</ele>
        <time>2020-10-03T14:43:51.000Z</time>
      </trkpt>
      <trkpt lat="43.61558" lon="0.76986">
        <ele>150</ele>
        <time>2020-10-03T14:43:56.000Z</time>
      </trkpt>
      <trkpt lat="43.61559" lon="0.76985">
        <ele>150</ele>
        <time>2020-10-03T14:43:58.000Z</time>
      </trkpt>
      <trkpt lat="43.61561" lon="0.76983">
        <ele>150</ele>
        <time>2020-10-03T14:44:00.000Z</time>
      </trkpt>
      <trkpt lat="43.61563" lon="0.76981">
        <ele>149</ele>
        <time>2020-10-03T14:44:02.000Z</time>
      </trkpt>
      <trkpt lat="43.61564" lon="0.76979">
        <ele>149.38596707911</ele>
        <time>2020-10-03T14:44:05.000Z</time>
      </trkpt>
      <trkpt lat="43.61566" lon="0.76975">
        <ele>150</ele>
        <time>2020-10-03T14:44:07.000Z</time>
      </trkpt>
      <trkpt lat="43.61568" lon="0.76973">
        <ele>150</ele>
        <time>2020-10-03T14:44:08.000Z</time>
      </trkpt>
      <trkpt lat="43.6157" lon="0.76971">
        <ele>150</ele>
        <time>2020-10-03T14:44:09.000Z</time>
      </trkpt>
      <trkpt lat="43.61572" lon="0.76969">
        <ele>150</ele>
        <time>2020-10-03T14:44:10.000Z</time>
      </trkpt>
      <trkpt lat="43.61574" lon="0.76967">
        <ele>150</ele>
        <time>2020-10-03T14:44:11.000Z</time>
      </trkpt>
      <trkpt lat="43.61576" lon="0.76965">
        <ele>149.56250285714</ele>
        <time>2020-10-03T14:44:12.000Z</time>
      </trkpt>
      <trkpt lat="43.61579" lon="0.76963">
        <ele>149</ele>
        <time>2020-10-03T14:44:13.000Z</time>
      </trkpt>
      <trkpt lat="43.61581" lon="0.76961">
        <ele>149</ele>
        <time>2020-10-03T14:44:14.000Z</time>
      </trkpt>
      <trkpt lat="43.61583" lon="0.76959">
        <ele>149</ele>
        <time>2020-10-03T14:44:15.000Z</time>
      </trkpt>
      <trkpt lat="43.61585" lon="0.76958">
        <ele>149</ele>
        <time>2020-10-03T14:44:16.000Z</time>
      </trkpt>
      <trkpt lat="43.61587" lon="0.76956">
        <ele>149</ele>
        <time>2020-10-03T14:44:17.000Z</time>
      </trkpt>
      <trkpt lat="43.61589" lon="0.76954">
        <ele>149</ele>
        <time>2020-10-03T14:44:18.000Z</time>
      </trkpt>
      <trkpt lat="43.6159" lon="0.76952">
        <ele>149</ele>
        <time>2020-10-03T14:44:19.000Z</time>
      </trkpt>
      <trkpt lat="43.61592" lon="0.7695">
        <ele>149.4336267147</ele>
        <time>2020-10-03T14:44:20.000Z</time>
      </trkpt>
      <trkpt lat="43.61594" lon="0.76949">
        <ele>150</ele>
        <time>2020-10-03T14:44:21.000Z</time>
      </trkpt>
      <trkpt lat="43.61597" lon="0.76947">
        <ele>150</ele>
        <time>2020-10-03T14:44:22.000Z</time>
      </trkpt>
      <trkpt lat="43.61599" lon="0.76944">
        <ele>150</ele>
        <time>2020-10-03T14:44:23.000Z</time>
      </trkpt>
      <trkpt lat="43.616" lon="0.76942">
        <ele>150</ele>
        <time>2020-10-03T14:44:24.000Z</time>
      </trkpt>
      <trkpt lat="43.61602" lon="0.76939">
        <ele>150</ele>
        <time>2020-10-03T14:44:25.000Z</time>
      </trkpt>
      <trkpt lat="43.61604" lon="0.76936">
        <ele>150</ele>
        <time>2020-10-03T14:44:26.000Z</time>
      </trkpt>
      <trkpt lat="43.61606" lon="0.76934">
        <ele>150</ele>
        <time>2020-10-03T14:44:27.000Z</time>
      </trkpt>
      <trkpt lat="43.61608" lon="0.76932">
        <ele>150</ele>
        <time>2020-10-03T14:44:28.000Z</time>
      </trkpt>
      <trkpt lat="43.6161" lon="0.7693">
        <ele>150</ele>
        <time>2020-10-03T14:44:29.000Z</time>
      </trkpt>
      <trkpt lat="43.61611" lon="0.76928">
        <ele>150</ele>
        <time>2020-10-03T14:44:30.000Z</time>
      </trkpt>
      <trkpt lat="43.61613" lon="0.76926">
        <ele>149.6463426056</ele>
        <time>2020-10-03T14:44:31.000Z</time>
      </trkpt>
      <trkpt lat="43.61615" lon="0.76925">
        <ele>149</ele>
        <time>2020-10-03T14:44:32.000Z</time>
      </trkpt>
      <trkpt lat="43.61617" lon="0.76924">
        <ele>149</ele>
        <time>2020-10-03T14:44:33.000Z</time>
      </trkpt>
      <trkpt lat="43.61619" lon="0.76922">
        <ele>149.39655286562</ele>
        <time>2020-10-03T14:44:34.000Z</time>
      </trkpt>
      <trkpt lat="43.61621" lon="0.7692">
        <ele>150</ele>
        <time>2020-10-03T14:44:35.000Z</time>
      </trkpt>
      <trkpt lat="43.61623" lon="0.76918">
        <ele>150</ele>
        <time>2020-10-03T14:44:36.000Z</time>
      </trkpt>
      <trkpt lat="43.61624" lon="0.76916">
        <ele>150</ele>
        <time>2020-10-03T14:44:37.000Z</time>
      </trkpt>
      <trkpt lat="43.61626" lon="0.76914">
        <ele>150</ele>
        <time>2020-10-03T14:44:38.000Z</time>
      </trkpt>
      <trkpt lat="43.61627" lon="0.76912">
        <ele>150</ele>
        <time>2020-10-03T14:44:39.000Z</time>
      </trkpt>
      <trkpt lat="43.61629" lon="0.76909">
        <ele>150</ele>
        <time>2020-10-03T14:44:40.000Z</time>
      </trkpt>
      <trkpt lat="43.61631" lon="0.76907">
        <ele>150</ele>
        <time>2020-10-03T14:44:41.000Z</time>
      </trkpt>
      <trkpt lat="43.61632" lon="0.76905">
        <ele>150</ele>
        <time>2020-10-03T14:44:42.000Z</time>
      </trkpt>
      <trkpt lat="43.61634" lon="0.76903">
        <ele>150</ele>
        <time>2020-10-03T14:44:43.000Z</time>
      </trkpt>
      <trkpt lat="43.61637" lon="0.76901">
        <ele>150</ele>
        <time>2020-10-03T14:44:44.000Z</time>
      </trkpt>
      <trkpt lat="43.61639" lon="0.76899">
        <ele>150</ele>
        <time>2020-10-03T14:44:45.000Z</time>
      </trkpt>
      <trkpt lat="43.61642" lon="0.76896">
        <ele>150</ele>
        <time>2020-10-03T14:44:46.000Z</time>
      </trkpt>
      <trkpt lat="43.61644" lon="0.76894">
        <ele>150</ele>
        <time>2020-10-03T14:44:47.000Z</time>
      </trkpt>
      <trkpt lat="43.61646" lon="0.76892">
        <ele>149.6153824514</ele>
        <time>2020-10-03T14:44:48.000Z</time>
      </trkpt>
      <trkpt lat="43.61648" lon="0.76889">
        <ele>149</ele>
        <time>2020-10-03T14:44:49.000Z</time>
      </trkpt>
      <trkpt lat="43.61651" lon="0.76887">
        <ele>149</ele>
        <time>2020-10-03T14:44:50.000Z</time>
      </trkpt>
      <trkpt lat="43.61653" lon="0.76885">
        <ele>149</ele>
        <time>2020-10-03T14:44:51.000Z</time>
      </trkpt>
      <trkpt lat="43.61655" lon="0.76882">
        <ele>149</ele>
        <time>2020-10-03T14:44:52.000Z</time>
      </trkpt>
      <trkpt lat="43.61657" lon="0.76879">
        <ele>149</ele>
        <time>2020-10-03T14:44:53.000Z</time>
      </trkpt>
      <trkpt lat="43.61659" lon="0.76877">
        <ele>149</ele>
        <time>2020-10-03T14:44:54.000Z</time>
      </trkpt>
      <trkpt lat="43.61661" lon="0.76874">
        <ele>149</ele>
        <time>2020-10-03T14:44:55.000Z</time>
      </trkpt>
      <trkpt lat="43.61663" lon="0.76871">
        <ele>149</ele>
        <time>2020-10-03T14:44:56.000Z</time>
      </trkpt>
      <trkpt lat="43.61665" lon="0.76869">
        <ele>149</ele>
        <time>2020-10-03T14:44:57.000Z</time>
      </trkpt>
      <trkpt lat="43.61667" lon="0.76866">
        <ele>149</ele>
        <time>2020-10-03T14:44:58.000Z</time>
      </trkpt>
      <trkpt lat="43.61668" lon="0.76863">
        <ele>149</ele>
        <time>2020-10-03T14:44:59.000Z</time>
      </trkpt>
      <trkpt lat="43.6167" lon="0.76859">
        <ele>149</ele>
        <time>2020-10-03T14:45:00.000Z</time>
      </trkpt>
      <trkpt lat="43.61672" lon="0.76856">
        <ele>149</ele>
        <time>2020-10-03T14:45:01.000Z</time>
      </trkpt>
      <trkpt lat="43.61673" lon="0.76853">
        <ele>149</ele>
        <time>2020-10-03T14:45:02.000Z</time>
      </trkpt>
      <trkpt lat="43.61675" lon="0.7685">
        <ele>149</ele>
        <time>2020-10-03T14:45:03.000Z</time>
      </trkpt>
      <trkpt lat="43.61677" lon="0.76847">
        <ele>149</ele>
        <time>2020-10-03T14:45:04.000Z</time>
      </trkpt>
      <trkpt lat="43.61679" lon="0.76844">
        <ele>149</ele>
        <time>2020-10-03T14:45:05.000Z</time>
      </trkpt>
      <trkpt lat="43.6168" lon="0.76842">
        <ele>149</ele>
        <time>2020-10-03T14:45:06.000Z</time>
      </trkpt>
      <trkpt lat="43.61681" lon="0.76839">
        <ele>149</ele>
        <time>2020-10-03T14:45:07.000Z</time>
      </trkpt>
      <trkpt lat="43.61683" lon="0.76836">
        <ele>149</ele>
        <time>2020-10-03T14:45:08.000Z</time>
      </trkpt>
      <trkpt lat="43.61684" lon="0.76833">
        <ele>149</ele>
        <time>2020-10-03T14:45:09.000Z</time>
      </trkpt>
      <trkpt lat="43.61686" lon="0.7683">
        <ele>149</ele>
        <time>2020-10-03T14:45:10.000Z</time>
      </trkpt>
      <trkpt lat="43.61688" lon="0.76827">
        <ele>149</ele>
        <time>2020-10-03T14:45:11.000Z</time>
      </trkpt>
      <trkpt lat="43.61689" lon="0.76824">
        <ele>149</ele>
        <time>2020-10-03T14:45:12.000Z</time>
      </trkpt>
      <trkpt lat="43.61691" lon="0.76822">
        <ele>149</ele>
        <time>2020-10-03T14:45:13.000Z</time>
      </trkpt>
      <trkpt lat="43.61693" lon="0.76819">
        <ele>149</ele>
        <time>2020-10-03T14:45:14.000Z</time>
      </trkpt>
      <trkpt lat="43.61695" lon="0.76817">
        <ele>149</ele>
        <time>2020-10-03T14:45:15.000Z</time>
      </trkpt>
      <trkpt lat="43.61697" lon="0.76814">
        <ele>149</ele>
        <time>2020-10-03T14:45:16.000Z</time>
      </trkpt>
      <trkpt lat="43.61699" lon="0.76811">
        <ele>149</ele>
        <time>2020-10-03T14:45:17.000Z</time>
      </trkpt>
      <trkpt lat="43.61701" lon="0.76809">
        <ele>149</ele>
        <time>2020-10-03T14:45:18.000Z</time>
      </trkpt>
      <trkpt lat="43.61703" lon="0.76806">
        <ele>149</ele>
        <time>2020-10-03T14:45:19.000Z</time>
      </trkpt>
      <trkpt lat="43.61705" lon="0.76803">
        <ele>149</ele>
        <time>2020-10-03T14:45:20.000Z</time>
      </trkpt>
      <trkpt lat="43.61706" lon="0.76801">
        <ele>149</ele>
        <time>2020-10-03T14:45:21.000Z</time>
      </trkpt>
      <trkpt lat="43.61708" lon="0.76798">
        <ele>149</ele>
        <time>2020-10-03T14:45:22.000Z</time>
      </trkpt>
      <trkpt lat="43.6171" lon="0.76795">
        <ele>149</ele>
        <time>2020-10-03T14:45:23.000Z</time>
      </trkpt>
      <trkpt lat="43.61712" lon="0.76792">
        <ele>149</ele>
        <time>2020-10-03T14:45:24.000Z</time>
      </trkpt>
      <trkpt lat="43.61714" lon="0.76789">
        <ele>149</ele>
        <time>2020-10-03T14:45:25.000Z</time>
      </trkpt>
      <trkpt lat="43.61715" lon="0.76787">
        <ele>149</ele>
        <time>2020-10-03T14:45:26.000Z</time>
      </trkpt>
      <trkpt lat="43.61717" lon="0.76785">
        <ele>149</ele>
        <time>2020-10-03T14:45:27.000Z</time>
      </trkpt>
      <trkpt lat="43.61719" lon="0.76782">
        <ele>149</ele>
        <time>2020-10-03T14:45:29.000Z</time>
      </trkpt>
      <trkpt lat="43.61721" lon="0.76777">
        <ele>149.15293798753</ele>
        <time>2020-10-03T14:45:31.000Z</time>
      </trkpt>
      <trkpt lat="43.61723" lon="0.76775">
        <ele>150</ele>
        <time>2020-10-03T14:45:32.000Z</time>
      </trkpt>
      <trkpt lat="43.61725" lon="0.76772">
        <ele>150</ele>
        <time>2020-10-03T14:45:33.000Z</time>
      </trkpt>
      <trkpt lat="43.61727" lon="0.7677">
        <ele>149.6700032</ele>
        <time>2020-10-03T14:45:34.000Z</time>
      </trkpt>
      <trkpt lat="43.61728" lon="0.76767">
        <ele>149</ele>
        <time>2020-10-03T14:45:35.000Z</time>
      </trkpt>
      <trkpt lat="43.6173" lon="0.76764">
        <ele>149</ele>
        <time>2020-10-03T14:45:36.000Z</time>
      </trkpt>
      <trkpt lat="43.61732" lon="0.76761">
        <ele>149</ele>
        <time>2020-10-03T14:45:37.000Z</time>
      </trkpt>
      <trkpt lat="43.61734" lon="0.76758">
        <ele>149</ele>
        <time>2020-10-03T14:45:38.000Z</time>
      </trkpt>
      <trkpt lat="43.61735" lon="0.76756">
        <ele>147.79999385605</ele>
        <time>2020-10-03T14:45:39.000Z</time>
      </trkpt>
      <trkpt lat="43.61737" lon="0.76753">
        <ele>146</ele>
        <time>2020-10-03T14:45:40.000Z</time>
      </trkpt>
      <trkpt lat="43.61739" lon="0.76751">
        <ele>146</ele>
        <time>2020-10-03T14:45:41.000Z</time>
      </trkpt>
      <trkpt lat="43.61741" lon="0.76748">
        <ele>146.81176683181</ele>
        <time>2020-10-03T14:45:42.000Z</time>
      </trkpt>
      <trkpt lat="43.61742" lon="0.76746">
        <ele>149</ele>
        <time>2020-10-03T14:45:43.000Z</time>
      </trkpt>
      <trkpt lat="43.61744" lon="0.76744">
        <ele>149</ele>
        <time>2020-10-03T14:45:44.000Z</time>
      </trkpt>
      <trkpt lat="43.61746" lon="0.76741">
        <ele>149</ele>
        <time>2020-10-03T14:45:45.000Z</time>
      </trkpt>
      <trkpt lat="43.61747" lon="0.76739">
        <ele>149</ele>
        <time>2020-10-03T14:45:46.000Z</time>
      </trkpt>
      <trkpt lat="43.61749" lon="0.76736">
        <ele>149</ele>
        <time>2020-10-03T14:45:47.000Z</time>
      </trkpt>
      <trkpt lat="43.61751" lon="0.76734">
        <ele>149</ele>
        <time>2020-10-03T14:45:48.000Z</time>
      </trkpt>
      <trkpt lat="43.61752" lon="0.76731">
        <ele>149</ele>
        <time>2020-10-03T14:45:49.000Z</time>
      </trkpt>
      <trkpt lat="43.61754" lon="0.76729">
        <ele>149</ele>
        <time>2020-10-03T14:45:50.000Z</time>
      </trkpt>
      <trkpt lat="43.61756" lon="0.76726">
        <ele>149</ele>
        <time>2020-10-03T14:45:51.000Z</time>
      </trkpt>
      <trkpt lat="43.61758" lon="0.76723">
        <ele>149</ele>
        <time>2020-10-03T14:45:52.000Z</time>
      </trkpt>
      <trkpt lat="43.61759" lon="0.7672">
        <ele>149</ele>
        <time>2020-10-03T14:45:53.000Z</time>
      </trkpt>
      <trkpt lat="43.61761" lon="0.76717">
        <ele>149</ele>
        <time>2020-10-03T14:45:54.000Z</time>
      </trkpt>
      <trkpt lat="43.61762" lon="0.76715">
        <ele>149</ele>
        <time>2020-10-03T14:45:55.000Z</time>
      </trkpt>
      <trkpt lat="43.61764" lon="0.76712">
        <ele>149</ele>
        <time>2020-10-03T14:45:56.000Z</time>
      </trkpt>
      <trkpt lat="43.61766" lon="0.76709">
        <ele>149</ele>
        <time>2020-10-03T14:45:57.000Z</time>
      </trkpt>
      <trkpt lat="43.61768" lon="0.76706">
        <ele>149</ele>
        <time>2020-10-03T14:45:58.000Z</time>
      </trkpt>
      <trkpt lat="43.61769" lon="0.76703">
        <ele>149.43636617522</ele>
        <time>2020-10-03T14:45:59.000Z</time>
      </trkpt>
      <trkpt lat="43.61771" lon="0.76701">
        <ele>150</ele>
        <time>2020-10-03T14:46:00.000Z</time>
      </trkpt>
      <trkpt lat="43.61773" lon="0.76698">
        <ele>150</ele>
        <time>2020-10-03T14:46:01.000Z</time>
      </trkpt>
      <trkpt lat="43.61775" lon="0.76696">
        <ele>150</ele>
        <time>2020-10-03T14:46:02.000Z</time>
      </trkpt>
      <trkpt lat="43.61777" lon="0.76694">
        <ele>150</ele>
        <time>2020-10-03T14:46:03.000Z</time>
      </trkpt>
      <trkpt lat="43.61779" lon="0.76691">
        <ele>150</ele>
        <time>2020-10-03T14:46:04.000Z</time>
      </trkpt>
      <trkpt lat="43.61781" lon="0.76689">
        <ele>150</ele>
        <time>2020-10-03T14:46:05.000Z</time>
      </trkpt>
      <trkpt lat="43.61783" lon="0.76687">
        <ele>150</ele>
        <time>2020-10-03T14:46:06.000Z</time>
      </trkpt>
      <trkpt lat="43.61786" lon="0.76686">
        <ele>150</ele>
        <time>2020-10-03T14:46:07.000Z</time>
      </trkpt>
      <trkpt lat="43.61789" lon="0.76685">
        <ele>150</ele>
        <time>2020-10-03T14:46:08.000Z</time>
      </trkpt>
      <trkpt lat="43.61791" lon="0.76684">
        <ele>150</ele>
        <time>2020-10-03T14:46:09.000Z</time>
      </trkpt>
      <trkpt lat="43.61793" lon="0.76684">
        <ele>150</ele>
        <time>2020-10-03T14:46:10.000Z</time>
      </trkpt>
      <trkpt lat="43.61796" lon="0.76683">
        <ele>150</ele>
        <time>2020-10-03T14:46:11.000Z</time>
      </trkpt>
      <trkpt lat="43.61799" lon="0.76683">
        <ele>150</ele>
        <time>2020-10-03T14:46:12.000Z</time>
      </trkpt>
      <trkpt lat="43.61801" lon="0.76684">
        <ele>150</ele>
        <time>2020-10-03T14:46:13.000Z</time>
      </trkpt>
      <trkpt lat="43.61804" lon="0.76685">
        <ele>150</ele>
        <time>2020-10-03T14:46:14.000Z</time>
      </trkpt>
      <trkpt lat="43.61806" lon="0.76686">
        <ele>150</ele>
        <time>2020-10-03T14:46:15.000Z</time>
      </trkpt>
      <trkpt lat="43.61809" lon="0.76687">
        <ele>150</ele>
        <time>2020-10-03T14:46:16.000Z</time>
      </trkpt>
      <trkpt lat="43.61811" lon="0.76688">
        <ele>150</ele>
        <time>2020-10-03T14:46:17.000Z</time>
      </trkpt>
      <trkpt lat="43.61813" lon="0.7669">
        <ele>150</ele>
        <time>2020-10-03T14:46:18.000Z</time>
      </trkpt>
      <trkpt lat="43.61815" lon="0.76692">
        <ele>150</ele>
        <time>2020-10-03T14:46:19.000Z</time>
      </trkpt>
      <trkpt lat="43.61818" lon="0.76694">
        <ele>150.423725688</ele>
        <time>2020-10-03T14:46:20.000Z</time>
      </trkpt>
      <trkpt lat="43.6182" lon="0.76696">
        <ele>151</ele>
        <time>2020-10-03T14:46:21.000Z</time>
      </trkpt>
      <trkpt lat="43.61822" lon="0.76698">
        <ele>151</ele>
        <time>2020-10-03T14:46:22.000Z</time>
      </trkpt>
      <trkpt lat="43.61825" lon="0.767">
        <ele>151</ele>
        <time>2020-10-03T14:46:23.000Z</time>
      </trkpt>
      <trkpt lat="43.61827" lon="0.76703">
        <ele>151</ele>
        <time>2020-10-03T14:46:24.000Z</time>
      </trkpt>
      <trkpt lat="43.61829" lon="0.76705">
        <ele>151</ele>
        <time>2020-10-03T14:46:25.000Z</time>
      </trkpt>
      <trkpt lat="43.61832" lon="0.76707">
        <ele>151</ele>
        <time>2020-10-03T14:46:26.000Z</time>
      </trkpt>
      <trkpt lat="43.61834" lon="0.7671">
        <ele>151</ele>
        <time>2020-10-03T14:46:27.000Z</time>
      </trkpt>
      <trkpt lat="43.61836" lon="0.76712">
        <ele>151</ele>
        <time>2020-10-03T14:46:28.000Z</time>
      </trkpt>
      <trkpt lat="43.61838" lon="0.76715">
        <ele>151</ele>
        <time>2020-10-03T14:46:29.000Z</time>
      </trkpt>
      <trkpt lat="43.6184" lon="0.76717">
        <ele>151</ele>
        <time>2020-10-03T14:46:30.000Z</time>
      </trkpt>
      <trkpt lat="43.61842" lon="0.7672">
        <ele>151</ele>
        <time>2020-10-03T14:46:31.000Z</time>
      </trkpt>
      <trkpt lat="43.61844" lon="0.76722">
        <ele>151</ele>
        <time>2020-10-03T14:46:32.000Z</time>
      </trkpt>
      <trkpt lat="43.61846" lon="0.76724">
        <ele>151</ele>
        <time>2020-10-03T14:46:33.000Z</time>
      </trkpt>
      <trkpt lat="43.61848" lon="0.76727">
        <ele>151</ele>
        <time>2020-10-03T14:46:34.000Z</time>
      </trkpt>
      <trkpt lat="43.6185" lon="0.76729">
        <ele>151</ele>
        <time>2020-10-03T14:46:35.000Z</time>
      </trkpt>
      <trkpt lat="43.61852" lon="0.76732">
        <ele>151</ele>
        <time>2020-10-03T14:46:36.000Z</time>
      </trkpt>
      <trkpt lat="43.61854" lon="0.76734">
        <ele>151</ele>
        <time>2020-10-03T14:46:37.000Z</time>
      </trkpt>
      <trkpt lat="43.61856" lon="0.76737">
        <ele>151</ele>
        <time>2020-10-03T14:46:38.000Z</time>
      </trkpt>
      <trkpt lat="43.61858" lon="0.76739">
        <ele>151</ele>
        <time>2020-10-03T14:46:39.000Z</time>
      </trkpt>
      <trkpt lat="43.6186" lon="0.76742">
        <ele>151</ele>
        <time>2020-10-03T14:46:40.000Z</time>
      </trkpt>
      <trkpt lat="43.61861" lon="0.76744">
        <ele>151</ele>
        <time>2020-10-03T14:46:41.000Z</time>
      </trkpt>
      <trkpt lat="43.61864" lon="0.76747">
        <ele>151</ele>
        <time>2020-10-03T14:46:42.000Z</time>
      </trkpt>
      <trkpt lat="43.61866" lon="0.76749">
        <ele>151</ele>
        <time>2020-10-03T14:46:43.000Z</time>
      </trkpt>
      <trkpt lat="43.61868" lon="0.76752">
        <ele>151</ele>
        <time>2020-10-03T14:46:44.000Z</time>
      </trkpt>
      <trkpt lat="43.6187" lon="0.76754">
        <ele>151</ele>
        <time>2020-10-03T14:46:45.000Z</time>
      </trkpt>
      <trkpt lat="43.61872" lon="0.76756">
        <ele>151</ele>
        <time>2020-10-03T14:46:46.000Z</time>
      </trkpt>
      <trkpt lat="43.61874" lon="0.76758">
        <ele>151</ele>
        <time>2020-10-03T14:46:47.000Z</time>
      </trkpt>
      <trkpt lat="43.61876" lon="0.7676">
        <ele>151</ele>
        <time>2020-10-03T14:46:48.000Z</time>
      </trkpt>
      <trkpt lat="43.61878" lon="0.76763">
        <ele>151</ele>
        <time>2020-10-03T14:46:49.000Z</time>
      </trkpt>
      <trkpt lat="43.6188" lon="0.76765">
        <ele>151</ele>
        <time>2020-10-03T14:46:50.000Z</time>
      </trkpt>
      <trkpt lat="43.61882" lon="0.76767">
        <ele>151</ele>
        <time>2020-10-03T14:46:51.000Z</time>
      </trkpt>
      <trkpt lat="43.61885" lon="0.76769">
        <ele>151</ele>
        <time>2020-10-03T14:46:52.000Z</time>
      </trkpt>
      <trkpt lat="43.61887" lon="0.76771">
        <ele>151</ele>
        <time>2020-10-03T14:46:53.000Z</time>
      </trkpt>
      <trkpt lat="43.61889" lon="0.76773">
        <ele>150.5545457719</ele>
        <time>2020-10-03T14:46:54.000Z</time>
      </trkpt>
      <trkpt lat="43.61891" lon="0.76776">
        <ele>150</ele>
        <time>2020-10-03T14:46:55.000Z</time>
      </trkpt>
      <trkpt lat="43.61893" lon="0.76778">
        <ele>150</ele>
        <time>2020-10-03T14:46:56.000Z</time>
      </trkpt>
      <trkpt lat="43.61895" lon="0.7678">
        <ele>150</ele>
        <time>2020-10-03T14:46:57.000Z</time>
      </trkpt>
      <trkpt lat="43.61898" lon="0.76783">
        <ele>150</ele>
        <time>2020-10-03T14:46:58.000Z</time>
      </trkpt>
      <trkpt lat="43.619" lon="0.76785">
        <ele>150</ele>
        <time>2020-10-03T14:46:59.000Z</time>
      </trkpt>
      <trkpt lat="43.61902" lon="0.76787">
        <ele>150</ele>
        <time>2020-10-03T14:47:00.000Z</time>
      </trkpt>
      <trkpt lat="43.61905" lon="0.76789">
        <ele>150</ele>
        <time>2020-10-03T14:47:01.000Z</time>
      </trkpt>
      <trkpt lat="43.61907" lon="0.76792">
        <ele>150</ele>
        <time>2020-10-03T14:47:02.000Z</time>
      </trkpt>
      <trkpt lat="43.61909" lon="0.76794">
        <ele>150</ele>
        <time>2020-10-03T14:47:03.000Z</time>
      </trkpt>
      <trkpt lat="43.61912" lon="0.76795">
        <ele>150</ele>
        <time>2020-10-03T14:47:04.000Z</time>
      </trkpt>
      <trkpt lat="43.61914" lon="0.76797">
        <ele>150</ele>
        <time>2020-10-03T14:47:05.000Z</time>
      </trkpt>
      <trkpt lat="43.61917" lon="0.76799">
        <ele>150</ele>
        <time>2020-10-03T14:47:06.000Z</time>
      </trkpt>
      <trkpt lat="43.61919" lon="0.768">
        <ele>150</ele>
        <time>2020-10-03T14:47:07.000Z</time>
      </trkpt>
      <trkpt lat="43.61921" lon="0.76802">
        <ele>150</ele>
        <time>2020-10-03T14:47:08.000Z</time>
      </trkpt>
      <trkpt lat="43.61924" lon="0.76804">
        <ele>150</ele>
        <time>2020-10-03T14:47:09.000Z</time>
      </trkpt>
      <trkpt lat="43.61926" lon="0.76805">
        <ele>150</ele>
        <time>2020-10-03T14:47:10.000Z</time>
      </trkpt>
      <trkpt lat="43.61929" lon="0.76807">
        <ele>150</ele>
        <time>2020-10-03T14:47:11.000Z</time>
      </trkpt>
      <trkpt lat="43.61931" lon="0.76809">
        <ele>150</ele>
        <time>2020-10-03T14:47:12.000Z</time>
      </trkpt>
      <trkpt lat="43.61934" lon="0.7681">
        <ele>150</ele>
        <time>2020-10-03T14:47:13.000Z</time>
      </trkpt>
      <trkpt lat="43.61936" lon="0.76812">
        <ele>150</ele>
        <time>2020-10-03T14:47:14.000Z</time>
      </trkpt>
      <trkpt lat="43.61939" lon="0.76813">
        <ele>150</ele>
        <time>2020-10-03T14:47:15.000Z</time>
      </trkpt>
      <trkpt lat="43.61942" lon="0.76815">
        <ele>150</ele>
        <time>2020-10-03T14:47:16.000Z</time>
      </trkpt>
      <trkpt lat="43.61945" lon="0.76816">
        <ele>150</ele>
        <time>2020-10-03T14:47:17.000Z</time>
      </trkpt>
      <trkpt lat="43.61947" lon="0.76818">
        <ele>150</ele>
        <time>2020-10-03T14:47:18.000Z</time>
      </trkpt>
      <trkpt lat="43.6195" lon="0.76819">
        <ele>150</ele>
        <time>2020-10-03T14:47:19.000Z</time>
      </trkpt>
      <trkpt lat="43.61953" lon="0.76821">
        <ele>150</ele>
        <time>2020-10-03T14:47:20.000Z</time>
      </trkpt>
      <trkpt lat="43.61955" lon="0.76822">
        <ele>148.18180548768</ele>
        <time>2020-10-03T14:47:21.000Z</time>
      </trkpt>
      <trkpt lat="43.61958" lon="0.76823">
        <ele>146</ele>
        <time>2020-10-03T14:47:22.000Z</time>
      </trkpt>
      <trkpt lat="43.61961" lon="0.76825">
        <ele>146</ele>
        <time>2020-10-03T14:47:23.000Z</time>
      </trkpt>
      <trkpt lat="43.61963" lon="0.76826">
        <ele>146</ele>
        <time>2020-10-03T14:47:24.000Z</time>
      </trkpt>
      <trkpt lat="43.61966" lon="0.76828">
        <ele>146</ele>
        <time>2020-10-03T14:47:25.000Z</time>
      </trkpt>
      <trkpt lat="43.61968" lon="0.76829">
        <ele>146</ele>
        <time>2020-10-03T14:47:26.000Z</time>
      </trkpt>
      <trkpt lat="43.6197" lon="0.7683">
        <ele>146</ele>
        <time>2020-10-03T14:47:27.000Z</time>
      </trkpt>
      <trkpt lat="43.61973" lon="0.76831">
        <ele>146</ele>
        <time>2020-10-03T14:47:28.000Z</time>
      </trkpt>
      <trkpt lat="43.61976" lon="0.76833">
        <ele>146</ele>
        <time>2020-10-03T14:47:29.000Z</time>
      </trkpt>
      <trkpt lat="43.61978" lon="0.76834">
        <ele>146</ele>
        <time>2020-10-03T14:47:30.000Z</time>
      </trkpt>
      <trkpt lat="43.61981" lon="0.76836">
        <ele>146</ele>
        <time>2020-10-03T14:47:31.000Z</time>
      </trkpt>
      <trkpt lat="43.61983" lon="0.76837">
        <ele>146</ele>
        <time>2020-10-03T14:47:32.000Z</time>
      </trkpt>
      <trkpt lat="43.61985" lon="0.76839">
        <ele>146</ele>
        <time>2020-10-03T14:47:33.000Z</time>
      </trkpt>
      <trkpt lat="43.61988" lon="0.7684">
        <ele>145.55357714286</ele>
        <time>2020-10-03T14:47:34.000Z</time>
      </trkpt>
      <trkpt lat="43.6199" lon="0.76841">
        <ele>145</ele>
        <time>2020-10-03T14:47:35.000Z</time>
      </trkpt>
      <trkpt lat="43.61993" lon="0.76842">
        <ele>145</ele>
        <time>2020-10-03T14:47:36.000Z</time>
      </trkpt>
      <trkpt lat="43.61995" lon="0.76843">
        <ele>145</ele>
        <time>2020-10-03T14:47:37.000Z</time>
      </trkpt>
      <trkpt lat="43.61998" lon="0.76845">
        <ele>145</ele>
        <time>2020-10-03T14:47:38.000Z</time>
      </trkpt>
      <trkpt lat="43.62" lon="0.76846">
        <ele>145</ele>
        <time>2020-10-03T14:47:39.000Z</time>
      </trkpt>
      <trkpt lat="43.62003" lon="0.76848">
        <ele>145</ele>
        <time>2020-10-03T14:47:40.000Z</time>
      </trkpt>
      <trkpt lat="43.62005" lon="0.76849">
        <ele>145</ele>
        <time>2020-10-03T14:47:41.000Z</time>
      </trkpt>
      <trkpt lat="43.62008" lon="0.7685">
        <ele>145</ele>
        <time>2020-10-03T14:47:42.000Z</time>
      </trkpt>
      <trkpt lat="43.6201" lon="0.76851">
        <ele>145</ele>
        <time>2020-10-03T14:47:43.000Z</time>
      </trkpt>
      <trkpt lat="43.62012" lon="0.76852">
        <ele>145</ele>
        <time>2020-10-03T14:47:44.000Z</time>
      </trkpt>
      <trkpt lat="43.62014" lon="0.76853">
        <ele>145</ele>
        <time>2020-10-03T14:47:45.000Z</time>
      </trkpt>
      <trkpt lat="43.62016" lon="0.76853">
        <ele>145</ele>
        <time>2020-10-03T14:47:46.000Z</time>
      </trkpt>
      <trkpt lat="43.62018" lon="0.76852">
        <ele>145.29710050829</ele>
        <time>2020-10-03T14:47:47.000Z</time>
      </trkpt>
      <trkpt lat="43.62021" lon="0.7685">
        <ele>146</ele>
        <time>2020-10-03T14:47:48.000Z</time>
      </trkpt>
      <trkpt lat="43.62023" lon="0.76848">
        <ele>146</ele>
        <time>2020-10-03T14:47:49.000Z</time>
      </trkpt>
      <trkpt lat="43.62024" lon="0.76845">
        <ele>146</ele>
        <time>2020-10-03T14:47:50.000Z</time>
      </trkpt>
      <trkpt lat="43.62025" lon="0.76842">
        <ele>146</ele>
        <time>2020-10-03T14:47:51.000Z</time>
      </trkpt>
      <trkpt lat="43.62026" lon="0.76839">
        <ele>146</ele>
        <time>2020-10-03T14:47:52.000Z</time>
      </trkpt>
      <trkpt lat="43.62027" lon="0.76836">
        <ele>146</ele>
        <time>2020-10-03T14:47:53.000Z</time>
      </trkpt>
      <trkpt lat="43.62028" lon="0.76833">
        <ele>146</ele>
        <time>2020-10-03T14:47:54.000Z</time>
      </trkpt>
      <trkpt lat="43.6203" lon="0.7683">
        <ele>146</ele>
        <time>2020-10-03T14:47:55.000Z</time>
      </trkpt>
      <trkpt lat="43.62031" lon="0.76827">
        <ele>146</ele>
        <time>2020-10-03T14:47:56.000Z</time>
      </trkpt>
      <trkpt lat="43.62032" lon="0.76824">
        <ele>145.59349178929</ele>
        <time>2020-10-03T14:47:57.000Z</time>
      </trkpt>
      <trkpt lat="43.62033" lon="0.76821">
        <ele>145</ele>
        <time>2020-10-03T14:47:58.000Z</time>
      </trkpt>
      <trkpt lat="43.62034" lon="0.76818">
        <ele>145.34579450432</ele>
        <time>2020-10-03T14:47:59.000Z</time>
      </trkpt>
      <trkpt lat="43.62035" lon="0.76814">
        <ele>146</ele>
        <time>2020-10-03T14:48:00.000Z</time>
      </trkpt>
      <trkpt lat="43.62036" lon="0.76811">
        <ele>146</ele>
        <time>2020-10-03T14:48:01.000Z</time>
      </trkpt>
      <trkpt lat="43.62037" lon="0.76807">
        <ele>146</ele>
        <time>2020-10-03T14:48:02.000Z</time>
      </trkpt>
      <trkpt lat="43.62038" lon="0.76804">
        <ele>146</ele>
        <time>2020-10-03T14:48:03.000Z</time>
      </trkpt>
      <trkpt lat="43.62039" lon="0.76801">
        <ele>146</ele>
        <time>2020-10-03T14:48:04.000Z</time>
      </trkpt>
      <trkpt lat="43.6204" lon="0.76798">
        <ele>146</ele>
        <time>2020-10-03T14:48:05.000Z</time>
      </trkpt>
      <trkpt lat="43.62041" lon="0.76795">
        <ele>146</ele>
        <time>2020-10-03T14:48:06.000Z</time>
      </trkpt>
      <trkpt lat="43.62042" lon="0.76792">
        <ele>146</ele>
        <time>2020-10-03T14:48:07.000Z</time>
      </trkpt>
      <trkpt lat="43.62043" lon="0.76788">
        <ele>146</ele>
        <time>2020-10-03T14:48:08.000Z</time>
      </trkpt>
      <trkpt lat="43.62044" lon="0.76785">
        <ele>146</ele>
        <time>2020-10-03T14:48:09.000Z</time>
      </trkpt>
      <trkpt lat="43.62045" lon="0.76781">
        <ele>146.35514510611</ele>
        <time>2020-10-03T14:48:10.000Z</time>
      </trkpt>
      <trkpt lat="43.62046" lon="0.76778">
        <ele>147</ele>
        <time>2020-10-03T14:48:11.000Z</time>
      </trkpt>
      <trkpt lat="43.62047" lon="0.76775">
        <ele>147</ele>
        <time>2020-10-03T14:48:12.000Z</time>
      </trkpt>
      <trkpt lat="43.62049" lon="0.76772">
        <ele>147</ele>
        <time>2020-10-03T14:48:13.000Z</time>
      </trkpt>
      <trkpt lat="43.62049" lon="0.76769">
        <ele>147</ele>
        <time>2020-10-03T14:48:14.000Z</time>
      </trkpt>
      <trkpt lat="43.6205" lon="0.76766">
        <ele>147</ele>
        <time>2020-10-03T14:48:15.000Z</time>
      </trkpt>
      <trkpt lat="43.62051" lon="0.76763">
        <ele>147</ele>
        <time>2020-10-03T14:48:16.000Z</time>
      </trkpt>
      <trkpt lat="43.62051" lon="0.7676">
        <ele>147</ele>
        <time>2020-10-03T14:48:17.000Z</time>
      </trkpt>
      <trkpt lat="43.62052" lon="0.76758">
        <ele>147</ele>
        <time>2020-10-03T14:48:18.000Z</time>
      </trkpt>
      <trkpt lat="43.62053" lon="0.76755">
        <ele>147</ele>
        <time>2020-10-03T14:48:19.000Z</time>
      </trkpt>
      <trkpt lat="43.62054" lon="0.76752">
        <ele>147</ele>
        <time>2020-10-03T14:48:20.000Z</time>
      </trkpt>
      <trkpt lat="43.62055" lon="0.76749">
        <ele>147</ele>
        <time>2020-10-03T14:48:21.000Z</time>
      </trkpt>
      <trkpt lat="43.62056" lon="0.76746">
        <ele>148.29869007248</ele>
        <time>2020-10-03T14:48:22.000Z</time>
      </trkpt>
      <trkpt lat="43.62058" lon="0.76743">
        <ele>151</ele>
        <time>2020-10-03T14:48:23.000Z</time>
      </trkpt>
      <trkpt lat="43.62059" lon="0.7674">
        <ele>151</ele>
        <time>2020-10-03T14:48:24.000Z</time>
      </trkpt>
      <trkpt lat="43.6206" lon="0.76737">
        <ele>151</ele>
        <time>2020-10-03T14:48:25.000Z</time>
      </trkpt>
      <trkpt lat="43.62062" lon="0.76734">
        <ele>151</ele>
        <time>2020-10-03T14:48:26.000Z</time>
      </trkpt>
      <trkpt lat="43.62063" lon="0.76732">
        <ele>151</ele>
        <time>2020-10-03T14:48:27.000Z</time>
      </trkpt>
      <trkpt lat="43.62064" lon="0.76729">
        <ele>151</ele>
        <time>2020-10-03T14:48:28.000Z</time>
      </trkpt>
      <trkpt lat="43.62065" lon="0.76726">
        <ele>151</ele>
        <time>2020-10-03T14:48:29.000Z</time>
      </trkpt>
      <trkpt lat="43.62066" lon="0.76723">
        <ele>151.38541333333</ele>
        <time>2020-10-03T14:48:30.000Z</time>
      </trkpt>
      <trkpt lat="43.62067" lon="0.7672">
        <ele>152</ele>
        <time>2020-10-03T14:48:31.000Z</time>
      </trkpt>
      <trkpt lat="43.62068" lon="0.76717">
        <ele>152</ele>
        <time>2020-10-03T14:48:32.000Z</time>
      </trkpt>
      <trkpt lat="43.62068" lon="0.76715">
        <ele>152</ele>
        <time>2020-10-03T14:48:33.000Z</time>
      </trkpt>
      <trkpt lat="43.6207" lon="0.7671">
        <ele>152</ele>
        <time>2020-10-03T14:48:35.000Z</time>
      </trkpt>
      <trkpt lat="43.6207" lon="0.76707">
        <ele>152.18421584479</ele>
        <time>2020-10-03T14:48:36.000Z</time>
      </trkpt>
      <trkpt lat="43.62071" lon="0.76705">
        <ele>153</ele>
        <time>2020-10-03T14:48:37.000Z</time>
      </trkpt>
      <trkpt lat="43.62073" lon="0.76701">
        <ele>153</ele>
        <time>2020-10-03T14:48:39.000Z</time>
      </trkpt>
      <trkpt lat="43.62074" lon="0.76697">
        <ele>154</ele>
        <time>2020-10-03T14:48:41.000Z</time>
      </trkpt>
      <trkpt lat="43.62076" lon="0.76693">
        <ele>154</ele>
        <time>2020-10-03T14:48:43.000Z</time>
      </trkpt>
      <trkpt lat="43.62077" lon="0.76689">
        <ele>154</ele>
        <time>2020-10-03T14:48:45.000Z</time>
      </trkpt>
      <trkpt lat="43.62079" lon="0.76686">
        <ele>154.39024085666</ele>
        <time>2020-10-03T14:48:47.000Z</time>
      </trkpt>
      <trkpt lat="43.6208" lon="0.76682">
        <ele>155</ele>
        <time>2020-10-03T14:48:49.000Z</time>
      </trkpt>
      <trkpt lat="43.62081" lon="0.76679">
        <ele>155</ele>
        <time>2020-10-03T14:48:51.000Z</time>
      </trkpt>
      <trkpt lat="43.62083" lon="0.76675">
        <ele>155.36363847935</ele>
        <time>2020-10-03T14:48:53.000Z</time>
      </trkpt>
      <trkpt lat="43.62085" lon="0.76672">
        <ele>156</ele>
        <time>2020-10-03T14:48:57.000Z</time>
      </trkpt>
      <trkpt lat="43.62087" lon="0.76669">
        <ele>156</ele>
        <time>2020-10-03T14:48:59.000Z</time>
      </trkpt>
      <trkpt lat="43.62089" lon="0.76666">
        <ele>156</ele>
        <time>2020-10-03T14:49:01.000Z</time>
      </trkpt>
      <trkpt lat="43.62092" lon="0.76663">
        <ele>157</ele>
        <time>2020-10-03T14:49:03.000Z</time>
      </trkpt>
      <trkpt lat="43.62094" lon="0.76661">
        <ele>157</ele>
        <time>2020-10-03T14:49:05.000Z</time>
      </trkpt>
      <trkpt lat="43.62097" lon="0.76658">
        <ele>158</ele>
        <time>2020-10-03T14:49:07.000Z</time>
      </trkpt>
      <trkpt lat="43.621" lon="0.76655">
        <ele>158</ele>
        <time>2020-10-03T14:49:09.000Z</time>
      </trkpt>
      <trkpt lat="43.62101" lon="0.76653">
        <ele>158</ele>
        <time>2020-10-03T14:49:10.000Z</time>
      </trkpt>
      <trkpt lat="43.62104" lon="0.7665">
        <ele>158</ele>
        <time>2020-10-03T14:49:12.000Z</time>
      </trkpt>
      <trkpt lat="43.62107" lon="0.76647">
        <ele>158</ele>
        <time>2020-10-03T14:49:14.000Z</time>
      </trkpt>
      <trkpt lat="43.62109" lon="0.76644">
        <ele>158</ele>
        <time>2020-10-03T14:49:16.000Z</time>
      </trkpt>
      <trkpt lat="43.6211" lon="0.76642">
        <ele>158</ele>
        <time>2020-10-03T14:49:17.000Z</time>
      </trkpt>
      <trkpt lat="43.62112" lon="0.76638">
        <ele>158</ele>
        <time>2020-10-03T14:49:19.000Z</time>
      </trkpt>
      <trkpt lat="43.62114" lon="0.76636">
        <ele>158.31707494745</ele>
        <time>2020-10-03T14:49:20.000Z</time>
      </trkpt>
      <trkpt lat="43.62116" lon="0.76633">
        <ele>159</ele>
        <time>2020-10-03T14:49:22.000Z</time>
      </trkpt>
      <trkpt lat="43.62118" lon="0.76629">
        <ele>159</ele>
        <time>2020-10-03T14:49:24.000Z</time>
      </trkpt>
      <trkpt lat="43.6212" lon="0.76625">
        <ele>159</ele>
        <time>2020-10-03T14:49:26.000Z</time>
      </trkpt>
      <trkpt lat="43.62121" lon="0.76621">
        <ele>159</ele>
        <time>2020-10-03T14:49:28.000Z</time>
      </trkpt>
      <trkpt lat="43.62123" lon="0.76617">
        <ele>159</ele>
        <time>2020-10-03T14:49:30.000Z</time>
      </trkpt>
      <trkpt lat="43.62124" lon="0.76613">
        <ele>159</ele>
        <time>2020-10-03T14:49:32.000Z</time>
      </trkpt>
      <trkpt lat="43.62126" lon="0.76609">
        <ele>159</ele>
        <time>2020-10-03T14:49:34.000Z</time>
      </trkpt>
      <trkpt lat="43.62127" lon="0.76607">
        <ele>159</ele>
        <time>2020-10-03T14:49:35.000Z</time>
      </trkpt>
      <trkpt lat="43.62128" lon="0.76605">
        <ele>159</ele>
        <time>2020-10-03T14:49:36.000Z</time>
      </trkpt>
      <trkpt lat="43.62129" lon="0.76601">
        <ele>159.41052830138</ele>
        <time>2020-10-03T14:49:38.000Z</time>
      </trkpt>
      <trkpt lat="43.62131" lon="0.76597">
        <ele>160</ele>
        <time>2020-10-03T14:49:40.000Z</time>
      </trkpt>
      <trkpt lat="43.62132" lon="0.76593">
        <ele>160</ele>
        <time>2020-10-03T14:49:42.000Z</time>
      </trkpt>
      <trkpt lat="43.62134" lon="0.76589">
        <ele>160</ele>
        <time>2020-10-03T14:49:44.000Z</time>
      </trkpt>
      <trkpt lat="43.62135" lon="0.76585">
        <ele>160</ele>
        <time>2020-10-03T14:49:46.000Z</time>
      </trkpt>
      <trkpt lat="43.62136" lon="0.76582">
        <ele>160.40625333333</ele>
        <time>2020-10-03T14:49:47.000Z</time>
      </trkpt>
      <trkpt lat="43.62137" lon="0.76578">
        <ele>161</ele>
        <time>2020-10-03T14:49:49.000Z</time>
      </trkpt>
      <trkpt lat="43.62138" lon="0.76574">
        <ele>161.39215932335</ele>
        <time>2020-10-03T14:49:51.000Z</time>
      </trkpt>
      <trkpt lat="43.6214" lon="0.7657">
        <ele>162</ele>
        <time>2020-10-03T14:49:53.000Z</time>
      </trkpt>
      <trkpt lat="43.62141" lon="0.76566">
        <ele>162</ele>
        <time>2020-10-03T14:49:55.000Z</time>
      </trkpt>
      <trkpt lat="43.62143" lon="0.76562">
        <ele>162</ele>
        <time>2020-10-03T14:49:57.000Z</time>
      </trkpt>
      <trkpt lat="43.62144" lon="0.76558">
        <ele>162.907412236</ele>
        <time>2020-10-03T14:49:59.000Z</time>
      </trkpt>
      <trkpt lat="43.62145" lon="0.76554">
        <ele>163</ele>
        <time>2020-10-03T14:50:01.000Z</time>
      </trkpt>
      <trkpt lat="43.62147" lon="0.76549">
        <ele>163</ele>
        <time>2020-10-03T14:50:03.000Z</time>
      </trkpt>
      <trkpt lat="43.62148" lon="0.76545">
        <ele>164</ele>
        <time>2020-10-03T14:50:05.000Z</time>
      </trkpt>
      <trkpt lat="43.62149" lon="0.76543">
        <ele>164</ele>
        <time>2020-10-03T14:50:06.000Z</time>
      </trkpt>
      <trkpt lat="43.62151" lon="0.76541">
        <ele>164</ele>
        <time>2020-10-03T14:50:07.000Z</time>
      </trkpt>
      <trkpt lat="43.62152" lon="0.76538">
        <ele>164</ele>
        <time>2020-10-03T14:50:08.000Z</time>
      </trkpt>
      <trkpt lat="43.62154" lon="0.76534">
        <ele>164</ele>
        <time>2020-10-03T14:50:09.000Z</time>
      </trkpt>
      <trkpt lat="43.62155" lon="0.76531">
        <ele>164</ele>
        <time>2020-10-03T14:50:10.000Z</time>
      </trkpt>
      <trkpt lat="43.62156" lon="0.76527">
        <ele>164</ele>
        <time>2020-10-03T14:50:11.000Z</time>
      </trkpt>
      <trkpt lat="43.62158" lon="0.76524">
        <ele>164</ele>
        <time>2020-10-03T14:50:12.000Z</time>
      </trkpt>
      <trkpt lat="43.62159" lon="0.76521">
        <ele>164</ele>
        <time>2020-10-03T14:50:13.000Z</time>
      </trkpt>
      <trkpt lat="43.6216" lon="0.76518">
        <ele>164</ele>
        <time>2020-10-03T14:50:14.000Z</time>
      </trkpt>
      <trkpt lat="43.62161" lon="0.76515">
        <ele>164</ele>
        <time>2020-10-03T14:50:15.000Z</time>
      </trkpt>
      <trkpt lat="43.62163" lon="0.76511">
        <ele>164</ele>
        <time>2020-10-03T14:50:16.000Z</time>
      </trkpt>
      <trkpt lat="43.62164" lon="0.76508">
        <ele>164</ele>
        <time>2020-10-03T14:50:17.000Z</time>
      </trkpt>
      <trkpt lat="43.62165" lon="0.76505">
        <ele>164</ele>
        <time>2020-10-03T14:50:18.000Z</time>
      </trkpt>
      <trkpt lat="43.62167" lon="0.76502">
        <ele>164</ele>
        <time>2020-10-03T14:50:19.000Z</time>
      </trkpt>
      <trkpt lat="43.62168" lon="0.76499">
        <ele>164</ele>
        <time>2020-10-03T14:50:20.000Z</time>
      </trkpt>
      <trkpt lat="43.6217" lon="0.76496">
        <ele>164</ele>
        <time>2020-10-03T14:50:21.000Z</time>
      </trkpt>
      <trkpt lat="43.6217" lon="0.76492">
        <ele>164</ele>
        <time>2020-10-03T14:50:22.000Z</time>
      </trkpt>
      <trkpt lat="43.62171" lon="0.76489">
        <ele>164.37349639134</ele>
        <time>2020-10-03T14:50:23.000Z</time>
      </trkpt>
      <trkpt lat="43.62172" lon="0.76486">
        <ele>165</ele>
        <time>2020-10-03T14:50:24.000Z</time>
      </trkpt>
      <trkpt lat="43.62172" lon="0.76482">
        <ele>165</ele>
        <time>2020-10-03T14:50:25.000Z</time>
      </trkpt>
      <trkpt lat="43.62172" lon="0.76479">
        <ele>165</ele>
        <time>2020-10-03T14:50:26.000Z</time>
      </trkpt>
      <trkpt lat="43.62172" lon="0.76475">
        <ele>165</ele>
        <time>2020-10-03T14:50:27.000Z</time>
      </trkpt>
      <trkpt lat="43.62172" lon="0.76472">
        <ele>164.59523954651</ele>
        <time>2020-10-03T14:50:28.000Z</time>
      </trkpt>
      <trkpt lat="43.62173" lon="0.76468">
        <ele>164</ele>
        <time>2020-10-03T14:50:29.000Z</time>
      </trkpt>
      <trkpt lat="43.62173" lon="0.76465">
        <ele>164.41414219774</ele>
        <time>2020-10-03T14:50:30.000Z</time>
      </trkpt>
      <trkpt lat="43.62174" lon="0.76461">
        <ele>165</ele>
        <time>2020-10-03T14:50:31.000Z</time>
      </trkpt>
      <trkpt lat="43.62174" lon="0.76458">
        <ele>165</ele>
        <time>2020-10-03T14:50:32.000Z</time>
      </trkpt>
      <trkpt lat="43.62174" lon="0.76455">
        <ele>165.33654153846</ele>
        <time>2020-10-03T14:50:33.000Z</time>
      </trkpt>
      <trkpt lat="43.62174" lon="0.76451">
        <ele>166</ele>
        <time>2020-10-03T14:50:34.000Z</time>
      </trkpt>
      <trkpt lat="43.62175" lon="0.76448">
        <ele>166</ele>
        <time>2020-10-03T14:50:35.000Z</time>
      </trkpt>
      <trkpt lat="43.62175" lon="0.76445">
        <ele>166</ele>
        <time>2020-10-03T14:50:36.000Z</time>
      </trkpt>
      <trkpt lat="43.62175" lon="0.76442">
        <ele>166</ele>
        <time>2020-10-03T14:50:37.000Z</time>
      </trkpt>
      <trkpt lat="43.62176" lon="0.76438">
        <ele>166</ele>
        <time>2020-10-03T14:50:38.000Z</time>
      </trkpt>
      <trkpt lat="43.62176" lon="0.76435">
        <ele>166</ele>
        <time>2020-10-03T14:50:39.000Z</time>
      </trkpt>
      <trkpt lat="43.62178" lon="0.76432">
        <ele>166</ele>
        <time>2020-10-03T14:50:40.000Z</time>
      </trkpt>
      <trkpt lat="43.62178" lon="0.76429">
        <ele>166</ele>
        <time>2020-10-03T14:50:41.000Z</time>
      </trkpt>
      <trkpt lat="43.62179" lon="0.76425">
        <ele>166</ele>
        <time>2020-10-03T14:50:42.000Z</time>
      </trkpt>
      <trkpt lat="43.6218" lon="0.76422">
        <ele>166</ele>
        <time>2020-10-03T14:50:43.000Z</time>
      </trkpt>
      <trkpt lat="43.62181" lon="0.76419">
        <ele>166</ele>
        <time>2020-10-03T14:50:44.000Z</time>
      </trkpt>
      <trkpt lat="43.62182" lon="0.76416">
        <ele>166</ele>
        <time>2020-10-03T14:50:45.000Z</time>
      </trkpt>
      <trkpt lat="43.62183" lon="0.76412">
        <ele>166</ele>
        <time>2020-10-03T14:50:46.000Z</time>
      </trkpt>
      <trkpt lat="43.62184" lon="0.76408">
        <ele>166</ele>
        <time>2020-10-03T14:50:47.000Z</time>
      </trkpt>
      <trkpt lat="43.62185" lon="0.76405">
        <ele>166</ele>
        <time>2020-10-03T14:50:48.000Z</time>
      </trkpt>
      <trkpt lat="43.62186" lon="0.76402">
        <ele>166</ele>
        <time>2020-10-03T14:50:49.000Z</time>
      </trkpt>
      <trkpt lat="43.62187" lon="0.76399">
        <ele>166</ele>
        <time>2020-10-03T14:50:50.000Z</time>
      </trkpt>
      <trkpt lat="43.62189" lon="0.76395">
        <ele>166</ele>
        <time>2020-10-03T14:50:51.000Z</time>
      </trkpt>
      <trkpt lat="43.6219" lon="0.76392">
        <ele>166.33009395039</ele>
        <time>2020-10-03T14:50:52.000Z</time>
      </trkpt>
      <trkpt lat="43.62191" lon="0.76389">
        <ele>167</ele>
        <time>2020-10-03T14:50:53.000Z</time>
      </trkpt>
      <trkpt lat="43.62192" lon="0.76385">
        <ele>167</ele>
        <time>2020-10-03T14:50:54.000Z</time>
      </trkpt>
      <trkpt lat="43.62194" lon="0.76382">
        <ele>167</ele>
        <time>2020-10-03T14:50:55.000Z</time>
      </trkpt>
      <trkpt lat="43.62195" lon="0.76378">
        <ele>167</ele>
        <time>2020-10-03T14:50:56.000Z</time>
      </trkpt>
      <trkpt lat="43.62196" lon="0.76374">
        <ele>167</ele>
        <time>2020-10-03T14:50:57.000Z</time>
      </trkpt>
      <trkpt lat="43.62197" lon="0.7637">
        <ele>166.76136727273</ele>
        <time>2020-10-03T14:50:58.000Z</time>
      </trkpt>
      <trkpt lat="43.62197" lon="0.76366">
        <ele>166</ele>
        <time>2020-10-03T14:50:59.000Z</time>
      </trkpt>
      <trkpt lat="43.62198" lon="0.76362">
        <ele>165.59090961984</ele>
        <time>2020-10-03T14:51:00.000Z</time>
      </trkpt>
      <trkpt lat="43.62198" lon="0.76358">
        <ele>165</ele>
        <time>2020-10-03T14:51:01.000Z</time>
      </trkpt>
      <trkpt lat="43.62199" lon="0.76354">
        <ele>165</ele>
        <time>2020-10-03T14:51:02.000Z</time>
      </trkpt>
      <trkpt lat="43.62199" lon="0.76351">
        <ele>165</ele>
        <time>2020-10-03T14:51:03.000Z</time>
      </trkpt>
      <trkpt lat="43.62199" lon="0.76348">
        <ele>165</ele>
        <time>2020-10-03T14:51:04.000Z</time>
      </trkpt>
      <trkpt lat="43.62199" lon="0.76344">
        <ele>165</ele>
        <time>2020-10-03T14:51:05.000Z</time>
      </trkpt>
      <trkpt lat="43.62199" lon="0.76341">
        <ele>165</ele>
        <time>2020-10-03T14:51:06.000Z</time>
      </trkpt>
      <trkpt lat="43.62199" lon="0.76338">
        <ele>165</ele>
        <time>2020-10-03T14:51:07.000Z</time>
      </trkpt>
      <trkpt lat="43.62199" lon="0.76335">
        <ele>165</ele>
        <time>2020-10-03T14:51:08.000Z</time>
      </trkpt>
      <trkpt lat="43.62198" lon="0.76332">
        <ele>165.4099968</ele>
        <time>2020-10-03T14:51:09.000Z</time>
      </trkpt>
      <trkpt lat="43.62198" lon="0.76328">
        <ele>166</ele>
        <time>2020-10-03T14:51:10.000Z</time>
      </trkpt>
      <trkpt lat="43.62197" lon="0.76324">
        <ele>166</ele>
        <time>2020-10-03T14:51:11.000Z</time>
      </trkpt>
      <trkpt lat="43.62197" lon="0.76321">
        <ele>166</ele>
        <time>2020-10-03T14:51:12.000Z</time>
      </trkpt>
      <trkpt lat="43.62196" lon="0.76318">
        <ele>166</ele>
        <time>2020-10-03T14:51:13.000Z</time>
      </trkpt>
      <trkpt lat="43.62195" lon="0.76315">
        <ele>165.67460406148</ele>
        <time>2020-10-03T14:51:14.000Z</time>
      </trkpt>
      <trkpt lat="43.62194" lon="0.76312">
        <ele>165</ele>
        <time>2020-10-03T14:51:15.000Z</time>
      </trkpt>
      <trkpt lat="43.62193" lon="0.76308">
        <ele>165</ele>
        <time>2020-10-03T14:51:16.000Z</time>
      </trkpt>
      <trkpt lat="43.62192" lon="0.76304">
        <ele>165.36765176471</ele>
        <time>2020-10-03T14:51:17.000Z</time>
      </trkpt>
      <trkpt lat="43.62191" lon="0.76301">
        <ele>166</ele>
        <time>2020-10-03T14:51:18.000Z</time>
      </trkpt>
      <trkpt lat="43.62191" lon="0.76298">
        <ele>166</ele>
        <time>2020-10-03T14:51:19.000Z</time>
      </trkpt>
      <trkpt lat="43.6219" lon="0.76294">
        <ele>166</ele>
        <time>2020-10-03T14:51:20.000Z</time>
      </trkpt>
      <trkpt lat="43.62189" lon="0.76291">
        <ele>166</ele>
        <time>2020-10-03T14:51:21.000Z</time>
      </trkpt>
      <trkpt lat="43.62188" lon="0.76288">
        <ele>166.40540602874</ele>
        <time>2020-10-03T14:51:22.000Z</time>
      </trkpt>
      <trkpt lat="43.62188" lon="0.76284">
        <ele>167</ele>
        <time>2020-10-03T14:51:23.000Z</time>
      </trkpt>
      <trkpt lat="43.62187" lon="0.76281">
        <ele>167</ele>
        <time>2020-10-03T14:51:24.000Z</time>
      </trkpt>
      <trkpt lat="43.62187" lon="0.76278">
        <ele>167</ele>
        <time>2020-10-03T14:51:25.000Z</time>
      </trkpt>
      <trkpt lat="43.62187" lon="0.76274">
        <ele>167</ele>
        <time>2020-10-03T14:51:26.000Z</time>
      </trkpt>
      <trkpt lat="43.62186" lon="0.76271">
        <ele>167.37349639134</ele>
        <time>2020-10-03T14:51:27.000Z</time>
      </trkpt>
      <trkpt lat="43.62186" lon="0.76267">
        <ele>168</ele>
        <time>2020-10-03T14:51:28.000Z</time>
      </trkpt>
      <trkpt lat="43.62185" lon="0.76264">
        <ele>168.33010227541</ele>
        <time>2020-10-03T14:51:29.000Z</time>
      </trkpt>
      <trkpt lat="43.62185" lon="0.76261">
        <ele>169</ele>
        <time>2020-10-03T14:51:30.000Z</time>
      </trkpt>
      <trkpt lat="43.62184" lon="0.76258">
        <ele>169</ele>
        <time>2020-10-03T14:51:31.000Z</time>
      </trkpt>
      <trkpt lat="43.62184" lon="0.76255">
        <ele>169</ele>
        <time>2020-10-03T14:51:32.000Z</time>
      </trkpt>
      <trkpt lat="43.62184" lon="0.76251">
        <ele>169</ele>
        <time>2020-10-03T14:51:33.000Z</time>
      </trkpt>
      <trkpt lat="43.62184" lon="0.76248">
        <ele>169</ele>
        <time>2020-10-03T14:51:34.000Z</time>
      </trkpt>
      <trkpt lat="43.62184" lon="0.76245">
        <ele>169</ele>
        <time>2020-10-03T14:51:35.000Z</time>
      </trkpt>
      <trkpt lat="43.62183" lon="0.76241">
        <ele>169</ele>
        <time>2020-10-03T14:51:36.000Z</time>
      </trkpt>
      <trkpt lat="43.62183" lon="0.76238">
        <ele>169</ele>
        <time>2020-10-03T14:51:37.000Z</time>
      </trkpt>
      <trkpt lat="43.62183" lon="0.76235">
        <ele>169</ele>
        <time>2020-10-03T14:51:38.000Z</time>
      </trkpt>
      <trkpt lat="43.62183" lon="0.76233">
        <ele>169</ele>
        <time>2020-10-03T14:51:39.000Z</time>
      </trkpt>
      <trkpt lat="43.62182" lon="0.76229">
        <ele>169.40740740741</ele>
        <time>2020-10-03T14:51:40.000Z</time>
      </trkpt>
      <trkpt lat="43.62182" lon="0.76226">
        <ele>170</ele>
        <time>2020-10-03T14:51:41.000Z</time>
      </trkpt>
      <trkpt lat="43.62182" lon="0.76223">
        <ele>170</ele>
        <time>2020-10-03T14:51:42.000Z</time>
      </trkpt>
      <trkpt lat="43.62182" lon="0.7622">
        <ele>170</ele>
        <time>2020-10-03T14:51:43.000Z</time>
      </trkpt>
      <trkpt lat="43.62181" lon="0.76217">
        <ele>170</ele>
        <time>2020-10-03T14:51:44.000Z</time>
      </trkpt>
      <trkpt lat="43.62181" lon="0.76213">
        <ele>170</ele>
        <time>2020-10-03T14:51:45.000Z</time>
      </trkpt>
      <trkpt lat="43.62181" lon="0.7621">
        <ele>170</ele>
        <time>2020-10-03T14:51:46.000Z</time>
      </trkpt>
      <trkpt lat="43.62181" lon="0.76207">
        <ele>170</ele>
        <time>2020-10-03T14:51:47.000Z</time>
      </trkpt>
      <trkpt lat="43.62181" lon="0.76203">
        <ele>170</ele>
        <time>2020-10-03T14:51:48.000Z</time>
      </trkpt>
      <trkpt lat="43.6218" lon="0.762">
        <ele>170</ele>
        <time>2020-10-03T14:51:49.000Z</time>
      </trkpt>
      <trkpt lat="43.6218" lon="0.76197">
        <ele>170</ele>
        <time>2020-10-03T14:51:50.000Z</time>
      </trkpt>
      <trkpt lat="43.6218" lon="0.76193">
        <ele>170</ele>
        <time>2020-10-03T14:51:51.000Z</time>
      </trkpt>
      <trkpt lat="43.6218" lon="0.7619">
        <ele>170</ele>
        <time>2020-10-03T14:51:52.000Z</time>
      </trkpt>
      <trkpt lat="43.6218" lon="0.76186">
        <ele>170</ele>
        <time>2020-10-03T14:51:53.000Z</time>
      </trkpt>
      <trkpt lat="43.6218" lon="0.76182">
        <ele>170</ele>
        <time>2020-10-03T14:51:54.000Z</time>
      </trkpt>
      <trkpt lat="43.6218" lon="0.76179">
        <ele>170</ele>
        <time>2020-10-03T14:51:55.000Z</time>
      </trkpt>
      <trkpt lat="43.62181" lon="0.76176">
        <ele>170</ele>
        <time>2020-10-03T14:51:56.000Z</time>
      </trkpt>
      <trkpt lat="43.62182" lon="0.76173">
        <ele>170</ele>
        <time>2020-10-03T14:51:57.000Z</time>
      </trkpt>
      <trkpt lat="43.62182" lon="0.7617">
        <ele>170</ele>
        <time>2020-10-03T14:51:58.000Z</time>
      </trkpt>
      <trkpt lat="43.62183" lon="0.76167">
        <ele>170</ele>
        <time>2020-10-03T14:51:59.000Z</time>
      </trkpt>
      <trkpt lat="43.62183" lon="0.76164">
        <ele>170</ele>
        <time>2020-10-03T14:52:00.000Z</time>
      </trkpt>
      <trkpt lat="43.62184" lon="0.76161">
        <ele>170</ele>
        <time>2020-10-03T14:52:01.000Z</time>
      </trkpt>
      <trkpt lat="43.62185" lon="0.76158">
        <ele>170</ele>
        <time>2020-10-03T14:52:02.000Z</time>
      </trkpt>
      <trkpt lat="43.62186" lon="0.76155">
        <ele>170.42477996398</ele>
        <time>2020-10-03T14:52:03.000Z</time>
      </trkpt>
      <trkpt lat="43.62187" lon="0.76152">
        <ele>171</ele>
        <time>2020-10-03T14:52:04.000Z</time>
      </trkpt>
      <trkpt lat="43.62187" lon="0.76149">
        <ele>171</ele>
        <time>2020-10-03T14:52:05.000Z</time>
      </trkpt>
      <trkpt lat="43.62188" lon="0.76147">
        <ele>171</ele>
        <time>2020-10-03T14:52:06.000Z</time>
      </trkpt>
      <trkpt lat="43.62189" lon="0.76144">
        <ele>171.33010227541</ele>
        <time>2020-10-03T14:52:07.000Z</time>
      </trkpt>
      <trkpt lat="43.6219" lon="0.76142">
        <ele>172</ele>
        <time>2020-10-03T14:52:08.000Z</time>
      </trkpt>
      <trkpt lat="43.62191" lon="0.76138">
        <ele>172.33654153846</ele>
        <time>2020-10-03T14:52:10.000Z</time>
      </trkpt>
      <trkpt lat="43.62193" lon="0.76134">
        <ele>173</ele>
        <time>2020-10-03T14:52:12.000Z</time>
      </trkpt>
      <trkpt lat="43.62194" lon="0.7613">
        <ele>173</ele>
        <time>2020-10-03T14:52:14.000Z</time>
      </trkpt>
      <trkpt lat="43.62195" lon="0.76126">
        <ele>173</ele>
        <time>2020-10-03T14:52:16.000Z</time>
      </trkpt>
      <trkpt lat="43.62197" lon="0.76122">
        <ele>173</ele>
        <time>2020-10-03T14:52:18.000Z</time>
      </trkpt>
      <trkpt lat="43.62198" lon="0.76118">
        <ele>173</ele>
        <time>2020-10-03T14:52:20.000Z</time>
      </trkpt>
      <trkpt lat="43.62199" lon="0.76115">
        <ele>174</ele>
        <time>2020-10-03T14:52:22.000Z</time>
      </trkpt>
      <trkpt lat="43.622" lon="0.76111">
        <ele>174</ele>
        <time>2020-10-03T14:52:24.000Z</time>
      </trkpt>
      <trkpt lat="43.62202" lon="0.76107">
        <ele>174</ele>
        <time>2020-10-03T14:52:26.000Z</time>
      </trkpt>
      <trkpt lat="43.62203" lon="0.76103">
        <ele>173</ele>
        <time>2020-10-03T14:52:28.000Z</time>
      </trkpt>
      <trkpt lat="43.62204" lon="0.76099">
        <ele>173.3021557559</ele>
        <time>2020-10-03T14:52:30.000Z</time>
      </trkpt>
      <trkpt lat="43.62205" lon="0.76095">
        <ele>174</ele>
        <time>2020-10-03T14:52:32.000Z</time>
      </trkpt>
      <trkpt lat="43.62206" lon="0.76091">
        <ele>174</ele>
        <time>2020-10-03T14:52:34.000Z</time>
      </trkpt>
      <trkpt lat="43.62208" lon="0.76087">
        <ele>174</ele>
        <time>2020-10-03T14:52:36.000Z</time>
      </trkpt>
      <trkpt lat="43.62209" lon="0.76084">
        <ele>174</ele>
        <time>2020-10-03T14:52:38.000Z</time>
      </trkpt>
      <trkpt lat="43.6221" lon="0.7608">
        <ele>174</ele>
        <time>2020-10-03T14:52:40.000Z</time>
      </trkpt>
      <trkpt lat="43.62211" lon="0.76076">
        <ele>174</ele>
        <time>2020-10-03T14:52:42.000Z</time>
      </trkpt>
      <trkpt lat="43.62212" lon="0.76072">
        <ele>175</ele>
        <time>2020-10-03T14:52:44.000Z</time>
      </trkpt>
      <trkpt lat="43.62213" lon="0.76069">
        <ele>175</ele>
        <time>2020-10-03T14:52:46.000Z</time>
      </trkpt>
      <trkpt lat="43.62214" lon="0.76065">
        <ele>176</ele>
        <time>2020-10-03T14:52:48.000Z</time>
      </trkpt>
      <trkpt lat="43.62215" lon="0.76061">
        <ele>177</ele>
        <time>2020-10-03T14:52:50.000Z</time>
      </trkpt>
      <trkpt lat="43.62216" lon="0.76058">
        <ele>176.66666666667</ele>
        <time>2020-10-03T14:52:52.000Z</time>
      </trkpt>
      <trkpt lat="43.62217" lon="0.76054">
        <ele>176</ele>
        <time>2020-10-03T14:52:54.000Z</time>
      </trkpt>
      <trkpt lat="43.62218" lon="0.7605">
        <ele>176.42156911957</ele>
        <time>2020-10-03T14:52:56.000Z</time>
      </trkpt>
      <trkpt lat="43.62219" lon="0.76046">
        <ele>177.41583656503</ele>
        <time>2020-10-03T14:52:58.000Z</time>
      </trkpt>
      <trkpt lat="43.62221" lon="0.76043">
        <ele>178.32539593852</ele>
        <time>2020-10-03T14:53:00.000Z</time>
      </trkpt>
      <trkpt lat="43.62222" lon="0.76039">
        <ele>179</ele>
        <time>2020-10-03T14:53:02.000Z</time>
      </trkpt>
      <trkpt lat="43.62223" lon="0.76035">
        <ele>179</ele>
        <time>2020-10-03T14:53:04.000Z</time>
      </trkpt>
      <trkpt lat="43.62224" lon="0.76032">
        <ele>179</ele>
        <time>2020-10-03T14:53:06.000Z</time>
      </trkpt>
      <trkpt lat="43.62225" lon="0.76028">
        <ele>179</ele>
        <time>2020-10-03T14:53:08.000Z</time>
      </trkpt>
      <trkpt lat="43.62226" lon="0.76024">
        <ele>179</ele>
        <time>2020-10-03T14:53:10.000Z</time>
      </trkpt>
      <trkpt lat="43.62228" lon="0.7602">
        <ele>180</ele>
        <time>2020-10-03T14:53:12.000Z</time>
      </trkpt>
      <trkpt lat="43.62229" lon="0.76017">
        <ele>180</ele>
        <time>2020-10-03T14:53:14.000Z</time>
      </trkpt>
      <trkpt lat="43.6223" lon="0.76014">
        <ele>180</ele>
        <time>2020-10-03T14:53:16.000Z</time>
      </trkpt>
      <trkpt lat="43.62232" lon="0.7601">
        <ele>180</ele>
        <time>2020-10-03T14:53:18.000Z</time>
      </trkpt>
      <trkpt lat="43.62232" lon="0.76007">
        <ele>181</ele>
        <time>2020-10-03T14:53:20.000Z</time>
      </trkpt>
      <trkpt lat="43.62233" lon="0.76003">
        <ele>181</ele>
        <time>2020-10-03T14:53:22.000Z</time>
      </trkpt>
      <trkpt lat="43.62234" lon="0.76001">
        <ele>181</ele>
        <time>2020-10-03T14:53:23.000Z</time>
      </trkpt>
      <trkpt lat="43.62234" lon="0.75998">
        <ele>181.40178285714</ele>
        <time>2020-10-03T14:53:24.000Z</time>
      </trkpt>
      <trkpt lat="43.62235" lon="0.75995">
        <ele>182</ele>
        <time>2020-10-03T14:53:25.000Z</time>
      </trkpt>
      <trkpt lat="43.62236" lon="0.75992">
        <ele>182</ele>
        <time>2020-10-03T14:53:26.000Z</time>
      </trkpt>
      <trkpt lat="43.62237" lon="0.75988">
        <ele>182</ele>
        <time>2020-10-03T14:53:28.000Z</time>
      </trkpt>
      <trkpt lat="43.62238" lon="0.75985">
        <ele>182</ele>
        <time>2020-10-03T14:53:29.000Z</time>
      </trkpt>
      <trkpt lat="43.62238" lon="0.75982">
        <ele>182</ele>
        <time>2020-10-03T14:53:30.000Z</time>
      </trkpt>
      <trkpt lat="43.62239" lon="0.75979">
        <ele>182</ele>
        <time>2020-10-03T14:53:31.000Z</time>
      </trkpt>
      <trkpt lat="43.6224" lon="0.75977">
        <ele>182</ele>
        <time>2020-10-03T14:53:32.000Z</time>
      </trkpt>
      <trkpt lat="43.62241" lon="0.75974">
        <ele>182</ele>
        <time>2020-10-03T14:53:33.000Z</time>
      </trkpt>
      <trkpt lat="43.62242" lon="0.75972">
        <ele>182</ele>
        <time>2020-10-03T14:53:34.000Z</time>
      </trkpt>
      <trkpt lat="43.62243" lon="0.75969">
        <ele>182</ele>
        <time>2020-10-03T14:53:35.000Z</time>
      </trkpt>
      <trkpt lat="43.62244" lon="0.75966">
        <ele>182</ele>
        <time>2020-10-03T14:53:36.000Z</time>
      </trkpt>
      <trkpt lat="43.62245" lon="0.75964">
        <ele>182</ele>
        <time>2020-10-03T14:53:37.000Z</time>
      </trkpt>
      <trkpt lat="43.62246" lon="0.75962">
        <ele>182</ele>
        <time>2020-10-03T14:53:38.000Z</time>
      </trkpt>
      <trkpt lat="43.62247" lon="0.75959">
        <ele>182</ele>
        <time>2020-10-03T14:53:39.000Z</time>
      </trkpt>
      <trkpt lat="43.62248" lon="0.75956">
        <ele>182</ele>
        <time>2020-10-03T14:53:40.000Z</time>
      </trkpt>
      <trkpt lat="43.62248" lon="0.75953">
        <ele>182.3780497323</ele>
        <time>2020-10-03T14:53:41.000Z</time>
      </trkpt>
      <trkpt lat="43.62249" lon="0.75951">
        <ele>183</ele>
        <time>2020-10-03T14:53:42.000Z</time>
      </trkpt>
      <trkpt lat="43.6225" lon="0.75947">
        <ele>183</ele>
        <time>2020-10-03T14:53:43.000Z</time>
      </trkpt>
      <trkpt lat="43.62251" lon="0.75944">
        <ele>183</ele>
        <time>2020-10-03T14:53:44.000Z</time>
      </trkpt>
      <trkpt lat="43.62252" lon="0.75941">
        <ele>182.58558776725</ele>
        <time>2020-10-03T14:53:45.000Z</time>
      </trkpt>
      <trkpt lat="43.62253" lon="0.75938">
        <ele>182</ele>
        <time>2020-10-03T14:53:46.000Z</time>
      </trkpt>
      <trkpt lat="43.62254" lon="0.75935">
        <ele>182.2337716309</ele>
        <time>2020-10-03T14:53:47.000Z</time>
      </trkpt>
      <trkpt lat="43.62254" lon="0.75932">
        <ele>183</ele>
        <time>2020-10-03T14:53:48.000Z</time>
      </trkpt>
      <trkpt lat="43.62255" lon="0.7593">
        <ele>183</ele>
        <time>2020-10-03T14:53:49.000Z</time>
      </trkpt>
      <trkpt lat="43.62257" lon="0.75926">
        <ele>183.83999795197</ele>
        <time>2020-10-03T14:53:50.000Z</time>
      </trkpt>
      <trkpt lat="43.62258" lon="0.75923">
        <ele>185</ele>
        <time>2020-10-03T14:53:51.000Z</time>
      </trkpt>
      <trkpt lat="43.62259" lon="0.7592">
        <ele>185.41836681382</ele>
        <time>2020-10-03T14:53:52.000Z</time>
      </trkpt>
      <trkpt lat="43.6226" lon="0.75916">
        <ele>186</ele>
        <time>2020-10-03T14:53:53.000Z</time>
      </trkpt>
      <trkpt lat="43.62261" lon="0.75913">
        <ele>186</ele>
        <time>2020-10-03T14:53:54.000Z</time>
      </trkpt>
      <trkpt lat="43.62262" lon="0.7591">
        <ele>186</ele>
        <time>2020-10-03T14:53:55.000Z</time>
      </trkpt>
      <trkpt lat="43.62263" lon="0.75907">
        <ele>186</ele>
        <time>2020-10-03T14:53:56.000Z</time>
      </trkpt>
      <trkpt lat="43.62264" lon="0.75904">
        <ele>185.60714285714</ele>
        <time>2020-10-03T14:53:57.000Z</time>
      </trkpt>
      <trkpt lat="43.62265" lon="0.75901">
        <ele>185</ele>
        <time>2020-10-03T14:53:58.000Z</time>
      </trkpt>
      <trkpt lat="43.62266" lon="0.75898">
        <ele>185</ele>
        <time>2020-10-03T14:53:59.000Z</time>
      </trkpt>
      <trkpt lat="43.62267" lon="0.75894">
        <ele>185</ele>
        <time>2020-10-03T14:54:00.000Z</time>
      </trkpt>
      <trkpt lat="43.62268" lon="0.75891">
        <ele>185</ele>
        <time>2020-10-03T14:54:01.000Z</time>
      </trkpt>
      <trkpt lat="43.62269" lon="0.75888">
        <ele>185.33734809697</ele>
        <time>2020-10-03T14:54:02.000Z</time>
      </trkpt>
      <trkpt lat="43.62269" lon="0.75885">
        <ele>186</ele>
        <time>2020-10-03T14:54:03.000Z</time>
      </trkpt>
      <trkpt lat="43.6227" lon="0.75882">
        <ele>186.44444760496</ele>
        <time>2020-10-03T14:54:04.000Z</time>
      </trkpt>
      <trkpt lat="43.62271" lon="0.75878">
        <ele>187</ele>
        <time>2020-10-03T14:54:05.000Z</time>
      </trkpt>
      <trkpt lat="43.62272" lon="0.75875">
        <ele>187</ele>
        <time>2020-10-03T14:54:06.000Z</time>
      </trkpt>
      <trkpt lat="43.62273" lon="0.75872">
        <ele>187</ele>
        <time>2020-10-03T14:54:07.000Z</time>
      </trkpt>
      <trkpt lat="43.62275" lon="0.7587">
        <ele>187</ele>
        <time>2020-10-03T14:54:08.000Z</time>
      </trkpt>
      <trkpt lat="43.62276" lon="0.75867">
        <ele>187</ele>
        <time>2020-10-03T14:54:09.000Z</time>
      </trkpt>
      <trkpt lat="43.62278" lon="0.75864">
        <ele>187</ele>
        <time>2020-10-03T14:54:10.000Z</time>
      </trkpt>
      <trkpt lat="43.62279" lon="0.75861">
        <ele>187</ele>
        <time>2020-10-03T14:54:11.000Z</time>
      </trkpt>
      <trkpt lat="43.62281" lon="0.75859">
        <ele>187.37349639134</ele>
        <time>2020-10-03T14:54:12.000Z</time>
      </trkpt>
      <trkpt lat="43.62282" lon="0.75856">
        <ele>188</ele>
        <time>2020-10-03T14:54:13.000Z</time>
      </trkpt>
      <trkpt lat="43.62284" lon="0.75853">
        <ele>188</ele>
        <time>2020-10-03T14:54:14.000Z</time>
      </trkpt>
      <trkpt lat="43.62285" lon="0.7585">
        <ele>188</ele>
        <time>2020-10-03T14:54:15.000Z</time>
      </trkpt>
      <trkpt lat="43.62286" lon="0.75848">
        <ele>188</ele>
        <time>2020-10-03T14:54:16.000Z</time>
      </trkpt>
      <trkpt lat="43.62288" lon="0.75845">
        <ele>188</ele>
        <time>2020-10-03T14:54:17.000Z</time>
      </trkpt>
      <trkpt lat="43.62289" lon="0.75842">
        <ele>188</ele>
        <time>2020-10-03T14:54:18.000Z</time>
      </trkpt>
      <trkpt lat="43.62291" lon="0.75839">
        <ele>188</ele>
        <time>2020-10-03T14:54:19.000Z</time>
      </trkpt>
      <trkpt lat="43.62292" lon="0.75836">
        <ele>188</ele>
        <time>2020-10-03T14:54:20.000Z</time>
      </trkpt>
      <trkpt lat="43.62293" lon="0.75834">
        <ele>188</ele>
        <time>2020-10-03T14:54:21.000Z</time>
      </trkpt>
      <trkpt lat="43.62294" lon="0.75831">
        <ele>188</ele>
        <time>2020-10-03T14:54:22.000Z</time>
      </trkpt>
      <trkpt lat="43.62296" lon="0.75828">
        <ele>188</ele>
        <time>2020-10-03T14:54:23.000Z</time>
      </trkpt>
      <trkpt lat="43.62297" lon="0.75826">
        <ele>188</ele>
        <time>2020-10-03T14:54:24.000Z</time>
      </trkpt>
      <trkpt lat="43.62299" lon="0.75823">
        <ele>188</ele>
        <time>2020-10-03T14:54:25.000Z</time>
      </trkpt>
      <trkpt lat="43.623" lon="0.7582">
        <ele>188</ele>
        <time>2020-10-03T14:54:26.000Z</time>
      </trkpt>
      <trkpt lat="43.62302" lon="0.75817">
        <ele>188</ele>
        <time>2020-10-03T14:54:27.000Z</time>
      </trkpt>
      <trkpt lat="43.62303" lon="0.75814">
        <ele>188.38554068225</ele>
        <time>2020-10-03T14:54:28.000Z</time>
      </trkpt>
      <trkpt lat="43.62305" lon="0.75812">
        <ele>189</ele>
        <time>2020-10-03T14:54:29.000Z</time>
      </trkpt>
      <trkpt lat="43.62306" lon="0.75809">
        <ele>189.33980787633</ele>
        <time>2020-10-03T14:54:30.000Z</time>
      </trkpt>
      <trkpt lat="43.62308" lon="0.75806">
        <ele>190</ele>
        <time>2020-10-03T14:54:31.000Z</time>
      </trkpt>
      <trkpt lat="43.6231" lon="0.75803">
        <ele>190</ele>
        <time>2020-10-03T14:54:32.000Z</time>
      </trkpt>
      <trkpt lat="43.62311" lon="0.758">
        <ele>190</ele>
        <time>2020-10-03T14:54:33.000Z</time>
      </trkpt>
      <trkpt lat="43.62312" lon="0.75797">
        <ele>190</ele>
        <time>2020-10-03T14:54:34.000Z</time>
      </trkpt>
      <trkpt lat="43.62313" lon="0.75794">
        <ele>190</ele>
        <time>2020-10-03T14:54:35.000Z</time>
      </trkpt>
      <trkpt lat="43.62315" lon="0.75792">
        <ele>190</ele>
        <time>2020-10-03T14:54:36.000Z</time>
      </trkpt>
      <trkpt lat="43.62316" lon="0.75789">
        <ele>190</ele>
        <time>2020-10-03T14:54:37.000Z</time>
      </trkpt>
      <trkpt lat="43.62318" lon="0.75786">
        <ele>190</ele>
        <time>2020-10-03T14:54:38.000Z</time>
      </trkpt>
      <trkpt lat="43.62319" lon="0.75784">
        <ele>190</ele>
        <time>2020-10-03T14:54:39.000Z</time>
      </trkpt>
      <trkpt lat="43.6232" lon="0.7578">
        <ele>189.57017583257</ele>
        <time>2020-10-03T14:54:40.000Z</time>
      </trkpt>
      <trkpt lat="43.62322" lon="0.75777">
        <ele>189</ele>
        <time>2020-10-03T14:54:41.000Z</time>
      </trkpt>
      <trkpt lat="43.62323" lon="0.75774">
        <ele>189.45871107145</ele>
        <time>2020-10-03T14:54:42.000Z</time>
      </trkpt>
      <trkpt lat="43.62324" lon="0.75772">
        <ele>190</ele>
        <time>2020-10-03T14:54:43.000Z</time>
      </trkpt>
      <trkpt lat="43.62325" lon="0.75768">
        <ele>190.18421584479</ele>
        <time>2020-10-03T14:54:44.000Z</time>
      </trkpt>
      <trkpt lat="43.62326" lon="0.75766">
        <ele>191</ele>
        <time>2020-10-03T14:54:45.000Z</time>
      </trkpt>
      <trkpt lat="43.62327" lon="0.75762">
        <ele>191</ele>
        <time>2020-10-03T14:54:46.000Z</time>
      </trkpt>
      <trkpt lat="43.62328" lon="0.75759">
        <ele>191.34751624968</ele>
        <time>2020-10-03T14:54:47.000Z</time>
      </trkpt>
      <trkpt lat="43.62329" lon="0.75756">
        <ele>192</ele>
        <time>2020-10-03T14:54:48.000Z</time>
      </trkpt>
      <trkpt lat="43.6233" lon="0.75753">
        <ele>192</ele>
        <time>2020-10-03T14:54:49.000Z</time>
      </trkpt>
      <trkpt lat="43.62331" lon="0.75751">
        <ele>192</ele>
        <time>2020-10-03T14:54:50.000Z</time>
      </trkpt>
      <trkpt lat="43.62332" lon="0.75748">
        <ele>192</ele>
        <time>2020-10-03T14:54:51.000Z</time>
      </trkpt>
      <trkpt lat="43.62333" lon="0.75745">
        <ele>192</ele>
        <time>2020-10-03T14:54:52.000Z</time>
      </trkpt>
      <trkpt lat="43.62334" lon="0.75741">
        <ele>192</ele>
        <time>2020-10-03T14:54:53.000Z</time>
      </trkpt>
      <trkpt lat="43.62335" lon="0.75738">
        <ele>192</ele>
        <time>2020-10-03T14:54:54.000Z</time>
      </trkpt>
      <trkpt lat="43.62336" lon="0.75736">
        <ele>192.05263157895</ele>
        <time>2020-10-03T14:54:55.000Z</time>
      </trkpt>
      <trkpt lat="43.62336" lon="0.75732">
        <ele>193</ele>
        <time>2020-10-03T14:54:56.000Z</time>
      </trkpt>
      <trkpt lat="43.62337" lon="0.75729">
        <ele>193</ele>
        <time>2020-10-03T14:54:57.000Z</time>
      </trkpt>
      <trkpt lat="43.62339" lon="0.75726">
        <ele>193</ele>
        <time>2020-10-03T14:54:58.000Z</time>
      </trkpt>
      <trkpt lat="43.6234" lon="0.75724">
        <ele>193</ele>
        <time>2020-10-03T14:54:59.000Z</time>
      </trkpt>
      <trkpt lat="43.62341" lon="0.75721">
        <ele>193</ele>
        <time>2020-10-03T14:55:00.000Z</time>
      </trkpt>
      <trkpt lat="43.62342" lon="0.75718">
        <ele>193</ele>
        <time>2020-10-03T14:55:01.000Z</time>
      </trkpt>
      <trkpt lat="43.62343" lon="0.75715">
        <ele>193.26717736262</ele>
        <time>2020-10-03T14:55:02.000Z</time>
      </trkpt>
      <trkpt lat="43.62344" lon="0.75713">
        <ele>194</ele>
        <time>2020-10-03T14:55:03.000Z</time>
      </trkpt>
      <trkpt lat="43.62345" lon="0.75711">
        <ele>194</ele>
        <time>2020-10-03T14:55:04.000Z</time>
      </trkpt>
      <trkpt lat="43.62346" lon="0.75708">
        <ele>194</ele>
        <time>2020-10-03T14:55:05.000Z</time>
      </trkpt>
      <trkpt lat="43.62347" lon="0.75705">
        <ele>194</ele>
        <time>2020-10-03T14:55:06.000Z</time>
      </trkpt>
      <trkpt lat="43.62348" lon="0.75703">
        <ele>194</ele>
        <time>2020-10-03T14:55:07.000Z</time>
      </trkpt>
      <trkpt lat="43.62349" lon="0.757">
        <ele>194</ele>
        <time>2020-10-03T14:55:08.000Z</time>
      </trkpt>
      <trkpt lat="43.6235" lon="0.75697">
        <ele>194.41176382008</ele>
        <time>2020-10-03T14:55:09.000Z</time>
      </trkpt>
      <trkpt lat="43.62351" lon="0.75694">
        <ele>195</ele>
        <time>2020-10-03T14:55:10.000Z</time>
      </trkpt>
      <trkpt lat="43.62352" lon="0.75691">
        <ele>195</ele>
        <time>2020-10-03T14:55:11.000Z</time>
      </trkpt>
      <trkpt lat="43.62353" lon="0.75688">
        <ele>195</ele>
        <time>2020-10-03T14:55:12.000Z</time>
      </trkpt>
      <trkpt lat="43.62354" lon="0.75685">
        <ele>195</ele>
        <time>2020-10-03T14:55:13.000Z</time>
      </trkpt>
      <trkpt lat="43.62356" lon="0.75682">
        <ele>195</ele>
        <time>2020-10-03T14:55:14.000Z</time>
      </trkpt>
      <trkpt lat="43.62358" lon="0.7568">
        <ele>195</ele>
        <time>2020-10-03T14:55:15.000Z</time>
      </trkpt>
      <trkpt lat="43.62359" lon="0.75678">
        <ele>195</ele>
        <time>2020-10-03T14:55:16.000Z</time>
      </trkpt>
      <trkpt lat="43.6236" lon="0.75675">
        <ele>195</ele>
        <time>2020-10-03T14:55:17.000Z</time>
      </trkpt>
      <trkpt lat="43.62361" lon="0.75673">
        <ele>195</ele>
        <time>2020-10-03T14:55:18.000Z</time>
      </trkpt>
      <trkpt lat="43.62363" lon="0.7567">
        <ele>195.33962059097</ele>
        <time>2020-10-03T14:55:20.000Z</time>
      </trkpt>
      <trkpt lat="43.62365" lon="0.75666">
        <ele>196</ele>
        <time>2020-10-03T14:55:22.000Z</time>
      </trkpt>
      <trkpt lat="43.62368" lon="0.75663">
        <ele>196</ele>
        <time>2020-10-03T14:55:24.000Z</time>
      </trkpt>
      <trkpt lat="43.6237" lon="0.75659">
        <ele>198</ele>
        <time>2020-10-03T14:55:26.000Z</time>
      </trkpt>
      <trkpt lat="43.62372" lon="0.75656">
        <ele>198</ele>
        <time>2020-10-03T14:55:28.000Z</time>
      </trkpt>
      <trkpt lat="43.62374" lon="0.75652">
        <ele>198</ele>
        <time>2020-10-03T14:55:30.000Z</time>
      </trkpt>
      <trkpt lat="43.62376" lon="0.75648">
        <ele>198</ele>
        <time>2020-10-03T14:55:32.000Z</time>
      </trkpt>
      <trkpt lat="43.62378" lon="0.75645">
        <ele>199</ele>
        <time>2020-10-03T14:55:34.000Z</time>
      </trkpt>
      <trkpt lat="43.62379" lon="0.75641">
        <ele>197</ele>
        <time>2020-10-03T14:55:38.000Z</time>
      </trkpt>
      <trkpt lat="43.62381" lon="0.75637">
        <ele>197.24038153846</ele>
        <time>2020-10-03T14:55:40.000Z</time>
      </trkpt>
      <trkpt lat="43.62382" lon="0.75633">
        <ele>198</ele>
        <time>2020-10-03T14:55:42.000Z</time>
      </trkpt>
      <trkpt lat="43.62384" lon="0.75629">
        <ele>198.36470552803</ele>
        <time>2020-10-03T14:55:44.000Z</time>
      </trkpt>
      <trkpt lat="43.62385" lon="0.75625">
        <ele>199</ele>
        <time>2020-10-03T14:55:46.000Z</time>
      </trkpt>
      <trkpt lat="43.62387" lon="0.75621">
        <ele>201</ele>
        <time>2020-10-03T14:55:48.000Z</time>
      </trkpt>
      <trkpt lat="43.62388" lon="0.75617">
        <ele>201</ele>
        <time>2020-10-03T14:55:50.000Z</time>
      </trkpt>
      <trkpt lat="43.62389" lon="0.75613">
        <ele>200.65516632583</ele>
        <time>2020-10-03T14:55:52.000Z</time>
      </trkpt>
      <trkpt lat="43.6239" lon="0.75609">
        <ele>200</ele>
        <time>2020-10-03T14:55:54.000Z</time>
      </trkpt>
      <trkpt lat="43.62391" lon="0.75605">
        <ele>199</ele>
        <time>2020-10-03T14:55:56.000Z</time>
      </trkpt>
      <trkpt lat="43.62392" lon="0.75602">
        <ele>199</ele>
        <time>2020-10-03T14:55:57.000Z</time>
      </trkpt>
      <trkpt lat="43.62393" lon="0.75599">
        <ele>199</ele>
        <time>2020-10-03T14:55:58.000Z</time>
      </trkpt>
      <trkpt lat="43.62394" lon="0.75596">
        <ele>199</ele>
        <time>2020-10-03T14:55:59.000Z</time>
      </trkpt>
      <trkpt lat="43.62395" lon="0.75593">
        <ele>199</ele>
        <time>2020-10-03T14:56:00.000Z</time>
      </trkpt>
      <trkpt lat="43.62396" lon="0.7559">
        <ele>199</ele>
        <time>2020-10-03T14:56:01.000Z</time>
      </trkpt>
      <trkpt lat="43.62397" lon="0.75588">
        <ele>199.35714503398</ele>
        <time>2020-10-03T14:56:02.000Z</time>
      </trkpt>
      <trkpt lat="43.62398" lon="0.75585">
        <ele>200</ele>
        <time>2020-10-03T14:56:03.000Z</time>
      </trkpt>
      <trkpt lat="43.62398" lon="0.75581">
        <ele>200.41177002078</ele>
        <time>2020-10-03T14:56:04.000Z</time>
      </trkpt>
      <trkpt lat="43.62399" lon="0.75578">
        <ele>201</ele>
        <time>2020-10-03T14:56:05.000Z</time>
      </trkpt>
      <trkpt lat="43.624" lon="0.75575">
        <ele>201</ele>
        <time>2020-10-03T14:56:06.000Z</time>
      </trkpt>
      <trkpt lat="43.62401" lon="0.75572">
        <ele>201</ele>
        <time>2020-10-03T14:56:07.000Z</time>
      </trkpt>
      <trkpt lat="43.62402" lon="0.75569">
        <ele>201</ele>
        <time>2020-10-03T14:56:08.000Z</time>
      </trkpt>
      <trkpt lat="43.62403" lon="0.75566">
        <ele>201.39758497317</ele>
        <time>2020-10-03T14:56:09.000Z</time>
      </trkpt>
      <trkpt lat="43.62404" lon="0.75563">
        <ele>202</ele>
        <time>2020-10-03T14:56:10.000Z</time>
      </trkpt>
      <trkpt lat="43.62405" lon="0.7556">
        <ele>202</ele>
        <time>2020-10-03T14:56:11.000Z</time>
      </trkpt>
      <trkpt lat="43.62406" lon="0.75556">
        <ele>202</ele>
        <time>2020-10-03T14:56:12.000Z</time>
      </trkpt>
      <trkpt lat="43.62407" lon="0.75553">
        <ele>202</ele>
        <time>2020-10-03T14:56:13.000Z</time>
      </trkpt>
      <trkpt lat="43.62408" lon="0.7555">
        <ele>202</ele>
        <time>2020-10-03T14:56:14.000Z</time>
      </trkpt>
      <trkpt lat="43.62409" lon="0.75547">
        <ele>202</ele>
        <time>2020-10-03T14:56:15.000Z</time>
      </trkpt>
      <trkpt lat="43.62411" lon="0.75544">
        <ele>201.57657491438</ele>
        <time>2020-10-03T14:56:16.000Z</time>
      </trkpt>
      <trkpt lat="43.62412" lon="0.75541">
        <ele>201</ele>
        <time>2020-10-03T14:56:17.000Z</time>
      </trkpt>
      <trkpt lat="43.62413" lon="0.75538">
        <ele>201</ele>
        <time>2020-10-03T14:56:18.000Z</time>
      </trkpt>
      <trkpt lat="43.62414" lon="0.75535">
        <ele>201</ele>
        <time>2020-10-03T14:56:19.000Z</time>
      </trkpt>
      <trkpt lat="43.62416" lon="0.75533">
        <ele>201</ele>
        <time>2020-10-03T14:56:20.000Z</time>
      </trkpt>
      <trkpt lat="43.62417" lon="0.7553">
        <ele>201</ele>
        <time>2020-10-03T14:56:21.000Z</time>
      </trkpt>
      <trkpt lat="43.62418" lon="0.75527">
        <ele>201</ele>
        <time>2020-10-03T14:56:22.000Z</time>
      </trkpt>
      <trkpt lat="43.6242" lon="0.75524">
        <ele>201.4054013538</ele>
        <time>2020-10-03T14:56:23.000Z</time>
      </trkpt>
      <trkpt lat="43.62421" lon="0.75521">
        <ele>202</ele>
        <time>2020-10-03T14:56:24.000Z</time>
      </trkpt>
      <trkpt lat="43.62422" lon="0.75517">
        <ele>202</ele>
        <time>2020-10-03T14:56:25.000Z</time>
      </trkpt>
      <trkpt lat="43.62423" lon="0.75514">
        <ele>202</ele>
        <time>2020-10-03T14:56:26.000Z</time>
      </trkpt>
      <trkpt lat="43.62425" lon="0.75511">
        <ele>202</ele>
        <time>2020-10-03T14:56:27.000Z</time>
      </trkpt>
      <trkpt lat="43.62425" lon="0.75508">
        <ele>202</ele>
        <time>2020-10-03T14:56:28.000Z</time>
      </trkpt>
      <trkpt lat="43.62426" lon="0.75506">
        <ele>202</ele>
        <time>2020-10-03T14:56:29.000Z</time>
      </trkpt>
      <trkpt lat="43.62427" lon="0.75502">
        <ele>202</ele>
        <time>2020-10-03T14:56:30.000Z</time>
      </trkpt>
      <trkpt lat="43.62427" lon="0.755">
        <ele>202</ele>
        <time>2020-10-03T14:56:31.000Z</time>
      </trkpt>
      <trkpt lat="43.62428" lon="0.75496">
        <ele>202</ele>
        <time>2020-10-03T14:56:32.000Z</time>
      </trkpt>
      <trkpt lat="43.62429" lon="0.75493">
        <ele>202</ele>
        <time>2020-10-03T14:56:33.000Z</time>
      </trkpt>
      <trkpt lat="43.62429" lon="0.7549">
        <ele>201.63094857143</ele>
        <time>2020-10-03T14:56:34.000Z</time>
      </trkpt>
      <trkpt lat="43.6243" lon="0.75487">
        <ele>201</ele>
        <time>2020-10-03T14:56:35.000Z</time>
      </trkpt>
      <trkpt lat="43.62431" lon="0.75484">
        <ele>201</ele>
        <time>2020-10-03T14:56:36.000Z</time>
      </trkpt>
      <trkpt lat="43.62431" lon="0.75481">
        <ele>201.28181945123</ele>
        <time>2020-10-03T14:56:37.000Z</time>
      </trkpt>
      <trkpt lat="43.62432" lon="0.75478">
        <ele>202</ele>
        <time>2020-10-03T14:56:38.000Z</time>
      </trkpt>
      <trkpt lat="43.62433" lon="0.75475">
        <ele>202</ele>
        <time>2020-10-03T14:56:39.000Z</time>
      </trkpt>
      <trkpt lat="43.62434" lon="0.75472">
        <ele>202</ele>
        <time>2020-10-03T14:56:40.000Z</time>
      </trkpt>
      <trkpt lat="43.62435" lon="0.75468">
        <ele>202</ele>
        <time>2020-10-03T14:56:41.000Z</time>
      </trkpt>
      <trkpt lat="43.62436" lon="0.75466">
        <ele>202</ele>
        <time>2020-10-03T14:56:42.000Z</time>
      </trkpt>
      <trkpt lat="43.62437" lon="0.75462">
        <ele>202</ele>
        <time>2020-10-03T14:56:43.000Z</time>
      </trkpt>
      <trkpt lat="43.62438" lon="0.75459">
        <ele>202</ele>
        <time>2020-10-03T14:56:44.000Z</time>
      </trkpt>
      <trkpt lat="43.62438" lon="0.75456">
        <ele>202</ele>
        <time>2020-10-03T14:56:45.000Z</time>
      </trkpt>
      <trkpt lat="43.62439" lon="0.75453">
        <ele>202</ele>
        <time>2020-10-03T14:56:46.000Z</time>
      </trkpt>
      <trkpt lat="43.6244" lon="0.75449">
        <ele>202</ele>
        <time>2020-10-03T14:56:47.000Z</time>
      </trkpt>
      <trkpt lat="43.62441" lon="0.75446">
        <ele>202.67308307692</ele>
        <time>2020-10-03T14:56:48.000Z</time>
      </trkpt>
      <trkpt lat="43.62442" lon="0.75443">
        <ele>204</ele>
        <time>2020-10-03T14:56:49.000Z</time>
      </trkpt>
      <trkpt lat="43.62442" lon="0.7544">
        <ele>204</ele>
        <time>2020-10-03T14:56:50.000Z</time>
      </trkpt>
      <trkpt lat="43.62443" lon="0.75437">
        <ele>204</ele>
        <time>2020-10-03T14:56:51.000Z</time>
      </trkpt>
      <trkpt lat="43.62444" lon="0.75434">
        <ele>204</ele>
        <time>2020-10-03T14:56:52.000Z</time>
      </trkpt>
      <trkpt lat="43.62445" lon="0.75431">
        <ele>204</ele>
        <time>2020-10-03T14:56:53.000Z</time>
      </trkpt>
      <trkpt lat="43.62446" lon="0.75427">
        <ele>204</ele>
        <time>2020-10-03T14:56:54.000Z</time>
      </trkpt>
      <trkpt lat="43.62447" lon="0.75424">
        <ele>204</ele>
        <time>2020-10-03T14:56:55.000Z</time>
      </trkpt>
      <trkpt lat="43.62447" lon="0.75421">
        <ele>204</ele>
        <time>2020-10-03T14:56:56.000Z</time>
      </trkpt>
      <trkpt lat="43.62448" lon="0.75418">
        <ele>204</ele>
        <time>2020-10-03T14:56:57.000Z</time>
      </trkpt>
      <trkpt lat="43.62449" lon="0.75415">
        <ele>204</ele>
        <time>2020-10-03T14:56:58.000Z</time>
      </trkpt>
      <trkpt lat="43.6245" lon="0.75411">
        <ele>204</ele>
        <time>2020-10-03T14:56:59.000Z</time>
      </trkpt>
      <trkpt lat="43.62451" lon="0.75408">
        <ele>204</ele>
        <time>2020-10-03T14:57:00.000Z</time>
      </trkpt>
      <trkpt lat="43.62451" lon="0.75405">
        <ele>204</ele>
        <time>2020-10-03T14:57:01.000Z</time>
      </trkpt>
      <trkpt lat="43.62452" lon="0.75402">
        <ele>204</ele>
        <time>2020-10-03T14:57:02.000Z</time>
      </trkpt>
      <trkpt lat="43.62453" lon="0.75399">
        <ele>204</ele>
        <time>2020-10-03T14:57:03.000Z</time>
      </trkpt>
      <trkpt lat="43.62454" lon="0.75396">
        <ele>204</ele>
        <time>2020-10-03T14:57:04.000Z</time>
      </trkpt>
      <trkpt lat="43.62455" lon="0.75393">
        <ele>204</ele>
        <time>2020-10-03T14:57:05.000Z</time>
      </trkpt>
      <trkpt lat="43.62456" lon="0.75389">
        <ele>204</ele>
        <time>2020-10-03T14:57:06.000Z</time>
      </trkpt>
      <trkpt lat="43.62457" lon="0.75386">
        <ele>204</ele>
        <time>2020-10-03T14:57:07.000Z</time>
      </trkpt>
      <trkpt lat="43.62458" lon="0.75382">
        <ele>204</ele>
        <time>2020-10-03T14:57:08.000Z</time>
      </trkpt>
      <trkpt lat="43.62458" lon="0.75379">
        <ele>204</ele>
        <time>2020-10-03T14:57:09.000Z</time>
      </trkpt>
      <trkpt lat="43.62459" lon="0.75376">
        <ele>204</ele>
        <time>2020-10-03T14:57:10.000Z</time>
      </trkpt>
      <trkpt lat="43.62459" lon="0.75373">
        <ele>204</ele>
        <time>2020-10-03T14:57:11.000Z</time>
      </trkpt>
      <trkpt lat="43.6246" lon="0.75369">
        <ele>204</ele>
        <time>2020-10-03T14:57:12.000Z</time>
      </trkpt>
      <trkpt lat="43.6246" lon="0.75366">
        <ele>204</ele>
        <time>2020-10-03T14:57:13.000Z</time>
      </trkpt>
      <trkpt lat="43.6246" lon="0.75362">
        <ele>204</ele>
        <time>2020-10-03T14:57:14.000Z</time>
      </trkpt>
      <trkpt lat="43.6246" lon="0.75359">
        <ele>204</ele>
        <time>2020-10-03T14:57:15.000Z</time>
      </trkpt>
      <trkpt lat="43.6246" lon="0.75357">
        <ele>204</ele>
        <time>2020-10-03T14:57:16.000Z</time>
      </trkpt>
      <trkpt lat="43.6246" lon="0.75354">
        <ele>204</ele>
        <time>2020-10-03T14:57:17.000Z</time>
      </trkpt>
      <trkpt lat="43.6246" lon="0.75351">
        <ele>204</ele>
        <time>2020-10-03T14:57:18.000Z</time>
      </trkpt>
      <trkpt lat="43.62461" lon="0.75347">
        <ele>203.57292</ele>
        <time>2020-10-03T14:57:19.000Z</time>
      </trkpt>
      <trkpt lat="43.62461" lon="0.75343">
        <ele>203</ele>
        <time>2020-10-03T14:57:20.000Z</time>
      </trkpt>
      <trkpt lat="43.62461" lon="0.7534">
        <ele>203</ele>
        <time>2020-10-03T14:57:21.000Z</time>
      </trkpt>
      <trkpt lat="43.62462" lon="0.75336">
        <ele>203</ele>
        <time>2020-10-03T14:57:22.000Z</time>
      </trkpt>
      <trkpt lat="43.62462" lon="0.75332">
        <ele>203</ele>
        <time>2020-10-03T14:57:23.000Z</time>
      </trkpt>
      <trkpt lat="43.62463" lon="0.75329">
        <ele>203</ele>
        <time>2020-10-03T14:57:24.000Z</time>
      </trkpt>
      <trkpt lat="43.62463" lon="0.75325">
        <ele>203</ele>
        <time>2020-10-03T14:57:25.000Z</time>
      </trkpt>
      <trkpt lat="43.62464" lon="0.75322">
        <ele>203</ele>
        <time>2020-10-03T14:57:26.000Z</time>
      </trkpt>
      <trkpt lat="43.62464" lon="0.75318">
        <ele>203</ele>
        <time>2020-10-03T14:57:27.000Z</time>
      </trkpt>
      <trkpt lat="43.62465" lon="0.75315">
        <ele>203</ele>
        <time>2020-10-03T14:57:28.000Z</time>
      </trkpt>
      <trkpt lat="43.62465" lon="0.75311">
        <ele>203</ele>
        <time>2020-10-03T14:57:29.000Z</time>
      </trkpt>
      <trkpt lat="43.62466" lon="0.75307">
        <ele>203</ele>
        <time>2020-10-03T14:57:30.000Z</time>
      </trkpt>
      <trkpt lat="43.62466" lon="0.75304">
        <ele>203</ele>
        <time>2020-10-03T14:57:31.000Z</time>
      </trkpt>
      <trkpt lat="43.62466" lon="0.75301">
        <ele>203</ele>
        <time>2020-10-03T14:57:32.000Z</time>
      </trkpt>
      <trkpt lat="43.62467" lon="0.75298">
        <ele>203</ele>
        <time>2020-10-03T14:57:33.000Z</time>
      </trkpt>
      <trkpt lat="43.62467" lon="0.75294">
        <ele>203</ele>
        <time>2020-10-03T14:57:34.000Z</time>
      </trkpt>
      <trkpt lat="43.62468" lon="0.75291">
        <ele>203</ele>
        <time>2020-10-03T14:57:35.000Z</time>
      </trkpt>
      <trkpt lat="43.62468" lon="0.75287">
        <ele>203</ele>
        <time>2020-10-03T14:57:36.000Z</time>
      </trkpt>
      <trkpt lat="43.62469" lon="0.75283">
        <ele>203</ele>
        <time>2020-10-03T14:57:37.000Z</time>
      </trkpt>
      <trkpt lat="43.6247" lon="0.75279">
        <ele>203</ele>
        <time>2020-10-03T14:57:38.000Z</time>
      </trkpt>
      <trkpt lat="43.62471" lon="0.75275">
        <ele>202.54128257219</ele>
        <time>2020-10-03T14:57:39.000Z</time>
      </trkpt>
      <trkpt lat="43.62472" lon="0.75271">
        <ele>202</ele>
        <time>2020-10-03T14:57:40.000Z</time>
      </trkpt>
      <trkpt lat="43.62473" lon="0.75267">
        <ele>201.56700799662</ele>
        <time>2020-10-03T14:57:41.000Z</time>
      </trkpt>
      <trkpt lat="43.62474" lon="0.75264">
        <ele>201</ele>
        <time>2020-10-03T14:57:42.000Z</time>
      </trkpt>
      <trkpt lat="43.62475" lon="0.7526">
        <ele>201.33010227541</ele>
        <time>2020-10-03T14:57:43.000Z</time>
      </trkpt>
      <trkpt lat="43.62476" lon="0.75257">
        <ele>202</ele>
        <time>2020-10-03T14:57:44.000Z</time>
      </trkpt>
      <trkpt lat="43.62478" lon="0.75254">
        <ele>202</ele>
        <time>2020-10-03T14:57:45.000Z</time>
      </trkpt>
      <trkpt lat="43.62479" lon="0.7525">
        <ele>202</ele>
        <time>2020-10-03T14:57:46.000Z</time>
      </trkpt>
      <trkpt lat="43.62481" lon="0.75247">
        <ele>202</ele>
        <time>2020-10-03T14:57:47.000Z</time>
      </trkpt>
      <trkpt lat="43.62482" lon="0.75244">
        <ele>202</ele>
        <time>2020-10-03T14:57:48.000Z</time>
      </trkpt>
      <trkpt lat="43.62484" lon="0.75241">
        <ele>202</ele>
        <time>2020-10-03T14:57:49.000Z</time>
      </trkpt>
      <trkpt lat="43.62485" lon="0.75238">
        <ele>202</ele>
        <time>2020-10-03T14:57:50.000Z</time>
      </trkpt>
      <trkpt lat="43.62487" lon="0.75235">
        <ele>202</ele>
        <time>2020-10-03T14:57:51.000Z</time>
      </trkpt>
      <trkpt lat="43.62488" lon="0.75232">
        <ele>202</ele>
        <time>2020-10-03T14:57:52.000Z</time>
      </trkpt>
      <trkpt lat="43.62489" lon="0.75229">
        <ele>202</ele>
        <time>2020-10-03T14:57:53.000Z</time>
      </trkpt>
      <trkpt lat="43.62491" lon="0.75227">
        <ele>201.75324157191</ele>
        <time>2020-10-03T14:57:54.000Z</time>
      </trkpt>
      <trkpt lat="43.62492" lon="0.75224">
        <ele>201</ele>
        <time>2020-10-03T14:57:55.000Z</time>
      </trkpt>
      <trkpt lat="43.62493" lon="0.75221">
        <ele>201</ele>
        <time>2020-10-03T14:57:56.000Z</time>
      </trkpt>
      <trkpt lat="43.62495" lon="0.75218">
        <ele>201</ele>
        <time>2020-10-03T14:57:57.000Z</time>
      </trkpt>
      <trkpt lat="43.62497" lon="0.75215">
        <ele>201</ele>
        <time>2020-10-03T14:57:58.000Z</time>
      </trkpt>
      <trkpt lat="43.62498" lon="0.75212">
        <ele>201</ele>
        <time>2020-10-03T14:57:59.000Z</time>
      </trkpt>
      <trkpt lat="43.62499" lon="0.75209">
        <ele>201</ele>
        <time>2020-10-03T14:58:00.000Z</time>
      </trkpt>
      <trkpt lat="43.62501" lon="0.75206">
        <ele>201</ele>
        <time>2020-10-03T14:58:01.000Z</time>
      </trkpt>
      <trkpt lat="43.62502" lon="0.75203">
        <ele>201</ele>
        <time>2020-10-03T14:58:02.000Z</time>
      </trkpt>
      <trkpt lat="43.62503" lon="0.75199">
        <ele>200.57894973221</ele>
        <time>2020-10-03T14:58:03.000Z</time>
      </trkpt>
      <trkpt lat="43.62505" lon="0.75196">
        <ele>200</ele>
        <time>2020-10-03T14:58:04.000Z</time>
      </trkpt>
      <trkpt lat="43.62507" lon="0.75193">
        <ele>200</ele>
        <time>2020-10-03T14:58:05.000Z</time>
      </trkpt>
      <trkpt lat="43.62509" lon="0.75191">
        <ele>200</ele>
        <time>2020-10-03T14:58:06.000Z</time>
      </trkpt>
      <trkpt lat="43.62511" lon="0.75189">
        <ele>200</ele>
        <time>2020-10-03T14:58:07.000Z</time>
      </trkpt>
      <trkpt lat="43.62514" lon="0.75187">
        <ele>200</ele>
        <time>2020-10-03T14:58:08.000Z</time>
      </trkpt>
      <trkpt lat="43.62516" lon="0.75186">
        <ele>200</ele>
        <time>2020-10-03T14:58:09.000Z</time>
      </trkpt>
      <trkpt lat="43.62518" lon="0.75184">
        <ele>200</ele>
        <time>2020-10-03T14:58:10.000Z</time>
      </trkpt>
      <trkpt lat="43.62521" lon="0.75183">
        <ele>200</ele>
        <time>2020-10-03T14:58:11.000Z</time>
      </trkpt>
      <trkpt lat="43.62523" lon="0.75181">
        <ele>200.25471846208</ele>
        <time>2020-10-03T14:58:12.000Z</time>
      </trkpt>
      <trkpt lat="43.62525" lon="0.75179">
        <ele>201</ele>
        <time>2020-10-03T14:58:13.000Z</time>
      </trkpt>
      <trkpt lat="43.62527" lon="0.75178">
        <ele>201</ele>
        <time>2020-10-03T14:58:14.000Z</time>
      </trkpt>
      <trkpt lat="43.62529" lon="0.75176">
        <ele>201</ele>
        <time>2020-10-03T14:58:15.000Z</time>
      </trkpt>
      <trkpt lat="43.62531" lon="0.75174">
        <ele>201</ele>
        <time>2020-10-03T14:58:16.000Z</time>
      </trkpt>
      <trkpt lat="43.62532" lon="0.75171">
        <ele>201</ele>
        <time>2020-10-03T14:58:17.000Z</time>
      </trkpt>
      <trkpt lat="43.62534" lon="0.7517">
        <ele>201.41177002078</ele>
        <time>2020-10-03T14:58:18.000Z</time>
      </trkpt>
      <trkpt lat="43.62536" lon="0.75167">
        <ele>202.4099968</ele>
        <time>2020-10-03T14:58:20.000Z</time>
      </trkpt>
      <trkpt lat="43.62537" lon="0.75165">
        <ele>203</ele>
        <time>2020-10-03T14:58:21.000Z</time>
      </trkpt>
      <trkpt lat="43.62539" lon="0.75164">
        <ele>203</ele>
        <time>2020-10-03T14:58:22.000Z</time>
      </trkpt>
      <trkpt lat="43.62541" lon="0.75162">
        <ele>203</ele>
        <time>2020-10-03T14:58:23.000Z</time>
      </trkpt>
      <trkpt lat="43.62543" lon="0.7516">
        <ele>203</ele>
        <time>2020-10-03T14:58:25.000Z</time>
      </trkpt>
      <trkpt lat="43.62545" lon="0.75158">
        <ele>203</ele>
        <time>2020-10-03T14:58:26.000Z</time>
      </trkpt>
      <trkpt lat="43.62548" lon="0.75155">
        <ele>203</ele>
        <time>2020-10-03T14:58:28.000Z</time>
      </trkpt>
      <trkpt lat="43.62551" lon="0.75152">
        <ele>204</ele>
        <time>2020-10-03T14:58:30.000Z</time>
      </trkpt>
      <trkpt lat="43.62552" lon="0.7515">
        <ele>204</ele>
        <time>2020-10-03T14:58:31.000Z</time>
      </trkpt>
      <trkpt lat="43.62554" lon="0.75148">
        <ele>204.08974695592</ele>
        <time>2020-10-03T14:58:32.000Z</time>
      </trkpt>
      <trkpt lat="43.62556" lon="0.75145">
        <ele>205</ele>
        <time>2020-10-03T14:58:33.000Z</time>
      </trkpt>
      <trkpt lat="43.62557" lon="0.75143">
        <ele>205</ele>
        <time>2020-10-03T14:58:34.000Z</time>
      </trkpt>
      <trkpt lat="43.62559" lon="0.7514">
        <ele>205</ele>
        <time>2020-10-03T14:58:35.000Z</time>
      </trkpt>
      <trkpt lat="43.6256" lon="0.75138">
        <ele>205</ele>
        <time>2020-10-03T14:58:36.000Z</time>
      </trkpt>
      <trkpt lat="43.62562" lon="0.75136">
        <ele>205.34951347724</ele>
        <time>2020-10-03T14:58:37.000Z</time>
      </trkpt>
      <trkpt lat="43.62564" lon="0.75134">
        <ele>206</ele>
        <time>2020-10-03T14:58:38.000Z</time>
      </trkpt>
      <trkpt lat="43.62566" lon="0.75132">
        <ele>206</ele>
        <time>2020-10-03T14:58:39.000Z</time>
      </trkpt>
      <trkpt lat="43.62567" lon="0.7513">
        <ele>206</ele>
        <time>2020-10-03T14:58:40.000Z</time>
      </trkpt>
      <trkpt lat="43.62569" lon="0.75128">
        <ele>206</ele>
        <time>2020-10-03T14:58:41.000Z</time>
      </trkpt>
      <trkpt lat="43.62571" lon="0.75125">
        <ele>206</ele>
        <time>2020-10-03T14:58:42.000Z</time>
      </trkpt>
      <trkpt lat="43.62572" lon="0.75123">
        <ele>206</ele>
        <time>2020-10-03T14:58:43.000Z</time>
      </trkpt>
      <trkpt lat="43.62574" lon="0.7512">
        <ele>206</ele>
        <time>2020-10-03T14:58:44.000Z</time>
      </trkpt>
      <trkpt lat="43.62576" lon="0.75118">
        <ele>206</ele>
        <time>2020-10-03T14:58:45.000Z</time>
      </trkpt>
      <trkpt lat="43.62578" lon="0.75116">
        <ele>206</ele>
        <time>2020-10-03T14:58:46.000Z</time>
      </trkpt>
      <trkpt lat="43.6258" lon="0.75114">
        <ele>206</ele>
        <time>2020-10-03T14:58:47.000Z</time>
      </trkpt>
      <trkpt lat="43.62582" lon="0.75112">
        <ele>206</ele>
        <time>2020-10-03T14:58:48.000Z</time>
      </trkpt>
      <trkpt lat="43.62584" lon="0.7511">
        <ele>206</ele>
        <time>2020-10-03T14:58:49.000Z</time>
      </trkpt>
      <trkpt lat="43.62585" lon="0.75108">
        <ele>206</ele>
        <time>2020-10-03T14:58:50.000Z</time>
      </trkpt>
      <trkpt lat="43.62587" lon="0.75105">
        <ele>206</ele>
        <time>2020-10-03T14:58:51.000Z</time>
      </trkpt>
      <trkpt lat="43.62588" lon="0.75103">
        <ele>206</ele>
        <time>2020-10-03T14:58:52.000Z</time>
      </trkpt>
      <trkpt lat="43.6259" lon="0.75101">
        <ele>206.4226785078</ele>
        <time>2020-10-03T14:58:53.000Z</time>
      </trkpt>
      <trkpt lat="43.62592" lon="0.75098">
        <ele>207</ele>
        <time>2020-10-03T14:58:54.000Z</time>
      </trkpt>
      <trkpt lat="43.62593" lon="0.75096">
        <ele>207</ele>
        <time>2020-10-03T14:58:55.000Z</time>
      </trkpt>
      <trkpt lat="43.62595" lon="0.75095">
        <ele>207</ele>
        <time>2020-10-03T14:58:56.000Z</time>
      </trkpt>
      <trkpt lat="43.62596" lon="0.75092">
        <ele>207</ele>
        <time>2020-10-03T14:58:57.000Z</time>
      </trkpt>
      <trkpt lat="43.62598" lon="0.7509">
        <ele>207</ele>
        <time>2020-10-03T14:58:58.000Z</time>
      </trkpt>
      <trkpt lat="43.62599" lon="0.75088">
        <ele>207</ele>
        <time>2020-10-03T14:58:59.000Z</time>
      </trkpt>
      <trkpt lat="43.62601" lon="0.75085">
        <ele>207</ele>
        <time>2020-10-03T14:59:00.000Z</time>
      </trkpt>
      <trkpt lat="43.62603" lon="0.75083">
        <ele>207</ele>
        <time>2020-10-03T14:59:01.000Z</time>
      </trkpt>
      <trkpt lat="43.62605" lon="0.7508">
        <ele>207</ele>
        <time>2020-10-03T14:59:02.000Z</time>
      </trkpt>
      <trkpt lat="43.62607" lon="0.75078">
        <ele>207</ele>
        <time>2020-10-03T14:59:03.000Z</time>
      </trkpt>
      <trkpt lat="43.62608" lon="0.75075">
        <ele>207</ele>
        <time>2020-10-03T14:59:04.000Z</time>
      </trkpt>
      <trkpt lat="43.62611" lon="0.75073">
        <ele>207</ele>
        <time>2020-10-03T14:59:05.000Z</time>
      </trkpt>
      <trkpt lat="43.62612" lon="0.75071">
        <ele>207</ele>
        <time>2020-10-03T14:59:06.000Z</time>
      </trkpt>
      <trkpt lat="43.62614" lon="0.75069">
        <ele>207</ele>
        <time>2020-10-03T14:59:07.000Z</time>
      </trkpt>
      <trkpt lat="43.62615" lon="0.75067">
        <ele>207</ele>
        <time>2020-10-03T14:59:08.000Z</time>
      </trkpt>
      <trkpt lat="43.62617" lon="0.75064">
        <ele>207.29357884353</ele>
        <time>2020-10-03T14:59:09.000Z</time>
      </trkpt>
      <trkpt lat="43.62619" lon="0.75062">
        <ele>208</ele>
        <time>2020-10-03T14:59:10.000Z</time>
      </trkpt>
      <trkpt lat="43.6262" lon="0.75059">
        <ele>208</ele>
        <time>2020-10-03T14:59:11.000Z</time>
      </trkpt>
      <trkpt lat="43.62622" lon="0.75057">
        <ele>208</ele>
        <time>2020-10-03T14:59:12.000Z</time>
      </trkpt>
      <trkpt lat="43.62623" lon="0.75055">
        <ele>208</ele>
        <time>2020-10-03T14:59:13.000Z</time>
      </trkpt>
      <trkpt lat="43.62625" lon="0.75053">
        <ele>208</ele>
        <time>2020-10-03T14:59:14.000Z</time>
      </trkpt>
      <trkpt lat="43.62626" lon="0.75052">
        <ele>208</ele>
        <time>2020-10-03T14:59:15.000Z</time>
      </trkpt>
      <trkpt lat="43.62628" lon="0.7505">
        <ele>208</ele>
        <time>2020-10-03T14:59:17.000Z</time>
      </trkpt>
      <trkpt lat="43.62631" lon="0.75048">
        <ele>208</ele>
        <time>2020-10-03T14:59:19.000Z</time>
      </trkpt>
      <trkpt lat="43.62634" lon="0.75045">
        <ele>210</ele>
        <time>2020-10-03T14:59:21.000Z</time>
      </trkpt>
      <trkpt lat="43.62636" lon="0.75043">
        <ele>210</ele>
        <time>2020-10-03T14:59:23.000Z</time>
      </trkpt>
      <trkpt lat="43.62639" lon="0.75041">
        <ele>210</ele>
        <time>2020-10-03T14:59:25.000Z</time>
      </trkpt>
      <trkpt lat="43.62641" lon="0.75038">
        <ele>210</ele>
        <time>2020-10-03T14:59:27.000Z</time>
      </trkpt>
      <trkpt lat="43.62643" lon="0.75036">
        <ele>210</ele>
        <time>2020-10-03T14:59:29.000Z</time>
      </trkpt>
      <trkpt lat="43.62645" lon="0.75034">
        <ele>210</ele>
        <time>2020-10-03T14:59:31.000Z</time>
      </trkpt>
      <trkpt lat="43.62647" lon="0.75031">
        <ele>210</ele>
        <time>2020-10-03T14:59:33.000Z</time>
      </trkpt>
      <trkpt lat="43.62649" lon="0.75028">
        <ele>210</ele>
        <time>2020-10-03T14:59:35.000Z</time>
      </trkpt>
      <trkpt lat="43.62651" lon="0.75026">
        <ele>211</ele>
        <time>2020-10-03T14:59:37.000Z</time>
      </trkpt>
      <trkpt lat="43.62653" lon="0.75023">
        <ele>211</ele>
        <time>2020-10-03T14:59:39.000Z</time>
      </trkpt>
      <trkpt lat="43.62655" lon="0.75021">
        <ele>211</ele>
        <time>2020-10-03T14:59:41.000Z</time>
      </trkpt>
      <trkpt lat="43.62657" lon="0.75018">
        <ele>211</ele>
        <time>2020-10-03T14:59:43.000Z</time>
      </trkpt>
      <trkpt lat="43.62659" lon="0.75015">
        <ele>211</ele>
        <time>2020-10-03T14:59:45.000Z</time>
      </trkpt>
      <trkpt lat="43.6266" lon="0.75013">
        <ele>211</ele>
        <time>2020-10-03T14:59:47.000Z</time>
      </trkpt>
      <trkpt lat="43.62662" lon="0.75012">
        <ele>211</ele>
        <time>2020-10-03T14:59:49.000Z</time>
      </trkpt>
      <trkpt lat="43.62663" lon="0.75009">
        <ele>212</ele>
        <time>2020-10-03T14:59:51.000Z</time>
      </trkpt>
      <trkpt lat="43.62665" lon="0.75006">
        <ele>212</ele>
        <time>2020-10-03T14:59:53.000Z</time>
      </trkpt>
      <trkpt lat="43.62667" lon="0.75003">
        <ele>212</ele>
        <time>2020-10-03T14:59:55.000Z</time>
      </trkpt>
      <trkpt lat="43.62669" lon="0.75002">
        <ele>212</ele>
        <time>2020-10-03T14:59:56.000Z</time>
      </trkpt>
      <trkpt lat="43.62671" lon="0.75">
        <ele>212</ele>
        <time>2020-10-03T14:59:58.000Z</time>
      </trkpt>
      <trkpt lat="43.62674" lon="0.74997">
        <ele>212</ele>
        <time>2020-10-03T15:00:00.000Z</time>
      </trkpt>
      <trkpt lat="43.62677" lon="0.74994">
        <ele>212</ele>
        <time>2020-10-03T15:00:02.000Z</time>
      </trkpt>
      <trkpt lat="43.62679" lon="0.74991">
        <ele>212</ele>
        <time>2020-10-03T15:00:04.000Z</time>
      </trkpt>
      <trkpt lat="43.62681" lon="0.74988">
        <ele>212</ele>
        <time>2020-10-03T15:00:06.000Z</time>
      </trkpt>
      <trkpt lat="43.62683" lon="0.74986">
        <ele>212</ele>
        <time>2020-10-03T15:00:08.000Z</time>
      </trkpt>
      <trkpt lat="43.62685" lon="0.74983">
        <ele>212</ele>
        <time>2020-10-03T15:00:10.000Z</time>
      </trkpt>
      <trkpt lat="43.62687" lon="0.7498">
        <ele>212</ele>
        <time>2020-10-03T15:00:12.000Z</time>
      </trkpt>
      <trkpt lat="43.62689" lon="0.74977">
        <ele>212</ele>
        <time>2020-10-03T15:00:14.000Z</time>
      </trkpt>
      <trkpt lat="43.62691" lon="0.74976">
        <ele>213</ele>
        <time>2020-10-03T15:00:16.000Z</time>
      </trkpt>
      <trkpt lat="43.62693" lon="0.74973">
        <ele>213</ele>
        <time>2020-10-03T15:00:18.000Z</time>
      </trkpt>
      <trkpt lat="43.62695" lon="0.7497">
        <ele>213.38201665444</ele>
        <time>2020-10-03T15:00:20.000Z</time>
      </trkpt>
      <trkpt lat="43.62698" lon="0.74967">
        <ele>214</ele>
        <time>2020-10-03T15:00:22.000Z</time>
      </trkpt>
      <trkpt lat="43.627" lon="0.74964">
        <ele>213.56756881422</ele>
        <time>2020-10-03T15:00:24.000Z</time>
      </trkpt>
      <trkpt lat="43.62702" lon="0.74962">
        <ele>213</ele>
        <time>2020-10-03T15:00:26.000Z</time>
      </trkpt>
      <trkpt lat="43.62704" lon="0.74958">
        <ele>213</ele>
        <time>2020-10-03T15:00:28.000Z</time>
      </trkpt>
      <trkpt lat="43.62706" lon="0.74956">
        <ele>215</ele>
        <time>2020-10-03T15:00:30.000Z</time>
      </trkpt>
      <trkpt lat="43.62708" lon="0.74953">
        <ele>216</ele>
        <time>2020-10-03T15:00:32.000Z</time>
      </trkpt>
      <trkpt lat="43.62711" lon="0.7495">
        <ele>216</ele>
        <time>2020-10-03T15:00:34.000Z</time>
      </trkpt>
      <trkpt lat="43.62713" lon="0.74947">
        <ele>216</ele>
        <time>2020-10-03T15:00:36.000Z</time>
      </trkpt>
      <trkpt lat="43.62715" lon="0.74946">
        <ele>215</ele>
        <time>2020-10-03T15:00:51.000Z</time>
      </trkpt>
      <trkpt lat="43.62714" lon="0.74944">
        <ele>215</ele>
        <time>2020-10-03T15:01:03.000Z</time>
      </trkpt>
      <trkpt lat="43.62717" lon="0.74942">
        <ele>215</ele>
        <time>2020-10-03T15:01:17.000Z</time>
      </trkpt>
      <trkpt lat="43.62718" lon="0.7494">
        <ele>215</ele>
        <time>2020-10-03T15:01:19.000Z</time>
      </trkpt>
      <trkpt lat="43.6272" lon="0.74937">
        <ele>215</ele>
        <time>2020-10-03T15:01:21.000Z</time>
      </trkpt>
      <trkpt lat="43.62722" lon="0.74934">
        <ele>215</ele>
        <time>2020-10-03T15:01:23.000Z</time>
      </trkpt>
      <trkpt lat="43.62724" lon="0.74932">
        <ele>215</ele>
        <time>2020-10-03T15:01:25.000Z</time>
      </trkpt>
      <trkpt lat="43.62727" lon="0.74929">
        <ele>215</ele>
        <time>2020-10-03T15:01:27.000Z</time>
      </trkpt>
      <trkpt lat="43.62728" lon="0.74927">
        <ele>215</ele>
        <time>2020-10-03T15:01:29.000Z</time>
      </trkpt>
      <trkpt lat="43.6273" lon="0.74925">
        <ele>215</ele>
        <time>2020-10-03T15:01:31.000Z</time>
      </trkpt>
      <trkpt lat="43.62732" lon="0.74922">
        <ele>215</ele>
        <time>2020-10-03T15:01:33.000Z</time>
      </trkpt>
      <trkpt lat="43.62734" lon="0.7492">
        <ele>215</ele>
        <time>2020-10-03T15:01:35.000Z</time>
      </trkpt>
      <trkpt lat="43.62736" lon="0.74917">
        <ele>215</ele>
        <time>2020-10-03T15:01:37.000Z</time>
      </trkpt>
      <trkpt lat="43.62738" lon="0.74914">
        <ele>215</ele>
        <time>2020-10-03T15:01:39.000Z</time>
      </trkpt>
      <trkpt lat="43.6274" lon="0.74912">
        <ele>216</ele>
        <time>2020-10-03T15:01:41.000Z</time>
      </trkpt>
      <trkpt lat="43.62742" lon="0.74908">
        <ele>216</ele>
        <time>2020-10-03T15:01:43.000Z</time>
      </trkpt>
      <trkpt lat="43.62745" lon="0.74906">
        <ele>216</ele>
        <time>2020-10-03T15:01:45.000Z</time>
      </trkpt>
      <trkpt lat="43.62747" lon="0.74902">
        <ele>216</ele>
        <time>2020-10-03T15:01:47.000Z</time>
      </trkpt>
      <trkpt lat="43.62749" lon="0.749">
        <ele>216</ele>
        <time>2020-10-03T15:01:49.000Z</time>
      </trkpt>
      <trkpt lat="43.62751" lon="0.74897">
        <ele>216</ele>
        <time>2020-10-03T15:01:51.000Z</time>
      </trkpt>
      <trkpt lat="43.62753" lon="0.74894">
        <ele>216</ele>
        <time>2020-10-03T15:01:53.000Z</time>
      </trkpt>
      <trkpt lat="43.62756" lon="0.74891">
        <ele>216</ele>
        <time>2020-10-03T15:01:55.000Z</time>
      </trkpt>
      <trkpt lat="43.62758" lon="0.74888">
        <ele>216</ele>
        <time>2020-10-03T15:01:57.000Z</time>
      </trkpt>
      <trkpt lat="43.62761" lon="0.74886">
        <ele>216</ele>
        <time>2020-10-03T15:01:59.000Z</time>
      </trkpt>
      <trkpt lat="43.62763" lon="0.74884">
        <ele>216</ele>
        <time>2020-10-03T15:02:01.000Z</time>
      </trkpt>
      <trkpt lat="43.62766" lon="0.74882">
        <ele>216</ele>
        <time>2020-10-03T15:02:03.000Z</time>
      </trkpt>
      <trkpt lat="43.62768" lon="0.7488">
        <ele>217</ele>
        <time>2020-10-03T15:02:05.000Z</time>
      </trkpt>
      <trkpt lat="43.62769" lon="0.74878">
        <ele>217</ele>
        <time>2020-10-03T15:02:07.000Z</time>
      </trkpt>
      <trkpt lat="43.62772" lon="0.74875">
        <ele>216</ele>
        <time>2020-10-03T15:02:09.000Z</time>
      </trkpt>
      <trkpt lat="43.62775" lon="0.74872">
        <ele>216</ele>
        <time>2020-10-03T15:02:11.000Z</time>
      </trkpt>
      <trkpt lat="43.62777" lon="0.7487">
        <ele>216</ele>
        <time>2020-10-03T15:02:13.000Z</time>
      </trkpt>
      <trkpt lat="43.6278" lon="0.74867">
        <ele>216</ele>
        <time>2020-10-03T15:02:15.000Z</time>
      </trkpt>
      <trkpt lat="43.62782" lon="0.74865">
        <ele>217</ele>
        <time>2020-10-03T15:02:17.000Z</time>
      </trkpt>
      <trkpt lat="43.62785" lon="0.74863">
        <ele>217</ele>
        <time>2020-10-03T15:02:19.000Z</time>
      </trkpt>
      <trkpt lat="43.62787" lon="0.74861">
        <ele>217</ele>
        <time>2020-10-03T15:02:21.000Z</time>
      </trkpt>
      <trkpt lat="43.6279" lon="0.74858">
        <ele>217</ele>
        <time>2020-10-03T15:02:23.000Z</time>
      </trkpt>
      <trkpt lat="43.62792" lon="0.74857">
        <ele>217</ele>
        <time>2020-10-03T15:02:24.000Z</time>
      </trkpt>
      <trkpt lat="43.62794" lon="0.74854">
        <ele>217.40909038016</ele>
        <time>2020-10-03T15:02:26.000Z</time>
      </trkpt>
      <trkpt lat="43.62796" lon="0.74853">
        <ele>218</ele>
        <time>2020-10-03T15:02:28.000Z</time>
      </trkpt>
      <trkpt lat="43.62798" lon="0.74851">
        <ele>217.5773214922</ele>
        <time>2020-10-03T15:02:30.000Z</time>
      </trkpt>
      <trkpt lat="43.62801" lon="0.74848">
        <ele>217</ele>
        <time>2020-10-03T15:02:32.000Z</time>
      </trkpt>
      <trkpt lat="43.62804" lon="0.74846">
        <ele>217</ele>
        <time>2020-10-03T15:02:34.000Z</time>
      </trkpt>
      <trkpt lat="43.62806" lon="0.74844">
        <ele>217</ele>
        <time>2020-10-03T15:02:36.000Z</time>
      </trkpt>
      <trkpt lat="43.62809" lon="0.74842">
        <ele>217</ele>
        <time>2020-10-03T15:02:38.000Z</time>
      </trkpt>
      <trkpt lat="43.62811" lon="0.74839">
        <ele>217</ele>
        <time>2020-10-03T15:02:40.000Z</time>
      </trkpt>
      <trkpt lat="43.62813" lon="0.74837">
        <ele>217</ele>
        <time>2020-10-03T15:02:42.000Z</time>
      </trkpt>
      <trkpt lat="43.62815" lon="0.74835">
        <ele>217</ele>
        <time>2020-10-03T15:02:44.000Z</time>
      </trkpt>
      <trkpt lat="43.62817" lon="0.74833">
        <ele>217</ele>
        <time>2020-10-03T15:02:46.000Z</time>
      </trkpt>
      <trkpt lat="43.6282" lon="0.74831">
        <ele>217</ele>
        <time>2020-10-03T15:02:48.000Z</time>
      </trkpt>
      <trkpt lat="43.62823" lon="0.74829">
        <ele>217</ele>
        <time>2020-10-03T15:02:50.000Z</time>
      </trkpt>
      <trkpt lat="43.62825" lon="0.74826">
        <ele>218</ele>
        <time>2020-10-03T15:02:52.000Z</time>
      </trkpt>
      <trkpt lat="43.62828" lon="0.74824">
        <ele>218</ele>
        <time>2020-10-03T15:02:54.000Z</time>
      </trkpt>
      <trkpt lat="43.6283" lon="0.74822">
        <ele>218</ele>
        <time>2020-10-03T15:02:56.000Z</time>
      </trkpt>
      <trkpt lat="43.62832" lon="0.7482">
        <ele>218</ele>
        <time>2020-10-03T15:02:58.000Z</time>
      </trkpt>
      <trkpt lat="43.62835" lon="0.74818">
        <ele>218</ele>
        <time>2020-10-03T15:03:00.000Z</time>
      </trkpt>
      <trkpt lat="43.62837" lon="0.74817">
        <ele>217.61904761905</ele>
        <time>2020-10-03T15:03:02.000Z</time>
      </trkpt>
      <trkpt lat="43.62839" lon="0.74814">
        <ele>217</ele>
        <time>2020-10-03T15:03:04.000Z</time>
      </trkpt>
      <trkpt lat="43.62841" lon="0.74811">
        <ele>217.38554068225</ele>
        <time>2020-10-03T15:03:06.000Z</time>
      </trkpt>
      <trkpt lat="43.62844" lon="0.74809">
        <ele>218</ele>
        <time>2020-10-03T15:03:08.000Z</time>
      </trkpt>
      <trkpt lat="43.62846" lon="0.74807">
        <ele>218.42857142857</ele>
        <time>2020-10-03T15:03:10.000Z</time>
      </trkpt>
      <trkpt lat="43.62849" lon="0.74804">
        <ele>219</ele>
        <time>2020-10-03T15:03:12.000Z</time>
      </trkpt>
      <trkpt lat="43.62851" lon="0.74802">
        <ele>219</ele>
        <time>2020-10-03T15:03:14.000Z</time>
      </trkpt>
      <trkpt lat="43.62853" lon="0.748">
        <ele>218.60909027438</ele>
        <time>2020-10-03T15:03:15.000Z</time>
      </trkpt>
      <trkpt lat="43.62855" lon="0.74799">
        <ele>218</ele>
        <time>2020-10-03T15:03:16.000Z</time>
      </trkpt>
      <trkpt lat="43.62858" lon="0.74796">
        <ele>218</ele>
        <time>2020-10-03T15:03:18.000Z</time>
      </trkpt>
      <trkpt lat="43.6286" lon="0.74793">
        <ele>217</ele>
        <time>2020-10-03T15:03:20.000Z</time>
      </trkpt>
      <trkpt lat="43.62862" lon="0.7479">
        <ele>218</ele>
        <time>2020-10-03T15:03:22.000Z</time>
      </trkpt>
      <trkpt lat="43.62864" lon="0.74788">
        <ele>219</ele>
        <time>2020-10-03T15:03:24.000Z</time>
      </trkpt>
      <trkpt lat="43.62867" lon="0.74786">
        <ele>219</ele>
        <time>2020-10-03T15:03:26.000Z</time>
      </trkpt>
      <trkpt lat="43.62869" lon="0.74784">
        <ele>219.39080155367</ele>
        <time>2020-10-03T15:03:28.000Z</time>
      </trkpt>
      <trkpt lat="43.62872" lon="0.74782">
        <ele>220</ele>
        <time>2020-10-03T15:03:30.000Z</time>
      </trkpt>
      <trkpt lat="43.62874" lon="0.74779">
        <ele>220</ele>
        <time>2020-10-03T15:03:32.000Z</time>
      </trkpt>
      <trkpt lat="43.62876" lon="0.74777">
        <ele>219</ele>
        <time>2020-10-03T15:03:34.000Z</time>
      </trkpt>
      <trkpt lat="43.62879" lon="0.74774">
        <ele>219</ele>
        <time>2020-10-03T15:03:36.000Z</time>
      </trkpt>
      <trkpt lat="43.62881" lon="0.74773">
        <ele>219</ele>
        <time>2020-10-03T15:03:38.000Z</time>
      </trkpt>
      <trkpt lat="43.62884" lon="0.7477">
        <ele>219</ele>
        <time>2020-10-03T15:03:40.000Z</time>
      </trkpt>
      <trkpt lat="43.62886" lon="0.74768">
        <ele>219</ele>
        <time>2020-10-03T15:03:42.000Z</time>
      </trkpt>
      <trkpt lat="43.62889" lon="0.74765">
        <ele>220</ele>
        <time>2020-10-03T15:03:44.000Z</time>
      </trkpt>
      <trkpt lat="43.62891" lon="0.74762">
        <ele>219.61912860107</ele>
        <time>2020-10-03T15:03:46.000Z</time>
      </trkpt>
      <trkpt lat="43.62894" lon="0.7476">
        <ele>218.59459397126</ele>
        <time>2020-10-03T15:03:48.000Z</time>
      </trkpt>
      <trkpt lat="43.62896" lon="0.74757">
        <ele>218</ele>
        <time>2020-10-03T15:03:50.000Z</time>
      </trkpt>
      <trkpt lat="43.62899" lon="0.74754">
        <ele>218</ele>
        <time>2020-10-03T15:03:52.000Z</time>
      </trkpt>
      <trkpt lat="43.62901" lon="0.74751">
        <ele>219</ele>
        <time>2020-10-03T15:03:54.000Z</time>
      </trkpt>
      <trkpt lat="43.62903" lon="0.74749">
        <ele>219</ele>
        <time>2020-10-03T15:03:56.000Z</time>
      </trkpt>
      <trkpt lat="43.62906" lon="0.74747">
        <ele>219</ele>
        <time>2020-10-03T15:03:58.000Z</time>
      </trkpt>
      <trkpt lat="43.62908" lon="0.74744">
        <ele>218.57759259042</ele>
        <time>2020-10-03T15:04:00.000Z</time>
      </trkpt>
      <trkpt lat="43.62911" lon="0.74742">
        <ele>218</ele>
        <time>2020-10-03T15:04:02.000Z</time>
      </trkpt>
      <trkpt lat="43.62913" lon="0.7474">
        <ele>218</ele>
        <time>2020-10-03T15:04:04.000Z</time>
      </trkpt>
      <trkpt lat="43.62916" lon="0.74738">
        <ele>218</ele>
        <time>2020-10-03T15:04:06.000Z</time>
      </trkpt>
      <trkpt lat="43.62918" lon="0.74737">
        <ele>218.97125386918</ele>
        <time>2020-10-03T15:04:07.000Z</time>
      </trkpt>
      <trkpt lat="43.6292" lon="0.74735">
        <ele>220</ele>
        <time>2020-10-03T15:04:09.000Z</time>
      </trkpt>
      <trkpt lat="43.62922" lon="0.74732">
        <ele>219.6600551164</ele>
        <time>2020-10-03T15:04:11.000Z</time>
      </trkpt>
      <trkpt lat="43.62924" lon="0.7473">
        <ele>219</ele>
        <time>2020-10-03T15:04:13.000Z</time>
      </trkpt>
      <trkpt lat="43.62927" lon="0.74727">
        <ele>219</ele>
        <time>2020-10-03T15:04:15.000Z</time>
      </trkpt>
      <trkpt lat="43.62929" lon="0.74725">
        <ele>219</ele>
        <time>2020-10-03T15:04:17.000Z</time>
      </trkpt>
      <trkpt lat="43.62931" lon="0.74723">
        <ele>219</ele>
        <time>2020-10-03T15:04:19.000Z</time>
      </trkpt>
      <trkpt lat="43.62933" lon="0.74721">
        <ele>219</ele>
        <time>2020-10-03T15:04:21.000Z</time>
      </trkpt>
      <trkpt lat="43.62934" lon="0.74719">
        <ele>219</ele>
        <time>2020-10-03T15:04:22.000Z</time>
      </trkpt>
      <trkpt lat="43.62936" lon="0.74716">
        <ele>219</ele>
        <time>2020-10-03T15:04:24.000Z</time>
      </trkpt>
      <trkpt lat="43.62938" lon="0.74713">
        <ele>219</ele>
        <time>2020-10-03T15:04:26.000Z</time>
      </trkpt>
      <trkpt lat="43.62939" lon="0.74709">
        <ele>219</ele>
        <time>2020-10-03T15:04:28.000Z</time>
      </trkpt>
      <trkpt lat="43.62941" lon="0.74705">
        <ele>219.36764235294</ele>
        <time>2020-10-03T15:04:30.000Z</time>
      </trkpt>
      <trkpt lat="43.62942" lon="0.74702">
        <ele>220</ele>
        <time>2020-10-03T15:04:31.000Z</time>
      </trkpt>
      <trkpt lat="43.62943" lon="0.74699">
        <ele>221</ele>
        <time>2020-10-03T15:04:33.000Z</time>
      </trkpt>
      <trkpt lat="43.62944" lon="0.74695">
        <ele>221</ele>
        <time>2020-10-03T15:04:35.000Z</time>
      </trkpt>
      <trkpt lat="43.62946" lon="0.74692">
        <ele>221</ele>
        <time>2020-10-03T15:04:37.000Z</time>
      </trkpt>
      <trkpt lat="43.62947" lon="0.74688">
        <ele>221</ele>
        <time>2020-10-03T15:04:39.000Z</time>
      </trkpt>
      <trkpt lat="43.62949" lon="0.74684">
        <ele>221</ele>
        <time>2020-10-03T15:04:41.000Z</time>
      </trkpt>
      <trkpt lat="43.6295" lon="0.7468">
        <ele>222</ele>
        <time>2020-10-03T15:04:43.000Z</time>
      </trkpt>
      <trkpt lat="43.62952" lon="0.74677">
        <ele>222</ele>
        <time>2020-10-03T15:04:45.000Z</time>
      </trkpt>
      <trkpt lat="43.62954" lon="0.74673">
        <ele>222</ele>
        <time>2020-10-03T15:04:47.000Z</time>
      </trkpt>
      <trkpt lat="43.62955" lon="0.74669">
        <ele>221</ele>
        <time>2020-10-03T15:04:49.000Z</time>
      </trkpt>
      <trkpt lat="43.62956" lon="0.74666">
        <ele>221</ele>
        <time>2020-10-03T15:04:51.000Z</time>
      </trkpt>
      <trkpt lat="43.62957" lon="0.74663">
        <ele>221</ele>
        <time>2020-10-03T15:04:53.000Z</time>
      </trkpt>
      <trkpt lat="43.62958" lon="0.74659">
        <ele>221</ele>
        <time>2020-10-03T15:04:55.000Z</time>
      </trkpt>
      <trkpt lat="43.6296" lon="0.74655">
        <ele>221</ele>
        <time>2020-10-03T15:04:57.000Z</time>
      </trkpt>
      <trkpt lat="43.62962" lon="0.74651">
        <ele>222</ele>
        <time>2020-10-03T15:04:59.000Z</time>
      </trkpt>
      <trkpt lat="43.62963" lon="0.74648">
        <ele>221.31428362448</ele>
        <time>2020-10-03T15:05:01.000Z</time>
      </trkpt>
      <trkpt lat="43.62964" lon="0.74644">
        <ele>220</ele>
        <time>2020-10-03T15:05:03.000Z</time>
      </trkpt>
      <trkpt lat="43.62965" lon="0.7464">
        <ele>221</ele>
        <time>2020-10-03T15:05:05.000Z</time>
      </trkpt>
      <trkpt lat="43.62967" lon="0.74636">
        <ele>221</ele>
        <time>2020-10-03T15:05:07.000Z</time>
      </trkpt>
      <trkpt lat="43.62968" lon="0.74632">
        <ele>221</ele>
        <time>2020-10-03T15:05:09.000Z</time>
      </trkpt>
      <trkpt lat="43.62969" lon="0.7463">
        <ele>221.33070612187</ele>
        <time>2020-10-03T15:05:10.000Z</time>
      </trkpt>
      <trkpt lat="43.62971" lon="0.74626">
        <ele>222</ele>
        <time>2020-10-03T15:05:12.000Z</time>
      </trkpt>
      <trkpt lat="43.62972" lon="0.74622">
        <ele>222</ele>
        <time>2020-10-03T15:05:14.000Z</time>
      </trkpt>
      <trkpt lat="43.62974" lon="0.74618">
        <ele>222</ele>
        <time>2020-10-03T15:05:16.000Z</time>
      </trkpt>
      <trkpt lat="43.62975" lon="0.74615">
        <ele>222</ele>
        <time>2020-10-03T15:05:18.000Z</time>
      </trkpt>
      <trkpt lat="43.62977" lon="0.74611">
        <ele>222.31192164968</ele>
        <time>2020-10-03T15:05:20.000Z</time>
      </trkpt>
      <trkpt lat="43.62978" lon="0.74607">
        <ele>223</ele>
        <time>2020-10-03T15:05:22.000Z</time>
      </trkpt>
      <trkpt lat="43.6298" lon="0.74603">
        <ele>223</ele>
        <time>2020-10-03T15:05:24.000Z</time>
      </trkpt>
      <trkpt lat="43.62981" lon="0.74599">
        <ele>223</ele>
        <time>2020-10-03T15:05:26.000Z</time>
      </trkpt>
      <trkpt lat="43.62982" lon="0.74595">
        <ele>223.41177002078</ele>
        <time>2020-10-03T15:05:28.000Z</time>
      </trkpt>
      <trkpt lat="43.62984" lon="0.74591">
        <ele>224</ele>
        <time>2020-10-03T15:05:30.000Z</time>
      </trkpt>
      <trkpt lat="43.62985" lon="0.74587">
        <ele>224</ele>
        <time>2020-10-03T15:05:32.000Z</time>
      </trkpt>
      <trkpt lat="43.62987" lon="0.74585">
        <ele>224</ele>
        <time>2020-10-03T15:05:34.000Z</time>
      </trkpt>
      <trkpt lat="43.62988" lon="0.74581">
        <ele>223</ele>
        <time>2020-10-03T15:05:36.000Z</time>
      </trkpt>
      <trkpt lat="43.62989" lon="0.74577">
        <ele>224</ele>
        <time>2020-10-03T15:05:38.000Z</time>
      </trkpt>
      <trkpt lat="43.6299" lon="0.74573">
        <ele>223</ele>
        <time>2020-10-03T15:05:40.000Z</time>
      </trkpt>
      <trkpt lat="43.62991" lon="0.7457">
        <ele>222</ele>
        <time>2020-10-03T15:05:42.000Z</time>
      </trkpt>
      <trkpt lat="43.62992" lon="0.74566">
        <ele>222.33654153846</ele>
        <time>2020-10-03T15:05:44.000Z</time>
      </trkpt>
      <trkpt lat="43.62993" lon="0.74562">
        <ele>223</ele>
        <time>2020-10-03T15:05:46.000Z</time>
      </trkpt>
      <trkpt lat="43.62993" lon="0.74558">
        <ele>224</ele>
        <time>2020-10-03T15:05:48.000Z</time>
      </trkpt>
      <trkpt lat="43.62994" lon="0.74554">
        <ele>224</ele>
        <time>2020-10-03T15:05:50.000Z</time>
      </trkpt>
      <trkpt lat="43.62995" lon="0.7455">
        <ele>224</ele>
        <time>2020-10-03T15:05:52.000Z</time>
      </trkpt>
      <trkpt lat="43.62996" lon="0.74547">
        <ele>224</ele>
        <time>2020-10-03T15:05:54.000Z</time>
      </trkpt>
      <trkpt lat="43.62996" lon="0.74543">
        <ele>224</ele>
        <time>2020-10-03T15:05:56.000Z</time>
      </trkpt>
      <trkpt lat="43.62997" lon="0.74539">
        <ele>223.58715768707</ele>
        <time>2020-10-03T15:05:58.000Z</time>
      </trkpt>
      <trkpt lat="43.62997" lon="0.74535">
        <ele>223.45913162039</ele>
        <time>2020-10-03T15:06:00.000Z</time>
      </trkpt>
      <trkpt lat="43.62998" lon="0.74532">
        <ele>224</ele>
        <time>2020-10-03T15:06:02.000Z</time>
      </trkpt>
      <trkpt lat="43.62999" lon="0.74528">
        <ele>224</ele>
        <time>2020-10-03T15:06:04.000Z</time>
      </trkpt>
      <trkpt lat="43.62999" lon="0.74525">
        <ele>224</ele>
        <time>2020-10-03T15:06:06.000Z</time>
      </trkpt>
      <trkpt lat="43.63" lon="0.7452">
        <ele>223</ele>
        <time>2020-10-03T15:06:08.000Z</time>
      </trkpt>
      <trkpt lat="43.63001" lon="0.74516">
        <ele>223</ele>
        <time>2020-10-03T15:06:10.000Z</time>
      </trkpt>
      <trkpt lat="43.63002" lon="0.74512">
        <ele>223</ele>
        <time>2020-10-03T15:06:12.000Z</time>
      </trkpt>
      <trkpt lat="43.63003" lon="0.74508">
        <ele>223</ele>
        <time>2020-10-03T15:06:14.000Z</time>
      </trkpt>
      <trkpt lat="43.63004" lon="0.74504">
        <ele>223</ele>
        <time>2020-10-03T15:06:16.000Z</time>
      </trkpt>
      <trkpt lat="43.63005" lon="0.745">
        <ele>223</ele>
        <time>2020-10-03T15:06:18.000Z</time>
      </trkpt>
      <trkpt lat="43.63006" lon="0.74496">
        <ele>223</ele>
        <time>2020-10-03T15:06:20.000Z</time>
      </trkpt>
      <trkpt lat="43.63006" lon="0.74491">
        <ele>223</ele>
        <time>2020-10-03T15:06:22.000Z</time>
      </trkpt>
      <trkpt lat="43.63007" lon="0.74487">
        <ele>222.54545771903</ele>
        <time>2020-10-03T15:06:24.000Z</time>
      </trkpt>
      <trkpt lat="43.63007" lon="0.74484">
        <ele>222</ele>
        <time>2020-10-03T15:06:25.000Z</time>
      </trkpt>
      <trkpt lat="43.63008" lon="0.7448">
        <ele>222</ele>
        <time>2020-10-03T15:06:27.000Z</time>
      </trkpt>
      <trkpt lat="43.63009" lon="0.74475">
        <ele>222</ele>
        <time>2020-10-03T15:06:29.000Z</time>
      </trkpt>
      <trkpt lat="43.63009" lon="0.74471">
        <ele>222</ele>
        <time>2020-10-03T15:06:31.000Z</time>
      </trkpt>
      <trkpt lat="43.6301" lon="0.74468">
        <ele>222</ele>
        <time>2020-10-03T15:06:32.000Z</time>
      </trkpt>
      <trkpt lat="43.63011" lon="0.74464">
        <ele>221.52884923077</ele>
        <time>2020-10-03T15:06:34.000Z</time>
      </trkpt>
      <trkpt lat="43.63012" lon="0.7446">
        <ele>221</ele>
        <time>2020-10-03T15:06:36.000Z</time>
      </trkpt>
      <trkpt lat="43.63013" lon="0.74456">
        <ele>221</ele>
        <time>2020-10-03T15:06:38.000Z</time>
      </trkpt>
      <trkpt lat="43.63014" lon="0.74452">
        <ele>221.28730559806</ele>
        <time>2020-10-03T15:06:40.000Z</time>
      </trkpt>
      <trkpt lat="43.63015" lon="0.74448">
        <ele>222</ele>
        <time>2020-10-03T15:06:42.000Z</time>
      </trkpt>
      <trkpt lat="43.63016" lon="0.74444">
        <ele>222</ele>
        <time>2020-10-03T15:06:44.000Z</time>
      </trkpt>
      <trkpt lat="43.63016" lon="0.7444">
        <ele>222</ele>
        <time>2020-10-03T15:06:46.000Z</time>
      </trkpt>
      <trkpt lat="43.63016" lon="0.74436">
        <ele>222</ele>
        <time>2020-10-03T15:06:48.000Z</time>
      </trkpt>
      <trkpt lat="43.63017" lon="0.74433">
        <ele>222</ele>
        <time>2020-10-03T15:06:50.000Z</time>
      </trkpt>
      <trkpt lat="43.63017" lon="0.74429">
        <ele>221</ele>
        <time>2020-10-03T15:06:52.000Z</time>
      </trkpt>
      <trkpt lat="43.63018" lon="0.74424">
        <ele>221</ele>
        <time>2020-10-03T15:06:54.000Z</time>
      </trkpt>
      <trkpt lat="43.63019" lon="0.7442">
        <ele>220</ele>
        <time>2020-10-03T15:06:56.000Z</time>
      </trkpt>
      <trkpt lat="43.6302" lon="0.74416">
        <ele>220</ele>
        <time>2020-10-03T15:06:58.000Z</time>
      </trkpt>
      <trkpt lat="43.63021" lon="0.74412">
        <ele>220</ele>
        <time>2020-10-03T15:07:00.000Z</time>
      </trkpt>
      <trkpt lat="43.63022" lon="0.74409">
        <ele>220</ele>
        <time>2020-10-03T15:07:02.000Z</time>
      </trkpt>
      <trkpt lat="43.63022" lon="0.74407">
        <ele>220</ele>
        <time>2020-10-03T15:07:09.000Z</time>
      </trkpt>
      <trkpt lat="43.63021" lon="0.74404">
        <ele>220</ele>
        <time>2020-10-03T15:07:50.000Z</time>
      </trkpt>
      <trkpt lat="43.63021" lon="0.74402">
        <ele>220</ele>
        <time>2020-10-03T15:07:54.000Z</time>
      </trkpt>
      <trkpt lat="43.6302" lon="0.74399">
        <ele>219</ele>
        <time>2020-10-03T15:07:57.000Z</time>
      </trkpt>
      <trkpt lat="43.6302" lon="0.74396">
        <ele>219</ele>
        <time>2020-10-03T15:07:59.000Z</time>
      </trkpt>
      <trkpt lat="43.63019" lon="0.74389">
        <ele>219</ele>
        <time>2020-10-03T15:08:02.000Z</time>
      </trkpt>
      <trkpt lat="43.63019" lon="0.74386">
        <ele>219</ele>
        <time>2020-10-03T15:08:03.000Z</time>
      </trkpt>
      <trkpt lat="43.63019" lon="0.74382">
        <ele>219</ele>
        <time>2020-10-03T15:08:04.000Z</time>
      </trkpt>
      <trkpt lat="43.63018" lon="0.74378">
        <ele>218.70833777778</ele>
        <time>2020-10-03T15:08:05.000Z</time>
      </trkpt>
      <trkpt lat="43.63019" lon="0.74375">
        <ele>218</ele>
        <time>2020-10-03T15:08:06.000Z</time>
      </trkpt>
      <trkpt lat="43.63019" lon="0.74372">
        <ele>218</ele>
        <time>2020-10-03T15:08:07.000Z</time>
      </trkpt>
      <trkpt lat="43.63019" lon="0.74368">
        <ele>218</ele>
        <time>2020-10-03T15:08:08.000Z</time>
      </trkpt>
      <trkpt lat="43.63019" lon="0.74365">
        <ele>218</ele>
        <time>2020-10-03T15:08:09.000Z</time>
      </trkpt>
      <trkpt lat="43.63019" lon="0.74362">
        <ele>218</ele>
        <time>2020-10-03T15:08:10.000Z</time>
      </trkpt>
      <trkpt lat="43.63019" lon="0.74359">
        <ele>218</ele>
        <time>2020-10-03T15:08:11.000Z</time>
      </trkpt>
      <trkpt lat="43.63019" lon="0.74355">
        <ele>218</ele>
        <time>2020-10-03T15:08:12.000Z</time>
      </trkpt>
      <trkpt lat="43.63019" lon="0.74351">
        <ele>218</ele>
        <time>2020-10-03T15:08:13.000Z</time>
      </trkpt>
      <trkpt lat="43.63019" lon="0.74348">
        <ele>218</ele>
        <time>2020-10-03T15:08:14.000Z</time>
      </trkpt>
      <trkpt lat="43.63019" lon="0.74344">
        <ele>218</ele>
        <time>2020-10-03T15:08:15.000Z</time>
      </trkpt>
      <trkpt lat="43.63019" lon="0.7434">
        <ele>218</ele>
        <time>2020-10-03T15:08:16.000Z</time>
      </trkpt>
      <trkpt lat="43.6302" lon="0.74337">
        <ele>218</ele>
        <time>2020-10-03T15:08:17.000Z</time>
      </trkpt>
      <trkpt lat="43.6302" lon="0.74334">
        <ele>217.63742179813</ele>
        <time>2020-10-03T15:08:18.000Z</time>
      </trkpt>
      <trkpt lat="43.6302" lon="0.7433">
        <ele>217</ele>
        <time>2020-10-03T15:08:19.000Z</time>
      </trkpt>
      <trkpt lat="43.6302" lon="0.74326">
        <ele>217</ele>
        <time>2020-10-03T15:08:20.000Z</time>
      </trkpt>
      <trkpt lat="43.63021" lon="0.74323">
        <ele>217</ele>
        <time>2020-10-03T15:08:21.000Z</time>
      </trkpt>
      <trkpt lat="43.63021" lon="0.74319">
        <ele>217</ele>
        <time>2020-10-03T15:08:22.000Z</time>
      </trkpt>
      <trkpt lat="43.63021" lon="0.74316">
        <ele>216.68827309574</ele>
        <time>2020-10-03T15:08:23.000Z</time>
      </trkpt>
      <trkpt lat="43.63021" lon="0.74312">
        <ele>216</ele>
        <time>2020-10-03T15:08:24.000Z</time>
      </trkpt>
      <trkpt lat="43.63021" lon="0.74309">
        <ele>216</ele>
        <time>2020-10-03T15:08:25.000Z</time>
      </trkpt>
      <trkpt lat="43.63021" lon="0.74305">
        <ele>216</ele>
        <time>2020-10-03T15:08:26.000Z</time>
      </trkpt>
      <trkpt lat="43.63021" lon="0.74302">
        <ele>216.49494466281</ele>
        <time>2020-10-03T15:08:27.000Z</time>
      </trkpt>
      <trkpt lat="43.63021" lon="0.74299">
        <ele>217</ele>
        <time>2020-10-03T15:08:28.000Z</time>
      </trkpt>
      <trkpt lat="43.63021" lon="0.74295">
        <ele>217</ele>
        <time>2020-10-03T15:08:29.000Z</time>
      </trkpt>
      <trkpt lat="43.63022" lon="0.74292">
        <ele>217</ele>
        <time>2020-10-03T15:08:30.000Z</time>
      </trkpt>
      <trkpt lat="43.63022" lon="0.74289">
        <ele>217.38372006489</ele>
        <time>2020-10-03T15:08:31.000Z</time>
      </trkpt>
      <trkpt lat="43.63023" lon="0.74286">
        <ele>218</ele>
        <time>2020-10-03T15:08:32.000Z</time>
      </trkpt>
      <trkpt lat="43.63023" lon="0.74283">
        <ele>218</ele>
        <time>2020-10-03T15:08:33.000Z</time>
      </trkpt>
      <trkpt lat="43.63024" lon="0.74279">
        <ele>218</ele>
        <time>2020-10-03T15:08:34.000Z</time>
      </trkpt>
      <trkpt lat="43.63024" lon="0.74276">
        <ele>218</ele>
        <time>2020-10-03T15:08:35.000Z</time>
      </trkpt>
      <trkpt lat="43.63024" lon="0.74273">
        <ele>218</ele>
        <time>2020-10-03T15:08:36.000Z</time>
      </trkpt>
      <trkpt lat="43.63025" lon="0.7427">
        <ele>218</ele>
        <time>2020-10-03T15:08:37.000Z</time>
      </trkpt>
      <trkpt lat="43.63025" lon="0.74267">
        <ele>218</ele>
        <time>2020-10-03T15:08:38.000Z</time>
      </trkpt>
      <trkpt lat="43.63025" lon="0.74263">
        <ele>218</ele>
        <time>2020-10-03T15:08:39.000Z</time>
      </trkpt>
      <trkpt lat="43.63026" lon="0.7426">
        <ele>218</ele>
        <time>2020-10-03T15:08:40.000Z</time>
      </trkpt>
      <trkpt lat="43.63026" lon="0.74257">
        <ele>218</ele>
        <time>2020-10-03T15:08:41.000Z</time>
      </trkpt>
      <trkpt lat="43.63027" lon="0.74254">
        <ele>218</ele>
        <time>2020-10-03T15:08:42.000Z</time>
      </trkpt>
      <trkpt lat="43.63027" lon="0.74251">
        <ele>218.36697355442</ele>
        <time>2020-10-03T15:08:43.000Z</time>
      </trkpt>
      <trkpt lat="43.63027" lon="0.74247">
        <ele>219</ele>
        <time>2020-10-03T15:08:44.000Z</time>
      </trkpt>
      <trkpt lat="43.63027" lon="0.74244">
        <ele>219</ele>
        <time>2020-10-03T15:08:45.000Z</time>
      </trkpt>
      <trkpt lat="43.63026" lon="0.74241">
        <ele>219</ele>
        <time>2020-10-03T15:08:46.000Z</time>
      </trkpt>
      <trkpt lat="43.63025" lon="0.74239">
        <ele>218.60000269476</ele>
        <time>2020-10-03T15:08:47.000Z</time>
      </trkpt>
      <trkpt lat="43.63023" lon="0.74237">
        <ele>218</ele>
        <time>2020-10-03T15:08:48.000Z</time>
      </trkpt>
      <trkpt lat="43.63022" lon="0.74235">
        <ele>218</ele>
        <time>2020-10-03T15:08:49.000Z</time>
      </trkpt>
      <trkpt lat="43.6302" lon="0.74233">
        <ele>218</ele>
        <time>2020-10-03T15:08:50.000Z</time>
      </trkpt>
      <trkpt lat="43.63018" lon="0.74231">
        <ele>218</ele>
        <time>2020-10-03T15:08:51.000Z</time>
      </trkpt>
      <trkpt lat="43.63016" lon="0.74229">
        <ele>218</ele>
        <time>2020-10-03T15:08:52.000Z</time>
      </trkpt>
      <trkpt lat="43.63013" lon="0.74227">
        <ele>218</ele>
        <time>2020-10-03T15:08:53.000Z</time>
      </trkpt>
      <trkpt lat="43.63011" lon="0.74225">
        <ele>218</ele>
        <time>2020-10-03T15:08:54.000Z</time>
      </trkpt>
      <trkpt lat="43.63009" lon="0.74222">
        <ele>218</ele>
        <time>2020-10-03T15:08:55.000Z</time>
      </trkpt>
      <trkpt lat="43.63007" lon="0.74221">
        <ele>218</ele>
        <time>2020-10-03T15:08:56.000Z</time>
      </trkpt>
      <trkpt lat="43.63005" lon="0.74219">
        <ele>218</ele>
        <time>2020-10-03T15:08:57.000Z</time>
      </trkpt>
      <trkpt lat="43.63003" lon="0.74217">
        <ele>218</ele>
        <time>2020-10-03T15:08:58.000Z</time>
      </trkpt>
      <trkpt lat="43.63001" lon="0.74215">
        <ele>218</ele>
        <time>2020-10-03T15:08:59.000Z</time>
      </trkpt>
      <trkpt lat="43.62999" lon="0.74212">
        <ele>218</ele>
        <time>2020-10-03T15:09:00.000Z</time>
      </trkpt>
      <trkpt lat="43.62997" lon="0.7421">
        <ele>218</ele>
        <time>2020-10-03T15:09:01.000Z</time>
      </trkpt>
      <trkpt lat="43.62995" lon="0.74208">
        <ele>218</ele>
        <time>2020-10-03T15:09:02.000Z</time>
      </trkpt>
      <trkpt lat="43.62993" lon="0.74206">
        <ele>218</ele>
        <time>2020-10-03T15:09:03.000Z</time>
      </trkpt>
      <trkpt lat="43.6299" lon="0.74204">
        <ele>218</ele>
        <time>2020-10-03T15:09:04.000Z</time>
      </trkpt>
      <trkpt lat="43.62988" lon="0.74202">
        <ele>218</ele>
        <time>2020-10-03T15:09:05.000Z</time>
      </trkpt>
      <trkpt lat="43.62986" lon="0.742">
        <ele>218</ele>
        <time>2020-10-03T15:09:06.000Z</time>
      </trkpt>
      <trkpt lat="43.62984" lon="0.74197">
        <ele>218</ele>
        <time>2020-10-03T15:09:07.000Z</time>
      </trkpt>
      <trkpt lat="43.62982" lon="0.74195">
        <ele>218</ele>
        <time>2020-10-03T15:09:08.000Z</time>
      </trkpt>
      <trkpt lat="43.6298" lon="0.74193">
        <ele>218</ele>
        <time>2020-10-03T15:09:09.000Z</time>
      </trkpt>
      <trkpt lat="43.62978" lon="0.7419">
        <ele>218</ele>
        <time>2020-10-03T15:09:10.000Z</time>
      </trkpt>
      <trkpt lat="43.62976" lon="0.74188">
        <ele>218</ele>
        <time>2020-10-03T15:09:11.000Z</time>
      </trkpt>
      <trkpt lat="43.62974" lon="0.74186">
        <ele>218</ele>
        <time>2020-10-03T15:09:12.000Z</time>
      </trkpt>
      <trkpt lat="43.62972" lon="0.74183">
        <ele>217.5545457719</ele>
        <time>2020-10-03T15:09:13.000Z</time>
      </trkpt>
      <trkpt lat="43.6297" lon="0.74181">
        <ele>217</ele>
        <time>2020-10-03T15:09:14.000Z</time>
      </trkpt>
      <trkpt lat="43.62968" lon="0.74179">
        <ele>217</ele>
        <time>2020-10-03T15:09:15.000Z</time>
      </trkpt>
      <trkpt lat="43.62966" lon="0.74177">
        <ele>217</ele>
        <time>2020-10-03T15:09:16.000Z</time>
      </trkpt>
      <trkpt lat="43.62964" lon="0.74175">
        <ele>216.64925301849</ele>
        <time>2020-10-03T15:09:17.000Z</time>
      </trkpt>
      <trkpt lat="43.62962" lon="0.74173">
        <ele>216</ele>
        <time>2020-10-03T15:09:18.000Z</time>
      </trkpt>
      <trkpt lat="43.6296" lon="0.74171">
        <ele>216</ele>
        <time>2020-10-03T15:09:19.000Z</time>
      </trkpt>
      <trkpt lat="43.62958" lon="0.74169">
        <ele>216</ele>
        <time>2020-10-03T15:09:20.000Z</time>
      </trkpt>
      <trkpt lat="43.62956" lon="0.74167">
        <ele>215.1527395239</ele>
        <time>2020-10-03T15:09:21.000Z</time>
      </trkpt>
      <trkpt lat="43.62954" lon="0.74165">
        <ele>214</ele>
        <time>2020-10-03T15:09:22.000Z</time>
      </trkpt>
      <trkpt lat="43.62952" lon="0.74162">
        <ele>213.15999795203</ele>
        <time>2020-10-03T15:09:23.000Z</time>
      </trkpt>
      <trkpt lat="43.62949" lon="0.7416">
        <ele>212</ele>
        <time>2020-10-03T15:09:24.000Z</time>
      </trkpt>
      <trkpt lat="43.62947" lon="0.74158">
        <ele>212</ele>
        <time>2020-10-03T15:09:25.000Z</time>
      </trkpt>
      <trkpt lat="43.62945" lon="0.74156">
        <ele>212</ele>
        <time>2020-10-03T15:09:26.000Z</time>
      </trkpt>
      <trkpt lat="43.62943" lon="0.74153">
        <ele>212</ele>
        <time>2020-10-03T15:09:27.000Z</time>
      </trkpt>
      <trkpt lat="43.62941" lon="0.74151">
        <ele>212</ele>
        <time>2020-10-03T15:09:28.000Z</time>
      </trkpt>
      <trkpt lat="43.62939" lon="0.74149">
        <ele>211.55375036482</ele>
        <time>2020-10-03T15:09:29.000Z</time>
      </trkpt>
      <trkpt lat="43.62936" lon="0.74146">
        <ele>211</ele>
        <time>2020-10-03T15:09:30.000Z</time>
      </trkpt>
      <trkpt lat="43.62934" lon="0.74144">
        <ele>211</ele>
        <time>2020-10-03T15:09:31.000Z</time>
      </trkpt>
      <trkpt lat="43.62932" lon="0.74142">
        <ele>210.56666935735</ele>
        <time>2020-10-03T15:09:32.000Z</time>
      </trkpt>
      <trkpt lat="43.6293" lon="0.7414">
        <ele>210</ele>
        <time>2020-10-03T15:09:33.000Z</time>
      </trkpt>
      <trkpt lat="43.62927" lon="0.74137">
        <ele>210</ele>
        <time>2020-10-03T15:09:34.000Z</time>
      </trkpt>
      <trkpt lat="43.62925" lon="0.74135">
        <ele>209.23456907177</ele>
        <time>2020-10-03T15:09:35.000Z</time>
      </trkpt>
      <trkpt lat="43.62923" lon="0.74132">
        <ele>208</ele>
        <time>2020-10-03T15:09:36.000Z</time>
      </trkpt>
      <trkpt lat="43.62921" lon="0.7413">
        <ele>208</ele>
        <time>2020-10-03T15:09:37.000Z</time>
      </trkpt>
      <trkpt lat="43.62918" lon="0.74128">
        <ele>208</ele>
        <time>2020-10-03T15:09:38.000Z</time>
      </trkpt>
      <trkpt lat="43.62916" lon="0.74126">
        <ele>208</ele>
        <time>2020-10-03T15:09:39.000Z</time>
      </trkpt>
      <trkpt lat="43.62914" lon="0.74123">
        <ele>207.1090915438</ele>
        <time>2020-10-03T15:09:40.000Z</time>
      </trkpt>
      <trkpt lat="43.62912" lon="0.74121">
        <ele>206</ele>
        <time>2020-10-03T15:09:41.000Z</time>
      </trkpt>
      <trkpt lat="43.62909" lon="0.74119">
        <ele>206</ele>
        <time>2020-10-03T15:09:42.000Z</time>
      </trkpt>
      <trkpt lat="43.62907" lon="0.74116">
        <ele>206</ele>
        <time>2020-10-03T15:09:43.000Z</time>
      </trkpt>
      <trkpt lat="43.62905" lon="0.74114">
        <ele>206</ele>
        <time>2020-10-03T15:09:44.000Z</time>
      </trkpt>
      <trkpt lat="43.62903" lon="0.74112">
        <ele>206</ele>
        <time>2020-10-03T15:09:45.000Z</time>
      </trkpt>
      <trkpt lat="43.62901" lon="0.7411">
        <ele>206</ele>
        <time>2020-10-03T15:09:46.000Z</time>
      </trkpt>
      <trkpt lat="43.62899" lon="0.74108">
        <ele>205.12422502345</ele>
        <time>2020-10-03T15:09:47.000Z</time>
      </trkpt>
      <trkpt lat="43.62897" lon="0.74106">
        <ele>204</ele>
        <time>2020-10-03T15:09:48.000Z</time>
      </trkpt>
      <trkpt lat="43.62895" lon="0.74104">
        <ele>204</ele>
        <time>2020-10-03T15:09:49.000Z</time>
      </trkpt>
      <trkpt lat="43.62892" lon="0.74101">
        <ele>203.52082666667</ele>
        <time>2020-10-03T15:09:50.000Z</time>
      </trkpt>
      <trkpt lat="43.6289" lon="0.74099">
        <ele>203</ele>
        <time>2020-10-03T15:09:51.000Z</time>
      </trkpt>
      <trkpt lat="43.62888" lon="0.74097">
        <ele>203</ele>
        <time>2020-10-03T15:09:52.000Z</time>
      </trkpt>
      <trkpt lat="43.62886" lon="0.74095">
        <ele>202.54545137192</ele>
        <time>2020-10-03T15:09:53.000Z</time>
      </trkpt>
      <trkpt lat="43.62884" lon="0.74092">
        <ele>202</ele>
        <time>2020-10-03T15:09:54.000Z</time>
      </trkpt>
      <trkpt lat="43.62882" lon="0.7409">
        <ele>202</ele>
        <time>2020-10-03T15:09:55.000Z</time>
      </trkpt>
      <trkpt lat="43.6288" lon="0.74088">
        <ele>202</ele>
        <time>2020-10-03T15:09:56.000Z</time>
      </trkpt>
      <trkpt lat="43.62878" lon="0.74086">
        <ele>202</ele>
        <time>2020-10-03T15:09:57.000Z</time>
      </trkpt>
      <trkpt lat="43.62875" lon="0.74084">
        <ele>202</ele>
        <time>2020-10-03T15:09:58.000Z</time>
      </trkpt>
      <trkpt lat="43.62873" lon="0.74082">
        <ele>202</ele>
        <time>2020-10-03T15:09:59.000Z</time>
      </trkpt>
      <trkpt lat="43.62871" lon="0.74081">
        <ele>201.45132021613</ele>
        <time>2020-10-03T15:10:00.000Z</time>
      </trkpt>
      <trkpt lat="43.62868" lon="0.74079">
        <ele>200</ele>
        <time>2020-10-03T15:10:01.000Z</time>
      </trkpt>
      <trkpt lat="43.62866" lon="0.74077">
        <ele>200</ele>
        <time>2020-10-03T15:10:02.000Z</time>
      </trkpt>
      <trkpt lat="43.62864" lon="0.74075">
        <ele>200</ele>
        <time>2020-10-03T15:10:03.000Z</time>
      </trkpt>
      <trkpt lat="43.62862" lon="0.74073">
        <ele>200</ele>
        <time>2020-10-03T15:10:04.000Z</time>
      </trkpt>
      <trkpt lat="43.62859" lon="0.74071">
        <ele>200</ele>
        <time>2020-10-03T15:10:05.000Z</time>
      </trkpt>
      <trkpt lat="43.62857" lon="0.74069">
        <ele>200</ele>
        <time>2020-10-03T15:10:06.000Z</time>
      </trkpt>
      <trkpt lat="43.62855" lon="0.74066">
        <ele>199.55504244965</ele>
        <time>2020-10-03T15:10:07.000Z</time>
      </trkpt>
      <trkpt lat="43.62853" lon="0.74064">
        <ele>199</ele>
        <time>2020-10-03T15:10:08.000Z</time>
      </trkpt>
      <trkpt lat="43.62851" lon="0.74062">
        <ele>199</ele>
        <time>2020-10-03T15:10:09.000Z</time>
      </trkpt>
      <trkpt lat="43.62849" lon="0.7406">
        <ele>199</ele>
        <time>2020-10-03T15:10:10.000Z</time>
      </trkpt>
      <trkpt lat="43.62846" lon="0.74057">
        <ele>199</ele>
        <time>2020-10-03T15:10:11.000Z</time>
      </trkpt>
      <trkpt lat="43.62844" lon="0.74055">
        <ele>199</ele>
        <time>2020-10-03T15:10:12.000Z</time>
      </trkpt>
      <trkpt lat="43.62842" lon="0.74053">
        <ele>199</ele>
        <time>2020-10-03T15:10:13.000Z</time>
      </trkpt>
      <trkpt lat="43.6284" lon="0.74051">
        <ele>199</ele>
        <time>2020-10-03T15:10:14.000Z</time>
      </trkpt>
      <trkpt lat="43.62838" lon="0.74049">
        <ele>198.88000477865</ele>
        <time>2020-10-03T15:10:15.000Z</time>
      </trkpt>
      <trkpt lat="43.62835" lon="0.74047">
        <ele>198</ele>
        <time>2020-10-03T15:10:16.000Z</time>
      </trkpt>
      <trkpt lat="43.62833" lon="0.74044">
        <ele>198</ele>
        <time>2020-10-03T15:10:17.000Z</time>
      </trkpt>
      <trkpt lat="43.62831" lon="0.74042">
        <ele>198</ele>
        <time>2020-10-03T15:10:18.000Z</time>
      </trkpt>
      <trkpt lat="43.62829" lon="0.7404">
        <ele>197.65753136425</ele>
        <time>2020-10-03T15:10:19.000Z</time>
      </trkpt>
      <trkpt lat="43.62827" lon="0.74037">
        <ele>197</ele>
        <time>2020-10-03T15:10:20.000Z</time>
      </trkpt>
      <trkpt lat="43.62825" lon="0.74035">
        <ele>197</ele>
        <time>2020-10-03T15:10:21.000Z</time>
      </trkpt>
      <trkpt lat="43.62823" lon="0.74033">
        <ele>197</ele>
        <time>2020-10-03T15:10:22.000Z</time>
      </trkpt>
      <trkpt lat="43.62821" lon="0.74031">
        <ele>197</ele>
        <time>2020-10-03T15:10:23.000Z</time>
      </trkpt>
      <trkpt lat="43.62819" lon="0.74029">
        <ele>197</ele>
        <time>2020-10-03T15:10:24.000Z</time>
      </trkpt>
      <trkpt lat="43.62817" lon="0.74027">
        <ele>197</ele>
        <time>2020-10-03T15:10:25.000Z</time>
      </trkpt>
      <trkpt lat="43.62815" lon="0.74025">
        <ele>197</ele>
        <time>2020-10-03T15:10:26.000Z</time>
      </trkpt>
      <trkpt lat="43.62813" lon="0.74022">
        <ele>196.55555871603</ele>
        <time>2020-10-03T15:10:27.000Z</time>
      </trkpt>
      <trkpt lat="43.62811" lon="0.7402">
        <ele>196</ele>
        <time>2020-10-03T15:10:28.000Z</time>
      </trkpt>
      <trkpt lat="43.62809" lon="0.74018">
        <ele>196</ele>
        <time>2020-10-03T15:10:29.000Z</time>
      </trkpt>
      <trkpt lat="43.62806" lon="0.74016">
        <ele>195.64485489389</ele>
        <time>2020-10-03T15:10:30.000Z</time>
      </trkpt>
      <trkpt lat="43.62804" lon="0.74013">
        <ele>195</ele>
        <time>2020-10-03T15:10:31.000Z</time>
      </trkpt>
      <trkpt lat="43.62802" lon="0.74011">
        <ele>195</ele>
        <time>2020-10-03T15:10:32.000Z</time>
      </trkpt>
      <trkpt lat="43.628" lon="0.7401">
        <ele>195</ele>
        <time>2020-10-03T15:10:33.000Z</time>
      </trkpt>
      <trkpt lat="43.62798" lon="0.74007">
        <ele>195</ele>
        <time>2020-10-03T15:10:34.000Z</time>
      </trkpt>
      <trkpt lat="43.62796" lon="0.74005">
        <ele>195</ele>
        <time>2020-10-03T15:10:35.000Z</time>
      </trkpt>
      <trkpt lat="43.62794" lon="0.74003">
        <ele>195</ele>
        <time>2020-10-03T15:10:36.000Z</time>
      </trkpt>
      <trkpt lat="43.62792" lon="0.74001">
        <ele>195</ele>
        <time>2020-10-03T15:10:37.000Z</time>
      </trkpt>
      <trkpt lat="43.6279" lon="0.73999">
        <ele>195</ele>
        <time>2020-10-03T15:10:38.000Z</time>
      </trkpt>
      <trkpt lat="43.62788" lon="0.73997">
        <ele>195</ele>
        <time>2020-10-03T15:10:39.000Z</time>
      </trkpt>
      <trkpt lat="43.62786" lon="0.73995">
        <ele>194.64153600304</ele>
        <time>2020-10-03T15:10:40.000Z</time>
      </trkpt>
      <trkpt lat="43.62784" lon="0.73993">
        <ele>194</ele>
        <time>2020-10-03T15:10:41.000Z</time>
      </trkpt>
      <trkpt lat="43.62782" lon="0.73991">
        <ele>194</ele>
        <time>2020-10-03T15:10:42.000Z</time>
      </trkpt>
      <trkpt lat="43.6278" lon="0.73988">
        <ele>194</ele>
        <time>2020-10-03T15:10:43.000Z</time>
      </trkpt>
      <trkpt lat="43.62778" lon="0.73986">
        <ele>194</ele>
        <time>2020-10-03T15:10:44.000Z</time>
      </trkpt>
      <trkpt lat="43.62775" lon="0.73984">
        <ele>194</ele>
        <time>2020-10-03T15:10:45.000Z</time>
      </trkpt>
      <trkpt lat="43.62773" lon="0.73982">
        <ele>194</ele>
        <time>2020-10-03T15:10:46.000Z</time>
      </trkpt>
      <trkpt lat="43.62771" lon="0.7398">
        <ele>194</ele>
        <time>2020-10-03T15:10:47.000Z</time>
      </trkpt>
      <trkpt lat="43.62769" lon="0.73977">
        <ele>194</ele>
        <time>2020-10-03T15:10:48.000Z</time>
      </trkpt>
      <trkpt lat="43.62767" lon="0.73975">
        <ele>194</ele>
        <time>2020-10-03T15:10:49.000Z</time>
      </trkpt>
      <trkpt lat="43.62765" lon="0.73972">
        <ele>193.61727848801</ele>
        <time>2020-10-03T15:10:50.000Z</time>
      </trkpt>
      <trkpt lat="43.62763" lon="0.7397">
        <ele>193</ele>
        <time>2020-10-03T15:10:51.000Z</time>
      </trkpt>
      <trkpt lat="43.6276" lon="0.73968">
        <ele>193</ele>
        <time>2020-10-03T15:10:52.000Z</time>
      </trkpt>
      <trkpt lat="43.62758" lon="0.73966">
        <ele>193</ele>
        <time>2020-10-03T15:10:53.000Z</time>
      </trkpt>
      <trkpt lat="43.62756" lon="0.73963">
        <ele>193</ele>
        <time>2020-10-03T15:10:54.000Z</time>
      </trkpt>
      <trkpt lat="43.62754" lon="0.73961">
        <ele>193</ele>
        <time>2020-10-03T15:10:55.000Z</time>
      </trkpt>
      <trkpt lat="43.62752" lon="0.73959">
        <ele>192.3979904</ele>
        <time>2020-10-03T15:10:56.000Z</time>
      </trkpt>
      <trkpt lat="43.6275" lon="0.73957">
        <ele>191</ele>
        <time>2020-10-03T15:10:57.000Z</time>
      </trkpt>
      <trkpt lat="43.62748" lon="0.73954">
        <ele>191</ele>
        <time>2020-10-03T15:10:58.000Z</time>
      </trkpt>
      <trkpt lat="43.62746" lon="0.73952">
        <ele>190.63888592593</ele>
        <time>2020-10-03T15:10:59.000Z</time>
      </trkpt>
      <trkpt lat="43.62744" lon="0.7395">
        <ele>190</ele>
        <time>2020-10-03T15:11:00.000Z</time>
      </trkpt>
      <trkpt lat="43.62742" lon="0.73947">
        <ele>190</ele>
        <time>2020-10-03T15:11:01.000Z</time>
      </trkpt>
      <trkpt lat="43.6274" lon="0.73944">
        <ele>190</ele>
        <time>2020-10-03T15:11:02.000Z</time>
      </trkpt>
      <trkpt lat="43.62738" lon="0.73942">
        <ele>190</ele>
        <time>2020-10-03T15:11:03.000Z</time>
      </trkpt>
      <trkpt lat="43.62736" lon="0.73939">
        <ele>190.40776457722</ele>
        <time>2020-10-03T15:11:04.000Z</time>
      </trkpt>
      <trkpt lat="43.62735" lon="0.73937">
        <ele>191</ele>
        <time>2020-10-03T15:11:05.000Z</time>
      </trkpt>
      <trkpt lat="43.62733" lon="0.73935">
        <ele>191</ele>
        <time>2020-10-03T15:11:06.000Z</time>
      </trkpt>
      <trkpt lat="43.62731" lon="0.73932">
        <ele>191</ele>
        <time>2020-10-03T15:11:07.000Z</time>
      </trkpt>
      <trkpt lat="43.62729" lon="0.73929">
        <ele>190.63964067851</ele>
        <time>2020-10-03T15:11:08.000Z</time>
      </trkpt>
      <trkpt lat="43.62727" lon="0.73926">
        <ele>190</ele>
        <time>2020-10-03T15:11:09.000Z</time>
      </trkpt>
      <trkpt lat="43.62725" lon="0.73923">
        <ele>190</ele>
        <time>2020-10-03T15:11:10.000Z</time>
      </trkpt>
      <trkpt lat="43.62723" lon="0.7392">
        <ele>190</ele>
        <time>2020-10-03T15:11:11.000Z</time>
      </trkpt>
      <trkpt lat="43.62721" lon="0.73918">
        <ele>190.0246835543</ele>
        <time>2020-10-03T15:11:12.000Z</time>
      </trkpt>
      <trkpt lat="43.6272" lon="0.73915">
        <ele>191</ele>
        <time>2020-10-03T15:11:13.000Z</time>
      </trkpt>
      <trkpt lat="43.62718" lon="0.73913">
        <ele>191</ele>
        <time>2020-10-03T15:11:14.000Z</time>
      </trkpt>
      <trkpt lat="43.62716" lon="0.7391">
        <ele>191</ele>
        <time>2020-10-03T15:11:15.000Z</time>
      </trkpt>
      <trkpt lat="43.62715" lon="0.73907">
        <ele>191</ele>
        <time>2020-10-03T15:11:16.000Z</time>
      </trkpt>
      <trkpt lat="43.62713" lon="0.73905">
        <ele>190.64412235294</ele>
        <time>2020-10-03T15:11:17.000Z</time>
      </trkpt>
      <trkpt lat="43.62711" lon="0.73902">
        <ele>189</ele>
        <time>2020-10-03T15:11:18.000Z</time>
      </trkpt>
      <trkpt lat="43.62709" lon="0.73899">
        <ele>189</ele>
        <time>2020-10-03T15:11:19.000Z</time>
      </trkpt>
      <trkpt lat="43.62708" lon="0.73896">
        <ele>189.32991612302</ele>
        <time>2020-10-03T15:11:20.000Z</time>
      </trkpt>
      <trkpt lat="43.62706" lon="0.73893">
        <ele>190</ele>
        <time>2020-10-03T15:11:21.000Z</time>
      </trkpt>
      <trkpt lat="43.62704" lon="0.73891">
        <ele>190</ele>
        <time>2020-10-03T15:11:22.000Z</time>
      </trkpt>
      <trkpt lat="43.62703" lon="0.73888">
        <ele>190</ele>
        <time>2020-10-03T15:11:23.000Z</time>
      </trkpt>
      <trkpt lat="43.62701" lon="0.73886">
        <ele>190</ele>
        <time>2020-10-03T15:11:24.000Z</time>
      </trkpt>
      <trkpt lat="43.62699" lon="0.73883">
        <ele>190</ele>
        <time>2020-10-03T15:11:25.000Z</time>
      </trkpt>
      <trkpt lat="43.62697" lon="0.7388">
        <ele>189.66981029549</ele>
        <time>2020-10-03T15:11:26.000Z</time>
      </trkpt>
      <trkpt lat="43.62696" lon="0.73878">
        <ele>189</ele>
        <time>2020-10-03T15:11:27.000Z</time>
      </trkpt>
      <trkpt lat="43.62695" lon="0.73875">
        <ele>189</ele>
        <time>2020-10-03T15:11:28.000Z</time>
      </trkpt>
      <trkpt lat="43.62693" lon="0.73872">
        <ele>189</ele>
        <time>2020-10-03T15:11:29.000Z</time>
      </trkpt>
      <trkpt lat="43.62692" lon="0.73869">
        <ele>189</ele>
        <time>2020-10-03T15:11:30.000Z</time>
      </trkpt>
      <trkpt lat="43.6269" lon="0.73866">
        <ele>189</ele>
        <time>2020-10-03T15:11:31.000Z</time>
      </trkpt>
      <trkpt lat="43.62688" lon="0.73863">
        <ele>189</ele>
        <time>2020-10-03T15:11:32.000Z</time>
      </trkpt>
      <trkpt lat="43.62687" lon="0.7386">
        <ele>189</ele>
        <time>2020-10-03T15:11:33.000Z</time>
      </trkpt>
      <trkpt lat="43.62685" lon="0.73857">
        <ele>189</ele>
        <time>2020-10-03T15:11:34.000Z</time>
      </trkpt>
      <trkpt lat="43.62683" lon="0.73854">
        <ele>188.74782676447</ele>
        <time>2020-10-03T15:11:35.000Z</time>
      </trkpt>
      <trkpt lat="43.62681" lon="0.73851">
        <ele>188</ele>
        <time>2020-10-03T15:11:36.000Z</time>
      </trkpt>
      <trkpt lat="43.62679" lon="0.73849">
        <ele>188</ele>
        <time>2020-10-03T15:11:37.000Z</time>
      </trkpt>
      <trkpt lat="43.62677" lon="0.73847">
        <ele>188</ele>
        <time>2020-10-03T15:11:38.000Z</time>
      </trkpt>
      <trkpt lat="43.62675" lon="0.73844">
        <ele>188</ele>
        <time>2020-10-03T15:11:39.000Z</time>
      </trkpt>
      <trkpt lat="43.62673" lon="0.73841">
        <ele>188</ele>
        <time>2020-10-03T15:11:40.000Z</time>
      </trkpt>
      <trkpt lat="43.62671" lon="0.73839">
        <ele>188</ele>
        <time>2020-10-03T15:11:41.000Z</time>
      </trkpt>
      <trkpt lat="43.6267" lon="0.73836">
        <ele>188</ele>
        <time>2020-10-03T15:11:42.000Z</time>
      </trkpt>
      <trkpt lat="43.62668" lon="0.73834">
        <ele>188</ele>
        <time>2020-10-03T15:11:43.000Z</time>
      </trkpt>
      <trkpt lat="43.62666" lon="0.73831">
        <ele>188</ele>
        <time>2020-10-03T15:11:44.000Z</time>
      </trkpt>
      <trkpt lat="43.62664" lon="0.73828">
        <ele>188</ele>
        <time>2020-10-03T15:11:45.000Z</time>
      </trkpt>
      <trkpt lat="43.62662" lon="0.73826">
        <ele>188</ele>
        <time>2020-10-03T15:11:46.000Z</time>
      </trkpt>
      <trkpt lat="43.62661" lon="0.73823">
        <ele>187.66667157086</ele>
        <time>2020-10-03T15:11:47.000Z</time>
      </trkpt>
      <trkpt lat="43.62659" lon="0.73819">
        <ele>187</ele>
        <time>2020-10-03T15:11:48.000Z</time>
      </trkpt>
      <trkpt lat="43.62658" lon="0.73816">
        <ele>187</ele>
        <time>2020-10-03T15:11:49.000Z</time>
      </trkpt>
      <trkpt lat="43.62656" lon="0.73812">
        <ele>186.97967585473</ele>
        <time>2020-10-03T15:11:50.000Z</time>
      </trkpt>
      <trkpt lat="43.62655" lon="0.73808">
        <ele>186</ele>
        <time>2020-10-03T15:11:51.000Z</time>
      </trkpt>
      <trkpt lat="43.62654" lon="0.73804">
        <ele>186</ele>
        <time>2020-10-03T15:11:52.000Z</time>
      </trkpt>
      <trkpt lat="43.62652" lon="0.738">
        <ele>186</ele>
        <time>2020-10-03T15:11:53.000Z</time>
      </trkpt>
      <trkpt lat="43.62651" lon="0.73797">
        <ele>185.64284952381</ele>
        <time>2020-10-03T15:11:54.000Z</time>
      </trkpt>
      <trkpt lat="43.62649" lon="0.73793">
        <ele>184</ele>
        <time>2020-10-03T15:11:55.000Z</time>
      </trkpt>
      <trkpt lat="43.62648" lon="0.7379">
        <ele>184</ele>
        <time>2020-10-03T15:11:56.000Z</time>
      </trkpt>
      <trkpt lat="43.62647" lon="0.73786">
        <ele>183.64285714286</ele>
        <time>2020-10-03T15:11:57.000Z</time>
      </trkpt>
      <trkpt lat="43.62645" lon="0.73782">
        <ele>183</ele>
        <time>2020-10-03T15:11:58.000Z</time>
      </trkpt>
      <trkpt lat="43.62644" lon="0.73779">
        <ele>183</ele>
        <time>2020-10-03T15:11:59.000Z</time>
      </trkpt>
      <trkpt lat="43.62643" lon="0.73776">
        <ele>182.60975305173</ele>
        <time>2020-10-03T15:12:00.000Z</time>
      </trkpt>
      <trkpt lat="43.62642" lon="0.73773">
        <ele>182</ele>
        <time>2020-10-03T15:12:01.000Z</time>
      </trkpt>
      <trkpt lat="43.6264" lon="0.73769">
        <ele>182</ele>
        <time>2020-10-03T15:12:02.000Z</time>
      </trkpt>
      <trkpt lat="43.62639" lon="0.73766">
        <ele>181.59945824033</ele>
        <time>2020-10-03T15:12:03.000Z</time>
      </trkpt>
      <trkpt lat="43.62638" lon="0.73762">
        <ele>181</ele>
        <time>2020-10-03T15:12:04.000Z</time>
      </trkpt>
      <trkpt lat="43.62636" lon="0.73759">
        <ele>181</ele>
        <time>2020-10-03T15:12:05.000Z</time>
      </trkpt>
      <trkpt lat="43.62635" lon="0.73756">
        <ele>181</ele>
        <time>2020-10-03T15:12:06.000Z</time>
      </trkpt>
      <trkpt lat="43.62634" lon="0.73752">
        <ele>181</ele>
        <time>2020-10-03T15:12:07.000Z</time>
      </trkpt>
      <trkpt lat="43.62633" lon="0.73749">
        <ele>181</ele>
        <time>2020-10-03T15:12:08.000Z</time>
      </trkpt>
      <trkpt lat="43.62632" lon="0.73746">
        <ele>181</ele>
        <time>2020-10-03T15:12:09.000Z</time>
      </trkpt>
      <trkpt lat="43.62631" lon="0.73742">
        <ele>181</ele>
        <time>2020-10-03T15:12:10.000Z</time>
      </trkpt>
      <trkpt lat="43.62629" lon="0.73739">
        <ele>180.72071864297</ele>
        <time>2020-10-03T15:12:11.000Z</time>
      </trkpt>
      <trkpt lat="43.62628" lon="0.73736">
        <ele>180</ele>
        <time>2020-10-03T15:12:12.000Z</time>
      </trkpt>
      <trkpt lat="43.62627" lon="0.73732">
        <ele>180</ele>
        <time>2020-10-03T15:12:13.000Z</time>
      </trkpt>
      <trkpt lat="43.62625" lon="0.73728">
        <ele>180</ele>
        <time>2020-10-03T15:12:14.000Z</time>
      </trkpt>
      <trkpt lat="43.62624" lon="0.73725">
        <ele>179.58620841854</ele>
        <time>2020-10-03T15:12:15.000Z</time>
      </trkpt>
      <trkpt lat="43.62623" lon="0.73721">
        <ele>179</ele>
        <time>2020-10-03T15:12:16.000Z</time>
      </trkpt>
      <trkpt lat="43.62622" lon="0.73717">
        <ele>179</ele>
        <time>2020-10-03T15:12:17.000Z</time>
      </trkpt>
      <trkpt lat="43.62621" lon="0.73714">
        <ele>179</ele>
        <time>2020-10-03T15:12:18.000Z</time>
      </trkpt>
      <trkpt lat="43.6262" lon="0.73711">
        <ele>178.57425830408</ele>
        <time>2020-10-03T15:12:19.000Z</time>
      </trkpt>
      <trkpt lat="43.62618" lon="0.73707">
        <ele>178</ele>
        <time>2020-10-03T15:12:20.000Z</time>
      </trkpt>
      <trkpt lat="43.62617" lon="0.73704">
        <ele>178</ele>
        <time>2020-10-03T15:12:21.000Z</time>
      </trkpt>
      <trkpt lat="43.62615" lon="0.73701">
        <ele>177.54545771903</ele>
        <time>2020-10-03T15:12:22.000Z</time>
      </trkpt>
      <trkpt lat="43.62614" lon="0.73698">
        <ele>177</ele>
        <time>2020-10-03T15:12:23.000Z</time>
      </trkpt>
      <trkpt lat="43.62613" lon="0.73695">
        <ele>177</ele>
        <time>2020-10-03T15:12:24.000Z</time>
      </trkpt>
      <trkpt lat="43.62612" lon="0.73692">
        <ele>176.69565217391</ele>
        <time>2020-10-03T15:12:25.000Z</time>
      </trkpt>
      <trkpt lat="43.6261" lon="0.73689">
        <ele>176</ele>
        <time>2020-10-03T15:12:26.000Z</time>
      </trkpt>
      <trkpt lat="43.62609" lon="0.73686">
        <ele>176</ele>
        <time>2020-10-03T15:12:27.000Z</time>
      </trkpt>
      <trkpt lat="43.62608" lon="0.73683">
        <ele>176</ele>
        <time>2020-10-03T15:12:28.000Z</time>
      </trkpt>
      <trkpt lat="43.62607" lon="0.73679">
        <ele>176</ele>
        <time>2020-10-03T15:12:29.000Z</time>
      </trkpt>
      <trkpt lat="43.62607" lon="0.73676">
        <ele>176</ele>
        <time>2020-10-03T15:12:30.000Z</time>
      </trkpt>
      <trkpt lat="43.62605" lon="0.73673">
        <ele>176</ele>
        <time>2020-10-03T15:12:31.000Z</time>
      </trkpt>
      <trkpt lat="43.62604" lon="0.7367">
        <ele>176</ele>
        <time>2020-10-03T15:12:32.000Z</time>
      </trkpt>
      <trkpt lat="43.62603" lon="0.73668">
        <ele>176</ele>
        <time>2020-10-03T15:12:33.000Z</time>
      </trkpt>
      <trkpt lat="43.62601" lon="0.73665">
        <ele>176</ele>
        <time>2020-10-03T15:12:34.000Z</time>
      </trkpt>
      <trkpt lat="43.62601" lon="0.73662">
        <ele>176</ele>
        <time>2020-10-03T15:12:35.000Z</time>
      </trkpt>
      <trkpt lat="43.626" lon="0.73659">
        <ele>176</ele>
        <time>2020-10-03T15:12:37.000Z</time>
      </trkpt>
      <trkpt lat="43.626" lon="0.73655">
        <ele>176</ele>
        <time>2020-10-03T15:12:39.000Z</time>
      </trkpt>
      <trkpt lat="43.62599" lon="0.73652">
        <ele>176</ele>
        <time>2020-10-03T15:12:41.000Z</time>
      </trkpt>
      <trkpt lat="43.62598" lon="0.73649">
        <ele>176</ele>
        <time>2020-10-03T15:12:43.000Z</time>
      </trkpt>
      <trkpt lat="43.62597" lon="0.73645">
        <ele>176</ele>
        <time>2020-10-03T15:12:45.000Z</time>
      </trkpt>
      <trkpt lat="43.62595" lon="0.73642">
        <ele>176</ele>
        <time>2020-10-03T15:12:47.000Z</time>
      </trkpt>
      <trkpt lat="43.62594" lon="0.73639">
        <ele>176</ele>
        <time>2020-10-03T15:12:49.000Z</time>
      </trkpt>
      <trkpt lat="43.62593" lon="0.73635">
        <ele>176.316832687</ele>
        <time>2020-10-03T15:12:51.000Z</time>
      </trkpt>
      <trkpt lat="43.62591" lon="0.73631">
        <ele>177</ele>
        <time>2020-10-03T15:12:53.000Z</time>
      </trkpt>
      <trkpt lat="43.62589" lon="0.73628">
        <ele>177.36708307004</ele>
        <time>2020-10-03T15:12:55.000Z</time>
      </trkpt>
      <trkpt lat="43.62587" lon="0.73625">
        <ele>178.32381265847</ele>
        <time>2020-10-03T15:12:57.000Z</time>
      </trkpt>
      <trkpt lat="43.62586" lon="0.73623">
        <ele>179</ele>
        <time>2020-10-03T15:12:59.000Z</time>
      </trkpt>
      <trkpt lat="43.62584" lon="0.73621">
        <ele>180</ele>
        <time>2020-10-03T15:13:01.000Z</time>
      </trkpt>
      <trkpt lat="43.62582" lon="0.73619">
        <ele>180</ele>
        <time>2020-10-03T15:13:03.000Z</time>
      </trkpt>
      <trkpt lat="43.6258" lon="0.73617">
        <ele>180</ele>
        <time>2020-10-03T15:13:05.000Z</time>
      </trkpt>
      <trkpt lat="43.62578" lon="0.73615">
        <ele>180.36696039704</ele>
        <time>2020-10-03T15:13:07.000Z</time>
      </trkpt>
      <trkpt lat="43.62576" lon="0.73613">
        <ele>181</ele>
        <time>2020-10-03T15:13:09.000Z</time>
      </trkpt>
      <trkpt lat="43.62574" lon="0.73611">
        <ele>181</ele>
        <time>2020-10-03T15:13:11.000Z</time>
      </trkpt>
      <trkpt lat="43.62572" lon="0.73609">
        <ele>181</ele>
        <time>2020-10-03T15:13:13.000Z</time>
      </trkpt>
      <trkpt lat="43.6257" lon="0.73608">
        <ele>181.40476335599</ele>
        <time>2020-10-03T15:13:15.000Z</time>
      </trkpt>
      <trkpt lat="43.62568" lon="0.73606">
        <ele>182</ele>
        <time>2020-10-03T15:13:17.000Z</time>
      </trkpt>
      <trkpt lat="43.62567" lon="0.73604">
        <ele>183</ele>
        <time>2020-10-03T15:13:19.000Z</time>
      </trkpt>
      <trkpt lat="43.62565" lon="0.73602">
        <ele>183</ele>
        <time>2020-10-03T15:13:21.000Z</time>
      </trkpt>
      <trkpt lat="43.62563" lon="0.73599">
        <ele>183</ele>
        <time>2020-10-03T15:13:23.000Z</time>
      </trkpt>
      <trkpt lat="43.62561" lon="0.73596">
        <ele>183.08974695592</ele>
        <time>2020-10-03T15:13:25.000Z</time>
      </trkpt>
      <trkpt lat="43.6256" lon="0.73594">
        <ele>184</ele>
        <time>2020-10-03T15:13:27.000Z</time>
      </trkpt>
      <trkpt lat="43.62558" lon="0.73592">
        <ele>184.88574214321</ele>
        <time>2020-10-03T15:13:29.000Z</time>
      </trkpt>
      <trkpt lat="43.62556" lon="0.7359">
        <ele>186</ele>
        <time>2020-10-03T15:13:31.000Z</time>
      </trkpt>
      <trkpt lat="43.62554" lon="0.73589">
        <ele>186</ele>
        <time>2020-10-03T15:13:33.000Z</time>
      </trkpt>
      <trkpt lat="43.62552" lon="0.73587">
        <ele>186.44495755035</ele>
        <time>2020-10-03T15:13:35.000Z</time>
      </trkpt>
      <trkpt lat="43.62549" lon="0.73586">
        <ele>187</ele>
        <time>2020-10-03T15:13:37.000Z</time>
      </trkpt>
      <trkpt lat="43.62547" lon="0.73584">
        <ele>187</ele>
        <time>2020-10-03T15:13:39.000Z</time>
      </trkpt>
      <trkpt lat="43.62545" lon="0.73584">
        <ele>187</ele>
        <time>2020-10-03T15:13:41.000Z</time>
      </trkpt>
      <trkpt lat="43.62542" lon="0.73582">
        <ele>189</ele>
        <time>2020-10-03T15:13:43.000Z</time>
      </trkpt>
      <trkpt lat="43.6254" lon="0.7358">
        <ele>189</ele>
        <time>2020-10-03T15:13:45.000Z</time>
      </trkpt>
      <trkpt lat="43.62537" lon="0.73578">
        <ele>188</ele>
        <time>2020-10-03T15:13:47.000Z</time>
      </trkpt>
      <trkpt lat="43.62535" lon="0.73575">
        <ele>188.45114651829</ele>
        <time>2020-10-03T15:13:49.000Z</time>
      </trkpt>
      <trkpt lat="43.62533" lon="0.73573">
        <ele>189</ele>
        <time>2020-10-03T15:13:51.000Z</time>
      </trkpt>
      <trkpt lat="43.62532" lon="0.73572">
        <ele>189</ele>
        <time>2020-10-03T15:13:53.000Z</time>
      </trkpt>
      <trkpt lat="43.6253" lon="0.7357">
        <ele>189</ele>
        <time>2020-10-03T15:13:55.000Z</time>
      </trkpt>
      <trkpt lat="43.62527" lon="0.73568">
        <ele>189</ele>
        <time>2020-10-03T15:13:57.000Z</time>
      </trkpt>
      <trkpt lat="43.62525" lon="0.73566">
        <ele>189</ele>
        <time>2020-10-03T15:13:59.000Z</time>
      </trkpt>
      <trkpt lat="43.62524" lon="0.73563">
        <ele>190</ele>
        <time>2020-10-03T15:14:01.000Z</time>
      </trkpt>
      <trkpt lat="43.62524" lon="0.73561">
        <ele>190</ele>
        <time>2020-10-03T15:14:02.000Z</time>
      </trkpt>
      <trkpt lat="43.62525" lon="0.73556">
        <ele>190</ele>
        <time>2020-10-03T15:14:04.000Z</time>
      </trkpt>
      <trkpt lat="43.62526" lon="0.73552">
        <ele>190</ele>
        <time>2020-10-03T15:14:06.000Z</time>
      </trkpt>
      <trkpt lat="43.62527" lon="0.73549">
        <ele>191</ele>
        <time>2020-10-03T15:14:08.000Z</time>
      </trkpt>
      <trkpt lat="43.62528" lon="0.73545">
        <ele>191</ele>
        <time>2020-10-03T15:14:10.000Z</time>
      </trkpt>
      <trkpt lat="43.62529" lon="0.73541">
        <ele>191</ele>
        <time>2020-10-03T15:14:12.000Z</time>
      </trkpt>
      <trkpt lat="43.6253" lon="0.73538">
        <ele>191</ele>
        <time>2020-10-03T15:14:14.000Z</time>
      </trkpt>
      <trkpt lat="43.62531" lon="0.73534">
        <ele>191</ele>
        <time>2020-10-03T15:14:16.000Z</time>
      </trkpt>
      <trkpt lat="43.62533" lon="0.7353">
        <ele>191</ele>
        <time>2020-10-03T15:14:18.000Z</time>
      </trkpt>
      <trkpt lat="43.62534" lon="0.73527">
        <ele>192</ele>
        <time>2020-10-03T15:14:20.000Z</time>
      </trkpt>
      <trkpt lat="43.62535" lon="0.73523">
        <ele>192</ele>
        <time>2020-10-03T15:14:22.000Z</time>
      </trkpt>
      <trkpt lat="43.62536" lon="0.73519">
        <ele>192</ele>
        <time>2020-10-03T15:14:24.000Z</time>
      </trkpt>
      <trkpt lat="43.62537" lon="0.73515">
        <ele>192</ele>
        <time>2020-10-03T15:14:26.000Z</time>
      </trkpt>
      <trkpt lat="43.62538" lon="0.73512">
        <ele>192</ele>
        <time>2020-10-03T15:14:28.000Z</time>
      </trkpt>
      <trkpt lat="43.6254" lon="0.73509">
        <ele>192</ele>
        <time>2020-10-03T15:14:30.000Z</time>
      </trkpt>
      <trkpt lat="43.62542" lon="0.73507">
        <ele>192</ele>
        <time>2020-10-03T15:14:33.000Z</time>
      </trkpt>
      <trkpt lat="43.62541" lon="0.73511">
        <ele>192</ele>
        <time>2020-10-03T15:14:47.000Z</time>
      </trkpt>
      <trkpt lat="43.62539" lon="0.73508">
        <ele>193</ele>
        <time>2020-10-03T15:15:18.000Z</time>
      </trkpt>
      <trkpt lat="43.62538" lon="0.7351">
        <ele>193</ele>
        <time>2020-10-03T15:15:28.000Z</time>
      </trkpt>
      <trkpt lat="43.62539" lon="0.73508">
        <ele>192</ele>
        <time>2020-10-03T15:16:56.000Z</time>
      </trkpt>
      <trkpt lat="43.62537" lon="0.7351">
        <ele>192</ele>
        <time>2020-10-03T15:18:30.000Z</time>
      </trkpt>
      <trkpt lat="43.62539" lon="0.73508">
        <ele>193</ele>
        <time>2020-10-03T15:18:51.000Z</time>
      </trkpt>
      <trkpt lat="43.62538" lon="0.7351">
        <ele>191</ele>
        <time>2020-10-03T15:19:04.000Z</time>
      </trkpt>
      <trkpt lat="43.62538" lon="0.73507">
        <ele>193</ele>
        <time>2020-10-03T15:19:16.000Z</time>
      </trkpt>
      <trkpt lat="43.62539" lon="0.73511">
        <ele>192.75728541426</ele>
        <time>2020-10-03T15:19:54.000Z</time>
      </trkpt>
      <trkpt lat="43.62537" lon="0.73512">
        <ele>194</ele>
        <time>2020-10-03T15:20:10.000Z</time>
      </trkpt>
      <trkpt lat="43.62539" lon="0.73512">
        <ele>193</ele>
        <time>2020-10-03T15:20:38.000Z</time>
      </trkpt>
      <trkpt lat="43.62538" lon="0.73514">
        <ele>193</ele>
        <time>2020-10-03T15:20:58.000Z</time>
      </trkpt>
      <trkpt lat="43.62535" lon="0.73518">
        <ele>193</ele>
        <time>2020-10-03T15:21:15.000Z</time>
      </trkpt>
      <trkpt lat="43.62535" lon="0.73515">
        <ele>193</ele>
        <time>2020-10-03T15:21:38.000Z</time>
      </trkpt>
      <trkpt lat="43.62536" lon="0.73514">
        <ele>192</ele>
        <time>2020-10-03T15:21:57.000Z</time>
      </trkpt>
      <trkpt lat="43.62536" lon="0.73511">
        <ele>194</ele>
        <time>2020-10-03T15:22:08.000Z</time>
      </trkpt>
      <trkpt lat="43.62535" lon="0.73508">
        <ele>194</ele>
        <time>2020-10-03T15:22:13.000Z</time>
      </trkpt>
      <trkpt lat="43.62534" lon="0.73506">
        <ele>192</ele>
        <time>2020-10-03T15:22:16.000Z</time>
      </trkpt>
      <trkpt lat="43.62532" lon="0.73504">
        <ele>192</ele>
        <time>2020-10-03T15:22:18.000Z</time>
      </trkpt>
      <trkpt lat="43.62529" lon="0.73499">
        <ele>193</ele>
        <time>2020-10-03T15:22:20.000Z</time>
      </trkpt>
      <trkpt lat="43.62529" lon="0.73496">
        <ele>193</ele>
        <time>2020-10-03T15:22:21.000Z</time>
      </trkpt>
      <trkpt lat="43.62528" lon="0.73492">
        <ele>193</ele>
        <time>2020-10-03T15:22:22.000Z</time>
      </trkpt>
      <trkpt lat="43.62528" lon="0.73489">
        <ele>193.34233953735</ele>
        <time>2020-10-03T15:22:23.000Z</time>
      </trkpt>
      <trkpt lat="43.62528" lon="0.73485">
        <ele>194</ele>
        <time>2020-10-03T15:22:24.000Z</time>
      </trkpt>
      <trkpt lat="43.62527" lon="0.73482">
        <ele>194</ele>
        <time>2020-10-03T15:22:25.000Z</time>
      </trkpt>
      <trkpt lat="43.62526" lon="0.73479">
        <ele>193.5900032</ele>
        <time>2020-10-03T15:22:26.000Z</time>
      </trkpt>
      <trkpt lat="43.62526" lon="0.73475">
        <ele>193</ele>
        <time>2020-10-03T15:22:27.000Z</time>
      </trkpt>
      <trkpt lat="43.62525" lon="0.73471">
        <ele>192.60909027438</ele>
        <time>2020-10-03T15:22:28.000Z</time>
      </trkpt>
      <trkpt lat="43.62525" lon="0.73468">
        <ele>192</ele>
        <time>2020-10-03T15:22:29.000Z</time>
      </trkpt>
      <trkpt lat="43.62524" lon="0.73465">
        <ele>192</ele>
        <time>2020-10-03T15:22:30.000Z</time>
      </trkpt>
      <trkpt lat="43.62524" lon="0.73461">
        <ele>192</ele>
        <time>2020-10-03T15:22:31.000Z</time>
      </trkpt>
      <trkpt lat="43.62524" lon="0.73457">
        <ele>191.56817454546</ele>
        <time>2020-10-03T15:22:32.000Z</time>
      </trkpt>
      <trkpt lat="43.62523" lon="0.73453">
        <ele>191</ele>
        <time>2020-10-03T15:22:33.000Z</time>
      </trkpt>
      <trkpt lat="43.62523" lon="0.7345">
        <ele>191</ele>
        <time>2020-10-03T15:22:34.000Z</time>
      </trkpt>
      <trkpt lat="43.62523" lon="0.73447">
        <ele>191</ele>
        <time>2020-10-03T15:22:35.000Z</time>
      </trkpt>
      <trkpt lat="43.62522" lon="0.73443">
        <ele>191</ele>
        <time>2020-10-03T15:22:36.000Z</time>
      </trkpt>
      <trkpt lat="43.62522" lon="0.7344">
        <ele>191</ele>
        <time>2020-10-03T15:22:37.000Z</time>
      </trkpt>
      <trkpt lat="43.62522" lon="0.73436">
        <ele>191</ele>
        <time>2020-10-03T15:22:38.000Z</time>
      </trkpt>
      <trkpt lat="43.62522" lon="0.73433">
        <ele>191</ele>
        <time>2020-10-03T15:22:39.000Z</time>
      </trkpt>
      <trkpt lat="43.62522" lon="0.73429">
        <ele>191</ele>
        <time>2020-10-03T15:22:40.000Z</time>
      </trkpt>
      <trkpt lat="43.62522" lon="0.73425">
        <ele>191</ele>
        <time>2020-10-03T15:22:41.000Z</time>
      </trkpt>
      <trkpt lat="43.62521" lon="0.73421">
        <ele>191</ele>
        <time>2020-10-03T15:22:42.000Z</time>
      </trkpt>
      <trkpt lat="43.62521" lon="0.73418">
        <ele>191</ele>
        <time>2020-10-03T15:22:43.000Z</time>
      </trkpt>
      <trkpt lat="43.62521" lon="0.73415">
        <ele>191</ele>
        <time>2020-10-03T15:22:44.000Z</time>
      </trkpt>
      <trkpt lat="43.62521" lon="0.73411">
        <ele>191</ele>
        <time>2020-10-03T15:22:45.000Z</time>
      </trkpt>
      <trkpt lat="43.62522" lon="0.73408">
        <ele>191</ele>
        <time>2020-10-03T15:22:46.000Z</time>
      </trkpt>
      <trkpt lat="43.62522" lon="0.73406">
        <ele>191</ele>
        <time>2020-10-03T15:22:47.000Z</time>
      </trkpt>
      <trkpt lat="43.62523" lon="0.73403">
        <ele>190.68965263576</ele>
        <time>2020-10-03T15:22:48.000Z</time>
      </trkpt>
      <trkpt lat="43.62523" lon="0.73399">
        <ele>190</ele>
        <time>2020-10-03T15:22:49.000Z</time>
      </trkpt>
      <trkpt lat="43.62524" lon="0.73396">
        <ele>190</ele>
        <time>2020-10-03T15:22:50.000Z</time>
      </trkpt>
      <trkpt lat="43.62524" lon="0.73394">
        <ele>190</ele>
        <time>2020-10-03T15:22:51.000Z</time>
      </trkpt>
      <trkpt lat="43.62526" lon="0.7339">
        <ele>190</ele>
        <time>2020-10-03T15:22:53.000Z</time>
      </trkpt>
      <trkpt lat="43.62526" lon="0.73388">
        <ele>190</ele>
        <time>2020-10-03T15:22:54.000Z</time>
      </trkpt>
      <trkpt lat="43.62528" lon="0.73384">
        <ele>190</ele>
        <time>2020-10-03T15:22:56.000Z</time>
      </trkpt>
      <trkpt lat="43.62529" lon="0.7338">
        <ele>190</ele>
        <time>2020-10-03T15:22:58.000Z</time>
      </trkpt>
      <trkpt lat="43.6253" lon="0.73375">
        <ele>189</ele>
        <time>2020-10-03T15:23:00.000Z</time>
      </trkpt>
      <trkpt lat="43.62532" lon="0.73371">
        <ele>188.58585780226</ele>
        <time>2020-10-03T15:23:02.000Z</time>
      </trkpt>
      <trkpt lat="43.62533" lon="0.73368">
        <ele>188</ele>
        <time>2020-10-03T15:23:04.000Z</time>
      </trkpt>
      <trkpt lat="43.62534" lon="0.73364">
        <ele>189</ele>
        <time>2020-10-03T15:23:06.000Z</time>
      </trkpt>
      <trkpt lat="43.62534" lon="0.7336">
        <ele>189</ele>
        <time>2020-10-03T15:23:08.000Z</time>
      </trkpt>
      <trkpt lat="43.62535" lon="0.73355">
        <ele>189</ele>
        <time>2020-10-03T15:23:10.000Z</time>
      </trkpt>
      <trkpt lat="43.62536" lon="0.73352">
        <ele>189</ele>
        <time>2020-10-03T15:23:12.000Z</time>
      </trkpt>
      <trkpt lat="43.62537" lon="0.73348">
        <ele>189</ele>
        <time>2020-10-03T15:23:14.000Z</time>
      </trkpt>
      <trkpt lat="43.62537" lon="0.73344">
        <ele>189.36470552803</ele>
        <time>2020-10-03T15:23:16.000Z</time>
      </trkpt>
      <trkpt lat="43.62537" lon="0.73341">
        <ele>190</ele>
        <time>2020-10-03T15:23:17.000Z</time>
      </trkpt>
      <trkpt lat="43.62537" lon="0.73338">
        <ele>190</ele>
        <time>2020-10-03T15:23:18.000Z</time>
      </trkpt>
      <trkpt lat="43.62537" lon="0.73334">
        <ele>190</ele>
        <time>2020-10-03T15:23:19.000Z</time>
      </trkpt>
      <trkpt lat="43.62537" lon="0.73332">
        <ele>190</ele>
        <time>2020-10-03T15:23:20.000Z</time>
      </trkpt>
      <trkpt lat="43.62537" lon="0.73329">
        <ele>190</ele>
        <time>2020-10-03T15:23:21.000Z</time>
      </trkpt>
      <trkpt lat="43.62537" lon="0.73325">
        <ele>190</ele>
        <time>2020-10-03T15:23:22.000Z</time>
      </trkpt>
      <trkpt lat="43.62536" lon="0.73322">
        <ele>189.58620841854</ele>
        <time>2020-10-03T15:23:23.000Z</time>
      </trkpt>
      <trkpt lat="43.62536" lon="0.73319">
        <ele>189</ele>
        <time>2020-10-03T15:23:24.000Z</time>
      </trkpt>
      <trkpt lat="43.62536" lon="0.73316">
        <ele>189</ele>
        <time>2020-10-03T15:23:25.000Z</time>
      </trkpt>
      <trkpt lat="43.62536" lon="0.73313">
        <ele>189</ele>
        <time>2020-10-03T15:23:26.000Z</time>
      </trkpt>
      <trkpt lat="43.62536" lon="0.73309">
        <ele>189</ele>
        <time>2020-10-03T15:23:27.000Z</time>
      </trkpt>
      <trkpt lat="43.62536" lon="0.73306">
        <ele>189</ele>
        <time>2020-10-03T15:23:28.000Z</time>
      </trkpt>
      <trkpt lat="43.62536" lon="0.73303">
        <ele>189</ele>
        <time>2020-10-03T15:23:29.000Z</time>
      </trkpt>
      <trkpt lat="43.62535" lon="0.733">
        <ele>189</ele>
        <time>2020-10-03T15:23:30.000Z</time>
      </trkpt>
      <trkpt lat="43.62535" lon="0.73297">
        <ele>188.59374666667</ele>
        <time>2020-10-03T15:23:31.000Z</time>
      </trkpt>
      <trkpt lat="43.62535" lon="0.73293">
        <ele>188</ele>
        <time>2020-10-03T15:23:32.000Z</time>
      </trkpt>
      <trkpt lat="43.62535" lon="0.7329">
        <ele>188</ele>
        <time>2020-10-03T15:23:33.000Z</time>
      </trkpt>
      <trkpt lat="43.62535" lon="0.73287">
        <ele>188</ele>
        <time>2020-10-03T15:23:34.000Z</time>
      </trkpt>
      <trkpt lat="43.62534" lon="0.73284">
        <ele>188</ele>
        <time>2020-10-03T15:23:35.000Z</time>
      </trkpt>
      <trkpt lat="43.62534" lon="0.73281">
        <ele>188</ele>
        <time>2020-10-03T15:23:36.000Z</time>
      </trkpt>
      <trkpt lat="43.62534" lon="0.73278">
        <ele>188</ele>
        <time>2020-10-03T15:23:37.000Z</time>
      </trkpt>
      <trkpt lat="43.62534" lon="0.73275">
        <ele>188</ele>
        <time>2020-10-03T15:23:38.000Z</time>
      </trkpt>
      <trkpt lat="43.62534" lon="0.73272">
        <ele>188</ele>
        <time>2020-10-03T15:23:39.000Z</time>
      </trkpt>
      <trkpt lat="43.62534" lon="0.73268">
        <ele>188</ele>
        <time>2020-10-03T15:23:40.000Z</time>
      </trkpt>
      <trkpt lat="43.62534" lon="0.73265">
        <ele>188</ele>
        <time>2020-10-03T15:23:41.000Z</time>
      </trkpt>
      <trkpt lat="43.62533" lon="0.73262">
        <ele>188</ele>
        <time>2020-10-03T15:23:42.000Z</time>
      </trkpt>
      <trkpt lat="43.62533" lon="0.73259">
        <ele>188</ele>
        <time>2020-10-03T15:23:43.000Z</time>
      </trkpt>
      <trkpt lat="43.62533" lon="0.73255">
        <ele>188</ele>
        <time>2020-10-03T15:23:44.000Z</time>
      </trkpt>
      <trkpt lat="43.62533" lon="0.73252">
        <ele>188</ele>
        <time>2020-10-03T15:23:45.000Z</time>
      </trkpt>
      <trkpt lat="43.62533" lon="0.73249">
        <ele>188</ele>
        <time>2020-10-03T15:23:46.000Z</time>
      </trkpt>
      <trkpt lat="43.62532" lon="0.73246">
        <ele>188</ele>
        <time>2020-10-03T15:23:47.000Z</time>
      </trkpt>
      <trkpt lat="43.62532" lon="0.73242">
        <ele>188</ele>
        <time>2020-10-03T15:23:48.000Z</time>
      </trkpt>
      <trkpt lat="43.62532" lon="0.73239">
        <ele>188</ele>
        <time>2020-10-03T15:23:49.000Z</time>
      </trkpt>
      <trkpt lat="43.62532" lon="0.73236">
        <ele>188</ele>
        <time>2020-10-03T15:23:50.000Z</time>
      </trkpt>
      <trkpt lat="43.62531" lon="0.73233">
        <ele>188</ele>
        <time>2020-10-03T15:23:51.000Z</time>
      </trkpt>
      <trkpt lat="43.62532" lon="0.73229">
        <ele>188</ele>
        <time>2020-10-03T15:23:52.000Z</time>
      </trkpt>
      <trkpt lat="43.62531" lon="0.73226">
        <ele>188</ele>
        <time>2020-10-03T15:23:53.000Z</time>
      </trkpt>
      <trkpt lat="43.62531" lon="0.73223">
        <ele>188</ele>
        <time>2020-10-03T15:23:54.000Z</time>
      </trkpt>
      <trkpt lat="43.62531" lon="0.7322">
        <ele>188</ele>
        <time>2020-10-03T15:23:55.000Z</time>
      </trkpt>
      <trkpt lat="43.62531" lon="0.73217">
        <ele>188</ele>
        <time>2020-10-03T15:23:56.000Z</time>
      </trkpt>
      <trkpt lat="43.62531" lon="0.73213">
        <ele>188</ele>
        <time>2020-10-03T15:23:57.000Z</time>
      </trkpt>
      <trkpt lat="43.6253" lon="0.7321">
        <ele>188</ele>
        <time>2020-10-03T15:23:58.000Z</time>
      </trkpt>
      <trkpt lat="43.6253" lon="0.73206">
        <ele>188</ele>
        <time>2020-10-03T15:23:59.000Z</time>
      </trkpt>
      <trkpt lat="43.62529" lon="0.73203">
        <ele>188</ele>
        <time>2020-10-03T15:24:00.000Z</time>
      </trkpt>
      <trkpt lat="43.62528" lon="0.73201">
        <ele>188</ele>
        <time>2020-10-03T15:24:01.000Z</time>
      </trkpt>
      <trkpt lat="43.62528" lon="0.73197">
        <ele>188</ele>
        <time>2020-10-03T15:24:02.000Z</time>
      </trkpt>
      <trkpt lat="43.62527" lon="0.73194">
        <ele>188</ele>
        <time>2020-10-03T15:24:03.000Z</time>
      </trkpt>
      <trkpt lat="43.62526" lon="0.73191">
        <ele>188</ele>
        <time>2020-10-03T15:24:04.000Z</time>
      </trkpt>
      <trkpt lat="43.62526" lon="0.73188">
        <ele>188</ele>
        <time>2020-10-03T15:24:05.000Z</time>
      </trkpt>
      <trkpt lat="43.62525" lon="0.73185">
        <ele>188</ele>
        <time>2020-10-03T15:24:06.000Z</time>
      </trkpt>
      <trkpt lat="43.62524" lon="0.73181">
        <ele>188</ele>
        <time>2020-10-03T15:24:07.000Z</time>
      </trkpt>
      <trkpt lat="43.62522" lon="0.73178">
        <ele>188</ele>
        <time>2020-10-03T15:24:08.000Z</time>
      </trkpt>
      <trkpt lat="43.62521" lon="0.73176">
        <ele>188</ele>
        <time>2020-10-03T15:24:09.000Z</time>
      </trkpt>
      <trkpt lat="43.62519" lon="0.73173">
        <ele>188</ele>
        <time>2020-10-03T15:24:10.000Z</time>
      </trkpt>
      <trkpt lat="43.62518" lon="0.7317">
        <ele>188.1666639316</ele>
        <time>2020-10-03T15:24:11.000Z</time>
      </trkpt>
      <trkpt lat="43.62516" lon="0.73167">
        <ele>189</ele>
        <time>2020-10-03T15:24:12.000Z</time>
      </trkpt>
      <trkpt lat="43.62514" lon="0.73164">
        <ele>189</ele>
        <time>2020-10-03T15:24:13.000Z</time>
      </trkpt>
      <trkpt lat="43.62513" lon="0.73161">
        <ele>189</ele>
        <time>2020-10-03T15:24:14.000Z</time>
      </trkpt>
      <trkpt lat="43.62512" lon="0.73159">
        <ele>189</ele>
        <time>2020-10-03T15:24:15.000Z</time>
      </trkpt>
      <trkpt lat="43.6251" lon="0.73156">
        <ele>189</ele>
        <time>2020-10-03T15:24:16.000Z</time>
      </trkpt>
      <trkpt lat="43.62509" lon="0.73154">
        <ele>189</ele>
        <time>2020-10-03T15:24:17.000Z</time>
      </trkpt>
      <trkpt lat="43.62507" lon="0.73151">
        <ele>189</ele>
        <time>2020-10-03T15:24:18.000Z</time>
      </trkpt>
      <trkpt lat="43.62505" lon="0.73149">
        <ele>189</ele>
        <time>2020-10-03T15:24:19.000Z</time>
      </trkpt>
      <trkpt lat="43.62504" lon="0.73146">
        <ele>189</ele>
        <time>2020-10-03T15:24:20.000Z</time>
      </trkpt>
      <trkpt lat="43.62502" lon="0.73143">
        <ele>189</ele>
        <time>2020-10-03T15:24:21.000Z</time>
      </trkpt>
      <trkpt lat="43.62501" lon="0.73141">
        <ele>189</ele>
        <time>2020-10-03T15:24:22.000Z</time>
      </trkpt>
      <trkpt lat="43.62499" lon="0.73138">
        <ele>189</ele>
        <time>2020-10-03T15:24:23.000Z</time>
      </trkpt>
      <trkpt lat="43.62498" lon="0.73135">
        <ele>189</ele>
        <time>2020-10-03T15:24:24.000Z</time>
      </trkpt>
      <trkpt lat="43.62496" lon="0.73132">
        <ele>189</ele>
        <time>2020-10-03T15:24:25.000Z</time>
      </trkpt>
      <trkpt lat="43.62495" lon="0.7313">
        <ele>189.423725688</ele>
        <time>2020-10-03T15:24:26.000Z</time>
      </trkpt>
      <trkpt lat="43.62494" lon="0.73127">
        <ele>190</ele>
        <time>2020-10-03T15:24:27.000Z</time>
      </trkpt>
      <trkpt lat="43.62493" lon="0.73124">
        <ele>190</ele>
        <time>2020-10-03T15:24:28.000Z</time>
      </trkpt>
      <trkpt lat="43.62492" lon="0.73121">
        <ele>190</ele>
        <time>2020-10-03T15:24:29.000Z</time>
      </trkpt>
      <trkpt lat="43.62491" lon="0.73118">
        <ele>190</ele>
        <time>2020-10-03T15:24:30.000Z</time>
      </trkpt>
      <trkpt lat="43.6249" lon="0.73115">
        <ele>190</ele>
        <time>2020-10-03T15:24:31.000Z</time>
      </trkpt>
      <trkpt lat="43.62489" lon="0.73112">
        <ele>190</ele>
        <time>2020-10-03T15:24:32.000Z</time>
      </trkpt>
      <trkpt lat="43.62487" lon="0.73109">
        <ele>190</ele>
        <time>2020-10-03T15:24:33.000Z</time>
      </trkpt>
      <trkpt lat="43.62486" lon="0.73105">
        <ele>190</ele>
        <time>2020-10-03T15:24:34.000Z</time>
      </trkpt>
      <trkpt lat="43.62484" lon="0.73102">
        <ele>190</ele>
        <time>2020-10-03T15:24:35.000Z</time>
      </trkpt>
      <trkpt lat="43.62483" lon="0.73099">
        <ele>190</ele>
        <time>2020-10-03T15:24:36.000Z</time>
      </trkpt>
      <trkpt lat="43.62483" lon="0.73096">
        <ele>189.55555555556</ele>
        <time>2020-10-03T15:24:37.000Z</time>
      </trkpt>
      <trkpt lat="43.62481" lon="0.73092">
        <ele>189</ele>
        <time>2020-10-03T15:24:38.000Z</time>
      </trkpt>
      <trkpt lat="43.6248" lon="0.73089">
        <ele>189</ele>
        <time>2020-10-03T15:24:39.000Z</time>
      </trkpt>
      <trkpt lat="43.62479" lon="0.73086">
        <ele>189.45044858046</ele>
        <time>2020-10-03T15:24:40.000Z</time>
      </trkpt>
      <trkpt lat="43.62478" lon="0.73083">
        <ele>190</ele>
        <time>2020-10-03T15:24:41.000Z</time>
      </trkpt>
      <trkpt lat="43.62477" lon="0.73079">
        <ele>190</ele>
        <time>2020-10-03T15:24:42.000Z</time>
      </trkpt>
      <trkpt lat="43.62476" lon="0.73076">
        <ele>190</ele>
        <time>2020-10-03T15:24:43.000Z</time>
      </trkpt>
      <trkpt lat="43.62475" lon="0.73073">
        <ele>190</ele>
        <time>2020-10-03T15:24:44.000Z</time>
      </trkpt>
      <trkpt lat="43.62474" lon="0.73069">
        <ele>190</ele>
        <time>2020-10-03T15:24:45.000Z</time>
      </trkpt>
      <trkpt lat="43.62472" lon="0.73066">
        <ele>190</ele>
        <time>2020-10-03T15:24:46.000Z</time>
      </trkpt>
      <trkpt lat="43.62471" lon="0.73063">
        <ele>189.71052986156</ele>
        <time>2020-10-03T15:24:47.000Z</time>
      </trkpt>
      <trkpt lat="43.6247" lon="0.7306">
        <ele>189</ele>
        <time>2020-10-03T15:24:48.000Z</time>
      </trkpt>
      <trkpt lat="43.62469" lon="0.73056">
        <ele>189</ele>
        <time>2020-10-03T15:24:49.000Z</time>
      </trkpt>
      <trkpt lat="43.62468" lon="0.73053">
        <ele>189</ele>
        <time>2020-10-03T15:24:50.000Z</time>
      </trkpt>
      <trkpt lat="43.62467" lon="0.7305">
        <ele>189</ele>
        <time>2020-10-03T15:24:51.000Z</time>
      </trkpt>
      <trkpt lat="43.62466" lon="0.73046">
        <ele>189</ele>
        <time>2020-10-03T15:24:52.000Z</time>
      </trkpt>
      <trkpt lat="43.62465" lon="0.73043">
        <ele>189</ele>
        <time>2020-10-03T15:24:53.000Z</time>
      </trkpt>
      <trkpt lat="43.62463" lon="0.7304">
        <ele>189</ele>
        <time>2020-10-03T15:24:54.000Z</time>
      </trkpt>
      <trkpt lat="43.62462" lon="0.73037">
        <ele>189</ele>
        <time>2020-10-03T15:24:55.000Z</time>
      </trkpt>
      <trkpt lat="43.62461" lon="0.73033">
        <ele>189</ele>
        <time>2020-10-03T15:24:56.000Z</time>
      </trkpt>
      <trkpt lat="43.6246" lon="0.7303">
        <ele>189</ele>
        <time>2020-10-03T15:24:57.000Z</time>
      </trkpt>
      <trkpt lat="43.62459" lon="0.73027">
        <ele>188.68224612109</ele>
        <time>2020-10-03T15:24:58.000Z</time>
      </trkpt>
      <trkpt lat="43.62457" lon="0.73024">
        <ele>188</ele>
        <time>2020-10-03T15:24:59.000Z</time>
      </trkpt>
      <trkpt lat="43.62456" lon="0.73021">
        <ele>188</ele>
        <time>2020-10-03T15:25:00.000Z</time>
      </trkpt>
      <trkpt lat="43.62455" lon="0.73018">
        <ele>187.72222380248</ele>
        <time>2020-10-03T15:25:01.000Z</time>
      </trkpt>
      <trkpt lat="43.62453" lon="0.73014">
        <ele>187</ele>
        <time>2020-10-03T15:25:02.000Z</time>
      </trkpt>
      <trkpt lat="43.62452" lon="0.73011">
        <ele>187</ele>
        <time>2020-10-03T15:25:03.000Z</time>
      </trkpt>
      <trkpt lat="43.62451" lon="0.73007">
        <ele>187</ele>
        <time>2020-10-03T15:25:04.000Z</time>
      </trkpt>
      <trkpt lat="43.6245" lon="0.73003">
        <ele>187</ele>
        <time>2020-10-03T15:25:05.000Z</time>
      </trkpt>
      <trkpt lat="43.62449" lon="0.73">
        <ele>187</ele>
        <time>2020-10-03T15:25:06.000Z</time>
      </trkpt>
      <trkpt lat="43.62448" lon="0.72997">
        <ele>187</ele>
        <time>2020-10-03T15:25:07.000Z</time>
      </trkpt>
      <trkpt lat="43.62446" lon="0.72994">
        <ele>187</ele>
        <time>2020-10-03T15:25:08.000Z</time>
      </trkpt>
      <trkpt lat="43.62445" lon="0.72991">
        <ele>187</ele>
        <time>2020-10-03T15:25:09.000Z</time>
      </trkpt>
      <trkpt lat="43.62444" lon="0.72987">
        <ele>187</ele>
        <time>2020-10-03T15:25:10.000Z</time>
      </trkpt>
      <trkpt lat="43.62443" lon="0.72984">
        <ele>187</ele>
        <time>2020-10-03T15:25:11.000Z</time>
      </trkpt>
      <trkpt lat="43.62442" lon="0.72981">
        <ele>186.57142656202</ele>
        <time>2020-10-03T15:25:12.000Z</time>
      </trkpt>
      <trkpt lat="43.6244" lon="0.72978">
        <ele>186</ele>
        <time>2020-10-03T15:25:13.000Z</time>
      </trkpt>
      <trkpt lat="43.62439" lon="0.72974">
        <ele>186</ele>
        <time>2020-10-03T15:25:14.000Z</time>
      </trkpt>
      <trkpt lat="43.62438" lon="0.72971">
        <ele>185.68888667653</ele>
        <time>2020-10-03T15:25:15.000Z</time>
      </trkpt>
      <trkpt lat="43.62437" lon="0.72968">
        <ele>185</ele>
        <time>2020-10-03T15:25:16.000Z</time>
      </trkpt>
      <trkpt lat="43.62435" lon="0.72964">
        <ele>185</ele>
        <time>2020-10-03T15:25:17.000Z</time>
      </trkpt>
      <trkpt lat="43.62434" lon="0.72961">
        <ele>185</ele>
        <time>2020-10-03T15:25:18.000Z</time>
      </trkpt>
      <trkpt lat="43.62433" lon="0.72958">
        <ele>185</ele>
        <time>2020-10-03T15:25:19.000Z</time>
      </trkpt>
      <trkpt lat="43.62432" lon="0.72955">
        <ele>185</ele>
        <time>2020-10-03T15:25:20.000Z</time>
      </trkpt>
      <trkpt lat="43.62431" lon="0.72951">
        <ele>185</ele>
        <time>2020-10-03T15:25:21.000Z</time>
      </trkpt>
      <trkpt lat="43.62429" lon="0.72947">
        <ele>184.65765287884</ele>
        <time>2020-10-03T15:25:22.000Z</time>
      </trkpt>
      <trkpt lat="43.62428" lon="0.72944">
        <ele>184</ele>
        <time>2020-10-03T15:25:23.000Z</time>
      </trkpt>
      <trkpt lat="43.62427" lon="0.72941">
        <ele>184</ele>
        <time>2020-10-03T15:25:24.000Z</time>
      </trkpt>
      <trkpt lat="43.62426" lon="0.72937">
        <ele>184</ele>
        <time>2020-10-03T15:25:25.000Z</time>
      </trkpt>
      <trkpt lat="43.62425" lon="0.72934">
        <ele>184</ele>
        <time>2020-10-03T15:25:26.000Z</time>
      </trkpt>
      <trkpt lat="43.62424" lon="0.7293">
        <ele>184</ele>
        <time>2020-10-03T15:25:27.000Z</time>
      </trkpt>
      <trkpt lat="43.62422" lon="0.72928">
        <ele>184</ele>
        <time>2020-10-03T15:25:28.000Z</time>
      </trkpt>
      <trkpt lat="43.62421" lon="0.72924">
        <ele>184</ele>
        <time>2020-10-03T15:25:29.000Z</time>
      </trkpt>
      <trkpt lat="43.62419" lon="0.72921">
        <ele>183.65</ele>
        <time>2020-10-03T15:25:30.000Z</time>
      </trkpt>
      <trkpt lat="43.62418" lon="0.72917">
        <ele>183</ele>
        <time>2020-10-03T15:25:31.000Z</time>
      </trkpt>
      <trkpt lat="43.62417" lon="0.72914">
        <ele>183</ele>
        <time>2020-10-03T15:25:32.000Z</time>
      </trkpt>
      <trkpt lat="43.62416" lon="0.7291">
        <ele>182.10713142857</ele>
        <time>2020-10-03T15:25:33.000Z</time>
      </trkpt>
      <trkpt lat="43.62414" lon="0.72907">
        <ele>181</ele>
        <time>2020-10-03T15:25:34.000Z</time>
      </trkpt>
      <trkpt lat="43.62413" lon="0.72904">
        <ele>181</ele>
        <time>2020-10-03T15:25:35.000Z</time>
      </trkpt>
      <trkpt lat="43.62412" lon="0.729">
        <ele>181</ele>
        <time>2020-10-03T15:25:36.000Z</time>
      </trkpt>
      <trkpt lat="43.62411" lon="0.72897">
        <ele>181</ele>
        <time>2020-10-03T15:25:37.000Z</time>
      </trkpt>
      <trkpt lat="43.6241" lon="0.72893">
        <ele>181</ele>
        <time>2020-10-03T15:25:38.000Z</time>
      </trkpt>
      <trkpt lat="43.62408" lon="0.7289">
        <ele>181</ele>
        <time>2020-10-03T15:25:39.000Z</time>
      </trkpt>
      <trkpt lat="43.62407" lon="0.72886">
        <ele>180.55046033163</ele>
        <time>2020-10-03T15:25:40.000Z</time>
      </trkpt>
      <trkpt lat="43.62406" lon="0.72883">
        <ele>180</ele>
        <time>2020-10-03T15:25:41.000Z</time>
      </trkpt>
      <trkpt lat="43.62404" lon="0.72879">
        <ele>180</ele>
        <time>2020-10-03T15:25:42.000Z</time>
      </trkpt>
      <trkpt lat="43.62403" lon="0.72876">
        <ele>180</ele>
        <time>2020-10-03T15:25:43.000Z</time>
      </trkpt>
      <trkpt lat="43.62401" lon="0.72872">
        <ele>179.55445720224</ele>
        <time>2020-10-03T15:25:44.000Z</time>
      </trkpt>
      <trkpt lat="43.624" lon="0.72869">
        <ele>179</ele>
        <time>2020-10-03T15:25:45.000Z</time>
      </trkpt>
      <trkpt lat="43.62398" lon="0.72866">
        <ele>179</ele>
        <time>2020-10-03T15:25:46.000Z</time>
      </trkpt>
      <trkpt lat="43.62397" lon="0.72863">
        <ele>179</ele>
        <time>2020-10-03T15:25:47.000Z</time>
      </trkpt>
      <trkpt lat="43.62395" lon="0.72859">
        <ele>178.63302644558</ele>
        <time>2020-10-03T15:25:48.000Z</time>
      </trkpt>
      <trkpt lat="43.62393" lon="0.72856">
        <ele>178</ele>
        <time>2020-10-03T15:25:49.000Z</time>
      </trkpt>
      <trkpt lat="43.62392" lon="0.72853">
        <ele>178</ele>
        <time>2020-10-03T15:25:50.000Z</time>
      </trkpt>
      <trkpt lat="43.6239" lon="0.7285">
        <ele>177.58139846401</ele>
        <time>2020-10-03T15:25:51.000Z</time>
      </trkpt>
      <trkpt lat="43.62388" lon="0.72846">
        <ele>177</ele>
        <time>2020-10-03T15:25:52.000Z</time>
      </trkpt>
      <trkpt lat="43.62387" lon="0.72843">
        <ele>177</ele>
        <time>2020-10-03T15:25:53.000Z</time>
      </trkpt>
      <trkpt lat="43.62385" lon="0.7284">
        <ele>177</ele>
        <time>2020-10-03T15:25:54.000Z</time>
      </trkpt>
      <trkpt lat="43.62384" lon="0.72837">
        <ele>176.61627993511</ele>
        <time>2020-10-03T15:25:55.000Z</time>
      </trkpt>
      <trkpt lat="43.62382" lon="0.72834">
        <ele>176</ele>
        <time>2020-10-03T15:25:56.000Z</time>
      </trkpt>
      <trkpt lat="43.62381" lon="0.72831">
        <ele>176</ele>
        <time>2020-10-03T15:25:57.000Z</time>
      </trkpt>
      <trkpt lat="43.62379" lon="0.72828">
        <ele>176</ele>
        <time>2020-10-03T15:25:58.000Z</time>
      </trkpt>
      <trkpt lat="43.62378" lon="0.72825">
        <ele>176</ele>
        <time>2020-10-03T15:25:59.000Z</time>
      </trkpt>
      <trkpt lat="43.62376" lon="0.72822">
        <ele>176</ele>
        <time>2020-10-03T15:26:00.000Z</time>
      </trkpt>
      <trkpt lat="43.62374" lon="0.72819">
        <ele>176</ele>
        <time>2020-10-03T15:26:01.000Z</time>
      </trkpt>
      <trkpt lat="43.62373" lon="0.72816">
        <ele>176</ele>
        <time>2020-10-03T15:26:02.000Z</time>
      </trkpt>
      <trkpt lat="43.62371" lon="0.72813">
        <ele>176.38372006489</ele>
        <time>2020-10-03T15:26:03.000Z</time>
      </trkpt>
      <trkpt lat="43.6237" lon="0.72809">
        <ele>177</ele>
        <time>2020-10-03T15:26:04.000Z</time>
      </trkpt>
      <trkpt lat="43.62369" lon="0.72807">
        <ele>177</ele>
        <time>2020-10-03T15:26:05.000Z</time>
      </trkpt>
      <trkpt lat="43.62368" lon="0.72804">
        <ele>177</ele>
        <time>2020-10-03T15:26:06.000Z</time>
      </trkpt>
      <trkpt lat="43.62367" lon="0.72802">
        <ele>177</ele>
        <time>2020-10-03T15:26:07.000Z</time>
      </trkpt>
      <trkpt lat="43.62367" lon="0.72799">
        <ele>177</ele>
        <time>2020-10-03T15:26:08.000Z</time>
      </trkpt>
      <trkpt lat="43.62367" lon="0.72797">
        <ele>177</ele>
        <time>2020-10-03T15:26:09.000Z</time>
      </trkpt>
      <trkpt lat="43.62369" lon="0.72795">
        <ele>176.63302644558</ele>
        <time>2020-10-03T15:26:10.000Z</time>
      </trkpt>
      <trkpt lat="43.62371" lon="0.72792">
        <ele>176</ele>
        <time>2020-10-03T15:26:12.000Z</time>
      </trkpt>
      <trkpt lat="43.62372" lon="0.72788">
        <ele>175.56363890246</ele>
        <time>2020-10-03T15:26:14.000Z</time>
      </trkpt>
      <trkpt lat="43.62372" lon="0.72784">
        <ele>175</ele>
        <time>2020-10-03T15:26:16.000Z</time>
      </trkpt>
      <trkpt lat="43.62373" lon="0.72781">
        <ele>175</ele>
        <time>2020-10-03T15:26:18.000Z</time>
      </trkpt>
      <trkpt lat="43.62375" lon="0.72778">
        <ele>175</ele>
        <time>2020-10-03T15:26:20.000Z</time>
      </trkpt>
      <trkpt lat="43.62377" lon="0.72775">
        <ele>175</ele>
        <time>2020-10-03T15:26:22.000Z</time>
      </trkpt>
      <trkpt lat="43.62379" lon="0.72772">
        <ele>175.2027052739</ele>
        <time>2020-10-03T15:26:24.000Z</time>
      </trkpt>
      <trkpt lat="43.62381" lon="0.72769">
        <ele>176</ele>
        <time>2020-10-03T15:26:25.000Z</time>
      </trkpt>
      <trkpt lat="43.62382" lon="0.72767">
        <ele>176</ele>
        <time>2020-10-03T15:26:26.000Z</time>
      </trkpt>
      <trkpt lat="43.62383" lon="0.72764">
        <ele>176</ele>
        <time>2020-10-03T15:26:27.000Z</time>
      </trkpt>
      <trkpt lat="43.62384" lon="0.72761">
        <ele>176</ele>
        <time>2020-10-03T15:26:28.000Z</time>
      </trkpt>
      <trkpt lat="43.62386" lon="0.72759">
        <ele>175.57303936374</ele>
        <time>2020-10-03T15:26:29.000Z</time>
      </trkpt>
      <trkpt lat="43.62387" lon="0.72756">
        <ele>175</ele>
        <time>2020-10-03T15:26:30.000Z</time>
      </trkpt>
      <trkpt lat="43.62389" lon="0.72753">
        <ele>175</ele>
        <time>2020-10-03T15:26:31.000Z</time>
      </trkpt>
      <trkpt lat="43.62391" lon="0.7275">
        <ele>175</ele>
        <time>2020-10-03T15:26:32.000Z</time>
      </trkpt>
      <trkpt lat="43.62391" lon="0.72747">
        <ele>175.44444128397</ele>
        <time>2020-10-03T15:26:33.000Z</time>
      </trkpt>
      <trkpt lat="43.62393" lon="0.72744">
        <ele>176</ele>
        <time>2020-10-03T15:26:34.000Z</time>
      </trkpt>
      <trkpt lat="43.62394" lon="0.72741">
        <ele>176</ele>
        <time>2020-10-03T15:26:35.000Z</time>
      </trkpt>
      <trkpt lat="43.62395" lon="0.72739">
        <ele>176</ele>
        <time>2020-10-03T15:26:36.000Z</time>
      </trkpt>
      <trkpt lat="43.62396" lon="0.72735">
        <ele>176</ele>
        <time>2020-10-03T15:26:37.000Z</time>
      </trkpt>
      <trkpt lat="43.62397" lon="0.72733">
        <ele>176</ele>
        <time>2020-10-03T15:26:38.000Z</time>
      </trkpt>
      <trkpt lat="43.62398" lon="0.7273">
        <ele>176</ele>
        <time>2020-10-03T15:26:39.000Z</time>
      </trkpt>
      <trkpt lat="43.62399" lon="0.72726">
        <ele>176</ele>
        <time>2020-10-03T15:26:40.000Z</time>
      </trkpt>
      <trkpt lat="43.624" lon="0.72723">
        <ele>176</ele>
        <time>2020-10-03T15:26:41.000Z</time>
      </trkpt>
      <trkpt lat="43.62401" lon="0.7272">
        <ele>176</ele>
        <time>2020-10-03T15:26:42.000Z</time>
      </trkpt>
      <trkpt lat="43.62402" lon="0.72717">
        <ele>176</ele>
        <time>2020-10-03T15:26:43.000Z</time>
      </trkpt>
      <trkpt lat="43.62403" lon="0.72714">
        <ele>176</ele>
        <time>2020-10-03T15:26:44.000Z</time>
      </trkpt>
      <trkpt lat="43.62403" lon="0.72711">
        <ele>176</ele>
        <time>2020-10-03T15:26:45.000Z</time>
      </trkpt>
      <trkpt lat="43.62404" lon="0.72708">
        <ele>176</ele>
        <time>2020-10-03T15:26:46.000Z</time>
      </trkpt>
      <trkpt lat="43.62405" lon="0.72705">
        <ele>176</ele>
        <time>2020-10-03T15:26:47.000Z</time>
      </trkpt>
      <trkpt lat="43.62405" lon="0.72702">
        <ele>176</ele>
        <time>2020-10-03T15:26:48.000Z</time>
      </trkpt>
      <trkpt lat="43.62406" lon="0.72699">
        <ele>176</ele>
        <time>2020-10-03T15:26:49.000Z</time>
      </trkpt>
      <trkpt lat="43.62407" lon="0.72697">
        <ele>176</ele>
        <time>2020-10-03T15:26:50.000Z</time>
      </trkpt>
      <trkpt lat="43.62407" lon="0.72694">
        <ele>176</ele>
        <time>2020-10-03T15:26:51.000Z</time>
      </trkpt>
      <trkpt lat="43.62408" lon="0.72692">
        <ele>176</ele>
        <time>2020-10-03T15:26:52.000Z</time>
      </trkpt>
      <trkpt lat="43.62409" lon="0.72689">
        <ele>176</ele>
        <time>2020-10-03T15:26:53.000Z</time>
      </trkpt>
      <trkpt lat="43.62409" lon="0.72686">
        <ele>176</ele>
        <time>2020-10-03T15:26:54.000Z</time>
      </trkpt>
      <trkpt lat="43.6241" lon="0.72683">
        <ele>176</ele>
        <time>2020-10-03T15:26:55.000Z</time>
      </trkpt>
      <trkpt lat="43.62411" lon="0.7268">
        <ele>176</ele>
        <time>2020-10-03T15:26:56.000Z</time>
      </trkpt>
      <trkpt lat="43.62411" lon="0.72677">
        <ele>176</ele>
        <time>2020-10-03T15:26:57.000Z</time>
      </trkpt>
      <trkpt lat="43.62411" lon="0.72673">
        <ele>176</ele>
        <time>2020-10-03T15:26:58.000Z</time>
      </trkpt>
      <trkpt lat="43.62411" lon="0.7267">
        <ele>176</ele>
        <time>2020-10-03T15:26:59.000Z</time>
      </trkpt>
      <trkpt lat="43.62411" lon="0.72668">
        <ele>176</ele>
        <time>2020-10-03T15:27:00.000Z</time>
      </trkpt>
      <trkpt lat="43.62412" lon="0.72664">
        <ele>176</ele>
        <time>2020-10-03T15:27:01.000Z</time>
      </trkpt>
      <trkpt lat="43.62412" lon="0.72661">
        <ele>176</ele>
        <time>2020-10-03T15:27:02.000Z</time>
      </trkpt>
      <trkpt lat="43.62413" lon="0.72658">
        <ele>176</ele>
        <time>2020-10-03T15:27:03.000Z</time>
      </trkpt>
      <trkpt lat="43.62413" lon="0.72655">
        <ele>176</ele>
        <time>2020-10-03T15:27:04.000Z</time>
      </trkpt>
      <trkpt lat="43.62414" lon="0.72652">
        <ele>176</ele>
        <time>2020-10-03T15:27:05.000Z</time>
      </trkpt>
      <trkpt lat="43.62415" lon="0.72649">
        <ele>176</ele>
        <time>2020-10-03T15:27:06.000Z</time>
      </trkpt>
      <trkpt lat="43.62416" lon="0.72646">
        <ele>176</ele>
        <time>2020-10-03T15:27:07.000Z</time>
      </trkpt>
      <trkpt lat="43.62416" lon="0.72643">
        <ele>176</ele>
        <time>2020-10-03T15:27:08.000Z</time>
      </trkpt>
      <trkpt lat="43.62417" lon="0.7264">
        <ele>176</ele>
        <time>2020-10-03T15:27:09.000Z</time>
      </trkpt>
      <trkpt lat="43.62418" lon="0.72638">
        <ele>176</ele>
        <time>2020-10-03T15:27:10.000Z</time>
      </trkpt>
      <trkpt lat="43.62419" lon="0.72634">
        <ele>176</ele>
        <time>2020-10-03T15:27:11.000Z</time>
      </trkpt>
      <trkpt lat="43.62419" lon="0.72631">
        <ele>176</ele>
        <time>2020-10-03T15:27:12.000Z</time>
      </trkpt>
      <trkpt lat="43.6242" lon="0.72627">
        <ele>176</ele>
        <time>2020-10-03T15:27:13.000Z</time>
      </trkpt>
      <trkpt lat="43.6242" lon="0.72624">
        <ele>176</ele>
        <time>2020-10-03T15:27:14.000Z</time>
      </trkpt>
      <trkpt lat="43.62421" lon="0.72621">
        <ele>176.43925401345</ele>
        <time>2020-10-03T15:27:15.000Z</time>
      </trkpt>
      <trkpt lat="43.62421" lon="0.72618">
        <ele>177</ele>
        <time>2020-10-03T15:27:16.000Z</time>
      </trkpt>
      <trkpt lat="43.62422" lon="0.72615">
        <ele>177</ele>
        <time>2020-10-03T15:27:17.000Z</time>
      </trkpt>
      <trkpt lat="43.62423" lon="0.72612">
        <ele>177</ele>
        <time>2020-10-03T15:27:18.000Z</time>
      </trkpt>
      <trkpt lat="43.62423" lon="0.7261">
        <ele>177</ele>
        <time>2020-10-03T15:27:19.000Z</time>
      </trkpt>
      <trkpt lat="43.62424" lon="0.72607">
        <ele>177</ele>
        <time>2020-10-03T15:27:20.000Z</time>
      </trkpt>
      <trkpt lat="43.62424" lon="0.72604">
        <ele>177</ele>
        <time>2020-10-03T15:27:21.000Z</time>
      </trkpt>
      <trkpt lat="43.62425" lon="0.72601">
        <ele>177</ele>
        <time>2020-10-03T15:27:22.000Z</time>
      </trkpt>
      <trkpt lat="43.62426" lon="0.72597">
        <ele>177</ele>
        <time>2020-10-03T15:27:23.000Z</time>
      </trkpt>
      <trkpt lat="43.62426" lon="0.72594">
        <ele>177</ele>
        <time>2020-10-03T15:27:24.000Z</time>
      </trkpt>
      <trkpt lat="43.62427" lon="0.72591">
        <ele>177</ele>
        <time>2020-10-03T15:27:25.000Z</time>
      </trkpt>
      <trkpt lat="43.62428" lon="0.72588">
        <ele>177</ele>
        <time>2020-10-03T15:27:26.000Z</time>
      </trkpt>
      <trkpt lat="43.62428" lon="0.72585">
        <ele>177</ele>
        <time>2020-10-03T15:27:27.000Z</time>
      </trkpt>
      <trkpt lat="43.62428" lon="0.72582">
        <ele>177</ele>
        <time>2020-10-03T15:27:28.000Z</time>
      </trkpt>
      <trkpt lat="43.62429" lon="0.72579">
        <ele>177</ele>
        <time>2020-10-03T15:27:29.000Z</time>
      </trkpt>
      <trkpt lat="43.62429" lon="0.72576">
        <ele>177</ele>
        <time>2020-10-03T15:27:30.000Z</time>
      </trkpt>
      <trkpt lat="43.62429" lon="0.72572">
        <ele>177</ele>
        <time>2020-10-03T15:27:31.000Z</time>
      </trkpt>
      <trkpt lat="43.6243" lon="0.72569">
        <ele>177</ele>
        <time>2020-10-03T15:27:32.000Z</time>
      </trkpt>
      <trkpt lat="43.6243" lon="0.72567">
        <ele>177</ele>
        <time>2020-10-03T15:27:33.000Z</time>
      </trkpt>
      <trkpt lat="43.62431" lon="0.72564">
        <ele>177.40322480748</ele>
        <time>2020-10-03T15:27:34.000Z</time>
      </trkpt>
      <trkpt lat="43.62432" lon="0.72561">
        <ele>178</ele>
        <time>2020-10-03T15:27:35.000Z</time>
      </trkpt>
      <trkpt lat="43.62433" lon="0.72558">
        <ele>178</ele>
        <time>2020-10-03T15:27:36.000Z</time>
      </trkpt>
      <trkpt lat="43.62433" lon="0.72555">
        <ele>178</ele>
        <time>2020-10-03T15:27:37.000Z</time>
      </trkpt>
      <trkpt lat="43.62434" lon="0.72552">
        <ele>178</ele>
        <time>2020-10-03T15:27:38.000Z</time>
      </trkpt>
      <trkpt lat="43.62435" lon="0.72549">
        <ele>178</ele>
        <time>2020-10-03T15:27:39.000Z</time>
      </trkpt>
      <trkpt lat="43.62435" lon="0.72546">
        <ele>178.087504</ele>
        <time>2020-10-03T15:27:40.000Z</time>
      </trkpt>
      <trkpt lat="43.62436" lon="0.72544">
        <ele>179</ele>
        <time>2020-10-03T15:27:41.000Z</time>
      </trkpt>
      <trkpt lat="43.62436" lon="0.72541">
        <ele>179</ele>
        <time>2020-10-03T15:27:42.000Z</time>
      </trkpt>
      <trkpt lat="43.62437" lon="0.72538">
        <ele>179</ele>
        <time>2020-10-03T15:27:43.000Z</time>
      </trkpt>
      <trkpt lat="43.62437" lon="0.72536">
        <ele>179</ele>
        <time>2020-10-03T15:27:44.000Z</time>
      </trkpt>
      <trkpt lat="43.62437" lon="0.72533">
        <ele>179</ele>
        <time>2020-10-03T15:27:45.000Z</time>
      </trkpt>
      <trkpt lat="43.62438" lon="0.7253">
        <ele>179</ele>
        <time>2020-10-03T15:27:46.000Z</time>
      </trkpt>
      <trkpt lat="43.62439" lon="0.72527">
        <ele>178.59259259259</ele>
        <time>2020-10-03T15:27:47.000Z</time>
      </trkpt>
      <trkpt lat="43.62439" lon="0.72523">
        <ele>178.33027619898</ele>
        <time>2020-10-03T15:27:48.000Z</time>
      </trkpt>
      <trkpt lat="43.62439" lon="0.7252">
        <ele>179</ele>
        <time>2020-10-03T15:27:49.000Z</time>
      </trkpt>
      <trkpt lat="43.6244" lon="0.72516">
        <ele>179</ele>
        <time>2020-10-03T15:27:50.000Z</time>
      </trkpt>
      <trkpt lat="43.6244" lon="0.72513">
        <ele>179</ele>
        <time>2020-10-03T15:27:51.000Z</time>
      </trkpt>
      <trkpt lat="43.62439" lon="0.7251">
        <ele>179</ele>
        <time>2020-10-03T15:27:52.000Z</time>
      </trkpt>
      <trkpt lat="43.62439" lon="0.72506">
        <ele>179</ele>
        <time>2020-10-03T15:27:53.000Z</time>
      </trkpt>
      <trkpt lat="43.62439" lon="0.72502">
        <ele>179</ele>
        <time>2020-10-03T15:27:54.000Z</time>
      </trkpt>
      <trkpt lat="43.62439" lon="0.72499">
        <ele>179</ele>
        <time>2020-10-03T15:27:55.000Z</time>
      </trkpt>
      <trkpt lat="43.62439" lon="0.72496">
        <ele>179</ele>
        <time>2020-10-03T15:27:56.000Z</time>
      </trkpt>
      <trkpt lat="43.62439" lon="0.72492">
        <ele>179</ele>
        <time>2020-10-03T15:27:57.000Z</time>
      </trkpt>
      <trkpt lat="43.62438" lon="0.72489">
        <ele>179</ele>
        <time>2020-10-03T15:27:58.000Z</time>
      </trkpt>
      <trkpt lat="43.62438" lon="0.72486">
        <ele>179</ele>
        <time>2020-10-03T15:27:59.000Z</time>
      </trkpt>
      <trkpt lat="43.62437" lon="0.72483">
        <ele>179</ele>
        <time>2020-10-03T15:28:00.000Z</time>
      </trkpt>
      <trkpt lat="43.62437" lon="0.7248">
        <ele>179</ele>
        <time>2020-10-03T15:28:01.000Z</time>
      </trkpt>
      <trkpt lat="43.62437" lon="0.72474">
        <ele>179</ele>
        <time>2020-10-03T15:28:03.000Z</time>
      </trkpt>
      <trkpt lat="43.62437" lon="0.7247">
        <ele>179</ele>
        <time>2020-10-03T15:28:04.000Z</time>
      </trkpt>
      <trkpt lat="43.62437" lon="0.72467">
        <ele>179</ele>
        <time>2020-10-03T15:28:05.000Z</time>
      </trkpt>
      <trkpt lat="43.62437" lon="0.72464">
        <ele>179</ele>
        <time>2020-10-03T15:28:06.000Z</time>
      </trkpt>
      <trkpt lat="43.62436" lon="0.72462">
        <ele>179</ele>
        <time>2020-10-03T15:28:07.000Z</time>
      </trkpt>
      <trkpt lat="43.62436" lon="0.72458">
        <ele>179</ele>
        <time>2020-10-03T15:28:08.000Z</time>
      </trkpt>
      <trkpt lat="43.62436" lon="0.72455">
        <ele>179</ele>
        <time>2020-10-03T15:28:09.000Z</time>
      </trkpt>
      <trkpt lat="43.62436" lon="0.72452">
        <ele>179</ele>
        <time>2020-10-03T15:28:10.000Z</time>
      </trkpt>
      <trkpt lat="43.62436" lon="0.72449">
        <ele>179</ele>
        <time>2020-10-03T15:28:11.000Z</time>
      </trkpt>
      <trkpt lat="43.62436" lon="0.72446">
        <ele>179</ele>
        <time>2020-10-03T15:28:12.000Z</time>
      </trkpt>
      <trkpt lat="43.62437" lon="0.72443">
        <ele>179</ele>
        <time>2020-10-03T15:28:13.000Z</time>
      </trkpt>
      <trkpt lat="43.62437" lon="0.72439">
        <ele>179</ele>
        <time>2020-10-03T15:28:14.000Z</time>
      </trkpt>
      <trkpt lat="43.62437" lon="0.72436">
        <ele>179</ele>
        <time>2020-10-03T15:28:15.000Z</time>
      </trkpt>
      <trkpt lat="43.62438" lon="0.72433">
        <ele>179</ele>
        <time>2020-10-03T15:28:16.000Z</time>
      </trkpt>
      <trkpt lat="43.62439" lon="0.7243">
        <ele>179.27819375205</ele>
        <time>2020-10-03T15:28:17.000Z</time>
      </trkpt>
      <trkpt lat="43.62439" lon="0.72427">
        <ele>180</ele>
        <time>2020-10-03T15:28:18.000Z</time>
      </trkpt>
      <trkpt lat="43.6244" lon="0.72424">
        <ele>180</ele>
        <time>2020-10-03T15:28:19.000Z</time>
      </trkpt>
      <trkpt lat="43.62442" lon="0.72421">
        <ele>180</ele>
        <time>2020-10-03T15:28:20.000Z</time>
      </trkpt>
      <trkpt lat="43.62443" lon="0.72419">
        <ele>180</ele>
        <time>2020-10-03T15:28:21.000Z</time>
      </trkpt>
      <trkpt lat="43.62445" lon="0.72416">
        <ele>180</ele>
        <time>2020-10-03T15:28:22.000Z</time>
      </trkpt>
      <trkpt lat="43.62446" lon="0.72414">
        <ele>180</ele>
        <time>2020-10-03T15:28:23.000Z</time>
      </trkpt>
      <trkpt lat="43.62447" lon="0.72412">
        <ele>180.6972533086</ele>
        <time>2020-10-03T15:28:24.000Z</time>
      </trkpt>
      <trkpt lat="43.62449" lon="0.7241">
        <ele>182</ele>
        <time>2020-10-03T15:28:25.000Z</time>
      </trkpt>
      <trkpt lat="43.62451" lon="0.72407">
        <ele>182.34545073717</ele>
        <time>2020-10-03T15:28:27.000Z</time>
      </trkpt>
      <trkpt lat="43.62453" lon="0.72404">
        <ele>183</ele>
        <time>2020-10-03T15:28:29.000Z</time>
      </trkpt>
      <trkpt lat="43.62455" lon="0.72401">
        <ele>183</ele>
        <time>2020-10-03T15:28:31.000Z</time>
      </trkpt>
      <trkpt lat="43.62457" lon="0.72399">
        <ele>183.33944760205</ele>
        <time>2020-10-03T15:28:33.000Z</time>
      </trkpt>
      <trkpt lat="43.62459" lon="0.72396">
        <ele>184</ele>
        <time>2020-10-03T15:28:35.000Z</time>
      </trkpt>
      <trkpt lat="43.62462" lon="0.72395">
        <ele>185</ele>
        <time>2020-10-03T15:28:37.000Z</time>
      </trkpt>
      <trkpt lat="43.62464" lon="0.72393">
        <ele>185.37272653223</ele>
        <time>2020-10-03T15:28:39.000Z</time>
      </trkpt>
      <trkpt lat="43.62467" lon="0.72391">
        <ele>186</ele>
        <time>2020-10-03T15:28:41.000Z</time>
      </trkpt>
      <trkpt lat="43.62469" lon="0.7239">
        <ele>186</ele>
        <time>2020-10-03T15:28:43.000Z</time>
      </trkpt>
      <trkpt lat="43.62472" lon="0.7239">
        <ele>186</ele>
        <time>2020-10-03T15:28:45.000Z</time>
      </trkpt>
      <trkpt lat="43.62475" lon="0.7239">
        <ele>186</ele>
        <time>2020-10-03T15:28:47.000Z</time>
      </trkpt>
      <trkpt lat="43.62478" lon="0.72389">
        <ele>186</ele>
        <time>2020-10-03T15:28:49.000Z</time>
      </trkpt>
      <trkpt lat="43.62481" lon="0.72389">
        <ele>186</ele>
        <time>2020-10-03T15:28:51.000Z</time>
      </trkpt>
      <trkpt lat="43.62483" lon="0.72389">
        <ele>186</ele>
        <time>2020-10-03T15:28:53.000Z</time>
      </trkpt>
      <trkpt lat="43.62486" lon="0.72389">
        <ele>186.62319015332</ele>
        <time>2020-10-03T15:28:55.000Z</time>
      </trkpt>
      <trkpt lat="43.62489" lon="0.72388">
        <ele>188</ele>
        <time>2020-10-03T15:28:57.000Z</time>
      </trkpt>
      <trkpt lat="43.62491" lon="0.72388">
        <ele>188</ele>
        <time>2020-10-03T15:28:59.000Z</time>
      </trkpt>
      <trkpt lat="43.62493" lon="0.72387">
        <ele>188</ele>
        <time>2020-10-03T15:29:01.000Z</time>
      </trkpt>
      <trkpt lat="43.62496" lon="0.72387">
        <ele>188</ele>
        <time>2020-10-03T15:29:03.000Z</time>
      </trkpt>
      <trkpt lat="43.62498" lon="0.72386">
        <ele>188.39090972562</ele>
        <time>2020-10-03T15:29:05.000Z</time>
      </trkpt>
      <trkpt lat="43.62501" lon="0.72385">
        <ele>189</ele>
        <time>2020-10-03T15:29:07.000Z</time>
      </trkpt>
      <trkpt lat="43.62503" lon="0.72384">
        <ele>189.4333338074</ele>
        <time>2020-10-03T15:29:09.000Z</time>
      </trkpt>
      <trkpt lat="43.62506" lon="0.72382">
        <ele>190</ele>
        <time>2020-10-03T15:29:11.000Z</time>
      </trkpt>
      <trkpt lat="43.62507" lon="0.72379">
        <ele>190</ele>
        <time>2020-10-03T15:29:13.000Z</time>
      </trkpt>
      <trkpt lat="43.62508" lon="0.72376">
        <ele>190</ele>
        <time>2020-10-03T15:29:15.000Z</time>
      </trkpt>
      <trkpt lat="43.62508" lon="0.72371">
        <ele>190.45871742781</ele>
        <time>2020-10-03T15:29:17.000Z</time>
      </trkpt>
      <trkpt lat="43.62509" lon="0.72368">
        <ele>191</ele>
        <time>2020-10-03T15:29:18.000Z</time>
      </trkpt>
      <trkpt lat="43.6251" lon="0.72365">
        <ele>191</ele>
        <time>2020-10-03T15:29:19.000Z</time>
      </trkpt>
      <trkpt lat="43.62511" lon="0.72362">
        <ele>191</ele>
        <time>2020-10-03T15:29:20.000Z</time>
      </trkpt>
      <trkpt lat="43.62511" lon="0.72359">
        <ele>191</ele>
        <time>2020-10-03T15:29:21.000Z</time>
      </trkpt>
      <trkpt lat="43.62512" lon="0.72356">
        <ele>191</ele>
        <time>2020-10-03T15:29:22.000Z</time>
      </trkpt>
      <trkpt lat="43.62512" lon="0.72353">
        <ele>191</ele>
        <time>2020-10-03T15:29:23.000Z</time>
      </trkpt>
      <trkpt lat="43.62513" lon="0.72349">
        <ele>190.68539212725</ele>
        <time>2020-10-03T15:29:24.000Z</time>
      </trkpt>
      <trkpt lat="43.62513" lon="0.72346">
        <ele>190</ele>
        <time>2020-10-03T15:29:25.000Z</time>
      </trkpt>
      <trkpt lat="43.62514" lon="0.72343">
        <ele>190</ele>
        <time>2020-10-03T15:29:26.000Z</time>
      </trkpt>
      <trkpt lat="43.62514" lon="0.72339">
        <ele>190</ele>
        <time>2020-10-03T15:29:27.000Z</time>
      </trkpt>
      <trkpt lat="43.62515" lon="0.72336">
        <ele>190</ele>
        <time>2020-10-03T15:29:28.000Z</time>
      </trkpt>
      <trkpt lat="43.62515" lon="0.72333">
        <ele>190</ele>
        <time>2020-10-03T15:29:29.000Z</time>
      </trkpt>
      <trkpt lat="43.62516" lon="0.72329">
        <ele>190</ele>
        <time>2020-10-03T15:29:30.000Z</time>
      </trkpt>
      <trkpt lat="43.62516" lon="0.72326">
        <ele>190</ele>
        <time>2020-10-03T15:29:31.000Z</time>
      </trkpt>
      <trkpt lat="43.62517" lon="0.72323">
        <ele>190</ele>
        <time>2020-10-03T15:29:32.000Z</time>
      </trkpt>
      <trkpt lat="43.62517" lon="0.72319">
        <ele>190</ele>
        <time>2020-10-03T15:29:33.000Z</time>
      </trkpt>
      <trkpt lat="43.62517" lon="0.72316">
        <ele>190</ele>
        <time>2020-10-03T15:29:34.000Z</time>
      </trkpt>
      <trkpt lat="43.62518" lon="0.72313">
        <ele>190</ele>
        <time>2020-10-03T15:29:35.000Z</time>
      </trkpt>
      <trkpt lat="43.62518" lon="0.7231">
        <ele>190</ele>
        <time>2020-10-03T15:29:36.000Z</time>
      </trkpt>
      <trkpt lat="43.62519" lon="0.72307">
        <ele>190</ele>
        <time>2020-10-03T15:29:37.000Z</time>
      </trkpt>
      <trkpt lat="43.62519" lon="0.72304">
        <ele>190</ele>
        <time>2020-10-03T15:29:38.000Z</time>
      </trkpt>
      <trkpt lat="43.62519" lon="0.723">
        <ele>189.61261084653</ele>
        <time>2020-10-03T15:29:39.000Z</time>
      </trkpt>
      <trkpt lat="43.62519" lon="0.72297">
        <ele>189</ele>
        <time>2020-10-03T15:29:40.000Z</time>
      </trkpt>
      <trkpt lat="43.6252" lon="0.72294">
        <ele>189</ele>
        <time>2020-10-03T15:29:41.000Z</time>
      </trkpt>
      <trkpt lat="43.6252" lon="0.72291">
        <ele>189</ele>
        <time>2020-10-03T15:29:42.000Z</time>
      </trkpt>
      <trkpt lat="43.6252" lon="0.72288">
        <ele>189.45454862808</ele>
        <time>2020-10-03T15:29:43.000Z</time>
      </trkpt>
      <trkpt lat="43.62521" lon="0.72284">
        <ele>190</ele>
        <time>2020-10-03T15:29:44.000Z</time>
      </trkpt>
      <trkpt lat="43.62521" lon="0.72281">
        <ele>190</ele>
        <time>2020-10-03T15:29:45.000Z</time>
      </trkpt>
      <trkpt lat="43.62521" lon="0.72278">
        <ele>190</ele>
        <time>2020-10-03T15:29:46.000Z</time>
      </trkpt>
      <trkpt lat="43.62521" lon="0.72275">
        <ele>190</ele>
        <time>2020-10-03T15:29:47.000Z</time>
      </trkpt>
      <trkpt lat="43.62521" lon="0.72271">
        <ele>190</ele>
        <time>2020-10-03T15:29:48.000Z</time>
      </trkpt>
      <trkpt lat="43.62522" lon="0.72268">
        <ele>190</ele>
        <time>2020-10-03T15:29:49.000Z</time>
      </trkpt>
      <trkpt lat="43.62523" lon="0.72265">
        <ele>190</ele>
        <time>2020-10-03T15:29:50.000Z</time>
      </trkpt>
      <trkpt lat="43.62524" lon="0.72262">
        <ele>190</ele>
        <time>2020-10-03T15:29:51.000Z</time>
      </trkpt>
      <trkpt lat="43.62525" lon="0.72259">
        <ele>190</ele>
        <time>2020-10-03T15:29:52.000Z</time>
      </trkpt>
      <trkpt lat="43.62526" lon="0.72255">
        <ele>190</ele>
        <time>2020-10-03T15:29:53.000Z</time>
      </trkpt>
      <trkpt lat="43.62527" lon="0.72252">
        <ele>190</ele>
        <time>2020-10-03T15:29:54.000Z</time>
      </trkpt>
      <trkpt lat="43.62527" lon="0.72249">
        <ele>190</ele>
        <time>2020-10-03T15:29:55.000Z</time>
      </trkpt>
      <trkpt lat="43.62528" lon="0.72246">
        <ele>190</ele>
        <time>2020-10-03T15:29:56.000Z</time>
      </trkpt>
      <trkpt lat="43.62529" lon="0.72242">
        <ele>190</ele>
        <time>2020-10-03T15:29:57.000Z</time>
      </trkpt>
      <trkpt lat="43.62529" lon="0.7224">
        <ele>190</ele>
        <time>2020-10-03T15:29:58.000Z</time>
      </trkpt>
      <trkpt lat="43.6253" lon="0.72236">
        <ele>190</ele>
        <time>2020-10-03T15:29:59.000Z</time>
      </trkpt>
      <trkpt lat="43.6253" lon="0.72233">
        <ele>190</ele>
        <time>2020-10-03T15:30:00.000Z</time>
      </trkpt>
      <trkpt lat="43.6253" lon="0.7223">
        <ele>190</ele>
        <time>2020-10-03T15:30:01.000Z</time>
      </trkpt>
      <trkpt lat="43.62531" lon="0.72227">
        <ele>190.13924399294</ele>
        <time>2020-10-03T15:30:02.000Z</time>
      </trkpt>
      <trkpt lat="43.62531" lon="0.72223">
        <ele>191</ele>
        <time>2020-10-03T15:30:03.000Z</time>
      </trkpt>
      <trkpt lat="43.6253" lon="0.7222">
        <ele>191</ele>
        <time>2020-10-03T15:30:04.000Z</time>
      </trkpt>
      <trkpt lat="43.6253" lon="0.72217">
        <ele>191</ele>
        <time>2020-10-03T15:30:05.000Z</time>
      </trkpt>
      <trkpt lat="43.6253" lon="0.72214">
        <ele>191</ele>
        <time>2020-10-03T15:30:06.000Z</time>
      </trkpt>
      <trkpt lat="43.62529" lon="0.72211">
        <ele>190.5773214922</ele>
        <time>2020-10-03T15:30:07.000Z</time>
      </trkpt>
      <trkpt lat="43.62529" lon="0.72208">
        <ele>190</ele>
        <time>2020-10-03T15:30:08.000Z</time>
      </trkpt>
      <trkpt lat="43.62529" lon="0.72204">
        <ele>190</ele>
        <time>2020-10-03T15:30:09.000Z</time>
      </trkpt>
      <trkpt lat="43.62529" lon="0.722">
        <ele>189.51485311637</ele>
        <time>2020-10-03T15:30:10.000Z</time>
      </trkpt>
      <trkpt lat="43.6253" lon="0.72197">
        <ele>189</ele>
        <time>2020-10-03T15:30:11.000Z</time>
      </trkpt>
      <trkpt lat="43.6253" lon="0.72194">
        <ele>189</ele>
        <time>2020-10-03T15:30:12.000Z</time>
      </trkpt>
      <trkpt lat="43.6253" lon="0.72191">
        <ele>189</ele>
        <time>2020-10-03T15:30:13.000Z</time>
      </trkpt>
      <trkpt lat="43.6253" lon="0.72188">
        <ele>189</ele>
        <time>2020-10-03T15:30:14.000Z</time>
      </trkpt>
      <trkpt lat="43.6253" lon="0.72185">
        <ele>189</ele>
        <time>2020-10-03T15:30:15.000Z</time>
      </trkpt>
      <trkpt lat="43.6253" lon="0.72181">
        <ele>189</ele>
        <time>2020-10-03T15:30:16.000Z</time>
      </trkpt>
      <trkpt lat="43.6253" lon="0.72178">
        <ele>189.42528211391</ele>
        <time>2020-10-03T15:30:17.000Z</time>
      </trkpt>
      <trkpt lat="43.6253" lon="0.72175">
        <ele>190</ele>
        <time>2020-10-03T15:30:18.000Z</time>
      </trkpt>
      <trkpt lat="43.62529" lon="0.72172">
        <ele>190</ele>
        <time>2020-10-03T15:30:19.000Z</time>
      </trkpt>
      <trkpt lat="43.62528" lon="0.72169">
        <ele>190</ele>
        <time>2020-10-03T15:30:20.000Z</time>
      </trkpt>
      <trkpt lat="43.62528" lon="0.72165">
        <ele>190</ele>
        <time>2020-10-03T15:30:21.000Z</time>
      </trkpt>
      <trkpt lat="43.62528" lon="0.72162">
        <ele>190</ele>
        <time>2020-10-03T15:30:22.000Z</time>
      </trkpt>
      <trkpt lat="43.62529" lon="0.72159">
        <ele>190</ele>
        <time>2020-10-03T15:30:23.000Z</time>
      </trkpt>
      <trkpt lat="43.62529" lon="0.72156">
        <ele>190</ele>
        <time>2020-10-03T15:30:24.000Z</time>
      </trkpt>
      <trkpt lat="43.62528" lon="0.72152">
        <ele>190</ele>
        <time>2020-10-03T15:30:25.000Z</time>
      </trkpt>
      <trkpt lat="43.62528" lon="0.72149">
        <ele>190</ele>
        <time>2020-10-03T15:30:26.000Z</time>
      </trkpt>
      <trkpt lat="43.62528" lon="0.72146">
        <ele>190</ele>
        <time>2020-10-03T15:30:27.000Z</time>
      </trkpt>
      <trkpt lat="43.62527" lon="0.72143">
        <ele>189.58333333333</ele>
        <time>2020-10-03T15:30:28.000Z</time>
      </trkpt>
      <trkpt lat="43.62527" lon="0.72141">
        <ele>189</ele>
        <time>2020-10-03T15:30:29.000Z</time>
      </trkpt>
      <trkpt lat="43.62527" lon="0.72137">
        <ele>189</ele>
        <time>2020-10-03T15:30:30.000Z</time>
      </trkpt>
      <trkpt lat="43.62526" lon="0.72134">
        <ele>189</ele>
        <time>2020-10-03T15:30:31.000Z</time>
      </trkpt>
      <trkpt lat="43.62526" lon="0.72131">
        <ele>189</ele>
        <time>2020-10-03T15:30:32.000Z</time>
      </trkpt>
      <trkpt lat="43.62525" lon="0.72128">
        <ele>189</ele>
        <time>2020-10-03T15:30:33.000Z</time>
      </trkpt>
      <trkpt lat="43.62525" lon="0.72125">
        <ele>189</ele>
        <time>2020-10-03T15:30:34.000Z</time>
      </trkpt>
      <trkpt lat="43.62524" lon="0.72122">
        <ele>189</ele>
        <time>2020-10-03T15:30:35.000Z</time>
      </trkpt>
      <trkpt lat="43.62523" lon="0.72119">
        <ele>189.425288371</ele>
        <time>2020-10-03T15:30:36.000Z</time>
      </trkpt>
      <trkpt lat="43.62523" lon="0.72116">
        <ele>190</ele>
        <time>2020-10-03T15:30:37.000Z</time>
      </trkpt>
      <trkpt lat="43.62522" lon="0.72113">
        <ele>190</ele>
        <time>2020-10-03T15:30:38.000Z</time>
      </trkpt>
      <trkpt lat="43.62521" lon="0.7211">
        <ele>190</ele>
        <time>2020-10-03T15:30:39.000Z</time>
      </trkpt>
      <trkpt lat="43.62521" lon="0.72107">
        <ele>190</ele>
        <time>2020-10-03T15:30:40.000Z</time>
      </trkpt>
      <trkpt lat="43.62521" lon="0.72104">
        <ele>190</ele>
        <time>2020-10-03T15:30:41.000Z</time>
      </trkpt>
      <trkpt lat="43.6252" lon="0.72101">
        <ele>190</ele>
        <time>2020-10-03T15:30:42.000Z</time>
      </trkpt>
      <trkpt lat="43.6252" lon="0.72098">
        <ele>190</ele>
        <time>2020-10-03T15:30:43.000Z</time>
      </trkpt>
      <trkpt lat="43.62519" lon="0.72094">
        <ele>190</ele>
        <time>2020-10-03T15:30:44.000Z</time>
      </trkpt>
      <trkpt lat="43.62519" lon="0.72091">
        <ele>190</ele>
        <time>2020-10-03T15:30:45.000Z</time>
      </trkpt>
      <trkpt lat="43.62519" lon="0.72088">
        <ele>190</ele>
        <time>2020-10-03T15:30:46.000Z</time>
      </trkpt>
      <trkpt lat="43.62518" lon="0.72085">
        <ele>190.39326343645</ele>
        <time>2020-10-03T15:30:47.000Z</time>
      </trkpt>
      <trkpt lat="43.62518" lon="0.72082">
        <ele>191</ele>
        <time>2020-10-03T15:30:48.000Z</time>
      </trkpt>
      <trkpt lat="43.62517" lon="0.72079">
        <ele>191</ele>
        <time>2020-10-03T15:30:49.000Z</time>
      </trkpt>
      <trkpt lat="43.62517" lon="0.72075">
        <ele>191</ele>
        <time>2020-10-03T15:30:50.000Z</time>
      </trkpt>
      <trkpt lat="43.62517" lon="0.72072">
        <ele>191</ele>
        <time>2020-10-03T15:30:51.000Z</time>
      </trkpt>
      <trkpt lat="43.62516" lon="0.72069">
        <ele>191</ele>
        <time>2020-10-03T15:30:52.000Z</time>
      </trkpt>
      <trkpt lat="43.62516" lon="0.72066">
        <ele>191</ele>
        <time>2020-10-03T15:30:53.000Z</time>
      </trkpt>
      <trkpt lat="43.62516" lon="0.72062">
        <ele>191</ele>
        <time>2020-10-03T15:30:54.000Z</time>
      </trkpt>
      <trkpt lat="43.62516" lon="0.72059">
        <ele>190.62650360866</ele>
        <time>2020-10-03T15:30:55.000Z</time>
      </trkpt>
      <trkpt lat="43.62515" lon="0.72056">
        <ele>190</ele>
        <time>2020-10-03T15:30:56.000Z</time>
      </trkpt>
      <trkpt lat="43.62515" lon="0.72052">
        <ele>190</ele>
        <time>2020-10-03T15:30:57.000Z</time>
      </trkpt>
      <trkpt lat="43.62515" lon="0.72049">
        <ele>189.58474622235</ele>
        <time>2020-10-03T15:30:58.000Z</time>
      </trkpt>
      <trkpt lat="43.62515" lon="0.72045">
        <ele>189</ele>
        <time>2020-10-03T15:30:59.000Z</time>
      </trkpt>
      <trkpt lat="43.62515" lon="0.72042">
        <ele>189</ele>
        <time>2020-10-03T15:31:00.000Z</time>
      </trkpt>
      <trkpt lat="43.62515" lon="0.72038">
        <ele>189</ele>
        <time>2020-10-03T15:31:01.000Z</time>
      </trkpt>
      <trkpt lat="43.62515" lon="0.72034">
        <ele>189</ele>
        <time>2020-10-03T15:31:02.000Z</time>
      </trkpt>
      <trkpt lat="43.62515" lon="0.72031">
        <ele>189</ele>
        <time>2020-10-03T15:31:03.000Z</time>
      </trkpt>
      <trkpt lat="43.62515" lon="0.72027">
        <ele>189.45044858046</ele>
        <time>2020-10-03T15:31:04.000Z</time>
      </trkpt>
      <trkpt lat="43.62514" lon="0.72024">
        <ele>190</ele>
        <time>2020-10-03T15:31:05.000Z</time>
      </trkpt>
      <trkpt lat="43.62514" lon="0.72021">
        <ele>190</ele>
        <time>2020-10-03T15:31:06.000Z</time>
      </trkpt>
      <trkpt lat="43.62513" lon="0.72018">
        <ele>190</ele>
        <time>2020-10-03T15:31:07.000Z</time>
      </trkpt>
      <trkpt lat="43.62513" lon="0.72015">
        <ele>190</ele>
        <time>2020-10-03T15:31:08.000Z</time>
      </trkpt>
      <trkpt lat="43.62513" lon="0.72012">
        <ele>190</ele>
        <time>2020-10-03T15:31:09.000Z</time>
      </trkpt>
      <trkpt lat="43.62513" lon="0.72009">
        <ele>190</ele>
        <time>2020-10-03T15:31:10.000Z</time>
      </trkpt>
      <trkpt lat="43.62513" lon="0.72005">
        <ele>190</ele>
        <time>2020-10-03T15:31:11.000Z</time>
      </trkpt>
      <trkpt lat="43.62513" lon="0.72003">
        <ele>190</ele>
        <time>2020-10-03T15:31:12.000Z</time>
      </trkpt>
      <trkpt lat="43.62512" lon="0.72">
        <ele>190</ele>
        <time>2020-10-03T15:31:13.000Z</time>
      </trkpt>
      <trkpt lat="43.62511" lon="0.71997">
        <ele>190</ele>
        <time>2020-10-03T15:31:14.000Z</time>
      </trkpt>
      <trkpt lat="43.6251" lon="0.71994">
        <ele>190</ele>
        <time>2020-10-03T15:31:15.000Z</time>
      </trkpt>
      <trkpt lat="43.6251" lon="0.71991">
        <ele>190</ele>
        <time>2020-10-03T15:31:16.000Z</time>
      </trkpt>
      <trkpt lat="43.6251" lon="0.71987">
        <ele>190</ele>
        <time>2020-10-03T15:31:17.000Z</time>
      </trkpt>
      <trkpt lat="43.6251" lon="0.71984">
        <ele>190</ele>
        <time>2020-10-03T15:31:18.000Z</time>
      </trkpt>
      <trkpt lat="43.6251" lon="0.7198">
        <ele>190</ele>
        <time>2020-10-03T15:31:19.000Z</time>
      </trkpt>
      <trkpt lat="43.62509" lon="0.71977">
        <ele>190</ele>
        <time>2020-10-03T15:31:20.000Z</time>
      </trkpt>
      <trkpt lat="43.62509" lon="0.71973">
        <ele>190</ele>
        <time>2020-10-03T15:31:21.000Z</time>
      </trkpt>
      <trkpt lat="43.62509" lon="0.7197">
        <ele>190</ele>
        <time>2020-10-03T15:31:22.000Z</time>
      </trkpt>
      <trkpt lat="43.62509" lon="0.71966">
        <ele>190</ele>
        <time>2020-10-03T15:31:23.000Z</time>
      </trkpt>
      <trkpt lat="43.62508" lon="0.71963">
        <ele>190</ele>
        <time>2020-10-03T15:31:24.000Z</time>
      </trkpt>
      <trkpt lat="43.62508" lon="0.7196">
        <ele>190</ele>
        <time>2020-10-03T15:31:25.000Z</time>
      </trkpt>
      <trkpt lat="43.62507" lon="0.71957">
        <ele>190</ele>
        <time>2020-10-03T15:31:26.000Z</time>
      </trkpt>
      <trkpt lat="43.62506" lon="0.71954">
        <ele>190</ele>
        <time>2020-10-03T15:31:27.000Z</time>
      </trkpt>
      <trkpt lat="43.62505" lon="0.71951">
        <ele>190</ele>
        <time>2020-10-03T15:31:28.000Z</time>
      </trkpt>
      <trkpt lat="43.62504" lon="0.71948">
        <ele>190</ele>
        <time>2020-10-03T15:31:29.000Z</time>
      </trkpt>
      <trkpt lat="43.62502" lon="0.71945">
        <ele>189.55856271405</ele>
        <time>2020-10-03T15:31:30.000Z</time>
      </trkpt>
      <trkpt lat="43.62501" lon="0.71941">
        <ele>189</ele>
        <time>2020-10-03T15:31:31.000Z</time>
      </trkpt>
      <trkpt lat="43.625" lon="0.71938">
        <ele>189</ele>
        <time>2020-10-03T15:31:32.000Z</time>
      </trkpt>
      <trkpt lat="43.625" lon="0.71935">
        <ele>189</ele>
        <time>2020-10-03T15:31:33.000Z</time>
      </trkpt>
      <trkpt lat="43.62499" lon="0.71932">
        <ele>189</ele>
        <time>2020-10-03T15:31:34.000Z</time>
      </trkpt>
      <trkpt lat="43.62499" lon="0.71928">
        <ele>189</ele>
        <time>2020-10-03T15:31:35.000Z</time>
      </trkpt>
      <trkpt lat="43.62498" lon="0.71925">
        <ele>189</ele>
        <time>2020-10-03T15:31:36.000Z</time>
      </trkpt>
      <trkpt lat="43.62497" lon="0.71922">
        <ele>189</ele>
        <time>2020-10-03T15:31:37.000Z</time>
      </trkpt>
      <trkpt lat="43.62497" lon="0.71919">
        <ele>189</ele>
        <time>2020-10-03T15:31:38.000Z</time>
      </trkpt>
      <trkpt lat="43.62496" lon="0.71917">
        <ele>189</ele>
        <time>2020-10-03T15:31:39.000Z</time>
      </trkpt>
      <trkpt lat="43.62495" lon="0.71914">
        <ele>189.43243118578</ele>
        <time>2020-10-03T15:31:40.000Z</time>
      </trkpt>
      <trkpt lat="43.62495" lon="0.71911">
        <ele>190</ele>
        <time>2020-10-03T15:31:41.000Z</time>
      </trkpt>
      <trkpt lat="43.62495" lon="0.71907">
        <ele>190</ele>
        <time>2020-10-03T15:31:42.000Z</time>
      </trkpt>
      <trkpt lat="43.62494" lon="0.71904">
        <ele>190</ele>
        <time>2020-10-03T15:31:43.000Z</time>
      </trkpt>
      <trkpt lat="43.62494" lon="0.71901">
        <ele>190</ele>
        <time>2020-10-03T15:31:44.000Z</time>
      </trkpt>
      <trkpt lat="43.62494" lon="0.71898">
        <ele>190</ele>
        <time>2020-10-03T15:31:45.000Z</time>
      </trkpt>
      <trkpt lat="43.62494" lon="0.71894">
        <ele>190</ele>
        <time>2020-10-03T15:31:46.000Z</time>
      </trkpt>
      <trkpt lat="43.62494" lon="0.71891">
        <ele>190</ele>
        <time>2020-10-03T15:31:47.000Z</time>
      </trkpt>
      <trkpt lat="43.62493" lon="0.71888">
        <ele>190</ele>
        <time>2020-10-03T15:31:48.000Z</time>
      </trkpt>
      <trkpt lat="43.62493" lon="0.71885">
        <ele>190</ele>
        <time>2020-10-03T15:31:49.000Z</time>
      </trkpt>
      <trkpt lat="43.62493" lon="0.71881">
        <ele>190</ele>
        <time>2020-10-03T15:31:50.000Z</time>
      </trkpt>
      <trkpt lat="43.62494" lon="0.71878">
        <ele>190</ele>
        <time>2020-10-03T15:31:51.000Z</time>
      </trkpt>
      <trkpt lat="43.62493" lon="0.71875">
        <ele>190</ele>
        <time>2020-10-03T15:31:52.000Z</time>
      </trkpt>
      <trkpt lat="43.62494" lon="0.71872">
        <ele>190</ele>
        <time>2020-10-03T15:31:53.000Z</time>
      </trkpt>
      <trkpt lat="43.62494" lon="0.71868">
        <ele>190.37272653223</ele>
        <time>2020-10-03T15:31:54.000Z</time>
      </trkpt>
      <trkpt lat="43.62494" lon="0.71865">
        <ele>191</ele>
        <time>2020-10-03T15:31:55.000Z</time>
      </trkpt>
      <trkpt lat="43.62495" lon="0.71862">
        <ele>191</ele>
        <time>2020-10-03T15:31:56.000Z</time>
      </trkpt>
      <trkpt lat="43.62495" lon="0.71858">
        <ele>191</ele>
        <time>2020-10-03T15:31:57.000Z</time>
      </trkpt>
      <trkpt lat="43.62495" lon="0.71855">
        <ele>191</ele>
        <time>2020-10-03T15:31:58.000Z</time>
      </trkpt>
      <trkpt lat="43.62496" lon="0.71852">
        <ele>191</ele>
        <time>2020-10-03T15:31:59.000Z</time>
      </trkpt>
      <trkpt lat="43.62497" lon="0.71848">
        <ele>191</ele>
        <time>2020-10-03T15:32:00.000Z</time>
      </trkpt>
      <trkpt lat="43.62497" lon="0.71845">
        <ele>190.64486260811</ele>
        <time>2020-10-03T15:32:01.000Z</time>
      </trkpt>
      <trkpt lat="43.62499" lon="0.71841">
        <ele>190</ele>
        <time>2020-10-03T15:32:02.000Z</time>
      </trkpt>
      <trkpt lat="43.625" lon="0.71838">
        <ele>190</ele>
        <time>2020-10-03T15:32:03.000Z</time>
      </trkpt>
      <trkpt lat="43.62502" lon="0.71835">
        <ele>191</ele>
        <time>2020-10-03T15:32:05.000Z</time>
      </trkpt>
      <trkpt lat="43.62504" lon="0.71834">
        <ele>191</ele>
        <time>2020-10-03T15:32:07.000Z</time>
      </trkpt>
      <trkpt lat="43.62506" lon="0.71832">
        <ele>191</ele>
        <time>2020-10-03T15:32:09.000Z</time>
      </trkpt>
      <trkpt lat="43.62507" lon="0.71828">
        <ele>191</ele>
        <time>2020-10-03T15:32:11.000Z</time>
      </trkpt>
      <trkpt lat="43.62508" lon="0.71824">
        <ele>191</ele>
        <time>2020-10-03T15:32:13.000Z</time>
      </trkpt>
      <trkpt lat="43.6251" lon="0.71821">
        <ele>191</ele>
        <time>2020-10-03T15:32:15.000Z</time>
      </trkpt>
      <trkpt lat="43.62511" lon="0.71818">
        <ele>191</ele>
        <time>2020-10-03T15:32:17.000Z</time>
      </trkpt>
      <trkpt lat="43.62513" lon="0.71816">
        <ele>191.40625333333</ele>
        <time>2020-10-03T15:32:19.000Z</time>
      </trkpt>
      <trkpt lat="43.62515" lon="0.71813">
        <ele>192</ele>
        <time>2020-10-03T15:32:21.000Z</time>
      </trkpt>
      <trkpt lat="43.62515" lon="0.7181">
        <ele>192</ele>
        <time>2020-10-03T15:32:23.000Z</time>
      </trkpt>
      <trkpt lat="43.62516" lon="0.71806">
        <ele>192</ele>
        <time>2020-10-03T15:32:25.000Z</time>
      </trkpt>
      <trkpt lat="43.62516" lon="0.71803">
        <ele>191</ele>
        <time>2020-10-03T15:33:06.000Z</time>
      </trkpt>
      <trkpt lat="43.62517" lon="0.718">
        <ele>191</ele>
        <time>2020-10-03T15:33:08.000Z</time>
      </trkpt>
      <trkpt lat="43.62518" lon="0.71796">
        <ele>191</ele>
        <time>2020-10-03T15:33:10.000Z</time>
      </trkpt>
      <trkpt lat="43.6252" lon="0.71793">
        <ele>191</ele>
        <time>2020-10-03T15:33:12.000Z</time>
      </trkpt>
      <trkpt lat="43.62521" lon="0.71792">
        <ele>191</ele>
        <time>2020-10-03T15:33:13.000Z</time>
      </trkpt>
      <trkpt lat="43.62523" lon="0.71789">
        <ele>191</ele>
        <time>2020-10-03T15:33:15.000Z</time>
      </trkpt>
      <trkpt lat="43.62525" lon="0.71786">
        <ele>191</ele>
        <time>2020-10-03T15:33:17.000Z</time>
      </trkpt>
      <trkpt lat="43.62527" lon="0.71783">
        <ele>191</ele>
        <time>2020-10-03T15:33:19.000Z</time>
      </trkpt>
      <trkpt lat="43.62529" lon="0.71781">
        <ele>191.32758430438</ele>
        <time>2020-10-03T15:33:21.000Z</time>
      </trkpt>
      <trkpt lat="43.6253" lon="0.71779">
        <ele>192</ele>
        <time>2020-10-03T15:33:23.000Z</time>
      </trkpt>
      <trkpt lat="43.62531" lon="0.71776">
        <ele>192</ele>
        <time>2020-10-03T15:33:26.000Z</time>
      </trkpt>
      <trkpt lat="43.62532" lon="0.71773">
        <ele>191</ele>
        <time>2020-10-03T15:34:55.000Z</time>
      </trkpt>
      <trkpt lat="43.62534" lon="0.7177">
        <ele>191</ele>
        <time>2020-10-03T15:34:57.000Z</time>
      </trkpt>
      <trkpt lat="43.62536" lon="0.71767">
        <ele>191</ele>
        <time>2020-10-03T15:34:59.000Z</time>
      </trkpt>
      <trkpt lat="43.62539" lon="0.71765">
        <ele>191</ele>
        <time>2020-10-03T15:35:01.000Z</time>
      </trkpt>
      <trkpt lat="43.62541" lon="0.71762">
        <ele>191</ele>
        <time>2020-10-03T15:35:03.000Z</time>
      </trkpt>
      <trkpt lat="43.62543" lon="0.71758">
        <ele>191</ele>
        <time>2020-10-03T15:35:05.000Z</time>
      </trkpt>
      <trkpt lat="43.62545" lon="0.71756">
        <ele>191.35442894408</ele>
        <time>2020-10-03T15:35:06.000Z</time>
      </trkpt>
      <trkpt lat="43.62547" lon="0.71754">
        <ele>192</ele>
        <time>2020-10-03T15:35:07.000Z</time>
      </trkpt>
      <trkpt lat="43.62549" lon="0.71752">
        <ele>192</ele>
        <time>2020-10-03T15:35:08.000Z</time>
      </trkpt>
      <trkpt lat="43.62552" lon="0.7175">
        <ele>192</ele>
        <time>2020-10-03T15:35:09.000Z</time>
      </trkpt>
      <trkpt lat="43.62554" lon="0.71748">
        <ele>192</ele>
        <time>2020-10-03T15:35:10.000Z</time>
      </trkpt>
      <trkpt lat="43.62556" lon="0.71746">
        <ele>192</ele>
        <time>2020-10-03T15:35:11.000Z</time>
      </trkpt>
      <trkpt lat="43.62558" lon="0.71744">
        <ele>192</ele>
        <time>2020-10-03T15:35:12.000Z</time>
      </trkpt>
      <trkpt lat="43.6256" lon="0.71742">
        <ele>192</ele>
        <time>2020-10-03T15:35:13.000Z</time>
      </trkpt>
      <trkpt lat="43.62562" lon="0.7174">
        <ele>192</ele>
        <time>2020-10-03T15:35:14.000Z</time>
      </trkpt>
      <trkpt lat="43.62564" lon="0.71738">
        <ele>192</ele>
        <time>2020-10-03T15:35:15.000Z</time>
      </trkpt>
      <trkpt lat="43.62566" lon="0.71736">
        <ele>192</ele>
        <time>2020-10-03T15:35:16.000Z</time>
      </trkpt>
      <trkpt lat="43.62568" lon="0.71734">
        <ele>192</ele>
        <time>2020-10-03T15:35:17.000Z</time>
      </trkpt>
      <trkpt lat="43.6257" lon="0.71732">
        <ele>192</ele>
        <time>2020-10-03T15:35:18.000Z</time>
      </trkpt>
      <trkpt lat="43.62572" lon="0.7173">
        <ele>192</ele>
        <time>2020-10-03T15:35:19.000Z</time>
      </trkpt>
      <trkpt lat="43.62573" lon="0.71729">
        <ele>192</ele>
        <time>2020-10-03T15:35:20.000Z</time>
      </trkpt>
      <trkpt lat="43.62574" lon="0.71727">
        <ele>192</ele>
        <time>2020-10-03T15:35:21.000Z</time>
      </trkpt>
      <trkpt lat="43.62576" lon="0.71724">
        <ele>192</ele>
        <time>2020-10-03T15:35:22.000Z</time>
      </trkpt>
      <trkpt lat="43.62578" lon="0.71723">
        <ele>192</ele>
        <time>2020-10-03T15:35:23.000Z</time>
      </trkpt>
      <trkpt lat="43.6258" lon="0.7172">
        <ele>192</ele>
        <time>2020-10-03T15:35:25.000Z</time>
      </trkpt>
      <trkpt lat="43.62583" lon="0.71717">
        <ele>192</ele>
        <time>2020-10-03T15:35:27.000Z</time>
      </trkpt>
      <trkpt lat="43.62586" lon="0.71715">
        <ele>192</ele>
        <time>2020-10-03T15:35:29.000Z</time>
      </trkpt>
      <trkpt lat="43.62588" lon="0.71712">
        <ele>192</ele>
        <time>2020-10-03T15:35:31.000Z</time>
      </trkpt>
      <trkpt lat="43.6259" lon="0.71709">
        <ele>192</ele>
        <time>2020-10-03T15:35:33.000Z</time>
      </trkpt>
      <trkpt lat="43.62592" lon="0.71706">
        <ele>192</ele>
        <time>2020-10-03T15:35:35.000Z</time>
      </trkpt>
      <trkpt lat="43.62595" lon="0.71704">
        <ele>192</ele>
        <time>2020-10-03T15:35:37.000Z</time>
      </trkpt>
      <trkpt lat="43.62597" lon="0.71701">
        <ele>192.4336267147</ele>
        <time>2020-10-03T15:35:39.000Z</time>
      </trkpt>
      <trkpt lat="43.62598" lon="0.71698">
        <ele>193</ele>
        <time>2020-10-03T15:35:41.000Z</time>
      </trkpt>
      <trkpt lat="43.626" lon="0.71696">
        <ele>193</ele>
        <time>2020-10-03T15:35:42.000Z</time>
      </trkpt>
      <trkpt lat="43.62601" lon="0.71694">
        <ele>193</ele>
        <time>2020-10-03T15:35:43.000Z</time>
      </trkpt>
      <trkpt lat="43.62603" lon="0.71691">
        <ele>193</ele>
        <time>2020-10-03T15:35:44.000Z</time>
      </trkpt>
      <trkpt lat="43.62605" lon="0.71689">
        <ele>193</ele>
        <time>2020-10-03T15:35:45.000Z</time>
      </trkpt>
      <trkpt lat="43.62606" lon="0.71687">
        <ele>192.55856271405</ele>
        <time>2020-10-03T15:35:46.000Z</time>
      </trkpt>
      <trkpt lat="43.62608" lon="0.71684">
        <ele>192</ele>
        <time>2020-10-03T15:35:47.000Z</time>
      </trkpt>
      <trkpt lat="43.62609" lon="0.71682">
        <ele>192</ele>
        <time>2020-10-03T15:35:48.000Z</time>
      </trkpt>
      <trkpt lat="43.62611" lon="0.71679">
        <ele>192.24175375916</ele>
        <time>2020-10-03T15:35:49.000Z</time>
      </trkpt>
      <trkpt lat="43.62612" lon="0.71677">
        <ele>193</ele>
        <time>2020-10-03T15:35:50.000Z</time>
      </trkpt>
      <trkpt lat="43.62614" lon="0.71674">
        <ele>193</ele>
        <time>2020-10-03T15:35:51.000Z</time>
      </trkpt>
      <trkpt lat="43.62615" lon="0.71671">
        <ele>193</ele>
        <time>2020-10-03T15:35:52.000Z</time>
      </trkpt>
      <trkpt lat="43.62616" lon="0.71668">
        <ele>193</ele>
        <time>2020-10-03T15:35:53.000Z</time>
      </trkpt>
      <trkpt lat="43.62617" lon="0.71665">
        <ele>193</ele>
        <time>2020-10-03T15:35:54.000Z</time>
      </trkpt>
      <trkpt lat="43.62618" lon="0.71662">
        <ele>193</ele>
        <time>2020-10-03T15:35:55.000Z</time>
      </trkpt>
      <trkpt lat="43.62619" lon="0.7166">
        <ele>193</ele>
        <time>2020-10-03T15:35:56.000Z</time>
      </trkpt>
      <trkpt lat="43.6262" lon="0.71657">
        <ele>193</ele>
        <time>2020-10-03T15:35:57.000Z</time>
      </trkpt>
      <trkpt lat="43.62621" lon="0.71654">
        <ele>193</ele>
        <time>2020-10-03T15:35:58.000Z</time>
      </trkpt>
      <trkpt lat="43.62622" lon="0.71651">
        <ele>193</ele>
        <time>2020-10-03T15:35:59.000Z</time>
      </trkpt>
      <trkpt lat="43.62623" lon="0.71648">
        <ele>193</ele>
        <time>2020-10-03T15:36:00.000Z</time>
      </trkpt>
      <trkpt lat="43.62625" lon="0.71645">
        <ele>193</ele>
        <time>2020-10-03T15:36:01.000Z</time>
      </trkpt>
      <trkpt lat="43.62626" lon="0.71644">
        <ele>193.41666666667</ele>
        <time>2020-10-03T15:36:02.000Z</time>
      </trkpt>
      <trkpt lat="43.62628" lon="0.71642">
        <ele>194</ele>
        <time>2020-10-03T15:36:03.000Z</time>
      </trkpt>
      <trkpt lat="43.6263" lon="0.71639">
        <ele>194</ele>
        <time>2020-10-03T15:36:04.000Z</time>
      </trkpt>
      <trkpt lat="43.62631" lon="0.71637">
        <ele>194</ele>
        <time>2020-10-03T15:36:05.000Z</time>
      </trkpt>
      <trkpt lat="43.62633" lon="0.71634">
        <ele>194</ele>
        <time>2020-10-03T15:36:06.000Z</time>
      </trkpt>
      <trkpt lat="43.62634" lon="0.71632">
        <ele>194</ele>
        <time>2020-10-03T15:36:07.000Z</time>
      </trkpt>
      <trkpt lat="43.62635" lon="0.71629">
        <ele>194</ele>
        <time>2020-10-03T15:36:08.000Z</time>
      </trkpt>
      <trkpt lat="43.62637" lon="0.71627">
        <ele>194</ele>
        <time>2020-10-03T15:36:09.000Z</time>
      </trkpt>
      <trkpt lat="43.62638" lon="0.71624">
        <ele>194</ele>
        <time>2020-10-03T15:36:10.000Z</time>
      </trkpt>
      <trkpt lat="43.6264" lon="0.71622">
        <ele>194</ele>
        <time>2020-10-03T15:36:11.000Z</time>
      </trkpt>
      <trkpt lat="43.62641" lon="0.71619">
        <ele>194</ele>
        <time>2020-10-03T15:36:12.000Z</time>
      </trkpt>
      <trkpt lat="43.62643" lon="0.71616">
        <ele>194</ele>
        <time>2020-10-03T15:36:13.000Z</time>
      </trkpt>
      <trkpt lat="43.62644" lon="0.71614">
        <ele>194</ele>
        <time>2020-10-03T15:36:14.000Z</time>
      </trkpt>
      <trkpt lat="43.62645" lon="0.71611">
        <ele>194</ele>
        <time>2020-10-03T15:36:15.000Z</time>
      </trkpt>
      <trkpt lat="43.62647" lon="0.71609">
        <ele>194</ele>
        <time>2020-10-03T15:36:16.000Z</time>
      </trkpt>
      <trkpt lat="43.62648" lon="0.71606">
        <ele>194</ele>
        <time>2020-10-03T15:36:17.000Z</time>
      </trkpt>
      <trkpt lat="43.6265" lon="0.71604">
        <ele>194</ele>
        <time>2020-10-03T15:36:18.000Z</time>
      </trkpt>
      <trkpt lat="43.62652" lon="0.71602">
        <ele>194.44339656817</ele>
        <time>2020-10-03T15:36:19.000Z</time>
      </trkpt>
      <trkpt lat="43.62654" lon="0.71601">
        <ele>195</ele>
        <time>2020-10-03T15:36:20.000Z</time>
      </trkpt>
      <trkpt lat="43.62656" lon="0.71599">
        <ele>195</ele>
        <time>2020-10-03T15:36:21.000Z</time>
      </trkpt>
      <trkpt lat="43.62658" lon="0.71598">
        <ele>195</ele>
        <time>2020-10-03T15:36:22.000Z</time>
      </trkpt>
      <trkpt lat="43.6266" lon="0.71596">
        <ele>195</ele>
        <time>2020-10-03T15:36:23.000Z</time>
      </trkpt>
      <trkpt lat="43.62662" lon="0.71594">
        <ele>195</ele>
        <time>2020-10-03T15:36:24.000Z</time>
      </trkpt>
      <trkpt lat="43.62665" lon="0.71593">
        <ele>195</ele>
        <time>2020-10-03T15:36:25.000Z</time>
      </trkpt>
      <trkpt lat="43.62667" lon="0.71592">
        <ele>195</ele>
        <time>2020-10-03T15:36:26.000Z</time>
      </trkpt>
      <trkpt lat="43.6267" lon="0.7159">
        <ele>195</ele>
        <time>2020-10-03T15:36:27.000Z</time>
      </trkpt>
      <trkpt lat="43.62672" lon="0.7159">
        <ele>195</ele>
        <time>2020-10-03T15:36:28.000Z</time>
      </trkpt>
      <trkpt lat="43.62674" lon="0.71588">
        <ele>195</ele>
        <time>2020-10-03T15:36:29.000Z</time>
      </trkpt>
      <trkpt lat="43.62676" lon="0.71586">
        <ele>195</ele>
        <time>2020-10-03T15:36:30.000Z</time>
      </trkpt>
      <trkpt lat="43.62677" lon="0.71585">
        <ele>195</ele>
        <time>2020-10-03T15:36:31.000Z</time>
      </trkpt>
      <trkpt lat="43.62679" lon="0.71583">
        <ele>195</ele>
        <time>2020-10-03T15:36:32.000Z</time>
      </trkpt>
      <trkpt lat="43.62681" lon="0.71581">
        <ele>195</ele>
        <time>2020-10-03T15:36:33.000Z</time>
      </trkpt>
      <trkpt lat="43.62682" lon="0.71578">
        <ele>195</ele>
        <time>2020-10-03T15:36:34.000Z</time>
      </trkpt>
      <trkpt lat="43.62684" lon="0.71576">
        <ele>195</ele>
        <time>2020-10-03T15:36:35.000Z</time>
      </trkpt>
      <trkpt lat="43.62685" lon="0.71574">
        <ele>195</ele>
        <time>2020-10-03T15:36:36.000Z</time>
      </trkpt>
      <trkpt lat="43.62686" lon="0.71572">
        <ele>195</ele>
        <time>2020-10-03T15:36:37.000Z</time>
      </trkpt>
      <trkpt lat="43.62688" lon="0.71568">
        <ele>195.32183789669</ele>
        <time>2020-10-03T15:36:39.000Z</time>
      </trkpt>
      <trkpt lat="43.62689" lon="0.71566">
        <ele>196</ele>
        <time>2020-10-03T15:36:41.000Z</time>
      </trkpt>
      <trkpt lat="43.62691" lon="0.71564">
        <ele>196</ele>
        <time>2020-10-03T15:36:43.000Z</time>
      </trkpt>
      <trkpt lat="43.62693" lon="0.71565">
        <ele>196</ele>
        <time>2020-10-03T15:36:45.000Z</time>
      </trkpt>
      <trkpt lat="43.62695" lon="0.71565">
        <ele>196</ele>
        <time>2020-10-03T15:36:47.000Z</time>
      </trkpt>
      <trkpt lat="43.62698" lon="0.71564">
        <ele>196</ele>
        <time>2020-10-03T15:36:50.000Z</time>
      </trkpt>
      <trkpt lat="43.62699" lon="0.71561">
        <ele>196</ele>
        <time>2020-10-03T15:36:52.000Z</time>
      </trkpt>
      <trkpt lat="43.62701" lon="0.71557">
        <ele>196</ele>
        <time>2020-10-03T15:36:54.000Z</time>
      </trkpt>
      <trkpt lat="43.62702" lon="0.71553">
        <ele>196.40196016916</ele>
        <time>2020-10-03T15:36:56.000Z</time>
      </trkpt>
      <trkpt lat="43.62703" lon="0.71549">
        <ele>197</ele>
        <time>2020-10-03T15:36:58.000Z</time>
      </trkpt>
      <trkpt lat="43.62703" lon="0.71546">
        <ele>197</ele>
        <time>2020-10-03T15:37:00.000Z</time>
      </trkpt>
      <trkpt lat="43.62704" lon="0.71542">
        <ele>197.4210512133</ele>
        <time>2020-10-03T15:37:02.000Z</time>
      </trkpt>
      <trkpt lat="43.62705" lon="0.71538">
        <ele>198</ele>
        <time>2020-10-03T15:37:04.000Z</time>
      </trkpt>
      <trkpt lat="43.62706" lon="0.71534">
        <ele>198</ele>
        <time>2020-10-03T15:37:06.000Z</time>
      </trkpt>
      <trkpt lat="43.62707" lon="0.7153">
        <ele>198</ele>
        <time>2020-10-03T15:37:08.000Z</time>
      </trkpt>
      <trkpt lat="43.62708" lon="0.71526">
        <ele>198</ele>
        <time>2020-10-03T15:37:10.000Z</time>
      </trkpt>
      <trkpt lat="43.62709" lon="0.71522">
        <ele>198</ele>
        <time>2020-10-03T15:37:12.000Z</time>
      </trkpt>
      <trkpt lat="43.6271" lon="0.71518">
        <ele>198</ele>
        <time>2020-10-03T15:37:14.000Z</time>
      </trkpt>
      <trkpt lat="43.62711" lon="0.71514">
        <ele>198.43749714286</ele>
        <time>2020-10-03T15:37:16.000Z</time>
      </trkpt>
      <trkpt lat="43.62713" lon="0.7151">
        <ele>199</ele>
        <time>2020-10-03T15:37:18.000Z</time>
      </trkpt>
      <trkpt lat="43.62714" lon="0.71506">
        <ele>199</ele>
        <time>2020-10-03T15:37:20.000Z</time>
      </trkpt>
      <trkpt lat="43.62715" lon="0.71503">
        <ele>199.41237249443</ele>
        <time>2020-10-03T15:37:22.000Z</time>
      </trkpt>
      <trkpt lat="43.62716" lon="0.71499">
        <ele>200</ele>
        <time>2020-10-03T15:37:24.000Z</time>
      </trkpt>
      <trkpt lat="43.62717" lon="0.71495">
        <ele>200</ele>
        <time>2020-10-03T15:37:26.000Z</time>
      </trkpt>
      <trkpt lat="43.62718" lon="0.71491">
        <ele>200</ele>
        <time>2020-10-03T15:37:28.000Z</time>
      </trkpt>
      <trkpt lat="43.62719" lon="0.71487">
        <ele>200</ele>
        <time>2020-10-03T15:37:30.000Z</time>
      </trkpt>
      <trkpt lat="43.6272" lon="0.71483">
        <ele>200</ele>
        <time>2020-10-03T15:37:32.000Z</time>
      </trkpt>
      <trkpt lat="43.62721" lon="0.71478">
        <ele>201</ele>
        <time>2020-10-03T15:37:34.000Z</time>
      </trkpt>
      <trkpt lat="43.62722" lon="0.71475">
        <ele>201</ele>
        <time>2020-10-03T15:37:36.000Z</time>
      </trkpt>
      <trkpt lat="43.62724" lon="0.7147">
        <ele>202</ele>
        <time>2020-10-03T15:37:38.000Z</time>
      </trkpt>
      <trkpt lat="43.62725" lon="0.71467">
        <ele>202</ele>
        <time>2020-10-03T15:37:39.000Z</time>
      </trkpt>
      <trkpt lat="43.62725" lon="0.71465">
        <ele>202</ele>
        <time>2020-10-03T15:37:40.000Z</time>
      </trkpt>
      <trkpt lat="43.62726" lon="0.71462">
        <ele>202.18033027677</ele>
        <time>2020-10-03T15:37:41.000Z</time>
      </trkpt>
      <trkpt lat="43.62727" lon="0.71459">
        <ele>203</ele>
        <time>2020-10-03T15:37:42.000Z</time>
      </trkpt>
      <trkpt lat="43.62728" lon="0.71456">
        <ele>203</ele>
        <time>2020-10-03T15:37:43.000Z</time>
      </trkpt>
      <trkpt lat="43.62729" lon="0.71453">
        <ele>203</ele>
        <time>2020-10-03T15:37:44.000Z</time>
      </trkpt>
      <trkpt lat="43.6273" lon="0.7145">
        <ele>203</ele>
        <time>2020-10-03T15:37:45.000Z</time>
      </trkpt>
      <trkpt lat="43.62731" lon="0.71447">
        <ele>203</ele>
        <time>2020-10-03T15:37:46.000Z</time>
      </trkpt>
      <trkpt lat="43.62732" lon="0.71442">
        <ele>203</ele>
        <time>2020-10-03T15:37:48.000Z</time>
      </trkpt>
      <trkpt lat="43.62733" lon="0.71439">
        <ele>203</ele>
        <time>2020-10-03T15:37:49.000Z</time>
      </trkpt>
      <trkpt lat="43.62734" lon="0.71437">
        <ele>203</ele>
        <time>2020-10-03T15:37:50.000Z</time>
      </trkpt>
      <trkpt lat="43.62735" lon="0.71434">
        <ele>203</ele>
        <time>2020-10-03T15:37:51.000Z</time>
      </trkpt>
      <trkpt lat="43.62735" lon="0.71432">
        <ele>203</ele>
        <time>2020-10-03T15:37:52.000Z</time>
      </trkpt>
      <trkpt lat="43.62736" lon="0.71429">
        <ele>203</ele>
        <time>2020-10-03T15:37:53.000Z</time>
      </trkpt>
      <trkpt lat="43.62736" lon="0.71427">
        <ele>203</ele>
        <time>2020-10-03T15:37:54.000Z</time>
      </trkpt>
      <trkpt lat="43.62737" lon="0.71424">
        <ele>203</ele>
        <time>2020-10-03T15:37:55.000Z</time>
      </trkpt>
      <trkpt lat="43.62737" lon="0.71421">
        <ele>203</ele>
        <time>2020-10-03T15:37:56.000Z</time>
      </trkpt>
      <trkpt lat="43.62738" lon="0.71418">
        <ele>203</ele>
        <time>2020-10-03T15:37:57.000Z</time>
      </trkpt>
      <trkpt lat="43.62739" lon="0.71416">
        <ele>203.39024694827</ele>
        <time>2020-10-03T15:37:58.000Z</time>
      </trkpt>
      <trkpt lat="43.6274" lon="0.71413">
        <ele>204</ele>
        <time>2020-10-03T15:37:59.000Z</time>
      </trkpt>
      <trkpt lat="43.62741" lon="0.7141">
        <ele>204</ele>
        <time>2020-10-03T15:38:00.000Z</time>
      </trkpt>
      <trkpt lat="43.62742" lon="0.71408">
        <ele>204</ele>
        <time>2020-10-03T15:38:01.000Z</time>
      </trkpt>
      <trkpt lat="43.62743" lon="0.71405">
        <ele>204</ele>
        <time>2020-10-03T15:38:02.000Z</time>
      </trkpt>
      <trkpt lat="43.62743" lon="0.71403">
        <ele>204</ele>
        <time>2020-10-03T15:38:03.000Z</time>
      </trkpt>
      <trkpt lat="43.62744" lon="0.714">
        <ele>204</ele>
        <time>2020-10-03T15:38:04.000Z</time>
      </trkpt>
      <trkpt lat="43.62744" lon="0.71398">
        <ele>204</ele>
        <time>2020-10-03T15:38:05.000Z</time>
      </trkpt>
      <trkpt lat="43.62745" lon="0.71395">
        <ele>204</ele>
        <time>2020-10-03T15:38:06.000Z</time>
      </trkpt>
      <trkpt lat="43.62746" lon="0.71392">
        <ele>204</ele>
        <time>2020-10-03T15:38:07.000Z</time>
      </trkpt>
      <trkpt lat="43.62746" lon="0.7139">
        <ele>204</ele>
        <time>2020-10-03T15:38:08.000Z</time>
      </trkpt>
      <trkpt lat="43.62747" lon="0.71387">
        <ele>204</ele>
        <time>2020-10-03T15:38:09.000Z</time>
      </trkpt>
      <trkpt lat="43.62748" lon="0.71385">
        <ele>204</ele>
        <time>2020-10-03T15:38:10.000Z</time>
      </trkpt>
      <trkpt lat="43.62748" lon="0.71382">
        <ele>204</ele>
        <time>2020-10-03T15:38:11.000Z</time>
      </trkpt>
      <trkpt lat="43.62749" lon="0.71379">
        <ele>204</ele>
        <time>2020-10-03T15:38:12.000Z</time>
      </trkpt>
      <trkpt lat="43.62749" lon="0.71377">
        <ele>204</ele>
        <time>2020-10-03T15:38:13.000Z</time>
      </trkpt>
      <trkpt lat="43.6275" lon="0.71374">
        <ele>204</ele>
        <time>2020-10-03T15:38:14.000Z</time>
      </trkpt>
      <trkpt lat="43.62751" lon="0.71372">
        <ele>204</ele>
        <time>2020-10-03T15:38:15.000Z</time>
      </trkpt>
      <trkpt lat="43.62752" lon="0.71369">
        <ele>204</ele>
        <time>2020-10-03T15:38:16.000Z</time>
      </trkpt>
      <trkpt lat="43.62753" lon="0.71366">
        <ele>204</ele>
        <time>2020-10-03T15:38:17.000Z</time>
      </trkpt>
      <trkpt lat="43.62754" lon="0.71364">
        <ele>204</ele>
        <time>2020-10-03T15:38:18.000Z</time>
      </trkpt>
      <trkpt lat="43.62754" lon="0.71361">
        <ele>204</ele>
        <time>2020-10-03T15:38:19.000Z</time>
      </trkpt>
      <trkpt lat="43.62755" lon="0.71358">
        <ele>204</ele>
        <time>2020-10-03T15:38:20.000Z</time>
      </trkpt>
      <trkpt lat="43.62756" lon="0.71356">
        <ele>204</ele>
        <time>2020-10-03T15:38:21.000Z</time>
      </trkpt>
      <trkpt lat="43.62757" lon="0.71353">
        <ele>204</ele>
        <time>2020-10-03T15:38:22.000Z</time>
      </trkpt>
      <trkpt lat="43.62757" lon="0.71351">
        <ele>204</ele>
        <time>2020-10-03T15:38:23.000Z</time>
      </trkpt>
      <trkpt lat="43.62758" lon="0.71348">
        <ele>204</ele>
        <time>2020-10-03T15:38:24.000Z</time>
      </trkpt>
      <trkpt lat="43.6276" lon="0.71344">
        <ele>204.43396568172</ele>
        <time>2020-10-03T15:38:26.000Z</time>
      </trkpt>
      <trkpt lat="43.6276" lon="0.71341">
        <ele>206</ele>
        <time>2020-10-03T15:38:27.000Z</time>
      </trkpt>
      <trkpt lat="43.62762" lon="0.71336">
        <ele>206</ele>
        <time>2020-10-03T15:38:29.000Z</time>
      </trkpt>
      <trkpt lat="43.62762" lon="0.71334">
        <ele>206</ele>
        <time>2020-10-03T15:38:30.000Z</time>
      </trkpt>
      <trkpt lat="43.62763" lon="0.71331">
        <ele>206.31182558908</ele>
        <time>2020-10-03T15:38:31.000Z</time>
      </trkpt>
      <trkpt lat="43.62764" lon="0.71327">
        <ele>207</ele>
        <time>2020-10-03T15:38:33.000Z</time>
      </trkpt>
      <trkpt lat="43.62765" lon="0.71323">
        <ele>208</ele>
        <time>2020-10-03T15:38:35.000Z</time>
      </trkpt>
      <trkpt lat="43.62766" lon="0.71319">
        <ele>208</ele>
        <time>2020-10-03T15:38:37.000Z</time>
      </trkpt>
      <trkpt lat="43.62767" lon="0.71316">
        <ele>208.40449583639</ele>
        <time>2020-10-03T15:38:39.000Z</time>
      </trkpt>
      <trkpt lat="43.62769" lon="0.71312">
        <ele>209</ele>
        <time>2020-10-03T15:38:41.000Z</time>
      </trkpt>
      <trkpt lat="43.6277" lon="0.71308">
        <ele>209</ele>
        <time>2020-10-03T15:38:43.000Z</time>
      </trkpt>
      <trkpt lat="43.62771" lon="0.71304">
        <ele>209</ele>
        <time>2020-10-03T15:38:45.000Z</time>
      </trkpt>
      <trkpt lat="43.62772" lon="0.713">
        <ele>209</ele>
        <time>2020-10-03T15:38:47.000Z</time>
      </trkpt>
      <trkpt lat="43.62773" lon="0.71296">
        <ele>209</ele>
        <time>2020-10-03T15:38:49.000Z</time>
      </trkpt>
      <trkpt lat="43.62775" lon="0.71293">
        <ele>209</ele>
        <time>2020-10-03T15:38:51.000Z</time>
      </trkpt>
      <trkpt lat="43.62776" lon="0.71289">
        <ele>210</ele>
        <time>2020-10-03T15:38:53.000Z</time>
      </trkpt>
      <trkpt lat="43.62777" lon="0.71285">
        <ele>210</ele>
        <time>2020-10-03T15:38:55.000Z</time>
      </trkpt>
      <trkpt lat="43.62778" lon="0.71281">
        <ele>210</ele>
        <time>2020-10-03T15:38:57.000Z</time>
      </trkpt>
      <trkpt lat="43.62779" lon="0.71278">
        <ele>211</ele>
        <time>2020-10-03T15:38:59.000Z</time>
      </trkpt>
      <trkpt lat="43.6278" lon="0.71274">
        <ele>211</ele>
        <time>2020-10-03T15:39:01.000Z</time>
      </trkpt>
      <trkpt lat="43.62781" lon="0.71271">
        <ele>211</ele>
        <time>2020-10-03T15:39:03.000Z</time>
      </trkpt>
      <trkpt lat="43.62782" lon="0.71267">
        <ele>212</ele>
        <time>2020-10-03T15:39:05.000Z</time>
      </trkpt>
      <trkpt lat="43.62784" lon="0.71264">
        <ele>212</ele>
        <time>2020-10-03T15:39:07.000Z</time>
      </trkpt>
      <trkpt lat="43.62785" lon="0.7126">
        <ele>213</ele>
        <time>2020-10-03T15:39:09.000Z</time>
      </trkpt>
      <trkpt lat="43.62786" lon="0.71257">
        <ele>213</ele>
        <time>2020-10-03T15:39:11.000Z</time>
      </trkpt>
      <trkpt lat="43.62787" lon="0.71253">
        <ele>213</ele>
        <time>2020-10-03T15:39:13.000Z</time>
      </trkpt>
      <trkpt lat="43.62788" lon="0.71249">
        <ele>213</ele>
        <time>2020-10-03T15:39:15.000Z</time>
      </trkpt>
      <trkpt lat="43.62789" lon="0.71246">
        <ele>213</ele>
        <time>2020-10-03T15:39:17.000Z</time>
      </trkpt>
      <trkpt lat="43.6279" lon="0.71242">
        <ele>214</ele>
        <time>2020-10-03T15:39:19.000Z</time>
      </trkpt>
      <trkpt lat="43.6279" lon="0.71239">
        <ele>214.41666666667</ele>
        <time>2020-10-03T15:39:21.000Z</time>
      </trkpt>
      <trkpt lat="43.62791" lon="0.71236">
        <ele>215</ele>
        <time>2020-10-03T15:39:23.000Z</time>
      </trkpt>
      <trkpt lat="43.62791" lon="0.71232">
        <ele>215.44859678924</ele>
        <time>2020-10-03T15:39:25.000Z</time>
      </trkpt>
      <trkpt lat="43.62792" lon="0.7123">
        <ele>216</ele>
        <time>2020-10-03T15:39:27.000Z</time>
      </trkpt>
      <trkpt lat="43.62792" lon="0.71227">
        <ele>216</ele>
        <time>2020-10-03T15:39:29.000Z</time>
      </trkpt>
      <trkpt lat="43.62791" lon="0.71224">
        <ele>216</ele>
        <time>2020-10-03T15:39:31.000Z</time>
      </trkpt>
      <trkpt lat="43.6279" lon="0.71221">
        <ele>216</ele>
        <time>2020-10-03T15:39:33.000Z</time>
      </trkpt>
      <trkpt lat="43.62788" lon="0.71216">
        <ele>216</ele>
        <time>2020-10-03T15:39:35.000Z</time>
      </trkpt>
      <trkpt lat="43.62787" lon="0.71214">
        <ele>216</ele>
        <time>2020-10-03T15:39:36.000Z</time>
      </trkpt>
      <trkpt lat="43.62786" lon="0.71212">
        <ele>216</ele>
        <time>2020-10-03T15:39:37.000Z</time>
      </trkpt>
      <trkpt lat="43.62785" lon="0.71209">
        <ele>216</ele>
        <time>2020-10-03T15:39:38.000Z</time>
      </trkpt>
      <trkpt lat="43.62783" lon="0.71207">
        <ele>216</ele>
        <time>2020-10-03T15:39:39.000Z</time>
      </trkpt>
      <trkpt lat="43.62781" lon="0.71205">
        <ele>216</ele>
        <time>2020-10-03T15:39:40.000Z</time>
      </trkpt>
      <trkpt lat="43.62779" lon="0.71204">
        <ele>216</ele>
        <time>2020-10-03T15:39:41.000Z</time>
      </trkpt>
      <trkpt lat="43.62777" lon="0.71204">
        <ele>216</ele>
        <time>2020-10-03T15:39:42.000Z</time>
      </trkpt>
      <trkpt lat="43.62774" lon="0.71203">
        <ele>216</ele>
        <time>2020-10-03T15:39:43.000Z</time>
      </trkpt>
      <trkpt lat="43.62771" lon="0.71203">
        <ele>216</ele>
        <time>2020-10-03T15:39:44.000Z</time>
      </trkpt>
      <trkpt lat="43.62769" lon="0.71203">
        <ele>216</ele>
        <time>2020-10-03T15:39:45.000Z</time>
      </trkpt>
      <trkpt lat="43.62767" lon="0.71202">
        <ele>216</ele>
        <time>2020-10-03T15:39:46.000Z</time>
      </trkpt>
      <trkpt lat="43.62765" lon="0.71202">
        <ele>216</ele>
        <time>2020-10-03T15:39:47.000Z</time>
      </trkpt>
      <trkpt lat="43.62762" lon="0.71202">
        <ele>216.41860776638</ele>
        <time>2020-10-03T15:39:48.000Z</time>
      </trkpt>
      <trkpt lat="43.6276" lon="0.71201">
        <ele>217</ele>
        <time>2020-10-03T15:39:49.000Z</time>
      </trkpt>
      <trkpt lat="43.62757" lon="0.71201">
        <ele>217</ele>
        <time>2020-10-03T15:39:50.000Z</time>
      </trkpt>
      <trkpt lat="43.62755" lon="0.71201">
        <ele>217</ele>
        <time>2020-10-03T15:39:51.000Z</time>
      </trkpt>
      <trkpt lat="43.62752" lon="0.712">
        <ele>217</ele>
        <time>2020-10-03T15:39:52.000Z</time>
      </trkpt>
      <trkpt lat="43.62749" lon="0.712">
        <ele>217</ele>
        <time>2020-10-03T15:39:53.000Z</time>
      </trkpt>
      <trkpt lat="43.62747" lon="0.712">
        <ele>217</ele>
        <time>2020-10-03T15:39:54.000Z</time>
      </trkpt>
      <trkpt lat="43.62744" lon="0.71199">
        <ele>217</ele>
        <time>2020-10-03T15:39:55.000Z</time>
      </trkpt>
      <trkpt lat="43.62741" lon="0.71199">
        <ele>217</ele>
        <time>2020-10-03T15:39:56.000Z</time>
      </trkpt>
      <trkpt lat="43.62738" lon="0.71199">
        <ele>217</ele>
        <time>2020-10-03T15:39:57.000Z</time>
      </trkpt>
      <trkpt lat="43.62735" lon="0.71199">
        <ele>217</ele>
        <time>2020-10-03T15:39:58.000Z</time>
      </trkpt>
      <trkpt lat="43.62732" lon="0.71199">
        <ele>217</ele>
        <time>2020-10-03T15:39:59.000Z</time>
      </trkpt>
      <trkpt lat="43.62729" lon="0.71199">
        <ele>217</ele>
        <time>2020-10-03T15:40:00.000Z</time>
      </trkpt>
      <trkpt lat="43.62726" lon="0.71199">
        <ele>217</ele>
        <time>2020-10-03T15:40:01.000Z</time>
      </trkpt>
      <trkpt lat="43.62723" lon="0.71199">
        <ele>217</ele>
        <time>2020-10-03T15:40:02.000Z</time>
      </trkpt>
      <trkpt lat="43.6272" lon="0.71198">
        <ele>217</ele>
        <time>2020-10-03T15:40:03.000Z</time>
      </trkpt>
      <trkpt lat="43.62717" lon="0.71197">
        <ele>217</ele>
        <time>2020-10-03T15:40:04.000Z</time>
      </trkpt>
      <trkpt lat="43.62715" lon="0.71195">
        <ele>217</ele>
        <time>2020-10-03T15:40:05.000Z</time>
      </trkpt>
      <trkpt lat="43.62713" lon="0.71192">
        <ele>217</ele>
        <time>2020-10-03T15:40:06.000Z</time>
      </trkpt>
      <trkpt lat="43.62712" lon="0.71188">
        <ele>217</ele>
        <time>2020-10-03T15:40:07.000Z</time>
      </trkpt>
      <trkpt lat="43.62711" lon="0.71185">
        <ele>216.16854352735</ele>
        <time>2020-10-03T15:40:08.000Z</time>
      </trkpt>
      <trkpt lat="43.62711" lon="0.71182">
        <ele>215</ele>
        <time>2020-10-03T15:40:09.000Z</time>
      </trkpt>
      <trkpt lat="43.62711" lon="0.71179">
        <ele>215</ele>
        <time>2020-10-03T15:40:10.000Z</time>
      </trkpt>
      <trkpt lat="43.62711" lon="0.71176">
        <ele>215.30392279892</ele>
        <time>2020-10-03T15:40:11.000Z</time>
      </trkpt>
      <trkpt lat="43.62711" lon="0.71172">
        <ele>216</ele>
        <time>2020-10-03T15:40:12.000Z</time>
      </trkpt>
      <trkpt lat="43.62711" lon="0.71169">
        <ele>216</ele>
        <time>2020-10-03T15:40:13.000Z</time>
      </trkpt>
      <trkpt lat="43.62712" lon="0.71165">
        <ele>216</ele>
        <time>2020-10-03T15:40:14.000Z</time>
      </trkpt>
      <trkpt lat="43.62712" lon="0.71162">
        <ele>216</ele>
        <time>2020-10-03T15:40:15.000Z</time>
      </trkpt>
      <trkpt lat="43.62713" lon="0.71159">
        <ele>216</ele>
        <time>2020-10-03T15:40:16.000Z</time>
      </trkpt>
      <trkpt lat="43.62713" lon="0.71156">
        <ele>216</ele>
        <time>2020-10-03T15:40:17.000Z</time>
      </trkpt>
      <trkpt lat="43.62714" lon="0.71153">
        <ele>216.37272653223</ele>
        <time>2020-10-03T15:40:18.000Z</time>
      </trkpt>
      <trkpt lat="43.62715" lon="0.7115">
        <ele>217</ele>
        <time>2020-10-03T15:40:19.000Z</time>
      </trkpt>
      <trkpt lat="43.62715" lon="0.71147">
        <ele>217</ele>
        <time>2020-10-03T15:40:20.000Z</time>
      </trkpt>
      <trkpt lat="43.62716" lon="0.71144">
        <ele>217</ele>
        <time>2020-10-03T15:40:21.000Z</time>
      </trkpt>
      <trkpt lat="43.62716" lon="0.71141">
        <ele>217</ele>
        <time>2020-10-03T15:40:22.000Z</time>
      </trkpt>
      <trkpt lat="43.62717" lon="0.71137">
        <ele>217.37272653223</ele>
        <time>2020-10-03T15:40:23.000Z</time>
      </trkpt>
      <trkpt lat="43.62717" lon="0.71135">
        <ele>218</ele>
        <time>2020-10-03T15:40:24.000Z</time>
      </trkpt>
      <trkpt lat="43.62718" lon="0.71132">
        <ele>218</ele>
        <time>2020-10-03T15:40:25.000Z</time>
      </trkpt>
      <trkpt lat="43.62718" lon="0.71129">
        <ele>218</ele>
        <time>2020-10-03T15:40:26.000Z</time>
      </trkpt>
      <trkpt lat="43.62718" lon="0.71126">
        <ele>218.90909725616</ele>
        <time>2020-10-03T15:40:27.000Z</time>
      </trkpt>
      <trkpt lat="43.62719" lon="0.71123">
        <ele>220</ele>
        <time>2020-10-03T15:40:28.000Z</time>
      </trkpt>
      <trkpt lat="43.6272" lon="0.7112">
        <ele>220</ele>
        <time>2020-10-03T15:40:29.000Z</time>
      </trkpt>
      <trkpt lat="43.6272" lon="0.71118">
        <ele>220</ele>
        <time>2020-10-03T15:40:30.000Z</time>
      </trkpt>
      <trkpt lat="43.6272" lon="0.71115">
        <ele>220</ele>
        <time>2020-10-03T15:40:31.000Z</time>
      </trkpt>
      <trkpt lat="43.62721" lon="0.71112">
        <ele>220</ele>
        <time>2020-10-03T15:40:32.000Z</time>
      </trkpt>
      <trkpt lat="43.62721" lon="0.71109">
        <ele>220</ele>
        <time>2020-10-03T15:40:33.000Z</time>
      </trkpt>
      <trkpt lat="43.62721" lon="0.71107">
        <ele>220</ele>
        <time>2020-10-03T15:40:34.000Z</time>
      </trkpt>
      <trkpt lat="43.62721" lon="0.71104">
        <ele>220</ele>
        <time>2020-10-03T15:40:35.000Z</time>
      </trkpt>
      <trkpt lat="43.62722" lon="0.71101">
        <ele>220.47115076923</ele>
        <time>2020-10-03T15:40:36.000Z</time>
      </trkpt>
      <trkpt lat="43.62722" lon="0.71098">
        <ele>221</ele>
        <time>2020-10-03T15:40:37.000Z</time>
      </trkpt>
      <trkpt lat="43.62722" lon="0.71096">
        <ele>221</ele>
        <time>2020-10-03T15:40:38.000Z</time>
      </trkpt>
      <trkpt lat="43.62723" lon="0.71093">
        <ele>221</ele>
        <time>2020-10-03T15:40:39.000Z</time>
      </trkpt>
      <trkpt lat="43.62723" lon="0.71088">
        <ele>222</ele>
        <time>2020-10-03T15:40:41.000Z</time>
      </trkpt>
      <trkpt lat="43.62724" lon="0.71083">
        <ele>222</ele>
        <time>2020-10-03T15:40:43.000Z</time>
      </trkpt>
      <trkpt lat="43.62724" lon="0.71078">
        <ele>222</ele>
        <time>2020-10-03T15:40:45.000Z</time>
      </trkpt>
      <trkpt lat="43.62725" lon="0.71076">
        <ele>222.3076912257</ele>
        <time>2020-10-03T15:40:46.000Z</time>
      </trkpt>
      <trkpt lat="43.62725" lon="0.71073">
        <ele>223</ele>
        <time>2020-10-03T15:40:47.000Z</time>
      </trkpt>
      <trkpt lat="43.62725" lon="0.71071">
        <ele>223</ele>
        <time>2020-10-03T15:40:48.000Z</time>
      </trkpt>
      <trkpt lat="43.62726" lon="0.71068">
        <ele>224.30000142221</ele>
        <time>2020-10-03T15:40:49.000Z</time>
      </trkpt>
      <trkpt lat="43.62726" lon="0.71065">
        <ele>226</ele>
        <time>2020-10-03T15:40:50.000Z</time>
      </trkpt>
      <trkpt lat="43.62726" lon="0.71063">
        <ele>226</ele>
        <time>2020-10-03T15:40:51.000Z</time>
      </trkpt>
      <trkpt lat="43.62726" lon="0.7106">
        <ele>226</ele>
        <time>2020-10-03T15:40:52.000Z</time>
      </trkpt>
      <trkpt lat="43.62727" lon="0.71057">
        <ele>226</ele>
        <time>2020-10-03T15:40:53.000Z</time>
      </trkpt>
      <trkpt lat="43.62727" lon="0.71055">
        <ele>226</ele>
        <time>2020-10-03T15:40:54.000Z</time>
      </trkpt>
      <trkpt lat="43.62728" lon="0.71052">
        <ele>226</ele>
        <time>2020-10-03T15:40:55.000Z</time>
      </trkpt>
      <trkpt lat="43.62728" lon="0.71049">
        <ele>226</ele>
        <time>2020-10-03T15:40:56.000Z</time>
      </trkpt>
      <trkpt lat="43.62729" lon="0.71047">
        <ele>226</ele>
        <time>2020-10-03T15:40:57.000Z</time>
      </trkpt>
      <trkpt lat="43.62729" lon="0.71044">
        <ele>226</ele>
        <time>2020-10-03T15:40:58.000Z</time>
      </trkpt>
      <trkpt lat="43.6273" lon="0.71041">
        <ele>226</ele>
        <time>2020-10-03T15:40:59.000Z</time>
      </trkpt>
      <trkpt lat="43.6273" lon="0.71038">
        <ele>226</ele>
        <time>2020-10-03T15:41:00.000Z</time>
      </trkpt>
      <trkpt lat="43.6273" lon="0.71035">
        <ele>226</ele>
        <time>2020-10-03T15:41:01.000Z</time>
      </trkpt>
      <trkpt lat="43.62731" lon="0.71033">
        <ele>226</ele>
        <time>2020-10-03T15:41:02.000Z</time>
      </trkpt>
      <trkpt lat="43.62731" lon="0.7103">
        <ele>226</ele>
        <time>2020-10-03T15:41:03.000Z</time>
      </trkpt>
      <trkpt lat="43.62732" lon="0.71028">
        <ele>226</ele>
        <time>2020-10-03T15:41:04.000Z</time>
      </trkpt>
      <trkpt lat="43.62732" lon="0.71025">
        <ele>226.38554068225</ele>
        <time>2020-10-03T15:41:05.000Z</time>
      </trkpt>
      <trkpt lat="43.62732" lon="0.71022">
        <ele>227</ele>
        <time>2020-10-03T15:41:06.000Z</time>
      </trkpt>
      <trkpt lat="43.62733" lon="0.71019">
        <ele>227</ele>
        <time>2020-10-03T15:41:07.000Z</time>
      </trkpt>
      <trkpt lat="43.62733" lon="0.71017">
        <ele>227.423725688</ele>
        <time>2020-10-03T15:41:08.000Z</time>
      </trkpt>
      <trkpt lat="43.62733" lon="0.71014">
        <ele>228</ele>
        <time>2020-10-03T15:41:09.000Z</time>
      </trkpt>
      <trkpt lat="43.62734" lon="0.71011">
        <ele>228</ele>
        <time>2020-10-03T15:41:10.000Z</time>
      </trkpt>
      <trkpt lat="43.62734" lon="0.71008">
        <ele>228.38834830804</ele>
        <time>2020-10-03T15:41:11.000Z</time>
      </trkpt>
      <trkpt lat="43.62734" lon="0.71006">
        <ele>229</ele>
        <time>2020-10-03T15:41:12.000Z</time>
      </trkpt>
      <trkpt lat="43.62735" lon="0.71003">
        <ele>229</ele>
        <time>2020-10-03T15:41:13.000Z</time>
      </trkpt>
      <trkpt lat="43.62735" lon="0.71001">
        <ele>229.82608937615</ele>
        <time>2020-10-03T15:41:14.000Z</time>
      </trkpt>
      <trkpt lat="43.62735" lon="0.70998">
        <ele>231</ele>
        <time>2020-10-03T15:41:15.000Z</time>
      </trkpt>
      <trkpt lat="43.62736" lon="0.70995">
        <ele>231</ele>
        <time>2020-10-03T15:41:16.000Z</time>
      </trkpt>
      <trkpt lat="43.62736" lon="0.70992">
        <ele>231</ele>
        <time>2020-10-03T15:41:17.000Z</time>
      </trkpt>
      <trkpt lat="43.62737" lon="0.70989">
        <ele>231</ele>
        <time>2020-10-03T15:41:18.000Z</time>
      </trkpt>
      <trkpt lat="43.62737" lon="0.70987">
        <ele>231</ele>
        <time>2020-10-03T15:41:19.000Z</time>
      </trkpt>
      <trkpt lat="43.62738" lon="0.70984">
        <ele>231</ele>
        <time>2020-10-03T15:41:20.000Z</time>
      </trkpt>
      <trkpt lat="43.62738" lon="0.70981">
        <ele>231</ele>
        <time>2020-10-03T15:41:21.000Z</time>
      </trkpt>
      <trkpt lat="43.62738" lon="0.70979">
        <ele>231</ele>
        <time>2020-10-03T15:41:22.000Z</time>
      </trkpt>
      <trkpt lat="43.62739" lon="0.70976">
        <ele>231</ele>
        <time>2020-10-03T15:41:23.000Z</time>
      </trkpt>
      <trkpt lat="43.62739" lon="0.70973">
        <ele>231</ele>
        <time>2020-10-03T15:41:24.000Z</time>
      </trkpt>
      <trkpt lat="43.62739" lon="0.7097">
        <ele>231</ele>
        <time>2020-10-03T15:41:25.000Z</time>
      </trkpt>
      <trkpt lat="43.62739" lon="0.70968">
        <ele>231</ele>
        <time>2020-10-03T15:41:26.000Z</time>
      </trkpt>
      <trkpt lat="43.6274" lon="0.70965">
        <ele>231</ele>
        <time>2020-10-03T15:41:27.000Z</time>
      </trkpt>
      <trkpt lat="43.62741" lon="0.70963">
        <ele>231.32456041859</ele>
        <time>2020-10-03T15:41:28.000Z</time>
      </trkpt>
      <trkpt lat="43.62741" lon="0.7096">
        <ele>232</ele>
        <time>2020-10-03T15:41:29.000Z</time>
      </trkpt>
      <trkpt lat="43.62742" lon="0.70957">
        <ele>232</ele>
        <time>2020-10-03T15:41:30.000Z</time>
      </trkpt>
      <trkpt lat="43.62742" lon="0.70954">
        <ele>232</ele>
        <time>2020-10-03T15:41:31.000Z</time>
      </trkpt>
      <trkpt lat="43.62743" lon="0.70951">
        <ele>232</ele>
        <time>2020-10-03T15:41:32.000Z</time>
      </trkpt>
      <trkpt lat="43.62743" lon="0.70948">
        <ele>232</ele>
        <time>2020-10-03T15:41:33.000Z</time>
      </trkpt>
      <trkpt lat="43.62744" lon="0.70945">
        <ele>232</ele>
        <time>2020-10-03T15:41:34.000Z</time>
      </trkpt>
      <trkpt lat="43.62745" lon="0.70942">
        <ele>232</ele>
        <time>2020-10-03T15:41:35.000Z</time>
      </trkpt>
      <trkpt lat="43.62745" lon="0.70939">
        <ele>232.12819797496</ele>
        <time>2020-10-03T15:41:36.000Z</time>
      </trkpt>
      <trkpt lat="43.62746" lon="0.70936">
        <ele>233</ele>
        <time>2020-10-03T15:41:37.000Z</time>
      </trkpt>
      <trkpt lat="43.62746" lon="0.70933">
        <ele>233</ele>
        <time>2020-10-03T15:41:38.000Z</time>
      </trkpt>
      <trkpt lat="43.62747" lon="0.7093">
        <ele>233</ele>
        <time>2020-10-03T15:41:39.000Z</time>
      </trkpt>
      <trkpt lat="43.62747" lon="0.70927">
        <ele>233.37930527152</ele>
        <time>2020-10-03T15:41:40.000Z</time>
      </trkpt>
      <trkpt lat="43.62747" lon="0.70923">
        <ele>234</ele>
        <time>2020-10-03T15:41:41.000Z</time>
      </trkpt>
      <trkpt lat="43.62748" lon="0.7092">
        <ele>234</ele>
        <time>2020-10-03T15:41:42.000Z</time>
      </trkpt>
      <trkpt lat="43.62748" lon="0.70917">
        <ele>234</ele>
        <time>2020-10-03T15:41:43.000Z</time>
      </trkpt>
      <trkpt lat="43.62749" lon="0.70914">
        <ele>234</ele>
        <time>2020-10-03T15:41:44.000Z</time>
      </trkpt>
      <trkpt lat="43.62749" lon="0.70912">
        <ele>234</ele>
        <time>2020-10-03T15:41:45.000Z</time>
      </trkpt>
      <trkpt lat="43.62749" lon="0.70909">
        <ele>234</ele>
        <time>2020-10-03T15:41:46.000Z</time>
      </trkpt>
      <trkpt lat="43.6275" lon="0.70906">
        <ele>233.57943846973</ele>
        <time>2020-10-03T15:41:47.000Z</time>
      </trkpt>
      <trkpt lat="43.6275" lon="0.70903">
        <ele>233</ele>
        <time>2020-10-03T15:41:48.000Z</time>
      </trkpt>
      <trkpt lat="43.62751" lon="0.709">
        <ele>233</ele>
        <time>2020-10-03T15:41:49.000Z</time>
      </trkpt>
      <trkpt lat="43.62751" lon="0.70897">
        <ele>233.38235367935</ele>
        <time>2020-10-03T15:41:50.000Z</time>
      </trkpt>
      <trkpt lat="43.62752" lon="0.70894">
        <ele>234</ele>
        <time>2020-10-03T15:41:51.000Z</time>
      </trkpt>
      <trkpt lat="43.62752" lon="0.70891">
        <ele>234</ele>
        <time>2020-10-03T15:41:52.000Z</time>
      </trkpt>
      <trkpt lat="43.62752" lon="0.70888">
        <ele>234</ele>
        <time>2020-10-03T15:41:53.000Z</time>
      </trkpt>
      <trkpt lat="43.62752" lon="0.70885">
        <ele>234</ele>
        <time>2020-10-03T15:41:54.000Z</time>
      </trkpt>
      <trkpt lat="43.62752" lon="0.70882">
        <ele>234</ele>
        <time>2020-10-03T15:41:55.000Z</time>
      </trkpt>
      <trkpt lat="43.62752" lon="0.70878">
        <ele>234</ele>
        <time>2020-10-03T15:41:56.000Z</time>
      </trkpt>
      <trkpt lat="43.62753" lon="0.70875">
        <ele>234</ele>
        <time>2020-10-03T15:41:57.000Z</time>
      </trkpt>
      <trkpt lat="43.62753" lon="0.70872">
        <ele>234</ele>
        <time>2020-10-03T15:41:58.000Z</time>
      </trkpt>
      <trkpt lat="43.62753" lon="0.70869">
        <ele>234</ele>
        <time>2020-10-03T15:41:59.000Z</time>
      </trkpt>
      <trkpt lat="43.62753" lon="0.70866">
        <ele>234</ele>
        <time>2020-10-03T15:42:00.000Z</time>
      </trkpt>
      <trkpt lat="43.62753" lon="0.70863">
        <ele>234</ele>
        <time>2020-10-03T15:42:01.000Z</time>
      </trkpt>
      <trkpt lat="43.62754" lon="0.7086">
        <ele>234</ele>
        <time>2020-10-03T15:42:02.000Z</time>
      </trkpt>
      <trkpt lat="43.62754" lon="0.70857">
        <ele>234</ele>
        <time>2020-10-03T15:42:03.000Z</time>
      </trkpt>
      <trkpt lat="43.62754" lon="0.70854">
        <ele>235</ele>
        <time>2020-10-03T15:42:04.000Z</time>
      </trkpt>
      <trkpt lat="43.62754" lon="0.70851">
        <ele>236</ele>
        <time>2020-10-03T15:42:05.000Z</time>
      </trkpt>
      <trkpt lat="43.62754" lon="0.70848">
        <ele>236</ele>
        <time>2020-10-03T15:42:06.000Z</time>
      </trkpt>
      <trkpt lat="43.62754" lon="0.70845">
        <ele>236</ele>
        <time>2020-10-03T15:42:07.000Z</time>
      </trkpt>
      <trkpt lat="43.62754" lon="0.70841">
        <ele>236</ele>
        <time>2020-10-03T15:42:08.000Z</time>
      </trkpt>
      <trkpt lat="43.62754" lon="0.70838">
        <ele>236</ele>
        <time>2020-10-03T15:42:09.000Z</time>
      </trkpt>
      <trkpt lat="43.62754" lon="0.70835">
        <ele>236</ele>
        <time>2020-10-03T15:42:10.000Z</time>
      </trkpt>
      <trkpt lat="43.62754" lon="0.70832">
        <ele>236</ele>
        <time>2020-10-03T15:42:11.000Z</time>
      </trkpt>
      <trkpt lat="43.62754" lon="0.70829">
        <ele>236</ele>
        <time>2020-10-03T15:42:12.000Z</time>
      </trkpt>
      <trkpt lat="43.62754" lon="0.70826">
        <ele>236</ele>
        <time>2020-10-03T15:42:13.000Z</time>
      </trkpt>
      <trkpt lat="43.62755" lon="0.70823">
        <ele>236</ele>
        <time>2020-10-03T15:42:14.000Z</time>
      </trkpt>
      <trkpt lat="43.62754" lon="0.70821">
        <ele>236</ele>
        <time>2020-10-03T15:42:15.000Z</time>
      </trkpt>
      <trkpt lat="43.62754" lon="0.70817">
        <ele>236</ele>
        <time>2020-10-03T15:42:16.000Z</time>
      </trkpt>
      <trkpt lat="43.62754" lon="0.70814">
        <ele>236</ele>
        <time>2020-10-03T15:42:17.000Z</time>
      </trkpt>
      <trkpt lat="43.62754" lon="0.70811">
        <ele>236</ele>
        <time>2020-10-03T15:42:18.000Z</time>
      </trkpt>
      <trkpt lat="43.62754" lon="0.70808">
        <ele>236</ele>
        <time>2020-10-03T15:42:19.000Z</time>
      </trkpt>
      <trkpt lat="43.62754" lon="0.70804">
        <ele>236</ele>
        <time>2020-10-03T15:42:20.000Z</time>
      </trkpt>
      <trkpt lat="43.62753" lon="0.70801">
        <ele>236.44444128397</ele>
        <time>2020-10-03T15:42:21.000Z</time>
      </trkpt>
      <trkpt lat="43.62753" lon="0.70797">
        <ele>237</ele>
        <time>2020-10-03T15:42:22.000Z</time>
      </trkpt>
      <trkpt lat="43.62754" lon="0.70794">
        <ele>237</ele>
        <time>2020-10-03T15:42:23.000Z</time>
      </trkpt>
      <trkpt lat="43.62754" lon="0.70791">
        <ele>237</ele>
        <time>2020-10-03T15:42:24.000Z</time>
      </trkpt>
      <trkpt lat="43.62754" lon="0.70787">
        <ele>237</ele>
        <time>2020-10-03T15:42:25.000Z</time>
      </trkpt>
      <trkpt lat="43.62754" lon="0.70784">
        <ele>237</ele>
        <time>2020-10-03T15:42:26.000Z</time>
      </trkpt>
      <trkpt lat="43.62755" lon="0.70781">
        <ele>237</ele>
        <time>2020-10-03T15:42:27.000Z</time>
      </trkpt>
      <trkpt lat="43.62755" lon="0.70778">
        <ele>237</ele>
        <time>2020-10-03T15:42:28.000Z</time>
      </trkpt>
      <trkpt lat="43.62755" lon="0.70775">
        <ele>237</ele>
        <time>2020-10-03T15:42:29.000Z</time>
      </trkpt>
      <trkpt lat="43.62755" lon="0.70771">
        <ele>237</ele>
        <time>2020-10-03T15:42:30.000Z</time>
      </trkpt>
      <trkpt lat="43.62755" lon="0.70768">
        <ele>237.4403682653</ele>
        <time>2020-10-03T15:42:31.000Z</time>
      </trkpt>
      <trkpt lat="43.62755" lon="0.70765">
        <ele>238</ele>
        <time>2020-10-03T15:42:32.000Z</time>
      </trkpt>
      <trkpt lat="43.62755" lon="0.70762">
        <ele>238</ele>
        <time>2020-10-03T15:42:33.000Z</time>
      </trkpt>
      <trkpt lat="43.62756" lon="0.70759">
        <ele>238</ele>
        <time>2020-10-03T15:42:34.000Z</time>
      </trkpt>
      <trkpt lat="43.62756" lon="0.70756">
        <ele>238</ele>
        <time>2020-10-03T15:42:35.000Z</time>
      </trkpt>
      <trkpt lat="43.62755" lon="0.70753">
        <ele>238</ele>
        <time>2020-10-03T15:42:36.000Z</time>
      </trkpt>
      <trkpt lat="43.62755" lon="0.7075">
        <ele>238</ele>
        <time>2020-10-03T15:42:37.000Z</time>
      </trkpt>
      <trkpt lat="43.62755" lon="0.70746">
        <ele>238</ele>
        <time>2020-10-03T15:42:38.000Z</time>
      </trkpt>
      <trkpt lat="43.62755" lon="0.70743">
        <ele>238.49019927718</ele>
        <time>2020-10-03T15:42:39.000Z</time>
      </trkpt>
      <trkpt lat="43.62755" lon="0.70739">
        <ele>239</ele>
        <time>2020-10-03T15:42:40.000Z</time>
      </trkpt>
      <trkpt lat="43.62755" lon="0.70736">
        <ele>239</ele>
        <time>2020-10-03T15:42:41.000Z</time>
      </trkpt>
      <trkpt lat="43.62754" lon="0.70732">
        <ele>239</ele>
        <time>2020-10-03T15:42:42.000Z</time>
      </trkpt>
      <trkpt lat="43.62754" lon="0.70728">
        <ele>239</ele>
        <time>2020-10-03T15:42:43.000Z</time>
      </trkpt>
      <trkpt lat="43.62754" lon="0.70724">
        <ele>239</ele>
        <time>2020-10-03T15:42:44.000Z</time>
      </trkpt>
      <trkpt lat="43.62754" lon="0.70719">
        <ele>239</ele>
        <time>2020-10-03T15:42:45.000Z</time>
      </trkpt>
      <trkpt lat="43.62755" lon="0.70715">
        <ele>239</ele>
        <time>2020-10-03T15:42:46.000Z</time>
      </trkpt>
      <trkpt lat="43.62755" lon="0.70711">
        <ele>239</ele>
        <time>2020-10-03T15:42:47.000Z</time>
      </trkpt>
      <trkpt lat="43.62756" lon="0.70708">
        <ele>239</ele>
        <time>2020-10-03T15:42:48.000Z</time>
      </trkpt>
      <trkpt lat="43.62756" lon="0.70705">
        <ele>239</ele>
        <time>2020-10-03T15:42:49.000Z</time>
      </trkpt>
      <trkpt lat="43.62756" lon="0.70701">
        <ele>238.62650360866</ele>
        <time>2020-10-03T15:42:50.000Z</time>
      </trkpt>
      <trkpt lat="43.62757" lon="0.70697">
        <ele>238</ele>
        <time>2020-10-03T15:42:51.000Z</time>
      </trkpt>
      <trkpt lat="43.62757" lon="0.70694">
        <ele>238</ele>
        <time>2020-10-03T15:42:52.000Z</time>
      </trkpt>
      <trkpt lat="43.62758" lon="0.7069">
        <ele>238</ele>
        <time>2020-10-03T15:42:53.000Z</time>
      </trkpt>
      <trkpt lat="43.62759" lon="0.70687">
        <ele>238.27737499066</ele>
        <time>2020-10-03T15:42:54.000Z</time>
      </trkpt>
      <trkpt lat="43.62759" lon="0.70683">
        <ele>239</ele>
        <time>2020-10-03T15:42:55.000Z</time>
      </trkpt>
      <trkpt lat="43.6276" lon="0.7068">
        <ele>239</ele>
        <time>2020-10-03T15:42:56.000Z</time>
      </trkpt>
      <trkpt lat="43.62761" lon="0.70676">
        <ele>239</ele>
        <time>2020-10-03T15:42:57.000Z</time>
      </trkpt>
      <trkpt lat="43.62761" lon="0.70673">
        <ele>239</ele>
        <time>2020-10-03T15:42:58.000Z</time>
      </trkpt>
      <trkpt lat="43.62762" lon="0.70669">
        <ele>239</ele>
        <time>2020-10-03T15:42:59.000Z</time>
      </trkpt>
      <trkpt lat="43.62763" lon="0.70666">
        <ele>239</ele>
        <time>2020-10-03T15:43:00.000Z</time>
      </trkpt>
      <trkpt lat="43.62763" lon="0.70662">
        <ele>239</ele>
        <time>2020-10-03T15:43:01.000Z</time>
      </trkpt>
      <trkpt lat="43.62764" lon="0.70659">
        <ele>239</ele>
        <time>2020-10-03T15:43:02.000Z</time>
      </trkpt>
      <trkpt lat="43.62765" lon="0.70655">
        <ele>239</ele>
        <time>2020-10-03T15:43:03.000Z</time>
      </trkpt>
      <trkpt lat="43.62766" lon="0.70652">
        <ele>239.36434446969</ele>
        <time>2020-10-03T15:43:04.000Z</time>
      </trkpt>
      <trkpt lat="43.62767" lon="0.70648">
        <ele>240</ele>
        <time>2020-10-03T15:43:05.000Z</time>
      </trkpt>
      <trkpt lat="43.62768" lon="0.70644">
        <ele>240</ele>
        <time>2020-10-03T15:43:06.000Z</time>
      </trkpt>
      <trkpt lat="43.62768" lon="0.70641">
        <ele>240</ele>
        <time>2020-10-03T15:43:07.000Z</time>
      </trkpt>
      <trkpt lat="43.62769" lon="0.70637">
        <ele>240</ele>
        <time>2020-10-03T15:43:08.000Z</time>
      </trkpt>
      <trkpt lat="43.62769" lon="0.70633">
        <ele>240</ele>
        <time>2020-10-03T15:43:09.000Z</time>
      </trkpt>
      <trkpt lat="43.62769" lon="0.7063">
        <ele>238.97434550964</ele>
        <time>2020-10-03T15:43:10.000Z</time>
      </trkpt>
      <trkpt lat="43.6277" lon="0.70625">
        <ele>236</ele>
        <time>2020-10-03T15:43:11.000Z</time>
      </trkpt>
      <trkpt lat="43.6277" lon="0.70621">
        <ele>236</ele>
        <time>2020-10-03T15:43:12.000Z</time>
      </trkpt>
      <trkpt lat="43.6277" lon="0.70618">
        <ele>236</ele>
        <time>2020-10-03T15:43:13.000Z</time>
      </trkpt>
      <trkpt lat="43.62771" lon="0.70613">
        <ele>235.59999767271</ele>
        <time>2020-10-03T15:43:14.000Z</time>
      </trkpt>
      <trkpt lat="43.62771" lon="0.7061">
        <ele>235</ele>
        <time>2020-10-03T15:43:15.000Z</time>
      </trkpt>
      <trkpt lat="43.62771" lon="0.70605">
        <ele>235</ele>
        <time>2020-10-03T15:43:16.000Z</time>
      </trkpt>
      <trkpt lat="43.62771" lon="0.70602">
        <ele>235</ele>
        <time>2020-10-03T15:43:17.000Z</time>
      </trkpt>
      <trkpt lat="43.62771" lon="0.70597">
        <ele>234.6513733457</ele>
        <time>2020-10-03T15:43:18.000Z</time>
      </trkpt>
      <trkpt lat="43.62772" lon="0.70593">
        <ele>234</ele>
        <time>2020-10-03T15:43:19.000Z</time>
      </trkpt>
      <trkpt lat="43.62772" lon="0.70589">
        <ele>234</ele>
        <time>2020-10-03T15:43:20.000Z</time>
      </trkpt>
      <trkpt lat="43.62772" lon="0.70585">
        <ele>232.90179428571</ele>
        <time>2020-10-03T15:43:21.000Z</time>
      </trkpt>
      <trkpt lat="43.62772" lon="0.70581">
        <ele>231</ele>
        <time>2020-10-03T15:43:22.000Z</time>
      </trkpt>
      <trkpt lat="43.62773" lon="0.70576">
        <ele>231</ele>
        <time>2020-10-03T15:43:23.000Z</time>
      </trkpt>
      <trkpt lat="43.62773" lon="0.70572">
        <ele>230.54166666667</ele>
        <time>2020-10-03T15:43:24.000Z</time>
      </trkpt>
      <trkpt lat="43.62773" lon="0.70568">
        <ele>230</ele>
        <time>2020-10-03T15:43:25.000Z</time>
      </trkpt>
      <trkpt lat="43.62773" lon="0.70564">
        <ele>230</ele>
        <time>2020-10-03T15:43:26.000Z</time>
      </trkpt>
      <trkpt lat="43.62774" lon="0.7056">
        <ele>230</ele>
        <time>2020-10-03T15:43:27.000Z</time>
      </trkpt>
      <trkpt lat="43.62774" lon="0.70556">
        <ele>230</ele>
        <time>2020-10-03T15:43:28.000Z</time>
      </trkpt>
      <trkpt lat="43.62774" lon="0.70552">
        <ele>230</ele>
        <time>2020-10-03T15:43:29.000Z</time>
      </trkpt>
      <trkpt lat="43.62774" lon="0.70548">
        <ele>230</ele>
        <time>2020-10-03T15:43:30.000Z</time>
      </trkpt>
      <trkpt lat="43.62774" lon="0.70544">
        <ele>230</ele>
        <time>2020-10-03T15:43:31.000Z</time>
      </trkpt>
      <trkpt lat="43.62774" lon="0.7054">
        <ele>230</ele>
        <time>2020-10-03T15:43:32.000Z</time>
      </trkpt>
      <trkpt lat="43.62775" lon="0.70535">
        <ele>228.75246809535</ele>
        <time>2020-10-03T15:43:33.000Z</time>
      </trkpt>
      <trkpt lat="43.62775" lon="0.70531">
        <ele>227</ele>
        <time>2020-10-03T15:43:34.000Z</time>
      </trkpt>
      <trkpt lat="43.62775" lon="0.70527">
        <ele>226.67045818182</ele>
        <time>2020-10-03T15:43:35.000Z</time>
      </trkpt>
      <trkpt lat="43.62776" lon="0.70522">
        <ele>226</ele>
        <time>2020-10-03T15:43:36.000Z</time>
      </trkpt>
      <trkpt lat="43.62776" lon="0.70518">
        <ele>226</ele>
        <time>2020-10-03T15:43:37.000Z</time>
      </trkpt>
      <trkpt lat="43.62776" lon="0.70514">
        <ele>226</ele>
        <time>2020-10-03T15:43:38.000Z</time>
      </trkpt>
      <trkpt lat="43.62776" lon="0.7051">
        <ele>225.62385504251</ele>
        <time>2020-10-03T15:43:39.000Z</time>
      </trkpt>
      <trkpt lat="43.62777" lon="0.70506">
        <ele>225</ele>
        <time>2020-10-03T15:43:40.000Z</time>
      </trkpt>
      <trkpt lat="43.62777" lon="0.70502">
        <ele>225</ele>
        <time>2020-10-03T15:43:41.000Z</time>
      </trkpt>
      <trkpt lat="43.62777" lon="0.70498">
        <ele>225</ele>
        <time>2020-10-03T15:43:42.000Z</time>
      </trkpt>
      <trkpt lat="43.62778" lon="0.70494">
        <ele>225</ele>
        <time>2020-10-03T15:43:43.000Z</time>
      </trkpt>
      <trkpt lat="43.62778" lon="0.7049">
        <ele>225.40476045349</ele>
        <time>2020-10-03T15:43:44.000Z</time>
      </trkpt>
      <trkpt lat="43.62779" lon="0.70486">
        <ele>225.22480204799</ele>
        <time>2020-10-03T15:43:45.000Z</time>
      </trkpt>
      <trkpt lat="43.62779" lon="0.70482">
        <ele>224</ele>
        <time>2020-10-03T15:43:46.000Z</time>
      </trkpt>
      <trkpt lat="43.62779" lon="0.70478">
        <ele>224</ele>
        <time>2020-10-03T15:43:47.000Z</time>
      </trkpt>
      <trkpt lat="43.62779" lon="0.70474">
        <ele>224</ele>
        <time>2020-10-03T15:43:48.000Z</time>
      </trkpt>
      <trkpt lat="43.62779" lon="0.70471">
        <ele>224</ele>
        <time>2020-10-03T15:43:49.000Z</time>
      </trkpt>
      <trkpt lat="43.6278" lon="0.70467">
        <ele>224.45871107145</ele>
        <time>2020-10-03T15:43:50.000Z</time>
      </trkpt>
      <trkpt lat="43.6278" lon="0.70463">
        <ele>225</ele>
        <time>2020-10-03T15:43:51.000Z</time>
      </trkpt>
      <trkpt lat="43.62781" lon="0.70459">
        <ele>225</ele>
        <time>2020-10-03T15:43:52.000Z</time>
      </trkpt>
      <trkpt lat="43.62782" lon="0.70456">
        <ele>225</ele>
        <time>2020-10-03T15:43:53.000Z</time>
      </trkpt>
      <trkpt lat="43.62783" lon="0.70452">
        <ele>224.58585780226</ele>
        <time>2020-10-03T15:43:54.000Z</time>
      </trkpt>
      <trkpt lat="43.62783" lon="0.70449">
        <ele>224</ele>
        <time>2020-10-03T15:43:55.000Z</time>
      </trkpt>
      <trkpt lat="43.62783" lon="0.70446">
        <ele>224</ele>
        <time>2020-10-03T15:43:56.000Z</time>
      </trkpt>
      <trkpt lat="43.62783" lon="0.70443">
        <ele>224</ele>
        <time>2020-10-03T15:43:57.000Z</time>
      </trkpt>
      <trkpt lat="43.62782" lon="0.7044">
        <ele>224</ele>
        <time>2020-10-03T15:43:58.000Z</time>
      </trkpt>
      <trkpt lat="43.62781" lon="0.70437">
        <ele>224</ele>
        <time>2020-10-03T15:43:59.000Z</time>
      </trkpt>
      <trkpt lat="43.62779" lon="0.70435">
        <ele>224</ele>
        <time>2020-10-03T15:44:00.000Z</time>
      </trkpt>
      <trkpt lat="43.62778" lon="0.70432">
        <ele>223.62352799446</ele>
        <time>2020-10-03T15:44:01.000Z</time>
      </trkpt>
      <trkpt lat="43.62776" lon="0.70429">
        <ele>223</ele>
        <time>2020-10-03T15:44:02.000Z</time>
      </trkpt>
      <trkpt lat="43.62775" lon="0.70425">
        <ele>223</ele>
        <time>2020-10-03T15:44:03.000Z</time>
      </trkpt>
      <trkpt lat="43.62775" lon="0.70422">
        <ele>223</ele>
        <time>2020-10-03T15:44:04.000Z</time>
      </trkpt>
      <trkpt lat="43.62774" lon="0.70418">
        <ele>223</ele>
        <time>2020-10-03T15:44:05.000Z</time>
      </trkpt>
      <trkpt lat="43.62774" lon="0.70414">
        <ele>223</ele>
        <time>2020-10-03T15:44:06.000Z</time>
      </trkpt>
      <trkpt lat="43.62774" lon="0.7041">
        <ele>223</ele>
        <time>2020-10-03T15:44:07.000Z</time>
      </trkpt>
      <trkpt lat="43.62775" lon="0.70406">
        <ele>223</ele>
        <time>2020-10-03T15:44:08.000Z</time>
      </trkpt>
      <trkpt lat="43.62775" lon="0.70403">
        <ele>223</ele>
        <time>2020-10-03T15:44:09.000Z</time>
      </trkpt>
      <trkpt lat="43.62776" lon="0.70399">
        <ele>223</ele>
        <time>2020-10-03T15:44:10.000Z</time>
      </trkpt>
      <trkpt lat="43.62776" lon="0.70395">
        <ele>223</ele>
        <time>2020-10-03T15:44:11.000Z</time>
      </trkpt>
      <trkpt lat="43.62776" lon="0.70391">
        <ele>222.56896627825</ele>
        <time>2020-10-03T15:44:12.000Z</time>
      </trkpt>
      <trkpt lat="43.62777" lon="0.70387">
        <ele>222</ele>
        <time>2020-10-03T15:44:13.000Z</time>
      </trkpt>
      <trkpt lat="43.62777" lon="0.70383">
        <ele>222</ele>
        <time>2020-10-03T15:44:14.000Z</time>
      </trkpt>
      <trkpt lat="43.62778" lon="0.7038">
        <ele>222</ele>
        <time>2020-10-03T15:44:15.000Z</time>
      </trkpt>
      <trkpt lat="43.62778" lon="0.70376">
        <ele>222</ele>
        <time>2020-10-03T15:44:16.000Z</time>
      </trkpt>
      <trkpt lat="43.62779" lon="0.70372">
        <ele>222</ele>
        <time>2020-10-03T15:44:17.000Z</time>
      </trkpt>
      <trkpt lat="43.62779" lon="0.70368">
        <ele>222</ele>
        <time>2020-10-03T15:44:18.000Z</time>
      </trkpt>
      <trkpt lat="43.6278" lon="0.70365">
        <ele>222</ele>
        <time>2020-10-03T15:44:19.000Z</time>
      </trkpt>
      <trkpt lat="43.6278" lon="0.70361">
        <ele>222</ele>
        <time>2020-10-03T15:44:20.000Z</time>
      </trkpt>
      <trkpt lat="43.62781" lon="0.70357">
        <ele>222</ele>
        <time>2020-10-03T15:44:21.000Z</time>
      </trkpt>
      <trkpt lat="43.62781" lon="0.70353">
        <ele>222</ele>
        <time>2020-10-03T15:44:22.000Z</time>
      </trkpt>
      <trkpt lat="43.62781" lon="0.7035">
        <ele>222</ele>
        <time>2020-10-03T15:44:23.000Z</time>
      </trkpt>
      <trkpt lat="43.62782" lon="0.70346">
        <ele>222</ele>
        <time>2020-10-03T15:44:24.000Z</time>
      </trkpt>
      <trkpt lat="43.62782" lon="0.70342">
        <ele>222</ele>
        <time>2020-10-03T15:44:25.000Z</time>
      </trkpt>
      <trkpt lat="43.62782" lon="0.70339">
        <ele>222</ele>
        <time>2020-10-03T15:44:26.000Z</time>
      </trkpt>
      <trkpt lat="43.62783" lon="0.70335">
        <ele>222</ele>
        <time>2020-10-03T15:44:27.000Z</time>
      </trkpt>
      <trkpt lat="43.62783" lon="0.70331">
        <ele>222.48543520406</ele>
        <time>2020-10-03T15:44:28.000Z</time>
      </trkpt>
      <trkpt lat="43.62783" lon="0.70328">
        <ele>222.51546541395</ele>
        <time>2020-10-03T15:44:29.000Z</time>
      </trkpt>
      <trkpt lat="43.62784" lon="0.70324">
        <ele>222</ele>
        <time>2020-10-03T15:44:30.000Z</time>
      </trkpt>
      <trkpt lat="43.62784" lon="0.70321">
        <ele>222</ele>
        <time>2020-10-03T15:44:31.000Z</time>
      </trkpt>
      <trkpt lat="43.62784" lon="0.70318">
        <ele>222</ele>
        <time>2020-10-03T15:44:32.000Z</time>
      </trkpt>
      <trkpt lat="43.62784" lon="0.70314">
        <ele>222</ele>
        <time>2020-10-03T15:44:33.000Z</time>
      </trkpt>
      <trkpt lat="43.62785" lon="0.7031">
        <ele>222</ele>
        <time>2020-10-03T15:44:34.000Z</time>
      </trkpt>
      <trkpt lat="43.62785" lon="0.70306">
        <ele>222</ele>
        <time>2020-10-03T15:44:35.000Z</time>
      </trkpt>
      <trkpt lat="43.62786" lon="0.70302">
        <ele>221.16326637235</ele>
        <time>2020-10-03T15:44:36.000Z</time>
      </trkpt>
      <trkpt lat="43.62787" lon="0.70299">
        <ele>220</ele>
        <time>2020-10-03T15:44:37.000Z</time>
      </trkpt>
      <trkpt lat="43.62787" lon="0.70296">
        <ele>220</ele>
        <time>2020-10-03T15:44:38.000Z</time>
      </trkpt>
      <trkpt lat="43.62787" lon="0.70292">
        <ele>219.54545137192</ele>
        <time>2020-10-03T15:44:39.000Z</time>
      </trkpt>
      <trkpt lat="43.62788" lon="0.70289">
        <ele>219</ele>
        <time>2020-10-03T15:44:40.000Z</time>
      </trkpt>
      <trkpt lat="43.62788" lon="0.70285">
        <ele>219</ele>
        <time>2020-10-03T15:44:41.000Z</time>
      </trkpt>
      <trkpt lat="43.62789" lon="0.70282">
        <ele>219</ele>
        <time>2020-10-03T15:44:42.000Z</time>
      </trkpt>
      <trkpt lat="43.62789" lon="0.70278">
        <ele>219</ele>
        <time>2020-10-03T15:44:43.000Z</time>
      </trkpt>
      <trkpt lat="43.62789" lon="0.70275">
        <ele>219</ele>
        <time>2020-10-03T15:44:44.000Z</time>
      </trkpt>
      <trkpt lat="43.6279" lon="0.70272">
        <ele>218.69999817145</ele>
        <time>2020-10-03T15:44:45.000Z</time>
      </trkpt>
      <trkpt lat="43.6279" lon="0.70268">
        <ele>218</ele>
        <time>2020-10-03T15:44:46.000Z</time>
      </trkpt>
      <trkpt lat="43.62791" lon="0.70265">
        <ele>218.59259493371</ele>
        <time>2020-10-03T15:44:47.000Z</time>
      </trkpt>
      <trkpt lat="43.62791" lon="0.70261">
        <ele>220</ele>
        <time>2020-10-03T15:44:48.000Z</time>
      </trkpt>
      <trkpt lat="43.62791" lon="0.70258">
        <ele>220</ele>
        <time>2020-10-03T15:44:49.000Z</time>
      </trkpt>
      <trkpt lat="43.62792" lon="0.70255">
        <ele>220</ele>
        <time>2020-10-03T15:44:50.000Z</time>
      </trkpt>
      <trkpt lat="43.62792" lon="0.70251">
        <ele>220</ele>
        <time>2020-10-03T15:44:51.000Z</time>
      </trkpt>
      <trkpt lat="43.62793" lon="0.70247">
        <ele>219.65115794487</ele>
        <time>2020-10-03T15:44:52.000Z</time>
      </trkpt>
      <trkpt lat="43.62793" lon="0.70244">
        <ele>219</ele>
        <time>2020-10-03T15:44:53.000Z</time>
      </trkpt>
      <trkpt lat="43.62793" lon="0.7024">
        <ele>219</ele>
        <time>2020-10-03T15:44:54.000Z</time>
      </trkpt>
      <trkpt lat="43.62793" lon="0.70237">
        <ele>219</ele>
        <time>2020-10-03T15:44:55.000Z</time>
      </trkpt>
      <trkpt lat="43.62794" lon="0.70233">
        <ele>219</ele>
        <time>2020-10-03T15:44:56.000Z</time>
      </trkpt>
      <trkpt lat="43.62795" lon="0.7023">
        <ele>218.58762750557</ele>
        <time>2020-10-03T15:44:57.000Z</time>
      </trkpt>
      <trkpt lat="43.62796" lon="0.70226">
        <ele>218.45744709823</ele>
        <time>2020-10-03T15:44:58.000Z</time>
      </trkpt>
      <trkpt lat="43.62796" lon="0.70223">
        <ele>219</ele>
        <time>2020-10-03T15:44:59.000Z</time>
      </trkpt>
      <trkpt lat="43.62797" lon="0.70219">
        <ele>219</ele>
        <time>2020-10-03T15:45:00.000Z</time>
      </trkpt>
      <trkpt lat="43.62797" lon="0.70216">
        <ele>219</ele>
        <time>2020-10-03T15:45:01.000Z</time>
      </trkpt>
      <trkpt lat="43.62797" lon="0.70212">
        <ele>219</ele>
        <time>2020-10-03T15:45:02.000Z</time>
      </trkpt>
      <trkpt lat="43.62797" lon="0.70209">
        <ele>219</ele>
        <time>2020-10-03T15:45:03.000Z</time>
      </trkpt>
      <trkpt lat="43.62798" lon="0.70205">
        <ele>219</ele>
        <time>2020-10-03T15:45:04.000Z</time>
      </trkpt>
      <trkpt lat="43.62798" lon="0.70202">
        <ele>219</ele>
        <time>2020-10-03T15:45:05.000Z</time>
      </trkpt>
      <trkpt lat="43.62799" lon="0.70198">
        <ele>219</ele>
        <time>2020-10-03T15:45:06.000Z</time>
      </trkpt>
      <trkpt lat="43.628" lon="0.70195">
        <ele>219</ele>
        <time>2020-10-03T15:45:07.000Z</time>
      </trkpt>
      <trkpt lat="43.628" lon="0.70191">
        <ele>219</ele>
        <time>2020-10-03T15:45:08.000Z</time>
      </trkpt>
      <trkpt lat="43.62801" lon="0.70187">
        <ele>219</ele>
        <time>2020-10-03T15:45:09.000Z</time>
      </trkpt>
      <trkpt lat="43.62801" lon="0.70184">
        <ele>219</ele>
        <time>2020-10-03T15:45:10.000Z</time>
      </trkpt>
      <trkpt lat="43.62802" lon="0.7018">
        <ele>219</ele>
        <time>2020-10-03T15:45:11.000Z</time>
      </trkpt>
      <trkpt lat="43.62803" lon="0.70176">
        <ele>219</ele>
        <time>2020-10-03T15:45:12.000Z</time>
      </trkpt>
      <trkpt lat="43.62803" lon="0.70173">
        <ele>219</ele>
        <time>2020-10-03T15:45:13.000Z</time>
      </trkpt>
      <trkpt lat="43.62804" lon="0.70169">
        <ele>219</ele>
        <time>2020-10-03T15:45:14.000Z</time>
      </trkpt>
      <trkpt lat="43.62804" lon="0.70165">
        <ele>219</ele>
        <time>2020-10-03T15:45:15.000Z</time>
      </trkpt>
      <trkpt lat="43.62804" lon="0.70161">
        <ele>219</ele>
        <time>2020-10-03T15:45:16.000Z</time>
      </trkpt>
      <trkpt lat="43.62805" lon="0.70157">
        <ele>219</ele>
        <time>2020-10-03T15:45:17.000Z</time>
      </trkpt>
      <trkpt lat="43.62805" lon="0.70153">
        <ele>219</ele>
        <time>2020-10-03T15:45:18.000Z</time>
      </trkpt>
      <trkpt lat="43.62805" lon="0.70149">
        <ele>219</ele>
        <time>2020-10-03T15:45:19.000Z</time>
      </trkpt>
      <trkpt lat="43.62806" lon="0.70145">
        <ele>219</ele>
        <time>2020-10-03T15:45:20.000Z</time>
      </trkpt>
      <trkpt lat="43.62806" lon="0.70141">
        <ele>219</ele>
        <time>2020-10-03T15:45:21.000Z</time>
      </trkpt>
      <trkpt lat="43.62807" lon="0.70137">
        <ele>218.32691692308</ele>
        <time>2020-10-03T15:45:22.000Z</time>
      </trkpt>
      <trkpt lat="43.62808" lon="0.70133">
        <ele>217</ele>
        <time>2020-10-03T15:45:23.000Z</time>
      </trkpt>
      <trkpt lat="43.62809" lon="0.7013">
        <ele>217</ele>
        <time>2020-10-03T15:45:24.000Z</time>
      </trkpt>
      <trkpt lat="43.62809" lon="0.70126">
        <ele>217</ele>
        <time>2020-10-03T15:45:25.000Z</time>
      </trkpt>
      <trkpt lat="43.6281" lon="0.70122">
        <ele>217</ele>
        <time>2020-10-03T15:45:26.000Z</time>
      </trkpt>
      <trkpt lat="43.62811" lon="0.70119">
        <ele>216.62352799446</ele>
        <time>2020-10-03T15:45:27.000Z</time>
      </trkpt>
      <trkpt lat="43.62811" lon="0.70115">
        <ele>216</ele>
        <time>2020-10-03T15:45:28.000Z</time>
      </trkpt>
      <trkpt lat="43.62812" lon="0.70111">
        <ele>215.63094857143</ele>
        <time>2020-10-03T15:45:29.000Z</time>
      </trkpt>
      <trkpt lat="43.62812" lon="0.70107">
        <ele>215</ele>
        <time>2020-10-03T15:45:30.000Z</time>
      </trkpt>
      <trkpt lat="43.62812" lon="0.70103">
        <ele>215.36905142857</ele>
        <time>2020-10-03T15:45:31.000Z</time>
      </trkpt>
      <trkpt lat="43.62813" lon="0.701">
        <ele>216</ele>
        <time>2020-10-03T15:45:32.000Z</time>
      </trkpt>
      <trkpt lat="43.62813" lon="0.70096">
        <ele>216</ele>
        <time>2020-10-03T15:45:33.000Z</time>
      </trkpt>
      <trkpt lat="43.62813" lon="0.70092">
        <ele>216.4188018292</ele>
        <time>2020-10-03T15:45:34.000Z</time>
      </trkpt>
      <trkpt lat="43.62814" lon="0.70088">
        <ele>217</ele>
        <time>2020-10-03T15:45:35.000Z</time>
      </trkpt>
      <trkpt lat="43.62814" lon="0.70084">
        <ele>217</ele>
        <time>2020-10-03T15:45:36.000Z</time>
      </trkpt>
      <trkpt lat="43.62815" lon="0.70081">
        <ele>217</ele>
        <time>2020-10-03T15:45:37.000Z</time>
      </trkpt>
      <trkpt lat="43.62816" lon="0.70077">
        <ele>217</ele>
        <time>2020-10-03T15:45:38.000Z</time>
      </trkpt>
      <trkpt lat="43.62816" lon="0.70073">
        <ele>217</ele>
        <time>2020-10-03T15:45:39.000Z</time>
      </trkpt>
      <trkpt lat="43.62817" lon="0.7007">
        <ele>217</ele>
        <time>2020-10-03T15:45:40.000Z</time>
      </trkpt>
      <trkpt lat="43.62817" lon="0.70066">
        <ele>217</ele>
        <time>2020-10-03T15:45:41.000Z</time>
      </trkpt>
      <trkpt lat="43.62818" lon="0.70062">
        <ele>217</ele>
        <time>2020-10-03T15:45:42.000Z</time>
      </trkpt>
      <trkpt lat="43.62818" lon="0.70058">
        <ele>216.75640815255</ele>
        <time>2020-10-03T15:45:43.000Z</time>
      </trkpt>
      <trkpt lat="43.62819" lon="0.70055">
        <ele>216</ele>
        <time>2020-10-03T15:45:44.000Z</time>
      </trkpt>
      <trkpt lat="43.62819" lon="0.70051">
        <ele>216</ele>
        <time>2020-10-03T15:45:45.000Z</time>
      </trkpt>
      <trkpt lat="43.6282" lon="0.70048">
        <ele>216</ele>
        <time>2020-10-03T15:45:46.000Z</time>
      </trkpt>
      <trkpt lat="43.6282" lon="0.70044">
        <ele>216</ele>
        <time>2020-10-03T15:45:47.000Z</time>
      </trkpt>
      <trkpt lat="43.6282" lon="0.7004">
        <ele>216</ele>
        <time>2020-10-03T15:45:48.000Z</time>
      </trkpt>
      <trkpt lat="43.62821" lon="0.70037">
        <ele>216</ele>
        <time>2020-10-03T15:45:49.000Z</time>
      </trkpt>
      <trkpt lat="43.62822" lon="0.70033">
        <ele>216</ele>
        <time>2020-10-03T15:45:50.000Z</time>
      </trkpt>
      <trkpt lat="43.62822" lon="0.7003">
        <ele>216</ele>
        <time>2020-10-03T15:45:51.000Z</time>
      </trkpt>
      <trkpt lat="43.62823" lon="0.70026">
        <ele>216</ele>
        <time>2020-10-03T15:45:52.000Z</time>
      </trkpt>
      <trkpt lat="43.62823" lon="0.70023">
        <ele>216</ele>
        <time>2020-10-03T15:45:53.000Z</time>
      </trkpt>
      <trkpt lat="43.62824" lon="0.70019">
        <ele>216</ele>
        <time>2020-10-03T15:45:54.000Z</time>
      </trkpt>
      <trkpt lat="43.62824" lon="0.70015">
        <ele>216</ele>
        <time>2020-10-03T15:45:55.000Z</time>
      </trkpt>
      <trkpt lat="43.62825" lon="0.70012">
        <ele>216.27678857143</ele>
        <time>2020-10-03T15:45:56.000Z</time>
      </trkpt>
      <trkpt lat="43.62825" lon="0.70008">
        <ele>217</ele>
        <time>2020-10-03T15:45:57.000Z</time>
      </trkpt>
      <trkpt lat="43.62826" lon="0.70004">
        <ele>217</ele>
        <time>2020-10-03T15:45:58.000Z</time>
      </trkpt>
      <trkpt lat="43.62826" lon="0.70001">
        <ele>217</ele>
        <time>2020-10-03T15:45:59.000Z</time>
      </trkpt>
      <trkpt lat="43.62826" lon="0.69998">
        <ele>217</ele>
        <time>2020-10-03T15:46:00.000Z</time>
      </trkpt>
      <trkpt lat="43.62827" lon="0.69994">
        <ele>217</ele>
        <time>2020-10-03T15:46:01.000Z</time>
      </trkpt>
      <trkpt lat="43.62827" lon="0.69991">
        <ele>217</ele>
        <time>2020-10-03T15:46:02.000Z</time>
      </trkpt>
      <trkpt lat="43.62828" lon="0.69987">
        <ele>217</ele>
        <time>2020-10-03T15:46:03.000Z</time>
      </trkpt>
      <trkpt lat="43.62828" lon="0.69984">
        <ele>217</ele>
        <time>2020-10-03T15:46:04.000Z</time>
      </trkpt>
      <trkpt lat="43.62829" lon="0.6998">
        <ele>216.61111032099</ele>
        <time>2020-10-03T15:46:05.000Z</time>
      </trkpt>
      <trkpt lat="43.62829" lon="0.69977">
        <ele>216</ele>
        <time>2020-10-03T15:46:06.000Z</time>
      </trkpt>
      <trkpt lat="43.6283" lon="0.69973">
        <ele>216.38637090909</ele>
        <time>2020-10-03T15:46:07.000Z</time>
      </trkpt>
      <trkpt lat="43.62831" lon="0.6997">
        <ele>217</ele>
        <time>2020-10-03T15:46:08.000Z</time>
      </trkpt>
      <trkpt lat="43.62831" lon="0.69966">
        <ele>217</ele>
        <time>2020-10-03T15:46:09.000Z</time>
      </trkpt>
      <trkpt lat="43.62832" lon="0.69963">
        <ele>217</ele>
        <time>2020-10-03T15:46:10.000Z</time>
      </trkpt>
      <trkpt lat="43.62832" lon="0.69959">
        <ele>217</ele>
        <time>2020-10-03T15:46:11.000Z</time>
      </trkpt>
      <trkpt lat="43.62832" lon="0.69956">
        <ele>217</ele>
        <time>2020-10-03T15:46:12.000Z</time>
      </trkpt>
      <trkpt lat="43.62833" lon="0.69953">
        <ele>217</ele>
        <time>2020-10-03T15:46:13.000Z</time>
      </trkpt>
      <trkpt lat="43.62833" lon="0.69949">
        <ele>217</ele>
        <time>2020-10-03T15:46:14.000Z</time>
      </trkpt>
      <trkpt lat="43.62834" lon="0.69946">
        <ele>217</ele>
        <time>2020-10-03T15:46:15.000Z</time>
      </trkpt>
      <trkpt lat="43.62835" lon="0.69943">
        <ele>217</ele>
        <time>2020-10-03T15:46:16.000Z</time>
      </trkpt>
      <trkpt lat="43.62835" lon="0.69939">
        <ele>217</ele>
        <time>2020-10-03T15:46:17.000Z</time>
      </trkpt>
      <trkpt lat="43.62836" lon="0.69936">
        <ele>217</ele>
        <time>2020-10-03T15:46:18.000Z</time>
      </trkpt>
      <trkpt lat="43.62836" lon="0.69932">
        <ele>217</ele>
        <time>2020-10-03T15:46:19.000Z</time>
      </trkpt>
      <trkpt lat="43.62837" lon="0.69929">
        <ele>217</ele>
        <time>2020-10-03T15:46:20.000Z</time>
      </trkpt>
      <trkpt lat="43.62837" lon="0.69925">
        <ele>217</ele>
        <time>2020-10-03T15:46:21.000Z</time>
      </trkpt>
      <trkpt lat="43.62837" lon="0.69921">
        <ele>217</ele>
        <time>2020-10-03T15:46:22.000Z</time>
      </trkpt>
      <trkpt lat="43.62837" lon="0.69918">
        <ele>217</ele>
        <time>2020-10-03T15:46:23.000Z</time>
      </trkpt>
      <trkpt lat="43.62838" lon="0.69914">
        <ele>216.57008876235</ele>
        <time>2020-10-03T15:46:24.000Z</time>
      </trkpt>
      <trkpt lat="43.62838" lon="0.6991">
        <ele>216</ele>
        <time>2020-10-03T15:46:25.000Z</time>
      </trkpt>
      <trkpt lat="43.62838" lon="0.69906">
        <ele>216</ele>
        <time>2020-10-03T15:46:26.000Z</time>
      </trkpt>
      <trkpt lat="43.62838" lon="0.69903">
        <ele>216</ele>
        <time>2020-10-03T15:46:27.000Z</time>
      </trkpt>
      <trkpt lat="43.62839" lon="0.69899">
        <ele>216</ele>
        <time>2020-10-03T15:46:28.000Z</time>
      </trkpt>
      <trkpt lat="43.62839" lon="0.69895">
        <ele>216</ele>
        <time>2020-10-03T15:46:29.000Z</time>
      </trkpt>
      <trkpt lat="43.6284" lon="0.69891">
        <ele>215.61261084653</ele>
        <time>2020-10-03T15:46:30.000Z</time>
      </trkpt>
      <trkpt lat="43.62841" lon="0.69887">
        <ele>215</ele>
        <time>2020-10-03T15:46:31.000Z</time>
      </trkpt>
      <trkpt lat="43.62842" lon="0.69883">
        <ele>215</ele>
        <time>2020-10-03T15:46:32.000Z</time>
      </trkpt>
      <trkpt lat="43.62842" lon="0.6988">
        <ele>214.66428342857</ele>
        <time>2020-10-03T15:46:33.000Z</time>
      </trkpt>
      <trkpt lat="43.62843" lon="0.69877">
        <ele>214</ele>
        <time>2020-10-03T15:46:34.000Z</time>
      </trkpt>
      <trkpt lat="43.62844" lon="0.69873">
        <ele>213.84270325466</ele>
        <time>2020-10-03T15:46:35.000Z</time>
      </trkpt>
      <trkpt lat="43.62845" lon="0.69869">
        <ele>213</ele>
        <time>2020-10-03T15:46:36.000Z</time>
      </trkpt>
      <trkpt lat="43.62845" lon="0.69865">
        <ele>213</ele>
        <time>2020-10-03T15:46:37.000Z</time>
      </trkpt>
      <trkpt lat="43.62846" lon="0.69861">
        <ele>212.55768615385</ele>
        <time>2020-10-03T15:46:38.000Z</time>
      </trkpt>
      <trkpt lat="43.62847" lon="0.69857">
        <ele>212</ele>
        <time>2020-10-03T15:46:39.000Z</time>
      </trkpt>
      <trkpt lat="43.62847" lon="0.69854">
        <ele>212</ele>
        <time>2020-10-03T15:46:40.000Z</time>
      </trkpt>
      <trkpt lat="43.62848" lon="0.6985">
        <ele>212</ele>
        <time>2020-10-03T15:46:41.000Z</time>
      </trkpt>
      <trkpt lat="43.62848" lon="0.69846">
        <ele>212</ele>
        <time>2020-10-03T15:46:42.000Z</time>
      </trkpt>
      <trkpt lat="43.62849" lon="0.69842">
        <ele>212</ele>
        <time>2020-10-03T15:46:43.000Z</time>
      </trkpt>
      <trkpt lat="43.62849" lon="0.69838">
        <ele>212</ele>
        <time>2020-10-03T15:46:44.000Z</time>
      </trkpt>
      <trkpt lat="43.6285" lon="0.69835">
        <ele>212</ele>
        <time>2020-10-03T15:46:45.000Z</time>
      </trkpt>
      <trkpt lat="43.6285" lon="0.69831">
        <ele>212</ele>
        <time>2020-10-03T15:46:46.000Z</time>
      </trkpt>
      <trkpt lat="43.62851" lon="0.69827">
        <ele>212</ele>
        <time>2020-10-03T15:46:47.000Z</time>
      </trkpt>
      <trkpt lat="43.62851" lon="0.69823">
        <ele>212</ele>
        <time>2020-10-03T15:46:48.000Z</time>
      </trkpt>
      <trkpt lat="43.62852" lon="0.69819">
        <ele>212</ele>
        <time>2020-10-03T15:46:49.000Z</time>
      </trkpt>
      <trkpt lat="43.62852" lon="0.69816">
        <ele>211.52</ele>
        <time>2020-10-03T15:46:50.000Z</time>
      </trkpt>
      <trkpt lat="43.62853" lon="0.69812">
        <ele>211</ele>
        <time>2020-10-03T15:46:51.000Z</time>
      </trkpt>
      <trkpt lat="43.62854" lon="0.69809">
        <ele>211</ele>
        <time>2020-10-03T15:46:52.000Z</time>
      </trkpt>
      <trkpt lat="43.62854" lon="0.69805">
        <ele>211</ele>
        <time>2020-10-03T15:46:53.000Z</time>
      </trkpt>
      <trkpt lat="43.62855" lon="0.69801">
        <ele>211</ele>
        <time>2020-10-03T15:46:54.000Z</time>
      </trkpt>
      <trkpt lat="43.62856" lon="0.69798">
        <ele>210.57999897601</ele>
        <time>2020-10-03T15:46:55.000Z</time>
      </trkpt>
      <trkpt lat="43.62856" lon="0.69795">
        <ele>210</ele>
        <time>2020-10-03T15:46:56.000Z</time>
      </trkpt>
      <trkpt lat="43.62857" lon="0.69791">
        <ele>210.41284231293</ele>
        <time>2020-10-03T15:46:57.000Z</time>
      </trkpt>
      <trkpt lat="43.62858" lon="0.69787">
        <ele>211</ele>
        <time>2020-10-03T15:46:58.000Z</time>
      </trkpt>
      <trkpt lat="43.62859" lon="0.69784">
        <ele>211</ele>
        <time>2020-10-03T15:46:59.000Z</time>
      </trkpt>
      <trkpt lat="43.62859" lon="0.6978">
        <ele>211</ele>
        <time>2020-10-03T15:47:00.000Z</time>
      </trkpt>
      <trkpt lat="43.6286" lon="0.69776">
        <ele>211</ele>
        <time>2020-10-03T15:47:01.000Z</time>
      </trkpt>
      <trkpt lat="43.6286" lon="0.69772">
        <ele>211</ele>
        <time>2020-10-03T15:47:02.000Z</time>
      </trkpt>
      <trkpt lat="43.62861" lon="0.69768">
        <ele>210.61362909091</ele>
        <time>2020-10-03T15:47:03.000Z</time>
      </trkpt>
      <trkpt lat="43.62861" lon="0.69764">
        <ele>210</ele>
        <time>2020-10-03T15:47:04.000Z</time>
      </trkpt>
      <trkpt lat="43.62862" lon="0.6976">
        <ele>210</ele>
        <time>2020-10-03T15:47:05.000Z</time>
      </trkpt>
      <trkpt lat="43.62863" lon="0.69756">
        <ele>210</ele>
        <time>2020-10-03T15:47:06.000Z</time>
      </trkpt>
      <trkpt lat="43.62864" lon="0.69753">
        <ele>209.57017583257</ele>
        <time>2020-10-03T15:47:07.000Z</time>
      </trkpt>
      <trkpt lat="43.62865" lon="0.69749">
        <ele>209</ele>
        <time>2020-10-03T15:47:08.000Z</time>
      </trkpt>
      <trkpt lat="43.62866" lon="0.69746">
        <ele>209</ele>
        <time>2020-10-03T15:47:09.000Z</time>
      </trkpt>
      <trkpt lat="43.62867" lon="0.69742">
        <ele>209</ele>
        <time>2020-10-03T15:47:10.000Z</time>
      </trkpt>
      <trkpt lat="43.62867" lon="0.69739">
        <ele>209</ele>
        <time>2020-10-03T15:47:11.000Z</time>
      </trkpt>
      <trkpt lat="43.62868" lon="0.69736">
        <ele>209</ele>
        <time>2020-10-03T15:47:12.000Z</time>
      </trkpt>
      <trkpt lat="43.62869" lon="0.69732">
        <ele>209</ele>
        <time>2020-10-03T15:47:13.000Z</time>
      </trkpt>
      <trkpt lat="43.6287" lon="0.69728">
        <ele>208.58000102401</ele>
        <time>2020-10-03T15:47:14.000Z</time>
      </trkpt>
      <trkpt lat="43.62871" lon="0.69725">
        <ele>208</ele>
        <time>2020-10-03T15:47:15.000Z</time>
      </trkpt>
      <trkpt lat="43.62872" lon="0.69721">
        <ele>208</ele>
        <time>2020-10-03T15:47:16.000Z</time>
      </trkpt>
      <trkpt lat="43.62873" lon="0.69717">
        <ele>208</ele>
        <time>2020-10-03T15:47:17.000Z</time>
      </trkpt>
      <trkpt lat="43.62874" lon="0.69713">
        <ele>208</ele>
        <time>2020-10-03T15:47:18.000Z</time>
      </trkpt>
      <trkpt lat="43.62875" lon="0.6971">
        <ele>208</ele>
        <time>2020-10-03T15:47:19.000Z</time>
      </trkpt>
      <trkpt lat="43.62876" lon="0.69706">
        <ele>208</ele>
        <time>2020-10-03T15:47:20.000Z</time>
      </trkpt>
      <trkpt lat="43.62877" lon="0.69702">
        <ele>208</ele>
        <time>2020-10-03T15:47:21.000Z</time>
      </trkpt>
      <trkpt lat="43.62878" lon="0.69699">
        <ele>208</ele>
        <time>2020-10-03T15:47:22.000Z</time>
      </trkpt>
      <trkpt lat="43.62879" lon="0.69695">
        <ele>207.58182156696</ele>
        <time>2020-10-03T15:47:23.000Z</time>
      </trkpt>
      <trkpt lat="43.6288" lon="0.69691">
        <ele>207</ele>
        <time>2020-10-03T15:47:24.000Z</time>
      </trkpt>
      <trkpt lat="43.62881" lon="0.69687">
        <ele>207</ele>
        <time>2020-10-03T15:47:25.000Z</time>
      </trkpt>
      <trkpt lat="43.62882" lon="0.69684">
        <ele>207</ele>
        <time>2020-10-03T15:47:26.000Z</time>
      </trkpt>
      <trkpt lat="43.62883" lon="0.6968">
        <ele>207</ele>
        <time>2020-10-03T15:47:27.000Z</time>
      </trkpt>
      <trkpt lat="43.62884" lon="0.69677">
        <ele>207</ele>
        <time>2020-10-03T15:47:28.000Z</time>
      </trkpt>
      <trkpt lat="43.62885" lon="0.69673">
        <ele>206.78571167349</ele>
        <time>2020-10-03T15:47:29.000Z</time>
      </trkpt>
      <trkpt lat="43.62886" lon="0.69669">
        <ele>206</ele>
        <time>2020-10-03T15:47:30.000Z</time>
      </trkpt>
      <trkpt lat="43.62887" lon="0.69665">
        <ele>206</ele>
        <time>2020-10-03T15:47:31.000Z</time>
      </trkpt>
      <trkpt lat="43.62888" lon="0.69661">
        <ele>206</ele>
        <time>2020-10-03T15:47:32.000Z</time>
      </trkpt>
      <trkpt lat="43.62889" lon="0.69658">
        <ele>206</ele>
        <time>2020-10-03T15:47:33.000Z</time>
      </trkpt>
      <trkpt lat="43.6289" lon="0.69654">
        <ele>206</ele>
        <time>2020-10-03T15:47:34.000Z</time>
      </trkpt>
      <trkpt lat="43.62891" lon="0.6965">
        <ele>206</ele>
        <time>2020-10-03T15:47:35.000Z</time>
      </trkpt>
      <trkpt lat="43.62892" lon="0.69647">
        <ele>206</ele>
        <time>2020-10-03T15:47:36.000Z</time>
      </trkpt>
      <trkpt lat="43.62893" lon="0.69643">
        <ele>206</ele>
        <time>2020-10-03T15:47:37.000Z</time>
      </trkpt>
      <trkpt lat="43.62894" lon="0.69639">
        <ele>206</ele>
        <time>2020-10-03T15:47:38.000Z</time>
      </trkpt>
      <trkpt lat="43.62895" lon="0.69636">
        <ele>206</ele>
        <time>2020-10-03T15:47:39.000Z</time>
      </trkpt>
      <trkpt lat="43.62896" lon="0.69632">
        <ele>206</ele>
        <time>2020-10-03T15:47:40.000Z</time>
      </trkpt>
      <trkpt lat="43.62897" lon="0.69628">
        <ele>205.57575248242</ele>
        <time>2020-10-03T15:47:41.000Z</time>
      </trkpt>
      <trkpt lat="43.62897" lon="0.69624">
        <ele>205</ele>
        <time>2020-10-03T15:47:42.000Z</time>
      </trkpt>
      <trkpt lat="43.62898" lon="0.6962">
        <ele>204.62500363636</ele>
        <time>2020-10-03T15:47:43.000Z</time>
      </trkpt>
      <trkpt lat="43.629" lon="0.69616">
        <ele>204</ele>
        <time>2020-10-03T15:47:44.000Z</time>
      </trkpt>
      <trkpt lat="43.62901" lon="0.69612">
        <ele>204</ele>
        <time>2020-10-03T15:47:45.000Z</time>
      </trkpt>
      <trkpt lat="43.62902" lon="0.69609">
        <ele>204</ele>
        <time>2020-10-03T15:47:46.000Z</time>
      </trkpt>
      <trkpt lat="43.62902" lon="0.69605">
        <ele>204</ele>
        <time>2020-10-03T15:47:47.000Z</time>
      </trkpt>
      <trkpt lat="43.62903" lon="0.69601">
        <ele>203.62500571429</ele>
        <time>2020-10-03T15:47:48.000Z</time>
      </trkpt>
      <trkpt lat="43.62904" lon="0.69597">
        <ele>203</ele>
        <time>2020-10-03T15:47:49.000Z</time>
      </trkpt>
      <trkpt lat="43.62905" lon="0.69593">
        <ele>202.60360474636</ele>
        <time>2020-10-03T15:47:50.000Z</time>
      </trkpt>
      <trkpt lat="43.62906" lon="0.69589">
        <ele>202</ele>
        <time>2020-10-03T15:47:51.000Z</time>
      </trkpt>
      <trkpt lat="43.62907" lon="0.69586">
        <ele>202</ele>
        <time>2020-10-03T15:47:52.000Z</time>
      </trkpt>
      <trkpt lat="43.62908" lon="0.69582">
        <ele>201.65384615385</ele>
        <time>2020-10-03T15:47:53.000Z</time>
      </trkpt>
      <trkpt lat="43.62909" lon="0.69579">
        <ele>201</ele>
        <time>2020-10-03T15:47:54.000Z</time>
      </trkpt>
      <trkpt lat="43.6291" lon="0.69575">
        <ele>201</ele>
        <time>2020-10-03T15:47:55.000Z</time>
      </trkpt>
      <trkpt lat="43.62912" lon="0.69571">
        <ele>201</ele>
        <time>2020-10-03T15:47:56.000Z</time>
      </trkpt>
      <trkpt lat="43.62913" lon="0.69568">
        <ele>201</ele>
        <time>2020-10-03T15:47:57.000Z</time>
      </trkpt>
      <trkpt lat="43.62914" lon="0.69564">
        <ele>201</ele>
        <time>2020-10-03T15:47:58.000Z</time>
      </trkpt>
      <trkpt lat="43.62915" lon="0.6956">
        <ele>201</ele>
        <time>2020-10-03T15:47:59.000Z</time>
      </trkpt>
      <trkpt lat="43.62916" lon="0.69556">
        <ele>201</ele>
        <time>2020-10-03T15:48:00.000Z</time>
      </trkpt>
      <trkpt lat="43.62917" lon="0.69553">
        <ele>201</ele>
        <time>2020-10-03T15:48:01.000Z</time>
      </trkpt>
      <trkpt lat="43.62918" lon="0.69549">
        <ele>201</ele>
        <time>2020-10-03T15:48:02.000Z</time>
      </trkpt>
      <trkpt lat="43.62919" lon="0.69545">
        <ele>201</ele>
        <time>2020-10-03T15:48:03.000Z</time>
      </trkpt>
      <trkpt lat="43.6292" lon="0.69541">
        <ele>201</ele>
        <time>2020-10-03T15:48:04.000Z</time>
      </trkpt>
      <trkpt lat="43.62921" lon="0.69537">
        <ele>201</ele>
        <time>2020-10-03T15:48:05.000Z</time>
      </trkpt>
      <trkpt lat="43.62922" lon="0.69533">
        <ele>201</ele>
        <time>2020-10-03T15:48:06.000Z</time>
      </trkpt>
      <trkpt lat="43.62923" lon="0.69529">
        <ele>201</ele>
        <time>2020-10-03T15:48:07.000Z</time>
      </trkpt>
      <trkpt lat="43.62924" lon="0.69526">
        <ele>200.59374666667</ele>
        <time>2020-10-03T15:48:08.000Z</time>
      </trkpt>
      <trkpt lat="43.62924" lon="0.69522">
        <ele>200</ele>
        <time>2020-10-03T15:48:09.000Z</time>
      </trkpt>
      <trkpt lat="43.62925" lon="0.69518">
        <ele>200</ele>
        <time>2020-10-03T15:48:10.000Z</time>
      </trkpt>
      <trkpt lat="43.62926" lon="0.69514">
        <ele>199.58095110385</ele>
        <time>2020-10-03T15:48:11.000Z</time>
      </trkpt>
      <trkpt lat="43.62926" lon="0.69511">
        <ele>199</ele>
        <time>2020-10-03T15:48:12.000Z</time>
      </trkpt>
      <trkpt lat="43.62926" lon="0.69507">
        <ele>199</ele>
        <time>2020-10-03T15:48:13.000Z</time>
      </trkpt>
      <trkpt lat="43.62926" lon="0.69503">
        <ele>199</ele>
        <time>2020-10-03T15:48:14.000Z</time>
      </trkpt>
      <trkpt lat="43.62925" lon="0.695">
        <ele>199</ele>
        <time>2020-10-03T15:48:15.000Z</time>
      </trkpt>
      <trkpt lat="43.62924" lon="0.69497">
        <ele>199</ele>
        <time>2020-10-03T15:48:16.000Z</time>
      </trkpt>
      <trkpt lat="43.62922" lon="0.69494">
        <ele>199</ele>
        <time>2020-10-03T15:48:17.000Z</time>
      </trkpt>
      <trkpt lat="43.6292" lon="0.69491">
        <ele>198.1619022077</ele>
        <time>2020-10-03T15:48:18.000Z</time>
      </trkpt>
      <trkpt lat="43.62918" lon="0.69488">
        <ele>197</ele>
        <time>2020-10-03T15:48:19.000Z</time>
      </trkpt>
      <trkpt lat="43.62917" lon="0.69485">
        <ele>196.01398150717</ele>
        <time>2020-10-03T15:48:20.000Z</time>
      </trkpt>
      <trkpt lat="43.62914" lon="0.69482">
        <ele>194</ele>
        <time>2020-10-03T15:48:21.000Z</time>
      </trkpt>
      <trkpt lat="43.62914" lon="0.69479">
        <ele>194</ele>
        <time>2020-10-03T15:48:22.000Z</time>
      </trkpt>
      <trkpt lat="43.62914" lon="0.69475">
        <ele>194</ele>
        <time>2020-10-03T15:48:23.000Z</time>
      </trkpt>
      <trkpt lat="43.62916" lon="0.69472">
        <ele>194</ele>
        <time>2020-10-03T15:48:24.000Z</time>
      </trkpt>
      <trkpt lat="43.62918" lon="0.6947">
        <ele>194</ele>
        <time>2020-10-03T15:48:25.000Z</time>
      </trkpt>
      <trkpt lat="43.6292" lon="0.69467">
        <ele>194</ele>
        <time>2020-10-03T15:48:26.000Z</time>
      </trkpt>
      <trkpt lat="43.62922" lon="0.69465">
        <ele>193.10476399454</ele>
        <time>2020-10-03T15:48:27.000Z</time>
      </trkpt>
      <trkpt lat="43.62924" lon="0.69462">
        <ele>192</ele>
        <time>2020-10-03T15:48:28.000Z</time>
      </trkpt>
      <trkpt lat="43.62927" lon="0.6946">
        <ele>192</ele>
        <time>2020-10-03T15:48:29.000Z</time>
      </trkpt>
      <trkpt lat="43.62929" lon="0.69456">
        <ele>191.08257785711</ele>
        <time>2020-10-03T15:48:30.000Z</time>
      </trkpt>
      <trkpt lat="43.62931" lon="0.69452">
        <ele>190</ele>
        <time>2020-10-03T15:48:31.000Z</time>
      </trkpt>
      <trkpt lat="43.62934" lon="0.69448">
        <ele>188.78898727042</ele>
        <time>2020-10-03T15:48:32.000Z</time>
      </trkpt>
      <trkpt lat="43.62935" lon="0.69444">
        <ele>187</ele>
        <time>2020-10-03T15:48:33.000Z</time>
      </trkpt>
      <trkpt lat="43.62936" lon="0.6944">
        <ele>187</ele>
        <time>2020-10-03T15:48:34.000Z</time>
      </trkpt>
      <trkpt lat="43.62935" lon="0.69425">
        <ele>187</ele>
        <time>2020-10-03T15:48:38.000Z</time>
      </trkpt>
      <trkpt lat="43.62928" lon="0.69412">
        <ele>186</ele>
        <time>2020-10-03T15:48:42.000Z</time>
      </trkpt>
      <trkpt lat="43.62922" lon="0.69402">
        <ele>184</ele>
        <time>2020-10-03T15:48:45.000Z</time>
      </trkpt>
      <trkpt lat="43.62916" lon="0.69388">
        <ele>184</ele>
        <time>2020-10-03T15:48:49.000Z</time>
      </trkpt>
      <trkpt lat="43.62916" lon="0.69372">
        <ele>184</ele>
        <time>2020-10-03T15:48:53.000Z</time>
      </trkpt>
      <trkpt lat="43.6292" lon="0.69359">
        <ele>184</ele>
        <time>2020-10-03T15:48:57.000Z</time>
      </trkpt>
      <trkpt lat="43.62921" lon="0.69355">
        <ele>184</ele>
        <time>2020-10-03T15:48:58.000Z</time>
      </trkpt>
      <trkpt lat="43.62921" lon="0.69352">
        <ele>184</ele>
        <time>2020-10-03T15:48:59.000Z</time>
      </trkpt>
      <trkpt lat="43.62922" lon="0.6935">
        <ele>184</ele>
        <time>2020-10-03T15:49:00.000Z</time>
      </trkpt>
      <trkpt lat="43.62924" lon="0.69347">
        <ele>184.35513739189</ele>
        <time>2020-10-03T15:49:01.000Z</time>
      </trkpt>
      <trkpt lat="43.62925" lon="0.69344">
        <ele>185</ele>
        <time>2020-10-03T15:49:02.000Z</time>
      </trkpt>
      <trkpt lat="43.62926" lon="0.69341">
        <ele>185</ele>
        <time>2020-10-03T15:49:03.000Z</time>
      </trkpt>
      <trkpt lat="43.62927" lon="0.69339">
        <ele>185</ele>
        <time>2020-10-03T15:49:04.000Z</time>
      </trkpt>
      <trkpt lat="43.62928" lon="0.69336">
        <ele>185</ele>
        <time>2020-10-03T15:49:05.000Z</time>
      </trkpt>
      <trkpt lat="43.62929" lon="0.69333">
        <ele>185</ele>
        <time>2020-10-03T15:49:06.000Z</time>
      </trkpt>
      <trkpt lat="43.6293" lon="0.69329">
        <ele>185</ele>
        <time>2020-10-03T15:49:08.000Z</time>
      </trkpt>
      <trkpt lat="43.62932" lon="0.69326">
        <ele>185.45871107145</ele>
        <time>2020-10-03T15:49:10.000Z</time>
      </trkpt>
      <trkpt lat="43.62934" lon="0.69322">
        <ele>186</ele>
        <time>2020-10-03T15:49:12.000Z</time>
      </trkpt>
      <trkpt lat="43.62935" lon="0.69319">
        <ele>186</ele>
        <time>2020-10-03T15:49:14.000Z</time>
      </trkpt>
      <trkpt lat="43.62937" lon="0.69315">
        <ele>187</ele>
        <time>2020-10-03T15:49:16.000Z</time>
      </trkpt>
      <trkpt lat="43.62938" lon="0.69312">
        <ele>187</ele>
        <time>2020-10-03T15:49:18.000Z</time>
      </trkpt>
      <trkpt lat="43.62939" lon="0.69309">
        <ele>187</ele>
        <time>2020-10-03T15:49:20.000Z</time>
      </trkpt>
      <trkpt lat="43.62941" lon="0.69305">
        <ele>189</ele>
        <time>2020-10-03T15:49:22.000Z</time>
      </trkpt>
      <trkpt lat="43.62942" lon="0.69302">
        <ele>189</ele>
        <time>2020-10-03T15:49:24.000Z</time>
      </trkpt>
      <trkpt lat="43.62944" lon="0.69299">
        <ele>189</ele>
        <time>2020-10-03T15:49:26.000Z</time>
      </trkpt>
      <trkpt lat="43.62945" lon="0.69296">
        <ele>189</ele>
        <time>2020-10-03T15:49:28.000Z</time>
      </trkpt>
      <trkpt lat="43.62946" lon="0.69292">
        <ele>189</ele>
        <time>2020-10-03T15:49:30.000Z</time>
      </trkpt>
      <trkpt lat="43.62948" lon="0.69289">
        <ele>189</ele>
        <time>2020-10-03T15:49:32.000Z</time>
      </trkpt>
      <trkpt lat="43.62949" lon="0.69286">
        <ele>191</ele>
        <time>2020-10-03T15:49:34.000Z</time>
      </trkpt>
      <trkpt lat="43.6295" lon="0.69283">
        <ele>191</ele>
        <time>2020-10-03T15:49:36.000Z</time>
      </trkpt>
      <trkpt lat="43.62952" lon="0.69279">
        <ele>191</ele>
        <time>2020-10-03T15:49:38.000Z</time>
      </trkpt>
      <trkpt lat="43.62953" lon="0.69276">
        <ele>191</ele>
        <time>2020-10-03T15:49:40.000Z</time>
      </trkpt>
      <trkpt lat="43.62955" lon="0.6927">
        <ele>192</ele>
        <time>2020-10-03T15:49:45.000Z</time>
      </trkpt>
      <trkpt lat="43.62956" lon="0.69267">
        <ele>192</ele>
        <time>2020-10-03T15:49:47.000Z</time>
      </trkpt>
      <trkpt lat="43.62958" lon="0.69263">
        <ele>192.27928135703</ele>
        <time>2020-10-03T15:49:49.000Z</time>
      </trkpt>
      <trkpt lat="43.62959" lon="0.6926">
        <ele>193</ele>
        <time>2020-10-03T15:49:51.000Z</time>
      </trkpt>
      <trkpt lat="43.6296" lon="0.69257">
        <ele>193</ele>
        <time>2020-10-03T15:49:53.000Z</time>
      </trkpt>
      <trkpt lat="43.62962" lon="0.69253">
        <ele>193</ele>
        <time>2020-10-03T15:49:55.000Z</time>
      </trkpt>
      <trkpt lat="43.62963" lon="0.69251">
        <ele>193.40476045349</ele>
        <time>2020-10-03T15:49:56.000Z</time>
      </trkpt>
      <trkpt lat="43.62965" lon="0.69246">
        <ele>194.32539593852</ele>
        <time>2020-10-03T15:49:58.000Z</time>
      </trkpt>
      <trkpt lat="43.62966" lon="0.69243">
        <ele>195</ele>
        <time>2020-10-03T15:50:00.000Z</time>
      </trkpt>
      <trkpt lat="43.62968" lon="0.69239">
        <ele>195</ele>
        <time>2020-10-03T15:50:02.000Z</time>
      </trkpt>
      <trkpt lat="43.62969" lon="0.69236">
        <ele>195</ele>
        <time>2020-10-03T15:50:04.000Z</time>
      </trkpt>
      <trkpt lat="43.62971" lon="0.69233">
        <ele>195</ele>
        <time>2020-10-03T15:50:06.000Z</time>
      </trkpt>
      <trkpt lat="43.62973" lon="0.69229">
        <ele>195</ele>
        <time>2020-10-03T15:50:08.000Z</time>
      </trkpt>
      <trkpt lat="43.62974" lon="0.69225">
        <ele>196</ele>
        <time>2020-10-03T15:50:10.000Z</time>
      </trkpt>
      <trkpt lat="43.62975" lon="0.69222">
        <ele>196</ele>
        <time>2020-10-03T15:50:12.000Z</time>
      </trkpt>
      <trkpt lat="43.62977" lon="0.69219">
        <ele>196</ele>
        <time>2020-10-03T15:50:14.000Z</time>
      </trkpt>
      <trkpt lat="43.62978" lon="0.69216">
        <ele>197</ele>
        <time>2020-10-03T15:50:16.000Z</time>
      </trkpt>
      <trkpt lat="43.6298" lon="0.69212">
        <ele>198</ele>
        <time>2020-10-03T15:50:18.000Z</time>
      </trkpt>
      <trkpt lat="43.62981" lon="0.69209">
        <ele>198</ele>
        <time>2020-10-03T15:50:20.000Z</time>
      </trkpt>
      <trkpt lat="43.62983" lon="0.69206">
        <ele>198</ele>
        <time>2020-10-03T15:50:22.000Z</time>
      </trkpt>
      <trkpt lat="43.62985" lon="0.69202">
        <ele>198</ele>
        <time>2020-10-03T15:50:24.000Z</time>
      </trkpt>
      <trkpt lat="43.62987" lon="0.69199">
        <ele>198</ele>
        <time>2020-10-03T15:50:26.000Z</time>
      </trkpt>
      <trkpt lat="43.62989" lon="0.69197">
        <ele>198</ele>
        <time>2020-10-03T15:50:28.000Z</time>
      </trkpt>
      <trkpt lat="43.62991" lon="0.69195">
        <ele>198</ele>
        <time>2020-10-03T15:50:30.000Z</time>
      </trkpt>
      <trkpt lat="43.62994" lon="0.69193">
        <ele>198.22904972004</ele>
        <time>2020-10-03T15:50:32.000Z</time>
      </trkpt>
      <trkpt lat="43.62996" lon="0.69191">
        <ele>199</ele>
        <time>2020-10-03T15:50:34.000Z</time>
      </trkpt>
      <trkpt lat="43.62998" lon="0.6919">
        <ele>199</ele>
        <time>2020-10-03T15:50:36.000Z</time>
      </trkpt>
      <trkpt lat="43.63001" lon="0.69189">
        <ele>200</ele>
        <time>2020-10-03T15:50:38.000Z</time>
      </trkpt>
      <trkpt lat="43.63004" lon="0.69189">
        <ele>200</ele>
        <time>2020-10-03T15:50:40.000Z</time>
      </trkpt>
      <trkpt lat="43.63007" lon="0.69188">
        <ele>200</ele>
        <time>2020-10-03T15:50:42.000Z</time>
      </trkpt>
      <trkpt lat="43.6301" lon="0.69188">
        <ele>200</ele>
        <time>2020-10-03T15:50:44.000Z</time>
      </trkpt>
      <trkpt lat="43.63014" lon="0.69186">
        <ele>201</ele>
        <time>2020-10-03T15:50:46.000Z</time>
      </trkpt>
      <trkpt lat="43.63016" lon="0.69185">
        <ele>201</ele>
        <time>2020-10-03T15:50:47.000Z</time>
      </trkpt>
      <trkpt lat="43.63027" lon="0.69182">
        <ele>202</ele>
        <time>2020-10-03T15:50:51.000Z</time>
      </trkpt>
      <trkpt lat="43.63036" lon="0.69178">
        <ele>202</ele>
        <time>2020-10-03T15:50:54.000Z</time>
      </trkpt>
      <trkpt lat="43.63047" lon="0.69175">
        <ele>203</ele>
        <time>2020-10-03T15:50:58.000Z</time>
      </trkpt>
      <trkpt lat="43.63049" lon="0.69174">
        <ele>203</ele>
        <time>2020-10-03T15:50:59.000Z</time>
      </trkpt>
      <trkpt lat="43.63051" lon="0.69173">
        <ele>203</ele>
        <time>2020-10-03T15:51:00.000Z</time>
      </trkpt>
      <trkpt lat="43.63054" lon="0.69172">
        <ele>203</ele>
        <time>2020-10-03T15:51:01.000Z</time>
      </trkpt>
      <trkpt lat="43.63056" lon="0.6917">
        <ele>203.41860776638</ele>
        <time>2020-10-03T15:51:02.000Z</time>
      </trkpt>
      <trkpt lat="43.63058" lon="0.69169">
        <ele>204</ele>
        <time>2020-10-03T15:51:03.000Z</time>
      </trkpt>
      <trkpt lat="43.63061" lon="0.69168">
        <ele>204</ele>
        <time>2020-10-03T15:51:04.000Z</time>
      </trkpt>
      <trkpt lat="43.63063" lon="0.69166">
        <ele>204</ele>
        <time>2020-10-03T15:51:05.000Z</time>
      </trkpt>
      <trkpt lat="43.6307" lon="0.69161">
        <ele>204</ele>
        <time>2020-10-03T15:51:08.000Z</time>
      </trkpt>
      <trkpt lat="43.63072" lon="0.69159">
        <ele>204</ele>
        <time>2020-10-03T15:51:09.000Z</time>
      </trkpt>
      <trkpt lat="43.63077" lon="0.69145">
        <ele>205</ele>
        <time>2020-10-03T15:51:14.000Z</time>
      </trkpt>
      <trkpt lat="43.63083" lon="0.69133">
        <ele>205.31250285714</ele>
        <time>2020-10-03T15:51:18.000Z</time>
      </trkpt>
      <trkpt lat="43.63087" lon="0.6912">
        <ele>206</ele>
        <time>2020-10-03T15:51:23.000Z</time>
      </trkpt>
      <trkpt lat="43.6309" lon="0.69107">
        <ele>206</ele>
        <time>2020-10-03T15:51:27.000Z</time>
      </trkpt>
      <trkpt lat="43.63094" lon="0.69092">
        <ele>206.91743485562</ele>
        <time>2020-10-03T15:51:31.000Z</time>
      </trkpt>
      <trkpt lat="43.63099" lon="0.6908">
        <ele>208</ele>
        <time>2020-10-03T15:51:35.000Z</time>
      </trkpt>
      <trkpt lat="43.63102" lon="0.69066">
        <ele>208</ele>
        <time>2020-10-03T15:51:39.000Z</time>
      </trkpt>
      <trkpt lat="43.63105" lon="0.69053">
        <ele>208.27272727273</ele>
        <time>2020-10-03T15:51:43.000Z</time>
      </trkpt>
      <trkpt lat="43.63107" lon="0.6904">
        <ele>208</ele>
        <time>2020-10-03T15:51:47.000Z</time>
      </trkpt>
      <trkpt lat="43.63111" lon="0.69028">
        <ele>208.37349639134</ele>
        <time>2020-10-03T15:51:51.000Z</time>
      </trkpt>
      <trkpt lat="43.63114" lon="0.69016">
        <ele>209</ele>
        <time>2020-10-03T15:51:55.000Z</time>
      </trkpt>
      <trkpt lat="43.63119" lon="0.69004">
        <ele>209</ele>
        <time>2020-10-03T15:51:59.000Z</time>
      </trkpt>
      <trkpt lat="43.63123" lon="0.68991">
        <ele>211</ele>
        <time>2020-10-03T15:52:03.000Z</time>
      </trkpt>
      <trkpt lat="43.63125" lon="0.68988">
        <ele>211</ele>
        <time>2020-10-03T15:52:04.000Z</time>
      </trkpt>
      <trkpt lat="43.63126" lon="0.68985">
        <ele>211</ele>
        <time>2020-10-03T15:52:05.000Z</time>
      </trkpt>
      <trkpt lat="43.63127" lon="0.68982">
        <ele>211</ele>
        <time>2020-10-03T15:52:06.000Z</time>
      </trkpt>
      <trkpt lat="43.63131" lon="0.6897">
        <ele>212</ele>
        <time>2020-10-03T15:52:10.000Z</time>
      </trkpt>
      <trkpt lat="43.63137" lon="0.68959">
        <ele>212</ele>
        <time>2020-10-03T15:52:14.000Z</time>
      </trkpt>
      <trkpt lat="43.63142" lon="0.68948">
        <ele>212</ele>
        <time>2020-10-03T15:52:18.000Z</time>
      </trkpt>
      <trkpt lat="43.63147" lon="0.68935">
        <ele>212</ele>
        <time>2020-10-03T15:52:22.000Z</time>
      </trkpt>
      <trkpt lat="43.63152" lon="0.68924">
        <ele>212</ele>
        <time>2020-10-03T15:52:25.000Z</time>
      </trkpt>
      <trkpt lat="43.63158" lon="0.68913">
        <ele>212.33654153846</ele>
        <time>2020-10-03T15:52:29.000Z</time>
      </trkpt>
      <trkpt lat="43.63164" lon="0.68901">
        <ele>213</ele>
        <time>2020-10-03T15:52:33.000Z</time>
      </trkpt>
      <trkpt lat="43.63172" lon="0.68893">
        <ele>212</ele>
        <time>2020-10-03T15:52:40.000Z</time>
      </trkpt>
      <trkpt lat="43.63174" lon="0.68894">
        <ele>212</ele>
        <time>2020-10-03T15:53:35.000Z</time>
      </trkpt>
      <trkpt lat="43.63175" lon="0.68897">
        <ele>212</ele>
        <time>2020-10-03T15:53:38.000Z</time>
      </trkpt>
      <trkpt lat="43.63176" lon="0.68895">
        <ele>212</ele>
        <time>2020-10-03T15:54:11.000Z</time>
      </trkpt>
      <trkpt lat="43.63174" lon="0.68894">
        <ele>211.59614769231</ele>
        <time>2020-10-03T15:54:13.000Z</time>
      </trkpt>
      <trkpt lat="43.63172" lon="0.68893">
        <ele>212</ele>
        <time>2020-10-03T15:54:16.000Z</time>
      </trkpt>
      <trkpt lat="43.63174" lon="0.68893">
        <ele>212</ele>
        <time>2020-10-03T15:54:38.000Z</time>
      </trkpt>
      <trkpt lat="43.63176" lon="0.68894">
        <ele>212</ele>
        <time>2020-10-03T15:54:40.000Z</time>
      </trkpt>
      <trkpt lat="43.63174" lon="0.68892">
        <ele>212</ele>
        <time>2020-10-03T15:54:46.000Z</time>
      </trkpt>
      <trkpt lat="43.63173" lon="0.68888">
        <ele>212</ele>
        <time>2020-10-03T15:54:48.000Z</time>
      </trkpt>
      <trkpt lat="43.63173" lon="0.68885">
        <ele>212</ele>
        <time>2020-10-03T15:54:49.000Z</time>
      </trkpt>
      <trkpt lat="43.63173" lon="0.68882">
        <ele>212</ele>
        <time>2020-10-03T15:54:50.000Z</time>
      </trkpt>
      <trkpt lat="43.63174" lon="0.68878">
        <ele>212</ele>
        <time>2020-10-03T15:54:51.000Z</time>
      </trkpt>
      <trkpt lat="43.63176" lon="0.68875">
        <ele>212</ele>
        <time>2020-10-03T15:54:52.000Z</time>
      </trkpt>
      <trkpt lat="43.63177" lon="0.68872">
        <ele>212</ele>
        <time>2020-10-03T15:54:53.000Z</time>
      </trkpt>
      <trkpt lat="43.63178" lon="0.6887">
        <ele>212</ele>
        <time>2020-10-03T15:54:54.000Z</time>
      </trkpt>
      <trkpt lat="43.63179" lon="0.68868">
        <ele>212</ele>
        <time>2020-10-03T15:54:55.000Z</time>
      </trkpt>
      <trkpt lat="43.63181" lon="0.68865">
        <ele>212</ele>
        <time>2020-10-03T15:54:56.000Z</time>
      </trkpt>
      <trkpt lat="43.63183" lon="0.68862">
        <ele>212</ele>
        <time>2020-10-03T15:54:57.000Z</time>
      </trkpt>
      <trkpt lat="43.63184" lon="0.68858">
        <ele>212</ele>
        <time>2020-10-03T15:54:58.000Z</time>
      </trkpt>
      <trkpt lat="43.63186" lon="0.68855">
        <ele>212</ele>
        <time>2020-10-03T15:54:59.000Z</time>
      </trkpt>
      <trkpt lat="43.63188" lon="0.68851">
        <ele>212</ele>
        <time>2020-10-03T15:55:00.000Z</time>
      </trkpt>
      <trkpt lat="43.63189" lon="0.68848">
        <ele>211.70114316821</ele>
        <time>2020-10-03T15:55:01.000Z</time>
      </trkpt>
      <trkpt lat="43.63191" lon="0.68845">
        <ele>211</ele>
        <time>2020-10-03T15:55:02.000Z</time>
      </trkpt>
      <trkpt lat="43.63193" lon="0.68842">
        <ele>211</ele>
        <time>2020-10-03T15:55:03.000Z</time>
      </trkpt>
      <trkpt lat="43.63194" lon="0.68839">
        <ele>210.68807835032</ele>
        <time>2020-10-03T15:55:04.000Z</time>
      </trkpt>
      <trkpt lat="43.63196" lon="0.68836">
        <ele>210</ele>
        <time>2020-10-03T15:55:05.000Z</time>
      </trkpt>
      <trkpt lat="43.63198" lon="0.68833">
        <ele>210</ele>
        <time>2020-10-03T15:55:06.000Z</time>
      </trkpt>
      <trkpt lat="43.63199" lon="0.6883">
        <ele>209.63094857143</ele>
        <time>2020-10-03T15:55:07.000Z</time>
      </trkpt>
      <trkpt lat="43.63201" lon="0.68827">
        <ele>209</ele>
        <time>2020-10-03T15:55:08.000Z</time>
      </trkpt>
      <trkpt lat="43.63203" lon="0.68824">
        <ele>209</ele>
        <time>2020-10-03T15:55:09.000Z</time>
      </trkpt>
      <trkpt lat="43.63204" lon="0.68821">
        <ele>208.70370253315</ele>
        <time>2020-10-03T15:55:10.000Z</time>
      </trkpt>
      <trkpt lat="43.63206" lon="0.68818">
        <ele>208</ele>
        <time>2020-10-03T15:55:11.000Z</time>
      </trkpt>
      <trkpt lat="43.63208" lon="0.68815">
        <ele>208</ele>
        <time>2020-10-03T15:55:12.000Z</time>
      </trkpt>
      <trkpt lat="43.6321" lon="0.68812">
        <ele>208</ele>
        <time>2020-10-03T15:55:13.000Z</time>
      </trkpt>
      <trkpt lat="43.63212" lon="0.68809">
        <ele>208</ele>
        <time>2020-10-03T15:55:14.000Z</time>
      </trkpt>
      <trkpt lat="43.63214" lon="0.68805">
        <ele>208</ele>
        <time>2020-10-03T15:55:15.000Z</time>
      </trkpt>
      <trkpt lat="43.63216" lon="0.68802">
        <ele>208</ele>
        <time>2020-10-03T15:55:16.000Z</time>
      </trkpt>
      <trkpt lat="43.63218" lon="0.68798">
        <ele>208</ele>
        <time>2020-10-03T15:55:17.000Z</time>
      </trkpt>
      <trkpt lat="43.63219" lon="0.68795">
        <ele>208</ele>
        <time>2020-10-03T15:55:18.000Z</time>
      </trkpt>
      <trkpt lat="43.63221" lon="0.68791">
        <ele>208</ele>
        <time>2020-10-03T15:55:19.000Z</time>
      </trkpt>
      <trkpt lat="43.63223" lon="0.68788">
        <ele>208</ele>
        <time>2020-10-03T15:55:20.000Z</time>
      </trkpt>
      <trkpt lat="43.63225" lon="0.68785">
        <ele>207.66666666667</ele>
        <time>2020-10-03T15:55:21.000Z</time>
      </trkpt>
      <trkpt lat="43.63227" lon="0.68782">
        <ele>207</ele>
        <time>2020-10-03T15:55:22.000Z</time>
      </trkpt>
      <trkpt lat="43.63229" lon="0.68778">
        <ele>207</ele>
        <time>2020-10-03T15:55:23.000Z</time>
      </trkpt>
      <trkpt lat="43.6323" lon="0.68775">
        <ele>207</ele>
        <time>2020-10-03T15:55:24.000Z</time>
      </trkpt>
      <trkpt lat="43.63232" lon="0.68771">
        <ele>207</ele>
        <time>2020-10-03T15:55:25.000Z</time>
      </trkpt>
      <trkpt lat="43.63234" lon="0.68768">
        <ele>207</ele>
        <time>2020-10-03T15:55:26.000Z</time>
      </trkpt>
      <trkpt lat="43.63235" lon="0.68765">
        <ele>207</ele>
        <time>2020-10-03T15:55:27.000Z</time>
      </trkpt>
      <trkpt lat="43.63237" lon="0.68762">
        <ele>207</ele>
        <time>2020-10-03T15:55:28.000Z</time>
      </trkpt>
      <trkpt lat="43.63238" lon="0.68759">
        <ele>207</ele>
        <time>2020-10-03T15:55:29.000Z</time>
      </trkpt>
      <trkpt lat="43.6324" lon="0.68755">
        <ele>207</ele>
        <time>2020-10-03T15:55:30.000Z</time>
      </trkpt>
      <trkpt lat="43.63241" lon="0.68752">
        <ele>206.6769197444</ele>
        <time>2020-10-03T15:55:31.000Z</time>
      </trkpt>
      <trkpt lat="43.63243" lon="0.6875">
        <ele>206</ele>
        <time>2020-10-03T15:55:32.000Z</time>
      </trkpt>
      <trkpt lat="43.63244" lon="0.68747">
        <ele>206</ele>
        <time>2020-10-03T15:55:33.000Z</time>
      </trkpt>
      <trkpt lat="43.63246" lon="0.68744">
        <ele>206</ele>
        <time>2020-10-03T15:55:34.000Z</time>
      </trkpt>
      <trkpt lat="43.63247" lon="0.68741">
        <ele>206</ele>
        <time>2020-10-03T15:55:35.000Z</time>
      </trkpt>
      <trkpt lat="43.63249" lon="0.68738">
        <ele>206</ele>
        <time>2020-10-03T15:55:36.000Z</time>
      </trkpt>
      <trkpt lat="43.6325" lon="0.68735">
        <ele>206</ele>
        <time>2020-10-03T15:55:37.000Z</time>
      </trkpt>
      <trkpt lat="43.63252" lon="0.68732">
        <ele>206</ele>
        <time>2020-10-03T15:55:38.000Z</time>
      </trkpt>
      <trkpt lat="43.63253" lon="0.68729">
        <ele>206</ele>
        <time>2020-10-03T15:55:39.000Z</time>
      </trkpt>
      <trkpt lat="43.63255" lon="0.68725">
        <ele>206</ele>
        <time>2020-10-03T15:55:40.000Z</time>
      </trkpt>
      <trkpt lat="43.63257" lon="0.68722">
        <ele>206.41379158146</ele>
        <time>2020-10-03T15:55:41.000Z</time>
      </trkpt>
      <trkpt lat="43.63259" lon="0.68719">
        <ele>207</ele>
        <time>2020-10-03T15:55:42.000Z</time>
      </trkpt>
      <trkpt lat="43.63262" lon="0.68716">
        <ele>207</ele>
        <time>2020-10-03T15:55:43.000Z</time>
      </trkpt>
      <trkpt lat="43.63264" lon="0.68712">
        <ele>207</ele>
        <time>2020-10-03T15:55:44.000Z</time>
      </trkpt>
      <trkpt lat="43.63266" lon="0.6871">
        <ele>207</ele>
        <time>2020-10-03T15:55:45.000Z</time>
      </trkpt>
      <trkpt lat="43.63268" lon="0.68707">
        <ele>207</ele>
        <time>2020-10-03T15:55:46.000Z</time>
      </trkpt>
      <trkpt lat="43.6327" lon="0.68704">
        <ele>206.59302256355</ele>
        <time>2020-10-03T15:55:47.000Z</time>
      </trkpt>
      <trkpt lat="43.63272" lon="0.68701">
        <ele>206</ele>
        <time>2020-10-03T15:55:48.000Z</time>
      </trkpt>
      <trkpt lat="43.63274" lon="0.68698">
        <ele>206</ele>
        <time>2020-10-03T15:55:49.000Z</time>
      </trkpt>
      <trkpt lat="43.63276" lon="0.68695">
        <ele>206</ele>
        <time>2020-10-03T15:55:50.000Z</time>
      </trkpt>
      <trkpt lat="43.63278" lon="0.68691">
        <ele>206</ele>
        <time>2020-10-03T15:55:51.000Z</time>
      </trkpt>
      <trkpt lat="43.6328" lon="0.68688">
        <ele>206</ele>
        <time>2020-10-03T15:55:52.000Z</time>
      </trkpt>
      <trkpt lat="43.63281" lon="0.68685">
        <ele>205.6463426056</ele>
        <time>2020-10-03T15:55:53.000Z</time>
      </trkpt>
      <trkpt lat="43.63283" lon="0.68682">
        <ele>205</ele>
        <time>2020-10-03T15:55:54.000Z</time>
      </trkpt>
      <trkpt lat="43.63285" lon="0.68679">
        <ele>204.68807027021</ele>
        <time>2020-10-03T15:55:55.000Z</time>
      </trkpt>
      <trkpt lat="43.63287" lon="0.68677">
        <ele>204</ele>
        <time>2020-10-03T15:55:56.000Z</time>
      </trkpt>
      <trkpt lat="43.63288" lon="0.68674">
        <ele>204</ele>
        <time>2020-10-03T15:55:57.000Z</time>
      </trkpt>
      <trkpt lat="43.63291" lon="0.68671">
        <ele>204</ele>
        <time>2020-10-03T15:55:58.000Z</time>
      </trkpt>
      <trkpt lat="43.63293" lon="0.68667">
        <ele>204</ele>
        <time>2020-10-03T15:55:59.000Z</time>
      </trkpt>
      <trkpt lat="43.63296" lon="0.68663">
        <ele>204</ele>
        <time>2020-10-03T15:56:00.000Z</time>
      </trkpt>
      <trkpt lat="43.63297" lon="0.6866">
        <ele>204</ele>
        <time>2020-10-03T15:56:01.000Z</time>
      </trkpt>
      <trkpt lat="43.63299" lon="0.68657">
        <ele>204</ele>
        <time>2020-10-03T15:56:02.000Z</time>
      </trkpt>
      <trkpt lat="43.633" lon="0.68654">
        <ele>204</ele>
        <time>2020-10-03T15:56:03.000Z</time>
      </trkpt>
      <trkpt lat="43.63302" lon="0.68651">
        <ele>204</ele>
        <time>2020-10-03T15:56:04.000Z</time>
      </trkpt>
      <trkpt lat="43.63303" lon="0.68648">
        <ele>204</ele>
        <time>2020-10-03T15:56:05.000Z</time>
      </trkpt>
      <trkpt lat="43.63304" lon="0.68645">
        <ele>204</ele>
        <time>2020-10-03T15:56:06.000Z</time>
      </trkpt>
      <trkpt lat="43.63305" lon="0.68643">
        <ele>204</ele>
        <time>2020-10-03T15:56:07.000Z</time>
      </trkpt>
      <trkpt lat="43.63306" lon="0.68639">
        <ele>204</ele>
        <time>2020-10-03T15:56:08.000Z</time>
      </trkpt>
      <trkpt lat="43.63307" lon="0.68636">
        <ele>204</ele>
        <time>2020-10-03T15:56:09.000Z</time>
      </trkpt>
      <trkpt lat="43.63309" lon="0.68633">
        <ele>204</ele>
        <time>2020-10-03T15:56:10.000Z</time>
      </trkpt>
      <trkpt lat="43.6331" lon="0.6863">
        <ele>204</ele>
        <time>2020-10-03T15:56:11.000Z</time>
      </trkpt>
      <trkpt lat="43.63311" lon="0.68626">
        <ele>204</ele>
        <time>2020-10-03T15:56:12.000Z</time>
      </trkpt>
      <trkpt lat="43.63312" lon="0.68623">
        <ele>204</ele>
        <time>2020-10-03T15:56:13.000Z</time>
      </trkpt>
      <trkpt lat="43.63313" lon="0.68619">
        <ele>204</ele>
        <time>2020-10-03T15:56:14.000Z</time>
      </trkpt>
      <trkpt lat="43.63315" lon="0.68615">
        <ele>203.72727272727</ele>
        <time>2020-10-03T15:56:15.000Z</time>
      </trkpt>
      <trkpt lat="43.63316" lon="0.68612">
        <ele>203</ele>
        <time>2020-10-03T15:56:16.000Z</time>
      </trkpt>
      <trkpt lat="43.63318" lon="0.68608">
        <ele>203</ele>
        <time>2020-10-03T15:56:17.000Z</time>
      </trkpt>
      <trkpt lat="43.63319" lon="0.68605">
        <ele>203</ele>
        <time>2020-10-03T15:56:18.000Z</time>
      </trkpt>
      <trkpt lat="43.6332" lon="0.68601">
        <ele>203</ele>
        <time>2020-10-03T15:56:19.000Z</time>
      </trkpt>
      <trkpt lat="43.63321" lon="0.68598">
        <ele>203</ele>
        <time>2020-10-03T15:56:20.000Z</time>
      </trkpt>
      <trkpt lat="43.63323" lon="0.68591">
        <ele>203</ele>
        <time>2020-10-03T15:56:22.000Z</time>
      </trkpt>
      <trkpt lat="43.63323" lon="0.68587">
        <ele>203</ele>
        <time>2020-10-03T15:56:23.000Z</time>
      </trkpt>
      <trkpt lat="43.63324" lon="0.68584">
        <ele>202.63529447197</ele>
        <time>2020-10-03T15:56:24.000Z</time>
      </trkpt>
      <trkpt lat="43.63326" lon="0.6858">
        <ele>202</ele>
        <time>2020-10-03T15:56:25.000Z</time>
      </trkpt>
      <trkpt lat="43.63327" lon="0.68577">
        <ele>202</ele>
        <time>2020-10-03T15:56:26.000Z</time>
      </trkpt>
      <trkpt lat="43.63329" lon="0.68574">
        <ele>202</ele>
        <time>2020-10-03T15:56:27.000Z</time>
      </trkpt>
      <trkpt lat="43.63331" lon="0.68572">
        <ele>202</ele>
        <time>2020-10-03T15:56:28.000Z</time>
      </trkpt>
      <trkpt lat="43.63334" lon="0.68572">
        <ele>202</ele>
        <time>2020-10-03T15:56:29.000Z</time>
      </trkpt>
      <trkpt lat="43.63337" lon="0.68571">
        <ele>202</ele>
        <time>2020-10-03T15:56:30.000Z</time>
      </trkpt>
      <trkpt lat="43.6334" lon="0.68571">
        <ele>202</ele>
        <time>2020-10-03T15:56:31.000Z</time>
      </trkpt>
      <trkpt lat="43.63343" lon="0.6857">
        <ele>202</ele>
        <time>2020-10-03T15:56:32.000Z</time>
      </trkpt>
      <trkpt lat="43.63346" lon="0.68569">
        <ele>202</ele>
        <time>2020-10-03T15:56:33.000Z</time>
      </trkpt>
      <trkpt lat="43.63349" lon="0.68568">
        <ele>201.56521932705</ele>
        <time>2020-10-03T15:56:34.000Z</time>
      </trkpt>
      <trkpt lat="43.63352" lon="0.68568">
        <ele>201</ele>
        <time>2020-10-03T15:56:35.000Z</time>
      </trkpt>
      <trkpt lat="43.63355" lon="0.68567">
        <ele>201</ele>
        <time>2020-10-03T15:56:36.000Z</time>
      </trkpt>
      <trkpt lat="43.63357" lon="0.68566">
        <ele>201</ele>
        <time>2020-10-03T15:56:37.000Z</time>
      </trkpt>
      <trkpt lat="43.6336" lon="0.68566">
        <ele>201</ele>
        <time>2020-10-03T15:56:38.000Z</time>
      </trkpt>
      <trkpt lat="43.63364" lon="0.68565">
        <ele>201</ele>
        <time>2020-10-03T15:56:39.000Z</time>
      </trkpt>
      <trkpt lat="43.63367" lon="0.68565">
        <ele>201</ele>
        <time>2020-10-03T15:56:40.000Z</time>
      </trkpt>
      <trkpt lat="43.6337" lon="0.68563">
        <ele>201</ele>
        <time>2020-10-03T15:56:41.000Z</time>
      </trkpt>
      <trkpt lat="43.63373" lon="0.68562">
        <ele>201</ele>
        <time>2020-10-03T15:56:42.000Z</time>
      </trkpt>
      <trkpt lat="43.63376" lon="0.6856">
        <ele>201</ele>
        <time>2020-10-03T15:56:43.000Z</time>
      </trkpt>
      <trkpt lat="43.63379" lon="0.68559">
        <ele>200.75308544429</ele>
        <time>2020-10-03T15:56:44.000Z</time>
      </trkpt>
      <trkpt lat="43.63381" lon="0.68558">
        <ele>200</ele>
        <time>2020-10-03T15:56:45.000Z</time>
      </trkpt>
      <trkpt lat="43.63385" lon="0.68557">
        <ele>200</ele>
        <time>2020-10-03T15:56:46.000Z</time>
      </trkpt>
      <trkpt lat="43.63387" lon="0.68556">
        <ele>200</ele>
        <time>2020-10-03T15:56:47.000Z</time>
      </trkpt>
      <trkpt lat="43.6339" lon="0.68555">
        <ele>200</ele>
        <time>2020-10-03T15:56:48.000Z</time>
      </trkpt>
      <trkpt lat="43.63393" lon="0.68555">
        <ele>200</ele>
        <time>2020-10-03T15:56:49.000Z</time>
      </trkpt>
      <trkpt lat="43.63395" lon="0.68554">
        <ele>200</ele>
        <time>2020-10-03T15:56:50.000Z</time>
      </trkpt>
      <trkpt lat="43.63398" lon="0.68553">
        <ele>200</ele>
        <time>2020-10-03T15:56:51.000Z</time>
      </trkpt>
      <trkpt lat="43.63401" lon="0.68552">
        <ele>199.63854789957</ele>
        <time>2020-10-03T15:56:52.000Z</time>
      </trkpt>
      <trkpt lat="43.63404" lon="0.68551">
        <ele>199</ele>
        <time>2020-10-03T15:56:53.000Z</time>
      </trkpt>
      <trkpt lat="43.63407" lon="0.68551">
        <ele>199</ele>
        <time>2020-10-03T15:56:54.000Z</time>
      </trkpt>
      <trkpt lat="43.6341" lon="0.68551">
        <ele>199</ele>
        <time>2020-10-03T15:56:55.000Z</time>
      </trkpt>
      <trkpt lat="43.63413" lon="0.68551">
        <ele>199</ele>
        <time>2020-10-03T15:56:56.000Z</time>
      </trkpt>
      <trkpt lat="43.63416" lon="0.68551">
        <ele>199</ele>
        <time>2020-10-03T15:56:57.000Z</time>
      </trkpt>
      <trkpt lat="43.63419" lon="0.68551">
        <ele>199</ele>
        <time>2020-10-03T15:56:58.000Z</time>
      </trkpt>
      <trkpt lat="43.63421" lon="0.6855">
        <ele>199</ele>
        <time>2020-10-03T15:56:59.000Z</time>
      </trkpt>
      <trkpt lat="43.63423" lon="0.6855">
        <ele>198.72806889505</ele>
        <time>2020-10-03T15:57:00.000Z</time>
      </trkpt>
      <trkpt lat="43.63425" lon="0.68549">
        <ele>198</ele>
        <time>2020-10-03T15:57:01.000Z</time>
      </trkpt>
      <trkpt lat="43.63428" lon="0.68547">
        <ele>198</ele>
        <time>2020-10-03T15:57:02.000Z</time>
      </trkpt>
      <trkpt lat="43.63431" lon="0.68547">
        <ele>198</ele>
        <time>2020-10-03T15:57:03.000Z</time>
      </trkpt>
      <trkpt lat="43.63433" lon="0.68546">
        <ele>198</ele>
        <time>2020-10-03T15:57:04.000Z</time>
      </trkpt>
      <trkpt lat="43.63436" lon="0.68545">
        <ele>197.57954909091</ele>
        <time>2020-10-03T15:57:05.000Z</time>
      </trkpt>
      <trkpt lat="43.63438" lon="0.68545">
        <ele>197</ele>
        <time>2020-10-03T15:57:06.000Z</time>
      </trkpt>
      <trkpt lat="43.63441" lon="0.68544">
        <ele>196.88607861564</ele>
        <time>2020-10-03T15:57:07.000Z</time>
      </trkpt>
      <trkpt lat="43.63443" lon="0.68544">
        <ele>196</ele>
        <time>2020-10-03T15:57:08.000Z</time>
      </trkpt>
      <trkpt lat="43.63446" lon="0.68544">
        <ele>196</ele>
        <time>2020-10-03T15:57:09.000Z</time>
      </trkpt>
      <trkpt lat="43.63449" lon="0.68544">
        <ele>196</ele>
        <time>2020-10-03T15:57:10.000Z</time>
      </trkpt>
      <trkpt lat="43.63453" lon="0.68543">
        <ele>196</ele>
        <time>2020-10-03T15:57:11.000Z</time>
      </trkpt>
      <trkpt lat="43.63457" lon="0.68543">
        <ele>195.58416343497</ele>
        <time>2020-10-03T15:57:12.000Z</time>
      </trkpt>
      <trkpt lat="43.63461" lon="0.68544">
        <ele>195</ele>
        <time>2020-10-03T15:57:13.000Z</time>
      </trkpt>
      <trkpt lat="43.63465" lon="0.68544">
        <ele>194.56701547881</ele>
        <time>2020-10-03T15:57:14.000Z</time>
      </trkpt>
      <trkpt lat="43.63476" lon="0.68543">
        <ele>194</ele>
        <time>2020-10-03T15:57:17.000Z</time>
      </trkpt>
      <trkpt lat="43.63486" lon="0.68543">
        <ele>195</ele>
        <time>2020-10-03T15:57:20.000Z</time>
      </trkpt>
      <trkpt lat="43.63497" lon="0.68543">
        <ele>194</ele>
        <time>2020-10-03T15:57:24.000Z</time>
      </trkpt>
      <trkpt lat="43.63509" lon="0.68541">
        <ele>193</ele>
        <time>2020-10-03T15:57:28.000Z</time>
      </trkpt>
      <trkpt lat="43.63518" lon="0.68541">
        <ele>192</ele>
        <time>2020-10-03T15:57:32.000Z</time>
      </trkpt>
      <trkpt lat="43.63528" lon="0.68541">
        <ele>192</ele>
        <time>2020-10-03T15:57:35.000Z</time>
      </trkpt>
      <trkpt lat="43.63537" lon="0.68539">
        <ele>191</ele>
        <time>2020-10-03T15:57:39.000Z</time>
      </trkpt>
      <trkpt lat="43.63547" lon="0.68537">
        <ele>191</ele>
        <time>2020-10-03T15:57:42.000Z</time>
      </trkpt>
      <trkpt lat="43.63559" lon="0.68535">
        <ele>191</ele>
        <time>2020-10-03T15:57:46.000Z</time>
      </trkpt>
      <trkpt lat="43.6357" lon="0.68533">
        <ele>191</ele>
        <time>2020-10-03T15:57:49.000Z</time>
      </trkpt>
      <trkpt lat="43.63579" lon="0.68529">
        <ele>191</ele>
        <time>2020-10-03T15:57:53.000Z</time>
      </trkpt>
      <trkpt lat="43.6359" lon="0.68523">
        <ele>190</ele>
        <time>2020-10-03T15:57:57.000Z</time>
      </trkpt>
      <trkpt lat="43.636" lon="0.68519">
        <ele>188.72891654522</ele>
        <time>2020-10-03T15:58:01.000Z</time>
      </trkpt>
      <trkpt lat="43.63611" lon="0.68514">
        <ele>188</ele>
        <time>2020-10-03T15:58:05.000Z</time>
      </trkpt>
      <trkpt lat="43.63619" lon="0.68508">
        <ele>188</ele>
        <time>2020-10-03T15:58:08.000Z</time>
      </trkpt>
      <trkpt lat="43.63629" lon="0.68502">
        <ele>187.5</ele>
        <time>2020-10-03T15:58:12.000Z</time>
      </trkpt>
      <trkpt lat="43.63638" lon="0.68497">
        <ele>187.5</ele>
        <time>2020-10-03T15:58:15.000Z</time>
      </trkpt>
      <trkpt lat="43.63647" lon="0.68489">
        <ele>188</ele>
        <time>2020-10-03T15:58:19.000Z</time>
      </trkpt>
      <trkpt lat="43.63657" lon="0.68481">
        <ele>187</ele>
        <time>2020-10-03T15:58:23.000Z</time>
      </trkpt>
      <trkpt lat="43.63667" lon="0.68474">
        <ele>187</ele>
        <time>2020-10-03T15:58:27.000Z</time>
      </trkpt>
      <trkpt lat="43.63674" lon="0.68464">
        <ele>187</ele>
        <time>2020-10-03T15:58:31.000Z</time>
      </trkpt>
      <trkpt lat="43.63675" lon="0.68461">
        <ele>187</ele>
        <time>2020-10-03T15:58:32.000Z</time>
      </trkpt>
      <trkpt lat="43.63677" lon="0.68458">
        <ele>187.422013716</ele>
        <time>2020-10-03T15:58:33.000Z</time>
      </trkpt>
      <trkpt lat="43.63679" lon="0.68456">
        <ele>188</ele>
        <time>2020-10-03T15:58:34.000Z</time>
      </trkpt>
      <trkpt lat="43.6368" lon="0.68453">
        <ele>188</ele>
        <time>2020-10-03T15:58:35.000Z</time>
      </trkpt>
      <trkpt lat="43.63681" lon="0.68451">
        <ele>188</ele>
        <time>2020-10-03T15:58:36.000Z</time>
      </trkpt>
      <trkpt lat="43.63683" lon="0.68448">
        <ele>188</ele>
        <time>2020-10-03T15:58:37.000Z</time>
      </trkpt>
      <trkpt lat="43.63684" lon="0.68445">
        <ele>188</ele>
        <time>2020-10-03T15:58:38.000Z</time>
      </trkpt>
      <trkpt lat="43.63685" lon="0.68442">
        <ele>188</ele>
        <time>2020-10-03T15:58:39.000Z</time>
      </trkpt>
      <trkpt lat="43.63686" lon="0.68439">
        <ele>188</ele>
        <time>2020-10-03T15:58:40.000Z</time>
      </trkpt>
      <trkpt lat="43.63687" lon="0.68436">
        <ele>188</ele>
        <time>2020-10-03T15:58:41.000Z</time>
      </trkpt>
      <trkpt lat="43.63688" lon="0.68433">
        <ele>188</ele>
        <time>2020-10-03T15:58:42.000Z</time>
      </trkpt>
      <trkpt lat="43.63689" lon="0.6843">
        <ele>188</ele>
        <time>2020-10-03T15:58:43.000Z</time>
      </trkpt>
      <trkpt lat="43.6369" lon="0.68427">
        <ele>188</ele>
        <time>2020-10-03T15:58:44.000Z</time>
      </trkpt>
      <trkpt lat="43.63691" lon="0.68424">
        <ele>188.44444444444</ele>
        <time>2020-10-03T15:58:45.000Z</time>
      </trkpt>
      <trkpt lat="43.63692" lon="0.6842">
        <ele>189</ele>
        <time>2020-10-03T15:58:46.000Z</time>
      </trkpt>
      <trkpt lat="43.63694" lon="0.68418">
        <ele>189</ele>
        <time>2020-10-03T15:58:47.000Z</time>
      </trkpt>
      <trkpt lat="43.63695" lon="0.68415">
        <ele>189</ele>
        <time>2020-10-03T15:58:48.000Z</time>
      </trkpt>
      <trkpt lat="43.63696" lon="0.68412">
        <ele>189</ele>
        <time>2020-10-03T15:58:49.000Z</time>
      </trkpt>
      <trkpt lat="43.63697" lon="0.68409">
        <ele>189</ele>
        <time>2020-10-03T15:58:50.000Z</time>
      </trkpt>
      <trkpt lat="43.63698" lon="0.68406">
        <ele>189</ele>
        <time>2020-10-03T15:58:51.000Z</time>
      </trkpt>
      <trkpt lat="43.637" lon="0.68404">
        <ele>189.4210549954</ele>
        <time>2020-10-03T15:58:52.000Z</time>
      </trkpt>
      <trkpt lat="43.637" lon="0.68401">
        <ele>190</ele>
        <time>2020-10-03T15:58:53.000Z</time>
      </trkpt>
      <trkpt lat="43.63701" lon="0.68399">
        <ele>190</ele>
        <time>2020-10-03T15:58:54.000Z</time>
      </trkpt>
      <trkpt lat="43.63703" lon="0.68396">
        <ele>190.40196016916</ele>
        <time>2020-10-03T15:58:55.000Z</time>
      </trkpt>
      <trkpt lat="43.63704" lon="0.68393">
        <ele>191</ele>
        <time>2020-10-03T15:58:56.000Z</time>
      </trkpt>
      <trkpt lat="43.63705" lon="0.68391">
        <ele>191</ele>
        <time>2020-10-03T15:58:57.000Z</time>
      </trkpt>
      <trkpt lat="43.63707" lon="0.68388">
        <ele>191</ele>
        <time>2020-10-03T15:58:58.000Z</time>
      </trkpt>
      <trkpt lat="43.63708" lon="0.68385">
        <ele>191</ele>
        <time>2020-10-03T15:58:59.000Z</time>
      </trkpt>
      <trkpt lat="43.63709" lon="0.68383">
        <ele>191</ele>
        <time>2020-10-03T15:59:00.000Z</time>
      </trkpt>
      <trkpt lat="43.6371" lon="0.6838">
        <ele>191.28766811033</ele>
        <time>2020-10-03T15:59:01.000Z</time>
      </trkpt>
      <trkpt lat="43.63711" lon="0.68377">
        <ele>192</ele>
        <time>2020-10-03T15:59:02.000Z</time>
      </trkpt>
      <trkpt lat="43.63713" lon="0.68374">
        <ele>192</ele>
        <time>2020-10-03T15:59:03.000Z</time>
      </trkpt>
      <trkpt lat="43.63713" lon="0.68371">
        <ele>192</ele>
        <time>2020-10-03T15:59:04.000Z</time>
      </trkpt>
      <trkpt lat="43.63715" lon="0.68368">
        <ele>192.38372006489</ele>
        <time>2020-10-03T15:59:05.000Z</time>
      </trkpt>
      <trkpt lat="43.63716" lon="0.68365">
        <ele>193</ele>
        <time>2020-10-03T15:59:06.000Z</time>
      </trkpt>
      <trkpt lat="43.63716" lon="0.68362">
        <ele>193</ele>
        <time>2020-10-03T15:59:07.000Z</time>
      </trkpt>
      <trkpt lat="43.63718" lon="0.68359">
        <ele>193</ele>
        <time>2020-10-03T15:59:08.000Z</time>
      </trkpt>
      <trkpt lat="43.63719" lon="0.68357">
        <ele>193</ele>
        <time>2020-10-03T15:59:09.000Z</time>
      </trkpt>
      <trkpt lat="43.6372" lon="0.68354">
        <ele>193</ele>
        <time>2020-10-03T15:59:10.000Z</time>
      </trkpt>
      <trkpt lat="43.63721" lon="0.68351">
        <ele>193</ele>
        <time>2020-10-03T15:59:11.000Z</time>
      </trkpt>
      <trkpt lat="43.63722" lon="0.68348">
        <ele>193.4347826087</ele>
        <time>2020-10-03T15:59:12.000Z</time>
      </trkpt>
      <trkpt lat="43.63723" lon="0.68345">
        <ele>194</ele>
        <time>2020-10-03T15:59:13.000Z</time>
      </trkpt>
      <trkpt lat="43.63724" lon="0.68342">
        <ele>194</ele>
        <time>2020-10-03T15:59:14.000Z</time>
      </trkpt>
      <trkpt lat="43.63725" lon="0.6834">
        <ele>194</ele>
        <time>2020-10-03T15:59:15.000Z</time>
      </trkpt>
      <trkpt lat="43.63726" lon="0.68337">
        <ele>194</ele>
        <time>2020-10-03T15:59:16.000Z</time>
      </trkpt>
      <trkpt lat="43.63726" lon="0.68334">
        <ele>194</ele>
        <time>2020-10-03T15:59:17.000Z</time>
      </trkpt>
      <trkpt lat="43.63727" lon="0.68331">
        <ele>194</ele>
        <time>2020-10-03T15:59:18.000Z</time>
      </trkpt>
      <trkpt lat="43.63728" lon="0.68328">
        <ele>194.33333333333</ele>
        <time>2020-10-03T15:59:19.000Z</time>
      </trkpt>
      <trkpt lat="43.63729" lon="0.68325">
        <ele>195</ele>
        <time>2020-10-03T15:59:20.000Z</time>
      </trkpt>
      <trkpt lat="43.6373" lon="0.68322">
        <ele>195</ele>
        <time>2020-10-03T15:59:21.000Z</time>
      </trkpt>
      <trkpt lat="43.63731" lon="0.6832">
        <ele>195</ele>
        <time>2020-10-03T15:59:22.000Z</time>
      </trkpt>
      <trkpt lat="43.63733" lon="0.68317">
        <ele>195</ele>
        <time>2020-10-03T15:59:23.000Z</time>
      </trkpt>
      <trkpt lat="43.63733" lon="0.68314">
        <ele>195</ele>
        <time>2020-10-03T15:59:24.000Z</time>
      </trkpt>
      <trkpt lat="43.63734" lon="0.68312">
        <ele>195</ele>
        <time>2020-10-03T15:59:25.000Z</time>
      </trkpt>
      <trkpt lat="43.63736" lon="0.68299">
        <ele>196</ele>
        <time>2020-10-03T15:59:29.000Z</time>
      </trkpt>
      <trkpt lat="43.63736" lon="0.68296">
        <ele>196.61112888889</ele>
        <time>2020-10-03T15:59:30.000Z</time>
      </trkpt>
      <trkpt lat="43.63737" lon="0.68293">
        <ele>198</ele>
        <time>2020-10-03T15:59:31.000Z</time>
      </trkpt>
      <trkpt lat="43.63737" lon="0.6829">
        <ele>198</ele>
        <time>2020-10-03T15:59:32.000Z</time>
      </trkpt>
      <trkpt lat="43.63737" lon="0.68284">
        <ele>199</ele>
        <time>2020-10-03T15:59:34.000Z</time>
      </trkpt>
      <trkpt lat="43.6374" lon="0.68273">
        <ele>200</ele>
        <time>2020-10-03T15:59:38.000Z</time>
      </trkpt>
      <trkpt lat="43.63748" lon="0.68264">
        <ele>200</ele>
        <time>2020-10-03T15:59:42.000Z</time>
      </trkpt>
      <trkpt lat="43.63756" lon="0.68258">
        <ele>200.42857343798</ele>
        <time>2020-10-03T15:59:46.000Z</time>
      </trkpt>
      <trkpt lat="43.63764" lon="0.68251">
        <ele>201</ele>
        <time>2020-10-03T15:59:49.000Z</time>
      </trkpt>
      <trkpt lat="43.63772" lon="0.68244">
        <ele>201</ele>
        <time>2020-10-03T15:59:52.000Z</time>
      </trkpt>
      <trkpt lat="43.6378" lon="0.68236">
        <ele>200</ele>
        <time>2020-10-03T15:59:56.000Z</time>
      </trkpt>
      <trkpt lat="43.63787" lon="0.68228">
        <ele>200</ele>
        <time>2020-10-03T16:00:00.000Z</time>
      </trkpt>
      <trkpt lat="43.63795" lon="0.68219">
        <ele>200</ele>
        <time>2020-10-03T16:00:04.000Z</time>
      </trkpt>
      <trkpt lat="43.63803" lon="0.68209">
        <ele>201</ele>
        <time>2020-10-03T16:00:08.000Z</time>
      </trkpt>
      <trkpt lat="43.63813" lon="0.682">
        <ele>201</ele>
        <time>2020-10-03T16:00:12.000Z</time>
      </trkpt>
      <trkpt lat="43.6382" lon="0.68191">
        <ele>201</ele>
        <time>2020-10-03T16:00:16.000Z</time>
      </trkpt>
      <trkpt lat="43.63828" lon="0.68181">
        <ele>201</ele>
        <time>2020-10-03T16:00:20.000Z</time>
      </trkpt>
      <trkpt lat="43.63836" lon="0.68171">
        <ele>201</ele>
        <time>2020-10-03T16:00:24.000Z</time>
      </trkpt>
      <trkpt lat="43.63844" lon="0.6816">
        <ele>201</ele>
        <time>2020-10-03T16:00:28.000Z</time>
      </trkpt>
      <trkpt lat="43.6385" lon="0.6815">
        <ele>201</ele>
        <time>2020-10-03T16:00:32.000Z</time>
      </trkpt>
      <trkpt lat="43.63857" lon="0.68142">
        <ele>201</ele>
        <time>2020-10-03T16:00:35.000Z</time>
      </trkpt>
      <trkpt lat="43.63863" lon="0.68132">
        <ele>201</ele>
        <time>2020-10-03T16:00:38.000Z</time>
      </trkpt>
      <trkpt lat="43.63871" lon="0.68121">
        <ele>201</ele>
        <time>2020-10-03T16:00:42.000Z</time>
      </trkpt>
      <trkpt lat="43.63877" lon="0.68112">
        <ele>201</ele>
        <time>2020-10-03T16:00:45.000Z</time>
      </trkpt>
      <trkpt lat="43.63885" lon="0.68101">
        <ele>201</ele>
        <time>2020-10-03T16:00:50.000Z</time>
      </trkpt>
      <trkpt lat="43.63892" lon="0.68089">
        <ele>201</ele>
        <time>2020-10-03T16:00:54.000Z</time>
      </trkpt>
      <trkpt lat="43.63899" lon="0.6808">
        <ele>201</ele>
        <time>2020-10-03T16:00:57.000Z</time>
      </trkpt>
      <trkpt lat="43.63906" lon="0.68071">
        <ele>201</ele>
        <time>2020-10-03T16:01:00.000Z</time>
      </trkpt>
      <trkpt lat="43.63912" lon="0.68059">
        <ele>201</ele>
        <time>2020-10-03T16:01:04.000Z</time>
      </trkpt>
      <trkpt lat="43.6392" lon="0.68047">
        <ele>201</ele>
        <time>2020-10-03T16:01:08.000Z</time>
      </trkpt>
      <trkpt lat="43.63925" lon="0.68037">
        <ele>201</ele>
        <time>2020-10-03T16:01:11.000Z</time>
      </trkpt>
      <trkpt lat="43.63931" lon="0.68026">
        <ele>201</ele>
        <time>2020-10-03T16:01:14.000Z</time>
      </trkpt>
      <trkpt lat="43.63936" lon="0.68012">
        <ele>201</ele>
        <time>2020-10-03T16:01:18.000Z</time>
      </trkpt>
      <trkpt lat="43.6394" lon="0.68">
        <ele>200</ele>
        <time>2020-10-03T16:01:21.000Z</time>
      </trkpt>
      <trkpt lat="43.63947" lon="0.67987">
        <ele>198.66292732738</ele>
        <time>2020-10-03T16:01:25.000Z</time>
      </trkpt>
      <trkpt lat="43.63954" lon="0.67977">
        <ele>197.5900032</ele>
        <time>2020-10-03T16:01:28.000Z</time>
      </trkpt>
      <trkpt lat="43.6396" lon="0.67968">
        <ele>197</ele>
        <time>2020-10-03T16:01:31.000Z</time>
      </trkpt>
      <trkpt lat="43.63968" lon="0.67955">
        <ele>196.6219502677</ele>
        <time>2020-10-03T16:01:35.000Z</time>
      </trkpt>
      <trkpt lat="43.63973" lon="0.67944">
        <ele>195.6439369697</ele>
        <time>2020-10-03T16:01:38.000Z</time>
      </trkpt>
      <trkpt lat="43.63976" lon="0.67937">
        <ele>195</ele>
        <time>2020-10-03T16:01:40.000Z</time>
      </trkpt>
      <trkpt lat="43.63978" lon="0.67933">
        <ele>194.64486260811</ele>
        <time>2020-10-03T16:01:41.000Z</time>
      </trkpt>
      <trkpt lat="43.6398" lon="0.67929">
        <ele>194</ele>
        <time>2020-10-03T16:01:42.000Z</time>
      </trkpt>
      <trkpt lat="43.63982" lon="0.67926">
        <ele>194</ele>
        <time>2020-10-03T16:01:43.000Z</time>
      </trkpt>
      <trkpt lat="43.63984" lon="0.67923">
        <ele>194</ele>
        <time>2020-10-03T16:01:44.000Z</time>
      </trkpt>
      <trkpt lat="43.63993" lon="0.67912">
        <ele>195</ele>
        <time>2020-10-03T16:01:48.000Z</time>
      </trkpt>
      <trkpt lat="43.63998" lon="0.67902">
        <ele>195</ele>
        <time>2020-10-03T16:01:51.000Z</time>
      </trkpt>
      <trkpt lat="43.64004" lon="0.6789">
        <ele>195</ele>
        <time>2020-10-03T16:01:55.000Z</time>
      </trkpt>
      <trkpt lat="43.64008" lon="0.67878">
        <ele>194.65420963227</ele>
        <time>2020-10-03T16:01:58.000Z</time>
      </trkpt>
      <trkpt lat="43.64015" lon="0.67863">
        <ele>194</ele>
        <time>2020-10-03T16:02:02.000Z</time>
      </trkpt>
      <trkpt lat="43.64021" lon="0.67849">
        <ele>194</ele>
        <time>2020-10-03T16:02:06.000Z</time>
      </trkpt>
      <trkpt lat="43.64026" lon="0.67838">
        <ele>193</ele>
        <time>2020-10-03T16:02:09.000Z</time>
      </trkpt>
      <trkpt lat="43.64032" lon="0.67824">
        <ele>194</ele>
        <time>2020-10-03T16:02:13.000Z</time>
      </trkpt>
      <trkpt lat="43.64037" lon="0.6781">
        <ele>191.60395914126</ele>
        <time>2020-10-03T16:02:17.000Z</time>
      </trkpt>
      <trkpt lat="43.6404" lon="0.67798">
        <ele>190.56044110614</ele>
        <time>2020-10-03T16:02:20.000Z</time>
      </trkpt>
      <trkpt lat="43.64045" lon="0.67786">
        <ele>189.6</ele>
        <time>2020-10-03T16:02:23.000Z</time>
      </trkpt>
      <trkpt lat="43.64049" lon="0.67773">
        <ele>189</ele>
        <time>2020-10-03T16:02:27.000Z</time>
      </trkpt>
      <trkpt lat="43.64051" lon="0.67759">
        <ele>189</ele>
        <time>2020-10-03T16:02:31.000Z</time>
      </trkpt>
      <trkpt lat="43.64055" lon="0.67746">
        <ele>188</ele>
        <time>2020-10-03T16:02:34.000Z</time>
      </trkpt>
      <trkpt lat="43.64058" lon="0.67734">
        <ele>187</ele>
        <time>2020-10-03T16:02:37.000Z</time>
      </trkpt>
      <trkpt lat="43.64062" lon="0.6772">
        <ele>186</ele>
        <time>2020-10-03T16:02:40.000Z</time>
      </trkpt>
      <trkpt lat="43.64066" lon="0.67708">
        <ele>185.29850603699</ele>
        <time>2020-10-03T16:02:43.000Z</time>
      </trkpt>
      <trkpt lat="43.64068" lon="0.67695">
        <ele>183.60194609104</ele>
        <time>2020-10-03T16:02:46.000Z</time>
      </trkpt>
      <trkpt lat="43.64071" lon="0.67679">
        <ele>182.92208590997</ele>
        <time>2020-10-03T16:02:49.000Z</time>
      </trkpt>
      <trkpt lat="43.64074" lon="0.67666">
        <ele>180.65420963227</ele>
        <time>2020-10-03T16:02:52.000Z</time>
      </trkpt>
      <trkpt lat="43.64075" lon="0.67658">
        <ele>179</ele>
        <time>2020-10-03T16:02:54.000Z</time>
      </trkpt>
      <trkpt lat="43.64077" lon="0.67649">
        <ele>178</ele>
        <time>2020-10-03T16:02:56.000Z</time>
      </trkpt>
      <trkpt lat="43.64079" lon="0.67645">
        <ele>178</ele>
        <time>2020-10-03T16:02:57.000Z</time>
      </trkpt>
      <trkpt lat="43.64081" lon="0.67641">
        <ele>178</ele>
        <time>2020-10-03T16:02:58.000Z</time>
      </trkpt>
      <trkpt lat="43.64083" lon="0.67637">
        <ele>178</ele>
        <time>2020-10-03T16:02:59.000Z</time>
      </trkpt>
      <trkpt lat="43.64085" lon="0.67633">
        <ele>178</ele>
        <time>2020-10-03T16:03:00.000Z</time>
      </trkpt>
      <trkpt lat="43.64087" lon="0.6763">
        <ele>178</ele>
        <time>2020-10-03T16:03:01.000Z</time>
      </trkpt>
      <trkpt lat="43.64089" lon="0.67627">
        <ele>178</ele>
        <time>2020-10-03T16:03:02.000Z</time>
      </trkpt>
      <trkpt lat="43.64092" lon="0.67624">
        <ele>178</ele>
        <time>2020-10-03T16:03:03.000Z</time>
      </trkpt>
      <trkpt lat="43.64094" lon="0.67621">
        <ele>178</ele>
        <time>2020-10-03T16:03:04.000Z</time>
      </trkpt>
      <trkpt lat="43.64097" lon="0.67618">
        <ele>178</ele>
        <time>2020-10-03T16:03:05.000Z</time>
      </trkpt>
      <trkpt lat="43.64099" lon="0.67615">
        <ele>177.5789450046</ele>
        <time>2020-10-03T16:03:06.000Z</time>
      </trkpt>
      <trkpt lat="43.64101" lon="0.67612">
        <ele>177</ele>
        <time>2020-10-03T16:03:07.000Z</time>
      </trkpt>
      <trkpt lat="43.64103" lon="0.67609">
        <ele>177</ele>
        <time>2020-10-03T16:03:08.000Z</time>
      </trkpt>
      <trkpt lat="43.64105" lon="0.67605">
        <ele>177</ele>
        <time>2020-10-03T16:03:09.000Z</time>
      </trkpt>
      <trkpt lat="43.64106" lon="0.67601">
        <ele>175.68421998159</ele>
        <time>2020-10-03T16:03:10.000Z</time>
      </trkpt>
      <trkpt lat="43.64108" lon="0.67597">
        <ele>174</ele>
        <time>2020-10-03T16:03:11.000Z</time>
      </trkpt>
      <trkpt lat="43.64109" lon="0.67593">
        <ele>174</ele>
        <time>2020-10-03T16:03:12.000Z</time>
      </trkpt>
      <trkpt lat="43.6411" lon="0.67589">
        <ele>173.75652241663</ele>
        <time>2020-10-03T16:03:13.000Z</time>
      </trkpt>
      <trkpt lat="43.64111" lon="0.67585">
        <ele>173</ele>
        <time>2020-10-03T16:03:14.000Z</time>
      </trkpt>
      <trkpt lat="43.64112" lon="0.67581">
        <ele>173</ele>
        <time>2020-10-03T16:03:15.000Z</time>
      </trkpt>
      <trkpt lat="43.64113" lon="0.67577">
        <ele>172.63094857143</ele>
        <time>2020-10-03T16:03:16.000Z</time>
      </trkpt>
      <trkpt lat="43.64114" lon="0.67574">
        <ele>172</ele>
        <time>2020-10-03T16:03:17.000Z</time>
      </trkpt>
      <trkpt lat="43.64114" lon="0.6757">
        <ele>172</ele>
        <time>2020-10-03T16:03:18.000Z</time>
      </trkpt>
      <trkpt lat="43.64115" lon="0.67566">
        <ele>172</ele>
        <time>2020-10-03T16:03:19.000Z</time>
      </trkpt>
      <trkpt lat="43.64116" lon="0.67562">
        <ele>172</ele>
        <time>2020-10-03T16:03:20.000Z</time>
      </trkpt>
      <trkpt lat="43.64118" lon="0.67557">
        <ele>172</ele>
        <time>2020-10-03T16:03:21.000Z</time>
      </trkpt>
      <trkpt lat="43.64119" lon="0.67553">
        <ele>172</ele>
        <time>2020-10-03T16:03:22.000Z</time>
      </trkpt>
      <trkpt lat="43.6412" lon="0.67549">
        <ele>172</ele>
        <time>2020-10-03T16:03:23.000Z</time>
      </trkpt>
      <trkpt lat="43.64122" lon="0.67545">
        <ele>172</ele>
        <time>2020-10-03T16:03:24.000Z</time>
      </trkpt>
      <trkpt lat="43.64123" lon="0.6754">
        <ele>172</ele>
        <time>2020-10-03T16:03:25.000Z</time>
      </trkpt>
      <trkpt lat="43.64125" lon="0.67536">
        <ele>171.65546580043</ele>
        <time>2020-10-03T16:03:26.000Z</time>
      </trkpt>
      <trkpt lat="43.64127" lon="0.67531">
        <ele>171</ele>
        <time>2020-10-03T16:03:27.000Z</time>
      </trkpt>
      <trkpt lat="43.64129" lon="0.67528">
        <ele>171</ele>
        <time>2020-10-03T16:03:28.000Z</time>
      </trkpt>
      <trkpt lat="43.6413" lon="0.67524">
        <ele>171</ele>
        <time>2020-10-03T16:03:29.000Z</time>
      </trkpt>
      <trkpt lat="43.64132" lon="0.6752">
        <ele>171</ele>
        <time>2020-10-03T16:03:30.000Z</time>
      </trkpt>
      <trkpt lat="43.64134" lon="0.67516">
        <ele>170.79365692111</ele>
        <time>2020-10-03T16:03:31.000Z</time>
      </trkpt>
      <trkpt lat="43.64135" lon="0.67512">
        <ele>169.50980712036</ele>
        <time>2020-10-03T16:03:32.000Z</time>
      </trkpt>
      <trkpt lat="43.64137" lon="0.67508">
        <ele>168.51020728028</ele>
        <time>2020-10-03T16:03:33.000Z</time>
      </trkpt>
      <trkpt lat="43.64139" lon="0.67505">
        <ele>168</ele>
        <time>2020-10-03T16:03:34.000Z</time>
      </trkpt>
      <trkpt lat="43.6414" lon="0.67502">
        <ele>168</ele>
        <time>2020-10-03T16:03:35.000Z</time>
      </trkpt>
      <trkpt lat="43.64141" lon="0.67498">
        <ele>167.63076741301</ele>
        <time>2020-10-03T16:03:36.000Z</time>
      </trkpt>
      <trkpt lat="43.64144" lon="0.67494">
        <ele>167</ele>
        <time>2020-10-03T16:03:37.000Z</time>
      </trkpt>
      <trkpt lat="43.64147" lon="0.67489">
        <ele>167</ele>
        <time>2020-10-03T16:03:38.000Z</time>
      </trkpt>
      <trkpt lat="43.64149" lon="0.67485">
        <ele>167</ele>
        <time>2020-10-03T16:03:39.000Z</time>
      </trkpt>
      <trkpt lat="43.64152" lon="0.67481">
        <ele>167</ele>
        <time>2020-10-03T16:03:40.000Z</time>
      </trkpt>
      <trkpt lat="43.64155" lon="0.67478">
        <ele>166.14783402342</ele>
        <time>2020-10-03T16:03:41.000Z</time>
      </trkpt>
      <trkpt lat="43.64162" lon="0.67468">
        <ele>163.75968684573</ele>
        <time>2020-10-03T16:03:44.000Z</time>
      </trkpt>
      <trkpt lat="43.64169" lon="0.67457">
        <ele>161</ele>
        <time>2020-10-03T16:03:47.000Z</time>
      </trkpt>
      <trkpt lat="43.64174" lon="0.67445">
        <ele>160</ele>
        <time>2020-10-03T16:03:50.000Z</time>
      </trkpt>
      <trkpt lat="43.64177" lon="0.67433">
        <ele>160</ele>
        <time>2020-10-03T16:03:53.000Z</time>
      </trkpt>
      <trkpt lat="43.64179" lon="0.67418">
        <ele>160</ele>
        <time>2020-10-03T16:03:56.000Z</time>
      </trkpt>
      <trkpt lat="43.64179" lon="0.67414">
        <ele>160</ele>
        <time>2020-10-03T16:03:57.000Z</time>
      </trkpt>
      <trkpt lat="43.64183" lon="0.67401">
        <ele>159</ele>
        <time>2020-10-03T16:04:01.000Z</time>
      </trkpt>
      <trkpt lat="43.64185" lon="0.67395">
        <ele>158</ele>
        <time>2020-10-03T16:04:04.000Z</time>
      </trkpt>
      <trkpt lat="43.64188" lon="0.67393">
        <ele>158</ele>
        <time>2020-10-03T16:04:07.000Z</time>
      </trkpt>
      <trkpt lat="43.64191" lon="0.67381">
        <ele>156</ele>
        <time>2020-10-03T16:04:19.000Z</time>
      </trkpt>
      <trkpt lat="43.64192" lon="0.67377">
        <ele>156</ele>
        <time>2020-10-03T16:04:22.000Z</time>
      </trkpt>
      <trkpt lat="43.64194" lon="0.67372">
        <ele>156.123077529</ele>
        <time>2020-10-03T16:04:25.000Z</time>
      </trkpt>
      <trkpt lat="43.64194" lon="0.67369">
        <ele>158.5</ele>
        <time>2020-10-03T16:04:27.000Z</time>
      </trkpt>
      <trkpt lat="43.64196" lon="0.67357">
        <ele>159</ele>
        <time>2020-10-03T16:04:34.000Z</time>
      </trkpt>
      <trkpt lat="43.64196" lon="0.67344">
        <ele>159</ele>
        <time>2020-10-03T16:04:41.000Z</time>
      </trkpt>
      <trkpt lat="43.64197" lon="0.67331">
        <ele>160</ele>
        <time>2020-10-03T16:04:49.000Z</time>
      </trkpt>
      <trkpt lat="43.64197" lon="0.67318">
        <ele>159</ele>
        <time>2020-10-03T16:04:55.000Z</time>
      </trkpt>
      <trkpt lat="43.64197" lon="0.67311">
        <ele>160</ele>
        <time>2020-10-03T16:04:58.000Z</time>
      </trkpt>
      <trkpt lat="43.64198" lon="0.67307">
        <ele>160</ele>
        <time>2020-10-03T16:05:00.000Z</time>
      </trkpt>
      <trkpt lat="43.64198" lon="0.67302">
        <ele>160</ele>
        <time>2020-10-03T16:05:02.000Z</time>
      </trkpt>
      <trkpt lat="43.64198" lon="0.67298">
        <ele>160</ele>
        <time>2020-10-03T16:05:04.000Z</time>
      </trkpt>
      <trkpt lat="43.64197" lon="0.67294">
        <ele>160</ele>
        <time>2020-10-03T16:05:06.000Z</time>
      </trkpt>
      <trkpt lat="43.64199" lon="0.67291">
        <ele>160</ele>
        <time>2020-10-03T16:05:08.000Z</time>
      </trkpt>
      <trkpt lat="43.64199" lon="0.67288">
        <ele>160</ele>
        <time>2020-10-03T16:05:10.000Z</time>
      </trkpt>
      <trkpt lat="43.642" lon="0.67284">
        <ele>160</ele>
        <time>2020-10-03T16:05:12.000Z</time>
      </trkpt>
      <trkpt lat="43.64201" lon="0.6728">
        <ele>160</ele>
        <time>2020-10-03T16:05:14.000Z</time>
      </trkpt>
      <trkpt lat="43.64204" lon="0.67267">
        <ele>162</ele>
        <time>2020-10-03T16:05:21.000Z</time>
      </trkpt>
      <trkpt lat="43.64205" lon="0.67263">
        <ele>162</ele>
        <time>2020-10-03T16:05:24.000Z</time>
      </trkpt>
      <trkpt lat="43.64207" lon="0.67256">
        <ele>165</ele>
        <time>2020-10-03T16:05:28.000Z</time>
      </trkpt>
      <trkpt lat="43.64207" lon="0.67252">
        <ele>165</ele>
        <time>2020-10-03T16:05:30.000Z</time>
      </trkpt>
      <trkpt lat="43.64206" lon="0.67238">
        <ele>166</ele>
        <time>2020-10-03T16:05:37.000Z</time>
      </trkpt>
      <trkpt lat="43.64207" lon="0.67232">
        <ele>166.05128247206</ele>
        <time>2020-10-03T16:05:40.000Z</time>
      </trkpt>
      <trkpt lat="43.64208" lon="0.67223">
        <ele>167</ele>
        <time>2020-10-03T16:05:44.000Z</time>
      </trkpt>
      <trkpt lat="43.64207" lon="0.6722">
        <ele>167</ele>
        <time>2020-10-03T16:05:45.000Z</time>
      </trkpt>
      <trkpt lat="43.64208" lon="0.67218">
        <ele>167</ele>
        <time>2020-10-03T16:05:46.000Z</time>
      </trkpt>
      <trkpt lat="43.64208" lon="0.67213">
        <ele>167</ele>
        <time>2020-10-03T16:05:48.000Z</time>
      </trkpt>
      <trkpt lat="43.64209" lon="0.67209">
        <ele>168</ele>
        <time>2020-10-03T16:05:50.000Z</time>
      </trkpt>
      <trkpt lat="43.64209" lon="0.67205">
        <ele>168</ele>
        <time>2020-10-03T16:05:52.000Z</time>
      </trkpt>
      <trkpt lat="43.6421" lon="0.67201">
        <ele>168</ele>
        <time>2020-10-03T16:05:54.000Z</time>
      </trkpt>
      <trkpt lat="43.6421" lon="0.67197">
        <ele>168.41583656503</ele>
        <time>2020-10-03T16:05:56.000Z</time>
      </trkpt>
      <trkpt lat="43.6421" lon="0.67193">
        <ele>169</ele>
        <time>2020-10-03T16:05:58.000Z</time>
      </trkpt>
      <trkpt lat="43.6421" lon="0.67189">
        <ele>169</ele>
        <time>2020-10-03T16:06:00.000Z</time>
      </trkpt>
      <trkpt lat="43.6421" lon="0.67185">
        <ele>169</ele>
        <time>2020-10-03T16:06:02.000Z</time>
      </trkpt>
      <trkpt lat="43.6421" lon="0.6718">
        <ele>169.287504</ele>
        <time>2020-10-03T16:06:04.000Z</time>
      </trkpt>
      <trkpt lat="43.64211" lon="0.67177">
        <ele>170</ele>
        <time>2020-10-03T16:06:06.000Z</time>
      </trkpt>
      <trkpt lat="43.64211" lon="0.67173">
        <ele>170</ele>
        <time>2020-10-03T16:06:08.000Z</time>
      </trkpt>
      <trkpt lat="43.64211" lon="0.67169">
        <ele>171</ele>
        <time>2020-10-03T16:06:10.000Z</time>
      </trkpt>
      <trkpt lat="43.64212" lon="0.67165">
        <ele>171</ele>
        <time>2020-10-03T16:06:12.000Z</time>
      </trkpt>
      <trkpt lat="43.64212" lon="0.67161">
        <ele>171</ele>
        <time>2020-10-03T16:06:14.000Z</time>
      </trkpt>
      <trkpt lat="43.64213" lon="0.67158">
        <ele>171</ele>
        <time>2020-10-03T16:06:18.000Z</time>
      </trkpt>
      <trkpt lat="43.64213" lon="0.67154">
        <ele>171</ele>
        <time>2020-10-03T16:06:20.000Z</time>
      </trkpt>
      <trkpt lat="43.64213" lon="0.67149">
        <ele>171.38000153598</ele>
        <time>2020-10-03T16:06:22.000Z</time>
      </trkpt>
      <trkpt lat="43.64213" lon="0.67146">
        <ele>172</ele>
        <time>2020-10-03T16:06:23.000Z</time>
      </trkpt>
      <trkpt lat="43.64213" lon="0.67144">
        <ele>172</ele>
        <time>2020-10-03T16:06:24.000Z</time>
      </trkpt>
      <trkpt lat="43.64213" lon="0.67141">
        <ele>172</ele>
        <time>2020-10-03T16:06:25.000Z</time>
      </trkpt>
      <trkpt lat="43.64213" lon="0.67138">
        <ele>172</ele>
        <time>2020-10-03T16:06:26.000Z</time>
      </trkpt>
      <trkpt lat="43.64213" lon="0.67136">
        <ele>172</ele>
        <time>2020-10-03T16:06:27.000Z</time>
      </trkpt>
      <trkpt lat="43.64214" lon="0.67133">
        <ele>172</ele>
        <time>2020-10-03T16:06:28.000Z</time>
      </trkpt>
      <trkpt lat="43.64214" lon="0.6713">
        <ele>172</ele>
        <time>2020-10-03T16:06:29.000Z</time>
      </trkpt>
      <trkpt lat="43.64215" lon="0.67125">
        <ele>172</ele>
        <time>2020-10-03T16:06:30.000Z</time>
      </trkpt>
      <trkpt lat="43.64216" lon="0.67122">
        <ele>172</ele>
        <time>2020-10-03T16:06:31.000Z</time>
      </trkpt>
      <trkpt lat="43.64216" lon="0.67118">
        <ele>172</ele>
        <time>2020-10-03T16:06:32.000Z</time>
      </trkpt>
      <trkpt lat="43.64217" lon="0.67112">
        <ele>172</ele>
        <time>2020-10-03T16:06:34.000Z</time>
      </trkpt>
      <trkpt lat="43.64217" lon="0.67108">
        <ele>172.40952810523</ele>
        <time>2020-10-03T16:06:35.000Z</time>
      </trkpt>
      <trkpt lat="43.64217" lon="0.67104">
        <ele>173</ele>
        <time>2020-10-03T16:06:36.000Z</time>
      </trkpt>
      <trkpt lat="43.64218" lon="0.6709">
        <ele>173</ele>
        <time>2020-10-03T16:06:40.000Z</time>
      </trkpt>
      <trkpt lat="43.64219" lon="0.67077">
        <ele>174</ele>
        <time>2020-10-03T16:06:44.000Z</time>
      </trkpt>
      <trkpt lat="43.64221" lon="0.67064">
        <ele>174</ele>
        <time>2020-10-03T16:06:48.000Z</time>
      </trkpt>
      <trkpt lat="43.64222" lon="0.67051">
        <ele>175</ele>
        <time>2020-10-03T16:06:52.000Z</time>
      </trkpt>
      <trkpt lat="43.64224" lon="0.67038">
        <ele>176</ele>
        <time>2020-10-03T16:06:56.000Z</time>
      </trkpt>
      <trkpt lat="43.64228" lon="0.67025">
        <ele>176</ele>
        <time>2020-10-03T16:07:00.000Z</time>
      </trkpt>
      <trkpt lat="43.64233" lon="0.67011">
        <ele>176.71559255954</ele>
        <time>2020-10-03T16:07:05.000Z</time>
      </trkpt>
      <trkpt lat="43.64239" lon="0.66997">
        <ele>176</ele>
        <time>2020-10-03T16:07:09.000Z</time>
      </trkpt>
      <trkpt lat="43.64244" lon="0.66984">
        <ele>175</ele>
        <time>2020-10-03T16:07:13.000Z</time>
      </trkpt>
      <trkpt lat="43.64243" lon="0.66969">
        <ele>176</ele>
        <time>2020-10-03T16:07:18.000Z</time>
      </trkpt>
      <trkpt lat="43.64242" lon="0.66954">
        <ele>178</ele>
        <time>2020-10-03T16:07:23.000Z</time>
      </trkpt>
      <trkpt lat="43.64242" lon="0.66941">
        <ele>178</ele>
        <time>2020-10-03T16:07:27.000Z</time>
      </trkpt>
      <trkpt lat="43.64241" lon="0.66931">
        <ele>178</ele>
        <time>2020-10-03T16:07:30.000Z</time>
      </trkpt>
      <trkpt lat="43.6424" lon="0.66928">
        <ele>178</ele>
        <time>2020-10-03T16:07:31.000Z</time>
      </trkpt>
      <trkpt lat="43.6424" lon="0.66925">
        <ele>178</ele>
        <time>2020-10-03T16:07:32.000Z</time>
      </trkpt>
      <trkpt lat="43.64239" lon="0.66922">
        <ele>178</ele>
        <time>2020-10-03T16:07:33.000Z</time>
      </trkpt>
      <trkpt lat="43.64239" lon="0.66919">
        <ele>178</ele>
        <time>2020-10-03T16:07:34.000Z</time>
      </trkpt>
      <trkpt lat="43.64238" lon="0.66915">
        <ele>178</ele>
        <time>2020-10-03T16:07:35.000Z</time>
      </trkpt>
      <trkpt lat="43.64237" lon="0.66912">
        <ele>178</ele>
        <time>2020-10-03T16:07:36.000Z</time>
      </trkpt>
      <trkpt lat="43.64237" lon="0.66909">
        <ele>178</ele>
        <time>2020-10-03T16:07:37.000Z</time>
      </trkpt>
      <trkpt lat="43.64236" lon="0.66906">
        <ele>178</ele>
        <time>2020-10-03T16:07:38.000Z</time>
      </trkpt>
      <trkpt lat="43.64235" lon="0.66903">
        <ele>178</ele>
        <time>2020-10-03T16:07:39.000Z</time>
      </trkpt>
      <trkpt lat="43.64234" lon="0.669">
        <ele>178</ele>
        <time>2020-10-03T16:07:40.000Z</time>
      </trkpt>
      <trkpt lat="43.64234" lon="0.66897">
        <ele>178</ele>
        <time>2020-10-03T16:07:41.000Z</time>
      </trkpt>
      <trkpt lat="43.64233" lon="0.66894">
        <ele>178.3780497323</ele>
        <time>2020-10-03T16:07:42.000Z</time>
      </trkpt>
      <trkpt lat="43.64232" lon="0.66891">
        <ele>179</ele>
        <time>2020-10-03T16:07:43.000Z</time>
      </trkpt>
      <trkpt lat="43.6423" lon="0.66878">
        <ele>179.29411764706</ele>
        <time>2020-10-03T16:07:47.000Z</time>
      </trkpt>
      <trkpt lat="43.64227" lon="0.66866">
        <ele>180</ele>
        <time>2020-10-03T16:07:51.000Z</time>
      </trkpt>
      <trkpt lat="43.64224" lon="0.66852">
        <ele>181</ele>
        <time>2020-10-03T16:07:56.000Z</time>
      </trkpt>
      <trkpt lat="43.64222" lon="0.6684">
        <ele>182</ele>
        <time>2020-10-03T16:08:00.000Z</time>
      </trkpt>
      <trkpt lat="43.64219" lon="0.66826">
        <ele>183</ele>
        <time>2020-10-03T16:08:05.000Z</time>
      </trkpt>
      <trkpt lat="43.64216" lon="0.66812">
        <ele>184</ele>
        <time>2020-10-03T16:08:10.000Z</time>
      </trkpt>
      <trkpt lat="43.64212" lon="0.66798">
        <ele>184.39582666667</ele>
        <time>2020-10-03T16:08:15.000Z</time>
      </trkpt>
      <trkpt lat="43.64208" lon="0.66784">
        <ele>185</ele>
        <time>2020-10-03T16:08:20.000Z</time>
      </trkpt>
      <trkpt lat="43.64204" lon="0.66771">
        <ele>186.40517517241</ele>
        <time>2020-10-03T16:08:25.000Z</time>
      </trkpt>
      <trkpt lat="43.64201" lon="0.66757">
        <ele>187</ele>
        <time>2020-10-03T16:08:30.000Z</time>
      </trkpt>
      <trkpt lat="43.64199" lon="0.66742">
        <ele>188</ele>
        <time>2020-10-03T16:08:34.000Z</time>
      </trkpt>
      <trkpt lat="43.64199" lon="0.66739">
        <ele>188</ele>
        <time>2020-10-03T16:08:35.000Z</time>
      </trkpt>
      <trkpt lat="43.64199" lon="0.66736">
        <ele>188</ele>
        <time>2020-10-03T16:08:36.000Z</time>
      </trkpt>
      <trkpt lat="43.64199" lon="0.66733">
        <ele>188</ele>
        <time>2020-10-03T16:08:37.000Z</time>
      </trkpt>
      <trkpt lat="43.64199" lon="0.6673">
        <ele>188</ele>
        <time>2020-10-03T16:08:38.000Z</time>
      </trkpt>
      <trkpt lat="43.64199" lon="0.66726">
        <ele>188</ele>
        <time>2020-10-03T16:08:39.000Z</time>
      </trkpt>
      <trkpt lat="43.64198" lon="0.66723">
        <ele>188.31192164968</ele>
        <time>2020-10-03T16:08:40.000Z</time>
      </trkpt>
      <trkpt lat="43.64198" lon="0.66719">
        <ele>189</ele>
        <time>2020-10-03T16:08:41.000Z</time>
      </trkpt>
      <trkpt lat="43.64198" lon="0.66716">
        <ele>189</ele>
        <time>2020-10-03T16:08:42.000Z</time>
      </trkpt>
      <trkpt lat="43.64198" lon="0.66712">
        <ele>189</ele>
        <time>2020-10-03T16:08:43.000Z</time>
      </trkpt>
      <trkpt lat="43.64198" lon="0.66709">
        <ele>189</ele>
        <time>2020-10-03T16:08:44.000Z</time>
      </trkpt>
      <trkpt lat="43.64197" lon="0.66706">
        <ele>189</ele>
        <time>2020-10-03T16:08:45.000Z</time>
      </trkpt>
      <trkpt lat="43.64197" lon="0.66703">
        <ele>188.68293215947</ele>
        <time>2020-10-03T16:08:46.000Z</time>
      </trkpt>
      <trkpt lat="43.64197" lon="0.667">
        <ele>188</ele>
        <time>2020-10-03T16:08:47.000Z</time>
      </trkpt>
      <trkpt lat="43.64197" lon="0.66696">
        <ele>188.75609946459</ele>
        <time>2020-10-03T16:08:48.000Z</time>
      </trkpt>
      <trkpt lat="43.64197" lon="0.66692">
        <ele>190</ele>
        <time>2020-10-03T16:08:49.000Z</time>
      </trkpt>
      <trkpt lat="43.64197" lon="0.66689">
        <ele>190</ele>
        <time>2020-10-03T16:08:50.000Z</time>
      </trkpt>
      <trkpt lat="43.64197" lon="0.66686">
        <ele>190</ele>
        <time>2020-10-03T16:08:51.000Z</time>
      </trkpt>
      <trkpt lat="43.64197" lon="0.66683">
        <ele>190</ele>
        <time>2020-10-03T16:08:52.000Z</time>
      </trkpt>
      <trkpt lat="43.64197" lon="0.66679">
        <ele>190</ele>
        <time>2020-10-03T16:08:53.000Z</time>
      </trkpt>
      <trkpt lat="43.64197" lon="0.66676">
        <ele>190</ele>
        <time>2020-10-03T16:08:54.000Z</time>
      </trkpt>
      <trkpt lat="43.64197" lon="0.66673">
        <ele>190</ele>
        <time>2020-10-03T16:08:55.000Z</time>
      </trkpt>
      <trkpt lat="43.64197" lon="0.6667">
        <ele>190.31706784053</ele>
        <time>2020-10-03T16:08:56.000Z</time>
      </trkpt>
      <trkpt lat="43.64197" lon="0.66667">
        <ele>191</ele>
        <time>2020-10-03T16:08:57.000Z</time>
      </trkpt>
      <trkpt lat="43.64197" lon="0.66663">
        <ele>191</ele>
        <time>2020-10-03T16:08:58.000Z</time>
      </trkpt>
      <trkpt lat="43.64196" lon="0.6666">
        <ele>191</ele>
        <time>2020-10-03T16:08:59.000Z</time>
      </trkpt>
      <trkpt lat="43.64196" lon="0.66657">
        <ele>191</ele>
        <time>2020-10-03T16:09:00.000Z</time>
      </trkpt>
      <trkpt lat="43.64196" lon="0.66653">
        <ele>191.38095431596</ele>
        <time>2020-10-03T16:09:01.000Z</time>
      </trkpt>
      <trkpt lat="43.64196" lon="0.6665">
        <ele>192</ele>
        <time>2020-10-03T16:09:02.000Z</time>
      </trkpt>
      <trkpt lat="43.64196" lon="0.66647">
        <ele>192</ele>
        <time>2020-10-03T16:09:03.000Z</time>
      </trkpt>
      <trkpt lat="43.64196" lon="0.66644">
        <ele>192</ele>
        <time>2020-10-03T16:09:04.000Z</time>
      </trkpt>
      <trkpt lat="43.64196" lon="0.66641">
        <ele>192.35714068024</ele>
        <time>2020-10-03T16:09:05.000Z</time>
      </trkpt>
      <trkpt lat="43.64196" lon="0.66637">
        <ele>192.60683536272</ele>
        <time>2020-10-03T16:09:06.000Z</time>
      </trkpt>
      <trkpt lat="43.64196" lon="0.66634">
        <ele>192</ele>
        <time>2020-10-03T16:09:07.000Z</time>
      </trkpt>
      <trkpt lat="43.64196" lon="0.66631">
        <ele>192</ele>
        <time>2020-10-03T16:09:08.000Z</time>
      </trkpt>
      <trkpt lat="43.64196" lon="0.66628">
        <ele>192</ele>
        <time>2020-10-03T16:09:09.000Z</time>
      </trkpt>
      <trkpt lat="43.64195" lon="0.66625">
        <ele>192.23232571369</ele>
        <time>2020-10-03T16:09:10.000Z</time>
      </trkpt>
      <trkpt lat="43.64195" lon="0.66622">
        <ele>193</ele>
        <time>2020-10-03T16:09:11.000Z</time>
      </trkpt>
      <trkpt lat="43.64195" lon="0.66619">
        <ele>193</ele>
        <time>2020-10-03T16:09:12.000Z</time>
      </trkpt>
      <trkpt lat="43.64195" lon="0.66616">
        <ele>193.32584027268</ele>
        <time>2020-10-03T16:09:13.000Z</time>
      </trkpt>
      <trkpt lat="43.64194" lon="0.66613">
        <ele>194</ele>
        <time>2020-10-03T16:09:14.000Z</time>
      </trkpt>
      <trkpt lat="43.64194" lon="0.6661">
        <ele>194</ele>
        <time>2020-10-03T16:09:15.000Z</time>
      </trkpt>
      <trkpt lat="43.64194" lon="0.66607">
        <ele>194</ele>
        <time>2020-10-03T16:09:16.000Z</time>
      </trkpt>
      <trkpt lat="43.64194" lon="0.66604">
        <ele>194</ele>
        <time>2020-10-03T16:09:17.000Z</time>
      </trkpt>
      <trkpt lat="43.64194" lon="0.666">
        <ele>194</ele>
        <time>2020-10-03T16:09:18.000Z</time>
      </trkpt>
      <trkpt lat="43.64194" lon="0.66597">
        <ele>194</ele>
        <time>2020-10-03T16:09:19.000Z</time>
      </trkpt>
      <trkpt lat="43.64194" lon="0.66594">
        <ele>194</ele>
        <time>2020-10-03T16:09:20.000Z</time>
      </trkpt>
      <trkpt lat="43.64194" lon="0.66591">
        <ele>194</ele>
        <time>2020-10-03T16:09:21.000Z</time>
      </trkpt>
      <trkpt lat="43.64194" lon="0.66588">
        <ele>194</ele>
        <time>2020-10-03T16:09:22.000Z</time>
      </trkpt>
      <trkpt lat="43.64194" lon="0.66585">
        <ele>194</ele>
        <time>2020-10-03T16:09:23.000Z</time>
      </trkpt>
      <trkpt lat="43.64194" lon="0.66582">
        <ele>193.5663732853</ele>
        <time>2020-10-03T16:09:24.000Z</time>
      </trkpt>
      <trkpt lat="43.64194" lon="0.66579">
        <ele>193</ele>
        <time>2020-10-03T16:09:25.000Z</time>
      </trkpt>
      <trkpt lat="43.64194" lon="0.66576">
        <ele>193</ele>
        <time>2020-10-03T16:09:26.000Z</time>
      </trkpt>
      <trkpt lat="43.64193" lon="0.66573">
        <ele>193.30973822227</ele>
        <time>2020-10-03T16:09:27.000Z</time>
      </trkpt>
      <trkpt lat="43.64193" lon="0.6657">
        <ele>194</ele>
        <time>2020-10-03T16:09:28.000Z</time>
      </trkpt>
      <trkpt lat="43.64193" lon="0.66566">
        <ele>194</ele>
        <time>2020-10-03T16:09:29.000Z</time>
      </trkpt>
      <trkpt lat="43.64193" lon="0.66563">
        <ele>194.6548634474</ele>
        <time>2020-10-03T16:09:30.000Z</time>
      </trkpt>
      <trkpt lat="43.64193" lon="0.6656">
        <ele>196</ele>
        <time>2020-10-03T16:09:31.000Z</time>
      </trkpt>
      <trkpt lat="43.64193" lon="0.66557">
        <ele>196</ele>
        <time>2020-10-03T16:09:32.000Z</time>
      </trkpt>
      <trkpt lat="43.64193" lon="0.66554">
        <ele>196</ele>
        <time>2020-10-03T16:09:33.000Z</time>
      </trkpt>
      <trkpt lat="43.64193" lon="0.6655">
        <ele>196</ele>
        <time>2020-10-03T16:09:34.000Z</time>
      </trkpt>
      <trkpt lat="43.64193" lon="0.66547">
        <ele>196</ele>
        <time>2020-10-03T16:09:35.000Z</time>
      </trkpt>
      <trkpt lat="43.64193" lon="0.66544">
        <ele>196.20000222608</ele>
        <time>2020-10-03T16:09:36.000Z</time>
      </trkpt>
      <trkpt lat="43.64193" lon="0.66541">
        <ele>197</ele>
        <time>2020-10-03T16:09:37.000Z</time>
      </trkpt>
      <trkpt lat="43.64193" lon="0.66538">
        <ele>197</ele>
        <time>2020-10-03T16:09:38.000Z</time>
      </trkpt>
      <trkpt lat="43.64193" lon="0.66535">
        <ele>197</ele>
        <time>2020-10-03T16:09:39.000Z</time>
      </trkpt>
      <trkpt lat="43.64193" lon="0.66532">
        <ele>197</ele>
        <time>2020-10-03T16:09:40.000Z</time>
      </trkpt>
      <trkpt lat="43.64193" lon="0.66529">
        <ele>197</ele>
        <time>2020-10-03T16:09:41.000Z</time>
      </trkpt>
      <trkpt lat="43.64193" lon="0.66526">
        <ele>197</ele>
        <time>2020-10-03T16:09:42.000Z</time>
      </trkpt>
      <trkpt lat="43.64193" lon="0.66523">
        <ele>197</ele>
        <time>2020-10-03T16:09:43.000Z</time>
      </trkpt>
      <trkpt lat="43.64193" lon="0.6652">
        <ele>197</ele>
        <time>2020-10-03T16:09:44.000Z</time>
      </trkpt>
      <trkpt lat="43.64193" lon="0.66517">
        <ele>197</ele>
        <time>2020-10-03T16:09:45.000Z</time>
      </trkpt>
      <trkpt lat="43.64193" lon="0.66513">
        <ele>197</ele>
        <time>2020-10-03T16:09:46.000Z</time>
      </trkpt>
      <trkpt lat="43.64193" lon="0.6651">
        <ele>197</ele>
        <time>2020-10-03T16:09:47.000Z</time>
      </trkpt>
      <trkpt lat="43.64193" lon="0.66508">
        <ele>197</ele>
        <time>2020-10-03T16:09:48.000Z</time>
      </trkpt>
      <trkpt lat="43.64192" lon="0.66505">
        <ele>197</ele>
        <time>2020-10-03T16:09:49.000Z</time>
      </trkpt>
      <trkpt lat="43.64192" lon="0.66502">
        <ele>197</ele>
        <time>2020-10-03T16:09:50.000Z</time>
      </trkpt>
      <trkpt lat="43.64192" lon="0.66499">
        <ele>197.64444191603</ele>
        <time>2020-10-03T16:09:51.000Z</time>
      </trkpt>
      <trkpt lat="43.64192" lon="0.66496">
        <ele>199</ele>
        <time>2020-10-03T16:09:52.000Z</time>
      </trkpt>
      <trkpt lat="43.64192" lon="0.66494">
        <ele>199</ele>
        <time>2020-10-03T16:09:53.000Z</time>
      </trkpt>
      <trkpt lat="43.64192" lon="0.6649">
        <ele>199.6972533086</ele>
        <time>2020-10-03T16:09:54.000Z</time>
      </trkpt>
      <trkpt lat="43.64191" lon="0.66488">
        <ele>201</ele>
        <time>2020-10-03T16:09:55.000Z</time>
      </trkpt>
      <trkpt lat="43.64191" lon="0.66485">
        <ele>201</ele>
        <time>2020-10-03T16:09:56.000Z</time>
      </trkpt>
      <trkpt lat="43.64191" lon="0.66482">
        <ele>201</ele>
        <time>2020-10-03T16:09:57.000Z</time>
      </trkpt>
      <trkpt lat="43.64191" lon="0.66479">
        <ele>201</ele>
        <time>2020-10-03T16:09:58.000Z</time>
      </trkpt>
      <trkpt lat="43.64191" lon="0.66477">
        <ele>201</ele>
        <time>2020-10-03T16:09:59.000Z</time>
      </trkpt>
      <trkpt lat="43.64191" lon="0.66474">
        <ele>201</ele>
        <time>2020-10-03T16:10:00.000Z</time>
      </trkpt>
      <trkpt lat="43.64191" lon="0.66471">
        <ele>201.1264399947</ele>
        <time>2020-10-03T16:10:01.000Z</time>
      </trkpt>
      <trkpt lat="43.6419" lon="0.66469">
        <ele>202</ele>
        <time>2020-10-03T16:10:02.000Z</time>
      </trkpt>
      <trkpt lat="43.6419" lon="0.66466">
        <ele>202</ele>
        <time>2020-10-03T16:10:03.000Z</time>
      </trkpt>
      <trkpt lat="43.64191" lon="0.66464">
        <ele>202</ele>
        <time>2020-10-03T16:10:04.000Z</time>
      </trkpt>
      <trkpt lat="43.64191" lon="0.66459">
        <ele>202</ele>
        <time>2020-10-03T16:10:06.000Z</time>
      </trkpt>
      <trkpt lat="43.64191" lon="0.66455">
        <ele>202</ele>
        <time>2020-10-03T16:10:08.000Z</time>
      </trkpt>
      <trkpt lat="43.64192" lon="0.66451">
        <ele>202</ele>
        <time>2020-10-03T16:10:10.000Z</time>
      </trkpt>
      <trkpt lat="43.64192" lon="0.66448">
        <ele>203</ele>
        <time>2020-10-03T16:10:12.000Z</time>
      </trkpt>
      <trkpt lat="43.64191" lon="0.66445">
        <ele>203</ele>
        <time>2020-10-03T16:10:14.000Z</time>
      </trkpt>
      <trkpt lat="43.6419" lon="0.66432">
        <ele>205.43859964295</ele>
        <time>2020-10-03T16:10:21.000Z</time>
      </trkpt>
      <trkpt lat="43.6419" lon="0.66428">
        <ele>206</ele>
        <time>2020-10-03T16:10:23.000Z</time>
      </trkpt>
      <trkpt lat="43.6419" lon="0.66424">
        <ele>207</ele>
        <time>2020-10-03T16:10:25.000Z</time>
      </trkpt>
      <trkpt lat="43.64191" lon="0.66411">
        <ele>208</ele>
        <time>2020-10-03T16:10:32.000Z</time>
      </trkpt>
      <trkpt lat="43.64193" lon="0.66397">
        <ele>210</ele>
        <time>2020-10-03T16:10:39.000Z</time>
      </trkpt>
      <trkpt lat="43.64193" lon="0.66383">
        <ele>211</ele>
        <time>2020-10-03T16:10:46.000Z</time>
      </trkpt>
      <trkpt lat="43.64193" lon="0.66372">
        <ele>211</ele>
        <time>2020-10-03T16:10:51.000Z</time>
      </trkpt>
      <trkpt lat="43.64193" lon="0.66368">
        <ele>212</ele>
        <time>2020-10-03T16:10:53.000Z</time>
      </trkpt>
      <trkpt lat="43.64193" lon="0.66364">
        <ele>212</ele>
        <time>2020-10-03T16:10:55.000Z</time>
      </trkpt>
      <trkpt lat="43.64194" lon="0.66359">
        <ele>212</ele>
        <time>2020-10-03T16:10:57.000Z</time>
      </trkpt>
      <trkpt lat="43.64194" lon="0.66355">
        <ele>213</ele>
        <time>2020-10-03T16:10:59.000Z</time>
      </trkpt>
      <trkpt lat="43.64195" lon="0.66351">
        <ele>213</ele>
        <time>2020-10-03T16:11:01.000Z</time>
      </trkpt>
      <trkpt lat="43.64196" lon="0.66347">
        <ele>213</ele>
        <time>2020-10-03T16:11:03.000Z</time>
      </trkpt>
      <trkpt lat="43.64196" lon="0.6634">
        <ele>213</ele>
        <time>2020-10-03T16:11:06.000Z</time>
      </trkpt>
      <trkpt lat="43.64196" lon="0.66336">
        <ele>213.24742349665</ele>
        <time>2020-10-03T16:11:08.000Z</time>
      </trkpt>
      <trkpt lat="43.64197" lon="0.66332">
        <ele>214</ele>
        <time>2020-10-03T16:11:10.000Z</time>
      </trkpt>
      <trkpt lat="43.64197" lon="0.66328">
        <ele>214</ele>
        <time>2020-10-03T16:11:12.000Z</time>
      </trkpt>
      <trkpt lat="43.64196" lon="0.66324">
        <ele>215</ele>
        <time>2020-10-03T16:11:14.000Z</time>
      </trkpt>
      <trkpt lat="43.64197" lon="0.6632">
        <ele>215.37878670339</ele>
        <time>2020-10-03T16:11:16.000Z</time>
      </trkpt>
      <trkpt lat="43.64197" lon="0.66316">
        <ele>216</ele>
        <time>2020-10-03T16:11:18.000Z</time>
      </trkpt>
      <trkpt lat="43.64197" lon="0.66313">
        <ele>216</ele>
        <time>2020-10-03T16:11:20.000Z</time>
      </trkpt>
      <trkpt lat="43.64197" lon="0.66309">
        <ele>217</ele>
        <time>2020-10-03T16:11:22.000Z</time>
      </trkpt>
      <trkpt lat="43.64198" lon="0.66306">
        <ele>217</ele>
        <time>2020-10-03T16:11:24.000Z</time>
      </trkpt>
      <trkpt lat="43.64197" lon="0.66303">
        <ele>217</ele>
        <time>2020-10-03T16:11:26.000Z</time>
      </trkpt>
      <trkpt lat="43.64198" lon="0.663">
        <ele>218</ele>
        <time>2020-10-03T16:11:28.000Z</time>
      </trkpt>
      <trkpt lat="43.64199" lon="0.66296">
        <ele>219</ele>
        <time>2020-10-03T16:11:30.000Z</time>
      </trkpt>
      <trkpt lat="43.642" lon="0.66293">
        <ele>219</ele>
        <time>2020-10-03T16:11:32.000Z</time>
      </trkpt>
      <trkpt lat="43.64201" lon="0.66289">
        <ele>219.41860776638</ele>
        <time>2020-10-03T16:11:34.000Z</time>
      </trkpt>
      <trkpt lat="43.64202" lon="0.66286">
        <ele>220</ele>
        <time>2020-10-03T16:11:36.000Z</time>
      </trkpt>
      <trkpt lat="43.64203" lon="0.66283">
        <ele>220</ele>
        <time>2020-10-03T16:11:38.000Z</time>
      </trkpt>
      <trkpt lat="43.64204" lon="0.66279">
        <ele>222</ele>
        <time>2020-10-03T16:11:40.000Z</time>
      </trkpt>
      <trkpt lat="43.64204" lon="0.66276">
        <ele>223</ele>
        <time>2020-10-03T16:11:42.000Z</time>
      </trkpt>
      <trkpt lat="43.64206" lon="0.66272">
        <ele>223</ele>
        <time>2020-10-03T16:11:44.000Z</time>
      </trkpt>
      <trkpt lat="43.64207" lon="0.66268">
        <ele>223</ele>
        <time>2020-10-03T16:11:46.000Z</time>
      </trkpt>
      <trkpt lat="43.64208" lon="0.66265">
        <ele>223.35294471968</ele>
        <time>2020-10-03T16:11:48.000Z</time>
      </trkpt>
      <trkpt lat="43.64208" lon="0.66262">
        <ele>224</ele>
        <time>2020-10-03T16:11:50.000Z</time>
      </trkpt>
      <trkpt lat="43.64208" lon="0.66259">
        <ele>225</ele>
        <time>2020-10-03T16:11:52.000Z</time>
      </trkpt>
      <trkpt lat="43.64209" lon="0.66255">
        <ele>225</ele>
        <time>2020-10-03T16:11:54.000Z</time>
      </trkpt>
      <trkpt lat="43.64209" lon="0.66252">
        <ele>225.80000465457</ele>
        <time>2020-10-03T16:11:56.000Z</time>
      </trkpt>
      <trkpt lat="43.6421" lon="0.66249">
        <ele>227.30935410796</ele>
        <time>2020-10-03T16:11:59.000Z</time>
      </trkpt>
      <trkpt lat="43.64212" lon="0.66248">
        <ele>228</ele>
        <time>2020-10-03T16:12:01.000Z</time>
      </trkpt>
      <trkpt lat="43.64215" lon="0.66248">
        <ele>228</ele>
        <time>2020-10-03T16:12:03.000Z</time>
      </trkpt>
      <trkpt lat="43.64217" lon="0.66248">
        <ele>227</ele>
        <time>2020-10-03T16:12:05.000Z</time>
      </trkpt>
      <trkpt lat="43.64219" lon="0.66249">
        <ele>227</ele>
        <time>2020-10-03T16:12:07.000Z</time>
      </trkpt>
      <trkpt lat="43.64221" lon="0.6625">
        <ele>227</ele>
        <time>2020-10-03T16:12:09.000Z</time>
      </trkpt>
      <trkpt lat="43.64224" lon="0.66251">
        <ele>227</ele>
        <time>2020-10-03T16:12:11.000Z</time>
      </trkpt>
      <trkpt lat="43.64226" lon="0.66252">
        <ele>227</ele>
        <time>2020-10-03T16:12:13.000Z</time>
      </trkpt>
      <trkpt lat="43.64229" lon="0.66254">
        <ele>227</ele>
        <time>2020-10-03T16:12:15.000Z</time>
      </trkpt>
      <trkpt lat="43.64231" lon="0.66256">
        <ele>227</ele>
        <time>2020-10-03T16:12:17.000Z</time>
      </trkpt>
      <trkpt lat="43.64234" lon="0.66258">
        <ele>227</ele>
        <time>2020-10-03T16:12:19.000Z</time>
      </trkpt>
      <trkpt lat="43.64235" lon="0.6626">
        <ele>228</ele>
        <time>2020-10-03T16:12:21.000Z</time>
      </trkpt>
      <trkpt lat="43.64238" lon="0.66263">
        <ele>228</ele>
        <time>2020-10-03T16:12:23.000Z</time>
      </trkpt>
      <trkpt lat="43.64241" lon="0.66264">
        <ele>228</ele>
        <time>2020-10-03T16:12:25.000Z</time>
      </trkpt>
      <trkpt lat="43.64243" lon="0.66267">
        <ele>228</ele>
        <time>2020-10-03T16:12:27.000Z</time>
      </trkpt>
      <trkpt lat="43.64246" lon="0.6627">
        <ele>228</ele>
        <time>2020-10-03T16:12:29.000Z</time>
      </trkpt>
      <trkpt lat="43.64249" lon="0.66273">
        <ele>228</ele>
        <time>2020-10-03T16:12:31.000Z</time>
      </trkpt>
      <trkpt lat="43.6425" lon="0.66274">
        <ele>228</ele>
        <time>2020-10-03T16:12:32.000Z</time>
      </trkpt>
      <trkpt lat="43.64252" lon="0.66275">
        <ele>227.59821714286</ele>
        <time>2020-10-03T16:12:33.000Z</time>
      </trkpt>
      <trkpt lat="43.64253" lon="0.66277">
        <ele>227</ele>
        <time>2020-10-03T16:12:34.000Z</time>
      </trkpt>
      <trkpt lat="43.64257" lon="0.66279">
        <ele>227.4333338074</ele>
        <time>2020-10-03T16:12:36.000Z</time>
      </trkpt>
      <trkpt lat="43.64258" lon="0.6628">
        <ele>228</ele>
        <time>2020-10-03T16:12:37.000Z</time>
      </trkpt>
      <trkpt lat="43.64261" lon="0.66281">
        <ele>228</ele>
        <time>2020-10-03T16:12:39.000Z</time>
      </trkpt>
      <trkpt lat="43.64265" lon="0.66282">
        <ele>228.42424751758</ele>
        <time>2020-10-03T16:12:41.000Z</time>
      </trkpt>
      <trkpt lat="43.64267" lon="0.66282">
        <ele>229</ele>
        <time>2020-10-03T16:12:42.000Z</time>
      </trkpt>
      <trkpt lat="43.6427" lon="0.66282">
        <ele>229</ele>
        <time>2020-10-03T16:12:43.000Z</time>
      </trkpt>
      <trkpt lat="43.64272" lon="0.66282">
        <ele>229</ele>
        <time>2020-10-03T16:12:44.000Z</time>
      </trkpt>
      <trkpt lat="43.64275" lon="0.66281">
        <ele>229.42424751758</ele>
        <time>2020-10-03T16:12:45.000Z</time>
      </trkpt>
      <trkpt lat="43.64278" lon="0.6628">
        <ele>230</ele>
        <time>2020-10-03T16:12:46.000Z</time>
      </trkpt>
      <trkpt lat="43.6428" lon="0.66279">
        <ele>230</ele>
        <time>2020-10-03T16:12:47.000Z</time>
      </trkpt>
      <trkpt lat="43.64283" lon="0.66278">
        <ele>230</ele>
        <time>2020-10-03T16:12:48.000Z</time>
      </trkpt>
      <trkpt lat="43.64286" lon="0.66278">
        <ele>230</ele>
        <time>2020-10-03T16:12:49.000Z</time>
      </trkpt>
      <trkpt lat="43.64289" lon="0.66279">
        <ele>230</ele>
        <time>2020-10-03T16:12:50.000Z</time>
      </trkpt>
      <trkpt lat="43.64291" lon="0.66279">
        <ele>230</ele>
        <time>2020-10-03T16:12:51.000Z</time>
      </trkpt>
      <trkpt lat="43.64293" lon="0.66279">
        <ele>230.77271272727</ele>
        <time>2020-10-03T16:12:52.000Z</time>
      </trkpt>
      <trkpt lat="43.64296" lon="0.66279">
        <ele>232</ele>
        <time>2020-10-03T16:12:53.000Z</time>
      </trkpt>
      <trkpt lat="43.64299" lon="0.6628">
        <ele>231.56817454546</ele>
        <time>2020-10-03T16:12:54.000Z</time>
      </trkpt>
      <trkpt lat="43.64301" lon="0.6628">
        <ele>231</ele>
        <time>2020-10-03T16:12:55.000Z</time>
      </trkpt>
      <trkpt lat="43.64304" lon="0.6628">
        <ele>230.68571428571</ele>
        <time>2020-10-03T16:12:56.000Z</time>
      </trkpt>
      <trkpt lat="43.64307" lon="0.66281">
        <ele>230</ele>
        <time>2020-10-03T16:12:57.000Z</time>
      </trkpt>
      <trkpt lat="43.64309" lon="0.66282">
        <ele>230</ele>
        <time>2020-10-03T16:12:58.000Z</time>
      </trkpt>
      <trkpt lat="43.64312" lon="0.66283">
        <ele>230</ele>
        <time>2020-10-03T16:12:59.000Z</time>
      </trkpt>
      <trkpt lat="43.64314" lon="0.66284">
        <ele>230</ele>
        <time>2020-10-03T16:13:00.000Z</time>
      </trkpt>
      <trkpt lat="43.64317" lon="0.66285">
        <ele>230.40449583639</ele>
        <time>2020-10-03T16:13:01.000Z</time>
      </trkpt>
      <trkpt lat="43.6432" lon="0.66285">
        <ele>231</ele>
        <time>2020-10-03T16:13:02.000Z</time>
      </trkpt>
      <trkpt lat="43.64323" lon="0.66286">
        <ele>231</ele>
        <time>2020-10-03T16:13:03.000Z</time>
      </trkpt>
      <trkpt lat="43.64326" lon="0.66287">
        <ele>231</ele>
        <time>2020-10-03T16:13:04.000Z</time>
      </trkpt>
      <trkpt lat="43.64328" lon="0.66288">
        <ele>231</ele>
        <time>2020-10-03T16:13:05.000Z</time>
      </trkpt>
      <trkpt lat="43.64331" lon="0.66287">
        <ele>230.61606857143</ele>
        <time>2020-10-03T16:13:06.000Z</time>
      </trkpt>
      <trkpt lat="43.64333" lon="0.66286">
        <ele>230</ele>
        <time>2020-10-03T16:13:07.000Z</time>
      </trkpt>
      <trkpt lat="43.64336" lon="0.66284">
        <ele>229.65714285714</ele>
        <time>2020-10-03T16:13:08.000Z</time>
      </trkpt>
      <trkpt lat="43.64338" lon="0.66282">
        <ele>229</ele>
        <time>2020-10-03T16:13:09.000Z</time>
      </trkpt>
      <trkpt lat="43.64341" lon="0.6628">
        <ele>229</ele>
        <time>2020-10-03T16:13:10.000Z</time>
      </trkpt>
      <trkpt lat="43.64343" lon="0.66278">
        <ele>229.38211542864</ele>
        <time>2020-10-03T16:13:11.000Z</time>
      </trkpt>
      <trkpt lat="43.64345" lon="0.66275">
        <ele>230</ele>
        <time>2020-10-03T16:13:12.000Z</time>
      </trkpt>
      <trkpt lat="43.64347" lon="0.66273">
        <ele>230</ele>
        <time>2020-10-03T16:13:13.000Z</time>
      </trkpt>
      <trkpt lat="43.64349" lon="0.6627">
        <ele>230</ele>
        <time>2020-10-03T16:13:14.000Z</time>
      </trkpt>
      <trkpt lat="43.64352" lon="0.66268">
        <ele>230</ele>
        <time>2020-10-03T16:13:15.000Z</time>
      </trkpt>
      <trkpt lat="43.64354" lon="0.66266">
        <ele>230</ele>
        <time>2020-10-03T16:13:16.000Z</time>
      </trkpt>
      <trkpt lat="43.64356" lon="0.66264">
        <ele>230</ele>
        <time>2020-10-03T16:13:17.000Z</time>
      </trkpt>
      <trkpt lat="43.64359" lon="0.66261">
        <ele>230</ele>
        <time>2020-10-03T16:13:18.000Z</time>
      </trkpt>
      <trkpt lat="43.64361" lon="0.66259">
        <ele>230</ele>
        <time>2020-10-03T16:13:19.000Z</time>
      </trkpt>
      <trkpt lat="43.64363" lon="0.66257">
        <ele>230</ele>
        <time>2020-10-03T16:13:20.000Z</time>
      </trkpt>
      <trkpt lat="43.64366" lon="0.66254">
        <ele>230</ele>
        <time>2020-10-03T16:13:21.000Z</time>
      </trkpt>
      <trkpt lat="43.64368" lon="0.66252">
        <ele>230</ele>
        <time>2020-10-03T16:13:22.000Z</time>
      </trkpt>
      <trkpt lat="43.6437" lon="0.6625">
        <ele>230</ele>
        <time>2020-10-03T16:13:23.000Z</time>
      </trkpt>
      <trkpt lat="43.64373" lon="0.66248">
        <ele>230</ele>
        <time>2020-10-03T16:13:24.000Z</time>
      </trkpt>
      <trkpt lat="43.64376" lon="0.66247">
        <ele>230</ele>
        <time>2020-10-03T16:13:25.000Z</time>
      </trkpt>
      <trkpt lat="43.64378" lon="0.66245">
        <ele>230</ele>
        <time>2020-10-03T16:13:26.000Z</time>
      </trkpt>
      <trkpt lat="43.64381" lon="0.66243">
        <ele>230</ele>
        <time>2020-10-03T16:13:27.000Z</time>
      </trkpt>
      <trkpt lat="43.64383" lon="0.66241">
        <ele>230</ele>
        <time>2020-10-03T16:13:28.000Z</time>
      </trkpt>
      <trkpt lat="43.64386" lon="0.6624">
        <ele>230</ele>
        <time>2020-10-03T16:13:29.000Z</time>
      </trkpt>
      <trkpt lat="43.64388" lon="0.66239">
        <ele>230</ele>
        <time>2020-10-03T16:13:30.000Z</time>
      </trkpt>
      <trkpt lat="43.6439" lon="0.66239">
        <ele>230.32381265847</ele>
        <time>2020-10-03T16:13:31.000Z</time>
      </trkpt>
      <trkpt lat="43.64392" lon="0.66239">
        <ele>231</ele>
        <time>2020-10-03T16:13:32.000Z</time>
      </trkpt>
      <trkpt lat="43.64396" lon="0.66239">
        <ele>232</ele>
        <time>2020-10-03T16:13:34.000Z</time>
      </trkpt>
      <trkpt lat="43.64398" lon="0.66239">
        <ele>232</ele>
        <time>2020-10-03T16:13:35.000Z</time>
      </trkpt>
      <trkpt lat="43.64401" lon="0.66238">
        <ele>232</ele>
        <time>2020-10-03T16:13:36.000Z</time>
      </trkpt>
      <trkpt lat="43.64404" lon="0.66237">
        <ele>232</ele>
        <time>2020-10-03T16:13:37.000Z</time>
      </trkpt>
      <trkpt lat="43.64406" lon="0.66237">
        <ele>232</ele>
        <time>2020-10-03T16:13:38.000Z</time>
      </trkpt>
      <trkpt lat="43.64409" lon="0.66235">
        <ele>232</ele>
        <time>2020-10-03T16:13:39.000Z</time>
      </trkpt>
      <trkpt lat="43.64412" lon="0.66234">
        <ele>232</ele>
        <time>2020-10-03T16:13:40.000Z</time>
      </trkpt>
      <trkpt lat="43.64414" lon="0.66233">
        <ele>232</ele>
        <time>2020-10-03T16:13:41.000Z</time>
      </trkpt>
      <trkpt lat="43.64417" lon="0.66232">
        <ele>232</ele>
        <time>2020-10-03T16:13:42.000Z</time>
      </trkpt>
      <trkpt lat="43.6442" lon="0.66231">
        <ele>232</ele>
        <time>2020-10-03T16:13:43.000Z</time>
      </trkpt>
      <trkpt lat="43.64422" lon="0.6623">
        <ele>232</ele>
        <time>2020-10-03T16:13:44.000Z</time>
      </trkpt>
      <trkpt lat="43.64425" lon="0.66229">
        <ele>232</ele>
        <time>2020-10-03T16:13:45.000Z</time>
      </trkpt>
      <trkpt lat="43.64427" lon="0.66228">
        <ele>232</ele>
        <time>2020-10-03T16:13:46.000Z</time>
      </trkpt>
      <trkpt lat="43.6443" lon="0.66226">
        <ele>232</ele>
        <time>2020-10-03T16:13:47.000Z</time>
      </trkpt>
      <trkpt lat="43.64432" lon="0.66225">
        <ele>232</ele>
        <time>2020-10-03T16:13:48.000Z</time>
      </trkpt>
      <trkpt lat="43.64435" lon="0.66223">
        <ele>232</ele>
        <time>2020-10-03T16:13:49.000Z</time>
      </trkpt>
      <trkpt lat="43.64437" lon="0.66221">
        <ele>232</ele>
        <time>2020-10-03T16:13:50.000Z</time>
      </trkpt>
      <trkpt lat="43.6444" lon="0.66219">
        <ele>232</ele>
        <time>2020-10-03T16:13:51.000Z</time>
      </trkpt>
      <trkpt lat="43.64442" lon="0.66217">
        <ele>232</ele>
        <time>2020-10-03T16:13:52.000Z</time>
      </trkpt>
      <trkpt lat="43.64445" lon="0.66215">
        <ele>232</ele>
        <time>2020-10-03T16:13:53.000Z</time>
      </trkpt>
      <trkpt lat="43.64447" lon="0.66213">
        <ele>232</ele>
        <time>2020-10-03T16:13:54.000Z</time>
      </trkpt>
      <trkpt lat="43.64449" lon="0.6621">
        <ele>232</ele>
        <time>2020-10-03T16:13:55.000Z</time>
      </trkpt>
      <trkpt lat="43.64451" lon="0.66208">
        <ele>232</ele>
        <time>2020-10-03T16:13:56.000Z</time>
      </trkpt>
      <trkpt lat="43.64454" lon="0.66205">
        <ele>232</ele>
        <time>2020-10-03T16:13:57.000Z</time>
      </trkpt>
      <trkpt lat="43.64456" lon="0.66203">
        <ele>232</ele>
        <time>2020-10-03T16:13:58.000Z</time>
      </trkpt>
      <trkpt lat="43.64458" lon="0.662">
        <ele>232</ele>
        <time>2020-10-03T16:13:59.000Z</time>
      </trkpt>
      <trkpt lat="43.64461" lon="0.66199">
        <ele>232</ele>
        <time>2020-10-03T16:14:00.000Z</time>
      </trkpt>
      <trkpt lat="43.64463" lon="0.66196">
        <ele>232</ele>
        <time>2020-10-03T16:14:01.000Z</time>
      </trkpt>
      <trkpt lat="43.64466" lon="0.66194">
        <ele>232</ele>
        <time>2020-10-03T16:14:02.000Z</time>
      </trkpt>
      <trkpt lat="43.64468" lon="0.66192">
        <ele>232</ele>
        <time>2020-10-03T16:14:03.000Z</time>
      </trkpt>
      <trkpt lat="43.6447" lon="0.66189">
        <ele>232</ele>
        <time>2020-10-03T16:14:04.000Z</time>
      </trkpt>
      <trkpt lat="43.64472" lon="0.66187">
        <ele>232</ele>
        <time>2020-10-03T16:14:05.000Z</time>
      </trkpt>
      <trkpt lat="43.64474" lon="0.66184">
        <ele>232</ele>
        <time>2020-10-03T16:14:06.000Z</time>
      </trkpt>
      <trkpt lat="43.64477" lon="0.66181">
        <ele>232</ele>
        <time>2020-10-03T16:14:07.000Z</time>
      </trkpt>
      <trkpt lat="43.64479" lon="0.66179">
        <ele>232</ele>
        <time>2020-10-03T16:14:08.000Z</time>
      </trkpt>
      <trkpt lat="43.64481" lon="0.66177">
        <ele>232</ele>
        <time>2020-10-03T16:14:09.000Z</time>
      </trkpt>
      <trkpt lat="43.64484" lon="0.66175">
        <ele>232</ele>
        <time>2020-10-03T16:14:10.000Z</time>
      </trkpt>
      <trkpt lat="43.64486" lon="0.66174">
        <ele>232</ele>
        <time>2020-10-03T16:14:11.000Z</time>
      </trkpt>
      <trkpt lat="43.64488" lon="0.66172">
        <ele>232</ele>
        <time>2020-10-03T16:14:12.000Z</time>
      </trkpt>
      <trkpt lat="43.64491" lon="0.6617">
        <ele>232</ele>
        <time>2020-10-03T16:14:13.000Z</time>
      </trkpt>
      <trkpt lat="43.64493" lon="0.66168">
        <ele>232</ele>
        <time>2020-10-03T16:14:14.000Z</time>
      </trkpt>
      <trkpt lat="43.64495" lon="0.66166">
        <ele>232</ele>
        <time>2020-10-03T16:14:15.000Z</time>
      </trkpt>
      <trkpt lat="43.64497" lon="0.66164">
        <ele>232</ele>
        <time>2020-10-03T16:14:16.000Z</time>
      </trkpt>
      <trkpt lat="43.645" lon="0.66162">
        <ele>232</ele>
        <time>2020-10-03T16:14:17.000Z</time>
      </trkpt>
      <trkpt lat="43.64503" lon="0.6616">
        <ele>232</ele>
        <time>2020-10-03T16:14:18.000Z</time>
      </trkpt>
      <trkpt lat="43.64505" lon="0.66158">
        <ele>232</ele>
        <time>2020-10-03T16:14:19.000Z</time>
      </trkpt>
      <trkpt lat="43.64508" lon="0.66156">
        <ele>232</ele>
        <time>2020-10-03T16:14:20.000Z</time>
      </trkpt>
      <trkpt lat="43.6451" lon="0.66154">
        <ele>232</ele>
        <time>2020-10-03T16:14:21.000Z</time>
      </trkpt>
      <trkpt lat="43.64512" lon="0.66152">
        <ele>232</ele>
        <time>2020-10-03T16:14:22.000Z</time>
      </trkpt>
      <trkpt lat="43.64514" lon="0.6615">
        <ele>232</ele>
        <time>2020-10-03T16:14:23.000Z</time>
      </trkpt>
      <trkpt lat="43.64517" lon="0.66148">
        <ele>232.37499636364</ele>
        <time>2020-10-03T16:14:24.000Z</time>
      </trkpt>
      <trkpt lat="43.64519" lon="0.66146">
        <ele>233</ele>
        <time>2020-10-03T16:14:25.000Z</time>
      </trkpt>
      <trkpt lat="43.64522" lon="0.66144">
        <ele>233.3274317237</ele>
        <time>2020-10-03T16:14:26.000Z</time>
      </trkpt>
      <trkpt lat="43.64525" lon="0.66141">
        <ele>234</ele>
        <time>2020-10-03T16:14:27.000Z</time>
      </trkpt>
      <trkpt lat="43.64527" lon="0.66139">
        <ele>234</ele>
        <time>2020-10-03T16:14:28.000Z</time>
      </trkpt>
      <trkpt lat="43.6453" lon="0.66136">
        <ele>234</ele>
        <time>2020-10-03T16:14:29.000Z</time>
      </trkpt>
      <trkpt lat="43.64532" lon="0.66133">
        <ele>234</ele>
        <time>2020-10-03T16:14:30.000Z</time>
      </trkpt>
      <trkpt lat="43.64534" lon="0.6613">
        <ele>234</ele>
        <time>2020-10-03T16:14:31.000Z</time>
      </trkpt>
      <trkpt lat="43.64537" lon="0.66128">
        <ele>234</ele>
        <time>2020-10-03T16:14:32.000Z</time>
      </trkpt>
      <trkpt lat="43.64539" lon="0.66125">
        <ele>233</ele>
        <time>2020-10-03T16:14:33.000Z</time>
      </trkpt>
      <trkpt lat="43.64541" lon="0.66122">
        <ele>233</ele>
        <time>2020-10-03T16:14:34.000Z</time>
      </trkpt>
      <trkpt lat="43.64543" lon="0.6612">
        <ele>232.60184888889</ele>
        <time>2020-10-03T16:14:35.000Z</time>
      </trkpt>
      <trkpt lat="43.64546" lon="0.66117">
        <ele>232</ele>
        <time>2020-10-03T16:14:36.000Z</time>
      </trkpt>
      <trkpt lat="43.64548" lon="0.66115">
        <ele>232</ele>
        <time>2020-10-03T16:14:37.000Z</time>
      </trkpt>
      <trkpt lat="43.6455" lon="0.66112">
        <ele>232</ele>
        <time>2020-10-03T16:14:38.000Z</time>
      </trkpt>
      <trkpt lat="43.64552" lon="0.6611">
        <ele>232</ele>
        <time>2020-10-03T16:14:39.000Z</time>
      </trkpt>
      <trkpt lat="43.64555" lon="0.66107">
        <ele>232</ele>
        <time>2020-10-03T16:14:40.000Z</time>
      </trkpt>
      <trkpt lat="43.64557" lon="0.66105">
        <ele>232</ele>
        <time>2020-10-03T16:14:41.000Z</time>
      </trkpt>
      <trkpt lat="43.64559" lon="0.66102">
        <ele>232</ele>
        <time>2020-10-03T16:14:42.000Z</time>
      </trkpt>
      <trkpt lat="43.64561" lon="0.661">
        <ele>232</ele>
        <time>2020-10-03T16:14:43.000Z</time>
      </trkpt>
      <trkpt lat="43.64564" lon="0.66097">
        <ele>232</ele>
        <time>2020-10-03T16:14:44.000Z</time>
      </trkpt>
      <trkpt lat="43.64566" lon="0.66095">
        <ele>232</ele>
        <time>2020-10-03T16:14:45.000Z</time>
      </trkpt>
      <trkpt lat="43.64568" lon="0.66092">
        <ele>232</ele>
        <time>2020-10-03T16:14:46.000Z</time>
      </trkpt>
      <trkpt lat="43.6457" lon="0.66089">
        <ele>232</ele>
        <time>2020-10-03T16:14:47.000Z</time>
      </trkpt>
      <trkpt lat="43.64572" lon="0.66087">
        <ele>231.62650360866</ele>
        <time>2020-10-03T16:14:48.000Z</time>
      </trkpt>
      <trkpt lat="43.64574" lon="0.66085">
        <ele>231</ele>
        <time>2020-10-03T16:14:49.000Z</time>
      </trkpt>
      <trkpt lat="43.64577" lon="0.66082">
        <ele>231</ele>
        <time>2020-10-03T16:14:50.000Z</time>
      </trkpt>
      <trkpt lat="43.64579" lon="0.6608">
        <ele>231</ele>
        <time>2020-10-03T16:14:51.000Z</time>
      </trkpt>
      <trkpt lat="43.64581" lon="0.66077">
        <ele>232</ele>
        <time>2020-10-03T16:14:52.000Z</time>
      </trkpt>
      <trkpt lat="43.64583" lon="0.66075">
        <ele>232</ele>
        <time>2020-10-03T16:14:53.000Z</time>
      </trkpt>
      <trkpt lat="43.64586" lon="0.66071">
        <ele>232</ele>
        <time>2020-10-03T16:14:54.000Z</time>
      </trkpt>
      <trkpt lat="43.64588" lon="0.66068">
        <ele>232</ele>
        <time>2020-10-03T16:14:55.000Z</time>
      </trkpt>
      <trkpt lat="43.64589" lon="0.66065">
        <ele>232</ele>
        <time>2020-10-03T16:14:56.000Z</time>
      </trkpt>
      <trkpt lat="43.64591" lon="0.66062">
        <ele>231.67592296296</ele>
        <time>2020-10-03T16:14:57.000Z</time>
      </trkpt>
      <trkpt lat="43.64593" lon="0.6606">
        <ele>231</ele>
        <time>2020-10-03T16:14:58.000Z</time>
      </trkpt>
      <trkpt lat="43.64596" lon="0.66057">
        <ele>231.38938163365</ele>
        <time>2020-10-03T16:14:59.000Z</time>
      </trkpt>
      <trkpt lat="43.64598" lon="0.66054">
        <ele>232</ele>
        <time>2020-10-03T16:15:00.000Z</time>
      </trkpt>
      <trkpt lat="43.646" lon="0.66052">
        <ele>231.68918755297</ele>
        <time>2020-10-03T16:15:01.000Z</time>
      </trkpt>
      <trkpt lat="43.64603" lon="0.6605">
        <ele>231</ele>
        <time>2020-10-03T16:15:02.000Z</time>
      </trkpt>
      <trkpt lat="43.64605" lon="0.66047">
        <ele>231</ele>
        <time>2020-10-03T16:15:03.000Z</time>
      </trkpt>
      <trkpt lat="43.64607" lon="0.66044">
        <ele>231</ele>
        <time>2020-10-03T16:15:04.000Z</time>
      </trkpt>
      <trkpt lat="43.64609" lon="0.66041">
        <ele>231</ele>
        <time>2020-10-03T16:15:05.000Z</time>
      </trkpt>
      <trkpt lat="43.64611" lon="0.66037">
        <ele>231</ele>
        <time>2020-10-03T16:15:06.000Z</time>
      </trkpt>
      <trkpt lat="43.64612" lon="0.66034">
        <ele>231</ele>
        <time>2020-10-03T16:15:07.000Z</time>
      </trkpt>
      <trkpt lat="43.64614" lon="0.66031">
        <ele>231</ele>
        <time>2020-10-03T16:15:08.000Z</time>
      </trkpt>
      <trkpt lat="43.64616" lon="0.66027">
        <ele>231</ele>
        <time>2020-10-03T16:15:09.000Z</time>
      </trkpt>
      <trkpt lat="43.64617" lon="0.66024">
        <ele>231</ele>
        <time>2020-10-03T16:15:10.000Z</time>
      </trkpt>
      <trkpt lat="43.64619" lon="0.66021">
        <ele>231</ele>
        <time>2020-10-03T16:15:11.000Z</time>
      </trkpt>
      <trkpt lat="43.64621" lon="0.66017">
        <ele>231</ele>
        <time>2020-10-03T16:15:12.000Z</time>
      </trkpt>
      <trkpt lat="43.64623" lon="0.66014">
        <ele>231</ele>
        <time>2020-10-03T16:15:13.000Z</time>
      </trkpt>
      <trkpt lat="43.64625" lon="0.6601">
        <ele>231</ele>
        <time>2020-10-03T16:15:14.000Z</time>
      </trkpt>
      <trkpt lat="43.64626" lon="0.66007">
        <ele>231</ele>
        <time>2020-10-03T16:15:15.000Z</time>
      </trkpt>
      <trkpt lat="43.64628" lon="0.66004">
        <ele>231</ele>
        <time>2020-10-03T16:15:16.000Z</time>
      </trkpt>
      <trkpt lat="43.6463" lon="0.66">
        <ele>231</ele>
        <time>2020-10-03T16:15:17.000Z</time>
      </trkpt>
      <trkpt lat="43.64631" lon="0.65996">
        <ele>231</ele>
        <time>2020-10-03T16:15:18.000Z</time>
      </trkpt>
      <trkpt lat="43.64633" lon="0.65992">
        <ele>231</ele>
        <time>2020-10-03T16:15:19.000Z</time>
      </trkpt>
      <trkpt lat="43.64634" lon="0.65989">
        <ele>231.30863924401</ele>
        <time>2020-10-03T16:15:20.000Z</time>
      </trkpt>
      <trkpt lat="43.64635" lon="0.65985">
        <ele>232</ele>
        <time>2020-10-03T16:15:21.000Z</time>
      </trkpt>
      <trkpt lat="43.64637" lon="0.65982">
        <ele>232</ele>
        <time>2020-10-03T16:15:22.000Z</time>
      </trkpt>
      <trkpt lat="43.64638" lon="0.65978">
        <ele>232</ele>
        <time>2020-10-03T16:15:23.000Z</time>
      </trkpt>
      <trkpt lat="43.64639" lon="0.65975">
        <ele>232</ele>
        <time>2020-10-03T16:15:24.000Z</time>
      </trkpt>
      <trkpt lat="43.6464" lon="0.65971">
        <ele>231.6219502677</ele>
        <time>2020-10-03T16:15:25.000Z</time>
      </trkpt>
      <trkpt lat="43.64641" lon="0.65967">
        <ele>231</ele>
        <time>2020-10-03T16:15:26.000Z</time>
      </trkpt>
      <trkpt lat="43.64641" lon="0.65963">
        <ele>231.33654153846</ele>
        <time>2020-10-03T16:15:27.000Z</time>
      </trkpt>
      <trkpt lat="43.64642" lon="0.65959">
        <ele>232</ele>
        <time>2020-10-03T16:15:28.000Z</time>
      </trkpt>
      <trkpt lat="43.64643" lon="0.65955">
        <ele>232</ele>
        <time>2020-10-03T16:15:29.000Z</time>
      </trkpt>
      <trkpt lat="43.64644" lon="0.65951">
        <ele>232</ele>
        <time>2020-10-03T16:15:30.000Z</time>
      </trkpt>
      <trkpt lat="43.64645" lon="0.65947">
        <ele>232</ele>
        <time>2020-10-03T16:15:31.000Z</time>
      </trkpt>
      <trkpt lat="43.64647" lon="0.65944">
        <ele>231.41177002078</ele>
        <time>2020-10-03T16:15:32.000Z</time>
      </trkpt>
      <trkpt lat="43.64648" lon="0.65941">
        <ele>230</ele>
        <time>2020-10-03T16:15:33.000Z</time>
      </trkpt>
      <trkpt lat="43.6465" lon="0.65937">
        <ele>230</ele>
        <time>2020-10-03T16:15:34.000Z</time>
      </trkpt>
      <trkpt lat="43.64652" lon="0.65934">
        <ele>230.33654153846</ele>
        <time>2020-10-03T16:15:35.000Z</time>
      </trkpt>
      <trkpt lat="43.64654" lon="0.65931">
        <ele>231</ele>
        <time>2020-10-03T16:15:36.000Z</time>
      </trkpt>
      <trkpt lat="43.64655" lon="0.65928">
        <ele>231</ele>
        <time>2020-10-03T16:15:37.000Z</time>
      </trkpt>
      <trkpt lat="43.64657" lon="0.65925">
        <ele>231</ele>
        <time>2020-10-03T16:15:38.000Z</time>
      </trkpt>
      <trkpt lat="43.64659" lon="0.65922">
        <ele>231</ele>
        <time>2020-10-03T16:15:39.000Z</time>
      </trkpt>
      <trkpt lat="43.64661" lon="0.6592">
        <ele>231</ele>
        <time>2020-10-03T16:15:40.000Z</time>
      </trkpt>
      <trkpt lat="43.64664" lon="0.65917">
        <ele>231</ele>
        <time>2020-10-03T16:15:41.000Z</time>
      </trkpt>
      <trkpt lat="43.64666" lon="0.65915">
        <ele>231</ele>
        <time>2020-10-03T16:15:42.000Z</time>
      </trkpt>
      <trkpt lat="43.64668" lon="0.65912">
        <ele>231</ele>
        <time>2020-10-03T16:15:43.000Z</time>
      </trkpt>
      <trkpt lat="43.6467" lon="0.6591">
        <ele>231</ele>
        <time>2020-10-03T16:15:44.000Z</time>
      </trkpt>
      <trkpt lat="43.64672" lon="0.65907">
        <ele>231</ele>
        <time>2020-10-03T16:15:45.000Z</time>
      </trkpt>
      <trkpt lat="43.64674" lon="0.65904">
        <ele>231</ele>
        <time>2020-10-03T16:15:46.000Z</time>
      </trkpt>
      <trkpt lat="43.64676" lon="0.65901">
        <ele>231</ele>
        <time>2020-10-03T16:15:47.000Z</time>
      </trkpt>
      <trkpt lat="43.64679" lon="0.65898">
        <ele>231</ele>
        <time>2020-10-03T16:15:48.000Z</time>
      </trkpt>
      <trkpt lat="43.64681" lon="0.65896">
        <ele>231</ele>
        <time>2020-10-03T16:15:49.000Z</time>
      </trkpt>
      <trkpt lat="43.64683" lon="0.65893">
        <ele>231</ele>
        <time>2020-10-03T16:15:50.000Z</time>
      </trkpt>
      <trkpt lat="43.64686" lon="0.6589">
        <ele>231</ele>
        <time>2020-10-03T16:15:51.000Z</time>
      </trkpt>
      <trkpt lat="43.64688" lon="0.65888">
        <ele>231</ele>
        <time>2020-10-03T16:15:52.000Z</time>
      </trkpt>
      <trkpt lat="43.6469" lon="0.65885">
        <ele>231</ele>
        <time>2020-10-03T16:15:53.000Z</time>
      </trkpt>
      <trkpt lat="43.64693" lon="0.65882">
        <ele>231</ele>
        <time>2020-10-03T16:15:54.000Z</time>
      </trkpt>
      <trkpt lat="43.64695" lon="0.65879">
        <ele>230.63094857143</ele>
        <time>2020-10-03T16:15:55.000Z</time>
      </trkpt>
      <trkpt lat="43.64697" lon="0.65876">
        <ele>230</ele>
        <time>2020-10-03T16:15:56.000Z</time>
      </trkpt>
      <trkpt lat="43.647" lon="0.65873">
        <ele>230</ele>
        <time>2020-10-03T16:15:57.000Z</time>
      </trkpt>
      <trkpt lat="43.64702" lon="0.6587">
        <ele>230.3</ele>
        <time>2020-10-03T16:15:58.000Z</time>
      </trkpt>
      <trkpt lat="43.64704" lon="0.65867">
        <ele>231</ele>
        <time>2020-10-03T16:15:59.000Z</time>
      </trkpt>
      <trkpt lat="43.64706" lon="0.65864">
        <ele>231.35227636364</ele>
        <time>2020-10-03T16:16:00.000Z</time>
      </trkpt>
      <trkpt lat="43.64707" lon="0.6586">
        <ele>232</ele>
        <time>2020-10-03T16:16:01.000Z</time>
      </trkpt>
      <trkpt lat="43.64709" lon="0.65857">
        <ele>232</ele>
        <time>2020-10-03T16:16:02.000Z</time>
      </trkpt>
      <trkpt lat="43.6471" lon="0.65854">
        <ele>232</ele>
        <time>2020-10-03T16:16:03.000Z</time>
      </trkpt>
      <trkpt lat="43.64711" lon="0.6585">
        <ele>232</ele>
        <time>2020-10-03T16:16:04.000Z</time>
      </trkpt>
      <trkpt lat="43.64713" lon="0.65847">
        <ele>231.67592296296</ele>
        <time>2020-10-03T16:16:05.000Z</time>
      </trkpt>
      <trkpt lat="43.64714" lon="0.65844">
        <ele>231</ele>
        <time>2020-10-03T16:16:06.000Z</time>
      </trkpt>
      <trkpt lat="43.64715" lon="0.65841">
        <ele>231</ele>
        <time>2020-10-03T16:16:07.000Z</time>
      </trkpt>
      <trkpt lat="43.64716" lon="0.65837">
        <ele>231</ele>
        <time>2020-10-03T16:16:08.000Z</time>
      </trkpt>
      <trkpt lat="43.64717" lon="0.65833">
        <ele>231</ele>
        <time>2020-10-03T16:16:09.000Z</time>
      </trkpt>
      <trkpt lat="43.64718" lon="0.65829">
        <ele>231.25843149099</ele>
        <time>2020-10-03T16:16:10.000Z</time>
      </trkpt>
      <trkpt lat="43.64719" lon="0.65825">
        <ele>232</ele>
        <time>2020-10-03T16:16:11.000Z</time>
      </trkpt>
      <trkpt lat="43.64721" lon="0.65822">
        <ele>232</ele>
        <time>2020-10-03T16:16:12.000Z</time>
      </trkpt>
      <trkpt lat="43.64723" lon="0.65819">
        <ele>232</ele>
        <time>2020-10-03T16:16:13.000Z</time>
      </trkpt>
      <trkpt lat="43.64724" lon="0.65816">
        <ele>232</ele>
        <time>2020-10-03T16:16:14.000Z</time>
      </trkpt>
      <trkpt lat="43.64726" lon="0.65813">
        <ele>232</ele>
        <time>2020-10-03T16:16:15.000Z</time>
      </trkpt>
      <trkpt lat="43.64728" lon="0.6581">
        <ele>232</ele>
        <time>2020-10-03T16:16:16.000Z</time>
      </trkpt>
      <trkpt lat="43.6473" lon="0.65807">
        <ele>232</ele>
        <time>2020-10-03T16:16:17.000Z</time>
      </trkpt>
      <trkpt lat="43.64732" lon="0.65804">
        <ele>232</ele>
        <time>2020-10-03T16:16:18.000Z</time>
      </trkpt>
      <trkpt lat="43.64734" lon="0.65801">
        <ele>232</ele>
        <time>2020-10-03T16:16:19.000Z</time>
      </trkpt>
      <trkpt lat="43.64737" lon="0.65799">
        <ele>232</ele>
        <time>2020-10-03T16:16:20.000Z</time>
      </trkpt>
      <trkpt lat="43.6474" lon="0.65798">
        <ele>232</ele>
        <time>2020-10-03T16:16:21.000Z</time>
      </trkpt>
      <trkpt lat="43.64743" lon="0.65796">
        <ele>232</ele>
        <time>2020-10-03T16:16:22.000Z</time>
      </trkpt>
      <trkpt lat="43.64745" lon="0.65795">
        <ele>232</ele>
        <time>2020-10-03T16:16:23.000Z</time>
      </trkpt>
      <trkpt lat="43.64747" lon="0.65793">
        <ele>231.69620376221</ele>
        <time>2020-10-03T16:16:24.000Z</time>
      </trkpt>
      <trkpt lat="43.6475" lon="0.6579">
        <ele>231</ele>
        <time>2020-10-03T16:16:25.000Z</time>
      </trkpt>
      <trkpt lat="43.64752" lon="0.65787">
        <ele>230.84210526316</ele>
        <time>2020-10-03T16:16:26.000Z</time>
      </trkpt>
      <trkpt lat="43.64754" lon="0.65784">
        <ele>230</ele>
        <time>2020-10-03T16:16:27.000Z</time>
      </trkpt>
      <trkpt lat="43.64756" lon="0.65781">
        <ele>230</ele>
        <time>2020-10-03T16:16:28.000Z</time>
      </trkpt>
      <trkpt lat="43.64758" lon="0.65779">
        <ele>229.73863272727</ele>
        <time>2020-10-03T16:16:29.000Z</time>
      </trkpt>
      <trkpt lat="43.64761" lon="0.65776">
        <ele>229</ele>
        <time>2020-10-03T16:16:30.000Z</time>
      </trkpt>
      <trkpt lat="43.64763" lon="0.65773">
        <ele>229</ele>
        <time>2020-10-03T16:16:31.000Z</time>
      </trkpt>
      <trkpt lat="43.64765" lon="0.6577">
        <ele>229</ele>
        <time>2020-10-03T16:16:32.000Z</time>
      </trkpt>
      <trkpt lat="43.64767" lon="0.65767">
        <ele>229</ele>
        <time>2020-10-03T16:16:33.000Z</time>
      </trkpt>
      <trkpt lat="43.64769" lon="0.65764">
        <ele>229</ele>
        <time>2020-10-03T16:16:34.000Z</time>
      </trkpt>
      <trkpt lat="43.64771" lon="0.65761">
        <ele>229</ele>
        <time>2020-10-03T16:16:35.000Z</time>
      </trkpt>
      <trkpt lat="43.64773" lon="0.65757">
        <ele>229</ele>
        <time>2020-10-03T16:16:36.000Z</time>
      </trkpt>
      <trkpt lat="43.64775" lon="0.65753">
        <ele>229</ele>
        <time>2020-10-03T16:16:37.000Z</time>
      </trkpt>
      <trkpt lat="43.64777" lon="0.6575">
        <ele>229</ele>
        <time>2020-10-03T16:16:38.000Z</time>
      </trkpt>
      <trkpt lat="43.64779" lon="0.65746">
        <ele>228.17757255305</ele>
        <time>2020-10-03T16:16:39.000Z</time>
      </trkpt>
      <trkpt lat="43.64782" lon="0.65742">
        <ele>227</ele>
        <time>2020-10-03T16:16:40.000Z</time>
      </trkpt>
      <trkpt lat="43.64784" lon="0.65739">
        <ele>226.39024694827</ele>
        <time>2020-10-03T16:16:41.000Z</time>
      </trkpt>
      <trkpt lat="43.64786" lon="0.65736">
        <ele>225.38393142857</ele>
        <time>2020-10-03T16:16:42.000Z</time>
      </trkpt>
      <trkpt lat="43.64789" lon="0.65732">
        <ele>225.62650360866</ele>
        <time>2020-10-03T16:16:43.000Z</time>
      </trkpt>
      <trkpt lat="43.64791" lon="0.6573">
        <ele>225</ele>
        <time>2020-10-03T16:16:44.000Z</time>
      </trkpt>
      <trkpt lat="43.64794" lon="0.65727">
        <ele>225</ele>
        <time>2020-10-03T16:16:45.000Z</time>
      </trkpt>
      <trkpt lat="43.64797" lon="0.65724">
        <ele>225</ele>
        <time>2020-10-03T16:16:46.000Z</time>
      </trkpt>
      <trkpt lat="43.648" lon="0.65722">
        <ele>225</ele>
        <time>2020-10-03T16:16:47.000Z</time>
      </trkpt>
      <trkpt lat="43.64803" lon="0.65721">
        <ele>225</ele>
        <time>2020-10-03T16:16:48.000Z</time>
      </trkpt>
      <trkpt lat="43.64806" lon="0.6572">
        <ele>224.22123673271</ele>
        <time>2020-10-03T16:16:49.000Z</time>
      </trkpt>
      <trkpt lat="43.6481" lon="0.65719">
        <ele>223</ele>
        <time>2020-10-03T16:16:50.000Z</time>
      </trkpt>
      <trkpt lat="43.64813" lon="0.65719">
        <ele>222.75188150829</ele>
        <time>2020-10-03T16:16:51.000Z</time>
      </trkpt>
      <trkpt lat="43.64817" lon="0.65719">
        <ele>222</ele>
        <time>2020-10-03T16:16:52.000Z</time>
      </trkpt>
      <trkpt lat="43.6482" lon="0.65718">
        <ele>222</ele>
        <time>2020-10-03T16:16:53.000Z</time>
      </trkpt>
      <trkpt lat="43.64823" lon="0.65718">
        <ele>221.73033610907</ele>
        <time>2020-10-03T16:16:54.000Z</time>
      </trkpt>
      <trkpt lat="43.64827" lon="0.65717">
        <ele>221</ele>
        <time>2020-10-03T16:16:55.000Z</time>
      </trkpt>
      <trkpt lat="43.6483" lon="0.65716">
        <ele>220.67469619394</ele>
        <time>2020-10-03T16:16:56.000Z</time>
      </trkpt>
      <trkpt lat="43.64834" lon="0.65717">
        <ele>220</ele>
        <time>2020-10-03T16:16:57.000Z</time>
      </trkpt>
      <trkpt lat="43.64838" lon="0.65716">
        <ele>219.62650360866</ele>
        <time>2020-10-03T16:16:58.000Z</time>
      </trkpt>
      <trkpt lat="43.64841" lon="0.65716">
        <ele>219</ele>
        <time>2020-10-03T16:16:59.000Z</time>
      </trkpt>
      <trkpt lat="43.64844" lon="0.65715">
        <ele>219</ele>
        <time>2020-10-03T16:17:00.000Z</time>
      </trkpt>
      <trkpt lat="43.64847" lon="0.65717">
        <ele>218.57391701171</ele>
        <time>2020-10-03T16:17:01.000Z</time>
      </trkpt>
      <trkpt lat="43.64849" lon="0.6572">
        <ele>218</ele>
        <time>2020-10-03T16:17:02.000Z</time>
      </trkpt>
      <trkpt lat="43.64851" lon="0.65723">
        <ele>218</ele>
        <time>2020-10-03T16:17:03.000Z</time>
      </trkpt>
      <trkpt lat="43.64854" lon="0.65724">
        <ele>218</ele>
        <time>2020-10-03T16:17:04.000Z</time>
      </trkpt>
      <trkpt lat="43.64857" lon="0.65725">
        <ele>218</ele>
        <time>2020-10-03T16:17:05.000Z</time>
      </trkpt>
      <trkpt lat="43.6486" lon="0.65727">
        <ele>218</ele>
        <time>2020-10-03T16:17:06.000Z</time>
      </trkpt>
      <trkpt lat="43.64862" lon="0.6573">
        <ele>218</ele>
        <time>2020-10-03T16:17:07.000Z</time>
      </trkpt>
      <trkpt lat="43.64864" lon="0.65733">
        <ele>216</ele>
        <time>2020-10-03T16:17:08.000Z</time>
      </trkpt>
      <trkpt lat="43.64869" lon="0.65737">
        <ele>215</ele>
        <time>2020-10-03T16:17:10.000Z</time>
      </trkpt>
      <trkpt lat="43.64872" lon="0.6574">
        <ele>213.5</ele>
        <time>2020-10-03T16:17:11.000Z</time>
      </trkpt>
      <trkpt lat="43.64874" lon="0.65743">
        <ele>213</ele>
        <time>2020-10-03T16:17:12.000Z</time>
      </trkpt>
      <trkpt lat="43.64875" lon="0.65747">
        <ele>213</ele>
        <time>2020-10-03T16:17:13.000Z</time>
      </trkpt>
      <trkpt lat="43.64876" lon="0.65752">
        <ele>212.64789024401</ele>
        <time>2020-10-03T16:17:14.000Z</time>
      </trkpt>
      <trkpt lat="43.64879" lon="0.6576">
        <ele>212</ele>
        <time>2020-10-03T16:17:16.000Z</time>
      </trkpt>
      <trkpt lat="43.64882" lon="0.65762">
        <ele>212</ele>
        <time>2020-10-03T16:17:17.000Z</time>
      </trkpt>
      <trkpt lat="43.64891" lon="0.65762">
        <ele>210</ele>
        <time>2020-10-03T16:17:20.000Z</time>
      </trkpt>
      <trkpt lat="43.64898" lon="0.65763">
        <ele>209.80272369475</ele>
        <time>2020-10-03T16:17:22.000Z</time>
      </trkpt>
      <trkpt lat="43.64902" lon="0.65764">
        <ele>209.12245306677</ele>
        <time>2020-10-03T16:17:23.000Z</time>
      </trkpt>
      <trkpt lat="43.64906" lon="0.65765">
        <ele>209</ele>
        <time>2020-10-03T16:17:24.000Z</time>
      </trkpt>
      <trkpt lat="43.64909" lon="0.65765">
        <ele>209</ele>
        <time>2020-10-03T16:17:25.000Z</time>
      </trkpt>
      <trkpt lat="43.64912" lon="0.65766">
        <ele>208.55140321076</ele>
        <time>2020-10-03T16:17:26.000Z</time>
      </trkpt>
      <trkpt lat="43.64915" lon="0.65767">
        <ele>208</ele>
        <time>2020-10-03T16:17:27.000Z</time>
      </trkpt>
      <trkpt lat="43.64918" lon="0.65768">
        <ele>208</ele>
        <time>2020-10-03T16:17:28.000Z</time>
      </trkpt>
      <trkpt lat="43.64921" lon="0.65769">
        <ele>208.41228119421</ele>
        <time>2020-10-03T16:17:29.000Z</time>
      </trkpt>
      <trkpt lat="43.64924" lon="0.6577">
        <ele>209</ele>
        <time>2020-10-03T16:17:30.000Z</time>
      </trkpt>
      <trkpt lat="43.64927" lon="0.65771">
        <ele>209</ele>
        <time>2020-10-03T16:17:31.000Z</time>
      </trkpt>
      <trkpt lat="43.6493" lon="0.65772">
        <ele>209</ele>
        <time>2020-10-03T16:17:32.000Z</time>
      </trkpt>
      <trkpt lat="43.64933" lon="0.65773">
        <ele>209</ele>
        <time>2020-10-03T16:17:33.000Z</time>
      </trkpt>
      <trkpt lat="43.64935" lon="0.65774">
        <ele>209</ele>
        <time>2020-10-03T16:17:34.000Z</time>
      </trkpt>
      <trkpt lat="43.64938" lon="0.65775">
        <ele>209</ele>
        <time>2020-10-03T16:17:35.000Z</time>
      </trkpt>
      <trkpt lat="43.6494" lon="0.65776">
        <ele>209</ele>
        <time>2020-10-03T16:17:36.000Z</time>
      </trkpt>
      <trkpt lat="43.64943" lon="0.65776">
        <ele>209.37647200554</ele>
        <time>2020-10-03T16:17:37.000Z</time>
      </trkpt>
      <trkpt lat="43.64945" lon="0.65777">
        <ele>210</ele>
        <time>2020-10-03T16:17:38.000Z</time>
      </trkpt>
      <trkpt lat="43.64948" lon="0.65777">
        <ele>210</ele>
        <time>2020-10-03T16:17:39.000Z</time>
      </trkpt>
      <trkpt lat="43.64951" lon="0.65778">
        <ele>210</ele>
        <time>2020-10-03T16:17:40.000Z</time>
      </trkpt>
      <trkpt lat="43.64954" lon="0.65778">
        <ele>210.33333333333</ele>
        <time>2020-10-03T16:17:41.000Z</time>
      </trkpt>
      <trkpt lat="43.64957" lon="0.65778">
        <ele>211</ele>
        <time>2020-10-03T16:17:42.000Z</time>
      </trkpt>
      <trkpt lat="43.64959" lon="0.65778">
        <ele>211</ele>
        <time>2020-10-03T16:17:43.000Z</time>
      </trkpt>
      <trkpt lat="43.64961" lon="0.65777">
        <ele>211</ele>
        <time>2020-10-03T16:17:44.000Z</time>
      </trkpt>
      <trkpt lat="43.64963" lon="0.65776">
        <ele>211</ele>
        <time>2020-10-03T16:17:45.000Z</time>
      </trkpt>
      <trkpt lat="43.64965" lon="0.65774">
        <ele>211</ele>
        <time>2020-10-03T16:17:46.000Z</time>
      </trkpt>
      <trkpt lat="43.64967" lon="0.65771">
        <ele>211</ele>
        <time>2020-10-03T16:17:47.000Z</time>
      </trkpt>
      <trkpt lat="43.64969" lon="0.65768">
        <ele>211</ele>
        <time>2020-10-03T16:17:48.000Z</time>
      </trkpt>
      <trkpt lat="43.64971" lon="0.65766">
        <ele>210.68888667653</ele>
        <time>2020-10-03T16:17:49.000Z</time>
      </trkpt>
      <trkpt lat="43.64972" lon="0.65764">
        <ele>210</ele>
        <time>2020-10-03T16:17:50.000Z</time>
      </trkpt>
      <trkpt lat="43.64973" lon="0.65761">
        <ele>210</ele>
        <time>2020-10-03T16:17:51.000Z</time>
      </trkpt>
      <trkpt lat="43.64975" lon="0.65758">
        <ele>210</ele>
        <time>2020-10-03T16:17:52.000Z</time>
      </trkpt>
      <trkpt lat="43.64976" lon="0.65755">
        <ele>210.43119686223</ele>
        <time>2020-10-03T16:17:53.000Z</time>
      </trkpt>
      <trkpt lat="43.64978" lon="0.65753">
        <ele>211</ele>
        <time>2020-10-03T16:17:54.000Z</time>
      </trkpt>
      <trkpt lat="43.64979" lon="0.6575">
        <ele>211</ele>
        <time>2020-10-03T16:17:55.000Z</time>
      </trkpt>
      <trkpt lat="43.64981" lon="0.65747">
        <ele>211</ele>
        <time>2020-10-03T16:17:56.000Z</time>
      </trkpt>
      <trkpt lat="43.64982" lon="0.65744">
        <ele>211</ele>
        <time>2020-10-03T16:17:57.000Z</time>
      </trkpt>
      <trkpt lat="43.64984" lon="0.65741">
        <ele>211</ele>
        <time>2020-10-03T16:17:58.000Z</time>
      </trkpt>
      <trkpt lat="43.64986" lon="0.65738">
        <ele>211</ele>
        <time>2020-10-03T16:17:59.000Z</time>
      </trkpt>
      <trkpt lat="43.64988" lon="0.65735">
        <ele>211</ele>
        <time>2020-10-03T16:18:00.000Z</time>
      </trkpt>
      <trkpt lat="43.6499" lon="0.65733">
        <ele>211</ele>
        <time>2020-10-03T16:18:01.000Z</time>
      </trkpt>
      <trkpt lat="43.64991" lon="0.6573">
        <ele>211</ele>
        <time>2020-10-03T16:18:02.000Z</time>
      </trkpt>
      <trkpt lat="43.64993" lon="0.65727">
        <ele>211</ele>
        <time>2020-10-03T16:18:03.000Z</time>
      </trkpt>
      <trkpt lat="43.64995" lon="0.65724">
        <ele>211</ele>
        <time>2020-10-03T16:18:04.000Z</time>
      </trkpt>
      <trkpt lat="43.64997" lon="0.65722">
        <ele>211</ele>
        <time>2020-10-03T16:18:05.000Z</time>
      </trkpt>
      <trkpt lat="43.64999" lon="0.65719">
        <ele>211</ele>
        <time>2020-10-03T16:18:06.000Z</time>
      </trkpt>
      <trkpt lat="43.65001" lon="0.65717">
        <ele>211.33332859256</ele>
        <time>2020-10-03T16:18:07.000Z</time>
      </trkpt>
      <trkpt lat="43.65002" lon="0.65714">
        <ele>212</ele>
        <time>2020-10-03T16:18:08.000Z</time>
      </trkpt>
      <trkpt lat="43.65003" lon="0.65711">
        <ele>212</ele>
        <time>2020-10-03T16:18:09.000Z</time>
      </trkpt>
      <trkpt lat="43.65005" lon="0.65709">
        <ele>212</ele>
        <time>2020-10-03T16:18:10.000Z</time>
      </trkpt>
      <trkpt lat="43.65006" lon="0.65706">
        <ele>212</ele>
        <time>2020-10-03T16:18:11.000Z</time>
      </trkpt>
      <trkpt lat="43.65008" lon="0.65703">
        <ele>212</ele>
        <time>2020-10-03T16:18:12.000Z</time>
      </trkpt>
      <trkpt lat="43.6501" lon="0.657">
        <ele>212</ele>
        <time>2020-10-03T16:18:13.000Z</time>
      </trkpt>
      <trkpt lat="43.65012" lon="0.65698">
        <ele>212</ele>
        <time>2020-10-03T16:18:14.000Z</time>
      </trkpt>
      <trkpt lat="43.65014" lon="0.65695">
        <ele>212</ele>
        <time>2020-10-03T16:18:15.000Z</time>
      </trkpt>
      <trkpt lat="43.65015" lon="0.65692">
        <ele>212</ele>
        <time>2020-10-03T16:18:16.000Z</time>
      </trkpt>
      <trkpt lat="43.65017" lon="0.65689">
        <ele>212</ele>
        <time>2020-10-03T16:18:17.000Z</time>
      </trkpt>
      <trkpt lat="43.65019" lon="0.65686">
        <ele>212</ele>
        <time>2020-10-03T16:18:18.000Z</time>
      </trkpt>
      <trkpt lat="43.65021" lon="0.65684">
        <ele>212</ele>
        <time>2020-10-03T16:18:19.000Z</time>
      </trkpt>
      <trkpt lat="43.65023" lon="0.65681">
        <ele>212</ele>
        <time>2020-10-03T16:18:20.000Z</time>
      </trkpt>
      <trkpt lat="43.65025" lon="0.65678">
        <ele>212</ele>
        <time>2020-10-03T16:18:21.000Z</time>
      </trkpt>
      <trkpt lat="43.65027" lon="0.65675">
        <ele>212</ele>
        <time>2020-10-03T16:18:22.000Z</time>
      </trkpt>
      <trkpt lat="43.65029" lon="0.65673">
        <ele>212</ele>
        <time>2020-10-03T16:18:23.000Z</time>
      </trkpt>
      <trkpt lat="43.6503" lon="0.6567">
        <ele>212</ele>
        <time>2020-10-03T16:18:24.000Z</time>
      </trkpt>
      <trkpt lat="43.65032" lon="0.65668">
        <ele>212.22059294118</ele>
        <time>2020-10-03T16:18:25.000Z</time>
      </trkpt>
      <trkpt lat="43.65034" lon="0.65665">
        <ele>213</ele>
        <time>2020-10-03T16:18:26.000Z</time>
      </trkpt>
      <trkpt lat="43.65035" lon="0.65663">
        <ele>213</ele>
        <time>2020-10-03T16:18:27.000Z</time>
      </trkpt>
      <trkpt lat="43.65037" lon="0.65661">
        <ele>213</ele>
        <time>2020-10-03T16:18:28.000Z</time>
      </trkpt>
      <trkpt lat="43.65039" lon="0.65658">
        <ele>213</ele>
        <time>2020-10-03T16:18:29.000Z</time>
      </trkpt>
      <trkpt lat="43.6504" lon="0.65656">
        <ele>213.46874666667</ele>
        <time>2020-10-03T16:18:30.000Z</time>
      </trkpt>
      <trkpt lat="43.65042" lon="0.65653">
        <ele>214</ele>
        <time>2020-10-03T16:18:31.000Z</time>
      </trkpt>
      <trkpt lat="43.65044" lon="0.6565">
        <ele>214</ele>
        <time>2020-10-03T16:18:32.000Z</time>
      </trkpt>
      <trkpt lat="43.65045" lon="0.65648">
        <ele>214</ele>
        <time>2020-10-03T16:18:33.000Z</time>
      </trkpt>
      <trkpt lat="43.65046" lon="0.65645">
        <ele>214</ele>
        <time>2020-10-03T16:18:34.000Z</time>
      </trkpt>
      <trkpt lat="43.65047" lon="0.65642">
        <ele>214</ele>
        <time>2020-10-03T16:18:35.000Z</time>
      </trkpt>
      <trkpt lat="43.65049" lon="0.6564">
        <ele>214.33834427271</ele>
        <time>2020-10-03T16:18:36.000Z</time>
      </trkpt>
      <trkpt lat="43.6505" lon="0.65637">
        <ele>215</ele>
        <time>2020-10-03T16:18:37.000Z</time>
      </trkpt>
      <trkpt lat="43.65051" lon="0.65634">
        <ele>215</ele>
        <time>2020-10-03T16:18:38.000Z</time>
      </trkpt>
      <trkpt lat="43.65052" lon="0.65631">
        <ele>215</ele>
        <time>2020-10-03T16:18:39.000Z</time>
      </trkpt>
      <trkpt lat="43.65054" lon="0.65629">
        <ele>215</ele>
        <time>2020-10-03T16:18:40.000Z</time>
      </trkpt>
      <trkpt lat="43.65055" lon="0.65626">
        <ele>215</ele>
        <time>2020-10-03T16:18:41.000Z</time>
      </trkpt>
      <trkpt lat="43.65057" lon="0.65624">
        <ele>215</ele>
        <time>2020-10-03T16:18:42.000Z</time>
      </trkpt>
      <trkpt lat="43.65059" lon="0.65622">
        <ele>215</ele>
        <time>2020-10-03T16:18:43.000Z</time>
      </trkpt>
      <trkpt lat="43.65061" lon="0.65619">
        <ele>215.42592680383</ele>
        <time>2020-10-03T16:18:44.000Z</time>
      </trkpt>
      <trkpt lat="43.65062" lon="0.65617">
        <ele>216</ele>
        <time>2020-10-03T16:18:45.000Z</time>
      </trkpt>
      <trkpt lat="43.65063" lon="0.65615">
        <ele>216</ele>
        <time>2020-10-03T16:18:46.000Z</time>
      </trkpt>
      <trkpt lat="43.65065" lon="0.65612">
        <ele>216.41304226841</ele>
        <time>2020-10-03T16:18:47.000Z</time>
      </trkpt>
      <trkpt lat="43.65066" lon="0.6561">
        <ele>217</ele>
        <time>2020-10-03T16:18:48.000Z</time>
      </trkpt>
      <trkpt lat="43.65068" lon="0.65608">
        <ele>217</ele>
        <time>2020-10-03T16:18:49.000Z</time>
      </trkpt>
      <trkpt lat="43.65069" lon="0.65605">
        <ele>217.42055649927</ele>
        <time>2020-10-03T16:18:50.000Z</time>
      </trkpt>
      <trkpt lat="43.65071" lon="0.65603">
        <ele>218</ele>
        <time>2020-10-03T16:18:51.000Z</time>
      </trkpt>
      <trkpt lat="43.65073" lon="0.65601">
        <ele>218</ele>
        <time>2020-10-03T16:18:52.000Z</time>
      </trkpt>
      <trkpt lat="43.65074" lon="0.65599">
        <ele>218.39784739044</ele>
        <time>2020-10-03T16:18:53.000Z</time>
      </trkpt>
      <trkpt lat="43.65075" lon="0.65597">
        <ele>219</ele>
        <time>2020-10-03T16:18:54.000Z</time>
      </trkpt>
      <trkpt lat="43.65077" lon="0.65595">
        <ele>219</ele>
        <time>2020-10-03T16:18:55.000Z</time>
      </trkpt>
      <trkpt lat="43.65078" lon="0.65593">
        <ele>219.42592680383</ele>
        <time>2020-10-03T16:18:56.000Z</time>
      </trkpt>
      <trkpt lat="43.65079" lon="0.65591">
        <ele>220</ele>
        <time>2020-10-03T16:18:57.000Z</time>
      </trkpt>
      <trkpt lat="43.65081" lon="0.65589">
        <ele>220</ele>
        <time>2020-10-03T16:18:58.000Z</time>
      </trkpt>
      <trkpt lat="43.65083" lon="0.65587">
        <ele>220</ele>
        <time>2020-10-03T16:18:59.000Z</time>
      </trkpt>
      <trkpt lat="43.65084" lon="0.65585">
        <ele>220</ele>
        <time>2020-10-03T16:19:00.000Z</time>
      </trkpt>
      <trkpt lat="43.65085" lon="0.65583">
        <ele>220</ele>
        <time>2020-10-03T16:19:01.000Z</time>
      </trkpt>
      <trkpt lat="43.65087" lon="0.65581">
        <ele>220</ele>
        <time>2020-10-03T16:19:02.000Z</time>
      </trkpt>
      <trkpt lat="43.65088" lon="0.65578">
        <ele>220.42424751758</ele>
        <time>2020-10-03T16:19:03.000Z</time>
      </trkpt>
      <trkpt lat="43.65089" lon="0.65575">
        <ele>221</ele>
        <time>2020-10-03T16:19:04.000Z</time>
      </trkpt>
      <trkpt lat="43.6509" lon="0.65572">
        <ele>221</ele>
        <time>2020-10-03T16:19:05.000Z</time>
      </trkpt>
      <trkpt lat="43.65092" lon="0.6557">
        <ele>221.42156911957</ele>
        <time>2020-10-03T16:19:06.000Z</time>
      </trkpt>
      <trkpt lat="43.65094" lon="0.65567">
        <ele>222</ele>
        <time>2020-10-03T16:19:07.000Z</time>
      </trkpt>
      <trkpt lat="43.65095" lon="0.65564">
        <ele>222</ele>
        <time>2020-10-03T16:19:08.000Z</time>
      </trkpt>
      <trkpt lat="43.65097" lon="0.65562">
        <ele>222</ele>
        <time>2020-10-03T16:19:09.000Z</time>
      </trkpt>
      <trkpt lat="43.65099" lon="0.65559">
        <ele>222</ele>
        <time>2020-10-03T16:19:10.000Z</time>
      </trkpt>
      <trkpt lat="43.65101" lon="0.65556">
        <ele>222</ele>
        <time>2020-10-03T16:19:11.000Z</time>
      </trkpt>
      <trkpt lat="43.65102" lon="0.65553">
        <ele>222</ele>
        <time>2020-10-03T16:19:12.000Z</time>
      </trkpt>
      <trkpt lat="43.65104" lon="0.65549">
        <ele>222</ele>
        <time>2020-10-03T16:19:13.000Z</time>
      </trkpt>
      <trkpt lat="43.65106" lon="0.65546">
        <ele>222</ele>
        <time>2020-10-03T16:19:14.000Z</time>
      </trkpt>
      <trkpt lat="43.65108" lon="0.65543">
        <ele>222</ele>
        <time>2020-10-03T16:19:15.000Z</time>
      </trkpt>
      <trkpt lat="43.6511" lon="0.6554">
        <ele>222</ele>
        <time>2020-10-03T16:19:16.000Z</time>
      </trkpt>
      <trkpt lat="43.65112" lon="0.65537">
        <ele>221.92592680383</ele>
        <time>2020-10-03T16:19:17.000Z</time>
      </trkpt>
      <trkpt lat="43.65114" lon="0.65533">
        <ele>221</ele>
        <time>2020-10-03T16:19:18.000Z</time>
      </trkpt>
      <trkpt lat="43.65116" lon="0.6553">
        <ele>221</ele>
        <time>2020-10-03T16:19:19.000Z</time>
      </trkpt>
      <trkpt lat="43.65117" lon="0.65526">
        <ele>221</ele>
        <time>2020-10-03T16:19:20.000Z</time>
      </trkpt>
      <trkpt lat="43.65118" lon="0.65522">
        <ele>221</ele>
        <time>2020-10-03T16:19:21.000Z</time>
      </trkpt>
      <trkpt lat="43.6512" lon="0.65519">
        <ele>220.31816727273</ele>
        <time>2020-10-03T16:19:22.000Z</time>
      </trkpt>
      <trkpt lat="43.65122" lon="0.65515">
        <ele>219</ele>
        <time>2020-10-03T16:19:23.000Z</time>
      </trkpt>
      <trkpt lat="43.65124" lon="0.65512">
        <ele>219</ele>
        <time>2020-10-03T16:19:24.000Z</time>
      </trkpt>
      <trkpt lat="43.65125" lon="0.65508">
        <ele>219</ele>
        <time>2020-10-03T16:19:25.000Z</time>
      </trkpt>
      <trkpt lat="43.65127" lon="0.65505">
        <ele>219</ele>
        <time>2020-10-03T16:19:26.000Z</time>
      </trkpt>
      <trkpt lat="43.65129" lon="0.65501">
        <ele>219</ele>
        <time>2020-10-03T16:19:27.000Z</time>
      </trkpt>
      <trkpt lat="43.6513" lon="0.65498">
        <ele>219</ele>
        <time>2020-10-03T16:19:28.000Z</time>
      </trkpt>
      <trkpt lat="43.65132" lon="0.65494">
        <ele>219</ele>
        <time>2020-10-03T16:19:29.000Z</time>
      </trkpt>
      <trkpt lat="43.65133" lon="0.65491">
        <ele>219</ele>
        <time>2020-10-03T16:19:30.000Z</time>
      </trkpt>
      <trkpt lat="43.65135" lon="0.65487">
        <ele>218.59769895099</ele>
        <time>2020-10-03T16:19:31.000Z</time>
      </trkpt>
      <trkpt lat="43.65136" lon="0.65485">
        <ele>218</ele>
        <time>2020-10-03T16:19:32.000Z</time>
      </trkpt>
      <trkpt lat="43.65138" lon="0.65481">
        <ele>218</ele>
        <time>2020-10-03T16:19:33.000Z</time>
      </trkpt>
      <trkpt lat="43.6514" lon="0.65479">
        <ele>218.36035932149</ele>
        <time>2020-10-03T16:19:34.000Z</time>
      </trkpt>
      <trkpt lat="43.65142" lon="0.65475">
        <ele>219</ele>
        <time>2020-10-03T16:19:35.000Z</time>
      </trkpt>
      <trkpt lat="43.65143" lon="0.65472">
        <ele>219</ele>
        <time>2020-10-03T16:19:36.000Z</time>
      </trkpt>
      <trkpt lat="43.65144" lon="0.65469">
        <ele>219</ele>
        <time>2020-10-03T16:19:37.000Z</time>
      </trkpt>
      <trkpt lat="43.65146" lon="0.65466">
        <ele>219</ele>
        <time>2020-10-03T16:19:38.000Z</time>
      </trkpt>
      <trkpt lat="43.65147" lon="0.65462">
        <ele>219</ele>
        <time>2020-10-03T16:19:39.000Z</time>
      </trkpt>
      <trkpt lat="43.65148" lon="0.65458">
        <ele>219</ele>
        <time>2020-10-03T16:19:40.000Z</time>
      </trkpt>
      <trkpt lat="43.65149" lon="0.65455">
        <ele>219</ele>
        <time>2020-10-03T16:19:41.000Z</time>
      </trkpt>
      <trkpt lat="43.65151" lon="0.65451">
        <ele>219</ele>
        <time>2020-10-03T16:19:42.000Z</time>
      </trkpt>
      <trkpt lat="43.65152" lon="0.65447">
        <ele>219</ele>
        <time>2020-10-03T16:19:43.000Z</time>
      </trkpt>
      <trkpt lat="43.65153" lon="0.65444">
        <ele>219</ele>
        <time>2020-10-03T16:19:44.000Z</time>
      </trkpt>
      <trkpt lat="43.65154" lon="0.6544">
        <ele>219</ele>
        <time>2020-10-03T16:19:45.000Z</time>
      </trkpt>
      <trkpt lat="43.65155" lon="0.65437">
        <ele>219</ele>
        <time>2020-10-03T16:19:46.000Z</time>
      </trkpt>
      <trkpt lat="43.65157" lon="0.65433">
        <ele>219</ele>
        <time>2020-10-03T16:19:47.000Z</time>
      </trkpt>
      <trkpt lat="43.65158" lon="0.6543">
        <ele>219</ele>
        <time>2020-10-03T16:19:48.000Z</time>
      </trkpt>
      <trkpt lat="43.65159" lon="0.65427">
        <ele>219</ele>
        <time>2020-10-03T16:19:49.000Z</time>
      </trkpt>
      <trkpt lat="43.6516" lon="0.65424">
        <ele>219</ele>
        <time>2020-10-03T16:19:50.000Z</time>
      </trkpt>
      <trkpt lat="43.65161" lon="0.6542">
        <ele>219</ele>
        <time>2020-10-03T16:19:51.000Z</time>
      </trkpt>
      <trkpt lat="43.65162" lon="0.65417">
        <ele>219</ele>
        <time>2020-10-03T16:19:52.000Z</time>
      </trkpt>
      <trkpt lat="43.65163" lon="0.65414">
        <ele>219</ele>
        <time>2020-10-03T16:19:53.000Z</time>
      </trkpt>
      <trkpt lat="43.65164" lon="0.6541">
        <ele>219</ele>
        <time>2020-10-03T16:19:54.000Z</time>
      </trkpt>
      <trkpt lat="43.65165" lon="0.65408">
        <ele>219.10525252072</ele>
        <time>2020-10-03T16:19:55.000Z</time>
      </trkpt>
      <trkpt lat="43.65167" lon="0.65405">
        <ele>220</ele>
        <time>2020-10-03T16:19:56.000Z</time>
      </trkpt>
      <trkpt lat="43.65167" lon="0.65401">
        <ele>220</ele>
        <time>2020-10-03T16:19:57.000Z</time>
      </trkpt>
      <trkpt lat="43.65168" lon="0.65398">
        <ele>220</ele>
        <time>2020-10-03T16:19:58.000Z</time>
      </trkpt>
      <trkpt lat="43.65169" lon="0.65396">
        <ele>220</ele>
        <time>2020-10-03T16:19:59.000Z</time>
      </trkpt>
      <trkpt lat="43.65169" lon="0.65393">
        <ele>220</ele>
        <time>2020-10-03T16:20:00.000Z</time>
      </trkpt>
      <trkpt lat="43.6517" lon="0.6539">
        <ele>220</ele>
        <time>2020-10-03T16:20:01.000Z</time>
      </trkpt>
      <trkpt lat="43.65171" lon="0.65388">
        <ele>220</ele>
        <time>2020-10-03T16:20:02.000Z</time>
      </trkpt>
      <trkpt lat="43.65171" lon="0.65385">
        <ele>220</ele>
        <time>2020-10-03T16:20:03.000Z</time>
      </trkpt>
      <trkpt lat="43.65172" lon="0.65382">
        <ele>220</ele>
        <time>2020-10-03T16:20:04.000Z</time>
      </trkpt>
      <trkpt lat="43.65172" lon="0.6538">
        <ele>220</ele>
        <time>2020-10-03T16:20:05.000Z</time>
      </trkpt>
      <trkpt lat="43.65173" lon="0.65377">
        <ele>220.76786285714</ele>
        <time>2020-10-03T16:20:06.000Z</time>
      </trkpt>
      <trkpt lat="43.65174" lon="0.65372">
        <ele>222</ele>
        <time>2020-10-03T16:20:08.000Z</time>
      </trkpt>
      <trkpt lat="43.65174" lon="0.6537">
        <ele>222.44330373049</ele>
        <time>2020-10-03T16:20:09.000Z</time>
      </trkpt>
      <trkpt lat="43.65175" lon="0.65367">
        <ele>223</ele>
        <time>2020-10-03T16:20:10.000Z</time>
      </trkpt>
      <trkpt lat="43.65176" lon="0.65364">
        <ele>223</ele>
        <time>2020-10-03T16:20:11.000Z</time>
      </trkpt>
      <trkpt lat="43.65177" lon="0.65361">
        <ele>223.3780497323</ele>
        <time>2020-10-03T16:20:12.000Z</time>
      </trkpt>
      <trkpt lat="43.65178" lon="0.65358">
        <ele>224</ele>
        <time>2020-10-03T16:20:13.000Z</time>
      </trkpt>
      <trkpt lat="43.65179" lon="0.65355">
        <ele>224</ele>
        <time>2020-10-03T16:20:14.000Z</time>
      </trkpt>
      <trkpt lat="43.65179" lon="0.65353">
        <ele>224</ele>
        <time>2020-10-03T16:20:15.000Z</time>
      </trkpt>
      <trkpt lat="43.6518" lon="0.6535">
        <ele>224.32773290021</ele>
        <time>2020-10-03T16:20:16.000Z</time>
      </trkpt>
      <trkpt lat="43.65181" lon="0.65348">
        <ele>225</ele>
        <time>2020-10-03T16:20:17.000Z</time>
      </trkpt>
      <trkpt lat="43.65182" lon="0.65345">
        <ele>225</ele>
        <time>2020-10-03T16:20:18.000Z</time>
      </trkpt>
      <trkpt lat="43.65183" lon="0.65342">
        <ele>225</ele>
        <time>2020-10-03T16:20:19.000Z</time>
      </trkpt>
      <trkpt lat="43.65184" lon="0.65339">
        <ele>225</ele>
        <time>2020-10-03T16:20:20.000Z</time>
      </trkpt>
      <trkpt lat="43.65184" lon="0.65337">
        <ele>225</ele>
        <time>2020-10-03T16:20:21.000Z</time>
      </trkpt>
      <trkpt lat="43.65185" lon="0.65334">
        <ele>225.6200064</ele>
        <time>2020-10-03T16:20:22.000Z</time>
      </trkpt>
      <trkpt lat="43.65187" lon="0.65331">
        <ele>227</ele>
        <time>2020-10-03T16:20:23.000Z</time>
      </trkpt>
      <trkpt lat="43.65188" lon="0.65328">
        <ele>227.34905569241</ele>
        <time>2020-10-03T16:20:24.000Z</time>
      </trkpt>
      <trkpt lat="43.65189" lon="0.65325">
        <ele>228</ele>
        <time>2020-10-03T16:20:25.000Z</time>
      </trkpt>
      <trkpt lat="43.6519" lon="0.65322">
        <ele>228</ele>
        <time>2020-10-03T16:20:26.000Z</time>
      </trkpt>
      <trkpt lat="43.65191" lon="0.65319">
        <ele>228</ele>
        <time>2020-10-03T16:20:27.000Z</time>
      </trkpt>
      <trkpt lat="43.65191" lon="0.65316">
        <ele>228</ele>
        <time>2020-10-03T16:20:28.000Z</time>
      </trkpt>
      <trkpt lat="43.65192" lon="0.65313">
        <ele>228</ele>
        <time>2020-10-03T16:20:29.000Z</time>
      </trkpt>
      <trkpt lat="43.65193" lon="0.6531">
        <ele>228</ele>
        <time>2020-10-03T16:20:30.000Z</time>
      </trkpt>
      <trkpt lat="43.65194" lon="0.65307">
        <ele>228</ele>
        <time>2020-10-03T16:20:31.000Z</time>
      </trkpt>
      <trkpt lat="43.65196" lon="0.65303">
        <ele>228</ele>
        <time>2020-10-03T16:20:33.000Z</time>
      </trkpt>
      <trkpt lat="43.65197" lon="0.653">
        <ele>228</ele>
        <time>2020-10-03T16:20:35.000Z</time>
      </trkpt>
      <trkpt lat="43.65199" lon="0.65296">
        <ele>228.42105026779</ele>
        <time>2020-10-03T16:20:37.000Z</time>
      </trkpt>
      <trkpt lat="43.652" lon="0.65293">
        <ele>229</ele>
        <time>2020-10-03T16:20:39.000Z</time>
      </trkpt>
      <trkpt lat="43.65201" lon="0.6529">
        <ele>229</ele>
        <time>2020-10-03T16:20:41.000Z</time>
      </trkpt>
      <trkpt lat="43.65202" lon="0.65286">
        <ele>229</ele>
        <time>2020-10-03T16:20:43.000Z</time>
      </trkpt>
      <trkpt lat="43.65203" lon="0.65282">
        <ele>229</ele>
        <time>2020-10-03T16:20:45.000Z</time>
      </trkpt>
      <trkpt lat="43.65203" lon="0.65279">
        <ele>229.34905569241</ele>
        <time>2020-10-03T16:20:46.000Z</time>
      </trkpt>
      <trkpt lat="43.65204" lon="0.65275">
        <ele>230</ele>
        <time>2020-10-03T16:20:48.000Z</time>
      </trkpt>
      <trkpt lat="43.65204" lon="0.65271">
        <ele>229</ele>
        <time>2020-10-03T16:20:50.000Z</time>
      </trkpt>
      <trkpt lat="43.65204" lon="0.65268">
        <ele>229</ele>
        <time>2020-10-03T16:20:52.000Z</time>
      </trkpt>
      <trkpt lat="43.65205" lon="0.65263">
        <ele>229</ele>
        <time>2020-10-03T16:20:54.000Z</time>
      </trkpt>
      <trkpt lat="43.65206" lon="0.65261">
        <ele>229</ele>
        <time>2020-10-03T16:20:55.000Z</time>
      </trkpt>
      <trkpt lat="43.65207" lon="0.65258">
        <ele>229</ele>
        <time>2020-10-03T16:20:56.000Z</time>
      </trkpt>
      <trkpt lat="43.65208" lon="0.65254">
        <ele>229</ele>
        <time>2020-10-03T16:20:57.000Z</time>
      </trkpt>
      <trkpt lat="43.65209" lon="0.65251">
        <ele>229</ele>
        <time>2020-10-03T16:20:58.000Z</time>
      </trkpt>
      <trkpt lat="43.65209" lon="0.65248">
        <ele>229</ele>
        <time>2020-10-03T16:20:59.000Z</time>
      </trkpt>
      <trkpt lat="43.6521" lon="0.65244">
        <ele>229</ele>
        <time>2020-10-03T16:21:00.000Z</time>
      </trkpt>
      <trkpt lat="43.65211" lon="0.6524">
        <ele>229</ele>
        <time>2020-10-03T16:21:01.000Z</time>
      </trkpt>
      <trkpt lat="43.65212" lon="0.65237">
        <ele>229</ele>
        <time>2020-10-03T16:21:02.000Z</time>
      </trkpt>
      <trkpt lat="43.65213" lon="0.65233">
        <ele>229.43119686223</ele>
        <time>2020-10-03T16:21:03.000Z</time>
      </trkpt>
      <trkpt lat="43.65213" lon="0.6523">
        <ele>230</ele>
        <time>2020-10-03T16:21:04.000Z</time>
      </trkpt>
      <trkpt lat="43.65215" lon="0.65227">
        <ele>230</ele>
        <time>2020-10-03T16:21:05.000Z</time>
      </trkpt>
      <trkpt lat="43.65216" lon="0.65223">
        <ele>230</ele>
        <time>2020-10-03T16:21:06.000Z</time>
      </trkpt>
      <trkpt lat="43.65217" lon="0.6522">
        <ele>230</ele>
        <time>2020-10-03T16:21:07.000Z</time>
      </trkpt>
      <trkpt lat="43.65217" lon="0.65217">
        <ele>230</ele>
        <time>2020-10-03T16:21:08.000Z</time>
      </trkpt>
      <trkpt lat="43.65218" lon="0.65214">
        <ele>230</ele>
        <time>2020-10-03T16:21:09.000Z</time>
      </trkpt>
      <trkpt lat="43.65218" lon="0.6521">
        <ele>230</ele>
        <time>2020-10-03T16:21:10.000Z</time>
      </trkpt>
      <trkpt lat="43.65219" lon="0.65207">
        <ele>230</ele>
        <time>2020-10-03T16:21:11.000Z</time>
      </trkpt>
      <trkpt lat="43.65219" lon="0.65203">
        <ele>230</ele>
        <time>2020-10-03T16:21:12.000Z</time>
      </trkpt>
      <trkpt lat="43.6522" lon="0.65199">
        <ele>230</ele>
        <time>2020-10-03T16:21:13.000Z</time>
      </trkpt>
      <trkpt lat="43.6522" lon="0.65195">
        <ele>230.36470552803</ele>
        <time>2020-10-03T16:21:14.000Z</time>
      </trkpt>
      <trkpt lat="43.65221" lon="0.65191">
        <ele>231</ele>
        <time>2020-10-03T16:21:15.000Z</time>
      </trkpt>
      <trkpt lat="43.65221" lon="0.65188">
        <ele>231</ele>
        <time>2020-10-03T16:21:16.000Z</time>
      </trkpt>
      <trkpt lat="43.65222" lon="0.65184">
        <ele>231</ele>
        <time>2020-10-03T16:21:17.000Z</time>
      </trkpt>
      <trkpt lat="43.65222" lon="0.6518">
        <ele>231</ele>
        <time>2020-10-03T16:21:18.000Z</time>
      </trkpt>
      <trkpt lat="43.65223" lon="0.65177">
        <ele>231</ele>
        <time>2020-10-03T16:21:19.000Z</time>
      </trkpt>
      <trkpt lat="43.65224" lon="0.65173">
        <ele>231</ele>
        <time>2020-10-03T16:21:20.000Z</time>
      </trkpt>
      <trkpt lat="43.65224" lon="0.6517">
        <ele>231</ele>
        <time>2020-10-03T16:21:21.000Z</time>
      </trkpt>
      <trkpt lat="43.65225" lon="0.65166">
        <ele>231</ele>
        <time>2020-10-03T16:21:22.000Z</time>
      </trkpt>
      <trkpt lat="43.65226" lon="0.65163">
        <ele>231</ele>
        <time>2020-10-03T16:21:23.000Z</time>
      </trkpt>
      <trkpt lat="43.65226" lon="0.6516">
        <ele>231</ele>
        <time>2020-10-03T16:21:24.000Z</time>
      </trkpt>
      <trkpt lat="43.65227" lon="0.65156">
        <ele>231.42391652174</ele>
        <time>2020-10-03T16:21:25.000Z</time>
      </trkpt>
      <trkpt lat="43.65227" lon="0.65153">
        <ele>232</ele>
        <time>2020-10-03T16:21:26.000Z</time>
      </trkpt>
      <trkpt lat="43.65227" lon="0.65149">
        <ele>232</ele>
        <time>2020-10-03T16:21:27.000Z</time>
      </trkpt>
      <trkpt lat="43.65228" lon="0.65146">
        <ele>232</ele>
        <time>2020-10-03T16:21:28.000Z</time>
      </trkpt>
      <trkpt lat="43.65228" lon="0.65143">
        <ele>232</ele>
        <time>2020-10-03T16:21:29.000Z</time>
      </trkpt>
      <trkpt lat="43.65229" lon="0.6514">
        <ele>232</ele>
        <time>2020-10-03T16:21:30.000Z</time>
      </trkpt>
      <trkpt lat="43.65229" lon="0.65137">
        <ele>232</ele>
        <time>2020-10-03T16:21:31.000Z</time>
      </trkpt>
      <trkpt lat="43.65229" lon="0.65133">
        <ele>232</ele>
        <time>2020-10-03T16:21:32.000Z</time>
      </trkpt>
      <trkpt lat="43.65229" lon="0.6513">
        <ele>232</ele>
        <time>2020-10-03T16:21:33.000Z</time>
      </trkpt>
      <trkpt lat="43.65229" lon="0.65126">
        <ele>232</ele>
        <time>2020-10-03T16:21:34.000Z</time>
      </trkpt>
      <trkpt lat="43.65229" lon="0.65122">
        <ele>232</ele>
        <time>2020-10-03T16:21:35.000Z</time>
      </trkpt>
      <trkpt lat="43.6523" lon="0.65118">
        <ele>232</ele>
        <time>2020-10-03T16:21:36.000Z</time>
      </trkpt>
      <trkpt lat="43.65231" lon="0.65115">
        <ele>232</ele>
        <time>2020-10-03T16:21:37.000Z</time>
      </trkpt>
      <trkpt lat="43.65231" lon="0.65111">
        <ele>232</ele>
        <time>2020-10-03T16:21:38.000Z</time>
      </trkpt>
      <trkpt lat="43.65232" lon="0.65107">
        <ele>232</ele>
        <time>2020-10-03T16:21:39.000Z</time>
      </trkpt>
      <trkpt lat="43.65232" lon="0.65104">
        <ele>231.56880820132</ele>
        <time>2020-10-03T16:21:40.000Z</time>
      </trkpt>
      <trkpt lat="43.65232" lon="0.651">
        <ele>231</ele>
        <time>2020-10-03T16:21:41.000Z</time>
      </trkpt>
      <trkpt lat="43.65232" lon="0.65097">
        <ele>231</ele>
        <time>2020-10-03T16:21:42.000Z</time>
      </trkpt>
      <trkpt lat="43.65233" lon="0.65093">
        <ele>231</ele>
        <time>2020-10-03T16:21:43.000Z</time>
      </trkpt>
      <trkpt lat="43.65234" lon="0.6509">
        <ele>231</ele>
        <time>2020-10-03T16:21:44.000Z</time>
      </trkpt>
      <trkpt lat="43.65236" lon="0.65086">
        <ele>231</ele>
        <time>2020-10-03T16:21:45.000Z</time>
      </trkpt>
      <trkpt lat="43.65237" lon="0.65082">
        <ele>231</ele>
        <time>2020-10-03T16:21:46.000Z</time>
      </trkpt>
      <trkpt lat="43.65237" lon="0.65078">
        <ele>231</ele>
        <time>2020-10-03T16:21:47.000Z</time>
      </trkpt>
      <trkpt lat="43.65238" lon="0.65074">
        <ele>231</ele>
        <time>2020-10-03T16:21:48.000Z</time>
      </trkpt>
      <trkpt lat="43.65239" lon="0.6507">
        <ele>231</ele>
        <time>2020-10-03T16:21:49.000Z</time>
      </trkpt>
      <trkpt lat="43.6524" lon="0.65066">
        <ele>231</ele>
        <time>2020-10-03T16:21:50.000Z</time>
      </trkpt>
      <trkpt lat="43.65242" lon="0.65062">
        <ele>231</ele>
        <time>2020-10-03T16:21:51.000Z</time>
      </trkpt>
      <trkpt lat="43.65243" lon="0.65059">
        <ele>231</ele>
        <time>2020-10-03T16:21:52.000Z</time>
      </trkpt>
      <trkpt lat="43.65244" lon="0.65056">
        <ele>231</ele>
        <time>2020-10-03T16:21:53.000Z</time>
      </trkpt>
      <trkpt lat="43.65246" lon="0.65053">
        <ele>231</ele>
        <time>2020-10-03T16:21:54.000Z</time>
      </trkpt>
      <trkpt lat="43.65248" lon="0.6505">
        <ele>231</ele>
        <time>2020-10-03T16:21:55.000Z</time>
      </trkpt>
      <trkpt lat="43.6525" lon="0.65047">
        <ele>231</ele>
        <time>2020-10-03T16:21:56.000Z</time>
      </trkpt>
      <trkpt lat="43.65252" lon="0.65045">
        <ele>231</ele>
        <time>2020-10-03T16:21:57.000Z</time>
      </trkpt>
      <trkpt lat="43.65254" lon="0.65042">
        <ele>231</ele>
        <time>2020-10-03T16:21:58.000Z</time>
      </trkpt>
      <trkpt lat="43.65256" lon="0.65039">
        <ele>231</ele>
        <time>2020-10-03T16:21:59.000Z</time>
      </trkpt>
      <trkpt lat="43.65258" lon="0.65036">
        <ele>231</ele>
        <time>2020-10-03T16:22:00.000Z</time>
      </trkpt>
      <trkpt lat="43.6526" lon="0.65034">
        <ele>231</ele>
        <time>2020-10-03T16:22:01.000Z</time>
      </trkpt>
      <trkpt lat="43.65262" lon="0.65031">
        <ele>230.6541330228</ele>
        <time>2020-10-03T16:22:02.000Z</time>
      </trkpt>
      <trkpt lat="43.65264" lon="0.65029">
        <ele>230</ele>
        <time>2020-10-03T16:22:03.000Z</time>
      </trkpt>
      <trkpt lat="43.65266" lon="0.65027">
        <ele>230</ele>
        <time>2020-10-03T16:22:04.000Z</time>
      </trkpt>
      <trkpt lat="43.65268" lon="0.65025">
        <ele>230</ele>
        <time>2020-10-03T16:22:05.000Z</time>
      </trkpt>
      <trkpt lat="43.6527" lon="0.65023">
        <ele>230</ele>
        <time>2020-10-03T16:22:06.000Z</time>
      </trkpt>
      <trkpt lat="43.65272" lon="0.65021">
        <ele>230</ele>
        <time>2020-10-03T16:22:07.000Z</time>
      </trkpt>
      <trkpt lat="43.65274" lon="0.65019">
        <ele>230.237504</ele>
        <time>2020-10-03T16:22:08.000Z</time>
      </trkpt>
      <trkpt lat="43.65276" lon="0.65017">
        <ele>231</ele>
        <time>2020-10-03T16:22:09.000Z</time>
      </trkpt>
      <trkpt lat="43.65278" lon="0.65014">
        <ele>231</ele>
        <time>2020-10-03T16:22:10.000Z</time>
      </trkpt>
      <trkpt lat="43.6528" lon="0.65012">
        <ele>231</ele>
        <time>2020-10-03T16:22:11.000Z</time>
      </trkpt>
      <trkpt lat="43.65282" lon="0.6501">
        <ele>231</ele>
        <time>2020-10-03T16:22:12.000Z</time>
      </trkpt>
      <trkpt lat="43.65284" lon="0.65007">
        <ele>231</ele>
        <time>2020-10-03T16:22:13.000Z</time>
      </trkpt>
      <trkpt lat="43.65286" lon="0.65005">
        <ele>231</ele>
        <time>2020-10-03T16:22:14.000Z</time>
      </trkpt>
      <trkpt lat="43.65288" lon="0.65003">
        <ele>231</ele>
        <time>2020-10-03T16:22:15.000Z</time>
      </trkpt>
      <trkpt lat="43.65291" lon="0.65001">
        <ele>231</ele>
        <time>2020-10-03T16:22:16.000Z</time>
      </trkpt>
      <trkpt lat="43.65293" lon="0.64998">
        <ele>231</ele>
        <time>2020-10-03T16:22:17.000Z</time>
      </trkpt>
      <trkpt lat="43.65295" lon="0.64996">
        <ele>231</ele>
        <time>2020-10-03T16:22:18.000Z</time>
      </trkpt>
      <trkpt lat="43.65297" lon="0.64993">
        <ele>231</ele>
        <time>2020-10-03T16:22:19.000Z</time>
      </trkpt>
      <trkpt lat="43.65299" lon="0.64991">
        <ele>231</ele>
        <time>2020-10-03T16:22:20.000Z</time>
      </trkpt>
      <trkpt lat="43.65301" lon="0.64988">
        <ele>231</ele>
        <time>2020-10-03T16:22:21.000Z</time>
      </trkpt>
      <trkpt lat="43.65303" lon="0.64985">
        <ele>231</ele>
        <time>2020-10-03T16:22:22.000Z</time>
      </trkpt>
      <trkpt lat="43.65305" lon="0.64981">
        <ele>231</ele>
        <time>2020-10-03T16:22:23.000Z</time>
      </trkpt>
      <trkpt lat="43.65307" lon="0.64978">
        <ele>231</ele>
        <time>2020-10-03T16:22:24.000Z</time>
      </trkpt>
      <trkpt lat="43.65309" lon="0.64974">
        <ele>231</ele>
        <time>2020-10-03T16:22:25.000Z</time>
      </trkpt>
      <trkpt lat="43.65311" lon="0.6497">
        <ele>231</ele>
        <time>2020-10-03T16:22:26.000Z</time>
      </trkpt>
      <trkpt lat="43.65313" lon="0.64967">
        <ele>231</ele>
        <time>2020-10-03T16:22:27.000Z</time>
      </trkpt>
      <trkpt lat="43.65315" lon="0.64964">
        <ele>231</ele>
        <time>2020-10-03T16:22:28.000Z</time>
      </trkpt>
      <trkpt lat="43.65316" lon="0.64961">
        <ele>231</ele>
        <time>2020-10-03T16:22:29.000Z</time>
      </trkpt>
      <trkpt lat="43.65318" lon="0.64957">
        <ele>231</ele>
        <time>2020-10-03T16:22:30.000Z</time>
      </trkpt>
      <trkpt lat="43.65319" lon="0.64954">
        <ele>231</ele>
        <time>2020-10-03T16:22:31.000Z</time>
      </trkpt>
      <trkpt lat="43.65321" lon="0.6495">
        <ele>231</ele>
        <time>2020-10-03T16:22:32.000Z</time>
      </trkpt>
      <trkpt lat="43.65322" lon="0.64947">
        <ele>231</ele>
        <time>2020-10-03T16:22:33.000Z</time>
      </trkpt>
      <trkpt lat="43.65323" lon="0.64943">
        <ele>231</ele>
        <time>2020-10-03T16:22:34.000Z</time>
      </trkpt>
      <trkpt lat="43.65324" lon="0.64939">
        <ele>231</ele>
        <time>2020-10-03T16:22:35.000Z</time>
      </trkpt>
      <trkpt lat="43.65325" lon="0.64935">
        <ele>231</ele>
        <time>2020-10-03T16:22:36.000Z</time>
      </trkpt>
      <trkpt lat="43.65326" lon="0.64931">
        <ele>230.60215260956</ele>
        <time>2020-10-03T16:22:37.000Z</time>
      </trkpt>
      <trkpt lat="43.65327" lon="0.64927">
        <ele>230</ele>
        <time>2020-10-03T16:22:38.000Z</time>
      </trkpt>
      <trkpt lat="43.65328" lon="0.64923">
        <ele>230</ele>
        <time>2020-10-03T16:22:39.000Z</time>
      </trkpt>
      <trkpt lat="43.65328" lon="0.64919">
        <ele>230</ele>
        <time>2020-10-03T16:22:40.000Z</time>
      </trkpt>
      <trkpt lat="43.65329" lon="0.64915">
        <ele>229.63953384533</ele>
        <time>2020-10-03T16:22:41.000Z</time>
      </trkpt>
      <trkpt lat="43.65329" lon="0.64911">
        <ele>229</ele>
        <time>2020-10-03T16:22:42.000Z</time>
      </trkpt>
      <trkpt lat="43.6533" lon="0.64907">
        <ele>229</ele>
        <time>2020-10-03T16:22:43.000Z</time>
      </trkpt>
      <trkpt lat="43.65331" lon="0.64903">
        <ele>228.6545416463</ele>
        <time>2020-10-03T16:22:44.000Z</time>
      </trkpt>
      <trkpt lat="43.65331" lon="0.64899">
        <ele>228</ele>
        <time>2020-10-03T16:22:45.000Z</time>
      </trkpt>
      <trkpt lat="43.65332" lon="0.64895">
        <ele>228</ele>
        <time>2020-10-03T16:22:46.000Z</time>
      </trkpt>
      <trkpt lat="43.65333" lon="0.64891">
        <ele>228</ele>
        <time>2020-10-03T16:22:47.000Z</time>
      </trkpt>
      <trkpt lat="43.65333" lon="0.64888">
        <ele>228</ele>
        <time>2020-10-03T16:22:48.000Z</time>
      </trkpt>
      <trkpt lat="43.65333" lon="0.64884">
        <ele>228</ele>
        <time>2020-10-03T16:22:49.000Z</time>
      </trkpt>
      <trkpt lat="43.65333" lon="0.6488">
        <ele>228</ele>
        <time>2020-10-03T16:22:50.000Z</time>
      </trkpt>
      <trkpt lat="43.65333" lon="0.64877">
        <ele>228</ele>
        <time>2020-10-03T16:22:51.000Z</time>
      </trkpt>
      <trkpt lat="43.65333" lon="0.64873">
        <ele>228</ele>
        <time>2020-10-03T16:22:52.000Z</time>
      </trkpt>
      <trkpt lat="43.65333" lon="0.64869">
        <ele>228</ele>
        <time>2020-10-03T16:22:53.000Z</time>
      </trkpt>
      <trkpt lat="43.65333" lon="0.64865">
        <ele>228</ele>
        <time>2020-10-03T16:22:54.000Z</time>
      </trkpt>
      <trkpt lat="43.65333" lon="0.64861">
        <ele>228</ele>
        <time>2020-10-03T16:22:55.000Z</time>
      </trkpt>
      <trkpt lat="43.65333" lon="0.64857">
        <ele>228</ele>
        <time>2020-10-03T16:22:56.000Z</time>
      </trkpt>
      <trkpt lat="43.65334" lon="0.64854">
        <ele>228</ele>
        <time>2020-10-03T16:22:57.000Z</time>
      </trkpt>
      <trkpt lat="43.65333" lon="0.6485">
        <ele>227</ele>
        <time>2020-10-03T16:22:58.000Z</time>
      </trkpt>
      <trkpt lat="43.65333" lon="0.64846">
        <ele>227</ele>
        <time>2020-10-03T16:22:59.000Z</time>
      </trkpt>
      <trkpt lat="43.65332" lon="0.64842">
        <ele>227</ele>
        <time>2020-10-03T16:23:00.000Z</time>
      </trkpt>
      <trkpt lat="43.65331" lon="0.64838">
        <ele>227</ele>
        <time>2020-10-03T16:23:01.000Z</time>
      </trkpt>
      <trkpt lat="43.6533" lon="0.64834">
        <ele>227</ele>
        <time>2020-10-03T16:23:02.000Z</time>
      </trkpt>
      <trkpt lat="43.65328" lon="0.64831">
        <ele>226.66667013549</ele>
        <time>2020-10-03T16:23:03.000Z</time>
      </trkpt>
      <trkpt lat="43.65325" lon="0.64824">
        <ele>226</ele>
        <time>2020-10-03T16:23:05.000Z</time>
      </trkpt>
      <trkpt lat="43.65323" lon="0.6482">
        <ele>226</ele>
        <time>2020-10-03T16:23:06.000Z</time>
      </trkpt>
      <trkpt lat="43.65321" lon="0.64817">
        <ele>226</ele>
        <time>2020-10-03T16:23:07.000Z</time>
      </trkpt>
      <trkpt lat="43.6532" lon="0.64814">
        <ele>226</ele>
        <time>2020-10-03T16:23:08.000Z</time>
      </trkpt>
      <trkpt lat="43.65318" lon="0.64811">
        <ele>226</ele>
        <time>2020-10-03T16:23:09.000Z</time>
      </trkpt>
      <trkpt lat="43.65316" lon="0.64808">
        <ele>226</ele>
        <time>2020-10-03T16:23:10.000Z</time>
      </trkpt>
      <trkpt lat="43.65315" lon="0.64804">
        <ele>226</ele>
        <time>2020-10-03T16:23:11.000Z</time>
      </trkpt>
      <trkpt lat="43.65313" lon="0.64801">
        <ele>225.59183406912</ele>
        <time>2020-10-03T16:23:12.000Z</time>
      </trkpt>
      <trkpt lat="43.65312" lon="0.64796">
        <ele>225</ele>
        <time>2020-10-03T16:23:13.000Z</time>
      </trkpt>
      <trkpt lat="43.6531" lon="0.64792">
        <ele>225</ele>
        <time>2020-10-03T16:23:14.000Z</time>
      </trkpt>
      <trkpt lat="43.65309" lon="0.64788">
        <ele>224.69317818182</ele>
        <time>2020-10-03T16:23:15.000Z</time>
      </trkpt>
      <trkpt lat="43.65308" lon="0.64783">
        <ele>224</ele>
        <time>2020-10-03T16:23:16.000Z</time>
      </trkpt>
      <trkpt lat="43.65307" lon="0.64779">
        <ele>224</ele>
        <time>2020-10-03T16:23:17.000Z</time>
      </trkpt>
      <trkpt lat="43.65306" lon="0.64774">
        <ele>224</ele>
        <time>2020-10-03T16:23:18.000Z</time>
      </trkpt>
      <trkpt lat="43.65305" lon="0.6477">
        <ele>224</ele>
        <time>2020-10-03T16:23:19.000Z</time>
      </trkpt>
      <trkpt lat="43.65304" lon="0.64765">
        <ele>222</ele>
        <time>2020-10-03T16:23:20.000Z</time>
      </trkpt>
      <trkpt lat="43.65302" lon="0.64761">
        <ele>222</ele>
        <time>2020-10-03T16:23:21.000Z</time>
      </trkpt>
      <trkpt lat="43.65301" lon="0.64757">
        <ele>222</ele>
        <time>2020-10-03T16:23:22.000Z</time>
      </trkpt>
      <trkpt lat="43.65299" lon="0.64753">
        <ele>222</ele>
        <time>2020-10-03T16:23:23.000Z</time>
      </trkpt>
      <trkpt lat="43.65298" lon="0.64749">
        <ele>221.85454630082</ele>
        <time>2020-10-03T16:23:24.000Z</time>
      </trkpt>
      <trkpt lat="43.65296" lon="0.64745">
        <ele>220</ele>
        <time>2020-10-03T16:23:25.000Z</time>
      </trkpt>
      <trkpt lat="43.65294" lon="0.64741">
        <ele>220</ele>
        <time>2020-10-03T16:23:26.000Z</time>
      </trkpt>
      <trkpt lat="43.65293" lon="0.64737">
        <ele>220</ele>
        <time>2020-10-03T16:23:27.000Z</time>
      </trkpt>
      <trkpt lat="43.65291" lon="0.64734">
        <ele>220</ele>
        <time>2020-10-03T16:23:28.000Z</time>
      </trkpt>
      <trkpt lat="43.65289" lon="0.6473">
        <ele>219.64130782609</ele>
        <time>2020-10-03T16:23:29.000Z</time>
      </trkpt>
      <trkpt lat="43.65287" lon="0.64726">
        <ele>219</ele>
        <time>2020-10-03T16:23:30.000Z</time>
      </trkpt>
      <trkpt lat="43.65285" lon="0.64723">
        <ele>219</ele>
        <time>2020-10-03T16:23:31.000Z</time>
      </trkpt>
      <trkpt lat="43.65283" lon="0.6472">
        <ele>218.74116796675</ele>
        <time>2020-10-03T16:23:32.000Z</time>
      </trkpt>
      <trkpt lat="43.65281" lon="0.64717">
        <ele>217</ele>
        <time>2020-10-03T16:23:33.000Z</time>
      </trkpt>
      <trkpt lat="43.65279" lon="0.64714">
        <ele>217</ele>
        <time>2020-10-03T16:23:34.000Z</time>
      </trkpt>
      <trkpt lat="43.65278" lon="0.6471">
        <ele>216.73255640888</ele>
        <time>2020-10-03T16:23:35.000Z</time>
      </trkpt>
      <trkpt lat="43.65276" lon="0.64707">
        <ele>216</ele>
        <time>2020-10-03T16:23:36.000Z</time>
      </trkpt>
      <trkpt lat="43.65274" lon="0.64703">
        <ele>216</ele>
        <time>2020-10-03T16:23:37.000Z</time>
      </trkpt>
      <trkpt lat="43.65272" lon="0.64699">
        <ele>216.39999397645</ele>
        <time>2020-10-03T16:23:38.000Z</time>
      </trkpt>
      <trkpt lat="43.6527" lon="0.64696">
        <ele>217</ele>
        <time>2020-10-03T16:23:39.000Z</time>
      </trkpt>
      <trkpt lat="43.65267" lon="0.64692">
        <ele>217</ele>
        <time>2020-10-03T16:23:40.000Z</time>
      </trkpt>
      <trkpt lat="43.65266" lon="0.64689">
        <ele>217</ele>
        <time>2020-10-03T16:23:41.000Z</time>
      </trkpt>
      <trkpt lat="43.65264" lon="0.64686">
        <ele>217</ele>
        <time>2020-10-03T16:23:42.000Z</time>
      </trkpt>
      <trkpt lat="43.65263" lon="0.64683">
        <ele>217</ele>
        <time>2020-10-03T16:23:43.000Z</time>
      </trkpt>
      <trkpt lat="43.65261" lon="0.64681">
        <ele>217</ele>
        <time>2020-10-03T16:23:44.000Z</time>
      </trkpt>
      <trkpt lat="43.65259" lon="0.64679">
        <ele>216.32631805872</ele>
        <time>2020-10-03T16:23:45.000Z</time>
      </trkpt>
      <trkpt lat="43.65257" lon="0.64677">
        <ele>215</ele>
        <time>2020-10-03T16:23:46.000Z</time>
      </trkpt>
      <trkpt lat="43.65255" lon="0.64674">
        <ele>215</ele>
        <time>2020-10-03T16:23:47.000Z</time>
      </trkpt>
      <trkpt lat="43.65252" lon="0.64672">
        <ele>213.94443917702</ele>
        <time>2020-10-03T16:23:48.000Z</time>
      </trkpt>
      <trkpt lat="43.65249" lon="0.6467">
        <ele>212</ele>
        <time>2020-10-03T16:23:49.000Z</time>
      </trkpt>
      <trkpt lat="43.65246" lon="0.64668">
        <ele>212</ele>
        <time>2020-10-03T16:23:50.000Z</time>
      </trkpt>
      <trkpt lat="43.65244" lon="0.64666">
        <ele>211.71427968605</ele>
        <time>2020-10-03T16:23:51.000Z</time>
      </trkpt>
      <trkpt lat="43.65241" lon="0.64664">
        <ele>211</ele>
        <time>2020-10-03T16:23:53.000Z</time>
      </trkpt>
      <trkpt lat="43.65242" lon="0.64662">
        <ele>211</ele>
        <time>2020-10-03T16:24:36.000Z</time>
      </trkpt>
      <trkpt lat="43.65241" lon="0.64659">
        <ele>212</ele>
        <time>2020-10-03T16:25:21.000Z</time>
      </trkpt>
      <trkpt lat="43.65239" lon="0.64657">
        <ele>211</ele>
        <time>2020-10-03T16:25:41.000Z</time>
      </trkpt>
      <trkpt lat="43.65237" lon="0.64654">
        <ele>212</ele>
        <time>2020-10-03T16:25:43.000Z</time>
      </trkpt>
      <trkpt lat="43.65235" lon="0.64652">
        <ele>212</ele>
        <time>2020-10-03T16:25:45.000Z</time>
      </trkpt>
      <trkpt lat="43.65234" lon="0.64649">
        <ele>212</ele>
        <time>2020-10-03T16:25:47.000Z</time>
      </trkpt>
      <trkpt lat="43.65232" lon="0.64647">
        <ele>212</ele>
        <time>2020-10-03T16:25:49.000Z</time>
      </trkpt>
      <trkpt lat="43.65231" lon="0.64645">
        <ele>212</ele>
        <time>2020-10-03T16:25:53.000Z</time>
      </trkpt>
      <trkpt lat="43.65231" lon="0.64649">
        <ele>212</ele>
        <time>2020-10-03T16:25:56.000Z</time>
      </trkpt>
      <trkpt lat="43.65233" lon="0.64648">
        <ele>211</ele>
        <time>2020-10-03T16:26:45.000Z</time>
      </trkpt>
      <trkpt lat="43.65233" lon="0.64645">
        <ele>212</ele>
        <time>2020-10-03T16:26:55.000Z</time>
      </trkpt>
      <trkpt lat="43.65234" lon="0.64643">
        <ele>212</ele>
        <time>2020-10-03T16:28:47.000Z</time>
      </trkpt>
      <trkpt lat="43.65236" lon="0.64644">
        <ele>212</ele>
        <time>2020-10-03T16:29:50.000Z</time>
      </trkpt>
      <trkpt lat="43.65234" lon="0.64642">
        <ele>212</ele>
        <time>2020-10-03T16:31:19.000Z</time>
      </trkpt>
      <trkpt lat="43.65235" lon="0.64644">
        <ele>211</ele>
        <time>2020-10-03T16:31:55.000Z</time>
      </trkpt>
      <trkpt lat="43.65234" lon="0.64648">
        <ele>211.08333037037</ele>
        <time>2020-10-03T16:31:57.000Z</time>
      </trkpt>
      <trkpt lat="43.65236" lon="0.6465">
        <ele>212</ele>
        <time>2020-10-03T16:32:03.000Z</time>
      </trkpt>
      <trkpt lat="43.65238" lon="0.64652">
        <ele>211.81159796683</ele>
        <time>2020-10-03T16:32:06.000Z</time>
      </trkpt>
      <trkpt lat="43.65241" lon="0.64653">
        <ele>211</ele>
        <time>2020-10-03T16:32:08.000Z</time>
      </trkpt>
      <trkpt lat="43.65243" lon="0.64653">
        <ele>211</ele>
        <time>2020-10-03T16:32:09.000Z</time>
      </trkpt>
      <trkpt lat="43.65245" lon="0.64654">
        <ele>210.86567449325</ele>
        <time>2020-10-03T16:32:10.000Z</time>
      </trkpt>
      <trkpt lat="43.65247" lon="0.64654">
        <ele>210</ele>
        <time>2020-10-03T16:32:11.000Z</time>
      </trkpt>
      <trkpt lat="43.65249" lon="0.64655">
        <ele>210</ele>
        <time>2020-10-03T16:32:12.000Z</time>
      </trkpt>
      <trkpt lat="43.65252" lon="0.64657">
        <ele>209.52040802999</ele>
        <time>2020-10-03T16:32:14.000Z</time>
      </trkpt>
      <trkpt lat="43.65254" lon="0.64658">
        <ele>209</ele>
        <time>2020-10-03T16:32:15.000Z</time>
      </trkpt>
      <trkpt lat="43.65256" lon="0.64658">
        <ele>209</ele>
        <time>2020-10-03T16:32:16.000Z</time>
      </trkpt>
      <trkpt lat="43.6526" lon="0.64659">
        <ele>208</ele>
        <time>2020-10-03T16:32:18.000Z</time>
      </trkpt>
      <trkpt lat="43.65262" lon="0.64659">
        <ele>208</ele>
        <time>2020-10-03T16:32:19.000Z</time>
      </trkpt>
      <trkpt lat="43.65272" lon="0.64658">
        <ele>208</ele>
        <time>2020-10-03T16:32:23.000Z</time>
      </trkpt>
      <trkpt lat="43.65281" lon="0.64659">
        <ele>208</ele>
        <time>2020-10-03T16:32:26.000Z</time>
      </trkpt>
      <trkpt lat="43.65292" lon="0.64659">
        <ele>207</ele>
        <time>2020-10-03T16:32:30.000Z</time>
      </trkpt>
      <trkpt lat="43.65305" lon="0.64661">
        <ele>206</ele>
        <time>2020-10-03T16:32:35.000Z</time>
      </trkpt>
      <trkpt lat="43.65317" lon="0.64665">
        <ele>206</ele>
        <time>2020-10-03T16:32:39.000Z</time>
      </trkpt>
      <trkpt lat="43.65327" lon="0.64673">
        <ele>206</ele>
        <time>2020-10-03T16:32:43.000Z</time>
      </trkpt>
      <trkpt lat="43.65333" lon="0.64676">
        <ele>206</ele>
        <time>2020-10-03T16:32:45.000Z</time>
      </trkpt>
      <trkpt lat="43.65335" lon="0.64679">
        <ele>206</ele>
        <time>2020-10-03T16:32:46.000Z</time>
      </trkpt>
      <trkpt lat="43.65337" lon="0.64681">
        <ele>206</ele>
        <time>2020-10-03T16:32:47.000Z</time>
      </trkpt>
      <trkpt lat="43.65346" lon="0.64689">
        <ele>204</ele>
        <time>2020-10-03T16:32:51.000Z</time>
      </trkpt>
      <trkpt lat="43.65354" lon="0.64695">
        <ele>203</ele>
        <time>2020-10-03T16:32:54.000Z</time>
      </trkpt>
      <trkpt lat="43.65365" lon="0.64702">
        <ele>202</ele>
        <time>2020-10-03T16:32:57.000Z</time>
      </trkpt>
      <trkpt lat="43.65374" lon="0.6471">
        <ele>202</ele>
        <time>2020-10-03T16:33:00.000Z</time>
      </trkpt>
      <trkpt lat="43.65382" lon="0.64716">
        <ele>200</ele>
        <time>2020-10-03T16:33:03.000Z</time>
      </trkpt>
      <trkpt lat="43.6539" lon="0.64728">
        <ele>200</ele>
        <time>2020-10-03T16:33:07.000Z</time>
      </trkpt>
      <trkpt lat="43.65396" lon="0.64738">
        <ele>199.74116796675</ele>
        <time>2020-10-03T16:33:10.000Z</time>
      </trkpt>
      <trkpt lat="43.65405" lon="0.64745">
        <ele>198</ele>
        <time>2020-10-03T16:33:19.000Z</time>
      </trkpt>
      <trkpt lat="43.65411" lon="0.64755">
        <ele>198</ele>
        <time>2020-10-03T16:33:27.000Z</time>
      </trkpt>
      <trkpt lat="43.65416" lon="0.64767">
        <ele>196</ele>
        <time>2020-10-03T16:33:31.000Z</time>
      </trkpt>
      <trkpt lat="43.65421" lon="0.64781">
        <ele>194</ele>
        <time>2020-10-03T16:33:35.000Z</time>
      </trkpt>
      <trkpt lat="43.65428" lon="0.64793">
        <ele>193.31819636364</ele>
        <time>2020-10-03T16:33:39.000Z</time>
      </trkpt>
      <trkpt lat="43.65434" lon="0.64804">
        <ele>191.69026177773</ele>
        <time>2020-10-03T16:33:43.000Z</time>
      </trkpt>
      <trkpt lat="43.65441" lon="0.64814">
        <ele>191</ele>
        <time>2020-10-03T16:33:47.000Z</time>
      </trkpt>
      <trkpt lat="43.65452" lon="0.64823">
        <ele>190</ele>
        <time>2020-10-03T16:33:51.000Z</time>
      </trkpt>
      <trkpt lat="43.65459" lon="0.6483">
        <ele>189.27433989194</ele>
        <time>2020-10-03T16:33:55.000Z</time>
      </trkpt>
      <trkpt lat="43.65469" lon="0.64835">
        <ele>188</ele>
        <time>2020-10-03T16:33:59.000Z</time>
      </trkpt>
      <trkpt lat="43.65479" lon="0.64837">
        <ele>186</ele>
        <time>2020-10-03T16:34:03.000Z</time>
      </trkpt>
      <trkpt lat="43.65491" lon="0.64839">
        <ele>186</ele>
        <time>2020-10-03T16:34:07.000Z</time>
      </trkpt>
      <trkpt lat="43.655" lon="0.64839">
        <ele>185</ele>
        <time>2020-10-03T16:34:10.000Z</time>
      </trkpt>
      <trkpt lat="43.65506" lon="0.64839">
        <ele>184.07547215379</ele>
        <time>2020-10-03T16:34:12.000Z</time>
      </trkpt>
      <trkpt lat="43.65517" lon="0.64837">
        <ele>182</ele>
        <time>2020-10-03T16:34:16.000Z</time>
      </trkpt>
      <trkpt lat="43.65526" lon="0.64833">
        <ele>181</ele>
        <time>2020-10-03T16:34:19.000Z</time>
      </trkpt>
      <trkpt lat="43.65534" lon="0.64827">
        <ele>179.78378191379</ele>
        <time>2020-10-03T16:34:22.000Z</time>
      </trkpt>
      <trkpt lat="43.65539" lon="0.64821">
        <ele>178</ele>
        <time>2020-10-03T16:34:24.000Z</time>
      </trkpt>
      <trkpt lat="43.65545" lon="0.64812">
        <ele>175</ele>
        <time>2020-10-03T16:34:27.000Z</time>
      </trkpt>
      <trkpt lat="43.6555" lon="0.64803">
        <ele>173</ele>
        <time>2020-10-03T16:34:30.000Z</time>
      </trkpt>
      <trkpt lat="43.65551" lon="0.648">
        <ele>173</ele>
        <time>2020-10-03T16:34:31.000Z</time>
      </trkpt>
      <trkpt lat="43.65551" lon="0.64797">
        <ele>173.77518579891</ele>
        <time>2020-10-03T16:34:32.000Z</time>
      </trkpt>
      <trkpt lat="43.65552" lon="0.64794">
        <ele>175</ele>
        <time>2020-10-03T16:34:33.000Z</time>
      </trkpt>
      <trkpt lat="43.65553" lon="0.6479">
        <ele>175.36606857143</ele>
        <time>2020-10-03T16:34:35.000Z</time>
      </trkpt>
      <trkpt lat="43.65555" lon="0.64787">
        <ele>176</ele>
        <time>2020-10-03T16:34:37.000Z</time>
      </trkpt>
      <trkpt lat="43.65557" lon="0.64785">
        <ele>175.8292618204</ele>
        <time>2020-10-03T16:34:38.000Z</time>
      </trkpt>
      <trkpt lat="43.65559" lon="0.6478">
        <ele>175</ele>
        <time>2020-10-03T16:34:40.000Z</time>
      </trkpt>
      <trkpt lat="43.65559" lon="0.64777">
        <ele>175</ele>
        <time>2020-10-03T16:34:41.000Z</time>
      </trkpt>
      <trkpt lat="43.6556" lon="0.64774">
        <ele>174.6823479806</ele>
        <time>2020-10-03T16:34:42.000Z</time>
      </trkpt>
      <trkpt lat="43.6556" lon="0.64772">
        <ele>174</ele>
        <time>2020-10-03T16:34:43.000Z</time>
      </trkpt>
      <trkpt lat="43.65562" lon="0.64769">
        <ele>174</ele>
        <time>2020-10-03T16:34:44.000Z</time>
      </trkpt>
      <trkpt lat="43.65564" lon="0.64762">
        <ele>173</ele>
        <time>2020-10-03T16:34:46.000Z</time>
      </trkpt>
      <trkpt lat="43.65565" lon="0.64758">
        <ele>173</ele>
        <time>2020-10-03T16:34:47.000Z</time>
      </trkpt>
      <trkpt lat="43.65566" lon="0.64754">
        <ele>173</ele>
        <time>2020-10-03T16:34:48.000Z</time>
      </trkpt>
      <trkpt lat="43.65567" lon="0.64751">
        <ele>173</ele>
        <time>2020-10-03T16:34:49.000Z</time>
      </trkpt>
      <trkpt lat="43.65568" lon="0.64747">
        <ele>173</ele>
        <time>2020-10-03T16:34:50.000Z</time>
      </trkpt>
      <trkpt lat="43.65569" lon="0.64743">
        <ele>173</ele>
        <time>2020-10-03T16:34:51.000Z</time>
      </trkpt>
      <trkpt lat="43.65569" lon="0.64738">
        <ele>172.23999692804</ele>
        <time>2020-10-03T16:34:52.000Z</time>
      </trkpt>
      <trkpt lat="43.6557" lon="0.64732">
        <ele>171</ele>
        <time>2020-10-03T16:34:54.000Z</time>
      </trkpt>
      <trkpt lat="43.6557" lon="0.64728">
        <ele>171</ele>
        <time>2020-10-03T16:34:55.000Z</time>
      </trkpt>
      <trkpt lat="43.65569" lon="0.64725">
        <ele>171</ele>
        <time>2020-10-03T16:34:56.000Z</time>
      </trkpt>
      <trkpt lat="43.65567" lon="0.64722">
        <ele>170.58678105595</ele>
        <time>2020-10-03T16:34:57.000Z</time>
      </trkpt>
      <trkpt lat="43.65565" lon="0.6472">
        <ele>169</ele>
        <time>2020-10-03T16:34:58.000Z</time>
      </trkpt>
      <trkpt lat="43.65558" lon="0.6472">
        <ele>169</ele>
        <time>2020-10-03T16:35:01.000Z</time>
      </trkpt>
      <trkpt lat="43.65556" lon="0.64722">
        <ele>169</ele>
        <time>2020-10-03T16:35:02.000Z</time>
      </trkpt>
      <trkpt lat="43.65555" lon="0.64725">
        <ele>169</ele>
        <time>2020-10-03T16:35:03.000Z</time>
      </trkpt>
      <trkpt lat="43.65554" lon="0.64727">
        <ele>169</ele>
        <time>2020-10-03T16:35:04.000Z</time>
      </trkpt>
      <trkpt lat="43.65552" lon="0.6473">
        <ele>169</ele>
        <time>2020-10-03T16:35:05.000Z</time>
      </trkpt>
      <trkpt lat="43.65548" lon="0.64739">
        <ele>169</ele>
        <time>2020-10-03T16:35:09.000Z</time>
      </trkpt>
      <trkpt lat="43.65538" lon="0.64736">
        <ele>166.86206947285</ele>
        <time>2020-10-03T16:35:14.000Z</time>
      </trkpt>
      <trkpt lat="43.65538" lon="0.6472">
        <ele>166</ele>
        <time>2020-10-03T16:35:18.000Z</time>
      </trkpt>
      <trkpt lat="43.65539" lon="0.64717">
        <ele>166</ele>
        <time>2020-10-03T16:35:19.000Z</time>
      </trkpt>
      <trkpt lat="43.65546" lon="0.64706">
        <ele>165</ele>
        <time>2020-10-03T16:35:23.000Z</time>
      </trkpt>
      <trkpt lat="43.65553" lon="0.64697">
        <ele>165</ele>
        <time>2020-10-03T16:35:26.000Z</time>
      </trkpt>
      <trkpt lat="43.65558" lon="0.64684">
        <ele>164.60177161564</ele>
        <time>2020-10-03T16:35:30.000Z</time>
      </trkpt>
      <trkpt lat="43.65562" lon="0.64677">
        <ele>164</ele>
        <time>2020-10-03T16:35:32.000Z</time>
      </trkpt>
      <trkpt lat="43.65563" lon="0.64673">
        <ele>163.67058699515</ele>
        <time>2020-10-03T16:35:33.000Z</time>
      </trkpt>
      <trkpt lat="43.65564" lon="0.6467">
        <ele>163</ele>
        <time>2020-10-03T16:35:34.000Z</time>
      </trkpt>
      <trkpt lat="43.65566" lon="0.64667">
        <ele>163</ele>
        <time>2020-10-03T16:35:35.000Z</time>
      </trkpt>
      <trkpt lat="43.65567" lon="0.64663">
        <ele>163</ele>
        <time>2020-10-03T16:35:36.000Z</time>
      </trkpt>
      <trkpt lat="43.65574" lon="0.6465">
        <ele>163</ele>
        <time>2020-10-03T16:35:40.000Z</time>
      </trkpt>
      <trkpt lat="43.65576" lon="0.64643">
        <ele>163</ele>
        <time>2020-10-03T16:35:42.000Z</time>
      </trkpt>
      <trkpt lat="43.65577" lon="0.64639">
        <ele>162.63157540168</ele>
        <time>2020-10-03T16:35:43.000Z</time>
      </trkpt>
      <trkpt lat="43.65578" lon="0.64636">
        <ele>162</ele>
        <time>2020-10-03T16:35:44.000Z</time>
      </trkpt>
      <trkpt lat="43.65578" lon="0.64632">
        <ele>162</ele>
        <time>2020-10-03T16:35:45.000Z</time>
      </trkpt>
      <trkpt lat="43.65579" lon="0.64628">
        <ele>162</ele>
        <time>2020-10-03T16:35:46.000Z</time>
      </trkpt>
      <trkpt lat="43.6558" lon="0.64624">
        <ele>162</ele>
        <time>2020-10-03T16:35:47.000Z</time>
      </trkpt>
      <trkpt lat="43.65581" lon="0.6462">
        <ele>161.55339323218</ele>
        <time>2020-10-03T16:35:48.000Z</time>
      </trkpt>
      <trkpt lat="43.65582" lon="0.64616">
        <ele>161</ele>
        <time>2020-10-03T16:35:49.000Z</time>
      </trkpt>
      <trkpt lat="43.65583" lon="0.64613">
        <ele>161</ele>
        <time>2020-10-03T16:35:50.000Z</time>
      </trkpt>
      <trkpt lat="43.65587" lon="0.64599">
        <ele>160</ele>
        <time>2020-10-03T16:35:54.000Z</time>
      </trkpt>
      <trkpt lat="43.65594" lon="0.64586">
        <ele>159</ele>
        <time>2020-10-03T16:35:58.000Z</time>
      </trkpt>
      <trkpt lat="43.65602" lon="0.64579">
        <ele>159</ele>
        <time>2020-10-03T16:36:01.000Z</time>
      </trkpt>
      <trkpt lat="43.65606" lon="0.64579">
        <ele>159</ele>
        <time>2020-10-03T16:36:02.000Z</time>
      </trkpt>
      <trkpt lat="43.65609" lon="0.6458">
        <ele>159</ele>
        <time>2020-10-03T16:36:03.000Z</time>
      </trkpt>
      <trkpt lat="43.65612" lon="0.64582">
        <ele>159</ele>
        <time>2020-10-03T16:36:04.000Z</time>
      </trkpt>
      <trkpt lat="43.65615" lon="0.64585">
        <ele>158</ele>
        <time>2020-10-03T16:36:05.000Z</time>
      </trkpt>
      <trkpt lat="43.65617" lon="0.64588">
        <ele>158</ele>
        <time>2020-10-03T16:36:06.000Z</time>
      </trkpt>
      <trkpt lat="43.6562" lon="0.64591">
        <ele>158</ele>
        <time>2020-10-03T16:36:07.000Z</time>
      </trkpt>
      <trkpt lat="43.65621" lon="0.64595">
        <ele>157.70651826087</ele>
        <time>2020-10-03T16:36:08.000Z</time>
      </trkpt>
      <trkpt lat="43.65622" lon="0.64599">
        <ele>157</ele>
        <time>2020-10-03T16:36:09.000Z</time>
      </trkpt>
      <trkpt lat="43.65624" lon="0.64612">
        <ele>157</ele>
        <time>2020-10-03T16:36:12.000Z</time>
      </trkpt>
      <trkpt lat="43.65625" lon="0.64625">
        <ele>157</ele>
        <time>2020-10-03T16:36:15.000Z</time>
      </trkpt>
      <trkpt lat="43.65629" lon="0.64639">
        <ele>157</ele>
        <time>2020-10-03T16:36:19.000Z</time>
      </trkpt>
      <trkpt lat="43.65633" lon="0.6465">
        <ele>156</ele>
        <time>2020-10-03T16:36:22.000Z</time>
      </trkpt>
      <trkpt lat="43.65636" lon="0.64664">
        <ele>155</ele>
        <time>2020-10-03T16:36:25.000Z</time>
      </trkpt>
      <trkpt lat="43.65641" lon="0.64675">
        <ele>155</ele>
        <time>2020-10-03T16:36:28.000Z</time>
      </trkpt>
      <trkpt lat="43.65644" lon="0.6469">
        <ele>151</ele>
        <time>2020-10-03T16:36:32.000Z</time>
      </trkpt>
      <trkpt lat="43.65649" lon="0.64705">
        <ele>150</ele>
        <time>2020-10-03T16:36:36.000Z</time>
      </trkpt>
      <trkpt lat="43.65651" lon="0.64721">
        <ele>149</ele>
        <time>2020-10-03T16:36:40.000Z</time>
      </trkpt>
      <trkpt lat="43.65653" lon="0.64734">
        <ele>149</ele>
        <time>2020-10-03T16:36:43.000Z</time>
      </trkpt>
      <trkpt lat="43.65656" lon="0.64746">
        <ele>149</ele>
        <time>2020-10-03T16:36:47.000Z</time>
      </trkpt>
      <trkpt lat="43.65657" lon="0.64761">
        <ele>148</ele>
        <time>2020-10-03T16:36:51.000Z</time>
      </trkpt>
      <trkpt lat="43.65654" lon="0.64775">
        <ele>147</ele>
        <time>2020-10-03T16:36:54.000Z</time>
      </trkpt>
      <trkpt lat="43.65656" lon="0.64787">
        <ele>147</ele>
        <time>2020-10-03T16:36:57.000Z</time>
      </trkpt>
      <trkpt lat="43.65662" lon="0.64801">
        <ele>146</ele>
        <time>2020-10-03T16:37:01.000Z</time>
      </trkpt>
      <trkpt lat="43.65673" lon="0.64803">
        <ele>145</ele>
        <time>2020-10-03T16:37:06.000Z</time>
      </trkpt>
      <trkpt lat="43.65683" lon="0.64803">
        <ele>144.5913951856</ele>
        <time>2020-10-03T16:37:10.000Z</time>
      </trkpt>
      <trkpt lat="43.65692" lon="0.64804">
        <ele>144</ele>
        <time>2020-10-03T16:37:14.000Z</time>
      </trkpt>
      <trkpt lat="43.65699" lon="0.64795">
        <ele>143</ele>
        <time>2020-10-03T16:37:18.000Z</time>
      </trkpt>
      <trkpt lat="43.657" lon="0.64781">
        <ele>142</ele>
        <time>2020-10-03T16:37:22.000Z</time>
      </trkpt>
      <trkpt lat="43.65698" lon="0.64766">
        <ele>141</ele>
        <time>2020-10-03T16:37:26.000Z</time>
      </trkpt>
      <trkpt lat="43.65702" lon="0.64752">
        <ele>140</ele>
        <time>2020-10-03T16:37:30.000Z</time>
      </trkpt>
      <trkpt lat="43.65704" lon="0.6475">
        <ele>140</ele>
        <time>2020-10-03T16:37:31.000Z</time>
      </trkpt>
      <trkpt lat="43.65706" lon="0.64748">
        <ele>140</ele>
        <time>2020-10-03T16:37:32.000Z</time>
      </trkpt>
      <trkpt lat="43.65708" lon="0.64746">
        <ele>140</ele>
        <time>2020-10-03T16:37:33.000Z</time>
      </trkpt>
      <trkpt lat="43.6571" lon="0.64744">
        <ele>140</ele>
        <time>2020-10-03T16:37:34.000Z</time>
      </trkpt>
      <trkpt lat="43.65713" lon="0.64743">
        <ele>140</ele>
        <time>2020-10-03T16:37:35.000Z</time>
      </trkpt>
      <trkpt lat="43.65715" lon="0.64742">
        <ele>140</ele>
        <time>2020-10-03T16:37:36.000Z</time>
      </trkpt>
      <trkpt lat="43.65717" lon="0.6474">
        <ele>140</ele>
        <time>2020-10-03T16:37:37.000Z</time>
      </trkpt>
      <trkpt lat="43.65719" lon="0.64739">
        <ele>140</ele>
        <time>2020-10-03T16:37:38.000Z</time>
      </trkpt>
      <trkpt lat="43.65722" lon="0.64739">
        <ele>140</ele>
        <time>2020-10-03T16:37:39.000Z</time>
      </trkpt>
      <trkpt lat="43.65724" lon="0.6474">
        <ele>140</ele>
        <time>2020-10-03T16:37:40.000Z</time>
      </trkpt>
      <trkpt lat="43.65727" lon="0.64741">
        <ele>140</ele>
        <time>2020-10-03T16:37:41.000Z</time>
      </trkpt>
      <trkpt lat="43.6573" lon="0.6474">
        <ele>140</ele>
        <time>2020-10-03T16:37:42.000Z</time>
      </trkpt>
      <trkpt lat="43.65733" lon="0.64738">
        <ele>139.65591279454</ele>
        <time>2020-10-03T16:37:43.000Z</time>
      </trkpt>
      <trkpt lat="43.65735" lon="0.64736">
        <ele>139</ele>
        <time>2020-10-03T16:37:44.000Z</time>
      </trkpt>
      <trkpt lat="43.65738" lon="0.64734">
        <ele>139</ele>
        <time>2020-10-03T16:37:45.000Z</time>
      </trkpt>
      <trkpt lat="43.6574" lon="0.64732">
        <ele>138.69317818182</ele>
        <time>2020-10-03T16:37:46.000Z</time>
      </trkpt>
      <trkpt lat="43.65743" lon="0.6473">
        <ele>138</ele>
        <time>2020-10-03T16:37:47.000Z</time>
      </trkpt>
      <trkpt lat="43.65745" lon="0.64729">
        <ele>138</ele>
        <time>2020-10-03T16:37:48.000Z</time>
      </trkpt>
      <trkpt lat="43.65754" lon="0.64723">
        <ele>137.5500032</ele>
        <time>2020-10-03T16:37:51.000Z</time>
      </trkpt>
      <trkpt lat="43.65756" lon="0.64722">
        <ele>137</ele>
        <time>2020-10-03T16:37:52.000Z</time>
      </trkpt>
      <trkpt lat="43.65759" lon="0.6472">
        <ele>137</ele>
        <time>2020-10-03T16:37:53.000Z</time>
      </trkpt>
      <trkpt lat="43.65764" lon="0.64718">
        <ele>137</ele>
        <time>2020-10-03T16:37:55.000Z</time>
      </trkpt>
      <trkpt lat="43.65767" lon="0.64717">
        <ele>137</ele>
        <time>2020-10-03T16:37:56.000Z</time>
      </trkpt>
      <trkpt lat="43.6577" lon="0.64716">
        <ele>137</ele>
        <time>2020-10-03T16:37:57.000Z</time>
      </trkpt>
      <trkpt lat="43.65773" lon="0.64715">
        <ele>137</ele>
        <time>2020-10-03T16:37:58.000Z</time>
      </trkpt>
      <trkpt lat="43.65776" lon="0.64715">
        <ele>137</ele>
        <time>2020-10-03T16:37:59.000Z</time>
      </trkpt>
      <trkpt lat="43.65779" lon="0.64714">
        <ele>137</ele>
        <time>2020-10-03T16:38:00.000Z</time>
      </trkpt>
      <trkpt lat="43.65782" lon="0.64714">
        <ele>137</ele>
        <time>2020-10-03T16:38:01.000Z</time>
      </trkpt>
      <trkpt lat="43.65785" lon="0.64713">
        <ele>137</ele>
        <time>2020-10-03T16:38:02.000Z</time>
      </trkpt>
      <trkpt lat="43.65788" lon="0.64712">
        <ele>136.59340582055</ele>
        <time>2020-10-03T16:38:03.000Z</time>
      </trkpt>
      <trkpt lat="43.65791" lon="0.64711">
        <ele>136</ele>
        <time>2020-10-03T16:38:04.000Z</time>
      </trkpt>
      <trkpt lat="43.65794" lon="0.6471">
        <ele>136</ele>
        <time>2020-10-03T16:38:05.000Z</time>
      </trkpt>
      <trkpt lat="43.65797" lon="0.6471">
        <ele>136</ele>
        <time>2020-10-03T16:38:06.000Z</time>
      </trkpt>
      <trkpt lat="43.658" lon="0.64708">
        <ele>136.33913227372</ele>
        <time>2020-10-03T16:38:07.000Z</time>
      </trkpt>
      <trkpt lat="43.65802" lon="0.64707">
        <ele>137</ele>
        <time>2020-10-03T16:38:08.000Z</time>
      </trkpt>
      <trkpt lat="43.65805" lon="0.64706">
        <ele>137</ele>
        <time>2020-10-03T16:38:09.000Z</time>
      </trkpt>
      <trkpt lat="43.65808" lon="0.64705">
        <ele>137</ele>
        <time>2020-10-03T16:38:10.000Z</time>
      </trkpt>
      <trkpt lat="43.65811" lon="0.64703">
        <ele>137</ele>
        <time>2020-10-03T16:38:11.000Z</time>
      </trkpt>
      <trkpt lat="43.65813" lon="0.64702">
        <ele>137</ele>
        <time>2020-10-03T16:38:12.000Z</time>
      </trkpt>
      <trkpt lat="43.65815" lon="0.647">
        <ele>137</ele>
        <time>2020-10-03T16:38:13.000Z</time>
      </trkpt>
      <trkpt lat="43.65817" lon="0.64698">
        <ele>136.70344803234</ele>
        <time>2020-10-03T16:38:14.000Z</time>
      </trkpt>
      <trkpt lat="43.6582" lon="0.64696">
        <ele>136.01379742589</ele>
        <time>2020-10-03T16:38:15.000Z</time>
      </trkpt>
      <trkpt lat="43.65822" lon="0.64693">
        <ele>136</ele>
        <time>2020-10-03T16:38:16.000Z</time>
      </trkpt>
      <trkpt lat="43.65824" lon="0.64691">
        <ele>136</ele>
        <time>2020-10-03T16:38:17.000Z</time>
      </trkpt>
      <trkpt lat="43.65825" lon="0.64688">
        <ele>136</ele>
        <time>2020-10-03T16:38:18.000Z</time>
      </trkpt>
      <trkpt lat="43.65827" lon="0.64685">
        <ele>136</ele>
        <time>2020-10-03T16:38:19.000Z</time>
      </trkpt>
      <trkpt lat="43.65829" lon="0.64682">
        <ele>136</ele>
        <time>2020-10-03T16:38:20.000Z</time>
      </trkpt>
      <trkpt lat="43.6583" lon="0.64679">
        <ele>136</ele>
        <time>2020-10-03T16:38:21.000Z</time>
      </trkpt>
      <trkpt lat="43.65832" lon="0.64676">
        <ele>136</ele>
        <time>2020-10-03T16:38:22.000Z</time>
      </trkpt>
      <trkpt lat="43.65833" lon="0.64673">
        <ele>136</ele>
        <time>2020-10-03T16:38:23.000Z</time>
      </trkpt>
      <trkpt lat="43.65834" lon="0.64669">
        <ele>136</ele>
        <time>2020-10-03T16:38:24.000Z</time>
      </trkpt>
      <trkpt lat="43.65834" lon="0.64666">
        <ele>136</ele>
        <time>2020-10-03T16:38:25.000Z</time>
      </trkpt>
      <trkpt lat="43.65835" lon="0.64663">
        <ele>136</ele>
        <time>2020-10-03T16:38:26.000Z</time>
      </trkpt>
      <trkpt lat="43.65836" lon="0.64659">
        <ele>136</ele>
        <time>2020-10-03T16:38:27.000Z</time>
      </trkpt>
      <trkpt lat="43.65836" lon="0.64656">
        <ele>136</ele>
        <time>2020-10-03T16:38:28.000Z</time>
      </trkpt>
      <trkpt lat="43.65836" lon="0.64652">
        <ele>136</ele>
        <time>2020-10-03T16:38:29.000Z</time>
      </trkpt>
      <trkpt lat="43.65835" lon="0.64648">
        <ele>136</ele>
        <time>2020-10-03T16:38:30.000Z</time>
      </trkpt>
      <trkpt lat="43.65835" lon="0.64645">
        <ele>136</ele>
        <time>2020-10-03T16:38:31.000Z</time>
      </trkpt>
      <trkpt lat="43.65835" lon="0.64641">
        <ele>136</ele>
        <time>2020-10-03T16:38:32.000Z</time>
      </trkpt>
      <trkpt lat="43.65834" lon="0.64638">
        <ele>136</ele>
        <time>2020-10-03T16:38:33.000Z</time>
      </trkpt>
      <trkpt lat="43.65833" lon="0.64635">
        <ele>136</ele>
        <time>2020-10-03T16:38:34.000Z</time>
      </trkpt>
      <trkpt lat="43.65833" lon="0.64632">
        <ele>136</ele>
        <time>2020-10-03T16:38:35.000Z</time>
      </trkpt>
      <trkpt lat="43.65832" lon="0.64629">
        <ele>136</ele>
        <time>2020-10-03T16:38:36.000Z</time>
      </trkpt>
      <trkpt lat="43.65831" lon="0.64625">
        <ele>136</ele>
        <time>2020-10-03T16:38:37.000Z</time>
      </trkpt>
      <trkpt lat="43.65829" lon="0.64622">
        <ele>136</ele>
        <time>2020-10-03T16:38:38.000Z</time>
      </trkpt>
      <trkpt lat="43.65828" lon="0.64618">
        <ele>136.45054434973</ele>
        <time>2020-10-03T16:38:39.000Z</time>
      </trkpt>
      <trkpt lat="43.65826" lon="0.64615">
        <ele>137</ele>
        <time>2020-10-03T16:38:40.000Z</time>
      </trkpt>
      <trkpt lat="43.65825" lon="0.64611">
        <ele>137</ele>
        <time>2020-10-03T16:38:41.000Z</time>
      </trkpt>
      <trkpt lat="43.65824" lon="0.64608">
        <ele>137</ele>
        <time>2020-10-03T16:38:42.000Z</time>
      </trkpt>
      <trkpt lat="43.65823" lon="0.64605">
        <ele>137</ele>
        <time>2020-10-03T16:38:43.000Z</time>
      </trkpt>
      <trkpt lat="43.65822" lon="0.64602">
        <ele>137</ele>
        <time>2020-10-03T16:38:44.000Z</time>
      </trkpt>
      <trkpt lat="43.6582" lon="0.64598">
        <ele>137</ele>
        <time>2020-10-03T16:38:45.000Z</time>
      </trkpt>
      <trkpt lat="43.65819" lon="0.64595">
        <ele>137</ele>
        <time>2020-10-03T16:38:46.000Z</time>
      </trkpt>
      <trkpt lat="43.65818" lon="0.64592">
        <ele>137</ele>
        <time>2020-10-03T16:38:47.000Z</time>
      </trkpt>
      <trkpt lat="43.65817" lon="0.64589">
        <ele>137</ele>
        <time>2020-10-03T16:38:48.000Z</time>
      </trkpt>
      <trkpt lat="43.65816" lon="0.64586">
        <ele>137</ele>
        <time>2020-10-03T16:38:49.000Z</time>
      </trkpt>
      <trkpt lat="43.65815" lon="0.64582">
        <ele>137</ele>
        <time>2020-10-03T16:38:50.000Z</time>
      </trkpt>
      <trkpt lat="43.65814" lon="0.6458">
        <ele>137</ele>
        <time>2020-10-03T16:38:51.000Z</time>
      </trkpt>
      <trkpt lat="43.65813" lon="0.64576">
        <ele>137</ele>
        <time>2020-10-03T16:38:52.000Z</time>
      </trkpt>
      <trkpt lat="43.65811" lon="0.64573">
        <ele>137</ele>
        <time>2020-10-03T16:38:53.000Z</time>
      </trkpt>
      <trkpt lat="43.6581" lon="0.64569">
        <ele>137</ele>
        <time>2020-10-03T16:38:54.000Z</time>
      </trkpt>
      <trkpt lat="43.65809" lon="0.64566">
        <ele>137</ele>
        <time>2020-10-03T16:38:55.000Z</time>
      </trkpt>
      <trkpt lat="43.65808" lon="0.64563">
        <ele>137</ele>
        <time>2020-10-03T16:38:56.000Z</time>
      </trkpt>
      <trkpt lat="43.65806" lon="0.6456">
        <ele>137</ele>
        <time>2020-10-03T16:38:57.000Z</time>
      </trkpt>
      <trkpt lat="43.65805" lon="0.64557">
        <ele>137</ele>
        <time>2020-10-03T16:38:58.000Z</time>
      </trkpt>
      <trkpt lat="43.65803" lon="0.64553">
        <ele>137</ele>
        <time>2020-10-03T16:38:59.000Z</time>
      </trkpt>
      <trkpt lat="43.65802" lon="0.6455">
        <ele>137</ele>
        <time>2020-10-03T16:39:00.000Z</time>
      </trkpt>
      <trkpt lat="43.65801" lon="0.64547">
        <ele>137</ele>
        <time>2020-10-03T16:39:01.000Z</time>
      </trkpt>
      <trkpt lat="43.658" lon="0.64544">
        <ele>137</ele>
        <time>2020-10-03T16:39:02.000Z</time>
      </trkpt>
      <trkpt lat="43.65799" lon="0.6454">
        <ele>137</ele>
        <time>2020-10-03T16:39:03.000Z</time>
      </trkpt>
      <trkpt lat="43.65798" lon="0.64537">
        <ele>137</ele>
        <time>2020-10-03T16:39:04.000Z</time>
      </trkpt>
      <trkpt lat="43.65797" lon="0.64534">
        <ele>137</ele>
        <time>2020-10-03T16:39:05.000Z</time>
      </trkpt>
      <trkpt lat="43.65796" lon="0.6453">
        <ele>137</ele>
        <time>2020-10-03T16:39:06.000Z</time>
      </trkpt>
      <trkpt lat="43.65795" lon="0.64527">
        <ele>137</ele>
        <time>2020-10-03T16:39:07.000Z</time>
      </trkpt>
      <trkpt lat="43.65794" lon="0.64523">
        <ele>137</ele>
        <time>2020-10-03T16:39:08.000Z</time>
      </trkpt>
      <trkpt lat="43.65793" lon="0.6452">
        <ele>137</ele>
        <time>2020-10-03T16:39:09.000Z</time>
      </trkpt>
      <trkpt lat="43.65792" lon="0.64516">
        <ele>137</ele>
        <time>2020-10-03T16:39:10.000Z</time>
      </trkpt>
      <trkpt lat="43.65792" lon="0.64513">
        <ele>137</ele>
        <time>2020-10-03T16:39:12.000Z</time>
      </trkpt>
      <trkpt lat="43.65792" lon="0.64511">
        <ele>139</ele>
        <time>2020-10-03T16:39:21.000Z</time>
      </trkpt>
      <trkpt lat="43.65791" lon="0.64508">
        <ele>139</ele>
        <time>2020-10-03T16:39:24.000Z</time>
      </trkpt>
      <trkpt lat="43.6579" lon="0.64505">
        <ele>140</ele>
        <time>2020-10-03T16:39:46.000Z</time>
      </trkpt>
      <trkpt lat="43.65789" lon="0.64502">
        <ele>138</ele>
        <time>2020-10-03T16:39:48.000Z</time>
      </trkpt>
      <trkpt lat="43.65788" lon="0.64498">
        <ele>137.11579401223</ele>
        <time>2020-10-03T16:39:50.000Z</time>
      </trkpt>
      <trkpt lat="43.65787" lon="0.64495">
        <ele>136</ele>
        <time>2020-10-03T16:39:52.000Z</time>
      </trkpt>
      <trkpt lat="43.65786" lon="0.64492">
        <ele>136.38655896051</ele>
        <time>2020-10-03T16:39:54.000Z</time>
      </trkpt>
      <trkpt lat="43.65786" lon="0.64488">
        <ele>137</ele>
        <time>2020-10-03T16:39:56.000Z</time>
      </trkpt>
      <trkpt lat="43.65785" lon="0.64484">
        <ele>137</ele>
        <time>2020-10-03T16:39:58.000Z</time>
      </trkpt>
      <trkpt lat="43.65784" lon="0.64481">
        <ele>137</ele>
        <time>2020-10-03T16:40:00.000Z</time>
      </trkpt>
      <trkpt lat="43.65783" lon="0.64478">
        <ele>138</ele>
        <time>2020-10-03T16:40:04.000Z</time>
      </trkpt>
      <trkpt lat="43.65783" lon="0.64476">
        <ele>138</ele>
        <time>2020-10-03T16:40:06.000Z</time>
      </trkpt>
      <trkpt lat="43.65782" lon="0.64472">
        <ele>138</ele>
        <time>2020-10-03T16:40:08.000Z</time>
      </trkpt>
      <trkpt lat="43.65781" lon="0.64469">
        <ele>138</ele>
        <time>2020-10-03T16:40:10.000Z</time>
      </trkpt>
      <trkpt lat="43.6578" lon="0.64465">
        <ele>137.68000136533</ele>
        <time>2020-10-03T16:40:12.000Z</time>
      </trkpt>
      <trkpt lat="43.6578" lon="0.64461">
        <ele>137</ele>
        <time>2020-10-03T16:40:14.000Z</time>
      </trkpt>
      <trkpt lat="43.65779" lon="0.64458">
        <ele>137.39784739044</ele>
        <time>2020-10-03T16:40:16.000Z</time>
      </trkpt>
      <trkpt lat="43.65778" lon="0.64454">
        <ele>138</ele>
        <time>2020-10-03T16:40:18.000Z</time>
      </trkpt>
      <trkpt lat="43.65778" lon="0.64457">
        <ele>139</ele>
        <time>2020-10-03T16:40:24.000Z</time>
      </trkpt>
      <trkpt lat="43.65779" lon="0.64459">
        <ele>139</ele>
        <time>2020-10-03T16:40:26.000Z</time>
      </trkpt>
      <trkpt lat="43.65781" lon="0.64463">
        <ele>139</ele>
        <time>2020-10-03T16:40:28.000Z</time>
      </trkpt>
      <trkpt lat="43.65782" lon="0.64468">
        <ele>139</ele>
        <time>2020-10-03T16:40:30.000Z</time>
      </trkpt>
      <trkpt lat="43.65782" lon="0.6447">
        <ele>139</ele>
        <time>2020-10-03T16:40:31.000Z</time>
      </trkpt>
      <trkpt lat="43.65784" lon="0.64474">
        <ele>138.70408296544</ele>
        <time>2020-10-03T16:40:33.000Z</time>
      </trkpt>
      <trkpt lat="43.65785" lon="0.64478">
        <ele>138</ele>
        <time>2020-10-03T16:40:35.000Z</time>
      </trkpt>
      <trkpt lat="43.65786" lon="0.64482">
        <ele>138</ele>
        <time>2020-10-03T16:40:37.000Z</time>
      </trkpt>
      <trkpt lat="43.65787" lon="0.64487">
        <ele>138</ele>
        <time>2020-10-03T16:40:39.000Z</time>
      </trkpt>
      <trkpt lat="43.65788" lon="0.64491">
        <ele>138</ele>
        <time>2020-10-03T16:40:41.000Z</time>
      </trkpt>
      <trkpt lat="43.65789" lon="0.64493">
        <ele>138.34951347724</ele>
        <time>2020-10-03T16:40:42.000Z</time>
      </trkpt>
      <trkpt lat="43.6579" lon="0.64497">
        <ele>139</ele>
        <time>2020-10-03T16:40:43.000Z</time>
      </trkpt>
      <trkpt lat="43.65791" lon="0.64501">
        <ele>139</ele>
        <time>2020-10-03T16:40:44.000Z</time>
      </trkpt>
      <trkpt lat="43.65792" lon="0.64505">
        <ele>139</ele>
        <time>2020-10-03T16:40:45.000Z</time>
      </trkpt>
      <trkpt lat="43.65793" lon="0.64509">
        <ele>139</ele>
        <time>2020-10-03T16:40:46.000Z</time>
      </trkpt>
      <trkpt lat="43.65794" lon="0.64513">
        <ele>139</ele>
        <time>2020-10-03T16:40:47.000Z</time>
      </trkpt>
      <trkpt lat="43.65795" lon="0.64517">
        <ele>139</ele>
        <time>2020-10-03T16:40:48.000Z</time>
      </trkpt>
      <trkpt lat="43.65797" lon="0.64521">
        <ele>139</ele>
        <time>2020-10-03T16:40:49.000Z</time>
      </trkpt>
      <trkpt lat="43.65798" lon="0.64525">
        <ele>139</ele>
        <time>2020-10-03T16:40:50.000Z</time>
      </trkpt>
      <trkpt lat="43.65799" lon="0.64529">
        <ele>139</ele>
        <time>2020-10-03T16:40:51.000Z</time>
      </trkpt>
      <trkpt lat="43.658" lon="0.64533">
        <ele>138.67010200446</ele>
        <time>2020-10-03T16:40:52.000Z</time>
      </trkpt>
      <trkpt lat="43.65801" lon="0.64536">
        <ele>138</ele>
        <time>2020-10-03T16:40:53.000Z</time>
      </trkpt>
      <trkpt lat="43.65803" lon="0.64539">
        <ele>138</ele>
        <time>2020-10-03T16:40:54.000Z</time>
      </trkpt>
      <trkpt lat="43.65804" lon="0.64541">
        <ele>138</ele>
        <time>2020-10-03T16:40:55.000Z</time>
      </trkpt>
      <trkpt lat="43.65806" lon="0.64543">
        <ele>138</ele>
        <time>2020-10-03T16:40:56.000Z</time>
      </trkpt>
      <trkpt lat="43.65807" lon="0.64545">
        <ele>138</ele>
        <time>2020-10-03T16:40:57.000Z</time>
      </trkpt>
      <trkpt lat="43.65808" lon="0.64548">
        <ele>138</ele>
        <time>2020-10-03T16:40:58.000Z</time>
      </trkpt>
      <trkpt lat="43.65809" lon="0.64551">
        <ele>138</ele>
        <time>2020-10-03T16:40:59.000Z</time>
      </trkpt>
      <trkpt lat="43.6581" lon="0.64555">
        <ele>138</ele>
        <time>2020-10-03T16:41:00.000Z</time>
      </trkpt>
      <trkpt lat="43.65811" lon="0.64558">
        <ele>138</ele>
        <time>2020-10-03T16:41:01.000Z</time>
      </trkpt>
      <trkpt lat="43.65812" lon="0.64562">
        <ele>138</ele>
        <time>2020-10-03T16:41:02.000Z</time>
      </trkpt>
      <trkpt lat="43.65813" lon="0.64566">
        <ele>138</ele>
        <time>2020-10-03T16:41:03.000Z</time>
      </trkpt>
      <trkpt lat="43.65814" lon="0.6457">
        <ele>138</ele>
        <time>2020-10-03T16:41:04.000Z</time>
      </trkpt>
      <trkpt lat="43.65815" lon="0.64573">
        <ele>138</ele>
        <time>2020-10-03T16:41:05.000Z</time>
      </trkpt>
      <trkpt lat="43.65816" lon="0.64577">
        <ele>138</ele>
        <time>2020-10-03T16:41:06.000Z</time>
      </trkpt>
      <trkpt lat="43.65818" lon="0.6458">
        <ele>138</ele>
        <time>2020-10-03T16:41:07.000Z</time>
      </trkpt>
      <trkpt lat="43.65819" lon="0.64584">
        <ele>138</ele>
        <time>2020-10-03T16:41:08.000Z</time>
      </trkpt>
      <trkpt lat="43.6582" lon="0.64588">
        <ele>138.25714285714</ele>
        <time>2020-10-03T16:41:09.000Z</time>
      </trkpt>
      <trkpt lat="43.65821" lon="0.64592">
        <ele>138.97142857143</ele>
        <time>2020-10-03T16:41:10.000Z</time>
      </trkpt>
      <trkpt lat="43.65821" lon="0.64596">
        <ele>139</ele>
        <time>2020-10-03T16:41:11.000Z</time>
      </trkpt>
      <trkpt lat="43.65823" lon="0.64599">
        <ele>139</ele>
        <time>2020-10-03T16:41:12.000Z</time>
      </trkpt>
      <trkpt lat="43.65824" lon="0.64603">
        <ele>139</ele>
        <time>2020-10-03T16:41:13.000Z</time>
      </trkpt>
      <trkpt lat="43.65825" lon="0.64606">
        <ele>139</ele>
        <time>2020-10-03T16:41:14.000Z</time>
      </trkpt>
      <trkpt lat="43.65826" lon="0.64609">
        <ele>139</ele>
        <time>2020-10-03T16:41:15.000Z</time>
      </trkpt>
      <trkpt lat="43.65828" lon="0.64612">
        <ele>139</ele>
        <time>2020-10-03T16:41:16.000Z</time>
      </trkpt>
      <trkpt lat="43.65829" lon="0.64615">
        <ele>139</ele>
        <time>2020-10-03T16:41:17.000Z</time>
      </trkpt>
      <trkpt lat="43.65831" lon="0.64618">
        <ele>139</ele>
        <time>2020-10-03T16:41:18.000Z</time>
      </trkpt>
      <trkpt lat="43.65833" lon="0.6462">
        <ele>139</ele>
        <time>2020-10-03T16:41:19.000Z</time>
      </trkpt>
      <trkpt lat="43.65835" lon="0.64623">
        <ele>139</ele>
        <time>2020-10-03T16:41:20.000Z</time>
      </trkpt>
      <trkpt lat="43.65837" lon="0.64626">
        <ele>139</ele>
        <time>2020-10-03T16:41:21.000Z</time>
      </trkpt>
      <trkpt lat="43.65839" lon="0.64629">
        <ele>138.69317818182</ele>
        <time>2020-10-03T16:41:22.000Z</time>
      </trkpt>
      <trkpt lat="43.6584" lon="0.64632">
        <ele>138</ele>
        <time>2020-10-03T16:41:23.000Z</time>
      </trkpt>
      <trkpt lat="43.65841" lon="0.64635">
        <ele>138</ele>
        <time>2020-10-03T16:41:24.000Z</time>
      </trkpt>
      <trkpt lat="43.65842" lon="0.64638">
        <ele>138</ele>
        <time>2020-10-03T16:41:25.000Z</time>
      </trkpt>
      <trkpt lat="43.65843" lon="0.64642">
        <ele>138</ele>
        <time>2020-10-03T16:41:26.000Z</time>
      </trkpt>
      <trkpt lat="43.65844" lon="0.64645">
        <ele>138</ele>
        <time>2020-10-03T16:41:27.000Z</time>
      </trkpt>
      <trkpt lat="43.65845" lon="0.64649">
        <ele>138</ele>
        <time>2020-10-03T16:41:28.000Z</time>
      </trkpt>
      <trkpt lat="43.65845" lon="0.64653">
        <ele>138</ele>
        <time>2020-10-03T16:41:29.000Z</time>
      </trkpt>
      <trkpt lat="43.65846" lon="0.64656">
        <ele>138</ele>
        <time>2020-10-03T16:41:30.000Z</time>
      </trkpt>
      <trkpt lat="43.65846" lon="0.64659">
        <ele>138</ele>
        <time>2020-10-03T16:41:31.000Z</time>
      </trkpt>
      <trkpt lat="43.65846" lon="0.64663">
        <ele>138</ele>
        <time>2020-10-03T16:41:32.000Z</time>
      </trkpt>
      <trkpt lat="43.65846" lon="0.64667">
        <ele>138</ele>
        <time>2020-10-03T16:41:33.000Z</time>
      </trkpt>
      <trkpt lat="43.65845" lon="0.6467">
        <ele>138</ele>
        <time>2020-10-03T16:41:34.000Z</time>
      </trkpt>
      <trkpt lat="43.65845" lon="0.64674">
        <ele>138</ele>
        <time>2020-10-03T16:41:35.000Z</time>
      </trkpt>
      <trkpt lat="43.65844" lon="0.64677">
        <ele>138</ele>
        <time>2020-10-03T16:41:36.000Z</time>
      </trkpt>
      <trkpt lat="43.65844" lon="0.64681">
        <ele>138</ele>
        <time>2020-10-03T16:41:37.000Z</time>
      </trkpt>
      <trkpt lat="43.65845" lon="0.64685">
        <ele>138</ele>
        <time>2020-10-03T16:41:38.000Z</time>
      </trkpt>
      <trkpt lat="43.65845" lon="0.64688">
        <ele>138</ele>
        <time>2020-10-03T16:41:39.000Z</time>
      </trkpt>
      <trkpt lat="43.65847" lon="0.6469">
        <ele>138</ele>
        <time>2020-10-03T16:41:40.000Z</time>
      </trkpt>
      <trkpt lat="43.65848" lon="0.64692">
        <ele>138</ele>
        <time>2020-10-03T16:41:41.000Z</time>
      </trkpt>
      <trkpt lat="43.6585" lon="0.64694">
        <ele>138</ele>
        <time>2020-10-03T16:41:42.000Z</time>
      </trkpt>
      <trkpt lat="43.6585" lon="0.64691">
        <ele>138</ele>
        <time>2020-10-03T16:41:49.000Z</time>
      </trkpt>
      <trkpt lat="43.65849" lon="0.64693">
        <ele>138</ele>
        <time>2020-10-03T16:42:01.000Z</time>
      </trkpt>
      <trkpt lat="43.65849" lon="0.64696">
        <ele>138</ele>
        <time>2020-10-03T16:42:05.000Z</time>
      </trkpt>
      <trkpt lat="43.6585" lon="0.64699">
        <ele>138</ele>
        <time>2020-10-03T16:42:07.000Z</time>
      </trkpt>
      <trkpt lat="43.65848" lon="0.64695">
        <ele>139</ele>
        <time>2020-10-03T16:42:11.000Z</time>
      </trkpt>
      <trkpt lat="43.65846" lon="0.64692">
        <ele>139</ele>
        <time>2020-10-03T16:42:13.000Z</time>
      </trkpt>
      <trkpt lat="43.65844" lon="0.64691">
        <ele>138</ele>
        <time>2020-10-03T16:42:21.000Z</time>
      </trkpt>
      <trkpt lat="43.65843" lon="0.64688">
        <ele>139</ele>
        <time>2020-10-03T16:42:25.000Z</time>
      </trkpt>
      <trkpt lat="43.65842" lon="0.64684">
        <ele>139</ele>
        <time>2020-10-03T16:42:27.000Z</time>
      </trkpt>
      <trkpt lat="43.65842" lon="0.6468">
        <ele>139</ele>
        <time>2020-10-03T16:42:28.000Z</time>
      </trkpt>
      <trkpt lat="43.65841" lon="0.64676">
        <ele>139</ele>
        <time>2020-10-03T16:42:29.000Z</time>
      </trkpt>
      <trkpt lat="43.65841" lon="0.64672">
        <ele>139</ele>
        <time>2020-10-03T16:42:30.000Z</time>
      </trkpt>
      <trkpt lat="43.65841" lon="0.64668">
        <ele>139</ele>
        <time>2020-10-03T16:42:31.000Z</time>
      </trkpt>
      <trkpt lat="43.65841" lon="0.64665">
        <ele>139</ele>
        <time>2020-10-03T16:42:32.000Z</time>
      </trkpt>
      <trkpt lat="43.6584" lon="0.64661">
        <ele>138.50505533719</ele>
        <time>2020-10-03T16:42:33.000Z</time>
      </trkpt>
      <trkpt lat="43.6584" lon="0.64657">
        <ele>138</ele>
        <time>2020-10-03T16:42:34.000Z</time>
      </trkpt>
      <trkpt lat="43.6584" lon="0.64653">
        <ele>138</ele>
        <time>2020-10-03T16:42:35.000Z</time>
      </trkpt>
      <trkpt lat="43.65839" lon="0.64649">
        <ele>138</ele>
        <time>2020-10-03T16:42:36.000Z</time>
      </trkpt>
      <trkpt lat="43.65838" lon="0.64645">
        <ele>138</ele>
        <time>2020-10-03T16:42:37.000Z</time>
      </trkpt>
      <trkpt lat="43.65838" lon="0.64642">
        <ele>138</ele>
        <time>2020-10-03T16:42:38.000Z</time>
      </trkpt>
      <trkpt lat="43.65837" lon="0.64638">
        <ele>138</ele>
        <time>2020-10-03T16:42:39.000Z</time>
      </trkpt>
      <trkpt lat="43.65836" lon="0.64634">
        <ele>138</ele>
        <time>2020-10-03T16:42:40.000Z</time>
      </trkpt>
      <trkpt lat="43.65835" lon="0.6463">
        <ele>138</ele>
        <time>2020-10-03T16:42:41.000Z</time>
      </trkpt>
      <trkpt lat="43.65834" lon="0.64627">
        <ele>138</ele>
        <time>2020-10-03T16:42:42.000Z</time>
      </trkpt>
      <trkpt lat="43.65832" lon="0.64624">
        <ele>138</ele>
        <time>2020-10-03T16:42:43.000Z</time>
      </trkpt>
      <trkpt lat="43.65831" lon="0.6462">
        <ele>138</ele>
        <time>2020-10-03T16:42:44.000Z</time>
      </trkpt>
      <trkpt lat="43.6583" lon="0.64617">
        <ele>138</ele>
        <time>2020-10-03T16:42:45.000Z</time>
      </trkpt>
      <trkpt lat="43.65828" lon="0.64613">
        <ele>138</ele>
        <time>2020-10-03T16:42:46.000Z</time>
      </trkpt>
      <trkpt lat="43.65827" lon="0.6461">
        <ele>138</ele>
        <time>2020-10-03T16:42:47.000Z</time>
      </trkpt>
      <trkpt lat="43.65826" lon="0.64606">
        <ele>138</ele>
        <time>2020-10-03T16:42:48.000Z</time>
      </trkpt>
      <trkpt lat="43.65825" lon="0.64602">
        <ele>138</ele>
        <time>2020-10-03T16:42:49.000Z</time>
      </trkpt>
      <trkpt lat="43.65824" lon="0.64599">
        <ele>137.61052574847</ele>
        <time>2020-10-03T16:42:50.000Z</time>
      </trkpt>
      <trkpt lat="43.65822" lon="0.64595">
        <ele>137</ele>
        <time>2020-10-03T16:42:51.000Z</time>
      </trkpt>
      <trkpt lat="43.65821" lon="0.64592">
        <ele>137</ele>
        <time>2020-10-03T16:42:52.000Z</time>
      </trkpt>
      <trkpt lat="43.6582" lon="0.64588">
        <ele>137</ele>
        <time>2020-10-03T16:42:53.000Z</time>
      </trkpt>
      <trkpt lat="43.65819" lon="0.64585">
        <ele>137</ele>
        <time>2020-10-03T16:42:54.000Z</time>
      </trkpt>
      <trkpt lat="43.65817" lon="0.64582">
        <ele>137</ele>
        <time>2020-10-03T16:42:55.000Z</time>
      </trkpt>
      <trkpt lat="43.65816" lon="0.64579">
        <ele>137</ele>
        <time>2020-10-03T16:42:56.000Z</time>
      </trkpt>
      <trkpt lat="43.65815" lon="0.64575">
        <ele>137.3900032</ele>
        <time>2020-10-03T16:42:57.000Z</time>
      </trkpt>
      <trkpt lat="43.65814" lon="0.64571">
        <ele>138</ele>
        <time>2020-10-03T16:42:58.000Z</time>
      </trkpt>
      <trkpt lat="43.65812" lon="0.64568">
        <ele>138</ele>
        <time>2020-10-03T16:42:59.000Z</time>
      </trkpt>
      <trkpt lat="43.65811" lon="0.64564">
        <ele>138</ele>
        <time>2020-10-03T16:43:00.000Z</time>
      </trkpt>
      <trkpt lat="43.6581" lon="0.64561">
        <ele>137.76068310614</ele>
        <time>2020-10-03T16:43:01.000Z</time>
      </trkpt>
      <trkpt lat="43.65809" lon="0.64557">
        <ele>137</ele>
        <time>2020-10-03T16:43:02.000Z</time>
      </trkpt>
      <trkpt lat="43.65808" lon="0.64554">
        <ele>137</ele>
        <time>2020-10-03T16:43:03.000Z</time>
      </trkpt>
      <trkpt lat="43.65807" lon="0.64551">
        <ele>137</ele>
        <time>2020-10-03T16:43:04.000Z</time>
      </trkpt>
      <trkpt lat="43.65806" lon="0.64549">
        <ele>137</ele>
        <time>2020-10-03T16:43:05.000Z</time>
      </trkpt>
      <trkpt lat="43.65805" lon="0.64545">
        <ele>137</ele>
        <time>2020-10-03T16:43:06.000Z</time>
      </trkpt>
      <trkpt lat="43.65803" lon="0.64542">
        <ele>137</ele>
        <time>2020-10-03T16:43:07.000Z</time>
      </trkpt>
      <trkpt lat="43.65802" lon="0.64539">
        <ele>137.43809732787</ele>
        <time>2020-10-03T16:43:08.000Z</time>
      </trkpt>
      <trkpt lat="43.65801" lon="0.64535">
        <ele>138</ele>
        <time>2020-10-03T16:43:09.000Z</time>
      </trkpt>
      <trkpt lat="43.658" lon="0.64532">
        <ele>138</ele>
        <time>2020-10-03T16:43:10.000Z</time>
      </trkpt>
      <trkpt lat="43.65799" lon="0.64528">
        <ele>138</ele>
        <time>2020-10-03T16:43:11.000Z</time>
      </trkpt>
      <trkpt lat="43.65798" lon="0.64525">
        <ele>138</ele>
        <time>2020-10-03T16:43:12.000Z</time>
      </trkpt>
      <trkpt lat="43.65798" lon="0.64522">
        <ele>138</ele>
        <time>2020-10-03T16:43:13.000Z</time>
      </trkpt>
      <trkpt lat="43.65797" lon="0.64519">
        <ele>138</ele>
        <time>2020-10-03T16:43:14.000Z</time>
      </trkpt>
      <trkpt lat="43.65796" lon="0.64516">
        <ele>138</ele>
        <time>2020-10-03T16:43:15.000Z</time>
      </trkpt>
      <trkpt lat="43.65794" lon="0.64512">
        <ele>138</ele>
        <time>2020-10-03T16:43:16.000Z</time>
      </trkpt>
      <trkpt lat="43.65793" lon="0.64509">
        <ele>138</ele>
        <time>2020-10-03T16:43:17.000Z</time>
      </trkpt>
      <trkpt lat="43.65792" lon="0.64506">
        <ele>138</ele>
        <time>2020-10-03T16:43:18.000Z</time>
      </trkpt>
      <trkpt lat="43.65791" lon="0.64503">
        <ele>138</ele>
        <time>2020-10-03T16:43:19.000Z</time>
      </trkpt>
      <trkpt lat="43.6579" lon="0.64499">
        <ele>138</ele>
        <time>2020-10-03T16:43:20.000Z</time>
      </trkpt>
      <trkpt lat="43.65789" lon="0.64496">
        <ele>138.25609565733</ele>
        <time>2020-10-03T16:43:21.000Z</time>
      </trkpt>
      <trkpt lat="43.65788" lon="0.64492">
        <ele>139</ele>
        <time>2020-10-03T16:43:22.000Z</time>
      </trkpt>
      <trkpt lat="43.65787" lon="0.64489">
        <ele>139</ele>
        <time>2020-10-03T16:43:23.000Z</time>
      </trkpt>
      <trkpt lat="43.65786" lon="0.64485">
        <ele>139</ele>
        <time>2020-10-03T16:43:24.000Z</time>
      </trkpt>
      <trkpt lat="43.65785" lon="0.64482">
        <ele>139</ele>
        <time>2020-10-03T16:43:25.000Z</time>
      </trkpt>
      <trkpt lat="43.65784" lon="0.64479">
        <ele>139</ele>
        <time>2020-10-03T16:43:26.000Z</time>
      </trkpt>
      <trkpt lat="43.65784" lon="0.64475">
        <ele>139</ele>
        <time>2020-10-03T16:43:27.000Z</time>
      </trkpt>
      <trkpt lat="43.65782" lon="0.64472">
        <ele>139</ele>
        <time>2020-10-03T16:43:28.000Z</time>
      </trkpt>
      <trkpt lat="43.65781" lon="0.64468">
        <ele>139</ele>
        <time>2020-10-03T16:43:29.000Z</time>
      </trkpt>
      <trkpt lat="43.6578" lon="0.64465">
        <ele>138.61701866906</ele>
        <time>2020-10-03T16:43:30.000Z</time>
      </trkpt>
      <trkpt lat="43.6578" lon="0.64461">
        <ele>138</ele>
        <time>2020-10-03T16:43:31.000Z</time>
      </trkpt>
      <trkpt lat="43.65779" lon="0.64458">
        <ele>138</ele>
        <time>2020-10-03T16:43:32.000Z</time>
      </trkpt>
      <trkpt lat="43.65778" lon="0.64453">
        <ele>138.86725342939</ele>
        <time>2020-10-03T16:43:33.000Z</time>
      </trkpt>
      <trkpt lat="43.65778" lon="0.64449">
        <ele>140</ele>
        <time>2020-10-03T16:43:34.000Z</time>
      </trkpt>
      <trkpt lat="43.65777" lon="0.64445">
        <ele>140</ele>
        <time>2020-10-03T16:43:35.000Z</time>
      </trkpt>
      <trkpt lat="43.65777" lon="0.64441">
        <ele>140</ele>
        <time>2020-10-03T16:43:36.000Z</time>
      </trkpt>
      <trkpt lat="43.65777" lon="0.64437">
        <ele>140</ele>
        <time>2020-10-03T16:43:37.000Z</time>
      </trkpt>
      <trkpt lat="43.65776" lon="0.64434">
        <ele>140</ele>
        <time>2020-10-03T16:43:38.000Z</time>
      </trkpt>
      <trkpt lat="43.65776" lon="0.6443">
        <ele>140</ele>
        <time>2020-10-03T16:43:39.000Z</time>
      </trkpt>
      <trkpt lat="43.65775" lon="0.64427">
        <ele>140</ele>
        <time>2020-10-03T16:43:40.000Z</time>
      </trkpt>
      <trkpt lat="43.65774" lon="0.64423">
        <ele>140</ele>
        <time>2020-10-03T16:43:41.000Z</time>
      </trkpt>
      <trkpt lat="43.65773" lon="0.6442">
        <ele>139.52884923077</ele>
        <time>2020-10-03T16:43:42.000Z</time>
      </trkpt>
      <trkpt lat="43.65772" lon="0.64416">
        <ele>139</ele>
        <time>2020-10-03T16:43:43.000Z</time>
      </trkpt>
      <trkpt lat="43.65771" lon="0.64412">
        <ele>139.48039203383</ele>
        <time>2020-10-03T16:43:44.000Z</time>
      </trkpt>
      <trkpt lat="43.6577" lon="0.64409">
        <ele>140</ele>
        <time>2020-10-03T16:43:45.000Z</time>
      </trkpt>
      <trkpt lat="43.6577" lon="0.64405">
        <ele>140</ele>
        <time>2020-10-03T16:43:46.000Z</time>
      </trkpt>
      <trkpt lat="43.65772" lon="0.64402">
        <ele>140</ele>
        <time>2020-10-03T16:43:47.000Z</time>
      </trkpt>
      <trkpt lat="43.65774" lon="0.64401">
        <ele>139.83654153846</ele>
        <time>2020-10-03T16:43:48.000Z</time>
      </trkpt>
      <trkpt lat="43.65777" lon="0.644">
        <ele>139</ele>
        <time>2020-10-03T16:43:50.000Z</time>
      </trkpt>
      <trkpt lat="43.6578" lon="0.64399">
        <ele>139.2282573913</ele>
        <time>2020-10-03T16:43:52.000Z</time>
      </trkpt>
      <trkpt lat="43.65783" lon="0.64398">
        <ele>140</ele>
        <time>2020-10-03T16:43:54.000Z</time>
      </trkpt>
      <trkpt lat="43.65786" lon="0.64397">
        <ele>140</ele>
        <time>2020-10-03T16:43:56.000Z</time>
      </trkpt>
      <trkpt lat="43.65789" lon="0.64396">
        <ele>140</ele>
        <time>2020-10-03T16:43:58.000Z</time>
      </trkpt>
      <trkpt lat="43.65792" lon="0.64395">
        <ele>140</ele>
        <time>2020-10-03T16:43:59.000Z</time>
      </trkpt>
      <trkpt lat="43.65794" lon="0.64393">
        <ele>140</ele>
        <time>2020-10-03T16:44:01.000Z</time>
      </trkpt>
      <trkpt lat="43.65796" lon="0.6439">
        <ele>140</ele>
        <time>2020-10-03T16:44:03.000Z</time>
      </trkpt>
      <trkpt lat="43.65799" lon="0.64388">
        <ele>140</ele>
        <time>2020-10-03T16:44:05.000Z</time>
      </trkpt>
      <trkpt lat="43.65801" lon="0.64386">
        <ele>141</ele>
        <time>2020-10-03T16:44:07.000Z</time>
      </trkpt>
      <trkpt lat="43.65804" lon="0.64385">
        <ele>141</ele>
        <time>2020-10-03T16:44:09.000Z</time>
      </trkpt>
      <trkpt lat="43.65806" lon="0.64383">
        <ele>141</ele>
        <time>2020-10-03T16:44:11.000Z</time>
      </trkpt>
      <trkpt lat="43.65808" lon="0.64381">
        <ele>142</ele>
        <time>2020-10-03T16:44:13.000Z</time>
      </trkpt>
      <trkpt lat="43.6581" lon="0.64379">
        <ele>142</ele>
        <time>2020-10-03T16:44:15.000Z</time>
      </trkpt>
      <trkpt lat="43.65813" lon="0.64377">
        <ele>142</ele>
        <time>2020-10-03T16:44:17.000Z</time>
      </trkpt>
      <trkpt lat="43.65815" lon="0.64375">
        <ele>142</ele>
        <time>2020-10-03T16:44:19.000Z</time>
      </trkpt>
      <trkpt lat="43.65817" lon="0.64373">
        <ele>143</ele>
        <time>2020-10-03T16:44:21.000Z</time>
      </trkpt>
      <trkpt lat="43.6582" lon="0.64371">
        <ele>143</ele>
        <time>2020-10-03T16:44:23.000Z</time>
      </trkpt>
      <trkpt lat="43.65823" lon="0.64369">
        <ele>144</ele>
        <time>2020-10-03T16:44:25.000Z</time>
      </trkpt>
      <trkpt lat="43.65826" lon="0.64367">
        <ele>144</ele>
        <time>2020-10-03T16:44:27.000Z</time>
      </trkpt>
      <trkpt lat="43.65828" lon="0.64366">
        <ele>144</ele>
        <time>2020-10-03T16:44:29.000Z</time>
      </trkpt>
      <trkpt lat="43.65831" lon="0.64364">
        <ele>145</ele>
        <time>2020-10-03T16:44:31.000Z</time>
      </trkpt>
      <trkpt lat="43.65833" lon="0.64363">
        <ele>145</ele>
        <time>2020-10-03T16:44:33.000Z</time>
      </trkpt>
      <trkpt lat="43.65836" lon="0.6436">
        <ele>145</ele>
        <time>2020-10-03T16:44:35.000Z</time>
      </trkpt>
      <trkpt lat="43.65838" lon="0.64358">
        <ele>146</ele>
        <time>2020-10-03T16:44:37.000Z</time>
      </trkpt>
      <trkpt lat="43.6584" lon="0.64356">
        <ele>146</ele>
        <time>2020-10-03T16:44:39.000Z</time>
      </trkpt>
      <trkpt lat="43.65843" lon="0.64355">
        <ele>146</ele>
        <time>2020-10-03T16:44:41.000Z</time>
      </trkpt>
      <trkpt lat="43.65845" lon="0.64353">
        <ele>146</ele>
        <time>2020-10-03T16:44:43.000Z</time>
      </trkpt>
      <trkpt lat="43.65848" lon="0.64352">
        <ele>146</ele>
        <time>2020-10-03T16:44:45.000Z</time>
      </trkpt>
      <trkpt lat="43.6585" lon="0.6435">
        <ele>146</ele>
        <time>2020-10-03T16:44:47.000Z</time>
      </trkpt>
      <trkpt lat="43.65853" lon="0.64348">
        <ele>146</ele>
        <time>2020-10-03T16:44:49.000Z</time>
      </trkpt>
      <trkpt lat="43.65855" lon="0.64346">
        <ele>146.792460121</ele>
        <time>2020-10-03T16:44:51.000Z</time>
      </trkpt>
      <trkpt lat="43.65858" lon="0.64345">
        <ele>148</ele>
        <time>2020-10-03T16:44:53.000Z</time>
      </trkpt>
      <trkpt lat="43.65861" lon="0.64343">
        <ele>148</ele>
        <time>2020-10-03T16:44:55.000Z</time>
      </trkpt>
      <trkpt lat="43.65864" lon="0.64341">
        <ele>148</ele>
        <time>2020-10-03T16:44:57.000Z</time>
      </trkpt>
      <trkpt lat="43.65867" lon="0.6434">
        <ele>149</ele>
        <time>2020-10-03T16:44:59.000Z</time>
      </trkpt>
      <trkpt lat="43.65869" lon="0.64339">
        <ele>149</ele>
        <time>2020-10-03T16:45:00.000Z</time>
      </trkpt>
      <trkpt lat="43.65871" lon="0.64337">
        <ele>149.22917333333</ele>
        <time>2020-10-03T16:45:02.000Z</time>
      </trkpt>
      <trkpt lat="43.65873" lon="0.64336">
        <ele>150</ele>
        <time>2020-10-03T16:45:04.000Z</time>
      </trkpt>
      <trkpt lat="43.65876" lon="0.64334">
        <ele>150</ele>
        <time>2020-10-03T16:45:06.000Z</time>
      </trkpt>
      <trkpt lat="43.65879" lon="0.64333">
        <ele>150</ele>
        <time>2020-10-03T16:45:08.000Z</time>
      </trkpt>
      <trkpt lat="43.65882" lon="0.64331">
        <ele>150</ele>
        <time>2020-10-03T16:45:10.000Z</time>
      </trkpt>
      <trkpt lat="43.65885" lon="0.64329">
        <ele>150</ele>
        <time>2020-10-03T16:45:12.000Z</time>
      </trkpt>
      <trkpt lat="43.65887" lon="0.64327">
        <ele>151</ele>
        <time>2020-10-03T16:45:14.000Z</time>
      </trkpt>
      <trkpt lat="43.65889" lon="0.64325">
        <ele>151</ele>
        <time>2020-10-03T16:45:16.000Z</time>
      </trkpt>
      <trkpt lat="43.65892" lon="0.64323">
        <ele>151</ele>
        <time>2020-10-03T16:45:18.000Z</time>
      </trkpt>
      <trkpt lat="43.65895" lon="0.64322">
        <ele>151.54165333333</ele>
        <time>2020-10-03T16:45:20.000Z</time>
      </trkpt>
      <trkpt lat="43.65898" lon="0.6432">
        <ele>153</ele>
        <time>2020-10-03T16:45:22.000Z</time>
      </trkpt>
      <trkpt lat="43.65901" lon="0.64318">
        <ele>153</ele>
        <time>2020-10-03T16:45:24.000Z</time>
      </trkpt>
      <trkpt lat="43.65903" lon="0.64316">
        <ele>153</ele>
        <time>2020-10-03T16:45:26.000Z</time>
      </trkpt>
      <trkpt lat="43.65905" lon="0.64315">
        <ele>154</ele>
        <time>2020-10-03T16:45:28.000Z</time>
      </trkpt>
      <trkpt lat="43.65907" lon="0.64313">
        <ele>154</ele>
        <time>2020-10-03T16:45:30.000Z</time>
      </trkpt>
      <trkpt lat="43.6591" lon="0.64311">
        <ele>154</ele>
        <time>2020-10-03T16:45:32.000Z</time>
      </trkpt>
      <trkpt lat="43.65913" lon="0.64309">
        <ele>154</ele>
        <time>2020-10-03T16:45:34.000Z</time>
      </trkpt>
      <trkpt lat="43.65915" lon="0.64308">
        <ele>154</ele>
        <time>2020-10-03T16:45:36.000Z</time>
      </trkpt>
      <trkpt lat="43.65918" lon="0.64306">
        <ele>155.78217119104</ele>
        <time>2020-10-03T16:45:38.000Z</time>
      </trkpt>
      <trkpt lat="43.65921" lon="0.64304">
        <ele>158</ele>
        <time>2020-10-03T16:45:40.000Z</time>
      </trkpt>
      <trkpt lat="43.65924" lon="0.64302">
        <ele>158</ele>
        <time>2020-10-03T16:45:42.000Z</time>
      </trkpt>
      <trkpt lat="43.65927" lon="0.643">
        <ele>158.24999724138</ele>
        <time>2020-10-03T16:45:44.000Z</time>
      </trkpt>
      <trkpt lat="43.6593" lon="0.64298">
        <ele>159</ele>
        <time>2020-10-03T16:45:46.000Z</time>
      </trkpt>
      <trkpt lat="43.65933" lon="0.64297">
        <ele>159</ele>
        <time>2020-10-03T16:45:48.000Z</time>
      </trkpt>
      <trkpt lat="43.65936" lon="0.64295">
        <ele>159</ele>
        <time>2020-10-03T16:45:50.000Z</time>
      </trkpt>
      <trkpt lat="43.65938" lon="0.64294">
        <ele>159</ele>
        <time>2020-10-03T16:45:51.000Z</time>
      </trkpt>
      <trkpt lat="43.6594" lon="0.64292">
        <ele>159.30172689655</ele>
        <time>2020-10-03T16:45:52.000Z</time>
      </trkpt>
      <trkpt lat="43.65943" lon="0.64291">
        <ele>160</ele>
        <time>2020-10-03T16:45:53.000Z</time>
      </trkpt>
      <trkpt lat="43.65945" lon="0.6429">
        <ele>160</ele>
        <time>2020-10-03T16:45:54.000Z</time>
      </trkpt>
      <trkpt lat="43.65947" lon="0.64288">
        <ele>160</ele>
        <time>2020-10-03T16:45:55.000Z</time>
      </trkpt>
      <trkpt lat="43.65949" lon="0.64286">
        <ele>160</ele>
        <time>2020-10-03T16:45:56.000Z</time>
      </trkpt>
      <trkpt lat="43.65952" lon="0.64285">
        <ele>160</ele>
        <time>2020-10-03T16:45:57.000Z</time>
      </trkpt>
      <trkpt lat="43.65954" lon="0.64283">
        <ele>160.23595230904</ele>
        <time>2020-10-03T16:45:58.000Z</time>
      </trkpt>
      <trkpt lat="43.65957" lon="0.64281">
        <ele>161</ele>
        <time>2020-10-03T16:45:59.000Z</time>
      </trkpt>
      <trkpt lat="43.65959" lon="0.6428">
        <ele>161</ele>
        <time>2020-10-03T16:46:00.000Z</time>
      </trkpt>
      <trkpt lat="43.65962" lon="0.64278">
        <ele>160.33334081876</ele>
        <time>2020-10-03T16:46:01.000Z</time>
      </trkpt>
      <trkpt lat="43.65964" lon="0.64277">
        <ele>159</ele>
        <time>2020-10-03T16:46:02.000Z</time>
      </trkpt>
      <trkpt lat="43.65967" lon="0.64275">
        <ele>159</ele>
        <time>2020-10-03T16:46:03.000Z</time>
      </trkpt>
      <trkpt lat="43.65969" lon="0.64273">
        <ele>159.37398797011</ele>
        <time>2020-10-03T16:46:04.000Z</time>
      </trkpt>
      <trkpt lat="43.65971" lon="0.64271">
        <ele>160</ele>
        <time>2020-10-03T16:46:05.000Z</time>
      </trkpt>
      <trkpt lat="43.65974" lon="0.6427">
        <ele>160</ele>
        <time>2020-10-03T16:46:06.000Z</time>
      </trkpt>
      <trkpt lat="43.65976" lon="0.64268">
        <ele>160</ele>
        <time>2020-10-03T16:46:07.000Z</time>
      </trkpt>
      <trkpt lat="43.65979" lon="0.64266">
        <ele>160</ele>
        <time>2020-10-03T16:46:08.000Z</time>
      </trkpt>
      <trkpt lat="43.65981" lon="0.64264">
        <ele>160</ele>
        <time>2020-10-03T16:46:09.000Z</time>
      </trkpt>
      <trkpt lat="43.65983" lon="0.64263">
        <ele>160</ele>
        <time>2020-10-03T16:46:10.000Z</time>
      </trkpt>
      <trkpt lat="43.65985" lon="0.64261">
        <ele>160</ele>
        <time>2020-10-03T16:46:11.000Z</time>
      </trkpt>
      <trkpt lat="43.65988" lon="0.6426">
        <ele>160</ele>
        <time>2020-10-03T16:46:12.000Z</time>
      </trkpt>
      <trkpt lat="43.6599" lon="0.64258">
        <ele>160</ele>
        <time>2020-10-03T16:46:13.000Z</time>
      </trkpt>
      <trkpt lat="43.65993" lon="0.64256">
        <ele>159.75862170433</ele>
        <time>2020-10-03T16:46:14.000Z</time>
      </trkpt>
      <trkpt lat="43.65996" lon="0.64254">
        <ele>159</ele>
        <time>2020-10-03T16:46:15.000Z</time>
      </trkpt>
      <trkpt lat="43.65998" lon="0.64253">
        <ele>159</ele>
        <time>2020-10-03T16:46:16.000Z</time>
      </trkpt>
      <trkpt lat="43.66" lon="0.64251">
        <ele>159</ele>
        <time>2020-10-03T16:46:17.000Z</time>
      </trkpt>
      <trkpt lat="43.66002" lon="0.6425">
        <ele>159</ele>
        <time>2020-10-03T16:46:18.000Z</time>
      </trkpt>
      <trkpt lat="43.66005" lon="0.64249">
        <ele>159</ele>
        <time>2020-10-03T16:46:19.000Z</time>
      </trkpt>
      <trkpt lat="43.66007" lon="0.64247">
        <ele>159</ele>
        <time>2020-10-03T16:46:20.000Z</time>
      </trkpt>
      <trkpt lat="43.6601" lon="0.64246">
        <ele>159</ele>
        <time>2020-10-03T16:46:21.000Z</time>
      </trkpt>
      <trkpt lat="43.66013" lon="0.64244">
        <ele>159</ele>
        <time>2020-10-03T16:46:22.000Z</time>
      </trkpt>
      <trkpt lat="43.66016" lon="0.64243">
        <ele>159</ele>
        <time>2020-10-03T16:46:23.000Z</time>
      </trkpt>
      <trkpt lat="43.66019" lon="0.64241">
        <ele>159</ele>
        <time>2020-10-03T16:46:24.000Z</time>
      </trkpt>
      <trkpt lat="43.66021" lon="0.6424">
        <ele>159.10527497698</ele>
        <time>2020-10-03T16:46:25.000Z</time>
      </trkpt>
      <trkpt lat="43.66024" lon="0.6424">
        <ele>161</ele>
        <time>2020-10-03T16:46:26.000Z</time>
      </trkpt>
      <trkpt lat="43.66026" lon="0.64239">
        <ele>161</ele>
        <time>2020-10-03T16:46:27.000Z</time>
      </trkpt>
      <trkpt lat="43.66029" lon="0.64238">
        <ele>161</ele>
        <time>2020-10-03T16:46:28.000Z</time>
      </trkpt>
      <trkpt lat="43.66031" lon="0.64238">
        <ele>161</ele>
        <time>2020-10-03T16:46:29.000Z</time>
      </trkpt>
      <trkpt lat="43.66033" lon="0.64238">
        <ele>161</ele>
        <time>2020-10-03T16:46:30.000Z</time>
      </trkpt>
      <trkpt lat="43.66036" lon="0.64239">
        <ele>161</ele>
        <time>2020-10-03T16:46:31.000Z</time>
      </trkpt>
      <trkpt lat="43.66038" lon="0.6424">
        <ele>161</ele>
        <time>2020-10-03T16:46:32.000Z</time>
      </trkpt>
      <trkpt lat="43.66041" lon="0.64241">
        <ele>161</ele>
        <time>2020-10-03T16:46:33.000Z</time>
      </trkpt>
      <trkpt lat="43.66043" lon="0.64243">
        <ele>161</ele>
        <time>2020-10-03T16:46:34.000Z</time>
      </trkpt>
      <trkpt lat="43.66045" lon="0.64247">
        <ele>161.79120600895</ele>
        <time>2020-10-03T16:46:35.000Z</time>
      </trkpt>
      <trkpt lat="43.66046" lon="0.6425">
        <ele>163</ele>
        <time>2020-10-03T16:46:36.000Z</time>
      </trkpt>
      <trkpt lat="43.66047" lon="0.64254">
        <ele>163</ele>
        <time>2020-10-03T16:46:37.000Z</time>
      </trkpt>
      <trkpt lat="43.66048" lon="0.64258">
        <ele>163</ele>
        <time>2020-10-03T16:46:38.000Z</time>
      </trkpt>
      <trkpt lat="43.66049" lon="0.64262">
        <ele>163</ele>
        <time>2020-10-03T16:46:39.000Z</time>
      </trkpt>
      <trkpt lat="43.6605" lon="0.64266">
        <ele>162.70588501039</ele>
        <time>2020-10-03T16:46:40.000Z</time>
      </trkpt>
      <trkpt lat="43.66051" lon="0.64269">
        <ele>162</ele>
        <time>2020-10-03T16:46:41.000Z</time>
      </trkpt>
      <trkpt lat="43.66052" lon="0.64273">
        <ele>162.11110479008</ele>
        <time>2020-10-03T16:46:42.000Z</time>
      </trkpt>
      <trkpt lat="43.66053" lon="0.64277">
        <ele>163</ele>
        <time>2020-10-03T16:46:43.000Z</time>
      </trkpt>
      <trkpt lat="43.66054" lon="0.64281">
        <ele>163</ele>
        <time>2020-10-03T16:46:44.000Z</time>
      </trkpt>
      <trkpt lat="43.66055" lon="0.64284">
        <ele>163</ele>
        <time>2020-10-03T16:46:45.000Z</time>
      </trkpt>
      <trkpt lat="43.66056" lon="0.64288">
        <ele>163</ele>
        <time>2020-10-03T16:46:46.000Z</time>
      </trkpt>
      <trkpt lat="43.66057" lon="0.64292">
        <ele>163</ele>
        <time>2020-10-03T16:46:47.000Z</time>
      </trkpt>
      <trkpt lat="43.66058" lon="0.64295">
        <ele>163</ele>
        <time>2020-10-03T16:46:48.000Z</time>
      </trkpt>
      <trkpt lat="43.66059" lon="0.64299">
        <ele>163</ele>
        <time>2020-10-03T16:46:49.000Z</time>
      </trkpt>
      <trkpt lat="43.6606" lon="0.64302">
        <ele>163</ele>
        <time>2020-10-03T16:46:50.000Z</time>
      </trkpt>
      <trkpt lat="43.6606" lon="0.64306">
        <ele>163</ele>
        <time>2020-10-03T16:46:51.000Z</time>
      </trkpt>
      <trkpt lat="43.66061" lon="0.64309">
        <ele>163</ele>
        <time>2020-10-03T16:46:52.000Z</time>
      </trkpt>
      <trkpt lat="43.66061" lon="0.64313">
        <ele>163</ele>
        <time>2020-10-03T16:46:53.000Z</time>
      </trkpt>
      <trkpt lat="43.66062" lon="0.64316">
        <ele>163</ele>
        <time>2020-10-03T16:46:54.000Z</time>
      </trkpt>
      <trkpt lat="43.66063" lon="0.6432">
        <ele>163</ele>
        <time>2020-10-03T16:46:55.000Z</time>
      </trkpt>
      <trkpt lat="43.66064" lon="0.64324">
        <ele>163</ele>
        <time>2020-10-03T16:46:56.000Z</time>
      </trkpt>
      <trkpt lat="43.66065" lon="0.64327">
        <ele>163.24418414277</ele>
        <time>2020-10-03T16:46:57.000Z</time>
      </trkpt>
      <trkpt lat="43.66066" lon="0.64331">
        <ele>164</ele>
        <time>2020-10-03T16:46:58.000Z</time>
      </trkpt>
      <trkpt lat="43.66066" lon="0.64334">
        <ele>164</ele>
        <time>2020-10-03T16:46:59.000Z</time>
      </trkpt>
      <trkpt lat="43.66067" lon="0.64338">
        <ele>164</ele>
        <time>2020-10-03T16:47:00.000Z</time>
      </trkpt>
      <trkpt lat="43.66068" lon="0.64342">
        <ele>164</ele>
        <time>2020-10-03T16:47:01.000Z</time>
      </trkpt>
      <trkpt lat="43.66069" lon="0.64345">
        <ele>164</ele>
        <time>2020-10-03T16:47:02.000Z</time>
      </trkpt>
      <trkpt lat="43.6607" lon="0.64349">
        <ele>163.65789385042</ele>
        <time>2020-10-03T16:47:03.000Z</time>
      </trkpt>
      <trkpt lat="43.66071" lon="0.64353">
        <ele>163</ele>
        <time>2020-10-03T16:47:04.000Z</time>
      </trkpt>
      <trkpt lat="43.66072" lon="0.64357">
        <ele>163</ele>
        <time>2020-10-03T16:47:05.000Z</time>
      </trkpt>
      <trkpt lat="43.66073" lon="0.64361">
        <ele>162.7241389457</ele>
        <time>2020-10-03T16:47:06.000Z</time>
      </trkpt>
      <trkpt lat="43.66074" lon="0.64365">
        <ele>162</ele>
        <time>2020-10-03T16:47:07.000Z</time>
      </trkpt>
      <trkpt lat="43.66076" lon="0.64369">
        <ele>162</ele>
        <time>2020-10-03T16:47:08.000Z</time>
      </trkpt>
      <trkpt lat="43.66077" lon="0.64372">
        <ele>162</ele>
        <time>2020-10-03T16:47:09.000Z</time>
      </trkpt>
      <trkpt lat="43.66078" lon="0.64376">
        <ele>162</ele>
        <time>2020-10-03T16:47:10.000Z</time>
      </trkpt>
      <trkpt lat="43.66079" lon="0.6438">
        <ele>162</ele>
        <time>2020-10-03T16:47:11.000Z</time>
      </trkpt>
      <trkpt lat="43.6608" lon="0.64384">
        <ele>162</ele>
        <time>2020-10-03T16:47:12.000Z</time>
      </trkpt>
      <trkpt lat="43.66081" lon="0.64388">
        <ele>162</ele>
        <time>2020-10-03T16:47:13.000Z</time>
      </trkpt>
      <trkpt lat="43.66082" lon="0.64391">
        <ele>162</ele>
        <time>2020-10-03T16:47:14.000Z</time>
      </trkpt>
      <trkpt lat="43.66083" lon="0.64395">
        <ele>162</ele>
        <time>2020-10-03T16:47:15.000Z</time>
      </trkpt>
      <trkpt lat="43.66084" lon="0.64398">
        <ele>161.74336493696</ele>
        <time>2020-10-03T16:47:16.000Z</time>
      </trkpt>
      <trkpt lat="43.66085" lon="0.64402">
        <ele>161</ele>
        <time>2020-10-03T16:47:17.000Z</time>
      </trkpt>
      <trkpt lat="43.66086" lon="0.64406">
        <ele>161</ele>
        <time>2020-10-03T16:47:18.000Z</time>
      </trkpt>
      <trkpt lat="43.66086" lon="0.64409">
        <ele>161</ele>
        <time>2020-10-03T16:47:19.000Z</time>
      </trkpt>
      <trkpt lat="43.66087" lon="0.64413">
        <ele>161</ele>
        <time>2020-10-03T16:47:20.000Z</time>
      </trkpt>
      <trkpt lat="43.66087" lon="0.64416">
        <ele>161</ele>
        <time>2020-10-03T16:47:21.000Z</time>
      </trkpt>
      <trkpt lat="43.66088" lon="0.6442">
        <ele>161.24137829567</ele>
        <time>2020-10-03T16:47:22.000Z</time>
      </trkpt>
      <trkpt lat="43.66089" lon="0.64424">
        <ele>162</ele>
        <time>2020-10-03T16:47:23.000Z</time>
      </trkpt>
      <trkpt lat="43.6609" lon="0.64427">
        <ele>162</ele>
        <time>2020-10-03T16:47:24.000Z</time>
      </trkpt>
      <trkpt lat="43.66091" lon="0.64431">
        <ele>162.26666477038</ele>
        <time>2020-10-03T16:47:25.000Z</time>
      </trkpt>
      <trkpt lat="43.66091" lon="0.64434">
        <ele>163</ele>
        <time>2020-10-03T16:47:26.000Z</time>
      </trkpt>
      <trkpt lat="43.66092" lon="0.64438">
        <ele>163</ele>
        <time>2020-10-03T16:47:27.000Z</time>
      </trkpt>
      <trkpt lat="43.66093" lon="0.64441">
        <ele>163.25609565733</ele>
        <time>2020-10-03T16:47:28.000Z</time>
      </trkpt>
      <trkpt lat="43.66094" lon="0.64445">
        <ele>164</ele>
        <time>2020-10-03T16:47:29.000Z</time>
      </trkpt>
      <trkpt lat="43.66095" lon="0.64449">
        <ele>164</ele>
        <time>2020-10-03T16:47:30.000Z</time>
      </trkpt>
      <trkpt lat="43.66096" lon="0.64452">
        <ele>164.34482758621</ele>
        <time>2020-10-03T16:47:31.000Z</time>
      </trkpt>
      <trkpt lat="43.66097" lon="0.64455">
        <ele>165</ele>
        <time>2020-10-03T16:47:32.000Z</time>
      </trkpt>
      <trkpt lat="43.66098" lon="0.64459">
        <ele>165</ele>
        <time>2020-10-03T16:47:33.000Z</time>
      </trkpt>
      <trkpt lat="43.66099" lon="0.64462">
        <ele>165</ele>
        <time>2020-10-03T16:47:34.000Z</time>
      </trkpt>
      <trkpt lat="43.66099" lon="0.64466">
        <ele>165</ele>
        <time>2020-10-03T16:47:35.000Z</time>
      </trkpt>
      <trkpt lat="43.66101" lon="0.64469">
        <ele>165</ele>
        <time>2020-10-03T16:47:36.000Z</time>
      </trkpt>
      <trkpt lat="43.66101" lon="0.64473">
        <ele>165</ele>
        <time>2020-10-03T16:47:37.000Z</time>
      </trkpt>
      <trkpt lat="43.66102" lon="0.64476">
        <ele>165</ele>
        <time>2020-10-03T16:47:38.000Z</time>
      </trkpt>
      <trkpt lat="43.66103" lon="0.6448">
        <ele>165</ele>
        <time>2020-10-03T16:47:39.000Z</time>
      </trkpt>
      <trkpt lat="43.66103" lon="0.64483">
        <ele>165</ele>
        <time>2020-10-03T16:47:40.000Z</time>
      </trkpt>
      <trkpt lat="43.66104" lon="0.64487">
        <ele>165</ele>
        <time>2020-10-03T16:47:41.000Z</time>
      </trkpt>
      <trkpt lat="43.66105" lon="0.6449">
        <ele>165</ele>
        <time>2020-10-03T16:47:42.000Z</time>
      </trkpt>
      <trkpt lat="43.66105" lon="0.64494">
        <ele>165</ele>
        <time>2020-10-03T16:47:43.000Z</time>
      </trkpt>
      <trkpt lat="43.66106" lon="0.64498">
        <ele>165</ele>
        <time>2020-10-03T16:47:44.000Z</time>
      </trkpt>
      <trkpt lat="43.66107" lon="0.64502">
        <ele>165.4201723155</ele>
        <time>2020-10-03T16:47:45.000Z</time>
      </trkpt>
      <trkpt lat="43.66107" lon="0.64506">
        <ele>166</ele>
        <time>2020-10-03T16:47:46.000Z</time>
      </trkpt>
      <trkpt lat="43.66108" lon="0.64509">
        <ele>166</ele>
        <time>2020-10-03T16:47:47.000Z</time>
      </trkpt>
      <trkpt lat="43.66108" lon="0.64513">
        <ele>166</ele>
        <time>2020-10-03T16:47:48.000Z</time>
      </trkpt>
      <trkpt lat="43.66109" lon="0.64517">
        <ele>166</ele>
        <time>2020-10-03T16:47:49.000Z</time>
      </trkpt>
      <trkpt lat="43.66109" lon="0.64521">
        <ele>166</ele>
        <time>2020-10-03T16:47:50.000Z</time>
      </trkpt>
      <trkpt lat="43.66109" lon="0.64524">
        <ele>166</ele>
        <time>2020-10-03T16:47:51.000Z</time>
      </trkpt>
      <trkpt lat="43.6611" lon="0.64528">
        <ele>165.71591272727</ele>
        <time>2020-10-03T16:47:52.000Z</time>
      </trkpt>
      <trkpt lat="43.6611" lon="0.64532">
        <ele>165</ele>
        <time>2020-10-03T16:47:53.000Z</time>
      </trkpt>
      <trkpt lat="43.6611" lon="0.64536">
        <ele>165</ele>
        <time>2020-10-03T16:47:54.000Z</time>
      </trkpt>
      <trkpt lat="43.66111" lon="0.6454">
        <ele>165</ele>
        <time>2020-10-03T16:47:55.000Z</time>
      </trkpt>
      <trkpt lat="43.66111" lon="0.64544">
        <ele>165</ele>
        <time>2020-10-03T16:47:56.000Z</time>
      </trkpt>
      <trkpt lat="43.66112" lon="0.64548">
        <ele>165</ele>
        <time>2020-10-03T16:47:57.000Z</time>
      </trkpt>
      <trkpt lat="43.66113" lon="0.64552">
        <ele>165</ele>
        <time>2020-10-03T16:47:58.000Z</time>
      </trkpt>
      <trkpt lat="43.66114" lon="0.64556">
        <ele>165</ele>
        <time>2020-10-03T16:47:59.000Z</time>
      </trkpt>
      <trkpt lat="43.66114" lon="0.6456">
        <ele>165</ele>
        <time>2020-10-03T16:48:00.000Z</time>
      </trkpt>
      <trkpt lat="43.66115" lon="0.64564">
        <ele>165</ele>
        <time>2020-10-03T16:48:01.000Z</time>
      </trkpt>
      <trkpt lat="43.66115" lon="0.64568">
        <ele>165</ele>
        <time>2020-10-03T16:48:02.000Z</time>
      </trkpt>
      <trkpt lat="43.66116" lon="0.64572">
        <ele>165</ele>
        <time>2020-10-03T16:48:03.000Z</time>
      </trkpt>
      <trkpt lat="43.66116" lon="0.64576">
        <ele>165</ele>
        <time>2020-10-03T16:48:04.000Z</time>
      </trkpt>
      <trkpt lat="43.66117" lon="0.6458">
        <ele>164.70212514865</ele>
        <time>2020-10-03T16:48:05.000Z</time>
      </trkpt>
      <trkpt lat="43.66117" lon="0.64584">
        <ele>164</ele>
        <time>2020-10-03T16:48:06.000Z</time>
      </trkpt>
      <trkpt lat="43.66118" lon="0.64588">
        <ele>164</ele>
        <time>2020-10-03T16:48:07.000Z</time>
      </trkpt>
      <trkpt lat="43.66118" lon="0.64592">
        <ele>164</ele>
        <time>2020-10-03T16:48:08.000Z</time>
      </trkpt>
      <trkpt lat="43.66119" lon="0.64596">
        <ele>164</ele>
        <time>2020-10-03T16:48:09.000Z</time>
      </trkpt>
      <trkpt lat="43.66119" lon="0.646">
        <ele>163.73239106528</ele>
        <time>2020-10-03T16:48:10.000Z</time>
      </trkpt>
      <trkpt lat="43.66119" lon="0.64605">
        <ele>163.02816888713</ele>
        <time>2020-10-03T16:48:11.000Z</time>
      </trkpt>
      <trkpt lat="43.66119" lon="0.64609">
        <ele>163</ele>
        <time>2020-10-03T16:48:12.000Z</time>
      </trkpt>
      <trkpt lat="43.66119" lon="0.64613">
        <ele>163</ele>
        <time>2020-10-03T16:48:13.000Z</time>
      </trkpt>
      <trkpt lat="43.6612" lon="0.64617">
        <ele>163</ele>
        <time>2020-10-03T16:48:14.000Z</time>
      </trkpt>
      <trkpt lat="43.6612" lon="0.6462">
        <ele>162.59803983084</ele>
        <time>2020-10-03T16:48:15.000Z</time>
      </trkpt>
      <trkpt lat="43.6612" lon="0.64624">
        <ele>162</ele>
        <time>2020-10-03T16:48:16.000Z</time>
      </trkpt>
      <trkpt lat="43.66121" lon="0.64628">
        <ele>162</ele>
        <time>2020-10-03T16:48:17.000Z</time>
      </trkpt>
      <trkpt lat="43.66121" lon="0.64632">
        <ele>162</ele>
        <time>2020-10-03T16:48:18.000Z</time>
      </trkpt>
      <trkpt lat="43.66121" lon="0.64636">
        <ele>162</ele>
        <time>2020-10-03T16:48:19.000Z</time>
      </trkpt>
      <trkpt lat="43.66122" lon="0.64639">
        <ele>162</ele>
        <time>2020-10-03T16:48:20.000Z</time>
      </trkpt>
      <trkpt lat="43.66122" lon="0.64643">
        <ele>162</ele>
        <time>2020-10-03T16:48:21.000Z</time>
      </trkpt>
      <trkpt lat="43.66122" lon="0.64647">
        <ele>162</ele>
        <time>2020-10-03T16:48:22.000Z</time>
      </trkpt>
      <trkpt lat="43.66123" lon="0.64651">
        <ele>162</ele>
        <time>2020-10-03T16:48:23.000Z</time>
      </trkpt>
      <trkpt lat="43.66123" lon="0.64655">
        <ele>162</ele>
        <time>2020-10-03T16:48:24.000Z</time>
      </trkpt>
      <trkpt lat="43.66123" lon="0.64659">
        <ele>162</ele>
        <time>2020-10-03T16:48:25.000Z</time>
      </trkpt>
      <trkpt lat="43.66123" lon="0.64662">
        <ele>162</ele>
        <time>2020-10-03T16:48:26.000Z</time>
      </trkpt>
      <trkpt lat="43.66123" lon="0.64666">
        <ele>162</ele>
        <time>2020-10-03T16:48:27.000Z</time>
      </trkpt>
      <trkpt lat="43.66123" lon="0.6467">
        <ele>162</ele>
        <time>2020-10-03T16:48:28.000Z</time>
      </trkpt>
      <trkpt lat="43.66123" lon="0.64674">
        <ele>162</ele>
        <time>2020-10-03T16:48:29.000Z</time>
      </trkpt>
      <trkpt lat="43.66124" lon="0.64679">
        <ele>162</ele>
        <time>2020-10-03T16:48:30.000Z</time>
      </trkpt>
      <trkpt lat="43.66124" lon="0.64682">
        <ele>162</ele>
        <time>2020-10-03T16:48:31.000Z</time>
      </trkpt>
      <trkpt lat="43.66124" lon="0.64686">
        <ele>162</ele>
        <time>2020-10-03T16:48:32.000Z</time>
      </trkpt>
      <trkpt lat="43.66124" lon="0.6469">
        <ele>162</ele>
        <time>2020-10-03T16:48:33.000Z</time>
      </trkpt>
      <trkpt lat="43.66124" lon="0.64694">
        <ele>162</ele>
        <time>2020-10-03T16:48:34.000Z</time>
      </trkpt>
      <trkpt lat="43.66124" lon="0.64698">
        <ele>162</ele>
        <time>2020-10-03T16:48:35.000Z</time>
      </trkpt>
      <trkpt lat="43.66124" lon="0.64702">
        <ele>162</ele>
        <time>2020-10-03T16:48:36.000Z</time>
      </trkpt>
      <trkpt lat="43.66124" lon="0.64706">
        <ele>162</ele>
        <time>2020-10-03T16:48:37.000Z</time>
      </trkpt>
      <trkpt lat="43.66124" lon="0.6471">
        <ele>162</ele>
        <time>2020-10-03T16:48:38.000Z</time>
      </trkpt>
      <trkpt lat="43.66124" lon="0.64714">
        <ele>162</ele>
        <time>2020-10-03T16:48:39.000Z</time>
      </trkpt>
      <trkpt lat="43.66124" lon="0.64718">
        <ele>162</ele>
        <time>2020-10-03T16:48:40.000Z</time>
      </trkpt>
      <trkpt lat="43.66124" lon="0.64722">
        <ele>162</ele>
        <time>2020-10-03T16:48:41.000Z</time>
      </trkpt>
      <trkpt lat="43.66124" lon="0.64726">
        <ele>162</ele>
        <time>2020-10-03T16:48:42.000Z</time>
      </trkpt>
      <trkpt lat="43.66125" lon="0.6473">
        <ele>162</ele>
        <time>2020-10-03T16:48:43.000Z</time>
      </trkpt>
      <trkpt lat="43.66125" lon="0.64734">
        <ele>162</ele>
        <time>2020-10-03T16:48:44.000Z</time>
      </trkpt>
      <trkpt lat="43.66125" lon="0.64738">
        <ele>162</ele>
        <time>2020-10-03T16:48:45.000Z</time>
      </trkpt>
      <trkpt lat="43.66125" lon="0.64742">
        <ele>162</ele>
        <time>2020-10-03T16:48:46.000Z</time>
      </trkpt>
      <trkpt lat="43.66125" lon="0.64745">
        <ele>162</ele>
        <time>2020-10-03T16:48:47.000Z</time>
      </trkpt>
      <trkpt lat="43.66125" lon="0.64749">
        <ele>162</ele>
        <time>2020-10-03T16:48:48.000Z</time>
      </trkpt>
      <trkpt lat="43.66125" lon="0.64753">
        <ele>162</ele>
        <time>2020-10-03T16:48:49.000Z</time>
      </trkpt>
      <trkpt lat="43.66125" lon="0.64758">
        <ele>161.74999272727</ele>
        <time>2020-10-03T16:48:50.000Z</time>
      </trkpt>
      <trkpt lat="43.66125" lon="0.64762">
        <ele>161</ele>
        <time>2020-10-03T16:48:51.000Z</time>
      </trkpt>
      <trkpt lat="43.66124" lon="0.64766">
        <ele>161</ele>
        <time>2020-10-03T16:48:52.000Z</time>
      </trkpt>
      <trkpt lat="43.66125" lon="0.6477">
        <ele>161</ele>
        <time>2020-10-03T16:48:53.000Z</time>
      </trkpt>
      <trkpt lat="43.66125" lon="0.64774">
        <ele>161</ele>
        <time>2020-10-03T16:48:54.000Z</time>
      </trkpt>
      <trkpt lat="43.66125" lon="0.64778">
        <ele>161</ele>
        <time>2020-10-03T16:48:55.000Z</time>
      </trkpt>
      <trkpt lat="43.66125" lon="0.64782">
        <ele>161</ele>
        <time>2020-10-03T16:48:56.000Z</time>
      </trkpt>
      <trkpt lat="43.66125" lon="0.64787">
        <ele>160.56140035705</ele>
        <time>2020-10-03T16:48:57.000Z</time>
      </trkpt>
      <trkpt lat="43.66125" lon="0.64791">
        <ele>160</ele>
        <time>2020-10-03T16:48:58.000Z</time>
      </trkpt>
      <trkpt lat="43.66125" lon="0.64795">
        <ele>160</ele>
        <time>2020-10-03T16:48:59.000Z</time>
      </trkpt>
      <trkpt lat="43.66125" lon="0.648">
        <ele>160</ele>
        <time>2020-10-03T16:49:00.000Z</time>
      </trkpt>
      <trkpt lat="43.66126" lon="0.64804">
        <ele>160</ele>
        <time>2020-10-03T16:49:01.000Z</time>
      </trkpt>
      <trkpt lat="43.66126" lon="0.64808">
        <ele>160</ele>
        <time>2020-10-03T16:49:02.000Z</time>
      </trkpt>
      <trkpt lat="43.66127" lon="0.64812">
        <ele>160</ele>
        <time>2020-10-03T16:49:03.000Z</time>
      </trkpt>
      <trkpt lat="43.66128" lon="0.64816">
        <ele>160</ele>
        <time>2020-10-03T16:49:04.000Z</time>
      </trkpt>
      <trkpt lat="43.66129" lon="0.6482">
        <ele>160</ele>
        <time>2020-10-03T16:49:05.000Z</time>
      </trkpt>
      <trkpt lat="43.6613" lon="0.64823">
        <ele>159.58822997922</ele>
        <time>2020-10-03T16:49:06.000Z</time>
      </trkpt>
      <trkpt lat="43.66132" lon="0.64826">
        <ele>159</ele>
        <time>2020-10-03T16:49:07.000Z</time>
      </trkpt>
      <trkpt lat="43.66134" lon="0.64829">
        <ele>159</ele>
        <time>2020-10-03T16:49:08.000Z</time>
      </trkpt>
      <trkpt lat="43.66137" lon="0.6483">
        <ele>157.35788679449</ele>
        <time>2020-10-03T16:49:09.000Z</time>
      </trkpt>
      <trkpt lat="43.66139" lon="0.64831">
        <ele>155</ele>
        <time>2020-10-03T16:49:10.000Z</time>
      </trkpt>
      <trkpt lat="43.66142" lon="0.64831">
        <ele>155</ele>
        <time>2020-10-03T16:49:11.000Z</time>
      </trkpt>
      <trkpt lat="43.66145" lon="0.64831">
        <ele>155</ele>
        <time>2020-10-03T16:49:12.000Z</time>
      </trkpt>
      <trkpt lat="43.66147" lon="0.6483">
        <ele>155</ele>
        <time>2020-10-03T16:49:13.000Z</time>
      </trkpt>
      <trkpt lat="43.6615" lon="0.6483">
        <ele>154.55856271405</ele>
        <time>2020-10-03T16:49:14.000Z</time>
      </trkpt>
      <trkpt lat="43.66152" lon="0.64829">
        <ele>154</ele>
        <time>2020-10-03T16:49:15.000Z</time>
      </trkpt>
      <trkpt lat="43.66155" lon="0.64828">
        <ele>154</ele>
        <time>2020-10-03T16:49:16.000Z</time>
      </trkpt>
      <trkpt lat="43.66158" lon="0.64827">
        <ele>154</ele>
        <time>2020-10-03T16:49:17.000Z</time>
      </trkpt>
      <trkpt lat="43.6616" lon="0.64826">
        <ele>154</ele>
        <time>2020-10-03T16:49:18.000Z</time>
      </trkpt>
      <trkpt lat="43.66163" lon="0.64826">
        <ele>154</ele>
        <time>2020-10-03T16:49:19.000Z</time>
      </trkpt>
      <trkpt lat="43.66174" lon="0.64823">
        <ele>155</ele>
        <time>2020-10-03T16:49:23.000Z</time>
      </trkpt>
      <trkpt lat="43.66183" lon="0.64816">
        <ele>155</ele>
        <time>2020-10-03T16:49:26.000Z</time>
      </trkpt>
      <trkpt lat="43.66191" lon="0.64806">
        <ele>155</ele>
        <time>2020-10-03T16:49:30.000Z</time>
      </trkpt>
      <trkpt lat="43.66192" lon="0.648">
        <ele>155</ele>
        <time>2020-10-03T16:49:32.000Z</time>
      </trkpt>
      <trkpt lat="43.66192" lon="0.64796">
        <ele>155</ele>
        <time>2020-10-03T16:49:34.000Z</time>
      </trkpt>
      <trkpt lat="43.66192" lon="0.64792">
        <ele>156.28572952381</ele>
        <time>2020-10-03T16:49:36.000Z</time>
      </trkpt>
      <trkpt lat="43.66193" lon="0.64787">
        <ele>159</ele>
        <time>2020-10-03T16:49:38.000Z</time>
      </trkpt>
      <trkpt lat="43.66192" lon="0.64783">
        <ele>159</ele>
        <time>2020-10-03T16:49:40.000Z</time>
      </trkpt>
      <trkpt lat="43.66192" lon="0.64779">
        <ele>159</ele>
        <time>2020-10-03T16:49:42.000Z</time>
      </trkpt>
      <trkpt lat="43.66192" lon="0.64775">
        <ele>161</ele>
        <time>2020-10-03T16:49:44.000Z</time>
      </trkpt>
      <trkpt lat="43.66192" lon="0.64771">
        <ele>161</ele>
        <time>2020-10-03T16:49:46.000Z</time>
      </trkpt>
      <trkpt lat="43.66191" lon="0.64767">
        <ele>161.39639525364</ele>
        <time>2020-10-03T16:49:48.000Z</time>
      </trkpt>
      <trkpt lat="43.66191" lon="0.64763">
        <ele>162.39285714286</ele>
        <time>2020-10-03T16:49:50.000Z</time>
      </trkpt>
      <trkpt lat="43.66191" lon="0.6476">
        <ele>163.4188018292</ele>
        <time>2020-10-03T16:49:52.000Z</time>
      </trkpt>
      <trkpt lat="43.6619" lon="0.64756">
        <ele>164</ele>
        <time>2020-10-03T16:49:54.000Z</time>
      </trkpt>
      <trkpt lat="43.6619" lon="0.64752">
        <ele>164</ele>
        <time>2020-10-03T16:49:56.000Z</time>
      </trkpt>
      <trkpt lat="43.66189" lon="0.64748">
        <ele>164</ele>
        <time>2020-10-03T16:49:58.000Z</time>
      </trkpt>
      <trkpt lat="43.66189" lon="0.64745">
        <ele>164</ele>
        <time>2020-10-03T16:50:00.000Z</time>
      </trkpt>
      <trkpt lat="43.66188" lon="0.64741">
        <ele>164</ele>
        <time>2020-10-03T16:50:02.000Z</time>
      </trkpt>
      <trkpt lat="43.66187" lon="0.64738">
        <ele>164</ele>
        <time>2020-10-03T16:50:04.000Z</time>
      </trkpt>
      <trkpt lat="43.66186" lon="0.64734">
        <ele>164.42045090909</ele>
        <time>2020-10-03T16:50:06.000Z</time>
      </trkpt>
      <trkpt lat="43.66186" lon="0.6473">
        <ele>165</ele>
        <time>2020-10-03T16:50:08.000Z</time>
      </trkpt>
      <trkpt lat="43.66185" lon="0.64726">
        <ele>165.26966389093</ele>
        <time>2020-10-03T16:50:10.000Z</time>
      </trkpt>
      <trkpt lat="43.66184" lon="0.64722">
        <ele>166</ele>
        <time>2020-10-03T16:50:12.000Z</time>
      </trkpt>
      <trkpt lat="43.66184" lon="0.64718">
        <ele>166</ele>
        <time>2020-10-03T16:50:14.000Z</time>
      </trkpt>
      <trkpt lat="43.66183" lon="0.64714">
        <ele>166</ele>
        <time>2020-10-03T16:50:16.000Z</time>
      </trkpt>
      <trkpt lat="43.66183" lon="0.6471">
        <ele>166.19718039013</ele>
        <time>2020-10-03T16:50:18.000Z</time>
      </trkpt>
      <trkpt lat="43.66183" lon="0.64706">
        <ele>167</ele>
        <time>2020-10-03T16:50:20.000Z</time>
      </trkpt>
      <trkpt lat="43.66184" lon="0.64701">
        <ele>167</ele>
        <time>2020-10-03T16:50:22.000Z</time>
      </trkpt>
      <trkpt lat="43.66185" lon="0.64697">
        <ele>166</ele>
        <time>2020-10-03T16:50:24.000Z</time>
      </trkpt>
      <trkpt lat="43.66187" lon="0.64694">
        <ele>167</ele>
        <time>2020-10-03T16:50:26.000Z</time>
      </trkpt>
      <trkpt lat="43.66188" lon="0.6469">
        <ele>168</ele>
        <time>2020-10-03T16:50:28.000Z</time>
      </trkpt>
      <trkpt lat="43.66189" lon="0.64686">
        <ele>168</ele>
        <time>2020-10-03T16:50:30.000Z</time>
      </trkpt>
      <trkpt lat="43.6619" lon="0.64681">
        <ele>168</ele>
        <time>2020-10-03T16:50:32.000Z</time>
      </trkpt>
      <trkpt lat="43.66191" lon="0.64678">
        <ele>168</ele>
        <time>2020-10-03T16:50:33.000Z</time>
      </trkpt>
      <trkpt lat="43.6619" lon="0.64675">
        <ele>168</ele>
        <time>2020-10-03T16:50:34.000Z</time>
      </trkpt>
      <trkpt lat="43.6619" lon="0.64671">
        <ele>168.41176382008</ele>
        <time>2020-10-03T16:50:35.000Z</time>
      </trkpt>
      <trkpt lat="43.66189" lon="0.64668">
        <ele>169</ele>
        <time>2020-10-03T16:50:36.000Z</time>
      </trkpt>
      <trkpt lat="43.66188" lon="0.64664">
        <ele>169</ele>
        <time>2020-10-03T16:50:37.000Z</time>
      </trkpt>
      <trkpt lat="43.66188" lon="0.6466">
        <ele>169</ele>
        <time>2020-10-03T16:50:38.000Z</time>
      </trkpt>
      <trkpt lat="43.66187" lon="0.64657">
        <ele>169</ele>
        <time>2020-10-03T16:50:39.000Z</time>
      </trkpt>
      <trkpt lat="43.66186" lon="0.64653">
        <ele>169</ele>
        <time>2020-10-03T16:50:40.000Z</time>
      </trkpt>
      <trkpt lat="43.66185" lon="0.64649">
        <ele>169</ele>
        <time>2020-10-03T16:50:41.000Z</time>
      </trkpt>
      <trkpt lat="43.66184" lon="0.64645">
        <ele>169</ele>
        <time>2020-10-03T16:50:42.000Z</time>
      </trkpt>
      <trkpt lat="43.66184" lon="0.64642">
        <ele>169</ele>
        <time>2020-10-03T16:50:43.000Z</time>
      </trkpt>
      <trkpt lat="43.66183" lon="0.64638">
        <ele>169</ele>
        <time>2020-10-03T16:50:44.000Z</time>
      </trkpt>
      <trkpt lat="43.66182" lon="0.64634">
        <ele>169</ele>
        <time>2020-10-03T16:50:45.000Z</time>
      </trkpt>
      <trkpt lat="43.66182" lon="0.64631">
        <ele>169</ele>
        <time>2020-10-03T16:50:46.000Z</time>
      </trkpt>
      <trkpt lat="43.66181" lon="0.64627">
        <ele>169</ele>
        <time>2020-10-03T16:50:47.000Z</time>
      </trkpt>
      <trkpt lat="43.6618" lon="0.64623">
        <ele>169</ele>
        <time>2020-10-03T16:50:48.000Z</time>
      </trkpt>
      <trkpt lat="43.66179" lon="0.6462">
        <ele>169</ele>
        <time>2020-10-03T16:50:49.000Z</time>
      </trkpt>
      <trkpt lat="43.66179" lon="0.64617">
        <ele>169</ele>
        <time>2020-10-03T16:50:50.000Z</time>
      </trkpt>
      <trkpt lat="43.66178" lon="0.64613">
        <ele>169</ele>
        <time>2020-10-03T16:50:51.000Z</time>
      </trkpt>
      <trkpt lat="43.66177" lon="0.64609">
        <ele>169.39784739044</ele>
        <time>2020-10-03T16:50:52.000Z</time>
      </trkpt>
      <trkpt lat="43.66176" lon="0.64606">
        <ele>170</ele>
        <time>2020-10-03T16:50:53.000Z</time>
      </trkpt>
      <trkpt lat="43.66176" lon="0.64602">
        <ele>170</ele>
        <time>2020-10-03T16:50:54.000Z</time>
      </trkpt>
      <trkpt lat="43.66175" lon="0.64598">
        <ele>170</ele>
        <time>2020-10-03T16:50:55.000Z</time>
      </trkpt>
      <trkpt lat="43.66175" lon="0.64595">
        <ele>170</ele>
        <time>2020-10-03T16:50:56.000Z</time>
      </trkpt>
      <trkpt lat="43.66174" lon="0.64591">
        <ele>170</ele>
        <time>2020-10-03T16:50:57.000Z</time>
      </trkpt>
      <trkpt lat="43.66174" lon="0.64587">
        <ele>170</ele>
        <time>2020-10-03T16:50:58.000Z</time>
      </trkpt>
      <trkpt lat="43.66173" lon="0.64584">
        <ele>170</ele>
        <time>2020-10-03T16:50:59.000Z</time>
      </trkpt>
      <trkpt lat="43.66173" lon="0.6458">
        <ele>169.59769895099</ele>
        <time>2020-10-03T16:51:00.000Z</time>
      </trkpt>
      <trkpt lat="43.66172" lon="0.64576">
        <ele>169</ele>
        <time>2020-10-03T16:51:01.000Z</time>
      </trkpt>
      <trkpt lat="43.66171" lon="0.64573">
        <ele>169</ele>
        <time>2020-10-03T16:51:02.000Z</time>
      </trkpt>
      <trkpt lat="43.66171" lon="0.64569">
        <ele>169</ele>
        <time>2020-10-03T16:51:03.000Z</time>
      </trkpt>
      <trkpt lat="43.6617" lon="0.64566">
        <ele>169</ele>
        <time>2020-10-03T16:51:04.000Z</time>
      </trkpt>
      <trkpt lat="43.66169" lon="0.64562">
        <ele>169</ele>
        <time>2020-10-03T16:51:05.000Z</time>
      </trkpt>
      <trkpt lat="43.66169" lon="0.64558">
        <ele>169</ele>
        <time>2020-10-03T16:51:06.000Z</time>
      </trkpt>
      <trkpt lat="43.66168" lon="0.64554">
        <ele>169</ele>
        <time>2020-10-03T16:51:07.000Z</time>
      </trkpt>
      <trkpt lat="43.66168" lon="0.64551">
        <ele>169</ele>
        <time>2020-10-03T16:51:08.000Z</time>
      </trkpt>
      <trkpt lat="43.66167" lon="0.64547">
        <ele>169</ele>
        <time>2020-10-03T16:51:09.000Z</time>
      </trkpt>
      <trkpt lat="43.66167" lon="0.64544">
        <ele>169</ele>
        <time>2020-10-03T16:51:10.000Z</time>
      </trkpt>
      <trkpt lat="43.66167" lon="0.6454">
        <ele>169</ele>
        <time>2020-10-03T16:51:11.000Z</time>
      </trkpt>
      <trkpt lat="43.66166" lon="0.64537">
        <ele>169</ele>
        <time>2020-10-03T16:51:12.000Z</time>
      </trkpt>
      <trkpt lat="43.66165" lon="0.64533">
        <ele>169</ele>
        <time>2020-10-03T16:51:13.000Z</time>
      </trkpt>
      <trkpt lat="43.66165" lon="0.6453">
        <ele>169</ele>
        <time>2020-10-03T16:51:14.000Z</time>
      </trkpt>
      <trkpt lat="43.66164" lon="0.64526">
        <ele>169.2389415616</ele>
        <time>2020-10-03T16:51:15.000Z</time>
      </trkpt>
      <trkpt lat="43.66164" lon="0.64523">
        <ele>170</ele>
        <time>2020-10-03T16:51:16.000Z</time>
      </trkpt>
      <trkpt lat="43.66163" lon="0.64519">
        <ele>170</ele>
        <time>2020-10-03T16:51:17.000Z</time>
      </trkpt>
      <trkpt lat="43.66163" lon="0.64515">
        <ele>170</ele>
        <time>2020-10-03T16:51:18.000Z</time>
      </trkpt>
      <trkpt lat="43.66162" lon="0.64512">
        <ele>170</ele>
        <time>2020-10-03T16:51:19.000Z</time>
      </trkpt>
      <trkpt lat="43.66162" lon="0.64508">
        <ele>170</ele>
        <time>2020-10-03T16:51:20.000Z</time>
      </trkpt>
      <trkpt lat="43.66162" lon="0.64504">
        <ele>170</ele>
        <time>2020-10-03T16:51:21.000Z</time>
      </trkpt>
      <trkpt lat="43.66162" lon="0.64501">
        <ele>170</ele>
        <time>2020-10-03T16:51:22.000Z</time>
      </trkpt>
      <trkpt lat="43.66162" lon="0.64497">
        <ele>170</ele>
        <time>2020-10-03T16:51:23.000Z</time>
      </trkpt>
      <trkpt lat="43.66163" lon="0.64494">
        <ele>169.617392369</ele>
        <time>2020-10-03T16:51:24.000Z</time>
      </trkpt>
      <trkpt lat="43.66163" lon="0.6449">
        <ele>169</ele>
        <time>2020-10-03T16:51:25.000Z</time>
      </trkpt>
      <trkpt lat="43.66164" lon="0.64487">
        <ele>169</ele>
        <time>2020-10-03T16:51:26.000Z</time>
      </trkpt>
      <trkpt lat="43.66165" lon="0.64483">
        <ele>169.36522194025</ele>
        <time>2020-10-03T16:51:27.000Z</time>
      </trkpt>
      <trkpt lat="43.66165" lon="0.64479">
        <ele>170</ele>
        <time>2020-10-03T16:51:28.000Z</time>
      </trkpt>
      <trkpt lat="43.66164" lon="0.64476">
        <ele>170</ele>
        <time>2020-10-03T16:51:29.000Z</time>
      </trkpt>
      <trkpt lat="43.66163" lon="0.64472">
        <ele>170</ele>
        <time>2020-10-03T16:51:30.000Z</time>
      </trkpt>
      <trkpt lat="43.66163" lon="0.64468">
        <ele>170</ele>
        <time>2020-10-03T16:51:31.000Z</time>
      </trkpt>
      <trkpt lat="43.66162" lon="0.64465">
        <ele>170</ele>
        <time>2020-10-03T16:51:32.000Z</time>
      </trkpt>
      <trkpt lat="43.66161" lon="0.64461">
        <ele>170</ele>
        <time>2020-10-03T16:51:33.000Z</time>
      </trkpt>
      <trkpt lat="43.66161" lon="0.64457">
        <ele>170</ele>
        <time>2020-10-03T16:51:34.000Z</time>
      </trkpt>
      <trkpt lat="43.6616" lon="0.64454">
        <ele>170</ele>
        <time>2020-10-03T16:51:35.000Z</time>
      </trkpt>
      <trkpt lat="43.6616" lon="0.64451">
        <ele>170</ele>
        <time>2020-10-03T16:51:36.000Z</time>
      </trkpt>
      <trkpt lat="43.6616" lon="0.64447">
        <ele>170</ele>
        <time>2020-10-03T16:51:37.000Z</time>
      </trkpt>
      <trkpt lat="43.66159" lon="0.64444">
        <ele>170</ele>
        <time>2020-10-03T16:51:38.000Z</time>
      </trkpt>
      <trkpt lat="43.66159" lon="0.6444">
        <ele>170</ele>
        <time>2020-10-03T16:51:39.000Z</time>
      </trkpt>
      <trkpt lat="43.66159" lon="0.64437">
        <ele>170.42857665301</ele>
        <time>2020-10-03T16:51:40.000Z</time>
      </trkpt>
      <trkpt lat="43.66159" lon="0.64433">
        <ele>172</ele>
        <time>2020-10-03T16:51:41.000Z</time>
      </trkpt>
      <trkpt lat="43.66161" lon="0.64431">
        <ele>172</ele>
        <time>2020-10-03T16:51:42.000Z</time>
      </trkpt>
      <trkpt lat="43.66162" lon="0.64428">
        <ele>171.56481185185</ele>
        <time>2020-10-03T16:51:43.000Z</time>
      </trkpt>
      <trkpt lat="43.66164" lon="0.64425">
        <ele>171</ele>
        <time>2020-10-03T16:51:45.000Z</time>
      </trkpt>
      <trkpt lat="43.66167" lon="0.64423">
        <ele>170</ele>
        <time>2020-10-03T16:51:47.000Z</time>
      </trkpt>
      <trkpt lat="43.66169" lon="0.64421">
        <ele>170</ele>
        <time>2020-10-03T16:51:49.000Z</time>
      </trkpt>
      <trkpt lat="43.66172" lon="0.64418">
        <ele>170</ele>
        <time>2020-10-03T16:51:51.000Z</time>
      </trkpt>
      <trkpt lat="43.66175" lon="0.64416">
        <ele>170</ele>
        <time>2020-10-03T16:51:53.000Z</time>
      </trkpt>
      <trkpt lat="43.66178" lon="0.64414">
        <ele>171</ele>
        <time>2020-10-03T16:51:55.000Z</time>
      </trkpt>
      <trkpt lat="43.6618" lon="0.64412">
        <ele>171</ele>
        <time>2020-10-03T16:51:57.000Z</time>
      </trkpt>
      <trkpt lat="43.66183" lon="0.6441">
        <ele>171.73394710884</ele>
        <time>2020-10-03T16:51:59.000Z</time>
      </trkpt>
      <trkpt lat="43.66186" lon="0.64408">
        <ele>173</ele>
        <time>2020-10-03T16:52:01.000Z</time>
      </trkpt>
      <trkpt lat="43.66188" lon="0.64406">
        <ele>173</ele>
        <time>2020-10-03T16:52:03.000Z</time>
      </trkpt>
      <trkpt lat="43.66191" lon="0.64404">
        <ele>173.425925048</ele>
        <time>2020-10-03T16:52:05.000Z</time>
      </trkpt>
      <trkpt lat="43.66193" lon="0.64402">
        <ele>174</ele>
        <time>2020-10-03T16:52:07.000Z</time>
      </trkpt>
      <trkpt lat="43.66196" lon="0.644">
        <ele>174</ele>
        <time>2020-10-03T16:52:09.000Z</time>
      </trkpt>
      <trkpt lat="43.66199" lon="0.64398">
        <ele>174</ele>
        <time>2020-10-03T16:52:11.000Z</time>
      </trkpt>
      <trkpt lat="43.66202" lon="0.64396">
        <ele>175</ele>
        <time>2020-10-03T16:52:13.000Z</time>
      </trkpt>
      <trkpt lat="43.66205" lon="0.64395">
        <ele>175</ele>
        <time>2020-10-03T16:52:15.000Z</time>
      </trkpt>
      <trkpt lat="43.66207" lon="0.64394">
        <ele>176</ele>
        <time>2020-10-03T16:52:17.000Z</time>
      </trkpt>
      <trkpt lat="43.6621" lon="0.64392">
        <ele>176</ele>
        <time>2020-10-03T16:52:19.000Z</time>
      </trkpt>
      <trkpt lat="43.66213" lon="0.6439">
        <ele>176</ele>
        <time>2020-10-03T16:52:21.000Z</time>
      </trkpt>
      <trkpt lat="43.66215" lon="0.64388">
        <ele>176.43925401345</ele>
        <time>2020-10-03T16:52:23.000Z</time>
      </trkpt>
      <trkpt lat="43.66217" lon="0.64386">
        <ele>177</ele>
        <time>2020-10-03T16:52:25.000Z</time>
      </trkpt>
      <trkpt lat="43.66218" lon="0.64384">
        <ele>178</ele>
        <time>2020-10-03T16:52:27.000Z</time>
      </trkpt>
      <trkpt lat="43.6622" lon="0.64382">
        <ele>178</ele>
        <time>2020-10-03T16:52:29.000Z</time>
      </trkpt>
      <trkpt lat="43.66222" lon="0.6438">
        <ele>178</ele>
        <time>2020-10-03T16:52:31.000Z</time>
      </trkpt>
      <trkpt lat="43.66224" lon="0.64379">
        <ele>179</ele>
        <time>2020-10-03T16:52:33.000Z</time>
      </trkpt>
      <trkpt lat="43.66227" lon="0.64377">
        <ele>179</ele>
        <time>2020-10-03T16:52:35.000Z</time>
      </trkpt>
      <trkpt lat="43.6623" lon="0.64376">
        <ele>179.37272653223</ele>
        <time>2020-10-03T16:52:37.000Z</time>
      </trkpt>
      <trkpt lat="43.66233" lon="0.64374">
        <ele>180</ele>
        <time>2020-10-03T16:52:39.000Z</time>
      </trkpt>
      <trkpt lat="43.66235" lon="0.64371">
        <ele>180</ele>
        <time>2020-10-03T16:52:41.000Z</time>
      </trkpt>
      <trkpt lat="43.66237" lon="0.6437">
        <ele>180</ele>
        <time>2020-10-03T16:52:42.000Z</time>
      </trkpt>
      <trkpt lat="43.66238" lon="0.64369">
        <ele>180.41747753793</ele>
        <time>2020-10-03T16:52:43.000Z</time>
      </trkpt>
      <trkpt lat="43.66241" lon="0.64367">
        <ele>181</ele>
        <time>2020-10-03T16:52:45.000Z</time>
      </trkpt>
      <trkpt lat="43.66243" lon="0.64365">
        <ele>181</ele>
        <time>2020-10-03T16:52:47.000Z</time>
      </trkpt>
      <trkpt lat="43.66245" lon="0.64364">
        <ele>181</ele>
        <time>2020-10-03T16:52:49.000Z</time>
      </trkpt>
      <trkpt lat="43.66247" lon="0.64361">
        <ele>182</ele>
        <time>2020-10-03T16:52:51.000Z</time>
      </trkpt>
      <trkpt lat="43.66249" lon="0.64359">
        <ele>182</ele>
        <time>2020-10-03T16:52:53.000Z</time>
      </trkpt>
      <trkpt lat="43.66251" lon="0.64358">
        <ele>182</ele>
        <time>2020-10-03T16:52:55.000Z</time>
      </trkpt>
      <trkpt lat="43.66254" lon="0.64356">
        <ele>182</ele>
        <time>2020-10-03T16:52:58.000Z</time>
      </trkpt>
      <trkpt lat="43.66256" lon="0.64355">
        <ele>182</ele>
        <time>2020-10-03T16:53:00.000Z</time>
      </trkpt>
      <trkpt lat="43.66259" lon="0.64353">
        <ele>183</ele>
        <time>2020-10-03T16:53:02.000Z</time>
      </trkpt>
      <trkpt lat="43.66262" lon="0.64351">
        <ele>183.48076307692</ele>
        <time>2020-10-03T16:53:04.000Z</time>
      </trkpt>
      <trkpt lat="43.66264" lon="0.64351">
        <ele>184</ele>
        <time>2020-10-03T16:53:05.000Z</time>
      </trkpt>
      <trkpt lat="43.66271" lon="0.64346">
        <ele>184</ele>
        <time>2020-10-03T16:53:10.000Z</time>
      </trkpt>
      <trkpt lat="43.66274" lon="0.64344">
        <ele>184.43925401345</ele>
        <time>2020-10-03T16:53:12.000Z</time>
      </trkpt>
      <trkpt lat="43.66276" lon="0.64343">
        <ele>185</ele>
        <time>2020-10-03T16:53:13.000Z</time>
      </trkpt>
      <trkpt lat="43.66278" lon="0.64342">
        <ele>185</ele>
        <time>2020-10-03T16:53:14.000Z</time>
      </trkpt>
      <trkpt lat="43.6628" lon="0.64341">
        <ele>185</ele>
        <time>2020-10-03T16:53:15.000Z</time>
      </trkpt>
      <trkpt lat="43.66282" lon="0.6434">
        <ele>185</ele>
        <time>2020-10-03T16:53:16.000Z</time>
      </trkpt>
      <trkpt lat="43.66285" lon="0.64338">
        <ele>185</ele>
        <time>2020-10-03T16:53:18.000Z</time>
      </trkpt>
      <trkpt lat="43.66287" lon="0.64336">
        <ele>185</ele>
        <time>2020-10-03T16:53:20.000Z</time>
      </trkpt>
      <trkpt lat="43.6629" lon="0.64334">
        <ele>185</ele>
        <time>2020-10-03T16:53:22.000Z</time>
      </trkpt>
      <trkpt lat="43.66291" lon="0.64332">
        <ele>185</ele>
        <time>2020-10-03T16:53:24.000Z</time>
      </trkpt>
      <trkpt lat="43.66293" lon="0.64329">
        <ele>185</ele>
        <time>2020-10-03T16:53:26.000Z</time>
      </trkpt>
      <trkpt lat="43.66296" lon="0.64326">
        <ele>186</ele>
        <time>2020-10-03T16:53:28.000Z</time>
      </trkpt>
      <trkpt lat="43.66298" lon="0.64325">
        <ele>186</ele>
        <time>2020-10-03T16:53:29.000Z</time>
      </trkpt>
      <trkpt lat="43.66299" lon="0.64323">
        <ele>186</ele>
        <time>2020-10-03T16:53:30.000Z</time>
      </trkpt>
      <trkpt lat="43.66301" lon="0.6432">
        <ele>188</ele>
        <time>2020-10-03T16:53:32.000Z</time>
      </trkpt>
      <trkpt lat="43.66303" lon="0.64318">
        <ele>188.29884651601</ele>
        <time>2020-10-03T16:53:34.000Z</time>
      </trkpt>
      <trkpt lat="43.66305" lon="0.64314">
        <ele>189</ele>
        <time>2020-10-03T16:53:36.000Z</time>
      </trkpt>
      <trkpt lat="43.66307" lon="0.64311">
        <ele>189</ele>
        <time>2020-10-03T16:53:38.000Z</time>
      </trkpt>
      <trkpt lat="43.66309" lon="0.64309">
        <ele>189</ele>
        <time>2020-10-03T16:53:40.000Z</time>
      </trkpt>
      <trkpt lat="43.6631" lon="0.64305">
        <ele>189.43616977818</ele>
        <time>2020-10-03T16:53:42.000Z</time>
      </trkpt>
      <trkpt lat="43.66311" lon="0.64302">
        <ele>190</ele>
        <time>2020-10-03T16:53:44.000Z</time>
      </trkpt>
      <trkpt lat="43.66313" lon="0.64299">
        <ele>190</ele>
        <time>2020-10-03T16:53:46.000Z</time>
      </trkpt>
      <trkpt lat="43.66315" lon="0.64297">
        <ele>190</ele>
        <time>2020-10-03T16:53:48.000Z</time>
      </trkpt>
      <trkpt lat="43.66316" lon="0.64293">
        <ele>190</ele>
        <time>2020-10-03T16:53:50.000Z</time>
      </trkpt>
      <trkpt lat="43.66317" lon="0.6429">
        <ele>190</ele>
        <time>2020-10-03T16:53:52.000Z</time>
      </trkpt>
      <trkpt lat="43.66318" lon="0.64286">
        <ele>191</ele>
        <time>2020-10-03T16:53:54.000Z</time>
      </trkpt>
      <trkpt lat="43.66319" lon="0.64284">
        <ele>191.90385230769</ele>
        <time>2020-10-03T16:53:56.000Z</time>
      </trkpt>
      <trkpt lat="43.6632" lon="0.6428">
        <ele>193.34884205513</ele>
        <time>2020-10-03T16:53:58.000Z</time>
      </trkpt>
      <trkpt lat="43.66321" lon="0.64277">
        <ele>194</ele>
        <time>2020-10-03T16:54:00.000Z</time>
      </trkpt>
      <trkpt lat="43.66321" lon="0.64273">
        <ele>195</ele>
        <time>2020-10-03T16:54:02.000Z</time>
      </trkpt>
      <trkpt lat="43.66321" lon="0.6427">
        <ele>195</ele>
        <time>2020-10-03T16:54:04.000Z</time>
      </trkpt>
      <trkpt lat="43.66325" lon="0.64258">
        <ele>195</ele>
        <time>2020-10-03T16:54:12.000Z</time>
      </trkpt>
      <trkpt lat="43.66326" lon="0.64254">
        <ele>195.40367090986</ele>
        <time>2020-10-03T16:54:14.000Z</time>
      </trkpt>
      <trkpt lat="43.66327" lon="0.64251">
        <ele>196</ele>
        <time>2020-10-03T16:54:16.000Z</time>
      </trkpt>
      <trkpt lat="43.6633" lon="0.64248">
        <ele>196.32258419698</ele>
        <time>2020-10-03T16:54:18.000Z</time>
      </trkpt>
      <trkpt lat="43.66331" lon="0.64245">
        <ele>197</ele>
        <time>2020-10-03T16:54:20.000Z</time>
      </trkpt>
      <trkpt lat="43.66333" lon="0.64243">
        <ele>198</ele>
        <time>2020-10-03T16:54:22.000Z</time>
      </trkpt>
      <trkpt lat="43.66335" lon="0.6424">
        <ele>198.38554068225</ele>
        <time>2020-10-03T16:54:24.000Z</time>
      </trkpt>
      <trkpt lat="43.66336" lon="0.64237">
        <ele>199</ele>
        <time>2020-10-03T16:54:26.000Z</time>
      </trkpt>
      <trkpt lat="43.66338" lon="0.64234">
        <ele>200</ele>
        <time>2020-10-03T16:54:28.000Z</time>
      </trkpt>
      <trkpt lat="43.6634" lon="0.64231">
        <ele>200.29824167434</ele>
        <time>2020-10-03T16:54:30.000Z</time>
      </trkpt>
      <trkpt lat="43.66341" lon="0.64227">
        <ele>201</ele>
        <time>2020-10-03T16:54:32.000Z</time>
      </trkpt>
      <trkpt lat="43.66342" lon="0.64224">
        <ele>201</ele>
        <time>2020-10-03T16:54:34.000Z</time>
      </trkpt>
      <trkpt lat="43.66344" lon="0.64221">
        <ele>201.35632420662</ele>
        <time>2020-10-03T16:54:36.000Z</time>
      </trkpt>
      <trkpt lat="43.66345" lon="0.64218">
        <ele>202</ele>
        <time>2020-10-03T16:54:38.000Z</time>
      </trkpt>
      <trkpt lat="43.66346" lon="0.64214">
        <ele>202</ele>
        <time>2020-10-03T16:54:40.000Z</time>
      </trkpt>
      <trkpt lat="43.66348" lon="0.64211">
        <ele>202</ele>
        <time>2020-10-03T16:54:42.000Z</time>
      </trkpt>
      <trkpt lat="43.66349" lon="0.64208">
        <ele>203</ele>
        <time>2020-10-03T16:54:44.000Z</time>
      </trkpt>
      <trkpt lat="43.66351" lon="0.64205">
        <ele>203</ele>
        <time>2020-10-03T16:54:46.000Z</time>
      </trkpt>
      <trkpt lat="43.66353" lon="0.64202">
        <ele>203</ele>
        <time>2020-10-03T16:54:48.000Z</time>
      </trkpt>
      <trkpt lat="43.66353" lon="0.64199">
        <ele>203</ele>
        <time>2020-10-03T16:54:50.000Z</time>
      </trkpt>
      <trkpt lat="43.66355" lon="0.64196">
        <ele>204</ele>
        <time>2020-10-03T16:54:52.000Z</time>
      </trkpt>
      <trkpt lat="43.66357" lon="0.64192">
        <ele>204</ele>
        <time>2020-10-03T16:54:54.000Z</time>
      </trkpt>
      <trkpt lat="43.66357" lon="0.64188">
        <ele>205</ele>
        <time>2020-10-03T16:54:56.000Z</time>
      </trkpt>
      <trkpt lat="43.66358" lon="0.64184">
        <ele>205.41758798211</ele>
        <time>2020-10-03T16:54:58.000Z</time>
      </trkpt>
      <trkpt lat="43.66358" lon="0.6418">
        <ele>206</ele>
        <time>2020-10-03T16:55:00.000Z</time>
      </trkpt>
      <trkpt lat="43.66359" lon="0.64176">
        <ele>205</ele>
        <time>2020-10-03T16:55:02.000Z</time>
      </trkpt>
      <trkpt lat="43.66359" lon="0.64171">
        <ele>205</ele>
        <time>2020-10-03T16:55:04.000Z</time>
      </trkpt>
      <trkpt lat="43.66359" lon="0.64166">
        <ele>205</ele>
        <time>2020-10-03T16:55:06.000Z</time>
      </trkpt>
      <trkpt lat="43.66359" lon="0.64162">
        <ele>205</ele>
        <time>2020-10-03T16:55:08.000Z</time>
      </trkpt>
      <trkpt lat="43.6636" lon="0.64158">
        <ele>206</ele>
        <time>2020-10-03T16:55:10.000Z</time>
      </trkpt>
      <trkpt lat="43.6636" lon="0.64154">
        <ele>206.41228119421</ele>
        <time>2020-10-03T16:55:12.000Z</time>
      </trkpt>
      <trkpt lat="43.66361" lon="0.6415">
        <ele>207</ele>
        <time>2020-10-03T16:55:14.000Z</time>
      </trkpt>
      <trkpt lat="43.6636" lon="0.64147">
        <ele>207</ele>
        <time>2020-10-03T16:55:16.000Z</time>
      </trkpt>
      <trkpt lat="43.66361" lon="0.64143">
        <ele>207</ele>
        <time>2020-10-03T16:55:18.000Z</time>
      </trkpt>
      <trkpt lat="43.6636" lon="0.64139">
        <ele>207</ele>
        <time>2020-10-03T16:55:20.000Z</time>
      </trkpt>
      <trkpt lat="43.66362" lon="0.64136">
        <ele>207</ele>
        <time>2020-10-03T16:55:22.000Z</time>
      </trkpt>
      <trkpt lat="43.66362" lon="0.64132">
        <ele>207</ele>
        <time>2020-10-03T16:55:24.000Z</time>
      </trkpt>
      <trkpt lat="43.66363" lon="0.64128">
        <ele>208</ele>
        <time>2020-10-03T16:55:26.000Z</time>
      </trkpt>
      <trkpt lat="43.66364" lon="0.64125">
        <ele>208</ele>
        <time>2020-10-03T16:55:28.000Z</time>
      </trkpt>
      <trkpt lat="43.66365" lon="0.64121">
        <ele>208</ele>
        <time>2020-10-03T16:55:30.000Z</time>
      </trkpt>
      <trkpt lat="43.66366" lon="0.64118">
        <ele>208</ele>
        <time>2020-10-03T16:55:32.000Z</time>
      </trkpt>
      <trkpt lat="43.66367" lon="0.64116">
        <ele>210</ele>
        <time>2020-10-03T16:55:34.000Z</time>
      </trkpt>
      <trkpt lat="43.66368" lon="0.64113">
        <ele>210</ele>
        <time>2020-10-03T16:55:36.000Z</time>
      </trkpt>
      <trkpt lat="43.6637" lon="0.6411">
        <ele>212</ele>
        <time>2020-10-03T16:55:38.000Z</time>
      </trkpt>
      <trkpt lat="43.66371" lon="0.64107">
        <ele>212</ele>
        <time>2020-10-03T16:55:40.000Z</time>
      </trkpt>
      <trkpt lat="43.66373" lon="0.64104">
        <ele>212</ele>
        <time>2020-10-03T16:55:42.000Z</time>
      </trkpt>
      <trkpt lat="43.66375" lon="0.64102">
        <ele>212</ele>
        <time>2020-10-03T16:55:44.000Z</time>
      </trkpt>
      <trkpt lat="43.66376" lon="0.64098">
        <ele>213</ele>
        <time>2020-10-03T16:55:46.000Z</time>
      </trkpt>
      <trkpt lat="43.66378" lon="0.64094">
        <ele>213.32222095802</ele>
        <time>2020-10-03T16:55:48.000Z</time>
      </trkpt>
      <trkpt lat="43.66378" lon="0.64091">
        <ele>214</ele>
        <time>2020-10-03T16:55:50.000Z</time>
      </trkpt>
      <trkpt lat="43.66377" lon="0.64086">
        <ele>214.4188018292</ele>
        <time>2020-10-03T16:55:52.000Z</time>
      </trkpt>
      <trkpt lat="43.66377" lon="0.64083">
        <ele>215</ele>
        <time>2020-10-03T16:55:53.000Z</time>
      </trkpt>
      <trkpt lat="43.66375" lon="0.6408">
        <ele>215</ele>
        <time>2020-10-03T16:55:54.000Z</time>
      </trkpt>
      <trkpt lat="43.66374" lon="0.64077">
        <ele>215</ele>
        <time>2020-10-03T16:55:55.000Z</time>
      </trkpt>
      <trkpt lat="43.66373" lon="0.64075">
        <ele>215</ele>
        <time>2020-10-03T16:55:56.000Z</time>
      </trkpt>
      <trkpt lat="43.66372" lon="0.64071">
        <ele>215</ele>
        <time>2020-10-03T16:55:57.000Z</time>
      </trkpt>
      <trkpt lat="43.66372" lon="0.64068">
        <ele>215</ele>
        <time>2020-10-03T16:55:58.000Z</time>
      </trkpt>
      <trkpt lat="43.66371" lon="0.64065">
        <ele>215</ele>
        <time>2020-10-03T16:55:59.000Z</time>
      </trkpt>
      <trkpt lat="43.6637" lon="0.64062">
        <ele>215</ele>
        <time>2020-10-03T16:56:00.000Z</time>
      </trkpt>
      <trkpt lat="43.66369" lon="0.64058">
        <ele>215</ele>
        <time>2020-10-03T16:56:01.000Z</time>
      </trkpt>
      <trkpt lat="43.66368" lon="0.64055">
        <ele>215</ele>
        <time>2020-10-03T16:56:02.000Z</time>
      </trkpt>
      <trkpt lat="43.66366" lon="0.64052">
        <ele>215</ele>
        <time>2020-10-03T16:56:03.000Z</time>
      </trkpt>
      <trkpt lat="43.66364" lon="0.64049">
        <ele>215</ele>
        <time>2020-10-03T16:56:04.000Z</time>
      </trkpt>
      <trkpt lat="43.66363" lon="0.64046">
        <ele>214.574074952</ele>
        <time>2020-10-03T16:56:05.000Z</time>
      </trkpt>
      <trkpt lat="43.66361" lon="0.64042">
        <ele>214</ele>
        <time>2020-10-03T16:56:06.000Z</time>
      </trkpt>
      <trkpt lat="43.66359" lon="0.64039">
        <ele>214</ele>
        <time>2020-10-03T16:56:07.000Z</time>
      </trkpt>
      <trkpt lat="43.66357" lon="0.64036">
        <ele>214</ele>
        <time>2020-10-03T16:56:08.000Z</time>
      </trkpt>
      <trkpt lat="43.66355" lon="0.64033">
        <ele>214.28712645426</ele>
        <time>2020-10-03T16:56:09.000Z</time>
      </trkpt>
      <trkpt lat="43.66353" lon="0.6403">
        <ele>215</ele>
        <time>2020-10-03T16:56:10.000Z</time>
      </trkpt>
      <trkpt lat="43.66352" lon="0.64027">
        <ele>215</ele>
        <time>2020-10-03T16:56:11.000Z</time>
      </trkpt>
      <trkpt lat="43.6635" lon="0.64024">
        <ele>215</ele>
        <time>2020-10-03T16:56:12.000Z</time>
      </trkpt>
      <trkpt lat="43.66348" lon="0.64021">
        <ele>215</ele>
        <time>2020-10-03T16:56:13.000Z</time>
      </trkpt>
      <trkpt lat="43.66347" lon="0.64018">
        <ele>215</ele>
        <time>2020-10-03T16:56:14.000Z</time>
      </trkpt>
      <trkpt lat="43.66347" lon="0.64015">
        <ele>215</ele>
        <time>2020-10-03T16:56:15.000Z</time>
      </trkpt>
      <trkpt lat="43.66346" lon="0.64012">
        <ele>215</ele>
        <time>2020-10-03T16:56:16.000Z</time>
      </trkpt>
      <trkpt lat="43.66346" lon="0.64009">
        <ele>215</ele>
        <time>2020-10-03T16:56:17.000Z</time>
      </trkpt>
      <trkpt lat="43.66347" lon="0.64006">
        <ele>215</ele>
        <time>2020-10-03T16:56:18.000Z</time>
      </trkpt>
      <trkpt lat="43.66347" lon="0.64003">
        <ele>215.67605938506</ele>
        <time>2020-10-03T16:56:19.000Z</time>
      </trkpt>
      <trkpt lat="43.66347" lon="0.64">
        <ele>217</ele>
        <time>2020-10-03T16:56:20.000Z</time>
      </trkpt>
      <trkpt lat="43.66348" lon="0.63997">
        <ele>217</ele>
        <time>2020-10-03T16:56:21.000Z</time>
      </trkpt>
      <trkpt lat="43.66347" lon="0.63994">
        <ele>217</ele>
        <time>2020-10-03T16:56:22.000Z</time>
      </trkpt>
      <trkpt lat="43.66347" lon="0.63992">
        <ele>217</ele>
        <time>2020-10-03T16:56:23.000Z</time>
      </trkpt>
      <trkpt lat="43.66347" lon="0.63989">
        <ele>217</ele>
        <time>2020-10-03T16:56:24.000Z</time>
      </trkpt>
      <trkpt lat="43.66347" lon="0.63987">
        <ele>217</ele>
        <time>2020-10-03T16:56:25.000Z</time>
      </trkpt>
      <trkpt lat="43.66346" lon="0.63982">
        <ele>217.27193110495</ele>
        <time>2020-10-03T16:56:27.000Z</time>
      </trkpt>
      <trkpt lat="43.66344" lon="0.63979">
        <ele>218</ele>
        <time>2020-10-03T16:56:28.000Z</time>
      </trkpt>
      <trkpt lat="43.66342" lon="0.63976">
        <ele>218</ele>
        <time>2020-10-03T16:56:29.000Z</time>
      </trkpt>
      <trkpt lat="43.6634" lon="0.63973">
        <ele>218</ele>
        <time>2020-10-03T16:56:30.000Z</time>
      </trkpt>
      <trkpt lat="43.66338" lon="0.63971">
        <ele>218</ele>
        <time>2020-10-03T16:56:31.000Z</time>
      </trkpt>
      <trkpt lat="43.66336" lon="0.63967">
        <ele>217.61627993511</ele>
        <time>2020-10-03T16:56:32.000Z</time>
      </trkpt>
      <trkpt lat="43.66335" lon="0.63964">
        <ele>217</ele>
        <time>2020-10-03T16:56:33.000Z</time>
      </trkpt>
      <trkpt lat="43.66335" lon="0.63961">
        <ele>217</ele>
        <time>2020-10-03T16:56:34.000Z</time>
      </trkpt>
      <trkpt lat="43.66335" lon="0.63957">
        <ele>217</ele>
        <time>2020-10-03T16:56:35.000Z</time>
      </trkpt>
      <trkpt lat="43.66335" lon="0.63954">
        <ele>216.69317818182</ele>
        <time>2020-10-03T16:56:36.000Z</time>
      </trkpt>
      <trkpt lat="43.66335" lon="0.6395">
        <ele>216</ele>
        <time>2020-10-03T16:56:37.000Z</time>
      </trkpt>
      <trkpt lat="43.66334" lon="0.63946">
        <ele>216</ele>
        <time>2020-10-03T16:56:38.000Z</time>
      </trkpt>
      <trkpt lat="43.66334" lon="0.63943">
        <ele>216</ele>
        <time>2020-10-03T16:56:39.000Z</time>
      </trkpt>
      <trkpt lat="43.66333" lon="0.63939">
        <ele>216</ele>
        <time>2020-10-03T16:56:40.000Z</time>
      </trkpt>
      <trkpt lat="43.66332" lon="0.63936">
        <ele>216</ele>
        <time>2020-10-03T16:56:41.000Z</time>
      </trkpt>
      <trkpt lat="43.66331" lon="0.63931">
        <ele>216</ele>
        <time>2020-10-03T16:56:42.000Z</time>
      </trkpt>
      <trkpt lat="43.66329" lon="0.63927">
        <ele>216</ele>
        <time>2020-10-03T16:56:43.000Z</time>
      </trkpt>
      <trkpt lat="43.66328" lon="0.63923">
        <ele>214.67010635771</ele>
        <time>2020-10-03T16:56:44.000Z</time>
      </trkpt>
      <trkpt lat="43.66326" lon="0.6392">
        <ele>213</ele>
        <time>2020-10-03T16:56:45.000Z</time>
      </trkpt>
      <trkpt lat="43.66324" lon="0.63916">
        <ele>213</ele>
        <time>2020-10-03T16:56:46.000Z</time>
      </trkpt>
      <trkpt lat="43.66322" lon="0.63913">
        <ele>213</ele>
        <time>2020-10-03T16:56:47.000Z</time>
      </trkpt>
      <trkpt lat="43.6632" lon="0.63909">
        <ele>213</ele>
        <time>2020-10-03T16:56:48.000Z</time>
      </trkpt>
      <trkpt lat="43.66319" lon="0.63905">
        <ele>212.1090915438</ele>
        <time>2020-10-03T16:56:49.000Z</time>
      </trkpt>
      <trkpt lat="43.66317" lon="0.639">
        <ele>211</ele>
        <time>2020-10-03T16:56:50.000Z</time>
      </trkpt>
      <trkpt lat="43.66317" lon="0.63895">
        <ele>211</ele>
        <time>2020-10-03T16:56:51.000Z</time>
      </trkpt>
      <trkpt lat="43.66316" lon="0.63891">
        <ele>211</ele>
        <time>2020-10-03T16:56:52.000Z</time>
      </trkpt>
      <trkpt lat="43.66317" lon="0.63887">
        <ele>210.30769230769</ele>
        <time>2020-10-03T16:56:53.000Z</time>
      </trkpt>
      <trkpt lat="43.66317" lon="0.63882">
        <ele>209</ele>
        <time>2020-10-03T16:56:54.000Z</time>
      </trkpt>
      <trkpt lat="43.66318" lon="0.63879">
        <ele>209</ele>
        <time>2020-10-03T16:56:55.000Z</time>
      </trkpt>
      <trkpt lat="43.66321" lon="0.63872">
        <ele>208</ele>
        <time>2020-10-03T16:56:57.000Z</time>
      </trkpt>
      <trkpt lat="43.66326" lon="0.63861">
        <ele>207</ele>
        <time>2020-10-03T16:57:00.000Z</time>
      </trkpt>
      <trkpt lat="43.66331" lon="0.63851">
        <ele>207</ele>
        <time>2020-10-03T16:57:03.000Z</time>
      </trkpt>
      <trkpt lat="43.66333" lon="0.63847">
        <ele>207</ele>
        <time>2020-10-03T16:57:04.000Z</time>
      </trkpt>
      <trkpt lat="43.66335" lon="0.63844">
        <ele>207</ele>
        <time>2020-10-03T16:57:05.000Z</time>
      </trkpt>
      <trkpt lat="43.66337" lon="0.63841">
        <ele>207</ele>
        <time>2020-10-03T16:57:06.000Z</time>
      </trkpt>
      <trkpt lat="43.66338" lon="0.63839">
        <ele>207</ele>
        <time>2020-10-03T16:57:07.000Z</time>
      </trkpt>
      <trkpt lat="43.6634" lon="0.63836">
        <ele>207</ele>
        <time>2020-10-03T16:57:08.000Z</time>
      </trkpt>
      <trkpt lat="43.66342" lon="0.63833">
        <ele>207</ele>
        <time>2020-10-03T16:57:09.000Z</time>
      </trkpt>
      <trkpt lat="43.66343" lon="0.6383">
        <ele>207</ele>
        <time>2020-10-03T16:57:10.000Z</time>
      </trkpt>
      <trkpt lat="43.66345" lon="0.63828">
        <ele>207</ele>
        <time>2020-10-03T16:57:11.000Z</time>
      </trkpt>
      <trkpt lat="43.66347" lon="0.63824">
        <ele>206.68817441092</ele>
        <time>2020-10-03T16:57:12.000Z</time>
      </trkpt>
      <trkpt lat="43.66349" lon="0.63821">
        <ele>206</ele>
        <time>2020-10-03T16:57:13.000Z</time>
      </trkpt>
      <trkpt lat="43.66351" lon="0.63818">
        <ele>206</ele>
        <time>2020-10-03T16:57:14.000Z</time>
      </trkpt>
      <trkpt lat="43.66353" lon="0.63815">
        <ele>206</ele>
        <time>2020-10-03T16:57:15.000Z</time>
      </trkpt>
      <trkpt lat="43.66355" lon="0.63812">
        <ele>206</ele>
        <time>2020-10-03T16:57:16.000Z</time>
      </trkpt>
      <trkpt lat="43.66357" lon="0.63809">
        <ele>206</ele>
        <time>2020-10-03T16:57:17.000Z</time>
      </trkpt>
      <trkpt lat="43.66358" lon="0.63806">
        <ele>205.64102269557</ele>
        <time>2020-10-03T16:57:18.000Z</time>
      </trkpt>
      <trkpt lat="43.66359" lon="0.63803">
        <ele>205</ele>
        <time>2020-10-03T16:57:19.000Z</time>
      </trkpt>
      <trkpt lat="43.66361" lon="0.638">
        <ele>205</ele>
        <time>2020-10-03T16:57:20.000Z</time>
      </trkpt>
      <trkpt lat="43.66363" lon="0.63796">
        <ele>205</ele>
        <time>2020-10-03T16:57:21.000Z</time>
      </trkpt>
      <trkpt lat="43.66364" lon="0.63793">
        <ele>205</ele>
        <time>2020-10-03T16:57:22.000Z</time>
      </trkpt>
      <trkpt lat="43.66366" lon="0.63788">
        <ele>204.18681164109</ele>
        <time>2020-10-03T16:57:23.000Z</time>
      </trkpt>
      <trkpt lat="43.66367" lon="0.63784">
        <ele>203</ele>
        <time>2020-10-03T16:57:24.000Z</time>
      </trkpt>
      <trkpt lat="43.66369" lon="0.6378">
        <ele>203</ele>
        <time>2020-10-03T16:57:25.000Z</time>
      </trkpt>
      <trkpt lat="43.6637" lon="0.63776">
        <ele>202.10280642151</ele>
        <time>2020-10-03T16:57:26.000Z</time>
      </trkpt>
      <trkpt lat="43.66372" lon="0.63773">
        <ele>201</ele>
        <time>2020-10-03T16:57:27.000Z</time>
      </trkpt>
      <trkpt lat="43.66374" lon="0.63769">
        <ele>201</ele>
        <time>2020-10-03T16:57:28.000Z</time>
      </trkpt>
      <trkpt lat="43.66376" lon="0.63766">
        <ele>199.93022563553</ele>
        <time>2020-10-03T16:57:29.000Z</time>
      </trkpt>
      <trkpt lat="43.66378" lon="0.63762">
        <ele>197</ele>
        <time>2020-10-03T16:57:30.000Z</time>
      </trkpt>
      <trkpt lat="43.6638" lon="0.63759">
        <ele>197</ele>
        <time>2020-10-03T16:57:31.000Z</time>
      </trkpt>
      <trkpt lat="43.66382" lon="0.63756">
        <ele>196.58064604924</ele>
        <time>2020-10-03T16:57:32.000Z</time>
      </trkpt>
      <trkpt lat="43.66384" lon="0.63752">
        <ele>196</ele>
        <time>2020-10-03T16:57:33.000Z</time>
      </trkpt>
      <trkpt lat="43.66386" lon="0.63749">
        <ele>196</ele>
        <time>2020-10-03T16:57:34.000Z</time>
      </trkpt>
      <trkpt lat="43.66388" lon="0.63745">
        <ele>195.73333143702</ele>
        <time>2020-10-03T16:57:35.000Z</time>
      </trkpt>
      <trkpt lat="43.6639" lon="0.63741">
        <ele>194</ele>
        <time>2020-10-03T16:57:36.000Z</time>
      </trkpt>
      <trkpt lat="43.66392" lon="0.63738">
        <ele>194</ele>
        <time>2020-10-03T16:57:37.000Z</time>
      </trkpt>
      <trkpt lat="43.66394" lon="0.63734">
        <ele>194</ele>
        <time>2020-10-03T16:57:38.000Z</time>
      </trkpt>
      <trkpt lat="43.66396" lon="0.63731">
        <ele>194</ele>
        <time>2020-10-03T16:57:39.000Z</time>
      </trkpt>
      <trkpt lat="43.66398" lon="0.63728">
        <ele>192.97142543673</ele>
        <time>2020-10-03T16:57:40.000Z</time>
      </trkpt>
      <trkpt lat="43.66399" lon="0.63725">
        <ele>191</ele>
        <time>2020-10-03T16:57:41.000Z</time>
      </trkpt>
      <trkpt lat="43.66401" lon="0.63721">
        <ele>191</ele>
        <time>2020-10-03T16:57:42.000Z</time>
      </trkpt>
      <trkpt lat="43.66403" lon="0.63718">
        <ele>190.68085569944</ele>
        <time>2020-10-03T16:57:43.000Z</time>
      </trkpt>
      <trkpt lat="43.66405" lon="0.63715">
        <ele>190</ele>
        <time>2020-10-03T16:57:44.000Z</time>
      </trkpt>
      <trkpt lat="43.66407" lon="0.63712">
        <ele>190</ele>
        <time>2020-10-03T16:57:45.000Z</time>
      </trkpt>
      <trkpt lat="43.66417" lon="0.63704">
        <ele>188.03124</ele>
        <time>2020-10-03T16:57:49.000Z</time>
      </trkpt>
      <trkpt lat="43.66422" lon="0.63701">
        <ele>186</ele>
        <time>2020-10-03T16:57:51.000Z</time>
      </trkpt>
      <trkpt lat="43.66423" lon="0.637">
        <ele>186</ele>
        <time>2020-10-03T16:57:52.000Z</time>
      </trkpt>
      <trkpt lat="43.66425" lon="0.63699">
        <ele>185</ele>
        <time>2020-10-03T16:57:53.000Z</time>
      </trkpt>
      <trkpt lat="43.6643" lon="0.63697">
        <ele>184.36986253332</ele>
        <time>2020-10-03T16:57:55.000Z</time>
      </trkpt>
      <trkpt lat="43.66433" lon="0.63695">
        <ele>183</ele>
        <time>2020-10-03T16:57:56.000Z</time>
      </trkpt>
      <trkpt lat="43.66436" lon="0.63695">
        <ele>182.5</ele>
        <time>2020-10-03T16:57:57.000Z</time>
      </trkpt>
      <trkpt lat="43.66439" lon="0.63693">
        <ele>182</ele>
        <time>2020-10-03T16:57:58.000Z</time>
      </trkpt>
      <trkpt lat="43.66442" lon="0.6369">
        <ele>181.62121094583</ele>
        <time>2020-10-03T16:57:59.000Z</time>
      </trkpt>
      <trkpt lat="43.66449" lon="0.63685">
        <ele>180</ele>
        <time>2020-10-03T16:58:01.000Z</time>
      </trkpt>
      <trkpt lat="43.66461" lon="0.63678">
        <ele>178</ele>
        <time>2020-10-03T16:58:04.000Z</time>
      </trkpt>
      <trkpt lat="43.66471" lon="0.6367">
        <ele>175.16279692802</ele>
        <time>2020-10-03T16:58:07.000Z</time>
      </trkpt>
      <trkpt lat="43.6648" lon="0.63661">
        <ele>173</ele>
        <time>2020-10-03T16:58:11.000Z</time>
      </trkpt>
      <trkpt lat="43.66481" lon="0.63645">
        <ele>172</ele>
        <time>2020-10-03T16:58:16.000Z</time>
      </trkpt>
      <trkpt lat="43.66476" lon="0.63634">
        <ele>171</ele>
        <time>2020-10-03T16:58:20.000Z</time>
      </trkpt>
      <trkpt lat="43.66471" lon="0.63623">
        <ele>170</ele>
        <time>2020-10-03T16:58:23.000Z</time>
      </trkpt>
      <trkpt lat="43.66468" lon="0.63611">
        <ele>170</ele>
        <time>2020-10-03T16:58:27.000Z</time>
      </trkpt>
      <trkpt lat="43.66467" lon="0.63596">
        <ele>169</ele>
        <time>2020-10-03T16:58:31.000Z</time>
      </trkpt>
      <trkpt lat="43.66467" lon="0.63582">
        <ele>169</ele>
        <time>2020-10-03T16:58:34.000Z</time>
      </trkpt>
      <trkpt lat="43.66466" lon="0.63569">
        <ele>168</ele>
        <time>2020-10-03T16:58:37.000Z</time>
      </trkpt>
      <trkpt lat="43.66462" lon="0.63556">
        <ele>168</ele>
        <time>2020-10-03T16:58:41.000Z</time>
      </trkpt>
      <trkpt lat="43.66459" lon="0.63549">
        <ele>168</ele>
        <time>2020-10-03T16:58:43.000Z</time>
      </trkpt>
      <trkpt lat="43.66458" lon="0.63546">
        <ele>167.82417644246</ele>
        <time>2020-10-03T16:58:44.000Z</time>
      </trkpt>
      <trkpt lat="43.66453" lon="0.63532">
        <ele>166</ele>
        <time>2020-10-03T16:58:48.000Z</time>
      </trkpt>
      <trkpt lat="43.66449" lon="0.63519">
        <ele>166</ele>
        <time>2020-10-03T16:58:52.000Z</time>
      </trkpt>
      <trkpt lat="43.66446" lon="0.6351">
        <ele>166</ele>
        <time>2020-10-03T16:58:55.000Z</time>
      </trkpt>
      <trkpt lat="43.66445" lon="0.63507">
        <ele>166</ele>
        <time>2020-10-03T16:58:57.000Z</time>
      </trkpt>
      <trkpt lat="43.66443" lon="0.63504">
        <ele>165.63094857143</ele>
        <time>2020-10-03T16:58:59.000Z</time>
      </trkpt>
      <trkpt lat="43.66442" lon="0.63502">
        <ele>165</ele>
        <time>2020-10-03T16:59:02.000Z</time>
      </trkpt>
      <trkpt lat="43.6644" lon="0.63499">
        <ele>164</ele>
        <time>2020-10-03T16:59:11.000Z</time>
      </trkpt>
      <trkpt lat="43.66439" lon="0.63496">
        <ele>164.38709810614</ele>
        <time>2020-10-03T16:59:13.000Z</time>
      </trkpt>
      <trkpt lat="43.66437" lon="0.63493">
        <ele>165</ele>
        <time>2020-10-03T16:59:15.000Z</time>
      </trkpt>
      <trkpt lat="43.66436" lon="0.63491">
        <ele>165</ele>
        <time>2020-10-03T16:59:17.000Z</time>
      </trkpt>
      <trkpt lat="43.66435" lon="0.63489">
        <ele>164.55555699214</ele>
        <time>2020-10-03T16:59:19.000Z</time>
      </trkpt>
      <trkpt lat="43.66433" lon="0.63486">
        <ele>164</ele>
        <time>2020-10-03T16:59:22.000Z</time>
      </trkpt>
      <trkpt lat="43.66432" lon="0.63484">
        <ele>164</ele>
        <time>2020-10-03T16:59:24.000Z</time>
      </trkpt>
      <trkpt lat="43.6643" lon="0.63482">
        <ele>164</ele>
        <time>2020-10-03T16:59:26.000Z</time>
      </trkpt>
      <trkpt lat="43.66429" lon="0.63479">
        <ele>164</ele>
        <time>2020-10-03T16:59:28.000Z</time>
      </trkpt>
      <trkpt lat="43.66428" lon="0.63477">
        <ele>164</ele>
        <time>2020-10-03T16:59:30.000Z</time>
      </trkpt>
      <trkpt lat="43.66426" lon="0.63474">
        <ele>164</ele>
        <time>2020-10-03T16:59:32.000Z</time>
      </trkpt>
      <trkpt lat="43.66425" lon="0.6347">
        <ele>163</ele>
        <time>2020-10-03T16:59:34.000Z</time>
      </trkpt>
      <trkpt lat="43.66422" lon="0.63467">
        <ele>163</ele>
        <time>2020-10-03T16:59:36.000Z</time>
      </trkpt>
      <trkpt lat="43.66421" lon="0.63465">
        <ele>163</ele>
        <time>2020-10-03T16:59:37.000Z</time>
      </trkpt>
      <trkpt lat="43.6642" lon="0.63462">
        <ele>163</ele>
        <time>2020-10-03T16:59:38.000Z</time>
      </trkpt>
      <trkpt lat="43.66421" lon="0.63449">
        <ele>164</ele>
        <time>2020-10-03T16:59:44.000Z</time>
      </trkpt>
      <trkpt lat="43.66422" lon="0.63437">
        <ele>164</ele>
        <time>2020-10-03T16:59:51.000Z</time>
      </trkpt>
      <trkpt lat="43.66423" lon="0.63422">
        <ele>163</ele>
        <time>2020-10-03T16:59:57.000Z</time>
      </trkpt>
      <trkpt lat="43.66421" lon="0.63413">
        <ele>163</ele>
        <time>2020-10-03T17:00:01.000Z</time>
      </trkpt>
      <trkpt lat="43.66417" lon="0.63408">
        <ele>163</ele>
        <time>2020-10-03T17:00:04.000Z</time>
      </trkpt>
      <trkpt lat="43.66417" lon="0.63398">
        <ele>163</ele>
        <time>2020-10-03T17:00:09.000Z</time>
      </trkpt>
      <trkpt lat="43.66417" lon="0.63394">
        <ele>163</ele>
        <time>2020-10-03T17:00:11.000Z</time>
      </trkpt>
      <trkpt lat="43.66419" lon="0.63394">
        <ele>161</ele>
        <time>2020-10-03T17:00:34.000Z</time>
      </trkpt>
      <trkpt lat="43.66417" lon="0.63391">
        <ele>161</ele>
        <time>2020-10-03T17:00:39.000Z</time>
      </trkpt>
      <trkpt lat="43.66416" lon="0.63388">
        <ele>161</ele>
        <time>2020-10-03T17:00:41.000Z</time>
      </trkpt>
      <trkpt lat="43.66416" lon="0.63384">
        <ele>161</ele>
        <time>2020-10-03T17:00:43.000Z</time>
      </trkpt>
      <trkpt lat="43.66416" lon="0.63381">
        <ele>161</ele>
        <time>2020-10-03T17:00:45.000Z</time>
      </trkpt>
      <trkpt lat="43.66415" lon="0.63377">
        <ele>161</ele>
        <time>2020-10-03T17:00:47.000Z</time>
      </trkpt>
      <trkpt lat="43.66416" lon="0.63363">
        <ele>161.28243961542</ele>
        <time>2020-10-03T17:00:54.000Z</time>
      </trkpt>
      <trkpt lat="43.66414" lon="0.6335">
        <ele>162</ele>
        <time>2020-10-03T17:00:59.000Z</time>
      </trkpt>
      <trkpt lat="43.66414" lon="0.63348">
        <ele>162</ele>
        <time>2020-10-03T17:01:00.000Z</time>
      </trkpt>
      <trkpt lat="43.66415" lon="0.63345">
        <ele>163</ele>
        <time>2020-10-03T17:01:02.000Z</time>
      </trkpt>
      <trkpt lat="43.66415" lon="0.63341">
        <ele>163</ele>
        <time>2020-10-03T17:01:04.000Z</time>
      </trkpt>
      <trkpt lat="43.66416" lon="0.63337">
        <ele>163</ele>
        <time>2020-10-03T17:01:06.000Z</time>
      </trkpt>
      <trkpt lat="43.66416" lon="0.63333">
        <ele>163</ele>
        <time>2020-10-03T17:01:08.000Z</time>
      </trkpt>
      <trkpt lat="43.66416" lon="0.63328">
        <ele>163</ele>
        <time>2020-10-03T17:01:10.000Z</time>
      </trkpt>
      <trkpt lat="43.66415" lon="0.63324">
        <ele>163</ele>
        <time>2020-10-03T17:01:12.000Z</time>
      </trkpt>
      <trkpt lat="43.66416" lon="0.6332">
        <ele>164</ele>
        <time>2020-10-03T17:01:14.000Z</time>
      </trkpt>
      <trkpt lat="43.66417" lon="0.63316">
        <ele>164</ele>
        <time>2020-10-03T17:01:16.000Z</time>
      </trkpt>
      <trkpt lat="43.66417" lon="0.63313">
        <ele>164</ele>
        <time>2020-10-03T17:01:17.000Z</time>
      </trkpt>
      <trkpt lat="43.66417" lon="0.63309">
        <ele>164</ele>
        <time>2020-10-03T17:01:19.000Z</time>
      </trkpt>
      <trkpt lat="43.66417" lon="0.63305">
        <ele>165</ele>
        <time>2020-10-03T17:01:21.000Z</time>
      </trkpt>
      <trkpt lat="43.66418" lon="0.63301">
        <ele>165</ele>
        <time>2020-10-03T17:01:23.000Z</time>
      </trkpt>
      <trkpt lat="43.66419" lon="0.63298">
        <ele>165</ele>
        <time>2020-10-03T17:01:25.000Z</time>
      </trkpt>
      <trkpt lat="43.66419" lon="0.63293">
        <ele>165</ele>
        <time>2020-10-03T17:01:27.000Z</time>
      </trkpt>
      <trkpt lat="43.6642" lon="0.63289">
        <ele>165</ele>
        <time>2020-10-03T17:01:29.000Z</time>
      </trkpt>
      <trkpt lat="43.66421" lon="0.63286">
        <ele>165.41176839675</ele>
        <time>2020-10-03T17:01:31.000Z</time>
      </trkpt>
      <trkpt lat="43.66421" lon="0.63282">
        <ele>166</ele>
        <time>2020-10-03T17:01:33.000Z</time>
      </trkpt>
      <trkpt lat="43.66421" lon="0.63278">
        <ele>167</ele>
        <time>2020-10-03T17:01:35.000Z</time>
      </trkpt>
      <trkpt lat="43.66421" lon="0.63274">
        <ele>167.39215932335</ele>
        <time>2020-10-03T17:01:37.000Z</time>
      </trkpt>
      <trkpt lat="43.66421" lon="0.6327">
        <ele>168</ele>
        <time>2020-10-03T17:01:39.000Z</time>
      </trkpt>
      <trkpt lat="43.66422" lon="0.63267">
        <ele>169</ele>
        <time>2020-10-03T17:01:41.000Z</time>
      </trkpt>
      <trkpt lat="43.66422" lon="0.63262">
        <ele>169.22891863549</ele>
        <time>2020-10-03T17:01:43.000Z</time>
      </trkpt>
      <trkpt lat="43.66422" lon="0.63258">
        <ele>170</ele>
        <time>2020-10-03T17:01:45.000Z</time>
      </trkpt>
      <trkpt lat="43.66423" lon="0.63254">
        <ele>170</ele>
        <time>2020-10-03T17:01:47.000Z</time>
      </trkpt>
      <trkpt lat="43.66423" lon="0.6325">
        <ele>170</ele>
        <time>2020-10-03T17:01:49.000Z</time>
      </trkpt>
      <trkpt lat="43.66423" lon="0.63245">
        <ele>171</ele>
        <time>2020-10-03T17:01:51.000Z</time>
      </trkpt>
      <trkpt lat="43.66423" lon="0.63241">
        <ele>171</ele>
        <time>2020-10-03T17:01:53.000Z</time>
      </trkpt>
      <trkpt lat="43.66422" lon="0.63237">
        <ele>171</ele>
        <time>2020-10-03T17:01:55.000Z</time>
      </trkpt>
      <trkpt lat="43.66422" lon="0.63234">
        <ele>171.43820111603</ele>
        <time>2020-10-03T17:01:57.000Z</time>
      </trkpt>
      <trkpt lat="43.66423" lon="0.6322">
        <ele>172</ele>
        <time>2020-10-03T17:02:04.000Z</time>
      </trkpt>
      <trkpt lat="43.66424" lon="0.63215">
        <ele>173</ele>
        <time>2020-10-03T17:02:06.000Z</time>
      </trkpt>
      <trkpt lat="43.66424" lon="0.63212">
        <ele>173</ele>
        <time>2020-10-03T17:02:08.000Z</time>
      </trkpt>
      <trkpt lat="43.66424" lon="0.63208">
        <ele>174</ele>
        <time>2020-10-03T17:02:10.000Z</time>
      </trkpt>
      <trkpt lat="43.66425" lon="0.63205">
        <ele>174</ele>
        <time>2020-10-03T17:02:12.000Z</time>
      </trkpt>
      <trkpt lat="43.66425" lon="0.63201">
        <ele>174</ele>
        <time>2020-10-03T17:02:14.000Z</time>
      </trkpt>
      <trkpt lat="43.66426" lon="0.63197">
        <ele>174.35398330332</ele>
        <time>2020-10-03T17:02:16.000Z</time>
      </trkpt>
      <trkpt lat="43.66425" lon="0.63193">
        <ele>175</ele>
        <time>2020-10-03T17:02:18.000Z</time>
      </trkpt>
      <trkpt lat="43.66425" lon="0.63189">
        <ele>175</ele>
        <time>2020-10-03T17:02:20.000Z</time>
      </trkpt>
      <trkpt lat="43.66425" lon="0.63184">
        <ele>175</ele>
        <time>2020-10-03T17:02:22.000Z</time>
      </trkpt>
      <trkpt lat="43.66426" lon="0.63181">
        <ele>176</ele>
        <time>2020-10-03T17:02:24.000Z</time>
      </trkpt>
      <trkpt lat="43.66428" lon="0.63175">
        <ele>176.37069241379</ele>
        <time>2020-10-03T17:02:27.000Z</time>
      </trkpt>
      <trkpt lat="43.66428" lon="0.63172">
        <ele>177</ele>
        <time>2020-10-03T17:02:29.000Z</time>
      </trkpt>
      <trkpt lat="43.66427" lon="0.63168">
        <ele>178</ele>
        <time>2020-10-03T17:02:31.000Z</time>
      </trkpt>
      <trkpt lat="43.66426" lon="0.63163">
        <ele>178</ele>
        <time>2020-10-03T17:02:34.000Z</time>
      </trkpt>
      <trkpt lat="43.66426" lon="0.63159">
        <ele>178</ele>
        <time>2020-10-03T17:02:36.000Z</time>
      </trkpt>
      <trkpt lat="43.66426" lon="0.63156">
        <ele>178</ele>
        <time>2020-10-03T17:02:38.000Z</time>
      </trkpt>
      <trkpt lat="43.66424" lon="0.63154">
        <ele>178</ele>
        <time>2020-10-03T17:02:41.000Z</time>
      </trkpt>
      <trkpt lat="43.66416" lon="0.63151">
        <ele>178</ele>
        <time>2020-10-03T17:02:46.000Z</time>
      </trkpt>
      <trkpt lat="43.66413" lon="0.6315">
        <ele>178</ele>
        <time>2020-10-03T17:02:48.000Z</time>
      </trkpt>
      <trkpt lat="43.66403" lon="0.63151">
        <ele>178.40322480748</ele>
        <time>2020-10-03T17:02:54.000Z</time>
      </trkpt>
      <trkpt lat="43.66401" lon="0.63152">
        <ele>179</ele>
        <time>2020-10-03T17:02:55.000Z</time>
      </trkpt>
      <trkpt lat="43.66396" lon="0.63154">
        <ele>179</ele>
        <time>2020-10-03T17:02:57.000Z</time>
      </trkpt>
      <trkpt lat="43.66393" lon="0.63155">
        <ele>179</ele>
        <time>2020-10-03T17:02:58.000Z</time>
      </trkpt>
      <trkpt lat="43.6639" lon="0.63157">
        <ele>179</ele>
        <time>2020-10-03T17:02:59.000Z</time>
      </trkpt>
      <trkpt lat="43.66388" lon="0.63159">
        <ele>179</ele>
        <time>2020-10-03T17:03:00.000Z</time>
      </trkpt>
      <trkpt lat="43.66385" lon="0.6316">
        <ele>178.64197784485</ele>
        <time>2020-10-03T17:03:01.000Z</time>
      </trkpt>
      <trkpt lat="43.66383" lon="0.63161">
        <ele>178</ele>
        <time>2020-10-03T17:03:02.000Z</time>
      </trkpt>
      <trkpt lat="43.6638" lon="0.63162">
        <ele>178</ele>
        <time>2020-10-03T17:03:03.000Z</time>
      </trkpt>
      <trkpt lat="43.66377" lon="0.63162">
        <ele>178.79999431115</ele>
        <time>2020-10-03T17:03:04.000Z</time>
      </trkpt>
      <trkpt lat="43.66374" lon="0.63164">
        <ele>180</ele>
        <time>2020-10-03T17:03:05.000Z</time>
      </trkpt>
      <trkpt lat="43.66371" lon="0.63166">
        <ele>180</ele>
        <time>2020-10-03T17:03:06.000Z</time>
      </trkpt>
      <trkpt lat="43.66369" lon="0.63167">
        <ele>180</ele>
        <time>2020-10-03T17:03:07.000Z</time>
      </trkpt>
      <trkpt lat="43.66366" lon="0.63169">
        <ele>180</ele>
        <time>2020-10-03T17:03:08.000Z</time>
      </trkpt>
      <trkpt lat="43.66361" lon="0.63171">
        <ele>180.36936542165</ele>
        <time>2020-10-03T17:03:10.000Z</time>
      </trkpt>
      <trkpt lat="43.66358" lon="0.63172">
        <ele>181</ele>
        <time>2020-10-03T17:03:11.000Z</time>
      </trkpt>
      <trkpt lat="43.66356" lon="0.63173">
        <ele>181</ele>
        <time>2020-10-03T17:03:12.000Z</time>
      </trkpt>
      <trkpt lat="43.66353" lon="0.63175">
        <ele>181</ele>
        <time>2020-10-03T17:03:13.000Z</time>
      </trkpt>
      <trkpt lat="43.6635" lon="0.63176">
        <ele>181</ele>
        <time>2020-10-03T17:03:14.000Z</time>
      </trkpt>
      <trkpt lat="43.66348" lon="0.63176">
        <ele>181</ele>
        <time>2020-10-03T17:03:15.000Z</time>
      </trkpt>
      <trkpt lat="43.66347" lon="0.63177">
        <ele>181.41228119421</ele>
        <time>2020-10-03T17:03:16.000Z</time>
      </trkpt>
      <trkpt lat="43.66344" lon="0.63178">
        <ele>182</ele>
        <time>2020-10-03T17:03:17.000Z</time>
      </trkpt>
      <trkpt lat="43.66342" lon="0.63179">
        <ele>182</ele>
        <time>2020-10-03T17:03:18.000Z</time>
      </trkpt>
      <trkpt lat="43.6634" lon="0.6318">
        <ele>182</ele>
        <time>2020-10-03T17:03:19.000Z</time>
      </trkpt>
      <trkpt lat="43.66338" lon="0.6318">
        <ele>182</ele>
        <time>2020-10-03T17:03:20.000Z</time>
      </trkpt>
      <trkpt lat="43.66335" lon="0.63179">
        <ele>182</ele>
        <time>2020-10-03T17:03:21.000Z</time>
      </trkpt>
      <trkpt lat="43.66333" lon="0.63178">
        <ele>182</ele>
        <time>2020-10-03T17:03:22.000Z</time>
      </trkpt>
      <trkpt lat="43.66331" lon="0.63178">
        <ele>182.44085829113</ele>
        <time>2020-10-03T17:03:23.000Z</time>
      </trkpt>
      <trkpt lat="43.66329" lon="0.63177">
        <ele>183</ele>
        <time>2020-10-03T17:03:24.000Z</time>
      </trkpt>
      <trkpt lat="43.66328" lon="0.63174">
        <ele>183</ele>
        <time>2020-10-03T17:03:26.000Z</time>
      </trkpt>
      <trkpt lat="43.66328" lon="0.6317">
        <ele>183</ele>
        <time>2020-10-03T17:03:28.000Z</time>
      </trkpt>
      <trkpt lat="43.66328" lon="0.63167">
        <ele>183.33333333333</ele>
        <time>2020-10-03T17:03:30.000Z</time>
      </trkpt>
      <trkpt lat="43.66326" lon="0.63163">
        <ele>184</ele>
        <time>2020-10-03T17:03:32.000Z</time>
      </trkpt>
      <trkpt lat="43.66325" lon="0.6316">
        <ele>184</ele>
        <time>2020-10-03T17:03:33.000Z</time>
      </trkpt>
      <trkpt lat="43.66325" lon="0.63158">
        <ele>184</ele>
        <time>2020-10-03T17:03:34.000Z</time>
      </trkpt>
      <trkpt lat="43.66325" lon="0.63154">
        <ele>184</ele>
        <time>2020-10-03T17:03:35.000Z</time>
      </trkpt>
      <trkpt lat="43.66325" lon="0.63151">
        <ele>184</ele>
        <time>2020-10-03T17:03:36.000Z</time>
      </trkpt>
      <trkpt lat="43.66326" lon="0.63148">
        <ele>183.76842544935</ele>
        <time>2020-10-03T17:03:37.000Z</time>
      </trkpt>
      <trkpt lat="43.66327" lon="0.63144">
        <ele>183</ele>
        <time>2020-10-03T17:03:38.000Z</time>
      </trkpt>
      <trkpt lat="43.66327" lon="0.63141">
        <ele>183</ele>
        <time>2020-10-03T17:03:39.000Z</time>
      </trkpt>
      <trkpt lat="43.66328" lon="0.63137">
        <ele>183</ele>
        <time>2020-10-03T17:03:40.000Z</time>
      </trkpt>
      <trkpt lat="43.66328" lon="0.63133">
        <ele>183</ele>
        <time>2020-10-03T17:03:41.000Z</time>
      </trkpt>
      <trkpt lat="43.66329" lon="0.6313">
        <ele>183</ele>
        <time>2020-10-03T17:03:42.000Z</time>
      </trkpt>
      <trkpt lat="43.66329" lon="0.63126">
        <ele>183</ele>
        <time>2020-10-03T17:03:43.000Z</time>
      </trkpt>
      <trkpt lat="43.6633" lon="0.63123">
        <ele>183</ele>
        <time>2020-10-03T17:03:44.000Z</time>
      </trkpt>
      <trkpt lat="43.66332" lon="0.63119">
        <ele>183</ele>
        <time>2020-10-03T17:03:45.000Z</time>
      </trkpt>
      <trkpt lat="43.66333" lon="0.63116">
        <ele>183</ele>
        <time>2020-10-03T17:03:46.000Z</time>
      </trkpt>
      <trkpt lat="43.66334" lon="0.63112">
        <ele>183</ele>
        <time>2020-10-03T17:03:47.000Z</time>
      </trkpt>
      <trkpt lat="43.66335" lon="0.63108">
        <ele>183</ele>
        <time>2020-10-03T17:03:48.000Z</time>
      </trkpt>
      <trkpt lat="43.66336" lon="0.63105">
        <ele>183</ele>
        <time>2020-10-03T17:03:49.000Z</time>
      </trkpt>
      <trkpt lat="43.66337" lon="0.63102">
        <ele>183</ele>
        <time>2020-10-03T17:03:50.000Z</time>
      </trkpt>
      <trkpt lat="43.66338" lon="0.63098">
        <ele>183</ele>
        <time>2020-10-03T17:03:51.000Z</time>
      </trkpt>
      <trkpt lat="43.66339" lon="0.63094">
        <ele>183</ele>
        <time>2020-10-03T17:03:52.000Z</time>
      </trkpt>
      <trkpt lat="43.6634" lon="0.6309">
        <ele>183</ele>
        <time>2020-10-03T17:03:53.000Z</time>
      </trkpt>
      <trkpt lat="43.66341" lon="0.63087">
        <ele>183</ele>
        <time>2020-10-03T17:03:54.000Z</time>
      </trkpt>
      <trkpt lat="43.66341" lon="0.63083">
        <ele>182.65941955052</ele>
        <time>2020-10-03T17:03:55.000Z</time>
      </trkpt>
      <trkpt lat="43.66343" lon="0.6308">
        <ele>182</ele>
        <time>2020-10-03T17:03:56.000Z</time>
      </trkpt>
      <trkpt lat="43.66343" lon="0.63076">
        <ele>182</ele>
        <time>2020-10-03T17:03:57.000Z</time>
      </trkpt>
      <trkpt lat="43.66344" lon="0.63073">
        <ele>182</ele>
        <time>2020-10-03T17:03:58.000Z</time>
      </trkpt>
      <trkpt lat="43.66345" lon="0.63069">
        <ele>181.68888667653</ele>
        <time>2020-10-03T17:03:59.000Z</time>
      </trkpt>
      <trkpt lat="43.66346" lon="0.63065">
        <ele>181</ele>
        <time>2020-10-03T17:04:00.000Z</time>
      </trkpt>
      <trkpt lat="43.66347" lon="0.63062">
        <ele>181</ele>
        <time>2020-10-03T17:04:01.000Z</time>
      </trkpt>
      <trkpt lat="43.66348" lon="0.63058">
        <ele>180.65384615385</ele>
        <time>2020-10-03T17:04:02.000Z</time>
      </trkpt>
      <trkpt lat="43.66349" lon="0.63054">
        <ele>180</ele>
        <time>2020-10-03T17:04:03.000Z</time>
      </trkpt>
      <trkpt lat="43.6635" lon="0.6305">
        <ele>180</ele>
        <time>2020-10-03T17:04:04.000Z</time>
      </trkpt>
      <trkpt lat="43.66351" lon="0.63046">
        <ele>180</ele>
        <time>2020-10-03T17:04:05.000Z</time>
      </trkpt>
      <trkpt lat="43.66352" lon="0.63043">
        <ele>180</ele>
        <time>2020-10-03T17:04:06.000Z</time>
      </trkpt>
      <trkpt lat="43.66352" lon="0.63039">
        <ele>180</ele>
        <time>2020-10-03T17:04:07.000Z</time>
      </trkpt>
      <trkpt lat="43.66353" lon="0.63035">
        <ele>180</ele>
        <time>2020-10-03T17:04:08.000Z</time>
      </trkpt>
      <trkpt lat="43.66354" lon="0.63032">
        <ele>180</ele>
        <time>2020-10-03T17:04:09.000Z</time>
      </trkpt>
      <trkpt lat="43.66354" lon="0.63028">
        <ele>180</ele>
        <time>2020-10-03T17:04:10.000Z</time>
      </trkpt>
      <trkpt lat="43.66355" lon="0.63025">
        <ele>180</ele>
        <time>2020-10-03T17:04:11.000Z</time>
      </trkpt>
      <trkpt lat="43.66356" lon="0.63021">
        <ele>180</ele>
        <time>2020-10-03T17:04:12.000Z</time>
      </trkpt>
      <trkpt lat="43.66357" lon="0.63018">
        <ele>180</ele>
        <time>2020-10-03T17:04:13.000Z</time>
      </trkpt>
      <trkpt lat="43.66358" lon="0.63014">
        <ele>180</ele>
        <time>2020-10-03T17:04:14.000Z</time>
      </trkpt>
      <trkpt lat="43.66359" lon="0.63011">
        <ele>180</ele>
        <time>2020-10-03T17:04:15.000Z</time>
      </trkpt>
      <trkpt lat="43.6636" lon="0.63008">
        <ele>180</ele>
        <time>2020-10-03T17:04:16.000Z</time>
      </trkpt>
      <trkpt lat="43.66361" lon="0.63004">
        <ele>180</ele>
        <time>2020-10-03T17:04:17.000Z</time>
      </trkpt>
      <trkpt lat="43.66362" lon="0.63">
        <ele>180</ele>
        <time>2020-10-03T17:04:18.000Z</time>
      </trkpt>
      <trkpt lat="43.66363" lon="0.62997">
        <ele>180</ele>
        <time>2020-10-03T17:04:19.000Z</time>
      </trkpt>
      <trkpt lat="43.66364" lon="0.62994">
        <ele>180.38235367935</ele>
        <time>2020-10-03T17:04:20.000Z</time>
      </trkpt>
      <trkpt lat="43.66365" lon="0.6299">
        <ele>181</ele>
        <time>2020-10-03T17:04:21.000Z</time>
      </trkpt>
      <trkpt lat="43.66366" lon="0.62986">
        <ele>181</ele>
        <time>2020-10-03T17:04:22.000Z</time>
      </trkpt>
      <trkpt lat="43.66367" lon="0.62983">
        <ele>181</ele>
        <time>2020-10-03T17:04:23.000Z</time>
      </trkpt>
      <trkpt lat="43.66369" lon="0.62979">
        <ele>181</ele>
        <time>2020-10-03T17:04:24.000Z</time>
      </trkpt>
      <trkpt lat="43.6637" lon="0.62975">
        <ele>181</ele>
        <time>2020-10-03T17:04:25.000Z</time>
      </trkpt>
      <trkpt lat="43.66371" lon="0.62972">
        <ele>181</ele>
        <time>2020-10-03T17:04:26.000Z</time>
      </trkpt>
      <trkpt lat="43.66372" lon="0.62969">
        <ele>181</ele>
        <time>2020-10-03T17:04:27.000Z</time>
      </trkpt>
      <trkpt lat="43.66373" lon="0.62965">
        <ele>180.59648787937</ele>
        <time>2020-10-03T17:04:28.000Z</time>
      </trkpt>
      <trkpt lat="43.66374" lon="0.62961">
        <ele>180</ele>
        <time>2020-10-03T17:04:29.000Z</time>
      </trkpt>
      <trkpt lat="43.66375" lon="0.62958">
        <ele>180</ele>
        <time>2020-10-03T17:04:30.000Z</time>
      </trkpt>
      <trkpt lat="43.66376" lon="0.62954">
        <ele>180</ele>
        <time>2020-10-03T17:04:31.000Z</time>
      </trkpt>
      <trkpt lat="43.66377" lon="0.6295">
        <ele>180</ele>
        <time>2020-10-03T17:04:32.000Z</time>
      </trkpt>
      <trkpt lat="43.66378" lon="0.62946">
        <ele>180</ele>
        <time>2020-10-03T17:04:33.000Z</time>
      </trkpt>
      <trkpt lat="43.66378" lon="0.62943">
        <ele>179.75609946459</ele>
        <time>2020-10-03T17:04:34.000Z</time>
      </trkpt>
      <trkpt lat="43.66379" lon="0.62939">
        <ele>179</ele>
        <time>2020-10-03T17:04:35.000Z</time>
      </trkpt>
      <trkpt lat="43.6638" lon="0.62936">
        <ele>179</ele>
        <time>2020-10-03T17:04:36.000Z</time>
      </trkpt>
      <trkpt lat="43.66381" lon="0.62932">
        <ele>179</ele>
        <time>2020-10-03T17:04:37.000Z</time>
      </trkpt>
      <trkpt lat="43.66382" lon="0.62928">
        <ele>179</ele>
        <time>2020-10-03T17:04:38.000Z</time>
      </trkpt>
      <trkpt lat="43.66383" lon="0.62925">
        <ele>179.32450325512</ele>
        <time>2020-10-03T17:04:39.000Z</time>
      </trkpt>
      <trkpt lat="43.66384" lon="0.62921">
        <ele>179.98675912112</ele>
        <time>2020-10-03T17:04:40.000Z</time>
      </trkpt>
      <trkpt lat="43.66384" lon="0.62918">
        <ele>180</ele>
        <time>2020-10-03T17:04:41.000Z</time>
      </trkpt>
      <trkpt lat="43.66385" lon="0.62914">
        <ele>180</ele>
        <time>2020-10-03T17:04:42.000Z</time>
      </trkpt>
      <trkpt lat="43.66385" lon="0.62911">
        <ele>180</ele>
        <time>2020-10-03T17:04:43.000Z</time>
      </trkpt>
      <trkpt lat="43.66386" lon="0.62907">
        <ele>180</ele>
        <time>2020-10-03T17:04:44.000Z</time>
      </trkpt>
      <trkpt lat="43.66387" lon="0.62903">
        <ele>180</ele>
        <time>2020-10-03T17:04:45.000Z</time>
      </trkpt>
      <trkpt lat="43.66388" lon="0.62899">
        <ele>180</ele>
        <time>2020-10-03T17:04:46.000Z</time>
      </trkpt>
      <trkpt lat="43.66388" lon="0.62895">
        <ele>180</ele>
        <time>2020-10-03T17:04:47.000Z</time>
      </trkpt>
      <trkpt lat="43.66389" lon="0.62891">
        <ele>180</ele>
        <time>2020-10-03T17:04:48.000Z</time>
      </trkpt>
      <trkpt lat="43.6639" lon="0.62888">
        <ele>180</ele>
        <time>2020-10-03T17:04:49.000Z</time>
      </trkpt>
      <trkpt lat="43.66391" lon="0.62884">
        <ele>180</ele>
        <time>2020-10-03T17:04:50.000Z</time>
      </trkpt>
      <trkpt lat="43.66392" lon="0.6288">
        <ele>180</ele>
        <time>2020-10-03T17:04:51.000Z</time>
      </trkpt>
      <trkpt lat="43.66393" lon="0.62876">
        <ele>180</ele>
        <time>2020-10-03T17:04:52.000Z</time>
      </trkpt>
      <trkpt lat="43.66394" lon="0.62872">
        <ele>179.95945548579</ele>
        <time>2020-10-03T17:04:53.000Z</time>
      </trkpt>
      <trkpt lat="43.66395" lon="0.62869">
        <ele>179</ele>
        <time>2020-10-03T17:04:54.000Z</time>
      </trkpt>
      <trkpt lat="43.66395" lon="0.62865">
        <ele>179</ele>
        <time>2020-10-03T17:04:55.000Z</time>
      </trkpt>
      <trkpt lat="43.66397" lon="0.62861">
        <ele>179</ele>
        <time>2020-10-03T17:04:56.000Z</time>
      </trkpt>
      <trkpt lat="43.66398" lon="0.62857">
        <ele>179</ele>
        <time>2020-10-03T17:04:57.000Z</time>
      </trkpt>
      <trkpt lat="43.66399" lon="0.62853">
        <ele>179</ele>
        <time>2020-10-03T17:04:58.000Z</time>
      </trkpt>
      <trkpt lat="43.664" lon="0.62849">
        <ele>179</ele>
        <time>2020-10-03T17:04:59.000Z</time>
      </trkpt>
      <trkpt lat="43.66401" lon="0.62845">
        <ele>178.58406678674</ele>
        <time>2020-10-03T17:05:00.000Z</time>
      </trkpt>
      <trkpt lat="43.66402" lon="0.62841">
        <ele>178</ele>
        <time>2020-10-03T17:05:01.000Z</time>
      </trkpt>
      <trkpt lat="43.66403" lon="0.62837">
        <ele>178</ele>
        <time>2020-10-03T17:05:02.000Z</time>
      </trkpt>
      <trkpt lat="43.66405" lon="0.62834">
        <ele>177.69662452719</ele>
        <time>2020-10-03T17:05:03.000Z</time>
      </trkpt>
      <trkpt lat="43.66407" lon="0.62832">
        <ele>177</ele>
        <time>2020-10-03T17:05:04.000Z</time>
      </trkpt>
      <trkpt lat="43.66409" lon="0.62829">
        <ele>177</ele>
        <time>2020-10-03T17:05:05.000Z</time>
      </trkpt>
      <trkpt lat="43.66411" lon="0.62827">
        <ele>176.72093230934</ele>
        <time>2020-10-03T17:05:06.000Z</time>
      </trkpt>
      <trkpt lat="43.66413" lon="0.62824">
        <ele>176.39582666667</ele>
        <time>2020-10-03T17:05:07.000Z</time>
      </trkpt>
      <trkpt lat="43.66416" lon="0.62822">
        <ele>177</ele>
        <time>2020-10-03T17:05:08.000Z</time>
      </trkpt>
      <trkpt lat="43.66418" lon="0.6282">
        <ele>177</ele>
        <time>2020-10-03T17:05:09.000Z</time>
      </trkpt>
      <trkpt lat="43.6642" lon="0.62818">
        <ele>176.64601669668</ele>
        <time>2020-10-03T17:05:10.000Z</time>
      </trkpt>
      <trkpt lat="43.66422" lon="0.62816">
        <ele>176</ele>
        <time>2020-10-03T17:05:11.000Z</time>
      </trkpt>
      <trkpt lat="43.66425" lon="0.62813">
        <ele>176</ele>
        <time>2020-10-03T17:05:12.000Z</time>
      </trkpt>
      <trkpt lat="43.66427" lon="0.62811">
        <ele>176</ele>
        <time>2020-10-03T17:05:13.000Z</time>
      </trkpt>
      <trkpt lat="43.6643" lon="0.62808">
        <ele>175.70370253315</ele>
        <time>2020-10-03T17:05:14.000Z</time>
      </trkpt>
      <trkpt lat="43.66432" lon="0.62805">
        <ele>175</ele>
        <time>2020-10-03T17:05:15.000Z</time>
      </trkpt>
      <trkpt lat="43.66435" lon="0.62803">
        <ele>175</ele>
        <time>2020-10-03T17:05:16.000Z</time>
      </trkpt>
      <trkpt lat="43.66437" lon="0.628">
        <ele>175</ele>
        <time>2020-10-03T17:05:17.000Z</time>
      </trkpt>
      <trkpt lat="43.66438" lon="0.62797">
        <ele>174.22580378771</ele>
        <time>2020-10-03T17:05:18.000Z</time>
      </trkpt>
      <trkpt lat="43.6644" lon="0.62794">
        <ele>173</ele>
        <time>2020-10-03T17:05:19.000Z</time>
      </trkpt>
      <trkpt lat="43.66441" lon="0.6279">
        <ele>173</ele>
        <time>2020-10-03T17:05:20.000Z</time>
      </trkpt>
      <trkpt lat="43.66443" lon="0.62787">
        <ele>173</ele>
        <time>2020-10-03T17:05:21.000Z</time>
      </trkpt>
      <trkpt lat="43.66443" lon="0.62782">
        <ele>172.85714285714</ele>
        <time>2020-10-03T17:05:22.000Z</time>
      </trkpt>
      <trkpt lat="43.66444" lon="0.62778">
        <ele>172</ele>
        <time>2020-10-03T17:05:23.000Z</time>
      </trkpt>
      <trkpt lat="43.66445" lon="0.62774">
        <ele>172</ele>
        <time>2020-10-03T17:05:24.000Z</time>
      </trkpt>
      <trkpt lat="43.66445" lon="0.6277">
        <ele>172</ele>
        <time>2020-10-03T17:05:25.000Z</time>
      </trkpt>
      <trkpt lat="43.66446" lon="0.62765">
        <ele>172.44564869565</ele>
        <time>2020-10-03T17:05:26.000Z</time>
      </trkpt>
      <trkpt lat="43.66447" lon="0.62761">
        <ele>173</ele>
        <time>2020-10-03T17:05:27.000Z</time>
      </trkpt>
      <trkpt lat="43.66448" lon="0.62757">
        <ele>173</ele>
        <time>2020-10-03T17:05:28.000Z</time>
      </trkpt>
      <trkpt lat="43.6645" lon="0.62754">
        <ele>173</ele>
        <time>2020-10-03T17:05:29.000Z</time>
      </trkpt>
      <trkpt lat="43.66452" lon="0.62751">
        <ele>173</ele>
        <time>2020-10-03T17:05:30.000Z</time>
      </trkpt>
      <trkpt lat="43.66456" lon="0.62746">
        <ele>172.61539976369</ele>
        <time>2020-10-03T17:05:32.000Z</time>
      </trkpt>
      <trkpt lat="43.66458" lon="0.62742">
        <ele>172</ele>
        <time>2020-10-03T17:05:33.000Z</time>
      </trkpt>
      <trkpt lat="43.66459" lon="0.62738">
        <ele>172</ele>
        <time>2020-10-03T17:05:34.000Z</time>
      </trkpt>
      <trkpt lat="43.66461" lon="0.62735">
        <ele>171.53270569658</ele>
        <time>2020-10-03T17:05:35.000Z</time>
      </trkpt>
      <trkpt lat="43.66463" lon="0.62731">
        <ele>170.53762937679</ele>
        <time>2020-10-03T17:05:36.000Z</time>
      </trkpt>
      <trkpt lat="43.66464" lon="0.62727">
        <ele>170</ele>
        <time>2020-10-03T17:05:37.000Z</time>
      </trkpt>
      <trkpt lat="43.66466" lon="0.62723">
        <ele>170</ele>
        <time>2020-10-03T17:05:38.000Z</time>
      </trkpt>
      <trkpt lat="43.66468" lon="0.62719">
        <ele>169.91999549443</ele>
        <time>2020-10-03T17:05:39.000Z</time>
      </trkpt>
      <trkpt lat="43.66469" lon="0.62715">
        <ele>169.12000163839</ele>
        <time>2020-10-03T17:05:40.000Z</time>
      </trkpt>
      <trkpt lat="43.66471" lon="0.62711">
        <ele>169</ele>
        <time>2020-10-03T17:05:41.000Z</time>
      </trkpt>
      <trkpt lat="43.66473" lon="0.62707">
        <ele>168.7075459167</ele>
        <time>2020-10-03T17:05:42.000Z</time>
      </trkpt>
      <trkpt lat="43.66475" lon="0.62703">
        <ele>168</ele>
        <time>2020-10-03T17:05:43.000Z</time>
      </trkpt>
      <trkpt lat="43.66477" lon="0.62699">
        <ele>168</ele>
        <time>2020-10-03T17:05:44.000Z</time>
      </trkpt>
      <trkpt lat="43.66479" lon="0.62694">
        <ele>167.72071864297</ele>
        <time>2020-10-03T17:05:45.000Z</time>
      </trkpt>
      <trkpt lat="43.6648" lon="0.6269">
        <ele>167</ele>
        <time>2020-10-03T17:05:46.000Z</time>
      </trkpt>
      <trkpt lat="43.66482" lon="0.62686">
        <ele>167</ele>
        <time>2020-10-03T17:05:47.000Z</time>
      </trkpt>
      <trkpt lat="43.66483" lon="0.62682">
        <ele>166.58035428571</ele>
        <time>2020-10-03T17:05:48.000Z</time>
      </trkpt>
      <trkpt lat="43.66485" lon="0.62679">
        <ele>166</ele>
        <time>2020-10-03T17:05:49.000Z</time>
      </trkpt>
      <trkpt lat="43.66486" lon="0.62676">
        <ele>166</ele>
        <time>2020-10-03T17:05:50.000Z</time>
      </trkpt>
      <trkpt lat="43.66488" lon="0.62672">
        <ele>165</ele>
        <time>2020-10-03T17:05:51.000Z</time>
      </trkpt>
      <trkpt lat="43.6649" lon="0.62669">
        <ele>165</ele>
        <time>2020-10-03T17:05:52.000Z</time>
      </trkpt>
      <trkpt lat="43.66492" lon="0.62665">
        <ele>164.7075459167</ele>
        <time>2020-10-03T17:05:53.000Z</time>
      </trkpt>
      <trkpt lat="43.66494" lon="0.62661">
        <ele>164</ele>
        <time>2020-10-03T17:05:54.000Z</time>
      </trkpt>
      <trkpt lat="43.66495" lon="0.62657">
        <ele>164</ele>
        <time>2020-10-03T17:05:55.000Z</time>
      </trkpt>
      <trkpt lat="43.66497" lon="0.62654">
        <ele>164</ele>
        <time>2020-10-03T17:05:56.000Z</time>
      </trkpt>
      <trkpt lat="43.66499" lon="0.6265">
        <ele>164</ele>
        <time>2020-10-03T17:05:57.000Z</time>
      </trkpt>
      <trkpt lat="43.66501" lon="0.62646">
        <ele>164</ele>
        <time>2020-10-03T17:05:58.000Z</time>
      </trkpt>
      <trkpt lat="43.66502" lon="0.62643">
        <ele>163.7</ele>
        <time>2020-10-03T17:05:59.000Z</time>
      </trkpt>
      <trkpt lat="43.66503" lon="0.62639">
        <ele>163</ele>
        <time>2020-10-03T17:06:00.000Z</time>
      </trkpt>
      <trkpt lat="43.66505" lon="0.62636">
        <ele>162.72566321561</ele>
        <time>2020-10-03T17:06:01.000Z</time>
      </trkpt>
      <trkpt lat="43.66507" lon="0.62632">
        <ele>162</ele>
        <time>2020-10-03T17:06:02.000Z</time>
      </trkpt>
      <trkpt lat="43.66509" lon="0.62629">
        <ele>162</ele>
        <time>2020-10-03T17:06:03.000Z</time>
      </trkpt>
      <trkpt lat="43.66511" lon="0.62626">
        <ele>162</ele>
        <time>2020-10-03T17:06:04.000Z</time>
      </trkpt>
      <trkpt lat="43.66513" lon="0.62622">
        <ele>162</ele>
        <time>2020-10-03T17:06:05.000Z</time>
      </trkpt>
      <trkpt lat="43.66514" lon="0.62618">
        <ele>162</ele>
        <time>2020-10-03T17:06:06.000Z</time>
      </trkpt>
      <trkpt lat="43.66515" lon="0.62614">
        <ele>162</ele>
        <time>2020-10-03T17:06:07.000Z</time>
      </trkpt>
      <trkpt lat="43.66517" lon="0.6261">
        <ele>162</ele>
        <time>2020-10-03T17:06:08.000Z</time>
      </trkpt>
      <trkpt lat="43.66519" lon="0.62607">
        <ele>162</ele>
        <time>2020-10-03T17:06:09.000Z</time>
      </trkpt>
      <trkpt lat="43.66521" lon="0.62603">
        <ele>161</ele>
        <time>2020-10-03T17:06:10.000Z</time>
      </trkpt>
      <trkpt lat="43.66522" lon="0.626">
        <ele>161</ele>
        <time>2020-10-03T17:06:11.000Z</time>
      </trkpt>
      <trkpt lat="43.66523" lon="0.62596">
        <ele>158.92033393369</ele>
        <time>2020-10-03T17:06:12.000Z</time>
      </trkpt>
      <trkpt lat="43.66523" lon="0.62592">
        <ele>156</ele>
        <time>2020-10-03T17:06:13.000Z</time>
      </trkpt>
      <trkpt lat="43.66524" lon="0.62588">
        <ele>156</ele>
        <time>2020-10-03T17:06:14.000Z</time>
      </trkpt>
      <trkpt lat="43.66525" lon="0.62584">
        <ele>156</ele>
        <time>2020-10-03T17:06:15.000Z</time>
      </trkpt>
      <trkpt lat="43.66526" lon="0.6258">
        <ele>156</ele>
        <time>2020-10-03T17:06:16.000Z</time>
      </trkpt>
      <trkpt lat="43.66526" lon="0.62576">
        <ele>156</ele>
        <time>2020-10-03T17:06:17.000Z</time>
      </trkpt>
      <trkpt lat="43.66526" lon="0.62572">
        <ele>156</ele>
        <time>2020-10-03T17:06:18.000Z</time>
      </trkpt>
      <trkpt lat="43.66527" lon="0.62567">
        <ele>155.0692976453</ele>
        <time>2020-10-03T17:06:19.000Z</time>
      </trkpt>
      <trkpt lat="43.66528" lon="0.62563">
        <ele>154</ele>
        <time>2020-10-03T17:06:20.000Z</time>
      </trkpt>
      <trkpt lat="43.6653" lon="0.62559">
        <ele>153.69724975339</ele>
        <time>2020-10-03T17:06:21.000Z</time>
      </trkpt>
      <trkpt lat="43.66531" lon="0.62555">
        <ele>153</ele>
        <time>2020-10-03T17:06:22.000Z</time>
      </trkpt>
      <trkpt lat="43.66532" lon="0.62551">
        <ele>153</ele>
        <time>2020-10-03T17:06:23.000Z</time>
      </trkpt>
      <trkpt lat="43.66534" lon="0.62546">
        <ele>152.64705528032</ele>
        <time>2020-10-03T17:06:24.000Z</time>
      </trkpt>
      <trkpt lat="43.66535" lon="0.62542">
        <ele>152</ele>
        <time>2020-10-03T17:06:25.000Z</time>
      </trkpt>
      <trkpt lat="43.66536" lon="0.62538">
        <ele>152</ele>
        <time>2020-10-03T17:06:26.000Z</time>
      </trkpt>
      <trkpt lat="43.66538" lon="0.62533">
        <ele>151.67973998377</ele>
        <time>2020-10-03T17:06:27.000Z</time>
      </trkpt>
      <trkpt lat="43.66539" lon="0.62529">
        <ele>151.02614384553</ele>
        <time>2020-10-03T17:06:28.000Z</time>
      </trkpt>
      <trkpt lat="43.6654" lon="0.62524">
        <ele>150.63025309512</ele>
        <time>2020-10-03T17:06:29.000Z</time>
      </trkpt>
      <trkpt lat="43.66541" lon="0.62519">
        <ele>150</ele>
        <time>2020-10-03T17:06:30.000Z</time>
      </trkpt>
      <trkpt lat="43.66542" lon="0.62514">
        <ele>150</ele>
        <time>2020-10-03T17:06:31.000Z</time>
      </trkpt>
      <trkpt lat="43.66544" lon="0.6251">
        <ele>149.3770419565</ele>
        <time>2020-10-03T17:06:32.000Z</time>
      </trkpt>
      <trkpt lat="43.66545" lon="0.62506">
        <ele>148</ele>
        <time>2020-10-03T17:06:33.000Z</time>
      </trkpt>
      <trkpt lat="43.66546" lon="0.62502">
        <ele>148</ele>
        <time>2020-10-03T17:06:34.000Z</time>
      </trkpt>
      <trkpt lat="43.66547" lon="0.62498">
        <ele>148</ele>
        <time>2020-10-03T17:06:35.000Z</time>
      </trkpt>
      <trkpt lat="43.66548" lon="0.62494">
        <ele>148</ele>
        <time>2020-10-03T17:06:36.000Z</time>
      </trkpt>
      <trkpt lat="43.66549" lon="0.62489">
        <ele>147.19100832722</ele>
        <time>2020-10-03T17:06:37.000Z</time>
      </trkpt>
      <trkpt lat="43.6655" lon="0.62485">
        <ele>146</ele>
        <time>2020-10-03T17:06:38.000Z</time>
      </trkpt>
      <trkpt lat="43.66551" lon="0.62481">
        <ele>146</ele>
        <time>2020-10-03T17:06:39.000Z</time>
      </trkpt>
      <trkpt lat="43.66552" lon="0.62476">
        <ele>145.60938</ele>
        <time>2020-10-03T17:06:40.000Z</time>
      </trkpt>
      <trkpt lat="43.66553" lon="0.62472">
        <ele>145</ele>
        <time>2020-10-03T17:06:41.000Z</time>
      </trkpt>
      <trkpt lat="43.66555" lon="0.62468">
        <ele>144.69091311077</ele>
        <time>2020-10-03T17:06:42.000Z</time>
      </trkpt>
      <trkpt lat="43.66557" lon="0.62464">
        <ele>144</ele>
        <time>2020-10-03T17:06:43.000Z</time>
      </trkpt>
      <trkpt lat="43.66558" lon="0.62461">
        <ele>144</ele>
        <time>2020-10-03T17:06:44.000Z</time>
      </trkpt>
      <trkpt lat="43.66561" lon="0.62458">
        <ele>143.58620841854</ele>
        <time>2020-10-03T17:06:45.000Z</time>
      </trkpt>
      <trkpt lat="43.66563" lon="0.62455">
        <ele>143</ele>
        <time>2020-10-03T17:06:46.000Z</time>
      </trkpt>
      <trkpt lat="43.66565" lon="0.62452">
        <ele>143</ele>
        <time>2020-10-03T17:06:47.000Z</time>
      </trkpt>
      <trkpt lat="43.66568" lon="0.62449">
        <ele>143</ele>
        <time>2020-10-03T17:06:48.000Z</time>
      </trkpt>
      <trkpt lat="43.66569" lon="0.62446">
        <ele>143</ele>
        <time>2020-10-03T17:06:49.000Z</time>
      </trkpt>
      <trkpt lat="43.6657" lon="0.62443">
        <ele>143</ele>
        <time>2020-10-03T17:06:50.000Z</time>
      </trkpt>
      <trkpt lat="43.6657" lon="0.6244">
        <ele>142.33334081876</ele>
        <time>2020-10-03T17:06:51.000Z</time>
      </trkpt>
      <trkpt lat="43.66568" lon="0.62436">
        <ele>141</ele>
        <time>2020-10-03T17:06:52.000Z</time>
      </trkpt>
      <trkpt lat="43.66566" lon="0.62433">
        <ele>141</ele>
        <time>2020-10-03T17:06:53.000Z</time>
      </trkpt>
      <trkpt lat="43.66565" lon="0.6243">
        <ele>140.27058894394</ele>
        <time>2020-10-03T17:06:54.000Z</time>
      </trkpt>
      <trkpt lat="43.66564" lon="0.62426">
        <ele>139</ele>
        <time>2020-10-03T17:06:55.000Z</time>
      </trkpt>
      <trkpt lat="43.66562" lon="0.62423">
        <ele>139</ele>
        <time>2020-10-03T17:06:56.000Z</time>
      </trkpt>
      <trkpt lat="43.6656" lon="0.62419">
        <ele>138.137488</ele>
        <time>2020-10-03T17:06:57.000Z</time>
      </trkpt>
      <trkpt lat="43.66558" lon="0.62416">
        <ele>136</ele>
        <time>2020-10-03T17:06:58.000Z</time>
      </trkpt>
      <trkpt lat="43.66556" lon="0.62412">
        <ele>135.57272684959</ele>
        <time>2020-10-03T17:06:59.000Z</time>
      </trkpt>
      <trkpt lat="43.66554" lon="0.62409">
        <ele>135</ele>
        <time>2020-10-03T17:07:00.000Z</time>
      </trkpt>
      <trkpt lat="43.66552" lon="0.62405">
        <ele>134.02408858183</ele>
        <time>2020-10-03T17:07:01.000Z</time>
      </trkpt>
      <trkpt lat="43.6655" lon="0.62402">
        <ele>132</ele>
        <time>2020-10-03T17:07:02.000Z</time>
      </trkpt>
      <trkpt lat="43.66549" lon="0.62399">
        <ele>132</ele>
        <time>2020-10-03T17:07:03.000Z</time>
      </trkpt>
      <trkpt lat="43.66548" lon="0.62395">
        <ele>132</ele>
        <time>2020-10-03T17:07:04.000Z</time>
      </trkpt>
      <trkpt lat="43.66546" lon="0.62392">
        <ele>132</ele>
        <time>2020-10-03T17:07:05.000Z</time>
      </trkpt>
      <trkpt lat="43.66546" lon="0.62389">
        <ele>132</ele>
        <time>2020-10-03T17:07:06.000Z</time>
      </trkpt>
      <trkpt lat="43.66545" lon="0.62386">
        <ele>132</ele>
        <time>2020-10-03T17:07:07.000Z</time>
      </trkpt>
      <trkpt lat="43.66543" lon="0.62384">
        <ele>132</ele>
        <time>2020-10-03T17:07:08.000Z</time>
      </trkpt>
      <trkpt lat="43.66541" lon="0.62381">
        <ele>131.6292157455</ele>
        <time>2020-10-03T17:07:09.000Z</time>
      </trkpt>
      <trkpt lat="43.6654" lon="0.62377">
        <ele>131</ele>
        <time>2020-10-03T17:07:10.000Z</time>
      </trkpt>
      <trkpt lat="43.66538" lon="0.62374">
        <ele>131</ele>
        <time>2020-10-03T17:07:11.000Z</time>
      </trkpt>
      <trkpt lat="43.66536" lon="0.6237">
        <ele>131</ele>
        <time>2020-10-03T17:07:12.000Z</time>
      </trkpt>
      <trkpt lat="43.66534" lon="0.62367">
        <ele>131</ele>
        <time>2020-10-03T17:07:13.000Z</time>
      </trkpt>
      <trkpt lat="43.66532" lon="0.62363">
        <ele>131</ele>
        <time>2020-10-03T17:07:14.000Z</time>
      </trkpt>
      <trkpt lat="43.6653" lon="0.6236">
        <ele>131</ele>
        <time>2020-10-03T17:07:15.000Z</time>
      </trkpt>
      <trkpt lat="43.66528" lon="0.62357">
        <ele>130.6494899777</ele>
        <time>2020-10-03T17:07:16.000Z</time>
      </trkpt>
      <trkpt lat="43.66526" lon="0.62353">
        <ele>130</ele>
        <time>2020-10-03T17:07:17.000Z</time>
      </trkpt>
      <trkpt lat="43.66523" lon="0.62349">
        <ele>130</ele>
        <time>2020-10-03T17:07:18.000Z</time>
      </trkpt>
      <trkpt lat="43.66521" lon="0.62344">
        <ele>130</ele>
        <time>2020-10-03T17:07:19.000Z</time>
      </trkpt>
      <trkpt lat="43.66518" lon="0.6234">
        <ele>130</ele>
        <time>2020-10-03T17:07:20.000Z</time>
      </trkpt>
      <trkpt lat="43.66517" lon="0.62336">
        <ele>130</ele>
        <time>2020-10-03T17:07:21.000Z</time>
      </trkpt>
      <trkpt lat="43.66515" lon="0.62332">
        <ele>130</ele>
        <time>2020-10-03T17:07:22.000Z</time>
      </trkpt>
      <trkpt lat="43.66513" lon="0.62329">
        <ele>129</ele>
        <time>2020-10-03T17:07:23.000Z</time>
      </trkpt>
      <trkpt lat="43.66511" lon="0.62326">
        <ele>129</ele>
        <time>2020-10-03T17:07:24.000Z</time>
      </trkpt>
      <trkpt lat="43.66509" lon="0.62322">
        <ele>129.10256494412</ele>
        <time>2020-10-03T17:07:25.000Z</time>
      </trkpt>
      <trkpt lat="43.66507" lon="0.62318">
        <ele>130</ele>
        <time>2020-10-03T17:07:26.000Z</time>
      </trkpt>
      <trkpt lat="43.66505" lon="0.62314">
        <ele>130</ele>
        <time>2020-10-03T17:07:27.000Z</time>
      </trkpt>
      <trkpt lat="43.66503" lon="0.6231">
        <ele>130</ele>
        <time>2020-10-03T17:07:28.000Z</time>
      </trkpt>
      <trkpt lat="43.66501" lon="0.62307">
        <ele>130</ele>
        <time>2020-10-03T17:07:29.000Z</time>
      </trkpt>
      <trkpt lat="43.66499" lon="0.62304">
        <ele>130</ele>
        <time>2020-10-03T17:07:30.000Z</time>
      </trkpt>
      <trkpt lat="43.66497" lon="0.623">
        <ele>129.60344941737</ele>
        <time>2020-10-03T17:07:31.000Z</time>
      </trkpt>
      <trkpt lat="43.66495" lon="0.62296">
        <ele>129</ele>
        <time>2020-10-03T17:07:32.000Z</time>
      </trkpt>
      <trkpt lat="43.66494" lon="0.62293">
        <ele>129</ele>
        <time>2020-10-03T17:07:33.000Z</time>
      </trkpt>
      <trkpt lat="43.66492" lon="0.62289">
        <ele>129</ele>
        <time>2020-10-03T17:07:34.000Z</time>
      </trkpt>
      <trkpt lat="43.6649" lon="0.62285">
        <ele>129</ele>
        <time>2020-10-03T17:07:35.000Z</time>
      </trkpt>
      <trkpt lat="43.66488" lon="0.62282">
        <ele>129</ele>
        <time>2020-10-03T17:07:36.000Z</time>
      </trkpt>
      <trkpt lat="43.66487" lon="0.62278">
        <ele>129</ele>
        <time>2020-10-03T17:07:37.000Z</time>
      </trkpt>
      <trkpt lat="43.66485" lon="0.62275">
        <ele>129</ele>
        <time>2020-10-03T17:07:38.000Z</time>
      </trkpt>
      <trkpt lat="43.66484" lon="0.62271">
        <ele>128.59047189477</ele>
        <time>2020-10-03T17:07:39.000Z</time>
      </trkpt>
      <trkpt lat="43.66482" lon="0.62268">
        <ele>128</ele>
        <time>2020-10-03T17:07:40.000Z</time>
      </trkpt>
      <trkpt lat="43.66481" lon="0.62264">
        <ele>128</ele>
        <time>2020-10-03T17:07:41.000Z</time>
      </trkpt>
      <trkpt lat="43.66479" lon="0.62261">
        <ele>128</ele>
        <time>2020-10-03T17:07:42.000Z</time>
      </trkpt>
      <trkpt lat="43.66478" lon="0.62258">
        <ele>128</ele>
        <time>2020-10-03T17:07:43.000Z</time>
      </trkpt>
      <trkpt lat="43.66477" lon="0.62256">
        <ele>128</ele>
        <time>2020-10-03T17:07:44.000Z</time>
      </trkpt>
      <trkpt lat="43.66475" lon="0.62253">
        <ele>128</ele>
        <time>2020-10-03T17:07:45.000Z</time>
      </trkpt>
      <trkpt lat="43.66473" lon="0.6225">
        <ele>128</ele>
        <time>2020-10-03T17:07:46.000Z</time>
      </trkpt>
      <trkpt lat="43.66471" lon="0.62247">
        <ele>128</ele>
        <time>2020-10-03T17:07:47.000Z</time>
      </trkpt>
      <trkpt lat="43.6647" lon="0.62244">
        <ele>128</ele>
        <time>2020-10-03T17:07:48.000Z</time>
      </trkpt>
      <trkpt lat="43.66469" lon="0.62242">
        <ele>127.59406128812</ele>
        <time>2020-10-03T17:07:49.000Z</time>
      </trkpt>
      <trkpt lat="43.66467" lon="0.62239">
        <ele>127</ele>
        <time>2020-10-03T17:07:50.000Z</time>
      </trkpt>
      <trkpt lat="43.66466" lon="0.62236">
        <ele>127</ele>
        <time>2020-10-03T17:07:51.000Z</time>
      </trkpt>
      <trkpt lat="43.66464" lon="0.62233">
        <ele>127</ele>
        <time>2020-10-03T17:07:52.000Z</time>
      </trkpt>
      <trkpt lat="43.66462" lon="0.6223">
        <ele>127</ele>
        <time>2020-10-03T17:07:53.000Z</time>
      </trkpt>
      <trkpt lat="43.66461" lon="0.62227">
        <ele>127</ele>
        <time>2020-10-03T17:07:54.000Z</time>
      </trkpt>
      <trkpt lat="43.66459" lon="0.62223">
        <ele>127</ele>
        <time>2020-10-03T17:07:55.000Z</time>
      </trkpt>
      <trkpt lat="43.66458" lon="0.6222">
        <ele>127</ele>
        <time>2020-10-03T17:07:56.000Z</time>
      </trkpt>
      <trkpt lat="43.66456" lon="0.62217">
        <ele>127</ele>
        <time>2020-10-03T17:07:57.000Z</time>
      </trkpt>
      <trkpt lat="43.66455" lon="0.62214">
        <ele>127</ele>
        <time>2020-10-03T17:07:58.000Z</time>
      </trkpt>
      <trkpt lat="43.66452" lon="0.62212">
        <ele>127</ele>
        <time>2020-10-03T17:07:59.000Z</time>
      </trkpt>
      <trkpt lat="43.6645" lon="0.62211">
        <ele>127</ele>
        <time>2020-10-03T17:08:00.000Z</time>
      </trkpt>
      <trkpt lat="43.66448" lon="0.62208">
        <ele>126</ele>
        <time>2020-10-03T17:08:02.000Z</time>
      </trkpt>
      <trkpt lat="43.66446" lon="0.62207">
        <ele>126.29473584931</ele>
        <time>2020-10-03T17:08:04.000Z</time>
      </trkpt>
      <trkpt lat="43.66445" lon="0.62209">
        <ele>127</ele>
        <time>2020-10-03T17:08:06.000Z</time>
      </trkpt>
      <trkpt lat="43.66441" lon="0.62212">
        <ele>127</ele>
        <time>2020-10-03T17:08:08.000Z</time>
      </trkpt>
      <trkpt lat="43.6644" lon="0.62213">
        <ele>127</ele>
        <time>2020-10-03T17:08:09.000Z</time>
      </trkpt>
      <trkpt lat="43.66438" lon="0.62215">
        <ele>127</ele>
        <time>2020-10-03T17:08:10.000Z</time>
      </trkpt>
      <trkpt lat="43.66436" lon="0.62217">
        <ele>127</ele>
        <time>2020-10-03T17:08:11.000Z</time>
      </trkpt>
      <trkpt lat="43.66434" lon="0.62219">
        <ele>127</ele>
        <time>2020-10-03T17:08:12.000Z</time>
      </trkpt>
      <trkpt lat="43.66432" lon="0.62221">
        <ele>127.30631118901</ele>
        <time>2020-10-03T17:08:13.000Z</time>
      </trkpt>
      <trkpt lat="43.6643" lon="0.62223">
        <ele>128</ele>
        <time>2020-10-03T17:08:14.000Z</time>
      </trkpt>
      <trkpt lat="43.66428" lon="0.62225">
        <ele>128</ele>
        <time>2020-10-03T17:08:15.000Z</time>
      </trkpt>
      <trkpt lat="43.66426" lon="0.62227">
        <ele>128</ele>
        <time>2020-10-03T17:08:16.000Z</time>
      </trkpt>
      <trkpt lat="43.66424" lon="0.62229">
        <ele>128</ele>
        <time>2020-10-03T17:08:17.000Z</time>
      </trkpt>
      <trkpt lat="43.66421" lon="0.62232">
        <ele>128</ele>
        <time>2020-10-03T17:08:18.000Z</time>
      </trkpt>
      <trkpt lat="43.66419" lon="0.62234">
        <ele>128</ele>
        <time>2020-10-03T17:08:19.000Z</time>
      </trkpt>
      <trkpt lat="43.66417" lon="0.62236">
        <ele>128</ele>
        <time>2020-10-03T17:08:20.000Z</time>
      </trkpt>
      <trkpt lat="43.66415" lon="0.62238">
        <ele>128</ele>
        <time>2020-10-03T17:08:21.000Z</time>
      </trkpt>
      <trkpt lat="43.66412" lon="0.62239">
        <ele>128</ele>
        <time>2020-10-03T17:08:22.000Z</time>
      </trkpt>
      <trkpt lat="43.6641" lon="0.6224">
        <ele>128</ele>
        <time>2020-10-03T17:08:23.000Z</time>
      </trkpt>
      <trkpt lat="43.66407" lon="0.62242">
        <ele>128</ele>
        <time>2020-10-03T17:08:24.000Z</time>
      </trkpt>
      <trkpt lat="43.66405" lon="0.62244">
        <ele>128</ele>
        <time>2020-10-03T17:08:25.000Z</time>
      </trkpt>
      <trkpt lat="43.66402" lon="0.62245">
        <ele>128</ele>
        <time>2020-10-03T17:08:26.000Z</time>
      </trkpt>
      <trkpt lat="43.664" lon="0.62248">
        <ele>128</ele>
        <time>2020-10-03T17:08:27.000Z</time>
      </trkpt>
      <trkpt lat="43.66398" lon="0.62249">
        <ele>128</ele>
        <time>2020-10-03T17:08:28.000Z</time>
      </trkpt>
      <trkpt lat="43.66396" lon="0.62251">
        <ele>128</ele>
        <time>2020-10-03T17:08:29.000Z</time>
      </trkpt>
      <trkpt lat="43.66394" lon="0.62253">
        <ele>128</ele>
        <time>2020-10-03T17:08:30.000Z</time>
      </trkpt>
      <trkpt lat="43.66392" lon="0.62254">
        <ele>128</ele>
        <time>2020-10-03T17:08:31.000Z</time>
      </trkpt>
      <trkpt lat="43.6639" lon="0.62255">
        <ele>128</ele>
        <time>2020-10-03T17:08:32.000Z</time>
      </trkpt>
      <trkpt lat="43.66388" lon="0.62256">
        <ele>128</ele>
        <time>2020-10-03T17:08:33.000Z</time>
      </trkpt>
      <trkpt lat="43.66386" lon="0.62256">
        <ele>128</ele>
        <time>2020-10-03T17:08:34.000Z</time>
      </trkpt>
      <trkpt lat="43.66383" lon="0.62257">
        <ele>128</ele>
        <time>2020-10-03T17:08:35.000Z</time>
      </trkpt>
      <trkpt lat="43.66382" lon="0.62257">
        <ele>128.32407703704</ele>
        <time>2020-10-03T17:08:36.000Z</time>
      </trkpt>
      <trkpt lat="43.66373" lon="0.62247">
        <ele>129</ele>
        <time>2020-10-03T17:08:42.000Z</time>
      </trkpt>
      <trkpt lat="43.66369" lon="0.62235">
        <ele>128</ele>
        <time>2020-10-03T17:08:47.000Z</time>
      </trkpt>
      <trkpt lat="43.66369" lon="0.62231">
        <ele>128.43859964295</ele>
        <time>2020-10-03T17:08:49.000Z</time>
      </trkpt>
      <trkpt lat="43.66369" lon="0.62228">
        <ele>129.32941300485</ele>
        <time>2020-10-03T17:08:51.000Z</time>
      </trkpt>
      <trkpt lat="43.6637" lon="0.62225">
        <ele>130</ele>
        <time>2020-10-03T17:08:53.000Z</time>
      </trkpt>
      <trkpt lat="43.66371" lon="0.62222">
        <ele>130</ele>
        <time>2020-10-03T17:08:55.000Z</time>
      </trkpt>
      <trkpt lat="43.66373" lon="0.6222">
        <ele>130</ele>
        <time>2020-10-03T17:08:57.000Z</time>
      </trkpt>
      <trkpt lat="43.66375" lon="0.62217">
        <ele>129</ele>
        <time>2020-10-03T17:08:59.000Z</time>
      </trkpt>
      <trkpt lat="43.66378" lon="0.62215">
        <ele>129</ele>
        <time>2020-10-03T17:09:01.000Z</time>
      </trkpt>
      <trkpt lat="43.66379" lon="0.62212">
        <ele>129</ele>
        <time>2020-10-03T17:09:03.000Z</time>
      </trkpt>
      <trkpt lat="43.66381" lon="0.62209">
        <ele>129</ele>
        <time>2020-10-03T17:09:05.000Z</time>
      </trkpt>
      <trkpt lat="43.66383" lon="0.62206">
        <ele>129</ele>
        <time>2020-10-03T17:09:07.000Z</time>
      </trkpt>
      <trkpt lat="43.66385" lon="0.62203">
        <ele>129</ele>
        <time>2020-10-03T17:09:09.000Z</time>
      </trkpt>
      <trkpt lat="43.66387" lon="0.622">
        <ele>128.57425830408</ele>
        <time>2020-10-03T17:09:11.000Z</time>
      </trkpt>
      <trkpt lat="43.66389" lon="0.62197">
        <ele>128.3307128675</ele>
        <time>2020-10-03T17:09:13.000Z</time>
      </trkpt>
      <trkpt lat="43.66391" lon="0.62194">
        <ele>129</ele>
        <time>2020-10-03T17:09:15.000Z</time>
      </trkpt>
      <trkpt lat="43.66392" lon="0.62191">
        <ele>129</ele>
        <time>2020-10-03T17:09:17.000Z</time>
      </trkpt>
      <trkpt lat="43.66393" lon="0.62188">
        <ele>129</ele>
        <time>2020-10-03T17:09:19.000Z</time>
      </trkpt>
      <trkpt lat="43.66394" lon="0.62186">
        <ele>129</ele>
        <time>2020-10-03T17:09:20.000Z</time>
      </trkpt>
      <trkpt lat="43.66396" lon="0.62183">
        <ele>129</ele>
        <time>2020-10-03T17:09:21.000Z</time>
      </trkpt>
      <trkpt lat="43.66397" lon="0.62181">
        <ele>129</ele>
        <time>2020-10-03T17:09:22.000Z</time>
      </trkpt>
      <trkpt lat="43.66399" lon="0.62178">
        <ele>129</ele>
        <time>2020-10-03T17:09:23.000Z</time>
      </trkpt>
      <trkpt lat="43.66401" lon="0.62176">
        <ele>129</ele>
        <time>2020-10-03T17:09:24.000Z</time>
      </trkpt>
      <trkpt lat="43.66403" lon="0.62174">
        <ele>129</ele>
        <time>2020-10-03T17:09:25.000Z</time>
      </trkpt>
      <trkpt lat="43.66405" lon="0.62171">
        <ele>129</ele>
        <time>2020-10-03T17:09:26.000Z</time>
      </trkpt>
      <trkpt lat="43.66407" lon="0.62168">
        <ele>129</ele>
        <time>2020-10-03T17:09:27.000Z</time>
      </trkpt>
      <trkpt lat="43.66409" lon="0.62165">
        <ele>129</ele>
        <time>2020-10-03T17:09:28.000Z</time>
      </trkpt>
      <trkpt lat="43.66411" lon="0.62162">
        <ele>129</ele>
        <time>2020-10-03T17:09:29.000Z</time>
      </trkpt>
      <trkpt lat="43.66412" lon="0.62159">
        <ele>129</ele>
        <time>2020-10-03T17:09:30.000Z</time>
      </trkpt>
      <trkpt lat="43.66414" lon="0.62157">
        <ele>128.69064589204</ele>
        <time>2020-10-03T17:09:31.000Z</time>
      </trkpt>
      <trkpt lat="43.66415" lon="0.62154">
        <ele>128</ele>
        <time>2020-10-03T17:09:32.000Z</time>
      </trkpt>
      <trkpt lat="43.66417" lon="0.6215">
        <ele>128</ele>
        <time>2020-10-03T17:09:33.000Z</time>
      </trkpt>
      <trkpt lat="43.66418" lon="0.62147">
        <ele>128</ele>
        <time>2020-10-03T17:09:34.000Z</time>
      </trkpt>
      <trkpt lat="43.66418" lon="0.62144">
        <ele>128</ele>
        <time>2020-10-03T17:09:35.000Z</time>
      </trkpt>
      <trkpt lat="43.66417" lon="0.62141">
        <ele>128</ele>
        <time>2020-10-03T17:09:36.000Z</time>
      </trkpt>
      <trkpt lat="43.66416" lon="0.62137">
        <ele>128</ele>
        <time>2020-10-03T17:09:37.000Z</time>
      </trkpt>
      <trkpt lat="43.66415" lon="0.62134">
        <ele>128</ele>
        <time>2020-10-03T17:09:38.000Z</time>
      </trkpt>
      <trkpt lat="43.66413" lon="0.62131">
        <ele>128</ele>
        <time>2020-10-03T17:09:39.000Z</time>
      </trkpt>
      <trkpt lat="43.66411" lon="0.62127">
        <ele>128</ele>
        <time>2020-10-03T17:09:40.000Z</time>
      </trkpt>
      <trkpt lat="43.66409" lon="0.62125">
        <ele>128</ele>
        <time>2020-10-03T17:09:41.000Z</time>
      </trkpt>
      <trkpt lat="43.66407" lon="0.62122">
        <ele>128</ele>
        <time>2020-10-03T17:09:42.000Z</time>
      </trkpt>
      <trkpt lat="43.66405" lon="0.62119">
        <ele>128</ele>
        <time>2020-10-03T17:09:43.000Z</time>
      </trkpt>
      <trkpt lat="43.66403" lon="0.62117">
        <ele>128</ele>
        <time>2020-10-03T17:09:44.000Z</time>
      </trkpt>
      <trkpt lat="43.66401" lon="0.62114">
        <ele>128</ele>
        <time>2020-10-03T17:09:45.000Z</time>
      </trkpt>
      <trkpt lat="43.66399" lon="0.62112">
        <ele>128</ele>
        <time>2020-10-03T17:09:46.000Z</time>
      </trkpt>
      <trkpt lat="43.66396" lon="0.6211">
        <ele>128</ele>
        <time>2020-10-03T17:09:47.000Z</time>
      </trkpt>
      <trkpt lat="43.66394" lon="0.62108">
        <ele>128</ele>
        <time>2020-10-03T17:09:48.000Z</time>
      </trkpt>
      <trkpt lat="43.66391" lon="0.62106">
        <ele>128</ele>
        <time>2020-10-03T17:09:49.000Z</time>
      </trkpt>
      <trkpt lat="43.66389" lon="0.62104">
        <ele>128</ele>
        <time>2020-10-03T17:09:50.000Z</time>
      </trkpt>
      <trkpt lat="43.66387" lon="0.62102">
        <ele>128</ele>
        <time>2020-10-03T17:09:51.000Z</time>
      </trkpt>
      <trkpt lat="43.66385" lon="0.621">
        <ele>128</ele>
        <time>2020-10-03T17:09:52.000Z</time>
      </trkpt>
      <trkpt lat="43.66383" lon="0.62097">
        <ele>128</ele>
        <time>2020-10-03T17:09:53.000Z</time>
      </trkpt>
      <trkpt lat="43.66381" lon="0.62095">
        <ele>128</ele>
        <time>2020-10-03T17:09:54.000Z</time>
      </trkpt>
      <trkpt lat="43.6638" lon="0.62092">
        <ele>128</ele>
        <time>2020-10-03T17:09:55.000Z</time>
      </trkpt>
      <trkpt lat="43.66378" lon="0.62089">
        <ele>127.69285485714</ele>
        <time>2020-10-03T17:09:56.000Z</time>
      </trkpt>
      <trkpt lat="43.66377" lon="0.62087">
        <ele>127</ele>
        <time>2020-10-03T17:09:57.000Z</time>
      </trkpt>
      <trkpt lat="43.66376" lon="0.62084">
        <ele>127.32894315789</ele>
        <time>2020-10-03T17:09:58.000Z</time>
      </trkpt>
      <trkpt lat="43.66375" lon="0.6208">
        <ele>128</ele>
        <time>2020-10-03T17:10:00.000Z</time>
      </trkpt>
      <trkpt lat="43.66375" lon="0.62076">
        <ele>128</ele>
        <time>2020-10-03T17:10:02.000Z</time>
      </trkpt>
      <trkpt lat="43.66374" lon="0.62072">
        <ele>128</ele>
        <time>2020-10-03T17:10:04.000Z</time>
      </trkpt>
      <trkpt lat="43.66373" lon="0.6207">
        <ele>128</ele>
        <time>2020-10-03T17:10:06.000Z</time>
      </trkpt>
      <trkpt lat="43.6637" lon="0.62069">
        <ele>128</ele>
        <time>2020-10-03T17:10:09.000Z</time>
      </trkpt>
      <trkpt lat="43.66368" lon="0.62068">
        <ele>128</ele>
        <time>2020-10-03T17:10:11.000Z</time>
      </trkpt>
      <trkpt lat="43.66365" lon="0.62069">
        <ele>128</ele>
        <time>2020-10-03T17:10:13.000Z</time>
      </trkpt>
      <trkpt lat="43.66362" lon="0.62069">
        <ele>128</ele>
        <time>2020-10-03T17:10:15.000Z</time>
      </trkpt>
      <trkpt lat="43.6636" lon="0.6207">
        <ele>129</ele>
        <time>2020-10-03T17:10:17.000Z</time>
      </trkpt>
      <trkpt lat="43.66357" lon="0.62071">
        <ele>129</ele>
        <time>2020-10-03T17:10:19.000Z</time>
      </trkpt>
      <trkpt lat="43.66353" lon="0.62071">
        <ele>129</ele>
        <time>2020-10-03T17:10:21.000Z</time>
      </trkpt>
      <trkpt lat="43.6635" lon="0.62072">
        <ele>129</ele>
        <time>2020-10-03T17:10:23.000Z</time>
      </trkpt>
      <trkpt lat="43.66347" lon="0.62072">
        <ele>129</ele>
        <time>2020-10-03T17:10:25.000Z</time>
      </trkpt>
      <trkpt lat="43.66344" lon="0.62073">
        <ele>130</ele>
        <time>2020-10-03T17:10:27.000Z</time>
      </trkpt>
      <trkpt lat="43.66341" lon="0.62073">
        <ele>130</ele>
        <time>2020-10-03T17:10:29.000Z</time>
      </trkpt>
      <trkpt lat="43.66337" lon="0.62073">
        <ele>130</ele>
        <time>2020-10-03T17:10:31.000Z</time>
      </trkpt>
      <trkpt lat="43.66334" lon="0.62073">
        <ele>130</ele>
        <time>2020-10-03T17:10:33.000Z</time>
      </trkpt>
      <trkpt lat="43.66331" lon="0.62073">
        <ele>130</ele>
        <time>2020-10-03T17:10:35.000Z</time>
      </trkpt>
      <trkpt lat="43.66329" lon="0.62073">
        <ele>130.42477996398</ele>
        <time>2020-10-03T17:10:36.000Z</time>
      </trkpt>
      <trkpt lat="43.66325" lon="0.62074">
        <ele>131</ele>
        <time>2020-10-03T17:10:38.000Z</time>
      </trkpt>
      <trkpt lat="43.66322" lon="0.62074">
        <ele>131</ele>
        <time>2020-10-03T17:10:40.000Z</time>
      </trkpt>
      <trkpt lat="43.66319" lon="0.62074">
        <ele>131</ele>
        <time>2020-10-03T17:10:42.000Z</time>
      </trkpt>
      <trkpt lat="43.66316" lon="0.62074">
        <ele>131</ele>
        <time>2020-10-03T17:10:44.000Z</time>
      </trkpt>
      <trkpt lat="43.66312" lon="0.62075">
        <ele>131</ele>
        <time>2020-10-03T17:10:46.000Z</time>
      </trkpt>
      <trkpt lat="43.66309" lon="0.62075">
        <ele>131</ele>
        <time>2020-10-03T17:10:48.000Z</time>
      </trkpt>
      <trkpt lat="43.66306" lon="0.62076">
        <ele>131.36470552803</ele>
        <time>2020-10-03T17:10:50.000Z</time>
      </trkpt>
      <trkpt lat="43.66302" lon="0.62076">
        <ele>132</ele>
        <time>2020-10-03T17:10:52.000Z</time>
      </trkpt>
      <trkpt lat="43.66299" lon="0.62076">
        <ele>132</ele>
        <time>2020-10-03T17:10:54.000Z</time>
      </trkpt>
      <trkpt lat="43.66296" lon="0.62077">
        <ele>132</ele>
        <time>2020-10-03T17:10:56.000Z</time>
      </trkpt>
      <trkpt lat="43.66293" lon="0.62076">
        <ele>132</ele>
        <time>2020-10-03T17:10:58.000Z</time>
      </trkpt>
      <trkpt lat="43.6629" lon="0.62076">
        <ele>132</ele>
        <time>2020-10-03T17:11:00.000Z</time>
      </trkpt>
      <trkpt lat="43.66287" lon="0.62076">
        <ele>132</ele>
        <time>2020-10-03T17:11:02.000Z</time>
      </trkpt>
      <trkpt lat="43.66285" lon="0.62075">
        <ele>132</ele>
        <time>2020-10-03T17:11:03.000Z</time>
      </trkpt>
      <trkpt lat="43.66281" lon="0.62074">
        <ele>132</ele>
        <time>2020-10-03T17:11:05.000Z</time>
      </trkpt>
      <trkpt lat="43.66278" lon="0.62073">
        <ele>132</ele>
        <time>2020-10-03T17:11:07.000Z</time>
      </trkpt>
      <trkpt lat="43.66275" lon="0.62072">
        <ele>132</ele>
        <time>2020-10-03T17:11:09.000Z</time>
      </trkpt>
      <trkpt lat="43.66272" lon="0.62071">
        <ele>132</ele>
        <time>2020-10-03T17:11:11.000Z</time>
      </trkpt>
      <trkpt lat="43.66269" lon="0.6207">
        <ele>132.97080285151</ele>
        <time>2020-10-03T17:11:13.000Z</time>
      </trkpt>
      <trkpt lat="43.66266" lon="0.62068">
        <ele>133</ele>
        <time>2020-10-03T17:11:15.000Z</time>
      </trkpt>
      <trkpt lat="43.66263" lon="0.62067">
        <ele>134</ele>
        <time>2020-10-03T17:11:17.000Z</time>
      </trkpt>
      <trkpt lat="43.66259" lon="0.62065">
        <ele>134</ele>
        <time>2020-10-03T17:11:19.000Z</time>
      </trkpt>
      <trkpt lat="43.66257" lon="0.62062">
        <ele>134</ele>
        <time>2020-10-03T17:11:21.000Z</time>
      </trkpt>
      <trkpt lat="43.66254" lon="0.62059">
        <ele>134</ele>
        <time>2020-10-03T17:11:23.000Z</time>
      </trkpt>
      <trkpt lat="43.66252" lon="0.62056">
        <ele>134</ele>
        <time>2020-10-03T17:11:25.000Z</time>
      </trkpt>
      <trkpt lat="43.66249" lon="0.62052">
        <ele>134</ele>
        <time>2020-10-03T17:11:27.000Z</time>
      </trkpt>
      <trkpt lat="43.66246" lon="0.62049">
        <ele>135</ele>
        <time>2020-10-03T17:11:29.000Z</time>
      </trkpt>
      <trkpt lat="43.66245" lon="0.62047">
        <ele>135</ele>
        <time>2020-10-03T17:11:30.000Z</time>
      </trkpt>
      <trkpt lat="43.66243" lon="0.62044">
        <ele>135</ele>
        <time>2020-10-03T17:11:31.000Z</time>
      </trkpt>
      <trkpt lat="43.66241" lon="0.62042">
        <ele>135</ele>
        <time>2020-10-03T17:11:32.000Z</time>
      </trkpt>
      <trkpt lat="43.66239" lon="0.6204">
        <ele>135</ele>
        <time>2020-10-03T17:11:33.000Z</time>
      </trkpt>
      <trkpt lat="43.66237" lon="0.62038">
        <ele>134.58139223362</ele>
        <time>2020-10-03T17:11:34.000Z</time>
      </trkpt>
      <trkpt lat="43.66234" lon="0.62036">
        <ele>134</ele>
        <time>2020-10-03T17:11:35.000Z</time>
      </trkpt>
      <trkpt lat="43.66232" lon="0.62034">
        <ele>134.26744359112</ele>
        <time>2020-10-03T17:11:36.000Z</time>
      </trkpt>
      <trkpt lat="43.66229" lon="0.62032">
        <ele>135</ele>
        <time>2020-10-03T17:11:37.000Z</time>
      </trkpt>
      <trkpt lat="43.66227" lon="0.6203">
        <ele>135</ele>
        <time>2020-10-03T17:11:38.000Z</time>
      </trkpt>
      <trkpt lat="43.66224" lon="0.62029">
        <ele>135</ele>
        <time>2020-10-03T17:11:39.000Z</time>
      </trkpt>
      <trkpt lat="43.66222" lon="0.62028">
        <ele>135</ele>
        <time>2020-10-03T17:11:40.000Z</time>
      </trkpt>
      <trkpt lat="43.66219" lon="0.62027">
        <ele>135</ele>
        <time>2020-10-03T17:11:41.000Z</time>
      </trkpt>
      <trkpt lat="43.66217" lon="0.62025">
        <ele>134.5545457719</ele>
        <time>2020-10-03T17:11:42.000Z</time>
      </trkpt>
      <trkpt lat="43.66215" lon="0.62024">
        <ele>134</ele>
        <time>2020-10-03T17:11:43.000Z</time>
      </trkpt>
      <trkpt lat="43.66212" lon="0.62023">
        <ele>134</ele>
        <time>2020-10-03T17:11:44.000Z</time>
      </trkpt>
      <trkpt lat="43.6621" lon="0.62022">
        <ele>134</ele>
        <time>2020-10-03T17:11:45.000Z</time>
      </trkpt>
      <trkpt lat="43.66207" lon="0.6202">
        <ele>134</ele>
        <time>2020-10-03T17:11:46.000Z</time>
      </trkpt>
      <trkpt lat="43.66204" lon="0.62019">
        <ele>134</ele>
        <time>2020-10-03T17:11:47.000Z</time>
      </trkpt>
      <trkpt lat="43.66202" lon="0.62018">
        <ele>134</ele>
        <time>2020-10-03T17:11:48.000Z</time>
      </trkpt>
      <trkpt lat="43.662" lon="0.62016">
        <ele>134</ele>
        <time>2020-10-03T17:11:49.000Z</time>
      </trkpt>
      <trkpt lat="43.66197" lon="0.62015">
        <ele>134.39369872402</ele>
        <time>2020-10-03T17:11:50.000Z</time>
      </trkpt>
      <trkpt lat="43.66196" lon="0.62013">
        <ele>135.31506873334</ele>
        <time>2020-10-03T17:11:51.000Z</time>
      </trkpt>
      <trkpt lat="43.66193" lon="0.62011">
        <ele>136</ele>
        <time>2020-10-03T17:11:53.000Z</time>
      </trkpt>
      <trkpt lat="43.66191" lon="0.62011">
        <ele>137</ele>
        <time>2020-10-03T17:11:55.000Z</time>
      </trkpt>
      <trkpt lat="43.66188" lon="0.62011">
        <ele>137</ele>
        <time>2020-10-03T17:11:57.000Z</time>
      </trkpt>
      <trkpt lat="43.66186" lon="0.62013">
        <ele>136.57999897601</ele>
        <time>2020-10-03T17:11:59.000Z</time>
      </trkpt>
      <trkpt lat="43.66185" lon="0.62016">
        <ele>136</ele>
        <time>2020-10-03T17:12:02.000Z</time>
      </trkpt>
      <trkpt lat="43.66185" lon="0.62012">
        <ele>137</ele>
        <time>2020-10-03T17:12:12.000Z</time>
      </trkpt>
      <trkpt lat="43.66185" lon="0.62008">
        <ele>137</ele>
        <time>2020-10-03T17:12:14.000Z</time>
      </trkpt>
      <trkpt lat="43.66185" lon="0.62003">
        <ele>137</ele>
        <time>2020-10-03T17:12:16.000Z</time>
      </trkpt>
      <trkpt lat="43.66186" lon="0.62">
        <ele>137</ele>
        <time>2020-10-03T17:12:18.000Z</time>
      </trkpt>
      <trkpt lat="43.66185" lon="0.61996">
        <ele>136</ele>
        <time>2020-10-03T17:12:20.000Z</time>
      </trkpt>
      <trkpt lat="43.66184" lon="0.61994">
        <ele>136</ele>
        <time>2020-10-03T17:12:22.000Z</time>
      </trkpt>
      <trkpt lat="43.66182" lon="0.61993">
        <ele>137</ele>
        <time>2020-10-03T17:12:34.000Z</time>
      </trkpt>
      <trkpt lat="43.6618" lon="0.61995">
        <ele>137</ele>
        <time>2020-10-03T17:12:36.000Z</time>
      </trkpt>
      <trkpt lat="43.66177" lon="0.61998">
        <ele>137</ele>
        <time>2020-10-03T17:12:38.000Z</time>
      </trkpt>
      <trkpt lat="43.66175" lon="0.62001">
        <ele>137</ele>
        <time>2020-10-03T17:12:40.000Z</time>
      </trkpt>
      <trkpt lat="43.66173" lon="0.62004">
        <ele>137</ele>
        <time>2020-10-03T17:12:42.000Z</time>
      </trkpt>
      <trkpt lat="43.66171" lon="0.62008">
        <ele>136.63063457835</ele>
        <time>2020-10-03T17:12:44.000Z</time>
      </trkpt>
      <trkpt lat="43.6617" lon="0.62012">
        <ele>136</ele>
        <time>2020-10-03T17:12:46.000Z</time>
      </trkpt>
      <trkpt lat="43.66168" lon="0.62014">
        <ele>136</ele>
        <time>2020-10-03T17:12:48.000Z</time>
      </trkpt>
      <trkpt lat="43.66166" lon="0.62014">
        <ele>137</ele>
        <time>2020-10-03T17:12:50.000Z</time>
      </trkpt>
      <trkpt lat="43.66164" lon="0.62014">
        <ele>137</ele>
        <time>2020-10-03T17:12:52.000Z</time>
      </trkpt>
      <trkpt lat="43.66162" lon="0.62013">
        <ele>137</ele>
        <time>2020-10-03T17:12:57.000Z</time>
      </trkpt>
      <trkpt lat="43.6616" lon="0.6201">
        <ele>137</ele>
        <time>2020-10-03T17:12:59.000Z</time>
      </trkpt>
      <trkpt lat="43.66158" lon="0.62007">
        <ele>137</ele>
        <time>2020-10-03T17:13:01.000Z</time>
      </trkpt>
      <trkpt lat="43.66157" lon="0.62003">
        <ele>137</ele>
        <time>2020-10-03T17:13:03.000Z</time>
      </trkpt>
      <trkpt lat="43.66155" lon="0.61999">
        <ele>137.4333338074</ele>
        <time>2020-10-03T17:13:05.000Z</time>
      </trkpt>
      <trkpt lat="43.66153" lon="0.61996">
        <ele>137.85914655032</ele>
        <time>2020-10-03T17:13:07.000Z</time>
      </trkpt>
      <trkpt lat="43.66151" lon="0.61992">
        <ele>137</ele>
        <time>2020-10-03T17:13:09.000Z</time>
      </trkpt>
      <trkpt lat="43.6615" lon="0.61989">
        <ele>137</ele>
        <time>2020-10-03T17:13:11.000Z</time>
      </trkpt>
      <trkpt lat="43.66148" lon="0.61986">
        <ele>137.38053488293</ele>
        <time>2020-10-03T17:13:13.000Z</time>
      </trkpt>
      <trkpt lat="43.66146" lon="0.61983">
        <ele>138</ele>
        <time>2020-10-03T17:13:15.000Z</time>
      </trkpt>
      <trkpt lat="43.66144" lon="0.61979">
        <ele>138.32026001623</ele>
        <time>2020-10-03T17:13:17.000Z</time>
      </trkpt>
      <trkpt lat="43.66143" lon="0.61976">
        <ele>139</ele>
        <time>2020-10-03T17:13:19.000Z</time>
      </trkpt>
      <trkpt lat="43.66141" lon="0.61972">
        <ele>139</ele>
        <time>2020-10-03T17:13:21.000Z</time>
      </trkpt>
      <trkpt lat="43.66139" lon="0.61969">
        <ele>139</ele>
        <time>2020-10-03T17:13:23.000Z</time>
      </trkpt>
      <trkpt lat="43.66137" lon="0.61966">
        <ele>139</ele>
        <time>2020-10-03T17:13:25.000Z</time>
      </trkpt>
      <trkpt lat="43.66136" lon="0.61963">
        <ele>139.43119686223</ele>
        <time>2020-10-03T17:13:27.000Z</time>
      </trkpt>
      <trkpt lat="43.66134" lon="0.6196">
        <ele>140</ele>
        <time>2020-10-03T17:13:29.000Z</time>
      </trkpt>
      <trkpt lat="43.66132" lon="0.61956">
        <ele>140</ele>
        <time>2020-10-03T17:13:31.000Z</time>
      </trkpt>
      <trkpt lat="43.6613" lon="0.61954">
        <ele>140</ele>
        <time>2020-10-03T17:13:33.000Z</time>
      </trkpt>
      <trkpt lat="43.66129" lon="0.61951">
        <ele>140</ele>
        <time>2020-10-03T17:13:35.000Z</time>
      </trkpt>
      <trkpt lat="43.66128" lon="0.61947">
        <ele>141</ele>
        <time>2020-10-03T17:13:37.000Z</time>
      </trkpt>
      <trkpt lat="43.66126" lon="0.61943">
        <ele>141</ele>
        <time>2020-10-03T17:13:39.000Z</time>
      </trkpt>
      <trkpt lat="43.66124" lon="0.6194">
        <ele>141</ele>
        <time>2020-10-03T17:13:41.000Z</time>
      </trkpt>
      <trkpt lat="43.66122" lon="0.61936">
        <ele>141</ele>
        <time>2020-10-03T17:13:43.000Z</time>
      </trkpt>
      <trkpt lat="43.66121" lon="0.61933">
        <ele>141</ele>
        <time>2020-10-03T17:13:45.000Z</time>
      </trkpt>
      <trkpt lat="43.66119" lon="0.61929">
        <ele>141</ele>
        <time>2020-10-03T17:13:47.000Z</time>
      </trkpt>
      <trkpt lat="43.66117" lon="0.61926">
        <ele>140</ele>
        <time>2020-10-03T17:13:49.000Z</time>
      </trkpt>
      <trkpt lat="43.66115" lon="0.61922">
        <ele>141</ele>
        <time>2020-10-03T17:13:51.000Z</time>
      </trkpt>
      <trkpt lat="43.66114" lon="0.61919">
        <ele>142</ele>
        <time>2020-10-03T17:13:53.000Z</time>
      </trkpt>
      <trkpt lat="43.66112" lon="0.61916">
        <ele>142</ele>
        <time>2020-10-03T17:13:55.000Z</time>
      </trkpt>
      <trkpt lat="43.66111" lon="0.61912">
        <ele>142</ele>
        <time>2020-10-03T17:13:57.000Z</time>
      </trkpt>
      <trkpt lat="43.66109" lon="0.61909">
        <ele>142</ele>
        <time>2020-10-03T17:13:59.000Z</time>
      </trkpt>
      <trkpt lat="43.66108" lon="0.61906">
        <ele>142</ele>
        <time>2020-10-03T17:14:01.000Z</time>
      </trkpt>
      <trkpt lat="43.66106" lon="0.61903">
        <ele>142</ele>
        <time>2020-10-03T17:14:03.000Z</time>
      </trkpt>
      <trkpt lat="43.66105" lon="0.619">
        <ele>142</ele>
        <time>2020-10-03T17:14:05.000Z</time>
      </trkpt>
      <trkpt lat="43.66103" lon="0.61896">
        <ele>142</ele>
        <time>2020-10-03T17:14:07.000Z</time>
      </trkpt>
      <trkpt lat="43.66102" lon="0.61893">
        <ele>143</ele>
        <time>2020-10-03T17:14:09.000Z</time>
      </trkpt>
      <trkpt lat="43.66099" lon="0.61889">
        <ele>143</ele>
        <time>2020-10-03T17:14:11.000Z</time>
      </trkpt>
      <trkpt lat="43.66098" lon="0.61886">
        <ele>143</ele>
        <time>2020-10-03T17:14:13.000Z</time>
      </trkpt>
      <trkpt lat="43.66096" lon="0.61882">
        <ele>143</ele>
        <time>2020-10-03T17:14:15.000Z</time>
      </trkpt>
      <trkpt lat="43.66094" lon="0.61879">
        <ele>143</ele>
        <time>2020-10-03T17:14:17.000Z</time>
      </trkpt>
      <trkpt lat="43.66093" lon="0.61876">
        <ele>145</ele>
        <time>2020-10-03T17:14:26.000Z</time>
      </trkpt>
      <trkpt lat="43.66092" lon="0.61874">
        <ele>145</ele>
        <time>2020-10-03T17:14:30.000Z</time>
      </trkpt>
      <trkpt lat="43.66091" lon="0.61871">
        <ele>145</ele>
        <time>2020-10-03T17:14:32.000Z</time>
      </trkpt>
      <trkpt lat="43.66089" lon="0.61867">
        <ele>144</ele>
        <time>2020-10-03T17:14:34.000Z</time>
      </trkpt>
      <trkpt lat="43.66088" lon="0.61864">
        <ele>144</ele>
        <time>2020-10-03T17:14:36.000Z</time>
      </trkpt>
      <trkpt lat="43.66086" lon="0.6186">
        <ele>144</ele>
        <time>2020-10-03T17:14:38.000Z</time>
      </trkpt>
      <trkpt lat="43.66085" lon="0.61856">
        <ele>144</ele>
        <time>2020-10-03T17:14:40.000Z</time>
      </trkpt>
      <trkpt lat="43.66083" lon="0.61853">
        <ele>145</ele>
        <time>2020-10-03T17:14:42.000Z</time>
      </trkpt>
      <trkpt lat="43.66081" lon="0.6185">
        <ele>145</ele>
        <time>2020-10-03T17:14:44.000Z</time>
      </trkpt>
      <trkpt lat="43.6608" lon="0.61847">
        <ele>145</ele>
        <time>2020-10-03T17:14:46.000Z</time>
      </trkpt>
      <trkpt lat="43.66078" lon="0.61844">
        <ele>146</ele>
        <time>2020-10-03T17:14:48.000Z</time>
      </trkpt>
      <trkpt lat="43.66077" lon="0.61841">
        <ele>146</ele>
        <time>2020-10-03T17:14:50.000Z</time>
      </trkpt>
      <trkpt lat="43.66075" lon="0.61837">
        <ele>146</ele>
        <time>2020-10-03T17:14:52.000Z</time>
      </trkpt>
      <trkpt lat="43.66073" lon="0.61834">
        <ele>146</ele>
        <time>2020-10-03T17:14:54.000Z</time>
      </trkpt>
      <trkpt lat="43.66072" lon="0.61831">
        <ele>146</ele>
        <time>2020-10-03T17:14:56.000Z</time>
      </trkpt>
      <trkpt lat="43.6607" lon="0.61828">
        <ele>147</ele>
        <time>2020-10-03T17:14:58.000Z</time>
      </trkpt>
      <trkpt lat="43.66068" lon="0.61824">
        <ele>147</ele>
        <time>2020-10-03T17:15:00.000Z</time>
      </trkpt>
      <trkpt lat="43.66066" lon="0.6182">
        <ele>147</ele>
        <time>2020-10-03T17:15:02.000Z</time>
      </trkpt>
      <trkpt lat="43.66065" lon="0.61817">
        <ele>147</ele>
        <time>2020-10-03T17:15:04.000Z</time>
      </trkpt>
      <trkpt lat="43.66064" lon="0.61812">
        <ele>147</ele>
        <time>2020-10-03T17:15:08.000Z</time>
      </trkpt>
      <trkpt lat="43.66063" lon="0.61807">
        <ele>148</ele>
        <time>2020-10-03T17:15:10.000Z</time>
      </trkpt>
      <trkpt lat="43.66062" lon="0.61803">
        <ele>148</ele>
        <time>2020-10-03T17:15:12.000Z</time>
      </trkpt>
      <trkpt lat="43.66062" lon="0.618">
        <ele>148</ele>
        <time>2020-10-03T17:15:14.000Z</time>
      </trkpt>
      <trkpt lat="43.6606" lon="0.61796">
        <ele>148</ele>
        <time>2020-10-03T17:15:16.000Z</time>
      </trkpt>
      <trkpt lat="43.66059" lon="0.61793">
        <ele>148</ele>
        <time>2020-10-03T17:15:18.000Z</time>
      </trkpt>
      <trkpt lat="43.66057" lon="0.6179">
        <ele>147</ele>
        <time>2020-10-03T17:15:20.000Z</time>
      </trkpt>
      <trkpt lat="43.66056" lon="0.61788">
        <ele>147</ele>
        <time>2020-10-03T17:15:22.000Z</time>
      </trkpt>
      <trkpt lat="43.66056" lon="0.61784">
        <ele>147</ele>
        <time>2020-10-03T17:15:24.000Z</time>
      </trkpt>
      <trkpt lat="43.66054" lon="0.61782">
        <ele>147</ele>
        <time>2020-10-03T17:15:26.000Z</time>
      </trkpt>
      <trkpt lat="43.66052" lon="0.61779">
        <ele>147</ele>
        <time>2020-10-03T17:15:28.000Z</time>
      </trkpt>
      <trkpt lat="43.6605" lon="0.61777">
        <ele>147</ele>
        <time>2020-10-03T17:15:30.000Z</time>
      </trkpt>
      <trkpt lat="43.66048" lon="0.61775">
        <ele>148</ele>
        <time>2020-10-03T17:15:32.000Z</time>
      </trkpt>
      <trkpt lat="43.66045" lon="0.61772">
        <ele>148</ele>
        <time>2020-10-03T17:15:34.000Z</time>
      </trkpt>
      <trkpt lat="43.66044" lon="0.61768">
        <ele>148.30908688923</ele>
        <time>2020-10-03T17:15:36.000Z</time>
      </trkpt>
      <trkpt lat="43.66044" lon="0.61764">
        <ele>149</ele>
        <time>2020-10-03T17:15:38.000Z</time>
      </trkpt>
      <trkpt lat="43.66044" lon="0.61762">
        <ele>150</ele>
        <time>2020-10-03T17:15:40.000Z</time>
      </trkpt>
      <trkpt lat="43.66043" lon="0.61758">
        <ele>150</ele>
        <time>2020-10-03T17:15:43.000Z</time>
      </trkpt>
      <trkpt lat="43.66042" lon="0.61755">
        <ele>150</ele>
        <time>2020-10-03T17:15:44.000Z</time>
      </trkpt>
      <trkpt lat="43.66041" lon="0.61753">
        <ele>150</ele>
        <time>2020-10-03T17:15:45.000Z</time>
      </trkpt>
      <trkpt lat="43.66039" lon="0.61749">
        <ele>150</ele>
        <time>2020-10-03T17:15:47.000Z</time>
      </trkpt>
      <trkpt lat="43.66038" lon="0.61745">
        <ele>150</ele>
        <time>2020-10-03T17:15:49.000Z</time>
      </trkpt>
      <trkpt lat="43.66038" lon="0.61741">
        <ele>150</ele>
        <time>2020-10-03T17:15:51.000Z</time>
      </trkpt>
      <trkpt lat="43.66037" lon="0.61737">
        <ele>150</ele>
        <time>2020-10-03T17:15:53.000Z</time>
      </trkpt>
      <trkpt lat="43.66036" lon="0.61732">
        <ele>149.6219502677</ele>
        <time>2020-10-03T17:15:55.000Z</time>
      </trkpt>
      <trkpt lat="43.66035" lon="0.61728">
        <ele>149.27480848902</ele>
        <time>2020-10-03T17:15:57.000Z</time>
      </trkpt>
      <trkpt lat="43.66033" lon="0.61724">
        <ele>150</ele>
        <time>2020-10-03T17:15:59.000Z</time>
      </trkpt>
      <trkpt lat="43.66031" lon="0.6172">
        <ele>149</ele>
        <time>2020-10-03T17:16:01.000Z</time>
      </trkpt>
      <trkpt lat="43.66029" lon="0.61717">
        <ele>149</ele>
        <time>2020-10-03T17:16:03.000Z</time>
      </trkpt>
      <trkpt lat="43.66027" lon="0.61714">
        <ele>150</ele>
        <time>2020-10-03T17:16:05.000Z</time>
      </trkpt>
      <trkpt lat="43.66025" lon="0.61711">
        <ele>150.3780497323</ele>
        <time>2020-10-03T17:16:07.000Z</time>
      </trkpt>
      <trkpt lat="43.66023" lon="0.61707">
        <ele>151</ele>
        <time>2020-10-03T17:16:09.000Z</time>
      </trkpt>
      <trkpt lat="43.66021" lon="0.61704">
        <ele>151</ele>
        <time>2020-10-03T17:16:11.000Z</time>
      </trkpt>
      <trkpt lat="43.6602" lon="0.61701">
        <ele>151</ele>
        <time>2020-10-03T17:16:13.000Z</time>
      </trkpt>
      <trkpt lat="43.66018" lon="0.61697">
        <ele>151</ele>
        <time>2020-10-03T17:16:15.000Z</time>
      </trkpt>
      <trkpt lat="43.66016" lon="0.61693">
        <ele>152</ele>
        <time>2020-10-03T17:16:17.000Z</time>
      </trkpt>
      <trkpt lat="43.66014" lon="0.6169">
        <ele>152.34399991808</ele>
        <time>2020-10-03T17:16:19.000Z</time>
      </trkpt>
      <trkpt lat="43.66012" lon="0.61686">
        <ele>153</ele>
        <time>2020-10-03T17:16:21.000Z</time>
      </trkpt>
      <trkpt lat="43.6601" lon="0.61683">
        <ele>153.34513264312</ele>
        <time>2020-10-03T17:16:23.000Z</time>
      </trkpt>
      <trkpt lat="43.66007" lon="0.61679">
        <ele>154</ele>
        <time>2020-10-03T17:16:25.000Z</time>
      </trkpt>
      <trkpt lat="43.66007" lon="0.61677">
        <ele>154</ele>
        <time>2020-10-03T17:16:26.000Z</time>
      </trkpt>
      <trkpt lat="43.66005" lon="0.61675">
        <ele>154</ele>
        <time>2020-10-03T17:16:27.000Z</time>
      </trkpt>
      <trkpt lat="43.66004" lon="0.61673">
        <ele>154</ele>
        <time>2020-10-03T17:16:28.000Z</time>
      </trkpt>
      <trkpt lat="43.66003" lon="0.6167">
        <ele>154</ele>
        <time>2020-10-03T17:16:29.000Z</time>
      </trkpt>
      <trkpt lat="43.66003" lon="0.61668">
        <ele>154</ele>
        <time>2020-10-03T17:16:30.000Z</time>
      </trkpt>
      <trkpt lat="43.66002" lon="0.61666">
        <ele>154.38554068225</ele>
        <time>2020-10-03T17:16:31.000Z</time>
      </trkpt>
      <trkpt lat="43.66" lon="0.61662">
        <ele>155</ele>
        <time>2020-10-03T17:16:33.000Z</time>
      </trkpt>
      <trkpt lat="43.65998" lon="0.61658">
        <ele>155</ele>
        <time>2020-10-03T17:16:35.000Z</time>
      </trkpt>
      <trkpt lat="43.65997" lon="0.61655">
        <ele>155</ele>
        <time>2020-10-03T17:16:37.000Z</time>
      </trkpt>
      <trkpt lat="43.65996" lon="0.61652">
        <ele>155</ele>
        <time>2020-10-03T17:16:39.000Z</time>
      </trkpt>
      <trkpt lat="43.65994" lon="0.61649">
        <ele>155</ele>
        <time>2020-10-03T17:16:41.000Z</time>
      </trkpt>
      <trkpt lat="43.65994" lon="0.61646">
        <ele>155</ele>
        <time>2020-10-03T17:16:43.000Z</time>
      </trkpt>
      <trkpt lat="43.65992" lon="0.61642">
        <ele>155</ele>
        <time>2020-10-03T17:16:45.000Z</time>
      </trkpt>
      <trkpt lat="43.65991" lon="0.61638">
        <ele>155.30487652587</ele>
        <time>2020-10-03T17:16:47.000Z</time>
      </trkpt>
      <trkpt lat="43.65989" lon="0.61635">
        <ele>156.26717736262</ele>
        <time>2020-10-03T17:16:49.000Z</time>
      </trkpt>
      <trkpt lat="43.65987" lon="0.61631">
        <ele>157</ele>
        <time>2020-10-03T17:16:51.000Z</time>
      </trkpt>
      <trkpt lat="43.65986" lon="0.61628">
        <ele>157</ele>
        <time>2020-10-03T17:16:53.000Z</time>
      </trkpt>
      <trkpt lat="43.65984" lon="0.61625">
        <ele>157</ele>
        <time>2020-10-03T17:16:55.000Z</time>
      </trkpt>
      <trkpt lat="43.65982" lon="0.61621">
        <ele>157.31818287603</ele>
        <time>2020-10-03T17:16:57.000Z</time>
      </trkpt>
      <trkpt lat="43.65981" lon="0.61616">
        <ele>158</ele>
        <time>2020-10-03T17:16:59.000Z</time>
      </trkpt>
      <trkpt lat="43.6598" lon="0.61612">
        <ele>159</ele>
        <time>2020-10-03T17:17:01.000Z</time>
      </trkpt>
      <trkpt lat="43.65977" lon="0.61608">
        <ele>159</ele>
        <time>2020-10-03T17:17:03.000Z</time>
      </trkpt>
      <trkpt lat="43.65976" lon="0.61605">
        <ele>158.67889897483</ele>
        <time>2020-10-03T17:17:05.000Z</time>
      </trkpt>
      <trkpt lat="43.65974" lon="0.61601">
        <ele>158</ele>
        <time>2020-10-03T17:17:07.000Z</time>
      </trkpt>
      <trkpt lat="43.65973" lon="0.61598">
        <ele>158</ele>
        <time>2020-10-03T17:17:09.000Z</time>
      </trkpt>
      <trkpt lat="43.65971" lon="0.61595">
        <ele>159</ele>
        <time>2020-10-03T17:17:11.000Z</time>
      </trkpt>
      <trkpt lat="43.65969" lon="0.61591">
        <ele>159</ele>
        <time>2020-10-03T17:17:13.000Z</time>
      </trkpt>
      <trkpt lat="43.65968" lon="0.61588">
        <ele>159</ele>
        <time>2020-10-03T17:17:15.000Z</time>
      </trkpt>
      <trkpt lat="43.65967" lon="0.61584">
        <ele>159.3820255422</ele>
        <time>2020-10-03T17:17:17.000Z</time>
      </trkpt>
      <trkpt lat="43.65966" lon="0.61581">
        <ele>160</ele>
        <time>2020-10-03T17:17:19.000Z</time>
      </trkpt>
      <trkpt lat="43.65965" lon="0.61577">
        <ele>160.42307692308</ele>
        <time>2020-10-03T17:17:21.000Z</time>
      </trkpt>
      <trkpt lat="43.65963" lon="0.61574">
        <ele>161</ele>
        <time>2020-10-03T17:17:23.000Z</time>
      </trkpt>
      <trkpt lat="43.65962" lon="0.6157">
        <ele>161</ele>
        <time>2020-10-03T17:17:25.000Z</time>
      </trkpt>
      <trkpt lat="43.6596" lon="0.61567">
        <ele>161</ele>
        <time>2020-10-03T17:17:27.000Z</time>
      </trkpt>
      <trkpt lat="43.65958" lon="0.61563">
        <ele>161</ele>
        <time>2020-10-03T17:17:29.000Z</time>
      </trkpt>
      <trkpt lat="43.65957" lon="0.61559">
        <ele>161</ele>
        <time>2020-10-03T17:17:31.000Z</time>
      </trkpt>
      <trkpt lat="43.65956" lon="0.61557">
        <ele>161</ele>
        <time>2020-10-03T17:17:32.000Z</time>
      </trkpt>
      <trkpt lat="43.65954" lon="0.61553">
        <ele>161</ele>
        <time>2020-10-03T17:17:34.000Z</time>
      </trkpt>
      <trkpt lat="43.65952" lon="0.6155">
        <ele>161</ele>
        <time>2020-10-03T17:17:36.000Z</time>
      </trkpt>
      <trkpt lat="43.6595" lon="0.61546">
        <ele>161.3411739903</ele>
        <time>2020-10-03T17:17:38.000Z</time>
      </trkpt>
      <trkpt lat="43.65949" lon="0.61542">
        <ele>162</ele>
        <time>2020-10-03T17:17:40.000Z</time>
      </trkpt>
      <trkpt lat="43.65948" lon="0.6154">
        <ele>162</ele>
        <time>2020-10-03T17:17:41.000Z</time>
      </trkpt>
      <trkpt lat="43.65946" lon="0.61536">
        <ele>162</ele>
        <time>2020-10-03T17:17:43.000Z</time>
      </trkpt>
      <trkpt lat="43.65945" lon="0.61532">
        <ele>162</ele>
        <time>2020-10-03T17:17:45.000Z</time>
      </trkpt>
      <trkpt lat="43.65943" lon="0.61528">
        <ele>163</ele>
        <time>2020-10-03T17:17:47.000Z</time>
      </trkpt>
      <trkpt lat="43.65942" lon="0.61525">
        <ele>163</ele>
        <time>2020-10-03T17:17:49.000Z</time>
      </trkpt>
      <trkpt lat="43.6594" lon="0.61521">
        <ele>163</ele>
        <time>2020-10-03T17:17:51.000Z</time>
      </trkpt>
      <trkpt lat="43.65939" lon="0.61517">
        <ele>163</ele>
        <time>2020-10-03T17:17:53.000Z</time>
      </trkpt>
      <trkpt lat="43.65938" lon="0.61515">
        <ele>163.87272219507</ele>
        <time>2020-10-03T17:17:54.000Z</time>
      </trkpt>
      <trkpt lat="43.65936" lon="0.61511">
        <ele>167</ele>
        <time>2020-10-03T17:17:56.000Z</time>
      </trkpt>
      <trkpt lat="43.65934" lon="0.61507">
        <ele>167</ele>
        <time>2020-10-03T17:17:58.000Z</time>
      </trkpt>
      <trkpt lat="43.65933" lon="0.61504">
        <ele>167.28235400416</ele>
        <time>2020-10-03T17:18:00.000Z</time>
      </trkpt>
      <trkpt lat="43.65931" lon="0.615">
        <ele>168</ele>
        <time>2020-10-03T17:18:02.000Z</time>
      </trkpt>
      <trkpt lat="43.65929" lon="0.61496">
        <ele>168</ele>
        <time>2020-10-03T17:18:04.000Z</time>
      </trkpt>
      <trkpt lat="43.65927" lon="0.61492">
        <ele>168</ele>
        <time>2020-10-03T17:18:06.000Z</time>
      </trkpt>
      <trkpt lat="43.65926" lon="0.61488">
        <ele>168</ele>
        <time>2020-10-03T17:18:08.000Z</time>
      </trkpt>
      <trkpt lat="43.65924" lon="0.61484">
        <ele>168</ele>
        <time>2020-10-03T17:18:10.000Z</time>
      </trkpt>
      <trkpt lat="43.65922" lon="0.6148">
        <ele>168.32608937615</ele>
        <time>2020-10-03T17:18:12.000Z</time>
      </trkpt>
      <trkpt lat="43.65921" lon="0.61477">
        <ele>169</ele>
        <time>2020-10-03T17:18:14.000Z</time>
      </trkpt>
      <trkpt lat="43.65919" lon="0.61473">
        <ele>169</ele>
        <time>2020-10-03T17:18:16.000Z</time>
      </trkpt>
      <trkpt lat="43.65918" lon="0.61469">
        <ele>170</ele>
        <time>2020-10-03T17:18:18.000Z</time>
      </trkpt>
      <trkpt lat="43.65917" lon="0.61465">
        <ele>170</ele>
        <time>2020-10-03T17:18:20.000Z</time>
      </trkpt>
      <trkpt lat="43.65916" lon="0.61461">
        <ele>170</ele>
        <time>2020-10-03T17:18:22.000Z</time>
      </trkpt>
      <trkpt lat="43.65915" lon="0.61457">
        <ele>170</ele>
        <time>2020-10-03T17:18:24.000Z</time>
      </trkpt>
      <trkpt lat="43.65914" lon="0.61453">
        <ele>171</ele>
        <time>2020-10-03T17:18:26.000Z</time>
      </trkpt>
      <trkpt lat="43.65912" lon="0.61448">
        <ele>171</ele>
        <time>2020-10-03T17:18:28.000Z</time>
      </trkpt>
      <trkpt lat="43.65911" lon="0.61444">
        <ele>171</ele>
        <time>2020-10-03T17:18:30.000Z</time>
      </trkpt>
      <trkpt lat="43.6591" lon="0.6144">
        <ele>171</ele>
        <time>2020-10-03T17:18:32.000Z</time>
      </trkpt>
      <trkpt lat="43.65908" lon="0.61436">
        <ele>171</ele>
        <time>2020-10-03T17:18:34.000Z</time>
      </trkpt>
      <trkpt lat="43.65907" lon="0.61431">
        <ele>171</ele>
        <time>2020-10-03T17:18:36.000Z</time>
      </trkpt>
      <trkpt lat="43.65906" lon="0.61428">
        <ele>172</ele>
        <time>2020-10-03T17:18:38.000Z</time>
      </trkpt>
      <trkpt lat="43.65905" lon="0.61423">
        <ele>172</ele>
        <time>2020-10-03T17:18:40.000Z</time>
      </trkpt>
      <trkpt lat="43.65903" lon="0.61419">
        <ele>172</ele>
        <time>2020-10-03T17:18:42.000Z</time>
      </trkpt>
      <trkpt lat="43.65902" lon="0.61415">
        <ele>172</ele>
        <time>2020-10-03T17:18:44.000Z</time>
      </trkpt>
      <trkpt lat="43.65901" lon="0.61411">
        <ele>172</ele>
        <time>2020-10-03T17:18:46.000Z</time>
      </trkpt>
      <trkpt lat="43.659" lon="0.61407">
        <ele>173</ele>
        <time>2020-10-03T17:18:48.000Z</time>
      </trkpt>
      <trkpt lat="43.65899" lon="0.61402">
        <ele>173.3157951468</ele>
        <time>2020-10-03T17:18:50.000Z</time>
      </trkpt>
      <trkpt lat="43.65897" lon="0.61398">
        <ele>174</ele>
        <time>2020-10-03T17:18:52.000Z</time>
      </trkpt>
      <trkpt lat="43.65896" lon="0.61394">
        <ele>174</ele>
        <time>2020-10-03T17:18:54.000Z</time>
      </trkpt>
      <trkpt lat="43.65895" lon="0.6139">
        <ele>176</ele>
        <time>2020-10-03T17:18:56.000Z</time>
      </trkpt>
      <trkpt lat="43.65893" lon="0.61386">
        <ele>176</ele>
        <time>2020-10-03T17:18:58.000Z</time>
      </trkpt>
      <trkpt lat="43.65891" lon="0.61382">
        <ele>176</ele>
        <time>2020-10-03T17:19:00.000Z</time>
      </trkpt>
      <trkpt lat="43.6589" lon="0.61378">
        <ele>176</ele>
        <time>2020-10-03T17:19:02.000Z</time>
      </trkpt>
      <trkpt lat="43.65889" lon="0.61374">
        <ele>176</ele>
        <time>2020-10-03T17:19:04.000Z</time>
      </trkpt>
      <trkpt lat="43.65888" lon="0.6137">
        <ele>176</ele>
        <time>2020-10-03T17:19:06.000Z</time>
      </trkpt>
      <trkpt lat="43.65886" lon="0.61365">
        <ele>176</ele>
        <time>2020-10-03T17:19:08.000Z</time>
      </trkpt>
      <trkpt lat="43.65884" lon="0.61361">
        <ele>176</ele>
        <time>2020-10-03T17:19:10.000Z</time>
      </trkpt>
      <trkpt lat="43.65883" lon="0.61357">
        <ele>176</ele>
        <time>2020-10-03T17:19:12.000Z</time>
      </trkpt>
      <trkpt lat="43.65882" lon="0.61354">
        <ele>176</ele>
        <time>2020-10-03T17:19:13.000Z</time>
      </trkpt>
      <trkpt lat="43.65881" lon="0.6135">
        <ele>175.79130492854</ele>
        <time>2020-10-03T17:19:15.000Z</time>
      </trkpt>
      <trkpt lat="43.6588" lon="0.61346">
        <ele>175</ele>
        <time>2020-10-03T17:19:17.000Z</time>
      </trkpt>
      <trkpt lat="43.65879" lon="0.61344">
        <ele>175</ele>
        <time>2020-10-03T17:19:18.000Z</time>
      </trkpt>
      <trkpt lat="43.65878" lon="0.61339">
        <ele>175.39822838436</ele>
        <time>2020-10-03T17:19:20.000Z</time>
      </trkpt>
      <trkpt lat="43.65877" lon="0.61337">
        <ele>176</ele>
        <time>2020-10-03T17:19:21.000Z</time>
      </trkpt>
      <trkpt lat="43.65876" lon="0.61333">
        <ele>176</ele>
        <time>2020-10-03T17:19:23.000Z</time>
      </trkpt>
      <trkpt lat="43.65874" lon="0.61328">
        <ele>176</ele>
        <time>2020-10-03T17:19:25.000Z</time>
      </trkpt>
      <trkpt lat="43.65873" lon="0.61324">
        <ele>176</ele>
        <time>2020-10-03T17:19:27.000Z</time>
      </trkpt>
      <trkpt lat="43.65871" lon="0.6132">
        <ele>176.41413684319</ele>
        <time>2020-10-03T17:19:29.000Z</time>
      </trkpt>
      <trkpt lat="43.6587" lon="0.61316">
        <ele>177</ele>
        <time>2020-10-03T17:19:31.000Z</time>
      </trkpt>
      <trkpt lat="43.65868" lon="0.61312">
        <ele>178</ele>
        <time>2020-10-03T17:19:33.000Z</time>
      </trkpt>
      <trkpt lat="43.65867" lon="0.61308">
        <ele>178</ele>
        <time>2020-10-03T17:19:35.000Z</time>
      </trkpt>
      <trkpt lat="43.65865" lon="0.61305">
        <ele>178</ele>
        <time>2020-10-03T17:19:37.000Z</time>
      </trkpt>
      <trkpt lat="43.65863" lon="0.61301">
        <ele>178</ele>
        <time>2020-10-03T17:19:39.000Z</time>
      </trkpt>
      <trkpt lat="43.65862" lon="0.61297">
        <ele>178</ele>
        <time>2020-10-03T17:19:41.000Z</time>
      </trkpt>
      <trkpt lat="43.6586" lon="0.61293">
        <ele>178</ele>
        <time>2020-10-03T17:19:43.000Z</time>
      </trkpt>
      <trkpt lat="43.65858" lon="0.6129">
        <ele>178</ele>
        <time>2020-10-03T17:19:45.000Z</time>
      </trkpt>
      <trkpt lat="43.65856" lon="0.61288">
        <ele>178</ele>
        <time>2020-10-03T17:19:47.000Z</time>
      </trkpt>
      <trkpt lat="43.65855" lon="0.61284">
        <ele>178</ele>
        <time>2020-10-03T17:19:49.000Z</time>
      </trkpt>
      <trkpt lat="43.65853" lon="0.61282">
        <ele>178</ele>
        <time>2020-10-03T17:19:51.000Z</time>
      </trkpt>
      <trkpt lat="43.65851" lon="0.61279">
        <ele>179</ele>
        <time>2020-10-03T17:19:53.000Z</time>
      </trkpt>
      <trkpt lat="43.65849" lon="0.61276">
        <ele>179.37349639134</ele>
        <time>2020-10-03T17:19:55.000Z</time>
      </trkpt>
      <trkpt lat="43.65847" lon="0.61272">
        <ele>180</ele>
        <time>2020-10-03T17:19:57.000Z</time>
      </trkpt>
      <trkpt lat="43.65846" lon="0.6127">
        <ele>180</ele>
        <time>2020-10-03T17:19:59.000Z</time>
      </trkpt>
      <trkpt lat="43.65844" lon="0.61267">
        <ele>180</ele>
        <time>2020-10-03T17:20:01.000Z</time>
      </trkpt>
      <trkpt lat="43.65842" lon="0.61264">
        <ele>180</ele>
        <time>2020-10-03T17:20:03.000Z</time>
      </trkpt>
      <trkpt lat="43.6584" lon="0.61261">
        <ele>180.09091362458</ele>
        <time>2020-10-03T17:20:05.000Z</time>
      </trkpt>
      <trkpt lat="43.65838" lon="0.61258">
        <ele>181</ele>
        <time>2020-10-03T17:20:07.000Z</time>
      </trkpt>
      <trkpt lat="43.65836" lon="0.61255">
        <ele>181</ele>
        <time>2020-10-03T17:20:09.000Z</time>
      </trkpt>
      <trkpt lat="43.65835" lon="0.61252">
        <ele>181.30863924401</ele>
        <time>2020-10-03T17:20:11.000Z</time>
      </trkpt>
      <trkpt lat="43.65832" lon="0.61251">
        <ele>181</ele>
        <time>2020-10-03T17:20:17.000Z</time>
      </trkpt>
      <trkpt lat="43.65829" lon="0.6125">
        <ele>181.34066165921</ele>
        <time>2020-10-03T17:20:19.000Z</time>
      </trkpt>
      <trkpt lat="43.65826" lon="0.61248">
        <ele>182</ele>
        <time>2020-10-03T17:20:21.000Z</time>
      </trkpt>
      <trkpt lat="43.65824" lon="0.61246">
        <ele>183</ele>
        <time>2020-10-03T17:20:23.000Z</time>
      </trkpt>
      <trkpt lat="43.65821" lon="0.61244">
        <ele>184</ele>
        <time>2020-10-03T17:20:25.000Z</time>
      </trkpt>
      <trkpt lat="43.65819" lon="0.6124">
        <ele>184</ele>
        <time>2020-10-03T17:20:27.000Z</time>
      </trkpt>
      <trkpt lat="43.65817" lon="0.61238">
        <ele>184</ele>
        <time>2020-10-03T17:20:29.000Z</time>
      </trkpt>
      <trkpt lat="43.65815" lon="0.61235">
        <ele>185</ele>
        <time>2020-10-03T17:20:31.000Z</time>
      </trkpt>
      <trkpt lat="43.65813" lon="0.61232">
        <ele>184.30863924401</ele>
        <time>2020-10-03T17:20:33.000Z</time>
      </trkpt>
      <trkpt lat="43.65812" lon="0.61228">
        <ele>185</ele>
        <time>2020-10-03T17:20:35.000Z</time>
      </trkpt>
      <trkpt lat="43.6581" lon="0.61225">
        <ele>185</ele>
        <time>2020-10-03T17:20:37.000Z</time>
      </trkpt>
      <trkpt lat="43.65808" lon="0.61222">
        <ele>185</ele>
        <time>2020-10-03T17:20:39.000Z</time>
      </trkpt>
      <trkpt lat="43.65806" lon="0.61218">
        <ele>185.40859667474</ele>
        <time>2020-10-03T17:20:41.000Z</time>
      </trkpt>
      <trkpt lat="43.65805" lon="0.61215">
        <ele>186</ele>
        <time>2020-10-03T17:20:43.000Z</time>
      </trkpt>
      <trkpt lat="43.65803" lon="0.61212">
        <ele>187</ele>
        <time>2020-10-03T17:20:45.000Z</time>
      </trkpt>
      <trkpt lat="43.65802" lon="0.61209">
        <ele>187.38938163365</ele>
        <time>2020-10-03T17:20:47.000Z</time>
      </trkpt>
      <trkpt lat="43.658" lon="0.61205">
        <ele>188</ele>
        <time>2020-10-03T17:20:49.000Z</time>
      </trkpt>
      <trkpt lat="43.65799" lon="0.61202">
        <ele>188</ele>
        <time>2020-10-03T17:20:51.000Z</time>
      </trkpt>
      <trkpt lat="43.65798" lon="0.61199">
        <ele>188</ele>
        <time>2020-10-03T17:20:53.000Z</time>
      </trkpt>
      <trkpt lat="43.65797" lon="0.61196">
        <ele>188</ele>
        <time>2020-10-03T17:20:55.000Z</time>
      </trkpt>
      <trkpt lat="43.65795" lon="0.61192">
        <ele>189</ele>
        <time>2020-10-03T17:20:57.000Z</time>
      </trkpt>
      <trkpt lat="43.65794" lon="0.61189">
        <ele>189</ele>
        <time>2020-10-03T17:20:59.000Z</time>
      </trkpt>
      <trkpt lat="43.65793" lon="0.61186">
        <ele>189.27928135703</ele>
        <time>2020-10-03T17:21:01.000Z</time>
      </trkpt>
      <trkpt lat="43.65791" lon="0.61182">
        <ele>190</ele>
        <time>2020-10-03T17:21:03.000Z</time>
      </trkpt>
      <trkpt lat="43.6579" lon="0.61179">
        <ele>190.4054013538</ele>
        <time>2020-10-03T17:21:05.000Z</time>
      </trkpt>
      <trkpt lat="43.65788" lon="0.61175">
        <ele>191</ele>
        <time>2020-10-03T17:21:07.000Z</time>
      </trkpt>
      <trkpt lat="43.65787" lon="0.61172">
        <ele>192</ele>
        <time>2020-10-03T17:21:09.000Z</time>
      </trkpt>
      <trkpt lat="43.65785" lon="0.61168">
        <ele>192</ele>
        <time>2020-10-03T17:21:11.000Z</time>
      </trkpt>
      <trkpt lat="43.65784" lon="0.61165">
        <ele>192</ele>
        <time>2020-10-03T17:21:13.000Z</time>
      </trkpt>
      <trkpt lat="43.65782" lon="0.61161">
        <ele>192</ele>
        <time>2020-10-03T17:21:15.000Z</time>
      </trkpt>
      <trkpt lat="43.65779" lon="0.61158">
        <ele>193</ele>
        <time>2020-10-03T17:21:17.000Z</time>
      </trkpt>
      <trkpt lat="43.65777" lon="0.61156">
        <ele>193</ele>
        <time>2020-10-03T17:21:19.000Z</time>
      </trkpt>
      <trkpt lat="43.65775" lon="0.61152">
        <ele>193</ele>
        <time>2020-10-03T17:21:21.000Z</time>
      </trkpt>
      <trkpt lat="43.65773" lon="0.61149">
        <ele>193</ele>
        <time>2020-10-03T17:21:23.000Z</time>
      </trkpt>
      <trkpt lat="43.65771" lon="0.61147">
        <ele>193</ele>
        <time>2020-10-03T17:21:25.000Z</time>
      </trkpt>
      <trkpt lat="43.65769" lon="0.61144">
        <ele>193</ele>
        <time>2020-10-03T17:21:27.000Z</time>
      </trkpt>
      <trkpt lat="43.65767" lon="0.61142">
        <ele>193</ele>
        <time>2020-10-03T17:21:29.000Z</time>
      </trkpt>
      <trkpt lat="43.65765" lon="0.6114">
        <ele>193</ele>
        <time>2020-10-03T17:21:31.000Z</time>
      </trkpt>
      <trkpt lat="43.65762" lon="0.61137">
        <ele>195</ele>
        <time>2020-10-03T17:21:33.000Z</time>
      </trkpt>
      <trkpt lat="43.6576" lon="0.61136">
        <ele>195.41964571429</ele>
        <time>2020-10-03T17:21:34.000Z</time>
      </trkpt>
      <trkpt lat="43.65758" lon="0.61134">
        <ele>196</ele>
        <time>2020-10-03T17:21:35.000Z</time>
      </trkpt>
      <trkpt lat="43.65756" lon="0.61133">
        <ele>196</ele>
        <time>2020-10-03T17:21:36.000Z</time>
      </trkpt>
      <trkpt lat="43.65754" lon="0.61132">
        <ele>196</ele>
        <time>2020-10-03T17:21:37.000Z</time>
      </trkpt>
      <trkpt lat="43.65751" lon="0.6113">
        <ele>196</ele>
        <time>2020-10-03T17:21:38.000Z</time>
      </trkpt>
      <trkpt lat="43.65749" lon="0.61128">
        <ele>194.87217415573</ele>
        <time>2020-10-03T17:21:39.000Z</time>
      </trkpt>
      <trkpt lat="43.65746" lon="0.61126">
        <ele>193</ele>
        <time>2020-10-03T17:21:40.000Z</time>
      </trkpt>
      <trkpt lat="43.65744" lon="0.61124">
        <ele>193</ele>
        <time>2020-10-03T17:21:41.000Z</time>
      </trkpt>
      <trkpt lat="43.65741" lon="0.61122">
        <ele>193</ele>
        <time>2020-10-03T17:21:42.000Z</time>
      </trkpt>
      <trkpt lat="43.65739" lon="0.6112">
        <ele>192.18584972984</ele>
        <time>2020-10-03T17:21:43.000Z</time>
      </trkpt>
      <trkpt lat="43.65737" lon="0.61118">
        <ele>191</ele>
        <time>2020-10-03T17:21:44.000Z</time>
      </trkpt>
      <trkpt lat="43.65735" lon="0.61116">
        <ele>191</ele>
        <time>2020-10-03T17:21:45.000Z</time>
      </trkpt>
      <trkpt lat="43.65733" lon="0.61113">
        <ele>191</ele>
        <time>2020-10-03T17:21:46.000Z</time>
      </trkpt>
      <trkpt lat="43.65731" lon="0.61111">
        <ele>190.40740506629</ele>
        <time>2020-10-03T17:21:47.000Z</time>
      </trkpt>
      <trkpt lat="43.65728" lon="0.61109">
        <ele>189</ele>
        <time>2020-10-03T17:21:48.000Z</time>
      </trkpt>
      <trkpt lat="43.65726" lon="0.61106">
        <ele>189</ele>
        <time>2020-10-03T17:21:49.000Z</time>
      </trkpt>
      <trkpt lat="43.65724" lon="0.61104">
        <ele>189</ele>
        <time>2020-10-03T17:21:50.000Z</time>
      </trkpt>
      <trkpt lat="43.65721" lon="0.61102">
        <ele>189</ele>
        <time>2020-10-03T17:21:51.000Z</time>
      </trkpt>
      <trkpt lat="43.65719" lon="0.611">
        <ele>188.7</ele>
        <time>2020-10-03T17:21:52.000Z</time>
      </trkpt>
      <trkpt lat="43.65716" lon="0.61098">
        <ele>188</ele>
        <time>2020-10-03T17:21:53.000Z</time>
      </trkpt>
      <trkpt lat="43.65713" lon="0.61096">
        <ele>187.63094857143</ele>
        <time>2020-10-03T17:21:54.000Z</time>
      </trkpt>
      <trkpt lat="43.65711" lon="0.61093">
        <ele>187</ele>
        <time>2020-10-03T17:21:55.000Z</time>
      </trkpt>
      <trkpt lat="43.65708" lon="0.61091">
        <ele>187</ele>
        <time>2020-10-03T17:21:56.000Z</time>
      </trkpt>
      <trkpt lat="43.65705" lon="0.61089">
        <ele>187</ele>
        <time>2020-10-03T17:21:57.000Z</time>
      </trkpt>
      <trkpt lat="43.65703" lon="0.61086">
        <ele>187</ele>
        <time>2020-10-03T17:21:58.000Z</time>
      </trkpt>
      <trkpt lat="43.657" lon="0.61084">
        <ele>187</ele>
        <time>2020-10-03T17:21:59.000Z</time>
      </trkpt>
      <trkpt lat="43.65698" lon="0.61082">
        <ele>187</ele>
        <time>2020-10-03T17:22:00.000Z</time>
      </trkpt>
      <trkpt lat="43.65695" lon="0.61079">
        <ele>186.74390434267</ele>
        <time>2020-10-03T17:22:01.000Z</time>
      </trkpt>
      <trkpt lat="43.65692" lon="0.61077">
        <ele>186</ele>
        <time>2020-10-03T17:22:02.000Z</time>
      </trkpt>
      <trkpt lat="43.6569" lon="0.61074">
        <ele>186</ele>
        <time>2020-10-03T17:22:03.000Z</time>
      </trkpt>
      <trkpt lat="43.65687" lon="0.61072">
        <ele>185.56179258173</ele>
        <time>2020-10-03T17:22:04.000Z</time>
      </trkpt>
      <trkpt lat="43.65684" lon="0.6107">
        <ele>184.5</ele>
        <time>2020-10-03T17:22:05.000Z</time>
      </trkpt>
      <trkpt lat="43.65681" lon="0.61067">
        <ele>184</ele>
        <time>2020-10-03T17:22:06.000Z</time>
      </trkpt>
      <trkpt lat="43.65679" lon="0.61065">
        <ele>184</ele>
        <time>2020-10-03T17:22:07.000Z</time>
      </trkpt>
      <trkpt lat="43.65676" lon="0.61062">
        <ele>184</ele>
        <time>2020-10-03T17:22:08.000Z</time>
      </trkpt>
      <trkpt lat="43.65673" lon="0.6106">
        <ele>184</ele>
        <time>2020-10-03T17:22:09.000Z</time>
      </trkpt>
      <trkpt lat="43.65671" lon="0.61058">
        <ele>184</ele>
        <time>2020-10-03T17:22:10.000Z</time>
      </trkpt>
      <trkpt lat="43.65668" lon="0.61056">
        <ele>183.39024694827</ele>
        <time>2020-10-03T17:22:11.000Z</time>
      </trkpt>
      <trkpt lat="43.65665" lon="0.61054">
        <ele>182</ele>
        <time>2020-10-03T17:22:12.000Z</time>
      </trkpt>
      <trkpt lat="43.65663" lon="0.61052">
        <ele>181.72071864297</ele>
        <time>2020-10-03T17:22:13.000Z</time>
      </trkpt>
      <trkpt lat="43.6566" lon="0.61049">
        <ele>181</ele>
        <time>2020-10-03T17:22:14.000Z</time>
      </trkpt>
      <trkpt lat="43.65658" lon="0.61047">
        <ele>181</ele>
        <time>2020-10-03T17:22:15.000Z</time>
      </trkpt>
      <trkpt lat="43.65655" lon="0.61045">
        <ele>180.5833362963</ele>
        <time>2020-10-03T17:22:16.000Z</time>
      </trkpt>
      <trkpt lat="43.65653" lon="0.61043">
        <ele>180</ele>
        <time>2020-10-03T17:22:17.000Z</time>
      </trkpt>
      <trkpt lat="43.65651" lon="0.6104">
        <ele>180</ele>
        <time>2020-10-03T17:22:18.000Z</time>
      </trkpt>
      <trkpt lat="43.65649" lon="0.61037">
        <ele>180</ele>
        <time>2020-10-03T17:22:19.000Z</time>
      </trkpt>
      <trkpt lat="43.65647" lon="0.61034">
        <ele>180</ele>
        <time>2020-10-03T17:22:20.000Z</time>
      </trkpt>
      <trkpt lat="43.65645" lon="0.61032">
        <ele>179.16980630826</ele>
        <time>2020-10-03T17:22:21.000Z</time>
      </trkpt>
      <trkpt lat="43.65644" lon="0.61029">
        <ele>178</ele>
        <time>2020-10-03T17:22:22.000Z</time>
      </trkpt>
      <trkpt lat="43.65642" lon="0.61026">
        <ele>178.47619221767</ele>
        <time>2020-10-03T17:22:23.000Z</time>
      </trkpt>
      <trkpt lat="43.65641" lon="0.61022">
        <ele>179</ele>
        <time>2020-10-03T17:22:24.000Z</time>
      </trkpt>
      <trkpt lat="43.65639" lon="0.61019">
        <ele>179</ele>
        <time>2020-10-03T17:22:25.000Z</time>
      </trkpt>
      <trkpt lat="43.65637" lon="0.61015">
        <ele>179</ele>
        <time>2020-10-03T17:22:26.000Z</time>
      </trkpt>
      <trkpt lat="43.65636" lon="0.61012">
        <ele>179</ele>
        <time>2020-10-03T17:22:27.000Z</time>
      </trkpt>
      <trkpt lat="43.65634" lon="0.61008">
        <ele>179</ele>
        <time>2020-10-03T17:22:28.000Z</time>
      </trkpt>
      <trkpt lat="43.65633" lon="0.61005">
        <ele>179</ele>
        <time>2020-10-03T17:22:29.000Z</time>
      </trkpt>
      <trkpt lat="43.65631" lon="0.61002">
        <ele>179</ele>
        <time>2020-10-03T17:22:30.000Z</time>
      </trkpt>
      <trkpt lat="43.65628" lon="0.60998">
        <ele>179</ele>
        <time>2020-10-03T17:22:31.000Z</time>
      </trkpt>
      <trkpt lat="43.65627" lon="0.60995">
        <ele>178.82089637781</ele>
        <time>2020-10-03T17:22:32.000Z</time>
      </trkpt>
      <trkpt lat="43.65625" lon="0.60991">
        <ele>176</ele>
        <time>2020-10-03T17:22:33.000Z</time>
      </trkpt>
      <trkpt lat="43.65623" lon="0.60988">
        <ele>175.57407319617</ele>
        <time>2020-10-03T17:22:34.000Z</time>
      </trkpt>
      <trkpt lat="43.65621" lon="0.60984">
        <ele>175</ele>
        <time>2020-10-03T17:22:35.000Z</time>
      </trkpt>
      <trkpt lat="43.6562" lon="0.60981">
        <ele>175</ele>
        <time>2020-10-03T17:22:36.000Z</time>
      </trkpt>
      <trkpt lat="43.65618" lon="0.60977">
        <ele>175</ele>
        <time>2020-10-03T17:22:37.000Z</time>
      </trkpt>
      <trkpt lat="43.65617" lon="0.60974">
        <ele>175</ele>
        <time>2020-10-03T17:22:38.000Z</time>
      </trkpt>
      <trkpt lat="43.65615" lon="0.60971">
        <ele>175</ele>
        <time>2020-10-03T17:22:39.000Z</time>
      </trkpt>
      <trkpt lat="43.65614" lon="0.60968">
        <ele>174.74156850901</ele>
        <time>2020-10-03T17:22:40.000Z</time>
      </trkpt>
      <trkpt lat="43.65612" lon="0.60964">
        <ele>174</ele>
        <time>2020-10-03T17:22:41.000Z</time>
      </trkpt>
      <trkpt lat="43.65611" lon="0.60961">
        <ele>174</ele>
        <time>2020-10-03T17:22:42.000Z</time>
      </trkpt>
      <trkpt lat="43.6561" lon="0.60957">
        <ele>174</ele>
        <time>2020-10-03T17:22:43.000Z</time>
      </trkpt>
      <trkpt lat="43.65608" lon="0.60954">
        <ele>174</ele>
        <time>2020-10-03T17:22:44.000Z</time>
      </trkpt>
      <trkpt lat="43.65607" lon="0.60951">
        <ele>174</ele>
        <time>2020-10-03T17:22:45.000Z</time>
      </trkpt>
      <trkpt lat="43.65605" lon="0.60947">
        <ele>174</ele>
        <time>2020-10-03T17:22:46.000Z</time>
      </trkpt>
      <trkpt lat="43.65604" lon="0.60944">
        <ele>174</ele>
        <time>2020-10-03T17:22:47.000Z</time>
      </trkpt>
      <trkpt lat="43.65602" lon="0.60941">
        <ele>174</ele>
        <time>2020-10-03T17:22:48.000Z</time>
      </trkpt>
      <trkpt lat="43.656" lon="0.60938">
        <ele>174</ele>
        <time>2020-10-03T17:22:49.000Z</time>
      </trkpt>
      <trkpt lat="43.65598" lon="0.60935">
        <ele>174</ele>
        <time>2020-10-03T17:22:50.000Z</time>
      </trkpt>
      <trkpt lat="43.65597" lon="0.60931">
        <ele>174</ele>
        <time>2020-10-03T17:22:51.000Z</time>
      </trkpt>
      <trkpt lat="43.65595" lon="0.60928">
        <ele>174</ele>
        <time>2020-10-03T17:22:52.000Z</time>
      </trkpt>
      <trkpt lat="43.65593" lon="0.60925">
        <ele>174</ele>
        <time>2020-10-03T17:22:53.000Z</time>
      </trkpt>
      <trkpt lat="43.65591" lon="0.60921">
        <ele>173.68686646669</ele>
        <time>2020-10-03T17:22:54.000Z</time>
      </trkpt>
      <trkpt lat="43.65589" lon="0.60918">
        <ele>173</ele>
        <time>2020-10-03T17:22:55.000Z</time>
      </trkpt>
      <trkpt lat="43.65587" lon="0.60915">
        <ele>173</ele>
        <time>2020-10-03T17:22:56.000Z</time>
      </trkpt>
      <trkpt lat="43.65585" lon="0.60912">
        <ele>173</ele>
        <time>2020-10-03T17:22:57.000Z</time>
      </trkpt>
      <trkpt lat="43.65583" lon="0.60909">
        <ele>172.68627647827</ele>
        <time>2020-10-03T17:22:58.000Z</time>
      </trkpt>
      <trkpt lat="43.65582" lon="0.60906">
        <ele>172</ele>
        <time>2020-10-03T17:22:59.000Z</time>
      </trkpt>
      <trkpt lat="43.6558" lon="0.60902">
        <ele>171.63636363636</ele>
        <time>2020-10-03T17:23:00.000Z</time>
      </trkpt>
      <trkpt lat="43.65578" lon="0.60899">
        <ele>171</ele>
        <time>2020-10-03T17:23:01.000Z</time>
      </trkpt>
      <trkpt lat="43.65576" lon="0.60896">
        <ele>171</ele>
        <time>2020-10-03T17:23:02.000Z</time>
      </trkpt>
      <trkpt lat="43.65574" lon="0.60892">
        <ele>171</ele>
        <time>2020-10-03T17:23:03.000Z</time>
      </trkpt>
      <trkpt lat="43.65572" lon="0.60889">
        <ele>171</ele>
        <time>2020-10-03T17:23:04.000Z</time>
      </trkpt>
      <trkpt lat="43.65571" lon="0.60886">
        <ele>170.66423746391</ele>
        <time>2020-10-03T17:23:05.000Z</time>
      </trkpt>
      <trkpt lat="43.65569" lon="0.60882">
        <ele>170</ele>
        <time>2020-10-03T17:23:06.000Z</time>
      </trkpt>
      <trkpt lat="43.65567" lon="0.60879">
        <ele>170</ele>
        <time>2020-10-03T17:23:07.000Z</time>
      </trkpt>
      <trkpt lat="43.65565" lon="0.60876">
        <ele>169.71910370914</ele>
        <time>2020-10-03T17:23:08.000Z</time>
      </trkpt>
      <trkpt lat="43.65562" lon="0.60873">
        <ele>169</ele>
        <time>2020-10-03T17:23:09.000Z</time>
      </trkpt>
      <trkpt lat="43.65561" lon="0.6087">
        <ele>168.71591272727</ele>
        <time>2020-10-03T17:23:10.000Z</time>
      </trkpt>
      <trkpt lat="43.65559" lon="0.60866">
        <ele>168</ele>
        <time>2020-10-03T17:23:11.000Z</time>
      </trkpt>
      <trkpt lat="43.65557" lon="0.60863">
        <ele>167.68675107568</ele>
        <time>2020-10-03T17:23:12.000Z</time>
      </trkpt>
      <trkpt lat="43.65555" lon="0.6086">
        <ele>167</ele>
        <time>2020-10-03T17:23:13.000Z</time>
      </trkpt>
      <trkpt lat="43.65553" lon="0.60856">
        <ele>167</ele>
        <time>2020-10-03T17:23:14.000Z</time>
      </trkpt>
      <trkpt lat="43.65552" lon="0.60853">
        <ele>167</ele>
        <time>2020-10-03T17:23:15.000Z</time>
      </trkpt>
      <trkpt lat="43.6555" lon="0.60849">
        <ele>167</ele>
        <time>2020-10-03T17:23:16.000Z</time>
      </trkpt>
      <trkpt lat="43.65548" lon="0.60846">
        <ele>167</ele>
        <time>2020-10-03T17:23:17.000Z</time>
      </trkpt>
      <trkpt lat="43.65547" lon="0.60843">
        <ele>167</ele>
        <time>2020-10-03T17:23:18.000Z</time>
      </trkpt>
      <trkpt lat="43.65545" lon="0.60839">
        <ele>167</ele>
        <time>2020-10-03T17:23:19.000Z</time>
      </trkpt>
      <trkpt lat="43.65543" lon="0.60836">
        <ele>167</ele>
        <time>2020-10-03T17:23:20.000Z</time>
      </trkpt>
      <trkpt lat="43.65541" lon="0.60833">
        <ele>166.70635025448</ele>
        <time>2020-10-03T17:23:21.000Z</time>
      </trkpt>
      <trkpt lat="43.6554" lon="0.6083">
        <ele>166</ele>
        <time>2020-10-03T17:23:22.000Z</time>
      </trkpt>
      <trkpt lat="43.65538" lon="0.60827">
        <ele>166</ele>
        <time>2020-10-03T17:23:23.000Z</time>
      </trkpt>
      <trkpt lat="43.65536" lon="0.60823">
        <ele>166</ele>
        <time>2020-10-03T17:23:24.000Z</time>
      </trkpt>
      <trkpt lat="43.65535" lon="0.60819">
        <ele>166</ele>
        <time>2020-10-03T17:23:25.000Z</time>
      </trkpt>
      <trkpt lat="43.65534" lon="0.60815">
        <ele>166</ele>
        <time>2020-10-03T17:23:26.000Z</time>
      </trkpt>
      <trkpt lat="43.65533" lon="0.60812">
        <ele>166</ele>
        <time>2020-10-03T17:23:27.000Z</time>
      </trkpt>
      <trkpt lat="43.65531" lon="0.60808">
        <ele>166</ele>
        <time>2020-10-03T17:23:28.000Z</time>
      </trkpt>
      <trkpt lat="43.6553" lon="0.60804">
        <ele>166</ele>
        <time>2020-10-03T17:23:29.000Z</time>
      </trkpt>
      <trkpt lat="43.6553" lon="0.60801">
        <ele>166</ele>
        <time>2020-10-03T17:23:30.000Z</time>
      </trkpt>
      <trkpt lat="43.65529" lon="0.60797">
        <ele>166</ele>
        <time>2020-10-03T17:23:31.000Z</time>
      </trkpt>
      <trkpt lat="43.6553" lon="0.60793">
        <ele>166</ele>
        <time>2020-10-03T17:23:32.000Z</time>
      </trkpt>
      <trkpt lat="43.6553" lon="0.60789">
        <ele>166</ele>
        <time>2020-10-03T17:23:33.000Z</time>
      </trkpt>
      <trkpt lat="43.65531" lon="0.60785">
        <ele>166</ele>
        <time>2020-10-03T17:23:34.000Z</time>
      </trkpt>
      <trkpt lat="43.65533" lon="0.60782">
        <ele>166</ele>
        <time>2020-10-03T17:23:35.000Z</time>
      </trkpt>
      <trkpt lat="43.65535" lon="0.60778">
        <ele>166</ele>
        <time>2020-10-03T17:23:36.000Z</time>
      </trkpt>
      <trkpt lat="43.65536" lon="0.60775">
        <ele>166</ele>
        <time>2020-10-03T17:23:37.000Z</time>
      </trkpt>
      <trkpt lat="43.65537" lon="0.60771">
        <ele>166</ele>
        <time>2020-10-03T17:23:38.000Z</time>
      </trkpt>
      <trkpt lat="43.65538" lon="0.60767">
        <ele>166</ele>
        <time>2020-10-03T17:23:39.000Z</time>
      </trkpt>
      <trkpt lat="43.65538" lon="0.60762">
        <ele>166</ele>
        <time>2020-10-03T17:23:40.000Z</time>
      </trkpt>
      <trkpt lat="43.65539" lon="0.60758">
        <ele>166</ele>
        <time>2020-10-03T17:23:41.000Z</time>
      </trkpt>
      <trkpt lat="43.6554" lon="0.60754">
        <ele>166</ele>
        <time>2020-10-03T17:23:42.000Z</time>
      </trkpt>
      <trkpt lat="43.65541" lon="0.6075">
        <ele>164.89655578278</ele>
        <time>2020-10-03T17:23:43.000Z</time>
      </trkpt>
      <trkpt lat="43.65542" lon="0.60746">
        <ele>162</ele>
        <time>2020-10-03T17:23:44.000Z</time>
      </trkpt>
      <trkpt lat="43.65543" lon="0.60742">
        <ele>162</ele>
        <time>2020-10-03T17:23:45.000Z</time>
      </trkpt>
      <trkpt lat="43.65544" lon="0.60738">
        <ele>161.30841926454</ele>
        <time>2020-10-03T17:23:46.000Z</time>
      </trkpt>
      <trkpt lat="43.65545" lon="0.60734">
        <ele>160</ele>
        <time>2020-10-03T17:23:47.000Z</time>
      </trkpt>
      <trkpt lat="43.65546" lon="0.6073">
        <ele>159.29411056063</ele>
        <time>2020-10-03T17:23:48.000Z</time>
      </trkpt>
      <trkpt lat="43.65547" lon="0.60726">
        <ele>158</ele>
        <time>2020-10-03T17:23:49.000Z</time>
      </trkpt>
      <trkpt lat="43.65548" lon="0.60722">
        <ele>158</ele>
        <time>2020-10-03T17:23:50.000Z</time>
      </trkpt>
      <trkpt lat="43.6555" lon="0.60718">
        <ele>158</ele>
        <time>2020-10-03T17:23:51.000Z</time>
      </trkpt>
      <trkpt lat="43.65551" lon="0.60714">
        <ele>158</ele>
        <time>2020-10-03T17:23:52.000Z</time>
      </trkpt>
      <trkpt lat="43.65552" lon="0.6071">
        <ele>158</ele>
        <time>2020-10-03T17:23:53.000Z</time>
      </trkpt>
      <trkpt lat="43.65553" lon="0.60705">
        <ele>158</ele>
        <time>2020-10-03T17:23:54.000Z</time>
      </trkpt>
      <trkpt lat="43.65553" lon="0.60701">
        <ele>158</ele>
        <time>2020-10-03T17:23:55.000Z</time>
      </trkpt>
      <trkpt lat="43.65555" lon="0.60698">
        <ele>158</ele>
        <time>2020-10-03T17:23:56.000Z</time>
      </trkpt>
      <trkpt lat="43.65556" lon="0.60693">
        <ele>158.33027619898</ele>
        <time>2020-10-03T17:23:57.000Z</time>
      </trkpt>
      <trkpt lat="43.65557" lon="0.60689">
        <ele>159</ele>
        <time>2020-10-03T17:23:58.000Z</time>
      </trkpt>
      <trkpt lat="43.65558" lon="0.60685">
        <ele>159</ele>
        <time>2020-10-03T17:23:59.000Z</time>
      </trkpt>
      <trkpt lat="43.6556" lon="0.60681">
        <ele>159</ele>
        <time>2020-10-03T17:24:00.000Z</time>
      </trkpt>
      <trkpt lat="43.65561" lon="0.60677">
        <ele>159</ele>
        <time>2020-10-03T17:24:01.000Z</time>
      </trkpt>
      <trkpt lat="43.65562" lon="0.60673">
        <ele>159</ele>
        <time>2020-10-03T17:24:02.000Z</time>
      </trkpt>
      <trkpt lat="43.65563" lon="0.60669">
        <ele>158.60869516824</ele>
        <time>2020-10-03T17:24:03.000Z</time>
      </trkpt>
      <trkpt lat="43.65565" lon="0.60666">
        <ele>158</ele>
        <time>2020-10-03T17:24:04.000Z</time>
      </trkpt>
      <trkpt lat="43.65566" lon="0.60662">
        <ele>158</ele>
        <time>2020-10-03T17:24:05.000Z</time>
      </trkpt>
      <trkpt lat="43.65568" lon="0.60658">
        <ele>157.64285496602</ele>
        <time>2020-10-03T17:24:06.000Z</time>
      </trkpt>
      <trkpt lat="43.65569" lon="0.60654">
        <ele>157</ele>
        <time>2020-10-03T17:24:07.000Z</time>
      </trkpt>
      <trkpt lat="43.6557" lon="0.6065">
        <ele>157</ele>
        <time>2020-10-03T17:24:08.000Z</time>
      </trkpt>
      <trkpt lat="43.65572" lon="0.60646">
        <ele>157</ele>
        <time>2020-10-03T17:24:09.000Z</time>
      </trkpt>
      <trkpt lat="43.65573" lon="0.60642">
        <ele>157</ele>
        <time>2020-10-03T17:24:10.000Z</time>
      </trkpt>
      <trkpt lat="43.65574" lon="0.60638">
        <ele>157</ele>
        <time>2020-10-03T17:24:11.000Z</time>
      </trkpt>
      <trkpt lat="43.65576" lon="0.60634">
        <ele>157</ele>
        <time>2020-10-03T17:24:12.000Z</time>
      </trkpt>
      <trkpt lat="43.65577" lon="0.6063">
        <ele>157</ele>
        <time>2020-10-03T17:24:13.000Z</time>
      </trkpt>
      <trkpt lat="43.65579" lon="0.60626">
        <ele>157</ele>
        <time>2020-10-03T17:24:14.000Z</time>
      </trkpt>
      <trkpt lat="43.6558" lon="0.60623">
        <ele>157</ele>
        <time>2020-10-03T17:24:15.000Z</time>
      </trkpt>
      <trkpt lat="43.65582" lon="0.60619">
        <ele>157</ele>
        <time>2020-10-03T17:24:16.000Z</time>
      </trkpt>
      <trkpt lat="43.65584" lon="0.60615">
        <ele>157</ele>
        <time>2020-10-03T17:24:17.000Z</time>
      </trkpt>
      <trkpt lat="43.65585" lon="0.60612">
        <ele>156.57522003602</ele>
        <time>2020-10-03T17:24:18.000Z</time>
      </trkpt>
      <trkpt lat="43.65587" lon="0.60608">
        <ele>156</ele>
        <time>2020-10-03T17:24:19.000Z</time>
      </trkpt>
      <trkpt lat="43.65589" lon="0.60604">
        <ele>156</ele>
        <time>2020-10-03T17:24:20.000Z</time>
      </trkpt>
      <trkpt lat="43.6559" lon="0.60601">
        <ele>156</ele>
        <time>2020-10-03T17:24:21.000Z</time>
      </trkpt>
      <trkpt lat="43.65592" lon="0.60597">
        <ele>156</ele>
        <time>2020-10-03T17:24:22.000Z</time>
      </trkpt>
      <trkpt lat="43.65593" lon="0.60593">
        <ele>155.58620841854</ele>
        <time>2020-10-03T17:24:23.000Z</time>
      </trkpt>
      <trkpt lat="43.65594" lon="0.60589">
        <ele>155</ele>
        <time>2020-10-03T17:24:24.000Z</time>
      </trkpt>
      <trkpt lat="43.65595" lon="0.60585">
        <ele>155</ele>
        <time>2020-10-03T17:24:25.000Z</time>
      </trkpt>
      <trkpt lat="43.65597" lon="0.60581">
        <ele>154.65000228571</ele>
        <time>2020-10-03T17:24:26.000Z</time>
      </trkpt>
      <trkpt lat="43.65598" lon="0.60577">
        <ele>154</ele>
        <time>2020-10-03T17:24:27.000Z</time>
      </trkpt>
      <trkpt lat="43.65599" lon="0.60573">
        <ele>154</ele>
        <time>2020-10-03T17:24:28.000Z</time>
      </trkpt>
      <trkpt lat="43.656" lon="0.60569">
        <ele>154</ele>
        <time>2020-10-03T17:24:29.000Z</time>
      </trkpt>
      <trkpt lat="43.65601" lon="0.60565">
        <ele>154</ele>
        <time>2020-10-03T17:24:30.000Z</time>
      </trkpt>
      <trkpt lat="43.65603" lon="0.60561">
        <ele>154</ele>
        <time>2020-10-03T17:24:31.000Z</time>
      </trkpt>
      <trkpt lat="43.65604" lon="0.60557">
        <ele>153.56250285714</ele>
        <time>2020-10-03T17:24:32.000Z</time>
      </trkpt>
      <trkpt lat="43.65606" lon="0.60553">
        <ele>153</ele>
        <time>2020-10-03T17:24:33.000Z</time>
      </trkpt>
      <trkpt lat="43.65607" lon="0.60549">
        <ele>153</ele>
        <time>2020-10-03T17:24:34.000Z</time>
      </trkpt>
      <trkpt lat="43.65608" lon="0.60545">
        <ele>153</ele>
        <time>2020-10-03T17:24:35.000Z</time>
      </trkpt>
      <trkpt lat="43.65609" lon="0.60541">
        <ele>153</ele>
        <time>2020-10-03T17:24:36.000Z</time>
      </trkpt>
      <trkpt lat="43.6561" lon="0.60537">
        <ele>153</ele>
        <time>2020-10-03T17:24:37.000Z</time>
      </trkpt>
      <trkpt lat="43.65611" lon="0.60533">
        <ele>153</ele>
        <time>2020-10-03T17:24:38.000Z</time>
      </trkpt>
      <trkpt lat="43.65612" lon="0.60529">
        <ele>152.6909050711</ele>
        <time>2020-10-03T17:24:39.000Z</time>
      </trkpt>
      <trkpt lat="43.65612" lon="0.60525">
        <ele>152</ele>
        <time>2020-10-03T17:24:40.000Z</time>
      </trkpt>
      <trkpt lat="43.65613" lon="0.6052">
        <ele>152</ele>
        <time>2020-10-03T17:24:41.000Z</time>
      </trkpt>
      <trkpt lat="43.65614" lon="0.60516">
        <ele>151.71942280421</ele>
        <time>2020-10-03T17:24:42.000Z</time>
      </trkpt>
      <trkpt lat="43.65615" lon="0.60512">
        <ele>151</ele>
        <time>2020-10-03T17:24:43.000Z</time>
      </trkpt>
      <trkpt lat="43.65615" lon="0.60508">
        <ele>151</ele>
        <time>2020-10-03T17:24:44.000Z</time>
      </trkpt>
      <trkpt lat="43.65616" lon="0.60504">
        <ele>151</ele>
        <time>2020-10-03T17:24:45.000Z</time>
      </trkpt>
      <trkpt lat="43.65617" lon="0.605">
        <ele>151</ele>
        <time>2020-10-03T17:24:46.000Z</time>
      </trkpt>
      <trkpt lat="43.65618" lon="0.60496">
        <ele>150.57522003602</ele>
        <time>2020-10-03T17:24:47.000Z</time>
      </trkpt>
      <trkpt lat="43.65618" lon="0.60492">
        <ele>150</ele>
        <time>2020-10-03T17:24:48.000Z</time>
      </trkpt>
      <trkpt lat="43.65619" lon="0.60488">
        <ele>150</ele>
        <time>2020-10-03T17:24:49.000Z</time>
      </trkpt>
      <trkpt lat="43.6562" lon="0.60484">
        <ele>150</ele>
        <time>2020-10-03T17:24:50.000Z</time>
      </trkpt>
      <trkpt lat="43.65621" lon="0.6048">
        <ele>150</ele>
        <time>2020-10-03T17:24:51.000Z</time>
      </trkpt>
      <trkpt lat="43.65622" lon="0.60476">
        <ele>150</ele>
        <time>2020-10-03T17:24:52.000Z</time>
      </trkpt>
      <trkpt lat="43.65623" lon="0.60473">
        <ele>150</ele>
        <time>2020-10-03T17:24:53.000Z</time>
      </trkpt>
      <trkpt lat="43.65624" lon="0.60469">
        <ele>150</ele>
        <time>2020-10-03T17:24:54.000Z</time>
      </trkpt>
      <trkpt lat="43.65625" lon="0.60465">
        <ele>150</ele>
        <time>2020-10-03T17:24:55.000Z</time>
      </trkpt>
      <trkpt lat="43.65626" lon="0.60461">
        <ele>149.57547215379</ele>
        <time>2020-10-03T17:24:56.000Z</time>
      </trkpt>
      <trkpt lat="43.65627" lon="0.60457">
        <ele>149</ele>
        <time>2020-10-03T17:24:57.000Z</time>
      </trkpt>
      <trkpt lat="43.65628" lon="0.60453">
        <ele>149</ele>
        <time>2020-10-03T17:24:58.000Z</time>
      </trkpt>
      <trkpt lat="43.65629" lon="0.60449">
        <ele>149</ele>
        <time>2020-10-03T17:24:59.000Z</time>
      </trkpt>
      <trkpt lat="43.6563" lon="0.60446">
        <ele>149</ele>
        <time>2020-10-03T17:25:00.000Z</time>
      </trkpt>
      <trkpt lat="43.65632" lon="0.60442">
        <ele>148.6261693423</ele>
        <time>2020-10-03T17:25:01.000Z</time>
      </trkpt>
      <trkpt lat="43.65634" lon="0.60438">
        <ele>148</ele>
        <time>2020-10-03T17:25:02.000Z</time>
      </trkpt>
      <trkpt lat="43.65636" lon="0.60435">
        <ele>148.42056153027</ele>
        <time>2020-10-03T17:25:03.000Z</time>
      </trkpt>
      <trkpt lat="43.65638" lon="0.60432">
        <ele>149</ele>
        <time>2020-10-03T17:25:04.000Z</time>
      </trkpt>
      <trkpt lat="43.65641" lon="0.6043">
        <ele>149</ele>
        <time>2020-10-03T17:25:05.000Z</time>
      </trkpt>
      <trkpt lat="43.65643" lon="0.60428">
        <ele>149</ele>
        <time>2020-10-03T17:25:06.000Z</time>
      </trkpt>
      <trkpt lat="43.65646" lon="0.60426">
        <ele>149</ele>
        <time>2020-10-03T17:25:07.000Z</time>
      </trkpt>
      <trkpt lat="43.65649" lon="0.60425">
        <ele>149</ele>
        <time>2020-10-03T17:25:08.000Z</time>
      </trkpt>
      <trkpt lat="43.65652" lon="0.60423">
        <ele>149</ele>
        <time>2020-10-03T17:25:09.000Z</time>
      </trkpt>
      <trkpt lat="43.65655" lon="0.60422">
        <ele>149</ele>
        <time>2020-10-03T17:25:10.000Z</time>
      </trkpt>
      <trkpt lat="43.65658" lon="0.60421">
        <ele>148.59632909014</ele>
        <time>2020-10-03T17:25:11.000Z</time>
      </trkpt>
      <trkpt lat="43.65661" lon="0.60419">
        <ele>148</ele>
        <time>2020-10-03T17:25:12.000Z</time>
      </trkpt>
      <trkpt lat="43.65664" lon="0.60416">
        <ele>148</ele>
        <time>2020-10-03T17:25:13.000Z</time>
      </trkpt>
      <trkpt lat="43.65666" lon="0.60414">
        <ele>148</ele>
        <time>2020-10-03T17:25:14.000Z</time>
      </trkpt>
      <trkpt lat="43.65668" lon="0.6041">
        <ele>148</ele>
        <time>2020-10-03T17:25:15.000Z</time>
      </trkpt>
      <trkpt lat="43.65669" lon="0.60407">
        <ele>148</ele>
        <time>2020-10-03T17:25:16.000Z</time>
      </trkpt>
      <trkpt lat="43.6567" lon="0.60403">
        <ele>147</ele>
        <time>2020-10-03T17:25:17.000Z</time>
      </trkpt>
      <trkpt lat="43.6567" lon="0.60398">
        <ele>147</ele>
        <time>2020-10-03T17:25:18.000Z</time>
      </trkpt>
      <trkpt lat="43.6567" lon="0.60394">
        <ele>146.40952311293</ele>
        <time>2020-10-03T17:25:19.000Z</time>
      </trkpt>
      <trkpt lat="43.65671" lon="0.60389">
        <ele>145</ele>
        <time>2020-10-03T17:25:20.000Z</time>
      </trkpt>
      <trkpt lat="43.65671" lon="0.60385">
        <ele>145</ele>
        <time>2020-10-03T17:25:21.000Z</time>
      </trkpt>
      <trkpt lat="43.65671" lon="0.60381">
        <ele>145</ele>
        <time>2020-10-03T17:25:22.000Z</time>
      </trkpt>
      <trkpt lat="43.65672" lon="0.60377">
        <ele>145</ele>
        <time>2020-10-03T17:25:23.000Z</time>
      </trkpt>
      <trkpt lat="43.65672" lon="0.60373">
        <ele>144.59523954651</ele>
        <time>2020-10-03T17:25:24.000Z</time>
      </trkpt>
      <trkpt lat="43.65673" lon="0.6037">
        <ele>144</ele>
        <time>2020-10-03T17:25:25.000Z</time>
      </trkpt>
      <trkpt lat="43.65673" lon="0.60365">
        <ele>144</ele>
        <time>2020-10-03T17:25:26.000Z</time>
      </trkpt>
      <trkpt lat="43.65674" lon="0.60361">
        <ele>143.72340135807</ele>
        <time>2020-10-03T17:25:27.000Z</time>
      </trkpt>
      <trkpt lat="43.65674" lon="0.60357">
        <ele>143.01417989034</ele>
        <time>2020-10-03T17:25:28.000Z</time>
      </trkpt>
      <trkpt lat="43.65675" lon="0.60353">
        <ele>143</ele>
        <time>2020-10-03T17:25:29.000Z</time>
      </trkpt>
      <trkpt lat="43.65675" lon="0.60349">
        <ele>143</ele>
        <time>2020-10-03T17:25:30.000Z</time>
      </trkpt>
      <trkpt lat="43.65675" lon="0.60345">
        <ele>143</ele>
        <time>2020-10-03T17:25:31.000Z</time>
      </trkpt>
      <trkpt lat="43.65675" lon="0.60341">
        <ele>143</ele>
        <time>2020-10-03T17:25:32.000Z</time>
      </trkpt>
      <trkpt lat="43.65675" lon="0.60337">
        <ele>143</ele>
        <time>2020-10-03T17:25:33.000Z</time>
      </trkpt>
      <trkpt lat="43.65676" lon="0.60334">
        <ele>142</ele>
        <time>2020-10-03T17:25:34.000Z</time>
      </trkpt>
      <trkpt lat="43.65676" lon="0.6033">
        <ele>142</ele>
        <time>2020-10-03T17:25:35.000Z</time>
      </trkpt>
      <trkpt lat="43.65676" lon="0.60327">
        <ele>142</ele>
        <time>2020-10-03T17:25:36.000Z</time>
      </trkpt>
      <trkpt lat="43.65676" lon="0.60322">
        <ele>142</ele>
        <time>2020-10-03T17:25:37.000Z</time>
      </trkpt>
      <trkpt lat="43.65676" lon="0.60317">
        <ele>142</ele>
        <time>2020-10-03T17:25:38.000Z</time>
      </trkpt>
      <trkpt lat="43.65676" lon="0.60312">
        <ele>141.56140035705</ele>
        <time>2020-10-03T17:25:39.000Z</time>
      </trkpt>
      <trkpt lat="43.65676" lon="0.60307">
        <ele>141</ele>
        <time>2020-10-03T17:25:40.000Z</time>
      </trkpt>
      <trkpt lat="43.65677" lon="0.60303">
        <ele>140.5663732853</ele>
        <time>2020-10-03T17:25:41.000Z</time>
      </trkpt>
      <trkpt lat="43.65677" lon="0.60298">
        <ele>140</ele>
        <time>2020-10-03T17:25:42.000Z</time>
      </trkpt>
      <trkpt lat="43.65677" lon="0.60293">
        <ele>139.57522003602</ele>
        <time>2020-10-03T17:25:43.000Z</time>
      </trkpt>
      <trkpt lat="43.65678" lon="0.60289">
        <ele>139</ele>
        <time>2020-10-03T17:25:44.000Z</time>
      </trkpt>
      <trkpt lat="43.65678" lon="0.60284">
        <ele>139</ele>
        <time>2020-10-03T17:25:45.000Z</time>
      </trkpt>
      <trkpt lat="43.65678" lon="0.60279">
        <ele>139</ele>
        <time>2020-10-03T17:25:46.000Z</time>
      </trkpt>
      <trkpt lat="43.65678" lon="0.60275">
        <ele>139</ele>
        <time>2020-10-03T17:25:47.000Z</time>
      </trkpt>
      <trkpt lat="43.65679" lon="0.6027">
        <ele>139</ele>
        <time>2020-10-03T17:25:48.000Z</time>
      </trkpt>
      <trkpt lat="43.65679" lon="0.60266">
        <ele>138.58558776725</ele>
        <time>2020-10-03T17:25:49.000Z</time>
      </trkpt>
      <trkpt lat="43.6568" lon="0.60262">
        <ele>138</ele>
        <time>2020-10-03T17:25:50.000Z</time>
      </trkpt>
      <trkpt lat="43.6568" lon="0.60258">
        <ele>138</ele>
        <time>2020-10-03T17:25:51.000Z</time>
      </trkpt>
      <trkpt lat="43.6568" lon="0.60254">
        <ele>138</ele>
        <time>2020-10-03T17:25:52.000Z</time>
      </trkpt>
      <trkpt lat="43.65681" lon="0.6025">
        <ele>138</ele>
        <time>2020-10-03T17:25:53.000Z</time>
      </trkpt>
      <trkpt lat="43.65681" lon="0.60246">
        <ele>138</ele>
        <time>2020-10-03T17:25:54.000Z</time>
      </trkpt>
      <trkpt lat="43.65682" lon="0.60241">
        <ele>137.57142857143</ele>
        <time>2020-10-03T17:25:55.000Z</time>
      </trkpt>
      <trkpt lat="43.65682" lon="0.60236">
        <ele>137</ele>
        <time>2020-10-03T17:25:56.000Z</time>
      </trkpt>
      <trkpt lat="43.65682" lon="0.60231">
        <ele>137</ele>
        <time>2020-10-03T17:25:57.000Z</time>
      </trkpt>
      <trkpt lat="43.65682" lon="0.60226">
        <ele>137</ele>
        <time>2020-10-03T17:25:58.000Z</time>
      </trkpt>
      <trkpt lat="43.65682" lon="0.60222">
        <ele>137</ele>
        <time>2020-10-03T17:25:59.000Z</time>
      </trkpt>
      <trkpt lat="43.65682" lon="0.60217">
        <ele>136.64367579338</ele>
        <time>2020-10-03T17:26:00.000Z</time>
      </trkpt>
      <trkpt lat="43.65683" lon="0.60213">
        <ele>136</ele>
        <time>2020-10-03T17:26:01.000Z</time>
      </trkpt>
      <trkpt lat="43.65683" lon="0.60209">
        <ele>136</ele>
        <time>2020-10-03T17:26:02.000Z</time>
      </trkpt>
      <trkpt lat="43.65684" lon="0.60205">
        <ele>136</ele>
        <time>2020-10-03T17:26:03.000Z</time>
      </trkpt>
      <trkpt lat="43.65684" lon="0.60201">
        <ele>136</ele>
        <time>2020-10-03T17:26:04.000Z</time>
      </trkpt>
      <trkpt lat="43.65684" lon="0.60197">
        <ele>136</ele>
        <time>2020-10-03T17:26:05.000Z</time>
      </trkpt>
      <trkpt lat="43.65685" lon="0.60193">
        <ele>136</ele>
        <time>2020-10-03T17:26:06.000Z</time>
      </trkpt>
      <trkpt lat="43.65685" lon="0.60188">
        <ele>136</ele>
        <time>2020-10-03T17:26:07.000Z</time>
      </trkpt>
      <trkpt lat="43.65685" lon="0.60184">
        <ele>136</ele>
        <time>2020-10-03T17:26:08.000Z</time>
      </trkpt>
      <trkpt lat="43.65685" lon="0.60179">
        <ele>135.22123673271</ele>
        <time>2020-10-03T17:26:09.000Z</time>
      </trkpt>
      <trkpt lat="43.65685" lon="0.60175">
        <ele>134</ele>
        <time>2020-10-03T17:26:10.000Z</time>
      </trkpt>
      <trkpt lat="43.65685" lon="0.60171">
        <ele>133.57017583257</ele>
        <time>2020-10-03T17:26:11.000Z</time>
      </trkpt>
      <trkpt lat="43.65685" lon="0.60167">
        <ele>133</ele>
        <time>2020-10-03T17:26:12.000Z</time>
      </trkpt>
      <trkpt lat="43.65686" lon="0.60162">
        <ele>133</ele>
        <time>2020-10-03T17:26:13.000Z</time>
      </trkpt>
      <trkpt lat="43.65687" lon="0.60158">
        <ele>133</ele>
        <time>2020-10-03T17:26:14.000Z</time>
      </trkpt>
      <trkpt lat="43.65687" lon="0.60155">
        <ele>133</ele>
        <time>2020-10-03T17:26:15.000Z</time>
      </trkpt>
      <trkpt lat="43.65687" lon="0.6015">
        <ele>133</ele>
        <time>2020-10-03T17:26:16.000Z</time>
      </trkpt>
      <trkpt lat="43.65687" lon="0.60146">
        <ele>133</ele>
        <time>2020-10-03T17:26:17.000Z</time>
      </trkpt>
      <trkpt lat="43.65687" lon="0.60142">
        <ele>133</ele>
        <time>2020-10-03T17:26:18.000Z</time>
      </trkpt>
      <trkpt lat="43.65688" lon="0.60138">
        <ele>133</ele>
        <time>2020-10-03T17:26:19.000Z</time>
      </trkpt>
      <trkpt lat="43.65688" lon="0.60133">
        <ele>132.98182410575</ele>
        <time>2020-10-03T17:26:20.000Z</time>
      </trkpt>
      <trkpt lat="43.65689" lon="0.60129">
        <ele>132</ele>
        <time>2020-10-03T17:26:21.000Z</time>
      </trkpt>
      <trkpt lat="43.6569" lon="0.60125">
        <ele>132</ele>
        <time>2020-10-03T17:26:22.000Z</time>
      </trkpt>
      <trkpt lat="43.6569" lon="0.60121">
        <ele>131.76404769096</ele>
        <time>2020-10-03T17:26:23.000Z</time>
      </trkpt>
      <trkpt lat="43.6569" lon="0.60117">
        <ele>131</ele>
        <time>2020-10-03T17:26:24.000Z</time>
      </trkpt>
      <trkpt lat="43.65691" lon="0.60113">
        <ele>130.75</ele>
        <time>2020-10-03T17:26:25.000Z</time>
      </trkpt>
      <trkpt lat="43.65692" lon="0.60109">
        <ele>130</ele>
        <time>2020-10-03T17:26:26.000Z</time>
      </trkpt>
      <trkpt lat="43.65692" lon="0.60105">
        <ele>130</ele>
        <time>2020-10-03T17:26:27.000Z</time>
      </trkpt>
      <trkpt lat="43.65693" lon="0.60101">
        <ele>130</ele>
        <time>2020-10-03T17:26:28.000Z</time>
      </trkpt>
      <trkpt lat="43.65694" lon="0.60097">
        <ele>130</ele>
        <time>2020-10-03T17:26:29.000Z</time>
      </trkpt>
      <trkpt lat="43.65694" lon="0.60092">
        <ele>130.33913227372</ele>
        <time>2020-10-03T17:26:30.000Z</time>
      </trkpt>
      <trkpt lat="43.65694" lon="0.60088">
        <ele>131</ele>
        <time>2020-10-03T17:26:31.000Z</time>
      </trkpt>
      <trkpt lat="43.65695" lon="0.60084">
        <ele>131</ele>
        <time>2020-10-03T17:26:32.000Z</time>
      </trkpt>
      <trkpt lat="43.65695" lon="0.60079">
        <ele>131</ele>
        <time>2020-10-03T17:26:33.000Z</time>
      </trkpt>
      <trkpt lat="43.65696" lon="0.60075">
        <ele>131</ele>
        <time>2020-10-03T17:26:34.000Z</time>
      </trkpt>
      <trkpt lat="43.65697" lon="0.60072">
        <ele>131</ele>
        <time>2020-10-03T17:26:35.000Z</time>
      </trkpt>
      <trkpt lat="43.65697" lon="0.60067">
        <ele>131</ele>
        <time>2020-10-03T17:26:36.000Z</time>
      </trkpt>
      <trkpt lat="43.65697" lon="0.60063">
        <ele>131</ele>
        <time>2020-10-03T17:26:37.000Z</time>
      </trkpt>
      <trkpt lat="43.65698" lon="0.60059">
        <ele>130.60784559783</ele>
        <time>2020-10-03T17:26:38.000Z</time>
      </trkpt>
      <trkpt lat="43.65698" lon="0.60055">
        <ele>130</ele>
        <time>2020-10-03T17:26:39.000Z</time>
      </trkpt>
      <trkpt lat="43.65699" lon="0.60051">
        <ele>130</ele>
        <time>2020-10-03T17:26:40.000Z</time>
      </trkpt>
      <trkpt lat="43.657" lon="0.60047">
        <ele>130</ele>
        <time>2020-10-03T17:26:41.000Z</time>
      </trkpt>
      <trkpt lat="43.657" lon="0.60043">
        <ele>130</ele>
        <time>2020-10-03T17:26:42.000Z</time>
      </trkpt>
      <trkpt lat="43.657" lon="0.60039">
        <ele>130</ele>
        <time>2020-10-03T17:26:43.000Z</time>
      </trkpt>
      <trkpt lat="43.65701" lon="0.60035">
        <ele>130</ele>
        <time>2020-10-03T17:26:44.000Z</time>
      </trkpt>
      <trkpt lat="43.65701" lon="0.60031">
        <ele>130</ele>
        <time>2020-10-03T17:26:45.000Z</time>
      </trkpt>
      <trkpt lat="43.65702" lon="0.60027">
        <ele>130</ele>
        <time>2020-10-03T17:26:46.000Z</time>
      </trkpt>
      <trkpt lat="43.65702" lon="0.60022">
        <ele>130</ele>
        <time>2020-10-03T17:26:47.000Z</time>
      </trkpt>
      <trkpt lat="43.65702" lon="0.60018">
        <ele>130</ele>
        <time>2020-10-03T17:26:48.000Z</time>
      </trkpt>
      <trkpt lat="43.65702" lon="0.60014">
        <ele>130</ele>
        <time>2020-10-03T17:26:49.000Z</time>
      </trkpt>
      <trkpt lat="43.65702" lon="0.6001">
        <ele>130</ele>
        <time>2020-10-03T17:26:50.000Z</time>
      </trkpt>
      <trkpt lat="43.65703" lon="0.60006">
        <ele>129.60869516824</ele>
        <time>2020-10-03T17:26:51.000Z</time>
      </trkpt>
      <trkpt lat="43.65703" lon="0.60002">
        <ele>129</ele>
        <time>2020-10-03T17:26:52.000Z</time>
      </trkpt>
      <trkpt lat="43.65703" lon="0.59998">
        <ele>129</ele>
        <time>2020-10-03T17:26:53.000Z</time>
      </trkpt>
      <trkpt lat="43.65703" lon="0.59994">
        <ele>129</ele>
        <time>2020-10-03T17:26:54.000Z</time>
      </trkpt>
      <trkpt lat="43.65704" lon="0.5999">
        <ele>129</ele>
        <time>2020-10-03T17:26:55.000Z</time>
      </trkpt>
      <trkpt lat="43.65704" lon="0.59986">
        <ele>129</ele>
        <time>2020-10-03T17:26:56.000Z</time>
      </trkpt>
      <trkpt lat="43.65705" lon="0.59982">
        <ele>129</ele>
        <time>2020-10-03T17:26:57.000Z</time>
      </trkpt>
      <trkpt lat="43.65705" lon="0.59978">
        <ele>129</ele>
        <time>2020-10-03T17:26:58.000Z</time>
      </trkpt>
      <trkpt lat="43.65706" lon="0.59974">
        <ele>129</ele>
        <time>2020-10-03T17:26:59.000Z</time>
      </trkpt>
      <trkpt lat="43.65706" lon="0.5997">
        <ele>129</ele>
        <time>2020-10-03T17:27:00.000Z</time>
      </trkpt>
      <trkpt lat="43.65706" lon="0.59965">
        <ele>129</ele>
        <time>2020-10-03T17:27:01.000Z</time>
      </trkpt>
      <trkpt lat="43.65706" lon="0.59961">
        <ele>129</ele>
        <time>2020-10-03T17:27:02.000Z</time>
      </trkpt>
      <trkpt lat="43.65705" lon="0.59957">
        <ele>129</ele>
        <time>2020-10-03T17:27:03.000Z</time>
      </trkpt>
      <trkpt lat="43.65705" lon="0.59952">
        <ele>129</ele>
        <time>2020-10-03T17:27:04.000Z</time>
      </trkpt>
      <trkpt lat="43.65706" lon="0.59948">
        <ele>129</ele>
        <time>2020-10-03T17:27:05.000Z</time>
      </trkpt>
      <trkpt lat="43.65706" lon="0.59944">
        <ele>129</ele>
        <time>2020-10-03T17:27:06.000Z</time>
      </trkpt>
      <trkpt lat="43.65706" lon="0.5994">
        <ele>129</ele>
        <time>2020-10-03T17:27:07.000Z</time>
      </trkpt>
      <trkpt lat="43.65707" lon="0.59937">
        <ele>128.5699968</ele>
        <time>2020-10-03T17:27:08.000Z</time>
      </trkpt>
      <trkpt lat="43.65708" lon="0.59933">
        <ele>128</ele>
        <time>2020-10-03T17:27:09.000Z</time>
      </trkpt>
      <trkpt lat="43.65708" lon="0.59929">
        <ele>128</ele>
        <time>2020-10-03T17:27:10.000Z</time>
      </trkpt>
      <trkpt lat="43.65707" lon="0.59925">
        <ele>128</ele>
        <time>2020-10-03T17:27:11.000Z</time>
      </trkpt>
      <trkpt lat="43.65707" lon="0.59921">
        <ele>128</ele>
        <time>2020-10-03T17:27:12.000Z</time>
      </trkpt>
      <trkpt lat="43.65707" lon="0.59916">
        <ele>128</ele>
        <time>2020-10-03T17:27:13.000Z</time>
      </trkpt>
      <trkpt lat="43.65707" lon="0.59912">
        <ele>128</ele>
        <time>2020-10-03T17:27:14.000Z</time>
      </trkpt>
      <trkpt lat="43.65708" lon="0.59908">
        <ele>128</ele>
        <time>2020-10-03T17:27:15.000Z</time>
      </trkpt>
      <trkpt lat="43.65708" lon="0.59904">
        <ele>128.35714503398</ele>
        <time>2020-10-03T17:27:16.000Z</time>
      </trkpt>
      <trkpt lat="43.65708" lon="0.599">
        <ele>129</ele>
        <time>2020-10-03T17:27:17.000Z</time>
      </trkpt>
      <trkpt lat="43.65708" lon="0.59897">
        <ele>128.64285496602</ele>
        <time>2020-10-03T17:27:18.000Z</time>
      </trkpt>
      <trkpt lat="43.65709" lon="0.59893">
        <ele>128</ele>
        <time>2020-10-03T17:27:19.000Z</time>
      </trkpt>
      <trkpt lat="43.6571" lon="0.59889">
        <ele>128</ele>
        <time>2020-10-03T17:27:20.000Z</time>
      </trkpt>
      <trkpt lat="43.6571" lon="0.59885">
        <ele>128</ele>
        <time>2020-10-03T17:27:21.000Z</time>
      </trkpt>
      <trkpt lat="43.65711" lon="0.59881">
        <ele>128</ele>
        <time>2020-10-03T17:27:22.000Z</time>
      </trkpt>
      <trkpt lat="43.65711" lon="0.59878">
        <ele>128</ele>
        <time>2020-10-03T17:27:23.000Z</time>
      </trkpt>
      <trkpt lat="43.65712" lon="0.59874">
        <ele>128</ele>
        <time>2020-10-03T17:27:24.000Z</time>
      </trkpt>
      <trkpt lat="43.65712" lon="0.59869">
        <ele>128</ele>
        <time>2020-10-03T17:27:25.000Z</time>
      </trkpt>
      <trkpt lat="43.65713" lon="0.59865">
        <ele>128</ele>
        <time>2020-10-03T17:27:26.000Z</time>
      </trkpt>
      <trkpt lat="43.65713" lon="0.59861">
        <ele>128</ele>
        <time>2020-10-03T17:27:27.000Z</time>
      </trkpt>
      <trkpt lat="43.65714" lon="0.59857">
        <ele>128</ele>
        <time>2020-10-03T17:27:28.000Z</time>
      </trkpt>
      <trkpt lat="43.65714" lon="0.59853">
        <ele>128</ele>
        <time>2020-10-03T17:27:29.000Z</time>
      </trkpt>
      <trkpt lat="43.65714" lon="0.59849">
        <ele>128</ele>
        <time>2020-10-03T17:27:30.000Z</time>
      </trkpt>
      <trkpt lat="43.65715" lon="0.59845">
        <ele>127.64285931976</ele>
        <time>2020-10-03T17:27:31.000Z</time>
      </trkpt>
      <trkpt lat="43.65715" lon="0.59841">
        <ele>127</ele>
        <time>2020-10-03T17:27:32.000Z</time>
      </trkpt>
      <trkpt lat="43.65715" lon="0.59836">
        <ele>127</ele>
        <time>2020-10-03T17:27:33.000Z</time>
      </trkpt>
      <trkpt lat="43.65715" lon="0.59832">
        <ele>126.59482482759</ele>
        <time>2020-10-03T17:27:34.000Z</time>
      </trkpt>
      <trkpt lat="43.65716" lon="0.59828">
        <ele>126</ele>
        <time>2020-10-03T17:27:35.000Z</time>
      </trkpt>
      <trkpt lat="43.65717" lon="0.59824">
        <ele>126</ele>
        <time>2020-10-03T17:27:36.000Z</time>
      </trkpt>
      <trkpt lat="43.65717" lon="0.5982">
        <ele>126.36471102009</ele>
        <time>2020-10-03T17:27:37.000Z</time>
      </trkpt>
      <trkpt lat="43.65718" lon="0.59816">
        <ele>127</ele>
        <time>2020-10-03T17:27:38.000Z</time>
      </trkpt>
      <trkpt lat="43.65718" lon="0.59813">
        <ele>127</ele>
        <time>2020-10-03T17:27:39.000Z</time>
      </trkpt>
      <trkpt lat="43.65719" lon="0.59809">
        <ele>127</ele>
        <time>2020-10-03T17:27:40.000Z</time>
      </trkpt>
      <trkpt lat="43.65719" lon="0.59805">
        <ele>127</ele>
        <time>2020-10-03T17:27:41.000Z</time>
      </trkpt>
      <trkpt lat="43.6572" lon="0.59801">
        <ele>127</ele>
        <time>2020-10-03T17:27:42.000Z</time>
      </trkpt>
      <trkpt lat="43.6572" lon="0.59797">
        <ele>127</ele>
        <time>2020-10-03T17:27:43.000Z</time>
      </trkpt>
      <trkpt lat="43.6572" lon="0.59794">
        <ele>127</ele>
        <time>2020-10-03T17:27:44.000Z</time>
      </trkpt>
      <trkpt lat="43.6572" lon="0.5979">
        <ele>127</ele>
        <time>2020-10-03T17:27:45.000Z</time>
      </trkpt>
      <trkpt lat="43.65721" lon="0.59786">
        <ele>126.59302256355</ele>
        <time>2020-10-03T17:27:46.000Z</time>
      </trkpt>
      <trkpt lat="43.65721" lon="0.59783">
        <ele>126</ele>
        <time>2020-10-03T17:27:47.000Z</time>
      </trkpt>
      <trkpt lat="43.65722" lon="0.59778">
        <ele>126</ele>
        <time>2020-10-03T17:27:48.000Z</time>
      </trkpt>
      <trkpt lat="43.65722" lon="0.59774">
        <ele>126</ele>
        <time>2020-10-03T17:27:49.000Z</time>
      </trkpt>
      <trkpt lat="43.65723" lon="0.5977">
        <ele>126</ele>
        <time>2020-10-03T17:27:50.000Z</time>
      </trkpt>
      <trkpt lat="43.65723" lon="0.59766">
        <ele>126</ele>
        <time>2020-10-03T17:27:51.000Z</time>
      </trkpt>
      <trkpt lat="43.65723" lon="0.59762">
        <ele>126</ele>
        <time>2020-10-03T17:27:52.000Z</time>
      </trkpt>
      <trkpt lat="43.65724" lon="0.59759">
        <ele>126</ele>
        <time>2020-10-03T17:27:53.000Z</time>
      </trkpt>
      <trkpt lat="43.65724" lon="0.59755">
        <ele>126.37349639134</ele>
        <time>2020-10-03T17:27:54.000Z</time>
      </trkpt>
      <trkpt lat="43.65725" lon="0.59752">
        <ele>127</ele>
        <time>2020-10-03T17:27:55.000Z</time>
      </trkpt>
      <trkpt lat="43.65726" lon="0.59749">
        <ele>127</ele>
        <time>2020-10-03T17:27:56.000Z</time>
      </trkpt>
      <trkpt lat="43.65726" lon="0.59746">
        <ele>127</ele>
        <time>2020-10-03T17:27:57.000Z</time>
      </trkpt>
      <trkpt lat="43.65726" lon="0.59742">
        <ele>127</ele>
        <time>2020-10-03T17:27:59.000Z</time>
      </trkpt>
      <trkpt lat="43.6573" lon="0.59743">
        <ele>127</ele>
        <time>2020-10-03T17:28:01.000Z</time>
      </trkpt>
      <trkpt lat="43.65732" lon="0.59744">
        <ele>127</ele>
        <time>2020-10-03T17:28:02.000Z</time>
      </trkpt>
      <trkpt lat="43.65735" lon="0.59745">
        <ele>127</ele>
        <time>2020-10-03T17:28:04.000Z</time>
      </trkpt>
      <trkpt lat="43.65737" lon="0.59746">
        <ele>127</ele>
        <time>2020-10-03T17:28:06.000Z</time>
      </trkpt>
      <trkpt lat="43.65739" lon="0.59745">
        <ele>127</ele>
        <time>2020-10-03T17:28:09.000Z</time>
      </trkpt>
      <trkpt lat="43.65739" lon="0.59742">
        <ele>127</ele>
        <time>2020-10-03T17:28:16.000Z</time>
      </trkpt>
      <trkpt lat="43.65741" lon="0.59734">
        <ele>127</ele>
        <time>2020-10-03T17:28:19.000Z</time>
      </trkpt>
      <trkpt lat="43.65743" lon="0.59732">
        <ele>127</ele>
        <time>2020-10-03T17:28:21.000Z</time>
      </trkpt>
      <trkpt lat="43.65745" lon="0.59732">
        <ele>127</ele>
        <time>2020-10-03T17:28:23.000Z</time>
      </trkpt>
      <trkpt lat="43.65748" lon="0.59733">
        <ele>126</ele>
        <time>2020-10-03T17:28:25.000Z</time>
      </trkpt>
      <trkpt lat="43.65751" lon="0.59734">
        <ele>126</ele>
        <time>2020-10-03T17:28:27.000Z</time>
      </trkpt>
      <trkpt lat="43.65753" lon="0.59733">
        <ele>126</ele>
        <time>2020-10-03T17:28:28.000Z</time>
      </trkpt>
      <trkpt lat="43.65755" lon="0.59733">
        <ele>126</ele>
        <time>2020-10-03T17:28:29.000Z</time>
      </trkpt>
      <trkpt lat="43.65752" lon="0.59732">
        <ele>126.63917552981</ele>
        <time>2020-10-03T17:28:36.000Z</time>
      </trkpt>
      <trkpt lat="43.65748" lon="0.59729">
        <ele>126</ele>
        <time>2020-10-03T17:28:38.000Z</time>
      </trkpt>
      <trkpt lat="43.65746" lon="0.59727">
        <ele>126</ele>
        <time>2020-10-03T17:28:39.000Z</time>
      </trkpt>
      <trkpt lat="43.65743" lon="0.59726">
        <ele>125.66666666667</ele>
        <time>2020-10-03T17:28:40.000Z</time>
      </trkpt>
      <trkpt lat="43.6574" lon="0.59725">
        <ele>125</ele>
        <time>2020-10-03T17:28:41.000Z</time>
      </trkpt>
      <trkpt lat="43.65738" lon="0.59724">
        <ele>125.3411739903</ele>
        <time>2020-10-03T17:28:42.000Z</time>
      </trkpt>
      <trkpt lat="43.65736" lon="0.59722">
        <ele>126</ele>
        <time>2020-10-03T17:28:43.000Z</time>
      </trkpt>
      <trkpt lat="43.65733" lon="0.59721">
        <ele>126</ele>
        <time>2020-10-03T17:28:44.000Z</time>
      </trkpt>
      <trkpt lat="43.65731" lon="0.59719">
        <ele>126</ele>
        <time>2020-10-03T17:28:45.000Z</time>
      </trkpt>
      <trkpt lat="43.65729" lon="0.59718">
        <ele>126</ele>
        <time>2020-10-03T17:28:46.000Z</time>
      </trkpt>
      <trkpt lat="43.65726" lon="0.59717">
        <ele>126</ele>
        <time>2020-10-03T17:28:47.000Z</time>
      </trkpt>
      <trkpt lat="43.65723" lon="0.59716">
        <ele>126</ele>
        <time>2020-10-03T17:28:48.000Z</time>
      </trkpt>
      <trkpt lat="43.6572" lon="0.59715">
        <ele>126</ele>
        <time>2020-10-03T17:28:49.000Z</time>
      </trkpt>
      <trkpt lat="43.65718" lon="0.59714">
        <ele>126</ele>
        <time>2020-10-03T17:28:50.000Z</time>
      </trkpt>
      <trkpt lat="43.65715" lon="0.59713">
        <ele>126</ele>
        <time>2020-10-03T17:28:51.000Z</time>
      </trkpt>
      <trkpt lat="43.65713" lon="0.59712">
        <ele>126</ele>
        <time>2020-10-03T17:28:52.000Z</time>
      </trkpt>
      <trkpt lat="43.65711" lon="0.59711">
        <ele>126</ele>
        <time>2020-10-03T17:28:53.000Z</time>
      </trkpt>
      <trkpt lat="43.65708" lon="0.5971">
        <ele>126</ele>
        <time>2020-10-03T17:28:54.000Z</time>
      </trkpt>
      <trkpt lat="43.65706" lon="0.59709">
        <ele>126</ele>
        <time>2020-10-03T17:28:55.000Z</time>
      </trkpt>
      <trkpt lat="43.65704" lon="0.59708">
        <ele>126</ele>
        <time>2020-10-03T17:28:56.000Z</time>
      </trkpt>
      <trkpt lat="43.65701" lon="0.59707">
        <ele>126</ele>
        <time>2020-10-03T17:28:57.000Z</time>
      </trkpt>
      <trkpt lat="43.65699" lon="0.59706">
        <ele>126</ele>
        <time>2020-10-03T17:28:58.000Z</time>
      </trkpt>
      <trkpt lat="43.65697" lon="0.59705">
        <ele>126</ele>
        <time>2020-10-03T17:28:59.000Z</time>
      </trkpt>
      <trkpt lat="43.65695" lon="0.59704">
        <ele>126</ele>
        <time>2020-10-03T17:29:00.000Z</time>
      </trkpt>
      <trkpt lat="43.65692" lon="0.59702">
        <ele>126</ele>
        <time>2020-10-03T17:29:01.000Z</time>
      </trkpt>
      <trkpt lat="43.6569" lon="0.59701">
        <ele>126</ele>
        <time>2020-10-03T17:29:02.000Z</time>
      </trkpt>
      <trkpt lat="43.65687" lon="0.597">
        <ele>126</ele>
        <time>2020-10-03T17:29:03.000Z</time>
      </trkpt>
      <trkpt lat="43.65684" lon="0.59699">
        <ele>126</ele>
        <time>2020-10-03T17:29:04.000Z</time>
      </trkpt>
      <trkpt lat="43.65681" lon="0.59698">
        <ele>126</ele>
        <time>2020-10-03T17:29:05.000Z</time>
      </trkpt>
      <trkpt lat="43.65679" lon="0.59696">
        <ele>126</ele>
        <time>2020-10-03T17:29:06.000Z</time>
      </trkpt>
      <trkpt lat="43.65676" lon="0.59695">
        <ele>126</ele>
        <time>2020-10-03T17:29:07.000Z</time>
      </trkpt>
      <trkpt lat="43.65674" lon="0.59694">
        <ele>126</ele>
        <time>2020-10-03T17:29:08.000Z</time>
      </trkpt>
      <trkpt lat="43.65671" lon="0.59693">
        <ele>126</ele>
        <time>2020-10-03T17:29:09.000Z</time>
      </trkpt>
      <trkpt lat="43.65668" lon="0.59692">
        <ele>126</ele>
        <time>2020-10-03T17:29:10.000Z</time>
      </trkpt>
      <trkpt lat="43.65666" lon="0.5969">
        <ele>126</ele>
        <time>2020-10-03T17:29:11.000Z</time>
      </trkpt>
      <trkpt lat="43.65664" lon="0.59689">
        <ele>126</ele>
        <time>2020-10-03T17:29:12.000Z</time>
      </trkpt>
      <trkpt lat="43.65661" lon="0.59687">
        <ele>126</ele>
        <time>2020-10-03T17:29:13.000Z</time>
      </trkpt>
      <trkpt lat="43.65659" lon="0.59686">
        <ele>126</ele>
        <time>2020-10-03T17:29:14.000Z</time>
      </trkpt>
      <trkpt lat="43.65656" lon="0.59685">
        <ele>126</ele>
        <time>2020-10-03T17:29:15.000Z</time>
      </trkpt>
      <trkpt lat="43.65654" lon="0.59683">
        <ele>126</ele>
        <time>2020-10-03T17:29:16.000Z</time>
      </trkpt>
      <trkpt lat="43.65651" lon="0.59682">
        <ele>125.65625333333</ele>
        <time>2020-10-03T17:29:17.000Z</time>
      </trkpt>
      <trkpt lat="43.65648" lon="0.59681">
        <ele>125</ele>
        <time>2020-10-03T17:29:18.000Z</time>
      </trkpt>
      <trkpt lat="43.65646" lon="0.5968">
        <ele>125</ele>
        <time>2020-10-03T17:29:19.000Z</time>
      </trkpt>
      <trkpt lat="43.65643" lon="0.59679">
        <ele>125</ele>
        <time>2020-10-03T17:29:20.000Z</time>
      </trkpt>
      <trkpt lat="43.65641" lon="0.59677">
        <ele>125</ele>
        <time>2020-10-03T17:29:21.000Z</time>
      </trkpt>
      <trkpt lat="43.65638" lon="0.59676">
        <ele>125</ele>
        <time>2020-10-03T17:29:22.000Z</time>
      </trkpt>
      <trkpt lat="43.65635" lon="0.59675">
        <ele>125</ele>
        <time>2020-10-03T17:29:23.000Z</time>
      </trkpt>
      <trkpt lat="43.65633" lon="0.59673">
        <ele>125</ele>
        <time>2020-10-03T17:29:24.000Z</time>
      </trkpt>
      <trkpt lat="43.65631" lon="0.59672">
        <ele>125</ele>
        <time>2020-10-03T17:29:25.000Z</time>
      </trkpt>
      <trkpt lat="43.65628" lon="0.59671">
        <ele>125</ele>
        <time>2020-10-03T17:29:26.000Z</time>
      </trkpt>
      <trkpt lat="43.65626" lon="0.5967">
        <ele>125</ele>
        <time>2020-10-03T17:29:27.000Z</time>
      </trkpt>
      <trkpt lat="43.65624" lon="0.59668">
        <ele>125</ele>
        <time>2020-10-03T17:29:28.000Z</time>
      </trkpt>
      <trkpt lat="43.65621" lon="0.59666">
        <ele>125</ele>
        <time>2020-10-03T17:29:29.000Z</time>
      </trkpt>
      <trkpt lat="43.65618" lon="0.59665">
        <ele>125</ele>
        <time>2020-10-03T17:29:30.000Z</time>
      </trkpt>
      <trkpt lat="43.65616" lon="0.59663">
        <ele>125</ele>
        <time>2020-10-03T17:29:31.000Z</time>
      </trkpt>
      <trkpt lat="43.65613" lon="0.59662">
        <ele>125</ele>
        <time>2020-10-03T17:29:32.000Z</time>
      </trkpt>
      <trkpt lat="43.6561" lon="0.5966">
        <ele>125</ele>
        <time>2020-10-03T17:29:33.000Z</time>
      </trkpt>
      <trkpt lat="43.65608" lon="0.59659">
        <ele>125</ele>
        <time>2020-10-03T17:29:34.000Z</time>
      </trkpt>
      <trkpt lat="43.65605" lon="0.59659">
        <ele>125</ele>
        <time>2020-10-03T17:29:35.000Z</time>
      </trkpt>
      <trkpt lat="43.65603" lon="0.59657">
        <ele>125</ele>
        <time>2020-10-03T17:29:36.000Z</time>
      </trkpt>
      <trkpt lat="43.65599" lon="0.59655">
        <ele>125</ele>
        <time>2020-10-03T17:29:37.000Z</time>
      </trkpt>
      <trkpt lat="43.65597" lon="0.59654">
        <ele>125</ele>
        <time>2020-10-03T17:29:38.000Z</time>
      </trkpt>
      <trkpt lat="43.65594" lon="0.59653">
        <ele>125</ele>
        <time>2020-10-03T17:29:39.000Z</time>
      </trkpt>
      <trkpt lat="43.65592" lon="0.59651">
        <ele>125</ele>
        <time>2020-10-03T17:29:40.000Z</time>
      </trkpt>
      <trkpt lat="43.65589" lon="0.59649">
        <ele>125</ele>
        <time>2020-10-03T17:29:41.000Z</time>
      </trkpt>
      <trkpt lat="43.65587" lon="0.59646">
        <ele>125</ele>
        <time>2020-10-03T17:29:42.000Z</time>
      </trkpt>
      <trkpt lat="43.65585" lon="0.59643">
        <ele>125</ele>
        <time>2020-10-03T17:29:43.000Z</time>
      </trkpt>
      <trkpt lat="43.65585" lon="0.59638">
        <ele>124.574711629</ele>
        <time>2020-10-03T17:29:44.000Z</time>
      </trkpt>
      <trkpt lat="43.65586" lon="0.59634">
        <ele>124</ele>
        <time>2020-10-03T17:29:45.000Z</time>
      </trkpt>
      <trkpt lat="43.65586" lon="0.5963">
        <ele>124.48454097993</ele>
        <time>2020-10-03T17:29:46.000Z</time>
      </trkpt>
      <trkpt lat="43.65587" lon="0.59627">
        <ele>125</ele>
        <time>2020-10-03T17:29:47.000Z</time>
      </trkpt>
      <trkpt lat="43.65587" lon="0.59623">
        <ele>125</ele>
        <time>2020-10-03T17:29:48.000Z</time>
      </trkpt>
      <trkpt lat="43.65588" lon="0.59619">
        <ele>125</ele>
        <time>2020-10-03T17:29:49.000Z</time>
      </trkpt>
      <trkpt lat="43.65589" lon="0.59615">
        <ele>125</ele>
        <time>2020-10-03T17:29:50.000Z</time>
      </trkpt>
      <trkpt lat="43.65589" lon="0.59611">
        <ele>125</ele>
        <time>2020-10-03T17:29:51.000Z</time>
      </trkpt>
      <trkpt lat="43.6559" lon="0.59607">
        <ele>125</ele>
        <time>2020-10-03T17:29:52.000Z</time>
      </trkpt>
      <trkpt lat="43.65591" lon="0.59603">
        <ele>125</ele>
        <time>2020-10-03T17:29:53.000Z</time>
      </trkpt>
      <trkpt lat="43.65591" lon="0.59599">
        <ele>125</ele>
        <time>2020-10-03T17:29:54.000Z</time>
      </trkpt>
      <trkpt lat="43.65592" lon="0.59595">
        <ele>125</ele>
        <time>2020-10-03T17:29:55.000Z</time>
      </trkpt>
      <trkpt lat="43.65593" lon="0.59592">
        <ele>125</ele>
        <time>2020-10-03T17:29:56.000Z</time>
      </trkpt>
      <trkpt lat="43.65591" lon="0.59588">
        <ele>125</ele>
        <time>2020-10-03T17:29:57.000Z</time>
      </trkpt>
      <trkpt lat="43.6559" lon="0.59584">
        <ele>124.94338984688</ele>
        <time>2020-10-03T17:29:58.000Z</time>
      </trkpt>
      <trkpt lat="43.65589" lon="0.5958">
        <ele>124</ele>
        <time>2020-10-03T17:29:59.000Z</time>
      </trkpt>
      <trkpt lat="43.65587" lon="0.59576">
        <ele>124</ele>
        <time>2020-10-03T17:30:00.000Z</time>
      </trkpt>
      <trkpt lat="43.65585" lon="0.59573">
        <ele>124</ele>
        <time>2020-10-03T17:30:01.000Z</time>
      </trkpt>
      <trkpt lat="43.65584" lon="0.5957">
        <ele>124</ele>
        <time>2020-10-03T17:30:02.000Z</time>
      </trkpt>
      <trkpt lat="43.65583" lon="0.59567">
        <ele>124</ele>
        <time>2020-10-03T17:30:03.000Z</time>
      </trkpt>
      <trkpt lat="43.65582" lon="0.59564">
        <ele>124</ele>
        <time>2020-10-03T17:30:04.000Z</time>
      </trkpt>
      <trkpt lat="43.6558" lon="0.59561">
        <ele>124</ele>
        <time>2020-10-03T17:30:05.000Z</time>
      </trkpt>
      <trkpt lat="43.65579" lon="0.59558">
        <ele>124</ele>
        <time>2020-10-03T17:30:06.000Z</time>
      </trkpt>
      <trkpt lat="43.65578" lon="0.59555">
        <ele>124</ele>
        <time>2020-10-03T17:30:07.000Z</time>
      </trkpt>
      <trkpt lat="43.65577" lon="0.59552">
        <ele>124</ele>
        <time>2020-10-03T17:30:08.000Z</time>
      </trkpt>
      <trkpt lat="43.65575" lon="0.59549">
        <ele>124</ele>
        <time>2020-10-03T17:30:09.000Z</time>
      </trkpt>
      <trkpt lat="43.65574" lon="0.59545">
        <ele>124</ele>
        <time>2020-10-03T17:30:10.000Z</time>
      </trkpt>
      <trkpt lat="43.65574" lon="0.59541">
        <ele>124</ele>
        <time>2020-10-03T17:30:11.000Z</time>
      </trkpt>
      <trkpt lat="43.65573" lon="0.59538">
        <ele>124</ele>
        <time>2020-10-03T17:30:12.000Z</time>
      </trkpt>
      <trkpt lat="43.65573" lon="0.59534">
        <ele>124</ele>
        <time>2020-10-03T17:30:13.000Z</time>
      </trkpt>
      <trkpt lat="43.65572" lon="0.5953">
        <ele>124.45098383696</ele>
        <time>2020-10-03T17:30:14.000Z</time>
      </trkpt>
      <trkpt lat="43.65571" lon="0.59526">
        <ele>125</ele>
        <time>2020-10-03T17:30:15.000Z</time>
      </trkpt>
      <trkpt lat="43.6557" lon="0.59522">
        <ele>125</ele>
        <time>2020-10-03T17:30:16.000Z</time>
      </trkpt>
      <trkpt lat="43.65568" lon="0.59519">
        <ele>125</ele>
        <time>2020-10-03T17:30:17.000Z</time>
      </trkpt>
      <trkpt lat="43.65566" lon="0.59515">
        <ele>125</ele>
        <time>2020-10-03T17:30:18.000Z</time>
      </trkpt>
      <trkpt lat="43.65564" lon="0.59512">
        <ele>124.73033610907</ele>
        <time>2020-10-03T17:30:19.000Z</time>
      </trkpt>
      <trkpt lat="43.65563" lon="0.59509">
        <ele>124</ele>
        <time>2020-10-03T17:30:20.000Z</time>
      </trkpt>
      <trkpt lat="43.65561" lon="0.59507">
        <ele>124</ele>
        <time>2020-10-03T17:30:21.000Z</time>
      </trkpt>
      <trkpt lat="43.65559" lon="0.59504">
        <ele>124</ele>
        <time>2020-10-03T17:30:22.000Z</time>
      </trkpt>
      <trkpt lat="43.65557" lon="0.59501">
        <ele>124</ele>
        <time>2020-10-03T17:30:23.000Z</time>
      </trkpt>
      <trkpt lat="43.65555" lon="0.59498">
        <ele>124</ele>
        <time>2020-10-03T17:30:24.000Z</time>
      </trkpt>
      <trkpt lat="43.65554" lon="0.59495">
        <ele>124</ele>
        <time>2020-10-03T17:30:25.000Z</time>
      </trkpt>
      <trkpt lat="43.65552" lon="0.59492">
        <ele>124</ele>
        <time>2020-10-03T17:30:26.000Z</time>
      </trkpt>
      <trkpt lat="43.65551" lon="0.59489">
        <ele>124</ele>
        <time>2020-10-03T17:30:27.000Z</time>
      </trkpt>
      <trkpt lat="43.6555" lon="0.59486">
        <ele>124</ele>
        <time>2020-10-03T17:30:28.000Z</time>
      </trkpt>
      <trkpt lat="43.65549" lon="0.59482">
        <ele>124</ele>
        <time>2020-10-03T17:30:29.000Z</time>
      </trkpt>
      <trkpt lat="43.65549" lon="0.59478">
        <ele>124</ele>
        <time>2020-10-03T17:30:30.000Z</time>
      </trkpt>
      <trkpt lat="43.65549" lon="0.59475">
        <ele>124</ele>
        <time>2020-10-03T17:30:31.000Z</time>
      </trkpt>
      <trkpt lat="43.65549" lon="0.59471">
        <ele>124</ele>
        <time>2020-10-03T17:30:32.000Z</time>
      </trkpt>
      <trkpt lat="43.65548" lon="0.59467">
        <ele>124</ele>
        <time>2020-10-03T17:30:33.000Z</time>
      </trkpt>
      <trkpt lat="43.65548" lon="0.59463">
        <ele>124</ele>
        <time>2020-10-03T17:30:34.000Z</time>
      </trkpt>
      <trkpt lat="43.65549" lon="0.59459">
        <ele>124</ele>
        <time>2020-10-03T17:30:35.000Z</time>
      </trkpt>
      <trkpt lat="43.65549" lon="0.59455">
        <ele>124</ele>
        <time>2020-10-03T17:30:36.000Z</time>
      </trkpt>
      <trkpt lat="43.6555" lon="0.59451">
        <ele>124</ele>
        <time>2020-10-03T17:30:37.000Z</time>
      </trkpt>
      <trkpt lat="43.6555" lon="0.59447">
        <ele>124</ele>
        <time>2020-10-03T17:30:38.000Z</time>
      </trkpt>
      <trkpt lat="43.65551" lon="0.59443">
        <ele>124</ele>
        <time>2020-10-03T17:30:39.000Z</time>
      </trkpt>
      <trkpt lat="43.65552" lon="0.59438">
        <ele>124</ele>
        <time>2020-10-03T17:30:40.000Z</time>
      </trkpt>
      <trkpt lat="43.65552" lon="0.59434">
        <ele>124</ele>
        <time>2020-10-03T17:30:41.000Z</time>
      </trkpt>
      <trkpt lat="43.65553" lon="0.5943">
        <ele>124</ele>
        <time>2020-10-03T17:30:42.000Z</time>
      </trkpt>
      <trkpt lat="43.65554" lon="0.59426">
        <ele>123.60800155648</ele>
        <time>2020-10-03T17:30:43.000Z</time>
      </trkpt>
      <trkpt lat="43.65555" lon="0.59423">
        <ele>123</ele>
        <time>2020-10-03T17:30:44.000Z</time>
      </trkpt>
      <trkpt lat="43.65556" lon="0.59419">
        <ele>122.69368881099</ele>
        <time>2020-10-03T17:30:45.000Z</time>
      </trkpt>
      <trkpt lat="43.65556" lon="0.59415">
        <ele>122</ele>
        <time>2020-10-03T17:30:46.000Z</time>
      </trkpt>
      <trkpt lat="43.65557" lon="0.59411">
        <ele>122</ele>
        <time>2020-10-03T17:30:47.000Z</time>
      </trkpt>
      <trkpt lat="43.65557" lon="0.59407">
        <ele>122</ele>
        <time>2020-10-03T17:30:48.000Z</time>
      </trkpt>
      <trkpt lat="43.65557" lon="0.59403">
        <ele>122</ele>
        <time>2020-10-03T17:30:49.000Z</time>
      </trkpt>
      <trkpt lat="43.65557" lon="0.59399">
        <ele>122</ele>
        <time>2020-10-03T17:30:50.000Z</time>
      </trkpt>
      <trkpt lat="43.65557" lon="0.59395">
        <ele>122</ele>
        <time>2020-10-03T17:30:51.000Z</time>
      </trkpt>
      <trkpt lat="43.65556" lon="0.5939">
        <ele>122</ele>
        <time>2020-10-03T17:30:52.000Z</time>
      </trkpt>
      <trkpt lat="43.65555" lon="0.59387">
        <ele>122</ele>
        <time>2020-10-03T17:30:53.000Z</time>
      </trkpt>
      <trkpt lat="43.65554" lon="0.59383">
        <ele>122</ele>
        <time>2020-10-03T17:30:54.000Z</time>
      </trkpt>
      <trkpt lat="43.65553" lon="0.5938">
        <ele>122.59259493371</ele>
        <time>2020-10-03T17:30:55.000Z</time>
      </trkpt>
      <trkpt lat="43.65552" lon="0.59376">
        <ele>124</ele>
        <time>2020-10-03T17:30:56.000Z</time>
      </trkpt>
      <trkpt lat="43.6555" lon="0.59373">
        <ele>124</ele>
        <time>2020-10-03T17:30:57.000Z</time>
      </trkpt>
      <trkpt lat="43.65549" lon="0.5937">
        <ele>124</ele>
        <time>2020-10-03T17:30:58.000Z</time>
      </trkpt>
      <trkpt lat="43.65547" lon="0.59367">
        <ele>124</ele>
        <time>2020-10-03T17:30:59.000Z</time>
      </trkpt>
      <trkpt lat="43.65546" lon="0.59364">
        <ele>123.61111167549</ele>
        <time>2020-10-03T17:31:00.000Z</time>
      </trkpt>
      <trkpt lat="43.65544" lon="0.59361">
        <ele>123</ele>
        <time>2020-10-03T17:31:01.000Z</time>
      </trkpt>
      <trkpt lat="43.65542" lon="0.59358">
        <ele>123</ele>
        <time>2020-10-03T17:31:02.000Z</time>
      </trkpt>
      <trkpt lat="43.65541" lon="0.59355">
        <ele>123</ele>
        <time>2020-10-03T17:31:03.000Z</time>
      </trkpt>
      <trkpt lat="43.65539" lon="0.59351">
        <ele>123</ele>
        <time>2020-10-03T17:31:04.000Z</time>
      </trkpt>
      <trkpt lat="43.65538" lon="0.59348">
        <ele>123</ele>
        <time>2020-10-03T17:31:05.000Z</time>
      </trkpt>
      <trkpt lat="43.65537" lon="0.59344">
        <ele>123</ele>
        <time>2020-10-03T17:31:06.000Z</time>
      </trkpt>
      <trkpt lat="43.65537" lon="0.59341">
        <ele>123</ele>
        <time>2020-10-03T17:31:07.000Z</time>
      </trkpt>
      <trkpt lat="43.65536" lon="0.59337">
        <ele>123</ele>
        <time>2020-10-03T17:31:08.000Z</time>
      </trkpt>
      <trkpt lat="43.65536" lon="0.59334">
        <ele>123</ele>
        <time>2020-10-03T17:31:09.000Z</time>
      </trkpt>
      <trkpt lat="43.65536" lon="0.59331">
        <ele>123</ele>
        <time>2020-10-03T17:31:10.000Z</time>
      </trkpt>
      <trkpt lat="43.65537" lon="0.59328">
        <ele>123</ele>
        <time>2020-10-03T17:31:11.000Z</time>
      </trkpt>
      <trkpt lat="43.65537" lon="0.59325">
        <ele>122.72618666667</ele>
        <time>2020-10-03T17:31:12.000Z</time>
      </trkpt>
      <trkpt lat="43.65537" lon="0.59321">
        <ele>122</ele>
        <time>2020-10-03T17:31:13.000Z</time>
      </trkpt>
      <trkpt lat="43.65538" lon="0.59318">
        <ele>122</ele>
        <time>2020-10-03T17:31:14.000Z</time>
      </trkpt>
      <trkpt lat="43.65539" lon="0.59314">
        <ele>122</ele>
        <time>2020-10-03T17:31:15.000Z</time>
      </trkpt>
      <trkpt lat="43.6554" lon="0.5931">
        <ele>122</ele>
        <time>2020-10-03T17:31:16.000Z</time>
      </trkpt>
      <trkpt lat="43.65541" lon="0.59307">
        <ele>122</ele>
        <time>2020-10-03T17:31:17.000Z</time>
      </trkpt>
      <trkpt lat="43.65543" lon="0.59303">
        <ele>122.40384</ele>
        <time>2020-10-03T17:31:18.000Z</time>
      </trkpt>
      <trkpt lat="43.65544" lon="0.59299">
        <ele>123</ele>
        <time>2020-10-03T17:31:19.000Z</time>
      </trkpt>
      <trkpt lat="43.65546" lon="0.59295">
        <ele>123</ele>
        <time>2020-10-03T17:31:20.000Z</time>
      </trkpt>
      <trkpt lat="43.65547" lon="0.59292">
        <ele>123</ele>
        <time>2020-10-03T17:31:21.000Z</time>
      </trkpt>
      <trkpt lat="43.65548" lon="0.59288">
        <ele>123</ele>
        <time>2020-10-03T17:31:22.000Z</time>
      </trkpt>
      <trkpt lat="43.6555" lon="0.59284">
        <ele>122.59614769231</ele>
        <time>2020-10-03T17:31:23.000Z</time>
      </trkpt>
      <trkpt lat="43.65551" lon="0.59281">
        <ele>122</ele>
        <time>2020-10-03T17:31:24.000Z</time>
      </trkpt>
      <trkpt lat="43.65553" lon="0.59277">
        <ele>122.42857516032</ele>
        <time>2020-10-03T17:31:25.000Z</time>
      </trkpt>
      <trkpt lat="43.65554" lon="0.59274">
        <ele>123</ele>
        <time>2020-10-03T17:31:26.000Z</time>
      </trkpt>
      <trkpt lat="43.65556" lon="0.5927">
        <ele>123</ele>
        <time>2020-10-03T17:31:27.000Z</time>
      </trkpt>
      <trkpt lat="43.65557" lon="0.59267">
        <ele>123</ele>
        <time>2020-10-03T17:31:28.000Z</time>
      </trkpt>
      <trkpt lat="43.65558" lon="0.59264">
        <ele>123</ele>
        <time>2020-10-03T17:31:29.000Z</time>
      </trkpt>
      <trkpt lat="43.6556" lon="0.59261">
        <ele>123</ele>
        <time>2020-10-03T17:31:30.000Z</time>
      </trkpt>
      <trkpt lat="43.65562" lon="0.59258">
        <ele>123</ele>
        <time>2020-10-03T17:31:31.000Z</time>
      </trkpt>
      <trkpt lat="43.65563" lon="0.59256">
        <ele>123</ele>
        <time>2020-10-03T17:31:32.000Z</time>
      </trkpt>
      <trkpt lat="43.65565" lon="0.59254">
        <ele>123</ele>
        <time>2020-10-03T17:31:33.000Z</time>
      </trkpt>
      <trkpt lat="43.65566" lon="0.5925">
        <ele>123</ele>
        <time>2020-10-03T17:31:34.000Z</time>
      </trkpt>
      <trkpt lat="43.65566" lon="0.59248">
        <ele>123</ele>
        <time>2020-10-03T17:31:35.000Z</time>
      </trkpt>
      <trkpt lat="43.65566" lon="0.59243">
        <ele>123</ele>
        <time>2020-10-03T17:31:37.000Z</time>
      </trkpt>
      <trkpt lat="43.65565" lon="0.59239">
        <ele>124</ele>
        <time>2020-10-03T17:31:39.000Z</time>
      </trkpt>
      <trkpt lat="43.65563" lon="0.59237">
        <ele>124</ele>
        <time>2020-10-03T17:31:40.000Z</time>
      </trkpt>
      <trkpt lat="43.6556" lon="0.59236">
        <ele>124</ele>
        <time>2020-10-03T17:31:41.000Z</time>
      </trkpt>
      <trkpt lat="43.65558" lon="0.59236">
        <ele>124</ele>
        <time>2020-10-03T17:31:42.000Z</time>
      </trkpt>
      <trkpt lat="43.65556" lon="0.59235">
        <ele>124</ele>
        <time>2020-10-03T17:31:43.000Z</time>
      </trkpt>
      <trkpt lat="43.65553" lon="0.59234">
        <ele>124</ele>
        <time>2020-10-03T17:31:44.000Z</time>
      </trkpt>
      <trkpt lat="43.65551" lon="0.59234">
        <ele>124</ele>
        <time>2020-10-03T17:31:45.000Z</time>
      </trkpt>
      <trkpt lat="43.65548" lon="0.59233">
        <ele>124.42424007344</ele>
        <time>2020-10-03T17:31:46.000Z</time>
      </trkpt>
      <trkpt lat="43.65546" lon="0.59232">
        <ele>125</ele>
        <time>2020-10-03T17:31:47.000Z</time>
      </trkpt>
      <trkpt lat="43.65543" lon="0.59232">
        <ele>125</ele>
        <time>2020-10-03T17:31:49.000Z</time>
      </trkpt>
      <trkpt lat="43.6554" lon="0.59231">
        <ele>125</ele>
        <time>2020-10-03T17:31:51.000Z</time>
      </trkpt>
      <trkpt lat="43.65537" lon="0.5923">
        <ele>125</ele>
        <time>2020-10-03T17:31:53.000Z</time>
      </trkpt>
      <trkpt lat="43.65535" lon="0.59229">
        <ele>124</ele>
        <time>2020-10-03T17:31:55.000Z</time>
      </trkpt>
      <trkpt lat="43.65532" lon="0.59228">
        <ele>125</ele>
        <time>2020-10-03T17:31:57.000Z</time>
      </trkpt>
      <trkpt lat="43.65529" lon="0.59227">
        <ele>125</ele>
        <time>2020-10-03T17:31:59.000Z</time>
      </trkpt>
      <trkpt lat="43.65526" lon="0.59226">
        <ele>125</ele>
        <time>2020-10-03T17:32:01.000Z</time>
      </trkpt>
      <trkpt lat="43.65523" lon="0.59225">
        <ele>125</ele>
        <time>2020-10-03T17:32:03.000Z</time>
      </trkpt>
      <trkpt lat="43.65522" lon="0.59224">
        <ele>125</ele>
        <time>2020-10-03T17:32:04.000Z</time>
      </trkpt>
      <trkpt lat="43.65519" lon="0.59223">
        <ele>125</ele>
        <time>2020-10-03T17:32:06.000Z</time>
      </trkpt>
      <trkpt lat="43.65516" lon="0.59222">
        <ele>125</ele>
        <time>2020-10-03T17:32:08.000Z</time>
      </trkpt>
      <trkpt lat="43.65512" lon="0.5922">
        <ele>125</ele>
        <time>2020-10-03T17:32:10.000Z</time>
      </trkpt>
      <trkpt lat="43.65509" lon="0.59219">
        <ele>125</ele>
        <time>2020-10-03T17:32:12.000Z</time>
      </trkpt>
      <trkpt lat="43.65506" lon="0.59218">
        <ele>125</ele>
        <time>2020-10-03T17:32:14.000Z</time>
      </trkpt>
      <trkpt lat="43.65503" lon="0.59217">
        <ele>125</ele>
        <time>2020-10-03T17:32:16.000Z</time>
      </trkpt>
      <trkpt lat="43.655" lon="0.59216">
        <ele>125</ele>
        <time>2020-10-03T17:32:18.000Z</time>
      </trkpt>
      <trkpt lat="43.65497" lon="0.59215">
        <ele>125</ele>
        <time>2020-10-03T17:32:20.000Z</time>
      </trkpt>
      <trkpt lat="43.65494" lon="0.59213">
        <ele>125</ele>
        <time>2020-10-03T17:32:22.000Z</time>
      </trkpt>
      <trkpt lat="43.65491" lon="0.59212">
        <ele>125</ele>
        <time>2020-10-03T17:32:24.000Z</time>
      </trkpt>
      <trkpt lat="43.65488" lon="0.59211">
        <ele>125</ele>
        <time>2020-10-03T17:32:26.000Z</time>
      </trkpt>
      <trkpt lat="43.65485" lon="0.5921">
        <ele>125</ele>
        <time>2020-10-03T17:32:28.000Z</time>
      </trkpt>
      <trkpt lat="43.65482" lon="0.59209">
        <ele>124</ele>
        <time>2020-10-03T17:32:30.000Z</time>
      </trkpt>
      <trkpt lat="43.65478" lon="0.59208">
        <ele>124</ele>
        <time>2020-10-03T17:32:32.000Z</time>
      </trkpt>
      <trkpt lat="43.65476" lon="0.59207">
        <ele>124</ele>
        <time>2020-10-03T17:32:33.000Z</time>
      </trkpt>
      <trkpt lat="43.65474" lon="0.59207">
        <ele>124</ele>
        <time>2020-10-03T17:32:34.000Z</time>
      </trkpt>
      <trkpt lat="43.65471" lon="0.59206">
        <ele>124.42696063626</ele>
        <time>2020-10-03T17:32:35.000Z</time>
      </trkpt>
      <trkpt lat="43.65468" lon="0.59205">
        <ele>125</ele>
        <time>2020-10-03T17:32:36.000Z</time>
      </trkpt>
      <trkpt lat="43.65466" lon="0.59204">
        <ele>125</ele>
        <time>2020-10-03T17:32:37.000Z</time>
      </trkpt>
      <trkpt lat="43.65463" lon="0.59204">
        <ele>125</ele>
        <time>2020-10-03T17:32:38.000Z</time>
      </trkpt>
      <trkpt lat="43.6546" lon="0.59203">
        <ele>125</ele>
        <time>2020-10-03T17:32:39.000Z</time>
      </trkpt>
      <trkpt lat="43.65458" lon="0.59201">
        <ele>125</ele>
        <time>2020-10-03T17:32:40.000Z</time>
      </trkpt>
      <trkpt lat="43.65455" lon="0.59201">
        <ele>125</ele>
        <time>2020-10-03T17:32:41.000Z</time>
      </trkpt>
      <trkpt lat="43.65452" lon="0.59201">
        <ele>125</ele>
        <time>2020-10-03T17:32:42.000Z</time>
      </trkpt>
      <trkpt lat="43.65449" lon="0.592">
        <ele>125</ele>
        <time>2020-10-03T17:32:43.000Z</time>
      </trkpt>
      <trkpt lat="43.65447" lon="0.59199">
        <ele>125</ele>
        <time>2020-10-03T17:32:44.000Z</time>
      </trkpt>
      <trkpt lat="43.65444" lon="0.59198">
        <ele>125</ele>
        <time>2020-10-03T17:32:45.000Z</time>
      </trkpt>
      <trkpt lat="43.65442" lon="0.59197">
        <ele>125</ele>
        <time>2020-10-03T17:32:46.000Z</time>
      </trkpt>
      <trkpt lat="43.65439" lon="0.59196">
        <ele>125</ele>
        <time>2020-10-03T17:32:47.000Z</time>
      </trkpt>
      <trkpt lat="43.65437" lon="0.59195">
        <ele>125</ele>
        <time>2020-10-03T17:32:48.000Z</time>
      </trkpt>
      <trkpt lat="43.65434" lon="0.59193">
        <ele>125</ele>
        <time>2020-10-03T17:32:49.000Z</time>
      </trkpt>
      <trkpt lat="43.65431" lon="0.59192">
        <ele>125</ele>
        <time>2020-10-03T17:32:50.000Z</time>
      </trkpt>
      <trkpt lat="43.65429" lon="0.59191">
        <ele>125</ele>
        <time>2020-10-03T17:32:51.000Z</time>
      </trkpt>
      <trkpt lat="43.65426" lon="0.5919">
        <ele>125</ele>
        <time>2020-10-03T17:32:52.000Z</time>
      </trkpt>
      <trkpt lat="43.65422" lon="0.59188">
        <ele>125</ele>
        <time>2020-10-03T17:32:53.000Z</time>
      </trkpt>
      <trkpt lat="43.6542" lon="0.59186">
        <ele>125</ele>
        <time>2020-10-03T17:32:54.000Z</time>
      </trkpt>
      <trkpt lat="43.65417" lon="0.59185">
        <ele>125</ele>
        <time>2020-10-03T17:32:55.000Z</time>
      </trkpt>
      <trkpt lat="43.65414" lon="0.59183">
        <ele>125</ele>
        <time>2020-10-03T17:32:56.000Z</time>
      </trkpt>
      <trkpt lat="43.65411" lon="0.59182">
        <ele>125</ele>
        <time>2020-10-03T17:32:57.000Z</time>
      </trkpt>
      <trkpt lat="43.65409" lon="0.59181">
        <ele>125</ele>
        <time>2020-10-03T17:32:58.000Z</time>
      </trkpt>
      <trkpt lat="43.65406" lon="0.59179">
        <ele>125</ele>
        <time>2020-10-03T17:32:59.000Z</time>
      </trkpt>
      <trkpt lat="43.65404" lon="0.59178">
        <ele>125</ele>
        <time>2020-10-03T17:33:00.000Z</time>
      </trkpt>
      <trkpt lat="43.65401" lon="0.59177">
        <ele>125</ele>
        <time>2020-10-03T17:33:01.000Z</time>
      </trkpt>
      <trkpt lat="43.65398" lon="0.59175">
        <ele>125</ele>
        <time>2020-10-03T17:33:02.000Z</time>
      </trkpt>
      <trkpt lat="43.65396" lon="0.59174">
        <ele>125</ele>
        <time>2020-10-03T17:33:03.000Z</time>
      </trkpt>
      <trkpt lat="43.65394" lon="0.59173">
        <ele>125</ele>
        <time>2020-10-03T17:33:04.000Z</time>
      </trkpt>
      <trkpt lat="43.65391" lon="0.59171">
        <ele>125</ele>
        <time>2020-10-03T17:33:05.000Z</time>
      </trkpt>
      <trkpt lat="43.65389" lon="0.5917">
        <ele>125</ele>
        <time>2020-10-03T17:33:06.000Z</time>
      </trkpt>
      <trkpt lat="43.65386" lon="0.59169">
        <ele>125</ele>
        <time>2020-10-03T17:33:07.000Z</time>
      </trkpt>
      <trkpt lat="43.65383" lon="0.59167">
        <ele>125</ele>
        <time>2020-10-03T17:33:08.000Z</time>
      </trkpt>
      <trkpt lat="43.65381" lon="0.59166">
        <ele>125</ele>
        <time>2020-10-03T17:33:09.000Z</time>
      </trkpt>
      <trkpt lat="43.65378" lon="0.59164">
        <ele>125</ele>
        <time>2020-10-03T17:33:10.000Z</time>
      </trkpt>
      <trkpt lat="43.65376" lon="0.59163">
        <ele>125</ele>
        <time>2020-10-03T17:33:11.000Z</time>
      </trkpt>
      <trkpt lat="43.65373" lon="0.59162">
        <ele>125</ele>
        <time>2020-10-03T17:33:12.000Z</time>
      </trkpt>
      <trkpt lat="43.65371" lon="0.5916">
        <ele>125</ele>
        <time>2020-10-03T17:33:13.000Z</time>
      </trkpt>
      <trkpt lat="43.65368" lon="0.59159">
        <ele>125</ele>
        <time>2020-10-03T17:33:14.000Z</time>
      </trkpt>
      <trkpt lat="43.65366" lon="0.59157">
        <ele>125</ele>
        <time>2020-10-03T17:33:15.000Z</time>
      </trkpt>
      <trkpt lat="43.65363" lon="0.59156">
        <ele>125</ele>
        <time>2020-10-03T17:33:16.000Z</time>
      </trkpt>
      <trkpt lat="43.65361" lon="0.59154">
        <ele>125</ele>
        <time>2020-10-03T17:33:17.000Z</time>
      </trkpt>
      <trkpt lat="43.65359" lon="0.59152">
        <ele>125</ele>
        <time>2020-10-03T17:33:18.000Z</time>
      </trkpt>
      <trkpt lat="43.65356" lon="0.59151">
        <ele>125</ele>
        <time>2020-10-03T17:33:19.000Z</time>
      </trkpt>
      <trkpt lat="43.65354" lon="0.59149">
        <ele>125</ele>
        <time>2020-10-03T17:33:20.000Z</time>
      </trkpt>
      <trkpt lat="43.65351" lon="0.59148">
        <ele>125</ele>
        <time>2020-10-03T17:33:21.000Z</time>
      </trkpt>
      <trkpt lat="43.65348" lon="0.59146">
        <ele>125</ele>
        <time>2020-10-03T17:33:22.000Z</time>
      </trkpt>
      <trkpt lat="43.65346" lon="0.59145">
        <ele>125</ele>
        <time>2020-10-03T17:33:23.000Z</time>
      </trkpt>
      <trkpt lat="43.65344" lon="0.59143">
        <ele>125</ele>
        <time>2020-10-03T17:33:24.000Z</time>
      </trkpt>
      <trkpt lat="43.65341" lon="0.59142">
        <ele>125</ele>
        <time>2020-10-03T17:33:25.000Z</time>
      </trkpt>
      <trkpt lat="43.65339" lon="0.59141">
        <ele>125</ele>
        <time>2020-10-03T17:33:26.000Z</time>
      </trkpt>
      <trkpt lat="43.65337" lon="0.5914">
        <ele>125</ele>
        <time>2020-10-03T17:33:27.000Z</time>
      </trkpt>
      <trkpt lat="43.65334" lon="0.59139">
        <ele>125</ele>
        <time>2020-10-03T17:33:28.000Z</time>
      </trkpt>
      <trkpt lat="43.65332" lon="0.59138">
        <ele>125</ele>
        <time>2020-10-03T17:33:29.000Z</time>
      </trkpt>
      <trkpt lat="43.65329" lon="0.59137">
        <ele>125</ele>
        <time>2020-10-03T17:33:30.000Z</time>
      </trkpt>
      <trkpt lat="43.65327" lon="0.59136">
        <ele>125</ele>
        <time>2020-10-03T17:33:31.000Z</time>
      </trkpt>
      <trkpt lat="43.65325" lon="0.59136">
        <ele>125</ele>
        <time>2020-10-03T17:33:32.000Z</time>
      </trkpt>
      <trkpt lat="43.65322" lon="0.59135">
        <ele>125</ele>
        <time>2020-10-03T17:33:33.000Z</time>
      </trkpt>
      <trkpt lat="43.6532" lon="0.59134">
        <ele>125</ele>
        <time>2020-10-03T17:33:34.000Z</time>
      </trkpt>
      <trkpt lat="43.65317" lon="0.59133">
        <ele>125</ele>
        <time>2020-10-03T17:33:35.000Z</time>
      </trkpt>
      <trkpt lat="43.65315" lon="0.59132">
        <ele>125</ele>
        <time>2020-10-03T17:33:36.000Z</time>
      </trkpt>
      <trkpt lat="43.65313" lon="0.59131">
        <ele>125</ele>
        <time>2020-10-03T17:33:37.000Z</time>
      </trkpt>
      <trkpt lat="43.6531" lon="0.5913">
        <ele>125</ele>
        <time>2020-10-03T17:33:38.000Z</time>
      </trkpt>
      <trkpt lat="43.65308" lon="0.59129">
        <ele>125</ele>
        <time>2020-10-03T17:33:39.000Z</time>
      </trkpt>
      <trkpt lat="43.65305" lon="0.59128">
        <ele>125</ele>
        <time>2020-10-03T17:33:40.000Z</time>
      </trkpt>
      <trkpt lat="43.65303" lon="0.59127">
        <ele>125</ele>
        <time>2020-10-03T17:33:41.000Z</time>
      </trkpt>
      <trkpt lat="43.653" lon="0.59126">
        <ele>125.20512652204</ele>
        <time>2020-10-03T17:33:42.000Z</time>
      </trkpt>
      <trkpt lat="43.65298" lon="0.59125">
        <ele>126</ele>
        <time>2020-10-03T17:33:43.000Z</time>
      </trkpt>
      <trkpt lat="43.65295" lon="0.59125">
        <ele>126</ele>
        <time>2020-10-03T17:33:44.000Z</time>
      </trkpt>
      <trkpt lat="43.65292" lon="0.59124">
        <ele>126</ele>
        <time>2020-10-03T17:33:45.000Z</time>
      </trkpt>
      <trkpt lat="43.6529" lon="0.59124">
        <ele>126</ele>
        <time>2020-10-03T17:33:46.000Z</time>
      </trkpt>
      <trkpt lat="43.65287" lon="0.59123">
        <ele>126</ele>
        <time>2020-10-03T17:33:47.000Z</time>
      </trkpt>
      <trkpt lat="43.65284" lon="0.59122">
        <ele>126</ele>
        <time>2020-10-03T17:33:48.000Z</time>
      </trkpt>
      <trkpt lat="43.65281" lon="0.59122">
        <ele>125.63094857143</ele>
        <time>2020-10-03T17:33:49.000Z</time>
      </trkpt>
      <trkpt lat="43.65279" lon="0.59121">
        <ele>125</ele>
        <time>2020-10-03T17:33:50.000Z</time>
      </trkpt>
      <trkpt lat="43.65276" lon="0.59121">
        <ele>125</ele>
        <time>2020-10-03T17:33:51.000Z</time>
      </trkpt>
      <trkpt lat="43.65274" lon="0.59121">
        <ele>125</ele>
        <time>2020-10-03T17:33:52.000Z</time>
      </trkpt>
      <trkpt lat="43.65271" lon="0.59121">
        <ele>125</ele>
        <time>2020-10-03T17:33:53.000Z</time>
      </trkpt>
      <trkpt lat="43.65269" lon="0.59121">
        <ele>125</ele>
        <time>2020-10-03T17:33:54.000Z</time>
      </trkpt>
      <trkpt lat="43.65266" lon="0.59121">
        <ele>125</ele>
        <time>2020-10-03T17:33:55.000Z</time>
      </trkpt>
      <trkpt lat="43.65263" lon="0.59121">
        <ele>125</ele>
        <time>2020-10-03T17:33:56.000Z</time>
      </trkpt>
      <trkpt lat="43.65261" lon="0.59121">
        <ele>125</ele>
        <time>2020-10-03T17:33:57.000Z</time>
      </trkpt>
      <trkpt lat="43.65258" lon="0.59121">
        <ele>125</ele>
        <time>2020-10-03T17:33:58.000Z</time>
      </trkpt>
      <trkpt lat="43.65255" lon="0.5912">
        <ele>125</ele>
        <time>2020-10-03T17:33:59.000Z</time>
      </trkpt>
      <trkpt lat="43.65253" lon="0.5912">
        <ele>125</ele>
        <time>2020-10-03T17:34:00.000Z</time>
      </trkpt>
      <trkpt lat="43.6525" lon="0.59121">
        <ele>125</ele>
        <time>2020-10-03T17:34:01.000Z</time>
      </trkpt>
      <trkpt lat="43.65245" lon="0.59122">
        <ele>125</ele>
        <time>2020-10-03T17:34:03.000Z</time>
      </trkpt>
      <trkpt lat="43.65243" lon="0.59123">
        <ele>125</ele>
        <time>2020-10-03T17:34:04.000Z</time>
      </trkpt>
      <trkpt lat="43.6524" lon="0.59123">
        <ele>125.31531728917</ele>
        <time>2020-10-03T17:34:05.000Z</time>
      </trkpt>
      <trkpt lat="43.65237" lon="0.59124">
        <ele>126</ele>
        <time>2020-10-03T17:34:06.000Z</time>
      </trkpt>
      <trkpt lat="43.65235" lon="0.59124">
        <ele>126</ele>
        <time>2020-10-03T17:34:07.000Z</time>
      </trkpt>
      <trkpt lat="43.65233" lon="0.59124">
        <ele>126</ele>
        <time>2020-10-03T17:34:08.000Z</time>
      </trkpt>
      <trkpt lat="43.6523" lon="0.59124">
        <ele>126</ele>
        <time>2020-10-03T17:34:09.000Z</time>
      </trkpt>
      <trkpt lat="43.65227" lon="0.59124">
        <ele>126</ele>
        <time>2020-10-03T17:34:10.000Z</time>
      </trkpt>
      <trkpt lat="43.65224" lon="0.59124">
        <ele>125.69136075599</ele>
        <time>2020-10-03T17:34:11.000Z</time>
      </trkpt>
      <trkpt lat="43.65222" lon="0.59124">
        <ele>125</ele>
        <time>2020-10-03T17:34:12.000Z</time>
      </trkpt>
      <trkpt lat="43.65219" lon="0.59124">
        <ele>125</ele>
        <time>2020-10-03T17:34:13.000Z</time>
      </trkpt>
      <trkpt lat="43.65216" lon="0.59124">
        <ele>125</ele>
        <time>2020-10-03T17:34:14.000Z</time>
      </trkpt>
      <trkpt lat="43.65213" lon="0.59124">
        <ele>125</ele>
        <time>2020-10-03T17:34:15.000Z</time>
      </trkpt>
      <trkpt lat="43.6521" lon="0.59124">
        <ele>125</ele>
        <time>2020-10-03T17:34:16.000Z</time>
      </trkpt>
      <trkpt lat="43.65208" lon="0.59124">
        <ele>125</ele>
        <time>2020-10-03T17:34:17.000Z</time>
      </trkpt>
      <trkpt lat="43.65205" lon="0.59124">
        <ele>125</ele>
        <time>2020-10-03T17:34:18.000Z</time>
      </trkpt>
      <trkpt lat="43.65203" lon="0.59124">
        <ele>125</ele>
        <time>2020-10-03T17:34:19.000Z</time>
      </trkpt>
      <trkpt lat="43.65201" lon="0.59125">
        <ele>125</ele>
        <time>2020-10-03T17:34:20.000Z</time>
      </trkpt>
      <trkpt lat="43.65198" lon="0.59125">
        <ele>125.45054434973</ele>
        <time>2020-10-03T17:34:21.000Z</time>
      </trkpt>
      <trkpt lat="43.65196" lon="0.59125">
        <ele>126</ele>
        <time>2020-10-03T17:34:22.000Z</time>
      </trkpt>
      <trkpt lat="43.65193" lon="0.59124">
        <ele>126</ele>
        <time>2020-10-03T17:34:23.000Z</time>
      </trkpt>
      <trkpt lat="43.65191" lon="0.59125">
        <ele>126</ele>
        <time>2020-10-03T17:34:24.000Z</time>
      </trkpt>
      <trkpt lat="43.65188" lon="0.59125">
        <ele>126</ele>
        <time>2020-10-03T17:34:25.000Z</time>
      </trkpt>
      <trkpt lat="43.65186" lon="0.59126">
        <ele>126</ele>
        <time>2020-10-03T17:34:26.000Z</time>
      </trkpt>
      <trkpt lat="43.65183" lon="0.59126">
        <ele>126</ele>
        <time>2020-10-03T17:34:27.000Z</time>
      </trkpt>
      <trkpt lat="43.6518" lon="0.59126">
        <ele>126</ele>
        <time>2020-10-03T17:34:28.000Z</time>
      </trkpt>
      <trkpt lat="43.65178" lon="0.59126">
        <ele>126</ele>
        <time>2020-10-03T17:34:29.000Z</time>
      </trkpt>
      <trkpt lat="43.65175" lon="0.59127">
        <ele>126</ele>
        <time>2020-10-03T17:34:30.000Z</time>
      </trkpt>
      <trkpt lat="43.65172" lon="0.59127">
        <ele>126</ele>
        <time>2020-10-03T17:34:31.000Z</time>
      </trkpt>
      <trkpt lat="43.65169" lon="0.59128">
        <ele>126</ele>
        <time>2020-10-03T17:34:32.000Z</time>
      </trkpt>
      <trkpt lat="43.65167" lon="0.59129">
        <ele>126</ele>
        <time>2020-10-03T17:34:33.000Z</time>
      </trkpt>
      <trkpt lat="43.65164" lon="0.5913">
        <ele>126</ele>
        <time>2020-10-03T17:34:34.000Z</time>
      </trkpt>
      <trkpt lat="43.65161" lon="0.59131">
        <ele>126</ele>
        <time>2020-10-03T17:34:35.000Z</time>
      </trkpt>
      <trkpt lat="43.65159" lon="0.59131">
        <ele>126</ele>
        <time>2020-10-03T17:34:36.000Z</time>
      </trkpt>
      <trkpt lat="43.65154" lon="0.59133">
        <ele>126</ele>
        <time>2020-10-03T17:34:38.000Z</time>
      </trkpt>
      <trkpt lat="43.65151" lon="0.59134">
        <ele>126</ele>
        <time>2020-10-03T17:34:39.000Z</time>
      </trkpt>
      <trkpt lat="43.6514" lon="0.59137">
        <ele>126</ele>
        <time>2020-10-03T17:34:43.000Z</time>
      </trkpt>
      <trkpt lat="43.65137" lon="0.59138">
        <ele>126</ele>
        <time>2020-10-03T17:34:44.000Z</time>
      </trkpt>
      <trkpt lat="43.65134" lon="0.59138">
        <ele>125.52829869706</ele>
        <time>2020-10-03T17:34:45.000Z</time>
      </trkpt>
      <trkpt lat="43.65132" lon="0.59139">
        <ele>125</ele>
        <time>2020-10-03T17:34:46.000Z</time>
      </trkpt>
      <trkpt lat="43.65129" lon="0.59139">
        <ele>125</ele>
        <time>2020-10-03T17:34:47.000Z</time>
      </trkpt>
      <trkpt lat="43.65126" lon="0.5914">
        <ele>125</ele>
        <time>2020-10-03T17:34:48.000Z</time>
      </trkpt>
      <trkpt lat="43.65123" lon="0.5914">
        <ele>125</ele>
        <time>2020-10-03T17:34:49.000Z</time>
      </trkpt>
      <trkpt lat="43.6512" lon="0.59141">
        <ele>125</ele>
        <time>2020-10-03T17:34:50.000Z</time>
      </trkpt>
      <trkpt lat="43.65117" lon="0.59141">
        <ele>125</ele>
        <time>2020-10-03T17:34:51.000Z</time>
      </trkpt>
      <trkpt lat="43.65115" lon="0.59142">
        <ele>125</ele>
        <time>2020-10-03T17:34:52.000Z</time>
      </trkpt>
      <trkpt lat="43.65111" lon="0.59143">
        <ele>125</ele>
        <time>2020-10-03T17:34:53.000Z</time>
      </trkpt>
      <trkpt lat="43.65109" lon="0.59144">
        <ele>125</ele>
        <time>2020-10-03T17:34:54.000Z</time>
      </trkpt>
      <trkpt lat="43.65099" lon="0.59146">
        <ele>124</ele>
        <time>2020-10-03T17:34:57.000Z</time>
      </trkpt>
      <trkpt lat="43.6509" lon="0.59149">
        <ele>124</ele>
        <time>2020-10-03T17:35:00.000Z</time>
      </trkpt>
      <trkpt lat="43.65081" lon="0.59151">
        <ele>123</ele>
        <time>2020-10-03T17:35:03.000Z</time>
      </trkpt>
      <trkpt lat="43.65073" lon="0.59149">
        <ele>124</ele>
        <time>2020-10-03T17:35:06.000Z</time>
      </trkpt>
      <trkpt lat="43.65071" lon="0.59149">
        <ele>124</ele>
        <time>2020-10-03T17:35:07.000Z</time>
      </trkpt>
      <trkpt lat="43.65068" lon="0.59149">
        <ele>124</ele>
        <time>2020-10-03T17:35:08.000Z</time>
      </trkpt>
      <trkpt lat="43.65066" lon="0.59148">
        <ele>123.63953384533</ele>
        <time>2020-10-03T17:35:09.000Z</time>
      </trkpt>
      <trkpt lat="43.65064" lon="0.59148">
        <ele>123</ele>
        <time>2020-10-03T17:35:10.000Z</time>
      </trkpt>
      <trkpt lat="43.65061" lon="0.59148">
        <ele>123</ele>
        <time>2020-10-03T17:35:11.000Z</time>
      </trkpt>
      <trkpt lat="43.65059" lon="0.59147">
        <ele>123</ele>
        <time>2020-10-03T17:35:12.000Z</time>
      </trkpt>
      <trkpt lat="43.65057" lon="0.59147">
        <ele>123</ele>
        <time>2020-10-03T17:35:13.000Z</time>
      </trkpt>
      <trkpt lat="43.65054" lon="0.59147">
        <ele>123</ele>
        <time>2020-10-03T17:35:14.000Z</time>
      </trkpt>
      <trkpt lat="43.65052" lon="0.59147">
        <ele>123</ele>
        <time>2020-10-03T17:35:15.000Z</time>
      </trkpt>
      <trkpt lat="43.65049" lon="0.59146">
        <ele>123</ele>
        <time>2020-10-03T17:35:16.000Z</time>
      </trkpt>
      <trkpt lat="43.65047" lon="0.59146">
        <ele>123</ele>
        <time>2020-10-03T17:35:17.000Z</time>
      </trkpt>
      <trkpt lat="43.65044" lon="0.59145">
        <ele>123.30850933453</ele>
        <time>2020-10-03T17:35:18.000Z</time>
      </trkpt>
      <trkpt lat="43.65042" lon="0.59145">
        <ele>124</ele>
        <time>2020-10-03T17:35:19.000Z</time>
      </trkpt>
      <trkpt lat="43.6504" lon="0.59144">
        <ele>124</ele>
        <time>2020-10-03T17:35:20.000Z</time>
      </trkpt>
      <trkpt lat="43.65037" lon="0.59144">
        <ele>124</ele>
        <time>2020-10-03T17:35:21.000Z</time>
      </trkpt>
      <trkpt lat="43.65035" lon="0.59144">
        <ele>124</ele>
        <time>2020-10-03T17:35:22.000Z</time>
      </trkpt>
      <trkpt lat="43.65032" lon="0.59144">
        <ele>123.58771880579</ele>
        <time>2020-10-03T17:35:23.000Z</time>
      </trkpt>
      <trkpt lat="43.6503" lon="0.59142">
        <ele>123</ele>
        <time>2020-10-03T17:35:24.000Z</time>
      </trkpt>
      <trkpt lat="43.65028" lon="0.59141">
        <ele>123</ele>
        <time>2020-10-03T17:35:25.000Z</time>
      </trkpt>
      <trkpt lat="43.65025" lon="0.5914">
        <ele>123</ele>
        <time>2020-10-03T17:35:26.000Z</time>
      </trkpt>
      <trkpt lat="43.65023" lon="0.5914">
        <ele>122.63094857143</ele>
        <time>2020-10-03T17:35:27.000Z</time>
      </trkpt>
      <trkpt lat="43.65021" lon="0.59139">
        <ele>122</ele>
        <time>2020-10-03T17:35:28.000Z</time>
      </trkpt>
      <trkpt lat="43.65019" lon="0.59138">
        <ele>122</ele>
        <time>2020-10-03T17:35:29.000Z</time>
      </trkpt>
      <trkpt lat="43.65016" lon="0.59138">
        <ele>122.29629746685</ele>
        <time>2020-10-03T17:35:30.000Z</time>
      </trkpt>
      <trkpt lat="43.65014" lon="0.59137">
        <ele>123</ele>
        <time>2020-10-03T17:35:31.000Z</time>
      </trkpt>
      <trkpt lat="43.65012" lon="0.59135">
        <ele>123</ele>
        <time>2020-10-03T17:35:32.000Z</time>
      </trkpt>
      <trkpt lat="43.65009" lon="0.59134">
        <ele>123</ele>
        <time>2020-10-03T17:35:33.000Z</time>
      </trkpt>
      <trkpt lat="43.65007" lon="0.59133">
        <ele>123</ele>
        <time>2020-10-03T17:35:34.000Z</time>
      </trkpt>
      <trkpt lat="43.65004" lon="0.59132">
        <ele>123</ele>
        <time>2020-10-03T17:35:35.000Z</time>
      </trkpt>
      <trkpt lat="43.65002" lon="0.59131">
        <ele>123</ele>
        <time>2020-10-03T17:35:36.000Z</time>
      </trkpt>
      <trkpt lat="43.65" lon="0.5913">
        <ele>123</ele>
        <time>2020-10-03T17:35:37.000Z</time>
      </trkpt>
      <trkpt lat="43.64998" lon="0.59128">
        <ele>123.40697743645</ele>
        <time>2020-10-03T17:35:38.000Z</time>
      </trkpt>
      <trkpt lat="43.64996" lon="0.59126">
        <ele>124</ele>
        <time>2020-10-03T17:35:39.000Z</time>
      </trkpt>
      <trkpt lat="43.64994" lon="0.59124">
        <ele>124</ele>
        <time>2020-10-03T17:35:40.000Z</time>
      </trkpt>
      <trkpt lat="43.64992" lon="0.59122">
        <ele>123.63094857143</ele>
        <time>2020-10-03T17:35:41.000Z</time>
      </trkpt>
      <trkpt lat="43.6499" lon="0.5912">
        <ele>123</ele>
        <time>2020-10-03T17:35:42.000Z</time>
      </trkpt>
      <trkpt lat="43.64988" lon="0.59119">
        <ele>123</ele>
        <time>2020-10-03T17:35:43.000Z</time>
      </trkpt>
      <trkpt lat="43.64986" lon="0.59116">
        <ele>122.7</ele>
        <time>2020-10-03T17:35:44.000Z</time>
      </trkpt>
      <trkpt lat="43.64984" lon="0.59114">
        <ele>122</ele>
        <time>2020-10-03T17:35:45.000Z</time>
      </trkpt>
      <trkpt lat="43.64982" lon="0.59111">
        <ele>122.36470552803</ele>
        <time>2020-10-03T17:35:46.000Z</time>
      </trkpt>
      <trkpt lat="43.64979" lon="0.59109">
        <ele>123</ele>
        <time>2020-10-03T17:35:47.000Z</time>
      </trkpt>
      <trkpt lat="43.64977" lon="0.59107">
        <ele>123</ele>
        <time>2020-10-03T17:35:48.000Z</time>
      </trkpt>
      <trkpt lat="43.64976" lon="0.59106">
        <ele>123</ele>
        <time>2020-10-03T17:35:49.000Z</time>
      </trkpt>
      <trkpt lat="43.64973" lon="0.59104">
        <ele>123</ele>
        <time>2020-10-03T17:35:50.000Z</time>
      </trkpt>
      <trkpt lat="43.64971" lon="0.59102">
        <ele>123</ele>
        <time>2020-10-03T17:35:51.000Z</time>
      </trkpt>
      <trkpt lat="43.64969" lon="0.591">
        <ele>123</ele>
        <time>2020-10-03T17:35:52.000Z</time>
      </trkpt>
      <trkpt lat="43.64966" lon="0.59098">
        <ele>123</ele>
        <time>2020-10-03T17:35:53.000Z</time>
      </trkpt>
      <trkpt lat="43.64964" lon="0.59097">
        <ele>123</ele>
        <time>2020-10-03T17:35:54.000Z</time>
      </trkpt>
      <trkpt lat="43.64962" lon="0.59096">
        <ele>123</ele>
        <time>2020-10-03T17:35:55.000Z</time>
      </trkpt>
      <trkpt lat="43.64959" lon="0.59094">
        <ele>123</ele>
        <time>2020-10-03T17:35:56.000Z</time>
      </trkpt>
      <trkpt lat="43.64957" lon="0.59093">
        <ele>122.60605864708</ele>
        <time>2020-10-03T17:35:57.000Z</time>
      </trkpt>
      <trkpt lat="43.64955" lon="0.59091">
        <ele>122</ele>
        <time>2020-10-03T17:35:58.000Z</time>
      </trkpt>
      <trkpt lat="43.64953" lon="0.59089">
        <ele>122.39999767274</ele>
        <time>2020-10-03T17:35:59.000Z</time>
      </trkpt>
      <trkpt lat="43.64951" lon="0.59087">
        <ele>123</ele>
        <time>2020-10-03T17:36:00.000Z</time>
      </trkpt>
      <trkpt lat="43.64949" lon="0.59085">
        <ele>123</ele>
        <time>2020-10-03T17:36:01.000Z</time>
      </trkpt>
      <trkpt lat="43.64948" lon="0.59084">
        <ele>123</ele>
        <time>2020-10-03T17:36:02.000Z</time>
      </trkpt>
      <trkpt lat="43.64946" lon="0.59083">
        <ele>123</ele>
        <time>2020-10-03T17:36:03.000Z</time>
      </trkpt>
      <trkpt lat="43.64943" lon="0.59081">
        <ele>123</ele>
        <time>2020-10-03T17:36:04.000Z</time>
      </trkpt>
      <trkpt lat="43.64933" lon="0.59073">
        <ele>125</ele>
        <time>2020-10-03T17:36:08.000Z</time>
      </trkpt>
      <trkpt lat="43.64925" lon="0.59069">
        <ele>125</ele>
        <time>2020-10-03T17:36:11.000Z</time>
      </trkpt>
      <trkpt lat="43.64916" lon="0.59065">
        <ele>125</ele>
        <time>2020-10-03T17:36:15.000Z</time>
      </trkpt>
      <trkpt lat="43.64907" lon="0.59063">
        <ele>126</ele>
        <time>2020-10-03T17:36:19.000Z</time>
      </trkpt>
      <trkpt lat="43.64898" lon="0.59061">
        <ele>126</ele>
        <time>2020-10-03T17:36:25.000Z</time>
      </trkpt>
      <trkpt lat="43.64895" lon="0.59055">
        <ele>126</ele>
        <time>2020-10-03T17:36:28.000Z</time>
      </trkpt>
      <trkpt lat="43.64893" lon="0.59054">
        <ele>127</ele>
        <time>2020-10-03T17:36:30.000Z</time>
      </trkpt>
      <trkpt lat="43.64889" lon="0.59051">
        <ele>127.17948044702</ele>
        <time>2020-10-03T17:36:33.000Z</time>
      </trkpt>
      <trkpt lat="43.64887" lon="0.59052">
        <ele>128</ele>
        <time>2020-10-03T17:36:36.000Z</time>
      </trkpt>
      <trkpt lat="43.64886" lon="0.59048">
        <ele>128.40000232729</ele>
        <time>2020-10-03T17:36:38.000Z</time>
      </trkpt>
      <trkpt lat="43.64885" lon="0.59045">
        <ele>129</ele>
        <time>2020-10-03T17:36:40.000Z</time>
      </trkpt>
      <trkpt lat="43.64884" lon="0.59042">
        <ele>129</ele>
        <time>2020-10-03T17:36:42.000Z</time>
      </trkpt>
      <trkpt lat="43.64882" lon="0.5904">
        <ele>129</ele>
        <time>2020-10-03T17:36:44.000Z</time>
      </trkpt>
      <trkpt lat="43.64882" lon="0.59037">
        <ele>129.17391385004</ele>
        <time>2020-10-03T17:36:53.000Z</time>
      </trkpt>
      <trkpt lat="43.64882" lon="0.59033">
        <ele>130</ele>
        <time>2020-10-03T17:37:09.000Z</time>
      </trkpt>
      <trkpt lat="43.64883" lon="0.59029">
        <ele>130</ele>
        <time>2020-10-03T17:37:11.000Z</time>
      </trkpt>
      <trkpt lat="43.64885" lon="0.59026">
        <ele>131</ele>
        <time>2020-10-03T17:37:13.000Z</time>
      </trkpt>
      <trkpt lat="43.64886" lon="0.59021">
        <ele>131</ele>
        <time>2020-10-03T17:37:15.000Z</time>
      </trkpt>
      <trkpt lat="43.64887" lon="0.59019">
        <ele>130.65115794487</ele>
        <time>2020-10-03T17:37:16.000Z</time>
      </trkpt>
      <trkpt lat="43.64888" lon="0.59015">
        <ele>130</ele>
        <time>2020-10-03T17:37:18.000Z</time>
      </trkpt>
      <trkpt lat="43.64889" lon="0.59011">
        <ele>130</ele>
        <time>2020-10-03T17:37:20.000Z</time>
      </trkpt>
      <trkpt lat="43.6489" lon="0.59007">
        <ele>130</ele>
        <time>2020-10-03T17:37:22.000Z</time>
      </trkpt>
      <trkpt lat="43.64891" lon="0.59002">
        <ele>129</ele>
        <time>2020-10-03T17:37:24.000Z</time>
      </trkpt>
      <trkpt lat="43.64892" lon="0.58998">
        <ele>129</ele>
        <time>2020-10-03T17:37:26.000Z</time>
      </trkpt>
      <trkpt lat="43.64893" lon="0.58993">
        <ele>129</ele>
        <time>2020-10-03T17:37:28.000Z</time>
      </trkpt>
      <trkpt lat="43.64894" lon="0.58989">
        <ele>129</ele>
        <time>2020-10-03T17:37:30.000Z</time>
      </trkpt>
      <trkpt lat="43.64895" lon="0.58984">
        <ele>129</ele>
        <time>2020-10-03T17:37:32.000Z</time>
      </trkpt>
      <trkpt lat="43.64895" lon="0.58982">
        <ele>129</ele>
        <time>2020-10-03T17:37:33.000Z</time>
      </trkpt>
      <trkpt lat="43.64897" lon="0.58977">
        <ele>129</ele>
        <time>2020-10-03T17:37:35.000Z</time>
      </trkpt>
      <trkpt lat="43.64898" lon="0.58973">
        <ele>129</ele>
        <time>2020-10-03T17:37:37.000Z</time>
      </trkpt>
      <trkpt lat="43.64899" lon="0.58969">
        <ele>129</ele>
        <time>2020-10-03T17:37:39.000Z</time>
      </trkpt>
      <trkpt lat="43.649" lon="0.58965">
        <ele>129</ele>
        <time>2020-10-03T17:37:41.000Z</time>
      </trkpt>
      <trkpt lat="43.64901" lon="0.5896">
        <ele>129</ele>
        <time>2020-10-03T17:37:43.000Z</time>
      </trkpt>
      <trkpt lat="43.64902" lon="0.58956">
        <ele>129</ele>
        <time>2020-10-03T17:37:45.000Z</time>
      </trkpt>
      <trkpt lat="43.64903" lon="0.58952">
        <ele>129</ele>
        <time>2020-10-03T17:37:47.000Z</time>
      </trkpt>
      <trkpt lat="43.64905" lon="0.58948">
        <ele>129</ele>
        <time>2020-10-03T17:37:49.000Z</time>
      </trkpt>
      <trkpt lat="43.64905" lon="0.58944">
        <ele>129</ele>
        <time>2020-10-03T17:37:51.000Z</time>
      </trkpt>
      <trkpt lat="43.64906" lon="0.5894">
        <ele>129</ele>
        <time>2020-10-03T17:37:54.000Z</time>
      </trkpt>
      <trkpt lat="43.64904" lon="0.58938">
        <ele>129</ele>
        <time>2020-10-03T17:37:55.000Z</time>
      </trkpt>
      <trkpt lat="43.64902" lon="0.58936">
        <ele>129</ele>
        <time>2020-10-03T17:37:56.000Z</time>
      </trkpt>
      <trkpt lat="43.64901" lon="0.58934">
        <ele>129</ele>
        <time>2020-10-03T17:37:57.000Z</time>
      </trkpt>
      <trkpt lat="43.64899" lon="0.58932">
        <ele>128.58715768707</ele>
        <time>2020-10-03T17:37:58.000Z</time>
      </trkpt>
      <trkpt lat="43.64897" lon="0.5893">
        <ele>128</ele>
        <time>2020-10-03T17:37:59.000Z</time>
      </trkpt>
      <trkpt lat="43.64895" lon="0.58929">
        <ele>128</ele>
        <time>2020-10-03T17:38:00.000Z</time>
      </trkpt>
      <trkpt lat="43.64892" lon="0.58929">
        <ele>128</ele>
        <time>2020-10-03T17:38:01.000Z</time>
      </trkpt>
      <trkpt lat="43.6489" lon="0.58929">
        <ele>128</ele>
        <time>2020-10-03T17:38:02.000Z</time>
      </trkpt>
      <trkpt lat="43.64887" lon="0.58929">
        <ele>128</ele>
        <time>2020-10-03T17:38:03.000Z</time>
      </trkpt>
      <trkpt lat="43.64885" lon="0.58928">
        <ele>128</ele>
        <time>2020-10-03T17:38:04.000Z</time>
      </trkpt>
      <trkpt lat="43.64873" lon="0.58929">
        <ele>128</ele>
        <time>2020-10-03T17:38:08.000Z</time>
      </trkpt>
      <trkpt lat="43.64862" lon="0.58924">
        <ele>127</ele>
        <time>2020-10-03T17:38:12.000Z</time>
      </trkpt>
      <trkpt lat="43.64852" lon="0.5892">
        <ele>127</ele>
        <time>2020-10-03T17:38:16.000Z</time>
      </trkpt>
      <trkpt lat="43.64843" lon="0.58919">
        <ele>127</ele>
        <time>2020-10-03T17:38:19.000Z</time>
      </trkpt>
      <trkpt lat="43.64833" lon="0.58913">
        <ele>127</ele>
        <time>2020-10-03T17:38:23.000Z</time>
      </trkpt>
      <trkpt lat="43.64831" lon="0.58912">
        <ele>127</ele>
        <time>2020-10-03T17:38:24.000Z</time>
      </trkpt>
      <trkpt lat="43.64828" lon="0.58911">
        <ele>127</ele>
        <time>2020-10-03T17:38:25.000Z</time>
      </trkpt>
      <trkpt lat="43.64826" lon="0.5891">
        <ele>127</ele>
        <time>2020-10-03T17:38:26.000Z</time>
      </trkpt>
      <trkpt lat="43.64823" lon="0.58909">
        <ele>127</ele>
        <time>2020-10-03T17:38:27.000Z</time>
      </trkpt>
      <trkpt lat="43.64821" lon="0.58908">
        <ele>127</ele>
        <time>2020-10-03T17:38:28.000Z</time>
      </trkpt>
      <trkpt lat="43.64811" lon="0.58903">
        <ele>127</ele>
        <time>2020-10-03T17:38:32.000Z</time>
      </trkpt>
      <trkpt lat="43.648" lon="0.58898">
        <ele>127</ele>
        <time>2020-10-03T17:38:36.000Z</time>
      </trkpt>
      <trkpt lat="43.64798" lon="0.58897">
        <ele>127</ele>
        <time>2020-10-03T17:38:37.000Z</time>
      </trkpt>
      <trkpt lat="43.64795" lon="0.58896">
        <ele>127</ele>
        <time>2020-10-03T17:38:38.000Z</time>
      </trkpt>
      <trkpt lat="43.64793" lon="0.58894">
        <ele>127</ele>
        <time>2020-10-03T17:38:39.000Z</time>
      </trkpt>
      <trkpt lat="43.6479" lon="0.58892">
        <ele>127</ele>
        <time>2020-10-03T17:38:40.000Z</time>
      </trkpt>
      <trkpt lat="43.64788" lon="0.5889">
        <ele>127</ele>
        <time>2020-10-03T17:38:41.000Z</time>
      </trkpt>
      <trkpt lat="43.64786" lon="0.58889">
        <ele>127</ele>
        <time>2020-10-03T17:38:42.000Z</time>
      </trkpt>
      <trkpt lat="43.64784" lon="0.58888">
        <ele>127</ele>
        <time>2020-10-03T17:38:43.000Z</time>
      </trkpt>
      <trkpt lat="43.64782" lon="0.58887">
        <ele>127</ele>
        <time>2020-10-03T17:38:44.000Z</time>
      </trkpt>
      <trkpt lat="43.6478" lon="0.58886">
        <ele>127</ele>
        <time>2020-10-03T17:38:45.000Z</time>
      </trkpt>
      <trkpt lat="43.64777" lon="0.58885">
        <ele>127</ele>
        <time>2020-10-03T17:38:46.000Z</time>
      </trkpt>
      <trkpt lat="43.64775" lon="0.58884">
        <ele>127</ele>
        <time>2020-10-03T17:38:47.000Z</time>
      </trkpt>
      <trkpt lat="43.64772" lon="0.58883">
        <ele>127</ele>
        <time>2020-10-03T17:38:48.000Z</time>
      </trkpt>
      <trkpt lat="43.6477" lon="0.58882">
        <ele>127</ele>
        <time>2020-10-03T17:38:49.000Z</time>
      </trkpt>
      <trkpt lat="43.64767" lon="0.58881">
        <ele>127</ele>
        <time>2020-10-03T17:38:50.000Z</time>
      </trkpt>
      <trkpt lat="43.64765" lon="0.5888">
        <ele>127</ele>
        <time>2020-10-03T17:38:51.000Z</time>
      </trkpt>
      <trkpt lat="43.64762" lon="0.58879">
        <ele>127.41583656503</ele>
        <time>2020-10-03T17:38:52.000Z</time>
      </trkpt>
      <trkpt lat="43.64759" lon="0.58878">
        <ele>128</ele>
        <time>2020-10-03T17:38:53.000Z</time>
      </trkpt>
      <trkpt lat="43.64756" lon="0.58877">
        <ele>128</ele>
        <time>2020-10-03T17:38:54.000Z</time>
      </trkpt>
      <trkpt lat="43.64754" lon="0.58876">
        <ele>128</ele>
        <time>2020-10-03T17:38:55.000Z</time>
      </trkpt>
      <trkpt lat="43.64751" lon="0.58875">
        <ele>128</ele>
        <time>2020-10-03T17:38:56.000Z</time>
      </trkpt>
      <trkpt lat="43.64749" lon="0.58873">
        <ele>127.73255640888</ele>
        <time>2020-10-03T17:38:57.000Z</time>
      </trkpt>
      <trkpt lat="43.64746" lon="0.58872">
        <ele>127</ele>
        <time>2020-10-03T17:38:58.000Z</time>
      </trkpt>
      <trkpt lat="43.64743" lon="0.58871">
        <ele>127</ele>
        <time>2020-10-03T17:38:59.000Z</time>
      </trkpt>
      <trkpt lat="43.64741" lon="0.5887">
        <ele>127</ele>
        <time>2020-10-03T17:39:00.000Z</time>
      </trkpt>
      <trkpt lat="43.64739" lon="0.58868">
        <ele>127</ele>
        <time>2020-10-03T17:39:01.000Z</time>
      </trkpt>
      <trkpt lat="43.64737" lon="0.58865">
        <ele>127.40909038016</ele>
        <time>2020-10-03T17:39:02.000Z</time>
      </trkpt>
      <trkpt lat="43.64738" lon="0.58852">
        <ele>128</ele>
        <time>2020-10-03T17:39:05.000Z</time>
      </trkpt>
      <trkpt lat="43.6474" lon="0.58841">
        <ele>128</ele>
        <time>2020-10-03T17:39:08.000Z</time>
      </trkpt>
      <trkpt lat="43.6474" lon="0.58838">
        <ele>128</ele>
        <time>2020-10-03T17:39:09.000Z</time>
      </trkpt>
      <trkpt lat="43.64741" lon="0.58835">
        <ele>128</ele>
        <time>2020-10-03T17:39:10.000Z</time>
      </trkpt>
      <trkpt lat="43.64741" lon="0.58832">
        <ele>128</ele>
        <time>2020-10-03T17:39:11.000Z</time>
      </trkpt>
      <trkpt lat="43.64742" lon="0.58829">
        <ele>128</ele>
        <time>2020-10-03T17:39:12.000Z</time>
      </trkpt>
      <trkpt lat="43.64743" lon="0.58826">
        <ele>128.35293497576</ele>
        <time>2020-10-03T17:39:13.000Z</time>
      </trkpt>
      <trkpt lat="43.64744" lon="0.58823">
        <ele>129</ele>
        <time>2020-10-03T17:39:14.000Z</time>
      </trkpt>
      <trkpt lat="43.64745" lon="0.58819">
        <ele>129</ele>
        <time>2020-10-03T17:39:16.000Z</time>
      </trkpt>
      <trkpt lat="43.64745" lon="0.58814">
        <ele>129</ele>
        <time>2020-10-03T17:39:18.000Z</time>
      </trkpt>
      <trkpt lat="43.64745" lon="0.58812">
        <ele>129.32623733614</ele>
        <time>2020-10-03T17:39:19.000Z</time>
      </trkpt>
      <trkpt lat="43.64746" lon="0.58809">
        <ele>130</ele>
        <time>2020-10-03T17:39:20.000Z</time>
      </trkpt>
      <trkpt lat="43.64747" lon="0.58806">
        <ele>130.31192972979</ele>
        <time>2020-10-03T17:39:21.000Z</time>
      </trkpt>
      <trkpt lat="43.64747" lon="0.58802">
        <ele>131</ele>
        <time>2020-10-03T17:39:22.000Z</time>
      </trkpt>
      <trkpt lat="43.64747" lon="0.58799">
        <ele>131</ele>
        <time>2020-10-03T17:39:23.000Z</time>
      </trkpt>
      <trkpt lat="43.64748" lon="0.58795">
        <ele>131</ele>
        <time>2020-10-03T17:39:24.000Z</time>
      </trkpt>
      <trkpt lat="43.64748" lon="0.58792">
        <ele>131</ele>
        <time>2020-10-03T17:39:25.000Z</time>
      </trkpt>
      <trkpt lat="43.64749" lon="0.58789">
        <ele>131</ele>
        <time>2020-10-03T17:39:26.000Z</time>
      </trkpt>
      <trkpt lat="43.64751" lon="0.58782">
        <ele>132</ele>
        <time>2020-10-03T17:39:29.000Z</time>
      </trkpt>
      <trkpt lat="43.64752" lon="0.5878">
        <ele>132</ele>
        <time>2020-10-03T17:39:30.000Z</time>
      </trkpt>
      <trkpt lat="43.64752" lon="0.58777">
        <ele>132</ele>
        <time>2020-10-03T17:39:31.000Z</time>
      </trkpt>
      <trkpt lat="43.64753" lon="0.58775">
        <ele>132</ele>
        <time>2020-10-03T17:39:32.000Z</time>
      </trkpt>
      <trkpt lat="43.64752" lon="0.58761">
        <ele>132.26136727273</ele>
        <time>2020-10-03T17:39:37.000Z</time>
      </trkpt>
      <trkpt lat="43.64745" lon="0.5875">
        <ele>134</ele>
        <time>2020-10-03T17:39:42.000Z</time>
      </trkpt>
      <trkpt lat="43.64736" lon="0.58743">
        <ele>134</ele>
        <time>2020-10-03T17:39:47.000Z</time>
      </trkpt>
      <trkpt lat="43.64726" lon="0.5874">
        <ele>135</ele>
        <time>2020-10-03T17:39:52.000Z</time>
      </trkpt>
      <trkpt lat="43.64715" lon="0.58738">
        <ele>136</ele>
        <time>2020-10-03T17:40:00.000Z</time>
      </trkpt>
      <trkpt lat="43.64706" lon="0.58738">
        <ele>136</ele>
        <time>2020-10-03T17:40:05.000Z</time>
      </trkpt>
      <trkpt lat="43.64703" lon="0.58734">
        <ele>137</ele>
        <time>2020-10-03T17:40:08.000Z</time>
      </trkpt>
      <trkpt lat="43.64701" lon="0.58728">
        <ele>137</ele>
        <time>2020-10-03T17:40:12.000Z</time>
      </trkpt>
      <trkpt lat="43.64701" lon="0.58722">
        <ele>137</ele>
        <time>2020-10-03T17:40:15.000Z</time>
      </trkpt>
      <trkpt lat="43.64702" lon="0.5871">
        <ele>137</ele>
        <time>2020-10-03T17:40:20.000Z</time>
      </trkpt>
      <trkpt lat="43.64705" lon="0.58698">
        <ele>139</ele>
        <time>2020-10-03T17:40:27.000Z</time>
      </trkpt>
      <trkpt lat="43.64707" lon="0.58684">
        <ele>141</ele>
        <time>2020-10-03T17:40:34.000Z</time>
      </trkpt>
      <trkpt lat="43.64708" lon="0.58679">
        <ele>141</ele>
        <time>2020-10-03T17:40:37.000Z</time>
      </trkpt>
      <trkpt lat="43.64709" lon="0.58674">
        <ele>141</ele>
        <time>2020-10-03T17:40:40.000Z</time>
      </trkpt>
      <trkpt lat="43.64709" lon="0.58662">
        <ele>142.39215440217</ele>
        <time>2020-10-03T17:40:46.000Z</time>
      </trkpt>
      <trkpt lat="43.64709" lon="0.58648">
        <ele>144</ele>
        <time>2020-10-03T17:40:53.000Z</time>
      </trkpt>
      <trkpt lat="43.64706" lon="0.58635">
        <ele>148</ele>
        <time>2020-10-03T17:41:09.000Z</time>
      </trkpt>
      <trkpt lat="43.64708" lon="0.58623">
        <ele>149</ele>
        <time>2020-10-03T17:41:16.000Z</time>
      </trkpt>
      <trkpt lat="43.64705" lon="0.5861">
        <ele>149</ele>
        <time>2020-10-03T17:41:21.000Z</time>
      </trkpt>
      <trkpt lat="43.64696" lon="0.58609">
        <ele>150</ele>
        <time>2020-10-03T17:41:27.000Z</time>
      </trkpt>
      <trkpt lat="43.64689" lon="0.58601">
        <ele>151</ele>
        <time>2020-10-03T17:41:38.000Z</time>
      </trkpt>
      <trkpt lat="43.6468" lon="0.58604">
        <ele>152.7073147888</ele>
        <time>2020-10-03T17:42:06.000Z</time>
      </trkpt>
      <trkpt lat="43.64671" lon="0.58604">
        <ele>154</ele>
        <time>2020-10-03T17:42:10.000Z</time>
      </trkpt>
      <trkpt lat="43.64661" lon="0.58603">
        <ele>156.56521940768</ele>
        <time>2020-10-03T17:42:14.000Z</time>
      </trkpt>
      <trkpt lat="43.64651" lon="0.586">
        <ele>158</ele>
        <time>2020-10-03T17:42:18.000Z</time>
      </trkpt>
      <trkpt lat="43.64649" lon="0.58588">
        <ele>159</ele>
        <time>2020-10-03T17:42:23.000Z</time>
      </trkpt>
      <trkpt lat="43.64653" lon="0.58574">
        <ele>160</ele>
        <time>2020-10-03T17:42:29.000Z</time>
      </trkpt>
      <trkpt lat="43.64657" lon="0.58561">
        <ele>162</ele>
        <time>2020-10-03T17:42:33.000Z</time>
      </trkpt>
      <trkpt lat="43.64658" lon="0.58546">
        <ele>163</ele>
        <time>2020-10-03T17:42:36.000Z</time>
      </trkpt>
      <trkpt lat="43.64654" lon="0.58534">
        <ele>160.61403292089</ele>
        <time>2020-10-03T17:42:39.000Z</time>
      </trkpt>
      <trkpt lat="43.6465" lon="0.58522">
        <ele>161.26786285714</ele>
        <time>2020-10-03T17:42:44.000Z</time>
      </trkpt>
    </trkseg>
  </trk>
</gpx>